/* DATA DESCRIPTION:
Citation:	Vuilleumier, Laurent (2026): Other measurements at 10 m from station Payerne (2025-07) [dataset]. Federal Office of Meteorology and Climatology MeteoSwiss, Payerne, PANGAEA, https://doi.org/10.1594/PANGAEA.992970
Other version:	Vuilleumier, Laurent (2026): BSRN Station-to-archive file for station Payerne (2025-07) [dataset]. ftp://ftp.bsrn.awi.de/pay/pay0725.dat.gz
Project(s):	Baseline Surface Radiation Network (BSRN) (URI: https://bsrn.awi.de/)
Coverage:	LATITUDE: 46.812300 * LONGITUDE: 6.942200
	DATE/TIME START: 2025-07-01T00:00:00 * DATE/TIME END: 2025-07-31T23:59:00
	MINIMUM HEIGHT above ground: 10 m * MAXIMUM HEIGHT above ground: 10 m
Event(s):	PAY (Payerne) * LATITUDE: 46.812300 * LONGITUDE: 6.942200 * DATE/TIME: 1992-09-01T00:00:00 * ELEVATION: 491.0 m * LOCATION: Switzerland * METHOD/DEVICE: Monitoring station (MONS) * COMMENT: BSRN station no: 21; Surface type: cultivated; Topography type: hilly, rural; Horizon: doi:10.1594/PANGAEA.947035; Station scientist: Laurent Vuilleumier (laurent.vuilleumier@meteoswiss.ch)
Parameter(s):	DATE/TIME (Date/Time) * GEOCODE * PI: Vuilleumier, Laurent (https://orcid.org/0000-0003-0222-2566, laurent.vuilleumier@meteoswiss.ch)
	HEIGHT above ground [m] (Height) * GEOCODE * PI: Vuilleumier, Laurent (https://orcid.org/0000-0003-0222-2566, laurent.vuilleumier@meteoswiss.ch)
	Short-wave upward (REFLEX) radiation [W/m**2] (SWU) * PI: Vuilleumier, Laurent (https://orcid.org/0000-0003-0222-2566, laurent.vuilleumier@meteoswiss.ch) * METHOD/DEVICE: Pyranometer, Kipp & Zonen, CM21, SN 041303, WRMC No. 21074
	Short-wave upward (REFLEX) radiation, standard deviation [W/m**2] (SWU std dev) * PI: Vuilleumier, Laurent (https://orcid.org/0000-0003-0222-2566, laurent.vuilleumier@meteoswiss.ch) * METHOD/DEVICE: Pyranometer, Kipp & Zonen, CM21, SN 041303, WRMC No. 21074
	Short-wave upward (REFLEX) radiation, minimum [W/m**2] (SWU min) * PI: Vuilleumier, Laurent (https://orcid.org/0000-0003-0222-2566, laurent.vuilleumier@meteoswiss.ch) * METHOD/DEVICE: Pyranometer, Kipp & Zonen, CM21, SN 041303, WRMC No. 21074
	Short-wave upward (REFLEX) radiation, maximum [W/m**2] (SWU max) * PI: Vuilleumier, Laurent (https://orcid.org/0000-0003-0222-2566, laurent.vuilleumier@meteoswiss.ch) * METHOD/DEVICE: Pyranometer, Kipp & Zonen, CM21, SN 041303, WRMC No. 21074
	Long-wave upward radiation [W/m**2] (LWU) * PI: Vuilleumier, Laurent (https://orcid.org/0000-0003-0222-2566, laurent.vuilleumier@meteoswiss.ch) * METHOD/DEVICE: Pyrgeometer, Eppley, PIR, SN 31964F3, WRMC No. 21089
	Long-wave upward radiation, standard deviation [W/m**2] (LWU std dev) * PI: Vuilleumier, Laurent (https://orcid.org/0000-0003-0222-2566, laurent.vuilleumier@meteoswiss.ch) * METHOD/DEVICE: Pyrgeometer, Eppley, PIR, SN 31964F3, WRMC No. 21089
	Long-wave upward radiation, minimum [W/m**2] (LWU min) * PI: Vuilleumier, Laurent (https://orcid.org/0000-0003-0222-2566, laurent.vuilleumier@meteoswiss.ch) * METHOD/DEVICE: Pyrgeometer, Eppley, PIR, SN 31964F3, WRMC No. 21089
	Long-wave upward radiation, maximum [W/m**2] (LWU max) * PI: Vuilleumier, Laurent (https://orcid.org/0000-0003-0222-2566, laurent.vuilleumier@meteoswiss.ch) * METHOD/DEVICE: Pyrgeometer, Eppley, PIR, SN 31964F3, WRMC No. 21089
	Temperature, air [°C] (TTT) * PI: Vuilleumier, Laurent (https://orcid.org/0000-0003-0222-2566, laurent.vuilleumier@meteoswiss.ch) * METHOD/DEVICE: Thermometer
	Humidity, relative [%] (RH) * PI: Vuilleumier, Laurent (https://orcid.org/0000-0003-0222-2566, laurent.vuilleumier@meteoswiss.ch) * METHOD/DEVICE: Hygrometer (HYGRO)
License:	Baseline Surface Radiation Network License 1.0 (BSRN-1.0) (URI: https://bsrn.awi.de/data/conditions-of-data-release/)
Status:	Curation Level: Enhanced curation (URI: https://wiki.pangaea.de/wiki/Curation_levels)
Size:	446380 data points
*/
Date/Time	Height [m]	SWU [W/m**2]	SWU std dev [W/m**2]	SWU min [W/m**2]	SWU max [W/m**2]	LWU [W/m**2]	LWU std dev [W/m**2]	LWU min [W/m**2]	LWU max [W/m**2]	TTT [°C]	RH [%]
2025-07-01T00:00	10	0	0.1	0	0	408	0.3	407	408	21.4	63.8
2025-07-01T00:01	10	0	0.1	0	0	407	0.4	406	408	21.3	64.1
2025-07-01T00:02	10	0	0.1	0	0	407	0.3	406	407	21.2	64.5
2025-07-01T00:03	10	0	0.1	0	0	407	0.2	407	408	21.3	63.9
2025-07-01T00:04	10	0	0.1	0	0	407	0.3	406	408	21.3	64.4
2025-07-01T00:05	10	0	0.1	0	0	407	0.3	406	407	21.3	64.0
2025-07-01T00:06	10	0	0.1	0	0	407	0.4	406	408	21.4	63.7
2025-07-01T00:07	10	0	0.1	0	0	408	0.2	408	408	21.4	63.5
2025-07-01T00:08	10	0	0.1	0	0	408	0.2	408	409	21.5	63.4
2025-07-01T00:09	10	0	0.1	0	0	408	0.3	408	409	21.5	63.4
2025-07-01T00:10	10	0	0.1	0	0	408	0.2	407	408	21.4	63.7
2025-07-01T00:11	10	0	0.1	0	0	408	0.3	407	409	21.4	63.7
2025-07-01T00:12	10	0	0.1	0	0	408	0.4	407	409	21.5	63.3
2025-07-01T00:13	10	0	0.1	0	0	408	0.3	407	408	21.4	63.6
2025-07-01T00:14	10	0	0.1	0	0	408	0.2	408	409	21.4	63.4
2025-07-01T00:15	10	0	0.1	0	0	408	0.3	407	409	21.4	63.4
2025-07-01T00:16	10	0	0.1	0	0	408	0.3	407	408	21.4	63.4
2025-07-01T00:17	10	0	0.1	0	0	407	0.3	406	408	21.3	63.9
2025-07-01T00:18	10	0	0.1	0	0	407	0.3	406	408	21.3	64.0
2025-07-01T00:19	10	0	0.1	0	0	407	0.3	406	407	21.3	64.1
2025-07-01T00:20	10	0	0.1	0	0	406	0.3	406	407	21.3	64.0
2025-07-01T00:21	10	0	0.1	0	0	406	0.3	406	407	21.2	64.3
2025-07-01T00:22	10	0	0.1	0	0	406	0.2	406	407	21.3	64.1
2025-07-01T00:23	10	0	0.1	0	0	406	0.3	405	406	21.2	64.4
2025-07-01T00:24	10	0	0.1	0	0	406	0.3	405	407	21.2	64.3
2025-07-01T00:25	10	0	0.1	0	0	406	0.3	405	407	21.2	64.3
2025-07-01T00:26	10	0	0.1	0	0	406	0.6	405	407	21.3	63.8
2025-07-01T00:27	10	0	0.1	0	0	406	0.2	405	406	21.3	64.1
2025-07-01T00:28	10	0	0.1	0	0	405	0.4	404	406	21.1	65.0
2025-07-01T00:29	10	0	0.1	0	0	406	0.3	405	406	21.1	64.6
2025-07-01T00:30	10	0	0.1	0	0	406	0.2	405	406	21.2	64.4
2025-07-01T00:31	10	0	0.1	0	0	405	0.4	404	406	21.1	64.6
2025-07-01T00:32	10	0	0.1	0	0	405	0.3	405	406	21.2	64.5
2025-07-01T00:33	10	0	0.1	0	0	406	0.5	405	407	21.4	63.6
2025-07-01T00:34	10	0	0.1	0	0	406	0.2	406	407	21.4	63.4
2025-07-01T00:35	10	0	0.1	0	0	406	0.2	406	407	21.4	63.3
2025-07-01T00:36	10	0	0.1	0	0	406	0.2	405	406	21.4	63.5
2025-07-01T00:37	10	0	0.1	0	0	406	0.3	405	407	21.5	63.2
2025-07-01T00:38	10	0	0.1	0	0	406	0.3	405	406	21.4	63.4
2025-07-01T00:39	10	0	0.1	0	0	405	0.2	405	405	21.5	63.2
2025-07-01T00:40	10	0	0.1	0	0	405	0.5	404	406	21.5	63.1
2025-07-01T00:41	10	0	0.1	0	0	404	0.2	404	405	21.5	63.2
2025-07-01T00:42	10	0	0.1	0	0	405	0.2	404	405	21.3	64.2
2025-07-01T00:43	10	0	0.1	0	0	405	0.6	404	406	21.3	64.2
2025-07-01T00:44	10	0	0.1	-1	0	406	0.3	405	407	21.4	63.8
2025-07-01T00:45	10	0	0.1	0	0	406	0.2	406	407	21.5	63.6
2025-07-01T00:46	10	0	0.1	0	0	406	0.3	405	406	21.4	64.1
2025-07-01T00:47	10	0	0.1	0	0	406	0.3	405	406	21.4	63.7
2025-07-01T00:48	10	0	0.1	0	0	406	0.3	405	406	21.6	63.2
2025-07-01T00:49	10	0	0.1	0	0	405	0.3	405	406	21.6	63.1
2025-07-01T00:50	10	0	0.1	0	0	405	0.2	405	406	21.4	64.0
2025-07-01T00:51	10	0	0.0	0	0	405	0.5	404	406	21.1	65.1
2025-07-01T00:52	10	0	0.1	0	0	405	0.3	404	405	20.8	67.1
2025-07-01T00:53	10	0	0.1	0	0	404	0.5	402	405	20.6	67.6
2025-07-01T00:54	10	0	0.1	0	0	403	0.2	403	404	20.5	68.3
2025-07-01T00:55	10	0	0.1	0	0	403	0.4	402	404	20.4	68.9
2025-07-01T00:56	10	0	0.1	0	0	403	0.3	403	404	20.4	68.5
2025-07-01T00:57	10	0	0.1	0	0	403	0.2	403	404	20.4	68.7
2025-07-01T00:58	10	0	0.1	0	0	403	0.2	402	403	20.4	68.6
2025-07-01T00:59	10	0	0.1	0	0	403	0.3	402	403	20.4	68.6
2025-07-01T01:00	10	0	0.1	0	0	403	0.4	403	404	20.5	68.3
2025-07-01T01:01	10	0	0.1	0	0	404	0.9	403	406	20.7	67.1
2025-07-01T01:02	10	0	0.1	0	0	404	0.4	403	405	21.0	65.9
2025-07-01T01:03	10	0	0.1	0	0	403	0.4	402	404	20.6	67.5
2025-07-01T01:04	10	0	0.1	0	0	403	0.2	402	403	20.5	68.0
2025-07-01T01:05	10	0	0.1	0	0	402	0.3	401	403	20.6	67.5
2025-07-01T01:06	10	0	0.1	0	0	402	0.3	401	402	20.7	66.8
2025-07-01T01:07	10	0	0.1	0	0	401	0.5	400	402	20.8	66.3
2025-07-01T01:08	10	0	0.1	0	0	401	0.5	400	402	20.6	67.3
2025-07-01T01:09	10	0	0.1	0	0	400	0.5	399	402	20.9	66.0
2025-07-01T01:10	10	0	0.1	0	0	399	0.3	398	400	20.3	69.4
2025-07-01T01:11	10	0	0.1	0	0	399	0.3	398	400	20.2	69.4
2025-07-01T01:12	10	0	0.1	0	0	400	0.3	399	400	20.3	68.9
2025-07-01T01:13	10	0	0.1	0	0	400	0.4	399	401	20.5	67.4
2025-07-01T01:14	10	0	0.1	0	0	400	0.3	400	401	20.7	67.1
2025-07-01T01:15	10	0	0.1	0	0	401	0.3	400	401	20.9	66.0
2025-07-01T01:16	10	0	0.1	0	0	401	0.3	400	401	21.1	65.0
2025-07-01T01:17	10	0	0.1	0	0	401	0.2	400	401	21.2	64.5
2025-07-01T01:18	10	0	0.1	0	0	401	0.2	400	401	21.2	64.4
2025-07-01T01:19	10	0	0.1	0	0	401	0.2	400	401	21.2	64.7
2025-07-01T01:20	10	0	0.1	0	0	401	0.2	401	402	21.2	64.3
2025-07-01T01:21	10	0	0.1	0	0	401	0.4	400	402	21.3	64.3
2025-07-01T01:22	10	0	0.1	0	0	400	0.4	399	401	21.1	65.2
2025-07-01T01:23	10	0	0.1	0	0	401	0.4	400	402	21.1	65.1
2025-07-01T01:24	10	0	0.0	0	0	401	0.4	401	403	21.2	64.5
2025-07-01T01:25	10	0	0.1	0	0	402	0.3	401	403	21.3	64.3
2025-07-01T01:26	10	0	0.1	0	0	401	0.4	401	402	21.0	65.8
2025-07-01T01:27	10	0	0.1	0	0	401	0.3	401	402	20.7	67.4
2025-07-01T01:28	10	0	0.1	0	0	401	0.3	400	402	20.5	68.1
2025-07-01T01:29	10	0	0.1	0	0	401	0.2	401	402	20.5	68.3
2025-07-01T01:30	10	0	0.1	0	0	401	0.4	400	402	20.5	67.7
2025-07-01T01:31	10	0	0.1	0	0	401	0.2	401	402	20.6	67.2
2025-07-01T01:32	10	0	0.1	0	0	401	0.2	400	401	20.7	67.1
2025-07-01T01:33	10	0	0.1	0	0	400	0.3	400	401	20.6	67.4
2025-07-01T01:34	10	0	0.1	0	0	400	0.4	399	400	20.4	68.3
2025-07-01T01:35	10	0	0.1	0	0	399	0.3	398	400	20.3	69.0
2025-07-01T01:36	10	0	0.1	0	0	398	0.4	397	399	20.3	69.1
2025-07-01T01:37	10	0	0.1	0	0	397	0.2	397	398	20.1	70.1
2025-07-01T01:38	10	0	0.1	0	0	397	0.3	397	398	20.0	70.8
2025-07-01T01:39	10	0	0.1	0	0	397	0.2	396	397	20.0	70.9
2025-07-01T01:40	10	0	0.1	0	0	397	0.3	396	397	19.9	71.2
2025-07-01T01:41	10	0	0.1	0	0	396	0.3	396	397	19.9	71.2
2025-07-01T01:42	10	0	0.1	0	0	396	0.3	396	397	20.0	70.4
2025-07-01T01:43	10	0	0.1	0	0	396	0.6	395	397	20.0	70.6
2025-07-01T01:44	10	0	0.1	0	0	396	0.3	396	397	20.1	69.8
2025-07-01T01:45	10	0	0.1	0	0	396	0.2	396	397	20.1	70.1
2025-07-01T01:46	10	0	0.1	0	0	396	0.2	395	396	20.1	70.3
2025-07-01T01:47	10	0	0.1	0	0	395	0.2	395	396	20.0	71.2
2025-07-01T01:48	10	0	0.1	0	0	395	0.2	395	395	19.9	71.8
2025-07-01T01:49	10	0	0.1	0	0	395	0.2	395	396	19.8	72.3
2025-07-01T01:50	10	0	0.1	0	0	395	0.2	395	396	19.7	72.4
2025-07-01T01:51	10	0	0.1	0	0	396	0.8	395	398	19.7	72.1
2025-07-01T01:52	10	0	0.1	0	0	397	0.2	397	398	20.1	69.8
2025-07-01T01:53	10	0	0.1	0	0	397	0.2	396	397	20.2	69.3
2025-07-01T01:54	10	0	0.1	0	0	397	0.6	396	398	20.1	70.0
2025-07-01T01:55	10	0	0.1	0	0	397	0.6	396	398	20.3	68.7
2025-07-01T01:56	10	0	0.0	0	0	397	0.3	396	397	20.2	69.9
2025-07-01T01:57	10	0	0.1	0	0	397	0.6	395	398	20.1	70.1
2025-07-01T01:58	10	0	0.0	0	0	397	0.3	397	398	20.5	67.6
2025-07-01T01:59	10	0	0.1	0	0	397	0.3	396	398	20.8	66.6
2025-07-01T02:00	10	0	0.1	0	0	396	0.5	396	397	20.6	67.5
2025-07-01T02:01	10	0	0.1	0	0	397	0.4	396	398	20.5	68.1
2025-07-01T02:02	10	0	0.1	0	0	397	0.2	397	398	20.7	66.7
2025-07-01T02:03	10	0	0.1	0	0	397	0.3	396	397	20.6	67.3
2025-07-01T02:04	10	0	0.1	0	0	397	0.3	396	398	20.6	67.5
2025-07-01T02:05	10	0	0.1	0	0	397	0.3	397	398	20.5	67.9
2025-07-01T02:06	10	0	0.1	0	0	397	0.3	397	398	20.4	68.7
2025-07-01T02:07	10	0	0.0	0	0	397	0.4	396	398	20.3	69.0
2025-07-01T02:08	10	0	0.0	0	0	397	0.2	396	397	20.2	69.6
2025-07-01T02:09	10	0	0.0	0	0	396	0.4	395	397	20.2	69.9
2025-07-01T02:10	10	0	0.1	0	0	395	0.2	395	396	19.9	71.6
2025-07-01T02:11	10	0	0.1	0	0	395	0.3	395	396	19.7	72.3
2025-07-01T02:12	10	0	0.1	0	0	396	0.3	395	397	19.8	71.4
2025-07-01T02:13	10	0	0.1	0	0	396	0.4	395	397	20.0	70.6
2025-07-01T02:14	10	0	0.1	0	0	396	0.4	395	397	20.3	68.6
2025-07-01T02:15	10	0	0.0	0	0	396	0.2	396	397	20.5	67.8
2025-07-01T02:16	10	0	0.0	0	0	396	0.2	396	397	20.6	67.3
2025-07-01T02:17	10	0	0.0	0	0	397	0.2	396	397	20.6	67.0
2025-07-01T02:18	10	0	0.0	0	0	397	0.2	396	397	20.7	66.8
2025-07-01T02:19	10	0	0.0	0	0	396	0.3	396	398	20.5	68.3
2025-07-01T02:20	10	0	0.1	0	0	397	0.3	396	397	20.2	69.6
2025-07-01T02:21	10	0	0.0	0	0	398	0.3	397	398	20.3	68.9
2025-07-01T02:22	10	0	0.1	0	0	397	0.4	397	398	20.1	70.1
2025-07-01T02:23	10	0	0.1	0	0	398	0.3	398	399	20.2	69.3
2025-07-01T02:24	10	0	0.1	0	0	398	0.2	397	399	20.4	67.8
2025-07-01T02:25	10	0	0.1	0	0	398	0.3	397	399	20.6	67.1
2025-07-01T02:26	10	0	0.1	0	0	398	0.2	397	398	20.6	67.1
2025-07-01T02:27	10	0	0.1	0	0	397	0.3	397	398	20.6	66.8
2025-07-01T02:28	10	0	0.0	0	0	396	0.3	396	397	20.6	67.2
2025-07-01T02:29	10	0	0.1	0	0	396	0.2	396	397	20.5	67.1
2025-07-01T02:30	10	0	0.1	0	0	396	0.3	396	397	20.6	66.5
2025-07-01T02:31	10	0	0.1	0	0	396	0.3	396	397	20.8	65.6
2025-07-01T02:32	10	0	0.2	0	1	397	0.3	396	397	21.0	64.7
2025-07-01T02:33	10	0	0.1	0	0	396	0.3	396	397	21.1	64.2
2025-07-01T02:34	10	0	0.1	0	0	397	0.2	396	397	21.1	64.3
2025-07-01T02:35	10	0	0.1	0	0	397	0.3	396	397	21.2	64.0
2025-07-01T02:36	10	0	0.1	0	0	396	0.5	395	397	21.1	64.5
2025-07-01T02:37	10	0	0.1	0	0	396	0.4	395	397	21.0	65.0
2025-07-01T02:38	10	0	0.1	0	1	396	0.3	395	397	20.7	66.4
2025-07-01T02:39	10	0	0.1	0	0	397	0.4	396	398	20.7	66.2
2025-07-01T02:40	10	0	0.1	0	0	397	0.2	397	398	20.9	65.7
2025-07-01T02:41	10	0	0.1	0	0	397	0.3	396	398	20.8	66.0
2025-07-01T02:42	10	0	0.1	0	0	397	0.3	396	398	20.6	67.1
2025-07-01T02:43	10	0	0.1	0	0	396	0.3	396	397	20.5	67.8
2025-07-01T02:44	10	0	0.1	0	0	396	0.2	395	396	20.3	68.4
2025-07-01T02:45	10	0	0.1	0	0	396	0.3	395	396	20.3	68.5
2025-07-01T02:46	10	0	0.1	0	0	395	0.2	395	396	20.3	68.5
2025-07-01T02:47	10	0	0.1	0	0	395	0.3	394	396	20.3	68.8
2025-07-01T02:48	10	0	0.1	0	0	395	0.1	395	395	20.2	69.2
2025-07-01T02:49	10	0	0.1	0	0	395	0.2	394	396	20.2	68.9
2025-07-01T02:50	10	0	0.1	0	0	395	0.3	394	395	20.2	68.6
2025-07-01T02:51	10	0	0.1	0	0	395	0.2	394	395	20.2	68.7
2025-07-01T02:52	10	0	0.1	0	0	394	0.2	394	395	20.2	69.1
2025-07-01T02:53	10	0	0.1	0	0	395	0.2	394	395	20.2	69.0
2025-07-01T02:54	10	0	0.1	0	0	394	0.3	394	395	20.2	68.7
2025-07-01T02:55	10	0	0.1	0	0	394	0.2	394	395	20.2	68.6
2025-07-01T02:56	10	0	0.1	0	0	394	0.2	393	394	20.2	68.7
2025-07-01T02:57	10	0	0.1	0	0	394	0.2	393	394	20.1	69.0
2025-07-01T02:58	10	0	0.1	0	0	393	0.2	393	394	20.0	69.6
2025-07-01T02:59	10	0	0.1	0	0	393	0.3	392	393	19.9	70.6
2025-07-01T03:00	10	0	0.1	0	0	392	0.3	392	393	19.6	72.4
2025-07-01T03:01	10	0	0.2	0	0	392	0.4	392	393	19.4	73.9
2025-07-01T03:02	10	0	0.1	0	0	393	0.3	392	394	19.4	73.6
2025-07-01T03:03	10	0	0.1	-1	0	394	0.3	393	394	19.5	73.6
2025-07-01T03:04	10	0	0.1	0	0	393	0.3	393	394	19.6	72.2
2025-07-01T03:05	10	0	0.1	0	0	393	0.3	392	393	19.6	72.5
2025-07-01T03:06	10	0	0.1	-1	0	392	0.2	392	393	19.5	73.6
2025-07-01T03:07	10	0	0.1	-1	0	392	0.2	392	393	19.4	74.5
2025-07-01T03:08	10	0	0.1	0	0	392	0.3	391	393	19.4	73.7
2025-07-01T03:09	10	0	0.1	0	0	392	0.4	391	393	19.5	73.0
2025-07-01T03:10	10	0	0.2	-1	0	392	0.3	391	393	19.5	72.8
2025-07-01T03:11	10	0	0.2	0	0	392	0.4	391	393	19.6	71.5
2025-07-01T03:12	10	0	0.1	0	0	392	0.3	392	393	19.8	70.4
2025-07-01T03:13	10	0	0.1	0	0	393	0.3	392	393	20.0	69.5
2025-07-01T03:14	10	0	0.1	0	0	393	0.2	392	393	20.1	69.0
2025-07-01T03:15	10	0	0.2	0	0	392	0.3	392	393	20.2	68.8
2025-07-01T03:16	10	0	0.2	0	1	393	0.3	392	393	20.2	68.6
2025-07-01T03:17	10	0	0.2	0	1	393	0.2	392	393	20.2	68.5
2025-07-01T03:18	10	0	0.2	0	1	393	0.3	392	394	20.2	68.5
2025-07-01T03:19	10	0	0.2	0	1	393	0.2	392	393	20.2	68.6
2025-07-01T03:20	10	0	0.2	0	1	393	0.3	392	393	20.2	68.5
2025-07-01T03:21	10	0	0.2	0	1	393	0.3	392	394	20.1	68.8
2025-07-01T03:22	10	0	0.1	0	0	393	0.4	392	394	20.1	69.1
2025-07-01T03:23	10	0	0.1	0	1	392	0.4	391	393	20.0	69.8
2025-07-01T03:24	10	0	0.2	0	1	392	0.3	391	393	19.7	71.1
2025-07-01T03:25	10	0	0.2	0	1	392	0.3	392	393	19.6	71.4
2025-07-01T03:26	10	0	0.2	0	1	392	0.3	392	393	19.7	70.9
2025-07-01T03:27	10	0	0.1	0	0	392	0.4	392	393	19.7	70.9
2025-07-01T03:28	10	0	0.1	0	1	393	0.3	392	394	19.9	70.1
2025-07-01T03:29	10	0	0.2	0	1	393	0.3	392	394	20.0	69.7
2025-07-01T03:30	10	0	0.2	0	1	394	0.3	393	394	20.0	69.5
2025-07-01T03:31	10	0	0.2	0	1	394	0.3	393	395	20.0	69.7
2025-07-01T03:32	10	0	0.2	0	1	394	0.3	394	395	19.9	70.1
2025-07-01T03:33	10	1	0.2	0	1	394	0.2	394	395	19.9	70.3
2025-07-01T03:34	10	1	0.2	0	1	394	0.3	394	395	19.9	70.4
2025-07-01T03:35	10	1	0.1	0	1	394	0.3	394	395	19.9	70.8
2025-07-01T03:36	10	1	0.2	0	1	395	0.3	394	395	19.9	70.7
2025-07-01T03:37	10	1	0.2	0	2	395	0.3	394	396	19.9	70.6
2025-07-01T03:38	10	1	0.1	1	1	395	0.2	395	396	19.9	70.7
2025-07-01T03:39	10	1	0.2	1	2	395	0.4	393	396	19.8	71.1
2025-07-01T03:40	10	1	0.1	1	2	395	0.6	394	396	19.7	71.5
2025-07-01T03:41	10	1	0.1	1	2	395	0.3	394	396	19.8	71.1
2025-07-01T03:42	10	1	0.1	1	2	396	0.3	395	396	19.8	70.9
2025-07-01T03:43	10	1	0.1	1	2	396	0.2	395	396	19.9	70.2
2025-07-01T03:44	10	2	0.2	1	2	395	0.3	395	396	20.0	70.2
2025-07-01T03:45	10	2	0.1	2	2	395	0.3	394	396	19.9	70.3
2025-07-01T03:46	10	2	0.1	2	2	395	0.2	394	395	19.9	70.5
2025-07-01T03:47	10	2	0.1	2	2	395	0.3	394	395	19.9	70.4
2025-07-01T03:48	10	2	0.1	2	3	395	0.2	394	395	19.9	70.2
2025-07-01T03:49	10	2	0.1	2	3	395	0.3	394	395	19.9	70.3
2025-07-01T03:50	10	3	0.1	2	3	395	0.2	395	396	19.9	70.2
2025-07-01T03:51	10	3	0.2	2	3	395	0.2	394	396	19.9	70.3
2025-07-01T03:52	10	3	0.2	3	4	395	0.3	395	396	19.9	70.2
2025-07-01T03:53	10	3	0.2	3	4	395	0.2	395	396	19.9	70.4
2025-07-01T03:54	10	3	0.2	3	4	395	0.4	394	396	19.8	70.9
2025-07-01T03:55	10	4	0.2	3	4	396	0.3	395	396	19.8	71.1
2025-07-01T03:56	10	4	0.1	3	4	395	0.3	394	396	19.7	71.7
2025-07-01T03:57	10	4	0.1	4	4	395	0.2	394	396	19.6	71.8
2025-07-01T03:58	10	4	0.2	4	4	395	0.3	394	396	19.6	71.7
2025-07-01T03:59	10	4	0.1	4	5	395	0.4	395	396	19.7	71.3
2025-07-01T04:00	10	5	0.1	4	5	395	0.2	395	396	19.8	70.8
2025-07-01T04:01	10	5	0.1	5	5	396	0.2	395	396	19.8	70.6
2025-07-01T04:02	10	5	0.1	5	5	396	0.2	396	397	19.8	70.5
2025-07-01T04:03	10	5	0.1	5	5	396	0.3	395	397	19.8	70.3
2025-07-01T04:04	10	5	0.1	5	6	397	0.2	396	397	20.0	69.6
2025-07-01T04:05	10	6	0.1	5	6	397	0.2	397	398	20.0	69.2
2025-07-01T04:06	10	6	0.1	6	6	397	0.2	396	397	20.0	69.2
2025-07-01T04:07	10	6	0.1	5	6	397	0.2	396	398	20.1	68.7
2025-07-01T04:08	10	6	0.1	5	6	397	0.2	397	398	20.1	68.7
2025-07-01T04:09	10	6	0.3	6	7	398	0.2	397	398	20.2	68.4
2025-07-01T04:10	10	7	0.1	7	7	398	0.2	397	398	20.2	68.4
2025-07-01T04:11	10	7	0.1	7	7	398	0.3	397	398	20.2	68.1
2025-07-01T04:12	10	7	0.3	7	8	398	0.2	397	398	20.2	68.2
2025-07-01T04:13	10	8	0.3	8	9	398	0.2	397	398	20.2	68.3
2025-07-01T04:14	10	9	0.1	9	9	398	0.2	397	398	20.2	68.3
2025-07-01T04:15	10	9	0.1	9	10	398	0.3	397	399	20.2	68.3
2025-07-01T04:16	10	10	0.1	9	10	398	0.3	397	399	20.2	68.5
2025-07-01T04:17	10	10	0.2	9	10	398	0.2	398	399	20.1	68.7
2025-07-01T04:18	10	10	0.2	10	11	399	0.2	398	399	20.1	68.8
2025-07-01T04:19	10	11	0.1	10	11	399	0.3	398	400	20.1	68.9
2025-07-01T04:20	10	11	0.3	11	12	400	0.3	399	400	20.1	68.9
2025-07-01T04:21	10	12	0.4	12	13	400	0.2	399	400	20.1	68.9
2025-07-01T04:22	10	13	0.3	13	14	400	0.2	399	400	20.1	69.0
2025-07-01T04:23	10	14	0.3	14	15	400	0.3	400	401	20.1	68.9
2025-07-01T04:24	10	15	0.3	15	16	401	0.3	400	402	20.1	68.8
2025-07-01T04:25	10	16	0.3	16	17	401	0.3	401	402	20.2	68.5
2025-07-01T04:26	10	17	0.3	17	18	402	0.3	401	402	20.1	68.7
2025-07-01T04:27	10	18	0.2	18	18	402	0.3	401	403	20.1	69.3
2025-07-01T04:28	10	19	0.3	18	19	403	0.3	402	403	20.0	69.3
2025-07-01T04:29	10	20	0.3	19	20	403	0.3	403	404	20.1	68.6
2025-07-01T04:30	10	21	0.3	20	21	403	0.2	403	404	20.2	68.7
2025-07-01T04:31	10	22	0.3	21	22	404	0.4	403	405	20.2	68.2
2025-07-01T04:32	10	23	0.3	22	23	405	0.2	404	405	20.3	67.9
2025-07-01T04:33	10	24	0.3	23	24	405	0.4	405	406	20.2	68.2
2025-07-01T04:34	10	25	0.2	24	25	406	0.3	405	406	20.2	68.2
2025-07-01T04:35	10	25	0.3	25	26	406	0.2	406	407	20.2	68.3
2025-07-01T04:36	10	26	0.4	26	28	407	0.4	406	408	20.2	68.4
2025-07-01T04:37	10	27	0.3	26	28	408	0.3	407	408	20.3	68.2
2025-07-01T04:38	10	28	0.3	27	29	408	0.3	407	408	20.2	68.7
2025-07-01T04:39	10	29	0.3	28	29	408	0.2	407	409	20.1	69.0
2025-07-01T04:40	10	29	0.3	29	30	408	0.3	408	409	20.2	68.5
2025-07-01T04:41	10	30	0.2	29	30	408	0.4	408	409	20.3	68.3
2025-07-01T04:42	10	30	0.2	30	31	409	0.2	408	409	20.4	67.3
2025-07-01T04:43	10	31	0.2	30	31	409	0.3	408	410	20.4	67.6
2025-07-01T04:44	10	31	0.3	31	32	409	0.2	409	410	20.5	67.1
2025-07-01T04:45	10	32	0.3	31	32	410	0.2	409	410	20.5	66.8
2025-07-01T04:46	10	30	0.7	28	31	410	0.3	409	410	20.5	67.1
2025-07-01T04:47	10	25	2.5	21	28	410	0.5	409	411	20.5	66.9
2025-07-01T04:48	10	22	2.3	19	27	409	0.3	409	410	20.5	66.9
2025-07-01T04:49	10	32	2.3	27	35	410	0.4	409	411	20.6	66.9
2025-07-01T04:50	10	35	0.2	35	35	411	0.5	410	412	20.5	67.5
2025-07-01T04:51	10	35	0.2	35	36	412	0.3	411	413	20.6	66.9
2025-07-01T04:52	10	36	0.3	36	37	412	0.3	412	413	20.6	67.4
2025-07-01T04:53	10	37	0.3	36	37	413	0.3	412	414	20.7	66.7
2025-07-01T04:54	10	37	0.2	37	38	413	0.2	413	414	20.7	67.6
2025-07-01T04:55	10	38	0.3	37	39	414	0.2	414	415	20.7	66.7
2025-07-01T04:56	10	39	0.3	38	39	414	0.2	414	415	20.7	67.7
2025-07-01T04:57	10	40	0.4	39	41	415	0.2	414	415	20.6	68.0
2025-07-01T04:58	10	40	0.7	38	41	415	0.2	415	416	20.6	68.8
2025-07-01T04:59	10	37	0.8	36	39	415	0.2	415	416	20.7	68.3
2025-07-01T05:00	10	42	1.1	39	43	416	0.3	415	416	20.7	68.2
2025-07-01T05:01	10	42	0.1	42	43	416	0.2	415	417	20.7	68.6
2025-07-01T05:02	10	43	0.1	43	43	416	0.2	416	417	20.8	67.0
2025-07-01T05:03	10	43	0.1	43	43	416	0.2	416	416	20.9	66.7
2025-07-01T05:04	10	44	0.2	43	44	416	0.2	416	416	20.9	68.8
2025-07-01T05:05	10	43	1.2	40	44	416	0.3	416	417	20.9	67.8
2025-07-01T05:06	10	36	1.9	34	40	416	0.4	415	417	20.9	66.8
2025-07-01T05:07	10	40	3.0	35	44	416	0.2	415	416	21.0	66.3
2025-07-01T05:08	10	40	2.7	35	43	416	0.2	416	416	21.0	66.6
2025-07-01T05:09	10	35	0.3	34	35	416	0.3	416	417	21.0	67.0
2025-07-01T05:10	10	34	1.5	31	35	416	0.2	416	417	21.1	66.4
2025-07-01T05:11	10	34	1.1	32	35	416	0.2	416	417	21.1	67.6
2025-07-01T05:12	10	35	0.8	34	36	417	0.2	416	417	21.1	66.7
2025-07-01T05:13	10	39	2.7	36	44	417	0.3	416	417	21.1	66.8
2025-07-01T05:14	10	47	0.6	44	47	418	0.5	417	419	21.1	66.6
2025-07-01T05:15	10	44	2.4	39	47	418	0.2	418	419	21.2	66.0
2025-07-01T05:16	10	38	1.5	36	42	418	0.3	417	419	21.2	66.7
2025-07-01T05:17	10	44	1.6	41	46	419	0.3	418	419	21.2	66.1
2025-07-01T05:18	10	43	1.3	41	45	419	0.3	418	419	21.2	66.5
2025-07-01T05:19	10	42	0.7	41	44	419	0.3	418	419	21.3	65.9
2025-07-01T05:20	10	45	2.4	42	50	419	0.3	418	419	21.3	65.4
2025-07-01T05:21	10	52	0.7	50	53	419	0.3	418	420	21.3	64.9
2025-07-01T05:22	10	53	0.3	52	53	420	0.4	419	421	21.3	65.6
2025-07-01T05:23	10	53	0.3	53	54	421	0.3	421	422	21.3	65.8
2025-07-01T05:24	10	55	0.4	54	55	421	0.2	421	422	21.4	65.4
2025-07-01T05:25	10	54	0.9	53	56	422	0.3	421	422	21.4	65.9
2025-07-01T05:26	10	56	0.1	55	56	421	0.3	421	422	21.4	65.4
2025-07-01T05:27	10	54	1.0	52	56	422	0.2	421	422	21.5	65.8
2025-07-01T05:28	10	51	0.6	50	52	422	0.2	421	422	21.5	66.1
2025-07-01T05:29	10	53	1.1	49	54	422	0.4	421	423	21.5	66.9
2025-07-01T05:30	10	39	5.9	31	49	419	1.4	417	422	21.0	70.2
2025-07-01T05:31	10	32	1.7	30	36	417	0.6	416	418	20.7	70.8
2025-07-01T05:32	10	42	2.9	36	45	417	0.4	416	418	20.6	71.2
2025-07-01T05:33	10	42	1.3	39	44	417	0.3	417	418	20.6	71.6
2025-07-01T05:34	10	34	2.2	31	39	417	0.4	416	418	20.6	72.2
2025-07-01T05:35	10	29	1.7	26	31	416	0.3	416	417	20.5	72.2
2025-07-01T05:36	10	26	0.4	25	27	415	0.3	415	416	20.4	72.5
2025-07-01T05:37	10	30	1.8	27	32	416	0.5	415	417	20.4	72.8
2025-07-01T05:38	10	36	3.1	32	43	417	0.6	416	418	20.5	72.8
2025-07-01T05:39	10	49	3.7	43	56	418	0.6	417	420	20.5	72.9
2025-07-01T05:40	10	60	1.7	56	62	421	1.0	419	422	20.5	72.5
2025-07-01T05:41	10	63	0.7	62	64	422	0.7	421	423	20.7	72.0
2025-07-01T05:42	10	65	0.4	64	65	423	0.3	423	424	20.7	71.4
2025-07-01T05:43	10	66	0.4	65	67	424	0.3	423	425	20.7	72.0
2025-07-01T05:44	10	63	2.9	57	66	424	0.3	423	424	20.7	71.8
2025-07-01T05:45	10	58	3.2	55	65	424	0.3	423	425	20.7	71.9
2025-07-01T05:46	10	67	0.7	65	68	425	0.4	424	425	20.8	71.5
2025-07-01T05:47	10	68	0.1	67	68	426	0.2	425	426	20.9	71.0
2025-07-01T05:48	10	68	0.1	68	68	426	0.4	426	427	20.9	71.1
2025-07-01T05:49	10	68	0.2	68	69	427	0.3	427	428	21.0	70.8
2025-07-01T05:50	10	69	0.2	69	69	428	0.3	427	428	21.2	70.2
2025-07-01T05:51	10	70	0.2	69	70	429	0.2	428	429	21.4	70.1
2025-07-01T05:52	10	70	0.2	70	71	429	0.2	429	430	21.4	69.7
2025-07-01T05:53	10	71	0.1	70	71	430	0.2	429	430	21.5	67.6
2025-07-01T05:54	10	71	0.2	71	72	430	0.2	429	430	21.6	66.9
2025-07-01T05:55	10	72	0.2	72	72	429	0.4	428	430	21.7	66.5
2025-07-01T05:56	10	72	0.2	72	73	429	0.2	428	429	21.7	66.3
2025-07-01T05:57	10	73	0.2	73	74	429	0.3	428	429	21.7	65.9
2025-07-01T05:58	10	74	0.4	73	75	429	0.3	429	430	21.8	66.1
2025-07-01T05:59	10	75	0.4	74	76	430	0.3	429	430	21.8	66.7
2025-07-01T06:00	10	76	0.3	75	76	430	0.3	429	431	21.8	67.1
2025-07-01T06:01	10	77	0.2	76	77	431	0.3	430	431	21.8	67.9
2025-07-01T06:02	10	78	0.3	77	78	431	0.3	431	432	21.8	67.4
2025-07-01T06:03	10	79	0.3	78	79	432	0.4	431	433	21.8	67.3
2025-07-01T06:04	10	80	0.3	79	80	432	0.2	431	432	21.8	67.3
2025-07-01T06:05	10	81	0.3	80	81	432	0.3	432	433	21.9	66.9
2025-07-01T06:06	10	82	0.4	81	83	433	0.3	432	433	21.8	66.6
2025-07-01T06:07	10	83	0.4	82	84	433	0.2	433	433	21.9	66.4
2025-07-01T06:08	10	84	0.3	84	85	433	0.3	432	434	21.9	66.0
2025-07-01T06:09	10	85	0.2	85	86	434	0.4	433	435	21.9	66.8
2025-07-01T06:10	10	86	0.2	85	86	435	0.5	435	436	22.0	66.4
2025-07-01T06:11	10	86	0.1	86	87	436	0.4	435	436	22.0	66.3
2025-07-01T06:12	10	87	0.1	87	87	435	0.3	435	436	22.0	65.9
2025-07-01T06:13	10	87	0.1	87	87	437	0.3	436	437	22.1	65.9
2025-07-01T06:14	10	87	0.1	87	88	437	0.3	436	438	22.2	65.9
2025-07-01T06:15	10	87	0.1	87	87	437	0.3	437	438	22.2	66.3
2025-07-01T06:16	10	87	0.1	86	87	437	0.5	436	438	22.3	66.2
2025-07-01T06:17	10	86	0.2	86	87	437	0.2	436	437	22.3	65.8
2025-07-01T06:18	10	87	0.3	87	88	437	0.3	436	437	22.4	65.5
2025-07-01T06:19	10	89	0.6	88	90	437	0.3	436	438	22.5	64.3
2025-07-01T06:20	10	91	0.6	90	92	438	0.4	437	439	22.5	64.6
2025-07-01T06:21	10	93	0.5	92	93	439	0.5	438	440	22.6	64.1
2025-07-01T06:22	10	94	0.4	93	95	441	0.5	440	442	22.8	63.7
2025-07-01T06:23	10	95	0.3	94	95	443	0.4	442	443	23.0	64.2
2025-07-01T06:24	10	95	0.1	95	95	443	0.3	442	444	23.4	62.9
2025-07-01T06:25	10	95	0.1	95	95	443	0.3	443	444	23.5	62.5
2025-07-01T06:26	10	95	0.1	95	95	444	0.3	443	445	23.5	62.8
2025-07-01T06:27	10	95	0.1	95	95	444	0.2	444	445	23.4	62.5
2025-07-01T06:28	10	95	0.2	95	96	445	0.2	445	446	23.4	62.3
2025-07-01T06:29	10	96	0.2	96	96	445	0.6	444	446	23.4	62.7
2025-07-01T06:30	10	97	0.2	96	97	444	0.4	443	445	23.4	62.3
2025-07-01T06:31	10	97	0.2	97	97	444	0.2	444	445	23.7	60.6
2025-07-01T06:32	10	98	0.2	97	98	445	0.3	444	446	23.8	59.9
2025-07-01T06:33	10	98	0.1	98	98	446	0.2	445	446	23.8	60.1
2025-07-01T06:34	10	98	0.1	98	98	446	0.2	446	447	23.8	60.2
2025-07-01T06:35	10	98	0.1	98	98	447	0.2	446	447	23.9	59.8
2025-07-01T06:36	10	98	0.1	98	98	447	0.2	447	448	24.0	58.9
2025-07-01T06:37	10	98	0.1	98	98	447	0.3	447	448	24.3	57.9
2025-07-01T06:38	10	98	0.1	98	98	447	0.2	447	448	24.6	57.0
2025-07-01T06:39	10	98	0.1	98	98	448	0.2	448	448	24.6	57.5
2025-07-01T06:40	10	98	0.2	98	99	448	0.2	448	449	24.5	57.7
2025-07-01T06:41	10	99	0.2	98	99	449	0.3	449	450	24.3	58.5
2025-07-01T06:42	10	99	0.2	99	100	449	0.6	448	450	24.1	59.1
2025-07-01T06:43	10	100	0.2	99	100	448	0.3	448	449	24.1	58.7
2025-07-01T06:44	10	100	0.3	100	101	449	0.3	449	450	24.1	59.8
2025-07-01T06:45	10	101	0.3	100	102	450	0.3	449	451	24.1	58.6
2025-07-01T06:46	10	101	0.2	101	102	449	0.3	448	450	24.0	57.0
2025-07-01T06:47	10	102	0.2	101	102	449	0.6	448	451	24.0	57.1
2025-07-01T06:48	10	102	0.1	102	103	449	0.3	448	449	23.9	57.3
2025-07-01T06:49	10	103	0.1	103	103	449	0.2	449	450	24.0	57.9
2025-07-01T06:50	10	103	0.1	103	103	450	0.4	449	450	24.0	57.6
2025-07-01T06:51	10	104	0.2	103	104	450	0.5	449	451	24.0	58.1
2025-07-01T06:52	10	104	0.1	104	104	450	0.4	449	451	24.2	57.0
2025-07-01T06:53	10	104	0.2	104	105	450	0.5	449	451	24.3	56.5
2025-07-01T06:54	10	105	0.4	105	106	451	0.3	450	452	24.3	57.1
2025-07-01T06:55	10	107	0.4	106	107	452	0.8	450	453	24.2	57.0
2025-07-01T06:56	10	108	0.3	107	109	450	0.6	449	451	24.3	55.1
2025-07-01T06:57	10	109	0.3	108	110	450	0.7	449	452	24.2	55.2
2025-07-01T06:58	10	110	0.2	109	110	452	0.7	451	453	24.2	55.6
2025-07-01T06:59	10	111	0.2	110	111	453	1.0	451	454	24.4	55.9
2025-07-01T07:00	10	111	0.2	111	112	450	0.9	449	452	24.3	53.9
2025-07-01T07:01	10	112	0.1	112	112	450	0.3	449	450	24.1	53.9
2025-07-01T07:02	10	112	0.1	112	112	452	0.5	451	453	24.1	54.6
2025-07-01T07:03	10	112	0.1	112	112	453	0.6	452	454	24.3	54.7
2025-07-01T07:04	10	112	0.1	112	112	454	0.3	453	454	24.2	54.4
2025-07-01T07:05	10	112	0.1	112	112	451	0.6	451	453	24.3	56.0
2025-07-01T07:06	10	112	0.1	112	112	451	0.8	449	452	24.3	55.5
2025-07-01T07:07	10	112	0.2	112	113	451	0.5	449	451	24.1	55.8
2025-07-01T07:08	10	113	0.3	113	114	451	0.7	450	452	24.1	55.1
2025-07-01T07:09	10	114	0.2	114	115	452	0.6	451	453	24.3	55.5
2025-07-01T07:10	10	115	0.2	114	115	453	0.4	452	454	24.3	55.8
2025-07-01T07:11	10	115	0.3	115	116	454	0.7	453	455	24.3	56.0
2025-07-01T07:12	10	116	0.2	116	117	455	0.6	454	456	24.5	55.4
2025-07-01T07:13	10	117	0.2	116	117	456	0.4	455	457	24.5	54.0
2025-07-01T07:14	10	117	0.1	117	117	458	0.8	456	459	24.5	53.7
2025-07-01T07:15	10	117	0.1	117	117	459	0.4	458	459	24.6	54.5
2025-07-01T07:16	10	117	0.1	117	118	457	2.3	453	460	24.5	52.8
2025-07-01T07:17	10	118	0.1	118	118	454	0.2	453	454	24.3	52.0
2025-07-01T07:18	10	117	0.3	117	118	455	0.4	454	456	24.3	52.7
2025-07-01T07:19	10	117	0.6	116	118	456	0.9	455	458	24.4	53.8
2025-07-01T07:20	10	118	0.2	117	119	456	1.6	454	459	24.4	53.9
2025-07-01T07:21	10	119	0.2	118	119	456	0.9	454	457	24.2	54.2
2025-07-01T07:22	10	119	0.3	119	120	457	0.5	456	458	24.4	54.0
2025-07-01T07:23	10	120	0.3	120	121	456	0.6	455	457	24.4	53.5
2025-07-01T07:24	10	121	0.3	121	122	457	0.4	456	458	24.5	54.3
2025-07-01T07:25	10	122	0.2	121	122	456	0.5	455	457	24.4	53.9
2025-07-01T07:26	10	123	0.3	122	123	458	1.2	456	460	24.7	54.4
2025-07-01T07:27	10	123	0.3	123	124	459	0.4	458	460	24.7	54.1
2025-07-01T07:28	10	124	0.2	123	124	460	0.7	458	461	24.8	54.1
2025-07-01T07:29	10	124	0.2	123	124	458	0.3	458	459	24.6	52.7
2025-07-01T07:30	10	124	0.1	123	124	459	0.7	457	460	24.9	53.8
2025-07-01T07:31	10	124	0.1	124	124	459	0.9	458	461	24.8	53.3
2025-07-01T07:32	10	124	0.1	123	124	458	0.7	457	459	24.8	53.7
2025-07-01T07:33	10	124	0.2	124	125	459	1.1	457	461	24.5	53.0
2025-07-01T07:34	10	125	0.2	124	126	459	1.4	457	461	24.6	52.8
2025-07-01T07:35	10	126	0.2	125	126	459	0.6	458	460	24.6	53.0
2025-07-01T07:36	10	126	0.2	126	127	460	1.2	458	462	24.6	53.2
2025-07-01T07:37	10	126	0.1	126	127	462	0.8	460	463	24.8	53.5
2025-07-01T07:38	10	127	0.1	126	127	462	0.5	461	463	24.7	53.7
2025-07-01T07:39	10	127	0.1	127	127	461	0.4	460	462	24.8	52.7
2025-07-01T07:40	10	127	0.1	127	127	460	1.2	458	462	24.6	52.7
2025-07-01T07:41	10	127	0.1	127	127	461	1.1	460	463	24.6	54.1
2025-07-01T07:42	10	127	0.1	127	127	461	0.9	460	463	24.5	52.3
2025-07-01T07:43	10	127	0.1	127	128	462	0.5	461	463	24.5	52.8
2025-07-01T07:44	10	127	0.1	127	128	461	0.9	459	463	24.5	52.3
2025-07-01T07:45	10	128	0.1	127	128	460	0.7	459	462	24.6	52.9
2025-07-01T07:46	10	128	0.1	128	128	461	0.9	459	462	24.6	52.4
2025-07-01T07:47	10	129	0.2	128	129	463	0.4	462	463	24.8	53.4
2025-07-01T07:48	10	129	0.1	129	129	462	0.8	460	463	24.9	53.0
2025-07-01T07:49	10	129	0.1	129	129	461	0.6	460	462	24.9	52.8
2025-07-01T07:50	10	129	0.2	129	130	462	0.8	460	463	24.9	53.1
2025-07-01T07:51	10	129	0.8	128	131	460	0.6	459	462	24.9	52.0
2025-07-01T07:52	10	132	0.3	131	132	460	0.8	458	461	24.9	52.0
2025-07-01T07:53	10	132	0.1	132	132	460	0.5	459	461	24.8	51.8
2025-07-01T07:54	10	132	0.2	132	133	460	0.8	459	462	25.0	52.2
2025-07-01T07:55	10	133	0.1	133	133	460	0.5	459	461	24.8	51.9
2025-07-01T07:56	10	133	0.2	133	134	461	0.8	460	463	24.7	51.8
2025-07-01T07:57	10	134	0.1	133	134	462	0.6	461	463	24.7	51.0
2025-07-01T07:58	10	134	0.1	133	134	463	0.5	462	464	24.7	51.4
2025-07-01T07:59	10	134	0.1	134	134	462	0.6	461	463	24.7	51.6
2025-07-01T08:00	10	134	0.2	134	134	462	0.5	461	463	24.6	50.9
2025-07-01T08:01	10	135	0.2	134	135	463	0.6	462	464	24.8	51.5
2025-07-01T08:02	10	136	0.3	135	136	463	0.7	462	465	24.8	50.7
2025-07-01T08:03	10	136	0.3	135	137	465	0.5	464	466	24.8	51.2
2025-07-01T08:04	10	136	1.0	134	138	466	0.4	465	466	24.9	51.1
2025-07-01T08:05	10	138	0.2	137	138	467	0.8	466	469	25.0	51.5
2025-07-01T08:06	10	138	0.2	138	138	466	0.4	466	467	25.2	50.9
2025-07-01T08:07	10	138	0.1	138	138	466	0.4	466	467	25.1	50.5
2025-07-01T08:08	10	138	0.1	138	139	467	1.0	466	469	25.1	50.2
2025-07-01T08:09	10	139	0.2	138	139	470	1.0	468	472	25.4	51.6
2025-07-01T08:10	10	139	0.2	138	139	471	0.6	470	473	25.5	51.9
2025-07-01T08:11	10	139	0.1	139	139	471	0.5	470	471	25.4	51.7
2025-07-01T08:12	10	139	0.2	139	140	471	0.6	470	472	25.3	51.9
2025-07-01T08:13	10	140	0.2	139	140	472	0.7	471	474	25.6	52.3
2025-07-01T08:14	10	140	0.1	139	140	474	0.4	473	474	25.7	51.9
2025-07-01T08:15	10	140	0.2	140	141	474	0.4	473	474	25.7	51.7
2025-07-01T08:16	10	141	0.2	140	141	473	0.7	472	475	25.7	51.3
2025-07-01T08:17	10	141	0.2	141	142	474	0.5	473	475	25.7	50.8
2025-07-01T08:18	10	142	0.1	142	142	476	0.5	474	477	25.8	51.0
2025-07-01T08:19	10	142	0.2	142	143	476	0.7	475	477	26.0	50.7
2025-07-01T08:20	10	143	0.2	142	143	476	1.1	474	478	26.1	50.6
2025-07-01T08:21	10	143	0.1	143	143	476	0.5	475	477	26.1	50.5
2025-07-01T08:22	10	143	0.1	143	144	476	0.7	475	477	26.0	51.0
2025-07-01T08:23	10	144	0.1	144	144	475	0.7	474	476	26.0	50.3
2025-07-01T08:24	10	144	0.1	144	144	475	0.8	474	477	26.0	49.4
2025-07-01T08:25	10	145	0.2	144	145	476	0.5	475	477	26.0	49.6
2025-07-01T08:26	10	145	0.1	145	145	476	0.4	476	477	26.1	49.0
2025-07-01T08:27	10	145	0.1	145	145	478	0.9	476	479	26.0	49.8
2025-07-01T08:28	10	145	0.1	145	145	480	0.8	479	481	26.3	50.7
2025-07-01T08:29	10	145	0.1	145	146	479	0.7	477	481	26.5	48.6
2025-07-01T08:30	10	146	0.1	145	146	478	0.4	478	479	26.5	46.8
2025-07-01T08:31	10	146	0.2	146	146	478	1.2	476	480	26.5	47.4
2025-07-01T08:32	10	146	0.1	146	146	479	0.6	478	480	26.5	47.2
2025-07-01T08:33	10	146	0.1	146	147	481	0.4	479	482	26.5	48.2
2025-07-01T08:34	10	147	0.1	147	147	481	2.2	476	483	26.8	47.5
2025-07-01T08:35	10	147	0.1	147	148	478	0.8	477	480	26.5	46.6
2025-07-01T08:36	10	148	0.1	147	148	480	0.3	480	481	26.6	46.9
2025-07-01T08:37	10	148	0.1	148	148	482	1.1	480	484	26.8	46.1
2025-07-01T08:38	10	149	0.1	148	149	480	0.5	479	481	26.7	45.4
2025-07-01T08:39	10	149	0.1	149	149	480	0.8	479	482	26.7	46.5
2025-07-01T08:40	10	149	0.2	149	150	481	0.6	480	482	26.9	46.3
2025-07-01T08:41	10	149	0.1	149	150	482	1.3	480	484	26.9	46.6
2025-07-01T08:42	10	150	0.2	149	150	481	0.9	480	484	27.0	46.4
2025-07-01T08:43	10	150	0.1	150	150	484	1.0	482	486	26.8	47.3
2025-07-01T08:44	10	150	0.2	150	150	484	0.4	483	485	26.9	47.2
2025-07-01T08:45	10	150	0.2	150	151	484	0.4	483	485	26.8	47.2
2025-07-01T08:46	10	151	0.3	150	151	484	1.1	481	486	27.1	46.8
2025-07-01T08:47	10	151	0.2	150	152	483	0.9	481	485	27.1	45.6
2025-07-01T08:48	10	151	0.3	150	152	485	0.8	483	486	27.2	46.1
2025-07-01T08:49	10	151	0.2	150	151	486	0.3	485	486	27.2	46.2
2025-07-01T08:50	10	151	0.1	151	151	488	0.5	487	489	27.2	46.2
2025-07-01T08:51	10	151	0.2	151	152	487	0.8	485	488	27.6	45.1
2025-07-01T08:52	10	151	0.1	151	152	486	0.7	485	487	27.7	44.6
2025-07-01T08:53	10	152	0.2	151	152	486	0.5	485	487	27.6	44.3
2025-07-01T08:54	10	152	0.1	152	152	485	0.9	484	488	27.6	43.9
2025-07-01T08:55	10	152	0.1	152	152	487	0.6	486	488	27.5	43.9
2025-07-01T08:56	10	152	0.1	152	152	487	0.5	486	488	27.5	43.7
2025-07-01T08:57	10	152	0.1	152	152	489	0.6	488	490	27.6	43.8
2025-07-01T08:58	10	152	0.1	152	153	489	0.3	489	490	27.6	43.7
2025-07-01T08:59	10	153	0.1	152	153	489	0.4	488	490	27.5	44.5
2025-07-01T09:00	10	153	0.1	153	153	488	1.6	485	490	27.5	44.8
2025-07-01T09:01	10	153	0.1	153	153	486	0.5	485	487	27.3	45.3
2025-07-01T09:02	10	153	0.1	153	153	487	0.7	486	489	27.3	45.7
2025-07-01T09:03	10	153	0.1	153	153	488	0.4	487	488	27.3	46.1
2025-07-01T09:04	10	154	0.1	153	154	488	0.5	487	489	27.2	46.1
2025-07-01T09:05	10	154	0.1	154	154	488	0.3	487	489	27.2	45.7
2025-07-01T09:06	10	154	0.1	154	154	490	0.5	488	491	27.4	46.3
2025-07-01T09:07	10	154	0.1	154	154	489	0.8	487	490	27.5	45.9
2025-07-01T09:08	10	154	0.1	154	154	486	0.8	484	488	27.1	46.2
2025-07-01T09:09	10	154	0.1	154	154	488	1.1	486	489	27.4	46.0
2025-07-01T09:10	10	155	0.2	154	155	490	0.9	489	492	27.6	45.4
2025-07-01T09:11	10	155	0.2	155	155	492	0.3	492	493	27.5	45.5
2025-07-01T09:12	10	155	0.2	155	156	493	0.5	492	494	27.5	45.9
2025-07-01T09:13	10	156	0.2	156	156	491	1.0	490	493	27.5	45.5
2025-07-01T09:14	10	156	0.2	156	157	492	1.3	490	494	27.8	45.1
2025-07-01T09:15	10	157	0.1	156	157	491	0.8	490	493	27.6	45.2
2025-07-01T09:16	10	157	0.2	157	157	492	0.5	491	493	27.7	45.4
2025-07-01T09:17	10	157	0.1	157	158	492	0.4	492	493	27.5	45.3
2025-07-01T09:18	10	158	0.1	157	158	492	0.4	491	493	27.5	45.0
2025-07-01T09:19	10	158	0.1	157	158	494	0.3	493	494	27.7	45.1
2025-07-01T09:20	10	158	0.1	158	158	495	0.6	494	496	28.0	45.7
2025-07-01T09:21	10	158	0.1	158	159	492	1.3	491	495	27.8	44.8
2025-07-01T09:22	10	158	0.2	158	159	493	0.5	491	494	27.9	45.2
2025-07-01T09:23	10	159	0.2	158	159	493	0.6	492	494	27.8	45.0
2025-07-01T09:24	10	159	0.2	159	159	496	0.5	494	497	27.7	45.2
2025-07-01T09:25	10	159	0.2	159	160	497	0.4	496	498	27.9	45.5
2025-07-01T09:26	10	160	0.2	159	160	496	0.5	495	497	27.8	44.9
2025-07-01T09:27	10	160	0.1	160	160	496	0.8	494	498	27.7	44.8
2025-07-01T09:28	10	160	0.1	160	160	496	0.7	495	497	27.8	45.4
2025-07-01T09:29	10	160	0.1	160	161	496	0.6	495	497	28.0	44.6
2025-07-01T09:30	10	161	0.1	160	161	498	0.5	496	498	28.0	45.7
2025-07-01T09:31	10	161	0.1	160	161	497	0.8	495	498	27.9	44.4
2025-07-01T09:32	10	161	0.1	161	161	494	1.0	493	496	27.8	44.9
2025-07-01T09:33	10	161	0.1	161	161	494	0.8	493	496	27.8	44.6
2025-07-01T09:34	10	161	0.1	161	161	496	0.7	494	497	27.8	44.3
2025-07-01T09:35	10	161	0.2	161	161	498	0.6	497	499	28.0	44.1
2025-07-01T09:36	10	161	0.1	161	162	500	0.9	498	501	28.3	44.9
2025-07-01T09:37	10	162	0.1	161	162	502	0.7	500	503	28.7	44.1
2025-07-01T09:38	10	162	0.1	162	162	502	0.5	500	502	28.8	44.3
2025-07-01T09:39	10	162	0.1	162	163	497	1.1	496	500	28.4	43.7
2025-07-01T09:40	10	163	0.1	162	163	498	0.9	497	500	28.3	44.0
2025-07-01T09:41	10	163	0.1	163	163	500	0.8	498	501	28.5	45.4
2025-07-01T09:42	10	163	0.1	163	163	500	0.6	499	501	28.4	43.9
2025-07-01T09:43	10	163	0.1	163	164	501	0.9	499	503	28.4	44.3
2025-07-01T09:44	10	164	0.1	163	164	501	0.7	500	502	28.8	43.7
2025-07-01T09:45	10	164	0.1	163	164	501	1.3	498	502	28.6	43.9
2025-07-01T09:46	10	164	0.1	164	164	498	1.5	496	501	28.4	44.0
2025-07-01T09:47	10	164	0.1	164	164	499	0.9	497	500	28.3	44.2
2025-07-01T09:48	10	164	0.1	164	165	499	0.5	498	500	28.2	44.3
2025-07-01T09:49	10	165	0.1	164	165	500	1.0	498	502	28.2	44.4
2025-07-01T09:50	10	165	0.1	165	165	500	1.0	498	501	28.5	44.0
2025-07-01T09:51	10	165	0.1	165	165	499	0.9	498	501	28.4	44.1
2025-07-01T09:52	10	165	0.1	165	165	500	0.6	500	501	28.5	44.3
2025-07-01T09:53	10	165	0.1	165	165	501	1.3	500	503	28.5	43.8
2025-07-01T09:54	10	165	0.1	165	166	501	1.7	499	504	28.7	43.5
2025-07-01T09:55	10	166	0.1	165	166	502	0.9	500	503	28.5	43.7
2025-07-01T09:56	10	166	0.1	166	166	503	0.4	503	505	28.6	43.8
2025-07-01T09:57	10	166	0.1	166	166	504	0.6	502	505	28.7	44.2
2025-07-01T09:58	10	166	0.1	166	167	502	0.4	501	503	28.8	44.5
2025-07-01T09:59	10	167	0.1	166	167	504	1.1	503	507	28.8	44.3
2025-07-01T10:00	10	167	0.1	167	167	505	0.9	503	507	28.9	43.8
2025-07-01T10:01	10	167	0.1	167	167	501	1.0	499	503	28.5	44.3
2025-07-01T10:02	10	167	0.1	167	167	502	1.2	500	504	28.5	44.5
2025-07-01T10:03	10	167	0.1	167	168	502	1.6	500	505	28.7	44.2
2025-07-01T10:04	10	168	0.1	168	168	501	0.8	500	503	28.5	44.1
2025-07-01T10:05	10	168	0.1	168	168	503	0.3	502	504	28.6	44.0
2025-07-01T10:06	10	168	0.1	168	168	504	0.9	502	505	28.5	44.3
2025-07-01T10:07	10	168	0.2	168	169	506	0.4	505	507	28.7	43.9
2025-07-01T10:08	10	169	0.1	169	169	506	0.2	506	507	28.9	43.3
2025-07-01T10:09	10	169	0.1	169	169	508	0.3	507	508	29.1	43.2
2025-07-01T10:10	10	169	0.1	169	170	507	0.3	507	508	29.0	43.6
2025-07-01T10:11	10	170	0.1	170	170	507	0.5	506	507	28.9	43.7
2025-07-01T10:12	10	170	0.1	170	170	507	0.3	506	508	29.1	44.0
2025-07-01T10:13	10	170	0.1	170	171	506	0.4	505	507	29.2	43.1
2025-07-01T10:14	10	171	0.1	170	171	506	0.2	505	507	29.0	43.2
2025-07-01T10:15	10	171	0.1	170	171	507	0.5	506	508	28.9	44.1
2025-07-01T10:16	10	170	0.1	170	171	510	0.3	509	510	29.2	44.3
2025-07-01T10:17	10	170	0.1	170	171	510	1.0	509	512	29.5	43.7
2025-07-01T10:18	10	170	0.1	170	171	507	1.8	504	509	29.2	43.2
2025-07-01T10:19	10	170	0.1	170	171	506	0.9	504	508	28.9	43.8
2025-07-01T10:20	10	170	0.1	170	171	507	0.9	506	509	29.3	43.3
2025-07-01T10:21	10	171	0.1	170	171	506	0.7	505	507	29.2	43.0
2025-07-01T10:22	10	171	0.1	171	171	508	1.1	506	510	29.0	43.8
2025-07-01T10:23	10	171	0.1	171	171	507	1.4	505	510	29.2	43.6
2025-07-01T10:24	10	171	0.1	171	171	506	1.2	504	508	29.3	43.7
2025-07-01T10:25	10	171	0.1	171	172	505	0.8	504	507	29.1	43.1
2025-07-01T10:26	10	172	0.1	172	172	507	0.9	506	509	29.1	43.4
2025-07-01T10:27	10	172	0.1	172	172	510	0.9	509	511	29.3	43.2
2025-07-01T10:28	10	172	0.2	172	173	511	0.8	509	512	29.5	42.9
2025-07-01T10:29	10	173	0.1	172	173	511	0.7	509	512	29.5	43.3
2025-07-01T10:30	10	173	0.1	173	173	510	0.8	510	513	29.5	43.5
2025-07-01T10:31	10	173	0.1	173	173	510	1.3	508	512	29.5	42.7
2025-07-01T10:32	10	173	0.1	173	173	510	0.8	509	511	29.5	44.3
2025-07-01T10:33	10	173	0.1	173	173	509	0.6	508	510	29.7	43.3
2025-07-01T10:34	10	173	0.1	173	173	509	0.9	507	511	29.5	43.6
2025-07-01T10:35	10	173	0.1	173	173	509	0.6	508	510	29.5	43.6
2025-07-01T10:36	10	173	0.1	173	173	506	1.7	504	509	29.1	43.8
2025-07-01T10:37	10	173	0.1	173	174	508	1.0	505	510	29.1	44.0
2025-07-01T10:38	10	173	0.1	173	174	510	0.8	508	511	29.3	43.9
2025-07-01T10:39	10	174	0.1	174	174	508	0.3	507	508	29.0	43.7
2025-07-01T10:40	10	174	0.1	174	174	509	0.5	508	510	28.9	42.5
2025-07-01T10:41	10	175	0.1	174	175	511	1.3	509	513	28.3	44.0
2025-07-01T10:42	10	175	0.1	174	175	511	2.1	507	514	28.6	42.5
2025-07-01T10:43	10	175	0.1	175	175	508	0.3	507	509	27.6	44.0
2025-07-01T10:44	10	175	0.1	175	175	510	0.6	508	511	28.9	44.0
2025-07-01T10:45	10	175	0.1	175	175	512	1.5	509	515	29.0	44.0
2025-07-01T10:46	10	175	0.1	175	175	513	1.1	511	515	29.0	44.0
2025-07-01T10:47	10	175	0.1	175	175	511	1.0	510	514	29.0	44.0
2025-07-01T10:48	10	175	0.1	175	175	512	2.4	508	515	29.3	43.4
2025-07-01T10:49	10	176	0.1	175	176	512	1.5	509	514	29.6	43.3
2025-07-01T10:50	10	176	0.1	176	176	511	1.6	508	514	29.9	43.4
2025-07-01T10:51	10	176	0.1	176	177	510	1.2	508	512	29.6	44.1
2025-07-01T10:52	10	177	0.1	176	177	510	0.4	509	511	29.9	43.4
2025-07-01T10:53	10	177	0.1	176	177	511	0.9	509	513	29.6	43.4
2025-07-01T10:54	10	177	0.2	177	178	514	0.6	513	515	29.6	43.8
2025-07-01T10:55	10	177	0.1	177	177	513	0.4	512	514	29.5	42.9
2025-07-01T10:56	10	177	0.1	177	177	514	1.0	511	515	29.6	43.3
2025-07-01T10:57	10	177	0.1	176	177	514	1.3	512	516	29.6	42.8
2025-07-01T10:58	10	177	0.1	176	177	516	0.6	515	518	29.8	43.1
2025-07-01T10:59	10	177	0.1	176	177	516	0.6	514	517	30.2	43.0
2025-07-01T11:00	10	177	0.1	176	177	514	0.9	513	516	30.2	42.8
2025-07-01T11:01	10	176	0.1	176	177	517	0.7	515	518	30.5	42.8
2025-07-01T11:02	10	177	0.2	176	177	517	1.0	515	519	30.4	41.7
2025-07-01T11:03	10	177	0.1	177	178	513	1.2	511	516	29.8	42.0
2025-07-01T11:04	10	177	0.1	177	178	514	1.1	512	516	29.8	43.0
2025-07-01T11:05	10	177	0.1	177	177	516	1.3	514	518	29.8	43.7
2025-07-01T11:06	10	177	0.1	177	177	512	0.9	510	514	29.5	44.9
2025-07-01T11:07	10	177	0.1	177	178	514	0.5	513	515	29.6	44.4
2025-07-01T11:08	10	177	0.2	177	178	515	0.6	514	516	29.7	44.0
2025-07-01T11:09	10	177	0.2	177	178	516	0.8	515	518	29.8	43.8
2025-07-01T11:10	10	178	0.1	177	178	516	0.3	515	516	29.7	43.4
2025-07-01T11:11	10	178	0.2	177	178	516	0.3	515	517	29.7	42.1
2025-07-01T11:12	10	178	0.1	178	178	516	0.8	515	517	29.8	42.1
2025-07-01T11:13	10	178	0.2	178	179	518	0.4	517	518	29.9	42.5
2025-07-01T11:14	10	178	0.2	178	179	517	0.8	516	518	29.8	42.0
2025-07-01T11:15	10	178	0.2	178	179	518	0.3	518	519	29.8	41.8
2025-07-01T11:16	10	178	0.2	178	179	518	0.5	517	519	30.0	41.4
2025-07-01T11:17	10	178	0.2	177	179	519	1.8	515	521	30.4	43.3
2025-07-01T11:18	10	178	0.1	178	178	515	0.8	513	517	30.3	42.4
2025-07-01T11:19	10	178	0.1	178	178	513	1.2	511	516	30.0	42.5
2025-07-01T11:20	10	178	0.2	178	178	516	0.9	514	518	30.0	42.5
2025-07-01T11:21	10	178	0.2	178	179	517	1.0	514	519	30.0	41.7
2025-07-01T11:22	10	178	0.4	178	180	519	0.8	518	521	30.1	42.2
2025-07-01T11:23	10	179	0.3	178	180	518	0.6	517	519	30.3	41.0
2025-07-01T11:24	10	179	0.2	179	180	520	1.0	518	521	30.4	41.8
2025-07-01T11:25	10	179	0.2	179	180	521	0.4	520	522	30.8	42.9
2025-07-01T11:26	10	179	0.2	179	180	521	0.3	520	522	30.8	41.5
2025-07-01T11:27	10	179	0.2	179	179	519	0.9	516	521	30.5	43.0
2025-07-01T11:28	10	179	0.2	179	179	514	0.8	513	517	30.3	43.5
2025-07-01T11:29	10	179	0.2	179	180	513	0.4	512	514	30.1	43.2
2025-07-01T11:30	10	179	0.2	178	179	515	1.6	512	517	30.0	42.8
2025-07-01T11:31	10	179	0.2	178	179	516	1.2	514	518	30.0	42.6
2025-07-01T11:32	10	179	0.3	179	180	516	0.8	514	518	30.2	41.8
2025-07-01T11:33	10	180	0.2	179	180	519	1.7	516	522	30.2	42.4
2025-07-01T11:34	10	180	0.1	180	180	520	0.8	518	522	30.5	41.3
2025-07-01T11:35	10	180	0.1	180	181	517	0.4	516	518	30.0	42.6
2025-07-01T11:36	10	180	0.1	180	181	520	1.0	518	521	30.2	43.0
2025-07-01T11:37	10	180	0.1	180	181	521	0.5	520	522	30.5	42.6
2025-07-01T11:38	10	181	0.1	180	181	521	0.7	520	523	30.6	42.7
2025-07-01T11:39	10	181	0.1	180	181	523	0.6	522	524	30.7	41.9
2025-07-01T11:40	10	181	0.3	180	181	523	0.6	522	524	31.0	42.8
2025-07-01T11:41	10	181	0.1	181	181	523	1.5	520	525	31.2	42.0
2025-07-01T11:42	10	181	0.2	181	181	520	1.2	516	521	31.1	42.4
2025-07-01T11:43	10	181	0.2	180	181	515	1.0	514	518	30.3	43.2
2025-07-01T11:44	10	181	0.1	180	181	517	1.1	515	519	30.3	43.3
2025-07-01T11:45	10	181	0.1	180	181	515	0.6	514	517	30.3	42.8
2025-07-01T11:46	10	181	0.1	180	181	516	0.3	515	517	30.2	43.4
2025-07-01T11:47	10	181	0.1	181	181	517	1.1	516	519	30.3	43.7
2025-07-01T11:48	10	181	0.1	180	181	519	0.6	518	520	30.5	43.6
2025-07-01T11:49	10	180	0.1	180	180	521	1.1	519	523	30.6	42.6
2025-07-01T11:50	10	180	0.2	180	181	519	0.4	518	520	30.5	42.2
2025-07-01T11:51	10	181	0.1	180	181	517	1.1	516	520	30.3	41.9
2025-07-01T11:52	10	181	0.1	181	181	520	0.5	519	521	30.6	41.9
2025-07-01T11:53	10	181	0.2	181	182	519	0.8	518	521	30.5	41.5
2025-07-01T11:54	10	182	0.1	182	182	522	1.0	520	524	30.7	41.7
2025-07-01T11:55	10	182	0.1	182	182	517	2.6	514	522	30.5	41.5
2025-07-01T11:56	10	182	0.1	182	182	515	0.6	514	516	30.1	43.0
2025-07-01T11:57	10	182	0.1	181	182	517	1.2	515	519	30.4	42.2
2025-07-01T11:58	10	182	0.1	181	182	518	0.8	517	520	30.5	41.6
2025-07-01T11:59	10	182	0.1	182	182	517	2.0	515	521	30.5	41.7
2025-07-01T12:00	10	182	0.1	182	182	519	1.5	516	521	30.8	41.2
2025-07-01T12:01	10	182	0.1	182	182	516	0.8	514	517	30.6	39.9
2025-07-01T12:02	10	182	0.1	181	182	517	0.8	515	518	31.0	39.0
2025-07-01T12:03	10	182	0.1	181	182	514	1.8	512	518	30.7	38.6
2025-07-01T12:04	10	182	0.1	181	182	517	0.6	515	518	30.9	38.1
2025-07-01T12:05	10	182	0.2	181	182	517	1.2	515	519	31.0	38.2
2025-07-01T12:06	10	182	0.1	182	182	518	0.6	516	519	31.0	37.9
2025-07-01T12:07	10	182	0.3	181	182	518	1.0	517	520	31.0	37.8
2025-07-01T12:08	10	182	0.3	181	182	519	1.9	516	523	31.0	37.8
2025-07-01T12:09	10	181	0.4	181	182	524	1.1	522	526	31.6	38.3
2025-07-01T12:10	10	181	0.1	181	181	518	1.0	516	522	31.2	38.3
2025-07-01T12:11	10	181	0.2	181	181	520	1.4	518	523	30.9	38.4
2025-07-01T12:12	10	181	0.1	181	182	520	1.2	518	523	31.2	36.9
2025-07-01T12:13	10	181	0.2	181	182	518	0.4	516	518	31.1	37.4
2025-07-01T12:14	10	181	0.1	181	182	519	0.6	517	520	31.2	36.6
2025-07-01T12:15	10	182	0.2	181	182	518	1.0	517	520	31.0	36.8
2025-07-01T12:16	10	182	0.4	181	182	519	0.4	519	520	30.7	37.6
2025-07-01T12:17	10	182	0.2	181	182	521	1.4	519	523	30.7	38.0
2025-07-01T12:18	10	181	0.4	181	182	524	0.4	523	524	31.2	38.1
2025-07-01T12:19	10	182	0.5	181	183	519	1.7	517	523	31.3	36.6
2025-07-01T12:20	10	183	0.1	182	183	521	1.1	519	523	31.5	35.3
2025-07-01T12:21	10	183	0.2	182	183	518	1.2	517	521	31.0	34.2
2025-07-01T12:22	10	182	0.2	182	183	516	1.8	513	520	31.2	35.4
2025-07-01T12:23	10	182	0.1	182	182	518	1.0	517	520	31.1	35.9
2025-07-01T12:24	10	182	0.1	182	182	521	0.9	519	523	31.3	36.3
2025-07-01T12:25	10	182	0.1	182	182	520	1.2	518	523	31.3	35.2
2025-07-01T12:26	10	182	0.1	182	182	520	1.0	518	521	31.0	34.5
2025-07-01T12:27	10	182	0.1	181	182	523	1.0	520	524	31.2	35.5
2025-07-01T12:28	10	182	0.1	181	182	520	1.1	518	522	31.3	35.5
2025-07-01T12:29	10	181	0.1	181	182	522	1.5	519	524	31.4	35.9
2025-07-01T12:30	10	181	0.1	181	181	523	1.2	521	525	31.6	35.5
2025-07-01T12:31	10	181	0.1	181	181	525	0.7	524	526	31.5	35.7
2025-07-01T12:32	10	181	0.1	181	182	524	0.5	523	525	31.3	35.5
2025-07-01T12:33	10	181	0.1	181	181	519	2.5	515	524	31.0	36.5
2025-07-01T12:34	10	181	0.1	181	181	522	1.3	519	523	30.9	36.3
2025-07-01T12:35	10	181	0.1	180	181	523	0.8	522	525	31.3	35.8
2025-07-01T12:36	10	180	0.1	180	181	520	1.9	517	524	31.4	35.5
2025-07-01T12:37	10	180	0.3	180	181	514	2.8	510	519	31.0	36.0
2025-07-01T12:38	10	180	0.1	179	180	518	1.6	513	519	30.8	36.5
2025-07-01T12:39	10	179	0.1	179	180	522	1.6	518	524	31.1	35.8
2025-07-01T12:40	10	180	0.2	180	180	520	1.7	518	524	31.1	35.8
2025-07-01T12:41	10	180	0.2	180	181	518	0.8	517	520	31.0	36.0
2025-07-01T12:42	10	180	0.2	180	181	518	1.3	517	521	31.1	35.4
2025-07-01T12:43	10	181	0.3	181	182	521	0.9	519	522	31.3	35.0
2025-07-01T12:44	10	182	0.3	181	183	521	0.8	519	522	31.3	34.8
2025-07-01T12:45	10	183	0.2	182	183	523	0.6	521	524	31.2	35.2
2025-07-01T12:46	10	183	0.2	182	183	524	0.5	522	524	31.3	35.2
2025-07-01T12:47	10	182	0.3	182	183	525	0.5	524	526	31.5	35.6
2025-07-01T12:48	10	182	0.2	182	183	526	0.9	524	528	31.7	35.2
2025-07-01T12:49	10	182	0.3	181	182	521	2.0	518	525	31.5	35.0
2025-07-01T12:50	10	181	0.2	181	182	519	1.1	517	522	31.2	35.0
2025-07-01T12:51	10	181	0.2	181	182	523	0.5	522	525	31.3	34.8
2025-07-01T12:52	10	181	0.2	181	182	526	1.2	524	528	31.8	34.6
2025-07-01T12:53	10	181	0.2	180	181	520	3.2	516	526	31.5	34.5
2025-07-01T12:54	10	181	0.1	180	181	518	1.3	516	520	31.3	34.4
2025-07-01T12:55	10	181	0.1	181	181	518	0.8	517	520	31.2	33.9
2025-07-01T12:56	10	181	0.1	181	181	521	0.9	519	523	31.6	34.2
2025-07-01T12:57	10	182	0.2	181	182	520	1.0	518	522	31.4	33.4
2025-07-01T12:58	10	182	0.1	181	182	517	0.7	516	518	31.1	33.7
2025-07-01T12:59	10	182	0.1	181	182	516	0.8	514	517	31.2	32.2
2025-07-01T13:00	10	182	0.2	182	182	518	0.9	516	520	31.3	32.9
2025-07-01T13:01	10	183	0.3	182	183	518	1.3	516	520	31.6	32.6
2025-07-01T13:02	10	183	0.3	183	184	521	1.4	519	524	31.6	31.1
2025-07-01T13:03	10	184	0.3	184	185	520	0.8	519	522	31.2	32.9
2025-07-01T13:04	10	186	0.5	185	186	524	1.1	522	526	31.4	33.4
2025-07-01T13:05	10	187	0.4	186	188	526	0.7	524	527	31.9	32.7
2025-07-01T13:06	10	189	0.6	188	190	527	1.5	524	528	32.4	33.0
2025-07-01T13:07	10	190	0.2	190	190	523	2.5	517	525	31.8	34.6
2025-07-01T13:08	10	190	0.1	189	190	518	1.2	517	521	31.4	35.5
2025-07-01T13:09	10	190	0.2	190	190	524	1.2	521	527	31.7	35.6
2025-07-01T13:10	10	191	0.4	190	191	523	1.0	521	526	31.6	33.6
2025-07-01T13:11	10	192	0.2	191	192	525	0.6	524	527	31.2	34.7
2025-07-01T13:12	10	192	0.1	192	192	526	0.9	525	529	31.2	35.7
2025-07-01T13:13	10	191	0.2	191	192	531	1.4	528	533	31.6	36.3
2025-07-01T13:14	10	191	0.1	191	191	530	1.2	527	531	32.2	35.5
2025-07-01T13:15	10	191	0.1	191	191	523	1.8	521	527	31.8	36.2
2025-07-01T13:16	10	191	0.1	191	192	526	1.1	524	528	32.0	36.6
2025-07-01T13:17	10	190	0.6	189	191	523	1.8	520	527	32.1	38.3
2025-07-01T13:18	10	188	0.3	188	189	522	0.7	521	524	32.3	38.0
2025-07-01T13:19	10	188	0.1	188	189	525	1.1	523	527	31.8	38.8
2025-07-01T13:20	10	188	0.2	188	189	522	3.2	517	526	32.0	38.1
2025-07-01T13:21	10	188	0.2	187	188	522	1.9	518	525	31.3	38.9
2025-07-01T13:22	10	187	0.2	187	188	524	1.4	522	527	31.3	39.3
2025-07-01T13:23	10	187	0.2	186	187	526	0.7	525	528	31.8	38.1
2025-07-01T13:24	10	186	0.2	186	187	522	2.2	519	526	31.7	37.0
2025-07-01T13:25	10	186	0.2	185	186	522	1.0	520	524	32.0	36.7
2025-07-01T13:26	10	185	0.2	185	186	525	1.1	522	527	32.5	35.7
2025-07-01T13:27	10	186	0.3	186	187	521	1.0	520	524	31.8	35.9
2025-07-01T13:28	10	187	0.5	186	188	523	0.8	521	524	32.2	35.6
2025-07-01T13:29	10	189	0.4	188	190	521	1.6	518	524	31.8	35.8
2025-07-01T13:30	10	189	0.2	189	190	526	2.3	521	529	32.5	35.6
2025-07-01T13:31	10	189	0.1	189	190	529	0.9	526	531	32.8	35.1
2025-07-01T13:32	10	190	0.3	190	191	524	1.6	522	527	32.3	35.5
2025-07-01T13:33	10	192	0.7	191	193	523	3.0	519	527	32.0	35.6
2025-07-01T13:34	10	195	0.8	193	196	522	2.0	519	525	31.6	36.0
2025-07-01T13:35	10	196	0.2	196	197	521	1.9	519	525	31.8	33.8
2025-07-01T13:36	10	198	0.6	197	199	521	1.0	519	523	31.7	34.4
2025-07-01T13:37	10	200	1.1	199	203	522	0.8	519	523	31.6	33.6
2025-07-01T13:38	10	204	0.9	203	206	523	2.6	519	528	31.8	35.0
2025-07-01T13:39	10	206	0.4	206	207	528	2.0	524	531	32.5	34.9
2025-07-01T13:40	10	207	0.3	207	208	524	0.6	522	525	31.6	35.4
2025-07-01T13:41	10	206	0.2	206	207	527	0.7	526	528	31.4	36.3
2025-07-01T13:42	10	204	0.7	203	206	518	4.8	512	526	30.8	40.5
2025-07-01T13:43	10	201	1.5	199	204	513	0.9	511	515	30.3	43.3
2025-07-01T13:44	10	194	2.8	189	199	513	1.0	511	515	30.5	43.4
2025-07-01T13:45	10	187	0.9	184	189	511	1.5	509	513	30.7	42.7
2025-07-01T13:46	10	184	3.1	175	187	507	0.9	506	509	30.4	43.0
2025-07-01T13:47	10	180	3.7	173	185	506	0.8	504	508	30.4	43.5
2025-07-01T13:48	10	178	3.9	171	182	503	1.0	501	505	29.9	44.4
2025-07-01T13:49	10	180	2.5	174	183	502	0.6	501	503	29.8	44.6
2025-07-01T13:50	10	169	9.9	146	182	502	1.3	500	504	29.8	44.6
2025-07-01T13:51	10	148	9.8	139	167	500	1.3	497	502	30.0	43.8
2025-07-01T13:52	10	165	5.4	158	175	502	1.7	499	504	30.0	43.6
2025-07-01T13:53	10	164	3.3	158	170	500	2.3	496	503	29.8	43.6
2025-07-01T13:54	10	170	8.0	158	179	498	1.8	496	502	29.5	44.0
2025-07-01T13:55	10	182	1.5	178	185	497	0.5	496	498	29.0	45.1
2025-07-01T13:56	10	177	4.2	170	185	498	0.7	496	499	29.0	44.6
2025-07-01T13:57	10	176	6.0	167	184	497	1.5	494	499	28.8	45.1
2025-07-01T13:58	10	181	6.4	171	190	502	2.3	497	504	29.4	44.1
2025-07-01T13:59	10	177	2.8	173	183	500	2.5	495	503	29.1	44.1
2025-07-01T14:00	10	186	2.5	181	189	495	0.6	494	497	28.5	44.5
2025-07-01T14:01	10	176	7.1	163	186	498	1.6	494	500	28.8	44.0
2025-07-01T14:02	10	147	10.6	129	163	498	0.9	496	499	29.2	43.3
2025-07-01T14:03	10	113	11.4	93	129	493	3.3	486	497	29.4	42.6
2025-07-01T14:04	10	86	2.2	84	92	482	2.1	479	487	28.6	43.3
2025-07-01T14:05	10	82	0.9	81	84	478	0.6	477	479	28.5	44.1
2025-07-01T14:06	10	80	0.5	79	81	479	0.6	478	481	28.9	43.7
2025-07-01T14:07	10	78	1.5	75	80	477	0.5	475	478	28.6	44.3
2025-07-01T14:08	10	74	0.5	73	76	475	1.2	473	477	28.4	45.6
2025-07-01T14:09	10	73	0.3	72	73	473	1.1	471	475	28.4	46.3
2025-07-01T14:10	10	72	0.9	70	73	471	0.5	470	472	27.9	47.5
2025-07-01T14:11	10	68	0.7	67	70	470	0.4	469	471	28.0	47.7
2025-07-01T14:12	10	63	2.2	60	67	469	0.9	467	470	27.9	47.4
2025-07-01T14:13	10	58	0.8	57	60	466	0.5	465	467	27.5	47.6
2025-07-01T14:14	10	56	0.4	56	57	463	0.5	462	464	27.2	47.4
2025-07-01T14:15	10	55	0.3	55	56	463	0.6	461	464	27.2	47.0
2025-07-01T14:16	10	55	0.1	55	55	463	0.5	462	464	27.2	47.0
2025-07-01T14:17	10	56	0.4	55	57	463	0.5	462	464	27.3	46.5
2025-07-01T14:18	10	57	0.6	56	58	463	0.5	462	464	27.3	46.1
2025-07-01T14:19	10	59	0.5	58	60	462	0.3	461	463	27.2	46.0
2025-07-01T14:20	10	61	0.5	60	62	461	0.3	461	462	27.1	46.3
2025-07-01T14:21	10	63	0.5	62	64	461	0.7	460	462	27.0	46.6
2025-07-01T14:22	10	64	0.4	64	65	462	0.6	460	463	27.0	46.9
2025-07-01T14:23	10	66	0.4	65	66	461	0.5	460	463	26.9	47.0
2025-07-01T14:24	10	68	0.9	66	69	462	0.3	461	463	27.0	47.0
2025-07-01T14:25	10	70	0.7	69	72	461	0.6	460	463	26.8	47.2
2025-07-01T14:26	10	73	1.1	72	76	463	0.8	461	464	27.0	46.7
2025-07-01T14:27	10	78	1.6	75	81	464	0.5	462	465	27.1	46.2
2025-07-01T14:28	10	82	0.6	81	83	466	0.9	464	468	27.2	46.0
2025-07-01T14:29	10	83	0.6	82	84	468	0.9	466	469	27.4	45.4
2025-07-01T14:30	10	83	0.3	82	84	467	0.4	467	468	27.5	44.3
2025-07-01T14:31	10	84	0.3	83	84	466	0.4	466	467	27.4	44.4
2025-07-01T14:32	10	84	0.5	83	86	468	0.6	466	469	27.5	44.0
2025-07-01T14:33	10	87	1.0	85	89	469	0.4	468	469	27.6	43.5
2025-07-01T14:34	10	90	1.2	88	93	469	1.1	468	471	27.6	43.3
2025-07-01T14:35	10	96	2.6	92	101	472	1.5	470	475	27.8	43.1
2025-07-01T14:36	10	106	2.1	101	109	476	1.3	474	478	28.2	42.5
2025-07-01T14:37	10	110	0.5	109	111	477	0.6	476	478	28.2	41.7
2025-07-01T14:38	10	111	1.0	110	113	478	0.3	477	478	28.2	41.3
2025-07-01T14:39	10	115	1.1	113	116	480	1.2	478	482	28.4	41.1
2025-07-01T14:40	10	118	1.8	116	121	481	0.8	479	482	28.5	40.7
2025-07-01T14:41	10	123	1.7	121	126	481	0.5	480	482	28.4	40.8
2025-07-01T14:42	10	127	1.4	125	129	481	0.9	479	483	28.4	40.4
2025-07-01T14:43	10	132	1.7	129	135	483	1.0	482	486	28.4	40.1
2025-07-01T14:44	10	137	1.9	134	140	487	0.5	486	488	28.8	39.0
2025-07-01T14:45	10	140	0.3	140	141	487	0.4	486	487	28.7	38.7
2025-07-01T14:46	10	140	0.8	138	141	487	1.2	485	489	29.0	38.5
2025-07-01T14:47	10	138	0.4	137	138	489	0.6	488	490	29.3	37.2
2025-07-01T14:48	10	137	0.4	136	137	489	0.7	488	491	29.4	36.7
2025-07-01T14:49	10	137	1.3	135	140	489	0.6	488	491	29.5	36.0
2025-07-01T14:50	10	142	1.1	140	144	488	0.7	486	489	29.3	35.7
2025-07-01T14:51	10	145	1.0	143	147	492	1.4	489	494	29.5	36.1
2025-07-01T14:52	10	149	1.3	146	151	493	1.6	490	496	29.5	35.8
2025-07-01T14:53	10	151	0.5	151	152	491	0.7	490	493	29.2	35.0
2025-07-01T14:54	10	152	0.3	151	153	494	0.8	492	495	29.6	34.9
2025-07-01T14:55	10	154	0.5	153	154	493	0.4	493	494	29.6	35.3
2025-07-01T14:56	10	152	0.7	152	154	493	0.5	492	494	29.5	35.2
2025-07-01T14:57	10	154	0.6	152	155	497	1.5	495	500	29.7	35.8
2025-07-01T14:58	10	156	0.5	155	156	500	0.4	499	501	30.2	35.7
2025-07-01T14:59	10	153	0.9	152	155	499	1.2	498	502	30.0	35.1
2025-07-01T15:00	10	150	0.9	149	152	499	1.2	497	501	30.0	36.0
2025-07-01T15:01	10	151	0.8	149	151	499	0.9	497	500	29.8	37.8
2025-07-01T15:02	10	151	0.2	150	151	495	3.0	490	499	29.5	39.2
2025-07-01T15:03	10	150	0.2	149	150	493	0.4	492	494	28.8	40.7
2025-07-01T15:04	10	151	1.1	149	153	494	0.4	494	495	28.9	41.8
2025-07-01T15:05	10	154	0.7	153	155	495	0.5	494	496	29.2	41.1
2025-07-01T15:06	10	155	0.2	155	156	497	1.6	494	500	29.3	40.5
2025-07-01T15:07	10	156	0.6	155	157	494	2.6	491	500	29.1	40.1
2025-07-01T15:08	10	156	0.1	156	157	493	0.4	492	493	28.5	40.1
2025-07-01T15:09	10	156	0.2	156	157	491	0.5	490	492	28.3	40.0
2025-07-01T15:10	10	156	0.1	156	156	492	0.3	491	493	28.6	39.5
2025-07-01T15:11	10	156	0.1	156	157	492	1.0	490	494	28.4	39.2
2025-07-01T15:12	10	156	0.1	156	157	492	1.0	491	494	28.3	39.2
2025-07-01T15:13	10	156	0.1	156	157	493	0.5	492	494	28.5	38.8
2025-07-01T15:14	10	156	0.2	156	157	492	1.0	492	496	28.4	40.4
2025-07-01T15:15	10	157	0.1	156	157	497	1.1	495	499	28.7	38.6
2025-07-01T15:16	10	156	0.1	156	157	497	1.0	496	499	28.9	38.3
2025-07-01T15:17	10	156	0.2	156	156	497	0.7	495	498	28.9	38.8
2025-07-01T15:18	10	156	0.1	156	156	496	1.0	494	498	28.9	38.9
2025-07-01T15:19	10	156	0.1	156	156	500	1.1	497	501	29.1	38.5
2025-07-01T15:20	10	156	0.1	156	156	497	2.0	494	501	29.1	39.0
2025-07-01T15:21	10	156	0.3	155	156	497	1.0	495	498	28.9	39.2
2025-07-01T15:22	10	155	0.3	154	155	498	0.6	497	499	29.0	39.6
2025-07-01T15:23	10	152	0.7	151	154	500	0.9	497	501	29.3	39.7
2025-07-01T15:24	10	152	0.2	151	152	494	1.5	492	497	28.7	38.4
2025-07-01T15:25	10	152	0.3	151	152	493	0.5	492	494	28.5	39.4
2025-07-01T15:26	10	151	0.3	151	152	494	1.1	492	496	28.3	40.4
2025-07-01T15:27	10	151	0.5	151	152	496	0.9	495	498	28.5	40.8
2025-07-01T15:28	10	151	0.4	151	153	497	1.0	495	499	28.7	39.8
2025-07-01T15:29	10	152	0.2	151	152	495	0.8	494	496	28.6	39.8
2025-07-01T15:30	10	152	0.2	152	152	497	0.7	495	498	28.6	40.3
2025-07-01T15:31	10	151	0.5	151	153	496	1.1	494	498	28.7	40.4
2025-07-01T15:32	10	151	0.2	151	151	494	1.8	492	498	29.0	40.0
2025-07-01T15:33	10	150	0.8	149	151	494	0.7	492	495	28.8	38.6
2025-07-01T15:34	10	150	0.7	149	151	494	0.4	493	495	28.9	37.9
2025-07-01T15:35	10	152	0.3	151	152	494	0.9	493	495	28.6	35.9
2025-07-01T15:36	10	152	0.2	152	153	496	0.8	494	497	28.8	38.1
2025-07-01T15:37	10	152	0.1	152	153	495	1.0	493	497	29.0	38.2
2025-07-01T15:38	10	153	0.2	152	153	495	0.8	493	496	28.9	38.6
2025-07-01T15:39	10	153	0.1	153	154	496	1.2	494	498	28.8	39.3
2025-07-01T15:40	10	154	0.2	153	154	499	0.5	498	500	29.1	40.1
2025-07-01T15:41	10	154	0.2	154	155	497	1.2	495	499	29.3	38.7
2025-07-01T15:42	10	155	0.1	155	155	498	0.7	496	499	29.1	38.6
2025-07-01T15:43	10	155	0.1	155	155	499	0.3	499	500	29.3	38.9
2025-07-01T15:44	10	155	0.2	155	156	499	0.4	498	499	29.5	38.5
2025-07-01T15:45	10	156	0.2	155	156	499	0.5	498	500	29.6	37.5
2025-07-01T15:46	10	156	0.1	156	156	500	0.4	499	501	29.4	37.2
2025-07-01T15:47	10	156	0.2	156	156	498	0.8	497	500	29.4	37.1
2025-07-01T15:48	10	156	0.1	156	156	502	1.5	499	504	29.5	37.7
2025-07-01T15:49	10	156	0.1	156	157	500	1.7	498	503	29.6	36.6
2025-07-01T15:50	10	157	0.1	156	157	499	0.8	498	501	29.3	36.9
2025-07-01T15:51	10	156	0.2	156	157	502	0.5	501	503	29.5	37.4
2025-07-01T15:52	10	156	0.1	155	156	501	1.1	499	502	29.5	37.0
2025-07-01T15:53	10	156	0.2	155	156	499	0.5	498	500	29.4	37.4
2025-07-01T15:54	10	156	0.1	156	156	499	0.7	498	501	29.5	37.9
2025-07-01T15:55	10	155	0.7	154	156	502	1.0	501	504	30.0	38.2
2025-07-01T15:56	10	153	0.4	152	154	500	1.4	498	503	29.9	37.7
2025-07-01T15:57	10	152	0.5	152	153	499	0.4	499	500	29.7	38.0
2025-07-01T15:58	10	151	0.5	150	152	500	0.5	499	501	29.6	38.4
2025-07-01T15:59	10	148	1.1	146	150	500	0.5	499	501	29.5	38.1
2025-07-01T16:00	10	143	1.8	140	146	498	0.7	497	500	29.6	38.2
2025-07-01T16:01	10	137	1.7	134	140	496	0.7	495	498	29.7	38.7
2025-07-01T16:02	10	134	0.3	133	135	496	0.5	495	498	29.9	37.7
2025-07-01T16:03	10	136	0.9	134	138	497	0.6	496	498	29.9	37.9
2025-07-01T16:04	10	139	0.5	137	139	498	0.5	497	500	30.0	37.8
2025-07-01T16:05	10	140	1.0	139	142	500	0.6	498	501	30.2	38.5
2025-07-01T16:06	10	148	3.3	142	153	501	1.2	499	503	30.4	38.7
2025-07-01T16:07	10	149	2.7	145	153	503	0.6	502	505	30.6	38.3
2025-07-01T16:08	10	144	0.5	143	145	502	1.3	499	503	30.7	38.2
2025-07-01T16:09	10	143	1.0	140	145	499	1.6	494	501	30.6	38.0
2025-07-01T16:10	10	130	4.8	123	140	494	2.6	488	496	30.3	38.5
2025-07-01T16:11	10	116	3.8	109	123	487	1.4	485	490	29.9	39.2
2025-07-01T16:12	10	101	3.5	97	109	484	1.4	482	487	29.8	39.9
2025-07-01T16:13	10	93	2.7	88	97	483	1.2	480	484	29.7	40.4
2025-07-01T16:14	10	82	2.8	78	88	481	1.0	479	482	29.6	40.4
2025-07-01T16:15	10	75	2.3	71	78	479	0.4	478	480	29.5	40.9
2025-07-01T16:16	10	68	1.6	66	71	479	0.3	478	479	29.6	41.0
2025-07-01T16:17	10	64	0.4	64	65	478	0.4	477	479	29.7	41.2
2025-07-01T16:18	10	67	1.4	65	70	478	0.7	477	480	29.8	40.9
2025-07-01T16:19	10	69	0.3	69	70	478	0.5	477	479	29.9	40.9
2025-07-01T16:20	10	72	2.6	69	76	476	0.4	475	477	29.5	41.3
2025-07-01T16:21	10	79	1.9	76	82	477	0.5	476	478	29.5	41.5
2025-07-01T16:22	10	82	0.7	81	83	476	2.0	472	479	29.4	41.9
2025-07-01T16:23	10	79	2.6	76	84	472	0.5	471	474	28.7	42.6
2025-07-01T16:24	10	83	5.4	76	93	471	0.4	471	472	28.6	43.2
2025-07-01T16:25	10	90	3.6	82	94	472	0.4	471	473	28.4	43.8
2025-07-01T16:26	10	86	4.5	81	92	472	0.3	471	473	28.3	44.3
2025-07-01T16:27	10	90	1.2	88	92	473	0.6	471	474	28.2	44.7
2025-07-01T16:28	10	85	2.6	81	88	473	0.4	472	474	28.2	45.2
2025-07-01T16:29	10	88	2.4	82	90	472	0.3	471	473	28.2	44.8
2025-07-01T16:30	10	82	3.1	77	88	471	0.3	470	472	28.1	45.1
2025-07-01T16:31	10	82	2.8	78	86	471	0.8	470	472	28.1	45.5
2025-07-01T16:32	10	83	1.8	80	86	472	0.8	471	473	28.2	45.3
2025-07-01T16:33	10	77	1.0	76	80	471	0.6	470	472	28.3	45.3
2025-07-01T16:34	10	77	0.5	76	77	470	0.8	469	472	28.2	45.8
2025-07-01T16:35	10	76	0.5	75	77	471	0.6	470	472	28.4	45.6
2025-07-01T16:36	10	77	0.4	76	78	471	0.8	470	473	28.4	45.2
2025-07-01T16:37	10	81	1.7	78	84	472	0.5	471	473	28.5	45.7
2025-07-01T16:38	10	85	0.6	83	85	474	1.1	472	476	28.5	45.8
2025-07-01T16:39	10	77	4.9	71	85	474	0.4	473	475	28.6	46.3
2025-07-01T16:40	10	76	1.2	74	78	474	0.4	473	475	28.6	46.0
2025-07-01T16:41	10	78	0.6	77	80	474	0.8	473	475	28.6	45.7
2025-07-01T16:42	10	84	2.8	80	89	476	0.7	474	477	28.6	45.6
2025-07-01T16:43	10	92	1.7	89	94	477	1.0	476	479	28.6	45.9
2025-07-01T16:44	10	95	0.4	94	96	477	0.4	476	478	28.7	46.2
2025-07-01T16:45	10	95	0.8	93	96	474	1.1	472	477	28.4	44.6
2025-07-01T16:46	10	94	1.3	92	96	473	0.3	472	473	28.2	44.7
2025-07-01T16:47	10	98	1.0	96	100	474	0.7	472	475	28.4	44.6
2025-07-01T16:48	10	99	4.1	87	102	476	0.6	474	477	28.4	45.2
2025-07-01T16:49	10	80	4.3	74	87	474	1.5	471	476	28.5	44.3
2025-07-01T16:50	10	74	4.5	69	83	470	0.8	469	472	28.3	44.0
2025-07-01T16:51	10	64	8.5	57	82	470	0.9	469	472	28.5	44.0
2025-07-01T16:52	10	59	1.7	57	62	468	0.4	468	470	28.5	43.8
2025-07-01T16:53	10	82	16.0	62	103	470	1.6	468	473	28.5	43.7
2025-07-01T16:54	10	100	10.8	87	116	473	2.1	470	477	28.6	43.3
2025-07-01T16:55	10	115	2.7	111	119	477	0.8	476	479	28.6	43.5
2025-07-01T16:56	10	121	0.9	119	122	480	1.4	477	482	28.8	43.8
2025-07-01T16:57	10	122	0.2	122	122	483	0.8	482	484	28.8	44.0
2025-07-01T16:58	10	121	1.4	119	123	484	0.3	483	484	29.0	43.9
2025-07-01T16:59	10	123	0.6	122	124	484	0.6	483	485	29.0	43.3
2025-07-01T17:00	10	112	15.7	73	125	484	1.5	480	486	29.0	43.9
2025-07-01T17:01	10	58	4.0	55	72	477	3.0	474	483	29.1	43.1
2025-07-01T17:02	10	73	9.1	58	85	476	1.0	474	477	29.1	43.7
2025-07-01T17:03	10	67	7.7	51	77	475	1.2	472	477	29.0	43.1
2025-07-01T17:04	10	49	0.7	48	51	471	1.6	468	474	29.0	43.7
2025-07-01T17:05	10	48	0.2	48	49	469	0.5	468	470	28.9	43.3
2025-07-01T17:06	10	48	0.2	48	48	469	0.3	468	469	28.9	43.2
2025-07-01T17:07	10	49	0.9	47	50	469	0.3	468	469	29.0	43.7
2025-07-01T17:08	10	46	0.2	46	47	467	0.8	466	469	29.0	43.0
2025-07-01T17:09	10	58	15.2	46	95	466	1.0	465	469	28.9	42.5
2025-07-01T17:10	10	107	2.9	96	108	472	1.9	468	474	28.9	42.5
2025-07-01T17:11	10	107	0.6	106	107	473	0.3	473	474	28.9	41.0
2025-07-01T17:12	10	106	0.3	105	106	472	0.6	471	473	28.7	40.4
2025-07-01T17:13	10	107	0.4	106	107	471	0.3	470	471	28.6	40.2
2025-07-01T17:14	10	107	0.1	107	107	471	0.4	470	471	28.6	40.0
2025-07-01T17:15	10	107	0.1	107	107	472	0.8	471	474	28.7	40.5
2025-07-01T17:16	10	106	0.2	106	107	473	0.4	472	474	28.6	40.6
2025-07-01T17:17	10	106	0.3	105	106	473	0.4	472	474	28.7	40.7
2025-07-01T17:18	10	105	0.3	104	105	472	0.5	471	473	28.6	40.5
2025-07-01T17:19	10	104	0.3	103	104	472	0.9	471	474	28.7	40.1
2025-07-01T17:20	10	103	0.3	102	103	472	0.3	471	472	28.7	40.4
2025-07-01T17:21	10	102	0.3	102	103	473	0.7	472	475	28.8	40.4
2025-07-01T17:22	10	101	0.6	100	102	472	0.2	472	473	28.7	40.5
2025-07-01T17:23	10	99	0.5	98	100	472	0.5	471	473	28.6	40.5
2025-07-01T17:24	10	97	0.9	95	98	471	1.0	470	473	28.5	41.1
2025-07-01T17:25	10	93	0.9	92	95	470	0.5	470	471	28.5	41.4
2025-07-01T17:26	10	93	0.5	92	93	469	0.8	468	471	28.5	41.5
2025-07-01T17:27	10	94	0.1	94	94	468	0.3	468	469	28.3	41.3
2025-07-01T17:28	10	93	0.2	93	94	469	0.7	467	470	28.4	41.5
2025-07-01T17:29	10	93	0.2	92	93	469	0.3	468	470	28.5	42.1
2025-07-01T17:30	10	92	0.3	92	93	468	0.6	467	469	28.3	41.9
2025-07-01T17:31	10	91	0.2	91	92	469	0.5	467	469	28.3	42.0
2025-07-01T17:32	10	90	0.2	90	91	470	0.8	468	471	28.4	42.1
2025-07-01T17:33	10	90	0.2	89	90	471	0.3	470	472	28.6	42.5
2025-07-01T17:34	10	89	0.2	89	89	471	0.3	470	471	28.6	42.0
2025-07-01T17:35	10	88	0.2	88	89	470	0.6	469	471	28.6	41.7
2025-07-01T17:36	10	88	1.9	87	101	470	0.4	469	471	28.6	42.1
2025-07-01T17:37	10	87	0.2	86	87	470	0.3	469	471	28.8	42.0
2025-07-01T17:38	10	86	0.3	85	86	470	0.3	469	471	28.8	41.8
2025-07-01T17:39	10	85	0.2	85	85	470	0.3	469	470	28.8	42.1
2025-07-01T17:40	10	84	0.2	84	85	470	0.4	469	470	28.8	42.4
2025-07-01T17:41	10	83	0.2	83	84	470	0.4	469	471	28.8	42.3
2025-07-01T17:42	10	83	0.2	82	83	470	0.4	469	471	28.9	42.8
2025-07-01T17:43	10	83	2.0	82	96	468	0.3	468	469	28.9	42.2
2025-07-01T17:44	10	81	0.2	81	82	468	0.4	468	469	28.9	41.9
2025-07-01T17:45	10	81	0.2	80	81	467	0.4	467	468	28.9	42.0
2025-07-01T17:46	10	80	0.2	79	80	467	0.6	466	468	28.9	41.8
2025-07-01T17:47	10	79	0.3	79	80	467	0.3	466	467	28.8	41.7
2025-07-01T17:48	10	78	0.2	78	79	468	0.3	467	468	28.9	42.2
2025-07-01T17:49	10	78	0.3	77	78	467	0.3	467	468	28.9	41.3
2025-07-01T17:50	10	77	0.3	76	77	467	0.3	466	467	28.9	41.4
2025-07-01T17:51	10	76	0.3	75	76	466	0.3	466	467	28.9	41.6
2025-07-01T17:52	10	75	0.2	75	76	466	0.3	465	467	28.9	41.7
2025-07-01T17:53	10	75	0.1	75	75	467	0.4	466	468	29.0	41.9
2025-07-01T17:54	10	74	0.2	74	75	468	0.2	467	468	29.1	42.1
2025-07-01T17:55	10	74	0.2	73	74	467	0.3	466	468	29.1	41.5
2025-07-01T17:56	10	73	0.4	72	73	467	0.3	466	468	29.1	41.7
2025-07-01T17:57	10	71	0.4	71	72	468	0.3	467	468	29.1	42.5
2025-07-01T17:58	10	70	0.4	69	71	468	0.3	467	468	29.1	42.7
2025-07-01T17:59	10	69	0.4	68	70	467	0.5	466	468	29.1	42.2
2025-07-01T18:00	10	68	0.4	67	68	466	0.4	465	467	29.1	43.1
2025-07-01T18:01	10	67	0.4	66	67	466	0.3	466	467	29.0	43.5
2025-07-01T18:02	10	66	0.3	65	66	465	0.8	464	466	29.0	42.8
2025-07-01T18:03	10	64	0.4	64	65	464	0.2	464	465	29.0	42.6
2025-07-01T18:04	10	63	0.3	63	64	464	0.3	463	465	29.0	43.5
2025-07-01T18:05	10	62	0.3	62	63	464	0.3	463	465	29.0	43.1
2025-07-01T18:06	10	61	0.4	60	62	464	0.3	463	464	29.0	43.1
2025-07-01T18:07	10	60	0.4	59	61	463	0.3	462	464	28.9	42.4
2025-07-01T18:08	10	58	0.4	58	59	463	0.3	462	463	28.9	42.8
2025-07-01T18:09	10	57	0.4	56	58	463	0.3	462	463	28.9	42.8
2025-07-01T18:10	10	56	0.4	55	57	462	0.4	461	463	28.9	43.3
2025-07-01T18:11	10	55	0.4	54	55	461	0.3	461	462	28.8	43.3
2025-07-01T18:12	10	53	0.4	52	54	461	0.3	460	461	28.8	43.2
2025-07-01T18:13	10	52	0.4	51	53	460	0.3	459	461	28.8	43.0
2025-07-01T18:14	10	51	0.3	50	51	459	0.2	459	460	28.8	43.3
2025-07-01T18:15	10	50	0.3	49	50	459	0.3	458	459	28.8	43.1
2025-07-01T18:16	10	48	0.4	48	49	458	0.2	458	459	28.8	43.3
2025-07-01T18:17	10	47	0.5	46	48	458	0.3	457	459	28.7	43.5
2025-07-01T18:18	10	45	0.6	44	46	458	0.2	457	458	28.8	43.3
2025-07-01T18:19	10	43	0.5	42	44	457	0.2	456	458	28.7	43.8
2025-07-01T18:20	10	42	0.2	42	42	457	0.2	456	457	28.7	43.9
2025-07-01T18:21	10	42	0.3	41	42	457	0.3	456	457	28.7	44.0
2025-07-01T18:22	10	41	0.3	40	41	456	0.2	455	456	28.6	44.4
2025-07-01T18:23	10	40	0.3	39	40	455	0.5	454	456	28.6	44.1
2025-07-01T18:24	10	39	0.3	38	39	455	0.2	454	455	28.6	44.0
2025-07-01T18:25	10	38	0.3	37	38	454	0.2	454	455	28.5	44.6
2025-07-01T18:26	10	37	0.3	36	37	454	0.2	453	454	28.5	44.9
2025-07-01T18:27	10	36	0.3	35	36	453	0.2	453	454	28.5	45.0
2025-07-01T18:28	10	35	0.3	34	35	453	0.2	453	454	28.5	45.1
2025-07-01T18:29	10	33	0.4	33	34	453	0.2	452	453	28.6	44.8
2025-07-01T18:30	10	32	0.4	31	33	452	0.4	452	453	28.5	45.3
2025-07-01T18:31	10	31	0.3	30	32	452	0.4	451	452	28.5	45.2
2025-07-01T18:32	10	30	0.3	29	30	451	0.3	450	452	28.5	45.3
2025-07-01T18:33	10	29	0.3	28	29	451	0.2	450	451	28.5	45.4
2025-07-01T18:34	10	28	0.2	27	28	450	0.2	450	451	28.5	45.3
2025-07-01T18:35	10	27	0.2	27	28	450	0.2	450	451	28.5	45.2
2025-07-01T18:36	10	26	0.2	26	27	450	0.3	449	450	28.7	45.3
2025-07-01T18:37	10	26	0.3	25	26	449	0.3	448	450	28.6	46.2
2025-07-01T18:38	10	25	0.3	24	25	448	0.3	448	449	28.5	45.7
2025-07-01T18:39	10	24	0.1	24	24	448	0.3	447	448	28.5	45.4
2025-07-01T18:40	10	24	0.2	23	24	447	0.2	447	448	28.5	45.7
2025-07-01T18:41	10	23	0.2	23	23	447	0.2	447	447	28.4	46.4
2025-07-01T18:42	10	22	0.2	22	23	447	0.2	446	447	28.4	45.8
2025-07-01T18:43	10	22	0.2	21	22	446	0.3	445	447	28.3	44.8
2025-07-01T18:44	10	21	0.2	21	21	446	0.4	445	446	28.3	44.5
2025-07-01T18:45	10	20	0.3	20	21	445	0.3	444	446	28.2	42.9
2025-07-01T18:46	10	20	0.2	19	20	444	0.3	444	445	28.1	41.7
2025-07-01T18:47	10	19	0.2	18	19	444	0.3	444	445	28.1	41.2
2025-07-01T18:48	10	18	0.2	18	18	443	0.3	443	444	28.0	42.0
2025-07-01T18:49	10	17	0.2	17	18	443	0.2	442	443	28.0	44.0
2025-07-01T18:50	10	17	0.2	16	17	442	0.2	442	443	27.9	44.7
2025-07-01T18:51	10	16	0.2	16	17	442	0.2	442	443	27.9	42.8
2025-07-01T18:52	10	16	0.2	15	16	441	0.4	440	442	27.8	45.0
2025-07-01T18:53	10	15	0.3	14	16	440	0.3	440	441	27.6	43.9
2025-07-01T18:54	10	14	0.2	14	15	440	0.2	439	440	27.6	43.9
2025-07-01T18:55	10	14	0.2	13	14	439	0.3	439	440	27.6	43.8
2025-07-01T18:56	10	13	0.2	12	13	439	0.2	438	439	27.8	43.0
2025-07-01T18:57	10	12	0.2	12	13	439	0.2	438	439	27.9	42.9
2025-07-01T18:58	10	11	0.2	11	12	438	0.2	438	439	27.8	42.7
2025-07-01T18:59	10	11	0.3	10	11	437	0.3	437	438	27.7	42.6
2025-07-01T19:00	10	10	0.2	9	10	437	0.2	437	438	27.7	42.6
2025-07-01T19:01	10	9	0.2	9	9	437	0.3	437	438	27.7	42.8
2025-07-01T19:02	10	8	0.2	8	9	437	0.2	436	437	27.6	43.4
2025-07-01T19:03	10	8	0.2	7	8	436	0.2	436	437	27.5	43.5
2025-07-01T19:04	10	7	0.2	7	8	436	0.4	435	437	27.6	42.4
2025-07-01T19:05	10	7	0.2	6	7	436	0.3	435	437	27.6	43.1
2025-07-01T19:06	10	6	0.2	6	7	435	0.4	435	436	27.3	45.8
2025-07-01T19:07	10	6	0.3	5	6	435	0.3	434	436	26.9	47.2
2025-07-01T19:08	10	5	0.3	4	6	435	0.3	435	436	26.7	47.8
2025-07-01T19:09	10	4	0.3	4	5	435	0.3	434	435	26.6	48.7
2025-07-01T19:10	10	3	0.3	3	4	434	0.2	434	435	26.5	49.2
2025-07-01T19:11	10	3	0.2	2	4	434	0.4	433	435	26.4	49.8
2025-07-01T19:12	10	3	0.2	3	3	434	0.2	433	434	26.4	50.0
2025-07-01T19:13	10	3	0.2	2	3	433	0.2	433	434	26.3	50.3
2025-07-01T19:14	10	3	0.1	2	3	432	0.3	432	433	26.2	50.3
2025-07-01T19:15	10	2	0.1	2	3	432	0.2	431	432	26.2	50.4
2025-07-01T19:16	10	2	0.1	2	3	432	0.3	431	432	26.2	50.2
2025-07-01T19:17	10	2	0.1	2	2	431	0.3	431	432	26.2	50.3
2025-07-01T19:18	10	2	0.1	2	2	431	0.3	430	431	26.1	50.7
2025-07-01T19:19	10	2	0.1	2	2	430	0.3	430	431	26.0	51.2
2025-07-01T19:20	10	2	0.1	2	2	430	0.4	429	431	26.0	51.2
2025-07-01T19:21	10	2	0.1	2	2	430	0.2	430	431	25.9	51.4
2025-07-01T19:22	10	2	0.1	1	2	429	0.3	429	430	25.9	51.5
2025-07-01T19:23	10	2	0.1	1	2	429	0.3	428	430	26.0	51.3
2025-07-01T19:24	10	2	0.1	1	2	428	0.3	428	429	26.0	51.0
2025-07-01T19:25	10	2	0.1	1	2	429	0.3	428	429	26.0	51.1
2025-07-01T19:26	10	2	0.1	1	2	428	0.2	428	429	26.0	51.2
2025-07-01T19:27	10	1	0.1	1	2	428	0.3	427	428	26.0	51.4
2025-07-01T19:28	10	1	0.1	1	2	427	0.3	427	428	26.0	51.5
2025-07-01T19:29	10	1	0.1	1	2	427	0.3	426	427	25.9	51.8
2025-07-01T19:30	10	1	0.1	1	1	426	0.2	425	426	25.8	52.0
2025-07-01T19:31	10	1	0.1	1	1	425	0.2	425	426	25.8	52.3
2025-07-01T19:32	10	1	0.1	1	1	425	0.4	424	425	25.8	52.4
2025-07-01T19:33	10	1	0.1	1	1	425	0.2	424	425	25.8	52.3
2025-07-01T19:34	10	1	0.1	1	1	424	0.5	423	425	25.7	52.4
2025-07-01T19:35	10	1	0.1	1	1	423	0.2	423	424	25.6	53.1
2025-07-01T19:36	10	1	0.1	1	1	424	0.2	423	424	25.5	53.3
2025-07-01T19:37	10	1	0.2	0	1	423	0.2	423	424	25.5	53.4
2025-07-01T19:38	10	1	0.2	0	2	423	0.3	423	424	25.5	53.7
2025-07-01T19:39	10	1	0.2	0	1	423	0.3	423	424	25.5	53.8
2025-07-01T19:40	10	1	0.2	0	1	423	0.2	422	423	25.4	54.1
2025-07-01T19:41	10	1	0.1	0	1	423	0.3	422	424	25.4	54.1
2025-07-01T19:42	10	1	0.0	0	1	423	0.2	422	423	25.4	54.0
2025-07-01T19:43	10	1	0.1	0	1	423	0.2	422	423	25.4	54.1
2025-07-01T19:44	10	0	0.0	0	1	423	0.2	422	423	25.3	54.5
2025-07-01T19:45	10	0	0.1	0	1	423	0.2	422	423	25.1	55.5
2025-07-01T19:46	10	0	0.1	0	1	422	0.3	422	423	24.8	56.7
2025-07-01T19:47	10	0	0.1	0	0	423	0.2	422	423	24.7	57.4
2025-07-01T19:48	10	0	0.1	0	1	422	0.3	422	423	24.5	58.7
2025-07-01T19:49	10	0	0.1	0	0	422	0.3	421	422	24.3	59.0
2025-07-01T19:50	10	0	0.1	0	0	422	0.2	421	422	24.2	59.5
2025-07-01T19:51	10	0	0.1	0	0	422	0.4	421	422	24.2	59.5
2025-07-01T19:52	10	0	0.1	0	0	421	0.2	421	422	24.4	58.9
2025-07-01T19:53	10	0	0.1	0	0	421	0.3	420	422	24.1	60.0
2025-07-01T19:54	10	0	0.1	0	0	421	0.3	421	422	24.1	59.9
2025-07-01T19:55	10	0	0.1	0	0	421	0.4	420	422	24.1	59.7
2025-07-01T19:56	10	0	0.1	0	0	421	0.2	421	422	24.2	59.2
2025-07-01T19:57	10	0	0.1	0	0	421	0.3	420	422	24.0	59.9
2025-07-01T19:58	10	0	0.1	0	0	421	0.2	420	421	24.2	59.5
2025-07-01T19:59	10	0	0.1	0	0	420	0.4	420	422	24.1	59.8
2025-07-01T20:00	10	0	0.1	0	0	421	0.3	420	421	24.2	59.6
2025-07-01T20:01	10	0	0.1	0	0	420	0.3	420	421	24.2	59.8
2025-07-01T20:02	10	0	0.1	0	0	420	0.2	420	421	24.0	60.7
2025-07-01T20:03	10	0	0.2	0	1	420	0.2	420	421	24.0	60.8
2025-07-01T20:04	10	0	0.2	0	1	420	0.5	418	421	24.0	60.7
2025-07-01T20:05	10	0	0.2	0	1	418	0.5	417	419	24.0	61.1
2025-07-01T20:06	10	0	0.2	0	1	417	0.3	416	418	23.8	61.9
2025-07-01T20:07	10	0	0.2	0	1	417	0.3	416	417	23.8	62.1
2025-07-01T20:08	10	0	0.1	0	1	416	0.3	415	417	23.7	61.9
2025-07-01T20:09	10	0	0.1	0	0	417	0.3	416	417	23.7	61.5
2025-07-01T20:10	10	0	0.1	0	0	417	0.3	416	417	23.8	60.6
2025-07-01T20:11	10	0	0.1	0	0	416	0.5	415	417	24.0	58.9
2025-07-01T20:12	10	0	0.1	0	0	415	0.3	414	415	23.8	59.3
2025-07-01T20:13	10	0	0.1	0	0	415	0.3	414	416	23.7	59.8
2025-07-01T20:14	10	0	0.1	0	0	415	0.3	414	416	23.9	58.8
2025-07-01T20:15	10	0	0.1	0	0	415	0.5	414	416	24.0	58.7
2025-07-01T20:16	10	0	0.1	0	0	415	0.3	415	416	24.0	58.1
2025-07-01T20:17	10	0	0.1	0	0	415	0.2	415	416	24.0	58.0
2025-07-01T20:18	10	0	0.1	0	0	415	0.3	414	415	23.9	58.8
2025-07-01T20:19	10	0	0.1	0	0	415	0.2	414	415	23.9	58.8
2025-07-01T20:20	10	0	0.1	0	0	415	0.3	414	415	23.9	58.4
2025-07-01T20:21	10	0	0.1	0	0	414	0.3	414	415	23.9	58.7
2025-07-01T20:22	10	0	0.1	0	0	414	0.4	413	415	23.8	59.4
2025-07-01T20:23	10	0	0.1	0	0	414	0.4	413	414	23.7	60.1
2025-07-01T20:24	10	0	0.1	0	0	413	0.3	412	413	23.6	60.2
2025-07-01T20:25	10	0	0.1	0	0	412	0.2	412	413	23.5	60.6
2025-07-01T20:26	10	0	0.1	0	1	412	0.2	412	413	23.4	61.0
2025-07-01T20:27	10	0	0.1	0	0	412	0.3	412	413	23.3	61.6
2025-07-01T20:28	10	0	0.1	0	0	413	0.3	412	413	23.3	61.9
2025-07-01T20:29	10	0	0.1	0	0	413	0.2	412	413	23.4	61.7
2025-07-01T20:30	10	0	0.1	0	0	412	0.2	412	413	23.2	62.0
2025-07-01T20:31	10	0	0.1	0	0	413	0.2	412	413	23.2	62.3
2025-07-01T20:32	10	0	0.1	0	0	412	0.3	412	413	23.1	62.8
2025-07-01T20:33	10	0	0.1	0	0	412	0.3	411	412	23.2	62.6
2025-07-01T20:34	10	0	0.1	0	0	411	0.2	411	412	23.1	62.6
2025-07-01T20:35	10	0	0.1	0	0	411	0.3	410	412	23.1	63.0
2025-07-01T20:36	10	0	0.1	0	0	411	0.2	411	412	23.1	63.3
2025-07-01T20:37	10	0	0.2	0	1	411	0.2	410	411	23.1	63.5
2025-07-01T20:38	10	0	0.2	0	1	411	0.3	411	412	23.2	63.4
2025-07-01T20:39	10	0	0.2	0	1	412	0.3	411	412	23.2	63.4
2025-07-01T20:40	10	0	0.2	0	1	412	0.3	411	412	23.1	62.8
2025-07-01T20:41	10	0	0.2	0	1	411	0.3	411	412	23.1	62.8
2025-07-01T20:42	10	0	0.1	0	1	411	0.2	411	412	23.0	62.7
2025-07-01T20:43	10	0	0.1	0	0	411	0.2	410	411	23.0	62.9
2025-07-01T20:44	10	0	0.1	0	0	411	0.2	410	411	23.0	62.6
2025-07-01T20:45	10	0	0.1	0	0	411	0.2	410	411	23.1	62.8
2025-07-01T20:46	10	0	0.1	0	0	411	0.2	410	411	23.1	62.9
2025-07-01T20:47	10	0	0.1	0	0	411	0.2	410	411	23.0	63.2
2025-07-01T20:48	10	0	0.0	0	0	411	0.3	410	412	23.0	63.4
2025-07-01T20:49	10	0	0.1	0	0	411	0.3	410	411	22.9	64.4
2025-07-01T20:50	10	0	0.1	0	0	412	0.3	411	412	22.8	64.7
2025-07-01T20:51	10	0	0.1	0	0	411	0.3	411	412	22.9	64.6
2025-07-01T20:52	10	0	0.1	0	0	412	0.4	411	413	23.0	64.3
2025-07-01T20:53	10	0	0.1	0	0	411	0.5	410	412	23.0	64.2
2025-07-01T20:54	10	0	0.1	0	0	411	0.5	410	412	22.9	64.1
2025-07-01T20:55	10	0	0.1	0	0	410	0.2	409	410	22.8	64.1
2025-07-01T20:56	10	0	0.1	0	0	409	0.4	408	410	22.9	63.8
2025-07-01T20:57	10	0	0.1	0	0	408	0.2	408	409	22.7	64.6
2025-07-01T20:58	10	0	0.1	0	0	408	0.3	407	409	22.5	65.4
2025-07-01T20:59	10	0	0.1	0	0	407	0.3	407	408	22.5	65.3
2025-07-01T21:00	10	0	0.1	0	0	407	0.2	407	408	22.4	65.5
2025-07-01T21:01	10	0	0.1	0	0	407	0.4	406	408	22.4	66.1
2025-07-01T21:02	10	0	0.1	0	0	407	0.2	407	408	22.5	65.7
2025-07-01T21:03	10	0	0.1	0	0	407	0.2	406	407	22.5	65.8
2025-07-01T21:04	10	0	0.1	0	0	407	0.2	406	407	22.4	66.0
2025-07-01T21:05	10	0	0.1	0	0	406	0.4	406	407	22.4	66.1
2025-07-01T21:06	10	0	0.1	0	0	406	0.3	406	407	22.3	66.3
2025-07-01T21:07	10	0	0.1	0	0	406	0.3	406	407	22.3	66.4
2025-07-01T21:08	10	0	0.1	0	0	406	0.3	406	407	22.2	66.8
2025-07-01T21:09	10	0	0.1	0	0	406	0.3	406	407	22.2	66.9
2025-07-01T21:10	10	0	0.1	0	0	406	0.2	406	407	22.2	67.0
2025-07-01T21:11	10	0	0.1	0	0	406	0.2	406	407	22.2	67.1
2025-07-01T21:12	10	0	0.1	0	0	406	0.2	405	407	22.2	67.0
2025-07-01T21:13	10	0	0.1	0	0	406	0.2	406	407	22.3	66.8
2025-07-01T21:14	10	0	0.1	0	0	406	0.3	405	406	22.2	66.7
2025-07-01T21:15	10	0	0.1	0	0	406	0.3	405	406	22.0	67.3
2025-07-01T21:16	10	0	0.1	0	0	405	0.2	405	406	22.0	67.5
2025-07-01T21:17	10	0	0.1	0	0	405	0.2	404	405	21.9	67.9
2025-07-01T21:18	10	0	0.1	0	0	405	0.2	404	405	21.8	69.0
2025-07-01T21:19	10	0	0.1	0	0	405	0.3	404	405	21.7	69.6
2025-07-01T21:20	10	0	0.1	0	0	405	0.2	404	405	21.6	70.0
2025-07-01T21:21	10	0	0.1	0	0	405	0.2	404	405	21.6	70.4
2025-07-01T21:22	10	0	0.1	0	0	405	0.2	405	406	21.5	70.3
2025-07-01T21:23	10	0	0.1	0	0	405	0.2	404	405	21.5	71.4
2025-07-01T21:24	10	0	0.1	0	0	405	0.4	405	406	21.4	72.1
2025-07-01T21:25	10	0	0.2	0	0	406	0.3	405	406	21.5	69.7
2025-07-01T21:26	10	0	0.2	0	1	405	0.2	404	406	21.6	69.0
2025-07-01T21:27	10	0	0.2	0	1	405	0.3	404	405	21.6	68.6
2025-07-01T21:28	10	0	0.2	0	0	405	0.3	404	405	21.9	67.2
2025-07-01T21:29	10	0	0.2	0	1	404	0.4	403	405	21.8	68.0
2025-07-01T21:30	10	0	0.1	0	1	404	0.4	403	405	21.7	68.7
2025-07-01T21:31	10	0	0.1	0	0	404	0.3	404	405	21.8	68.4
2025-07-01T21:32	10	0	0.1	0	0	404	0.3	403	405	21.9	67.7
2025-07-01T21:33	10	0	0.1	0	0	404	0.3	403	405	22.0	67.0
2025-07-01T21:34	10	0	0.1	0	0	403	0.3	403	404	22.1	66.2
2025-07-01T21:35	10	0	0.1	0	0	403	0.3	402	403	22.0	66.6
2025-07-01T21:36	10	0	0.1	0	0	403	0.2	403	403	21.9	67.1
2025-07-01T21:37	10	0	0.1	0	0	403	0.3	402	404	22.0	66.6
2025-07-01T21:38	10	0	0.1	0	0	403	0.3	402	404	22.2	65.3
2025-07-01T21:39	10	0	0.0	0	0	403	0.2	402	403	22.1	65.9
2025-07-01T21:40	10	0	0.1	0	0	403	0.2	403	404	22.1	65.9
2025-07-01T21:41	10	0	0.0	0	0	404	0.4	403	405	22.4	64.5
2025-07-01T21:42	10	0	0.0	0	0	404	0.3	403	405	22.4	64.3
2025-07-01T21:43	10	0	0.1	0	0	405	0.3	404	406	22.5	63.6
2025-07-01T21:44	10	0	0.1	0	0	406	0.2	406	406	22.6	63.2
2025-07-01T21:45	10	0	0.1	0	0	406	0.3	406	407	22.4	64.1
2025-07-01T21:46	10	0	0.1	0	0	407	0.3	406	408	22.4	64.2
2025-07-01T21:47	10	0	0.1	0	0	407	0.3	406	408	22.2	65.2
2025-07-01T21:48	10	0	0.1	0	0	407	0.4	406	408	22.0	66.1
2025-07-01T21:49	10	0	0.1	0	0	407	0.3	406	407	21.9	66.5
2025-07-01T21:50	10	0	0.1	0	0	407	0.3	406	408	21.9	66.2
2025-07-01T21:51	10	0	0.1	0	0	407	0.2	406	407	21.8	66.9
2025-07-01T21:52	10	0	0.1	0	0	407	0.3	406	408	21.7	67.0
2025-07-01T21:53	10	0	0.1	0	0	407	0.2	407	408	21.9	66.4
2025-07-01T21:54	10	0	0.1	0	0	407	0.3	406	408	21.8	66.3
2025-07-01T21:55	10	0	0.1	0	0	407	0.3	406	407	21.8	66.3
2025-07-01T21:56	10	0	0.1	0	0	407	0.3	406	407	21.8	65.8
2025-07-01T21:57	10	0	0.1	0	0	406	0.3	406	407	21.9	65.5
2025-07-01T21:58	10	0	0.1	0	0	406	0.3	405	406	21.8	65.9
2025-07-01T21:59	10	0	0.1	0	0	405	0.4	405	406	21.7	66.4
2025-07-01T22:00	10	0	0.1	0	0	405	0.4	405	406	21.5	67.0
2025-07-01T22:01	10	0	0.1	0	0	405	0.3	404	406	21.4	67.8
2025-07-01T22:02	10	0	0.1	0	0	405	0.3	405	406	21.4	67.3
2025-07-01T22:03	10	0	0.1	0	0	406	0.2	405	406	21.6	66.5
2025-07-01T22:04	10	0	0.1	0	0	405	0.3	405	406	21.6	66.4
2025-07-01T22:05	10	0	0.1	0	0	405	0.2	405	406	21.6	66.6
2025-07-01T22:06	10	0	0.1	0	0	405	0.3	404	405	21.5	67.0
2025-07-01T22:07	10	0	0.1	0	0	405	0.3	404	405	21.5	66.8
2025-07-01T22:08	10	0	0.1	0	0	405	0.3	404	405	21.5	66.8
2025-07-01T22:09	10	0	0.1	0	0	404	0.2	404	405	21.5	66.8
2025-07-01T22:10	10	0	0.1	0	0	404	0.5	403	405	21.5	66.6
2025-07-01T22:11	10	0	0.1	0	0	403	0.2	402	403	21.5	67.2
2025-07-01T22:12	10	0	0.1	0	0	403	0.2	402	403	21.4	67.6
2025-07-01T22:13	10	0	0.1	0	0	402	0.3	402	403	21.4	67.8
2025-07-01T22:14	10	0	0.1	0	0	402	0.3	401	402	21.4	67.5
2025-07-01T22:15	10	0	0.1	0	0	402	0.2	401	403	21.4	67.2
2025-07-01T22:16	10	0	0.0	0	0	403	0.6	402	404	21.4	66.8
2025-07-01T22:17	10	0	0.1	0	0	404	0.3	403	404	21.7	65.1
2025-07-01T22:18	10	0	0.0	0	0	405	0.5	404	405	21.8	64.8
2025-07-01T22:19	10	0	0.0	0	0	405	0.3	404	406	21.7	65.1
2025-07-01T22:20	10	0	0.1	0	0	405	0.3	404	405	21.7	65.0
2025-07-01T22:21	10	0	0.0	0	0	405	0.2	404	405	21.8	64.6
2025-07-01T22:22	10	0	0.1	0	0	405	0.3	404	405	21.6	65.5
2025-07-01T22:23	10	0	0.0	0	0	404	0.5	403	405	21.6	65.4
2025-07-01T22:24	10	0	0.1	0	0	403	0.3	402	404	21.5	65.8
2025-07-01T22:25	10	0	0.1	0	0	403	0.2	402	403	21.6	65.5
2025-07-01T22:26	10	0	0.1	0	1	403	0.3	402	403	21.6	65.5
2025-07-01T22:27	10	0	0.1	0	0	403	0.3	402	403	21.5	65.6
2025-07-01T22:28	10	0	0.1	0	0	403	0.6	401	404	21.8	64.1
2025-07-01T22:29	10	0	0.2	0	1	402	0.3	402	403	21.6	65.5
2025-07-01T22:30	10	0	0.1	0	1	403	0.3	402	403	21.5	65.9
2025-07-01T22:31	10	0	0.2	0	1	402	0.3	401	403	21.5	65.6
2025-07-01T22:32	10	0	0.2	0	1	402	0.3	401	402	21.5	65.9
2025-07-01T22:33	10	0	0.2	0	1	401	0.3	401	402	21.4	66.3
2025-07-01T22:34	10	0	0.1	0	0	401	0.2	400	401	21.3	66.6
2025-07-01T22:35	10	0	0.2	0	1	401	0.2	400	401	21.3	66.7
2025-07-01T22:36	10	0	0.1	0	0	400	0.2	400	401	21.3	66.9
2025-07-01T22:37	10	0	0.1	0	1	400	0.2	400	401	21.3	67.1
2025-07-01T22:38	10	0	0.1	-1	0	401	0.4	400	402	21.2	67.2
2025-07-01T22:39	10	0	0.2	0	0	402	0.2	401	402	21.2	67.5
2025-07-01T22:40	10	0	0.2	0	1	402	0.3	401	402	21.2	67.6
2025-07-01T22:41	10	0	0.1	0	0	401	0.3	401	402	20.9	64.2
2025-07-01T22:42	10	0	0.2	0	0	401	0.4	400	402	21.2	67.6
2025-07-01T22:43	10	0	0.2	0	1	400	0.3	399	401	21.2	64.2
2025-07-01T22:44	10	0	0.2	0	1	399	0.2	399	400	21.2	67.6
2025-07-01T22:45	10	0	0.2	0	1	400	0.5	399	401	21.2	67.6
2025-07-01T22:46	10	0	0.2	0	1	400	0.3	400	401	21.2	67.6
2025-07-01T22:47	10	0	0.1	0	0	401	0.3	400	402	20.9	69.0
2025-07-01T22:48	10	0	0.1	0	0	401	0.5	400	402	20.6	70.6
2025-07-01T22:49	10	0	0.1	0	0	401	0.3	400	402	20.6	70.9
2025-07-01T22:50	10	0	0.1	0	0	402	0.5	401	403	20.7	70.4
2025-07-01T22:51	10	0	0.1	0	1	402	0.3	401	403	20.7	70.3
2025-07-01T22:52	10	0	0.1	0	1	402	0.2	401	402	20.8	70.3
2025-07-01T22:53	10	0	0.1	0	0	401	0.4	400	402	20.8	69.8
2025-07-01T22:54	10	0	0.1	0	0	400	0.6	399	401	20.8	70.2
2025-07-01T22:55	10	0	0.1	0	0	400	0.7	399	401	20.5	71.4
2025-07-01T22:56	10	0	0.1	0	0	400	0.2	399	400	20.6	70.7
2025-07-01T22:57	10	0	0.1	0	0	400	0.2	399	400	20.6	70.8
2025-07-01T22:58	10	0	0.1	0	0	400	0.2	399	400	20.6	70.8
2025-07-01T22:59	10	0	0.1	0	0	399	0.2	399	399	20.6	71.2
2025-07-01T23:00	10	0	0.0	0	0	399	0.3	398	400	20.5	71.6
2025-07-01T23:01	10	0	0.1	0	0	399	0.2	398	399	20.4	72.3
2025-07-01T23:02	10	0	0.1	0	0	398	0.2	398	399	20.4	72.3
2025-07-01T23:03	10	0	0.1	0	0	399	0.5	398	400	20.3	72.9
2025-07-01T23:04	10	0	0.1	0	0	400	0.4	399	401	20.4	72.7
2025-07-01T23:05	10	0	0.1	0	0	400	0.2	399	400	20.4	72.5
2025-07-01T23:06	10	0	0.1	0	0	399	0.2	398	399	20.3	73.1
2025-07-01T23:07	10	0	0.1	0	0	399	0.2	398	399	20.2	73.7
2025-07-01T23:08	10	0	0.1	0	0	399	0.3	398	399	20.1	73.9
2025-07-01T23:09	10	0	0.1	0	0	398	0.2	397	399	20.1	74.1
2025-07-01T23:10	10	0	0.1	0	0	398	0.3	397	399	20.1	74.2
2025-07-01T23:11	10	0	0.1	0	0	398	0.3	397	398	20.1	74.0
2025-07-01T23:12	10	0	0.1	0	0	397	0.2	397	398	20.1	74.1
2025-07-01T23:13	10	0	0.1	0	0	397	0.2	397	398	20.1	74.2
2025-07-01T23:14	10	0	0.1	0	0	397	0.2	397	398	20.1	74.1
2025-07-01T23:15	10	0	0.1	0	0	397	0.3	397	398	20.1	73.9
2025-07-01T23:16	10	0	0.1	0	0	396	0.3	396	397	20.1	74.1
2025-07-01T23:17	10	0	0.1	0	0	397	0.2	396	397	20.0	74.8
2025-07-01T23:18	10	0	0.1	0	0	396	0.3	396	397	19.9	75.2
2025-07-01T23:19	10	0	0.1	0	0	396	0.3	395	397	19.8	75.3
2025-07-01T23:20	10	0	0.1	0	0	396	0.3	395	396	19.9	75.1
2025-07-01T23:21	10	0	0.1	0	0	396	0.3	396	397	20.0	74.4
2025-07-01T23:22	10	0	0.1	0	0	397	0.3	396	397	19.9	74.9
2025-07-01T23:23	10	0	0.1	0	0	397	0.4	396	398	19.7	76.3
2025-07-01T23:24	10	0	0.1	0	0	398	0.3	397	398	19.5	77.9
2025-07-01T23:25	10	0	0.1	0	0	397	0.3	397	398	19.3	79.2
2025-07-01T23:26	10	0	0.1	0	0	398	0.3	397	398	19.2	78.8
2025-07-01T23:27	10	0	0.1	0	0	397	0.2	397	398	19.3	77.5
2025-07-01T23:28	10	0	0.1	0	0	397	0.4	396	398	19.3	77.6
2025-07-01T23:29	10	0	0.1	0	0	397	0.3	397	398	19.6	76.0
2025-07-01T23:30	10	0	0.1	0	0	397	0.2	397	398	19.8	74.7
2025-07-01T23:31	10	0	0.1	0	0	397	0.2	396	397	19.9	74.0
2025-07-01T23:32	10	0	0.1	0	0	396	0.3	395	397	20.0	73.3
2025-07-01T23:33	10	0	0.1	0	0	395	0.3	395	396	20.1	73.0
2025-07-01T23:34	10	0	0.1	0	0	395	0.4	394	396	20.0	73.7
2025-07-01T23:35	10	0	0.1	0	0	395	0.3	395	396	19.9	74.1
2025-07-01T23:36	10	0	0.1	0	0	395	0.3	394	395	19.9	74.0
2025-07-01T23:37	10	0	0.1	0	0	395	0.2	395	395	20.1	72.3
2025-07-01T23:38	10	0	0.1	0	0	395	0.3	395	396	19.9	73.7
2025-07-01T23:39	10	0	0.1	0	0	395	0.4	394	396	19.7	74.8
2025-07-01T23:40	10	0	0.1	0	0	395	0.3	394	395	19.5	75.7
2025-07-01T23:41	10	0	0.1	0	0	395	0.3	394	396	19.7	74.4
2025-07-01T23:42	10	0	0.1	0	0	394	0.5	393	395	19.7	75.2
2025-07-01T23:43	10	0	0.1	0	0	394	0.4	393	395	19.4	76.6
2025-07-01T23:44	10	0	0.1	0	0	393	0.5	392	394	19.4	76.1
2025-07-01T23:45	10	0	0.1	0	0	392	0.2	392	393	19.3	77.0
2025-07-01T23:46	10	0	0.1	0	0	393	0.2	392	393	19.3	76.2
2025-07-01T23:47	10	0	0.1	0	0	393	0.7	392	394	19.7	74.0
2025-07-01T23:48	10	0	0.1	0	0	394	0.6	393	396	20.3	71.2
2025-07-01T23:49	10	0	0.1	0	0	395	0.2	395	396	20.6	69.3
2025-07-01T23:50	10	0	0.1	0	0	395	0.5	394	396	20.7	68.9
2025-07-01T23:51	10	0	0.1	0	0	395	0.3	394	396	20.6	69.3
2025-07-01T23:52	10	0	0.1	0	0	394	0.5	393	395	20.5	70.1
2025-07-01T23:53	10	0	0.1	0	0	393	0.3	392	394	20.2	71.5
2025-07-01T23:54	10	0	0.1	0	0	393	0.4	392	394	20.1	71.9
2025-07-01T23:55	10	0	0.0	0	0	394	0.3	393	395	20.1	71.8
2025-07-01T23:56	10	0	0.0	0	0	395	0.4	394	396	20.3	71.0
2025-07-01T23:57	10	0	0.1	0	0	395	0.3	395	396	20.5	69.8
2025-07-01T23:58	10	0	0.1	0	0	396	0.3	395	396	20.6	69.2
2025-07-01T23:59	10	0	0.1	0	0	395	0.4	394	396	20.5	69.7
2025-07-02T00:00	10	0	0.1	0	0	395	0.2	395	396	20.4	70.4
2025-07-02T00:01	10	0	0.1	0	0	396	0.2	395	396	20.2	71.1
2025-07-02T00:02	10	0	0.1	0	0	397	0.3	396	397	20.3	70.6
2025-07-02T00:03	10	0	0.0	0	0	397	0.3	397	398	20.4	70.1
2025-07-02T00:04	10	0	0.0	0	0	396	0.7	395	397	20.3	70.8
2025-07-02T00:05	10	0	0.0	0	0	395	0.3	394	396	20.1	71.5
2025-07-02T00:06	10	0	0.1	0	0	394	0.4	394	395	20.0	72.2
2025-07-02T00:07	10	0	0.1	0	0	394	0.3	394	395	19.9	72.3
2025-07-02T00:08	10	0	0.0	0	0	395	0.2	394	395	20.1	71.4
2025-07-02T00:09	10	0	0.1	0	0	395	0.4	394	396	20.1	71.8
2025-07-02T00:10	10	0	0.1	0	0	396	0.3	395	396	20.0	72.2
2025-07-02T00:11	10	0	0.1	0	0	395	0.3	395	396	19.9	72.5
2025-07-02T00:12	10	0	0.1	0	0	395	0.3	395	396	19.9	72.4
2025-07-02T00:13	10	0	0.1	0	0	395	0.3	395	396	20.1	70.9
2025-07-02T00:14	10	0	0.1	0	0	395	0.4	394	396	20.4	69.4
2025-07-02T00:15	10	0	0.0	0	0	395	0.3	394	395	20.2	70.4
2025-07-02T00:16	10	0	0.1	0	0	395	0.2	394	396	20.1	71.0
2025-07-02T00:17	10	0	0.1	0	0	395	0.5	393	395	20.0	71.7
2025-07-02T00:18	10	0	0.1	0	0	394	0.2	394	395	19.8	72.7
2025-07-02T00:19	10	0	0.1	0	0	394	0.2	394	394	19.5	73.9
2025-07-02T00:20	10	0	0.1	0	0	394	0.2	394	394	19.2	75.1
2025-07-02T00:21	10	0	0.1	0	0	394	0.2	394	395	19.0	76.4
2025-07-02T00:22	10	0	0.1	0	0	394	0.2	394	395	18.9	76.8
2025-07-02T00:23	10	0	0.1	0	0	394	0.2	393	394	18.9	77.1
2025-07-02T00:24	10	0	0.1	0	0	393	0.2	393	394	18.8	77.4
2025-07-02T00:25	10	0	0.1	0	0	393	0.2	392	393	18.8	77.6
2025-07-02T00:26	10	0	0.1	0	0	392	0.3	392	393	18.8	77.4
2025-07-02T00:27	10	0	0.1	0	0	391	0.2	391	392	18.8	77.7
2025-07-02T00:28	10	0	0.1	0	0	391	0.3	390	391	18.7	77.9
2025-07-02T00:29	10	0	0.1	0	0	390	0.2	390	391	18.7	78.0
2025-07-02T00:30	10	0	0.1	0	0	390	0.2	390	391	18.7	78.2
2025-07-02T00:31	10	0	0.1	0	0	390	0.2	389	390	18.6	78.3
2025-07-02T00:32	10	0	0.1	0	0	390	0.3	389	390	18.8	77.7
2025-07-02T00:33	10	0	0.1	0	0	390	0.2	390	390	19.0	76.0
2025-07-02T00:34	10	0	0.1	0	0	390	0.3	389	390	19.0	76.0
2025-07-02T00:35	10	0	0.1	0	0	390	0.2	389	390	18.8	76.7
2025-07-02T00:36	10	0	0.1	0	0	390	0.2	389	390	18.6	77.8
2025-07-02T00:37	10	0	0.2	0	1	390	0.2	389	390	18.6	78.0
2025-07-02T00:38	10	0	0.1	0	0	389	0.2	388	390	18.7	78.0
2025-07-02T00:39	10	0	0.1	0	0	390	0.4	389	390	18.7	77.7
2025-07-02T00:40	10	0	0.1	0	0	390	0.3	389	391	18.7	77.5
2025-07-02T00:41	10	0	0.1	0	0	390	0.3	389	391	18.8	77.2
2025-07-02T00:42	10	0	0.2	-1	0	390	0.3	390	391	18.8	76.6
2025-07-02T00:43	10	0	0.1	0	0	390	0.2	389	391	18.9	76.2
2025-07-02T00:44	10	0	0.2	-1	0	390	0.3	389	390	19.0	75.7
2025-07-02T00:45	10	0	0.2	0	0	390	0.3	389	390	19.1	75.1
2025-07-02T00:46	10	0	0.2	0	0	389	0.2	389	390	19.1	75.3
2025-07-02T00:47	10	0	0.2	0	1	389	0.3	388	390	18.9	76.1
2025-07-02T00:48	10	0	0.2	-1	1	389	0.3	388	390	18.9	76.3
2025-07-02T00:49	10	0	0.1	0	0	389	0.3	388	390	18.8	76.8
2025-07-02T00:50	10	0	0.1	0	0	389	0.2	388	389	18.8	76.9
2025-07-02T00:51	10	0	0.1	0	0	389	0.3	388	389	18.6	77.5
2025-07-02T00:52	10	0	0.2	0	0	389	0.2	388	389	18.5	78.1
2025-07-02T00:53	10	0	0.1	0	0	388	0.3	387	389	18.5	78.7
2025-07-02T00:54	10	0	0.1	0	0	388	0.2	387	388	18.4	79.3
2025-07-02T00:55	10	0	0.1	0	0	388	0.3	387	388	18.4	79.7
2025-07-02T00:56	10	0	0.1	0	0	388	0.3	388	389	18.4	79.5
2025-07-02T00:57	10	0	0.2	0	0	388	0.2	388	389	18.4	79.4
2025-07-02T00:58	10	0	0.2	-1	0	388	0.4	388	389	18.4	78.5
2025-07-02T00:59	10	0	0.1	0	0	389	0.3	388	389	18.5	78.2
2025-07-02T01:00	10	0	0.1	0	0	389	0.2	388	389	18.5	78.1
2025-07-02T01:01	10	0	0.1	0	0	389	0.2	388	390	18.6	77.5
2025-07-02T01:02	10	0	0.1	0	0	388	0.2	388	389	18.6	77.6
2025-07-02T01:03	10	0	0.1	0	0	388	0.2	388	389	18.5	77.9
2025-07-02T01:04	10	0	0.1	0	0	388	0.2	387	388	18.5	78.0
2025-07-02T01:05	10	0	0.1	0	0	388	0.2	387	388	18.5	77.8
2025-07-02T01:06	10	0	0.1	0	0	388	0.2	387	388	18.5	77.8
2025-07-02T01:07	10	0	0.1	0	0	387	0.2	387	388	18.5	77.8
2025-07-02T01:08	10	0	0.1	0	0	388	0.2	387	388	18.5	77.9
2025-07-02T01:09	10	0	0.0	0	0	387	0.3	387	388	18.5	77.9
2025-07-02T01:10	10	0	0.1	0	0	387	0.2	387	388	18.5	78.1
2025-07-02T01:11	10	0	0.0	0	0	387	0.2	387	388	18.6	78.0
2025-07-02T01:12	10	0	0.0	0	0	387	0.3	386	388	18.5	78.2
2025-07-02T01:13	10	0	0.1	0	0	388	0.2	387	388	18.5	78.3
2025-07-02T01:14	10	0	0.1	0	0	388	0.3	387	389	18.5	78.4
2025-07-02T01:15	10	0	0.1	0	0	388	0.2	388	389	18.4	78.4
2025-07-02T01:16	10	0	0.1	0	0	388	0.2	388	389	18.4	78.5
2025-07-02T01:17	10	0	0.0	0	0	388	0.3	388	389	18.4	79.0
2025-07-02T01:18	10	0	0.1	0	0	388	0.2	388	388	18.3	79.3
2025-07-02T01:19	10	0	0.1	0	0	388	0.2	387	388	18.2	79.8
2025-07-02T01:20	10	0	0.1	0	0	388	0.2	387	388	18.2	79.8
2025-07-02T01:21	10	0	0.1	0	0	388	0.3	387	388	18.2	79.3
2025-07-02T01:22	10	0	0.1	0	0	387	0.3	387	388	18.3	79.3
2025-07-02T01:23	10	0	0.1	0	0	388	0.3	387	388	18.1	80.5
2025-07-02T01:24	10	0	0.1	0	0	388	0.3	388	389	18.1	81.6
2025-07-02T01:25	10	0	0.1	0	0	389	0.4	388	389	18.2	81.3
2025-07-02T01:26	10	0	0.1	0	0	389	0.2	388	389	18.3	81.1
2025-07-02T01:27	10	0	0.1	0	0	388	0.5	388	389	18.2	81.8
2025-07-02T01:28	10	0	0.1	0	0	388	0.3	387	388	18.1	82.7
2025-07-02T01:29	10	0	0.0	0	0	387	0.2	386	387	18.1	82.4
2025-07-02T01:30	10	0	0.1	0	0	387	0.2	386	387	18.1	82.1
2025-07-02T01:31	10	0	0.1	0	0	386	0.3	386	387	18.1	81.1
2025-07-02T01:32	10	0	0.1	0	0	386	0.2	385	386	18.1	81.2
2025-07-02T01:33	10	0	0.1	0	0	386	0.2	385	386	18.1	80.3
2025-07-02T01:34	10	0	0.1	0	0	386	0.5	385	387	18.1	79.6
2025-07-02T01:35	10	0	0.1	0	0	388	0.5	387	389	18.2	79.0
2025-07-02T01:36	10	0	0.1	0	0	389	0.4	388	390	18.1	79.2
2025-07-02T01:37	10	0	0.1	0	0	389	0.2	389	390	18.0	79.8
2025-07-02T01:38	10	0	0.1	0	0	389	0.2	389	390	18.0	80.1
2025-07-02T01:39	10	0	0.0	0	0	389	0.2	388	389	17.9	80.4
2025-07-02T01:40	10	0	0.1	0	0	388	0.3	388	389	17.9	80.2
2025-07-02T01:41	10	0	0.1	0	0	388	0.2	388	389	17.9	80.3
2025-07-02T01:42	10	0	0.1	0	0	389	0.4	388	389	18.0	79.7
2025-07-02T01:43	10	0	0.1	0	0	388	0.3	388	389	18.1	79.1
2025-07-02T01:44	10	0	0.1	0	0	388	0.2	388	389	18.0	79.3
2025-07-02T01:45	10	0	0.1	0	0	388	0.2	388	389	18.1	79.2
2025-07-02T01:46	10	0	0.0	0	0	388	0.4	387	388	18.0	79.3
2025-07-02T01:47	10	0	0.1	0	0	388	0.2	387	388	17.9	79.8
2025-07-02T01:48	10	0	0.1	0	0	388	0.3	387	389	18.0	79.8
2025-07-02T01:49	10	0	0.1	0	0	388	0.4	387	389	17.9	80.3
2025-07-02T01:50	10	0	0.1	0	0	388	0.3	387	388	17.7	81.2
2025-07-02T01:51	10	0	0.1	0	0	387	0.2	387	388	17.7	81.5
2025-07-02T01:52	10	0	0.1	0	0	387	0.3	386	388	17.7	81.4
2025-07-02T01:53	10	0	0.1	0	0	387	0.2	386	387	17.7	81.6
2025-07-02T01:54	10	0	0.1	0	0	386	0.3	386	387	17.7	81.6
2025-07-02T01:55	10	0	0.1	0	0	386	0.2	386	387	17.6	81.7
2025-07-02T01:56	10	0	0.1	0	0	386	0.2	385	386	17.7	81.7
2025-07-02T01:57	10	0	0.1	0	0	386	0.2	386	387	17.7	81.4
2025-07-02T01:58	10	0	0.1	0	0	386	0.2	385	386	17.7	81.7
2025-07-02T01:59	10	0	0.1	0	0	386	0.6	385	387	17.6	81.8
2025-07-02T02:00	10	0	0.1	0	0	387	0.2	387	388	17.5	82.3
2025-07-02T02:01	10	0	0.1	0	0	387	0.2	387	388	17.4	82.5
2025-07-02T02:02	10	0	0.1	0	0	386	0.2	386	387	17.4	82.5
2025-07-02T02:03	10	0	0.1	0	0	386	0.3	386	387	17.6	81.9
2025-07-02T02:04	10	0	0.1	0	0	387	0.3	386	387	17.8	80.8
2025-07-02T02:05	10	0	0.1	0	0	386	0.4	385	387	18.0	80.1
2025-07-02T02:06	10	0	0.1	0	0	386	0.3	386	387	17.9	80.6
2025-07-02T02:07	10	0	0.1	0	0	387	0.2	386	387	17.8	80.8
2025-07-02T02:08	10	0	0.0	0	0	387	0.2	387	387	17.9	80.7
2025-07-02T02:09	10	0	0.1	0	0	387	0.3	386	388	17.9	80.5
2025-07-02T02:10	10	0	0.0	0	0	387	0.2	387	388	17.9	80.3
2025-07-02T02:11	10	0	0.1	0	0	387	0.4	386	388	18.0	79.7
2025-07-02T02:12	10	0	0.1	0	0	388	0.3	387	388	18.2	78.8
2025-07-02T02:13	10	0	0.1	0	0	388	0.2	387	388	18.3	78.2
2025-07-02T02:14	10	0	0.1	0	0	388	0.3	387	389	18.3	78.1
2025-07-02T02:15	10	0	0.1	0	0	389	0.4	388	390	18.4	77.8
2025-07-02T02:16	10	0	0.1	0	0	389	0.3	388	390	18.4	77.7
2025-07-02T02:17	10	0	0.1	0	0	389	0.3	388	390	18.3	77.8
2025-07-02T02:18	10	0	0.1	0	0	390	0.3	389	391	18.3	77.8
2025-07-02T02:19	10	0	0.1	0	0	391	0.4	390	391	18.3	78.1
2025-07-02T02:20	10	0	0.1	0	0	392	0.3	390	392	18.3	78.3
2025-07-02T02:21	10	0	0.1	0	0	392	0.3	391	393	18.3	78.3
2025-07-02T02:22	10	0	0.1	0	0	392	0.2	392	393	18.2	78.4
2025-07-02T02:23	10	0	0.1	0	0	392	0.2	391	392	18.2	78.4
2025-07-02T02:24	10	0	0.1	0	0	392	0.3	391	392	18.3	78.2
2025-07-02T02:25	10	0	0.1	0	0	392	0.3	391	393	18.2	78.3
2025-07-02T02:26	10	0	0.1	0	0	392	0.3	391	392	18.3	78.1
2025-07-02T02:27	10	0	0.1	0	0	392	0.2	391	393	18.4	77.6
2025-07-02T02:28	10	0	0.1	0	0	392	0.2	392	393	18.4	77.4
2025-07-02T02:29	10	0	0.1	0	0	392	0.2	392	393	18.4	77.4
2025-07-02T02:30	10	0	0.1	0	0	392	0.3	391	392	18.4	77.3
2025-07-02T02:31	10	0	0.1	0	0	391	0.3	390	392	18.3	77.7
2025-07-02T02:32	10	0	0.1	0	0	391	0.2	391	392	18.3	77.9
2025-07-02T02:33	10	0	0.1	0	0	391	0.2	390	392	18.2	78.2
2025-07-02T02:34	10	0	0.0	0	0	391	0.2	391	392	18.2	78.4
2025-07-02T02:35	10	0	0.1	0	0	391	0.3	391	392	18.1	78.5
2025-07-02T02:36	10	0	0.0	0	0	391	0.2	391	392	18.1	78.6
2025-07-02T02:37	10	0	0.1	0	0	391	0.2	390	391	18.0	79.0
2025-07-02T02:38	10	0	0.0	0	0	392	0.3	391	392	18.1	78.9
2025-07-02T02:39	10	0	0.0	0	0	392	0.3	391	393	18.1	78.6
2025-07-02T02:40	10	0	0.0	0	0	392	0.3	391	393	18.1	78.4
2025-07-02T02:41	10	0	0.1	0	0	392	0.2	392	393	18.3	77.8
2025-07-02T02:42	10	0	0.1	0	0	392	0.4	391	392	18.3	77.6
2025-07-02T02:43	10	0	0.1	0	0	391	0.3	390	392	18.1	78.4
2025-07-02T02:44	10	0	0.0	0	0	391	0.3	391	392	18.1	78.5
2025-07-02T02:45	10	0	0.0	0	0	392	0.3	391	392	18.2	77.8
2025-07-02T02:46	10	0	0.1	0	0	391	0.3	390	392	18.0	79.2
2025-07-02T02:47	10	0	0.0	0	0	391	0.2	391	392	17.9	79.6
2025-07-02T02:48	10	0	0.0	0	0	392	0.4	391	392	18.0	79.1
2025-07-02T02:49	10	0	0.1	0	0	392	0.3	391	392	18.0	79.2
2025-07-02T02:50	10	0	0.0	0	0	391	0.3	391	392	18.1	78.8
2025-07-02T02:51	10	0	0.1	0	0	390	0.2	390	391	18.0	79.2
2025-07-02T02:52	10	0	0.0	0	0	391	0.2	390	391	18.1	78.7
2025-07-02T02:53	10	0	0.0	0	0	390	0.3	390	391	18.2	78.2
2025-07-02T02:54	10	0	0.0	0	0	390	0.2	389	391	18.1	78.6
2025-07-02T02:55	10	0	0.1	0	0	390	0.3	389	391	18.0	79.4
2025-07-02T02:56	10	0	0.0	0	0	390	0.2	389	390	17.9	80.0
2025-07-02T02:57	10	0	0.0	0	0	390	0.3	389	390	17.9	79.7
2025-07-02T02:58	10	0	0.0	0	0	389	0.2	389	390	17.8	80.1
2025-07-02T02:59	10	0	0.1	0	0	389	0.4	388	390	17.8	79.8
2025-07-02T03:00	10	0	0.0	0	0	388	0.2	387	388	17.8	79.8
2025-07-02T03:01	10	0	0.1	0	0	387	0.3	387	388	17.8	80.1
2025-07-02T03:02	10	0	0.0	0	0	387	0.2	387	388	17.8	80.0
2025-07-02T03:03	10	0	0.0	0	0	387	0.4	386	387	17.7	80.3
2025-07-02T03:04	10	0	0.1	0	0	386	0.3	386	387	17.5	81.4
2025-07-02T03:05	10	0	0.0	0	0	386	0.2	386	386	17.2	83.2
2025-07-02T03:06	10	0	0.1	0	0	386	0.3	385	386	17.2	83.7
2025-07-02T03:07	10	0	0.1	0	0	385	0.2	385	386	17.1	84.3
2025-07-02T03:08	10	0	0.1	0	0	385	0.3	384	386	17.0	84.6
2025-07-02T03:09	10	0	0.1	0	0	385	0.2	384	385	17.0	84.4
2025-07-02T03:10	10	0	0.1	0	0	385	0.3	384	385	17.1	84.1
2025-07-02T03:11	10	0	0.1	0	0	385	0.4	384	386	17.2	83.0
2025-07-02T03:12	10	0	0.1	0	0	385	0.3	384	386	17.5	81.2
2025-07-02T03:13	10	0	0.1	0	0	385	0.2	385	386	17.7	80.2
2025-07-02T03:14	10	0	0.0	0	0	385	0.2	384	385	17.7	80.1
2025-07-02T03:15	10	0	0.1	0	0	385	0.2	384	385	17.6	80.4
2025-07-02T03:16	10	0	0.0	0	0	385	0.2	384	385	17.6	80.3
2025-07-02T03:17	10	0	0.1	0	0	384	0.2	383	384	17.6	80.6
2025-07-02T03:18	10	0	0.0	0	0	385	0.5	384	386	17.7	80.3
2025-07-02T03:19	10	0	0.1	0	0	386	0.3	385	386	18.0	78.6
2025-07-02T03:20	10	0	0.1	0	0	386	0.2	385	386	18.0	78.3
2025-07-02T03:21	10	0	0.1	0	0	386	0.4	385	387	17.9	78.8
2025-07-02T03:22	10	0	0.1	0	0	385	0.3	384	386	17.9	78.9
2025-07-02T03:23	10	0	0.1	0	0	385	0.3	384	386	17.9	78.9
2025-07-02T03:24	10	0	0.1	0	0	385	0.3	384	385	17.9	78.4
2025-07-02T03:25	10	0	0.1	0	0	384	0.2	384	385	18.0	78.4
2025-07-02T03:26	10	0	0.1	0	0	385	0.2	384	385	17.9	78.5
2025-07-02T03:27	10	0	0.1	0	0	385	0.2	384	385	18.0	77.7
2025-07-02T03:28	10	0	0.1	0	0	385	0.2	385	386	18.1	77.1
2025-07-02T03:29	10	0	0.1	0	0	386	0.2	385	386	18.2	76.7
2025-07-02T03:30	10	0	0.1	0	1	385	0.3	384	386	18.2	76.8
2025-07-02T03:31	10	0	0.1	0	1	384	0.4	384	385	18.1	77.6
2025-07-02T03:32	10	0	0.1	0	1	384	0.2	384	385	17.9	78.6
2025-07-02T03:33	10	0	0.1	0	1	384	0.2	384	385	17.8	79.2
2025-07-02T03:34	10	0	0.1	0	1	384	0.3	383	385	17.7	79.6
2025-07-02T03:35	10	1	0.1	0	1	384	0.2	383	384	17.6	80.0
2025-07-02T03:36	10	1	0.1	0	1	383	0.2	383	384	17.5	80.5
2025-07-02T03:37	10	1	0.1	0	1	383	0.3	383	384	17.5	80.8
2025-07-02T03:38	10	1	0.1	0	1	383	0.3	383	384	17.5	81.0
2025-07-02T03:39	10	1	0.1	1	1	383	0.3	383	384	17.4	81.3
2025-07-02T03:40	10	1	0.1	1	1	385	0.3	384	385	17.4	81.7
2025-07-02T03:41	10	1	0.1	1	2	385	0.2	385	386	17.2	82.8
2025-07-02T03:42	10	1	0.2	1	2	385	0.3	384	386	17.0	83.6
2025-07-02T03:43	10	1	0.2	1	2	385	0.2	384	385	17.0	83.7
2025-07-02T03:44	10	1	0.1	1	2	384	0.3	383	384	17.0	83.8
2025-07-02T03:45	10	1	0.1	1	2	384	0.2	383	384	16.8	84.7
2025-07-02T03:46	10	1	0.1	1	2	383	0.3	383	384	16.8	85.0
2025-07-02T03:47	10	2	0.1	1	2	383	0.3	383	384	16.8	85.2
2025-07-02T03:48	10	2	0.1	1	2	384	0.3	383	384	16.8	84.9
2025-07-02T03:49	10	2	0.1	1	2	384	0.2	383	384	16.8	84.7
2025-07-02T03:50	10	2	0.1	1	2	384	0.2	383	384	16.8	84.8
2025-07-02T03:51	10	2	0.2	1	2	384	0.2	383	384	16.7	85.3
2025-07-02T03:52	10	2	0.2	2	2	384	0.3	383	384	16.6	85.7
2025-07-02T03:53	10	2	0.1	2	2	383	0.2	383	384	16.6	85.8
2025-07-02T03:54	10	2	0.1	2	3	383	0.2	382	383	16.4	86.4
2025-07-02T03:55	10	2	0.2	2	3	382	0.4	382	383	16.4	86.4
2025-07-02T03:56	10	2	0.2	2	3	383	0.5	382	384	16.6	85.4
2025-07-02T03:57	10	2	0.2	2	3	383	0.4	382	384	16.8	84.8
2025-07-02T03:58	10	3	0.2	2	3	384	0.7	382	385	16.9	84.1
2025-07-02T03:59	10	3	0.2	2	3	384	0.3	383	385	17.0	82.9
2025-07-02T04:00	10	3	0.2	3	4	384	0.3	383	385	17.1	82.6
2025-07-02T04:01	10	4	0.2	3	4	384	0.3	383	384	17.1	82.6
2025-07-02T04:02	10	4	0.2	3	4	384	0.3	383	385	17.0	83.3
2025-07-02T04:03	10	4	0.2	4	5	384	0.2	383	385	16.9	83.6
2025-07-02T04:04	10	4	0.1	4	5	384	0.3	383	384	16.8	84.0
2025-07-02T04:05	10	4	0.2	4	5	384	0.3	383	384	16.8	84.3
2025-07-02T04:06	10	5	0.1	4	5	384	0.2	383	384	16.8	84.4
2025-07-02T04:07	10	5	0.2	5	6	385	0.3	384	385	16.7	84.6
2025-07-02T04:08	10	5	0.2	5	5	385	0.2	385	386	16.8	83.8
2025-07-02T04:09	10	5	0.2	5	6	385	0.3	384	386	16.9	83.4
2025-07-02T04:10	10	6	0.1	5	6	385	0.6	385	387	16.9	83.6
2025-07-02T04:11	10	6	0.2	5	6	387	0.3	386	387	17.3	81.0
2025-07-02T04:12	10	6	0.2	6	7	388	0.2	387	388	17.5	80.1
2025-07-02T04:13	10	7	0.2	6	7	387	0.2	387	388	17.5	79.9
2025-07-02T04:14	10	7	0.2	7	7	387	0.2	387	387	17.5	80.0
2025-07-02T04:15	10	7	0.1	7	8	387	0.2	387	388	17.5	79.9
2025-07-02T04:16	10	7	0.2	7	8	388	0.2	387	388	17.5	79.7
2025-07-02T04:17	10	7	0.1	7	8	387	0.2	387	388	17.5	79.7
2025-07-02T04:18	10	8	0.2	7	8	388	0.3	387	389	17.6	79.6
2025-07-02T04:19	10	8	0.2	8	9	388	0.3	387	388	17.5	80.0
2025-07-02T04:20	10	9	0.2	8	9	388	0.3	387	388	17.5	80.3
2025-07-02T04:21	10	9	0.2	9	10	388	0.3	387	388	17.4	81.0
2025-07-02T04:22	10	10	0.3	9	10	387	0.2	387	388	17.2	82.0
2025-07-02T04:23	10	11	0.3	10	11	388	0.3	387	389	17.2	82.1
2025-07-02T04:24	10	11	0.3	11	12	388	0.2	388	389	17.2	81.7
2025-07-02T04:25	10	12	0.2	12	12	389	0.4	389	390	17.3	81.4
2025-07-02T04:26	10	13	0.2	12	13	390	0.2	389	390	17.4	81.2
2025-07-02T04:27	10	13	0.2	13	14	390	0.2	389	390	17.4	81.2
2025-07-02T04:28	10	14	0.3	14	15	390	0.2	390	391	17.4	80.7
2025-07-02T04:29	10	15	0.2	14	15	391	0.2	390	391	17.5	80.1
2025-07-02T04:30	10	16	0.2	15	16	391	0.3	390	392	17.5	80.2
2025-07-02T04:31	10	16	0.3	15	17	391	0.3	391	392	17.5	80.1
2025-07-02T04:32	10	17	0.2	16	17	392	0.3	391	393	17.6	79.9
2025-07-02T04:33	10	17	0.2	17	18	392	0.2	392	393	17.6	79.5
2025-07-02T04:34	10	18	0.2	18	18	392	0.2	392	393	17.7	79.2
2025-07-02T04:35	10	19	0.3	18	20	393	0.3	392	394	17.7	79.1
2025-07-02T04:36	10	19	0.2	19	20	393	0.2	393	394	17.6	79.4
2025-07-02T04:37	10	20	0.2	19	20	393	0.2	393	394	17.6	79.5
2025-07-02T04:38	10	20	0.2	20	21	394	0.3	393	394	17.7	79.4
2025-07-02T04:39	10	21	0.3	21	22	394	0.3	393	394	17.7	79.4
2025-07-02T04:40	10	22	0.2	21	22	394	0.2	394	395	17.6	80.0
2025-07-02T04:41	10	22	0.2	22	23	395	0.3	394	395	17.6	80.6
2025-07-02T04:42	10	23	0.2	22	23	395	0.3	394	396	17.6	80.6
2025-07-02T04:43	10	23	0.2	23	24	395	0.2	395	396	17.6	80.3
2025-07-02T04:44	10	24	0.2	24	25	395	0.2	395	396	17.6	81.1
2025-07-02T04:45	10	25	0.2	24	25	396	0.3	395	396	17.6	80.6
2025-07-02T04:46	10	25	0.2	25	26	396	0.3	395	397	17.7	80.5
2025-07-02T04:47	10	26	0.2	25	26	396	0.2	396	397	17.7	80.4
2025-07-02T04:48	10	27	0.2	26	27	397	0.4	396	398	17.7	80.3
2025-07-02T04:49	10	27	0.2	27	28	397	0.2	397	398	17.8	79.8
2025-07-02T04:50	10	28	0.2	28	28	397	0.2	397	398	17.7	80.9
2025-07-02T04:51	10	29	0.2	28	29	397	0.3	396	398	17.5	81.5
2025-07-02T04:52	10	29	0.2	29	30	397	0.2	397	398	17.4	82.1
2025-07-02T04:53	10	30	0.2	29	30	397	0.2	397	398	17.4	82.1
2025-07-02T04:54	10	30	0.2	30	31	397	0.2	397	398	17.4	82.4
2025-07-02T04:55	10	31	0.1	31	31	398	0.3	397	399	17.5	81.8
2025-07-02T04:56	10	31	0.2	31	32	398	0.2	398	399	17.5	81.1
2025-07-02T04:57	10	32	0.2	32	32	399	0.2	398	399	17.5	81.5
2025-07-02T04:58	10	33	0.2	32	33	398	0.2	398	399	17.4	82.2
2025-07-02T04:59	10	33	0.2	33	33	399	0.2	398	399	17.4	82.4
2025-07-02T05:00	10	34	0.2	33	34	399	0.2	398	399	17.5	82.0
2025-07-02T05:01	10	34	0.2	34	34	399	0.2	399	400	17.5	81.8
2025-07-02T05:02	10	35	0.2	34	35	400	0.3	399	400	17.5	81.5
2025-07-02T05:03	10	35	0.2	35	35	400	0.2	400	401	17.6	81.3
2025-07-02T05:04	10	36	0.2	35	36	401	0.3	400	401	17.6	81.1
2025-07-02T05:05	10	36	0.2	36	36	401	0.2	401	402	17.7	81.3
2025-07-02T05:06	10	37	0.1	36	37	401	0.3	400	401	17.7	81.1
2025-07-02T05:07	10	37	0.2	37	37	401	0.2	401	402	17.7	81.5
2025-07-02T05:08	10	38	0.2	37	38	401	0.3	401	402	17.8	81.8
2025-07-02T05:09	10	38	0.2	38	38	402	0.3	401	403	17.8	81.9
2025-07-02T05:10	10	39	0.2	38	39	402	0.2	402	403	17.9	80.3
2025-07-02T05:11	10	39	0.2	39	40	402	0.3	402	403	18.0	79.2
2025-07-02T05:12	10	40	0.2	39	40	403	0.2	402	403	18.0	78.6
2025-07-02T05:13	10	40	0.2	40	41	403	0.2	402	403	18.1	77.8
2025-07-02T05:14	10	41	0.2	41	41	403	0.2	403	403	18.2	76.9
2025-07-02T05:15	10	42	0.2	41	42	403	0.3	403	404	18.2	77.2
2025-07-02T05:16	10	42	0.2	42	43	404	0.2	403	405	18.3	76.9
2025-07-02T05:17	10	43	0.2	43	44	404	0.2	404	405	18.4	76.8
2025-07-02T05:18	10	44	0.2	43	44	405	0.3	404	405	18.4	76.4
2025-07-02T05:19	10	44	0.2	44	45	405	0.3	405	406	18.4	77.0
2025-07-02T05:20	10	45	0.3	45	46	406	0.2	405	406	18.5	76.1
2025-07-02T05:21	10	46	0.2	45	46	407	0.2	406	407	18.5	76.7
2025-07-02T05:22	10	46	0.3	46	47	407	0.3	406	407	18.5	77.0
2025-07-02T05:23	10	47	0.2	47	47	407	0.2	407	408	18.5	76.5
2025-07-02T05:24	10	48	0.2	47	48	407	0.2	407	408	18.6	76.3
2025-07-02T05:25	10	48	0.2	48	49	408	0.3	408	409	18.8	76.8
2025-07-02T05:26	10	49	0.2	49	50	409	0.3	408	410	18.8	76.7
2025-07-02T05:27	10	50	0.2	50	50	409	0.2	409	410	18.8	75.6
2025-07-02T05:28	10	51	0.3	50	51	410	0.2	409	410	18.8	74.1
2025-07-02T05:29	10	52	0.3	51	52	410	0.3	409	411	19.0	74.5
2025-07-02T05:30	10	53	0.3	52	53	411	0.2	410	411	19.0	74.4
2025-07-02T05:31	10	53	0.2	53	54	411	0.3	411	412	19.0	74.4
2025-07-02T05:32	10	54	0.2	54	54	412	0.2	412	413	19.2	74.2
2025-07-02T05:33	10	54	0.6	53	55	412	0.4	411	413	19.2	74.1
2025-07-02T05:34	10	55	1.1	53	56	413	0.3	412	414	19.2	73.4
2025-07-02T05:35	10	57	0.5	56	58	413	0.2	413	414	19.3	74.2
2025-07-02T05:36	10	58	0.4	58	59	414	0.3	413	414	19.4	74.5
2025-07-02T05:37	10	60	0.4	59	60	414	0.2	414	415	19.4	74.3
2025-07-02T05:38	10	61	0.4	60	62	415	0.3	415	416	19.4	74.0
2025-07-02T05:39	10	61	0.4	60	62	415	0.3	415	416	19.5	73.1
2025-07-02T05:40	10	55	3.2	51	60	414	0.6	413	415	19.5	72.7
2025-07-02T05:41	10	57	4.1	51	63	414	0.3	414	415	19.5	71.9
2025-07-02T05:42	10	60	3.2	53	63	415	0.3	415	416	19.5	73.2
2025-07-02T05:43	10	50	1.6	47	53	415	0.5	414	416	19.6	73.0
2025-07-02T05:44	10	50	2.9	47	56	415	0.3	414	416	19.6	73.8
2025-07-02T05:45	10	59	1.5	56	61	416	0.4	415	417	19.6	73.7
2025-07-02T05:46	10	40	10.3	26	57	415	1.4	413	417	19.7	72.2
2025-07-02T05:47	10	32	3.6	27	37	413	0.5	412	414	19.8	72.8
2025-07-02T05:48	10	33	3.8	26	38	413	0.3	412	414	19.8	72.8
2025-07-02T05:49	10	24	1.2	23	27	412	0.6	411	413	19.8	73.4
2025-07-02T05:50	10	36	5.6	27	46	413	0.7	411	414	19.7	72.3
2025-07-02T05:51	10	52	2.2	46	54	415	0.8	413	416	19.8	72.4
2025-07-02T05:52	10	46	2.7	42	51	415	0.4	415	416	19.9	71.1
2025-07-02T05:53	10	63	5.8	51	70	417	1.2	415	419	19.8	72.0
2025-07-02T05:54	10	71	0.3	70	72	419	0.5	418	420	19.9	70.8
2025-07-02T05:55	10	72	0.3	71	72	420	0.3	419	421	20.1	71.4
2025-07-02T05:56	10	71	0.6	70	72	421	0.3	420	421	20.4	70.8
2025-07-02T05:57	10	67	2.1	63	70	421	0.2	421	422	20.5	70.0
2025-07-02T05:58	10	62	0.8	60	63	421	0.2	420	421	20.3	70.8
2025-07-02T05:59	10	59	1.2	56	60	421	0.5	419	421	20.4	70.5
2025-07-02T06:00	10	52	1.5	50	55	420	0.3	419	421	20.4	69.7
2025-07-02T06:01	10	55	1.5	52	57	420	0.2	419	420	20.6	68.6
2025-07-02T06:02	10	63	3.6	57	69	421	0.5	420	422	20.8	67.7
2025-07-02T06:03	10	70	1.0	69	73	423	0.4	422	423	20.8	69.7
2025-07-02T06:04	10	75	1.1	73	76	424	0.6	423	425	20.8	70.7
2025-07-02T06:05	10	77	0.2	76	77	425	0.2	425	425	20.8	70.3
2025-07-02T06:06	10	77	0.2	77	78	425	0.2	425	426	20.8	70.0
2025-07-02T06:07	10	78	0.1	77	78	426	0.2	425	426	20.9	69.1
2025-07-02T06:08	10	78	0.2	78	79	426	0.3	425	426	20.9	69.7
2025-07-02T06:09	10	79	0.2	78	79	426	0.3	425	426	21.2	67.9
2025-07-02T06:10	10	79	0.2	79	80	427	0.2	426	427	21.3	67.2
2025-07-02T06:11	10	80	0.2	79	80	427	0.2	427	428	21.2	67.7
2025-07-02T06:12	10	80	0.2	80	80	428	0.3	427	428	21.1	68.0
2025-07-02T06:13	10	80	0.2	80	81	428	0.3	428	429	21.2	67.4
2025-07-02T06:14	10	81	0.2	81	81	429	0.3	428	430	21.1	67.1
2025-07-02T06:15	10	82	0.2	81	82	429	0.2	428	429	21.0	67.4
2025-07-02T06:16	10	82	0.2	82	82	429	0.3	428	429	21.0	67.3
2025-07-02T06:17	10	83	0.2	82	83	429	0.2	429	430	21.1	66.8
2025-07-02T06:18	10	83	0.2	83	84	430	0.3	429	431	21.2	67.4
2025-07-02T06:19	10	84	0.2	84	84	430	0.2	430	431	21.2	67.0
2025-07-02T06:20	10	84	0.2	84	85	431	0.2	431	432	21.3	68.2
2025-07-02T06:21	10	85	0.2	85	85	431	0.4	430	432	21.2	68.1
2025-07-02T06:22	10	86	0.2	85	86	431	0.2	431	432	21.1	68.6
2025-07-02T06:23	10	86	0.2	86	87	431	0.2	431	432	21.0	68.6
2025-07-02T06:24	10	87	0.2	86	87	431	0.4	431	432	21.0	68.6
2025-07-02T06:25	10	87	0.3	87	88	432	0.4	431	433	21.1	69.8
2025-07-02T06:26	10	88	0.2	87	88	432	0.2	432	433	21.1	68.9
2025-07-02T06:27	10	89	0.3	88	90	432	0.3	431	433	21.1	68.6
2025-07-02T06:28	10	89	0.2	89	90	433	0.2	432	433	21.1	68.7
2025-07-02T06:29	10	90	0.3	89	91	434	0.3	433	435	21.1	68.8
2025-07-02T06:30	10	90	0.2	90	91	434	0.3	434	435	21.2	68.4
2025-07-02T06:31	10	91	0.2	90	91	435	0.3	435	436	21.4	69.2
2025-07-02T06:32	10	91	0.2	91	92	436	0.3	435	436	21.5	69.3
2025-07-02T06:33	10	92	0.2	91	92	436	0.2	436	436	21.5	68.5
2025-07-02T06:34	10	93	0.2	92	93	436	0.4	435	437	21.5	68.6
2025-07-02T06:35	10	93	0.2	93	94	436	0.3	435	436	21.3	69.1
2025-07-02T06:36	10	94	0.2	93	94	436	0.3	435	437	21.4	69.3
2025-07-02T06:37	10	94	0.2	94	95	437	0.3	436	437	21.5	69.0
2025-07-02T06:38	10	95	0.2	95	95	437	0.2	437	437	21.5	68.7
2025-07-02T06:39	10	96	0.2	95	96	438	0.2	437	438	21.6	67.8
2025-07-02T06:40	10	96	0.2	96	97	438	0.3	437	439	21.7	67.3
2025-07-02T06:41	10	97	0.2	96	97	439	0.4	438	440	21.9	67.0
2025-07-02T06:42	10	97	0.2	97	98	440	0.3	439	441	22.0	68.0
2025-07-02T06:43	10	98	0.2	97	98	440	0.2	440	441	22.1	67.4
2025-07-02T06:44	10	98	0.2	98	99	440	0.3	439	440	21.9	67.2
2025-07-02T06:45	10	99	0.2	99	99	440	0.2	440	440	21.8	67.6
2025-07-02T06:46	10	99	0.2	99	100	440	0.4	440	441	21.8	67.6
2025-07-02T06:47	10	100	0.2	99	100	440	0.5	439	441	21.6	67.9
2025-07-02T06:48	10	100	0.2	100	101	440	0.3	439	441	21.5	68.0
2025-07-02T06:49	10	101	0.2	101	101	440	0.4	439	441	21.5	68.0
2025-07-02T06:50	10	102	0.2	101	102	441	0.6	441	442	21.8	68.0
2025-07-02T06:51	10	102	0.2	102	103	441	0.9	440	443	21.9	67.3
2025-07-02T06:52	10	103	0.2	103	103	441	0.3	440	442	21.8	67.0
2025-07-02T06:53	10	103	0.1	103	104	442	0.3	441	442	21.8	67.1
2025-07-02T06:54	10	104	0.2	103	104	442	0.5	441	443	21.9	67.5
2025-07-02T06:55	10	104	0.2	104	105	443	0.3	442	443	22.0	67.0
2025-07-02T06:56	10	105	0.1	105	105	442	0.5	442	444	21.9	67.0
2025-07-02T06:57	10	105	0.1	105	106	442	0.5	441	443	21.9	66.9
2025-07-02T06:58	10	106	0.2	105	106	443	0.3	442	444	22.0	66.1
2025-07-02T06:59	10	106	0.1	106	107	444	0.5	443	445	22.1	66.3
2025-07-02T07:00	10	107	0.2	107	107	445	0.2	444	445	22.2	65.5
2025-07-02T07:01	10	108	0.2	107	108	444	0.5	443	445	22.1	66.2
2025-07-02T07:02	10	108	0.2	108	109	446	0.3	445	446	22.1	66.0
2025-07-02T07:03	10	109	0.2	108	109	446	0.3	445	447	22.1	65.9
2025-07-02T07:04	10	110	0.2	109	110	447	0.3	446	448	22.2	66.4
2025-07-02T07:05	10	110	0.2	110	111	447	0.8	445	448	22.2	66.1
2025-07-02T07:06	10	111	0.3	110	111	447	0.8	446	449	22.1	66.3
2025-07-02T07:07	10	111	0.5	110	112	448	0.3	447	449	22.4	66.2
2025-07-02T07:08	10	111	0.7	110	112	449	0.4	448	450	22.5	65.8
2025-07-02T07:09	10	112	0.3	112	113	450	0.4	449	451	22.5	65.8
2025-07-02T07:10	10	113	0.1	113	113	450	0.6	449	451	22.7	66.1
2025-07-02T07:11	10	114	0.3	113	114	449	0.3	449	450	22.6	65.4
2025-07-02T07:12	10	114	0.2	114	115	450	0.3	449	451	22.6	65.5
2025-07-02T07:13	10	115	0.2	115	116	452	0.3	451	452	22.6	65.8
2025-07-02T07:14	10	116	0.2	115	116	451	0.5	450	452	22.5	65.8
2025-07-02T07:15	10	116	0.2	116	117	451	0.6	450	452	22.6	65.8
2025-07-02T07:16	10	117	0.2	116	117	451	0.3	451	452	22.6	65.7
2025-07-02T07:17	10	117	0.2	117	118	452	0.3	452	453	22.7	65.5
2025-07-02T07:18	10	118	0.2	118	119	453	0.6	452	454	22.8	65.0
2025-07-02T07:19	10	119	0.2	118	119	453	0.6	452	454	22.6	64.9
2025-07-02T07:20	10	120	0.2	119	120	454	0.7	452	455	22.8	64.7
2025-07-02T07:21	10	120	0.2	120	121	454	0.4	453	455	22.8	64.5
2025-07-02T07:22	10	120	0.3	120	121	455	0.6	453	456	23.0	64.8
2025-07-02T07:23	10	120	0.2	120	120	455	0.4	453	455	23.0	64.7
2025-07-02T07:24	10	120	0.5	119	121	455	0.6	454	456	23.0	64.1
2025-07-02T07:25	10	122	0.3	121	122	455	0.5	454	456	22.8	65.0
2025-07-02T07:26	10	122	0.2	122	123	456	0.3	456	457	23.0	64.7
2025-07-02T07:27	10	123	0.1	122	123	458	0.8	457	460	23.3	64.5
2025-07-02T07:28	10	123	0.1	123	123	457	1.4	455	460	23.4	63.0
2025-07-02T07:29	10	123	0.1	123	124	456	0.3	455	457	23.3	64.1
2025-07-02T07:30	10	124	0.1	123	124	457	0.4	457	458	23.5	63.1
2025-07-02T07:31	10	124	0.1	124	124	458	0.4	457	459	23.6	62.9
2025-07-02T07:32	10	124	0.2	124	125	459	0.8	457	460	23.3	62.8
2025-07-02T07:33	10	125	0.2	124	125	458	0.2	457	458	23.2	62.2
2025-07-02T07:34	10	125	0.2	125	126	459	0.2	458	459	23.4	61.9
2025-07-02T07:35	10	126	0.1	126	126	459	0.2	458	459	23.7	60.7
2025-07-02T07:36	10	126	0.2	126	127	460	0.6	459	461	23.7	61.2
2025-07-02T07:37	10	127	0.1	126	127	460	0.5	459	462	23.5	62.6
2025-07-02T07:38	10	127	0.2	127	127	459	0.9	458	461	23.3	62.7
2025-07-02T07:39	10	128	0.1	127	128	458	0.3	458	459	23.2	63.0
2025-07-02T07:40	10	128	0.2	128	128	459	0.7	458	461	23.3	63.1
2025-07-02T07:41	10	129	0.1	128	129	461	0.4	460	462	23.4	62.7
2025-07-02T07:42	10	129	0.2	129	129	462	0.3	461	463	23.3	62.8
2025-07-02T07:43	10	129	0.2	129	130	462	0.7	461	463	23.5	62.3
2025-07-02T07:44	10	130	0.2	130	131	463	0.4	463	464	23.8	63.0
2025-07-02T07:45	10	131	0.2	130	131	463	0.8	462	465	23.8	61.3
2025-07-02T07:46	10	132	0.2	131	132	462	0.4	461	463	23.7	60.8
2025-07-02T07:47	10	132	0.3	132	133	465	0.5	463	465	24.0	60.9
2025-07-02T07:48	10	133	0.2	132	133	464	0.6	463	466	23.8	60.5
2025-07-02T07:49	10	133	0.2	133	134	465	0.3	464	465	24.0	59.8
2025-07-02T07:50	10	134	0.2	133	134	466	0.4	465	466	23.9	59.7
2025-07-02T07:51	10	134	0.2	134	135	466	0.3	465	467	24.2	60.1
2025-07-02T07:52	10	135	0.2	134	135	466	0.4	465	467	24.2	59.5
2025-07-02T07:53	10	136	0.2	135	136	465	0.9	463	466	24.0	59.9
2025-07-02T07:54	10	136	0.2	136	137	465	0.7	464	466	23.8	60.1
2025-07-02T07:55	10	137	0.2	137	137	466	1.0	464	468	23.9	60.2
2025-07-02T07:56	10	137	0.1	137	138	466	0.8	464	467	23.9	60.0
2025-07-02T07:57	10	138	0.1	138	138	465	0.3	464	466	23.7	59.5
2025-07-02T07:58	10	138	0.2	138	139	467	0.4	466	468	23.9	58.5
2025-07-02T07:59	10	139	0.2	138	139	468	0.4	468	469	24.0	58.3
2025-07-02T08:00	10	139	0.2	139	140	468	0.3	468	469	24.4	57.7
2025-07-02T08:01	10	140	0.2	139	140	468	0.4	467	469	24.5	57.7
2025-07-02T08:02	10	140	0.2	140	141	469	0.3	469	470	24.5	57.9
2025-07-02T08:03	10	141	0.2	140	141	470	0.2	470	471	24.6	57.0
2025-07-02T08:04	10	141	0.2	141	142	471	0.3	470	472	24.7	57.3
2025-07-02T08:05	10	142	0.2	141	142	471	0.4	470	472	25.0	56.6
2025-07-02T08:06	10	142	0.1	142	142	471	0.3	471	472	25.3	54.3
2025-07-02T08:07	10	143	0.1	142	143	471	0.4	470	472	25.1	55.0
2025-07-02T08:08	10	143	0.2	142	143	471	0.4	470	471	25.0	55.3
2025-07-02T08:09	10	143	0.1	143	143	472	0.4	471	472	24.9	55.9
2025-07-02T08:10	10	143	0.1	143	143	472	0.3	471	472	25.0	56.2
2025-07-02T08:11	10	143	0.1	143	143	472	0.3	471	472	25.1	55.2
2025-07-02T08:12	10	144	0.1	143	144	472	0.3	471	472	25.1	56.4
2025-07-02T08:13	10	144	0.1	143	144	473	0.8	472	475	24.8	56.8
2025-07-02T08:14	10	144	0.1	144	144	475	0.7	474	476	24.8	58.0
2025-07-02T08:15	10	144	0.1	144	145	475	1.2	471	476	25.0	56.6
2025-07-02T08:16	10	145	0.1	144	145	472	0.3	471	473	24.8	56.0
2025-07-02T08:17	10	145	0.1	145	145	473	0.7	471	474	24.7	56.7
2025-07-02T08:18	10	145	0.1	145	145	474	0.6	473	475	24.7	57.0
2025-07-02T08:19	10	145	0.1	145	146	474	0.7	473	476	24.8	57.5
2025-07-02T08:20	10	146	0.1	145	146	474	0.9	473	476	25.0	56.9
2025-07-02T08:21	10	146	0.1	146	146	475	0.6	473	476	25.0	56.6
2025-07-02T08:22	10	146	0.1	146	146	474	0.9	472	476	24.8	56.3
2025-07-02T08:23	10	146	0.1	146	147	475	0.9	474	476	24.7	57.1
2025-07-02T08:24	10	146	0.1	146	147	477	0.9	475	479	25.1	56.9
2025-07-02T08:25	10	147	0.1	146	147	475	0.5	474	476	25.0	56.0
2025-07-02T08:26	10	147	0.1	147	147	477	0.2	476	477	25.0	55.9
2025-07-02T08:27	10	147	0.1	147	147	477	0.5	476	478	25.1	56.7
2025-07-02T08:28	10	147	0.1	147	148	475	1.2	474	478	25.0	55.9
2025-07-02T08:29	10	147	0.1	147	147	475	1.3	472	477	25.1	55.9
2025-07-02T08:30	10	147	0.2	147	148	474	1.5	472	476	24.8	56.2
2025-07-02T08:31	10	147	0.3	147	148	474	0.4	474	475	25.0	55.6
2025-07-02T08:32	10	147	0.2	147	148	473	0.6	472	475	24.9	55.9
2025-07-02T08:33	10	147	0.2	147	148	474	1.0	472	475	25.1	55.3
2025-07-02T08:34	10	147	0.2	147	148	474	0.8	472	475	24.7	56.0
2025-07-02T08:35	10	148	0.2	147	148	474	0.9	473	476	24.8	56.2
2025-07-02T08:36	10	148	0.3	148	149	476	1.0	474	477	24.7	56.4
2025-07-02T08:37	10	149	0.2	148	149	479	1.1	477	481	25.2	56.6
2025-07-02T08:38	10	149	0.2	148	149	480	1.2	477	482	25.6	55.8
2025-07-02T08:39	10	149	0.2	149	149	477	1.0	475	479	25.1	56.1
2025-07-02T08:40	10	150	0.2	149	150	478	0.6	477	479	25.1	56.1
2025-07-02T08:41	10	150	0.1	150	150	479	1.0	477	480	25.2	56.1
2025-07-02T08:42	10	150	0.1	150	150	478	0.7	477	479	25.0	56.1
2025-07-02T08:43	10	150	0.2	150	151	481	0.6	479	482	25.2	56.2
2025-07-02T08:44	10	151	0.1	150	151	481	0.6	480	482	25.2	56.6
2025-07-02T08:45	10	151	0.1	151	151	479	0.8	478	481	25.2	56.5
2025-07-02T08:46	10	151	0.2	151	152	481	0.9	479	482	25.3	56.5
2025-07-02T08:47	10	151	0.1	151	152	480	0.6	479	481	25.3	56.7
2025-07-02T08:48	10	152	0.1	152	152	480	0.6	478	481	25.1	57.2
2025-07-02T08:49	10	152	0.1	152	153	481	0.8	480	483	25.1	57.3
2025-07-02T08:50	10	152	0.1	152	153	482	0.6	481	483	25.2	57.8
2025-07-02T08:51	10	153	0.1	152	153	482	1.0	480	484	25.2	57.0
2025-07-02T08:52	10	153	0.1	153	153	480	1.2	478	482	25.1	57.6
2025-07-02T08:53	10	153	0.1	153	153	480	0.4	479	481	25.1	57.5
2025-07-02T08:54	10	153	0.1	153	153	479	0.4	479	480	25.0	57.5
2025-07-02T08:55	10	154	0.1	153	154	481	1.0	479	483	25.3	57.0
2025-07-02T08:56	10	154	0.1	154	154	482	0.7	480	483	25.2	56.8
2025-07-02T08:57	10	154	0.2	154	155	484	0.8	483	486	25.3	56.6
2025-07-02T08:58	10	155	0.1	155	155	483	1.3	482	486	25.6	57.0
2025-07-02T08:59	10	155	0.1	155	155	484	0.6	482	485	25.8	56.6
2025-07-02T09:00	10	155	0.1	155	155	484	0.9	482	485	25.8	56.0
2025-07-02T09:01	10	156	0.1	155	156	486	0.9	484	487	25.7	56.2
2025-07-02T09:02	10	156	0.1	156	156	485	0.8	484	486	25.7	56.1
2025-07-02T09:03	10	156	0.1	156	156	484	0.4	483	485	25.6	56.1
2025-07-02T09:04	10	156	0.1	156	156	486	0.4	485	487	25.6	55.4
2025-07-02T09:05	10	156	0.1	156	157	487	0.5	486	488	25.5	55.6
2025-07-02T09:06	10	156	0.1	156	157	489	0.9	487	490	25.8	55.9
2025-07-02T09:07	10	157	0.1	156	157	488	1.2	485	490	26.1	55.4
2025-07-02T09:08	10	157	0.1	157	157	485	0.9	483	486	26.0	54.6
2025-07-02T09:09	10	157	0.1	157	157	485	0.8	483	487	25.9	54.7
2025-07-02T09:10	10	157	0.2	157	158	486	0.5	486	487	25.8	55.3
2025-07-02T09:11	10	158	0.1	158	158	487	0.5	486	488	25.9	55.0
2025-07-02T09:12	10	158	0.1	158	158	490	0.9	487	491	26.2	55.0
2025-07-02T09:13	10	158	0.1	158	158	487	0.7	486	489	26.0	54.1
2025-07-02T09:14	10	158	0.1	158	158	486	0.4	486	487	25.8	54.3
2025-07-02T09:15	10	158	0.1	158	158	486	1.0	484	488	25.9	54.5
2025-07-02T09:16	10	158	0.1	158	158	488	0.6	486	489	25.9	54.5
2025-07-02T09:17	10	158	0.1	158	158	488	0.3	487	489	25.8	54.5
2025-07-02T09:18	10	158	0.1	158	158	487	0.5	486	488	25.8	54.7
2025-07-02T09:19	10	158	0.1	158	158	489	0.8	487	491	26.0	54.3
2025-07-02T09:20	10	158	0.1	158	159	488	0.9	486	489	25.9	54.0
2025-07-02T09:21	10	159	0.2	158	159	489	0.7	488	490	26.1	53.8
2025-07-02T09:22	10	159	0.1	159	159	490	0.5	489	491	26.1	53.5
2025-07-02T09:23	10	159	0.1	159	159	490	0.4	489	491	26.1	53.9
2025-07-02T09:24	10	159	0.1	159	159	491	0.8	489	492	26.3	53.0
2025-07-02T09:25	10	159	0.1	159	160	489	0.3	489	490	26.2	53.2
2025-07-02T09:26	10	160	0.1	159	160	491	0.6	490	492	26.1	53.5
2025-07-02T09:27	10	160	0.1	160	160	492	0.5	491	493	26.0	53.9
2025-07-02T09:28	10	160	0.1	160	160	493	0.4	492	494	26.2	53.6
2025-07-02T09:29	10	160	0.2	160	161	492	0.8	491	494	26.3	53.1
2025-07-02T09:30	10	161	0.1	161	161	491	0.4	490	492	26.3	52.9
2025-07-02T09:31	10	161	0.1	161	161	492	0.2	492	493	26.5	52.5
2025-07-02T09:32	10	161	0.1	161	162	495	0.9	493	496	26.7	53.3
2025-07-02T09:33	10	161	0.1	161	161	497	0.5	496	498	26.8	52.1
2025-07-02T09:34	10	161	0.1	161	162	497	0.5	496	498	27.0	52.4
2025-07-02T09:35	10	161	0.1	161	162	498	0.8	496	499	27.3	52.2
2025-07-02T09:36	10	162	0.1	161	162	496	0.5	495	497	27.2	51.2
2025-07-02T09:37	10	162	0.1	162	162	497	0.6	496	498	27.2	51.2
2025-07-02T09:38	10	162	0.1	162	162	498	0.5	497	499	27.5	51.4
2025-07-02T09:39	10	162	0.1	162	162	498	0.4	497	499	27.5	50.6
2025-07-02T09:40	10	162	0.1	162	162	498	0.3	497	499	27.2	50.0
2025-07-02T09:41	10	162	0.1	162	163	498	0.5	497	499	27.2	50.0
2025-07-02T09:42	10	163	0.1	162	163	498	0.4	496	499	27.5	50.5
2025-07-02T09:43	10	163	0.1	163	164	495	0.4	495	496	27.3	48.8
2025-07-02T09:44	10	163	0.1	163	164	497	0.5	496	498	27.2	49.7
2025-07-02T09:45	10	164	0.1	163	164	497	0.6	497	499	27.1	49.5
2025-07-02T09:46	10	164	0.1	163	164	499	0.5	498	500	27.4	51.0
2025-07-02T09:47	10	164	0.1	164	164	496	0.4	496	498	27.1	48.5
2025-07-02T09:48	10	164	0.1	164	164	498	0.5	497	499	27.2	49.4
2025-07-02T09:49	10	164	0.2	164	165	499	0.9	497	500	27.3	47.4
2025-07-02T09:50	10	165	0.1	165	165	499	0.4	499	500	27.5	47.7
2025-07-02T09:51	10	165	0.2	165	166	500	0.5	499	501	27.5	47.5
2025-07-02T09:52	10	166	0.2	165	166	499	0.3	499	500	27.7	46.9
2025-07-02T09:53	10	166	0.2	166	167	500	0.2	499	500	27.8	46.4
2025-07-02T09:54	10	167	0.3	167	168	501	0.5	500	502	27.7	46.7
2025-07-02T09:55	10	168	0.2	168	168	502	0.4	501	503	27.8	47.0
2025-07-02T09:56	10	169	0.2	168	169	502	0.3	501	502	27.8	46.1
2025-07-02T09:57	10	169	0.2	169	170	502	0.3	502	503	27.7	47.1
2025-07-02T09:58	10	170	0.2	169	170	504	0.6	502	505	28.0	48.1
2025-07-02T09:59	10	170	0.2	170	171	505	0.3	504	506	28.0	47.1
2025-07-02T10:00	10	171	0.2	170	171	506	0.5	505	507	28.3	47.3
2025-07-02T10:01	10	172	0.2	171	172	504	0.5	504	506	28.4	46.3
2025-07-02T10:02	10	172	0.2	172	173	505	0.4	504	505	28.3	47.5
2025-07-02T10:03	10	173	0.1	173	173	504	0.4	503	505	28.1	46.6
2025-07-02T10:04	10	173	0.1	173	173	506	0.3	505	507	27.8	46.9
2025-07-02T10:05	10	173	0.1	173	174	507	0.4	506	508	28.0	45.9
2025-07-02T10:06	10	173	0.1	173	174	506	0.5	505	507	28.1	45.5
2025-07-02T10:07	10	173	0.1	173	173	505	0.4	504	506	27.9	46.1
2025-07-02T10:08	10	173	0.2	173	174	504	0.7	503	506	27.9	44.7
2025-07-02T10:09	10	173	0.2	172	173	504	0.3	504	505	27.9	45.4
2025-07-02T10:10	10	172	0.2	172	173	504	0.9	502	505	27.9	46.4
2025-07-02T10:11	10	172	0.2	172	172	503	0.5	502	504	27.8	46.8
2025-07-02T10:12	10	172	0.1	171	172	504	0.8	503	506	27.8	47.1
2025-07-02T10:13	10	172	0.1	171	172	505	0.6	504	505	28.0	46.2
2025-07-02T10:14	10	172	0.1	171	172	507	0.7	505	508	28.2	46.2
2025-07-02T10:15	10	172	0.1	172	172	509	0.9	507	510	28.6	44.8
2025-07-02T10:16	10	171	0.4	170	172	509	0.4	508	510	28.8	43.9
2025-07-02T10:17	10	167	1.6	165	170	507	1.9	504	510	28.6	45.3
2025-07-02T10:18	10	165	2.4	160	168	506	0.4	505	507	28.5	46.4
2025-07-02T10:19	10	156	2.0	153	160	503	2.8	499	507	28.6	43.5
2025-07-02T10:20	10	168	4.2	159	173	501	0.7	499	502	28.2	44.3
2025-07-02T10:21	10	146	14.7	129	171	502	2.6	496	505	28.3	44.3
2025-07-02T10:22	10	120	4.4	115	129	496	1.2	495	498	28.2	44.3
2025-07-02T10:23	10	129	2.2	123	131	496	0.9	494	497	28.2	44.5
2025-07-02T10:24	10	140	4.1	131	146	496	1.0	495	498	27.9	45.4
2025-07-02T10:25	10	154	3.5	146	161	497	0.5	496	498	27.8	46.6
2025-07-02T10:26	10	166	1.6	161	168	499	0.9	497	501	27.7	47.0
2025-07-02T10:27	10	160	4.6	152	168	502	0.9	501	504	28.1	46.4
2025-07-02T10:28	10	142	5.3	135	152	499	1.1	498	502	28.0	46.9
2025-07-02T10:29	10	161	3.5	152	166	503	1.4	500	506	28.4	45.8
2025-07-02T10:30	10	130	20.6	98	164	499	4.1	493	505	28.3	45.0
2025-07-02T10:31	10	151	26.6	108	185	499	2.3	494	502	27.9	45.6
2025-07-02T10:32	10	167	22.1	120	192	501	4.8	494	508	28.1	45.1
2025-07-02T10:33	10	153	10.4	135	175	501	1.4	499	505	28.4	44.8
2025-07-02T10:34	10	183	4.1	175	187	505	1.9	501	507	28.3	44.9
2025-07-02T10:35	10	175	3.7	168	181	506	0.8	504	507	28.3	44.3
2025-07-02T10:36	10	170	14.9	141	181	506	0.9	505	508	28.3	44.8
2025-07-02T10:37	10	171	12.1	147	180	507	1.1	505	508	28.5	45.8
2025-07-02T10:38	10	180	0.2	179	180	505	0.4	504	506	28.1	45.5
2025-07-02T10:39	10	180	0.4	180	181	508	1.1	507	510	28.1	46.3
2025-07-02T10:40	10	181	0.3	181	182	508	0.6	506	509	27.6	44.8
2025-07-02T10:41	10	182	0.3	182	183	509	1.3	507	511	28.1	44.8
2025-07-02T10:42	10	182	1.7	178	183	510	0.4	509	511	28.1	46.3
2025-07-02T10:43	10	182	2.2	178	185	510	0.8	509	512	28.1	46.3
2025-07-02T10:44	10	165	14.7	143	185	510	1.7	507	512	28.1	46.3
2025-07-02T10:45	10	170	8.2	155	178	510	1.1	509	513	28.1	46.3
2025-07-02T10:46	10	180	1.6	177	183	511	0.7	510	512	28.5	45.6
2025-07-02T10:47	10	179	0.7	178	180	509	1.1	507	511	28.8	44.8
2025-07-02T10:48	10	182	1.9	175	184	511	0.7	509	512	28.9	46.3
2025-07-02T10:49	10	178	5.5	168	184	510	1.6	507	513	28.8	45.6
2025-07-02T10:50	10	171	12.5	132	181	513	1.4	509	515	29.1	45.7
2025-07-02T10:51	10	161	18.0	130	184	510	2.2	507	513	29.0	45.3
2025-07-02T10:52	10	173	8.6	162	187	512	0.6	511	513	28.9	45.0
2025-07-02T10:53	10	185	2.6	180	188	511	1.1	509	513	28.6	45.6
2025-07-02T10:54	10	184	0.4	183	185	512	1.0	510	513	28.5	46.4
2025-07-02T10:55	10	177	7.0	163	183	514	0.5	513	515	28.9	46.2
2025-07-02T10:56	10	181	0.7	179	182	516	1.4	513	518	29.5	45.8
2025-07-02T10:57	10	181	0.4	179	181	510	1.6	509	514	29.2	45.1
2025-07-02T10:58	10	174	8.7	155	181	510	1.3	508	512	29.0	45.3
2025-07-02T10:59	10	166	17.4	127	181	512	1.0	509	513	28.9	45.3
2025-07-02T11:00	10	176	1.8	173	178	510	1.6	508	514	29.1	45.5
2025-07-02T11:01	10	178	1.0	176	179	507	1.3	505	510	28.9	45.6
2025-07-02T11:02	10	178	0.3	178	179	509	1.9	507	513	28.7	46.0
2025-07-02T11:03	10	178	0.1	177	178	512	1.6	509	515	28.9	45.8
2025-07-02T11:04	10	178	0.1	178	179	508	0.7	507	510	28.6	45.8
2025-07-02T11:05	10	178	0.2	178	179	510	1.5	507	513	28.8	45.5
2025-07-02T11:06	10	178	0.1	178	178	512	1.2	509	514	29.0	45.4
2025-07-02T11:07	10	178	0.1	178	179	513	1.5	510	515	28.9	45.4
2025-07-02T11:08	10	178	0.2	178	179	511	1.2	509	513	29.0	45.0
2025-07-02T11:09	10	179	0.2	178	179	510	0.6	509	511	28.8	45.3
2025-07-02T11:10	10	179	0.2	179	179	514	2.0	511	517	29.2	44.8
2025-07-02T11:11	10	180	0.4	179	181	515	1.4	513	518	29.6	43.7
2025-07-02T11:12	10	181	0.6	180	183	515	0.9	513	516	29.9	43.0
2025-07-02T11:13	10	184	0.8	183	185	516	1.6	513	518	29.4	43.8
2025-07-02T11:14	10	165	20.7	126	184	513	1.0	511	515	29.3	44.1
2025-07-02T11:15	10	167	18.8	127	183	511	1.9	508	514	29.5	43.7
2025-07-02T11:16	10	178	7.0	164	186	515	1.3	513	517	29.2	44.4
2025-07-02T11:17	10	177	7.5	165	189	517	1.1	515	519	29.5	44.2
2025-07-02T11:18	10	186	5.1	175	190	516	1.9	513	519	29.4	43.7
2025-07-02T11:19	10	182	11.6	154	191	514	1.5	511	517	29.1	44.3
2025-07-02T11:20	10	151	9.2	139	166	511	1.5	509	514	29.0	44.7
2025-07-02T11:21	10	175	11.7	157	189	512	1.0	510	515	29.2	44.2
2025-07-02T11:22	10	153	13.1	138	187	512	1.9	510	515	29.2	44.7
2025-07-02T11:23	10	149	23.9	119	183	510	2.5	505	513	29.1	44.0
2025-07-02T11:24	10	130	8.9	117	148	506	1.7	502	508	29.0	44.6
2025-07-02T11:25	10	141	10.9	124	154	502	1.5	500	505	28.9	44.6
2025-07-02T11:26	10	136	19.9	105	159	503	2.2	500	506	29.1	45.1
2025-07-02T11:27	10	130	19.7	103	159	504	1.7	502	507	29.3	44.7
2025-07-02T11:28	10	131	21.3	107	173	504	1.5	502	508	29.8	44.4
2025-07-02T11:29	10	122	23.2	90	154	501	3.2	497	508	29.4	43.8
2025-07-02T11:30	10	158	18.6	133	182	507	2.2	502	510	29.3	44.5
2025-07-02T11:31	10	120	25.7	88	167	504	1.9	501	507	29.4	44.1
2025-07-02T11:32	10	100	11.9	80	123	500	1.5	497	501	29.4	43.6
2025-07-02T11:33	10	134	10.3	124	157	501	1.4	499	504	29.4	44.1
2025-07-02T11:34	10	135	12.7	120	160	503	1.1	501	504	29.4	44.0
2025-07-02T11:35	10	149	21.4	117	185	506	3.1	502	510	29.4	44.0
2025-07-02T11:36	10	188	4.7	172	192	511	1.6	508	514	29.4	43.7
2025-07-02T11:37	10	168	4.0	162	175	513	0.8	512	515	29.5	44.2
2025-07-02T11:38	10	179	5.0	169	185	513	0.9	512	515	29.5	43.5
2025-07-02T11:39	10	179	3.9	175	185	515	0.4	514	516	29.6	43.7
2025-07-02T11:40	10	182	4.5	173	186	517	1.7	514	519	29.6	43.7
2025-07-02T11:41	10	186	0.8	182	186	519	0.9	517	520	29.7	43.4
2025-07-02T11:42	10	183	4.3	176	188	518	0.7	516	519	29.8	43.1
2025-07-02T11:43	10	187	1.7	184	189	519	1.3	517	521	29.7	43.2
2025-07-02T11:44	10	190	0.7	188	191	521	1.2	518	523	30.1	43.2
2025-07-02T11:45	10	183	5.9	174	193	516	0.9	515	518	29.7	43.0
2025-07-02T11:46	10	192	2.0	189	194	514	1.2	513	517	29.7	43.2
2025-07-02T11:47	10	196	0.7	194	197	517	0.6	516	518	29.5	43.2
2025-07-02T11:48	10	196	0.8	195	197	517	0.6	517	519	29.5	43.3
2025-07-02T11:49	10	196	2.7	191	200	518	0.7	517	519	29.4	43.1
2025-07-02T11:50	10	182	8.7	174	199	519	1.3	517	522	29.6	43.3
2025-07-02T11:51	10	177	7.6	164	193	518	1.4	516	522	29.7	42.4
2025-07-02T11:52	10	193	12.5	169	207	518	1.9	516	522	29.6	42.3
2025-07-02T11:53	10	195	7.1	180	207	521	0.5	520	522	29.6	42.0
2025-07-02T11:54	10	178	13.5	167	208	521	1.3	518	522	29.8	42.5
2025-07-02T11:55	10	190	14.1	167	211	522	1.4	520	525	29.9	42.1
2025-07-02T11:56	10	177	14.7	153	196	522	1.7	518	524	30.1	41.3
2025-07-02T11:57	10	179	22.2	151	221	517	2.6	515	524	30.1	41.8
2025-07-02T11:58	10	213	5.0	203	221	526	1.5	523	528	29.9	41.3
2025-07-02T11:59	10	155	23.8	118	201	522	4.5	514	529	30.1	41.5
2025-07-02T12:00	10	181	30.6	140	223	521	3.2	515	526	30.3	40.7
2025-07-02T12:01	10	134	31.2	99	217	513	3.8	508	520	30.3	40.4
2025-07-02T12:02	10	168	29.5	138	221	517	2.1	514	520	30.4	40.0
2025-07-02T12:03	10	131	21.1	111	175	513	4.4	508	520	30.4	41.2
2025-07-02T12:04	10	151	13.8	135	180	513	1.6	509	515	30.4	41.4
2025-07-02T12:05	10	183	17.3	147	205	516	4.2	509	521	30.4	41.2
2025-07-02T12:06	10	195	12.8	173	211	522	1.3	519	524	30.4	40.9
2025-07-02T12:07	10	199	9.3	173	207	523	2.1	520	527	30.2	41.1
2025-07-02T12:08	10	172	19.3	121	204	521	2.7	517	527	30.4	41.5
2025-07-02T12:09	10	154	38.4	103	197	510	3.3	506	519	30.4	41.4
2025-07-02T12:10	10	194	1.7	191	197	514	1.3	511	517	30.0	41.8
2025-07-02T12:11	10	182	3.9	176	190	516	0.8	515	517	29.9	40.8
2025-07-02T12:12	10	190	1.2	187	191	519	1.3	517	520	29.8	40.7
2025-07-02T12:13	10	177	8.4	162	186	520	0.8	519	522	30.0	40.3
2025-07-02T12:14	10	142	13.3	120	168	516	2.5	513	522	30.1	40.2
2025-07-02T12:15	10	177	13.8	143	186	518	2.6	514	522	30.1	41.6
2025-07-02T12:16	10	182	2.7	175	185	522	0.5	521	523	30.2	41.7
2025-07-02T12:17	10	176	4.9	167	182	519	1.0	518	522	30.5	41.0
2025-07-02T12:18	10	181	0.3	180	181	520	0.5	519	521	30.5	41.1
2025-07-02T12:19	10	179	0.7	178	181	522	1.0	520	525	30.8	40.5
2025-07-02T12:20	10	178	0.6	176	179	522	2.3	518	526	30.9	41.1
2025-07-02T12:21	10	176	0.3	176	177	518	1.4	516	521	30.4	41.3
2025-07-02T12:22	10	176	0.3	175	176	518	1.2	516	520	30.2	41.8
2025-07-02T12:23	10	175	0.1	175	175	518	1.9	516	522	30.2	41.4
2025-07-02T12:24	10	175	0.2	175	175	519	1.1	517	522	30.0	41.8
2025-07-02T12:25	10	175	0.1	174	175	523	1.3	521	525	30.6	41.5
2025-07-02T12:26	10	175	0.2	175	175	522	2.3	519	525	30.8	40.9
2025-07-02T12:27	10	175	0.1	175	175	517	2.0	515	521	30.3	41.9
2025-07-02T12:28	10	175	0.3	174	175	514	1.3	513	517	30.0	42.6
2025-07-02T12:29	10	174	0.2	174	175	514	1.2	512	516	29.9	43.0
2025-07-02T12:30	10	174	0.2	174	175	518	1.3	515	520	30.0	42.6
2025-07-02T12:31	10	174	0.2	174	175	517	0.6	516	518	30.0	42.6
2025-07-02T12:32	10	174	0.2	173	174	519	0.6	517	520	30.4	42.4
2025-07-02T12:33	10	173	0.1	173	174	517	1.6	514	519	30.5	41.8
2025-07-02T12:34	10	174	0.1	173	174	515	1.2	513	518	30.3	41.8
2025-07-02T12:35	10	174	0.1	173	174	519	1.2	516	521	30.4	41.5
2025-07-02T12:36	10	174	1.5	173	185	521	0.9	520	523	30.8	40.9
2025-07-02T12:37	10	173	0.6	173	177	518	1.6	516	521	31.2	40.0
2025-07-02T12:38	10	174	1.4	173	183	516	0.8	515	518	30.6	40.8
2025-07-02T12:39	10	173	0.1	173	173	520	0.9	518	521	30.7	41.3
2025-07-02T12:40	10	173	0.2	173	173	515	1.3	513	518	30.4	41.4
2025-07-02T12:41	10	173	0.1	173	173	518	0.6	516	519	30.3	41.8
2025-07-02T12:42	10	173	0.1	173	173	520	1.3	518	522	30.6	41.6
2025-07-02T12:43	10	173	0.1	173	173	522	0.9	520	524	30.8	41.1
2025-07-02T12:44	10	173	0.1	173	173	523	0.4	522	524	31.0	40.8
2025-07-02T12:45	10	172	0.2	172	173	522	1.7	520	525	31.0	40.8
2025-07-02T12:46	10	172	0.1	172	172	517	1.4	515	520	30.8	41.5
2025-07-02T12:47	10	172	0.2	171	172	516	1.2	514	518	30.4	42.0
2025-07-02T12:48	10	171	0.1	171	171	521	1.0	518	523	30.8	41.9
2025-07-02T12:49	10	171	0.1	171	171	522	0.9	520	523	30.8	41.6
2025-07-02T12:50	10	171	0.2	171	172	520	1.6	517	522	31.0	40.7
2025-07-02T12:51	10	172	0.1	171	172	518	1.5	517	522	31.0	40.8
2025-07-02T12:52	10	172	0.1	171	172	521	1.1	518	523	30.8	41.5
2025-07-02T12:53	10	171	0.1	171	171	520	1.0	518	522	31.2	40.5
2025-07-02T12:54	10	171	0.1	171	172	521	1.4	519	523	30.9	41.1
2025-07-02T12:55	10	171	0.1	171	172	523	0.7	522	524	31.3	40.7
2025-07-02T12:56	10	171	0.1	171	172	523	0.8	521	524	31.3	40.4
2025-07-02T12:57	10	171	0.3	170	172	523	0.5	522	524	31.5	40.5
2025-07-02T12:58	10	170	0.2	170	171	523	0.6	522	524	31.3	41.0
2025-07-02T12:59	10	171	0.2	170	171	523	1.0	521	524	31.0	41.4
2025-07-02T13:00	10	171	0.1	170	171	522	0.7	520	523	31.1	41.1
2025-07-02T13:01	10	171	0.1	171	171	524	0.8	522	525	31.2	41.0
2025-07-02T13:02	10	170	0.2	170	171	524	0.7	522	525	31.3	41.5
2025-07-02T13:03	10	170	0.2	170	171	524	0.8	523	526	31.4	40.7
2025-07-02T13:04	10	171	0.3	170	171	524	0.6	523	525	31.2	40.5
2025-07-02T13:05	10	170	0.2	170	171	524	0.8	523	526	31.3	40.2
2025-07-02T13:06	10	170	0.2	170	170	524	0.7	523	525	31.7	40.5
2025-07-02T13:07	10	170	0.2	170	171	527	0.9	525	528	32.1	39.6
2025-07-02T13:08	10	170	0.2	170	171	526	0.7	525	528	32.0	39.5
2025-07-02T13:09	10	170	0.1	170	170	524	1.2	523	527	31.9	39.2
2025-07-02T13:10	10	170	0.2	169	170	524	0.5	522	525	31.6	39.0
2025-07-02T13:11	10	170	0.2	169	170	522	0.6	521	523	31.4	39.2
2025-07-02T13:12	10	170	0.2	169	171	521	0.5	520	522	31.3	39.3
2025-07-02T13:13	10	169	0.1	169	170	521	1.3	519	523	31.3	39.0
2025-07-02T13:14	10	169	0.2	169	169	520	0.9	519	522	31.3	39.1
2025-07-02T13:15	10	169	0.1	169	169	521	1.7	519	525	31.6	38.5
2025-07-02T13:16	10	169	0.2	168	169	519	1.5	517	522	31.2	38.9
2025-07-02T13:17	10	169	0.1	168	169	520	1.6	518	523	31.5	38.8
2025-07-02T13:18	10	169	0.1	168	169	521	0.7	520	522	31.1	39.1
2025-07-02T13:19	10	168	0.2	168	169	523	0.9	521	525	31.5	39.5
2025-07-02T13:20	10	168	0.2	168	168	523	0.8	522	525	31.3	38.5
2025-07-02T13:21	10	168	0.1	168	168	523	0.5	522	524	31.4	39.1
2025-07-02T13:22	10	168	0.1	167	168	523	1.3	520	525	31.7	38.8
2025-07-02T13:23	10	168	0.1	167	168	520	0.6	518	521	31.6	38.7
2025-07-02T13:24	10	167	0.2	167	168	518	0.5	517	519	31.4	39.1
2025-07-02T13:25	10	167	0.1	167	167	521	1.0	519	523	31.3	39.1
2025-07-02T13:26	10	167	0.1	167	167	522	0.7	521	524	31.3	39.3
2025-07-02T13:27	10	167	0.1	167	167	524	0.4	523	525	31.4	39.9
2025-07-02T13:28	10	167	0.1	167	168	524	0.6	523	525	31.8	39.1
2025-07-02T13:29	10	167	0.2	167	168	521	1.7	518	523	31.8	38.0
2025-07-02T13:30	10	166	0.3	166	167	521	1.1	519	523	31.7	38.2
2025-07-02T13:31	10	166	0.1	166	166	520	0.9	519	522	31.7	38.1
2025-07-02T13:32	10	166	0.2	165	166	519	1.2	517	522	31.9	38.1
2025-07-02T13:33	10	165	0.3	164	165	514	1.2	512	517	31.4	37.5
2025-07-02T13:34	10	164	0.2	164	165	516	1.2	513	517	31.1	37.4
2025-07-02T13:35	10	164	0.1	164	164	516	0.9	515	518	31.1	37.8
2025-07-02T13:36	10	164	0.2	163	164	520	0.8	518	521	31.1	37.8
2025-07-02T13:37	10	164	0.1	164	164	522	0.6	520	523	31.6	37.9
2025-07-02T13:38	10	164	0.1	164	164	522	0.6	521	523	31.7	37.3
2025-07-02T13:39	10	164	0.2	164	164	523	0.9	521	524	31.8	37.3
2025-07-02T13:40	10	164	0.1	164	164	519	1.5	517	522	31.8	37.0
2025-07-02T13:41	10	164	0.1	163	164	521	1.0	518	522	31.7	37.6
2025-07-02T13:42	10	163	0.2	163	164	521	0.5	520	522	31.6	37.0
2025-07-02T13:43	10	163	0.2	162	163	523	0.7	522	524	31.5	38.0
2025-07-02T13:44	10	163	0.3	162	163	523	0.7	522	524	31.9	38.2
2025-07-02T13:45	10	162	0.1	162	162	524	0.9	522	525	32.1	37.1
2025-07-02T13:46	10	162	0.3	161	162	522	0.5	521	523	32.1	34.4
2025-07-02T13:47	10	162	0.1	161	162	521	3.2	515	525	32.2	34.9
2025-07-02T13:48	10	162	0.2	161	162	516	1.3	514	519	32.0	35.4
2025-07-02T13:49	10	161	0.1	161	161	518	1.4	516	520	31.8	35.6
2025-07-02T13:50	10	160	0.2	160	161	520	1.1	518	522	31.8	35.6
2025-07-02T13:51	10	160	0.1	160	160	523	1.0	521	525	32.1	36.8
2025-07-02T13:52	10	160	0.2	160	161	520	3.6	515	525	32.3	34.9
2025-07-02T13:53	10	160	0.3	160	161	518	1.0	517	520	31.9	34.8
2025-07-02T13:54	10	159	0.3	159	160	521	0.5	519	522	32.0	34.5
2025-07-02T13:55	10	159	0.2	159	160	521	0.6	520	522	32.0	33.7
2025-07-02T13:56	10	159	0.2	159	160	522	0.5	521	523	32.2	34.0
2025-07-02T13:57	10	159	0.3	159	160	521	1.1	518	523	32.3	36.5
2025-07-02T13:58	10	158	0.3	158	159	518	0.4	517	519	31.8	37.2
2025-07-02T13:59	10	159	0.5	158	160	520	2.0	517	524	32.4	37.0
2025-07-02T14:00	10	159	0.3	159	161	520	2.2	517	522	32.2	36.7
2025-07-02T14:01	10	159	0.2	159	160	520	1.3	518	523	32.5	36.4
2025-07-02T14:02	10	159	0.2	159	160	520	3.3	515	525	33.0	34.9
2025-07-02T14:03	10	159	0.3	159	160	513	1.6	511	517	31.7	36.7
2025-07-02T14:04	10	159	0.2	159	159	515	1.8	510	517	32.2	36.8
2025-07-02T14:05	10	159	0.1	159	159	512	0.9	511	514	31.9	36.9
2025-07-02T14:06	10	159	0.2	159	160	512	1.3	510	515	31.8	37.0
2025-07-02T14:07	10	159	0.1	159	159	513	1.1	511	516	31.8	37.1
2025-07-02T14:08	10	159	0.1	159	159	513	0.7	512	514	31.5	37.5
2025-07-02T14:09	10	160	0.3	159	160	513	1.7	510	516	31.5	37.7
2025-07-02T14:10	10	159	0.2	159	160	515	1.5	513	518	31.8	37.3
2025-07-02T14:11	10	158	0.5	157	159	517	1.1	515	519	32.4	36.3
2025-07-02T14:12	10	158	0.2	157	158	515	1.3	513	518	31.7	37.0
2025-07-02T14:13	10	158	0.2	158	159	515	0.5	513	515	31.6	37.2
2025-07-02T14:14	10	158	0.3	157	158	514	0.9	512	515	31.6	37.2
2025-07-02T14:15	10	158	0.1	158	159	511	0.6	511	513	31.4	36.9
2025-07-02T14:16	10	158	0.1	158	159	513	1.5	511	516	31.2	37.8
2025-07-02T14:17	10	158	0.2	157	158	516	1.4	515	519	31.7	37.3
2025-07-02T14:18	10	157	0.1	157	158	517	0.9	515	519	32.2	36.7
2025-07-02T14:19	10	158	0.1	157	158	517	0.5	516	518	32.3	36.3
2025-07-02T14:20	10	157	0.2	157	158	514	2.2	510	517	32.2	36.4
2025-07-02T14:21	10	157	0.1	157	157	511	0.4	509	511	31.5	37.2
2025-07-02T14:22	10	157	0.1	157	157	511	0.4	510	512	31.4	37.4
2025-07-02T14:23	10	157	0.1	156	157	513	0.8	511	514	31.6	37.2
2025-07-02T14:24	10	157	0.2	157	157	512	0.5	511	513	31.8	37.3
2025-07-02T14:25	10	157	0.4	156	157	511	0.8	509	512	31.7	36.7
2025-07-02T14:26	10	156	0.1	156	156	511	0.7	509	512	31.7	36.5
2025-07-02T14:27	10	155	0.3	155	156	509	1.1	507	511	31.4	36.8
2025-07-02T14:28	10	155	0.3	154	155	510	0.7	509	511	31.7	36.4
2025-07-02T14:29	10	154	0.1	154	155	510	1.7	508	514	31.6	36.4
2025-07-02T14:30	10	155	0.2	155	155	511	0.7	510	513	31.8	36.2
2025-07-02T14:31	10	156	0.2	155	156	513	1.2	510	514	31.9	35.6
2025-07-02T14:32	10	155	0.3	155	156	512	0.5	512	513	31.6	35.8
2025-07-02T14:33	10	155	0.1	154	155	514	1.0	513	516	31.4	36.3
2025-07-02T14:34	10	155	0.1	155	155	515	0.7	514	516	31.4	36.0
2025-07-02T14:35	10	155	0.1	154	155	518	1.7	514	520	31.7	35.7
2025-07-02T14:36	10	155	0.3	154	155	517	1.1	515	519	32.3	34.0
2025-07-02T14:37	10	155	0.1	155	155	512	1.4	511	516	32.1	32.9
2025-07-02T14:38	10	155	0.1	155	155	513	1.1	512	516	32.1	31.5
2025-07-02T14:39	10	155	0.2	154	155	516	0.6	515	518	32.2	31.9
2025-07-02T14:40	10	155	0.2	154	155	513	1.5	510	517	32.2	33.8
2025-07-02T14:41	10	155	0.1	155	156	512	1.5	511	516	32.2	34.3
2025-07-02T14:42	10	156	0.1	155	156	509	0.8	508	511	32.1	34.3
2025-07-02T14:43	10	156	0.4	156	157	511	1.0	509	513	32.0	34.2
2025-07-02T14:44	10	157	0.4	157	158	515	1.2	513	517	31.8	34.6
2025-07-02T14:45	10	158	0.4	157	159	517	1.4	515	520	32.1	34.5
2025-07-02T14:46	10	158	1.1	155	159	520	0.4	519	521	32.4	33.9
2025-07-02T14:47	10	156	1.9	149	158	516	2.6	511	520	32.2	34.7
2025-07-02T14:48	10	139	5.2	130	148	512	0.6	510	513	31.9	35.8
2025-07-02T14:49	10	133	1.6	130	136	510	0.6	508	511	32.1	35.5
2025-07-02T14:50	10	142	3.1	136	145	509	0.5	508	510	32.2	31.4
2025-07-02T14:51	10	146	2.8	142	152	511	1.2	509	512	32.4	31.0
2025-07-02T14:52	10	158	1.4	153	159	510	0.9	509	513	32.3	31.4
2025-07-02T14:53	10	157	0.6	156	158	514	1.7	512	517	32.5	31.3
2025-07-02T14:54	10	159	0.8	157	160	516	0.5	515	517	32.7	30.2
2025-07-02T14:55	10	158	1.3	157	161	513	1.9	511	517	32.9	29.8
2025-07-02T14:56	10	160	0.4	160	161	513	1.1	511	515	33.1	27.5
2025-07-02T14:57	10	160	1.3	159	162	511	1.2	510	513	33.0	23.8
2025-07-02T14:58	10	162	0.9	159	163	513	1.9	510	516	33.0	24.0
2025-07-02T14:59	10	141	8.9	123	159	512	1.4	509	515	33.3	25.9
2025-07-02T15:00	10	121	9.2	109	137	504	2.5	502	511	32.7	27.9
2025-07-02T15:01	10	147	3.1	138	150	505	1.7	502	507	32.4	28.9
2025-07-02T15:02	10	117	15.0	99	149	504	2.3	500	508	32.6	30.1
2025-07-02T15:03	10	91	2.1	89	98	497	3.1	492	502	32.4	31.0
2025-07-02T15:04	10	82	3.3	79	90	493	0.7	492	494	32.1	31.9
2025-07-02T15:05	10	89	6.1	80	100	492	0.3	492	493	32.3	32.3
2025-07-02T15:06	10	113	7.7	100	121	493	1.2	492	495	31.9	32.4
2025-07-02T15:07	10	127	4.9	121	137	496	2.3	493	501	31.9	33.1
2025-07-02T15:08	10	133	4.0	124	137	502	1.2	499	503	32.2	33.6
2025-07-02T15:09	10	123	2.4	120	127	499	0.9	498	501	32.1	33.5
2025-07-02T15:10	10	133	4.4	126	138	501	1.0	499	503	32.1	33.9
2025-07-02T15:11	10	135	1.6	133	138	502	1.2	500	505	32.2	34.1
2025-07-02T15:12	10	137	1.1	135	138	503	1.7	500	506	32.4	34.3
2025-07-02T15:13	10	134	0.9	133	136	499	0.8	497	501	31.7	35.9
2025-07-02T15:14	10	137	3.5	133	142	501	1.6	498	504	32.0	35.8
2025-07-02T15:15	10	137	2.8	132	141	503	0.7	502	505	32.5	35.7
2025-07-02T15:16	10	135	1.7	132	138	500	1.0	498	502	32.0	35.8
2025-07-02T15:17	10	133	0.7	131	134	500	0.5	499	501	32.1	35.7
2025-07-02T15:18	10	133	0.6	132	134	500	1.3	497	501	32.0	36.1
2025-07-02T15:19	10	129	2.5	126	132	498	0.6	496	499	32.0	35.9
2025-07-02T15:20	10	131	3.8	127	140	498	1.1	497	501	31.9	35.9
2025-07-02T15:21	10	140	0.9	139	142	501	0.9	499	502	32.1	34.8
2025-07-02T15:22	10	142	2.1	139	145	498	1.1	496	500	31.8	34.1
2025-07-02T15:23	10	139	2.0	136	142	497	1.1	495	499	31.7	34.4
2025-07-02T15:24	10	136	1.5	132	138	498	1.2	495	500	31.8	34.6
2025-07-02T15:25	10	131	0.6	129	132	499	0.3	498	500	32.1	34.6
2025-07-02T15:26	10	124	3.8	118	129	498	1.9	493	500	32.0	34.5
2025-07-02T15:27	10	118	0.7	117	121	494	1.2	491	496	31.6	34.5
2025-07-02T15:28	10	113	2.1	111	117	489	1.4	487	493	30.8	35.3
2025-07-02T15:29	10	123	3.8	116	129	489	0.6	488	490	30.8	35.6
2025-07-02T15:30	10	127	1.9	125	130	492	0.9	489	493	31.0	35.2
2025-07-02T15:31	10	122	4.1	115	127	490	1.0	488	492	30.9	35.1
2025-07-02T15:32	10	110	2.5	107	115	487	1.2	485	489	30.6	35.1
2025-07-02T15:33	10	103	3.4	97	107	486	0.9	484	487	30.5	35.1
2025-07-02T15:34	10	94	1.1	93	97	483	0.7	482	484	30.3	35.2
2025-07-02T15:35	10	92	1.6	89	94	483	0.6	482	484	30.4	34.7
2025-07-02T15:36	10	90	0.8	89	91	484	0.6	483	485	30.6	34.7
2025-07-02T15:37	10	90	1.0	88	91	482	0.9	481	484	30.3	34.7
2025-07-02T15:38	10	86	0.8	84	88	484	0.3	483	484	30.5	34.6
2025-07-02T15:39	10	82	1.1	80	84	481	1.3	479	484	30.4	33.9
2025-07-02T15:40	10	78	1.0	77	80	479	0.7	478	481	30.3	34.0
2025-07-02T15:41	10	75	1.2	73	77	479	0.4	478	480	30.3	34.5
2025-07-02T15:42	10	71	1.0	70	73	477	0.5	476	478	30.2	34.8
2025-07-02T15:43	10	69	0.4	68	70	476	0.4	475	477	30.0	35.3
2025-07-02T15:44	10	68	0.1	68	68	476	0.4	476	477	30.0	35.4
2025-07-02T15:45	10	69	0.2	68	69	475	0.4	475	476	29.8	36.2
2025-07-02T15:46	10	70	0.7	69	71	475	0.3	474	475	29.7	35.5
2025-07-02T15:47	10	71	0.2	71	71	474	0.3	473	475	29.8	35.3
2025-07-02T15:48	10	70	0.2	70	71	474	0.5	473	475	29.8	35.3
2025-07-02T15:49	10	71	0.2	70	71	474	0.3	473	474	29.8	35.3
2025-07-02T15:50	10	70	0.3	70	71	474	0.5	473	475	29.7	35.1
2025-07-02T15:51	10	69	0.5	68	70	475	0.6	474	476	29.9	35.1
2025-07-02T15:52	10	68	0.3	67	68	474	0.4	473	475	29.8	35.1
2025-07-02T15:53	10	67	0.2	67	68	476	0.9	474	477	30.0	35.3
2025-07-02T15:54	10	67	0.5	66	68	476	0.8	474	477	30.0	34.6
2025-07-02T15:55	10	65	0.4	65	66	475	0.5	474	476	29.9	34.6
2025-07-02T15:56	10	65	0.3	65	66	476	0.4	475	477	30.1	34.8
2025-07-02T15:57	10	66	0.4	66	67	474	0.2	474	475	30.1	34.5
2025-07-02T15:58	10	68	0.2	67	68	474	0.3	473	474	29.9	34.1
2025-07-02T15:59	10	68	0.2	68	69	473	0.3	473	474	29.7	34.4
2025-07-02T16:00	10	69	0.3	69	70	473	0.3	473	474	29.6	34.7
2025-07-02T16:01	10	71	0.7	70	72	473	0.7	473	475	29.6	34.6
2025-07-02T16:02	10	73	0.7	72	74	475	0.5	474	477	29.7	34.3
2025-07-02T16:03	10	75	0.2	74	75	477	0.4	476	477	29.9	34.1
2025-07-02T16:04	10	76	1.2	74	78	476	0.6	475	477	29.9	33.6
2025-07-02T16:05	10	80	0.5	78	80	478	0.5	477	479	29.9	33.8
2025-07-02T16:06	10	79	0.1	79	80	477	0.4	476	478	29.8	33.5
2025-07-02T16:07	10	78	1.0	76	79	478	0.5	477	479	29.8	33.8
2025-07-02T16:08	10	75	0.3	74	76	477	0.6	476	478	29.9	33.3
2025-07-02T16:09	10	76	0.5	75	77	477	0.5	476	478	30.0	33.5
2025-07-02T16:10	10	79	0.5	77	79	477	0.3	477	478	29.9	33.6
2025-07-02T16:11	10	78	0.6	77	79	478	0.4	478	479	29.9	34.0
2025-07-02T16:12	10	75	1.1	73	77	477	0.6	476	478	30.0	33.9
2025-07-02T16:13	10	72	0.3	72	73	478	0.6	477	479	30.1	33.3
2025-07-02T16:14	10	72	0.2	71	73	477	0.4	477	478	30.0	33.6
2025-07-02T16:15	10	71	0.7	70	72	478	0.3	477	478	30.2	32.5
2025-07-02T16:16	10	68	0.6	68	70	477	0.5	476	478	30.1	32.2
2025-07-02T16:17	10	68	0.5	67	69	476	0.4	476	477	30.2	33.0
2025-07-02T16:18	10	70	0.6	69	71	477	0.4	476	478	30.3	32.3
2025-07-02T16:19	10	71	0.2	71	72	476	0.4	476	477	30.3	32.3
2025-07-02T16:20	10	71	0.2	70	71	475	0.3	475	476	30.2	31.8
2025-07-02T16:21	10	71	0.2	70	71	475	0.7	474	476	30.3	31.7
2025-07-02T16:22	10	70	0.8	68	71	474	0.5	473	475	30.1	31.5
2025-07-02T16:23	10	66	0.9	65	68	473	0.4	472	474	30.0	31.9
2025-07-02T16:24	10	66	0.2	65	66	473	0.3	472	473	30.0	31.6
2025-07-02T16:25	10	65	0.8	63	66	473	0.3	472	473	30.1	32.3
2025-07-02T16:26	10	64	0.3	63	64	472	0.5	471	473	30.1	32.3
2025-07-02T16:27	10	65	0.2	64	65	472	0.3	471	472	30.0	32.1
2025-07-02T16:28	10	63	1.2	61	65	473	0.4	472	474	30.1	32.5
2025-07-02T16:29	10	59	0.8	58	61	473	0.3	472	474	30.2	31.9
2025-07-02T16:30	10	57	0.6	56	58	473	0.5	472	475	30.3	32.1
2025-07-02T16:31	10	56	0.6	55	57	473	0.4	472	474	30.5	32.0
2025-07-02T16:32	10	54	0.4	53	55	472	0.6	471	473	30.4	31.6
2025-07-02T16:33	10	52	1.4	49	55	470	0.9	469	472	30.2	31.6
2025-07-02T16:34	10	48	0.8	46	49	469	0.4	468	470	30.1	31.9
2025-07-02T16:35	10	44	1.1	42	46	468	0.5	467	469	30.1	31.9
2025-07-02T16:36	10	41	1.2	38	42	467	0.7	465	468	30.1	31.9
2025-07-02T16:37	10	36	1.5	34	38	465	0.8	464	466	30.0	31.3
2025-07-02T16:38	10	32	0.5	32	34	463	0.5	463	465	29.9	31.5
2025-07-02T16:39	10	31	0.5	30	32	463	0.4	462	463	29.8	32.1
2025-07-02T16:40	10	30	0.2	29	30	462	0.2	461	462	29.7	31.6
2025-07-02T16:41	10	29	0.3	28	30	461	0.3	460	462	29.6	31.5
2025-07-02T16:42	10	28	0.5	27	29	460	0.3	460	461	29.6	31.9
2025-07-02T16:43	10	26	0.3	26	27	460	0.2	459	460	29.6	31.5
2025-07-02T16:44	10	26	0.3	25	26	460	0.2	459	460	29.6	31.9
2025-07-02T16:45	10	25	0.3	24	25	460	0.3	459	460	29.6	31.3
2025-07-02T16:46	10	24	0.2	23	24	460	0.2	459	460	29.6	31.1
2025-07-02T16:47	10	23	0.1	23	23	460	0.4	459	460	29.6	31.7
2025-07-02T16:48	10	23	0.3	22	23	460	0.2	459	460	29.7	32.4
2025-07-02T16:49	10	22	0.2	21	22	460	0.3	460	461	29.6	32.5
2025-07-02T16:50	10	21	0.2	21	21	460	0.2	460	461	29.6	31.7
2025-07-02T16:51	10	21	0.2	20	21	460	0.3	459	461	29.6	32.0
2025-07-02T16:52	10	20	0.2	20	21	459	0.4	458	460	29.6	31.2
2025-07-02T16:53	10	20	0.1	20	20	458	0.3	457	458	29.6	31.0
2025-07-02T16:54	10	20	0.1	20	20	458	0.2	457	458	29.6	31.0
2025-07-02T16:55	10	20	0.1	19	20	458	0.3	457	459	29.6	31.1
2025-07-02T16:56	10	20	0.1	19	20	458	0.3	457	458	29.6	31.8
2025-07-02T16:57	10	20	0.1	19	20	458	0.3	457	458	29.5	32.1
2025-07-02T16:58	10	20	0.2	20	20	458	0.2	457	458	29.6	31.9
2025-07-02T16:59	10	21	0.2	20	21	457	0.2	457	458	29.6	31.7
2025-07-02T17:00	10	21	0.3	21	22	458	0.2	457	458	29.6	31.5
2025-07-02T17:01	10	23	0.5	22	23	458	0.2	457	458	29.5	31.8
2025-07-02T17:02	10	24	0.5	23	25	458	0.2	457	458	29.5	32.3
2025-07-02T17:03	10	26	0.5	25	27	458	0.2	458	459	29.4	32.8
2025-07-02T17:04	10	28	0.5	27	29	458	0.2	458	459	29.4	32.0
2025-07-02T17:05	10	30	0.8	29	31	458	0.4	457	458	29.4	33.7
2025-07-02T17:06	10	33	0.9	31	35	458	0.4	458	459	29.4	32.8
2025-07-02T17:07	10	36	1.0	35	38	459	0.4	458	460	29.5	31.7
2025-07-02T17:08	10	40	0.9	38	41	460	0.3	459	460	29.5	31.6
2025-07-02T17:09	10	42	0.6	41	43	460	0.3	459	461	29.5	32.7
2025-07-02T17:10	10	44	0.3	43	44	460	0.2	460	461	29.4	33.6
2025-07-02T17:11	10	44	0.2	44	45	461	0.2	460	461	29.4	34.7
2025-07-02T17:12	10	44	0.1	44	45	461	0.3	460	461	29.3	35.8
2025-07-02T17:13	10	44	0.2	44	45	462	0.4	461	462	29.3	36.0
2025-07-02T17:14	10	45	0.4	44	45	462	0.2	462	463	29.4	35.5
2025-07-02T17:15	10	46	0.3	45	47	463	0.3	462	463	29.4	36.1
2025-07-02T17:16	10	44	1.0	43	46	463	0.4	462	463	29.3	37.3
2025-07-02T17:17	10	43	0.4	43	44	461	0.4	461	462	29.3	38.4
2025-07-02T17:18	10	45	0.3	44	45	461	0.2	461	462	29.3	37.6
2025-07-02T17:19	10	44	0.4	43	45	461	0.2	461	461	29.4	36.9
2025-07-02T17:20	10	42	1.0	40	43	461	0.3	460	461	29.5	36.9
2025-07-02T17:21	10	39	0.7	38	40	460	0.3	459	461	29.6	37.0
2025-07-02T17:22	10	38	0.1	37	38	460	0.3	459	461	29.5	37.4
2025-07-02T17:23	10	39	0.6	38	40	460	0.2	460	461	29.5	37.7
2025-07-02T17:24	10	43	2.4	40	48	461	0.4	460	462	29.6	37.6
2025-07-02T17:25	10	57	5.0	49	65	463	1.1	461	465	29.6	37.8
2025-07-02T17:26	10	68	1.2	65	69	466	1.0	464	468	29.7	38.1
2025-07-02T17:27	10	69	0.1	69	69	467	0.3	467	468	29.8	37.9
2025-07-02T17:28	10	69	0.3	68	69	467	0.4	467	468	29.9	37.8
2025-07-02T17:29	10	73	1.9	69	75	468	0.5	466	469	29.9	38.2
2025-07-02T17:30	10	76	0.2	75	76	468	0.3	468	469	29.9	38.5
2025-07-02T17:31	10	75	0.5	74	76	468	0.4	468	469	30.0	38.0
2025-07-02T17:32	10	72	1.4	69	74	468	0.3	468	469	30.1	37.8
2025-07-02T17:33	10	64	2.8	58	69	468	0.6	466	469	30.1	38.2
2025-07-02T17:34	10	41	9.7	26	58	465	1.8	462	468	30.2	37.3
2025-07-02T17:35	10	20	2.0	18	26	461	1.2	459	464	30.3	37.0
2025-07-02T17:36	10	23	2.6	18	27	459	0.4	458	460	30.3	37.5
2025-07-02T17:37	10	30	1.2	27	32	459	0.3	459	460	30.2	38.5
2025-07-02T17:38	10	20	4.6	15	29	458	0.6	457	459	30.0	39.5
2025-07-02T17:39	10	15	0.2	15	15	457	0.5	456	458	30.0	39.2
2025-07-02T17:40	10	15	0.3	14	15	456	0.4	455	457	30.0	39.0
2025-07-02T17:41	10	14	0.1	14	14	455	0.4	454	456	29.9	39.4
2025-07-02T17:42	10	14	0.2	14	14	454	0.4	454	455	29.8	39.7
2025-07-02T17:43	10	13	0.4	13	14	454	0.2	453	454	29.7	39.3
2025-07-02T17:44	10	14	0.8	13	16	453	0.2	453	454	29.7	39.2
2025-07-02T17:45	10	16	1.8	13	19	453	0.2	453	453	29.6	39.4
2025-07-02T17:46	10	12	0.5	11	13	452	0.4	451	453	29.7	38.7
2025-07-02T17:47	10	11	0.1	11	11	451	0.3	451	452	29.6	39.1
2025-07-02T17:48	10	11	0.1	10	11	452	0.2	451	452	29.6	38.3
2025-07-02T17:49	10	10	0.1	10	11	451	0.3	450	451	29.6	38.5
2025-07-02T17:50	10	10	0.1	10	11	450	0.3	449	451	29.5	39.1
2025-07-02T17:51	10	10	0.1	10	10	449	0.2	449	450	29.5	38.7
2025-07-02T17:52	10	10	0.1	10	10	449	0.2	449	450	29.4	38.1
2025-07-02T17:53	10	10	0.1	10	10	449	0.2	448	449	29.3	38.7
2025-07-02T17:54	10	10	0.1	9	10	448	0.3	448	449	29.3	38.2
2025-07-02T17:55	10	9	0.1	9	10	448	0.3	447	448	29.3	38.1
2025-07-02T17:56	10	9	0.1	9	10	447	0.2	447	448	29.2	38.8
2025-07-02T17:57	10	9	0.1	9	9	447	0.3	447	448	29.2	38.9
2025-07-02T17:58	10	9	0.1	9	9	447	0.2	446	447	29.2	38.8
2025-07-02T17:59	10	9	0.1	9	9	447	0.2	446	447	29.0	39.8
2025-07-02T18:00	10	9	0.1	8	9	446	0.2	445	447	29.0	40.0
2025-07-02T18:01	10	9	0.1	9	9	446	0.2	446	446	28.9	40.6
2025-07-02T18:02	10	9	0.1	9	9	446	0.2	445	446	28.8	40.1
2025-07-02T18:03	10	10	0.3	9	10	445	0.2	445	446	28.8	40.0
2025-07-02T18:04	10	9	0.1	9	9	445	0.3	444	445	28.8	40.2
2025-07-02T18:05	10	9	0.2	8	9	445	0.2	445	445	28.8	40.1
2025-07-02T18:06	10	8	0.1	8	9	445	0.2	444	445	28.8	40.2
2025-07-02T18:07	10	8	0.1	8	8	444	0.2	444	445	28.7	40.5
2025-07-02T18:08	10	8	0.1	7	8	444	0.2	443	444	28.5	40.6
2025-07-02T18:09	10	8	0.1	8	8	444	0.2	444	445	28.5	40.8
2025-07-02T18:10	10	8	0.1	8	8	443	0.3	443	444	28.5	40.8
2025-07-02T18:11	10	8	0.1	8	8	443	0.3	443	444	28.5	40.6
2025-07-02T18:12	10	8	0.1	8	8	443	0.3	442	444	28.6	40.2
2025-07-02T18:13	10	8	0.2	8	9	444	0.2	443	444	28.6	39.9
2025-07-02T18:14	10	9	0.3	9	10	443	0.3	443	444	28.6	40.0
2025-07-02T18:15	10	11	1.3	10	14	443	0.2	443	444	28.6	40.7
2025-07-02T18:16	10	19	3.2	14	25	444	0.8	443	446	28.6	41.3
2025-07-02T18:17	10	30	2.7	25	34	445	0.5	444	447	28.6	41.4
2025-07-02T18:18	10	36	0.9	34	37	447	0.8	446	448	28.6	41.5
2025-07-02T18:19	10	37	0.1	36	37	448	0.5	447	449	28.6	42.0
2025-07-02T18:20	10	36	0.2	36	37	449	0.2	448	449	28.6	42.0
2025-07-02T18:21	10	36	0.1	36	36	449	0.3	448	449	28.6	42.3
2025-07-02T18:22	10	35	0.1	35	36	449	0.3	449	450	28.6	42.8
2025-07-02T18:23	10	35	0.1	35	35	449	0.2	449	450	28.7	43.1
2025-07-02T18:24	10	35	0.1	34	35	450	0.2	449	450	28.8	43.5
2025-07-02T18:25	10	34	0.1	34	35	450	0.2	449	450	28.8	43.6
2025-07-02T18:26	10	34	0.1	34	34	450	0.2	449	450	28.8	44.0
2025-07-02T18:27	10	34	0.2	33	34	450	0.2	449	450	28.7	44.0
2025-07-02T18:28	10	33	0.2	33	33	450	0.2	449	450	28.6	44.2
2025-07-02T18:29	10	32	0.2	32	33	449	0.3	448	450	28.5	44.7
2025-07-02T18:30	10	32	0.2	32	32	449	0.3	448	449	28.4	45.1
2025-07-02T18:31	10	31	0.3	31	32	448	0.2	448	449	28.2	46.3
2025-07-02T18:32	10	30	0.6	29	31	448	0.2	448	448	28.1	46.7
2025-07-02T18:33	10	30	0.4	29	31	448	0.2	448	449	28.1	46.6
2025-07-02T18:34	10	26	1.9	23	29	447	0.5	446	448	28.1	46.3
2025-07-02T18:35	10	22	0.6	21	23	447	0.3	446	447	28.1	45.9
2025-07-02T18:36	10	22	0.4	21	23	447	0.2	446	447	28.1	45.5
2025-07-02T18:37	10	23	0.1	23	23	446	0.3	445	446	28.0	46.0
2025-07-02T18:38	10	24	0.7	23	26	446	0.2	446	447	28.0	46.1
2025-07-02T18:39	10	26	0.5	25	27	446	0.4	446	447	28.1	46.0
2025-07-02T18:40	10	27	0.4	26	27	447	0.2	446	447	28.1	46.0
2025-07-02T18:41	10	25	0.5	24	26	447	0.2	446	447	28.1	46.2
2025-07-02T18:42	10	25	0.3	24	25	447	0.2	446	447	28.1	46.1
2025-07-02T18:43	10	26	0.2	25	26	447	0.2	446	447	28.1	46.2
2025-07-02T18:44	10	25	0.2	25	26	447	0.2	447	448	28.1	46.3
2025-07-02T18:45	10	25	0.2	25	26	447	0.2	447	448	28.1	46.4
2025-07-02T18:46	10	25	0.2	24	25	447	0.3	447	448	28.2	46.4
2025-07-02T18:47	10	24	0.4	24	25	447	0.2	447	448	28.4	45.9
2025-07-02T18:48	10	23	0.3	23	24	447	0.4	446	447	28.5	45.9
2025-07-02T18:49	10	22	0.4	22	23	446	0.2	446	447	28.4	46.3
2025-07-02T18:50	10	20	0.7	19	22	446	0.2	445	447	28.3	46.9
2025-07-02T18:51	10	18	0.5	17	19	445	0.4	444	446	28.3	47.0
2025-07-02T18:52	10	17	0.2	17	18	445	0.2	445	446	28.3	47.3
2025-07-02T18:53	10	17	0.1	17	17	445	0.3	444	445	28.3	47.2
2025-07-02T18:54	10	17	0.2	16	17	444	0.3	443	444	28.2	47.6
2025-07-02T18:55	10	16	0.2	16	16	444	0.2	443	444	28.3	47.2
2025-07-02T18:56	10	15	0.2	15	16	444	0.2	443	444	28.3	47.0
2025-07-02T18:57	10	15	0.2	14	15	443	0.3	442	444	28.2	47.3
2025-07-02T18:58	10	14	0.3	13	14	442	0.3	442	443	28.1	48.1
2025-07-02T18:59	10	13	0.3	12	14	442	0.3	441	442	27.9	48.9
2025-07-02T19:00	10	12	0.3	11	12	441	0.4	440	442	27.6	50.5
2025-07-02T19:01	10	11	0.3	11	12	440	0.2	440	441	27.6	50.3
2025-07-02T19:02	10	10	0.3	9	11	440	0.2	440	441	27.6	50.2
2025-07-02T19:03	10	9	0.5	8	9	439	0.2	439	440	27.6	50.2
2025-07-02T19:04	10	7	0.5	6	8	439	0.3	439	440	27.5	50.0
2025-07-02T19:05	10	6	0.3	5	6	439	0.2	439	439	27.6	49.4
2025-07-02T19:06	10	5	0.1	5	5	438	0.2	438	439	27.7	49.0
2025-07-02T19:07	10	5	0.1	5	5	438	0.3	438	439	27.7	48.9
2025-07-02T19:08	10	5	0.1	4	5	438	0.2	438	438	27.7	48.9
2025-07-02T19:09	10	4	0.1	4	4	438	0.3	437	438	27.7	48.7
2025-07-02T19:10	10	4	0.1	4	4	437	0.3	437	438	27.7	48.8
2025-07-02T19:11	10	4	0.1	4	4	436	0.3	436	437	27.6	49.9
2025-07-02T19:12	10	3	0.1	3	4	436	0.2	435	436	27.5	50.0
2025-07-02T19:13	10	3	0.1	3	3	436	0.2	435	436	27.5	49.7
2025-07-02T19:14	10	3	0.1	3	3	436	0.3	435	436	27.6	48.9
2025-07-02T19:15	10	3	0.2	2	3	435	0.2	435	436	27.7	48.5
2025-07-02T19:16	10	2	0.2	2	3	435	0.3	434	436	27.7	48.5
2025-07-02T19:17	10	2	0.1	2	3	435	0.3	434	435	27.6	49.0
2025-07-02T19:18	10	2	0.2	2	3	434	0.3	434	435	27.6	48.8
2025-07-02T19:19	10	2	0.2	2	2	434	0.3	434	435	27.6	48.7
2025-07-02T19:20	10	2	0.1	1	2	433	0.3	433	434	27.5	49.4
2025-07-02T19:21	10	2	0.2	1	2	433	0.3	432	434	27.3	50.5
2025-07-02T19:22	10	1	0.2	1	2	432	0.2	431	432	27.2	50.8
2025-07-02T19:23	10	1	0.2	1	2	432	0.4	431	433	27.2	50.6
2025-07-02T19:24	10	1	0.2	1	2	432	0.3	432	433	27.3	49.7
2025-07-02T19:25	10	1	0.3	0	2	432	0.3	431	432	27.2	50.0
2025-07-02T19:26	10	1	0.2	1	2	432	0.2	431	432	27.2	50.0
2025-07-02T19:27	10	1	0.2	0	1	431	0.5	430	432	27.1	51.0
2025-07-02T19:28	10	1	0.2	0	1	430	0.3	430	431	26.8	53.6
2025-07-02T19:29	10	1	0.2	0	1	431	0.4	430	432	26.6	53.4
2025-07-02T19:30	10	1	0.2	0	1	431	0.2	430	431	26.6	53.3
2025-07-02T19:31	10	1	0.1	0	1	430	0.2	430	430	26.6	53.6
2025-07-02T19:32	10	1	0.1	0	1	430	0.3	429	430	26.4	55.1
2025-07-02T19:33	10	0	0.1	0	1	429	0.3	429	430	26.3	55.7
2025-07-02T19:34	10	0	0.1	0	1	429	0.2	429	430	26.3	55.1
2025-07-02T19:35	10	0	0.1	0	1	429	0.2	429	429	26.3	55.2
2025-07-02T19:36	10	0	0.1	0	1	428	0.3	428	429	26.1	56.6
2025-07-02T19:37	10	0	0.1	0	1	429	0.2	428	430	26.0	55.6
2025-07-02T19:38	10	0	0.1	0	1	429	0.4	428	430	26.0	56.9
2025-07-02T19:39	10	0	0.1	0	1	429	0.4	429	430	26.2	53.7
2025-07-02T19:40	10	0	0.1	0	0	428	0.4	427	429	26.1	56.8
2025-07-02T19:41	10	0	0.1	0	1	428	0.3	427	429	25.8	56.8
2025-07-02T19:42	10	0	0.1	0	0	429	0.5	428	430	26.0	54.3
2025-07-02T19:43	10	0	0.1	0	0	429	0.3	428	429	26.3	52.8
2025-07-02T19:44	10	0	0.1	0	0	429	0.6	428	431	26.4	52.0
2025-07-02T19:45	10	0	0.1	0	0	430	0.3	430	431	26.7	50.7
2025-07-02T19:46	10	0	0.1	0	1	429	0.7	428	431	26.8	50.7
2025-07-02T19:47	10	0	0.1	0	1	429	0.2	429	430	26.4	52.3
2025-07-02T19:48	10	0	0.1	0	1	429	0.7	427	430	26.4	52.6
2025-07-02T19:49	10	0	0.1	0	1	428	0.3	427	429	25.8	55.5
2025-07-02T19:50	10	0	0.1	0	1	428	0.4	427	429	25.8	55.0
2025-07-02T19:51	10	0	0.1	0	0	429	0.4	429	430	26.1	52.6
2025-07-02T19:52	10	0	0.1	0	1	430	0.6	429	431	26.4	50.4
2025-07-02T19:53	10	0	0.1	0	1	428	0.3	427	429	26.0	53.4
2025-07-02T19:54	10	0	0.1	0	0	429	0.3	429	430	26.0	51.4
2025-07-02T19:55	10	0	0.1	0	0	429	0.4	428	430	26.1	50.1
2025-07-02T19:56	10	0	0.1	0	1	429	0.7	428	430	25.8	52.8
2025-07-02T19:57	10	0	0.1	0	0	431	0.6	429	432	26.2	46.8
2025-07-02T19:58	10	0	0.1	0	0	430	0.6	429	431	26.6	45.1
2025-07-02T19:59	10	0	0.0	0	0	429	0.5	428	430	26.2	49.6
2025-07-02T20:00	10	0	0.1	0	1	429	0.3	428	430	26.0	50.2
2025-07-02T20:01	10	0	0.1	0	0	429	0.3	428	429	25.9	49.7
2025-07-02T20:02	10	0	0.1	0	0	429	0.3	428	429	25.9	49.0
2025-07-02T20:03	10	0	0.1	0	1	429	0.2	428	429	25.9	49.1
2025-07-02T20:04	10	0	0.1	0	0	429	0.3	428	430	26.0	48.3
2025-07-02T20:05	10	0	0.1	0	0	429	0.2	429	430	26.1	47.8
2025-07-02T20:06	10	0	0.1	0	1	429	0.2	428	429	25.9	49.2
2025-07-02T20:07	10	0	0.1	0	1	429	0.3	428	430	25.8	49.3
2025-07-02T20:08	10	0	0.1	0	0	429	0.2	428	429	25.9	48.6
2025-07-02T20:09	10	0	0.1	0	1	429	0.3	428	430	26.0	47.7
2025-07-02T20:10	10	0	0.2	0	1	429	0.3	429	430	26.2	46.5
2025-07-02T20:11	10	0	0.2	0	1	429	0.3	428	430	26.2	47.1
2025-07-02T20:12	10	0	0.2	0	1	429	0.3	429	430	26.0	48.3
2025-07-02T20:13	10	0	0.2	0	1	429	0.3	428	430	25.9	48.8
2025-07-02T20:14	10	0	0.1	0	1	429	0.3	428	429	25.9	48.8
2025-07-02T20:15	10	0	0.2	0	1	428	0.3	428	429	25.7	50.3
2025-07-02T20:16	10	0	0.1	0	1	428	0.3	427	428	25.5	51.6
2025-07-02T20:17	10	0	0.1	0	0	428	0.3	427	429	25.4	51.8
2025-07-02T20:18	10	0	0.1	0	1	428	0.3	427	428	25.4	51.4
2025-07-02T20:19	10	0	0.1	0	0	427	0.4	427	428	25.1	53.1
2025-07-02T20:20	10	0	0.1	0	0	428	0.3	427	429	25.2	51.4
2025-07-02T20:21	10	0	0.1	0	0	428	0.2	427	428	25.4	50.9
2025-07-02T20:22	10	0	0.1	0	0	428	0.3	427	428	25.3	51.7
2025-07-02T20:23	10	0	0.1	0	0	428	0.2	427	428	25.2	51.9
2025-07-02T20:24	10	0	0.1	0	0	428	0.3	427	428	25.2	52.0
2025-07-02T20:25	10	0	0.1	0	0	428	0.3	427	428	25.3	52.1
2025-07-02T20:26	10	0	0.1	0	0	428	0.3	427	428	25.3	52.7
2025-07-02T20:27	10	0	0.1	0	0	428	0.3	427	428	25.2	52.5
2025-07-02T20:28	10	0	0.1	0	0	428	0.3	427	429	25.3	52.5
2025-07-02T20:29	10	0	0.1	0	0	428	0.2	427	428	25.3	52.9
2025-07-02T20:30	10	0	0.1	0	0	428	0.2	428	429	25.3	53.4
2025-07-02T20:31	10	0	0.1	0	0	428	0.2	427	428	25.4	52.8
2025-07-02T20:32	10	0	0.1	0	0	428	0.3	427	429	25.5	52.1
2025-07-02T20:33	10	0	0.1	0	0	428	0.3	428	429	25.6	51.8
2025-07-02T20:34	10	0	0.1	0	0	429	0.2	428	429	25.6	51.7
2025-07-02T20:35	10	0	1.1	0	8	428	0.3	428	429	25.5	52.2
2025-07-02T20:36	10	0	0.1	0	0	428	0.3	428	429	25.6	51.7
2025-07-02T20:37	10	0	0.1	0	0	428	0.3	428	429	25.6	50.8
2025-07-02T20:38	10	0	0.1	0	0	429	0.2	428	429	25.7	50.3
2025-07-02T20:39	10	0	0.1	0	0	428	0.3	428	429	25.7	50.1
2025-07-02T20:40	10	0	0.1	0	0	428	0.2	428	429	25.6	50.6
2025-07-02T20:41	10	0	0.1	0	0	428	0.2	428	429	25.6	50.2
2025-07-02T20:42	10	0	0.1	0	0	428	0.3	427	428	25.6	50.5
2025-07-02T20:43	10	0	0.0	0	0	427	0.4	426	428	25.6	50.8
2025-07-02T20:44	10	0	0.1	0	0	426	0.4	425	427	25.4	51.8
2025-07-02T20:45	10	0	0.1	0	0	426	0.2	425	426	25.1	54.0
2025-07-02T20:46	10	0	0.1	0	0	426	0.5	424	426	25.0	55.1
2025-07-02T20:47	10	0	0.1	0	0	424	0.4	424	425	24.6	57.8
2025-07-02T20:48	10	0	0.1	0	0	424	0.3	423	424	24.4	58.9
2025-07-02T20:49	10	0	0.1	0	0	423	0.3	422	424	24.3	58.8
2025-07-02T20:50	10	0	0.1	0	0	422	0.2	422	423	24.1	59.5
2025-07-02T20:51	10	0	0.1	0	0	422	0.3	421	422	24.0	60.2
2025-07-02T20:52	10	0	0.1	0	0	422	0.3	421	422	23.9	59.8
2025-07-02T20:53	10	0	0.1	0	0	421	0.3	421	422	23.9	60.0
2025-07-02T20:54	10	0	0.1	0	0	421	0.3	421	422	23.9	59.5
2025-07-02T20:55	10	0	0.1	0	0	421	0.6	420	422	24.0	59.0
2025-07-02T20:56	10	0	0.1	-1	0	421	0.2	421	422	24.2	57.3
2025-07-02T20:57	10	0	0.1	0	0	421	0.3	421	422	24.2	56.5
2025-07-02T20:58	10	0	0.1	0	0	421	0.6	420	422	24.5	54.8
2025-07-02T20:59	10	0	0.1	0	0	420	0.4	420	421	24.6	55.2
2025-07-02T21:00	10	0	0.2	0	1	419	0.3	419	420	24.3	57.2
2025-07-02T21:01	10	0	0.1	0	0	419	0.3	418	419	24.1	58.2
2025-07-02T21:02	10	0	0.1	0	0	418	0.3	418	419	24.0	58.3
2025-07-02T21:03	10	0	0.2	0	1	417	0.3	417	418	24.1	58.0
2025-07-02T21:04	10	0	0.1	0	1	417	0.2	416	417	24.0	59.1
2025-07-02T21:05	10	0	0.2	0	1	416	0.3	416	417	23.9	59.5
2025-07-02T21:06	10	0	0.1	0	0	416	0.3	415	417	23.9	59.0
2025-07-02T21:07	10	0	0.1	0	0	416	0.2	416	416	23.9	58.3
2025-07-02T21:08	10	0	0.1	0	0	416	0.4	415	417	24.0	56.7
2025-07-02T21:09	10	0	0.2	0	0	416	0.3	416	417	24.3	54.9
2025-07-02T21:10	10	0	0.1	0	0	417	0.4	416	417	24.5	53.3
2025-07-02T21:11	10	0	0.1	0	0	416	0.3	416	417	24.8	52.1
2025-07-02T21:12	10	0	0.1	0	0	416	0.2	416	417	25.0	51.0
2025-07-02T21:13	10	0	0.1	0	0	416	0.2	416	417	25.1	51.1
2025-07-02T21:14	10	0	0.1	0	0	416	0.4	415	417	25.1	50.9
2025-07-02T21:15	10	0	0.1	0	0	416	0.6	415	417	24.9	52.8
2025-07-02T21:16	10	0	0.1	0	1	416	0.3	415	417	24.7	52.5
2025-07-02T21:17	10	0	0.0	0	0	415	0.4	414	416	24.6	53.0
2025-07-02T21:18	10	0	0.1	0	0	415	0.4	414	416	24.4	54.7
2025-07-02T21:19	10	0	0.1	0	0	414	0.2	414	415	24.3	55.1
2025-07-02T21:20	10	0	0.1	0	0	414	0.3	414	415	24.3	54.9
2025-07-02T21:21	10	0	0.1	0	0	414	0.3	413	414	24.3	54.4
2025-07-02T21:22	10	0	0.1	0	0	414	0.3	413	414	24.3	53.8
2025-07-02T21:23	10	0	0.1	0	0	413	0.3	412	413	24.3	53.7
2025-07-02T21:24	10	0	0.1	0	0	413	0.3	412	413	24.3	53.3
2025-07-02T21:25	10	0	0.1	0	0	413	0.3	412	413	24.4	52.9
2025-07-02T21:26	10	0	0.1	0	0	413	0.2	413	413	24.5	52.6
2025-07-02T21:27	10	0	0.1	0	0	413	0.3	412	414	24.5	52.5
2025-07-02T21:28	10	0	0.1	0	0	413	0.3	413	414	24.5	52.4
2025-07-02T21:29	10	0	0.1	0	0	414	0.2	413	414	24.5	52.1
2025-07-02T21:30	10	0	0.1	0	0	413	0.3	412	414	24.4	52.2
2025-07-02T21:31	10	0	0.1	0	1	413	0.4	412	414	24.2	53.2
2025-07-02T21:32	10	0	0.1	0	1	412	0.4	412	413	23.9	54.2
2025-07-02T21:33	10	0	0.1	0	0	412	0.3	411	413	24.0	53.1
2025-07-02T21:34	10	0	0.1	0	0	412	0.3	411	413	24.0	52.6
2025-07-02T21:35	10	0	0.1	0	0	412	0.3	412	413	24.0	52.6
2025-07-02T21:36	10	0	0.1	0	0	413	0.5	412	413	24.2	51.8
2025-07-02T21:37	10	0	0.1	0	0	413	0.5	412	414	24.3	51.3
2025-07-02T21:38	10	0	0.1	0	0	414	0.4	413	415	24.4	50.7
2025-07-02T21:39	10	0	0.1	0	0	413	0.3	412	414	24.3	51.4
2025-07-02T21:40	10	0	0.1	0	0	412	0.4	411	413	24.2	51.6
2025-07-02T21:41	10	0	0.1	0	0	412	0.3	412	413	24.1	52.1
2025-07-02T21:42	10	0	0.1	0	0	412	0.2	412	413	24.3	51.4
2025-07-02T21:43	10	0	0.1	0	0	412	0.3	411	413	24.4	51.2
2025-07-02T21:44	10	0	0.1	0	0	412	0.3	412	413	24.4	51.1
2025-07-02T21:45	10	0	0.1	0	0	413	0.3	412	413	24.5	51.1
2025-07-02T21:46	10	0	0.1	0	0	413	0.2	413	414	24.5	51.1
2025-07-02T21:47	10	0	0.1	0	0	413	0.2	413	414	24.4	51.5
2025-07-02T21:48	10	0	0.1	0	0	414	0.4	413	415	23.8	55.9
2025-07-02T21:49	10	0	0.1	0	0	415	0.4	414	415	23.2	59.7
2025-07-02T21:50	10	0	0.1	0	0	415	0.6	413	416	23.4	57.5
2025-07-02T21:51	10	0	0.1	0	0	414	0.5	414	415	23.5	57.6
2025-07-02T21:52	10	0	0.1	0	0	415	0.3	414	415	23.6	56.3
2025-07-02T21:53	10	0	0.1	0	0	415	0.5	414	416	23.8	54.9
2025-07-02T21:54	10	0	0.1	0	0	416	0.3	415	416	23.9	54.7
2025-07-02T21:55	10	0	0.1	0	0	416	0.4	415	416	23.9	55.5
2025-07-02T21:56	10	0	0.1	0	0	415	0.3	415	416	23.8	56.2
2025-07-02T21:57	10	0	0.1	0	0	415	0.3	414	415	23.7	56.7
2025-07-02T21:58	10	0	0.1	0	0	414	0.2	414	415	23.6	56.9
2025-07-02T21:59	10	0	0.1	0	0	414	0.3	413	415	23.6	56.8
2025-07-02T22:00	10	0	0.0	0	0	414	0.3	413	414	23.6	56.9
2025-07-02T22:01	10	0	0.1	0	0	414	0.3	413	415	23.6	56.6
2025-07-02T22:02	10	0	0.1	0	0	415	0.6	414	416	23.8	56.2
2025-07-02T22:03	10	0	0.1	0	0	415	0.7	413	416	23.9	56.2
2025-07-02T22:04	10	0	0.1	0	0	414	0.2	414	415	23.6	56.6
2025-07-02T22:05	10	0	0.1	0	0	415	0.6	414	416	23.6	56.4
2025-07-02T22:06	10	0	0.1	0	0	416	0.3	415	416	23.8	55.2
2025-07-02T22:07	10	0	0.1	0	0	416	0.4	415	417	23.8	55.5
2025-07-02T22:08	10	0	0.1	0	0	416	0.5	415	417	23.8	55.6
2025-07-02T22:09	10	0	0.1	0	0	415	0.2	414	415	23.7	56.1
2025-07-02T22:10	10	0	0.1	0	1	415	0.2	414	415	23.5	56.5
2025-07-02T22:11	10	0	0.1	0	0	414	0.4	413	415	23.5	56.9
2025-07-02T22:12	10	0	0.1	0	1	412	0.6	411	414	23.3	57.6
2025-07-02T22:13	10	0	0.1	0	1	412	0.2	411	412	23.0	58.8
2025-07-02T22:14	10	0	0.1	0	1	412	0.8	411	414	22.9	59.7
2025-07-02T22:15	10	0	0.2	0	1	414	0.7	412	415	23.1	59.4
2025-07-02T22:16	10	0	0.2	0	0	415	0.4	414	416	23.1	59.5
2025-07-02T22:17	10	0	0.2	0	1	413	0.4	412	414	23.0	60.2
2025-07-02T22:18	10	0	0.2	0	1	412	0.3	412	413	22.9	60.4
2025-07-02T22:19	10	0	0.2	0	1	412	0.3	411	413	22.9	59.9
2025-07-02T22:20	10	0	0.2	0	1	412	0.5	411	413	22.9	59.7
2025-07-02T22:21	10	0	0.2	0	1	411	0.4	410	411	22.7	60.9
2025-07-02T22:22	10	0	0.1	0	1	410	0.2	409	411	22.6	61.4
2025-07-02T22:23	10	0	0.1	0	0	409	0.2	409	410	22.6	61.6
2025-07-02T22:24	10	0	0.1	0	0	409	0.3	409	410	22.8	61.2
2025-07-02T22:25	10	0	0.1	0	0	409	0.4	409	410	22.8	61.0
2025-07-02T22:26	10	0	0.1	0	0	409	0.2	409	410	22.7	61.2
2025-07-02T22:27	10	0	0.2	0	1	409	0.3	409	410	22.5	61.9
2025-07-02T22:28	10	0	0.1	0	0	409	0.2	409	410	22.4	62.3
2025-07-02T22:29	10	0	0.1	0	0	409	0.3	408	409	22.4	62.4
2025-07-02T22:30	10	0	0.1	0	1	408	0.4	407	408	22.2	62.8
2025-07-02T22:31	10	0	0.1	0	0	407	0.3	406	407	22.1	63.7
2025-07-02T22:32	10	0	0.1	0	0	407	0.3	406	407	22.1	63.3
2025-07-02T22:33	10	0	0.1	0	0	407	0.3	407	408	22.1	62.9
2025-07-02T22:34	10	0	0.1	0	0	407	0.2	407	408	22.2	62.6
2025-07-02T22:35	10	0	0.1	0	0	407	0.2	406	407	22.3	62.3
2025-07-02T22:36	10	0	0.1	0	0	407	0.2	406	407	22.4	62.0
2025-07-02T22:37	10	0	0.1	0	0	407	0.2	406	407	22.4	61.9
2025-07-02T22:38	10	0	0.0	0	0	406	0.2	406	407	22.4	61.9
2025-07-02T22:39	10	0	0.1	0	0	407	0.2	406	407	22.4	61.9
2025-07-02T22:40	10	0	0.1	0	0	407	0.2	406	407	22.4	61.9
2025-07-02T22:41	10	0	0.1	0	0	407	0.3	407	407	22.0	57.8
2025-07-02T22:42	10	0	0.1	0	0	407	0.2	406	407	22.4	61.9
2025-07-02T22:43	10	0	0.0	0	0	407	0.3	406	407	22.4	61.9
2025-07-02T22:44	10	0	0.1	0	0	406	0.2	406	407	22.4	61.9
2025-07-02T22:45	10	0	0.0	0	0	406	0.3	405	407	22.6	61.5
2025-07-02T22:46	10	0	0.1	0	0	406	0.2	405	406	22.6	61.6
2025-07-02T22:47	10	0	0.0	0	0	406	0.2	406	407	22.5	62.0
2025-07-02T22:48	10	0	0.1	0	0	407	0.3	406	408	22.5	62.2
2025-07-02T22:49	10	0	0.1	0	0	407	0.4	406	408	22.4	62.4
2025-07-02T22:50	10	0	0.1	0	0	407	0.4	407	408	22.5	62.5
2025-07-02T22:51	10	0	0.1	0	0	408	0.3	407	408	22.8	62.0
2025-07-02T22:52	10	0	0.1	0	0	407	0.3	406	407	23.0	61.6
2025-07-02T22:53	10	0	0.0	0	0	408	0.4	407	408	23.1	61.7
2025-07-02T22:54	10	0	0.1	0	0	408	0.3	407	408	23.1	61.7
2025-07-02T22:55	10	0	0.1	0	0	409	0.4	408	409	22.9	62.5
2025-07-02T22:56	10	0	0.1	0	0	409	0.4	408	410	22.9	62.8
2025-07-02T22:57	10	0	0.1	0	0	409	0.2	408	409	22.8	63.2
2025-07-02T22:58	10	0	0.1	0	0	408	0.3	408	409	22.9	62.8
2025-07-02T22:59	10	0	0.1	0	0	408	0.3	408	409	23.0	62.5
2025-07-02T23:00	10	0	0.1	0	0	409	0.4	408	410	23.2	62.2
2025-07-02T23:01	10	0	0.1	0	0	410	0.3	409	411	23.3	61.5
2025-07-02T23:02	10	0	0.1	0	0	410	0.5	409	411	23.4	61.4
2025-07-02T23:03	10	0	0.1	0	0	410	0.4	409	410	23.3	61.8
2025-07-02T23:04	10	0	0.1	0	0	409	0.3	409	410	23.3	62.0
2025-07-02T23:05	10	0	0.1	0	0	409	0.3	409	410	23.4	61.8
2025-07-02T23:06	10	0	0.1	0	0	408	0.7	407	409	23.3	61.8
2025-07-02T23:07	10	0	0.1	0	0	407	0.5	406	408	22.8	63.3
2025-07-02T23:08	10	0	0.1	0	0	407	0.4	406	408	22.4	64.9
2025-07-02T23:09	10	0	0.1	0	0	407	0.5	406	408	22.4	65.3
2025-07-02T23:10	10	0	0.1	0	0	408	0.3	407	409	22.8	64.1
2025-07-02T23:11	10	0	0.1	0	0	408	0.4	407	408	22.6	64.7
2025-07-02T23:12	10	0	0.1	0	0	407	0.3	406	407	22.3	66.0
2025-07-02T23:13	10	0	0.1	0	0	407	0.4	406	408	22.1	67.2
2025-07-02T23:14	10	0	0.1	0	0	408	0.3	407	408	22.4	65.7
2025-07-02T23:15	10	0	0.1	0	0	407	0.8	405	408	22.4	65.5
2025-07-02T23:16	10	0	0.1	0	0	405	0.5	404	406	21.7	69.7
2025-07-02T23:17	10	0	0.1	0	0	406	0.3	406	407	21.5	69.6
2025-07-02T23:18	10	0	0.1	0	0	407	0.4	406	407	21.6	69.1
2025-07-02T23:19	10	0	0.1	0	0	406	0.3	406	407	21.7	68.6
2025-07-02T23:20	10	0	0.1	0	0	405	0.6	404	406	21.8	68.2
2025-07-02T23:21	10	0	0.1	0	0	405	0.3	404	405	21.6	68.2
2025-07-02T23:22	10	0	0.1	0	0	404	0.2	404	405	21.7	67.7
2025-07-02T23:23	10	0	0.1	0	0	406	0.6	404	407	21.8	67.5
2025-07-02T23:24	10	0	0.1	0	0	407	0.2	406	407	22.0	67.5
2025-07-02T23:25	10	0	0.1	0	0	406	0.2	406	407	22.2	66.3
2025-07-02T23:26	10	0	0.1	0	0	406	0.3	405	407	22.0	66.5
2025-07-02T23:27	10	0	0.1	0	0	406	0.3	405	406	21.9	66.8
2025-07-02T23:28	10	0	0.1	0	0	405	0.2	405	406	21.7	67.5
2025-07-02T23:29	10	0	0.1	0	0	405	0.3	404	405	21.5	68.2
2025-07-02T23:30	10	0	0.1	0	0	404	0.2	404	405	21.4	69.2
2025-07-02T23:31	10	0	0.1	0	0	404	0.3	403	405	21.2	70.1
2025-07-02T23:32	10	0	0.1	0	0	404	0.2	404	405	21.1	70.6
2025-07-02T23:33	10	0	0.1	0	0	404	0.2	404	405	21.1	71.2
2025-07-02T23:34	10	0	0.1	0	0	404	0.3	404	405	21.1	70.8
2025-07-02T23:35	10	0	0.1	0	0	405	0.7	404	406	21.3	70.1
2025-07-02T23:36	10	0	0.1	0	0	406	0.5	405	407	21.5	68.7
2025-07-02T23:37	10	0	0.1	0	0	407	0.3	406	407	21.5	68.7
2025-07-02T23:38	10	0	0.1	0	0	407	0.4	406	407	21.4	69.3
2025-07-02T23:39	10	0	0.1	0	0	406	0.2	406	407	21.1	70.8
2025-07-02T23:40	10	0	0.1	0	0	406	0.2	405	406	21.0	71.5
2025-07-02T23:41	10	0	0.1	0	0	406	0.2	405	406	20.9	72.0
2025-07-02T23:42	10	0	0.1	0	0	406	0.4	405	406	20.9	72.1
2025-07-02T23:43	10	0	0.1	0	0	406	0.3	405	407	20.9	72.3
2025-07-02T23:44	10	0	0.1	0	0	406	0.2	405	406	20.9	72.0
2025-07-02T23:45	10	0	0.0	0	0	406	0.3	405	407	21.1	70.8
2025-07-02T23:46	10	0	0.1	0	0	406	0.3	405	406	21.2	70.4
2025-07-02T23:47	10	0	0.0	0	0	405	0.2	405	405	20.9	71.7
2025-07-02T23:48	10	0	0.1	0	0	405	0.3	404	405	20.8	72.4
2025-07-02T23:49	10	0	0.1	0	0	405	0.7	404	406	20.9	71.9
2025-07-02T23:50	10	0	0.1	0	0	406	0.4	405	407	21.2	69.7
2025-07-02T23:51	10	0	0.1	0	0	407	0.5	406	408	21.5	68.5
2025-07-02T23:52	10	0	0.0	0	0	408	0.3	407	409	21.5	68.3
2025-07-02T23:53	10	0	0.1	0	0	408	0.3	408	409	21.6	67.4
2025-07-02T23:54	10	0	0.1	0	0	408	0.3	408	409	21.6	67.2
2025-07-02T23:55	10	0	0.1	0	0	409	0.2	408	409	21.5	67.8
2025-07-02T23:56	10	0	0.1	0	0	409	0.2	408	409	21.6	67.4
2025-07-02T23:57	10	0	0.1	0	0	409	0.3	408	409	21.6	66.6
2025-07-02T23:58	10	0	0.1	0	0	408	0.4	407	409	21.6	66.2
2025-07-02T23:59	10	0	0.1	0	1	408	0.2	407	408	21.5	65.9
2025-07-03T00:00	10	0	0.1	0	0	408	0.3	407	409	21.5	65.1
2025-07-03T00:01	10	0	0.1	0	0	408	0.3	407	408	21.4	65.5
2025-07-03T00:02	10	0	0.2	0	1	408	0.4	407	409	21.3	65.8
2025-07-03T00:03	10	0	0.1	0	1	408	0.2	407	408	21.1	66.8
2025-07-03T00:04	10	0	0.1	0	0	408	0.3	407	408	21.2	65.9
2025-07-03T00:05	10	0	0.2	0	1	408	0.3	407	408	21.3	65.6
2025-07-03T00:06	10	0	0.2	0	1	408	0.3	407	408	21.2	65.4
2025-07-03T00:07	10	0	0.2	0	1	408	0.3	407	408	21.3	65.0
2025-07-03T00:08	10	0	0.2	0	1	408	0.3	407	408	21.3	64.6
2025-07-03T00:09	10	0	0.2	0	1	407	0.2	407	408	21.3	64.5
2025-07-03T00:10	10	0	0.1	0	0	407	0.3	407	408	21.2	64.7
2025-07-03T00:11	10	0	0.1	0	0	408	0.2	407	408	21.3	64.4
2025-07-03T00:12	10	0	0.1	0	0	408	0.3	407	408	21.2	64.3
2025-07-03T00:13	10	0	0.1	0	0	408	0.2	407	408	21.1	64.7
2025-07-03T00:14	10	0	0.1	0	0	408	0.3	407	409	21.2	64.4
2025-07-03T00:15	10	0	0.1	0	0	408	0.3	407	408	21.2	64.4
2025-07-03T00:16	10	0	0.0	0	0	408	0.3	407	409	21.1	64.7
2025-07-03T00:17	10	0	0.0	0	0	408	0.2	408	408	21.2	64.1
2025-07-03T00:18	10	0	0.0	0	0	408	0.3	408	409	21.3	63.8
2025-07-03T00:19	10	0	0.1	0	0	408	0.2	408	409	21.3	63.5
2025-07-03T00:20	10	0	0.0	0	0	408	0.3	408	409	21.2	64.1
2025-07-03T00:21	10	0	0.0	0	0	409	0.3	408	409	21.3	63.7
2025-07-03T00:22	10	0	0.1	0	0	409	0.3	408	410	21.3	63.6
2025-07-03T00:23	10	0	0.0	0	0	409	0.2	409	409	21.2	64.0
2025-07-03T00:24	10	0	0.0	0	0	409	0.2	408	409	21.3	63.5
2025-07-03T00:25	10	0	0.0	0	0	409	0.4	408	410	21.3	63.2
2025-07-03T00:26	10	0	0.1	0	0	409	0.2	409	410	21.4	62.9
2025-07-03T00:27	10	0	0.1	0	0	410	0.3	409	410	21.3	63.3
2025-07-03T00:28	10	0	0.0	0	0	409	0.3	408	410	21.3	63.4
2025-07-03T00:29	10	0	0.1	0	0	410	0.2	409	410	21.3	63.3
2025-07-03T00:30	10	0	0.1	0	0	410	0.4	410	411	21.4	62.8
2025-07-03T00:31	10	0	0.0	0	0	410	0.2	410	411	21.4	63.1
2025-07-03T00:32	10	0	0.1	0	0	410	0.3	410	411	21.3	63.6
2025-07-03T00:33	10	0	0.0	0	0	410	0.5	409	411	21.3	63.5
2025-07-03T00:34	10	0	0.1	0	0	411	0.2	410	411	21.2	63.7
2025-07-03T00:35	10	0	0.0	0	0	410	0.2	409	410	21.2	64.1
2025-07-03T00:36	10	0	0.0	0	0	410	0.2	409	410	21.1	64.4
2025-07-03T00:37	10	0	0.0	0	0	410	0.2	409	410	21.0	64.7
2025-07-03T00:38	10	0	0.0	0	0	410	0.3	409	411	21.0	64.7
2025-07-03T00:39	10	0	0.0	0	0	410	0.3	409	411	21.2	63.5
2025-07-03T00:40	10	0	0.1	0	0	410	0.3	410	411	21.3	63.3
2025-07-03T00:41	10	0	0.0	0	0	410	0.2	409	410	21.1	64.1
2025-07-03T00:42	10	0	0.1	0	0	410	0.3	409	411	21.1	64.1
2025-07-03T00:43	10	0	0.0	0	0	410	0.2	409	410	21.2	64.0
2025-07-03T00:44	10	0	0.1	0	0	410	0.3	409	411	21.2	63.8
2025-07-03T00:45	10	0	0.1	0	0	410	0.3	409	411	21.2	63.6
2025-07-03T00:46	10	0	0.1	0	0	411	0.2	410	411	21.3	63.3
2025-07-03T00:47	10	0	0.1	0	0	410	0.3	409	411	21.3	63.3
2025-07-03T00:48	10	0	0.1	0	0	411	0.2	410	411	21.3	63.4
2025-07-03T00:49	10	0	0.1	0	0	411	0.2	410	412	21.3	63.3
2025-07-03T00:50	10	0	0.1	0	0	411	0.3	410	412	21.4	62.9
2025-07-03T00:51	10	0	0.1	0	0	411	0.3	411	412	21.5	62.3
2025-07-03T00:52	10	0	0.1	0	0	412	0.4	411	413	21.5	61.9
2025-07-03T00:53	10	0	0.1	0	0	412	0.3	411	413	21.6	61.6
2025-07-03T00:54	10	0	0.1	0	0	412	0.6	410	413	21.6	61.4
2025-07-03T00:55	10	0	0.1	0	0	411	0.3	411	412	21.5	62.3
2025-07-03T00:56	10	0	0.1	0	0	411	0.4	411	412	21.4	62.9
2025-07-03T00:57	10	0	0.1	0	0	412	0.3	411	413	21.4	62.4
2025-07-03T00:58	10	0	0.1	0	0	412	0.2	411	412	21.6	61.6
2025-07-03T00:59	10	0	0.1	0	0	412	0.2	411	412	21.6	61.3
2025-07-03T01:00	10	0	0.1	0	0	411	0.2	411	412	21.6	61.4
2025-07-03T01:01	10	0	0.1	0	0	412	0.2	411	412	21.7	61.0
2025-07-03T01:02	10	0	0.1	0	0	411	0.4	410	412	21.7	61.2
2025-07-03T01:03	10	0	0.1	0	0	412	0.2	411	412	21.5	61.8
2025-07-03T01:04	10	0	0.1	0	0	412	0.4	411	412	21.7	60.6
2025-07-03T01:05	10	0	0.1	0	0	412	0.3	411	413	21.9	59.6
2025-07-03T01:06	10	0	0.1	0	0	412	0.3	412	413	22.0	59.4
2025-07-03T01:07	10	0	0.1	0	0	412	0.2	412	413	22.0	59.5
2025-07-03T01:08	10	0	0.1	0	0	413	0.3	412	413	21.9	59.8
2025-07-03T01:09	10	0	0.1	0	0	412	0.5	411	413	21.8	60.6
2025-07-03T01:10	10	0	0.1	0	0	412	0.3	411	413	21.6	61.4
2025-07-03T01:11	10	0	0.1	0	0	412	0.2	411	412	21.5	61.8
2025-07-03T01:12	10	0	0.1	0	0	412	0.2	411	412	21.5	61.9
2025-07-03T01:13	10	0	0.1	0	0	412	0.4	411	413	21.6	61.1
2025-07-03T01:14	10	0	0.1	0	0	411	0.2	411	412	21.5	62.2
2025-07-03T01:15	10	0	0.1	0	0	411	0.2	411	412	21.5	61.8
2025-07-03T01:16	10	0	0.1	0	0	411	0.2	411	412	21.6	61.5
2025-07-03T01:17	10	0	0.1	0	0	412	0.3	411	412	21.5	61.7
2025-07-03T01:18	10	0	0.1	0	0	412	0.2	411	412	21.5	61.8
2025-07-03T01:19	10	0	0.1	0	0	412	0.3	411	412	21.5	62.1
2025-07-03T01:20	10	0	0.1	0	0	411	0.2	411	412	21.4	62.6
2025-07-03T01:21	10	0	0.0	0	0	412	0.2	411	412	21.3	63.1
2025-07-03T01:22	10	0	0.1	0	0	411	0.2	411	412	21.3	62.9
2025-07-03T01:23	10	0	0.1	0	0	412	0.3	411	412	21.3	62.9
2025-07-03T01:24	10	0	0.1	0	0	411	0.3	411	412	21.3	63.0
2025-07-03T01:25	10	0	0.1	0	0	411	0.2	410	412	21.3	63.3
2025-07-03T01:26	10	0	0.1	0	0	411	0.3	410	411	21.2	63.3
2025-07-03T01:27	10	0	0.1	0	0	411	0.5	410	412	21.4	62.2
2025-07-03T01:28	10	0	0.1	0	0	412	0.2	411	412	21.5	61.6
2025-07-03T01:29	10	0	0.1	0	0	412	0.3	411	412	21.5	61.6
2025-07-03T01:30	10	0	0.0	0	0	412	0.4	411	413	21.6	61.0
2025-07-03T01:31	10	0	0.1	0	0	413	0.3	412	413	21.8	60.0
2025-07-03T01:32	10	0	0.1	0	0	413	0.2	412	413	21.9	59.7
2025-07-03T01:33	10	0	0.1	0	0	413	0.2	413	414	22.0	59.2
2025-07-03T01:34	10	0	0.1	0	1	413	0.2	413	414	22.0	59.3
2025-07-03T01:35	10	0	0.1	0	0	413	0.3	412	414	22.0	59.4
2025-07-03T01:36	10	0	0.1	0	0	413	0.5	412	414	22.0	59.2
2025-07-03T01:37	10	0	0.1	0	0	413	0.2	412	413	21.9	60.0
2025-07-03T01:38	10	0	0.1	0	0	413	0.3	412	413	21.9	59.8
2025-07-03T01:39	10	0	0.1	0	0	413	0.2	412	413	21.8	60.4
2025-07-03T01:40	10	0	0.1	0	0	413	0.2	412	413	21.8	60.1
2025-07-03T01:41	10	0	0.1	0	0	413	0.2	412	413	21.9	59.8
2025-07-03T01:42	10	0	0.1	0	1	412	0.2	412	413	21.9	60.0
2025-07-03T01:43	10	0	0.1	0	0	413	0.3	412	413	21.9	59.7
2025-07-03T01:44	10	0	0.1	0	0	413	0.4	412	413	22.0	59.4
2025-07-03T01:45	10	0	0.0	0	0	413	0.3	413	414	22.2	58.0
2025-07-03T01:46	10	0	0.1	0	0	414	0.3	413	415	22.3	57.5
2025-07-03T01:47	10	0	0.1	0	0	415	0.5	413	415	22.5	56.7
2025-07-03T01:48	10	0	0.1	0	0	415	0.3	414	415	22.5	56.8
2025-07-03T01:49	10	0	0.1	0	0	414	0.2	414	415	22.5	56.6
2025-07-03T01:50	10	0	0.1	0	0	414	0.3	414	415	22.5	56.9
2025-07-03T01:51	10	0	0.1	0	0	414	0.3	414	415	22.5	56.8
2025-07-03T01:52	10	0	0.1	0	0	414	0.3	414	415	22.5	56.6
2025-07-03T01:53	10	0	0.1	0	0	415	0.3	414	415	22.6	56.3
2025-07-03T01:54	10	0	0.1	0	0	415	0.2	414	415	22.6	56.2
2025-07-03T01:55	10	0	0.1	0	0	415	0.4	414	416	22.6	56.5
2025-07-03T01:56	10	0	0.1	0	0	415	0.3	414	415	22.5	56.6
2025-07-03T01:57	10	0	0.1	0	0	414	0.3	414	415	22.5	56.6
2025-07-03T01:58	10	0	0.1	0	0	414	0.3	414	415	22.5	56.9
2025-07-03T01:59	10	0	0.1	0	0	414	0.2	414	415	22.6	56.3
2025-07-03T02:00	10	0	0.1	0	0	415	0.3	414	415	22.7	55.9
2025-07-03T02:01	10	0	0.1	0	0	415	0.4	414	415	22.7	55.8
2025-07-03T02:02	10	0	0.1	0	0	415	0.4	414	416	22.6	56.4
2025-07-03T02:03	10	0	0.1	0	0	415	0.3	415	416	22.9	54.9
2025-07-03T02:04	10	0	0.1	0	0	415	0.3	414	415	22.8	55.2
2025-07-03T02:05	10	0	0.1	0	0	415	0.2	414	415	22.9	54.8
2025-07-03T02:06	10	0	0.1	0	0	415	0.2	415	415	23.0	54.7
2025-07-03T02:07	10	0	0.1	0	0	415	0.3	414	416	22.9	54.9
2025-07-03T02:08	10	0	0.1	0	0	416	0.2	415	416	23.1	54.0
2025-07-03T02:09	10	0	0.1	0	0	416	0.3	415	416	23.3	53.4
2025-07-03T02:10	10	0	0.1	0	0	416	0.3	416	417	23.3	53.4
2025-07-03T02:11	10	0	0.1	0	0	416	0.3	416	417	23.4	53.4
2025-07-03T02:12	10	0	0.1	0	0	417	0.3	416	417	23.3	53.4
2025-07-03T02:13	10	0	0.1	0	0	417	0.3	416	417	23.4	53.3
2025-07-03T02:14	10	0	0.1	0	0	417	0.3	416	417	23.3	53.7
2025-07-03T02:15	10	0	0.1	0	0	417	0.3	416	418	23.2	54.3
2025-07-03T02:16	10	0	0.1	0	0	416	0.3	416	417	23.1	54.4
2025-07-03T02:17	10	0	0.1	0	0	416	0.4	415	417	23.1	54.7
2025-07-03T02:18	10	0	0.1	0	0	415	0.3	415	416	23.0	54.9
2025-07-03T02:19	10	0	0.1	0	0	415	0.3	414	416	22.9	55.5
2025-07-03T02:20	10	0	0.1	0	0	414	0.4	414	415	22.9	55.6
2025-07-03T02:21	10	0	0.1	0	0	414	0.4	413	415	22.7	56.3
2025-07-03T02:22	10	0	0.1	0	0	413	0.5	412	414	22.4	58.0
2025-07-03T02:23	10	0	0.1	0	0	412	0.3	412	413	22.0	59.5
2025-07-03T02:24	10	0	0.1	0	0	412	0.3	411	412	21.9	60.3
2025-07-03T02:25	10	0	0.1	0	0	411	0.2	411	412	21.7	61.5
2025-07-03T02:26	10	0	0.1	0	0	411	0.3	411	412	21.5	62.2
2025-07-03T02:27	10	0	0.1	0	0	411	0.2	410	411	21.5	62.1
2025-07-03T02:28	10	0	0.1	0	0	411	0.2	410	411	21.6	61.9
2025-07-03T02:29	10	0	0.1	0	0	411	0.3	410	411	21.5	62.1
2025-07-03T02:30	10	0	0.1	0	0	411	0.3	410	411	21.5	62.4
2025-07-03T02:31	10	0	0.1	0	0	411	0.2	410	411	21.4	62.9
2025-07-03T02:32	10	0	0.1	0	0	411	0.3	410	411	21.4	63.2
2025-07-03T02:33	10	0	0.1	0	0	411	0.2	410	411	21.3	63.9
2025-07-03T02:34	10	0	0.1	0	0	411	0.4	410	412	21.3	64.1
2025-07-03T02:35	10	0	0.1	0	0	411	0.2	410	412	21.2	64.3
2025-07-03T02:36	10	0	0.1	0	0	411	0.2	410	411	21.2	64.2
2025-07-03T02:37	10	0	0.1	0	0	410	0.2	410	411	21.2	64.3
2025-07-03T02:38	10	0	0.1	0	0	410	0.2	409	410	21.2	64.5
2025-07-03T02:39	10	0	0.1	0	0	409	0.2	409	410	21.2	64.4
2025-07-03T02:40	10	0	0.1	0	0	409	0.2	408	409	21.2	64.3
2025-07-03T02:41	10	0	0.1	0	0	409	0.3	408	409	21.3	63.7
2025-07-03T02:42	10	0	0.1	0	0	409	0.3	408	409	21.3	63.8
2025-07-03T02:43	10	0	0.1	0	0	409	0.2	408	409	21.3	63.9
2025-07-03T02:44	10	0	0.1	0	0	408	0.2	408	409	21.2	64.1
2025-07-03T02:45	10	0	0.0	0	0	408	0.2	408	409	21.1	64.4
2025-07-03T02:46	10	0	0.1	0	0	408	0.2	407	408	21.1	64.4
2025-07-03T02:47	10	0	0.1	0	0	407	0.2	407	408	21.2	64.2
2025-07-03T02:48	10	0	0.1	0	0	407	0.2	407	408	21.2	64.2
2025-07-03T02:49	10	0	0.1	0	0	408	0.4	407	408	21.2	64.0
2025-07-03T02:50	10	0	0.1	0	0	408	0.4	407	409	21.3	63.6
2025-07-03T02:51	10	0	0.1	0	0	408	0.2	408	409	21.5	62.3
2025-07-03T02:52	10	0	0.0	0	0	409	0.3	408	410	21.5	62.0
2025-07-03T02:53	10	0	0.1	0	0	409	0.2	408	409	21.6	62.0
2025-07-03T02:54	10	0	0.1	0	0	409	0.3	409	410	21.7	61.4
2025-07-03T02:55	10	0	0.1	0	0	409	0.3	408	410	21.8	61.0
2025-07-03T02:56	10	0	0.1	0	0	409	0.3	409	410	21.8	60.8
2025-07-03T02:57	10	0	0.1	0	0	409	0.3	408	410	21.7	61.3
2025-07-03T02:58	10	0	0.1	0	0	409	0.2	408	409	21.7	61.6
2025-07-03T02:59	10	0	0.1	0	0	409	0.2	408	409	21.7	61.7
2025-07-03T03:00	10	0	0.1	0	0	409	0.3	408	410	21.7	61.4
2025-07-03T03:01	10	0	0.1	0	0	409	0.2	408	409	21.8	61.2
2025-07-03T03:02	10	0	0.1	0	0	409	0.2	408	409	21.8	61.2
2025-07-03T03:03	10	0	0.1	0	0	409	0.3	408	410	21.8	61.1
2025-07-03T03:04	10	0	0.1	0	0	409	0.3	408	410	21.8	61.0
2025-07-03T03:05	10	0	0.1	0	0	409	0.2	408	409	21.8	61.2
2025-07-03T03:06	10	0	0.1	0	0	408	0.3	408	409	21.8	61.4
2025-07-03T03:07	10	0	0.1	0	0	409	0.3	408	409	21.8	61.4
2025-07-03T03:08	10	0	0.1	0	0	409	0.3	409	410	22.0	60.1
2025-07-03T03:09	10	0	0.1	0	0	409	0.3	409	410	22.1	59.7
2025-07-03T03:10	10	0	0.1	0	0	409	0.3	408	410	22.1	59.8
2025-07-03T03:11	10	0	0.1	0	0	409	0.3	409	410	22.0	59.9
2025-07-03T03:12	10	0	0.1	0	0	409	0.2	409	410	22.0	60.3
2025-07-03T03:13	10	0	1.9	0	14	409	0.2	409	410	21.9	60.5
2025-07-03T03:14	10	0	0.1	0	0	409	0.3	408	409	21.9	60.5
2025-07-03T03:15	10	0	0.1	0	0	409	0.2	409	410	21.9	60.6
2025-07-03T03:16	10	0	0.1	0	0	410	0.3	409	410	21.9	60.8
2025-07-03T03:17	10	0	0.1	0	0	410	0.2	409	410	21.9	60.9
2025-07-03T03:18	10	0	0.1	0	0	410	0.4	409	411	21.9	61.0
2025-07-03T03:19	10	0	0.1	0	0	410	0.3	409	410	21.8	61.6
2025-07-03T03:20	10	0	0.1	0	0	410	0.3	409	411	21.7	61.8
2025-07-03T03:21	10	0	0.1	0	0	410	0.2	410	411	21.8	61.6
2025-07-03T03:22	10	0	0.1	0	0	410	0.3	410	411	21.7	61.9
2025-07-03T03:23	10	0	0.1	0	0	410	0.2	410	411	21.6	62.8
2025-07-03T03:24	10	0	0.1	0	0	410	0.3	410	411	21.5	63.5
2025-07-03T03:25	10	0	0.1	0	0	410	0.3	409	410	21.3	64.4
2025-07-03T03:26	10	0	0.1	0	0	410	0.2	409	410	21.1	65.3
2025-07-03T03:27	10	0	0.1	0	0	410	0.2	409	410	21.0	65.8
2025-07-03T03:28	10	0	0.0	0	0	410	0.2	409	410	21.0	66.2
2025-07-03T03:29	10	0	0.1	0	0	410	0.2	409	410	20.9	66.6
2025-07-03T03:30	10	0	0.1	0	0	410	0.2	409	410	20.8	67.3
2025-07-03T03:31	10	0	0.1	0	0	410	0.2	409	410	20.7	67.8
2025-07-03T03:32	10	0	0.1	0	0	409	0.2	409	410	20.7	68.0
2025-07-03T03:33	10	0	0.1	0	0	410	0.2	409	410	20.6	68.1
2025-07-03T03:34	10	0	0.1	0	0	410	0.2	409	410	20.6	68.3
2025-07-03T03:35	10	0	0.1	0	0	410	0.2	409	410	20.7	67.9
2025-07-03T03:36	10	0	0.1	0	0	410	0.3	409	410	20.7	68.1
2025-07-03T03:37	10	0	0.1	0	0	410	0.2	409	410	20.6	68.7
2025-07-03T03:38	10	0	0.1	0	0	410	0.3	409	410	20.5	68.8
2025-07-03T03:39	10	0	0.1	0	0	410	0.3	409	410	20.6	68.2
2025-07-03T03:40	10	0	0.1	0	1	410	0.2	409	410	20.7	67.9
2025-07-03T03:41	10	1	0.1	0	1	409	0.2	409	410	20.6	68.2
2025-07-03T03:42	10	1	0.1	0	1	409	0.2	409	410	20.8	67.2
2025-07-03T03:43	10	1	0.1	1	1	409	0.2	408	409	20.5	69.3
2025-07-03T03:44	10	1	0.1	1	1	409	0.2	409	410	20.5	69.1
2025-07-03T03:45	10	2	0.2	1	2	409	0.3	409	410	20.6	67.8
2025-07-03T03:46	10	2	0.1	2	2	410	0.3	409	410	20.8	67.0
2025-07-03T03:47	10	2	0.2	2	3	410	0.2	409	410	20.9	66.7
2025-07-03T03:48	10	3	0.1	2	3	410	0.3	409	411	21.0	66.7
2025-07-03T03:49	10	3	0.2	3	3	410	0.2	410	411	21.1	66.2
2025-07-03T03:50	10	3	0.1	3	4	411	0.2	410	411	21.3	65.7
2025-07-03T03:51	10	4	0.1	3	4	411	0.3	411	412	21.4	65.3
2025-07-03T03:52	10	4	0.1	3	4	412	0.3	411	413	21.5	64.2
2025-07-03T03:53	10	4	0.1	4	4	413	0.3	412	413	21.8	63.0
2025-07-03T03:54	10	4	0.1	4	4	413	0.3	412	414	21.8	63.2
2025-07-03T03:55	10	4	0.1	4	4	413	0.2	413	414	21.7	63.2
2025-07-03T03:56	10	4	0.1	4	5	413	0.3	413	414	21.8	63.0
2025-07-03T03:57	10	4	0.1	4	5	413	0.2	413	414	21.9	62.6
2025-07-03T03:58	10	5	0.1	5	5	414	0.3	413	414	21.8	62.9
2025-07-03T03:59	10	5	0.1	5	5	413	0.3	413	414	21.7	63.2
2025-07-03T04:00	10	5	0.1	5	5	414	0.3	413	414	21.7	63.2
2025-07-03T04:01	10	5	0.1	5	5	414	0.3	413	414	21.8	62.8
2025-07-03T04:02	10	5	0.1	5	6	414	0.3	413	414	21.7	63.6
2025-07-03T04:03	10	5	0.1	5	6	414	0.3	413	415	21.8	63.1
2025-07-03T04:04	10	6	0.1	5	6	413	0.4	413	414	21.8	63.3
2025-07-03T04:05	10	6	0.1	6	6	414	0.3	413	414	21.7	63.6
2025-07-03T04:06	10	6	0.2	6	7	414	0.2	413	414	21.7	63.6
2025-07-03T04:07	10	7	0.2	6	7	414	0.4	413	414	21.7	63.9
2025-07-03T04:08	10	7	0.2	7	8	414	0.2	413	414	21.7	63.8
2025-07-03T04:09	10	8	0.1	7	8	414	0.2	413	414	21.8	63.4
2025-07-03T04:10	10	8	0.1	8	8	414	0.3	413	414	21.8	63.3
2025-07-03T04:11	10	8	0.1	8	9	414	0.2	413	414	21.8	63.4
2025-07-03T04:12	10	9	0.1	9	9	414	0.2	413	414	21.7	63.7
2025-07-03T04:13	10	9	0.2	9	10	414	0.3	413	414	21.7	63.6
2025-07-03T04:14	10	10	0.2	9	10	413	0.2	413	414	21.6	64.5
2025-07-03T04:15	10	10	0.1	10	10	413	0.3	412	414	21.5	65.0
2025-07-03T04:16	10	10	0.1	10	11	413	0.3	412	414	21.5	65.1
2025-07-03T04:17	10	10	0.1	10	11	413	0.2	413	413	21.4	65.8
2025-07-03T04:18	10	10	0.1	10	11	413	0.3	412	414	21.3	66.4
2025-07-03T04:19	10	11	0.1	10	11	413	0.3	413	414	21.4	66.1
2025-07-03T04:20	10	11	0.2	11	11	413	0.2	413	414	21.4	66.6
2025-07-03T04:21	10	11	0.2	11	12	413	0.3	412	414	21.2	67.8
2025-07-03T04:22	10	12	0.2	12	13	412	0.3	412	413	21.0	68.7
2025-07-03T04:23	10	13	0.3	12	13	413	0.3	412	414	21.0	68.4
2025-07-03T04:24	10	13	0.2	13	14	413	0.3	412	413	21.1	67.9
2025-07-03T04:25	10	14	0.1	14	14	413	0.3	413	414	21.2	67.4
2025-07-03T04:26	10	14	0.2	14	14	413	0.2	413	414	21.3	66.9
2025-07-03T04:27	10	15	0.2	14	15	414	0.3	413	414	21.3	66.5
2025-07-03T04:28	10	15	0.2	14	15	414	0.2	413	414	21.4	66.0
2025-07-03T04:29	10	15	0.2	15	16	414	0.3	414	415	21.4	66.6
2025-07-03T04:30	10	16	0.2	16	16	414	0.2	414	415	21.5	66.1
2025-07-03T04:31	10	16	0.2	16	17	414	0.2	413	415	21.6	65.4
2025-07-03T04:32	10	17	0.2	17	17	415	0.2	414	415	21.7	64.8
2025-07-03T04:33	10	18	0.1	17	18	415	0.3	414	415	21.8	64.5
2025-07-03T04:34	10	18	0.1	18	18	415	0.3	414	415	21.8	64.2
2025-07-03T04:35	10	18	0.1	18	19	415	0.2	414	415	21.8	64.2
2025-07-03T04:36	10	19	0.1	18	19	415	0.2	414	415	21.8	64.4
2025-07-03T04:37	10	19	0.1	18	19	415	0.2	414	416	21.8	64.4
2025-07-03T04:38	10	19	0.1	19	19	415	0.3	414	415	21.8	65.0
2025-07-03T04:39	10	19	0.1	19	19	414	0.3	414	415	21.7	65.7
2025-07-03T04:40	10	18	0.9	16	19	414	0.4	413	415	21.6	66.3
2025-07-03T04:41	10	13	2.0	10	16	414	0.5	413	415	21.5	65.9
2025-07-03T04:42	10	10	0.1	10	10	413	0.3	413	414	21.5	66.1
2025-07-03T04:43	10	10	0.1	10	10	413	0.3	413	414	21.5	66.6
2025-07-03T04:44	10	10	0.1	10	10	413	0.3	412	413	21.4	66.6
2025-07-03T04:45	10	10	0.1	10	10	413	0.2	412	413	21.4	66.9
2025-07-03T04:46	10	10	0.1	10	10	412	0.3	412	413	21.4	67.1
2025-07-03T04:47	10	10	0.1	10	10	412	0.2	412	413	21.3	67.6
2025-07-03T04:48	10	10	0.1	10	10	412	0.2	412	412	21.3	67.9
2025-07-03T04:49	10	15	3.4	10	21	412	0.5	411	413	21.3	67.8
2025-07-03T04:50	10	22	0.3	21	22	413	0.4	412	414	21.3	68.0
2025-07-03T04:51	10	21	0.5	20	22	414	0.3	413	414	21.3	67.8
2025-07-03T04:52	10	23	0.8	22	24	414	0.4	413	415	21.3	67.8
2025-07-03T04:53	10	21	1.3	19	24	414	0.2	414	415	21.4	67.5
2025-07-03T04:54	10	17	1.0	16	19	414	0.4	414	415	21.3	68.3
2025-07-03T04:55	10	18	0.9	15	19	414	0.3	414	415	21.3	68.1
2025-07-03T04:56	10	12	1.4	10	15	414	0.2	413	415	21.3	68.1
2025-07-03T04:57	10	10	0.1	10	11	413	0.3	412	414	21.4	67.2
2025-07-03T04:58	10	10	0.1	10	10	413	0.2	413	414	21.4	67.6
2025-07-03T04:59	10	10	0.1	10	10	413	0.2	412	413	21.4	67.9
2025-07-03T05:00	10	11	1.1	10	14	412	0.3	412	413	21.3	68.2
2025-07-03T05:01	10	17	1.1	14	18	413	0.4	412	413	21.3	68.3
2025-07-03T05:02	10	12	1.8	10	16	413	0.3	412	413	21.3	68.5
2025-07-03T05:03	10	11	0.1	10	11	412	0.4	412	413	21.3	68.6
2025-07-03T05:04	10	11	0.1	11	11	412	0.2	412	413	21.2	69.1
2025-07-03T05:05	10	11	0.1	11	11	412	0.2	412	413	21.3	68.1
2025-07-03T05:06	10	11	0.1	11	11	412	0.2	412	413	21.3	68.4
2025-07-03T05:07	10	11	0.1	11	11	412	0.2	412	413	21.3	68.3
2025-07-03T05:08	10	11	0.1	11	12	412	0.3	411	412	21.2	69.0
2025-07-03T05:09	10	14	1.3	12	16	412	0.3	411	413	21.2	69.3
2025-07-03T05:10	10	15	0.6	14	16	413	0.2	412	413	21.2	68.7
2025-07-03T05:11	10	14	0.3	13	14	413	0.3	412	413	21.2	68.9
2025-07-03T05:12	10	14	0.6	13	15	413	0.2	412	413	21.2	69.0
2025-07-03T05:13	10	16	0.2	15	16	413	0.2	412	413	21.2	69.2
2025-07-03T05:14	10	16	0.2	16	17	413	0.2	412	414	21.2	69.3
2025-07-03T05:15	10	22	5.5	16	33	413	0.6	412	415	21.1	69.6
2025-07-03T05:16	10	38	1.7	33	39	415	0.6	414	416	21.1	69.5
2025-07-03T05:17	10	40	0.3	39	40	417	0.5	415	417	21.1	69.8
2025-07-03T05:18	10	41	0.4	40	42	417	0.4	417	418	21.2	69.5
2025-07-03T05:19	10	42	0.4	42	43	418	0.2	418	419	21.2	69.8
2025-07-03T05:20	10	43	0.3	43	44	419	0.3	418	419	21.2	69.7
2025-07-03T05:21	10	44	0.3	44	45	419	0.2	419	420	21.2	69.8
2025-07-03T05:22	10	45	0.3	45	46	420	0.2	419	420	21.2	70.5
2025-07-03T05:23	10	46	0.2	45	46	420	0.2	419	420	21.2	69.8
2025-07-03T05:24	10	46	0.1	46	47	420	0.2	420	421	21.2	70.0
2025-07-03T05:25	10	47	0.1	46	47	420	0.2	420	421	21.3	69.3
2025-07-03T05:26	10	42	4.5	32	46	420	0.3	419	421	21.3	70.2
2025-07-03T05:27	10	21	4.1	17	31	419	0.9	417	420	21.3	69.9
2025-07-03T05:28	10	17	0.2	17	18	417	0.4	417	418	21.3	70.2
2025-07-03T05:29	10	19	0.8	18	20	416	0.3	416	417	21.3	70.1
2025-07-03T05:30	10	22	1.3	20	25	417	0.3	416	417	21.3	70.6
2025-07-03T05:31	10	28	1.9	25	31	417	0.4	416	418	21.3	70.4
2025-07-03T05:32	10	32	0.5	31	33	418	0.3	418	419	21.3	70.6
2025-07-03T05:33	10	29	2.5	24	32	418	0.3	418	419	21.2	70.9
2025-07-03T05:34	10	22	1.1	20	24	418	0.3	417	419	21.3	70.5
2025-07-03T05:35	10	19	0.4	19	20	418	0.3	417	418	21.3	70.6
2025-07-03T05:36	10	18	0.2	18	19	417	0.3	417	418	21.4	69.3
2025-07-03T05:37	10	19	1.0	18	21	417	0.2	417	417	21.4	69.9
2025-07-03T05:38	10	27	3.2	22	32	418	0.5	416	419	21.4	69.5
2025-07-03T05:39	10	42	8.8	31	57	420	1.1	418	422	21.4	70.0
2025-07-03T05:40	10	57	0.1	57	58	422	0.8	421	424	21.4	70.3
2025-07-03T05:41	10	57	0.1	57	57	424	0.4	423	425	21.4	70.0
2025-07-03T05:42	10	58	0.2	57	58	425	0.5	424	425	21.4	69.9
2025-07-03T05:43	10	58	0.1	58	58	426	0.3	425	427	21.5	69.5
2025-07-03T05:44	10	59	0.2	58	59	426	0.2	426	427	21.6	69.4
2025-07-03T05:45	10	59	0.3	59	60	427	0.3	427	428	21.7	70.0
2025-07-03T05:46	10	60	0.2	60	61	427	0.3	427	428	21.8	68.8
2025-07-03T05:47	10	61	0.2	60	61	428	0.2	427	428	21.8	68.5
2025-07-03T05:48	10	62	0.3	61	62	429	0.3	428	430	21.9	68.9
2025-07-03T05:49	10	63	0.3	62	63	429	0.2	429	430	22.0	69.1
2025-07-03T05:50	10	64	0.3	63	64	430	0.2	429	430	22.1	68.3
2025-07-03T05:51	10	65	0.3	64	65	430	0.2	430	431	22.1	67.5
2025-07-03T05:52	10	66	0.4	65	67	430	0.3	429	430	22.0	66.3
2025-07-03T05:53	10	67	0.4	67	68	431	0.3	430	431	22.0	66.6
2025-07-03T05:54	10	69	0.4	68	70	431	0.3	431	432	22.1	66.4
2025-07-03T05:55	10	70	0.4	69	71	432	0.3	431	432	22.2	66.1
2025-07-03T05:56	10	71	0.3	70	72	432	0.3	431	432	22.2	65.5
2025-07-03T05:57	10	72	0.2	71	72	433	0.3	432	433	22.3	65.9
2025-07-03T05:58	10	71	0.3	70	72	433	0.3	433	434	22.3	65.7
2025-07-03T05:59	10	66	4.4	56	71	432	0.6	431	434	22.5	64.5
2025-07-03T06:00	10	37	9.5	25	55	431	1.5	428	433	22.5	66.0
2025-07-03T06:01	10	23	0.7	22	25	428	0.9	426	430	22.4	66.3
2025-07-03T06:02	10	22	0.2	22	23	426	0.6	425	428	22.4	64.1
2025-07-03T06:03	10	23	0.5	22	24	426	0.3	425	427	22.4	64.7
2025-07-03T06:04	10	25	0.5	24	26	426	0.2	425	426	22.4	65.8
2025-07-03T06:05	10	26	0.8	25	28	426	0.3	425	426	22.4	64.7
2025-07-03T06:06	10	28	0.3	27	28	426	0.2	426	427	22.5	63.7
2025-07-03T06:07	10	27	0.3	26	27	426	0.2	426	427	22.5	64.4
2025-07-03T06:08	10	28	0.8	27	30	427	0.2	426	427	22.5	63.7
2025-07-03T06:09	10	28	0.5	27	29	427	0.3	426	428	22.5	63.9
2025-07-03T06:10	10	27	0.2	27	28	427	0.2	426	427	22.5	64.4
2025-07-03T06:11	10	28	0.5	28	29	427	0.3	427	428	22.5	64.6
2025-07-03T06:12	10	30	0.7	29	31	428	0.3	427	429	22.5	65.1
2025-07-03T06:13	10	37	4.7	31	44	428	0.5	428	430	22.5	64.2
2025-07-03T06:14	10	57	10.5	44	76	430	1.3	429	433	22.5	64.9
2025-07-03T06:15	10	84	3.3	76	87	435	1.3	432	437	22.5	66.0
2025-07-03T06:16	10	86	0.2	86	87	437	0.6	436	438	22.6	65.3
2025-07-03T06:17	10	85	0.3	85	86	438	0.3	437	439	22.7	64.3
2025-07-03T06:18	10	84	0.2	84	85	438	0.2	437	438	22.7	62.9
2025-07-03T06:19	10	84	0.2	83	84	438	0.3	437	439	22.7	63.7
2025-07-03T06:20	10	84	0.1	83	84	439	0.3	438	439	22.8	64.3
2025-07-03T06:21	10	84	0.1	83	84	439	0.2	439	440	22.9	63.2
2025-07-03T06:22	10	83	0.3	82	84	440	0.3	439	440	23.0	63.3
2025-07-03T06:23	10	76	4.4	68	82	440	0.6	439	441	23.0	63.2
2025-07-03T06:24	10	71	5.9	65	83	439	0.5	438	440	23.0	63.1
2025-07-03T06:25	10	84	0.3	83	85	439	0.2	438	439	23.0	60.4
2025-07-03T06:26	10	85	0.3	85	85	439	0.3	438	439	23.0	60.8
2025-07-03T06:27	10	86	0.9	85	87	440	0.3	439	441	23.1	60.8
2025-07-03T06:28	10	88	0.2	87	88	440	0.5	440	442	23.1	61.1
2025-07-03T06:29	10	88	0.1	88	88	441	0.5	440	442	23.3	61.0
2025-07-03T06:30	10	86	0.8	85	88	440	0.5	440	441	23.3	60.5
2025-07-03T06:31	10	89	0.3	88	89	441	0.6	440	442	23.3	60.6
2025-07-03T06:32	10	89	0.2	89	90	442	0.2	441	442	23.5	61.5
2025-07-03T06:33	10	90	0.2	90	90	442	0.4	442	443	23.5	60.5
2025-07-03T06:34	10	91	0.1	90	91	442	0.2	442	443	23.5	59.6
2025-07-03T06:35	10	91	0.2	91	92	443	0.2	442	444	23.5	60.9
2025-07-03T06:36	10	92	0.2	91	92	443	0.3	443	444	23.5	59.8
2025-07-03T06:37	10	92	0.2	92	93	444	0.3	443	444	23.6	60.6
2025-07-03T06:38	10	93	0.2	93	93	444	0.5	443	445	23.7	59.5
2025-07-03T06:39	10	93	0.1	93	94	444	0.3	443	445	23.7	58.4
2025-07-03T06:40	10	94	0.2	94	94	445	0.3	444	446	23.9	58.3
2025-07-03T06:41	10	94	0.2	94	95	446	0.5	444	447	23.9	57.6
2025-07-03T06:42	10	95	0.2	95	95	445	0.2	445	446	24.0	57.1
2025-07-03T06:43	10	95	0.2	95	96	445	0.3	444	445	24.0	56.8
2025-07-03T06:44	10	96	0.3	95	97	446	0.4	445	446	24.1	57.6
2025-07-03T06:45	10	97	0.2	96	97	446	0.4	446	448	24.1	57.4
2025-07-03T06:46	10	97	0.3	97	98	448	0.3	447	448	24.1	57.6
2025-07-03T06:47	10	98	0.2	97	98	449	0.6	448	450	24.3	58.2
2025-07-03T06:48	10	99	0.2	98	99	449	0.3	449	450	24.4	56.2
2025-07-03T06:49	10	99	0.1	99	100	449	0.2	449	450	24.3	56.8
2025-07-03T06:50	10	100	0.1	99	100	451	0.8	450	452	24.4	57.2
2025-07-03T06:51	10	100	0.3	100	101	451	0.4	450	452	24.5	56.8
2025-07-03T06:52	10	101	0.3	101	102	451	1.1	449	452	24.5	56.5
2025-07-03T06:53	10	102	0.3	102	103	449	0.3	449	450	24.3	55.9
2025-07-03T06:54	10	103	0.2	102	103	450	0.6	448	451	24.4	56.0
2025-07-03T06:55	10	103	0.2	102	103	451	0.7	449	452	24.4	56.5
2025-07-03T06:56	10	104	0.4	103	104	453	0.6	451	453	24.6	55.7
2025-07-03T06:57	10	105	0.2	104	105	452	0.4	452	453	24.7	54.9
2025-07-03T06:58	10	105	0.5	104	106	452	0.4	451	453	24.6	55.5
2025-07-03T06:59	10	106	0.2	105	106	451	0.5	450	452	24.6	55.0
2025-07-03T07:00	10	106	0.2	106	107	454	0.8	452	455	24.7	55.3
2025-07-03T07:01	10	107	0.2	106	107	454	0.6	453	455	24.6	55.3
2025-07-03T07:02	10	107	0.1	107	107	453	0.7	451	454	24.7	54.1
2025-07-03T07:03	10	107	0.2	107	108	451	0.4	451	452	24.7	54.7
2025-07-03T07:04	10	108	0.4	108	109	453	0.7	452	454	24.8	54.6
2025-07-03T07:05	10	109	0.2	109	109	455	0.4	454	456	25.1	55.0
2025-07-03T07:06	10	110	0.3	109	111	457	0.6	456	458	25.0	54.6
2025-07-03T07:07	10	112	0.4	111	112	458	0.5	457	459	25.2	54.4
2025-07-03T07:08	10	113	0.5	112	114	457	0.6	457	459	25.0	54.2
2025-07-03T07:09	10	115	0.5	114	116	458	1.1	456	459	25.1	54.2
2025-07-03T07:10	10	116	0.3	116	117	457	0.3	456	458	25.0	53.8
2025-07-03T07:11	10	117	0.2	117	117	459	0.6	457	460	25.1	53.9
2025-07-03T07:12	10	118	0.2	117	118	460	0.3	459	460	25.3	53.6
2025-07-03T07:13	10	118	0.3	118	119	460	0.5	459	461	25.4	53.0
2025-07-03T07:14	10	119	0.3	119	120	461	0.5	460	462	25.3	52.5
2025-07-03T07:15	10	120	0.3	119	121	463	0.5	462	464	25.4	53.3
2025-07-03T07:16	10	121	0.3	120	121	462	0.4	461	463	25.5	53.3
2025-07-03T07:17	10	122	0.2	122	122	462	0.6	460	463	25.6	52.7
2025-07-03T07:18	10	122	0.2	122	123	461	0.4	460	462	25.5	52.0
2025-07-03T07:19	10	123	0.3	123	124	461	0.6	460	462	25.5	52.4
2025-07-03T07:20	10	125	0.8	123	126	461	0.4	460	462	25.4	51.1
2025-07-03T07:21	10	126	1.4	122	127	464	0.9	462	465	25.3	51.2
2025-07-03T07:22	10	113	4.8	107	121	464	0.5	463	465	25.5	52.0
2025-07-03T07:23	10	117	5.0	108	124	464	0.4	464	465	26.0	51.6
2025-07-03T07:24	10	126	1.3	124	129	465	0.8	464	467	25.7	50.8
2025-07-03T07:25	10	132	0.9	129	133	467	0.9	466	469	25.7	52.0
2025-07-03T07:26	10	124	6.1	110	131	467	1.7	463	469	25.9	50.4
2025-07-03T07:27	10	85	9.5	73	110	461	2.6	456	466	25.7	49.5
2025-07-03T07:28	10	68	8.9	53	80	456	1.6	453	459	25.6	50.1
2025-07-03T07:29	10	70	9.1	55	84	455	0.9	453	456	25.6	50.6
2025-07-03T07:30	10	123	17.6	75	135	460	3.5	454	465	25.6	50.5
2025-07-03T07:31	10	92	34.0	39	129	464	2.0	459	465	25.7	51.3
2025-07-03T07:32	10	38	0.4	37	39	456	2.3	453	461	25.8	52.0
2025-07-03T07:33	10	63	31.3	38	118	454	1.9	452	458	25.9	49.7
2025-07-03T07:34	10	77	23.2	49	128	456	1.6	453	458	25.7	49.2
2025-07-03T07:35	10	130	0.7	128	131	463	3.0	457	467	25.7	49.3
2025-07-03T07:36	10	131	0.8	129	132	467	0.9	465	468	25.8	49.0
2025-07-03T07:37	10	132	0.2	131	132	469	0.9	468	471	25.8	49.3
2025-07-03T07:38	10	133	0.4	132	133	471	0.7	470	472	26.0	48.0
2025-07-03T07:39	10	134	0.5	133	135	472	0.5	471	474	26.2	50.1
2025-07-03T07:40	10	136	0.5	135	136	472	0.4	471	472	26.1	47.8
2025-07-03T07:41	10	137	0.5	136	138	472	0.4	471	472	25.9	48.6
2025-07-03T07:42	10	139	0.8	138	141	472	0.6	470	473	26.0	48.0
2025-07-03T07:43	10	142	0.8	140	143	474	1.0	471	475	26.0	47.3
2025-07-03T07:44	10	144	0.4	143	145	476	0.4	475	476	26.1	47.8
2025-07-03T07:45	10	147	1.4	145	150	477	0.5	476	478	26.4	46.9
2025-07-03T07:46	10	153	1.8	150	156	478	0.5	477	480	26.5	47.7
2025-07-03T07:47	10	150	5.9	139	156	477	0.9	475	478	26.2	47.4
2025-07-03T07:48	10	130	3.4	126	139	475	0.6	474	477	26.1	47.9
2025-07-03T07:49	10	153	8.6	136	165	478	1.7	475	480	26.3	47.8
2025-07-03T07:50	10	165	1.0	163	167	480	0.3	479	481	26.3	47.2
2025-07-03T07:51	10	172	3.0	167	175	482	1.0	480	483	26.4	46.7
2025-07-03T07:52	10	155	17.9	129	176	482	1.8	478	484	26.3	47.3
2025-07-03T07:53	10	110	7.2	104	129	476	2.7	473	481	26.4	47.1
2025-07-03T07:54	10	98	9.8	90	116	473	1.9	470	476	26.4	47.5
2025-07-03T07:55	10	101	10.1	91	119	472	0.7	470	473	26.4	47.3
2025-07-03T07:56	10	105	6.3	90	114	472	0.6	470	472	26.5	46.4
2025-07-03T07:57	10	90	0.3	89	90	469	0.9	468	471	26.5	46.3
2025-07-03T07:58	10	91	0.7	90	92	468	0.3	468	469	26.6	46.2
2025-07-03T07:59	10	94	1.1	92	96	469	0.3	468	469	26.5	47.0
2025-07-03T08:00	10	101	2.2	96	103	471	0.9	469	472	26.6	46.5
2025-07-03T08:01	10	106	1.8	103	110	473	0.6	472	474	26.5	47.0
2025-07-03T08:02	10	129	26.8	105	178	474	1.6	472	478	26.5	46.2
2025-07-03T08:03	10	123	15.6	109	167	475	1.7	473	478	26.5	46.3
2025-07-03T08:04	10	125	2.4	121	130	476	0.5	474	477	26.6	46.3
2025-07-03T08:05	10	117	3.5	113	128	476	0.3	475	477	26.6	46.5
2025-07-03T08:06	10	151	11.8	120	173	480	1.9	476	482	26.6	46.6
2025-07-03T08:07	10	133	23.3	114	179	481	1.8	478	484	26.8	46.5
2025-07-03T08:08	10	141	7.1	122	150	481	1.9	478	484	26.7	46.2
2025-07-03T08:09	10	127	8.7	115	138	481	0.9	478	483	27.0	45.8
2025-07-03T08:10	10	118	4.2	113	126	478	1.2	475	479	27.0	45.4
2025-07-03T08:11	10	119	7.4	110	131	475	0.6	474	476	26.7	45.2
2025-07-03T08:12	10	155	21.3	127	181	479	3.6	475	486	26.8	45.5
2025-07-03T08:13	10	152	17.7	118	180	484	1.2	481	486	26.9	46.2
2025-07-03T08:14	10	117	7.4	111	136	480	0.9	479	483	27.0	44.1
2025-07-03T08:15	10	174	15.9	137	199	486	3.7	480	492	27.2	45.3
2025-07-03T08:16	10	172	24.7	130	201	490	1.5	486	492	27.2	43.5
2025-07-03T08:17	10	147	9.8	127	162	487	1.0	485	488	27.3	44.1
2025-07-03T08:18	10	111	7.1	103	127	482	2.4	478	486	27.1	43.9
2025-07-03T08:19	10	99	1.6	97	103	477	1.5	475	480	26.9	44.5
2025-07-03T08:20	10	97	0.5	96	98	475	0.4	475	476	26.8	44.5
2025-07-03T08:21	10	97	0.6	96	98	475	0.3	474	475	27.1	44.3
2025-07-03T08:22	10	98	1.6	96	101	474	0.4	473	475	27.2	44.4
2025-07-03T08:23	10	99	3.1	96	104	474	0.5	473	475	27.2	44.1
2025-07-03T08:24	10	101	2.8	98	108	475	0.5	474	476	27.0	44.9
2025-07-03T08:25	10	102	1.7	100	107	473	0.9	472	475	27.1	43.0
2025-07-03T08:26	10	105	1.5	103	108	473	0.4	472	474	27.0	43.5
2025-07-03T08:27	10	103	3.5	99	109	473	0.4	472	473	27.0	43.4
2025-07-03T08:28	10	99	3.2	95	106	474	0.8	473	475	27.0	43.7
2025-07-03T08:29	10	94	0.6	93	95	473	0.4	473	475	27.0	43.3
2025-07-03T08:30	10	91	1.5	89	94	473	0.3	473	474	27.1	42.7
2025-07-03T08:31	10	88	0.4	87	89	472	0.3	472	473	27.1	41.8
2025-07-03T08:32	10	87	0.3	86	88	472	0.3	472	473	27.3	41.4
2025-07-03T08:33	10	85	0.3	85	86	472	0.3	472	473	27.4	41.3
2025-07-03T08:34	10	85	0.1	85	85	472	0.3	472	473	27.2	41.6
2025-07-03T08:35	10	85	0.1	85	85	471	0.6	471	473	27.3	43.4
2025-07-03T08:36	10	85	0.1	85	85	471	0.3	470	471	27.3	42.9
2025-07-03T08:37	10	85	0.2	84	85	470	0.2	470	471	27.3	43.3
2025-07-03T08:38	10	84	0.2	84	84	470	0.3	470	471	27.3	43.3
2025-07-03T08:39	10	84	0.2	83	84	471	0.3	470	471	27.3	44.1
2025-07-03T08:40	10	84	0.7	83	85	471	0.3	470	471	27.2	44.2
2025-07-03T08:41	10	82	0.6	81	83	470	0.4	469	471	27.1	44.4
2025-07-03T08:42	10	80	0.6	79	81	469	0.2	469	470	27.0	44.3
2025-07-03T08:43	10	78	0.5	77	79	470	0.2	469	470	27.0	45.1
2025-07-03T08:44	10	76	0.6	75	77	470	0.2	469	470	27.1	44.5
2025-07-03T08:45	10	75	0.4	74	75	470	0.3	469	470	27.1	44.7
2025-07-03T08:46	10	74	0.2	73	74	469	0.3	468	470	27.1	44.9
2025-07-03T08:47	10	74	0.1	73	74	469	0.4	468	470	27.1	46.2
2025-07-03T08:48	10	74	0.2	74	75	469	0.2	469	470	27.1	44.9
2025-07-03T08:49	10	75	0.3	75	76	469	0.3	469	470	27.2	44.7
2025-07-03T08:50	10	76	0.2	75	76	469	0.5	468	470	27.3	44.4
2025-07-03T08:51	10	76	0.1	76	77	468	0.3	467	469	27.1	45.1
2025-07-03T08:52	10	77	0.1	77	77	468	0.4	467	469	26.9	46.2
2025-07-03T08:53	10	77	0.1	77	77	467	0.3	466	468	27.0	46.2
2025-07-03T08:54	10	77	0.1	77	77	467	0.3	466	468	27.0	45.9
2025-07-03T08:55	10	76	0.2	76	77	468	0.4	467	469	27.0	46.0
2025-07-03T08:56	10	76	0.2	75	76	468	0.6	467	469	27.0	46.3
2025-07-03T08:57	10	75	0.1	75	75	468	0.7	466	469	27.2	48.1
2025-07-03T08:58	10	75	0.2	75	76	466	0.2	466	467	27.0	51.7
2025-07-03T08:59	10	76	0.4	75	77	466	1.0	464	468	26.8	50.5
2025-07-03T09:00	10	78	0.5	77	79	464	0.4	464	466	26.6	50.8
2025-07-03T09:01	10	80	0.6	79	81	465	1.1	464	467	26.9	50.6
2025-07-03T09:02	10	82	0.7	81	83	466	1.3	463	468	27.1	49.7
2025-07-03T09:03	10	84	0.6	83	85	465	0.4	464	465	26.9	50.4
2025-07-03T09:04	10	88	4.0	85	105	466	1.0	464	468	26.7	51.2
2025-07-03T09:05	10	93	8.8	88	116	469	0.7	468	470	27.1	50.5
2025-07-03T09:06	10	91	2.0	89	95	469	0.5	467	470	27.0	50.6
2025-07-03T09:07	10	92	2.5	90	97	468	0.3	468	469	26.9	50.7
2025-07-03T09:08	10	91	0.9	89	92	468	0.6	467	469	26.6	52.5
2025-07-03T09:09	10	94	1.6	91	96	468	0.5	467	469	26.5	53.3
2025-07-03T09:10	10	89	1.0	88	92	469	0.7	468	470	27.0	53.5
2025-07-03T09:11	10	87	0.9	86	89	470	0.6	468	471	26.9	54.1
2025-07-03T09:12	10	86	0.2	86	86	468	0.9	466	469	26.7	54.8
2025-07-03T09:13	10	86	0.6	86	88	467	0.5	466	468	26.6	54.7
2025-07-03T09:14	10	96	9.8	88	124	469	1.5	468	473	26.8	54.6
2025-07-03T09:15	10	101	14.4	89	129	473	1.2	471	474	27.1	53.4
2025-07-03T09:16	10	86	1.5	84	89	470	1.0	468	472	27.0	53.6
2025-07-03T09:17	10	88	6.0	83	101	468	1.3	467	470	26.9	53.6
2025-07-03T09:18	10	84	0.7	83	85	468	0.7	467	470	26.6	54.8
2025-07-03T09:19	10	94	7.4	85	108	469	0.6	468	470	26.7	54.4
2025-07-03T09:20	10	96	10.8	89	136	468	1.1	466	470	26.8	53.4
2025-07-03T09:21	10	128	36.2	89	183	475	2.4	469	478	26.8	53.3
2025-07-03T09:22	10	110	24.1	89	178	475	1.8	473	481	27.0	53.3
2025-07-03T09:23	10	139	19.4	107	178	479	1.6	476	481	26.8	51.8
2025-07-03T09:24	10	169	13.3	136	191	483	2.5	477	486	26.8	51.6
2025-07-03T09:25	10	159	15.0	134	179	486	0.8	484	487	26.9	52.0
2025-07-03T09:26	10	118	19.4	94	156	482	3.1	478	486	26.9	52.1
2025-07-03T09:27	10	110	4.0	106	122	481	0.6	479	482	27.2	50.4
2025-07-03T09:28	10	142	22.5	104	177	482	2.2	478	486	27.2	48.2
2025-07-03T09:29	10	185	19.6	154	210	492	3.2	483	495	27.4	48.6
2025-07-03T09:30	10	148	30.7	105	190	487	3.9	482	494	27.3	47.7
2025-07-03T09:31	10	177	36.9	99	212	491	2.5	485	494	27.2	47.8
2025-07-03T09:32	10	103	22.5	87	169	482	2.6	479	488	27.0	48.5
2025-07-03T09:33	10	190	10.6	169	201	491	2.9	484	494	27.2	47.8
2025-07-03T09:34	10	143	41.0	94	198	489	5.6	481	496	27.0	48.2
2025-07-03T09:35	10	100	23.6	77	158	482	3.5	478	488	27.3	48.0
2025-07-03T09:36	10	127	26.7	100	181	483	2.4	480	487	27.3	48.1
2025-07-03T09:37	10	127	17.8	102	162	484	1.0	483	487	27.6	47.5
2025-07-03T09:38	10	132	20.3	92	157	481	1.0	479	483	27.2	47.6
2025-07-03T09:39	10	147	21.1	114	176	485	2.8	481	489	27.4	47.7
2025-07-03T09:40	10	169	17.1	116	180	488	3.2	483	494	27.3	47.4
2025-07-03T09:41	10	168	9.9	136	177	492	0.9	490	494	27.5	47.3
2025-07-03T09:42	10	147	25.4	107	175	489	2.2	486	493	27.5	45.9
2025-07-03T09:43	10	169	2.7	161	172	494	1.0	492	496	27.5	46.0
2025-07-03T09:44	10	158	7.0	146	170	494	0.7	493	495	27.5	46.5
2025-07-03T09:45	10	144	4.3	138	157	494	1.0	492	496	27.7	46.0
2025-07-03T09:46	10	158	8.5	141	167	493	1.5	491	496	27.8	45.7
2025-07-03T09:47	10	160	7.3	145	169	496	0.5	495	497	28.0	45.1
2025-07-03T09:48	10	169	0.4	168	170	497	0.8	495	498	28.0	44.2
2025-07-03T09:49	10	167	0.3	167	168	497	1.8	493	499	27.9	43.6
2025-07-03T09:50	10	167	0.2	166	167	493	0.8	492	495	27.3	43.8
2025-07-03T09:51	10	166	0.1	166	167	493	1.3	491	496	27.4	43.6
2025-07-03T09:52	10	166	0.1	166	166	496	1.4	493	498	27.5	43.8
2025-07-03T09:53	10	166	0.2	166	167	497	0.6	495	498	27.6	44.0
2025-07-03T09:54	10	166	0.2	165	166	497	0.4	496	498	27.6	44.4
2025-07-03T09:55	10	165	0.2	165	166	499	0.6	497	499	28.0	45.3
2025-07-03T09:56	10	165	0.1	165	166	498	0.4	497	499	27.8	44.3
2025-07-03T09:57	10	166	0.3	165	166	499	0.5	498	500	27.5	45.0
2025-07-03T09:58	10	165	0.5	164	166	500	1.3	496	502	27.8	45.0
2025-07-03T09:59	10	166	0.2	166	167	496	1.4	495	499	27.5	44.3
2025-07-03T10:00	10	167	0.2	166	167	495	1.0	494	498	27.7	43.8
2025-07-03T10:01	10	167	0.1	167	167	496	0.8	494	497	27.4	44.1
2025-07-03T10:02	10	167	0.1	167	167	500	1.8	496	502	27.6	44.0
2025-07-03T10:03	10	167	0.1	166	167	499	0.9	498	501	27.5	44.0
2025-07-03T10:04	10	167	0.1	166	167	500	1.8	497	502	27.9	43.1
2025-07-03T10:05	10	167	0.1	166	167	498	0.4	498	500	28.0	42.3
2025-07-03T10:06	10	167	0.1	166	167	501	1.2	500	504	28.1	43.3
2025-07-03T10:07	10	167	0.1	166	167	502	1.1	499	503	28.0	43.0
2025-07-03T10:08	10	167	0.2	166	167	498	0.4	498	499	27.5	43.6
2025-07-03T10:09	10	167	0.2	166	167	500	1.2	498	502	27.7	44.1
2025-07-03T10:10	10	167	0.1	166	167	504	0.9	502	505	27.8	43.7
2025-07-03T10:11	10	167	0.2	167	167	505	1.3	502	507	28.2	43.1
2025-07-03T10:12	10	167	0.2	167	167	503	0.8	502	505	28.4	43.4
2025-07-03T10:13	10	167	0.2	167	168	504	0.6	503	505	28.4	42.5
2025-07-03T10:14	10	168	0.1	167	168	503	0.8	502	505	28.4	42.7
2025-07-03T10:15	10	168	0.1	167	168	504	0.7	503	505	28.7	42.3
2025-07-03T10:16	10	168	0.2	168	168	503	1.2	501	505	28.5	41.5
2025-07-03T10:17	10	168	0.2	168	168	503	1.1	501	505	28.3	42.7
2025-07-03T10:18	10	168	0.2	168	168	504	0.5	502	505	28.5	41.4
2025-07-03T10:19	10	168	0.1	168	169	502	1.1	500	504	28.3	41.1
2025-07-03T10:20	10	168	0.1	168	169	503	1.0	501	504	28.1	41.5
2025-07-03T10:21	10	168	0.1	168	169	502	0.7	500	503	28.2	41.4
2025-07-03T10:22	10	168	0.1	168	169	502	0.6	501	503	28.1	41.8
2025-07-03T10:23	10	169	0.1	168	169	502	0.4	501	503	27.9	41.7
2025-07-03T10:24	10	168	0.1	168	169	505	1.1	503	507	28.0	42.4
2025-07-03T10:25	10	168	0.1	168	169	506	0.8	504	507	28.5	42.7
2025-07-03T10:26	10	169	0.2	168	169	502	1.6	500	506	28.1	42.0
2025-07-03T10:27	10	169	0.1	168	169	502	1.3	500	504	28.2	42.2
2025-07-03T10:28	10	169	0.1	169	169	499	0.8	497	501	27.8	42.1
2025-07-03T10:29	10	169	0.2	169	169	503	1.7	500	505	27.9	42.5
2025-07-03T10:30	10	169	0.2	169	170	505	1.3	503	507	28.2	42.2
2025-07-03T10:31	10	169	0.1	169	170	503	0.5	502	504	27.9	42.0
2025-07-03T10:32	10	169	0.2	169	170	505	0.6	503	506	28.3	41.9
2025-07-03T10:33	10	169	0.1	169	170	506	1.5	504	509	28.2	41.7
2025-07-03T10:34	10	170	0.2	169	170	507	2.0	502	509	28.3	42.2
2025-07-03T10:35	10	170	0.1	170	170	501	1.7	499	504	27.7	42.4
2025-07-03T10:36	10	170	0.1	170	170	506	1.1	504	509	27.9	42.7
2025-07-03T10:37	10	170	0.1	170	170	503	1.4	501	507	27.9	42.7
2025-07-03T10:38	10	170	0.1	170	170	503	1.3	501	505	27.9	42.7
2025-07-03T10:39	10	170	0.1	170	170	504	1.1	502	506	27.9	42.7
2025-07-03T10:40	10	170	0.2	170	171	506	0.5	505	508	27.9	42.7
2025-07-03T10:41	10	171	0.1	170	171	506	1.2	503	508	27.9	42.7
2025-07-03T10:42	10	171	0.1	171	171	502	1.2	501	505	27.9	42.7
2025-07-03T10:43	10	171	0.1	170	171	503	0.9	502	504	27.9	42.7
2025-07-03T10:44	10	170	0.1	170	171	501	1.2	499	504	27.7	43.1
2025-07-03T10:45	10	170	0.1	170	171	505	1.0	503	507	27.8	43.2
2025-07-03T10:46	10	171	0.1	170	171	507	1.2	504	509	28.0	43.2
2025-07-03T10:47	10	171	0.1	170	171	507	0.6	505	508	28.1	43.0
2025-07-03T10:48	10	171	0.1	171	171	510	1.2	507	511	28.2	43.4
2025-07-03T10:49	10	171	0.1	171	171	509	2.2	506	512	28.5	42.8
2025-07-03T10:50	10	171	0.1	171	171	509	1.4	506	511	28.6	42.3
2025-07-03T10:51	10	171	0.1	171	171	508	0.8	507	509	28.5	42.2
2025-07-03T10:52	10	171	0.1	171	171	509	1.9	506	512	28.6	42.3
2025-07-03T10:53	10	171	0.1	171	172	509	1.4	506	510	28.4	42.6
2025-07-03T10:54	10	172	0.1	171	172	512	0.9	510	513	28.7	42.6
2025-07-03T10:55	10	172	0.1	171	172	508	3.8	503	514	28.7	42.4
2025-07-03T10:56	10	172	0.1	171	172	505	1.3	503	508	28.5	42.8
2025-07-03T10:57	10	172	0.1	172	172	504	1.1	502	506	28.2	42.8
2025-07-03T10:58	10	172	0.1	171	172	506	1.0	504	507	28.0	43.2
2025-07-03T10:59	10	171	0.1	171	172	504	2.5	501	508	28.3	43.0
2025-07-03T11:00	10	171	0.1	171	172	504	1.2	501	505	28.6	42.7
2025-07-03T11:01	10	172	0.3	171	172	505	0.4	504	506	28.3	42.5
2025-07-03T11:02	10	172	0.1	172	172	507	1.8	505	510	28.1	43.0
2025-07-03T11:03	10	172	0.1	172	172	508	2.1	506	512	28.4	42.8
2025-07-03T11:04	10	173	0.2	172	173	508	0.7	506	509	28.4	42.9
2025-07-03T11:05	10	173	0.1	173	173	510	1.4	508	513	28.2	42.6
2025-07-03T11:06	10	173	0.1	173	173	512	1.7	509	514	28.3	43.3
2025-07-03T11:07	10	174	0.1	173	174	507	1.1	506	510	28.3	42.8
2025-07-03T11:08	10	174	0.1	174	174	510	0.6	508	511	28.3	43.5
2025-07-03T11:09	10	174	0.1	174	174	509	1.3	507	511	28.2	43.2
2025-07-03T11:10	10	174	0.1	173	174	508	0.5	507	509	28.2	42.9
2025-07-03T11:11	10	174	0.1	173	174	511	1.1	509	513	28.1	43.2
2025-07-03T11:12	10	173	0.1	173	174	512	0.8	510	513	28.4	42.9
2025-07-03T11:13	10	174	0.1	173	174	511	0.8	509	512	28.5	42.2
2025-07-03T11:14	10	174	0.1	173	174	511	1.2	509	513	28.5	42.8
2025-07-03T11:15	10	173	0.1	173	174	511	1.0	509	513	28.9	42.0
2025-07-03T11:16	10	174	0.1	173	174	511	1.8	509	515	29.1	41.5
2025-07-03T11:17	10	174	0.3	174	175	513	0.4	511	513	29.5	41.5
2025-07-03T11:18	10	174	0.2	174	175	509	1.4	507	511	29.1	41.5
2025-07-03T11:19	10	174	0.1	173	174	510	1.3	507	512	29.3	41.5
2025-07-03T11:20	10	174	0.1	173	174	506	1.7	503	509	28.6	41.9
2025-07-03T11:21	10	173	0.1	173	174	511	1.2	508	513	28.7	42.1
2025-07-03T11:22	10	173	0.1	173	173	511	0.8	510	513	28.8	42.4
2025-07-03T11:23	10	173	0.1	173	173	509	1.5	507	512	28.9	42.0
2025-07-03T11:24	10	173	0.1	173	173	506	1.8	504	510	28.4	42.3
2025-07-03T11:25	10	173	0.1	173	173	508	1.8	506	511	28.2	42.6
2025-07-03T11:26	10	173	0.2	173	174	511	1.5	508	513	28.2	42.4
2025-07-03T11:27	10	174	0.2	173	174	513	0.7	512	514	28.4	42.4
2025-07-03T11:28	10	174	0.1	174	174	512	1.1	511	515	28.4	42.4
2025-07-03T11:29	10	174	0.1	174	174	514	0.6	513	515	28.5	42.1
2025-07-03T11:30	10	174	0.1	174	175	514	0.7	512	515	28.7	43.1
2025-07-03T11:31	10	175	0.1	175	175	508	2.4	505	512	28.8	42.8
2025-07-03T11:32	10	175	0.2	174	175	507	0.6	506	508	28.7	43.2
2025-07-03T11:33	10	174	0.1	174	175	503	1.9	501	507	28.4	43.3
2025-07-03T11:34	10	174	0.1	174	174	502	1.0	500	504	28.2	43.8
2025-07-03T11:35	10	175	0.2	174	175	506	1.3	504	508	28.4	44.1
2025-07-03T11:36	10	175	0.2	175	176	509	0.9	507	511	28.4	42.8
2025-07-03T11:37	10	176	0.2	175	176	513	1.8	510	516	28.4	43.4
2025-07-03T11:38	10	176	0.2	176	177	513	0.7	512	515	28.5	43.2
2025-07-03T11:39	10	178	0.4	177	178	513	0.4	512	513	28.3	42.9
2025-07-03T11:40	10	179	0.4	178	180	513	1.5	511	516	28.6	43.5
2025-07-03T11:41	10	180	0.1	179	180	515	1.2	511	517	29.0	42.4
2025-07-03T11:42	10	180	0.2	179	180	514	1.8	511	517	29.5	41.0
2025-07-03T11:43	10	180	0.1	180	180	512	1.6	509	515	29.2	40.6
2025-07-03T11:44	10	181	0.2	180	181	511	0.6	510	512	29.0	41.5
2025-07-03T11:45	10	181	0.3	181	182	512	0.6	511	513	28.9	41.3
2025-07-03T11:46	10	182	0.2	182	182	511	1.3	510	514	28.5	41.2
2025-07-03T11:47	10	183	0.2	182	183	514	1.4	512	517	28.7	41.0
2025-07-03T11:48	10	184	0.5	183	185	516	1.2	514	519	29.0	40.5
2025-07-03T11:49	10	187	0.9	185	188	518	1.4	516	521	29.5	40.2
2025-07-03T11:50	10	189	0.2	188	189	517	1.1	516	519	29.1	40.8
2025-07-03T11:51	10	189	0.4	188	190	515	1.5	512	517	28.6	41.5
2025-07-03T11:52	10	191	1.0	189	193	518	1.4	516	521	28.8	41.3
2025-07-03T11:53	10	194	0.5	192	194	521	1.0	519	522	29.1	40.8
2025-07-03T11:54	10	195	1.3	193	198	520	1.0	517	521	29.5	40.9
2025-07-03T11:55	10	201	1.8	196	203	519	1.0	517	521	29.5	41.6
2025-07-03T11:56	10	196	12.9	152	203	517	1.4	514	520	29.0	41.8
2025-07-03T11:57	10	167	17.6	136	196	512	2.1	508	515	28.9	41.9
2025-07-03T11:58	10	126	40.6	83	197	507	5.7	500	515	29.5	42.3
2025-07-03T11:59	10	120	37.0	64	172	499	4.5	491	504	29.0	43.1
2025-07-03T12:00	10	149	30.6	106	194	498	5.2	492	508	28.3	44.0
2025-07-03T12:01	10	196	8.1	173	202	511	2.4	506	514	28.5	44.3
2025-07-03T12:02	10	200	0.4	199	201	512	0.9	510	513	28.8	43.6
2025-07-03T12:03	10	199	1.1	197	200	514	1.1	513	516	28.7	43.4
2025-07-03T12:04	10	197	0.5	197	198	516	0.7	514	517	28.8	43.2
2025-07-03T12:05	10	199	0.6	198	200	513	0.7	511	514	28.5	42.9
2025-07-03T12:06	10	200	0.3	199	201	517	2.3	513	520	28.5	43.5
2025-07-03T12:07	10	202	1.0	200	203	520	1.1	519	523	28.8	42.9
2025-07-03T12:08	10	199	10.8	172	206	521	0.5	520	522	29.1	43.1
2025-07-03T12:09	10	200	11.0	173	211	523	1.6	520	525	28.9	42.7
2025-07-03T12:10	10	202	8.7	171	208	522	0.9	520	524	28.9	42.3
2025-07-03T12:11	10	205	0.2	205	206	525	1.1	523	528	29.0	42.3
2025-07-03T12:12	10	205	0.2	204	205	527	0.5	526	528	29.5	41.6
2025-07-03T12:13	10	204	0.8	201	204	525	0.9	524	527	29.8	40.7
2025-07-03T12:14	10	200	3.1	196	205	524	1.1	522	526	29.7	41.0
2025-07-03T12:15	10	204	2.7	199	207	520	1.8	517	524	29.2	42.9
2025-07-03T12:16	10	208	0.8	206	209	521	1.8	518	524	29.5	42.9
2025-07-03T12:17	10	207	7.3	187	213	522	2.0	518	525	29.6	43.1
2025-07-03T12:18	10	171	52.2	73	215	519	4.4	506	523	29.5	43.4
2025-07-03T12:19	10	83	6.6	73	94	498	5.1	491	510	29.4	42.3
2025-07-03T12:20	10	167	41.7	92	212	503	7.4	493	514	28.7	42.8
2025-07-03T12:21	10	139	47.9	79	198	510	4.3	502	515	29.0	43.0
2025-07-03T12:22	10	119	39.0	80	193	501	2.8	498	508	29.3	43.8
2025-07-03T12:23	10	143	48.2	83	205	502	5.8	490	509	29.0	45.3
2025-07-03T12:24	10	101	15.2	84	132	492	1.6	489	495	28.7	46.2
2025-07-03T12:25	10	128	45.7	80	197	492	2.8	488	499	29.1	45.3
2025-07-03T12:26	10	94	41.3	63	182	491	6.7	481	500	28.8	45.7
2025-07-03T12:27	10	61	1.2	60	65	480	1.5	478	483	28.4	47.3
2025-07-03T12:28	10	65	1.4	61	67	478	0.7	476	479	28.5	46.9
2025-07-03T12:29	10	107	49.8	65	193	481	5.3	475	493	28.6	46.8
2025-07-03T12:30	10	121	38.7	73	192	491	3.0	485	495	28.8	46.3
2025-07-03T12:31	10	70	1.7	68	73	484	1.0	482	486	28.9	45.7
2025-07-03T12:32	10	68	1.0	68	71	479	0.9	478	482	29.0	44.5
2025-07-03T12:33	10	78	2.5	72	84	479	0.8	478	481	28.9	44.8
2025-07-03T12:34	10	164	37.6	86	202	488	7.8	477	499	28.8	45.6
2025-07-03T12:35	10	100	24.9	78	161	487	3.0	484	495	28.3	46.7
2025-07-03T12:36	10	118	18.3	86	153	486	1.9	484	489	28.1	47.7
2025-07-03T12:37	10	93	17.7	78	143	484	1.1	482	487	28.6	47.3
2025-07-03T12:38	10	169	15.7	142	191	494	4.9	484	500	29.0	46.1
2025-07-03T12:39	10	180	14.5	144	195	504	2.2	497	506	29.3	45.9
2025-07-03T12:40	10	187	11.1	160	193	505	1.1	502	507	29.3	45.7
2025-07-03T12:41	10	194	0.3	193	195	503	1.2	501	505	28.5	46.3
2025-07-03T12:42	10	189	3.7	184	193	507	1.7	505	511	28.8	45.7
2025-07-03T12:43	10	186	0.4	185	187	512	1.2	510	514	29.7	43.8
2025-07-03T12:44	10	184	0.6	183	185	512	1.6	507	514	29.6	43.8
2025-07-03T12:45	10	182	0.7	181	183	506	1.4	505	510	29.0	44.7
2025-07-03T12:46	10	181	0.2	180	181	504	1.7	502	508	28.6	44.6
2025-07-03T12:47	10	180	0.3	179	180	506	0.8	504	508	28.7	43.9
2025-07-03T12:48	10	178	0.4	178	179	508	1.5	505	510	29.0	43.8
2025-07-03T12:49	10	177	0.4	176	178	509	1.0	508	512	29.1	44.1
2025-07-03T12:50	10	177	0.1	176	177	508	3.5	502	512	29.1	44.2
2025-07-03T12:51	10	176	0.4	175	177	505	1.5	502	507	28.8	44.2
2025-07-03T12:52	10	175	0.3	174	175	506	0.8	504	507	28.9	43.2
2025-07-03T12:53	10	174	0.3	173	175	506	1.0	505	508	28.8	42.6
2025-07-03T12:54	10	173	0.3	173	174	508	0.4	507	509	28.8	42.8
2025-07-03T12:55	10	173	0.2	172	173	509	0.5	508	510	28.6	42.9
2025-07-03T12:56	10	173	0.1	173	173	513	1.1	510	514	29.1	44.2
2025-07-03T12:57	10	173	0.1	172	173	512	1.8	509	514	29.1	43.9
2025-07-03T12:58	10	172	0.2	172	172	507	2.2	504	511	28.7	43.7
2025-07-03T12:59	10	172	0.1	171	172	510	0.9	508	511	28.6	43.5
2025-07-03T13:00	10	171	0.2	171	172	508	1.5	506	511	28.9	43.0
2025-07-03T13:01	10	171	0.1	171	171	508	0.7	507	510	29.2	41.7
2025-07-03T13:02	10	170	0.2	170	171	509	1.9	506	512	29.3	41.5
2025-07-03T13:03	10	170	0.2	170	170	506	1.1	504	508	29.0	42.3
2025-07-03T13:04	10	170	0.2	170	171	508	1.5	505	511	29.0	42.2
2025-07-03T13:05	10	171	0.1	171	171	511	0.6	509	512	29.9	40.7
2025-07-03T13:06	10	172	0.3	171	172	511	0.9	509	512	29.4	41.6
2025-07-03T13:07	10	172	0.1	172	172	508	1.6	506	511	28.8	42.3
2025-07-03T13:08	10	172	0.1	172	172	510	1.3	508	513	29.1	42.3
2025-07-03T13:09	10	172	0.1	172	173	509	1.2	507	512	29.0	43.5
2025-07-03T13:10	10	172	0.1	172	172	512	0.6	511	514	30.0	42.3
2025-07-03T13:11	10	172	0.2	172	173	508	2.9	503	514	29.6	42.6
2025-07-03T13:12	10	173	0.1	173	173	506	1.2	504	509	28.9	44.0
2025-07-03T13:13	10	171	7.1	144	174	509	2.4	506	513	29.1	44.2
2025-07-03T13:14	10	127	9.4	105	143	505	3.8	501	513	29.2	44.3
2025-07-03T13:15	10	138	11.7	106	160	502	1.1	499	504	29.5	44.2
2025-07-03T13:16	10	135	17.7	104	165	497	1.3	495	500	28.5	45.5
2025-07-03T13:17	10	144	27.2	95	177	500	3.2	495	506	28.8	46.2
2025-07-03T13:18	10	174	0.9	173	176	507	1.6	503	509	29.3	45.0
2025-07-03T13:19	10	172	0.4	171	173	506	1.2	503	508	29.5	43.8
2025-07-03T13:20	10	171	0.1	171	171	508	2.4	505	512	29.7	43.3
2025-07-03T13:21	10	170	0.5	169	171	505	1.8	502	508	29.1	43.8
2025-07-03T13:22	10	169	0.3	168	169	502	0.7	502	504	28.5	44.9
2025-07-03T13:23	10	168	0.2	168	169	505	2.5	502	509	28.9	44.6
2025-07-03T13:24	10	168	0.1	167	168	507	1.7	503	509	29.5	43.6
2025-07-03T13:25	10	167	0.3	166	168	503	0.9	502	505	29.0	45.7
2025-07-03T13:26	10	166	0.3	165	166	501	1.9	498	504	28.6	46.5
2025-07-03T13:27	10	165	0.1	165	166	502	2.2	499	506	28.6	47.0
2025-07-03T13:28	10	165	0.1	165	166	502	1.5	500	505	28.9	47.2
2025-07-03T13:29	10	165	0.1	165	165	503	0.8	501	505	29.0	47.3
2025-07-03T13:30	10	164	0.2	164	165	504	1.4	501	507	29.0	47.6
2025-07-03T13:31	10	164	0.1	164	164	504	0.9	503	506	29.2	47.0
2025-07-03T13:32	10	164	0.1	164	164	502	1.8	499	505	29.0	45.7
2025-07-03T13:33	10	164	0.1	164	164	503	0.8	502	505	29.1	45.6
2025-07-03T13:34	10	164	0.1	164	164	500	1.3	497	502	28.7	46.8
2025-07-03T13:35	10	163	0.2	163	164	500	1.3	498	502	28.7	46.5
2025-07-03T13:36	10	163	0.2	163	163	501	1.6	498	503	28.9	46.1
2025-07-03T13:37	10	163	0.2	162	163	500	1.5	499	503	28.8	47.3
2025-07-03T13:38	10	162	0.2	162	162	501	0.9	499	503	28.8	47.3
2025-07-03T13:39	10	161	0.3	161	162	500	1.1	498	502	28.6	47.9
2025-07-03T13:40	10	161	0.1	160	161	501	0.7	500	503	28.7	47.3
2025-07-03T13:41	10	160	0.1	160	161	505	1.2	502	506	29.3	46.3
2025-07-03T13:42	10	160	0.1	160	160	504	1.1	502	506	29.2	46.4
2025-07-03T13:43	10	160	0.4	159	160	498	1.8	496	503	28.6	48.3
2025-07-03T13:44	10	159	0.1	159	159	501	1.3	498	503	28.7	48.2
2025-07-03T13:45	10	159	0.1	159	159	501	0.8	499	502	28.8	47.8
2025-07-03T13:46	10	159	0.1	158	159	502	1.0	501	505	29.2	47.2
2025-07-03T13:47	10	159	0.1	158	159	502	0.9	500	503	29.2	46.9
2025-07-03T13:48	10	159	0.1	159	159	498	1.4	497	501	28.6	48.8
2025-07-03T13:49	10	159	0.1	158	159	500	1.1	498	501	28.8	48.4
2025-07-03T13:50	10	158	0.1	158	159	497	1.4	495	501	28.7	48.3
2025-07-03T13:51	10	158	0.3	157	158	496	1.2	494	498	28.2	50.0
2025-07-03T13:52	10	157	0.1	157	158	498	0.6	497	500	28.7	49.1
2025-07-03T13:53	10	157	0.1	157	158	499	1.6	497	501	28.7	49.0
2025-07-03T13:54	10	157	0.1	157	157	497	0.6	496	498	28.7	48.6
2025-07-03T13:55	10	157	0.2	157	157	497	1.2	495	499	28.7	47.9
2025-07-03T13:56	10	157	0.1	156	157	500	1.6	497	503	28.9	47.8
2025-07-03T13:57	10	156	0.1	156	157	504	1.0	502	506	29.4	46.8
2025-07-03T13:58	10	156	0.1	156	157	501	0.9	499	503	29.2	46.9
2025-07-03T13:59	10	156	0.1	156	156	501	2.0	498	504	29.0	46.8
2025-07-03T14:00	10	156	0.2	156	156	497	0.6	496	499	28.4	47.5
2025-07-03T14:01	10	156	0.2	155	156	499	1.1	497	501	28.4	47.8
2025-07-03T14:02	10	155	0.1	155	155	500	0.4	498	500	28.9	46.6
2025-07-03T14:03	10	155	0.1	155	155	500	1.1	498	502	28.9	46.0
2025-07-03T14:04	10	155	0.1	155	155	499	1.1	496	500	28.8	46.8
2025-07-03T14:05	10	155	0.1	155	155	497	0.9	495	498	28.6	46.9
2025-07-03T14:06	10	154	0.1	154	155	498	1.2	496	500	28.5	47.4
2025-07-03T14:07	10	154	0.2	154	154	498	1.8	495	501	28.6	47.0
2025-07-03T14:08	10	153	0.2	153	154	496	0.7	495	497	28.3	48.8
2025-07-03T14:09	10	153	0.1	153	153	499	0.9	496	501	28.7	47.9
2025-07-03T14:10	10	153	0.1	152	153	500	0.7	499	502	28.9	47.4
2025-07-03T14:11	10	152	0.1	152	153	497	1.5	495	499	28.8	47.4
2025-07-03T14:12	10	152	0.1	152	152	497	1.0	495	499	29.2	46.1
2025-07-03T14:13	10	152	0.1	152	152	498	1.2	495	499	29.2	45.4
2025-07-03T14:14	10	152	0.2	151	152	495	0.7	494	496	28.5	46.5
2025-07-03T14:15	10	151	0.1	151	152	497	1.2	495	500	28.7	46.5
2025-07-03T14:16	10	151	0.1	151	151	497	2.1	494	500	28.8	46.9
2025-07-03T14:17	10	151	0.2	151	151	495	1.1	493	497	28.5	47.4
2025-07-03T14:18	10	150	0.1	150	151	496	0.7	495	498	28.7	47.2
2025-07-03T14:19	10	150	0.1	150	150	500	1.7	497	503	29.3	46.2
2025-07-03T14:20	10	150	0.1	150	150	499	1.1	495	501	29.1	46.6
2025-07-03T14:21	10	150	0.2	150	150	494	1.5	492	497	28.5	48.3
2025-07-03T14:22	10	150	0.2	149	150	493	1.0	492	495	28.5	48.2
2025-07-03T14:23	10	149	0.2	149	150	495	1.5	492	498	28.8	47.5
2025-07-03T14:24	10	149	0.1	149	149	493	1.2	492	496	28.3	48.2
2025-07-03T14:25	10	149	0.1	149	149	496	1.2	494	498	28.7	47.4
2025-07-03T14:26	10	149	0.1	149	149	493	0.9	492	495	28.5	47.8
2025-07-03T14:27	10	148	0.2	148	149	494	1.0	492	497	28.8	47.6
2025-07-03T14:28	10	148	0.2	148	148	493	0.7	492	495	28.6	47.5
2025-07-03T14:29	10	147	0.1	147	148	494	1.7	491	497	28.8	47.5
2025-07-03T14:30	10	147	0.1	147	147	496	1.1	494	498	28.7	47.5
2025-07-03T14:31	10	147	0.1	147	147	494	1.3	493	497	28.5	48.7
2025-07-03T14:32	10	147	0.2	146	147	494	0.6	492	495	28.4	49.1
2025-07-03T14:33	10	146	0.2	146	147	493	0.8	492	495	28.5	48.8
2025-07-03T14:34	10	146	0.2	145	146	492	2.4	488	495	28.5	48.4
2025-07-03T14:35	10	145	0.2	145	145	490	0.9	488	491	28.1	49.0
2025-07-03T14:36	10	145	0.1	144	145	493	1.3	491	496	28.4	48.2
2025-07-03T14:37	10	144	0.3	144	145	492	0.8	490	494	28.3	48.5
2025-07-03T14:38	10	143	0.2	143	144	491	0.8	490	493	28.4	48.4
2025-07-03T14:39	10	143	0.2	143	143	491	0.5	490	492	28.3	49.2
2025-07-03T14:40	10	143	0.2	143	143	491	0.8	490	493	28.8	47.9
2025-07-03T14:41	10	143	0.1	143	143	491	1.5	489	494	28.5	48.2
2025-07-03T14:42	10	143	0.1	142	143	496	1.3	493	498	29.0	47.5
2025-07-03T14:43	10	142	0.1	142	143	497	1.1	494	498	29.3	46.6
2025-07-03T14:44	10	142	0.2	142	143	494	0.8	492	496	29.3	47.1
2025-07-03T14:45	10	142	0.2	142	142	495	1.2	493	497	29.2	47.3
2025-07-03T14:46	10	142	0.1	141	142	494	1.7	491	497	29.0	47.6
2025-07-03T14:47	10	141	0.2	141	142	493	0.8	492	495	29.2	47.2
2025-07-03T14:48	10	141	0.1	141	141	494	2.7	489	497	29.1	47.5
2025-07-03T14:49	10	141	0.2	140	141	490	0.6	488	491	28.5	48.9
2025-07-03T14:50	10	140	0.3	139	141	489	1.1	487	490	28.2	49.8
2025-07-03T14:51	10	139	0.2	139	140	489	0.8	488	491	28.2	50.0
2025-07-03T14:52	10	139	0.1	139	139	491	1.1	488	493	28.6	48.9
2025-07-03T14:53	10	139	0.1	139	139	489	0.9	488	491	28.4	49.3
2025-07-03T14:54	10	138	0.2	138	139	489	1.0	487	491	28.3	49.6
2025-07-03T14:55	10	138	0.2	138	139	488	0.4	487	489	28.0	50.1
2025-07-03T14:56	10	138	0.1	138	138	490	0.8	488	491	28.2	49.7
2025-07-03T14:57	10	137	0.1	137	138	489	0.9	488	491	28.2	49.8
2025-07-03T14:58	10	137	0.2	137	137	488	0.7	487	489	28.5	49.3
2025-07-03T14:59	10	136	0.1	136	137	488	0.6	487	490	28.4	49.6
2025-07-03T15:00	10	136	0.1	136	136	488	1.3	487	492	28.4	49.5
2025-07-03T15:01	10	136	0.1	136	136	491	1.7	488	494	28.8	48.6
2025-07-03T15:02	10	136	0.1	135	136	486	1.1	485	489	28.2	50.1
2025-07-03T15:03	10	135	0.2	135	136	488	1.4	485	490	28.5	49.5
2025-07-03T15:04	10	135	0.1	135	135	491	1.2	488	493	28.9	48.9
2025-07-03T15:05	10	135	0.2	134	135	488	1.9	485	491	28.5	49.3
2025-07-03T15:06	10	134	0.2	134	134	487	1.8	485	490	28.3	49.8
2025-07-03T15:07	10	134	0.2	133	134	487	1.2	485	489	28.1	50.0
2025-07-03T15:08	10	133	0.2	133	133	487	0.5	486	488	28.1	50.3
2025-07-03T15:09	10	132	0.2	132	133	486	0.4	485	487	28.0	50.3
2025-07-03T15:10	10	132	0.1	132	132	487	0.5	486	488	28.3	49.6
2025-07-03T15:11	10	132	0.1	132	132	488	0.7	487	489	28.6	48.4
2025-07-03T15:12	10	132	0.1	131	132	490	0.9	488	491	28.6	48.5
2025-07-03T15:13	10	132	0.1	131	132	490	1.1	488	492	28.6	48.7
2025-07-03T15:14	10	131	0.1	131	132	490	1.1	488	492	28.8	48.2
2025-07-03T15:15	10	131	0.1	131	131	489	0.8	488	490	28.7	48.5
2025-07-03T15:16	10	131	0.1	131	131	491	0.8	489	492	28.7	48.4
2025-07-03T15:17	10	131	0.1	131	131	490	0.8	489	492	28.7	48.5
2025-07-03T15:18	10	130	0.2	130	131	491	0.7	490	492	28.7	48.4
2025-07-03T15:19	10	130	0.1	129	130	490	0.5	489	491	28.8	47.9
2025-07-03T15:20	10	129	0.2	129	130	489	2.0	486	493	28.7	48.2
2025-07-03T15:21	10	129	0.3	128	129	487	0.4	486	487	28.5	48.8
2025-07-03T15:22	10	128	0.3	127	128	487	0.5	486	489	28.7	48.6
2025-07-03T15:23	10	127	0.1	127	127	490	1.1	488	492	28.9	48.4
2025-07-03T15:24	10	127	0.2	126	127	489	1.0	488	491	29.0	47.8
2025-07-03T15:25	10	126	0.1	126	127	488	2.2	484	492	29.0	47.7
2025-07-03T15:26	10	126	0.2	126	126	485	0.9	483	486	28.6	48.5
2025-07-03T15:27	10	125	0.3	125	126	485	0.4	484	486	28.5	48.8
2025-07-03T15:28	10	125	0.2	124	125	484	1.2	482	486	28.6	48.8
2025-07-03T15:29	10	124	0.1	124	124	483	1.2	481	484	28.2	49.7
2025-07-03T15:30	10	124	0.3	123	124	482	0.7	481	484	28.1	49.7
2025-07-03T15:31	10	123	0.1	123	124	485	1.6	482	487	28.5	48.8
2025-07-03T15:32	10	123	0.2	123	123	481	0.6	480	483	28.1	49.6
2025-07-03T15:33	10	122	0.3	122	123	482	0.5	481	483	28.0	50.3
2025-07-03T15:34	10	122	0.1	121	122	484	1.3	481	485	28.3	49.6
2025-07-03T15:35	10	121	0.2	121	121	485	1.4	484	488	28.7	48.4
2025-07-03T15:36	10	121	0.1	120	121	485	0.8	484	488	28.7	48.0
2025-07-03T15:37	10	121	0.2	120	121	482	1.1	481	485	28.4	48.6
2025-07-03T15:38	10	120	0.2	120	120	483	0.7	481	484	28.4	48.7
2025-07-03T15:39	10	120	0.1	119	120	484	0.4	483	485	28.6	48.1
2025-07-03T15:40	10	119	0.1	119	120	484	0.7	483	486	28.8	47.7
2025-07-03T15:41	10	120	0.1	119	120	484	1.4	482	486	28.6	47.5
2025-07-03T15:42	10	119	0.2	119	120	483	0.5	482	484	28.3	48.1
2025-07-03T15:43	10	119	0.2	119	119	484	0.9	482	485	28.6	47.9
2025-07-03T15:44	10	118	0.3	118	119	482	0.6	481	483	28.2	48.4
2025-07-03T15:45	10	118	0.3	117	118	481	1.2	479	483	28.1	49.0
2025-07-03T15:46	10	117	0.1	117	118	483	0.7	481	484	28.3	48.9
2025-07-03T15:47	10	117	0.1	116	117	485	1.1	483	487	28.6	48.4
2025-07-03T15:48	10	117	0.1	116	117	484	1.5	482	486	28.9	47.6
2025-07-03T15:49	10	116	0.1	116	117	483	0.6	482	484	28.6	48.2
2025-07-03T15:50	10	116	0.2	116	116	481	0.7	479	483	28.3	48.7
2025-07-03T15:51	10	115	0.2	115	116	482	1.1	480	484	28.2	48.7
2025-07-03T15:52	10	115	0.2	114	115	481	1.1	480	483	28.4	48.1
2025-07-03T15:53	10	114	0.3	113	115	483	1.3	480	485	28.5	48.1
2025-07-03T15:54	10	113	0.2	113	114	483	0.5	482	484	28.9	47.5
2025-07-03T15:55	10	113	0.2	112	113	480	1.7	478	483	28.5	48.1
2025-07-03T15:56	10	112	0.2	112	113	481	0.9	480	483	28.5	48.5
2025-07-03T15:57	10	112	0.2	111	112	479	1.2	477	482	28.2	48.5
2025-07-03T15:58	10	111	0.2	111	111	478	0.8	477	479	28.0	48.8
2025-07-03T15:59	10	111	0.2	110	111	479	0.7	477	480	28.0	49.2
2025-07-03T16:00	10	110	0.1	110	111	479	0.8	477	480	28.2	48.8
2025-07-03T16:01	10	110	0.1	110	110	479	0.5	478	480	28.3	48.8
2025-07-03T16:02	10	110	0.1	110	110	478	0.6	477	479	28.2	48.9
2025-07-03T16:03	10	110	0.2	109	110	477	0.4	476	478	28.0	48.9
2025-07-03T16:04	10	109	0.3	109	110	477	0.5	476	478	27.9	48.8
2025-07-03T16:05	10	108	0.3	108	109	478	1.0	476	480	27.9	49.1
2025-07-03T16:06	10	108	0.2	107	108	477	0.7	476	479	28.1	48.8
2025-07-03T16:07	10	107	0.2	107	108	478	0.6	477	479	28.3	48.8
2025-07-03T16:08	10	107	0.2	106	107	476	0.6	475	477	28.2	49.2
2025-07-03T16:09	10	106	0.1	106	106	478	0.4	477	479	28.4	48.8
2025-07-03T16:10	10	106	0.1	106	106	476	0.6	475	477	28.3	48.6
2025-07-03T16:11	10	106	0.2	105	106	476	0.4	475	477	28.4	48.1
2025-07-03T16:12	10	105	0.2	105	106	477	0.3	476	478	28.4	48.0
2025-07-03T16:13	10	105	0.1	105	105	478	1.1	476	480	28.6	47.7
2025-07-03T16:14	10	105	0.1	104	105	479	0.4	478	480	28.8	47.5
2025-07-03T16:15	10	104	0.2	104	105	477	1.7	474	480	28.5	47.8
2025-07-03T16:16	10	104	0.2	104	104	475	0.3	474	475	27.9	48.7
2025-07-03T16:17	10	103	0.4	102	104	475	0.4	474	476	27.9	49.1
2025-07-03T16:18	10	102	0.2	102	103	474	0.4	473	475	28.1	49.5
2025-07-03T16:19	10	102	0.2	101	102	475	0.4	474	476	28.2	48.9
2025-07-03T16:20	10	101	0.3	100	102	475	1.0	474	477	28.3	48.8
2025-07-03T16:21	10	100	0.2	100	101	473	0.3	472	474	27.9	49.3
2025-07-03T16:22	10	100	0.2	99	100	472	0.3	472	473	27.8	49.7
2025-07-03T16:23	10	99	0.2	99	100	473	0.4	472	474	27.9	49.7
2025-07-03T16:24	10	99	0.3	98	99	472	0.4	471	473	27.8	49.9
2025-07-03T16:25	10	98	0.2	98	98	473	0.5	472	474	27.9	49.5
2025-07-03T16:26	10	98	0.2	97	98	472	0.3	471	473	27.8	49.7
2025-07-03T16:27	10	97	0.1	97	98	472	0.3	471	473	27.8	49.5
2025-07-03T16:28	10	97	0.2	96	97	474	0.7	472	475	28.2	48.9
2025-07-03T16:29	10	97	0.1	96	97	474	1.0	473	476	28.2	48.9
2025-07-03T16:30	10	96	0.2	96	96	476	0.5	475	477	28.5	48.5
2025-07-03T16:31	10	96	0.2	95	96	474	0.6	473	476	28.3	48.7
2025-07-03T16:32	10	95	0.2	95	96	473	1.0	471	475	28.3	48.3
2025-07-03T16:33	10	95	0.3	94	95	471	0.4	470	472	27.9	49.3
2025-07-03T16:34	10	94	0.2	93	94	472	0.6	470	472	28.0	49.6
2025-07-03T16:35	10	93	0.3	92	94	471	0.5	470	472	27.9	50.0
2025-07-03T16:36	10	92	0.2	92	93	472	0.9	470	474	28.2	49.5
2025-07-03T16:37	10	91	0.2	91	92	473	0.5	472	474	28.3	49.0
2025-07-03T16:38	10	91	0.3	90	91	471	1.0	470	473	28.2	49.0
2025-07-03T16:39	10	90	0.3	90	91	470	0.4	469	471	28.1	49.3
2025-07-03T16:40	10	89	0.2	89	90	469	0.4	468	470	27.8	49.9
2025-07-03T16:41	10	89	0.2	88	89	470	0.6	468	471	28.0	49.7
2025-07-03T16:42	10	88	0.2	88	89	469	0.5	468	470	27.9	50.3
2025-07-03T16:43	10	88	0.2	88	88	470	0.9	468	471	28.0	50.1
2025-07-03T16:44	10	88	0.1	87	88	471	0.4	470	472	28.2	49.9
2025-07-03T16:45	10	88	0.1	87	88	470	1.0	469	472	28.1	49.9
2025-07-03T16:46	10	88	0.1	87	88	468	0.4	467	469	27.6	50.5
2025-07-03T16:47	10	87	0.1	87	87	467	0.6	466	468	27.6	50.7
2025-07-03T16:48	10	87	0.1	87	87	467	0.5	466	468	27.8	50.3
2025-07-03T16:49	10	87	0.1	87	87	469	0.6	467	470	28.0	50.1
2025-07-03T16:50	10	87	0.2	86	87	468	0.4	468	469	28.0	50.1
2025-07-03T16:51	10	86	0.3	85	86	469	0.5	469	470	28.2	49.8
2025-07-03T16:52	10	85	0.4	84	85	468	1.1	466	470	28.0	50.1
2025-07-03T16:53	10	83	0.5	82	84	466	0.4	465	467	27.5	50.9
2025-07-03T16:54	10	82	0.4	81	82	465	0.3	464	465	27.5	51.0
2025-07-03T16:55	10	81	0.1	81	82	466	0.5	465	467	27.7	50.7
2025-07-03T16:56	10	81	0.1	81	81	464	0.4	464	465	27.5	50.7
2025-07-03T16:57	10	80	0.2	80	81	464	0.3	464	465	27.6	51.0
2025-07-03T16:58	10	80	0.2	79	80	464	0.4	463	465	27.6	51.0
2025-07-03T16:59	10	79	0.3	78	79	465	0.4	464	465	27.8	50.7
2025-07-03T17:00	10	78	0.2	78	79	464	0.5	463	465	27.7	50.8
2025-07-03T17:01	10	78	0.1	77	78	464	0.4	463	465	27.6	51.2
2025-07-03T17:02	10	77	0.3	76	77	463	0.4	462	464	27.5	51.4
2025-07-03T17:03	10	76	0.2	75	76	463	0.3	462	463	27.4	51.6
2025-07-03T17:04	10	75	0.2	75	76	462	0.4	462	463	27.4	51.6
2025-07-03T17:05	10	75	0.3	74	75	462	0.5	461	464	27.4	51.4
2025-07-03T17:06	10	74	0.1	74	75	462	0.4	461	463	27.5	51.3
2025-07-03T17:07	10	74	0.2	74	74	462	0.4	461	463	27.4	51.5
2025-07-03T17:08	10	73	0.1	73	74	462	0.3	461	463	27.6	51.5
2025-07-03T17:09	10	73	0.2	73	73	462	0.3	461	462	27.4	51.7
2025-07-03T17:10	10	73	0.2	72	73	462	0.3	461	462	27.4	52.2
2025-07-03T17:11	10	72	0.2	72	73	461	0.3	461	462	27.4	52.4
2025-07-03T17:12	10	72	0.2	71	72	462	0.4	462	464	27.5	52.0
2025-07-03T17:13	10	71	0.1	71	72	462	0.5	461	463	27.5	52.0
2025-07-03T17:14	10	71	0.2	70	71	460	0.8	459	461	27.3	52.7
2025-07-03T17:15	10	70	0.3	69	70	459	0.3	459	460	27.1	53.7
2025-07-03T17:16	10	69	0.4	68	69	459	0.3	459	460	27.0	54.0
2025-07-03T17:17	10	68	0.2	67	68	460	0.6	459	461	27.3	53.7
2025-07-03T17:18	10	67	0.2	67	68	460	0.6	459	461	27.3	53.7
2025-07-03T17:19	10	67	0.2	67	67	458	0.4	458	459	27.0	54.4
2025-07-03T17:20	10	67	0.2	66	67	458	0.3	458	459	27.0	54.5
2025-07-03T17:21	10	66	0.3	66	66	458	0.3	457	459	27.0	54.3
2025-07-03T17:22	10	65	0.2	65	66	458	0.5	457	459	27.0	54.1
2025-07-03T17:23	10	65	0.2	64	65	459	0.4	458	460	27.1	53.7
2025-07-03T17:24	10	64	0.2	64	65	458	0.4	457	458	27.0	54.0
2025-07-03T17:25	10	64	0.3	63	64	458	0.3	457	459	27.0	54.4
2025-07-03T17:26	10	63	0.3	62	64	457	0.4	457	459	26.9	54.4
2025-07-03T17:27	10	62	0.3	61	63	457	0.5	456	458	26.8	54.9
2025-07-03T17:28	10	61	0.2	60	62	457	0.4	456	457	26.9	54.5
2025-07-03T17:29	10	61	0.3	60	61	457	0.4	456	458	27.0	54.3
2025-07-03T17:30	10	60	0.2	60	61	457	0.5	456	459	27.0	54.4
2025-07-03T17:31	10	60	0.3	59	60	456	0.3	455	457	26.8	55.0
2025-07-03T17:32	10	59	0.3	58	60	456	0.3	455	457	26.8	55.1
2025-07-03T17:33	10	59	0.2	58	59	456	0.4	455	457	26.8	55.0
2025-07-03T17:34	10	58	0.4	57	58	454	0.5	453	455	26.6	55.2
2025-07-03T17:35	10	56	0.4	56	57	454	0.3	454	455	26.7	55.2
2025-07-03T17:36	10	55	0.3	55	56	454	0.5	453	455	26.6	55.3
2025-07-03T17:37	10	55	0.3	54	55	453	0.3	452	454	26.5	55.4
2025-07-03T17:38	10	54	0.2	54	54	453	0.3	453	454	26.6	55.5
2025-07-03T17:39	10	54	0.2	53	54	453	0.3	452	454	26.5	55.7
2025-07-03T17:40	10	53	0.3	52	53	453	0.4	452	454	26.6	55.5
2025-07-03T17:41	10	52	0.2	51	52	453	0.3	452	454	26.6	55.8
2025-07-03T17:42	10	51	0.2	51	52	452	0.2	452	453	26.5	56.4
2025-07-03T17:43	10	51	0.2	50	51	452	0.3	452	453	26.5	56.6
2025-07-03T17:44	10	50	0.2	50	50	452	0.2	451	453	26.5	56.5
2025-07-03T17:45	10	50	0.2	49	50	452	0.3	451	452	26.4	56.6
2025-07-03T17:46	10	49	0.2	49	49	452	0.3	451	453	26.4	56.6
2025-07-03T17:47	10	49	0.1	48	49	452	0.2	451	453	26.6	56.9
2025-07-03T17:48	10	48	0.2	48	48	452	0.3	451	452	26.5	56.9
2025-07-03T17:49	10	47	0.2	47	48	451	0.2	451	452	26.5	57.0
2025-07-03T17:50	10	47	0.2	46	47	451	0.3	450	452	26.4	57.0
2025-07-03T17:51	10	46	0.2	46	46	451	0.3	450	451	26.4	57.1
2025-07-03T17:52	10	45	0.2	45	46	450	0.3	450	451	26.4	56.9
2025-07-03T17:53	10	45	0.2	44	45	450	0.3	449	451	26.3	57.3
2025-07-03T17:54	10	44	0.3	43	44	450	0.4	449	451	26.4	57.2
2025-07-03T17:55	10	43	0.2	43	44	450	0.3	449	451	26.4	57.4
2025-07-03T17:56	10	43	0.2	42	43	450	0.3	449	451	26.4	57.7
2025-07-03T17:57	10	42	0.4	41	42	449	0.2	449	450	26.3	58.4
2025-07-03T17:58	10	41	0.2	41	41	449	0.2	449	450	26.3	58.5
2025-07-03T17:59	10	40	0.2	40	41	449	0.2	449	450	26.4	58.5
2025-07-03T18:00	10	40	0.3	39	40	449	0.3	448	449	26.3	58.8
2025-07-03T18:01	10	39	0.3	38	39	449	0.3	448	449	26.2	59.2
2025-07-03T18:02	10	38	0.1	38	38	448	0.2	448	449	26.2	59.4
2025-07-03T18:03	10	38	0.1	37	38	448	0.3	448	449	26.2	59.5
2025-07-03T18:04	10	37	0.2	37	38	448	0.2	448	449	26.3	59.3
2025-07-03T18:05	10	37	0.2	36	37	448	0.3	447	449	26.3	59.5
2025-07-03T18:06	10	36	0.3	36	36	448	0.2	447	448	26.2	59.6
2025-07-03T18:07	10	35	0.3	34	36	447	0.2	447	448	26.2	59.6
2025-07-03T18:08	10	34	0.3	33	35	447	0.2	447	448	26.2	59.5
2025-07-03T18:09	10	33	0.3	32	34	447	0.4	446	448	26.2	59.3
2025-07-03T18:10	10	32	0.3	32	33	446	0.3	446	447	26.1	59.4
2025-07-03T18:11	10	31	0.3	31	32	446	0.2	446	447	26.2	59.4
2025-07-03T18:12	10	30	0.2	30	31	446	0.3	446	447	26.2	59.3
2025-07-03T18:13	10	29	0.5	29	30	446	0.2	445	446	26.2	59.2
2025-07-03T18:14	10	29	0.3	28	29	446	0.2	445	446	26.2	59.3
2025-07-03T18:15	10	28	0.2	28	29	445	0.2	445	446	26.2	59.3
2025-07-03T18:16	10	28	0.1	28	28	445	0.2	445	446	26.1	59.2
2025-07-03T18:17	10	28	0.1	28	28	445	0.2	445	446	26.1	59.0
2025-07-03T18:18	10	28	0.3	27	28	445	0.2	445	446	26.1	59.2
2025-07-03T18:19	10	27	0.4	27	28	445	0.3	445	446	26.1	59.3
2025-07-03T18:20	10	27	0.7	24	27	445	0.3	444	446	26.0	59.5
2025-07-03T18:21	10	22	1.1	21	25	445	0.3	445	446	26.1	59.6
2025-07-03T18:22	10	20	0.4	19	21	445	0.3	445	446	26.1	59.8
2025-07-03T18:23	10	19	0.6	17	19	445	0.2	444	446	26.0	59.9
2025-07-03T18:24	10	16	0.5	16	17	444	0.3	444	445	25.8	60.3
2025-07-03T18:25	10	15	0.4	14	16	444	0.3	444	445	25.9	60.5
2025-07-03T18:26	10	14	0.3	14	14	444	0.2	443	444	25.8	60.8
2025-07-03T18:27	10	13	0.2	13	14	444	0.2	443	444	25.8	61.1
2025-07-03T18:28	10	13	0.1	13	13	444	0.3	443	444	25.8	61.2
2025-07-03T18:29	10	13	0.1	12	13	443	0.3	443	444	25.8	61.3
2025-07-03T18:30	10	12	0.1	12	13	444	0.3	443	444	25.8	61.4
2025-07-03T18:31	10	12	0.2	12	12	444	0.2	443	444	25.7	61.6
2025-07-03T18:32	10	11	0.2	11	12	443	0.3	443	444	25.7	61.9
2025-07-03T18:33	10	11	0.1	10	11	443	0.2	443	444	25.6	62.1
2025-07-03T18:34	10	10	0.1	10	11	443	0.2	443	443	25.6	62.2
2025-07-03T18:35	10	10	0.1	10	10	443	0.2	443	444	25.6	62.3
2025-07-03T18:36	10	10	0.1	10	11	443	0.2	442	443	25.6	62.4
2025-07-03T18:37	10	10	0.1	10	11	443	0.3	443	444	25.6	62.3
2025-07-03T18:38	10	10	0.1	10	10	443	0.3	443	444	25.6	62.3
2025-07-03T18:39	10	10	0.1	10	10	443	0.2	442	443	25.6	62.5
2025-07-03T18:40	10	10	0.1	10	10	442	0.3	442	443	25.6	62.5
2025-07-03T18:41	10	9	0.1	9	10	442	0.2	442	442	25.6	62.7
2025-07-03T18:42	10	9	0.1	9	10	442	0.2	441	442	25.6	62.8
2025-07-03T18:43	10	9	0.1	9	9	441	0.2	441	442	25.5	63.2
2025-07-03T18:44	10	9	0.2	9	10	441	0.2	441	442	25.5	63.4
2025-07-03T18:45	10	9	0.2	8	9	441	0.3	440	441	25.5	63.6
2025-07-03T18:46	10	8	0.2	8	9	440	0.3	440	441	25.4	63.9
2025-07-03T18:47	10	8	0.2	8	9	440	0.3	439	441	25.4	64.1
2025-07-03T18:48	10	8	0.2	8	9	440	0.3	439	440	25.4	64.1
2025-07-03T18:49	10	8	0.1	8	8	439	0.3	439	440	25.4	63.9
2025-07-03T18:50	10	8	0.2	8	9	439	0.3	439	440	25.3	63.9
2025-07-03T18:51	10	8	0.2	8	9	439	0.3	439	440	25.3	64.2
2025-07-03T18:52	10	8	0.1	8	9	439	0.3	438	440	25.3	64.0
2025-07-03T18:53	10	8	0.2	8	9	439	0.2	439	440	25.3	64.2
2025-07-03T18:54	10	8	0.1	8	8	439	0.2	439	439	25.3	64.3
2025-07-03T18:55	10	8	0.1	8	8	439	0.3	438	439	25.2	64.3
2025-07-03T18:56	10	8	0.1	7	8	439	0.2	438	439	25.2	64.5
2025-07-03T18:57	10	7	0.1	7	8	439	0.2	438	439	25.2	64.6
2025-07-03T18:58	10	7	0.1	7	7	438	0.3	438	439	25.2	64.5
2025-07-03T18:59	10	7	0.1	6	7	438	0.2	438	439	25.2	64.5
2025-07-03T19:00	10	6	0.1	6	7	438	0.3	438	439	25.2	64.3
2025-07-03T19:01	10	6	0.1	6	6	438	0.3	438	439	25.2	64.1
2025-07-03T19:02	10	6	0.1	5	6	438	0.2	437	438	25.2	63.6
2025-07-03T19:03	10	5	0.1	5	6	437	0.3	437	438	25.1	63.6
2025-07-03T19:04	10	5	0.1	5	5	437	0.2	437	438	25.1	63.7
2025-07-03T19:05	10	5	0.1	5	5	437	0.3	436	438	25.1	63.8
2025-07-03T19:06	10	5	0.1	4	5	437	0.2	436	437	25.1	64.2
2025-07-03T19:07	10	4	0.1	4	5	436	0.3	435	437	25.0	64.1
2025-07-03T19:08	10	4	0.1	4	4	436	0.3	435	436	25.0	64.2
2025-07-03T19:09	10	4	0.1	3	4	436	0.2	435	436	24.9	64.3
2025-07-03T19:10	10	3	0.1	3	4	435	0.3	434	436	24.9	64.4
2025-07-03T19:11	10	3	0.1	3	3	435	0.2	434	435	24.9	64.5
2025-07-03T19:12	10	3	0.1	3	3	434	0.2	434	435	24.9	64.5
2025-07-03T19:13	10	3	0.1	2	3	434	0.3	433	435	24.9	64.5
2025-07-03T19:14	10	2	0.1	2	3	434	0.2	433	434	24.8	64.6
2025-07-03T19:15	10	2	0.1	2	3	433	0.3	433	434	24.8	64.9
2025-07-03T19:16	10	2	0.1	2	2	433	0.2	433	434	24.8	64.9
2025-07-03T19:17	10	2	0.1	2	2	433	0.3	433	434	24.8	65.0
2025-07-03T19:18	10	2	0.1	1	2	433	0.3	432	434	24.8	64.9
2025-07-03T19:19	10	1	0.1	1	2	433	0.3	432	433	24.8	64.8
2025-07-03T19:20	10	1	0.1	1	2	432	0.3	431	433	24.7	65.2
2025-07-03T19:21	10	1	0.1	1	1	432	0.3	431	432	24.7	65.4
2025-07-03T19:22	10	1	0.1	1	1	431	0.3	430	432	24.6	65.8
2025-07-03T19:23	10	1	0.1	1	1	430	0.2	429	430	24.6	66.2
2025-07-03T19:24	10	1	0.1	1	1	430	0.3	429	430	24.6	66.1
2025-07-03T19:25	10	1	0.1	0	1	429	0.2	429	430	24.5	66.3
2025-07-03T19:26	10	1	0.1	1	1	429	0.2	428	429	24.5	66.3
2025-07-03T19:27	10	1	0.1	0	1	429	0.2	428	429	24.5	66.6
2025-07-03T19:28	10	1	0.1	0	1	428	0.3	427	428	24.5	66.7
2025-07-03T19:29	10	1	0.1	0	1	428	0.4	427	428	24.5	66.7
2025-07-03T19:30	10	1	0.1	0	1	428	0.3	427	429	24.5	66.8
2025-07-03T19:31	10	1	0.1	0	1	428	0.2	427	428	24.5	66.8
2025-07-03T19:32	10	1	0.1	0	1	427	0.3	426	428	24.5	67.0
2025-07-03T19:33	10	1	0.1	0	1	426	0.2	426	427	24.4	67.1
2025-07-03T19:34	10	0	0.1	0	1	426	0.2	425	426	24.4	67.1
2025-07-03T19:35	10	0	0.1	0	1	426	0.2	425	426	24.5	66.9
2025-07-03T19:36	10	0	0.1	0	1	426	0.2	425	426	24.4	67.2
2025-07-03T19:37	10	0	0.0	0	0	426	0.2	425	426	24.4	67.1
2025-07-03T19:38	10	0	0.1	0	0	427	0.2	426	427	24.5	66.9
2025-07-03T19:39	10	0	0.1	0	0	427	0.2	426	427	24.4	67.3
2025-07-03T19:40	10	0	0.1	0	1	426	0.2	426	427	24.4	67.4
2025-07-03T19:41	10	0	0.1	0	0	426	0.3	426	427	24.4	67.2
2025-07-03T19:42	10	0	0.1	0	0	427	0.2	426	427	24.4	67.2
2025-07-03T19:43	10	0	0.1	0	0	427	0.2	427	427	24.4	67.0
2025-07-03T19:44	10	0	0.0	0	0	427	0.2	426	427	24.4	67.2
2025-07-03T19:45	10	0	0.1	0	0	427	0.3	426	427	24.4	67.3
2025-07-03T19:46	10	0	0.1	0	0	426	0.3	425	426	24.4	67.4
2025-07-03T19:47	10	0	0.1	0	0	425	0.4	424	426	24.3	67.7
2025-07-03T19:48	10	0	0.1	0	0	424	0.3	424	425	24.3	67.7
2025-07-03T19:49	10	0	0.1	0	0	424	0.2	424	425	24.3	67.9
2025-07-03T19:50	10	0	0.1	0	0	424	0.3	424	425	24.3	68.1
2025-07-03T19:51	10	0	0.0	0	0	424	0.2	424	424	24.2	68.2
2025-07-03T19:52	10	0	0.1	0	1	424	0.2	423	424	24.2	68.2
2025-07-03T19:53	10	0	0.1	0	0	423	0.2	423	424	24.2	68.0
2025-07-03T19:54	10	0	0.0	0	0	423	0.2	423	424	24.2	67.9
2025-07-03T19:55	10	0	0.1	0	0	423	0.3	422	424	24.2	68.3
2025-07-03T19:56	10	0	0.1	0	0	423	0.2	422	423	24.2	68.3
2025-07-03T19:57	10	0	0.0	0	0	422	0.2	422	423	24.2	68.2
2025-07-03T19:58	10	0	0.1	0	0	422	0.3	422	423	24.1	68.6
2025-07-03T19:59	10	0	0.1	0	0	422	0.3	422	423	24.1	68.2
2025-07-03T20:00	10	0	0.1	0	0	422	0.2	422	423	24.2	68.0
2025-07-03T20:01	10	0	0.0	0	0	422	0.2	422	423	24.1	67.6
2025-07-03T20:02	10	0	0.1	0	1	422	0.3	422	423	24.2	67.6
2025-07-03T20:03	10	0	0.1	0	0	422	0.1	422	423	24.1	67.9
2025-07-03T20:04	10	0	0.1	0	0	422	0.2	422	423	24.1	67.8
2025-07-03T20:05	10	0	0.1	0	0	422	0.2	421	422	24.1	68.0
2025-07-03T20:06	10	0	0.1	0	0	422	0.2	421	422	24.1	68.0
2025-07-03T20:07	10	0	0.1	0	0	421	0.3	421	422	24.0	68.2
2025-07-03T20:08	10	0	0.1	0	0	421	0.2	421	422	24.0	68.0
2025-07-03T20:09	10	0	0.2	0	1	421	0.3	421	422	24.0	67.7
2025-07-03T20:10	10	0	0.2	0	0	422	0.5	421	423	24.0	67.1
2025-07-03T20:11	10	0	0.2	0	1	423	0.6	422	424	24.1	66.7
2025-07-03T20:12	10	0	0.2	0	1	424	0.3	423	424	24.1	66.6
2025-07-03T20:13	10	0	0.2	0	1	424	0.3	423	425	24.1	66.5
2025-07-03T20:14	10	0	0.2	0	0	424	0.4	423	425	24.1	66.0
2025-07-03T20:15	10	0	0.2	0	0	424	0.3	424	425	24.1	66.0
2025-07-03T20:16	10	0	0.2	0	1	424	0.3	424	425	24.0	66.2
2025-07-03T20:17	10	0	0.2	0	1	424	0.3	423	424	24.0	66.3
2025-07-03T20:18	10	0	0.1	0	1	424	0.3	423	424	24.0	66.3
2025-07-03T20:19	10	0	0.2	0	1	424	0.3	424	425	24.0	65.8
2025-07-03T20:20	10	0	0.1	0	0	424	0.4	423	425	24.0	65.9
2025-07-03T20:21	10	0	0.2	0	0	424	0.3	423	425	24.0	66.0
2025-07-03T20:22	10	0	0.2	0	1	423	0.3	422	424	23.9	66.4
2025-07-03T20:23	10	0	0.2	0	0	423	0.3	422	424	23.9	66.4
2025-07-03T20:24	10	0	0.1	0	1	423	0.3	422	424	23.9	66.5
2025-07-03T20:25	10	0	0.2	0	0	423	0.3	423	424	23.9	66.3
2025-07-03T20:26	10	0	0.2	-1	0	423	0.3	423	424	23.9	66.7
2025-07-03T20:27	10	0	0.2	0	0	423	0.3	422	424	23.8	67.0
2025-07-03T20:28	10	0	0.2	0	0	422	0.3	421	423	23.8	66.8
2025-07-03T20:29	10	0	0.1	0	0	423	0.4	422	423	23.8	66.6
2025-07-03T20:30	10	0	0.1	0	0	422	0.2	422	423	23.8	66.7
2025-07-03T20:31	10	0	0.1	0	0	423	0.2	422	423	23.8	66.6
2025-07-03T20:32	10	0	0.2	0	0	423	0.2	422	423	23.8	66.8
2025-07-03T20:33	10	0	0.1	0	0	422	0.3	422	423	23.8	66.8
2025-07-03T20:34	10	0	0.1	0	0	423	0.3	422	424	23.8	66.4
2025-07-03T20:35	10	0	0.1	0	0	423	0.4	422	424	23.8	66.4
2025-07-03T20:36	10	0	0.2	-1	1	423	0.3	423	424	23.8	66.3
2025-07-03T20:37	10	0	0.1	0	0	423	0.2	422	423	23.8	66.3
2025-07-03T20:38	10	0	0.1	0	0	423	0.2	422	423	23.8	66.3
2025-07-03T20:39	10	0	0.1	0	0	423	0.2	422	423	23.8	66.3
2025-07-03T20:40	10	0	0.1	0	0	423	0.2	422	424	23.8	66.2
2025-07-03T20:41	10	0	0.1	0	0	423	0.2	422	423	23.8	66.2
2025-07-03T20:42	10	0	0.1	0	0	423	0.4	423	424	23.8	66.0
2025-07-03T20:43	10	0	0.0	0	0	423	0.2	423	424	23.8	66.1
2025-07-03T20:44	10	0	0.1	0	0	423	0.3	422	424	23.8	66.2
2025-07-03T20:45	10	0	0.1	0	0	423	0.2	422	423	23.8	66.2
2025-07-03T20:46	10	0	0.1	0	0	422	0.2	422	423	23.8	66.4
2025-07-03T20:47	10	0	0.0	0	0	423	0.3	422	423	23.8	66.1
2025-07-03T20:48	10	0	0.1	0	0	423	0.3	422	424	23.8	65.8
2025-07-03T20:49	10	0	0.1	0	0	423	0.2	422	423	23.9	65.7
2025-07-03T20:50	10	0	0.1	0	0	423	0.2	422	423	23.8	66.0
2025-07-03T20:51	10	0	0.0	0	0	423	0.2	422	423	23.8	65.9
2025-07-03T20:52	10	0	0.1	0	0	423	0.3	422	423	23.8	66.1
2025-07-03T20:53	10	0	0.1	0	0	423	0.3	422	423	23.8	66.1
2025-07-03T20:54	10	0	0.1	0	0	423	0.2	422	423	23.8	66.0
2025-07-03T20:55	10	0	0.1	0	0	423	0.3	422	424	23.7	66.2
2025-07-03T20:56	10	0	0.0	0	0	422	0.3	422	423	23.7	66.3
2025-07-03T20:57	10	0	0.1	0	0	423	0.2	422	423	23.7	66.3
2025-07-03T20:58	10	0	0.1	0	0	423	0.4	422	423	23.7	66.2
2025-07-03T20:59	10	0	0.1	0	0	422	0.2	422	423	23.7	66.2
2025-07-03T21:00	10	0	0.1	0	0	423	0.3	422	423	23.7	66.2
2025-07-03T21:01	10	0	0.1	0	0	422	0.3	422	423	23.7	66.4
2025-07-03T21:02	10	0	0.0	0	0	422	0.2	422	423	23.6	66.7
2025-07-03T21:03	10	0	0.0	0	0	422	0.3	422	423	23.6	66.5
2025-07-03T21:04	10	0	0.1	0	0	423	0.2	422	423	23.6	66.5
2025-07-03T21:05	10	0	0.1	0	0	422	0.3	421	423	23.6	66.8
2025-07-03T21:06	10	0	0.1	0	0	421	0.2	421	422	23.5	67.1
2025-07-03T21:07	10	0	0.1	0	0	422	0.3	421	422	23.5	66.9
2025-07-03T21:08	10	0	0.0	0	0	422	0.3	421	422	23.6	66.8
2025-07-03T21:09	10	0	0.0	0	0	422	0.2	421	422	23.5	67.0
2025-07-03T21:10	10	0	0.0	0	0	421	0.3	421	422	23.5	67.3
2025-07-03T21:11	10	0	0.1	0	0	421	0.2	421	421	23.4	67.5
2025-07-03T21:12	10	0	0.1	0	0	421	0.4	420	422	23.5	67.3
2025-07-03T21:13	10	0	0.1	0	0	422	0.3	421	422	23.5	67.2
2025-07-03T21:14	10	0	0.1	0	0	421	0.2	421	422	23.5	67.3
2025-07-03T21:15	10	0	0.1	0	0	421	0.3	421	422	23.5	67.4
2025-07-03T21:16	10	0	0.0	0	0	421	0.2	420	421	23.4	67.5
2025-07-03T21:17	10	0	0.1	0	0	421	0.3	420	421	23.4	67.6
2025-07-03T21:18	10	0	0.1	0	0	421	0.2	420	421	23.4	67.7
2025-07-03T21:19	10	0	0.1	0	0	421	0.2	420	421	23.4	67.8
2025-07-03T21:20	10	0	0.1	0	0	421	0.2	420	421	23.4	67.8
2025-07-03T21:21	10	0	0.1	0	0	421	0.3	420	421	23.4	67.6
2025-07-03T21:22	10	0	0.0	0	0	420	0.3	420	421	23.3	68.0
2025-07-03T21:23	10	0	0.1	0	0	420	0.2	419	420	23.3	68.2
2025-07-03T21:24	10	0	0.0	0	0	420	0.2	419	420	23.3	68.4
2025-07-03T21:25	10	0	0.1	0	0	420	0.2	419	420	23.3	68.3
2025-07-03T21:26	10	0	0.0	0	0	419	0.2	419	420	23.2	68.4
2025-07-03T21:27	10	0	0.1	0	0	419	0.2	418	419	23.2	68.5
2025-07-03T21:28	10	0	0.1	0	0	419	0.3	419	420	23.2	68.3
2025-07-03T21:29	10	0	0.1	0	0	419	0.2	419	420	23.3	68.2
2025-07-03T21:30	10	0	0.1	0	0	419	0.4	419	421	23.2	68.4
2025-07-03T21:31	10	0	0.1	0	0	420	0.2	419	420	23.2	68.3
2025-07-03T21:32	10	0	0.1	0	0	420	0.3	419	421	23.2	68.1
2025-07-03T21:33	10	0	0.1	0	0	420	0.2	420	420	23.2	68.1
2025-07-03T21:34	10	0	0.0	0	0	420	0.3	419	421	23.2	67.8
2025-07-03T21:35	10	0	0.1	0	0	420	0.2	420	421	23.2	68.0
2025-07-03T21:36	10	0	0.1	0	0	420	0.3	419	421	23.2	67.8
2025-07-03T21:37	10	0	0.1	0	0	420	0.2	420	421	23.2	68.0
2025-07-03T21:38	10	0	0.1	0	0	420	0.2	419	420	23.2	68.0
2025-07-03T21:39	10	0	0.1	0	0	420	0.3	419	421	23.2	67.7
2025-07-03T21:40	10	0	0.1	0	0	420	0.3	419	421	23.1	67.8
2025-07-03T21:41	10	0	0.1	0	0	421	0.5	420	422	23.2	67.3
2025-07-03T21:42	10	0	0.1	0	0	421	0.2	420	421	23.1	67.5
2025-07-03T21:43	10	0	0.1	0	0	421	0.2	420	421	23.1	67.2
2025-07-03T21:44	10	0	0.1	0	0	421	0.3	420	421	23.1	66.9
2025-07-03T21:45	10	0	0.1	0	0	421	0.3	420	421	23.1	67.1
2025-07-03T21:46	10	0	0.1	0	0	421	0.2	420	421	23.0	67.3
2025-07-03T21:47	10	0	0.1	0	0	420	0.3	420	421	23.0	67.5
2025-07-03T21:48	10	0	0.1	0	0	420	0.2	420	421	23.0	67.6
2025-07-03T21:49	10	0	0.1	0	0	420	0.3	419	421	22.9	67.8
2025-07-03T21:50	10	0	0.1	0	0	420	0.3	419	420	22.9	67.9
2025-07-03T21:51	10	0	0.1	0	0	420	0.3	419	421	22.8	68.0
2025-07-03T21:52	10	0	0.1	0	0	419	0.3	419	420	22.8	68.3
2025-07-03T21:53	10	0	0.1	0	0	420	0.3	419	420	22.8	68.0
2025-07-03T21:54	10	0	0.1	0	0	420	0.2	419	420	22.8	68.2
2025-07-03T21:55	10	0	0.1	0	0	419	0.4	419	420	22.8	68.3
2025-07-03T21:56	10	0	0.1	0	0	419	0.3	419	420	22.7	68.3
2025-07-03T21:57	10	0	0.1	-1	0	419	0.4	419	420	22.7	68.3
2025-07-03T21:58	10	0	0.1	0	0	420	0.2	419	420	22.7	68.4
2025-07-03T21:59	10	0	0.1	0	0	419	0.3	419	420	22.7	68.5
2025-07-03T22:00	10	0	0.1	0	0	419	0.3	418	420	22.6	68.8
2025-07-03T22:01	10	0	0.1	0	0	419	0.2	419	420	22.6	68.7
2025-07-03T22:02	10	0	0.1	0	0	419	0.2	419	420	22.6	68.6
2025-07-03T22:03	10	0	0.1	0	0	419	0.2	419	420	22.6	68.9
2025-07-03T22:04	10	0	0.1	0	0	419	0.3	418	419	22.5	69.1
2025-07-03T22:05	10	0	0.0	0	0	419	0.2	418	420	22.5	69.2
2025-07-03T22:06	10	0	0.0	0	0	419	0.2	418	419	22.5	69.5
2025-07-03T22:07	10	0	0.1	0	0	419	0.3	419	420	22.5	69.1
2025-07-03T22:08	10	0	0.1	0	0	419	0.2	419	420	22.5	69.3
2025-07-03T22:09	10	0	0.0	0	0	420	0.3	419	420	22.5	69.1
2025-07-03T22:10	10	0	0.1	0	0	420	0.3	419	420	22.5	69.1
2025-07-03T22:11	10	0	0.1	0	0	420	0.3	419	420	22.5	69.4
2025-07-03T22:12	10	0	0.0	0	0	420	0.4	419	421	22.6	68.8
2025-07-03T22:13	10	0	0.1	0	0	421	0.2	420	421	22.6	68.8
2025-07-03T22:14	10	0	0.1	0	0	421	0.2	420	422	22.6	68.7
2025-07-03T22:15	10	0	0.1	0	0	421	0.2	420	421	22.6	68.7
2025-07-03T22:16	10	0	0.1	0	0	421	0.3	420	422	22.6	68.9
2025-07-03T22:17	10	0	0.1	0	0	421	0.4	421	422	22.6	68.6
2025-07-03T22:18	10	0	0.1	0	0	421	0.3	421	422	22.6	68.6
2025-07-03T22:19	10	0	0.1	0	0	421	0.3	420	422	22.6	68.9
2025-07-03T22:20	10	0	0.1	0	0	421	0.2	421	422	22.6	68.8
2025-07-03T22:21	10	0	0.1	0	0	421	0.2	420	422	22.5	69.0
2025-07-03T22:22	10	0	0.1	0	0	421	0.3	420	422	22.5	69.1
2025-07-03T22:23	10	0	0.1	0	0	421	0.2	420	421	22.6	68.9
2025-07-03T22:24	10	0	0.1	0	0	421	0.2	420	421	22.5	69.2
2025-07-03T22:25	10	0	0.1	0	0	420	0.3	420	421	22.6	68.9
2025-07-03T22:26	10	0	0.1	0	0	420	0.2	419	420	22.5	68.9
2025-07-03T22:27	10	0	0.1	0	0	420	0.2	420	420	22.5	69.0
2025-07-03T22:28	10	0	0.1	0	0	420	0.4	419	420	22.5	69.2
2025-07-03T22:29	10	0	0.1	0	0	419	0.2	419	420	22.5	69.5
2025-07-03T22:30	10	0	0.1	0	0	419	0.2	418	419	22.5	69.3
2025-07-03T22:31	10	0	0.1	0	0	419	0.2	418	419	22.5	69.3
2025-07-03T22:32	10	0	0.0	0	0	419	0.2	418	419	22.5	69.1
2025-07-03T22:33	10	0	0.1	0	0	419	0.3	418	419	22.5	69.2
2025-07-03T22:34	10	0	0.0	0	0	418	0.2	418	419	22.4	69.5
2025-07-03T22:35	10	0	0.1	0	0	418	0.3	418	419	22.4	69.7
2025-07-03T22:36	10	0	0.1	0	0	418	0.3	417	418	22.4	69.7
2025-07-03T22:37	10	0	0.1	0	0	418	0.2	417	418	22.3	68.5
2025-07-03T22:38	10	0	0.1	0	0	417	0.2	417	418	22.2	68.5
2025-07-03T22:39	10	0	0.1	0	0	417	0.2	416	417	22.4	69.7
2025-07-03T22:40	10	0	0.1	0	0	417	0.2	416	417	22.4	69.7
2025-07-03T22:41	10	0	0.1	0	0	416	0.2	416	417	22.4	69.7
2025-07-03T22:42	10	0	0.1	0	0	416	0.2	416	417	22.4	69.7
2025-07-03T22:43	10	0	0.1	0	0	416	0.2	416	417	22.2	70.6
2025-07-03T22:44	10	0	0.1	0	0	416	0.3	415	417	22.1	71.1
2025-07-03T22:45	10	0	0.1	0	0	416	0.3	415	417	22.1	71.2
2025-07-03T22:46	10	0	0.1	0	0	416	0.2	416	417	22.2	71.0
2025-07-03T22:47	10	0	0.1	0	0	416	0.2	416	416	22.2	70.8
2025-07-03T22:48	10	0	0.0	0	0	416	0.2	416	416	22.2	70.7
2025-07-03T22:49	10	0	0.0	0	0	416	0.2	415	416	22.1	71.0
2025-07-03T22:50	10	0	0.1	0	0	416	0.2	415	416	22.1	70.9
2025-07-03T22:51	10	0	0.0	0	0	416	0.2	416	416	22.1	70.9
2025-07-03T22:52	10	0	0.0	0	0	416	0.3	415	416	22.1	71.0
2025-07-03T22:53	10	0	0.0	0	0	417	0.3	416	417	22.2	70.7
2025-07-03T22:54	10	0	0.1	0	0	417	0.3	416	417	22.1	71.0
2025-07-03T22:55	10	0	0.0	0	0	417	0.2	417	418	22.2	70.6
2025-07-03T22:56	10	0	0.1	0	0	417	0.2	417	418	22.1	70.8
2025-07-03T22:57	10	0	0.1	0	0	417	0.2	417	418	22.1	70.9
2025-07-03T22:58	10	0	0.0	0	0	418	0.2	417	418	22.1	70.9
2025-07-03T22:59	10	0	0.0	0	0	418	0.2	417	418	22.1	70.7
2025-07-03T23:00	10	0	0.0	0	0	418	0.2	417	419	22.1	70.6
2025-07-03T23:01	10	0	0.0	0	0	418	0.2	418	419	22.1	70.9
2025-07-03T23:02	10	0	0.0	0	0	418	0.2	418	419	22.1	71.1
2025-07-03T23:03	10	0	0.0	0	0	418	0.2	418	419	22.1	70.9
2025-07-03T23:04	10	0	0.0	0	0	418	0.3	417	419	22.0	71.3
2025-07-03T23:05	10	0	0.0	0	0	418	0.2	417	418	22.0	71.8
2025-07-03T23:06	10	0	0.0	0	0	418	0.2	417	418	22.0	71.4
2025-07-03T23:07	10	0	0.0	0	0	417	0.3	416	417	22.0	71.6
2025-07-03T23:08	10	0	0.0	0	0	417	0.3	416	417	22.0	71.4
2025-07-03T23:09	10	0	0.0	0	0	416	0.3	416	417	22.0	71.8
2025-07-03T23:10	10	0	0.0	0	0	416	0.2	415	416	21.9	72.2
2025-07-03T23:11	10	0	0.0	0	0	415	0.3	415	416	21.9	72.1
2025-07-03T23:12	10	0	0.0	0	0	415	0.2	415	415	21.9	72.5
2025-07-03T23:13	10	0	0.0	0	0	415	0.2	415	415	21.8	72.7
2025-07-03T23:14	10	0	0.0	0	0	415	0.2	414	415	21.8	73.0
2025-07-03T23:15	10	0	0.1	0	0	414	0.2	414	415	21.7	73.2
2025-07-03T23:16	10	0	0.1	0	0	414	0.2	414	415	21.7	73.1
2025-07-03T23:17	10	0	0.1	0	0	414	0.2	414	414	21.7	73.0
2025-07-03T23:18	10	0	0.0	0	0	414	0.3	413	414	21.8	72.7
2025-07-03T23:19	10	0	0.1	0	0	413	0.2	413	414	21.7	73.1
2025-07-03T23:20	10	0	0.1	0	0	413	0.3	413	414	21.7	73.1
2025-07-03T23:21	10	0	0.1	0	0	413	0.2	413	414	21.6	73.5
2025-07-03T23:22	10	0	0.1	0	0	413	0.3	413	414	21.6	73.6
2025-07-03T23:23	10	0	0.1	0	0	413	0.3	413	414	21.6	73.8
2025-07-03T23:24	10	0	0.1	0	0	413	0.2	413	414	21.6	73.7
2025-07-03T23:25	10	0	0.1	0	0	413	0.2	413	414	21.6	73.8
2025-07-03T23:26	10	0	0.1	0	0	414	0.2	413	414	21.6	73.8
2025-07-03T23:27	10	0	0.1	0	0	414	0.2	413	414	21.5	74.1
2025-07-03T23:28	10	0	0.1	0	0	414	0.3	413	414	21.6	73.9
2025-07-03T23:29	10	0	0.1	0	0	414	0.2	413	414	21.5	74.4
2025-07-03T23:30	10	0	0.1	0	0	413	0.2	413	414	21.5	74.7
2025-07-03T23:31	10	0	0.2	0	1	414	0.3	413	414	21.5	74.6
2025-07-03T23:32	10	0	0.2	0	0	414	0.3	413	415	21.4	74.8
2025-07-03T23:33	10	0	0.2	0	0	414	0.3	413	415	21.5	74.3
2025-07-03T23:34	10	0	0.2	0	0	415	0.4	414	415	21.6	73.9
2025-07-03T23:35	10	0	0.2	0	0	415	0.2	414	415	21.6	73.6
2025-07-03T23:36	10	0	0.1	-1	0	415	0.3	414	415	21.6	73.4
2025-07-03T23:37	10	0	0.2	0	0	415	0.2	414	415	21.6	73.4
2025-07-03T23:38	10	0	0.1	0	0	415	0.2	414	415	21.6	73.6
2025-07-03T23:39	10	0	0.1	0	0	415	0.2	414	415	21.6	73.7
2025-07-03T23:40	10	0	0.1	0	0	415	0.3	414	415	21.6	73.9
2025-07-03T23:41	10	0	0.1	0	0	414	0.3	414	415	21.6	73.7
2025-07-03T23:42	10	0	0.1	0	0	414	0.3	414	415	21.6	74.0
2025-07-03T23:43	10	0	0.1	0	0	414	0.2	414	415	21.5	74.2
2025-07-03T23:44	10	0	0.2	0	0	414	0.2	413	415	21.5	74.2
2025-07-03T23:45	10	0	0.1	0	0	414	0.2	413	414	21.5	74.1
2025-07-03T23:46	10	0	0.2	0	1	413	0.3	413	414	21.5	74.5
2025-07-03T23:47	10	0	0.1	0	1	413	0.3	412	414	21.5	74.6
2025-07-03T23:48	10	0	0.1	0	1	413	0.2	412	413	21.5	74.4
2025-07-03T23:49	10	0	0.1	0	0	413	0.2	413	413	21.5	74.4
2025-07-03T23:50	10	0	0.1	0	0	413	0.2	412	413	21.5	74.5
2025-07-03T23:51	10	0	0.1	0	0	413	0.2	412	413	21.5	74.4
2025-07-03T23:52	10	0	0.1	0	0	413	0.3	412	414	21.5	74.2
2025-07-03T23:53	10	0	0.1	0	0	413	0.2	412	413	21.5	74.5
2025-07-03T23:54	10	0	0.1	0	0	412	0.3	412	413	21.4	74.8
2025-07-03T23:55	10	0	0.1	0	0	412	0.2	412	413	21.4	74.7
2025-07-03T23:56	10	0	0.1	0	0	412	0.2	411	412	21.4	74.6
2025-07-03T23:57	10	0	0.1	0	0	412	0.2	411	412	21.4	74.6
2025-07-03T23:58	10	0	0.1	0	0	412	0.2	412	412	21.4	74.5
2025-07-03T23:59	10	0	0.1	0	0	412	0.2	412	413	21.4	74.7
2025-07-04T00:00	10	0	0.1	0	0	412	0.2	412	412	21.4	74.8
2025-07-04T00:01	10	0	0.1	0	0	412	0.2	412	413	21.4	74.6
2025-07-04T00:02	10	0	0.1	0	0	413	0.2	412	413	21.3	74.9
2025-07-04T00:03	10	0	0.1	-1	0	413	0.3	412	413	21.4	74.6
2025-07-04T00:04	10	0	0.1	0	0	412	0.2	412	413	21.4	74.6
2025-07-04T00:05	10	0	0.1	0	0	413	0.2	412	413	21.4	74.5
2025-07-04T00:06	10	0	0.1	0	0	413	0.2	412	413	21.4	74.6
2025-07-04T00:07	10	0	0.1	0	0	413	0.2	412	413	21.4	74.6
2025-07-04T00:08	10	0	0.1	0	0	413	0.3	412	414	21.4	74.7
2025-07-04T00:09	10	0	0.0	0	0	413	0.2	412	413	21.3	74.9
2025-07-04T00:10	10	0	0.1	0	0	413	0.2	412	413	21.3	75.0
2025-07-04T00:11	10	0	0.0	0	0	413	0.3	412	413	21.4	74.7
2025-07-04T00:12	10	0	0.0	0	0	413	0.3	412	413	21.3	74.8
2025-07-04T00:13	10	0	0.1	0	0	412	0.2	412	413	21.4	74.6
2025-07-04T00:14	10	0	0.0	0	0	412	0.2	412	413	21.4	74.7
2025-07-04T00:15	10	0	0.1	0	0	412	0.3	411	412	21.4	74.8
2025-07-04T00:16	10	0	2.3	0	16	411	0.2	411	412	21.4	74.8
2025-07-04T00:17	10	0	0.1	0	0	411	0.3	410	412	21.3	74.9
2025-07-04T00:18	10	0	0.0	0	0	410	0.3	410	411	21.3	75.0
2025-07-04T00:19	10	0	0.1	0	0	410	0.2	410	411	21.3	75.0
2025-07-04T00:20	10	0	0.1	0	0	411	0.2	410	411	21.3	75.2
2025-07-04T00:21	10	0	0.0	0	0	411	0.3	410	412	21.3	75.2
2025-07-04T00:22	10	0	0.0	0	0	411	0.2	411	412	21.3	75.2
2025-07-04T00:23	10	0	0.0	0	0	411	0.3	411	412	21.3	75.1
2025-07-04T00:24	10	0	0.1	0	0	412	0.2	411	412	21.3	75.3
2025-07-04T00:25	10	0	0.1	0	0	412	0.3	412	413	21.3	75.4
2025-07-04T00:26	10	0	0.1	0	0	413	0.3	412	414	21.3	75.2
2025-07-04T00:27	10	0	0.0	0	0	414	0.3	413	415	21.3	75.3
2025-07-04T00:28	10	0	0.1	0	0	415	0.3	414	415	21.3	75.4
2025-07-04T00:29	10	0	0.1	0	0	415	0.3	415	416	21.2	75.5
2025-07-04T00:30	10	0	0.1	0	0	416	0.2	416	417	21.2	75.6
2025-07-04T00:31	10	0	0.1	0	0	416	0.2	415	416	21.2	75.5
2025-07-04T00:32	10	0	0.1	0	0	416	0.2	416	417	21.2	75.5
2025-07-04T00:33	10	0	0.1	0	0	417	0.3	416	417	21.2	75.6
2025-07-04T00:34	10	0	0.1	0	0	416	0.2	416	417	21.2	75.8
2025-07-04T00:35	10	0	0.1	0	0	416	0.3	416	417	21.2	75.9
2025-07-04T00:36	10	0	0.1	0	0	416	0.5	415	417	21.0	76.8
2025-07-04T00:37	10	0	0.1	0	0	415	0.2	415	416	20.8	78.3
2025-07-04T00:38	10	0	0.1	0	0	416	0.2	415	416	20.8	77.8
2025-07-04T00:39	10	0	0.1	0	0	416	0.2	415	416	20.9	77.7
2025-07-04T00:40	10	0	0.1	0	0	415	0.2	415	416	20.8	78.9
2025-07-04T00:41	10	0	0.1	0	0	415	0.3	414	416	20.7	79.6
2025-07-04T00:42	10	0	0.1	0	0	415	0.2	415	416	20.7	79.5
2025-07-04T00:43	10	0	0.1	0	0	415	0.3	415	416	20.6	79.8
2025-07-04T00:44	10	0	0.1	0	0	416	0.5	415	417	20.7	79.4
2025-07-04T00:45	10	0	0.1	0	0	416	0.3	415	416	20.8	78.5
2025-07-04T00:46	10	0	0.1	0	0	416	0.2	416	417	20.9	78.0
2025-07-04T00:47	10	0	0.1	0	0	416	0.2	415	417	20.9	77.9
2025-07-04T00:48	10	0	0.1	0	0	416	0.2	416	417	20.9	77.5
2025-07-04T00:49	10	0	0.1	0	0	417	0.2	416	417	21.0	77.1
2025-07-04T00:50	10	0	0.1	0	0	417	0.2	416	417	21.0	77.3
2025-07-04T00:51	10	0	0.1	0	0	417	0.3	416	417	21.0	77.1
2025-07-04T00:52	10	0	0.1	0	0	417	0.3	416	417	21.0	76.5
2025-07-04T00:53	10	0	0.1	0	0	417	0.3	416	418	21.1	75.6
2025-07-04T00:54	10	0	0.1	0	0	417	0.2	417	418	21.3	74.7
2025-07-04T00:55	10	0	0.1	0	0	417	0.3	417	418	21.3	74.7
2025-07-04T00:56	10	0	0.1	0	0	417	0.3	416	417	21.2	75.8
2025-07-04T00:57	10	0	0.1	0	0	417	0.4	416	418	21.1	76.1
2025-07-04T00:58	10	0	0.1	0	0	418	0.3	417	418	21.3	74.2
2025-07-04T00:59	10	0	0.1	0	0	418	0.2	418	418	21.5	72.9
2025-07-04T01:00	10	0	0.1	0	0	417	0.2	417	418	21.6	73.0
2025-07-04T01:01	10	0	0.1	0	0	417	0.3	416	418	21.5	74.2
2025-07-04T01:02	10	0	0.1	0	0	417	0.2	417	418	21.4	74.0
2025-07-04T01:03	10	0	0.1	0	0	417	0.2	416	418	21.5	73.4
2025-07-04T01:04	10	0	0.1	0	0	416	0.3	416	417	21.5	74.0
2025-07-04T01:05	10	0	0.1	0	0	417	0.2	416	417	21.6	73.0
2025-07-04T01:06	10	0	0.1	0	0	416	0.3	416	417	21.6	73.7
2025-07-04T01:07	10	0	0.1	0	0	416	0.3	416	417	21.5	74.5
2025-07-04T01:08	10	0	0.1	0	0	417	0.3	416	417	21.4	75.1
2025-07-04T01:09	10	0	0.1	0	0	416	0.2	416	417	21.4	74.8
2025-07-04T01:10	10	0	0.1	0	0	417	0.2	416	417	21.4	75.0
2025-07-04T01:11	10	0	0.1	0	0	416	0.3	416	417	21.3	75.7
2025-07-04T01:12	10	0	0.1	0	0	416	0.3	416	417	21.4	75.2
2025-07-04T01:13	10	0	0.1	0	0	416	0.2	416	417	21.3	75.7
2025-07-04T01:14	10	0	0.1	0	0	416	0.2	416	417	21.3	75.7
2025-07-04T01:15	10	0	0.1	0	0	417	0.2	416	417	21.3	75.0
2025-07-04T01:16	10	0	0.1	0	0	417	0.3	416	417	21.4	74.4
2025-07-04T01:17	10	0	0.1	0	0	417	0.2	416	418	21.4	74.8
2025-07-04T01:18	10	0	0.1	0	0	417	0.3	416	417	21.4	74.7
2025-07-04T01:19	10	0	0.1	0	0	417	0.2	417	418	21.4	74.6
2025-07-04T01:20	10	0	0.1	0	0	417	0.3	416	417	21.4	74.8
2025-07-04T01:21	10	0	0.1	0	0	417	0.2	416	417	21.4	74.6
2025-07-04T01:22	10	0	0.1	0	0	417	0.2	416	418	21.4	74.4
2025-07-04T01:23	10	0	0.1	0	0	417	0.2	416	417	21.4	74.7
2025-07-04T01:24	10	0	0.1	0	0	417	0.3	416	417	21.4	74.4
2025-07-04T01:25	10	0	0.1	0	0	417	0.2	416	417	21.4	74.7
2025-07-04T01:26	10	0	0.1	0	0	417	0.2	416	417	21.4	74.6
2025-07-04T01:27	10	0	0.1	0	0	416	0.2	416	417	21.4	74.4
2025-07-04T01:28	10	0	0.1	0	0	416	0.3	416	417	21.4	74.6
2025-07-04T01:29	10	0	0.1	0	0	416	0.2	415	416	21.4	74.9
2025-07-04T01:30	10	0	0.1	0	0	415	0.2	415	416	21.3	75.4
2025-07-04T01:31	10	0	0.1	0	0	415	0.2	415	416	21.3	75.8
2025-07-04T01:32	10	0	0.1	0	0	415	0.2	414	415	21.3	75.9
2025-07-04T01:33	10	0	0.1	0	0	414	0.3	413	415	21.2	76.4
2025-07-04T01:34	10	0	0.1	0	0	413	0.3	413	414	21.1	77.4
2025-07-04T01:35	10	0	0.1	0	0	413	0.3	412	413	21.0	77.8
2025-07-04T01:36	10	0	0.0	0	0	412	0.2	411	412	21.0	77.5
2025-07-04T01:37	10	0	0.1	0	0	412	0.2	411	412	21.0	77.4
2025-07-04T01:38	10	0	0.1	0	0	411	0.2	411	412	21.0	77.2
2025-07-04T01:39	10	0	0.1	0	0	411	0.2	411	412	21.1	76.8
2025-07-04T01:40	10	0	0.0	0	0	411	0.2	411	412	21.1	76.8
2025-07-04T01:41	10	0	0.1	0	0	411	0.2	411	412	21.1	76.6
2025-07-04T01:42	10	0	0.1	0	0	411	0.2	411	412	21.1	76.7
2025-07-04T01:43	10	0	0.1	0	0	411	0.3	411	412	21.1	76.8
2025-07-04T01:44	10	0	0.1	0	0	412	0.2	411	412	21.0	77.8
2025-07-04T01:45	10	0	0.1	0	0	412	0.2	411	412	20.9	78.0
2025-07-04T01:46	10	0	0.1	0	0	412	0.2	411	412	20.9	78.1
2025-07-04T01:47	10	0	0.1	0	0	412	0.3	411	412	20.9	77.3
2025-07-04T01:48	10	0	0.1	0	0	412	0.2	411	412	21.0	77.3
2025-07-04T01:49	10	0	0.1	0	0	412	0.3	411	412	21.0	77.4
2025-07-04T01:50	10	0	0.1	0	0	412	0.3	411	412	21.0	77.5
2025-07-04T01:51	10	0	0.1	0	0	412	0.2	411	412	21.0	77.9
2025-07-04T01:52	10	0	0.1	0	0	412	0.2	411	412	20.9	78.2
2025-07-04T01:53	10	0	0.1	0	0	412	0.3	412	413	20.8	78.4
2025-07-04T01:54	10	0	0.1	0	0	412	0.2	412	413	20.8	78.6
2025-07-04T01:55	10	0	0.1	0	0	413	0.2	412	413	20.8	78.9
2025-07-04T01:56	10	0	0.1	0	0	413	0.3	412	414	20.8	79.0
2025-07-04T01:57	10	0	0.1	0	0	413	0.3	413	414	20.8	79.1
2025-07-04T01:58	10	0	0.1	0	0	414	0.3	413	415	20.8	78.1
2025-07-04T01:59	10	0	0.1	0	0	414	0.2	414	415	20.9	77.9
2025-07-04T02:00	10	0	0.1	0	0	414	0.3	414	415	20.9	78.2
2025-07-04T02:01	10	0	0.1	0	0	415	0.2	414	415	20.9	78.0
2025-07-04T02:02	10	0	0.1	0	0	415	0.2	414	415	20.9	78.1
2025-07-04T02:03	10	0	0.1	0	0	415	0.2	414	416	20.9	77.8
2025-07-04T02:04	10	0	0.1	0	0	415	0.2	414	415	20.8	78.0
2025-07-04T02:05	10	0	0.1	0	0	415	0.2	415	416	20.8	77.9
2025-07-04T02:06	10	0	0.1	0	0	415	0.2	415	416	20.9	77.9
2025-07-04T02:07	10	0	0.1	0	0	415	0.2	415	416	20.9	78.3
2025-07-04T02:08	10	0	0.1	0	0	415	0.2	415	416	20.8	78.2
2025-07-04T02:09	10	0	0.1	0	0	415	0.2	415	416	20.8	78.1
2025-07-04T02:10	10	0	0.1	0	0	416	0.2	415	416	20.8	77.8
2025-07-04T02:11	10	0	0.1	0	0	415	0.3	415	416	20.9	77.5
2025-07-04T02:12	10	0	0.1	0	0	415	0.3	414	416	20.8	77.9
2025-07-04T02:13	10	0	0.1	0	0	415	0.3	415	416	20.8	78.7
2025-07-04T02:14	10	0	0.1	0	0	415	0.2	414	416	20.7	79.4
2025-07-04T02:15	10	0	0.1	0	0	415	0.2	415	415	20.6	80.1
2025-07-04T02:16	10	0	0.1	0	0	415	0.2	414	415	20.6	80.6
2025-07-04T02:17	10	0	0.1	0	0	415	0.2	415	416	20.6	80.5
2025-07-04T02:18	10	0	0.1	0	0	415	0.2	415	416	20.6	80.2
2025-07-04T02:19	10	0	0.1	0	0	415	0.2	415	415	20.6	80.0
2025-07-04T02:20	10	0	0.1	0	0	415	0.2	414	416	20.6	79.7
2025-07-04T02:21	10	0	0.1	0	0	415	0.2	415	416	20.7	79.2
2025-07-04T02:22	10	0	0.1	0	0	415	0.3	414	415	20.7	79.3
2025-07-04T02:23	10	0	0.1	0	0	415	0.3	415	416	20.7	79.1
2025-07-04T02:24	10	0	0.1	0	0	415	0.2	415	416	20.7	78.7
2025-07-04T02:25	10	0	0.1	0	0	415	0.2	415	415	20.8	78.3
2025-07-04T02:26	10	0	0.1	0	0	415	0.2	414	415	20.8	78.5
2025-07-04T02:27	10	0	0.1	0	0	415	0.3	414	416	20.8	78.3
2025-07-04T02:28	10	0	0.1	0	0	415	0.2	415	416	20.8	78.0
2025-07-04T02:29	10	0	0.1	0	0	415	0.2	415	415	20.8	77.8
2025-07-04T02:30	10	0	0.1	0	0	415	0.2	415	416	20.8	77.7
2025-07-04T02:31	10	0	0.1	0	0	415	0.2	414	415	20.8	78.3
2025-07-04T02:32	10	0	0.1	0	0	414	0.2	414	415	20.8	78.3
2025-07-04T02:33	10	0	0.1	0	0	414	0.2	414	415	20.8	78.3
2025-07-04T02:34	10	0	0.1	0	0	414	0.2	414	414	20.8	78.5
2025-07-04T02:35	10	0	0.1	0	0	414	0.2	413	414	20.8	78.7
2025-07-04T02:36	10	0	0.1	0	0	414	0.2	413	414	20.7	79.1
2025-07-04T02:37	10	0	0.1	0	0	413	0.2	413	414	20.7	79.4
2025-07-04T02:38	10	0	0.1	0	0	413	0.2	413	414	20.7	79.6
2025-07-04T02:39	10	0	0.1	0	0	413	0.2	413	414	20.6	79.8
2025-07-04T02:40	10	0	0.1	0	0	413	0.3	413	414	20.7	79.1
2025-07-04T02:41	10	0	0.1	0	0	414	0.2	413	414	20.7	78.8
2025-07-04T02:42	10	0	0.1	0	0	413	0.2	413	414	20.7	79.0
2025-07-04T02:43	10	0	0.1	0	0	414	0.3	413	414	20.7	78.8
2025-07-04T02:44	10	0	0.1	0	0	413	0.2	413	414	20.7	78.9
2025-07-04T02:45	10	0	0.1	0	0	413	0.2	413	414	20.7	78.8
2025-07-04T02:46	10	0	0.1	0	0	413	0.2	413	414	20.7	78.7
2025-07-04T02:47	10	0	0.1	0	0	414	0.2	413	414	20.8	78.5
2025-07-04T02:48	10	0	0.1	0	0	414	0.3	413	414	20.8	78.3
2025-07-04T02:49	10	0	0.1	0	0	414	0.2	414	415	20.8	78.1
2025-07-04T02:50	10	0	0.1	0	0	414	0.2	414	415	20.9	78.3
2025-07-04T02:51	10	0	0.1	0	0	415	0.3	414	415	20.9	77.6
2025-07-04T02:52	10	0	0.1	0	0	415	0.3	414	415	20.9	77.3
2025-07-04T02:53	10	0	0.1	0	0	415	0.3	414	416	21.0	77.2
2025-07-04T02:54	10	0	0.1	0	0	415	0.2	415	415	21.0	77.0
2025-07-04T02:55	10	0	0.1	0	0	415	0.2	414	415	20.9	77.7
2025-07-04T02:56	10	0	0.1	0	0	415	0.3	414	416	20.8	78.0
2025-07-04T02:57	10	0	0.1	0	0	414	0.2	414	415	20.8	78.5
2025-07-04T02:58	10	0	0.1	0	0	414	0.3	413	415	20.7	79.1
2025-07-04T02:59	10	0	0.1	0	0	414	0.2	414	414	20.7	79.3
2025-07-04T03:00	10	0	0.1	0	0	414	0.2	413	414	20.7	79.3
2025-07-04T03:01	10	0	0.1	0	0	414	0.2	413	414	20.7	79.0
2025-07-04T03:02	10	0	0.1	0	0	413	0.3	413	414	20.7	79.1
2025-07-04T03:03	10	0	0.1	0	0	413	0.3	412	414	20.7	79.0
2025-07-04T03:04	10	0	0.1	0	0	413	0.3	412	413	20.7	79.0
2025-07-04T03:05	10	0	0.1	0	0	413	0.2	412	413	20.7	79.3
2025-07-04T03:06	10	0	0.1	0	0	413	0.2	412	413	20.7	79.3
2025-07-04T03:07	10	0	0.1	0	0	413	0.2	412	413	20.7	79.4
2025-07-04T03:08	10	0	0.1	0	0	413	0.2	412	413	20.6	79.8
2025-07-04T03:09	10	0	0.1	0	0	413	0.2	412	413	20.6	80.0
2025-07-04T03:10	10	0	0.1	0	0	412	0.2	412	413	20.6	80.0
2025-07-04T03:11	10	0	0.1	0	0	412	0.2	412	413	20.6	80.2
2025-07-04T03:12	10	0	0.1	0	0	412	0.3	411	412	20.5	80.2
2025-07-04T03:13	10	0	0.1	0	0	412	0.2	412	412	20.6	79.8
2025-07-04T03:14	10	0	0.1	0	0	412	0.3	411	412	20.6	79.6
2025-07-04T03:15	10	0	0.1	0	0	412	0.2	411	412	20.6	79.5
2025-07-04T03:16	10	0	0.1	0	0	412	0.2	411	412	20.7	78.7
2025-07-04T03:17	10	0	0.1	0	0	412	0.2	411	412	20.8	78.6
2025-07-04T03:18	10	0	0.1	0	0	411	0.2	411	411	20.6	79.6
2025-07-04T03:19	10	0	0.1	0	0	411	0.3	410	411	20.6	80.0
2025-07-04T03:20	10	0	0.1	0	0	411	0.3	410	411	20.6	80.2
2025-07-04T03:21	10	0	0.1	0	0	410	0.2	410	411	20.6	80.0
2025-07-04T03:22	10	0	0.1	0	0	410	0.2	409	410	20.6	79.8
2025-07-04T03:23	10	0	0.1	0	0	410	0.2	409	410	20.6	80.3
2025-07-04T03:24	10	0	0.1	0	0	409	0.2	409	410	20.6	80.5
2025-07-04T03:25	10	0	0.1	0	0	409	0.2	409	410	20.5	80.6
2025-07-04T03:26	10	0	0.1	0	0	410	0.2	409	410	20.5	80.6
2025-07-04T03:27	10	0	0.1	0	0	410	0.3	409	410	20.5	80.4
2025-07-04T03:28	10	0	0.1	0	0	410	0.3	409	411	20.6	80.0
2025-07-04T03:29	10	0	0.1	0	0	410	0.2	409	411	20.6	79.9
2025-07-04T03:30	10	0	0.1	0	0	411	0.3	410	411	20.6	79.5
2025-07-04T03:31	10	0	0.1	0	0	411	0.3	411	412	20.7	79.4
2025-07-04T03:32	10	0	0.1	0	0	412	0.3	411	412	20.7	79.4
2025-07-04T03:33	10	0	0.1	0	0	412	0.2	412	413	20.7	79.1
2025-07-04T03:34	10	0	0.1	0	0	413	0.2	412	413	20.8	79.1
2025-07-04T03:35	10	0	0.1	0	0	413	0.2	412	413	20.7	79.3
2025-07-04T03:36	10	0	0.1	0	1	413	0.2	413	413	20.7	80.1
2025-07-04T03:37	10	0	0.1	0	0	413	0.2	413	414	20.6	80.5
2025-07-04T03:38	10	0	0.1	0	0	413	0.3	413	414	20.6	80.7
2025-07-04T03:39	10	0	0.1	0	0	414	0.2	413	414	20.6	80.8
2025-07-04T03:40	10	0	0.1	0	0	413	0.3	413	414	20.5	81.0
2025-07-04T03:41	10	0	0.1	0	0	414	0.2	413	414	20.5	81.3
2025-07-04T03:42	10	0	0.1	0	1	413	0.3	413	414	20.5	81.1
2025-07-04T03:43	10	0	0.1	0	1	414	0.3	413	414	20.5	80.7
2025-07-04T03:44	10	0	0.1	0	1	414	0.3	413	415	20.6	79.9
2025-07-04T03:45	10	0	0.1	0	1	414	0.2	414	415	20.7	79.4
2025-07-04T03:46	10	0	0.1	0	1	414	0.3	413	415	20.7	79.7
2025-07-04T03:47	10	1	0.1	0	1	414	0.3	413	414	20.7	80.3
2025-07-04T03:48	10	1	0.1	0	1	413	0.3	413	414	20.5	82.2
2025-07-04T03:49	10	1	0.1	0	1	413	0.3	413	414	20.4	82.4
2025-07-04T03:50	10	1	0.1	0	1	414	0.3	413	414	20.5	81.5
2025-07-04T03:51	10	1	0.1	0	1	414	0.2	413	414	20.5	81.1
2025-07-04T03:52	10	1	0.1	1	1	414	0.2	413	415	20.5	80.7
2025-07-04T03:53	10	1	0.1	1	1	414	0.2	413	414	20.6	80.6
2025-07-04T03:54	10	1	0.1	1	1	414	0.2	413	414	20.6	80.4
2025-07-04T03:55	10	1	0.1	1	1	414	0.2	414	415	20.6	80.6
2025-07-04T03:56	10	1	0.1	1	1	414	0.3	413	414	20.6	81.2
2025-07-04T03:57	10	1	0.1	1	1	414	0.2	413	414	20.6	81.7
2025-07-04T03:58	10	1	0.1	1	2	414	0.2	413	414	20.5	81.8
2025-07-04T03:59	10	1	0.1	1	2	414	0.2	413	415	20.5	81.8
2025-07-04T04:00	10	1	0.1	1	1	414	0.2	414	414	20.5	81.4
2025-07-04T04:01	10	1	0.1	1	1	414	0.2	414	415	20.5	81.4
2025-07-04T04:02	10	1	0.1	1	1	414	0.2	414	415	20.5	81.4
2025-07-04T04:03	10	1	0.1	1	1	414	0.2	414	415	20.6	81.3
2025-07-04T04:04	10	1	0.1	1	2	414	0.3	414	415	20.6	80.9
2025-07-04T04:05	10	1	0.1	1	1	414	0.2	414	415	20.5	81.5
2025-07-04T04:06	10	1	0.1	1	1	414	0.2	414	415	20.5	81.6
2025-07-04T04:07	10	1	0.2	1	2	415	0.2	414	415	20.5	81.7
2025-07-04T04:08	10	1	0.1	1	1	415	0.2	414	415	20.5	81.0
2025-07-04T04:09	10	1	0.1	1	1	415	0.3	414	415	20.5	81.6
2025-07-04T04:10	10	1	0.1	1	1	415	0.2	414	415	20.5	81.1
2025-07-04T04:11	10	1	0.1	1	1	415	0.2	414	415	20.6	80.4
2025-07-04T04:12	10	1	0.1	1	1	415	0.3	414	415	20.6	80.3
2025-07-04T04:13	10	1	0.1	1	1	415	0.2	414	415	20.6	81.0
2025-07-04T04:14	10	1	0.1	1	1	415	0.2	414	416	20.6	80.7
2025-07-04T04:15	10	1	0.1	1	1	415	0.2	415	416	20.6	80.6
2025-07-04T04:16	10	1	0.1	1	2	415	0.2	415	416	20.6	80.9
2025-07-04T04:17	10	2	0.1	1	2	415	0.2	415	416	20.6	81.1
2025-07-04T04:18	10	2	0.1	1	2	415	0.3	415	416	20.6	81.0
2025-07-04T04:19	10	2	0.1	2	2	416	0.2	415	416	20.6	81.2
2025-07-04T04:20	10	2	0.1	2	2	416	0.2	415	416	20.7	80.7
2025-07-04T04:21	10	2	0.1	2	3	416	0.3	415	416	20.7	80.5
2025-07-04T04:22	10	2	0.1	2	3	416	0.3	416	417	20.8	80.1
2025-07-04T04:23	10	3	0.1	2	3	416	0.2	416	417	20.8	80.1
2025-07-04T04:24	10	3	0.1	2	3	416	0.2	416	417	20.8	80.7
2025-07-04T04:25	10	3	0.1	2	3	416	0.2	416	417	20.8	80.5
2025-07-04T04:26	10	3	0.1	2	3	416	0.2	416	417	20.8	80.4
2025-07-04T04:27	10	3	0.1	3	3	417	0.2	416	417	20.8	80.5
2025-07-04T04:28	10	3	0.1	3	3	417	0.2	416	417	20.8	80.3
2025-07-04T04:29	10	3	0.1	3	3	417	0.2	416	417	20.8	80.5
2025-07-04T04:30	10	3	0.1	3	3	417	0.3	416	417	20.8	80.8
2025-07-04T04:31	10	3	0.1	3	3	417	0.2	416	417	20.8	80.8
2025-07-04T04:32	10	3	0.1	3	3	416	0.2	416	417	20.7	80.8
2025-07-04T04:33	10	3	0.1	3	4	416	0.2	416	417	20.7	80.9
2025-07-04T04:34	10	4	0.1	3	4	416	0.2	416	417	20.7	80.8
2025-07-04T04:35	10	4	0.1	4	4	416	0.2	416	417	20.6	81.2
2025-07-04T04:36	10	4	0.1	4	4	416	0.2	416	417	20.6	81.5
2025-07-04T04:37	10	4	0.1	3	4	416	0.2	416	417	20.6	81.5
2025-07-04T04:38	10	4	0.1	4	4	416	0.2	416	417	20.6	81.5
2025-07-04T04:39	10	4	0.1	4	4	416	0.2	416	417	20.5	82.0
2025-07-04T04:40	10	4	0.1	4	5	416	0.3	416	417	20.6	81.5
2025-07-04T04:41	10	4	0.2	4	5	416	0.2	416	417	20.6	81.6
2025-07-04T04:42	10	5	0.1	4	5	417	0.3	416	417	20.6	82.1
2025-07-04T04:43	10	5	0.1	4	5	417	0.2	416	417	20.6	82.0
2025-07-04T04:44	10	5	0.2	5	5	417	0.2	416	417	20.6	81.5
2025-07-04T04:45	10	5	0.1	5	6	417	0.2	416	417	20.6	81.4
2025-07-04T04:46	10	6	0.1	5	6	416	0.2	416	417	20.6	81.9
2025-07-04T04:47	10	6	0.1	6	6	416	0.2	416	417	20.5	82.1
2025-07-04T04:48	10	6	0.1	6	7	417	0.3	416	417	20.6	81.6
2025-07-04T04:49	10	6	0.1	6	7	417	0.2	416	417	20.6	82.1
2025-07-04T04:50	10	7	0.1	6	7	417	0.2	416	417	20.6	82.0
2025-07-04T04:51	10	7	0.1	6	7	417	0.2	417	418	20.6	80.9
2025-07-04T04:52	10	6	0.1	6	7	417	0.2	417	418	20.6	81.1
2025-07-04T04:53	10	7	0.2	6	7	417	0.2	417	418	20.7	80.4
2025-07-04T04:54	10	8	0.4	7	8	417	0.2	417	418	20.6	81.4
2025-07-04T04:55	10	9	0.3	8	9	417	0.2	417	418	20.7	80.1
2025-07-04T04:56	10	9	0.2	9	10	418	0.3	417	418	20.7	79.5
2025-07-04T04:57	10	10	0.2	9	10	418	0.2	417	418	20.7	79.3
2025-07-04T04:58	10	10	0.1	10	11	418	0.2	418	419	20.7	79.5
2025-07-04T04:59	10	10	0.1	10	11	418	0.2	418	419	20.7	79.9
2025-07-04T05:00	10	11	0.2	10	11	419	0.2	418	419	20.7	80.4
2025-07-04T05:01	10	12	0.2	11	12	419	0.2	418	419	20.7	80.0
2025-07-04T05:02	10	12	0.2	12	13	419	0.3	419	420	20.8	80.0
2025-07-04T05:03	10	13	0.1	12	13	420	0.2	419	420	20.8	80.0
2025-07-04T05:04	10	12	0.1	12	13	420	0.2	420	421	20.8	79.0
2025-07-04T05:05	10	12	0.1	12	12	420	0.2	420	421	20.9	79.4
2025-07-04T05:06	10	12	0.1	12	13	420	0.2	420	421	20.9	79.4
2025-07-04T05:07	10	12	0.1	12	13	420	0.3	420	421	20.9	79.7
2025-07-04T05:08	10	12	0.1	12	12	420	0.3	420	421	20.9	78.4
2025-07-04T05:09	10	12	0.1	12	12	420	0.2	420	421	20.9	78.3
2025-07-04T05:10	10	12	0.1	12	12	420	0.2	419	420	21.0	79.1
2025-07-04T05:11	10	12	0.2	12	13	420	0.2	419	420	21.0	79.0
2025-07-04T05:12	10	13	0.2	13	13	420	0.2	420	421	21.0	79.2
2025-07-04T05:13	10	14	0.1	13	14	421	0.3	420	421	21.0	79.4
2025-07-04T05:14	10	14	0.2	14	14	421	0.2	420	421	21.0	79.3
2025-07-04T05:15	10	14	0.2	14	15	421	0.3	421	422	21.0	78.5
2025-07-04T05:16	10	15	0.1	15	15	421	0.3	421	422	21.0	78.7
2025-07-04T05:17	10	15	0.2	15	16	422	0.2	421	422	21.1	78.3
2025-07-04T05:18	10	17	0.9	16	18	422	0.3	422	423	21.1	77.7
2025-07-04T05:19	10	17	0.5	17	18	423	0.2	422	423	21.2	78.1
2025-07-04T05:20	10	17	0.2	16	17	423	0.2	422	424	21.2	77.7
2025-07-04T05:21	10	17	0.2	17	17	424	0.2	423	424	21.2	77.5
2025-07-04T05:22	10	18	0.2	17	18	424	0.2	423	424	21.3	77.4
2025-07-04T05:23	10	18	0.1	18	18	424	0.3	423	424	21.3	77.3
2025-07-04T05:24	10	18	0.1	18	18	424	0.4	423	424	21.3	75.9
2025-07-04T05:25	10	18	0.6	17	20	423	0.3	423	424	21.3	76.0
2025-07-04T05:26	10	22	3.1	16	26	423	0.3	423	424	21.3	76.3
2025-07-04T05:27	10	16	0.2	16	16	423	0.3	422	424	21.4	75.9
2025-07-04T05:28	10	16	0.1	16	16	423	0.5	422	424	21.4	75.8
2025-07-04T05:29	10	16	0.1	16	17	422	0.2	422	423	21.3	75.6
2025-07-04T05:30	10	17	0.1	16	17	422	0.2	422	423	21.3	75.6
2025-07-04T05:31	10	17	0.1	17	17	422	0.2	422	423	21.3	76.0
2025-07-04T05:32	10	17	0.2	17	18	422	0.3	421	423	21.3	76.0
2025-07-04T05:33	10	18	0.2	17	18	422	0.2	422	423	21.3	76.1
2025-07-04T05:34	10	19	0.2	18	19	423	0.2	422	423	21.3	76.3
2025-07-04T05:35	10	19	0.4	19	21	423	0.3	422	424	21.3	76.4
2025-07-04T05:36	10	22	0.8	20	23	423	0.4	422	424	21.3	76.8
2025-07-04T05:37	10	21	0.3	21	22	424	0.2	423	424	21.4	76.5
2025-07-04T05:38	10	23	0.3	22	23	424	0.3	423	424	21.4	76.5
2025-07-04T05:39	10	24	0.5	23	25	425	0.4	424	426	21.4	76.7
2025-07-04T05:40	10	26	0.5	25	27	426	0.3	425	427	21.4	77.0
2025-07-04T05:41	10	27	0.6	26	28	426	0.3	426	427	21.5	76.6
2025-07-04T05:42	10	29	0.7	28	31	426	0.3	426	427	21.5	76.9
2025-07-04T05:43	10	37	4.2	31	43	427	0.3	426	428	21.5	76.4
2025-07-04T05:44	10	50	11.5	37	64	428	1.0	427	430	21.5	76.8
2025-07-04T05:45	10	52	7.4	40	61	430	0.3	430	431	21.6	76.5
2025-07-04T05:46	10	38	1.0	37	40	430	0.4	429	430	21.6	76.5
2025-07-04T05:47	10	39	1.2	38	44	429	0.3	428	429	21.5	76.5
2025-07-04T05:48	10	64	7.2	44	73	430	1.0	428	432	21.5	76.6
2025-07-04T05:49	10	73	1.8	71	76	433	0.6	432	434	21.6	76.5
2025-07-04T05:50	10	77	0.2	76	77	435	0.7	434	436	21.7	76.4
2025-07-04T05:51	10	77	0.2	76	77	436	0.5	435	436	21.9	75.5
2025-07-04T05:52	10	76	1.2	74	78	435	0.2	435	436	21.8	73.6
2025-07-04T05:53	10	78	0.2	78	79	436	0.5	435	437	22.0	73.1
2025-07-04T05:54	10	78	2.5	68	79	434	1.1	432	436	21.9	70.8
2025-07-04T05:55	10	69	6.4	59	78	432	0.5	431	433	21.8	71.0
2025-07-04T05:56	10	75	5.3	67	82	433	0.5	432	434	21.8	71.2
2025-07-04T05:57	10	81	2.3	75	84	433	0.3	433	434	21.9	70.3
2025-07-04T05:58	10	79	3.0	75	83	434	0.5	433	435	21.9	70.8
2025-07-04T05:59	10	76	6.9	64	85	434	0.8	433	435	22.0	70.6
2025-07-04T06:00	10	78	11.0	60	88	434	1.0	432	435	22.0	71.2
2025-07-04T06:01	10	73	7.1	60	85	435	1.0	433	436	22.1	69.4
2025-07-04T06:02	10	54	6.2	48	68	433	0.5	432	434	22.1	68.9
2025-07-04T06:03	10	75	10.0	59	85	434	0.6	433	435	22.3	68.2
2025-07-04T06:04	10	56	8.3	49	73	435	0.8	433	436	22.4	67.4
2025-07-04T06:05	10	63	10.5	48	74	433	0.5	432	434	22.3	65.5
2025-07-04T06:06	10	70	10.2	52	82	433	0.5	432	434	22.1	64.8
2025-07-04T06:07	10	62	6.8	53	81	431	0.4	431	432	22.1	64.3
2025-07-04T06:08	10	74	7.7	62	82	433	0.5	431	433	22.0	64.4
2025-07-04T06:09	10	52	6.1	48	69	432	1.2	430	434	22.2	64.3
2025-07-04T06:10	10	53	5.3	48	63	432	0.4	431	433	22.2	64.2
2025-07-04T06:11	10	46	1.0	45	49	431	1.0	429	432	22.2	64.2
2025-07-04T06:12	10	47	2.1	44	50	429	0.3	428	430	22.0	63.7
2025-07-04T06:13	10	44	0.2	44	45	428	0.2	428	429	21.9	64.0
2025-07-04T06:14	10	44	0.2	44	44	429	0.3	428	429	21.9	63.5
2025-07-04T06:15	10	45	0.4	44	46	428	0.2	427	429	21.9	63.3
2025-07-04T06:16	10	47	0.6	46	48	429	0.3	428	429	21.9	64.2
2025-07-04T06:17	10	49	0.7	48	50	429	0.2	429	430	22.0	63.8
2025-07-04T06:18	10	58	6.3	50	67	430	0.8	429	432	22.0	63.8
2025-07-04T06:19	10	70	9.2	57	83	431	1.0	430	434	22.0	63.3
2025-07-04T06:20	10	78	9.4	62	91	434	0.6	432	435	22.0	62.9
2025-07-04T06:21	10	56	1.5	55	61	432	0.8	431	434	22.0	63.0
2025-07-04T06:22	10	55	0.4	54	56	431	0.4	430	432	22.0	63.2
2025-07-04T06:23	10	54	1.2	52	56	432	0.3	431	432	22.1	63.2
2025-07-04T06:24	10	51	0.4	50	52	431	0.4	430	431	22.0	63.0
2025-07-04T06:25	10	51	0.2	50	51	430	0.4	430	431	22.0	63.0
2025-07-04T06:26	10	50	0.3	49	50	430	0.3	429	431	22.0	63.0
2025-07-04T06:27	10	49	0.4	48	50	430	0.5	429	431	22.0	63.3
2025-07-04T06:28	10	48	0.2	48	49	431	0.2	430	431	22.1	63.5
2025-07-04T06:29	10	50	1.6	48	53	430	0.3	430	431	22.0	63.6
2025-07-04T06:30	10	52	3.5	47	57	432	0.4	430	432	22.1	63.8
2025-07-04T06:31	10	46	0.6	45	48	432	0.4	431	432	22.1	63.8
2025-07-04T06:32	10	44	0.8	43	46	430	0.5	429	431	22.1	63.3
2025-07-04T06:33	10	42	0.5	41	43	429	0.5	429	430	22.0	63.5
2025-07-04T06:34	10	41	0.2	41	42	429	0.3	428	429	22.0	63.6
2025-07-04T06:35	10	40	0.4	40	42	428	0.4	427	429	22.0	63.5
2025-07-04T06:36	10	40	0.3	39	40	428	0.3	427	429	22.1	64.3
2025-07-04T06:37	10	39	0.2	39	40	428	0.4	427	429	22.1	64.1
2025-07-04T06:38	10	40	1.0	39	43	428	0.3	427	429	22.1	64.3
2025-07-04T06:39	10	40	0.8	39	43	428	0.3	428	429	22.1	64.3
2025-07-04T06:40	10	40	0.5	39	41	429	0.3	428	430	22.2	64.0
2025-07-04T06:41	10	39	0.2	39	39	429	0.3	429	430	22.2	64.7
2025-07-04T06:42	10	39	0.2	39	39	428	0.7	427	430	22.1	63.3
2025-07-04T06:43	10	40	1.2	38	42	428	0.3	427	428	22.1	63.5
2025-07-04T06:44	10	38	0.2	38	39	428	0.3	427	429	22.1	63.0
2025-07-04T06:45	10	38	0.1	37	38	427	0.4	426	427	22.0	62.1
2025-07-04T06:46	10	38	0.1	38	39	427	0.2	426	427	22.0	62.3
2025-07-04T06:47	10	38	0.2	38	39	427	0.2	427	428	22.0	62.8
2025-07-04T06:48	10	40	2.5	39	50	427	0.4	426	428	22.1	63.0
2025-07-04T06:49	10	50	8.8	40	65	428	0.4	427	429	22.1	62.5
2025-07-04T06:50	10	40	0.4	40	41	428	0.2	428	429	22.1	63.1
2025-07-04T06:51	10	42	1.0	41	45	428	0.3	427	429	22.2	63.3
2025-07-04T06:52	10	51	2.9	46	56	430	0.5	428	430	22.2	63.3
2025-07-04T06:53	10	47	1.1	45	51	430	0.3	430	431	22.2	63.7
2025-07-04T06:54	10	92	15.0	53	112	433	2.3	430	438	22.2	64.0
2025-07-04T06:55	10	101	11.1	78	113	438	0.5	436	439	22.3	63.9
2025-07-04T06:56	10	67	5.8	59	83	437	0.9	435	439	22.4	63.9
2025-07-04T06:57	10	96	7.1	84	108	440	1.8	436	442	22.5	63.8
2025-07-04T06:58	10	109	0.5	108	110	442	0.4	441	442	22.5	63.7
2025-07-04T06:59	10	107	1.4	105	109	443	0.7	442	445	22.7	64.1
2025-07-04T07:00	10	82	15.3	63	105	442	1.4	439	444	22.7	64.1
2025-07-04T07:01	10	40	6.8	35	62	436	3.1	432	441	22.6	64.6
2025-07-04T07:02	10	34	0.8	33	36	433	0.6	431	434	22.4	65.2
2025-07-04T07:03	10	32	0.4	32	33	431	1.1	429	433	22.4	65.1
2025-07-04T07:04	10	32	0.2	31	32	430	0.4	429	430	22.2	65.3
2025-07-04T07:05	10	31	0.1	31	32	429	0.3	428	430	22.1	65.6
2025-07-04T07:06	10	31	0.1	31	32	428	0.3	427	429	22.1	65.8
2025-07-04T07:07	10	55	21.1	32	87	429	2.1	427	433	22.1	65.9
2025-07-04T07:08	10	33	7.0	28	59	431	0.9	429	433	22.3	65.7
2025-07-04T07:09	10	27	0.3	27	28	428	0.9	427	430	22.1	64.6
2025-07-04T07:10	10	28	1.7	27	36	428	0.2	427	428	22.0	65.0
2025-07-04T07:11	10	84	26.1	31	106	433	3.3	426	436	22.1	65.1
2025-07-04T07:12	10	36	15.2	28	88	431	1.0	429	433	22.2	64.8
2025-07-04T07:13	10	98	7.7	86	108	437	2.8	431	441	22.3	65.2
2025-07-04T07:14	10	99	13.7	66	107	440	0.8	439	442	22.4	64.7
2025-07-04T07:15	10	78	29.2	33	106	438	2.3	433	440	22.3	63.3
2025-07-04T07:16	10	36	13.7	29	88	432	1.0	431	435	22.2	64.3
2025-07-04T07:17	10	108	3.8	91	110	439	2.5	432	442	22.3	65.0
2025-07-04T07:18	10	111	0.7	110	112	443	1.1	440	444	22.4	65.3
2025-07-04T07:19	10	112	0.6	112	114	445	1.3	443	447	22.6	65.3
2025-07-04T07:20	10	114	0.5	113	115	447	0.4	447	448	22.8	64.5
2025-07-04T07:21	10	116	0.4	115	117	447	1.1	445	449	22.7	63.5
2025-07-04T07:22	10	118	0.6	117	119	447	0.8	445	448	22.8	63.2
2025-07-04T07:23	10	120	0.7	119	121	448	0.6	447	449	22.8	62.3
2025-07-04T07:24	10	122	0.6	121	123	447	0.4	446	447	22.5	63.0
2025-07-04T07:25	10	124	0.5	123	125	448	0.4	447	449	22.4	62.4
2025-07-04T07:26	10	126	0.5	125	127	450	1.1	448	452	22.3	63.0
2025-07-04T07:27	10	128	0.4	126	128	450	1.3	448	453	22.7	63.0
2025-07-04T07:28	10	128	0.1	128	128	449	0.4	448	449	22.5	62.9
2025-07-04T07:29	10	128	0.2	128	129	452	1.7	449	454	22.5	64.0
2025-07-04T07:30	10	129	0.5	129	130	451	0.7	450	454	22.6	63.5
2025-07-04T07:31	10	129	1.1	126	130	452	0.5	451	453	22.9	64.0
2025-07-04T07:32	10	97	26.0	48	126	449	2.4	444	453	22.9	64.3
2025-07-04T07:33	10	46	0.5	46	48	443	2.2	439	447	22.8	65.7
2025-07-04T07:34	10	48	0.7	47	49	439	1.3	437	441	22.7	66.5
2025-07-04T07:35	10	53	2.1	49	55	437	0.3	436	438	22.3	67.3
2025-07-04T07:36	10	58	4.3	54	70	438	0.6	437	439	22.3	67.4
2025-07-04T07:37	10	86	9.5	71	103	441	1.2	438	443	22.3	67.8
2025-07-04T07:38	10	117	18.5	88	135	444	2.1	441	447	22.4	66.5
2025-07-04T07:39	10	134	0.5	133	135	448	1.2	445	450	22.5	65.9
2025-07-04T07:40	10	134	0.3	134	135	452	1.9	449	454	22.7	65.1
2025-07-04T07:41	10	133	0.6	132	134	454	0.5	453	455	22.7	66.4
2025-07-04T07:42	10	131	0.3	130	131	454	0.4	453	455	22.7	67.2
2025-07-04T07:43	10	130	0.9	127	131	453	0.7	450	454	22.5	67.3
2025-07-04T07:44	10	127	2.2	122	129	450	0.5	449	451	22.2	68.2
2025-07-04T07:45	10	129	0.2	129	130	450	0.3	449	451	22.3	68.0
2025-07-04T07:46	10	130	0.2	129	130	452	0.9	451	454	22.3	68.3
2025-07-04T07:47	10	130	0.5	130	131	454	0.4	453	455	22.5	68.1
2025-07-04T07:48	10	132	0.5	131	133	453	0.6	453	455	22.4	68.2
2025-07-04T07:49	10	133	0.2	133	133	454	0.7	453	455	22.5	68.4
2025-07-04T07:50	10	133	0.4	132	134	456	0.8	454	458	22.8	67.8
2025-07-04T07:51	10	133	0.3	133	134	457	0.4	457	458	22.8	67.4
2025-07-04T07:52	10	133	0.1	133	133	458	1.0	457	460	22.9	67.9
2025-07-04T07:53	10	132	0.3	132	133	461	0.5	460	461	23.3	67.6
2025-07-04T07:54	10	134	0.8	133	136	458	1.1	456	460	23.2	66.2
2025-07-04T07:55	10	135	0.2	135	136	457	0.7	456	459	22.9	66.9
2025-07-04T07:56	10	136	0.3	135	136	457	0.4	456	458	22.7	67.9
2025-07-04T07:57	10	138	1.1	136	140	456	0.5	455	457	22.8	67.5
2025-07-04T07:58	10	140	0.7	137	140	457	1.0	455	459	22.6	68.2
2025-07-04T07:59	10	142	2.4	137	145	458	1.0	457	460	22.6	68.2
2025-07-04T08:00	10	149	2.4	145	152	460	0.8	458	462	22.9	68.1
2025-07-04T08:01	10	113	41.9	60	155	456	4.5	448	462	22.8	67.8
2025-07-04T08:02	10	66	3.0	62	73	448	1.0	446	450	22.5	68.7
2025-07-04T08:03	10	66	2.8	63	74	447	0.3	447	448	22.8	68.8
2025-07-04T08:04	10	97	10.7	75	117	448	0.5	447	449	22.6	68.6
2025-07-04T08:05	10	83	11.1	75	117	448	1.3	446	450	22.4	69.0
2025-07-04T08:06	10	132	27.0	86	159	451	3.0	446	456	22.5	69.2
2025-07-04T08:07	10	144	15.8	121	166	456	1.2	454	459	22.6	68.5
2025-07-04T08:08	10	168	1.6	166	170	460	1.6	458	463	22.9	68.1
2025-07-04T08:09	10	161	6.3	147	167	462	0.7	461	464	22.9	67.5
2025-07-04T08:10	10	125	21.2	77	146	461	3.7	453	465	23.0	67.5
2025-07-04T08:11	10	72	1.4	71	77	450	2.2	447	455	22.3	68.4
2025-07-04T08:12	10	128	33.5	73	167	451	4.1	446	458	22.2	69.1
2025-07-04T08:13	10	99	23.8	76	136	454	2.1	450	456	22.6	68.7
2025-07-04T08:14	10	76	0.4	75	76	451	0.6	449	452	22.6	68.7
2025-07-04T08:15	10	78	1.1	76	80	449	0.4	448	450	22.6	68.3
2025-07-04T08:16	10	86	5.8	80	99	449	0.8	448	450	22.4	68.6
2025-07-04T08:17	10	131	23.0	99	160	454	3.8	449	460	22.4	68.8
2025-07-04T08:18	10	129	15.6	113	159	458	0.5	457	459	22.8	67.9
2025-07-04T08:19	10	126	6.3	116	134	458	0.6	457	459	22.8	67.8
2025-07-04T08:20	10	136	14.1	116	157	459	2.7	456	464	22.8	67.8
2025-07-04T08:21	10	147	13.8	122	162	465	1.2	462	466	23.1	67.2
2025-07-04T08:22	10	154	22.5	122	188	464	1.1	462	466	23.2	66.6
2025-07-04T08:23	10	192	1.3	188	193	470	2.1	465	472	23.0	67.2
2025-07-04T08:24	10	181	13.1	153	192	474	1.4	472	477	23.2	66.7
2025-07-04T08:25	10	151	13.3	115	163	470	2.3	464	473	23.3	66.6
2025-07-04T08:26	10	99	4.3	96	113	461	3.1	457	466	22.9	67.0
2025-07-04T08:27	10	95	0.7	94	96	457	0.4	456	459	22.8	67.3
2025-07-04T08:28	10	93	0.5	93	94	457	1.2	455	458	22.7	67.3
2025-07-04T08:29	10	93	0.3	93	94	456	0.8	455	457	22.6	67.7
2025-07-04T08:30	10	95	1.0	94	97	458	0.5	457	459	22.9	67.4
2025-07-04T08:31	10	96	0.7	95	97	458	0.4	457	459	22.9	67.2
2025-07-04T08:32	10	92	1.4	90	95	457	1.5	454	459	23.0	66.7
2025-07-04T08:33	10	88	0.9	87	90	452	1.1	450	454	22.7	66.6
2025-07-04T08:34	10	87	0.5	86	88	449	0.8	447	450	22.4	67.4
2025-07-04T08:35	10	86	0.2	86	87	452	0.5	451	453	22.7	67.3
2025-07-04T08:36	10	86	0.3	85	86	453	0.6	452	454	22.7	67.2
2025-07-04T08:37	10	85	0.8	84	87	452	1.1	449	454	22.8	66.8
2025-07-04T08:38	10	88	4.1	84	95	449	0.6	447	450	22.4	67.1
2025-07-04T08:39	10	97	0.8	95	99	453	1.9	450	456	22.5	67.5
2025-07-04T08:40	10	97	1.4	96	100	454	0.8	453	455	22.9	67.1
2025-07-04T08:41	10	99	1.8	96	103	453	0.4	452	455	22.9	66.4
2025-07-04T08:42	10	115	7.3	102	122	455	1.9	453	459	22.9	66.3
2025-07-04T08:43	10	131	13.3	120	164	461	1.7	458	465	23.1	65.7
2025-07-04T08:44	10	151	13.7	115	165	466	1.1	464	468	23.1	65.5
2025-07-04T08:45	10	112	3.3	107	117	464	1.8	459	466	23.4	65.1
2025-07-04T08:46	10	105	3.9	102	121	460	0.3	459	461	23.1	64.5
2025-07-04T08:47	10	166	12.6	124	176	464	2.7	458	468	23.0	64.3
2025-07-04T08:48	10	163	6.5	153	176	468	0.9	466	469	23.3	63.9
2025-07-04T08:49	10	175	6.5	162	182	466	0.7	465	468	23.1	63.9
2025-07-04T08:50	10	183	1.0	181	184	470	2.2	468	474	23.1	63.9
2025-07-04T08:51	10	181	0.2	181	181	471	2.0	468	475	23.2	63.4
2025-07-04T08:52	10	157	33.4	77	182	468	3.5	459	472	23.1	63.2
2025-07-04T08:53	10	64	3.0	62	76	456	3.3	452	462	23.0	63.7
2025-07-04T08:54	10	104	45.1	64	188	454	3.2	452	463	23.2	63.6
2025-07-04T08:55	10	187	13.4	124	194	468	3.9	460	472	23.5	62.5
2025-07-04T08:56	10	78	7.3	74	114	460	4.2	456	471	23.7	61.8
2025-07-04T08:57	10	73	0.2	73	74	455	2.2	452	458	23.4	61.9
2025-07-04T08:58	10	74	0.7	73	76	452	0.6	451	454	23.3	62.5
2025-07-04T08:59	10	92	10.9	76	109	455	1.8	452	458	23.3	63.0
2025-07-04T09:00	10	147	26.4	101	177	461	4.2	455	467	23.3	62.7
2025-07-04T09:01	10	123	5.4	116	139	464	0.9	462	466	23.5	62.8
2025-07-04T09:02	10	85	11.1	77	115	457	2.6	454	462	23.3	62.8
2025-07-04T09:03	10	83	3.4	78	87	455	0.6	454	456	23.4	62.7
2025-07-04T09:04	10	82	4.8	77	89	454	1.0	453	456	23.4	62.3
2025-07-04T09:05	10	94	21.9	77	149	452	1.6	450	457	23.2	62.4
2025-07-04T09:06	10	139	23.7	109	170	458	1.5	455	460	23.1	63.1
2025-07-04T09:07	10	157	33.1	115	199	463	2.4	458	466	23.1	63.5
2025-07-04T09:08	10	190	19.2	142	207	469	5.4	460	476	23.2	63.6
2025-07-04T09:09	10	194	8.7	176	202	474	1.7	471	477	23.3	63.7
2025-07-04T09:10	10	122	35.9	86	194	468	4.4	463	475	23.4	63.0
2025-07-04T09:11	10	107	10.7	94	130	465	2.3	460	468	23.8	62.6
2025-07-04T09:12	10	94	7.2	83	104	460	0.7	459	461	23.6	63.1
2025-07-04T09:13	10	86	4.7	83	98	459	1.2	457	461	23.7	62.9
2025-07-04T09:14	10	90	3.0	87	97	455	1.4	453	458	23.5	62.8
2025-07-04T09:15	10	86	1.4	83	88	452	1.5	450	455	23.1	63.0
2025-07-04T09:16	10	81	1.1	79	83	450	0.5	449	451	23.0	63.3
2025-07-04T09:17	10	75	2.5	72	79	448	0.8	447	450	23.1	63.2
2025-07-04T09:18	10	73	1.3	72	77	446	0.4	446	447	23.2	63.2
2025-07-04T09:19	10	150	40.1	77	194	453	5.8	445	463	23.0	63.7
2025-07-04T09:20	10	161	17.6	130	186	463	2.0	461	467	23.2	63.8
2025-07-04T09:21	10	162	5.6	155	176	466	0.9	465	467	23.5	62.8
2025-07-04T09:22	10	189	6.8	176	196	471	2.6	466	475	23.4	62.7
2025-07-04T09:23	10	105	43.4	73	193	466	6.0	458	475	23.5	62.6
2025-07-04T09:24	10	73	0.2	73	73	458	1.9	454	461	23.8	62.4
2025-07-04T09:25	10	74	0.4	73	75	452	1.5	450	455	23.6	61.4
2025-07-04T09:26	10	79	2.8	75	85	452	0.4	451	453	23.3	61.8
2025-07-04T09:27	10	109	27.1	85	171	454	3.4	451	463	23.3	61.9
2025-07-04T09:28	10	183	3.3	172	188	468	3.3	460	472	23.8	61.0
2025-07-04T09:29	10	193	2.4	185	196	473	1.3	470	475	23.6	60.5
2025-07-04T09:30	10	197	0.5	196	198	473	1.1	471	475	23.4	60.4
2025-07-04T09:31	10	196	0.6	195	197	472	0.8	470	474	23.2	60.7
2025-07-04T09:32	10	194	0.5	193	195	476	2.2	473	481	23.4	60.5
2025-07-04T09:33	10	191	1.6	187	193	480	0.8	479	481	23.7	60.1
2025-07-04T09:34	10	185	0.8	184	187	481	1.8	477	483	24.0	59.2
2025-07-04T09:35	10	189	7.2	181	201	476	1.0	474	478	23.3	59.7
2025-07-04T09:36	10	205	2.8	201	210	481	1.8	476	483	23.8	59.2
2025-07-04T09:37	10	212	1.3	210	213	481	0.8	480	483	23.7	58.2
2025-07-04T09:38	10	213	1.0	211	214	483	0.9	481	485	23.8	58.0
2025-07-04T09:39	10	213	0.9	211	214	483	0.7	482	484	23.8	57.8
2025-07-04T09:40	10	215	1.1	213	216	488	1.2	485	490	24.4	57.1
2025-07-04T09:41	10	217	1.6	215	221	490	1.0	487	491	24.7	57.4
2025-07-04T09:42	10	214	6.8	203	222	488	3.3	483	493	24.4	57.8
2025-07-04T09:43	10	161	24.4	136	204	481	3.2	477	487	24.4	58.2
2025-07-04T09:44	10	139	3.4	134	144	477	2.8	471	480	24.2	58.2
2025-07-04T09:45	10	133	4.6	123	139	471	2.0	467	473	23.5	59.4
2025-07-04T09:46	10	134	7.5	125	146	470	1.3	468	472	23.6	59.3
2025-07-04T09:47	10	115	8.8	108	136	466	2.8	463	471	23.9	59.3
2025-07-04T09:48	10	113	4.1	108	121	464	0.5	463	465	23.6	59.7
2025-07-04T09:49	10	109	1.4	108	115	463	1.2	461	465	23.4	59.4
2025-07-04T09:50	10	106	1.0	105	109	462	0.2	461	462	23.3	59.8
2025-07-04T09:51	10	105	0.4	104	106	464	0.7	462	465	23.5	59.3
2025-07-04T09:52	10	106	1.2	103	107	465	0.4	464	465	23.6	59.1
2025-07-04T09:53	10	102	0.7	101	103	463	0.7	462	465	23.8	59.2
2025-07-04T09:54	10	101	0.1	101	101	461	1.1	459	463	23.7	58.7
2025-07-04T09:55	10	103	1.9	101	107	459	0.8	457	461	23.3	58.9
2025-07-04T09:56	10	95	2.9	91	102	460	1.1	458	462	23.5	58.7
2025-07-04T09:57	10	89	1.3	87	91	457	1.0	455	458	23.5	58.8
2025-07-04T09:58	10	85	0.9	84	87	456	0.3	455	457	23.7	58.7
2025-07-04T09:59	10	83	0.2	83	84	457	0.5	456	458	23.9	58.6
2025-07-04T10:00	10	83	0.1	83	83	455	0.5	454	456	23.6	58.2
2025-07-04T10:01	10	84	0.2	83	84	456	0.9	455	457	23.6	58.3
2025-07-04T10:02	10	84	0.1	84	84	455	0.8	454	456	23.5	58.4
2025-07-04T10:03	10	84	0.1	84	84	455	0.4	454	456	23.5	58.0
2025-07-04T10:04	10	84	0.1	84	84	455	0.4	454	456	23.6	57.8
2025-07-04T10:05	10	84	0.2	84	85	456	0.7	454	457	23.8	57.8
2025-07-04T10:06	10	84	0.4	83	84	458	0.7	456	459	24.0	58.0
2025-07-04T10:07	10	82	0.6	81	83	457	0.5	456	459	24.1	58.0
2025-07-04T10:08	10	80	0.6	79	81	455	1.0	454	457	23.9	58.0
2025-07-04T10:09	10	79	0.3	78	79	454	1.0	452	455	23.6	58.3
2025-07-04T10:10	10	78	0.2	78	79	452	0.4	451	453	23.4	58.1
2025-07-04T10:11	10	78	0.1	77	78	454	0.5	453	455	23.6	58.5
2025-07-04T10:12	10	78	0.3	77	78	455	0.5	454	456	23.9	58.4
2025-07-04T10:13	10	79	0.3	78	80	454	0.8	453	456	23.8	57.7
2025-07-04T10:14	10	81	0.7	79	82	453	0.4	452	453	23.5	58.0
2025-07-04T10:15	10	84	1.5	82	87	452	0.3	452	453	23.5	58.8
2025-07-04T10:16	10	90	1.3	87	92	455	1.8	453	458	23.5	58.7
2025-07-04T10:17	10	94	1.3	92	96	458	0.6	458	460	23.7	58.9
2025-07-04T10:18	10	97	0.3	96	97	456	0.8	455	458	23.8	58.8
2025-07-04T10:19	10	99	1.5	97	103	457	0.7	456	459	23.6	58.6
2025-07-04T10:20	10	113	13.4	103	169	459	0.6	458	461	23.6	59.0
2025-07-04T10:21	10	129	16.9	115	174	462	0.5	460	462	23.6	59.5
2025-07-04T10:22	10	115	15.3	100	145	461	1.0	459	463	23.4	59.1
2025-07-04T10:23	10	102	2.9	100	108	461	0.5	460	462	23.6	59.1
2025-07-04T10:24	10	141	32.8	108	208	466	4.7	460	472	23.8	58.9
2025-07-04T10:25	10	113	2.4	111	120	465	1.0	464	468	23.9	58.3
2025-07-04T10:26	10	111	4.2	107	122	465	0.7	464	466	24.1	58.2
2025-07-04T10:27	10	141	32.1	108	193	466	3.9	462	474	24.1	57.4
2025-07-04T10:28	10	166	24.6	135	214	474	1.2	472	478	24.0	58.0
2025-07-04T10:29	10	195	32.2	146	247	480	2.6	475	485	23.9	58.4
2025-07-04T10:30	10	192	36.9	127	247	481	4.0	475	487	24.1	58.3
2025-07-04T10:31	10	111	7.8	101	127	475	4.1	469	483	24.1	57.8
2025-07-04T10:32	10	125	24.6	101	197	469	1.2	468	473	24.0	57.6
2025-07-04T10:33	10	219	10.1	200	234	483	4.7	471	488	24.1	57.9
2025-07-04T10:34	10	220	4.9	212	228	488	0.8	486	489	24.1	57.4
2025-07-04T10:35	10	215	5.9	191	218	488	1.0	485	490	24.1	57.4
2025-07-04T10:36	10	197	8.3	177	208	485	0.8	483	486	24.1	57.4
2025-07-04T10:37	10	196	12.9	163	209	487	1.4	485	490	24.1	57.4
2025-07-04T10:38	10	166	28.4	124	200	486	3.3	479	490	24.1	57.4
2025-07-04T10:39	10	134	15.0	112	162	479	1.6	477	482	24.1	57.4
2025-07-04T10:40	10	202	6.7	170	211	488	3.1	480	492	24.1	57.4
2025-07-04T10:41	10	158	23.7	117	205	486	3.5	481	492	24.1	57.4
2025-07-04T10:42	10	125	12.6	107	152	478	2.4	474	484	24.8	56.0
2025-07-04T10:43	10	105	13.6	87	133	471	2.5	468	477	24.1	56.0
2025-07-04T10:44	10	134	18.8	102	174	474	1.3	471	477	24.2	56.3
2025-07-04T10:45	10	160	34.8	94	189	480	5.6	472	488	24.4	56.3
2025-07-04T10:46	10	183	1.2	182	185	488	0.8	486	489	24.5	56.3
2025-07-04T10:47	10	181	0.5	180	182	485	1.0	483	486	24.5	56.6
2025-07-04T10:48	10	181	0.3	181	182	486	0.6	485	487	24.7	56.2
2025-07-04T10:49	10	181	0.2	181	182	485	2.1	482	489	24.4	57.1
2025-07-04T10:50	10	180	0.7	178	181	484	1.1	482	486	24.1	57.6
2025-07-04T10:51	10	178	0.3	177	178	490	2.1	486	493	24.7	57.1
2025-07-04T10:52	10	178	0.2	177	178	488	1.2	485	490	24.5	56.8
2025-07-04T10:53	10	178	0.2	177	178	485	0.6	484	487	24.4	56.5
2025-07-04T10:54	10	177	0.5	176	177	486	1.6	483	489	24.1	56.9
2025-07-04T10:55	10	178	0.4	177	178	485	1.0	484	487	23.9	56.8
2025-07-04T10:56	10	176	0.8	175	177	486	0.9	485	488	24.1	56.2
2025-07-04T10:57	10	178	0.6	176	178	489	1.3	487	492	24.5	56.2
2025-07-04T10:58	10	178	0.2	178	178	491	1.5	488	493	25.3	55.4
2025-07-04T10:59	10	179	0.2	178	179	486	2.8	483	491	24.5	55.8
2025-07-04T11:00	10	180	0.3	179	180	485	1.0	484	488	24.0	56.8
2025-07-04T11:01	10	181	0.2	180	181	489	1.1	486	490	24.3	57.0
2025-07-04T11:02	10	181	0.4	181	182	487	1.1	485	489	24.4	56.5
2025-07-04T11:03	10	183	0.5	182	184	488	0.8	487	490	24.7	55.9
2025-07-04T11:04	10	185	0.6	184	186	490	0.7	488	491	24.5	55.7
2025-07-04T11:05	10	187	1.0	186	189	490	1.0	489	493	24.3	56.4
2025-07-04T11:06	10	192	2.8	189	205	492	1.2	490	494	24.6	56.0
2025-07-04T11:07	10	197	1.4	194	199	492	1.1	489	494	24.5	55.5
2025-07-04T11:08	10	191	7.0	176	197	490	0.7	488	491	24.4	55.5
2025-07-04T11:09	10	194	3.5	187	198	492	1.1	490	495	24.5	55.5
2025-07-04T11:10	10	192	2.2	187	194	493	0.9	492	495	24.8	55.3
2025-07-04T11:11	10	194	0.5	193	194	488	1.7	487	494	24.4	55.6
2025-07-04T11:12	10	192	0.8	191	193	490	0.7	488	491	24.5	55.4
2025-07-04T11:13	10	190	0.3	190	191	492	1.4	490	494	24.3	56.4
2025-07-04T11:14	10	189	0.2	189	190	495	1.9	491	498	24.8	55.7
2025-07-04T11:15	10	187	0.8	186	190	496	1.1	495	499	24.7	55.3
2025-07-04T11:16	10	186	1.6	183	188	496	1.2	494	498	25.2	54.8
2025-07-04T11:17	10	188	1.4	185	189	496	1.2	493	498	24.9	54.8
2025-07-04T11:18	10	186	1.5	183	188	496	2.4	493	500	24.7	55.1
2025-07-04T11:19	10	185	1.1	183	187	496	1.7	494	500	24.8	54.1
2025-07-04T11:20	10	186	1.1	184	188	498	1.0	495	499	24.5	53.7
2025-07-04T11:21	10	189	1.5	187	191	500	0.7	498	501	24.5	55.0
2025-07-04T11:22	10	112	50.7	50	190	488	11.1	468	501	24.8	55.3
2025-07-04T11:23	10	48	2.2	45	51	466	2.7	463	473	24.2	56.2
2025-07-04T11:24	10	45	0.4	44	45	464	1.1	461	465	24.7	55.2
2025-07-04T11:25	10	47	0.5	46	47	460	1.3	458	462	24.7	55.2
2025-07-04T11:26	10	46	0.6	45	48	458	0.3	457	459	24.5	55.7
2025-07-04T11:27	10	66	12.8	48	85	458	2.2	456	463	24.4	55.4
2025-07-04T11:28	10	125	20.9	85	148	469	5.3	461	477	24.6	55.2
2025-07-04T11:29	10	183	18.8	144	199	483	5.4	474	491	25.1	54.4
2025-07-04T11:30	10	198	0.2	198	199	490	1.7	487	493	25.3	53.1
2025-07-04T11:31	10	200	1.0	198	202	491	0.9	489	493	24.8	53.3
2025-07-04T11:32	10	203	0.7	201	204	498	2.3	492	500	25.1	53.7
2025-07-04T11:33	10	205	0.5	204	205	501	1.3	498	503	25.1	53.3
2025-07-04T11:34	10	195	11.4	175	205	504	1.1	502	506	25.7	53.3
2025-07-04T11:35	10	174	21.0	136	208	502	2.9	496	506	26.1	52.3
2025-07-04T11:36	10	87	14.8	72	133	487	7.1	477	500	25.7	52.1
2025-07-04T11:37	10	105	20.3	75	130	477	2.2	473	481	25.3	52.9
2025-07-04T11:38	10	71	10.5	60	101	471	4.4	464	479	24.9	53.2
2025-07-04T11:39	10	64	3.4	61	75	464	1.2	461	466	24.8	53.2
2025-07-04T11:40	10	118	39.4	77	192	467	5.1	462	479	24.6	54.0
2025-07-04T11:41	10	186	11.9	172	206	485	4.2	477	494	24.9	53.6
2025-07-04T11:42	10	202	1.5	200	206	496	2.0	491	498	25.3	52.6
2025-07-04T11:43	10	198	0.7	197	200	498	0.7	497	499	25.5	52.4
2025-07-04T11:44	10	200	1.1	198	202	496	0.8	495	498	25.0	52.8
2025-07-04T11:45	10	204	1.0	202	205	502	1.9	498	505	25.5	52.7
2025-07-04T11:46	10	205	0.2	204	205	503	0.9	501	504	25.5	52.0
2025-07-04T11:47	10	203	1.3	198	205	501	0.5	500	502	25.3	52.0
2025-07-04T11:48	10	192	10.5	177	205	502	1.1	500	505	25.3	52.3
2025-07-04T11:49	10	205	2.6	191	206	503	2.4	498	506	25.5	51.5
2025-07-04T11:50	10	155	10.6	138	187	492	3.2	488	500	25.2	51.8
2025-07-04T11:51	10	203	13.4	166	212	496	3.7	490	501	25.0	51.8
2025-07-04T11:52	10	213	0.7	210	214	499	0.6	499	501	25.0	51.1
2025-07-04T11:53	10	185	12.1	159	209	496	3.8	491	502	25.0	50.1
2025-07-04T11:54	10	197	13.4	160	207	494	2.5	491	498	25.0	50.2
2025-07-04T11:55	10	87	44.0	54	192	483	10.1	469	500	24.7	50.3
2025-07-04T11:56	10	54	0.6	54	56	468	2.5	465	473	24.7	50.4
2025-07-04T11:57	10	57	0.4	56	58	465	0.9	464	467	24.7	51.0
2025-07-04T11:58	10	58	2.2	56	64	464	0.5	463	465	24.6	51.4
2025-07-04T11:59	10	90	17.9	64	121	468	3.3	463	474	24.8	50.9
2025-07-04T12:00	10	176	19.3	123	191	484	7.8	471	495	25.2	50.8
2025-07-04T12:01	10	191	0.7	190	193	497	2.6	491	500	25.6	49.4
2025-07-04T12:02	10	194	1.1	192	197	499	1.8	497	502	26.0	48.8
2025-07-04T12:03	10	197	3.5	191	201	499	2.0	496	503	25.6	49.4
2025-07-04T12:04	10	201	0.3	200	201	504	1.2	502	507	25.9	49.8
2025-07-04T12:05	10	195	4.0	186	200	504	3.2	499	508	26.0	49.3
2025-07-04T12:06	10	181	4.2	174	188	495	3.2	490	500	25.5	49.6
2025-07-04T12:07	10	173	4.9	167	189	492	0.8	491	494	25.3	50.3
2025-07-04T12:08	10	194	1.6	190	196	498	1.7	494	500	25.6	49.7
2025-07-04T12:09	10	189	2.5	185	192	500	1.4	497	503	25.3	49.9
2025-07-04T12:10	10	186	0.1	185	186	498	0.7	497	500	25.1	50.2
2025-07-04T12:11	10	185	0.3	185	186	494	2.6	491	499	25.3	48.6
2025-07-04T12:12	10	184	0.3	184	185	493	1.2	491	496	25.6	48.2
2025-07-04T12:13	10	183	0.1	183	184	497	2.0	493	499	26.2	47.6
2025-07-04T12:14	10	183	0.2	182	183	496	1.3	494	499	25.8	47.8
2025-07-04T12:15	10	182	0.6	181	183	497	1.4	494	499	25.4	48.8
2025-07-04T12:16	10	181	0.4	180	181	494	1.1	492	496	25.7	48.1
2025-07-04T12:17	10	160	13.0	140	181	492	1.5	489	494	25.3	48.5
2025-07-04T12:18	10	177	3.0	168	180	496	2.3	491	499	25.5	49.4
2025-07-04T12:19	10	180	0.5	180	181	500	1.5	497	502	26.0	48.5
2025-07-04T12:20	10	181	0.2	181	182	501	0.7	500	503	26.0	48.0
2025-07-04T12:21	10	182	0.2	182	183	502	0.6	501	503	26.2	48.0
2025-07-04T12:22	10	182	0.2	182	183	503	0.9	502	505	26.2	48.4
2025-07-04T12:23	10	182	0.1	182	182	499	2.5	496	504	25.9	48.1
2025-07-04T12:24	10	182	0.1	182	182	502	1.3	499	504	25.7	48.8
2025-07-04T12:25	10	182	0.1	182	182	503	1.2	500	505	25.9	48.4
2025-07-04T12:26	10	182	0.2	182	182	500	1.3	499	503	25.7	47.8
2025-07-04T12:27	10	181	0.2	181	182	501	1.7	498	503	26.3	47.5
2025-07-04T12:28	10	181	0.1	181	182	500	1.0	499	502	25.7	47.7
2025-07-04T12:29	10	182	0.2	181	182	498	0.9	496	500	25.7	47.7
2025-07-04T12:30	10	179	4.2	172	183	497	2.6	492	501	25.6	47.9
2025-07-04T12:31	10	181	1.5	177	183	496	2.6	493	500	25.5	48.6
2025-07-04T12:32	10	182	0.2	181	182	502	1.0	499	504	26.0	47.9
2025-07-04T12:33	10	182	0.3	182	183	502	1.1	500	504	26.0	47.7
2025-07-04T12:34	10	183	0.2	182	183	499	1.2	497	501	25.8	48.2
2025-07-04T12:35	10	183	0.2	183	184	498	0.7	497	499	25.9	48.0
2025-07-04T12:36	10	183	1.0	179	184	500	0.8	498	501	26.0	47.9
2025-07-04T12:37	10	178	1.1	176	181	499	0.8	498	501	26.0	47.4
2025-07-04T12:38	10	179	1.2	176	181	499	1.7	496	502	25.7	47.5
2025-07-04T12:39	10	181	0.4	180	182	503	0.7	501	504	26.0	47.7
2025-07-04T12:40	10	181	0.5	180	182	505	1.0	503	507	26.3	47.3
2025-07-04T12:41	10	180	0.5	179	181	505	0.8	504	507	26.7	46.8
2025-07-04T12:42	10	180	0.2	179	180	506	1.3	504	508	26.4	47.1
2025-07-04T12:43	10	179	0.2	179	179	506	1.4	503	508	26.8	46.6
2025-07-04T12:44	10	179	0.1	179	179	499	2.2	496	505	26.3	45.3
2025-07-04T12:45	10	178	0.4	178	179	498	0.5	497	499	26.1	45.2
2025-07-04T12:46	10	178	0.3	177	178	500	1.0	498	502	26.3	45.0
2025-07-04T12:47	10	177	0.2	176	177	502	0.8	500	503	26.4	44.8
2025-07-04T12:48	10	178	0.5	177	178	500	1.0	498	502	26.4	44.2
2025-07-04T12:49	10	178	0.3	177	178	500	1.1	498	502	26.2	44.8
2025-07-04T12:50	10	177	0.2	177	177	500	0.6	499	501	26.2	45.2
2025-07-04T12:51	10	178	0.4	177	179	502	0.9	501	504	26.4	45.5
2025-07-04T12:52	10	179	0.2	178	179	504	1.1	502	506	26.3	44.8
2025-07-04T12:53	10	179	0.1	178	179	504	0.7	502	505	26.1	45.0
2025-07-04T12:54	10	178	0.1	178	179	503	1.1	502	506	26.1	45.7
2025-07-04T12:55	10	178	0.1	178	178	506	1.2	505	509	26.5	44.9
2025-07-04T12:56	10	178	0.1	178	178	509	0.6	507	510	26.6	44.6
2025-07-04T12:57	10	178	0.1	178	178	507	1.2	505	509	26.5	43.6
2025-07-04T12:58	10	179	0.2	178	179	508	0.6	506	509	26.6	44.8
2025-07-04T12:59	10	179	0.1	178	179	506	1.5	503	508	26.6	44.1
2025-07-04T13:00	10	179	0.2	178	179	505	1.3	503	507	26.7	44.3
2025-07-04T13:01	10	178	0.2	178	178	506	0.6	505	507	26.8	43.6
2025-07-04T13:02	10	179	0.6	178	180	504	1.6	502	507	26.8	44.4
2025-07-04T13:03	10	180	0.3	179	180	501	1.4	499	504	26.8	43.8
2025-07-04T13:04	10	180	0.7	179	181	500	0.9	499	502	26.2	43.7
2025-07-04T13:05	10	163	24.0	103	184	500	2.4	496	503	26.5	43.8
2025-07-04T13:06	10	115	29.4	77	171	493	3.3	489	500	26.7	43.2
2025-07-04T13:07	10	120	33.8	75	175	493	2.8	487	496	26.5	43.2
2025-07-04T13:08	10	28	7.8	24	66	476	6.3	468	490	26.3	43.3
2025-07-04T13:09	10	35	5.3	28	51	468	0.9	467	470	26.2	44.1
2025-07-04T13:10	10	116	48.7	52	177	475	7.6	466	489	26.3	43.7
2025-07-04T13:11	10	178	3.2	173	182	494	4.4	485	500	26.4	43.5
2025-07-04T13:12	10	180	0.9	179	181	501	1.3	499	503	26.3	43.2
2025-07-04T13:13	10	177	1.2	176	179	504	1.3	501	506	26.5	43.3
2025-07-04T13:14	10	175	0.2	175	176	501	2.5	496	505	26.6	42.5
2025-07-04T13:15	10	175	0.2	175	175	496	0.4	496	497	26.4	42.8
2025-07-04T13:16	10	175	0.1	174	175	497	0.8	495	498	26.4	42.6
2025-07-04T13:17	10	175	0.1	174	175	496	0.8	495	498	26.3	42.2
2025-07-04T13:18	10	175	0.1	174	175	500	1.7	498	503	26.0	42.9
2025-07-04T13:19	10	174	0.1	174	174	503	0.4	502	504	26.6	42.3
2025-07-04T13:20	10	174	0.2	173	174	505	0.5	504	506	26.7	42.2
2025-07-04T13:21	10	173	0.1	173	173	505	0.4	504	506	26.7	41.8
2025-07-04T13:22	10	173	0.2	172	173	506	0.6	505	508	26.9	41.9
2025-07-04T13:23	10	172	0.1	172	173	506	0.3	505	507	26.8	41.0
2025-07-04T13:24	10	172	0.1	172	173	505	0.4	504	506	26.7	41.4
2025-07-04T13:25	10	172	0.2	172	173	504	0.5	503	505	26.6	41.2
2025-07-04T13:26	10	172	0.2	171	172	506	0.8	504	507	26.8	41.7
2025-07-04T13:27	10	172	0.2	171	172	500	1.7	496	504	26.5	43.0
2025-07-04T13:28	10	172	0.2	171	172	499	1.8	496	501	26.8	43.0
2025-07-04T13:29	10	172	0.2	171	172	502	0.9	500	504	27.2	42.7
2025-07-04T13:30	10	171	0.7	169	172	500	1.4	498	503	26.9	42.2
2025-07-04T13:31	10	168	0.4	168	169	500	1.5	497	503	26.8	42.5
2025-07-04T13:32	10	168	0.6	167	168	498	1.1	496	500	26.7	42.4
2025-07-04T13:33	10	166	0.1	166	167	497	1.0	495	499	26.7	41.8
2025-07-04T13:34	10	167	0.3	166	167	499	1.0	497	500	26.5	42.2
2025-07-04T13:35	10	168	0.5	167	169	502	1.1	499	503	26.9	41.8
2025-07-04T13:36	10	169	0.1	169	169	501	2.3	498	505	27.1	41.6
2025-07-04T13:37	10	169	0.1	168	169	499	0.3	498	500	27.0	42.1
2025-07-04T13:38	10	168	0.1	168	168	499	1.6	496	501	27.6	41.0
2025-07-04T13:39	10	168	0.1	168	169	498	1.2	496	501	26.7	41.2
2025-07-04T13:40	10	169	0.1	168	169	500	0.4	499	500	26.8	41.3
2025-07-04T13:41	10	168	0.1	168	169	502	0.9	500	503	26.7	41.0
2025-07-04T13:42	10	168	0.1	168	168	504	0.5	503	505	26.7	41.7
2025-07-04T13:43	10	168	0.1	168	168	504	2.2	500	507	27.1	41.0
2025-07-04T13:44	10	168	0.1	168	168	500	0.8	499	502	27.1	41.0
2025-07-04T13:45	10	168	0.1	168	168	504	1.1	501	506	27.2	41.6
2025-07-04T13:46	10	168	0.1	168	168	500	3.9	495	505	27.1	40.6
2025-07-04T13:47	10	168	0.2	167	168	497	0.5	495	498	27.0	40.3
2025-07-04T13:48	10	167	0.1	167	168	496	0.8	495	498	26.6	40.4
2025-07-04T13:49	10	167	0.1	166	167	499	1.5	496	501	27.0	40.6
2025-07-04T13:50	10	166	0.1	166	167	498	1.0	497	500	26.7	40.5
2025-07-04T13:51	10	166	0.1	166	166	502	1.2	500	504	27.1	40.1
2025-07-04T13:52	10	166	0.1	166	167	499	1.7	497	503	27.3	39.7
2025-07-04T13:53	10	167	0.2	166	167	498	1.4	496	501	27.3	39.2
2025-07-04T13:54	10	167	0.1	167	168	497	1.8	495	501	27.0	39.1
2025-07-04T13:55	10	168	0.1	167	168	501	2.0	497	504	26.8	39.7
2025-07-04T13:56	10	167	0.2	167	167	504	0.5	503	505	27.0	39.6
2025-07-04T13:57	10	167	0.1	166	167	503	0.3	503	504	27.0	39.9
2025-07-04T13:58	10	166	0.2	166	166	504	0.8	503	505	27.3	39.8
2025-07-04T13:59	10	165	0.3	165	166	502	2.3	499	505	27.3	39.8
2025-07-04T14:00	10	165	0.2	164	165	498	0.8	496	500	27.0	39.8
2025-07-04T14:01	10	164	0.2	164	165	498	1.3	496	500	27.1	39.8
2025-07-04T14:02	10	163	0.3	163	164	497	2.0	494	500	27.3	39.3
2025-07-04T14:03	10	163	0.1	163	163	497	1.6	494	500	26.9	39.3
2025-07-04T14:04	10	163	0.1	163	163	500	0.8	498	501	26.9	39.3
2025-07-04T14:05	10	162	0.2	162	163	501	0.5	500	502	27.0	39.2
2025-07-04T14:06	10	162	0.2	162	163	501	1.1	499	502	27.1	39.1
2025-07-04T14:07	10	162	0.2	161	162	499	0.3	498	500	27.0	39.3
2025-07-04T14:08	10	161	0.1	161	162	497	0.9	495	499	26.9	39.3
2025-07-04T14:09	10	161	0.2	161	162	499	1.1	497	501	26.9	39.2
2025-07-04T14:10	10	161	0.1	160	161	502	1.2	500	504	27.4	40.2
2025-07-04T14:11	10	161	0.2	160	161	498	2.4	495	502	27.5	38.2
2025-07-04T14:12	10	160	0.3	159	160	497	1.0	495	498	27.6	37.8
2025-07-04T14:13	10	159	0.3	158	159	500	0.9	498	501	28.0	37.5
2025-07-04T14:14	10	157	0.7	156	158	500	1.6	497	502	27.9	38.3
2025-07-04T14:15	10	157	0.2	157	158	496	0.9	495	499	27.5	38.6
2025-07-04T14:16	10	157	0.1	157	157	497	0.8	495	499	27.2	38.9
2025-07-04T14:17	10	157	0.2	157	157	499	0.6	497	500	27.5	39.2
2025-07-04T14:18	10	158	0.2	157	158	497	0.8	496	499	27.1	39.0
2025-07-04T14:19	10	158	0.1	158	159	499	0.9	498	501	27.0	39.3
2025-07-04T14:20	10	158	0.2	158	159	501	0.4	500	501	27.1	38.9
2025-07-04T14:21	10	159	0.1	158	159	501	0.5	500	502	27.2	38.8
2025-07-04T14:22	10	159	0.1	158	159	501	0.3	500	501	27.4	39.7
2025-07-04T14:23	10	158	0.2	158	159	502	0.6	501	503	27.4	39.9
2025-07-04T14:24	10	157	0.3	157	158	500	2.6	495	503	27.5	38.5
2025-07-04T14:25	10	156	0.4	156	157	496	0.8	495	497	27.0	38.3
2025-07-04T14:26	10	155	0.3	155	156	499	1.2	497	501	27.2	39.1
2025-07-04T14:27	10	155	0.1	154	155	497	0.9	494	498	27.8	38.5
2025-07-04T14:28	10	155	0.1	155	155	495	0.9	494	497	27.7	37.9
2025-07-04T14:29	10	155	0.1	155	155	499	1.0	497	501	27.6	38.7
2025-07-04T14:30	10	154	0.3	154	155	500	0.9	498	501	27.7	38.3
2025-07-04T14:31	10	154	0.1	154	154	500	0.6	499	502	27.7	38.5
2025-07-04T14:32	10	154	0.1	153	154	498	1.6	496	501	27.9	37.7
2025-07-04T14:33	10	154	0.2	153	154	498	0.3	497	499	27.9	37.8
2025-07-04T14:34	10	153	0.2	153	153	497	0.5	496	499	27.5	37.4
2025-07-04T14:35	10	153	0.2	152	153	498	0.6	497	499	27.5	37.4
2025-07-04T14:36	10	153	0.1	152	153	498	1.3	497	500	27.5	37.3
2025-07-04T14:37	10	153	0.2	153	153	498	0.6	497	499	27.6	37.1
2025-07-04T14:38	10	152	0.2	152	153	498	1.0	497	500	27.7	36.8
2025-07-04T14:39	10	152	0.4	151	153	501	0.6	500	502	27.7	37.1
2025-07-04T14:40	10	152	0.3	151	152	501	0.9	500	503	28.0	36.4
2025-07-04T14:41	10	151	0.2	151	152	501	1.2	498	502	28.0	36.8
2025-07-04T14:42	10	151	0.2	150	151	497	0.5	496	499	27.5	36.6
2025-07-04T14:43	10	151	0.2	150	151	497	0.6	496	498	27.5	37.2
2025-07-04T14:44	10	151	0.1	150	151	498	1.4	495	500	27.7	36.6
2025-07-04T14:45	10	150	0.1	150	151	496	1.5	494	498	27.4	36.3
2025-07-04T14:46	10	150	0.2	150	150	499	0.6	498	500	27.8	35.6
2025-07-04T14:47	10	150	0.2	149	150	498	0.8	497	500	28.1	35.5
2025-07-04T14:48	10	149	0.2	148	149	498	1.7	494	500	28.0	36.1
2025-07-04T14:49	10	148	0.1	148	148	495	2.0	492	498	28.0	35.5
2025-07-04T14:50	10	148	0.1	148	148	494	0.9	492	495	27.8	35.5
2025-07-04T14:51	10	148	0.1	147	148	495	0.4	494	496	28.3	35.2
2025-07-04T14:52	10	147	0.1	147	148	494	1.1	492	496	28.1	34.9
2025-07-04T14:53	10	147	0.3	147	148	493	0.7	492	495	27.7	35.4
2025-07-04T14:54	10	147	0.1	146	147	493	0.5	492	494	27.6	35.5
2025-07-04T14:55	10	146	0.1	146	147	495	0.8	494	496	27.5	36.1
2025-07-04T14:56	10	146	0.2	146	146	493	0.8	492	495	27.6	35.8
2025-07-04T14:57	10	145	0.1	145	146	494	0.7	493	496	27.6	35.8
2025-07-04T14:58	10	145	0.1	145	146	495	0.6	494	496	28.1	35.0
2025-07-04T14:59	10	146	0.1	145	146	492	1.3	490	495	27.6	34.8
2025-07-04T15:00	10	145	0.2	145	145	493	0.9	492	495	27.8	34.5
2025-07-04T15:01	10	145	0.1	144	145	493	0.9	491	494	28.0	34.1
2025-07-04T15:02	10	145	0.1	144	145	492	0.6	491	493	27.8	34.2
2025-07-04T15:03	10	144	0.2	144	145	495	1.6	491	497	28.0	34.3
2025-07-04T15:04	10	144	0.2	143	144	494	1.6	492	496	28.1	34.6
2025-07-04T15:05	10	143	0.1	143	143	492	0.6	491	494	27.8	34.6
2025-07-04T15:06	10	143	0.1	143	143	492	0.5	491	493	28.1	34.8
2025-07-04T15:07	10	143	0.2	142	143	495	1.6	492	497	28.1	35.1
2025-07-04T15:08	10	142	0.1	142	142	496	1.6	493	498	28.4	35.5
2025-07-04T15:09	10	142	0.1	142	142	492	1.5	490	495	28.3	35.7
2025-07-04T15:10	10	142	0.3	141	142	487	0.7	486	490	27.6	35.9
2025-07-04T15:11	10	141	0.2	141	142	488	0.9	487	490	28.1	35.8
2025-07-04T15:12	10	141	0.1	141	141	486	1.1	485	489	27.5	35.6
2025-07-04T15:13	10	140	0.2	140	141	489	1.2	487	491	28.0	35.2
2025-07-04T15:14	10	140	0.3	139	140	487	0.7	486	489	27.8	35.0
2025-07-04T15:15	10	139	0.2	139	139	487	0.3	486	488	27.6	35.5
2025-07-04T15:16	10	139	0.1	138	139	490	1.2	487	491	27.9	35.5
2025-07-04T15:17	10	138	0.1	138	139	489	0.7	488	491	27.7	35.1
2025-07-04T15:18	10	138	0.1	138	138	489	1.2	487	491	27.7	35.0
2025-07-04T15:19	10	138	0.1	137	138	491	0.9	490	494	27.8	34.6
2025-07-04T15:20	10	137	0.1	137	138	491	0.8	490	493	27.7	34.2
2025-07-04T15:21	10	137	0.2	137	137	489	1.1	488	492	27.7	35.0
2025-07-04T15:22	10	137	0.2	136	137	488	1.1	487	490	27.8	35.5
2025-07-04T15:23	10	136	0.2	136	137	487	1.0	486	490	27.6	35.7
2025-07-04T15:24	10	135	0.2	135	136	489	1.6	487	491	27.7	35.5
2025-07-04T15:25	10	135	0.1	135	135	493	1.2	491	495	27.9	35.6
2025-07-04T15:26	10	135	0.2	134	135	489	2.5	486	494	28.0	35.5
2025-07-04T15:27	10	134	0.2	134	134	486	0.4	485	487	27.8	36.9
2025-07-04T15:28	10	133	0.2	133	134	486	0.8	485	487	28.0	36.9
2025-07-04T15:29	10	132	0.2	132	133	486	0.5	485	487	27.9	37.0
2025-07-04T15:30	10	132	0.2	131	132	486	0.5	485	488	27.6	37.5
2025-07-04T15:31	10	131	0.2	131	132	487	0.9	485	489	27.8	37.4
2025-07-04T15:32	10	131	0.1	131	131	487	1.5	485	490	28.1	37.2
2025-07-04T15:33	10	131	0.1	130	131	487	1.0	486	489	28.3	37.2
2025-07-04T15:34	10	130	0.1	130	131	487	0.6	486	489	28.0	37.2
2025-07-04T15:35	10	130	0.1	130	130	485	0.6	484	487	27.9	37.1
2025-07-04T15:36	10	130	0.1	130	130	484	0.6	483	485	27.8	37.1
2025-07-04T15:37	10	130	0.2	129	130	486	0.8	485	488	27.9	36.9
2025-07-04T15:38	10	129	0.2	129	130	488	0.6	487	490	27.9	36.8
2025-07-04T15:39	10	129	0.2	129	129	488	0.4	487	489	28.1	37.1
2025-07-04T15:40	10	129	0.1	128	129	486	1.6	483	489	28.2	36.3
2025-07-04T15:41	10	128	0.2	128	129	484	0.7	483	485	27.8	36.6
2025-07-04T15:42	10	128	0.1	127	128	485	0.8	483	486	28.1	36.2
2025-07-04T15:43	10	127	0.2	127	128	482	1.2	480	484	27.7	35.9
2025-07-04T15:44	10	127	0.3	126	127	483	1.0	481	485	27.6	36.3
2025-07-04T15:45	10	126	0.1	126	127	486	0.7	484	487	28.2	36.2
2025-07-04T15:46	10	126	0.2	125	126	485	0.6	483	486	28.3	35.5
2025-07-04T15:47	10	126	0.1	125	126	484	1.0	482	485	28.1	35.8
2025-07-04T15:48	10	125	0.2	125	126	481	0.8	480	483	27.8	35.5
2025-07-04T15:49	10	125	0.2	124	125	482	0.8	481	485	27.9	35.4
2025-07-04T15:50	10	124	0.2	124	125	486	0.4	484	487	27.9	35.4
2025-07-04T15:51	10	124	0.2	123	124	485	0.6	484	487	28.0	36.1
2025-07-04T15:52	10	123	0.3	122	124	484	0.3	484	485	28.2	36.0
2025-07-04T15:53	10	122	0.2	122	123	483	1.2	481	484	28.0	35.9
2025-07-04T15:54	10	122	0.2	121	122	480	1.0	479	482	27.8	36.2
2025-07-04T15:55	10	121	0.1	121	122	482	0.4	481	483	27.8	36.0
2025-07-04T15:56	10	121	0.1	121	121	482	0.4	481	483	27.7	35.7
2025-07-04T15:57	10	121	0.2	120	121	484	0.8	482	485	27.7	35.7
2025-07-04T15:58	10	120	0.1	120	120	485	0.6	484	486	28.2	35.1
2025-07-04T15:59	10	120	0.2	119	120	485	0.4	484	486	28.3	35.8
2025-07-04T16:00	10	119	0.2	119	120	483	1.8	480	486	28.2	35.2
2025-07-04T16:01	10	119	0.2	119	119	481	0.4	480	482	27.7	34.9
2025-07-04T16:02	10	118	0.3	118	119	483	1.2	481	485	27.9	35.3
2025-07-04T16:03	10	118	0.1	118	118	483	1.0	481	485	28.1	35.5
2025-07-04T16:04	10	118	0.3	117	118	479	1.9	476	482	27.7	37.6
2025-07-04T16:05	10	117	0.3	116	117	477	0.3	476	478	27.7	37.5
2025-07-04T16:06	10	116	0.3	115	117	478	0.7	476	479	27.7	37.2
2025-07-04T16:07	10	115	0.2	115	116	480	0.7	479	481	27.9	37.0
2025-07-04T16:08	10	115	0.1	115	115	480	1.3	477	481	28.0	36.3
2025-07-04T16:09	10	115	0.2	114	115	478	0.7	477	479	27.7	36.7
2025-07-04T16:10	10	114	0.2	114	114	479	0.6	478	480	28.1	37.4
2025-07-04T16:11	10	113	0.2	113	114	476	1.3	474	478	27.9	36.4
2025-07-04T16:12	10	113	0.3	112	113	475	0.5	474	476	27.8	36.8
2025-07-04T16:13	10	112	0.3	111	112	476	0.6	474	477	27.9	37.6
2025-07-04T16:14	10	111	0.1	111	112	477	0.5	476	478	28.1	38.0
2025-07-04T16:15	10	111	0.1	111	111	478	0.8	476	479	28.3	38.2
2025-07-04T16:16	10	110	0.2	110	111	476	0.7	474	477	28.1	37.5
2025-07-04T16:17	10	110	0.1	110	110	474	0.4	473	474	27.9	37.7
2025-07-04T16:18	10	110	0.2	109	110	476	0.6	475	477	28.4	37.2
2025-07-04T16:19	10	109	0.1	109	109	475	1.3	473	477	28.1	36.8
2025-07-04T16:20	10	109	0.3	108	109	473	0.7	472	474	27.9	37.2
2025-07-04T16:21	10	108	0.3	107	108	475	0.6	474	476	28.2	36.6
2025-07-04T16:22	10	107	0.2	106	107	476	0.7	475	477	28.2	37.0
2025-07-04T16:23	10	106	0.1	106	106	474	0.6	473	475	27.8	37.6
2025-07-04T16:24	10	106	0.1	106	107	472	0.5	471	473	27.6	38.1
2025-07-04T16:25	10	105	0.3	105	106	474	1.1	472	476	27.9	38.6
2025-07-04T16:26	10	104	0.2	104	105	475	0.4	474	476	28.1	38.1
2025-07-04T16:27	10	105	0.2	104	105	473	0.5	472	474	27.7	38.2
2025-07-04T16:28	10	105	0.2	105	106	474	0.8	472	475	27.6	38.3
2025-07-04T16:29	10	105	0.2	104	105	475	0.5	474	476	27.9	37.8
2025-07-04T16:30	10	104	0.2	103	104	476	0.4	475	476	28.1	37.8
2025-07-04T16:31	10	103	0.2	103	104	474	1.0	473	476	28.0	37.4
2025-07-04T16:32	10	103	0.2	102	103	472	0.5	471	473	27.9	37.2
2025-07-04T16:33	10	102	0.3	101	102	471	0.3	470	472	27.8	37.2
2025-07-04T16:34	10	101	0.2	101	101	472	0.8	470	473	27.9	37.7
2025-07-04T16:35	10	101	0.2	100	101	472	0.6	470	473	27.9	37.3
2025-07-04T16:36	10	100	0.3	99	100	471	0.6	469	472	27.9	37.5
2025-07-04T16:37	10	99	0.3	98	100	470	0.5	469	470	27.6	37.8
2025-07-04T16:38	10	98	0.2	98	99	472	1.0	470	474	27.8	37.8
2025-07-04T16:39	10	98	0.3	97	98	473	0.4	472	474	28.1	38.1
2025-07-04T16:40	10	97	0.1	97	97	473	0.5	472	474	28.2	38.3
2025-07-04T16:41	10	97	0.1	97	97	472	0.3	471	473	28.0	38.8
2025-07-04T16:42	10	96	0.2	96	97	472	0.8	470	473	28.0	39.6
2025-07-04T16:43	10	96	0.2	95	96	469	0.8	468	470	27.9	39.1
2025-07-04T16:44	10	95	0.1	95	96	468	0.3	468	469	27.9	39.2
2025-07-04T16:45	10	95	0.2	94	95	469	0.4	468	470	27.9	39.2
2025-07-04T16:46	10	94	0.1	94	94	470	0.8	468	471	28.0	39.4
2025-07-04T16:47	10	94	0.2	93	94	469	1.1	467	471	27.9	39.6
2025-07-04T16:48	10	93	0.2	93	94	467	0.3	466	467	27.6	39.9
2025-07-04T16:49	10	92	0.4	91	93	466	0.8	464	467	27.6	40.0
2025-07-04T16:50	10	91	0.2	91	92	464	0.3	463	465	27.5	40.3
2025-07-04T16:51	10	91	0.2	90	91	464	0.3	463	465	27.5	40.3
2025-07-04T16:52	10	90	0.1	90	90	465	0.6	464	466	27.7	40.3
2025-07-04T16:53	10	90	0.2	90	90	466	0.3	465	466	27.8	40.2
2025-07-04T16:54	10	89	0.1	89	90	466	0.3	466	467	27.8	40.1
2025-07-04T16:55	10	89	0.2	89	89	466	0.4	465	467	27.7	40.0
2025-07-04T16:56	10	89	0.2	88	89	466	0.5	465	467	27.8	39.6
2025-07-04T16:57	10	88	0.3	88	89	465	0.4	464	466	27.7	39.3
2025-07-04T16:58	10	87	1.3	84	89	465	0.4	464	466	27.7	39.6
2025-07-04T16:59	10	87	0.3	86	87	465	0.4	464	466	27.8	39.9
2025-07-04T17:00	10	86	0.3	85	86	465	0.5	464	466	27.8	39.7
2025-07-04T17:01	10	85	0.1	85	86	465	0.3	464	466	27.9	39.4
2025-07-04T17:02	10	85	0.2	85	86	465	0.5	464	466	27.9	39.6
2025-07-04T17:03	10	84	0.4	84	85	464	0.2	464	465	27.7	39.6
2025-07-04T17:04	10	83	0.4	83	84	464	0.6	463	465	27.6	40.0
2025-07-04T17:05	10	82	0.3	81	83	463	0.7	462	464	27.6	40.4
2025-07-04T17:06	10	81	0.3	81	82	462	0.5	461	463	27.4	40.4
2025-07-04T17:07	10	80	0.2	80	81	462	0.3	461	462	27.5	40.5
2025-07-04T17:08	10	80	0.3	79	80	461	0.5	460	462	27.5	40.4
2025-07-04T17:09	10	79	0.2	79	79	461	0.3	460	461	27.5	40.5
2025-07-04T17:10	10	78	0.3	78	79	461	0.5	460	462	27.5	40.7
2025-07-04T17:11	10	78	0.2	77	78	460	0.3	460	461	27.5	40.5
2025-07-04T17:12	10	77	0.2	77	78	460	0.4	459	461	27.5	40.3
2025-07-04T17:13	10	77	0.1	76	77	460	0.4	459	461	27.4	40.7
2025-07-04T17:14	10	77	0.1	76	77	461	0.3	460	461	27.5	40.9
2025-07-04T17:15	10	76	0.2	76	76	460	0.4	459	461	27.5	40.3
2025-07-04T17:16	10	75	0.3	75	76	459	0.4	458	460	27.3	40.1
2025-07-04T17:17	10	75	0.1	74	75	458	0.3	458	459	27.3	40.4
2025-07-04T17:18	10	74	0.1	74	75	459	0.4	459	460	27.5	40.6
2025-07-04T17:19	10	73	0.2	73	74	459	0.5	458	460	27.5	40.1
2025-07-04T17:20	10	73	0.2	72	73	459	0.2	459	460	27.5	40.0
2025-07-04T17:21	10	72	0.2	72	73	459	0.4	458	459	27.5	39.9
2025-07-04T17:22	10	72	0.2	71	72	459	0.2	459	459	27.5	40.4
2025-07-04T17:23	10	71	0.3	70	71	458	0.6	457	459	27.4	41.1
2025-07-04T17:24	10	70	0.3	69	71	457	0.2	457	458	27.4	41.7
2025-07-04T17:25	10	70	0.2	69	70	457	0.2	456	457	27.3	41.3
2025-07-04T17:26	10	69	0.2	68	69	457	0.3	456	457	27.3	41.0
2025-07-04T17:27	10	68	0.2	68	69	457	0.4	456	458	27.4	41.5
2025-07-04T17:28	10	68	0.2	67	68	456	0.4	455	457	27.3	41.3
2025-07-04T17:29	10	67	0.1	67	67	456	0.2	455	456	27.3	41.8
2025-07-04T17:30	10	67	0.3	66	67	457	0.3	456	457	27.4	41.4
2025-07-04T17:31	10	66	0.3	65	67	457	0.4	456	458	27.5	41.7
2025-07-04T17:32	10	65	0.3	64	65	457	0.3	456	458	27.4	41.8
2025-07-04T17:33	10	64	0.2	64	65	456	0.5	454	457	27.4	42.1
2025-07-04T17:34	10	64	0.3	63	64	454	0.4	454	455	27.1	42.5
2025-07-04T17:35	10	63	0.2	63	64	454	0.3	453	454	27.0	42.6
2025-07-04T17:36	10	63	0.3	63	64	454	0.2	453	454	27.1	42.8
2025-07-04T17:37	10	63	0.2	62	63	454	0.4	453	454	27.0	43.2
2025-07-04T17:38	10	63	0.2	62	63	454	0.3	453	455	27.0	43.4
2025-07-04T17:39	10	62	0.3	62	63	454	0.3	453	455	27.1	43.4
2025-07-04T17:40	10	61	0.3	61	62	453	0.3	452	454	27.0	43.0
2025-07-04T17:41	10	61	0.3	60	61	453	0.3	453	454	27.1	43.2
2025-07-04T17:42	10	60	0.3	59	60	453	0.3	452	454	27.1	43.2
2025-07-04T17:43	10	59	0.3	59	60	452	0.4	452	453	27.0	42.9
2025-07-04T17:44	10	59	0.2	58	59	453	0.3	452	453	27.0	43.1
2025-07-04T17:45	10	59	0.2	58	59	452	0.3	451	453	27.0	42.6
2025-07-04T17:46	10	58	0.2	58	58	451	0.3	451	452	26.9	42.5
2025-07-04T17:47	10	58	0.2	58	58	451	0.2	451	452	26.9	42.6
2025-07-04T17:48	10	58	0.2	58	59	452	0.3	451	452	26.9	42.7
2025-07-04T17:49	10	58	0.2	58	58	452	0.2	451	452	26.9	42.5
2025-07-04T17:50	10	57	0.2	57	58	451	0.3	450	452	26.9	42.5
2025-07-04T17:51	10	57	0.2	56	57	451	0.3	450	452	26.9	42.8
2025-07-04T17:52	10	56	0.3	55	56	451	0.3	450	451	26.9	42.8
2025-07-04T17:53	10	55	0.2	55	56	451	0.3	451	452	26.9	42.7
2025-07-04T17:54	10	54	0.3	54	55	450	0.4	449	451	26.8	42.8
2025-07-04T17:55	10	53	0.3	53	54	449	0.3	449	450	26.7	42.5
2025-07-04T17:56	10	52	0.3	52	53	449	0.2	449	450	26.7	42.9
2025-07-04T17:57	10	52	0.2	51	52	449	0.2	449	450	26.8	42.9
2025-07-04T17:58	10	51	0.4	50	51	448	0.3	448	449	26.6	42.4
2025-07-04T17:59	10	49	0.4	49	50	448	0.2	447	448	26.6	42.6
2025-07-04T18:00	10	48	0.3	48	49	448	0.3	447	448	26.6	42.7
2025-07-04T18:01	10	47	0.3	47	48	447	0.2	446	447	26.5	42.5
2025-07-04T18:02	10	46	0.2	46	47	446	0.4	446	447	26.5	42.6
2025-07-04T18:03	10	46	0.2	46	46	446	0.3	445	447	26.5	42.7
2025-07-04T18:04	10	45	0.2	45	46	446	0.2	445	446	26.5	42.5
2025-07-04T18:05	10	44	0.2	44	45	446	0.2	445	446	26.5	42.2
2025-07-04T18:06	10	44	0.2	43	44	445	0.3	444	446	26.5	42.2
2025-07-04T18:07	10	43	0.2	43	44	445	0.3	444	445	26.4	41.8
2025-07-04T18:08	10	43	0.2	42	43	444	0.3	443	445	26.4	41.9
2025-07-04T18:09	10	42	0.2	42	43	444	0.2	444	445	26.3	42.1
2025-07-04T18:10	10	41	0.2	41	42	444	0.2	444	445	26.3	42.0
2025-07-04T18:11	10	41	0.2	40	41	443	0.4	443	444	26.2	41.9
2025-07-04T18:12	10	40	0.3	39	40	443	0.3	443	444	26.2	41.8
2025-07-04T18:13	10	39	0.3	39	40	443	0.2	442	443	26.2	41.8
2025-07-04T18:14	10	38	0.3	38	39	443	0.2	442	444	26.2	41.9
2025-07-04T18:15	10	38	0.2	38	38	443	0.3	442	443	26.2	42.0
2025-07-04T18:16	10	37	0.2	37	38	442	0.2	442	443	26.2	42.3
2025-07-04T18:17	10	37	0.2	37	37	442	0.2	441	442	26.2	42.5
2025-07-04T18:18	10	36	0.2	36	37	442	0.3	441	443	26.1	42.3
2025-07-04T18:19	10	36	0.2	36	36	442	0.3	441	442	26.1	42.5
2025-07-04T18:20	10	35	0.2	34	35	441	0.5	440	442	26.1	42.3
2025-07-04T18:21	10	34	0.3	34	35	441	0.3	440	441	26.1	42.7
2025-07-04T18:22	10	33	0.3	33	34	440	0.3	440	441	26.0	42.8
2025-07-04T18:23	10	32	0.3	32	33	440	0.3	439	441	26.0	43.0
2025-07-04T18:24	10	32	0.3	31	32	440	0.3	440	441	26.0	42.3
2025-07-04T18:25	10	31	0.3	30	31	439	0.3	439	440	26.0	42.5
2025-07-04T18:26	10	30	0.2	29	30	439	0.3	438	439	25.9	42.7
2025-07-04T18:27	10	29	0.2	29	30	439	0.3	438	439	25.9	42.5
2025-07-04T18:28	10	28	0.2	28	29	438	0.4	437	439	25.9	42.6
2025-07-04T18:29	10	28	0.2	27	28	438	0.2	437	438	25.9	42.5
2025-07-04T18:30	10	27	0.2	27	27	437	0.2	437	438	25.9	42.6
2025-07-04T18:31	10	27	0.2	26	27	437	0.2	437	438	25.8	42.6
2025-07-04T18:32	10	26	0.2	26	26	437	0.3	436	437	25.8	42.9
2025-07-04T18:33	10	25	0.2	25	26	437	0.2	436	437	25.7	43.2
2025-07-04T18:34	10	25	0.2	25	25	436	0.2	435	436	25.7	43.2
2025-07-04T18:35	10	25	0.1	24	25	436	0.3	435	436	25.7	43.8
2025-07-04T18:36	10	24	0.2	24	24	435	0.3	435	436	25.6	43.7
2025-07-04T18:37	10	24	0.2	23	24	435	0.2	434	435	25.6	44.0
2025-07-04T18:38	10	23	0.1	23	24	435	0.2	434	435	25.6	44.1
2025-07-04T18:39	10	23	0.2	22	23	434	0.2	434	435	25.6	44.1
2025-07-04T18:40	10	22	0.2	22	23	434	0.2	434	434	25.5	44.3
2025-07-04T18:41	10	22	0.2	21	22	434	0.2	434	435	25.5	44.0
2025-07-04T18:42	10	21	0.2	21	21	434	0.3	434	435	25.5	44.0
2025-07-04T18:43	10	21	0.1	20	21	434	0.4	434	435	25.5	44.0
2025-07-04T18:44	10	20	0.2	20	21	434	0.2	433	434	25.5	44.0
2025-07-04T18:45	10	20	0.2	19	20	434	0.2	433	435	25.5	44.5
2025-07-04T18:46	10	19	0.2	19	20	434	0.3	433	434	25.4	44.4
2025-07-04T18:47	10	19	0.3	18	20	434	0.4	433	434	25.4	44.3
2025-07-04T18:48	10	18	0.3	17	19	433	0.3	432	434	25.4	43.9
2025-07-04T18:49	10	17	0.3	17	18	433	0.3	432	434	25.4	43.8
2025-07-04T18:50	10	17	0.3	16	17	432	0.2	432	433	25.4	44.1
2025-07-04T18:51	10	16	0.3	15	17	432	0.4	431	432	25.3	44.2
2025-07-04T18:52	10	15	0.3	14	16	431	0.2	430	432	25.3	44.0
2025-07-04T18:53	10	14	0.3	14	15	431	0.3	430	431	25.3	44.2
2025-07-04T18:54	10	14	0.2	13	14	430	0.2	429	430	25.2	44.3
2025-07-04T18:55	10	13	0.2	12	13	431	0.8	429	432	25.3	43.7
2025-07-04T18:56	10	12	0.3	12	13	430	0.5	430	432	25.3	43.5
2025-07-04T18:57	10	11	0.2	11	12	431	0.3	430	431	25.3	43.3
2025-07-04T18:58	10	11	0.3	10	11	429	0.5	428	430	25.1	44.3
2025-07-04T18:59	10	10	0.4	9	10	429	0.2	428	429	25.0	44.4
2025-07-04T19:00	10	8	0.6	7	9	428	0.5	427	429	25.0	44.5
2025-07-04T19:01	10	6	0.2	6	7	429	0.3	428	429	25.0	44.1
2025-07-04T19:02	10	6	0.1	6	6	429	0.3	428	429	25.0	43.9
2025-07-04T19:03	10	6	0.1	6	6	428	0.4	427	429	25.0	44.0
2025-07-04T19:04	10	6	0.1	6	6	428	0.3	427	429	25.0	43.9
2025-07-04T19:05	10	6	0.1	6	6	427	0.3	426	428	25.0	43.9
2025-07-04T19:06	10	6	0.1	6	6	426	0.3	426	427	24.9	44.4
2025-07-04T19:07	10	5	0.2	5	6	426	0.4	425	427	24.9	44.5
2025-07-04T19:08	10	5	0.2	4	5	425	0.2	424	425	24.8	44.7
2025-07-04T19:09	10	4	0.2	4	4	425	0.3	424	425	24.8	44.6
2025-07-04T19:10	10	3	0.1	3	4	425	0.2	424	425	24.8	44.4
2025-07-04T19:11	10	3	0.1	3	4	425	0.3	424	425	24.8	44.4
2025-07-04T19:12	10	3	0.1	3	3	424	0.2	424	425	24.7	44.5
2025-07-04T19:13	10	3	0.1	3	3	424	0.3	424	425	24.7	44.5
2025-07-04T19:14	10	3	0.1	3	3	424	0.3	423	425	24.7	44.6
2025-07-04T19:15	10	3	0.1	3	3	423	0.3	423	424	24.6	44.7
2025-07-04T19:16	10	3	0.1	2	3	423	0.2	422	423	24.6	44.7
2025-07-04T19:17	10	2	0.1	2	3	423	0.3	422	423	24.6	44.8
2025-07-04T19:18	10	2	0.1	2	3	422	0.3	421	423	24.5	45.0
2025-07-04T19:19	10	2	0.1	2	2	421	0.4	421	422	24.4	45.4
2025-07-04T19:20	10	2	0.1	2	2	421	0.4	420	422	24.4	45.5
2025-07-04T19:21	10	2	0.1	2	2	421	0.2	421	422	24.4	45.3
2025-07-04T19:22	10	2	0.1	1	2	421	0.4	420	422	24.5	45.0
2025-07-04T19:23	10	1	0.1	1	2	421	0.3	421	422	24.5	44.8
2025-07-04T19:24	10	1	0.1	1	1	421	0.2	420	421	24.5	44.9
2025-07-04T19:25	10	1	0.1	1	1	421	0.4	420	421	24.4	45.0
2025-07-04T19:26	10	1	0.1	1	1	420	0.3	419	421	24.4	44.9
2025-07-04T19:27	10	1	0.1	1	1	420	0.3	420	421	24.5	44.6
2025-07-04T19:28	10	1	0.1	1	1	420	0.2	420	421	24.5	44.6
2025-07-04T19:29	10	1	0.1	1	1	419	0.4	419	420	24.4	44.7
2025-07-04T19:30	10	1	0.1	1	1	420	0.2	419	420	24.4	44.8
2025-07-04T19:31	10	1	0.1	1	1	419	0.3	419	420	24.4	44.7
2025-07-04T19:32	10	1	0.1	0	1	418	0.3	418	419	24.4	44.8
2025-07-04T19:33	10	1	0.1	1	1	418	0.2	418	419	24.3	45.1
2025-07-04T19:34	10	1	0.1	0	1	418	0.3	417	419	24.3	45.1
2025-07-04T19:35	10	1	0.1	0	1	417	0.2	417	418	24.2	45.3
2025-07-04T19:36	10	0	0.1	0	1	417	0.3	416	417	24.2	45.4
2025-07-04T19:37	10	0	0.1	0	1	417	0.3	417	418	24.2	45.3
2025-07-04T19:38	10	0	0.1	0	1	417	0.3	417	418	24.1	45.6
2025-07-04T19:39	10	0	0.1	0	1	416	0.3	416	417	24.1	45.7
2025-07-04T19:40	10	0	0.2	0	1	416	0.3	415	417	24.1	45.6
2025-07-04T19:41	10	0	0.2	0	1	415	0.4	414	416	24.1	45.6
2025-07-04T19:42	10	0	0.2	0	1	415	0.2	414	415	24.0	45.7
2025-07-04T19:43	10	0	0.1	0	1	416	0.4	415	416	24.1	45.5
2025-07-04T19:44	10	0	0.1	0	0	415	0.3	415	416	24.0	45.7
2025-07-04T19:45	10	0	0.1	0	0	415	0.4	415	416	24.0	45.5
2025-07-04T19:46	10	0	0.1	0	0	416	0.3	415	417	24.1	45.5
2025-07-04T19:47	10	0	0.1	0	0	415	0.2	415	416	24.0	45.7
2025-07-04T19:48	10	0	0.1	0	0	415	0.2	414	415	24.0	45.8
2025-07-04T19:49	10	0	0.1	0	0	414	0.2	414	415	24.0	46.0
2025-07-04T19:50	10	0	0.0	0	0	413	0.3	413	414	24.0	46.0
2025-07-04T19:51	10	0	0.1	0	0	413	0.3	413	414	24.0	45.9
2025-07-04T19:52	10	0	0.1	0	0	413	0.2	413	414	23.9	46.2
2025-07-04T19:53	10	0	0.1	0	0	413	0.2	412	413	23.8	46.3
2025-07-04T19:54	10	0	0.1	0	0	413	0.2	413	413	23.8	46.6
2025-07-04T19:55	10	0	0.1	0	0	413	0.3	412	414	23.8	46.6
2025-07-04T19:56	10	0	0.1	0	0	413	0.2	413	414	23.7	46.7
2025-07-04T19:57	10	0	0.1	0	0	413	0.2	412	413	23.6	47.0
2025-07-04T19:58	10	0	0.1	0	0	412	0.3	411	413	23.6	47.2
2025-07-04T19:59	10	0	0.1	0	0	412	0.2	412	412	23.6	47.2
2025-07-04T20:00	10	0	0.1	0	0	411	0.5	410	412	23.6	47.2
2025-07-04T20:01	10	0	0.1	0	0	410	0.2	410	410	23.5	47.6
2025-07-04T20:02	10	0	0.1	0	0	409	0.3	409	410	23.4	47.7
2025-07-04T20:03	10	0	0.1	0	0	409	0.4	408	410	23.4	47.7
2025-07-04T20:04	10	0	0.1	0	0	409	0.3	408	409	23.4	48.1
2025-07-04T20:05	10	0	0.1	0	0	408	0.3	408	409	23.4	47.6
2025-07-04T20:06	10	0	0.1	0	0	408	0.4	407	409	23.4	47.8
2025-07-04T20:07	10	0	0.1	0	0	408	0.3	407	409	23.4	47.6
2025-07-04T20:08	10	0	0.1	0	0	408	0.2	407	408	23.4	47.7
2025-07-04T20:09	10	0	0.1	0	0	408	0.3	407	408	23.4	47.8
2025-07-04T20:10	10	0	0.1	0	0	408	0.2	408	408	23.5	47.3
2025-07-04T20:11	10	0	0.1	0	0	408	0.2	407	409	23.5	47.5
2025-07-04T20:12	10	0	0.1	0	0	408	0.2	408	408	23.5	47.5
2025-07-04T20:13	10	0	0.1	0	0	408	0.3	408	409	23.5	47.5
2025-07-04T20:14	10	0	0.1	0	0	408	0.2	408	409	23.5	47.4
2025-07-04T20:15	10	0	0.1	0	0	408	0.2	407	408	23.5	47.6
2025-07-04T20:16	10	0	0.1	0	0	408	0.2	407	408	23.4	47.8
2025-07-04T20:17	10	0	0.1	0	0	408	0.2	407	408	23.4	47.8
2025-07-04T20:18	10	0	0.1	0	0	408	0.3	407	408	23.3	47.9
2025-07-04T20:19	10	0	0.1	0	0	407	0.2	407	408	23.2	48.3
2025-07-04T20:20	10	0	0.1	0	0	406	0.3	406	407	23.2	48.4
2025-07-04T20:21	10	0	0.1	0	0	406	0.2	406	407	23.1	48.7
2025-07-04T20:22	10	0	0.1	0	0	406	0.3	405	406	23.1	48.7
2025-07-04T20:23	10	0	0.1	0	0	406	0.3	405	406	23.0	48.8
2025-07-04T20:24	10	0	0.1	0	0	405	0.2	405	405	23.0	49.0
2025-07-04T20:25	10	0	0.1	0	0	405	0.3	404	405	23.0	49.2
2025-07-04T20:26	10	0	0.1	0	0	404	0.3	404	405	22.9	49.5
2025-07-04T20:27	10	0	0.1	0	0	404	0.4	404	405	22.9	49.2
2025-07-04T20:28	10	0	0.1	0	0	404	0.2	404	405	22.9	49.2
2025-07-04T20:29	10	0	0.1	0	0	404	0.2	403	404	22.9	49.2
2025-07-04T20:30	10	0	0.1	0	0	404	0.2	403	404	22.8	49.6
2025-07-04T20:31	10	0	0.1	0	0	404	0.3	403	404	22.8	49.3
2025-07-04T20:32	10	0	0.1	0	0	403	0.3	403	404	22.8	49.2
2025-07-04T20:33	10	0	0.1	0	0	403	0.3	402	404	22.8	49.6
2025-07-04T20:34	10	0	0.1	0	0	403	0.2	402	404	22.8	49.7
2025-07-04T20:35	10	0	0.1	0	0	403	0.2	402	403	22.7	49.9
2025-07-04T20:36	10	0	0.2	0	1	403	0.3	402	403	22.7	49.8
2025-07-04T20:37	10	0	0.2	0	1	402	0.3	401	403	22.6	50.1
2025-07-04T20:38	10	0	0.2	0	1	402	0.2	401	402	22.5	50.7
2025-07-04T20:39	10	0	0.2	0	1	402	0.3	401	403	22.5	51.1
2025-07-04T20:40	10	0	0.1	0	1	402	0.3	401	403	22.4	51.2
2025-07-04T20:41	10	0	0.2	0	1	402	0.2	401	402	22.4	51.1
2025-07-04T20:42	10	0	0.1	0	0	402	0.3	401	403	22.4	51.3
2025-07-04T20:43	10	0	0.1	0	0	401	0.2	401	402	22.4	51.2
2025-07-04T20:44	10	0	0.2	0	0	401	0.2	401	402	22.4	51.6
2025-07-04T20:45	10	0	0.1	0	0	401	0.2	401	402	22.4	51.4
2025-07-04T20:46	10	0	0.1	0	0	401	0.2	400	401	22.3	51.9
2025-07-04T20:47	10	0	0.1	0	0	400	0.2	400	401	22.3	51.5
2025-07-04T20:48	10	0	0.1	0	0	400	0.2	400	401	22.3	51.0
2025-07-04T20:49	10	0	0.1	0	0	400	0.2	400	401	22.3	50.8
2025-07-04T20:50	10	0	0.1	0	0	400	0.2	400	401	22.3	50.8
2025-07-04T20:51	10	0	0.1	0	0	400	0.2	400	401	22.3	51.1
2025-07-04T20:52	10	0	0.1	0	0	400	0.2	400	401	22.3	50.6
2025-07-04T20:53	10	0	0.1	0	0	401	0.3	400	401	22.3	50.4
2025-07-04T20:54	10	0	0.1	0	0	400	0.3	399	401	22.3	50.0
2025-07-04T20:55	10	0	0.1	0	0	400	0.2	400	401	22.4	49.2
2025-07-04T20:56	10	0	0.1	0	0	400	0.2	399	400	22.4	49.2
2025-07-04T20:57	10	0	0.1	0	0	400	0.3	400	401	22.4	48.9
2025-07-04T20:58	10	0	0.1	0	0	401	0.3	400	401	22.5	48.2
2025-07-04T20:59	10	0	0.1	0	0	400	0.2	400	401	22.6	47.7
2025-07-04T21:00	10	0	0.1	0	0	400	0.3	400	401	22.6	47.7
2025-07-04T21:01	10	0	0.1	0	0	400	0.2	400	401	22.6	47.7
2025-07-04T21:02	10	0	0.1	0	0	400	0.3	399	401	22.5	48.0
2025-07-04T21:03	10	0	0.1	0	0	400	0.2	400	401	22.6	47.3
2025-07-04T21:04	10	0	0.1	0	0	400	0.2	400	401	22.6	47.2
2025-07-04T21:05	10	0	0.1	0	0	400	0.3	400	401	22.7	46.9
2025-07-04T21:06	10	0	0.1	0	0	400	0.2	400	401	22.6	47.3
2025-07-04T21:07	10	0	0.1	0	0	400	0.3	399	401	22.5	47.7
2025-07-04T21:08	10	0	0.1	0	0	400	0.2	399	400	22.5	47.8
2025-07-04T21:09	10	0	0.1	0	0	400	0.2	399	400	22.5	47.5
2025-07-04T21:10	10	0	0.1	0	0	399	0.3	399	400	22.5	47.5
2025-07-04T21:11	10	0	0.1	0	0	399	0.2	399	400	22.4	47.6
2025-07-04T21:12	10	0	0.1	0	0	399	0.6	397	400	22.5	47.4
2025-07-04T21:13	10	0	0.1	0	0	399	0.4	398	400	22.2	49.0
2025-07-04T21:14	10	0	0.1	0	1	399	0.3	399	400	22.3	48.2
2025-07-04T21:15	10	0	0.1	0	0	399	0.3	398	399	22.3	48.2
2025-07-04T21:16	10	0	0.1	0	0	399	0.4	398	400	22.2	49.3
2025-07-04T21:17	10	0	0.1	0	0	399	0.4	398	399	21.9	51.3
2025-07-04T21:18	10	0	0.1	0	0	399	0.2	398	399	21.9	50.1
2025-07-04T21:19	10	0	0.1	0	0	398	0.2	398	399	22.0	50.2
2025-07-04T21:20	10	0	0.1	0	0	398	0.2	398	399	22.0	49.6
2025-07-04T21:21	10	0	0.1	0	0	398	0.2	397	398	21.9	50.3
2025-07-04T21:22	10	0	0.1	0	0	398	0.3	397	399	21.9	49.5
2025-07-04T21:23	10	0	0.1	0	0	398	0.2	398	398	22.0	48.8
2025-07-04T21:24	10	0	0.1	0	0	398	0.2	398	399	22.1	48.4
2025-07-04T21:25	10	0	0.1	0	0	397	0.2	396	398	22.1	48.2
2025-07-04T21:26	10	0	0.1	0	0	397	0.2	396	397	22.1	48.5
2025-07-04T21:27	10	0	0.1	0	0	397	0.2	396	397	22.1	48.4
2025-07-04T21:28	10	0	0.1	0	0	396	0.3	396	397	22.1	48.6
2025-07-04T21:29	10	0	0.1	0	0	396	0.3	395	397	22.0	49.0
2025-07-04T21:30	10	0	0.1	0	0	396	0.3	395	396	21.8	51.0
2025-07-04T21:31	10	0	0.1	0	0	396	0.2	396	397	21.7	50.8
2025-07-04T21:32	10	0	0.1	0	0	396	0.3	395	396	21.7	52.0
2025-07-04T21:33	10	0	0.1	0	0	396	0.2	395	396	21.6	53.5
2025-07-04T21:34	10	0	0.1	0	0	396	0.2	395	396	21.6	55.1
2025-07-04T21:35	10	0	0.1	0	0	396	0.2	395	396	21.5	55.4
2025-07-04T21:36	10	0	0.1	0	0	395	0.2	394	395	21.5	55.9
2025-07-04T21:37	10	0	0.1	0	0	394	0.3	394	395	21.4	55.8
2025-07-04T21:38	10	0	0.1	0	0	395	0.2	394	395	21.2	55.8
2025-07-04T21:39	10	0	0.1	0	0	395	0.4	394	395	21.1	55.5
2025-07-04T21:40	10	0	0.1	0	0	394	0.3	394	395	21.0	55.6
2025-07-04T21:41	10	0	0.1	0	0	395	0.2	394	395	21.0	55.9
2025-07-04T21:42	10	0	0.1	0	0	395	0.2	394	395	21.0	54.6
2025-07-04T21:43	10	0	0.1	0	0	394	0.2	394	395	21.0	55.1
2025-07-04T21:44	10	0	0.1	0	0	394	0.2	394	395	21.0	55.7
2025-07-04T21:45	10	0	0.1	0	0	394	0.3	393	395	21.0	55.7
2025-07-04T21:46	10	0	0.1	0	0	394	0.3	393	394	21.0	55.9
2025-07-04T21:47	10	0	0.1	0	0	394	0.2	393	394	21.0	55.6
2025-07-04T21:48	10	0	0.1	0	0	393	0.3	393	394	21.0	56.2
2025-07-04T21:49	10	0	0.1	0	0	393	0.3	393	394	21.0	56.5
2025-07-04T21:50	10	0	0.1	0	0	393	0.2	393	394	21.0	56.3
2025-07-04T21:51	10	0	0.1	0	0	393	0.2	392	394	20.9	56.6
2025-07-04T21:52	10	0	0.1	0	0	393	0.2	392	393	20.9	56.7
2025-07-04T21:53	10	0	0.1	0	0	393	0.2	392	393	20.9	56.7
2025-07-04T21:54	10	0	0.1	0	0	393	0.2	392	393	20.8	57.0
2025-07-04T21:55	10	0	0.1	0	0	392	0.2	392	393	20.8	56.4
2025-07-04T21:56	10	0	0.1	0	0	392	0.3	392	393	20.8	56.5
2025-07-04T21:57	10	0	0.1	0	0	393	0.2	392	393	20.8	56.8
2025-07-04T21:58	10	0	0.1	0	0	392	0.3	392	393	20.7	56.2
2025-07-04T21:59	10	0	0.1	0	0	392	0.3	392	393	20.6	56.3
2025-07-04T22:00	10	0	0.2	0	1	392	0.3	392	393	20.6	56.2
2025-07-04T22:01	10	0	0.1	0	0	393	0.3	392	393	20.6	56.3
2025-07-04T22:02	10	0	0.2	0	0	393	0.2	392	393	20.7	56.4
2025-07-04T22:03	10	0	0.2	0	1	393	0.2	392	393	20.7	56.4
2025-07-04T22:04	10	0	0.1	0	0	393	0.3	392	393	20.7	56.3
2025-07-04T22:05	10	0	0.2	0	0	392	0.3	392	393	20.6	56.4
2025-07-04T22:06	10	0	0.2	0	0	392	0.2	391	392	20.5	56.8
2025-07-04T22:07	10	0	0.1	0	0	392	0.3	391	392	20.5	56.9
2025-07-04T22:08	10	0	0.2	0	1	391	0.2	391	392	20.5	57.3
2025-07-04T22:09	10	0	0.1	0	0	391	0.2	391	392	20.4	57.7
2025-07-04T22:10	10	0	0.2	-1	1	391	0.3	391	392	20.4	57.7
2025-07-04T22:11	10	0	0.1	0	0	391	0.3	390	392	20.3	58.5
2025-07-04T22:12	10	0	0.1	0	0	391	0.2	391	392	20.4	58.1
2025-07-04T22:13	10	0	0.1	0	0	392	0.3	391	392	20.4	58.1
2025-07-04T22:14	10	0	0.1	0	0	392	0.2	391	393	20.4	58.3
2025-07-04T22:15	10	0	0.1	0	0	392	0.2	392	393	20.4	58.0
2025-07-04T22:16	10	0	0.1	0	0	392	0.2	391	393	20.5	57.8
2025-07-04T22:17	10	0	0.1	0	0	392	0.3	391	393	20.5	57.9
2025-07-04T22:18	10	0	0.1	0	0	392	0.2	392	392	20.5	58.0
2025-07-04T22:19	10	0	0.1	0	0	392	0.2	391	392	20.5	58.0
2025-07-04T22:20	10	0	0.1	0	0	392	0.3	391	392	20.5	57.9
2025-07-04T22:21	10	0	0.1	0	0	392	0.2	391	392	20.5	57.8
2025-07-04T22:22	10	0	0.1	0	0	392	0.2	392	393	20.6	57.6
2025-07-04T22:23	10	0	0.1	0	0	392	0.2	392	393	20.6	57.4
2025-07-04T22:24	10	0	0.1	0	0	392	0.3	391	393	20.7	57.3
2025-07-04T22:25	10	0	0.1	0	0	391	0.4	390	392	20.6	57.7
2025-07-04T22:26	10	0	0.1	0	0	391	0.3	390	391	20.1	59.6
2025-07-04T22:27	10	0	0.1	0	0	390	0.2	390	391	20.0	60.8
2025-07-04T22:28	10	0	0.1	0	0	390	0.3	389	390	19.8	61.3
2025-07-04T22:29	10	0	0.1	0	0	390	0.2	389	390	19.7	61.3
2025-07-04T22:30	10	0	0.1	0	0	389	0.3	389	390	19.6	61.5
2025-07-04T22:31	10	0	0.1	0	0	389	0.2	389	390	19.8	61.1
2025-07-04T22:32	10	0	0.1	0	0	389	0.3	389	390	19.8	61.2
2025-07-04T22:33	10	0	0.1	0	0	389	0.3	389	390	18.8	59.7
2025-07-04T22:34	10	0	0.1	0	0	389	0.4	388	390	19.7	61.8
2025-07-04T22:35	10	0	0.1	0	0	389	0.2	389	389	19.3	61.8
2025-07-04T22:36	10	0	0.1	0	0	389	0.3	388	389	19.7	58.7
2025-07-04T22:37	10	0	0.1	0	0	388	0.3	388	389	19.7	61.8
2025-07-04T22:38	10	0	0.1	0	0	388	0.2	388	389	19.7	61.8
2025-07-04T22:39	10	0	0.1	0	0	389	0.4	388	390	19.7	61.8
2025-07-04T22:40	10	0	0.1	0	0	389	0.3	388	390	19.7	61.8
2025-07-04T22:41	10	0	0.1	0	0	389	0.2	388	389	19.7	61.8
2025-07-04T22:42	10	0	0.1	0	0	388	0.2	388	389	19.7	61.8
2025-07-04T22:43	10	0	0.1	0	0	388	0.3	388	389	19.8	61.6
2025-07-04T22:44	10	0	0.1	0	0	388	0.2	388	389	19.9	61.2
2025-07-04T22:45	10	0	0.1	0	0	388	0.3	387	389	19.6	63.2
2025-07-04T22:46	10	0	0.1	0	0	388	0.3	388	389	19.5	62.8
2025-07-04T22:47	10	0	0.1	0	0	388	0.3	388	389	19.6	62.5
2025-07-04T22:48	10	0	0.1	0	0	387	0.3	387	388	19.5	63.2
2025-07-04T22:49	10	0	0.1	0	0	387	0.2	387	387	19.3	64.1
2025-07-04T22:50	10	0	0.1	0	0	387	0.3	386	388	19.3	64.2
2025-07-04T22:51	10	0	0.1	0	0	387	0.2	386	387	19.3	63.9
2025-07-04T22:52	10	0	0.1	0	0	387	0.2	386	387	19.4	62.8
2025-07-04T22:53	10	0	0.1	0	0	387	0.2	386	387	19.4	62.0
2025-07-04T22:54	10	0	0.1	0	0	387	0.2	386	387	19.5	61.3
2025-07-04T22:55	10	0	0.1	0	0	386	0.3	385	387	19.4	62.7
2025-07-04T22:56	10	0	0.1	0	0	386	0.3	385	387	19.2	65.4
2025-07-04T22:57	10	0	0.1	0	0	385	0.3	384	386	19.0	66.7
2025-07-04T22:58	10	0	0.1	0	0	385	0.2	385	386	18.8	66.1
2025-07-04T22:59	10	0	0.1	0	0	386	0.4	385	386	18.8	64.2
2025-07-04T23:00	10	0	0.1	0	0	386	0.3	385	387	18.8	64.5
2025-07-04T23:01	10	0	0.1	0	0	386	0.3	385	386	18.9	64.3
2025-07-04T23:02	10	0	0.1	0	0	385	0.2	385	386	18.7	65.1
2025-07-04T23:03	10	0	0.1	0	0	385	0.2	385	386	18.7	65.0
2025-07-04T23:04	10	0	0.1	0	0	385	0.2	384	385	18.6	64.9
2025-07-04T23:05	10	0	0.1	0	0	385	0.3	384	386	18.6	65.3
2025-07-04T23:06	10	0	0.1	0	0	385	0.2	385	386	18.5	65.4
2025-07-04T23:07	10	0	0.1	0	0	385	0.3	385	386	18.5	64.8
2025-07-04T23:08	10	0	0.1	0	0	385	0.3	384	386	18.6	64.8
2025-07-04T23:09	10	0	0.1	0	0	385	0.6	384	386	18.6	64.4
2025-07-04T23:10	10	0	0.1	0	0	386	0.2	385	386	18.9	63.2
2025-07-04T23:11	10	0	0.1	0	0	385	0.3	385	386	19.0	62.6
2025-07-04T23:12	10	0	0.1	0	0	385	0.3	384	385	18.9	63.0
2025-07-04T23:13	10	0	0.1	0	0	384	0.2	384	385	18.7	63.9
2025-07-04T23:14	10	0	0.1	0	0	384	0.2	384	385	18.6	64.8
2025-07-04T23:15	10	0	0.1	0	0	385	0.3	384	385	18.5	66.0
2025-07-04T23:16	10	0	0.8	0	5	384	0.4	384	385	18.4	66.1
2025-07-04T23:17	10	0	0.1	0	0	384	0.2	384	385	18.2	67.1
2025-07-04T23:18	10	0	0.1	0	0	384	0.2	383	384	18.2	67.2
2025-07-04T23:19	10	0	0.1	0	0	384	0.2	383	384	18.0	68.0
2025-07-04T23:20	10	0	0.1	0	0	383	0.2	383	384	17.9	68.8
2025-07-04T23:21	10	0	0.1	0	0	384	0.4	383	385	18.0	67.9
2025-07-04T23:22	10	0	0.1	0	0	385	0.4	384	386	18.3	65.7
2025-07-04T23:23	10	0	0.1	0	0	385	0.3	384	385	18.5	64.7
2025-07-04T23:24	10	0	0.1	0	0	384	0.3	384	385	18.6	64.3
2025-07-04T23:25	10	0	0.1	0	0	385	0.4	384	386	18.9	63.0
2025-07-04T23:26	10	0	0.0	0	0	385	0.3	385	386	19.2	62.3
2025-07-04T23:27	10	0	0.1	0	0	385	0.4	385	386	19.2	62.4
2025-07-04T23:28	10	0	0.0	0	0	385	0.2	385	386	19.1	62.5
2025-07-04T23:29	10	0	0.1	0	0	385	0.3	385	386	19.1	62.5
2025-07-04T23:30	10	0	0.0	0	0	384	0.4	384	385	19.1	62.8
2025-07-04T23:31	10	0	0.1	0	0	384	0.5	383	385	18.9	63.5
2025-07-04T23:32	10	0	0.1	0	0	383	0.3	383	384	18.8	64.3
2025-07-04T23:33	10	0	0.1	0	0	383	0.2	383	384	18.6	64.8
2025-07-04T23:34	10	0	0.1	0	1	383	0.3	383	384	18.7	64.3
2025-07-04T23:35	10	0	0.2	0	0	383	0.3	383	384	18.7	64.0
2025-07-04T23:36	10	0	0.2	0	1	383	0.3	382	383	18.8	63.7
2025-07-04T23:37	10	0	0.2	0	1	383	0.3	383	384	18.7	63.9
2025-07-04T23:38	10	0	0.2	0	1	383	0.2	383	384	18.6	64.5
2025-07-04T23:39	10	0	0.2	0	0	383	0.3	382	384	18.6	63.9
2025-07-04T23:40	10	0	0.2	0	0	383	0.2	383	384	18.6	63.9
2025-07-04T23:41	10	0	0.2	0	0	383	0.3	383	384	18.6	63.8
2025-07-04T23:42	10	0	0.2	0	0	383	0.3	383	384	18.6	63.9
2025-07-04T23:43	10	0	0.1	0	0	383	0.2	383	384	18.6	64.3
2025-07-04T23:44	10	0	0.2	0	0	383	0.2	382	384	18.5	64.5
2025-07-04T23:45	10	0	0.1	0	0	383	0.2	383	383	18.5	65.8
2025-07-04T23:46	10	0	0.2	0	1	383	0.3	383	384	18.4	65.5
2025-07-04T23:47	10	0	0.1	0	0	383	0.2	382	383	18.4	65.3
2025-07-04T23:48	10	0	0.1	0	0	382	0.3	382	383	18.4	65.8
2025-07-04T23:49	10	0	0.1	0	0	382	0.2	382	383	18.3	65.8
2025-07-04T23:50	10	0	0.1	0	0	382	0.2	381	382	18.3	65.9
2025-07-04T23:51	10	0	0.1	0	0	382	0.2	381	382	18.2	66.1
2025-07-04T23:52	10	0	0.1	0	0	381	0.2	381	382	18.2	66.3
2025-07-04T23:53	10	0	0.1	0	0	382	0.2	381	382	18.1	66.8
2025-07-04T23:54	10	0	0.1	0	0	382	0.2	381	382	18.1	66.1
2025-07-04T23:55	10	0	0.1	0	0	382	0.2	382	382	18.1	66.4
2025-07-04T23:56	10	0	0.1	0	0	382	0.2	382	383	18.2	66.2
2025-07-04T23:57	10	0	0.1	0	0	382	0.2	382	383	18.2	66.3
2025-07-04T23:58	10	0	0.1	0	0	382	0.4	382	383	18.3	65.4
2025-07-04T23:59	10	0	0.0	0	0	382	0.3	381	382	18.3	65.5
2025-07-05T00:00	10	0	0.1	0	0	381	0.4	380	381	18.2	66.3
2025-07-05T00:01	10	0	0.1	0	0	380	0.2	380	381	17.9	68.3
2025-07-05T00:02	10	0	0.1	0	0	380	0.2	380	381	17.8	69.1
2025-07-05T00:03	10	0	0.1	0	0	381	0.4	380	382	17.9	67.1
2025-07-05T00:04	10	0	0.1	0	0	381	0.3	381	382	18.0	66.0
2025-07-05T00:05	10	0	0.1	0	0	382	0.3	381	382	18.1	65.2
2025-07-05T00:06	10	0	0.1	0	0	382	0.2	381	382	18.2	65.0
2025-07-05T00:07	10	0	0.1	0	0	382	0.3	381	382	18.2	65.2
2025-07-05T00:08	10	0	0.1	0	0	382	0.3	381	382	18.3	65.5
2025-07-05T00:09	10	0	0.1	0	0	382	0.2	381	382	17.9	68.1
2025-07-05T00:10	10	0	0.1	0	0	381	0.2	381	382	17.8	69.2
2025-07-05T00:11	10	0	0.1	0	0	381	0.3	381	382	17.6	70.6
2025-07-05T00:12	10	0	0.1	0	0	381	0.2	380	381	17.4	72.2
2025-07-05T00:13	10	0	0.1	0	0	380	0.2	380	381	17.3	72.8
2025-07-05T00:14	10	0	0.1	0	0	380	0.3	379	380	17.2	73.7
2025-07-05T00:15	10	0	0.1	0	0	380	0.2	379	380	17.1	73.6
2025-07-05T00:16	10	0	0.1	0	0	379	0.2	379	380	17.2	74.2
2025-07-05T00:17	10	0	0.1	0	0	379	0.2	378	379	17.1	75.3
2025-07-05T00:18	10	0	0.1	0	0	379	0.3	378	379	17.0	74.4
2025-07-05T00:19	10	0	0.1	0	0	378	0.3	378	379	17.3	70.3
2025-07-05T00:20	10	0	0.1	0	0	378	0.2	378	379	17.4	69.8
2025-07-05T00:21	10	0	0.1	0	0	378	0.2	378	379	17.4	69.7
2025-07-05T00:22	10	0	0.1	0	0	378	0.2	377	378	17.4	70.0
2025-07-05T00:23	10	0	0.1	0	0	378	0.2	377	378	17.3	70.4
2025-07-05T00:24	10	0	0.1	0	0	378	0.2	377	378	17.3	70.4
2025-07-05T00:25	10	0	0.1	0	0	377	0.2	376	377	17.1	71.8
2025-07-05T00:26	10	0	0.1	0	0	377	0.2	377	378	17.0	72.1
2025-07-05T00:27	10	0	0.1	0	0	377	0.3	376	377	17.0	72.6
2025-07-05T00:28	10	0	0.1	0	0	377	0.3	377	378	16.9	73.7
2025-07-05T00:29	10	0	0.1	0	0	377	0.3	377	378	16.9	73.3
2025-07-05T00:30	10	0	0.1	0	0	377	0.3	377	378	16.9	72.0
2025-07-05T00:31	10	0	0.1	0	0	377	0.2	377	378	17.1	70.6
2025-07-05T00:32	10	0	0.1	0	0	377	0.3	377	378	17.1	70.8
2025-07-05T00:33	10	0	0.1	0	0	377	0.2	377	378	17.2	70.2
2025-07-05T00:34	10	0	0.1	0	0	377	0.2	377	378	17.1	70.6
2025-07-05T00:35	10	0	0.1	0	0	377	0.3	377	378	17.2	70.1
2025-07-05T00:36	10	0	0.1	0	0	377	0.3	377	378	17.3	69.7
2025-07-05T00:37	10	0	0.1	0	0	377	0.3	376	378	17.2	69.9
2025-07-05T00:38	10	0	0.1	0	0	378	0.3	377	378	17.4	68.8
2025-07-05T00:39	10	0	0.1	0	0	378	0.3	377	379	17.5	68.4
2025-07-05T00:40	10	0	0.1	0	0	378	0.3	378	379	17.4	68.6
2025-07-05T00:41	10	0	0.1	0	0	378	0.2	377	378	17.5	68.4
2025-07-05T00:42	10	0	0.1	0	0	378	0.3	377	378	17.4	68.5
2025-07-05T00:43	10	0	0.1	0	0	378	0.3	377	379	17.4	68.5
2025-07-05T00:44	10	0	0.1	0	0	378	0.3	377	378	17.2	69.8
2025-07-05T00:45	10	0	0.1	0	0	377	0.2	377	378	17.0	71.2
2025-07-05T00:46	10	0	0.1	0	0	377	0.3	377	378	16.9	71.8
2025-07-05T00:47	10	0	0.1	0	0	377	0.2	376	377	16.9	71.5
2025-07-05T00:48	10	0	0.1	0	0	377	0.2	376	377	16.9	71.6
2025-07-05T00:49	10	0	0.1	0	0	376	0.2	376	377	16.8	72.8
2025-07-05T00:50	10	0	0.1	0	0	377	0.3	376	378	16.8	72.6
2025-07-05T00:51	10	0	0.1	0	0	377	0.2	376	377	16.9	71.4
2025-07-05T00:52	10	0	0.1	0	0	376	0.2	376	377	17.0	71.1
2025-07-05T00:53	10	0	0.1	0	0	376	0.3	376	377	17.0	71.1
2025-07-05T00:54	10	0	0.1	0	0	376	0.3	376	377	17.1	70.5
2025-07-05T00:55	10	0	0.1	0	0	376	0.3	375	376	17.0	71.3
2025-07-05T00:56	10	0	0.1	0	0	376	0.2	376	377	17.1	70.4
2025-07-05T00:57	10	0	0.1	0	0	376	0.3	376	377	17.1	70.3
2025-07-05T00:58	10	0	0.1	0	0	376	0.3	375	377	17.1	70.0
2025-07-05T00:59	10	0	0.1	0	0	376	0.4	375	377	17.1	70.3
2025-07-05T01:00	10	0	0.1	0	0	376	0.3	376	377	17.3	69.4
2025-07-05T01:01	10	0	0.1	0	0	376	0.2	376	377	17.3	69.1
2025-07-05T01:02	10	0	0.0	0	0	376	0.2	375	376	17.3	69.6
2025-07-05T01:03	10	0	0.1	0	0	376	0.3	375	377	17.1	70.5
2025-07-05T01:04	10	0	0.1	0	0	377	0.2	376	377	17.0	71.3
2025-07-05T01:05	10	0	0.1	0	0	376	0.2	376	377	16.9	72.3
2025-07-05T01:06	10	0	0.1	0	0	377	0.2	376	377	16.7	73.0
2025-07-05T01:07	10	0	0.1	0	0	377	0.2	376	377	16.7	72.9
2025-07-05T01:08	10	0	0.1	0	0	377	0.2	376	377	16.8	72.4
2025-07-05T01:09	10	0	0.1	0	0	377	0.2	376	377	16.8	72.3
2025-07-05T01:10	10	0	0.1	0	0	376	0.2	376	377	16.8	72.1
2025-07-05T01:11	10	0	0.1	0	0	377	0.3	376	378	16.9	71.3
2025-07-05T01:12	10	0	0.1	0	0	377	0.2	376	377	17.1	70.1
2025-07-05T01:13	10	0	0.1	0	0	377	0.3	376	377	17.2	69.9
2025-07-05T01:14	10	0	0.1	0	0	376	0.3	376	377	17.1	70.7
2025-07-05T01:15	10	0	0.1	0	0	377	0.3	376	377	17.0	70.7
2025-07-05T01:16	10	0	0.1	0	0	377	0.3	376	378	17.1	70.1
2025-07-05T01:17	10	0	0.1	0	0	378	0.4	377	378	17.2	70.0
2025-07-05T01:18	10	0	0.1	0	0	378	0.3	377	378	17.3	69.5
2025-07-05T01:19	10	0	0.1	0	0	378	0.4	377	379	17.1	70.6
2025-07-05T01:20	10	0	0.1	0	0	378	0.3	378	379	17.3	69.6
2025-07-05T01:21	10	0	0.1	0	0	379	0.2	378	379	17.3	69.6
2025-07-05T01:22	10	0	0.1	0	0	379	0.3	378	379	17.3	69.4
2025-07-05T01:23	10	0	0.1	0	0	378	0.3	377	379	17.3	69.9
2025-07-05T01:24	10	0	0.1	0	0	378	0.3	378	379	17.3	69.5
2025-07-05T01:25	10	0	0.1	0	0	378	0.2	378	379	17.3	69.7
2025-07-05T01:26	10	0	0.1	0	0	378	0.2	378	379	17.1	72.0
2025-07-05T01:27	10	0	0.1	0	0	378	0.2	378	379	17.2	70.0
2025-07-05T01:28	10	0	0.1	0	0	379	0.3	378	379	17.2	69.9
2025-07-05T01:29	10	0	0.1	0	0	378	0.3	378	379	17.4	68.4
2025-07-05T01:30	10	0	0.1	0	0	378	0.2	378	379	17.3	68.7
2025-07-05T01:31	10	0	0.1	0	0	378	0.2	377	378	17.3	69.1
2025-07-05T01:32	10	0	0.1	0	1	378	0.2	377	378	17.3	69.2
2025-07-05T01:33	10	0	0.1	0	0	378	0.2	377	378	17.2	70.2
2025-07-05T01:34	10	0	0.1	0	0	378	0.4	377	379	17.3	69.4
2025-07-05T01:35	10	0	0.1	0	0	378	0.2	378	379	17.3	68.4
2025-07-05T01:36	10	0	0.1	0	0	378	0.3	378	379	17.3	68.3
2025-07-05T01:37	10	0	0.2	-1	0	377	0.2	377	378	17.3	68.1
2025-07-05T01:38	10	0	0.2	0	0	377	0.3	377	378	17.4	67.4
2025-07-05T01:39	10	0	0.2	0	1	377	0.3	377	378	17.5	67.1
2025-07-05T01:40	10	0	0.1	0	0	377	0.2	377	378	17.6	66.8
2025-07-05T01:41	10	0	0.1	0	0	377	0.7	375	378	17.7	66.3
2025-07-05T01:42	10	0	0.1	0	0	375	0.6	374	376	17.4	70.7
2025-07-05T01:43	10	0	0.1	0	0	374	0.3	374	375	16.9	74.7
2025-07-05T01:44	10	0	0.1	0	0	374	0.3	373	375	16.6	74.7
2025-07-05T01:45	10	0	0.1	0	0	374	0.3	373	374	16.4	75.8
2025-07-05T01:46	10	0	0.1	0	0	374	0.4	374	375	16.5	73.6
2025-07-05T01:47	10	0	0.1	0	0	374	0.2	374	375	16.6	73.3
2025-07-05T01:48	10	0	0.1	0	0	374	0.2	373	374	16.5	73.5
2025-07-05T01:49	10	0	0.1	0	0	374	0.3	373	375	16.4	74.1
2025-07-05T01:50	10	0	0.1	0	0	374	0.3	373	375	16.4	74.1
2025-07-05T01:51	10	0	0.2	0	1	374	0.3	374	375	16.3	74.4
2025-07-05T01:52	10	0	0.1	0	0	375	0.3	374	375	16.4	73.9
2025-07-05T01:53	10	0	0.1	-1	0	374	0.3	373	375	16.5	73.3
2025-07-05T01:54	10	0	0.1	0	0	374	0.4	373	374	16.4	74.1
2025-07-05T01:55	10	0	0.1	0	0	373	0.2	373	374	16.2	75.1
2025-07-05T01:56	10	0	0.1	0	0	373	0.2	372	373	16.1	75.7
2025-07-05T01:57	10	0	0.1	0	0	373	0.2	372	373	16.0	76.2
2025-07-05T01:58	10	0	0.1	0	0	373	0.3	372	373	15.9	76.6
2025-07-05T01:59	10	0	0.1	0	0	373	0.2	372	373	15.9	76.6
2025-07-05T02:00	10	0	0.1	0	0	372	0.2	372	373	15.9	76.7
2025-07-05T02:01	10	0	0.1	0	0	372	0.2	372	373	15.9	76.6
2025-07-05T02:02	10	0	0.1	0	0	372	0.3	371	373	15.9	75.9
2025-07-05T02:03	10	0	0.1	0	0	372	0.2	372	373	16.0	75.8
2025-07-05T02:04	10	0	0.1	0	0	372	0.3	372	373	15.9	76.0
2025-07-05T02:05	10	0	0.1	0	0	372	0.2	372	373	16.0	75.6
2025-07-05T02:06	10	0	0.1	0	0	372	0.2	372	373	15.9	76.1
2025-07-05T02:07	10	0	0.1	0	0	372	0.2	372	372	15.9	76.4
2025-07-05T02:08	10	0	0.1	0	0	372	0.3	371	372	15.9	76.3
2025-07-05T02:09	10	0	0.1	0	0	372	0.3	372	373	15.9	76.3
2025-07-05T02:10	10	0	0.1	0	0	373	0.4	372	374	15.9	75.9
2025-07-05T02:11	10	0	0.0	0	0	373	0.2	372	374	15.8	76.8
2025-07-05T02:12	10	0	0.1	0	0	373	0.2	373	373	15.7	77.4
2025-07-05T02:13	10	0	0.1	0	0	373	0.3	373	374	15.6	77.8
2025-07-05T02:14	10	0	0.1	0	0	373	0.2	373	374	15.6	77.9
2025-07-05T02:15	10	0	0.1	0	0	373	0.2	373	374	15.6	77.8
2025-07-05T02:16	10	0	0.0	0	0	373	0.2	373	373	15.6	77.5
2025-07-05T02:17	10	0	0.1	0	0	373	0.2	372	373	15.7	77.3
2025-07-05T02:18	10	0	0.1	0	0	372	0.2	372	373	15.7	77.4
2025-07-05T02:19	10	0	0.1	0	0	372	0.2	372	373	15.6	77.7
2025-07-05T02:20	10	0	0.0	0	0	373	0.3	372	374	15.6	77.4
2025-07-05T02:21	10	0	0.1	0	0	373	0.2	373	374	15.7	77.1
2025-07-05T02:22	10	0	0.0	0	0	373	0.2	373	374	15.6	77.2
2025-07-05T02:23	10	0	0.1	0	0	373	0.3	372	374	15.7	77.0
2025-07-05T02:24	10	0	0.1	0	0	373	0.3	372	374	15.7	77.1
2025-07-05T02:25	10	0	0.1	0	0	373	0.3	372	373	15.6	77.4
2025-07-05T02:26	10	0	0.1	0	0	372	0.2	372	373	15.6	77.6
2025-07-05T02:27	10	0	0.1	0	0	372	0.3	372	373	15.6	77.6
2025-07-05T02:28	10	0	0.1	0	0	373	0.2	372	373	15.6	77.9
2025-07-05T02:29	10	0	0.1	0	0	372	0.2	372	373	15.6	78.1
2025-07-05T02:30	10	0	0.1	0	0	372	0.2	372	373	15.5	78.4
2025-07-05T02:31	10	0	0.1	0	0	372	0.3	372	373	15.5	78.8
2025-07-05T02:32	10	0	0.1	0	0	372	0.3	372	373	15.5	78.8
2025-07-05T02:33	10	0	0.1	0	0	372	0.3	371	373	15.6	77.8
2025-07-05T02:34	10	0	0.1	0	0	372	0.2	372	373	15.8	77.1
2025-07-05T02:35	10	0	0.1	0	0	372	0.2	372	373	15.9	76.5
2025-07-05T02:36	10	0	0.0	0	0	372	0.3	371	372	15.9	76.4
2025-07-05T02:37	10	0	0.0	0	0	372	0.3	372	373	15.9	76.6
2025-07-05T02:38	10	0	0.1	0	0	372	0.2	372	373	15.9	76.3
2025-07-05T02:39	10	0	0.1	0	0	372	0.2	371	372	15.8	76.8
2025-07-05T02:40	10	0	0.0	0	0	372	0.2	371	372	15.7	77.1
2025-07-05T02:41	10	0	0.1	0	0	371	0.2	371	372	15.7	77.7
2025-07-05T02:42	10	0	0.1	0	0	371	0.3	371	372	15.6	77.9
2025-07-05T02:43	10	0	0.1	0	0	372	0.3	371	372	15.5	78.4
2025-07-05T02:44	10	0	0.1	0	0	372	0.2	371	372	15.5	78.4
2025-07-05T02:45	10	0	0.0	0	0	372	0.2	371	372	15.5	78.3
2025-07-05T02:46	10	0	0.1	0	0	372	0.2	372	373	15.5	78.1
2025-07-05T02:47	10	0	0.1	0	0	372	0.2	372	373	15.5	78.0
2025-07-05T02:48	10	0	0.1	0	0	373	0.3	372	373	15.5	77.9
2025-07-05T02:49	10	0	0.1	0	0	373	0.2	373	374	15.5	77.9
2025-07-05T02:50	10	0	0.1	0	0	373	0.2	373	374	15.5	78.1
2025-07-05T02:51	10	0	0.1	0	0	373	0.2	373	374	15.4	78.6
2025-07-05T02:52	10	0	0.1	0	0	373	0.3	373	374	15.4	78.4
2025-07-05T02:53	10	0	0.1	0	0	373	0.2	372	373	15.5	77.9
2025-07-05T02:54	10	0	0.1	0	0	373	0.2	372	373	15.5	78.2
2025-07-05T02:55	10	0	0.1	0	0	373	0.3	372	373	15.4	78.7
2025-07-05T02:56	10	0	0.1	0	0	373	0.3	372	374	15.5	78.2
2025-07-05T02:57	10	0	0.1	0	0	373	0.2	372	373	15.5	78.0
2025-07-05T02:58	10	0	0.1	0	0	373	0.3	372	373	15.5	78.0
2025-07-05T02:59	10	0	0.1	0	0	372	0.2	372	373	15.6	77.7
2025-07-05T03:00	10	0	0.1	0	0	372	0.2	372	372	15.6	77.8
2025-07-05T03:01	10	0	0.1	0	0	372	0.2	371	373	15.6	77.3
2025-07-05T03:02	10	0	0.1	0	0	372	0.3	371	373	15.7	76.6
2025-07-05T03:03	10	0	0.1	0	0	372	0.3	372	373	15.7	77.1
2025-07-05T03:04	10	0	0.1	0	0	373	0.2	372	373	15.6	77.3
2025-07-05T03:05	10	0	0.1	0	0	372	0.3	372	373	15.6	77.8
2025-07-05T03:06	10	0	0.1	0	0	372	0.3	372	373	15.5	78.4
2025-07-05T03:07	10	0	0.1	0	0	372	0.2	372	373	15.5	78.5
2025-07-05T03:08	10	0	0.1	0	0	372	0.3	371	373	15.4	79.0
2025-07-05T03:09	10	0	0.1	0	0	372	0.3	371	372	15.4	79.2
2025-07-05T03:10	10	0	0.1	0	0	372	0.2	371	372	15.3	79.4
2025-07-05T03:11	10	0	0.1	0	0	371	0.3	371	372	15.4	79.2
2025-07-05T03:12	10	0	0.1	0	0	371	0.3	370	372	15.3	79.4
2025-07-05T03:13	10	0	0.1	0	0	370	0.3	370	371	15.3	79.6
2025-07-05T03:14	10	0	0.1	0	0	370	0.2	370	371	15.2	79.9
2025-07-05T03:15	10	0	0.1	0	0	370	0.2	370	370	15.2	80.2
2025-07-05T03:16	10	0	0.1	0	0	370	0.3	370	371	15.1	80.5
2025-07-05T03:17	10	0	0.1	0	0	370	0.2	370	371	15.1	80.6
2025-07-05T03:18	10	0	0.1	0	0	370	0.2	370	371	15.1	80.5
2025-07-05T03:19	10	0	0.1	0	0	370	0.2	370	371	15.1	80.6
2025-07-05T03:20	10	0	0.1	0	0	370	0.3	369	371	15.2	79.9
2025-07-05T03:21	10	0	0.1	0	0	370	0.3	369	371	15.4	78.6
2025-07-05T03:22	10	0	0.1	0	0	370	0.2	370	371	15.4	78.7
2025-07-05T03:23	10	0	0.1	0	0	370	0.3	369	371	15.4	78.7
2025-07-05T03:24	10	0	0.1	0	0	370	0.4	369	371	15.4	78.5
2025-07-05T03:25	10	0	0.1	0	0	370	0.3	369	371	15.6	77.8
2025-07-05T03:26	10	0	0.1	0	0	370	0.2	370	371	15.5	78.2
2025-07-05T03:27	10	0	0.1	0	0	371	0.3	370	371	15.6	77.6
2025-07-05T03:28	10	0	0.1	0	0	371	0.3	370	371	15.7	77.2
2025-07-05T03:29	10	0	0.1	0	0	371	0.3	371	372	15.7	77.2
2025-07-05T03:30	10	0	0.1	0	1	371	0.3	371	372	15.4	78.4
2025-07-05T03:31	10	0	0.1	0	1	371	0.3	370	372	15.3	79.0
2025-07-05T03:32	10	0	0.1	0	1	371	0.2	370	371	15.1	80.1
2025-07-05T03:33	10	0	0.1	0	1	370	0.2	370	371	15.0	80.6
2025-07-05T03:34	10	0	0.1	0	1	370	0.2	369	371	15.0	81.0
2025-07-05T03:35	10	1	0.1	0	1	370	0.3	369	370	15.0	81.1
2025-07-05T03:36	10	1	0.1	1	1	370	0.3	369	370	14.9	81.3
2025-07-05T03:37	10	1	0.1	1	1	370	0.2	369	370	14.9	81.3
2025-07-05T03:38	10	1	0.1	1	1	370	0.2	369	370	15.0	81.3
2025-07-05T03:39	10	1	0.1	1	1	370	0.3	369	370	15.0	80.9
2025-07-05T03:40	10	1	0.1	1	1	370	0.2	369	371	15.2	79.9
2025-07-05T03:41	10	1	0.1	1	1	370	0.3	369	371	15.3	79.7
2025-07-05T03:42	10	1	0.1	1	1	370	0.3	370	371	15.3	80.1
2025-07-05T03:43	10	1	0.1	1	1	370	0.3	370	371	15.3	80.4
2025-07-05T03:44	10	1	0.1	1	1	370	0.2	370	371	15.3	80.4
2025-07-05T03:45	10	1	0.1	1	1	370	0.2	370	371	15.2	80.4
2025-07-05T03:46	10	1	0.1	1	1	370	0.2	369	370	15.2	80.8
2025-07-05T03:47	10	1	0.1	1	1	370	0.2	370	371	15.1	81.1
2025-07-05T03:48	10	1	0.1	1	2	370	0.2	370	371	15.1	81.3
2025-07-05T03:49	10	1	0.1	1	2	370	0.2	370	371	15.1	80.8
2025-07-05T03:50	10	2	0.1	1	2	370	0.2	370	371	15.1	80.4
2025-07-05T03:51	10	2	0.1	2	2	371	0.3	370	371	15.1	80.1
2025-07-05T03:52	10	2	0.1	1	2	371	0.3	370	371	15.1	80.1
2025-07-05T03:53	10	2	0.1	2	2	371	0.2	371	372	15.2	79.9
2025-07-05T03:54	10	2	0.1	2	2	371	0.2	371	372	15.1	80.0
2025-07-05T03:55	10	2	0.1	2	2	371	0.2	371	371	15.1	80.0
2025-07-05T03:56	10	2	0.1	2	2	371	0.2	371	371	15.1	80.0
2025-07-05T03:57	10	2	0.1	2	2	371	0.3	370	372	15.1	80.1
2025-07-05T03:58	10	2	0.1	2	3	371	0.3	370	371	15.2	80.1
2025-07-05T03:59	10	3	0.1	2	3	371	0.2	371	371	15.2	80.2
2025-07-05T04:00	10	3	0.1	3	3	371	0.2	371	372	15.2	80.3
2025-07-05T04:01	10	3	0.1	3	3	371	0.2	371	372	15.2	80.4
2025-07-05T04:02	10	3	0.1	3	4	372	0.2	371	372	15.2	80.6
2025-07-05T04:03	10	4	0.1	3	4	371	0.3	371	372	15.2	81.1
2025-07-05T04:04	10	4	0.1	4	4	372	0.3	371	372	15.1	81.7
2025-07-05T04:05	10	4	0.1	4	4	372	0.2	371	372	15.1	82.1
2025-07-05T04:06	10	4	0.1	4	5	372	0.2	372	373	15.0	82.2
2025-07-05T04:07	10	4	0.1	4	5	373	0.3	372	373	14.9	82.4
2025-07-05T04:08	10	5	0.1	5	5	373	0.2	373	374	14.9	82.5
2025-07-05T04:09	10	5	0.1	5	5	373	0.2	373	374	14.8	82.5
2025-07-05T04:10	10	5	0.1	5	5	374	0.3	373	375	14.9	82.1
2025-07-05T04:11	10	5	0.1	5	5	374	0.2	374	375	14.9	82.1
2025-07-05T04:12	10	5	0.1	5	6	374	0.2	374	375	14.8	82.2
2025-07-05T04:13	10	5	0.1	5	6	374	0.2	374	374	14.7	82.6
2025-07-05T04:14	10	6	0.2	5	6	374	0.2	374	374	14.7	82.9
2025-07-05T04:15	10	7	0.2	6	7	375	0.4	374	375	14.7	82.7
2025-07-05T04:16	10	7	0.1	7	7	375	0.3	374	376	14.8	82.2
2025-07-05T04:17	10	7	0.1	7	7	375	0.2	375	376	14.9	81.8
2025-07-05T04:18	10	7	0.1	7	7	375	0.2	375	376	14.8	82.1
2025-07-05T04:19	10	7	0.1	7	7	376	0.2	375	376	14.8	82.0
2025-07-05T04:20	10	8	0.2	7	8	376	0.3	375	376	15.0	81.3
2025-07-05T04:21	10	8	0.1	8	8	376	0.2	375	376	15.1	80.5
2025-07-05T04:22	10	9	0.1	8	9	376	0.4	375	377	15.2	79.9
2025-07-05T04:23	10	9	0.2	9	10	376	0.2	376	377	15.3	79.4
2025-07-05T04:24	10	10	0.3	10	11	376	0.2	376	377	15.4	79.3
2025-07-05T04:25	10	11	0.2	11	11	376	0.2	376	377	15.4	79.5
2025-07-05T04:26	10	12	0.2	11	12	377	0.2	376	377	15.3	79.8
2025-07-05T04:27	10	12	0.1	12	12	376	0.2	376	377	15.2	80.4
2025-07-05T04:28	10	13	0.2	12	13	377	0.3	376	377	15.2	81.0
2025-07-05T04:29	10	13	0.2	13	13	377	0.3	377	378	15.2	80.9
2025-07-05T04:30	10	14	0.2	13	14	377	0.2	377	378	15.3	80.8
2025-07-05T04:31	10	14	0.1	14	14	378	0.3	377	378	15.3	80.7
2025-07-05T04:32	10	14	0.3	13	14	378	0.3	378	379	15.2	81.1
2025-07-05T04:33	10	13	0.3	12	13	378	0.2	378	379	15.3	80.9
2025-07-05T04:34	10	15	0.8	13	16	379	0.2	378	379	15.3	81.0
2025-07-05T04:35	10	14	0.5	13	15	379	0.2	379	380	15.2	81.1
2025-07-05T04:36	10	15	0.8	14	16	380	0.3	379	380	15.4	80.2
2025-07-05T04:37	10	16	0.3	16	17	380	0.2	379	380	15.4	80.4
2025-07-05T04:38	10	18	0.3	17	18	380	0.4	380	381	15.4	80.4
2025-07-05T04:39	10	18	0.2	18	19	381	0.2	380	381	15.5	79.8
2025-07-05T04:40	10	19	0.2	18	19	381	0.2	381	382	15.5	80.1
2025-07-05T04:41	10	20	0.1	19	20	381	0.2	381	382	15.4	80.6
2025-07-05T04:42	10	20	0.1	20	20	382	0.2	381	382	15.4	80.6
2025-07-05T04:43	10	20	0.1	20	20	382	0.2	382	382	15.4	80.6
2025-07-05T04:44	10	20	0.3	20	21	382	0.2	381	383	15.4	80.7
2025-07-05T04:45	10	21	0.4	21	22	382	0.3	382	383	15.3	81.0
2025-07-05T04:46	10	22	0.2	22	23	383	0.3	382	383	15.3	81.4
2025-07-05T04:47	10	23	0.4	23	24	383	0.4	383	384	15.4	81.1
2025-07-05T04:48	10	24	0.4	24	25	384	0.3	383	384	15.5	81.0
2025-07-05T04:49	10	25	0.2	25	25	384	0.3	384	385	15.5	80.6
2025-07-05T04:50	10	26	0.2	25	26	384	0.2	384	385	15.5	80.6
2025-07-05T04:51	10	26	0.2	26	27	385	0.3	384	385	15.5	80.5
2025-07-05T04:52	10	27	0.2	27	27	385	0.4	384	386	15.5	80.0
2025-07-05T04:53	10	27	0.2	27	28	385	0.2	385	386	15.6	79.7
2025-07-05T04:54	10	28	0.1	28	28	386	0.3	385	386	15.6	79.9
2025-07-05T04:55	10	29	0.2	28	29	386	0.3	385	387	15.6	79.6
2025-07-05T04:56	10	29	0.2	29	30	386	0.2	386	386	15.6	79.6
2025-07-05T04:57	10	30	0.2	30	30	386	0.3	386	387	15.6	79.4
2025-07-05T04:58	10	30	0.2	30	31	387	0.3	386	388	15.7	79.2
2025-07-05T04:59	10	31	0.2	31	31	387	0.2	387	387	15.7	79.5
2025-07-05T05:00	10	31	0.1	31	32	387	0.2	387	388	15.7	79.3
2025-07-05T05:01	10	32	0.1	32	32	388	0.3	387	388	15.7	79.4
2025-07-05T05:02	10	32	0.2	32	33	388	0.2	388	389	15.8	79.3
2025-07-05T05:03	10	33	0.2	33	34	389	0.2	388	389	15.8	79.2
2025-07-05T05:04	10	34	0.2	33	34	389	0.2	388	389	15.8	79.4
2025-07-05T05:05	10	34	0.2	34	35	389	0.3	389	390	15.9	79.7
2025-07-05T05:06	10	35	0.2	34	35	390	0.3	389	391	15.9	80.3
2025-07-05T05:07	10	35	0.3	35	36	390	0.2	390	391	15.9	80.2
2025-07-05T05:08	10	36	0.2	36	36	391	0.2	390	391	15.9	80.4
2025-07-05T05:09	10	37	0.2	36	37	391	0.3	390	392	16.0	79.8
2025-07-05T05:10	10	37	0.2	37	38	391	0.2	391	392	16.0	81.2
2025-07-05T05:11	10	38	0.2	38	39	392	0.3	391	393	16.0	80.5
2025-07-05T05:12	10	39	0.2	38	39	393	0.2	392	393	16.1	80.7
2025-07-05T05:13	10	39	0.2	39	40	393	0.3	392	393	16.2	79.4
2025-07-05T05:14	10	40	0.2	40	40	393	0.2	392	393	16.3	78.3
2025-07-05T05:15	10	41	0.2	40	41	393	0.2	392	393	16.4	78.3
2025-07-05T05:16	10	41	0.2	41	42	393	0.3	393	394	16.4	78.5
2025-07-05T05:17	10	42	0.2	42	42	394	0.3	393	394	16.4	78.4
2025-07-05T05:18	10	43	0.2	42	43	394	0.3	393	394	16.5	77.2
2025-07-05T05:19	10	43	0.2	43	44	394	0.2	393	395	16.5	77.1
2025-07-05T05:20	10	44	0.2	44	45	395	0.2	394	395	16.5	77.8
2025-07-05T05:21	10	45	0.2	45	45	395	0.3	394	395	16.5	77.7
2025-07-05T05:22	10	46	0.2	45	46	395	0.2	395	396	16.6	78.1
2025-07-05T05:23	10	46	0.2	46	46	396	0.2	396	397	16.7	77.7
2025-07-05T05:24	10	47	0.2	46	47	396	0.3	396	397	16.7	77.0
2025-07-05T05:25	10	47	0.3	47	48	397	0.2	396	397	16.8	76.6
2025-07-05T05:26	10	48	0.2	48	49	397	0.2	396	397	16.9	75.9
2025-07-05T05:27	10	49	0.2	49	49	397	0.3	397	398	16.9	76.3
2025-07-05T05:28	10	50	0.2	49	50	398	0.2	397	398	16.9	76.1
2025-07-05T05:29	10	50	0.1	50	50	398	0.2	398	399	17.0	76.0
2025-07-05T05:30	10	51	0.2	50	51	399	0.2	398	399	17.0	76.1
2025-07-05T05:31	10	51	0.2	51	52	400	0.2	399	400	17.1	76.3
2025-07-05T05:32	10	52	0.2	51	52	400	0.3	399	400	17.2	76.1
2025-07-05T05:33	10	53	0.2	52	53	400	0.3	400	401	17.2	75.7
2025-07-05T05:34	10	53	0.2	53	54	401	0.3	400	402	17.3	75.3
2025-07-05T05:35	10	54	0.2	54	54	402	0.2	401	402	17.3	75.8
2025-07-05T05:36	10	55	0.2	54	55	402	0.2	402	403	17.4	75.4
2025-07-05T05:37	10	56	0.3	55	56	402	0.3	401	403	17.4	75.3
2025-07-05T05:38	10	56	0.2	56	57	403	0.2	403	404	17.5	75.3
2025-07-05T05:39	10	57	0.1	57	57	404	0.3	403	405	17.5	74.9
2025-07-05T05:40	10	58	0.2	57	58	404	0.2	404	405	17.5	74.4
2025-07-05T05:41	10	58	0.2	58	59	404	0.3	404	405	17.7	75.1
2025-07-05T05:42	10	59	0.1	59	59	404	0.2	404	405	17.8	74.3
2025-07-05T05:43	10	59	0.3	59	60	404	0.3	404	405	17.8	74.4
2025-07-05T05:44	10	60	0.2	60	61	405	0.3	404	405	17.8	74.1
2025-07-05T05:45	10	61	0.2	60	61	405	0.3	405	406	17.8	74.1
2025-07-05T05:46	10	61	0.2	61	62	406	0.3	405	406	17.8	73.6
2025-07-05T05:47	10	62	0.3	61	63	406	0.3	405	407	17.9	73.8
2025-07-05T05:48	10	63	0.3	62	63	406	0.3	406	407	17.9	73.4
2025-07-05T05:49	10	63	0.2	63	64	408	0.3	407	408	18.0	73.8
2025-07-05T05:50	10	64	0.3	63	65	408	0.2	407	408	18.1	73.8
2025-07-05T05:51	10	64	0.3	64	65	408	0.3	408	409	18.1	73.3
2025-07-05T05:52	10	65	0.2	64	65	409	0.2	408	409	18.1	72.9
2025-07-05T05:53	10	66	0.2	65	66	410	0.3	409	410	18.2	73.0
2025-07-05T05:54	10	66	0.2	66	67	410	0.3	410	411	18.3	73.0
2025-07-05T05:55	10	67	0.2	66	67	410	0.3	410	411	18.3	73.1
2025-07-05T05:56	10	68	0.2	67	68	411	0.3	411	412	18.4	72.7
2025-07-05T05:57	10	68	0.2	68	69	412	0.3	411	412	18.7	72.4
2025-07-05T05:58	10	69	0.2	68	69	412	0.2	411	412	18.6	71.8
2025-07-05T05:59	10	69	0.2	69	70	412	0.3	412	413	18.6	71.2
2025-07-05T06:00	10	70	0.2	70	71	413	0.3	413	414	18.6	72.4
2025-07-05T06:01	10	71	0.2	70	71	413	0.2	413	414	18.6	71.9
2025-07-05T06:02	10	72	0.3	71	72	414	0.2	413	415	18.8	71.4
2025-07-05T06:03	10	72	0.2	72	73	415	0.2	414	415	18.9	71.7
2025-07-05T06:04	10	73	0.2	73	74	415	0.2	415	415	19.0	70.4
2025-07-05T06:05	10	74	0.2	73	74	416	0.2	415	416	19.0	71.7
2025-07-05T06:06	10	75	0.2	74	75	416	0.3	415	416	19.0	71.3
2025-07-05T06:07	10	75	0.3	75	76	416	0.3	416	417	19.0	70.7
2025-07-05T06:08	10	76	0.2	76	76	417	0.2	416	417	19.0	71.0
2025-07-05T06:09	10	77	0.2	76	77	417	0.3	416	417	19.1	70.9
2025-07-05T06:10	10	77	0.2	77	78	417	0.4	416	418	19.1	70.6
2025-07-05T06:11	10	78	0.2	78	79	417	0.3	417	418	19.2	71.1
2025-07-05T06:12	10	79	0.2	79	79	417	0.4	416	418	19.1	70.8
2025-07-05T06:13	10	80	0.2	79	80	417	0.3	417	418	19.1	70.4
2025-07-05T06:14	10	80	0.2	80	81	419	0.3	418	419	19.2	70.0
2025-07-05T06:15	10	81	0.2	80	81	420	0.5	419	420	19.4	69.9
2025-07-05T06:16	10	81	0.2	81	82	420	0.2	420	421	19.5	70.5
2025-07-05T06:17	10	82	0.1	81	82	421	0.3	420	422	19.5	71.0
2025-07-05T06:18	10	82	0.2	82	83	421	0.3	420	421	19.5	69.7
2025-07-05T06:19	10	83	0.2	83	84	421	0.3	420	422	19.5	70.2
2025-07-05T06:20	10	84	0.2	83	84	422	0.3	421	423	19.6	69.9
2025-07-05T06:21	10	84	0.3	84	85	422	0.2	422	423	19.5	68.9
2025-07-05T06:22	10	85	0.1	85	85	421	0.5	420	422	19.4	68.2
2025-07-05T06:23	10	85	0.2	85	86	422	0.2	421	422	19.4	68.9
2025-07-05T06:24	10	86	0.4	85	87	422	0.4	421	422	19.5	69.8
2025-07-05T06:25	10	87	0.3	87	87	422	0.3	421	423	19.4	68.8
2025-07-05T06:26	10	88	0.2	87	88	423	0.4	422	424	19.4	69.5
2025-07-05T06:27	10	88	0.2	88	89	424	0.4	423	425	19.5	69.3
2025-07-05T06:28	10	89	0.2	88	89	424	0.2	424	425	19.5	69.3
2025-07-05T06:29	10	89	0.4	89	90	424	0.2	423	424	19.5	68.9
2025-07-05T06:30	10	90	0.2	90	91	424	0.3	424	425	19.5	68.6
2025-07-05T06:31	10	91	0.3	91	92	425	0.2	424	425	19.6	68.2
2025-07-05T06:32	10	91	0.5	90	92	426	0.4	425	426	19.6	68.4
2025-07-05T06:33	10	92	0.3	92	93	426	0.3	425	426	19.5	68.5
2025-07-05T06:34	10	93	0.2	93	94	426	0.3	426	427	19.7	68.7
2025-07-05T06:35	10	93	0.3	93	94	427	0.4	426	428	19.8	67.9
2025-07-05T06:36	10	93	1.5	89	95	426	0.7	425	428	19.6	68.1
2025-07-05T06:37	10	95	0.3	95	96	427	0.6	426	428	19.6	68.1
2025-07-05T06:38	10	96	0.1	96	96	428	0.3	427	428	19.7	67.1
2025-07-05T06:39	10	96	0.1	96	97	428	0.4	427	429	19.9	66.3
2025-07-05T06:40	10	97	0.2	96	97	428	0.5	427	429	19.8	66.6
2025-07-05T06:41	10	98	0.2	97	98	429	0.3	429	430	19.8	65.9
2025-07-05T06:42	10	98	0.2	98	98	430	0.5	429	431	20.0	65.8
2025-07-05T06:43	10	98	0.2	98	99	431	0.3	430	431	20.0	65.2
2025-07-05T06:44	10	99	0.3	98	99	430	0.3	430	431	20.0	64.9
2025-07-05T06:45	10	99	0.1	99	100	431	0.2	431	432	20.0	64.8
2025-07-05T06:46	10	99	0.1	99	100	431	0.3	431	432	20.0	65.4
2025-07-05T06:47	10	100	0.2	100	100	433	0.5	432	434	20.2	65.8
2025-07-05T06:48	10	101	0.1	100	101	433	0.3	432	434	20.2	65.8
2025-07-05T06:49	10	101	0.1	101	101	433	0.2	432	433	20.1	66.0
2025-07-05T06:50	10	101	0.3	101	102	433	0.3	432	433	20.2	65.6
2025-07-05T06:51	10	102	0.1	102	102	433	0.3	432	433	20.3	65.0
2025-07-05T06:52	10	102	0.2	102	103	433	0.4	433	434	20.4	64.8
2025-07-05T06:53	10	102	0.3	102	103	435	0.6	434	436	20.6	64.4
2025-07-05T06:54	10	103	0.4	102	103	435	0.6	434	436	20.6	62.6
2025-07-05T06:55	10	104	0.2	103	104	435	0.5	434	436	20.5	63.5
2025-07-05T06:56	10	104	0.2	104	104	436	0.3	435	436	20.7	63.8
2025-07-05T06:57	10	105	0.3	104	105	436	0.3	435	437	20.7	63.6
2025-07-05T06:58	10	106	0.2	105	106	436	0.3	436	437	20.5	63.6
2025-07-05T06:59	10	106	0.1	106	107	437	0.3	436	437	20.6	63.8
2025-07-05T07:00	10	106	0.2	106	107	437	0.3	436	438	20.6	63.1
2025-07-05T07:01	10	107	0.2	106	107	438	0.3	437	439	20.9	62.3
2025-07-05T07:02	10	107	0.3	107	108	438	0.5	437	439	20.8	62.4
2025-07-05T07:03	10	108	0.3	107	109	439	0.5	438	440	21.0	61.4
2025-07-05T07:04	10	108	0.1	108	109	439	0.8	437	440	21.0	61.1
2025-07-05T07:05	10	109	0.2	109	109	438	0.4	437	439	20.9	60.7
2025-07-05T07:06	10	109	0.2	109	110	438	0.8	437	440	20.9	59.0
2025-07-05T07:07	10	109	0.2	109	110	438	0.4	438	439	20.9	59.3
2025-07-05T07:08	10	110	0.2	109	110	439	0.4	438	440	21.0	59.1
2025-07-05T07:09	10	110	0.2	110	111	438	0.9	436	439	21.0	57.5
2025-07-05T07:10	10	111	0.3	111	112	438	0.8	437	439	21.0	59.3
2025-07-05T07:11	10	112	0.1	111	112	439	0.4	438	440	21.0	59.5
2025-07-05T07:12	10	112	0.2	112	112	440	0.5	439	441	21.1	58.8
2025-07-05T07:13	10	112	0.2	112	113	441	0.3	441	442	21.2	58.5
2025-07-05T07:14	10	113	0.2	112	113	440	0.3	440	441	21.2	57.9
2025-07-05T07:15	10	113	0.2	113	114	441	0.4	440	442	21.2	57.5
2025-07-05T07:16	10	114	0.2	114	114	442	0.9	441	444	21.4	57.3
2025-07-05T07:17	10	114	0.1	114	115	442	0.9	441	444	21.4	57.0
2025-07-05T07:18	10	115	0.1	115	115	440	0.5	440	441	21.1	57.2
2025-07-05T07:19	10	115	0.2	115	116	441	0.6	440	443	21.1	57.4
2025-07-05T07:20	10	116	0.2	115	116	443	0.4	442	444	21.3	57.2
2025-07-05T07:21	10	116	0.3	116	117	443	0.4	442	444	21.4	55.4
2025-07-05T07:22	10	117	0.2	117	118	444	0.3	443	445	21.7	54.7
2025-07-05T07:23	10	117	0.1	117	118	443	0.4	442	444	21.4	53.9
2025-07-05T07:24	10	118	0.1	117	118	444	0.5	443	445	21.5	55.5
2025-07-05T07:25	10	118	0.2	118	118	445	1.0	443	447	21.6	54.8
2025-07-05T07:26	10	118	0.2	118	119	444	0.6	443	446	21.5	53.4
2025-07-05T07:27	10	119	0.1	119	119	445	0.8	443	446	21.6	50.3
2025-07-05T07:28	10	119	0.2	119	120	445	0.5	444	446	21.5	48.7
2025-07-05T07:29	10	120	0.4	119	120	446	0.7	445	448	21.6	48.7
2025-07-05T07:30	10	120	0.2	120	121	448	0.4	447	449	21.9	50.3
2025-07-05T07:31	10	121	0.2	121	122	448	0.5	447	449	21.9	50.8
2025-07-05T07:32	10	122	0.1	121	122	450	0.6	449	451	22.3	51.8
2025-07-05T07:33	10	122	0.2	121	122	451	0.2	451	452	22.6	50.9
2025-07-05T07:34	10	123	0.3	122	123	451	0.3	450	452	22.5	50.9
2025-07-05T07:35	10	123	0.1	123	123	451	0.5	450	452	22.3	52.2
2025-07-05T07:36	10	123	0.2	123	124	449	1.0	447	451	22.1	53.3
2025-07-05T07:37	10	124	0.1	124	124	448	0.3	448	449	21.9	54.3
2025-07-05T07:38	10	124	0.1	124	124	449	0.6	448	450	21.8	54.5
2025-07-05T07:39	10	124	0.2	124	125	451	0.7	450	453	21.7	54.5
2025-07-05T07:40	10	125	0.2	125	125	452	0.3	452	453	22.1	55.1
2025-07-05T07:41	10	125	0.2	125	126	452	1.0	450	454	22.0	53.3
2025-07-05T07:42	10	126	0.2	126	126	450	0.6	449	451	21.9	52.6
2025-07-05T07:43	10	126	0.1	126	127	451	0.8	450	453	22.0	53.4
2025-07-05T07:44	10	127	0.2	126	127	452	0.6	451	453	22.2	53.0
2025-07-05T07:45	10	127	0.1	127	127	451	0.2	451	452	22.1	53.5
2025-07-05T07:46	10	127	0.2	127	127	453	0.6	452	454	22.1	53.7
2025-07-05T07:47	10	128	0.3	127	128	453	0.5	452	454	22.1	53.8
2025-07-05T07:48	10	128	0.2	128	129	454	0.8	453	456	22.2	54.5
2025-07-05T07:49	10	129	0.1	128	129	455	0.3	455	456	22.1	54.6
2025-07-05T07:50	10	129	0.2	129	130	456	0.4	455	457	22.2	55.5
2025-07-05T07:51	10	130	0.3	129	130	455	1.0	454	457	22.3	55.1
2025-07-05T07:52	10	130	0.2	130	131	456	0.4	455	457	22.3	54.9
2025-07-05T07:53	10	131	0.1	131	131	457	0.6	455	458	22.5	54.2
2025-07-05T07:54	10	131	0.2	131	132	458	0.5	457	459	22.5	54.5
2025-07-05T07:55	10	132	0.2	131	132	459	0.5	458	460	22.6	54.6
2025-07-05T07:56	10	132	0.2	131	133	461	1.0	459	462	22.8	53.3
2025-07-05T07:57	10	132	0.2	132	133	460	0.6	460	462	22.7	53.4
2025-07-05T07:58	10	133	0.2	132	133	460	0.6	459	461	22.7	53.6
2025-07-05T07:59	10	133	0.2	133	133	459	1.6	457	462	22.8	51.8
2025-07-05T08:00	10	133	0.2	133	134	458	0.3	457	459	22.3	52.0
2025-07-05T08:01	10	134	0.2	134	135	459	0.6	457	460	22.2	53.7
2025-07-05T08:02	10	135	0.2	134	135	458	0.4	457	458	22.0	54.1
2025-07-05T08:03	10	135	0.2	134	136	459	0.6	458	460	22.2	53.7
2025-07-05T08:04	10	135	0.2	135	135	461	0.8	460	462	22.5	53.8
2025-07-05T08:05	10	136	0.2	135	136	459	1.0	457	462	22.6	52.2
2025-07-05T08:06	10	136	0.1	136	137	460	0.4	459	461	22.5	52.2
2025-07-05T08:07	10	137	0.2	136	137	461	0.9	459	463	22.5	51.8
2025-07-05T08:08	10	137	0.1	136	137	460	0.3	459	460	22.3	52.2
2025-07-05T08:09	10	136	0.1	136	137	461	0.6	460	462	22.7	52.2
2025-07-05T08:10	10	137	0.2	137	137	461	0.6	460	462	22.9	51.4
2025-07-05T08:11	10	138	0.2	137	138	459	0.3	459	460	22.5	51.1
2025-07-05T08:12	10	138	0.1	138	138	462	1.2	460	464	22.5	51.8
2025-07-05T08:13	10	138	0.2	138	139	462	0.4	462	464	22.5	51.6
2025-07-05T08:14	10	139	0.2	139	140	463	0.4	462	464	22.7	51.0
2025-07-05T08:15	10	140	0.2	139	140	464	0.4	463	464	22.7	50.8
2025-07-05T08:16	10	140	0.1	140	140	464	0.8	463	465	22.8	50.5
2025-07-05T08:17	10	140	1.1	140	148	466	0.6	465	467	22.9	50.8
2025-07-05T08:18	10	141	0.2	140	141	467	0.4	466	467	23.1	50.8
2025-07-05T08:19	10	141	0.2	141	142	467	0.3	466	467	23.3	50.4
2025-07-05T08:20	10	142	0.2	142	143	467	0.4	466	468	23.3	49.2
2025-07-05T08:21	10	142	0.1	142	143	468	1.1	465	469	23.4	49.9
2025-07-05T08:22	10	143	0.1	143	143	466	0.8	465	467	23.0	49.8
2025-07-05T08:23	10	143	0.1	142	143	469	0.5	467	470	23.3	50.9
2025-07-05T08:24	10	143	0.1	143	143	469	0.3	468	470	23.6	49.7
2025-07-05T08:25	10	143	0.1	143	143	470	0.4	468	470	23.6	49.5
2025-07-05T08:26	10	143	0.2	143	144	469	0.8	468	470	23.2	50.2
2025-07-05T08:27	10	144	0.1	144	144	467	0.4	466	468	23.1	50.2
2025-07-05T08:28	10	144	0.1	144	144	468	0.3	467	469	23.0	50.0
2025-07-05T08:29	10	144	0.2	144	144	470	0.4	469	471	23.2	50.8
2025-07-05T08:30	10	144	0.2	144	145	470	0.6	469	472	23.4	49.4
2025-07-05T08:31	10	145	0.2	145	145	469	1.3	467	471	23.2	48.9
2025-07-05T08:32	10	145	0.2	145	146	467	0.3	466	468	23.1	49.2
2025-07-05T08:33	10	146	0.1	145	146	469	0.5	467	470	23.1	49.1
2025-07-05T08:34	10	146	0.2	146	146	470	0.3	470	471	23.1	49.1
2025-07-05T08:35	10	146	0.2	146	147	471	0.5	470	472	23.3	49.0
2025-07-05T08:36	10	147	0.2	146	147	473	0.7	471	474	23.5	49.5
2025-07-05T08:37	10	147	0.1	147	148	470	1.7	468	473	23.6	49.1
2025-07-05T08:38	10	148	0.1	148	148	469	0.6	469	471	23.3	49.5
2025-07-05T08:39	10	148	0.2	148	149	469	0.8	468	471	23.1	49.6
2025-07-05T08:40	10	148	0.1	148	149	471	1.1	469	473	23.3	49.5
2025-07-05T08:41	10	149	0.2	149	149	470	0.8	468	471	23.1	49.9
2025-07-05T08:42	10	149	0.1	149	150	470	0.5	468	471	23.2	49.9
2025-07-05T08:43	10	149	0.1	149	150	471	0.5	470	472	23.3	49.7
2025-07-05T08:44	10	150	0.2	149	150	472	0.4	471	473	23.6	49.5
2025-07-05T08:45	10	150	0.3	150	151	474	0.9	473	476	23.9	49.4
2025-07-05T08:46	10	151	0.1	151	151	475	0.9	473	476	23.7	48.4
2025-07-05T08:47	10	151	0.1	151	151	475	0.3	474	475	23.7	48.5
2025-07-05T08:48	10	151	0.3	151	152	475	0.2	474	475	23.8	47.6
2025-07-05T08:49	10	152	0.2	152	152	476	0.6	475	477	23.8	48.0
2025-07-05T08:50	10	152	0.1	152	152	478	0.6	477	479	23.7	47.6
2025-07-05T08:51	10	152	0.1	152	152	477	0.8	476	479	23.9	47.4
2025-07-05T08:52	10	152	0.2	152	152	476	0.2	476	477	24.1	46.3
2025-07-05T08:53	10	152	0.1	152	153	477	0.7	476	478	24.1	47.1
2025-07-05T08:54	10	152	0.2	152	153	477	0.6	476	479	23.9	47.4
2025-07-05T08:55	10	153	0.3	152	153	479	0.3	478	480	24.0	47.9
2025-07-05T08:56	10	153	0.1	153	154	479	0.7	478	481	24.3	47.6
2025-07-05T08:57	10	154	0.1	153	154	478	0.4	477	479	24.5	47.4
2025-07-05T08:58	10	154	0.1	153	154	478	0.3	477	479	24.3	47.8
2025-07-05T08:59	10	154	0.1	153	154	480	0.9	477	481	24.5	47.6
2025-07-05T09:00	10	154	0.1	154	154	478	1.1	476	481	24.3	47.0
2025-07-05T09:01	10	155	0.5	154	156	477	0.4	476	478	23.9	47.1
2025-07-05T09:02	10	155	0.2	155	156	479	0.6	478	480	23.9	47.8
2025-07-05T09:03	10	155	0.3	155	156	478	0.6	477	479	23.9	47.4
2025-07-05T09:04	10	156	0.2	155	156	480	0.8	479	482	24.2	46.9
2025-07-05T09:05	10	156	0.2	156	157	482	0.6	481	484	24.5	47.0
2025-07-05T09:06	10	156	0.2	156	157	481	0.7	479	482	24.5	46.4
2025-07-05T09:07	10	156	0.2	156	157	481	0.5	480	483	24.4	46.2
2025-07-05T09:08	10	157	0.2	156	157	483	0.6	482	485	24.7	46.6
2025-07-05T09:09	10	157	0.2	156	158	484	0.5	484	485	24.7	46.2
2025-07-05T09:10	10	157	0.2	157	158	484	0.3	483	485	24.7	46.6
2025-07-05T09:11	10	158	0.2	157	158	485	0.7	484	486	24.7	47.5
2025-07-05T09:12	10	158	0.1	158	158	483	0.8	482	485	24.7	47.1
2025-07-05T09:13	10	158	0.2	158	159	485	0.4	484	485	24.8	46.9
2025-07-05T09:14	10	159	0.2	158	159	482	2.4	479	486	24.7	46.6
2025-07-05T09:15	10	159	0.1	159	159	481	1.1	480	483	24.3	46.9
2025-07-05T09:16	10	159	0.1	159	160	485	0.9	483	486	24.6	47.4
2025-07-05T09:17	10	159	0.1	159	160	485	0.2	485	486	24.7	46.4
2025-07-05T09:18	10	160	0.2	160	160	486	0.4	485	486	24.6	47.0
2025-07-05T09:19	10	160	0.1	160	161	486	0.6	485	487	24.7	46.6
2025-07-05T09:20	10	160	0.1	160	161	485	1.1	484	487	24.7	46.5
2025-07-05T09:21	10	161	0.1	160	161	485	0.9	484	487	24.7	46.7
2025-07-05T09:22	10	161	0.1	161	161	486	0.6	485	487	25.1	46.6
2025-07-05T09:23	10	161	0.1	161	161	489	0.9	487	490	25.2	46.0
2025-07-05T09:24	10	161	0.2	161	162	488	1.3	486	490	25.1	45.3
2025-07-05T09:25	10	162	0.1	162	162	483	1.5	480	487	24.6	45.8
2025-07-05T09:26	10	162	0.1	162	163	482	0.4	481	482	24.4	46.5
2025-07-05T09:27	10	162	0.1	162	163	484	0.8	483	485	24.6	46.4
2025-07-05T09:28	10	162	0.1	162	163	484	0.5	483	485	24.7	46.2
2025-07-05T09:29	10	163	0.1	162	163	484	0.8	483	486	24.6	46.3
2025-07-05T09:30	10	163	0.2	162	163	487	1.1	486	490	24.6	46.9
2025-07-05T09:31	10	163	0.3	163	164	489	0.4	488	490	25.1	45.9
2025-07-05T09:32	10	164	0.1	164	164	488	0.9	487	490	25.0	45.1
2025-07-05T09:33	10	165	0.3	164	165	489	0.6	488	490	25.0	46.1
2025-07-05T09:34	10	165	0.2	165	166	489	0.7	487	490	25.0	45.3
2025-07-05T09:35	10	166	0.3	165	166	488	1.0	486	490	25.0	45.3
2025-07-05T09:36	10	167	0.4	166	168	490	0.3	489	490	24.9	45.5
2025-07-05T09:37	10	168	0.3	168	168	491	0.4	490	492	25.0	46.0
2025-07-05T09:38	10	169	0.1	168	169	491	0.6	491	493	25.3	45.5
2025-07-05T09:39	10	169	0.3	168	170	492	1.0	491	494	25.6	45.7
2025-07-05T09:40	10	170	0.3	169	170	492	0.6	491	493	25.6	44.1
2025-07-05T09:41	10	171	0.4	170	171	493	0.4	492	494	25.7	44.6
2025-07-05T09:42	10	172	0.2	171	172	495	0.8	492	496	25.8	44.9
2025-07-05T09:43	10	170	1.2	168	172	490	1.1	489	493	25.2	45.3
2025-07-05T09:44	10	170	1.0	168	171	491	0.4	490	492	25.0	45.9
2025-07-05T09:45	10	171	0.6	169	171	494	0.8	492	496	25.4	45.8
2025-07-05T09:46	10	171	0.4	170	172	494	1.8	491	496	25.5	45.1
2025-07-05T09:47	10	169	2.1	163	171	493	0.5	491	494	25.3	44.8
2025-07-05T09:48	10	140	13.0	115	168	490	3.1	484	494	25.7	45.5
2025-07-05T09:49	10	140	11.4	123	156	484	1.9	480	486	25.8	44.6
2025-07-05T09:50	10	148	14.5	126	169	483	0.8	482	484	25.2	44.5
2025-07-05T09:51	10	149	16.3	120	166	482	1.6	481	486	25.0	45.3
2025-07-05T09:52	10	166	0.6	164	167	488	1.3	485	490	25.2	45.1
2025-07-05T09:53	10	167	0.8	166	168	491	1.4	489	494	25.2	45.1
2025-07-05T09:54	10	169	0.5	168	170	489	1.3	487	492	25.2	44.9
2025-07-05T09:55	10	170	0.3	170	171	491	1.1	488	492	25.1	45.3
2025-07-05T09:56	10	171	0.3	171	172	493	1.4	490	495	25.1	45.0
2025-07-05T09:57	10	172	0.2	172	172	495	0.5	494	496	25.4	45.3
2025-07-05T09:58	10	173	0.1	172	173	494	0.3	493	494	25.3	44.8
2025-07-05T09:59	10	173	0.1	172	173	495	0.5	494	496	25.4	44.3
2025-07-05T10:00	10	173	0.1	172	173	497	0.8	495	498	25.6	44.0
2025-07-05T10:01	10	173	0.2	172	173	498	1.1	495	500	26.3	43.1
2025-07-05T10:02	10	173	0.2	172	173	495	0.5	494	496	26.1	41.6
2025-07-05T10:03	10	173	0.2	173	174	498	0.9	496	499	25.9	42.8
2025-07-05T10:04	10	173	0.1	173	174	495	2.5	491	500	26.2	42.0
2025-07-05T10:05	10	174	0.1	173	174	494	1.9	491	498	25.6	43.2
2025-07-05T10:06	10	173	0.2	173	174	497	1.3	494	499	25.8	42.8
2025-07-05T10:07	10	173	0.2	173	174	493	1.1	491	495	25.5	43.2
2025-07-05T10:08	10	173	0.2	173	173	495	1.1	492	497	25.5	43.1
2025-07-05T10:09	10	174	0.4	173	174	495	1.0	494	497	25.6	42.9
2025-07-05T10:10	10	175	0.2	174	175	497	1.2	494	499	25.6	42.6
2025-07-05T10:11	10	175	0.2	175	176	497	0.8	496	499	25.7	43.1
2025-07-05T10:12	10	175	0.2	175	176	496	0.8	495	499	25.7	42.4
2025-07-05T10:13	10	176	0.2	175	176	496	0.5	495	497	25.6	42.5
2025-07-05T10:14	10	177	0.7	176	178	496	0.8	495	498	25.6	42.8
2025-07-05T10:15	10	180	1.8	178	183	498	1.2	496	500	25.8	42.6
2025-07-05T10:16	10	184	1.0	183	187	500	0.8	499	502	26.0	42.9
2025-07-05T10:17	10	127	38.4	88	188	495	5.2	488	503	26.0	42.8
2025-07-05T10:18	10	138	19.6	106	166	490	1.0	488	492	26.3	42.5
2025-07-05T10:19	10	142	20.9	117	173	488	1.8	486	492	25.8	42.7
2025-07-05T10:20	10	174	10.7	141	184	495	1.1	492	496	25.6	43.0
2025-07-05T10:21	10	121	11.8	103	145	491	1.8	487	495	25.5	43.4
2025-07-05T10:22	10	116	13.6	80	130	485	1.3	482	488	25.5	43.3
2025-07-05T10:23	10	75	10.3	66	101	479	2.1	476	484	25.6	43.9
2025-07-05T10:24	10	163	18.4	107	183	486	4.9	475	493	25.7	43.3
2025-07-05T10:25	10	182	0.6	181	183	495	1.6	491	497	25.7	43.2
2025-07-05T10:26	10	179	1.8	177	182	498	0.5	496	499	25.8	43.0
2025-07-05T10:27	10	176	0.5	175	177	500	0.8	498	501	25.9	43.0
2025-07-05T10:28	10	176	0.4	175	176	502	1.2	500	503	26.1	43.1
2025-07-05T10:29	10	177	0.3	176	177	502	1.0	500	504	26.8	43.0
2025-07-05T10:30	10	177	0.1	177	178	503	0.6	502	504	27.0	41.8
2025-07-05T10:31	10	177	0.2	177	178	499	1.5	496	502	26.8	40.7
2025-07-05T10:32	10	177	0.3	177	178	497	0.7	496	499	26.5	39.6
2025-07-05T10:33	10	178	0.2	177	178	498	0.8	497	500	25.6	40.3
2025-07-05T10:34	10	177	0.2	177	178	501	0.7	500	503	26.5	38.9
2025-07-05T10:35	10	177	0.5	176	178	498	2.2	495	503	26.5	40.3
2025-07-05T10:36	10	176	1.7	172	177	497	1.1	495	499	26.5	39.6
2025-07-05T10:37	10	177	0.3	177	178	497	1.0	496	499	26.5	40.3
2025-07-05T10:38	10	179	0.5	178	180	499	0.6	498	501	26.5	40.3
2025-07-05T10:39	10	180	0.6	179	181	502	0.7	501	504	26.5	40.3
2025-07-05T10:40	10	181	0.3	181	182	504	0.6	503	505	26.1	41.3
2025-07-05T10:41	10	178	1.6	175	181	503	0.5	502	504	26.3	40.0
2025-07-05T10:42	10	176	0.3	176	177	504	0.3	503	505	26.5	39.5
2025-07-05T10:43	10	176	0.4	175	177	502	1.5	500	505	26.6	40.1
2025-07-05T10:44	10	176	1.0	175	178	501	0.7	500	502	26.5	39.8
2025-07-05T10:45	10	178	0.4	177	179	502	1.7	499	505	26.4	40.3
2025-07-05T10:46	10	179	0.2	178	179	505	0.3	504	505	26.5	40.3
2025-07-05T10:47	10	178	0.4	178	179	505	0.5	504	506	26.5	40.5
2025-07-05T10:48	10	179	0.2	179	179	505	0.6	504	507	26.6	40.2
2025-07-05T10:49	10	178	0.5	177	179	502	1.5	499	505	26.7	38.4
2025-07-05T10:50	10	178	0.3	178	179	499	1.6	497	502	26.8	37.8
2025-07-05T10:51	10	178	0.4	178	179	501	2.1	498	505	26.7	38.7
2025-07-05T10:52	10	180	1.5	173	182	504	0.7	503	506	27.2	38.1
2025-07-05T10:53	10	58	44.8	28	168	489	12.7	471	509	27.2	38.5
2025-07-05T10:54	10	146	61.9	29	187	482	10.6	468	499	26.5	38.9
2025-07-05T10:55	10	185	0.3	184	186	499	2.3	496	504	26.7	38.8
2025-07-05T10:56	10	183	0.5	182	184	504	1.4	502	507	26.7	38.9
2025-07-05T10:57	10	183	0.4	183	184	504	0.7	503	506	27.1	38.3
2025-07-05T10:58	10	184	0.4	183	185	503	1.2	500	505	26.9	38.0
2025-07-05T10:59	10	184	0.2	184	185	504	2.0	501	507	26.5	38.6
2025-07-05T11:00	10	184	0.3	184	185	507	0.4	506	508	26.8	38.3
2025-07-05T11:01	10	186	0.2	185	186	508	1.1	506	510	27.1	38.1
2025-07-05T11:02	10	185	0.2	184	185	510	0.5	509	511	27.0	37.8
2025-07-05T11:03	10	184	0.3	183	184	511	0.9	509	512	27.2	37.6
2025-07-05T11:04	10	184	0.4	184	185	512	0.6	510	513	27.3	37.7
2025-07-05T11:05	10	186	0.8	185	188	509	2.2	507	513	27.6	37.1
2025-07-05T11:06	10	189	0.9	188	191	511	0.6	509	512	26.9	37.3
2025-07-05T11:07	10	192	0.7	191	193	513	0.7	511	514	26.9	37.8
2025-07-05T11:08	10	193	0.6	193	195	514	0.9	512	516	27.3	38.0
2025-07-05T11:09	10	196	0.9	194	197	513	1.1	512	516	27.5	37.6
2025-07-05T11:10	10	196	0.2	196	197	512	1.1	511	514	27.6	37.6
2025-07-05T11:11	10	197	0.2	197	198	515	0.9	513	517	27.7	37.7
2025-07-05T11:12	10	199	0.4	198	199	516	0.4	515	517	27.6	37.2
2025-07-05T11:13	10	196	1.4	194	198	516	1.1	513	518	27.5	38.3
2025-07-05T11:14	10	193	0.8	191	194	514	0.3	514	515	27.4	37.5
2025-07-05T11:15	10	191	0.2	191	192	515	0.2	515	516	27.3	39.0
2025-07-05T11:16	10	191	0.2	191	192	515	0.5	514	516	27.6	38.2
2025-07-05T11:17	10	192	0.3	191	192	516	0.6	515	517	27.7	37.9
2025-07-05T11:18	10	192	0.3	191	192	517	0.6	516	518	27.9	37.8
2025-07-05T11:19	10	193	0.5	192	193	513	1.6	510	516	27.4	36.8
2025-07-05T11:20	10	193	0.5	192	194	510	1.3	508	514	27.0	37.4
2025-07-05T11:21	10	193	1.4	189	195	512	1.1	510	514	27.0	37.7
2025-07-05T11:22	10	159	23.7	116	194	511	3.9	503	515	27.1	37.9
2025-07-05T11:23	10	138	47.5	75	205	500	3.0	494	505	26.7	38.0
2025-07-05T11:24	10	180	33.7	89	205	506	3.4	499	512	26.6	38.1
2025-07-05T11:25	10	176	24.8	116	203	511	1.8	509	514	27.1	37.7
2025-07-05T11:26	10	190	10.6	157	199	507	1.7	504	509	26.8	37.0
2025-07-05T11:27	10	85	50.7	53	195	493	10.5	479	508	26.9	37.1
2025-07-05T11:28	10	52	2.0	49	57	477	2.6	473	482	26.8	37.5
2025-07-05T11:29	10	158	52.7	56	203	485	9.8	471	500	27.0	37.3
2025-07-05T11:30	10	202	0.4	201	203	502	3.8	495	508	26.6	37.7
2025-07-05T11:31	10	201	0.5	200	201	506	1.0	505	509	26.9	37.4
2025-07-05T11:32	10	198	0.4	198	200	509	0.9	508	512	27.0	37.1
2025-07-05T11:33	10	198	0.5	197	199	512	2.5	509	517	27.1	36.9
2025-07-05T11:34	10	184	14.3	158	200	512	2.7	508	517	27.6	36.6
2025-07-05T11:35	10	162	4.1	156	167	506	0.8	505	508	27.7	35.7
2025-07-05T11:36	10	160	2.4	157	165	503	1.2	502	506	27.2	36.1
2025-07-05T11:37	10	167	2.3	160	169	505	1.6	501	507	27.3	36.2
2025-07-05T11:38	10	172	3.5	168	180	507	0.7	505	509	27.0	36.7
2025-07-05T11:39	10	179	1.0	177	180	507	1.0	505	509	27.3	36.4
2025-07-05T11:40	10	172	2.6	167	177	503	0.8	502	505	27.4	36.3
2025-07-05T11:41	10	163	3.8	152	167	504	1.3	502	506	27.1	36.8
2025-07-05T11:42	10	168	2.1	164	170	506	0.8	504	507	27.0	37.2
2025-07-05T11:43	10	171	6.2	163	180	508	1.8	506	511	27.0	37.1
2025-07-05T11:44	10	178	2.9	173	182	509	1.2	507	511	27.2	36.4
2025-07-05T11:45	10	165	3.7	160	173	508	0.8	507	510	27.2	36.9
2025-07-05T11:46	10	159	1.8	156	164	510	0.9	509	511	27.8	36.5
2025-07-05T11:47	10	163	3.7	158	169	505	2.5	501	509	28.1	35.7
2025-07-05T11:48	10	175	2.5	169	178	504	1.9	501	508	27.4	36.0
2025-07-05T11:49	10	180	8.3	156	186	507	1.3	505	509	27.4	36.3
2025-07-05T11:50	10	188	3.0	176	191	508	0.9	506	510	27.3	36.5
2025-07-05T11:51	10	188	2.1	185	191	513	2.1	509	516	27.5	37.5
2025-07-05T11:52	10	190	0.5	188	191	513	1.5	511	516	27.5	35.8
2025-07-05T11:53	10	188	3.1	184	192	514	1.0	512	516	27.4	36.1
2025-07-05T11:54	10	187	2.6	184	191	517	1.6	515	520	27.9	36.2
2025-07-05T11:55	10	190	0.4	189	191	516	4.3	509	521	28.1	34.6
2025-07-05T11:56	10	191	0.3	190	191	507	2.2	504	511	27.4	35.0
2025-07-05T11:57	10	192	0.6	191	193	505	2.6	502	509	27.5	35.0
2025-07-05T11:58	10	193	0.5	192	193	509	3.1	504	514	27.4	35.5
2025-07-05T11:59	10	194	1.5	192	196	508	1.0	506	512	27.5	35.5
2025-07-05T12:00	10	155	41.4	72	196	502	3.8	495	507	27.5	35.8
2025-07-05T12:01	10	193	1.0	192	195	510	2.4	504	513	27.5	35.3
2025-07-05T12:02	10	190	0.8	189	192	513	1.3	511	515	27.4	35.9
2025-07-05T12:03	10	188	1.3	185	190	513	1.0	511	515	27.4	35.3
2025-07-05T12:04	10	186	1.0	184	187	515	0.4	514	516	27.4	35.0
2025-07-05T12:05	10	186	0.8	185	187	516	0.6	515	518	27.6	35.3
2025-07-05T12:06	10	185	1.2	182	186	519	0.6	517	520	27.9	35.7
2025-07-05T12:07	10	181	9.2	141	186	515	2.2	511	517	27.9	34.5
2025-07-05T12:08	10	168	18.8	128	185	509	1.8	507	513	27.5	35.0
2025-07-05T12:09	10	184	1.8	180	186	516	1.3	513	518	27.9	35.1
2025-07-05T12:10	10	186	0.4	185	187	517	1.1	515	519	28.1	34.4
2025-07-05T12:11	10	182	2.9	178	186	514	0.6	513	516	27.9	34.6
2025-07-05T12:12	10	181	1.0	178	182	515	1.5	513	518	28.3	34.6
2025-07-05T12:13	10	174	2.0	171	179	509	2.3	506	514	28.3	34.0
2025-07-05T12:14	10	173	2.0	170	176	508	1.3	506	510	27.9	34.6
2025-07-05T12:15	10	170	1.5	167	172	507	1.8	504	509	27.9	34.5
2025-07-05T12:16	10	169	2.5	167	174	506	1.1	504	508	27.5	34.8
2025-07-05T12:17	10	177	1.5	174	179	511	1.5	507	513	27.5	35.0
2025-07-05T12:18	10	171	4.1	162	177	511	1.6	509	513	27.8	35.2
2025-07-05T12:19	10	169	3.4	162	174	507	0.8	506	509	27.6	35.0
2025-07-05T12:20	10	176	0.6	174	177	509	1.0	507	511	27.4	35.1
2025-07-05T12:21	10	177	1.6	174	179	511	0.7	510	512	27.5	35.5
2025-07-05T12:22	10	178	2.0	173	181	513	1.2	511	516	27.6	35.5
2025-07-05T12:23	10	178	1.5	174	181	516	1.2	514	518	27.9	35.0
2025-07-05T12:24	10	169	3.6	160	173	516	1.4	513	518	28.4	34.7
2025-07-05T12:25	10	156	5.2	149	163	513	0.9	512	515	28.5	34.9
2025-07-05T12:26	10	139	6.6	126	149	510	3.3	504	514	28.9	33.5
2025-07-05T12:27	10	126	1.9	124	130	500	3.9	496	506	28.3	33.6
2025-07-05T12:28	10	138	6.7	128	148	496	1.5	494	499	28.0	34.3
2025-07-05T12:29	10	154	2.3	149	158	497	0.9	495	499	28.3	33.8
2025-07-05T12:30	10	139	9.3	127	153	496	1.6	493	498	28.1	33.8
2025-07-05T12:31	10	145	10.1	128	162	493	0.5	493	495	27.5	34.5
2025-07-05T12:32	10	162	1.5	159	165	496	1.5	494	500	27.4	34.9
2025-07-05T12:33	10	169	2.5	165	174	502	2.0	498	506	27.6	34.7
2025-07-05T12:34	10	171	1.7	168	174	504	0.7	503	506	28.0	34.3
2025-07-05T12:35	10	174	1.4	172	176	506	1.4	503	508	28.0	33.8
2025-07-05T12:36	10	179	2.0	176	181	506	1.0	505	508	27.9	33.9
2025-07-05T12:37	10	182	1.0	180	184	508	1.6	505	511	27.8	33.9
2025-07-05T12:38	10	179	0.9	177	180	510	2.0	506	513	27.8	34.0
2025-07-05T12:39	10	181	1.1	178	182	514	1.4	512	517	27.9	33.8
2025-07-05T12:40	10	188	2.1	182	190	518	0.7	516	519	28.2	34.8
2025-07-05T12:41	10	189	0.4	188	190	519	1.4	517	522	28.5	34.0
2025-07-05T12:42	10	187	0.8	186	188	516	3.0	513	521	28.7	33.2
2025-07-05T12:43	10	185	0.5	184	186	515	1.2	513	517	28.5	33.0
2025-07-05T12:44	10	183	1.7	181	186	513	0.6	512	515	28.4	33.1
2025-07-05T12:45	10	186	0.1	185	186	513	0.8	511	514	28.8	32.7
2025-07-05T12:46	10	185	0.2	185	186	509	2.3	505	513	28.2	33.1
2025-07-05T12:47	10	186	0.2	185	186	507	1.0	505	509	27.7	33.3
2025-07-05T12:48	10	187	0.2	186	187	509	0.9	508	512	27.7	33.2
2025-07-05T12:49	10	186	0.4	185	186	514	1.5	511	516	27.8	32.6
2025-07-05T12:50	10	185	0.2	184	185	514	0.8	512	515	28.0	32.1
2025-07-05T12:51	10	185	0.2	184	185	512	1.1	509	513	28.1	31.7
2025-07-05T12:52	10	185	0.5	184	186	511	0.9	510	513	27.9	31.8
2025-07-05T12:53	10	185	0.3	184	185	515	1.2	513	517	27.8	31.8
2025-07-05T12:54	10	180	2.1	178	184	518	0.7	516	519	28.0	32.1
2025-07-05T12:55	10	181	0.4	180	182	519	0.3	518	519	28.5	32.8
2025-07-05T12:56	10	180	0.7	179	182	517	3.3	511	521	29.2	33.0
2025-07-05T12:57	10	170	14.5	130	179	511	1.6	506	513	28.4	33.0
2025-07-05T12:58	10	161	18.7	121	175	506	2.6	503	511	28.1	33.0
2025-07-05T12:59	10	164	5.9	158	173	507	2.7	502	512	28.5	32.6
2025-07-05T13:00	10	155	2.7	149	159	501	0.9	500	503	27.8	33.3
2025-07-05T13:01	10	142	2.7	138	148	500	1.2	498	502	27.9	33.5
2025-07-05T13:02	10	144	2.0	141	147	497	1.0	495	499	27.7	33.4
2025-07-05T13:03	10	144	4.7	137	151	496	0.6	495	497	27.5	34.0
2025-07-05T13:04	10	143	6.4	134	158	496	1.5	493	498	27.5	33.3
2025-07-05T13:05	10	162	2.6	157	166	502	2.3	498	506	27.5	33.9
2025-07-05T13:06	10	169	1.1	166	171	507	1.9	504	509	27.6	34.2
2025-07-05T13:07	10	170	1.8	166	173	510	0.6	509	512	27.7	34.1
2025-07-05T13:08	10	170	4.2	162	175	511	1.3	509	513	28.2	34.1
2025-07-05T13:09	10	178	0.9	175	179	508	0.6	507	510	28.0	33.8
2025-07-05T13:10	10	178	0.4	178	179	510	1.2	508	512	27.9	33.8
2025-07-05T13:11	10	178	0.2	178	179	513	1.9	510	516	27.9	34.4
2025-07-05T13:12	10	178	0.3	177	178	515	0.5	514	516	28.4	34.2
2025-07-05T13:13	10	177	0.1	177	178	515	0.5	514	516	28.3	34.3
2025-07-05T13:14	10	177	0.1	177	178	517	0.8	516	519	28.7	34.6
2025-07-05T13:15	10	177	0.4	176	177	517	1.0	514	518	28.7	34.4
2025-07-05T13:16	10	176	0.1	176	176	508	2.5	505	514	27.9	34.2
2025-07-05T13:17	10	176	0.2	176	176	506	1.1	504	508	28.0	34.5
2025-07-05T13:18	10	175	0.4	174	176	507	2.0	504	511	28.6	34.0
2025-07-05T13:19	10	169	7.9	153	175	511	1.0	509	513	28.9	33.4
2025-07-05T13:20	10	168	6.1	155	173	503	2.9	500	510	27.9	34.2
2025-07-05T13:21	10	171	1.8	166	173	505	2.2	501	509	27.6	34.8
2025-07-05T13:22	10	173	0.1	172	173	508	2.9	502	512	28.1	34.6
2025-07-05T13:23	10	172	0.3	171	172	506	2.2	503	509	27.8	34.5
2025-07-05T13:24	10	171	0.2	171	172	506	1.4	504	509	27.9	34.8
2025-07-05T13:25	10	172	0.3	171	172	509	1.4	506	511	28.2	34.7
2025-07-05T13:26	10	172	0.2	171	172	509	2.0	505	512	28.4	33.2
2025-07-05T13:27	10	172	0.1	171	172	505	0.4	504	506	28.0	33.2
2025-07-05T13:28	10	171	0.4	170	171	503	1.3	501	506	27.7	33.3
2025-07-05T13:29	10	170	0.2	170	171	509	1.6	506	511	27.9	33.6
2025-07-05T13:30	10	169	0.4	169	170	507	1.6	505	510	28.0	34.2
2025-07-05T13:31	10	168	0.4	167	169	501	1.2	500	505	27.5	34.8
2025-07-05T13:32	10	169	0.2	168	169	506	2.7	501	509	27.5	34.9
2025-07-05T13:33	10	168	0.2	168	169	505	0.9	503	506	27.6	34.5
2025-07-05T13:34	10	168	0.3	168	169	505	1.3	503	507	28.0	34.1
2025-07-05T13:35	10	169	0.2	168	169	507	1.9	504	510	27.9	34.6
2025-07-05T13:36	10	169	0.2	169	169	509	0.6	507	510	28.3	34.5
2025-07-05T13:37	10	169	0.2	169	169	506	1.3	505	509	28.0	34.5
2025-07-05T13:38	10	169	0.1	169	169	506	0.6	505	507	28.2	34.3
2025-07-05T13:39	10	169	0.1	168	169	505	1.8	502	507	28.4	34.3
2025-07-05T13:40	10	169	0.4	168	170	506	1.7	503	509	28.3	34.4
2025-07-05T13:41	10	169	0.4	168	170	504	1.0	503	506	28.2	33.8
2025-07-05T13:42	10	170	0.2	169	170	503	1.2	502	506	27.9	34.0
2025-07-05T13:43	10	169	0.3	168	170	507	1.1	505	509	28.0	33.9
2025-07-05T13:44	10	168	0.7	167	169	508	1.8	505	511	28.3	33.8
2025-07-05T13:45	10	166	0.2	166	167	506	0.6	505	507	28.5	33.0
2025-07-05T13:46	10	166	0.3	166	167	506	0.5	505	507	28.7	32.6
2025-07-05T13:47	10	166	0.2	166	167	505	1.7	503	508	28.4	32.8
2025-07-05T13:48	10	166	0.3	165	166	506	1.2	503	508	28.3	32.8
2025-07-05T13:49	10	165	0.1	165	166	507	1.7	504	509	28.4	32.3
2025-07-05T13:50	10	166	0.2	165	166	506	0.9	504	507	28.3	32.1
2025-07-05T13:51	10	166	0.4	165	166	504	1.0	502	506	27.9	32.5
2025-07-05T13:52	10	166	0.2	165	166	507	1.9	503	509	27.8	32.6
2025-07-05T13:53	10	165	0.1	165	165	511	1.1	509	513	28.3	32.6
2025-07-05T13:54	10	165	0.1	165	165	510	0.4	509	511	28.3	32.3
2025-07-05T13:55	10	165	0.1	165	165	510	0.9	508	512	28.3	32.5
2025-07-05T13:56	10	165	0.2	164	165	509	0.9	507	510	28.1	32.8
2025-07-05T13:57	10	165	0.1	164	165	511	0.4	510	511	28.1	32.9
2025-07-05T13:58	10	164	0.1	164	165	511	0.9	510	513	28.4	32.6
2025-07-05T13:59	10	164	0.3	163	164	509	1.2	507	511	28.5	32.1
2025-07-05T14:00	10	163	0.1	163	163	506	2.8	502	510	28.7	31.7
2025-07-05T14:01	10	163	0.2	163	164	503	1.1	501	505	28.0	32.6
2025-07-05T14:02	10	163	0.2	162	163	506	1.8	502	509	28.1	32.9
2025-07-05T14:03	10	163	0.2	163	163	509	0.7	507	510	28.4	32.6
2025-07-05T14:04	10	162	0.3	162	163	507	1.3	504	508	28.4	32.3
2025-07-05T14:05	10	162	0.2	161	162	508	1.3	505	509	28.4	32.5
2025-07-05T14:06	10	162	0.2	161	162	508	0.6	507	510	28.5	31.5
2025-07-05T14:07	10	162	0.3	161	162	510	1.0	509	512	28.6	32.6
2025-07-05T14:08	10	162	0.2	161	162	510	1.9	505	512	29.0	31.4
2025-07-05T14:09	10	161	0.2	161	162	504	0.6	502	505	28.6	31.5
2025-07-05T14:10	10	161	0.1	161	161	503	1.7	501	506	28.5	31.7
2025-07-05T14:11	10	161	0.3	160	162	501	0.7	499	502	27.8	32.4
2025-07-05T14:12	10	161	0.2	161	161	501	0.7	500	503	28.0	32.6
2025-07-05T14:13	10	161	0.4	160	161	504	1.2	501	506	28.2	32.2
2025-07-05T14:14	10	161	0.3	160	161	505	0.7	504	507	28.5	32.0
2025-07-05T14:15	10	160	0.2	159	160	504	1.6	502	507	28.4	31.9
2025-07-05T14:16	10	159	0.9	158	160	499	2.0	497	504	28.2	32.3
2025-07-05T14:17	10	157	0.4	156	158	503	3.1	497	508	29.1	31.4
2025-07-05T14:18	10	155	0.3	155	156	505	2.4	501	508	29.7	30.4
2025-07-05T14:19	10	155	0.5	153	155	502	0.8	501	504	28.8	30.8
2025-07-05T14:20	10	145	4.7	138	153	500	1.3	498	502	28.8	31.0
2025-07-05T14:21	10	133	4.6	126	142	498	1.1	496	500	28.4	31.7
2025-07-05T14:22	10	148	1.4	143	149	501	1.0	499	502	28.5	31.8
2025-07-05T14:23	10	146	2.8	142	150	500	1.3	498	503	28.4	32.1
2025-07-05T14:24	10	152	1.6	149	154	501	2.4	497	504	28.4	32.7
2025-07-05T14:25	10	153	0.5	152	154	503	0.8	501	504	28.4	32.8
2025-07-05T14:26	10	154	0.5	153	155	505	0.7	503	506	28.7	32.5
2025-07-05T14:27	10	153	0.4	152	154	506	0.8	505	508	28.7	31.6
2025-07-05T14:28	10	148	5.2	139	155	507	0.8	506	509	29.0	31.9
2025-07-05T14:29	10	156	0.8	153	157	502	2.1	500	506	28.6	32.3
2025-07-05T14:30	10	157	0.4	157	158	502	0.6	501	503	28.7	31.9
2025-07-05T14:31	10	157	0.3	157	158	501	1.3	499	503	28.7	31.5
2025-07-05T14:32	10	157	0.4	156	158	501	1.2	499	503	28.6	31.7
2025-07-05T14:33	10	156	0.3	155	157	498	1.0	496	499	28.2	32.2
2025-07-05T14:34	10	155	1.1	153	156	500	1.5	496	502	28.5	31.8
2025-07-05T14:35	10	154	0.4	154	155	499	0.8	498	501	28.5	31.6
2025-07-05T14:36	10	155	0.3	154	156	502	1.5	499	504	28.4	31.9
2025-07-05T14:37	10	155	0.2	155	155	504	1.7	502	507	28.5	31.9
2025-07-05T14:38	10	155	0.2	154	155	505	1.6	501	507	29.7	30.4
2025-07-05T14:39	10	154	0.8	153	155	499	1.1	497	501	29.0	30.1
2025-07-05T14:40	10	154	0.4	153	155	500	0.8	499	502	29.1	29.9
2025-07-05T14:41	10	153	1.2	150	154	499	1.8	497	503	28.7	30.5
2025-07-05T14:42	10	143	4.2	137	150	501	0.6	500	502	28.7	30.5
2025-07-05T14:43	10	145	2.2	141	148	499	0.8	498	500	28.4	30.8
2025-07-05T14:44	10	149	0.9	148	151	500	0.5	499	501	28.4	30.6
2025-07-05T14:45	10	152	0.6	151	153	501	1.1	499	503	28.2	31.1
2025-07-05T14:46	10	152	0.1	152	153	504	0.5	503	505	28.3	31.5
2025-07-05T14:47	10	152	0.1	152	152	504	0.9	502	505	28.6	31.1
2025-07-05T14:48	10	151	0.4	150	152	502	1.0	501	505	28.7	31.3
2025-07-05T14:49	10	150	0.1	150	151	503	1.0	502	505	28.9	31.1
2025-07-05T14:50	10	150	0.1	150	151	501	0.7	500	503	28.9	31.0
2025-07-05T14:51	10	149	1.3	146	151	500	0.9	499	502	28.7	31.1
2025-07-05T14:52	10	136	3.8	133	146	497	2.0	495	500	28.7	31.4
2025-07-05T14:53	10	141	1.5	137	143	498	0.7	497	500	28.8	31.4
2025-07-05T14:54	10	144	1.0	143	146	498	0.7	497	499	28.6	30.8
2025-07-05T14:55	10	143	1.9	138	145	496	1.9	494	500	28.5	30.9
2025-07-05T14:56	10	134	1.4	132	138	494	1.0	492	495	28.6	30.9
2025-07-05T14:57	10	135	1.0	134	137	492	1.0	491	494	28.2	31.4
2025-07-05T14:58	10	135	2.9	131	140	493	0.8	491	494	28.4	31.0
2025-07-05T14:59	10	137	1.5	135	141	492	0.5	491	493	28.5	30.7
2025-07-05T15:00	10	142	0.6	141	143	495	1.1	493	498	28.6	31.1
2025-07-05T15:01	10	139	2.0	136	142	499	1.1	497	500	28.9	30.9
2025-07-05T15:02	10	140	2.9	136	145	494	0.9	492	496	28.5	30.7
2025-07-05T15:03	10	146	0.3	145	146	498	1.5	495	500	28.9	30.5
2025-07-05T15:04	10	145	0.5	144	146	500	0.9	498	502	28.9	30.4
2025-07-05T15:05	10	143	0.7	143	144	497	1.7	493	498	28.8	30.0
2025-07-05T15:06	10	143	0.6	141	143	494	0.8	492	495	28.9	30.0
2025-07-05T15:07	10	143	0.2	142	143	493	0.9	491	494	28.6	30.3
2025-07-05T15:08	10	143	0.2	142	143	492	1.3	490	495	28.3	30.6
2025-07-05T15:09	10	142	0.6	141	142	493	1.1	491	495	28.7	30.4
2025-07-05T15:10	10	140	0.5	139	141	490	1.0	488	492	28.4	30.6
2025-07-05T15:11	10	138	0.9	137	139	490	0.9	489	492	28.1	30.9
2025-07-05T15:12	10	140	0.9	138	141	493	1.5	490	495	28.2	30.7
2025-07-05T15:13	10	141	0.1	140	141	496	0.5	494	497	29.0	30.2
2025-07-05T15:14	10	139	0.5	139	140	492	1.3	490	496	28.6	30.4
2025-07-05T15:15	10	140	0.3	139	140	490	1.4	488	492	28.5	30.7
2025-07-05T15:16	10	139	0.2	139	139	488	0.6	487	489	28.3	30.8
2025-07-05T15:17	10	138	0.6	137	139	488	1.2	487	490	28.3	30.9
2025-07-05T15:18	10	137	0.2	137	138	490	0.8	489	493	28.7	30.9
2025-07-05T15:19	10	137	0.2	136	137	493	0.9	491	494	29.1	30.4
2025-07-05T15:20	10	137	0.1	137	137	491	1.0	490	493	28.8	30.0
2025-07-05T15:21	10	137	0.2	137	138	492	1.0	490	494	28.9	29.6
2025-07-05T15:22	10	137	0.2	137	138	491	0.7	490	492	28.6	30.0
2025-07-05T15:23	10	137	0.1	137	137	492	1.3	488	493	28.7	29.8
2025-07-05T15:24	10	136	0.2	136	137	489	0.6	488	491	28.3	29.8
2025-07-05T15:25	10	135	0.8	134	136	491	1.2	489	493	28.9	29.1
2025-07-05T15:26	10	135	0.4	134	135	493	1.2	489	494	29.2	28.8
2025-07-05T15:27	10	135	0.3	134	135	492	1.1	489	493	29.1	29.1
2025-07-05T15:28	10	135	0.3	134	135	487	1.1	485	490	28.3	29.5
2025-07-05T15:29	10	134	0.1	134	135	488	1.1	486	490	28.2	29.9
2025-07-05T15:30	10	134	0.3	133	134	490	0.4	489	490	28.3	29.7
2025-07-05T15:31	10	133	0.1	133	133	492	0.9	490	493	28.8	29.3
2025-07-05T15:32	10	133	0.1	133	133	490	1.2	488	492	28.9	29.0
2025-07-05T15:33	10	133	0.1	133	133	489	1.7	486	491	28.9	29.1
2025-07-05T15:34	10	133	0.2	132	133	486	0.7	485	488	28.2	29.3
2025-07-05T15:35	10	132	0.1	132	132	490	1.3	487	492	28.9	29.8
2025-07-05T15:36	10	132	0.2	131	132	490	0.6	489	491	28.9	29.2
2025-07-05T15:37	10	131	0.1	131	131	489	0.5	488	490	28.8	29.1
2025-07-05T15:38	10	131	0.1	130	131	488	0.8	486	489	28.9	28.8
2025-07-05T15:39	10	130	0.1	130	130	487	1.2	485	489	28.9	28.1
2025-07-05T15:40	10	130	0.2	130	130	486	0.5	485	487	28.8	27.9
2025-07-05T15:41	10	129	0.3	129	130	487	0.6	486	488	29.0	27.5
2025-07-05T15:42	10	128	0.1	128	129	487	0.3	486	488	29.0	27.5
2025-07-05T15:43	10	128	0.2	127	128	487	0.8	486	489	29.0	27.3
2025-07-05T15:44	10	128	0.1	127	128	488	0.8	487	489	29.2	27.2
2025-07-05T15:45	10	127	0.2	127	128	488	0.9	487	490	29.1	27.7
2025-07-05T15:46	10	127	0.1	127	127	488	0.5	487	489	29.0	28.0
2025-07-05T15:47	10	127	0.1	127	127	485	0.6	484	487	28.5	27.7
2025-07-05T15:48	10	126	0.3	126	127	484	0.6	483	485	28.4	27.5
2025-07-05T15:49	10	126	0.1	126	126	483	1.2	481	485	28.5	27.3
2025-07-05T15:50	10	125	0.2	125	126	483	0.7	481	484	28.4	27.1
2025-07-05T15:51	10	125	0.2	124	125	481	0.5	481	483	28.4	27.0
2025-07-05T15:52	10	124	0.1	124	124	483	0.6	482	485	28.6	26.9
2025-07-05T15:53	10	124	0.1	124	124	486	1.0	484	488	29.0	26.5
2025-07-05T15:54	10	124	0.1	124	124	484	1.0	482	485	28.6	26.6
2025-07-05T15:55	10	123	0.2	123	124	482	0.3	481	483	28.3	27.3
2025-07-05T15:56	10	123	0.2	122	123	484	1.9	481	487	28.5	27.2
2025-07-05T15:57	10	121	0.7	120	122	485	1.4	483	487	28.9	26.5
2025-07-05T15:58	10	122	0.2	121	122	483	1.0	481	485	28.7	26.0
2025-07-05T15:59	10	121	0.1	121	121	483	0.7	482	484	28.7	26.1
2025-07-05T16:00	10	120	1.6	117	121	484	0.8	483	486	28.7	26.6
2025-07-05T16:01	10	121	0.1	120	121	484	1.5	481	486	28.9	26.0
2025-07-05T16:02	10	119	1.3	116	120	481	0.7	480	482	28.5	25.7
2025-07-05T16:03	10	120	0.2	119	120	480	0.9	478	482	28.5	25.4
2025-07-05T16:04	10	119	0.2	119	119	479	0.6	478	481	28.1	25.7
2025-07-05T16:05	10	119	0.2	118	119	481	1.2	479	482	28.4	25.6
2025-07-05T16:06	10	118	0.2	118	119	481	0.4	480	482	28.7	25.5
2025-07-05T16:07	10	118	0.1	117	118	482	0.5	481	483	28.7	25.5
2025-07-05T16:08	10	117	0.1	117	118	483	1.8	480	486	29.1	25.6
2025-07-05T16:09	10	117	0.1	117	117	486	0.7	484	487	29.5	25.6
2025-07-05T16:10	10	117	0.2	116	117	479	2.3	477	484	28.6	24.8
2025-07-05T16:11	10	116	0.4	116	117	477	0.5	476	479	28.4	24.9
2025-07-05T16:12	10	115	0.3	115	116	477	0.5	476	478	28.5	24.8
2025-07-05T16:13	10	114	0.2	114	115	477	0.4	476	478	28.6	24.5
2025-07-05T16:14	10	114	0.2	113	114	477	0.6	476	478	28.6	24.6
2025-07-05T16:15	10	113	0.2	113	114	478	0.4	477	479	28.8	24.4
2025-07-05T16:16	10	113	0.3	113	113	479	0.7	477	480	28.8	24.6
2025-07-05T16:17	10	113	0.2	112	113	479	0.5	478	480	28.8	24.6
2025-07-05T16:18	10	112	0.3	112	113	477	0.8	476	478	28.5	24.3
2025-07-05T16:19	10	112	0.2	111	112	478	1.0	477	480	28.6	24.5
2025-07-05T16:20	10	111	0.2	111	111	479	0.6	478	480	28.9	24.3
2025-07-05T16:21	10	111	0.2	110	111	477	0.8	475	478	28.8	24.4
2025-07-05T16:22	10	110	0.2	109	110	475	0.4	474	476	28.5	24.5
2025-07-05T16:23	10	109	0.1	109	110	476	0.9	474	477	28.6	24.5
2025-07-05T16:24	10	109	0.2	109	109	476	0.9	474	477	28.6	24.4
2025-07-05T16:25	10	108	0.2	108	109	474	0.4	474	475	28.4	24.5
2025-07-05T16:26	10	108	0.2	107	108	474	0.5	473	475	28.5	24.2
2025-07-05T16:27	10	107	0.2	107	108	475	1.0	473	478	28.7	24.2
2025-07-05T16:28	10	107	0.1	107	107	477	0.6	476	478	29.0	24.1
2025-07-05T16:29	10	106	0.3	106	107	475	1.5	472	477	28.8	23.8
2025-07-05T16:30	10	105	0.5	105	106	472	0.4	472	473	28.1	24.0
2025-07-05T16:31	10	105	0.1	104	105	473	0.4	472	473	28.2	24.2
2025-07-05T16:32	10	104	0.2	104	105	473	1.0	472	475	28.3	24.3
2025-07-05T16:33	10	104	0.2	104	104	475	0.3	475	476	28.7	24.2
2025-07-05T16:34	10	104	0.1	103	104	474	0.6	472	475	28.7	24.0
2025-07-05T16:35	10	103	0.3	103	104	471	0.6	470	472	28.2	24.1
2025-07-05T16:36	10	103	0.2	102	103	473	0.6	472	474	28.5	24.4
2025-07-05T16:37	10	102	0.2	101	102	472	0.6	470	472	28.5	24.2
2025-07-05T16:38	10	101	0.1	101	101	471	0.7	470	472	28.4	24.1
2025-07-05T16:39	10	101	0.2	100	101	471	0.4	470	471	28.4	24.1
2025-07-05T16:40	10	101	0.1	100	101	471	0.8	470	472	28.5	24.1
2025-07-05T16:41	10	99	0.7	99	101	472	0.5	471	473	28.8	24.0
2025-07-05T16:42	10	99	0.5	99	100	470	0.7	468	471	28.5	23.8
2025-07-05T16:43	10	100	0.3	99	100	469	0.4	468	469	28.2	23.7
2025-07-05T16:44	10	99	0.1	99	99	470	0.8	468	471	28.5	23.6
2025-07-05T16:45	10	98	0.2	98	99	470	0.3	469	471	28.6	23.7
2025-07-05T16:46	10	98	0.2	97	98	469	0.6	468	470	28.3	23.7
2025-07-05T16:47	10	98	0.2	97	98	469	0.4	468	469	28.3	23.9
2025-07-05T16:48	10	96	0.2	96	97	468	0.3	468	469	28.3	23.9
2025-07-05T16:49	10	96	0.1	96	96	467	0.3	467	468	28.2	24.2
2025-07-05T16:50	10	96	0.3	95	96	469	0.5	468	470	28.3	24.2
2025-07-05T16:51	10	95	0.2	95	96	468	0.3	467	469	28.3	24.1
2025-07-05T16:52	10	95	0.2	94	95	469	0.4	468	469	28.4	24.4
2025-07-05T16:53	10	94	0.3	94	95	468	0.2	467	468	28.2	24.3
2025-07-05T16:54	10	94	0.1	93	94	468	0.4	467	469	28.3	24.5
2025-07-05T16:55	10	94	0.1	93	94	467	0.6	466	469	28.3	24.4
2025-07-05T16:56	10	92	1.8	88	94	465	0.8	464	467	28.0	23.9
2025-07-05T16:57	10	88	0.6	87	90	465	0.4	464	465	28.0	24.0
2025-07-05T16:58	10	91	0.5	90	92	465	0.4	464	466	28.1	24.6
2025-07-05T16:59	10	90	1.0	88	91	465	0.4	465	466	28.2	25.1
2025-07-05T17:00	10	90	0.5	89	91	466	0.5	465	467	28.4	25.0
2025-07-05T17:01	10	89	0.4	88	90	465	1.1	463	467	28.2	24.9
2025-07-05T17:02	10	89	0.3	89	90	463	0.4	463	464	27.8	25.0
2025-07-05T17:03	10	89	0.5	87	90	464	0.4	463	465	27.8	25.2
2025-07-05T17:04	10	87	0.4	86	88	465	0.5	464	466	28.0	25.9
2025-07-05T17:05	10	85	0.2	85	86	464	0.5	463	465	28.1	25.7
2025-07-05T17:06	10	86	0.2	85	86	464	0.2	463	464	28.1	25.5
2025-07-05T17:07	10	85	0.5	84	86	463	0.4	462	464	28.0	25.4
2025-07-05T17:08	10	84	0.3	84	85	463	0.5	462	463	28.0	25.6
2025-07-05T17:09	10	83	0.6	82	84	462	0.2	462	463	28.0	25.8
2025-07-05T17:10	10	80	0.8	79	82	462	0.4	461	463	28.1	25.6
2025-07-05T17:11	10	82	0.7	80	83	461	0.4	460	462	28.0	25.4
2025-07-05T17:12	10	82	0.8	80	83	460	0.3	459	461	27.9	24.9
2025-07-05T17:13	10	82	0.4	81	82	460	0.4	460	461	27.9	25.3
2025-07-05T17:14	10	75	4.2	70	82	460	0.4	459	461	28.0	25.5
2025-07-05T17:15	10	77	2.9	70	80	459	0.4	458	460	28.0	25.5
2025-07-05T17:16	10	71	3.0	67	77	458	0.7	457	460	28.0	25.7
2025-07-05T17:17	10	79	1.2	75	80	459	0.5	458	459	28.0	25.6
2025-07-05T17:18	10	77	0.8	75	78	459	0.4	458	460	28.0	25.7
2025-07-05T17:19	10	77	1.3	75	79	459	0.4	458	460	28.0	25.7
2025-07-05T17:20	10	78	0.7	77	79	458	0.3	458	459	27.8	25.8
2025-07-05T17:21	10	78	0.4	77	79	458	0.3	457	459	27.8	26.3
2025-07-05T17:22	10	77	0.3	77	78	459	0.3	458	460	27.9	26.6
2025-07-05T17:23	10	77	0.3	77	78	458	0.3	457	458	27.9	25.6
2025-07-05T17:24	10	77	0.3	77	78	458	0.3	457	459	27.9	25.8
2025-07-05T17:25	10	77	0.3	76	77	458	0.3	457	459	28.0	25.3
2025-07-05T17:26	10	75	0.6	74	77	458	0.3	457	458	28.0	25.3
2025-07-05T17:27	10	73	0.5	72	75	457	0.3	456	458	28.0	25.5
2025-07-05T17:28	10	73	0.3	72	73	457	0.4	456	458	27.9	25.5
2025-07-05T17:29	10	73	0.3	73	74	456	0.3	456	457	27.8	25.8
2025-07-05T17:30	10	73	0.3	73	74	456	0.3	455	457	27.8	25.7
2025-07-05T17:31	10	73	0.2	72	73	455	0.3	455	456	27.7	25.8
2025-07-05T17:32	10	71	2.2	66	73	455	0.4	454	456	27.7	25.8
2025-07-05T17:33	10	68	2.7	65	72	455	0.2	454	455	27.8	25.7
2025-07-05T17:34	10	71	0.3	70	72	455	0.3	454	455	27.7	25.9
2025-07-05T17:35	10	70	0.3	70	71	455	0.3	454	455	27.8	26.1
2025-07-05T17:36	10	69	0.4	68	70	455	0.3	454	456	27.9	26.3
2025-07-05T17:37	10	68	1.2	66	69	454	0.3	454	455	27.8	26.3
2025-07-05T17:38	10	64	1.5	61	66	454	0.3	453	455	27.7	26.4
2025-07-05T17:39	10	62	1.6	60	64	453	0.3	452	454	27.8	26.2
2025-07-05T17:40	10	64	0.3	63	65	453	0.3	452	453	27.8	26.0
2025-07-05T17:41	10	61	1.2	60	64	452	0.4	451	453	27.7	26.2
2025-07-05T17:42	10	61	0.6	60	62	451	0.3	451	452	27.5	26.2
2025-07-05T17:43	10	61	0.4	60	61	452	0.3	451	452	27.8	26.0
2025-07-05T17:44	10	60	0.3	60	61	451	0.4	450	452	27.9	25.8
2025-07-05T17:45	10	60	0.6	59	61	451	0.2	451	452	27.7	26.5
2025-07-05T17:46	10	60	1.4	57	62	451	0.4	451	452	27.7	26.7
2025-07-05T17:47	10	55	1.1	53	57	450	0.6	449	451	27.6	25.8
2025-07-05T17:48	10	53	1.2	52	56	449	0.4	448	449	27.5	25.6
2025-07-05T17:49	10	59	1.1	56	60	449	0.5	448	450	27.6	25.7
2025-07-05T17:50	10	59	0.7	58	60	449	0.3	449	450	27.7	26.2
2025-07-05T17:51	10	59	0.6	58	60	449	0.2	448	449	27.5	27.0
2025-07-05T17:52	10	58	1.2	56	60	449	0.4	448	450	27.5	27.3
2025-07-05T17:53	10	55	0.4	55	56	449	0.3	448	449	27.5	27.7
2025-07-05T17:54	10	55	0.3	54	56	448	0.3	448	449	27.4	27.9
2025-07-05T17:55	10	56	0.3	55	56	448	0.2	447	448	27.3	27.5
2025-07-05T17:56	10	54	0.9	52	55	447	0.2	447	448	27.3	27.7
2025-07-05T17:57	10	50	1.0	48	52	447	0.4	446	447	27.3	28.0
2025-07-05T17:58	10	45	1.6	44	49	446	0.4	445	446	27.2	27.5
2025-07-05T17:59	10	47	1.6	44	49	445	0.3	445	446	27.2	27.7
2025-07-05T18:00	10	50	0.4	49	51	445	0.3	445	446	27.2	27.8
2025-07-05T18:01	10	51	0.3	51	52	445	0.3	445	446	27.2	27.8
2025-07-05T18:02	10	49	0.6	48	50	445	0.3	444	446	27.1	27.9
2025-07-05T18:03	10	50	0.6	49	51	445	0.3	444	446	27.1	28.2
2025-07-05T18:04	10	49	0.9	48	51	445	0.4	444	446	27.1	28.0
2025-07-05T18:05	10	47	0.6	46	48	444	0.3	443	444	27.1	28.3
2025-07-05T18:06	10	46	0.4	45	46	444	0.3	443	444	27.1	28.6
2025-07-05T18:07	10	44	0.4	43	45	443	0.4	442	444	27.0	28.4
2025-07-05T18:08	10	43	0.5	42	44	443	0.2	442	443	27.0	28.7
2025-07-05T18:09	10	36	3.1	32	42	442	0.5	441	443	27.0	28.4
2025-07-05T18:10	10	33	1.9	31	38	440	0.3	439	441	26.9	28.6
2025-07-05T18:11	10	42	1.7	38	44	440	0.2	440	441	26.9	29.0
2025-07-05T18:12	10	42	0.4	41	43	440	0.3	439	441	26.9	29.0
2025-07-05T18:13	10	43	0.5	42	44	440	0.2	439	441	26.8	28.8
2025-07-05T18:14	10	42	0.7	41	43	440	0.2	439	440	26.8	28.7
2025-07-05T18:15	10	38	1.3	36	41	439	0.2	439	440	26.8	29.0
2025-07-05T18:16	10	38	0.9	36	39	439	0.2	438	439	26.8	29.3
2025-07-05T18:17	10	40	0.4	39	41	438	0.3	438	439	26.7	29.6
2025-07-05T18:18	10	40	0.2	40	41	438	0.2	438	439	26.7	29.3
2025-07-05T18:19	10	39	0.2	39	40	438	0.2	437	438	26.6	29.7
2025-07-05T18:20	10	38	0.2	38	39	438	0.2	437	438	26.6	29.3
2025-07-05T18:21	10	38	0.2	37	38	437	0.2	437	438	26.6	29.5
2025-07-05T18:22	10	37	0.4	36	38	437	0.2	436	437	26.6	29.5
2025-07-05T18:23	10	36	0.2	35	36	437	0.2	436	437	26.6	29.4
2025-07-05T18:24	10	35	0.4	34	35	436	0.2	436	437	26.5	29.4
2025-07-05T18:25	10	34	0.1	34	34	436	0.2	435	436	26.5	30.0
2025-07-05T18:26	10	34	0.2	34	35	435	0.2	434	435	26.4	30.3
2025-07-05T18:27	10	33	0.2	33	34	434	0.2	434	435	26.4	30.3
2025-07-05T18:28	10	33	1.7	33	45	434	0.3	434	435	26.3	30.8
2025-07-05T18:29	10	32	0.3	31	33	434	0.2	434	435	26.4	30.1
2025-07-05T18:30	10	31	0.2	31	32	434	0.2	433	434	26.5	29.7
2025-07-05T18:31	10	30	0.5	29	31	433	0.3	433	434	26.5	29.9
2025-07-05T18:32	10	28	0.6	27	29	433	0.3	432	433	26.4	29.0
2025-07-05T18:33	10	26	0.6	25	27	432	0.3	432	433	26.5	28.5
2025-07-05T18:34	10	25	0.2	25	26	432	0.2	431	432	26.4	29.2
2025-07-05T18:35	10	26	0.1	25	26	432	0.2	431	432	26.4	28.2
2025-07-05T18:36	10	25	0.5	24	25	431	0.3	430	432	26.3	28.9
2025-07-05T18:37	10	24	0.1	23	24	431	0.3	430	431	26.3	28.7
2025-07-05T18:38	10	24	0.2	23	24	431	0.5	430	432	26.2	29.1
2025-07-05T18:39	10	24	0.3	23	24	431	0.5	430	432	26.1	29.0
2025-07-05T18:40	10	22	0.4	22	23	431	0.4	430	431	26.2	28.7
2025-07-05T18:41	10	22	0.1	22	22	430	0.2	429	430	26.1	29.0
2025-07-05T18:42	10	20	1.4	17	22	430	0.3	429	430	26.1	29.1
2025-07-05T18:43	10	15	1.2	13	17	428	0.9	426	430	26.0	29.9
2025-07-05T18:44	10	14	0.9	13	16	427	0.3	426	427	26.0	30.1
2025-07-05T18:45	10	18	1.1	16	20	427	0.8	425	428	25.9	30.2
2025-07-05T18:46	10	20	0.1	20	20	428	0.4	427	428	25.8	30.0
2025-07-05T18:47	10	19	0.2	19	20	427	0.4	426	428	25.8	30.1
2025-07-05T18:48	10	19	0.2	18	19	426	0.4	425	427	25.7	30.6
2025-07-05T18:49	10	18	0.2	18	19	425	0.6	425	426	25.8	30.3
2025-07-05T18:50	10	17	0.8	15	18	425	0.4	425	426	25.8	30.3
2025-07-05T18:51	10	13	0.8	12	15	425	0.3	424	425	25.7	30.5
2025-07-05T18:52	10	11	0.7	10	12	424	0.3	424	425	25.7	30.5
2025-07-05T18:53	10	9	0.7	8	10	423	0.6	422	424	25.6	30.9
2025-07-05T18:54	10	6	0.8	5	8	422	0.4	421	423	25.4	31.4
2025-07-05T18:55	10	5	0.3	4	5	421	0.4	420	421	25.3	31.9
2025-07-05T18:56	10	4	0.2	4	5	420	0.2	420	421	25.3	31.5
2025-07-05T18:57	10	3	0.1	3	4	419	0.2	419	420	25.3	31.8
2025-07-05T18:58	10	3	0.1	3	3	419	0.3	418	420	25.2	31.7
2025-07-05T18:59	10	3	0.1	2	3	419	0.3	418	419	25.2	31.6
2025-07-05T19:00	10	2	0.1	2	3	419	0.3	418	419	25.1	31.7
2025-07-05T19:01	10	2	0.1	2	3	418	0.3	418	419	25.2	31.6
2025-07-05T19:02	10	2	0.1	2	3	418	0.4	417	419	25.4	30.6
2025-07-05T19:03	10	2	0.1	2	3	418	0.4	417	418	25.4	31.1
2025-07-05T19:04	10	3	0.3	2	3	417	0.2	416	417	25.3	31.0
2025-07-05T19:05	10	4	0.3	3	4	416	0.3	415	416	25.3	31.6
2025-07-05T19:06	10	4	0.2	3	4	415	0.3	415	416	25.0	32.7
2025-07-05T19:07	10	3	0.4	2	4	415	0.4	415	416	25.0	33.2
2025-07-05T19:08	10	2	0.2	2	2	415	0.3	414	415	24.8	33.8
2025-07-05T19:09	10	2	0.1	2	2	414	0.2	414	414	24.7	33.8
2025-07-05T19:10	10	2	0.1	1	2	414	0.2	413	414	24.9	33.4
2025-07-05T19:11	10	1	0.1	1	2	413	0.2	413	414	24.8	33.7
2025-07-05T19:12	10	1	0.1	1	2	413	0.2	412	413	24.7	34.0
2025-07-05T19:13	10	1	0.1	1	1	413	0.2	412	414	24.6	34.2
2025-07-05T19:14	10	1	0.1	1	2	413	0.2	412	413	24.6	34.0
2025-07-05T19:15	10	1	0.1	1	2	413	0.3	412	413	24.5	34.8
2025-07-05T19:16	10	1	0.2	1	1	412	0.4	411	413	24.4	34.7
2025-07-05T19:17	10	1	0.2	1	1	411	0.3	411	412	24.4	34.7
2025-07-05T19:18	10	1	0.2	1	1	410	0.3	410	411	24.5	34.2
2025-07-05T19:19	10	1	0.2	1	1	410	0.3	409	410	24.5	34.4
2025-07-05T19:20	10	1	0.2	0	1	410	0.2	409	410	24.5	34.2
2025-07-05T19:21	10	1	0.1	1	1	409	0.2	409	410	24.4	34.6
2025-07-05T19:22	10	1	0.1	1	1	409	0.3	408	410	24.3	34.1
2025-07-05T19:23	10	1	0.1	1	1	409	0.3	408	409	24.3	34.0
2025-07-05T19:24	10	1	0.1	1	1	408	0.2	408	409	24.2	34.4
2025-07-05T19:25	10	1	0.0	1	1	408	0.3	408	409	24.2	34.3
2025-07-05T19:26	10	1	0.0	1	1	408	0.2	408	409	24.1	34.2
2025-07-05T19:27	10	1	0.1	0	1	408	0.2	408	409	24.0	35.0
2025-07-05T19:28	10	1	0.1	0	1	408	0.2	408	409	24.0	34.6
2025-07-05T19:29	10	1	0.1	0	1	408	0.2	407	408	24.1	34.3
2025-07-05T19:30	10	0	0.1	0	1	407	0.4	406	408	24.0	34.2
2025-07-05T19:31	10	0	0.1	0	1	407	0.3	406	407	24.0	34.9
2025-07-05T19:32	10	0	0.1	0	1	406	0.3	406	407	23.7	36.0
2025-07-05T19:33	10	0	0.1	0	1	406	0.2	406	407	23.8	34.6
2025-07-05T19:34	10	0	0.1	0	1	406	0.2	405	406	23.8	35.2
2025-07-05T19:35	10	0	0.1	0	1	405	0.2	405	406	23.7	35.0
2025-07-05T19:36	10	0	0.1	0	0	405	0.3	404	405	23.8	34.8
2025-07-05T19:37	10	0	0.1	0	1	405	0.2	405	406	23.8	34.9
2025-07-05T19:38	10	0	0.1	0	0	405	0.3	404	405	23.7	35.2
2025-07-05T19:39	10	0	0.1	0	0	405	0.2	404	405	23.7	34.8
2025-07-05T19:40	10	0	0.1	0	0	405	0.2	404	405	23.7	34.9
2025-07-05T19:41	10	0	0.1	0	0	405	0.3	404	405	23.6	35.2
2025-07-05T19:42	10	0	0.1	0	0	404	0.2	404	405	23.5	35.6
2025-07-05T19:43	10	0	0.1	0	0	404	0.3	403	404	23.4	36.1
2025-07-05T19:44	10	0	0.1	0	0	403	0.3	403	404	23.4	35.7
2025-07-05T19:45	10	0	0.1	0	0	403	0.3	403	404	23.3	36.2
2025-07-05T19:46	10	0	0.1	0	0	404	0.3	403	404	23.2	36.4
2025-07-05T19:47	10	0	0.1	0	0	403	0.2	403	403	23.2	36.3
2025-07-05T19:48	10	0	0.1	0	0	403	0.3	402	404	23.1	36.7
2025-07-05T19:49	10	0	0.2	0	0	403	0.4	402	404	23.1	36.5
2025-07-05T19:50	10	0	0.2	0	1	402	0.3	401	403	23.1	36.4
2025-07-05T19:51	10	0	0.3	0	1	401	0.3	400	402	23.1	36.8
2025-07-05T19:52	10	0	0.2	0	1	401	0.2	400	401	23.0	37.5
2025-07-05T19:53	10	0	0.2	-1	1	400	0.2	399	400	22.8	37.7
2025-07-05T19:54	10	0	0.2	0	0	400	0.3	399	400	22.9	37.3
2025-07-05T19:55	10	0	0.1	-1	0	399	0.3	399	400	22.8	38.0
2025-07-05T19:56	10	0	0.1	0	0	399	0.2	398	399	22.6	38.3
2025-07-05T19:57	10	0	0.1	0	0	398	0.4	397	399	22.6	38.0
2025-07-05T19:58	10	0	0.1	0	0	397	0.2	397	398	22.1	42.3
2025-07-05T19:59	10	0	0.1	0	0	397	0.2	397	398	21.8	41.7
2025-07-05T20:00	10	0	0.0	0	0	397	0.2	397	398	21.8	41.9
2025-07-05T20:01	10	0	0.1	0	0	397	0.4	396	398	21.8	41.8
2025-07-05T20:02	10	0	0.1	0	0	397	0.3	396	397	21.8	42.6
2025-07-05T20:03	10	0	0.1	0	0	396	0.3	396	397	21.9	41.9
2025-07-05T20:04	10	0	0.1	0	0	396	0.3	395	397	22.0	40.8
2025-07-05T20:05	10	0	0.1	0	0	396	0.2	395	396	22.2	39.7
2025-07-05T20:06	10	0	0.1	0	0	395	0.3	394	395	22.2	40.3
2025-07-05T20:07	10	0	0.1	0	0	395	0.3	394	395	22.1	40.6
2025-07-05T20:08	10	0	0.1	0	0	394	0.2	394	395	22.1	40.7
2025-07-05T20:09	10	0	1.2	-9	0	394	0.3	394	395	21.9	41.6
2025-07-05T20:10	10	0	0.1	0	0	394	0.6	393	395	21.9	41.3
2025-07-05T20:11	10	0	0.1	0	0	394	0.3	394	395	22.1	40.1
2025-07-05T20:12	10	0	0.1	0	0	393	0.5	393	394	21.9	41.6
2025-07-05T20:13	10	0	0.1	0	0	393	0.3	393	394	21.7	42.6
2025-07-05T20:14	10	0	0.1	0	0	394	0.3	393	394	21.6	42.5
2025-07-05T20:15	10	0	0.1	0	0	393	0.4	392	394	21.7	41.8
2025-07-05T20:16	10	0	0.1	0	0	393	0.3	393	394	21.8	40.5
2025-07-05T20:17	10	0	0.1	0	0	393	0.3	393	394	22.1	39.0
2025-07-05T20:18	10	0	0.1	0	0	394	0.2	393	394	22.2	38.7
2025-07-05T20:19	10	0	0.1	0	0	393	0.3	393	394	22.2	38.7
2025-07-05T20:20	10	0	0.1	0	0	393	0.3	393	394	22.2	38.9
2025-07-05T20:21	10	0	0.1	0	0	393	0.3	392	394	22.0	40.1
2025-07-05T20:22	10	0	0.1	0	0	393	0.2	392	393	21.7	41.2
2025-07-05T20:23	10	0	0.1	0	0	394	0.5	393	395	21.7	40.3
2025-07-05T20:24	10	0	0.1	0	0	394	0.3	394	395	21.9	39.0
2025-07-05T20:25	10	0	0.1	0	0	394	0.2	393	394	21.6	41.2
2025-07-05T20:26	10	0	0.1	0	0	394	0.7	392	395	21.5	42.0
2025-07-05T20:27	10	0	0.1	0	0	392	0.8	390	393	20.5	48.1
2025-07-05T20:28	10	0	0.1	0	0	393	0.5	392	394	20.6	46.4
2025-07-05T20:29	10	0	0.2	-1	0	394	1.3	392	396	21.5	41.2
2025-07-05T20:30	10	0	0.2	-1	0	394	0.3	394	395	22.0	38.1
2025-07-05T20:31	10	0	0.2	-1	0	394	0.3	393	395	22.3	37.4
2025-07-05T20:32	10	0	0.1	0	0	394	0.4	393	395	22.5	37.2
2025-07-05T20:33	10	0	0.2	-1	0	394	0.4	393	395	22.8	35.9
2025-07-05T20:34	10	0	0.2	0	0	392	2.0	389	395	22.6	38.0
2025-07-05T20:35	10	0	0.2	0	1	390	0.4	390	391	20.9	46.3
2025-07-05T20:36	10	0	0.1	0	1	390	1.1	388	392	20.6	46.3
2025-07-05T20:37	10	0	0.1	0	1	390	0.5	389	391	20.2	48.4
2025-07-05T20:38	10	0	0.1	0	0	391	0.8	389	392	20.4	45.8
2025-07-05T20:39	10	0	0.1	0	0	391	0.9	390	393	20.9	43.4
2025-07-05T20:40	10	0	0.1	-1	0	392	0.4	392	393	21.6	40.0
2025-07-05T20:41	10	0	0.1	0	0	392	0.8	390	393	21.3	42.5
2025-07-05T20:42	10	0	0.1	0	0	391	0.4	390	391	20.7	45.8
2025-07-05T20:43	10	0	0.1	0	0	390	0.2	389	390	20.5	46.1
2025-07-05T20:44	10	0	0.0	0	0	389	0.3	388	389	20.5	45.8
2025-07-05T20:45	10	0	0.1	0	0	389	0.3	388	389	20.4	46.0
2025-07-05T20:46	10	0	0.1	0	0	389	0.3	388	390	20.5	45.0
2025-07-05T20:47	10	0	0.1	0	0	389	0.5	388	390	20.8	42.7
2025-07-05T20:48	10	0	0.1	0	0	389	0.3	389	390	21.1	41.1
2025-07-05T20:49	10	0	0.1	0	0	388	0.3	388	389	21.1	41.8
2025-07-05T20:50	10	0	0.1	0	0	388	0.4	388	389	21.0	42.0
2025-07-05T20:51	10	0	0.1	0	0	388	0.2	387	388	20.8	44.3
2025-07-05T20:52	10	0	0.1	0	0	388	0.3	387	388	20.6	45.0
2025-07-05T20:53	10	0	0.1	0	0	387	0.3	386	387	20.5	47.4
2025-07-05T20:54	10	0	0.1	0	0	386	0.3	386	387	20.1	48.4
2025-07-05T20:55	10	0	0.1	0	0	387	0.3	386	387	20.0	48.3
2025-07-05T20:56	10	0	0.1	0	0	387	0.3	386	388	20.0	47.6
2025-07-05T20:57	10	0	0.1	0	0	387	0.3	386	387	20.0	48.0
2025-07-05T20:58	10	0	0.1	0	0	387	0.3	386	388	20.0	46.6
2025-07-05T20:59	10	0	0.1	0	0	387	0.4	387	388	20.1	44.3
2025-07-05T21:00	10	0	0.1	0	0	387	0.3	386	387	20.4	43.2
2025-07-05T21:01	10	0	0.1	0	0	388	0.3	387	388	20.4	43.4
2025-07-05T21:02	10	0	0.1	0	0	387	0.3	386	388	20.3	45.8
2025-07-05T21:03	10	0	0.1	0	0	387	0.3	386	387	20.1	47.3
2025-07-05T21:04	10	0	0.1	0	0	387	0.2	386	387	20.2	46.4
2025-07-05T21:05	10	0	0.1	0	0	387	0.2	386	387	20.3	45.8
2025-07-05T21:06	10	0	0.1	0	0	387	0.3	386	387	20.4	45.3
2025-07-05T21:07	10	0	0.1	0	0	387	0.3	386	387	20.5	44.7
2025-07-05T21:08	10	0	0.1	0	0	386	0.3	385	387	20.7	44.0
2025-07-05T21:09	10	0	0.1	0	0	386	0.4	385	386	20.3	46.2
2025-07-05T21:10	10	0	0.1	0	0	386	0.3	385	386	20.1	47.1
2025-07-05T21:11	10	0	0.1	0	0	386	0.4	385	386	20.0	47.0
2025-07-05T21:12	10	0	0.1	0	0	385	0.2	385	386	19.9	48.1
2025-07-05T21:13	10	0	0.1	0	0	385	0.5	384	385	19.8	48.5
2025-07-05T21:14	10	0	0.1	0	0	385	0.5	384	386	19.7	48.3
2025-07-05T21:15	10	0	0.1	0	0	384	0.2	384	385	19.8	47.8
2025-07-05T21:16	10	0	0.1	0	0	384	0.2	384	385	19.7	48.5
2025-07-05T21:17	10	0	0.1	0	0	384	0.4	383	385	19.5	49.3
2025-07-05T21:18	10	0	0.1	0	0	383	0.2	382	384	19.2	51.3
2025-07-05T21:19	10	0	0.1	0	0	383	0.2	382	383	18.9	52.4
2025-07-05T21:20	10	0	0.1	0	0	383	0.5	382	384	18.9	52.0
2025-07-05T21:21	10	0	0.1	0	0	384	0.5	383	385	19.2	49.7
2025-07-05T21:22	10	0	0.1	0	0	384	0.2	384	385	19.4	49.3
2025-07-05T21:23	10	0	0.2	0	0	384	0.5	383	385	19.4	48.5
2025-07-05T21:24	10	0	0.1	0	0	384	0.2	383	384	19.6	47.0
2025-07-05T21:25	10	0	0.2	0	0	383	0.3	383	384	19.5	47.9
2025-07-05T21:26	10	0	0.2	0	0	383	0.3	382	384	19.4	49.0
2025-07-05T21:27	10	0	0.1	0	0	383	0.3	383	384	19.4	49.0
2025-07-05T21:28	10	0	0.1	0	0	384	0.3	383	384	19.4	49.0
2025-07-05T21:29	10	0	0.2	0	0	384	0.3	383	384	19.7	47.4
2025-07-05T21:30	10	0	0.1	0	0	383	0.3	382	384	19.6	48.0
2025-07-05T21:31	10	0	0.1	0	0	382	0.2	382	383	19.4	49.3
2025-07-05T21:32	10	0	0.1	0	0	383	0.2	382	383	19.5	47.9
2025-07-05T21:33	10	0	0.1	0	0	383	0.3	382	383	19.5	47.7
2025-07-05T21:34	10	0	0.1	0	0	382	0.3	381	383	19.4	49.4
2025-07-05T21:35	10	0	0.1	0	0	382	0.3	381	382	19.2	50.7
2025-07-05T21:36	10	0	0.1	0	0	382	0.3	381	382	19.3	49.6
2025-07-05T21:37	10	0	0.1	0	0	382	0.3	382	383	19.5	48.7
2025-07-05T21:38	10	0	0.1	0	0	383	0.3	382	383	19.4	48.8
2025-07-05T21:39	10	0	0.1	0	0	383	0.5	382	384	19.4	48.4
2025-07-05T21:40	10	0	0.1	0	0	383	0.3	382	384	19.6	47.9
2025-07-05T21:41	10	0	0.1	0	0	384	0.3	383	384	19.6	47.6
2025-07-05T21:42	10	0	0.1	0	0	383	0.4	382	384	19.6	47.8
2025-07-05T21:43	10	0	0.1	0	0	383	0.2	383	384	19.4	48.7
2025-07-05T21:44	10	0	0.1	0	0	383	0.3	383	384	19.5	48.2
2025-07-05T21:45	10	0	0.1	0	0	383	0.2	382	384	19.4	48.8
2025-07-05T21:46	10	0	0.1	0	0	383	0.2	382	383	19.3	49.2
2025-07-05T21:47	10	0	0.1	0	0	383	0.3	382	383	19.2	49.6
2025-07-05T21:48	10	0	0.1	0	0	383	0.2	383	384	19.3	49.2
2025-07-05T21:49	10	0	0.1	0	0	383	0.2	383	384	19.2	49.7
2025-07-05T21:50	10	0	0.1	0	0	383	0.3	382	383	19.2	50.1
2025-07-05T21:51	10	0	0.1	0	0	382	0.3	382	383	19.0	50.7
2025-07-05T21:52	10	0	0.1	0	0	382	0.2	381	382	18.9	51.3
2025-07-05T21:53	10	0	0.1	0	0	381	0.3	381	382	18.8	52.0
2025-07-05T21:54	10	0	0.1	0	0	381	0.3	381	382	18.7	52.3
2025-07-05T21:55	10	0	0.1	0	0	382	0.4	381	382	18.6	52.4
2025-07-05T21:56	10	0	0.1	0	0	382	0.5	381	383	18.6	52.0
2025-07-05T21:57	10	0	0.1	0	0	382	0.2	382	383	18.7	51.5
2025-07-05T21:58	10	0	0.1	0	0	382	0.3	381	382	18.6	52.6
2025-07-05T21:59	10	0	0.1	0	0	381	0.3	380	381	18.5	52.7
2025-07-05T22:00	10	0	0.1	0	0	380	0.3	380	381	18.3	53.5
2025-07-05T22:01	10	0	0.1	0	0	380	0.3	379	380	18.2	53.9
2025-07-05T22:02	10	0	0.1	0	0	380	0.3	379	381	18.3	53.1
2025-07-05T22:03	10	0	0.1	0	0	379	0.4	378	380	18.3	53.1
2025-07-05T22:04	10	0	0.1	0	0	379	0.3	378	379	18.2	53.8
2025-07-05T22:05	10	0	0.1	0	0	379	0.3	378	379	18.2	53.4
2025-07-05T22:06	10	0	0.1	0	0	379	0.2	378	379	18.2	53.6
2025-07-05T22:07	10	0	0.1	0	0	379	0.2	379	380	18.1	53.8
2025-07-05T22:08	10	0	0.1	0	0	379	0.2	378	379	18.1	53.7
2025-07-05T22:09	10	0	0.1	0	0	379	0.3	378	379	18.1	53.7
2025-07-05T22:10	10	0	0.1	0	0	378	0.2	378	379	18.1	54.2
2025-07-05T22:11	10	0	0.1	0	0	378	0.3	378	379	18.1	54.0
2025-07-05T22:12	10	0	0.1	0	0	379	0.4	378	380	18.4	53.0
2025-07-05T22:13	10	0	0.1	0	0	379	0.3	379	380	18.5	52.8
2025-07-05T22:14	10	0	0.1	0	0	379	0.2	378	379	18.3	53.4
2025-07-05T22:15	10	0	0.1	0	0	378	0.3	378	379	18.1	54.4
2025-07-05T22:16	10	0	0.1	0	0	378	0.3	377	379	17.8	55.8
2025-07-05T22:17	10	0	0.1	0	0	378	0.3	378	379	18.0	54.4
2025-07-05T22:18	10	0	0.1	0	0	379	0.5	378	380	18.4	52.0
2025-07-05T22:19	10	0	0.1	0	0	380	0.4	379	381	18.7	50.8
2025-07-05T22:20	10	0	0.1	0	0	381	0.3	380	381	18.8	50.3
2025-07-05T22:21	10	0	0.1	0	1	381	0.2	381	382	18.8	50.4
2025-07-05T22:22	10	0	0.1	0	0	381	0.2	380	381	18.8	50.5
2025-07-05T22:23	10	0	0.1	0	1	380	0.4	379	381	18.8	50.4
2025-07-05T22:24	10	0	0.1	0	1	380	0.2	379	380	18.8	50.6
2025-07-05T22:25	10	0	0.1	0	1	380	0.3	379	380	18.8	50.7
2025-07-05T22:26	10	0	0.1	0	1	380	0.3	379	381	18.5	51.7
2025-07-05T22:27	10	0	0.1	0	0	380	0.4	379	381	18.4	52.2
2025-07-05T22:28	10	0	0.2	0	0	380	0.4	379	381	18.4	52.0
2025-07-05T22:29	10	0	0.2	0	0	380	0.2	380	381	18.5	51.5
2025-07-05T22:30	10	0	0.1	0	0	380	0.3	379	381	18.5	51.4
2025-07-05T22:31	10	0	0.2	0	1	380	0.3	379	380	18.3	52.2
2025-07-05T22:32	10	0	0.1	0	0	380	0.3	379	381	18.3	52.2
2025-07-05T22:33	10	0	0.2	0	1	379	0.3	379	381	18.3	52.2
2025-07-05T22:34	10	0	0.1	0	0	379	0.3	378	379	18.3	52.2
2025-07-05T22:35	10	0	0.1	0	0	379	0.3	378	380	18.3	52.2
2025-07-05T22:36	10	0	0.1	0	0	379	0.2	379	380	18.3	52.2
2025-07-05T22:37	10	0	0.1	0	0	380	0.4	379	381	18.3	52.2
2025-07-05T22:38	10	0	0.1	0	0	380	0.3	380	381	18.3	52.2
2025-07-05T22:39	10	0	0.1	0	0	381	0.4	380	382	18.3	52.7
2025-07-05T22:40	10	0	0.1	0	0	381	0.3	380	381	18.2	52.7
2025-07-05T22:41	10	0	0.1	0	0	381	0.2	380	381	18.4	52.1
2025-07-05T22:42	10	0	0.0	0	0	380	0.3	380	381	18.4	52.4
2025-07-05T22:43	10	0	0.1	0	0	381	0.2	380	381	18.4	52.4
2025-07-05T22:44	10	0	0.1	0	0	381	0.3	380	381	18.2	53.1
2025-07-05T22:45	10	0	0.1	0	0	381	0.2	380	381	18.1	53.3
2025-07-05T22:46	10	0	0.1	0	0	381	0.3	380	381	18.1	53.6
2025-07-05T22:47	10	0	0.1	0	0	380	0.3	380	381	17.8	55.5
2025-07-05T22:48	10	0	0.1	0	0	380	0.2	379	380	17.5	56.6
2025-07-05T22:49	10	0	0.1	0	0	380	0.2	379	381	17.4	57.1
2025-07-05T22:50	10	0	0.1	0	0	379	0.2	379	380	17.3	57.3
2025-07-05T22:51	10	0	0.1	0	0	379	0.3	378	379	17.3	57.3
2025-07-05T22:52	10	0	0.1	0	0	378	0.2	378	379	17.3	57.0
2025-07-05T22:53	10	0	0.1	0	0	378	0.3	377	379	17.5	55.8
2025-07-05T22:54	10	0	0.1	0	0	378	0.4	377	379	17.5	55.6
2025-07-05T22:55	10	0	0.1	0	0	378	0.3	378	379	17.5	56.1
2025-07-05T22:56	10	0	0.1	0	0	378	0.3	377	379	17.5	55.8
2025-07-05T22:57	10	0	0.1	0	0	378	0.3	377	378	17.5	55.6
2025-07-05T22:58	10	0	0.1	0	0	378	0.3	377	378	17.5	55.3
2025-07-05T22:59	10	0	0.1	0	0	378	0.4	377	379	17.6	55.0
2025-07-05T23:00	10	0	0.1	0	0	379	0.3	378	379	17.6	55.0
2025-07-05T23:01	10	0	0.1	0	0	379	0.4	378	380	17.6	54.5
2025-07-05T23:02	10	0	0.1	0	0	379	0.3	378	379	17.8	53.5
2025-07-05T23:03	10	0	0.1	0	0	377	0.4	376	378	17.9	53.5
2025-07-05T23:04	10	0	0.0	0	0	377	0.2	376	377	17.6	54.7
2025-07-05T23:05	10	0	0.1	0	0	377	0.3	376	377	17.8	53.8
2025-07-05T23:06	10	0	0.1	0	0	377	0.4	376	378	18.0	53.0
2025-07-05T23:07	10	0	0.1	0	0	377	0.2	377	378	18.2	52.1
2025-07-05T23:08	10	0	0.1	0	0	377	0.3	377	378	18.2	52.2
2025-07-05T23:09	10	0	0.1	0	0	377	0.2	376	377	18.1	52.8
2025-07-05T23:10	10	0	0.1	0	0	376	0.3	376	377	18.0	53.0
2025-07-05T23:11	10	0	0.1	0	0	376	0.2	376	377	18.1	52.3
2025-07-05T23:12	10	0	0.1	0	0	377	0.2	376	377	18.3	51.3
2025-07-05T23:13	10	0	0.1	0	0	376	0.4	375	377	18.3	51.6
2025-07-05T23:14	10	0	0.1	0	0	376	0.5	375	377	18.1	52.8
2025-07-05T23:15	10	0	0.1	0	0	376	0.2	375	376	18.0	53.6
2025-07-05T23:16	10	0	0.1	0	0	376	0.2	376	376	17.9	53.7
2025-07-05T23:17	10	0	0.1	0	0	375	0.4	375	376	17.9	53.7
2025-07-05T23:18	10	0	0.1	0	0	375	0.3	374	375	17.7	54.8
2025-07-05T23:19	10	0	0.1	0	0	375	0.2	374	375	17.5	56.0
2025-07-05T23:20	10	0	0.1	0	0	374	0.3	374	375	17.0	58.4
2025-07-05T23:21	10	0	0.1	0	0	374	0.2	374	375	16.9	58.8
2025-07-05T23:22	10	0	0.1	0	0	374	0.3	374	375	16.9	59.0
2025-07-05T23:23	10	0	0.1	0	0	374	0.5	374	375	17.0	58.8
2025-07-05T23:24	10	0	0.1	0	0	374	0.3	374	375	17.1	58.0
2025-07-05T23:25	10	0	0.1	0	0	375	0.3	374	375	17.1	57.7
2025-07-05T23:26	10	0	0.1	0	0	374	0.3	374	375	17.2	57.6
2025-07-05T23:27	10	0	0.1	0	0	374	0.3	374	375	17.2	57.9
2025-07-05T23:28	10	0	0.1	0	0	374	0.2	374	375	17.3	57.0
2025-07-05T23:29	10	0	0.1	0	0	374	0.3	373	375	17.3	56.9
2025-07-05T23:30	10	0	0.1	0	0	373	0.4	372	374	17.2	57.6
2025-07-05T23:31	10	0	0.1	0	0	373	0.3	372	373	16.9	59.0
2025-07-05T23:32	10	0	0.1	0	0	373	0.2	372	373	16.7	59.7
2025-07-05T23:33	10	0	0.1	0	0	372	0.2	372	373	16.7	60.1
2025-07-05T23:34	10	0	0.1	0	0	372	0.3	371	373	16.6	60.5
2025-07-05T23:35	10	0	0.1	0	0	372	0.2	371	373	16.4	61.4
2025-07-05T23:36	10	0	0.1	0	0	372	0.2	371	373	16.3	62.3
2025-07-05T23:37	10	0	0.1	0	0	372	0.3	371	373	16.1	63.2
2025-07-05T23:38	10	0	0.1	0	0	372	0.2	371	373	16.2	62.4
2025-07-05T23:39	10	0	0.1	0	0	371	0.2	371	372	16.3	61.3
2025-07-05T23:40	10	0	0.1	0	0	371	0.4	370	372	16.3	61.8
2025-07-05T23:41	10	0	0.1	0	0	370	0.3	370	371	16.1	62.8
2025-07-05T23:42	10	0	0.1	0	0	370	0.3	369	371	16.1	62.2
2025-07-05T23:43	10	0	0.1	0	0	370	0.2	369	370	16.1	62.4
2025-07-05T23:44	10	0	0.1	0	0	370	0.2	369	370	16.1	62.4
2025-07-05T23:45	10	0	0.1	0	0	370	0.3	369	370	16.1	62.4
2025-07-05T23:46	10	0	0.1	0	0	370	0.4	369	371	16.1	62.2
2025-07-05T23:47	10	0	0.1	0	0	370	0.4	370	371	16.3	60.8
2025-07-05T23:48	10	0	0.1	0	0	370	0.2	369	371	16.3	61.3
2025-07-05T23:49	10	0	0.1	0	0	371	0.4	370	371	16.3	61.1
2025-07-05T23:50	10	0	0.1	0	0	371	0.2	371	372	16.3	60.9
2025-07-05T23:51	10	0	0.1	0	0	371	0.3	370	371	16.3	60.8
2025-07-05T23:52	10	0	0.1	0	0	370	0.3	369	371	16.3	61.1
2025-07-05T23:53	10	0	0.1	0	0	370	0.3	370	371	16.1	62.2
2025-07-05T23:54	10	0	0.1	0	0	371	0.3	370	372	16.1	62.0
2025-07-05T23:55	10	0	0.1	0	0	371	0.2	371	372	16.0	62.9
2025-07-05T23:56	10	0	0.1	0	0	372	0.2	371	372	15.9	63.0
2025-07-05T23:57	10	0	0.1	0	0	372	0.3	372	373	15.9	63.3
2025-07-05T23:58	10	0	0.1	0	0	372	0.3	372	373	15.8	63.9
2025-07-05T23:59	10	0	0.1	0	0	373	0.6	372	375	15.9	63.4
2025-07-06T00:00	10	0	0.1	0	0	373	0.3	373	374	16.1	62.2
2025-07-06T00:01	10	0	0.1	0	0	373	0.5	372	374	16.3	61.2
2025-07-06T00:02	10	0	0.1	0	0	371	0.5	371	372	16.2	62.1
2025-07-06T00:03	10	0	0.2	0	0	370	0.5	369	371	16.1	62.5
2025-07-06T00:04	10	0	0.1	0	0	370	0.5	369	371	16.0	63.0
2025-07-06T00:05	10	0	0.1	0	0	370	0.3	369	371	16.2	61.7
2025-07-06T00:06	10	0	0.1	0	0	370	0.2	370	371	16.3	61.2
2025-07-06T00:07	10	0	0.1	0	0	370	0.3	369	371	16.3	61.6
2025-07-06T00:08	10	0	0.1	0	0	370	0.2	369	370	16.1	61.9
2025-07-06T00:09	10	0	0.1	0	0	370	0.2	369	371	16.2	61.6
2025-07-06T00:10	10	0	0.1	0	0	370	0.5	369	371	16.4	60.4
2025-07-06T00:11	10	0	0.1	0	0	370	0.2	369	370	16.3	61.3
2025-07-06T00:12	10	0	0.1	0	0	369	0.2	368	369	16.2	62.3
2025-07-06T00:13	10	0	0.1	0	0	369	0.2	368	369	16.1	62.3
2025-07-06T00:14	10	0	0.1	0	0	368	0.2	368	369	15.9	63.1
2025-07-06T00:15	10	0	0.1	0	0	369	0.3	368	369	15.9	62.8
2025-07-06T00:16	10	0	0.1	0	0	369	0.4	368	370	15.9	62.7
2025-07-06T00:17	10	0	0.1	0	0	369	0.2	369	370	15.9	62.6
2025-07-06T00:18	10	0	0.1	0	0	369	0.2	369	370	15.9	62.9
2025-07-06T00:19	10	0	0.1	0	0	370	0.3	369	370	15.8	63.1
2025-07-06T00:20	10	0	0.1	0	0	370	0.3	369	370	15.8	62.9
2025-07-06T00:21	10	0	0.1	0	0	370	0.3	369	371	15.7	63.6
2025-07-06T00:22	10	0	0.1	0	0	370	0.2	369	370	15.6	64.3
2025-07-06T00:23	10	0	0.1	0	0	369	0.2	369	370	15.5	64.4
2025-07-06T00:24	10	0	0.1	0	0	369	0.3	368	370	15.5	64.7
2025-07-06T00:25	10	0	0.1	0	0	369	0.2	368	369	15.4	65.4
2025-07-06T00:26	10	0	0.1	0	0	368	0.2	368	369	15.3	65.8
2025-07-06T00:27	10	0	0.1	0	0	368	0.2	368	369	15.3	65.8
2025-07-06T00:28	10	0	0.1	0	0	368	0.3	368	369	15.4	64.8
2025-07-06T00:29	10	0	0.1	0	0	368	0.3	367	369	15.6	63.8
2025-07-06T00:30	10	0	0.1	0	0	368	0.3	368	369	15.7	63.4
2025-07-06T00:31	10	0	0.1	0	0	368	0.3	367	369	15.6	63.9
2025-07-06T00:32	10	0	0.1	0	0	368	0.2	368	369	15.6	63.7
2025-07-06T00:33	10	0	0.1	0	0	368	0.3	367	369	15.7	63.5
2025-07-06T00:34	10	0	0.1	0	0	368	0.3	367	368	15.6	63.8
2025-07-06T00:35	10	0	0.1	0	0	368	0.2	367	368	15.5	64.2
2025-07-06T00:36	10	0	0.1	0	0	368	0.4	367	369	15.6	63.7
2025-07-06T00:37	10	0	0.1	0	0	370	0.4	369	370	15.7	63.4
2025-07-06T00:38	10	0	0.1	0	0	371	0.3	370	371	15.8	62.9
2025-07-06T00:39	10	0	0.1	0	0	371	0.2	371	372	15.8	62.7
2025-07-06T00:40	10	0	0.1	0	0	371	0.2	371	371	15.7	63.1
2025-07-06T00:41	10	0	0.1	0	0	371	0.3	371	372	15.7	63.1
2025-07-06T00:42	10	0	0.1	0	0	371	0.3	370	371	15.8	62.9
2025-07-06T00:43	10	0	0.1	0	0	370	0.4	369	371	15.8	62.8
2025-07-06T00:44	10	0	0.1	0	0	370	0.2	369	370	15.8	62.4
2025-07-06T00:45	10	0	0.1	0	0	369	0.3	369	370	15.8	62.6
2025-07-06T00:46	10	0	0.1	0	0	369	0.2	369	370	15.7	63.1
2025-07-06T00:47	10	0	0.1	0	0	369	0.3	368	369	15.7	63.3
2025-07-06T00:48	10	0	0.1	0	0	369	0.2	368	369	15.6	63.5
2025-07-06T00:49	10	0	0.1	0	0	369	0.3	368	369	15.7	63.0
2025-07-06T00:50	10	0	0.1	0	0	369	0.3	368	369	15.7	63.4
2025-07-06T00:51	10	0	0.1	0	0	369	0.3	368	369	15.6	63.5
2025-07-06T00:52	10	0	0.1	0	0	369	0.3	368	369	15.7	63.1
2025-07-06T00:53	10	0	0.1	0	0	369	0.3	368	370	15.7	63.1
2025-07-06T00:54	10	0	0.1	0	0	370	0.4	369	371	15.6	63.9
2025-07-06T00:55	10	0	0.1	0	0	371	0.3	370	371	15.5	64.1
2025-07-06T00:56	10	0	0.1	0	0	371	0.2	370	371	15.5	64.4
2025-07-06T00:57	10	0	0.1	0	0	371	0.2	371	372	15.5	64.4
2025-07-06T00:58	10	0	0.1	0	0	371	0.2	371	372	15.4	64.9
2025-07-06T00:59	10	0	0.1	0	0	372	0.2	371	372	15.5	64.3
2025-07-06T01:00	10	0	0.1	0	0	372	0.3	372	373	15.7	63.4
2025-07-06T01:01	10	0	0.1	0	0	373	0.2	372	373	15.7	63.2
2025-07-06T01:02	10	0	0.1	0	0	372	0.3	371	373	15.7	63.0
2025-07-06T01:03	10	0	0.1	0	0	372	0.3	371	373	15.7	63.0
2025-07-06T01:04	10	0	0.1	0	0	372	0.3	372	373	15.7	62.9
2025-07-06T01:05	10	0	0.1	0	0	373	0.3	372	373	15.8	62.1
2025-07-06T01:06	10	0	0.1	0	0	373	0.2	372	373	15.8	62.0
2025-07-06T01:07	10	0	0.1	0	0	373	0.2	372	373	15.8	61.7
2025-07-06T01:08	10	0	0.1	0	0	373	0.2	372	373	15.9	61.4
2025-07-06T01:09	10	0	0.1	0	0	373	0.3	372	373	15.8	61.9
2025-07-06T01:10	10	0	0.1	0	0	373	0.2	373	373	15.8	62.2
2025-07-06T01:11	10	0	0.1	0	0	373	0.2	373	373	15.8	61.8
2025-07-06T01:12	10	0	0.1	0	0	373	0.2	372	373	15.8	61.6
2025-07-06T01:13	10	0	0.1	0	0	373	0.2	372	373	15.8	61.6
2025-07-06T01:14	10	0	0.1	0	0	372	0.4	372	373	15.8	62.0
2025-07-06T01:15	10	0	0.1	0	0	372	0.4	371	373	15.6	63.7
2025-07-06T01:16	10	0	0.1	0	0	372	0.3	371	372	15.4	63.9
2025-07-06T01:17	10	0	0.1	0	0	371	0.3	371	372	15.4	64.0
2025-07-06T01:18	10	0	0.1	0	0	372	0.4	371	372	15.3	64.6
2025-07-06T01:19	10	0	0.1	0	0	372	0.4	371	373	15.6	63.1
2025-07-06T01:20	10	0	0.1	0	0	372	0.2	372	373	15.7	62.7
2025-07-06T01:21	10	0	0.1	0	0	372	0.2	371	372	15.6	63.6
2025-07-06T01:22	10	0	0.1	0	0	372	0.5	371	373	15.6	63.1
2025-07-06T01:23	10	0	0.0	0	0	373	0.3	372	373	15.8	62.1
2025-07-06T01:24	10	0	0.1	0	0	373	0.2	373	374	15.8	62.2
2025-07-06T01:25	10	0	0.1	0	0	373	0.2	373	374	15.7	62.9
2025-07-06T01:26	10	0	0.1	0	0	373	0.3	372	374	15.7	62.6
2025-07-06T01:27	10	0	0.1	0	0	373	0.3	373	374	15.6	63.7
2025-07-06T01:28	10	0	0.1	0	0	373	0.2	372	373	15.3	65.6
2025-07-06T01:29	10	0	0.1	0	0	373	0.2	373	374	15.1	66.4
2025-07-06T01:30	10	0	0.1	0	0	373	0.2	373	374	15.3	65.4
2025-07-06T01:31	10	0	0.1	0	0	373	0.2	373	374	15.3	65.5
2025-07-06T01:32	10	0	0.1	0	0	374	0.3	373	374	15.2	66.1
2025-07-06T01:33	10	0	0.0	0	0	374	0.2	373	374	15.1	66.1
2025-07-06T01:34	10	0	0.1	0	0	374	0.3	373	375	15.2	65.5
2025-07-06T01:35	10	0	0.1	0	0	374	0.2	374	375	15.2	64.9
2025-07-06T01:36	10	0	0.1	0	0	374	0.4	373	375	15.2	65.0
2025-07-06T01:37	10	0	0.1	0	0	374	0.3	374	375	15.2	64.8
2025-07-06T01:38	10	0	0.0	0	0	374	0.3	374	375	15.2	64.1
2025-07-06T01:39	10	0	0.1	0	0	374	0.3	374	375	15.2	64.7
2025-07-06T01:40	10	0	0.1	0	0	375	0.3	374	375	15.3	63.4
2025-07-06T01:41	10	0	0.1	0	0	375	0.4	374	376	15.6	61.4
2025-07-06T01:42	10	0	0.1	0	0	375	0.4	375	376	15.9	60.0
2025-07-06T01:43	10	0	0.0	0	0	375	0.2	375	376	15.9	60.4
2025-07-06T01:44	10	0	0.0	0	0	376	0.3	375	376	15.7	62.1
2025-07-06T01:45	10	0	0.0	0	0	376	0.2	376	377	15.6	63.5
2025-07-06T01:46	10	0	0.0	0	0	377	0.2	376	377	15.6	63.2
2025-07-06T01:47	10	0	0.1	0	0	376	0.3	376	377	15.5	64.0
2025-07-06T01:48	10	0	0.0	0	0	377	0.2	376	377	15.5	63.9
2025-07-06T01:49	10	0	0.0	0	0	377	0.3	377	378	15.5	63.6
2025-07-06T01:50	10	0	0.0	0	0	377	0.2	377	377	15.5	63.9
2025-07-06T01:51	10	0	0.0	0	0	377	0.2	376	377	15.4	64.4
2025-07-06T01:52	10	0	0.1	0	0	377	0.2	377	378	15.5	64.0
2025-07-06T01:53	10	0	0.0	0	0	377	0.2	377	378	15.5	63.5
2025-07-06T01:54	10	0	0.0	0	0	377	0.2	377	378	15.6	63.2
2025-07-06T01:55	10	0	0.0	0	0	377	0.2	377	378	15.5	64.0
2025-07-06T01:56	10	0	0.0	0	0	377	0.2	377	378	15.5	63.5
2025-07-06T01:57	10	0	0.0	0	0	377	0.3	376	378	15.6	63.3
2025-07-06T01:58	10	0	0.1	0	0	376	0.4	376	377	15.4	64.2
2025-07-06T01:59	10	0	0.0	0	0	376	0.4	375	376	15.3	65.0
2025-07-06T02:00	10	0	0.0	0	0	375	0.3	374	376	15.1	66.5
2025-07-06T02:01	10	0	0.1	0	0	375	0.3	374	376	15.1	65.8
2025-07-06T02:02	10	0	0.1	0	0	374	0.3	374	375	15.0	66.7
2025-07-06T02:03	10	0	0.1	0	0	374	0.2	374	375	14.8	68.3
2025-07-06T02:04	10	0	0.1	0	0	374	0.2	374	375	14.8	67.7
2025-07-06T02:05	10	0	0.1	0	0	375	0.2	374	375	14.8	67.3
2025-07-06T02:06	10	0	0.1	0	0	375	0.2	374	375	14.9	66.9
2025-07-06T02:07	10	0	0.1	0	0	375	0.2	374	375	14.9	66.9
2025-07-06T02:08	10	0	0.1	0	0	375	0.2	374	375	15.0	67.3
2025-07-06T02:09	10	0	0.1	0	0	374	0.2	374	375	14.9	67.4
2025-07-06T02:10	10	0	0.1	0	0	374	0.2	374	374	14.9	67.3
2025-07-06T02:11	10	0	0.1	0	0	374	0.3	373	375	14.9	67.4
2025-07-06T02:12	10	0	0.1	0	0	374	0.3	374	375	15.1	65.8
2025-07-06T02:13	10	0	0.0	0	0	375	0.2	374	375	15.2	65.2
2025-07-06T02:14	10	0	0.0	0	0	374	0.2	374	375	15.2	65.2
2025-07-06T02:15	10	0	0.1	0	0	374	0.2	374	374	15.2	65.2
2025-07-06T02:16	10	0	0.0	0	0	374	0.3	373	374	15.2	65.6
2025-07-06T02:17	10	0	0.0	0	0	374	0.2	373	374	15.1	65.6
2025-07-06T02:18	10	0	0.0	0	0	374	0.2	373	374	15.1	65.4
2025-07-06T02:19	10	0	0.0	0	0	374	0.2	373	374	15.1	65.6
2025-07-06T02:20	10	0	0.0	0	0	374	0.4	373	375	15.1	65.5
2025-07-06T02:21	10	0	0.0	0	0	374	0.3	373	375	15.3	64.2
2025-07-06T02:22	10	0	0.0	0	0	374	0.2	373	374	15.1	66.2
2025-07-06T02:23	10	0	0.0	0	0	373	0.2	373	374	15.1	66.4
2025-07-06T02:24	10	0	0.0	0	0	373	0.3	373	374	15.0	67.1
2025-07-06T02:25	10	0	0.1	0	0	373	0.2	373	373	14.9	67.8
2025-07-06T02:26	10	0	0.1	0	0	373	0.2	372	373	14.9	67.5
2025-07-06T02:27	10	0	0.1	0	0	373	0.3	372	373	14.9	67.5
2025-07-06T02:28	10	0	0.1	0	0	373	0.2	373	373	14.9	67.4
2025-07-06T02:29	10	0	0.1	0	0	373	0.2	372	373	14.9	67.5
2025-07-06T02:30	10	0	0.1	0	0	373	0.2	372	373	14.9	67.8
2025-07-06T02:31	10	0	0.1	0	0	373	0.2	372	373	14.8	67.6
2025-07-06T02:32	10	0	0.0	0	0	373	0.2	372	373	15.0	66.8
2025-07-06T02:33	10	0	0.1	0	0	373	0.2	372	373	15.0	66.4
2025-07-06T02:34	10	0	0.0	0	0	373	0.3	373	374	15.2	65.1
2025-07-06T02:35	10	0	0.1	0	0	373	0.2	373	373	15.3	64.6
2025-07-06T02:36	10	0	0.0	0	0	373	0.2	373	374	15.4	64.1
2025-07-06T02:37	10	0	0.1	0	0	373	0.3	373	374	15.4	64.3
2025-07-06T02:38	10	0	0.1	0	0	373	0.2	372	373	15.4	64.4
2025-07-06T02:39	10	0	0.1	0	0	373	0.2	372	373	15.3	64.7
2025-07-06T02:40	10	0	0.1	0	0	373	0.2	372	374	15.3	64.9
2025-07-06T02:41	10	0	0.1	0	0	374	0.2	373	374	15.4	64.1
2025-07-06T02:42	10	0	0.1	0	0	374	0.2	373	374	15.5	63.6
2025-07-06T02:43	10	0	0.1	0	0	374	0.3	373	374	15.5	63.8
2025-07-06T02:44	10	0	0.1	0	0	374	0.3	373	375	15.5	63.4
2025-07-06T02:45	10	0	0.1	0	0	374	0.3	374	375	15.6	62.8
2025-07-06T02:46	10	0	0.1	0	0	374	0.2	374	375	15.6	62.7
2025-07-06T02:47	10	0	0.1	0	0	374	0.3	374	375	15.7	62.2
2025-07-06T02:48	10	0	0.1	0	0	374	0.3	374	375	15.7	61.8
2025-07-06T02:49	10	0	0.1	0	0	374	0.3	373	374	15.7	62.1
2025-07-06T02:50	10	0	0.1	0	1	374	0.3	373	375	15.5	63.0
2025-07-06T02:51	10	0	0.1	0	0	373	0.3	373	374	15.4	64.2
2025-07-06T02:52	10	0	0.1	0	0	373	0.3	373	374	15.2	65.3
2025-07-06T02:53	10	0	0.1	0	0	374	0.2	374	375	15.1	65.5
2025-07-06T02:54	10	0	0.1	0	0	375	0.3	374	375	15.1	65.3
2025-07-06T02:55	10	0	0.1	0	0	375	0.2	374	375	15.1	65.6
2025-07-06T02:56	10	0	0.1	0	0	375	0.3	374	375	15.1	65.7
2025-07-06T02:57	10	0	0.1	0	0	375	0.2	375	376	15.1	65.4
2025-07-06T02:58	10	0	0.1	0	0	375	0.3	374	376	15.1	65.7
2025-07-06T02:59	10	0	0.1	0	0	375	0.3	375	376	15.1	65.3
2025-07-06T03:00	10	0	0.1	-1	0	376	0.3	375	376	15.3	64.3
2025-07-06T03:01	10	0	0.2	0	0	376	0.3	375	376	15.4	63.8
2025-07-06T03:02	10	0	0.1	0	0	375	0.2	375	376	15.4	63.5
2025-07-06T03:03	10	0	0.1	-1	0	376	0.3	375	376	15.5	63.0
2025-07-06T03:04	10	0	0.1	0	0	375	0.3	375	376	15.6	62.5
2025-07-06T03:05	10	0	0.1	0	0	375	0.2	375	376	15.5	62.8
2025-07-06T03:06	10	0	0.1	0	0	376	0.3	375	377	15.5	63.0
2025-07-06T03:07	10	0	0.1	0	0	376	0.3	375	377	15.6	62.5
2025-07-06T03:08	10	0	0.1	0	0	376	0.3	376	377	15.6	63.2
2025-07-06T03:09	10	0	0.1	-1	0	376	0.4	376	377	15.4	64.0
2025-07-06T03:10	10	0	0.2	0	0	376	0.3	375	377	15.3	64.7
2025-07-06T03:11	10	0	0.1	0	0	376	0.4	375	377	15.2	65.8
2025-07-06T03:12	10	0	0.1	0	0	376	0.3	375	377	15.3	65.0
2025-07-06T03:13	10	0	0.1	0	0	377	0.3	376	377	15.3	65.3
2025-07-06T03:14	10	0	0.1	0	0	377	0.2	376	377	15.3	64.7
2025-07-06T03:15	10	0	0.2	0	0	377	0.3	376	378	15.4	64.2
2025-07-06T03:16	10	0	0.1	0	0	377	0.3	377	378	15.5	63.6
2025-07-06T03:17	10	0	0.1	0	0	378	0.3	377	379	15.6	63.5
2025-07-06T03:18	10	0	0.1	0	0	378	0.3	377	379	15.6	63.2
2025-07-06T03:19	10	0	0.1	0	0	378	0.3	377	379	15.6	63.3
2025-07-06T03:20	10	0	0.2	0	0	378	0.4	378	379	15.7	63.2
2025-07-06T03:21	10	0	0.1	0	0	379	0.4	379	380	15.9	61.7
2025-07-06T03:22	10	0	0.1	0	0	380	0.3	379	380	16.1	60.7
2025-07-06T03:23	10	0	0.2	0	0	380	0.4	379	381	16.2	60.0
2025-07-06T03:24	10	0	0.2	0	0	380	0.3	380	381	16.4	59.3
2025-07-06T03:25	10	0	0.2	0	0	380	0.3	379	381	16.2	60.2
2025-07-06T03:26	10	0	0.1	0	0	380	0.3	379	381	16.0	61.4
2025-07-06T03:27	10	0	0.2	0	1	380	0.2	379	380	15.9	62.4
2025-07-06T03:28	10	0	0.1	0	0	380	0.3	379	380	15.8	63.4
2025-07-06T03:29	10	0	0.2	0	0	379	0.4	378	380	15.6	64.9
2025-07-06T03:30	10	0	0.2	0	0	379	0.3	378	379	15.4	65.8
2025-07-06T03:31	10	0	0.1	0	0	379	0.3	378	379	15.3	66.2
2025-07-06T03:32	10	0	0.2	0	1	378	0.2	378	379	15.2	67.4
2025-07-06T03:33	10	0	0.1	0	0	378	0.2	377	378	15.1	67.5
2025-07-06T03:34	10	0	0.1	0	0	378	0.4	378	379	15.2	66.7
2025-07-06T03:35	10	0	0.1	0	0	378	0.3	377	379	15.2	67.0
2025-07-06T03:36	10	0	0.1	0	0	378	0.2	378	378	15.1	67.3
2025-07-06T03:37	10	0	0.1	0	1	378	0.5	377	379	15.2	66.5
2025-07-06T03:38	10	0	0.2	0	1	379	0.2	378	379	15.3	65.8
2025-07-06T03:39	10	0	0.2	0	1	378	0.3	378	379	15.2	66.7
2025-07-06T03:40	10	0	0.2	0	1	378	0.3	377	379	15.2	66.7
2025-07-06T03:41	10	0	0.1	0	1	378	0.2	378	379	15.3	66.3
2025-07-06T03:42	10	0	0.2	0	1	378	0.3	378	379	15.2	66.4
2025-07-06T03:43	10	0	0.1	0	0	378	0.3	377	379	15.3	66.2
2025-07-06T03:44	10	0	0.1	0	0	378	0.3	377	379	15.3	66.0
2025-07-06T03:45	10	0	0.2	0	1	378	0.3	377	378	15.2	66.4
2025-07-06T03:46	10	0	0.1	0	1	377	0.2	377	378	15.1	67.1
2025-07-06T03:47	10	0	0.1	0	1	377	0.2	376	378	15.0	67.8
2025-07-06T03:48	10	0	0.2	0	1	377	0.3	376	378	15.0	68.2
2025-07-06T03:49	10	0	0.1	0	1	377	0.2	376	377	15.0	68.1
2025-07-06T03:50	10	0	0.2	0	1	377	0.2	376	377	15.1	67.7
2025-07-06T03:51	10	1	0.2	0	1	377	0.3	376	378	15.1	67.8
2025-07-06T03:52	10	1	0.2	0	1	377	0.4	377	378	15.1	67.1
2025-07-06T03:53	10	1	0.2	0	1	377	0.2	377	378	15.2	65.9
2025-07-06T03:54	10	1	0.2	0	1	377	0.3	376	378	15.3	66.0
2025-07-06T03:55	10	1	0.2	0	1	377	0.3	377	378	15.3	65.5
2025-07-06T03:56	10	1	0.1	1	1	377	0.2	377	378	15.4	64.4
2025-07-06T03:57	10	1	0.1	1	2	377	0.2	377	378	15.5	64.6
2025-07-06T03:58	10	1	0.2	1	2	377	0.2	377	378	15.5	63.9
2025-07-06T03:59	10	1	0.2	1	2	377	0.3	377	378	15.6	63.7
2025-07-06T04:00	10	1	0.2	1	2	377	0.3	376	378	15.6	63.7
2025-07-06T04:01	10	2	0.1	1	2	377	0.2	376	378	15.6	63.8
2025-07-06T04:02	10	2	0.1	1	2	377	0.3	376	378	15.6	63.7
2025-07-06T04:03	10	2	0.2	2	2	377	0.2	376	377	15.6	63.8
2025-07-06T04:04	10	2	0.2	2	2	377	0.3	376	377	15.5	64.1
2025-07-06T04:05	10	2	0.2	2	3	377	0.2	377	378	15.5	64.2
2025-07-06T04:06	10	3	0.1	2	3	377	0.2	377	378	15.6	63.8
2025-07-06T04:07	10	3	0.1	3	3	377	0.2	376	378	15.6	63.5
2025-07-06T04:08	10	3	0.2	3	4	377	0.3	376	378	15.6	63.6
2025-07-06T04:09	10	3	0.2	3	4	378	0.3	377	379	15.8	62.5
2025-07-06T04:10	10	4	0.1	4	4	379	0.2	378	379	15.9	62.0
2025-07-06T04:11	10	4	0.1	4	4	379	0.2	379	379	15.9	61.9
2025-07-06T04:12	10	4	0.2	4	5	380	0.2	379	380	16.0	61.5
2025-07-06T04:13	10	5	0.1	4	5	380	0.2	379	380	16.0	61.4
2025-07-06T04:14	10	5	0.1	5	5	380	0.2	380	381	16.1	60.7
2025-07-06T04:15	10	5	0.1	5	6	381	0.2	380	381	16.1	60.4
2025-07-06T04:16	10	6	0.3	5	6	381	0.3	380	382	16.1	60.6
2025-07-06T04:17	10	6	0.1	6	7	381	0.2	381	382	16.1	60.8
2025-07-06T04:18	10	7	0.2	6	7	381	0.2	380	381	16.0	61.0
2025-07-06T04:19	10	6	0.2	6	7	381	0.3	381	382	16.0	61.1
2025-07-06T04:20	10	6	0.1	6	7	381	0.2	380	382	16.0	61.2
2025-07-06T04:21	10	6	0.2	6	7	381	0.2	381	382	16.0	61.3
2025-07-06T04:22	10	7	0.2	6	7	381	0.3	380	382	16.0	61.4
2025-07-06T04:23	10	7	0.1	7	7	381	0.3	380	382	16.0	61.3
2025-07-06T04:24	10	7	0.1	7	7	382	0.3	381	382	16.1	60.7
2025-07-06T04:25	10	7	0.2	7	8	382	0.3	381	383	16.2	60.3
2025-07-06T04:26	10	7	0.2	7	8	382	0.2	382	383	16.2	60.5
2025-07-06T04:27	10	7	0.1	7	7	382	0.2	382	383	16.2	60.5
2025-07-06T04:28	10	7	0.1	7	8	383	0.3	382	383	16.2	60.3
2025-07-06T04:29	10	7	0.1	7	8	383	0.3	382	383	16.2	60.3
2025-07-06T04:30	10	8	0.2	7	8	383	0.2	382	383	16.2	60.7
2025-07-06T04:31	10	8	0.1	8	8	383	0.2	382	384	16.1	61.4
2025-07-06T04:32	10	8	0.1	8	8	383	0.2	383	384	16.1	61.6
2025-07-06T04:33	10	8	0.1	8	9	383	0.2	383	384	15.9	63.0
2025-07-06T04:34	10	9	0.1	8	9	383	0.2	383	384	15.7	64.3
2025-07-06T04:35	10	9	0.1	9	9	383	0.3	383	384	15.7	64.2
2025-07-06T04:36	10	9	0.1	9	9	384	0.3	383	385	15.8	63.4
2025-07-06T04:37	10	9	0.1	9	10	384	0.3	383	385	15.8	63.7
2025-07-06T04:38	10	10	0.2	10	10	385	0.3	384	385	15.8	63.0
2025-07-06T04:39	10	10	0.2	10	11	385	0.4	384	386	16.0	61.8
2025-07-06T04:40	10	11	0.2	10	11	385	0.3	384	386	16.0	61.5
2025-07-06T04:41	10	11	0.3	11	12	386	0.2	385	386	16.0	61.6
2025-07-06T04:42	10	13	0.6	12	14	386	0.2	385	386	16.0	62.1
2025-07-06T04:43	10	13	0.3	13	14	386	0.2	386	387	16.0	62.1
2025-07-06T04:44	10	14	0.5	13	15	386	0.2	386	387	15.9	62.8
2025-07-06T04:45	10	16	0.9	15	17	386	0.3	386	387	15.9	63.3
2025-07-06T04:46	10	16	0.8	14	17	387	0.2	386	387	15.8	63.4
2025-07-06T04:47	10	14	0.1	14	15	387	0.2	387	388	15.8	63.8
2025-07-06T04:48	10	15	0.2	14	15	387	0.2	387	388	15.8	64.2
2025-07-06T04:49	10	15	0.1	15	16	387	0.3	387	388	15.8	64.2
2025-07-06T04:50	10	15	0.1	15	15	388	0.2	387	388	15.8	64.1
2025-07-06T04:51	10	15	0.2	15	16	388	0.3	387	388	15.8	64.4
2025-07-06T04:52	10	16	0.2	16	16	387	0.2	387	388	15.7	65.1
2025-07-06T04:53	10	16	0.1	16	16	387	0.2	387	388	15.6	65.8
2025-07-06T04:54	10	16	0.1	16	17	388	0.4	387	388	15.6	68.3
2025-07-06T04:55	10	17	0.3	17	18	388	0.4	388	389	15.5	69.4
2025-07-06T04:56	10	18	0.6	17	20	389	0.2	388	389	15.6	67.4
2025-07-06T04:57	10	21	0.7	20	22	389	0.4	388	390	15.5	68.5
2025-07-06T04:58	10	21	0.5	20	22	390	0.2	389	390	15.6	66.7
2025-07-06T04:59	10	19	0.5	19	20	390	0.2	389	390	15.6	66.4
2025-07-06T05:00	10	19	0.1	18	19	390	0.2	390	391	15.7	65.3
2025-07-06T05:01	10	18	0.1	18	19	390	0.2	390	391	15.7	65.4
2025-07-06T05:02	10	18	0.1	18	19	390	0.2	390	391	15.7	65.4
2025-07-06T05:03	10	19	0.1	18	19	391	0.3	390	391	15.7	67.1
2025-07-06T05:04	10	19	0.1	19	19	391	0.3	391	392	15.7	66.7
2025-07-06T05:05	10	19	0.1	19	19	391	0.2	391	392	15.7	66.5
2025-07-06T05:06	10	19	0.1	19	19	391	0.2	391	392	15.8	65.3
2025-07-06T05:07	10	19	0.1	19	19	391	0.2	391	392	15.8	66.2
2025-07-06T05:08	10	19	0.1	19	19	392	0.3	391	392	15.9	65.9
2025-07-06T05:09	10	19	0.1	19	19	392	0.3	392	393	16.0	64.5
2025-07-06T05:10	10	19	0.1	19	20	393	0.3	392	393	16.1	65.1
2025-07-06T05:11	10	20	0.2	20	20	393	0.3	393	394	16.2	65.6
2025-07-06T05:12	10	20	0.1	20	21	394	0.2	393	394	16.2	66.5
2025-07-06T05:13	10	20	0.1	20	20	394	0.3	393	394	16.2	65.8
2025-07-06T05:14	10	20	0.1	20	21	394	0.2	394	395	16.2	64.4
2025-07-06T05:15	10	21	0.1	20	21	395	0.2	394	395	16.3	64.4
2025-07-06T05:16	10	21	0.2	21	22	395	0.2	394	395	16.3	63.8
2025-07-06T05:17	10	22	0.1	22	22	395	0.3	394	395	16.3	64.1
2025-07-06T05:18	10	22	0.3	22	23	395	0.3	395	396	16.4	64.2
2025-07-06T05:19	10	23	0.3	23	24	396	0.2	396	397	16.4	64.8
2025-07-06T05:20	10	24	0.1	24	24	396	0.2	396	397	16.5	64.3
2025-07-06T05:21	10	24	0.1	24	24	396	0.2	396	397	16.5	64.6
2025-07-06T05:22	10	24	0.1	24	24	397	0.2	396	397	16.5	64.7
2025-07-06T05:23	10	24	0.1	23	24	397	0.3	396	397	16.5	64.6
2025-07-06T05:24	10	24	0.1	23	24	397	0.2	397	397	16.5	64.2
2025-07-06T05:25	10	24	0.1	24	24	397	0.2	397	398	16.5	64.8
2025-07-06T05:26	10	24	0.1	24	24	397	0.2	397	398	16.5	66.5
2025-07-06T05:27	10	24	0.1	24	24	398	0.2	397	398	16.5	66.4
2025-07-06T05:28	10	24	0.1	24	24	397	0.2	397	398	16.5	66.9
2025-07-06T05:29	10	24	0.1	24	24	398	0.2	397	398	16.5	65.7
2025-07-06T05:30	10	24	0.1	24	24	397	0.3	397	398	16.5	65.1
2025-07-06T05:31	10	24	0.1	24	24	398	0.2	397	398	16.5	66.2
2025-07-06T05:32	10	24	0.1	24	24	398	0.2	397	398	16.5	67.2
2025-07-06T05:33	10	24	0.1	24	25	398	0.2	397	398	16.5	67.0
2025-07-06T05:34	10	24	0.1	24	25	398	0.3	397	398	16.5	66.4
2025-07-06T05:35	10	25	0.1	24	25	398	0.3	398	399	16.5	67.3
2025-07-06T05:36	10	25	0.1	24	25	399	0.2	398	399	16.5	67.1
2025-07-06T05:37	10	25	0.1	24	25	399	0.4	398	399	16.6	65.1
2025-07-06T05:38	10	25	0.1	24	25	399	0.2	399	400	16.9	61.6
2025-07-06T05:39	10	25	0.1	24	25	400	0.2	399	400	16.9	64.0
2025-07-06T05:40	10	25	0.1	25	25	400	0.2	399	401	16.9	64.3
2025-07-06T05:41	10	25	0.1	25	25	400	0.2	399	401	17.0	64.7
2025-07-06T05:42	10	25	0.1	25	25	401	0.2	400	401	17.0	66.3
2025-07-06T05:43	10	26	0.2	25	26	401	0.2	400	401	17.0	65.8
2025-07-06T05:44	10	26	0.1	26	26	401	0.2	401	402	17.1	66.6
2025-07-06T05:45	10	26	0.2	26	27	402	0.2	401	402	17.1	67.7
2025-07-06T05:46	10	27	0.1	26	27	402	0.2	402	403	17.2	67.0
2025-07-06T05:47	10	27	0.2	27	27	402	0.3	402	403	17.2	68.7
2025-07-06T05:48	10	27	0.2	27	28	403	0.2	402	403	17.3	66.6
2025-07-06T05:49	10	28	0.2	28	28	403	0.2	403	404	17.4	66.8
2025-07-06T05:50	10	28	0.2	28	29	404	0.2	403	404	17.5	64.9
2025-07-06T05:51	10	29	0.2	29	29	405	0.3	404	405	17.6	62.3
2025-07-06T05:52	10	29	0.2	29	30	405	0.2	404	405	17.7	62.8
2025-07-06T05:53	10	30	0.2	30	30	405	0.3	404	405	17.7	62.8
2025-07-06T05:54	10	31	0.2	30	31	405	0.3	404	405	17.7	63.5
2025-07-06T05:55	10	31	0.2	31	32	405	0.3	404	405	17.6	64.1
2025-07-06T05:56	10	32	0.2	32	33	404	0.3	404	405	17.5	64.4
2025-07-06T05:57	10	33	0.3	33	33	404	0.3	403	404	17.4	64.3
2025-07-06T05:58	10	34	0.2	33	34	403	0.3	403	404	17.3	64.6
2025-07-06T05:59	10	35	0.3	34	35	403	0.3	402	404	17.2	64.4
2025-07-06T06:00	10	36	0.3	35	36	403	0.2	403	404	17.2	64.0
2025-07-06T06:01	10	37	0.3	36	37	404	0.2	403	404	17.2	63.7
2025-07-06T06:02	10	38	0.3	37	38	405	0.3	404	405	17.3	63.0
2025-07-06T06:03	10	39	0.3	38	39	405	0.4	404	406	17.4	62.9
2025-07-06T06:04	10	40	0.2	39	40	406	0.3	405	407	17.5	62.6
2025-07-06T06:05	10	40	0.2	40	41	407	0.4	406	408	17.6	62.9
2025-07-06T06:06	10	41	0.3	41	42	407	0.2	407	408	17.7	63.5
2025-07-06T06:07	10	43	0.5	42	43	408	0.2	407	408	17.8	62.9
2025-07-06T06:08	10	44	0.7	43	46	408	0.3	408	409	17.9	62.2
2025-07-06T06:09	10	47	1.0	46	49	409	0.4	408	410	18.0	61.5
2025-07-06T06:10	10	50	1.1	49	52	410	0.5	409	411	18.1	60.3
2025-07-06T06:11	10	54	0.9	53	56	411	0.3	411	412	18.2	57.8
2025-07-06T06:12	10	57	2.1	55	63	412	0.3	412	413	18.4	58.5
2025-07-06T06:13	10	69	3.0	64	74	415	0.9	413	416	18.4	56.7
2025-07-06T06:14	10	67	4.6	60	73	416	0.4	415	417	18.7	54.3
2025-07-06T06:15	10	63	3.1	57	68	416	0.3	415	417	18.8	55.8
2025-07-06T06:16	10	55	1.2	53	57	415	0.5	414	416	18.9	56.7
2025-07-06T06:17	10	53	0.7	51	54	415	0.3	414	416	19.0	57.0
2025-07-06T06:18	10	51	0.7	50	52	415	0.3	414	415	19.1	57.3
2025-07-06T06:19	10	52	2.4	47	55	415	0.3	414	416	19.1	58.4
2025-07-06T06:20	10	46	0.7	45	48	415	0.4	414	416	19.1	56.8
2025-07-06T06:21	10	46	0.5	45	47	414	0.5	413	415	19.2	54.5
2025-07-06T06:22	10	50	1.3	48	52	414	0.3	413	415	19.2	53.9
2025-07-06T06:23	10	48	1.0	46	50	413	0.6	412	414	19.0	56.9
2025-07-06T06:24	10	45	0.3	45	46	412	0.5	412	414	18.8	58.3
2025-07-06T06:25	10	45	0.6	45	46	412	0.3	411	412	18.7	57.8
2025-07-06T06:26	10	45	0.4	45	46	412	0.3	411	412	18.7	57.6
2025-07-06T06:27	10	45	0.1	45	45	412	0.2	412	413	18.7	58.1
2025-07-06T06:28	10	45	0.1	45	46	412	0.2	412	413	18.6	58.2
2025-07-06T06:29	10	46	0.3	46	47	412	0.3	411	413	18.6	59.0
2025-07-06T06:30	10	47	0.4	47	48	412	0.2	411	412	18.6	58.8
2025-07-06T06:31	10	49	0.7	48	50	412	0.3	412	413	18.5	58.2
2025-07-06T06:32	10	52	1.2	50	54	413	0.3	413	414	18.5	58.3
2025-07-06T06:33	10	54	1.5	52	58	413	0.2	413	414	18.5	58.3
2025-07-06T06:34	10	62	2.6	58	67	415	0.8	413	417	18.5	58.7
2025-07-06T06:35	10	72	2.6	68	79	417	0.5	416	418	18.6	58.1
2025-07-06T06:36	10	84	3.0	79	92	418	0.7	417	420	18.7	57.7
2025-07-06T06:37	10	99	2.9	92	103	422	1.6	419	424	18.7	57.5
2025-07-06T06:38	10	110	5.2	97	115	425	1.2	423	427	18.7	55.8
2025-07-06T06:39	10	107	4.4	101	114	427	0.3	426	427	18.9	56.4
2025-07-06T06:40	10	86	5.2	78	100	426	0.6	425	427	19.1	56.5
2025-07-06T06:41	10	83	2.9	79	88	425	0.3	424	426	19.2	55.6
2025-07-06T06:42	10	87	4.4	81	95	425	0.3	425	426	19.1	55.3
2025-07-06T06:43	10	83	4.9	71	88	425	0.3	425	426	19.2	54.6
2025-07-06T06:44	10	74	4.2	69	80	424	0.4	424	426	19.3	53.9
2025-07-06T06:45	10	78	2.7	72	81	425	0.4	424	426	19.3	54.1
2025-07-06T06:46	10	77	3.1	72	83	425	0.3	424	426	19.5	54.4
2025-07-06T06:47	10	67	2.1	64	72	425	0.5	424	426	19.5	55.3
2025-07-06T06:48	10	63	1.7	60	65	424	0.8	422	425	19.6	54.4
2025-07-06T06:49	10	68	6.1	62	82	423	0.4	422	424	19.6	53.7
2025-07-06T06:50	10	82	5.3	73	90	425	1.0	424	427	19.7	53.5
2025-07-06T06:51	10	80	4.0	74	87	427	0.3	426	427	19.8	54.3
2025-07-06T06:52	10	76	4.0	70	83	427	0.5	426	428	19.9	53.7
2025-07-06T06:53	10	77	4.2	71	84	427	0.4	426	428	19.9	52.7
2025-07-06T06:54	10	76	4.5	72	85	427	0.3	426	427	19.9	51.8
2025-07-06T06:55	10	107	15.4	82	125	429	2.2	426	432	19.9	52.0
2025-07-06T06:56	10	118	13.2	85	131	433	1.1	431	435	20.0	51.9
2025-07-06T06:57	10	84	3.2	78	90	431	1.2	429	433	20.1	51.0
2025-07-06T06:58	10	96	7.3	78	105	431	0.8	429	432	20.2	50.7
2025-07-06T06:59	10	88	7.0	75	99	431	1.0	429	432	20.2	51.4
2025-07-06T07:00	10	91	4.1	85	98	430	0.3	429	430	20.3	52.3
2025-07-06T07:01	10	73	6.3	66	86	428	1.5	426	430	20.2	52.1
2025-07-06T07:02	10	62	2.0	57	66	426	0.8	424	427	20.2	52.8
2025-07-06T07:03	10	60	3.4	56	65	424	0.3	423	425	20.2	51.3
2025-07-06T07:04	10	68	1.5	65	70	425	0.4	424	426	20.3	50.9
2025-07-06T07:05	10	63	5.1	53	69	426	0.6	424	426	20.4	51.3
2025-07-06T07:06	10	48	2.4	45	53	423	0.9	422	425	20.4	51.1
2025-07-06T07:07	10	44	0.6	44	46	422	0.4	421	423	20.5	51.8
2025-07-06T07:08	10	47	1.0	46	49	421	0.3	420	422	20.5	50.8
2025-07-06T07:09	10	49	0.8	48	51	421	0.2	421	422	20.5	50.9
2025-07-06T07:10	10	52	2.4	50	58	422	0.4	421	423	20.5	51.5
2025-07-06T07:11	10	68	6.5	59	81	424	1.2	422	426	20.5	51.2
2025-07-06T07:12	10	92	5.0	81	98	429	1.8	425	432	20.7	50.8
2025-07-06T07:13	10	99	4.6	90	105	433	1.0	431	434	20.8	50.8
2025-07-06T07:14	10	94	1.7	91	98	433	0.3	433	434	20.9	50.7
2025-07-06T07:15	10	92	4.0	87	104	434	0.4	434	435	21.2	50.6
2025-07-06T07:16	10	129	9.7	105	140	438	2.4	434	442	21.3	50.6
2025-07-06T07:17	10	137	4.3	130	143	443	1.0	441	445	21.4	49.1
2025-07-06T07:18	10	150	3.1	143	153	447	1.0	445	448	21.6	49.9
2025-07-06T07:19	10	154	2.0	150	156	449	0.6	448	450	21.5	49.4
2025-07-06T07:20	10	158	1.1	156	160	450	0.2	449	450	21.4	49.3
2025-07-06T07:21	10	158	2.5	154	160	451	0.2	451	452	21.4	49.2
2025-07-06T07:22	10	151	1.3	149	154	452	0.3	451	453	21.4	50.4
2025-07-06T07:23	10	156	1.0	152	157	453	0.6	452	454	21.5	49.9
2025-07-06T07:24	10	161	1.3	157	162	455	0.7	454	456	21.8	49.7
2025-07-06T07:25	10	146	7.9	137	160	455	1.3	453	457	21.9	48.6
2025-07-06T07:26	10	133	5.5	125	145	453	1.2	452	455	22.0	47.6
2025-07-06T07:27	10	162	10.1	145	176	457	2.5	453	460	22.1	47.4
2025-07-06T07:28	10	172	3.4	167	177	460	0.8	459	462	22.3	47.0
2025-07-06T07:29	10	164	6.1	149	171	462	0.5	461	463	22.5	47.8
2025-07-06T07:30	10	142	2.8	137	148	459	2.3	454	462	22.6	46.3
2025-07-06T07:31	10	130	9.6	115	144	455	1.7	452	457	22.4	45.9
2025-07-06T07:32	10	116	7.4	102	124	452	1.9	450	455	22.3	45.7
2025-07-06T07:33	10	121	6.7	109	132	452	0.9	451	454	22.2	45.3
2025-07-06T07:34	10	97	14.1	83	125	451	2.2	447	454	22.5	46.5
2025-07-06T07:35	10	79	1.9	76	83	446	1.6	443	449	22.7	45.1
2025-07-06T07:36	10	75	0.3	75	76	443	0.8	441	445	22.4	45.0
2025-07-06T07:37	10	76	0.5	75	76	441	0.7	440	442	22.3	45.1
2025-07-06T07:38	10	74	0.3	74	75	439	0.7	438	441	22.3	45.2
2025-07-06T07:39	10	75	0.3	74	76	439	0.4	438	440	22.3	46.4
2025-07-06T07:40	10	75	0.8	74	77	439	0.3	438	439	22.3	45.0
2025-07-06T07:41	10	76	0.6	75	77	439	0.4	438	440	22.3	45.2
2025-07-06T07:42	10	74	1.3	73	77	440	0.3	439	440	22.4	45.0
2025-07-06T07:43	10	73	0.2	73	74	440	0.4	439	441	22.5	44.1
2025-07-06T07:44	10	73	0.3	73	74	438	0.7	437	440	22.5	44.0
2025-07-06T07:45	10	76	0.9	74	77	438	0.3	437	438	22.5	44.0
2025-07-06T07:46	10	74	0.2	73	74	438	0.6	437	439	22.6	44.5
2025-07-06T07:47	10	75	0.8	74	77	438	0.3	438	439	22.6	43.5
2025-07-06T07:48	10	81	1.8	77	83	439	0.7	438	441	22.5	43.8
2025-07-06T07:49	10	82	1.8	80	85	441	0.3	440	441	22.6	43.8
2025-07-06T07:50	10	85	3.0	82	92	441	0.4	440	441	22.6	41.6
2025-07-06T07:51	10	103	5.6	92	110	443	1.8	440	446	22.6	42.5
2025-07-06T07:52	10	109	1.4	105	111	447	1.1	444	448	22.6	43.0
2025-07-06T07:53	10	108	2.6	102	112	448	0.6	447	450	22.7	42.1
2025-07-06T07:54	10	88	4.5	84	101	447	1.0	446	449	23.0	41.5
2025-07-06T07:55	10	96	3.1	91	101	447	1.0	446	449	23.0	41.3
2025-07-06T07:56	10	88	3.8	83	95	448	0.7	447	449	23.0	42.2
2025-07-06T07:57	10	81	1.3	79	83	447	0.7	445	448	23.0	42.1
2025-07-06T07:58	10	80	2.7	77	87	444	1.1	442	446	23.0	41.4
2025-07-06T07:59	10	76	1.4	74	79	443	0.3	443	444	22.9	41.2
2025-07-06T08:00	10	72	1.0	70	74	442	0.6	441	443	22.9	41.5
2025-07-06T08:01	10	69	0.6	68	70	442	0.3	441	443	22.9	42.0
2025-07-06T08:02	10	67	0.6	66	68	441	0.6	440	442	22.9	42.5
2025-07-06T08:03	10	66	0.3	65	66	440	0.3	440	441	23.0	41.4
2025-07-06T08:04	10	65	0.1	65	66	441	0.3	440	442	22.9	42.4
2025-07-06T08:05	10	65	0.1	65	66	441	1.0	440	443	23.0	42.4
2025-07-06T08:06	10	66	0.2	65	67	440	0.3	439	441	23.0	41.3
2025-07-06T08:07	10	65	0.1	65	66	439	0.4	439	440	23.1	41.0
2025-07-06T08:08	10	65	0.1	65	66	438	0.4	438	439	23.0	40.3
2025-07-06T08:09	10	66	0.2	65	66	439	0.6	438	440	23.1	40.6
2025-07-06T08:10	10	67	0.5	66	67	440	0.2	440	441	23.1	40.7
2025-07-06T08:11	10	69	0.7	67	70	441	0.6	440	442	23.2	41.9
2025-07-06T08:12	10	71	0.8	70	73	441	0.6	440	442	23.2	40.9
2025-07-06T08:13	10	74	0.8	73	75	441	0.5	440	442	23.2	41.2
2025-07-06T08:14	10	76	0.6	75	77	442	0.8	441	443	23.2	41.2
2025-07-06T08:15	10	78	0.6	77	79	444	0.7	443	445	23.3	42.0
2025-07-06T08:16	10	80	0.6	79	81	445	0.5	444	446	23.4	41.3
2025-07-06T08:17	10	82	0.5	81	83	444	0.3	444	445	23.2	40.7
2025-07-06T08:18	10	84	0.8	83	85	446	0.5	444	447	23.3	40.8
2025-07-06T08:19	10	86	0.6	85	87	446	0.4	445	447	23.3	40.2
2025-07-06T08:20	10	88	0.6	87	89	446	0.4	445	447	23.4	38.2
2025-07-06T08:21	10	90	0.6	89	91	447	0.7	445	448	23.4	39.9
2025-07-06T08:22	10	92	0.1	91	92	447	0.6	446	448	23.4	38.5
2025-07-06T08:23	10	91	0.3	91	92	447	0.4	446	447	23.4	38.2
2025-07-06T08:24	10	90	0.3	90	91	447	0.4	446	448	23.4	38.9
2025-07-06T08:25	10	90	0.1	90	90	448	0.7	446	449	23.4	38.7
2025-07-06T08:26	10	91	0.2	90	91	447	0.3	447	448	23.4	38.5
2025-07-06T08:27	10	91	0.1	90	91	448	0.3	447	448	23.6	37.8
2025-07-06T08:28	10	90	0.1	90	90	448	0.3	447	449	23.5	37.5
2025-07-06T08:29	10	90	0.1	90	90	450	0.8	448	451	23.6	38.5
2025-07-06T08:30	10	91	0.2	90	91	450	0.3	450	451	23.8	37.3
2025-07-06T08:31	10	91	0.2	90	91	451	0.5	450	452	23.7	37.9
2025-07-06T08:32	10	89	0.8	88	90	451	0.5	450	452	23.8	38.3
2025-07-06T08:33	10	86	0.7	85	88	451	0.4	450	451	23.9	39.0
2025-07-06T08:34	10	84	0.5	83	85	448	1.1	447	451	23.8	36.8
2025-07-06T08:35	10	82	0.7	81	83	448	0.7	447	450	23.7	37.0
2025-07-06T08:36	10	80	0.9	78	81	447	0.7	446	448	23.7	36.5
2025-07-06T08:37	10	76	1.1	74	78	447	0.5	446	448	23.7	37.2
2025-07-06T08:38	10	73	1.2	70	75	445	1.2	443	447	23.6	36.8
2025-07-06T08:39	10	68	1.5	65	70	444	0.4	443	444	23.6	38.2
2025-07-06T08:40	10	63	1.5	60	65	444	0.4	443	445	23.7	38.9
2025-07-06T08:41	10	58	1.2	56	60	443	1.0	441	445	23.8	36.0
2025-07-06T08:42	10	53	1.9	50	57	441	1.0	439	442	23.7	35.5
2025-07-06T08:43	10	48	1.1	46	50	439	0.4	438	439	23.7	35.2
2025-07-06T08:44	10	45	0.7	43	46	437	0.4	436	438	23.7	35.7
2025-07-06T08:45	10	43	0.4	42	44	436	0.3	435	437	23.7	35.9
2025-07-06T08:46	10	42	0.3	42	43	436	0.3	436	437	23.7	36.6
2025-07-06T08:47	10	42	0.2	42	43	437	0.4	436	438	23.8	37.0
2025-07-06T08:48	10	43	0.4	42	44	438	0.4	437	439	23.8	37.9
2025-07-06T08:49	10	44	0.5	43	45	438	0.4	437	439	23.8	35.3
2025-07-06T08:50	10	46	0.5	45	47	438	0.3	437	439	23.8	35.9
2025-07-06T08:51	10	48	0.6	46	49	438	0.3	437	438	23.8	35.2
2025-07-06T08:52	10	49	0.6	48	51	439	0.4	438	439	23.8	35.4
2025-07-06T08:53	10	51	0.6	50	52	440	0.6	439	441	23.8	36.0
2025-07-06T08:54	10	53	0.6	52	54	440	0.2	439	441	23.9	36.8
2025-07-06T08:55	10	55	0.5	54	56	440	0.2	439	441	23.8	36.3
2025-07-06T08:56	10	57	0.4	56	57	441	0.4	440	442	23.8	36.3
2025-07-06T08:57	10	58	0.3	57	58	441	0.2	440	441	23.8	36.1
2025-07-06T08:58	10	58	0.2	58	58	441	0.4	440	442	23.8	36.1
2025-07-06T08:59	10	58	0.1	58	58	442	0.4	442	443	23.9	37.4
2025-07-06T09:00	10	58	0.2	58	58	441	0.3	441	442	23.9	36.1
2025-07-06T09:01	10	58	0.3	57	58	442	0.3	441	442	23.9	36.4
2025-07-06T09:02	10	57	0.2	57	58	442	0.3	442	443	24.0	35.6
2025-07-06T09:03	10	56	0.2	56	57	442	0.4	441	443	24.1	35.9
2025-07-06T09:04	10	56	0.1	56	56	442	0.9	439	443	24.1	34.5
2025-07-06T09:05	10	56	0.3	56	57	439	0.9	438	441	24.0	33.8
2025-07-06T09:06	10	55	0.4	54	56	437	0.4	436	438	24.0	33.4
2025-07-06T09:07	10	54	0.2	54	55	437	0.4	436	438	23.8	36.8
2025-07-06T09:08	10	54	0.2	53	54	435	0.4	434	436	23.5	39.5
2025-07-06T09:09	10	53	0.1	53	54	436	0.6	435	437	23.4	41.8
2025-07-06T09:10	10	54	0.3	53	54	436	0.4	435	437	23.2	42.8
2025-07-06T09:11	10	55	0.4	54	56	435	1.0	433	437	23.1	42.2
2025-07-06T09:12	10	57	0.5	56	58	434	0.3	433	434	22.9	40.9
2025-07-06T09:13	10	59	0.9	58	61	433	0.5	432	435	22.8	41.3
2025-07-06T09:14	10	63	1.4	61	66	434	0.5	434	435	22.7	41.5
2025-07-06T09:15	10	68	1.2	66	69	435	0.6	434	436	22.8	41.0
2025-07-06T09:16	10	67	1.8	64	70	436	0.4	435	437	22.8	41.0
2025-07-06T09:17	10	61	1.1	60	63	437	0.4	436	438	23.0	40.7
2025-07-06T09:18	10	58	0.9	57	60	436	0.9	434	437	22.9	40.1
2025-07-06T09:19	10	55	1.1	53	57	434	0.4	433	435	22.7	40.4
2025-07-06T09:20	10	51	1.3	49	53	433	0.8	432	435	22.7	39.5
2025-07-06T09:21	10	47	1.2	45	49	432	0.2	431	432	22.5	39.4
2025-07-06T09:22	10	43	1.0	42	45	431	0.5	429	432	22.7	39.5
2025-07-06T09:23	10	40	0.8	39	42	428	0.5	428	429	22.5	38.7
2025-07-06T09:24	10	38	0.6	36	39	428	0.3	428	429	22.6	39.0
2025-07-06T09:25	10	36	0.5	35	37	427	0.5	426	428	22.5	38.7
2025-07-06T09:26	10	34	0.5	33	35	426	0.2	425	426	22.4	39.1
2025-07-06T09:27	10	33	0.3	32	33	426	0.4	425	426	22.4	39.4
2025-07-06T09:28	10	32	0.3	31	33	426	0.4	424	426	22.4	39.5
2025-07-06T09:29	10	32	0.1	31	32	425	0.4	425	427	22.4	39.5
2025-07-06T09:30	10	33	0.5	32	34	426	0.4	425	427	22.4	39.6
2025-07-06T09:31	10	35	0.8	34	36	426	0.4	425	427	22.4	39.6
2025-07-06T09:32	10	38	1.1	36	40	427	0.6	426	428	22.4	39.7
2025-07-06T09:33	10	42	1.3	40	44	428	0.5	427	429	22.4	40.3
2025-07-06T09:34	10	47	1.4	44	49	429	0.5	428	430	22.4	40.4
2025-07-06T09:35	10	52	1.5	49	54	430	0.8	429	432	22.5	40.7
2025-07-06T09:36	10	57	1.5	54	59	432	0.8	431	434	22.5	40.5
2025-07-06T09:37	10	62	1.4	59	64	435	0.9	433	436	22.4	40.7
2025-07-06T09:38	10	66	1.5	64	69	438	1.2	435	439	22.6	40.5
2025-07-06T09:39	10	71	1.0	69	72	439	0.4	438	440	22.6	40.8
2025-07-06T09:40	10	73	0.4	72	74	439	0.3	438	440	22.4	42.4
2025-07-06T09:41	10	76	1.5	73	79	441	0.6	439	442	22.4	43.1
2025-07-06T09:42	10	80	1.2	79	83	442	1.1	440	445	22.5	43.4
2025-07-06T09:43	10	87	3.1	83	93	445	0.8	443	446	22.5	43.9
2025-07-06T09:44	10	92	1.8	90	95	447	0.6	445	448	22.6	44.3
2025-07-06T09:45	10	91	1.8	87	93	449	1.0	447	451	22.7	43.8
2025-07-06T09:46	10	84	1.9	81	87	447	1.0	446	450	22.7	44.1
2025-07-06T09:47	10	78	1.4	76	81	448	0.3	447	448	22.8	44.2
2025-07-06T09:48	10	74	0.9	73	76	446	0.7	445	448	22.7	44.1
2025-07-06T09:49	10	72	0.7	71	73	446	0.4	445	447	22.8	44.6
2025-07-06T09:50	10	71	0.2	71	72	444	0.6	443	446	23.0	44.5
2025-07-06T09:51	10	72	0.5	71	73	445	0.8	444	447	23.0	44.4
2025-07-06T09:52	10	74	0.2	73	74	446	0.8	444	447	23.2	42.6
2025-07-06T09:53	10	73	0.8	71	74	444	0.5	443	445	23.2	40.3
2025-07-06T09:54	10	69	1.2	67	71	443	0.7	441	444	23.1	40.0
2025-07-06T09:55	10	65	1.3	63	67	441	1.0	440	443	23.1	40.6
2025-07-06T09:56	10	61	0.9	59	63	440	0.3	440	441	23.1	41.2
2025-07-06T09:57	10	58	0.6	57	59	440	0.4	439	440	23.1	41.6
2025-07-06T09:58	10	56	0.5	55	58	439	1.0	437	440	23.2	42.4
2025-07-06T09:59	10	55	0.3	54	56	437	0.2	437	438	23.2	42.8
2025-07-06T10:00	10	54	0.2	54	55	436	0.5	435	437	23.2	42.5
2025-07-06T10:01	10	54	0.2	54	54	435	0.3	435	436	23.2	41.0
2025-07-06T10:02	10	54	0.2	53	54	434	1.1	432	436	23.2	40.5
2025-07-06T10:03	10	53	0.2	53	54	431	2.1	427	434	23.0	39.6
2025-07-06T10:04	10	52	0.6	51	53	425	1.5	424	428	22.7	39.9
2025-07-06T10:05	10	51	0.5	50	52	424	0.4	423	424	22.6	40.8
2025-07-06T10:06	10	49	0.5	48	50	423	0.3	422	423	22.5	41.0
2025-07-06T10:07	10	48	0.3	47	49	422	0.4	421	423	22.4	41.5
2025-07-06T10:08	10	47	0.1	47	47	422	0.4	422	423	22.3	42.0
2025-07-06T10:09	10	47	0.1	47	47	422	0.4	421	423	22.3	41.2
2025-07-06T10:10	10	47	0.1	47	47	423	0.6	422	424	22.4	40.9
2025-07-06T10:11	10	47	0.1	47	47	423	0.3	423	424	22.4	40.9
2025-07-06T10:12	10	46	0.2	46	47	424	0.2	423	424	22.3	40.6
2025-07-06T10:13	10	45	0.5	44	46	423	0.3	422	424	22.3	40.6
2025-07-06T10:14	10	44	0.6	42	44	421	0.4	421	422	22.2	40.7
2025-07-06T10:15	10	41	0.6	40	42	421	0.3	420	421	22.1	41.5
2025-07-06T10:16	10	39	0.6	38	40	420	0.5	419	421	22.0	42.3
2025-07-06T10:17	10	37	0.7	36	38	420	0.4	419	421	21.8	42.8
2025-07-06T10:18	10	35	0.6	34	36	419	0.4	419	421	21.7	43.4
2025-07-06T10:19	10	33	0.5	33	34	418	0.3	418	419	21.5	43.9
2025-07-06T10:20	10	32	0.2	32	33	418	0.3	418	419	21.5	44.6
2025-07-06T10:21	10	32	0.2	31	32	417	0.4	416	417	21.4	44.6
2025-07-06T10:22	10	31	0.1	31	31	416	0.4	415	416	21.2	46.2
2025-07-06T10:23	10	31	0.1	31	32	414	0.5	413	415	21.0	47.2
2025-07-06T10:24	10	32	0.2	31	32	413	0.5	412	414	20.9	47.7
2025-07-06T10:25	10	33	0.2	32	33	414	0.6	412	415	20.9	46.5
2025-07-06T10:26	10	33	0.2	33	34	414	0.6	413	415	20.9	46.8
2025-07-06T10:27	10	33	0.1	33	34	415	0.4	414	416	20.9	46.0
2025-07-06T10:28	10	33	0.3	32	33	415	0.5	414	416	21.0	44.0
2025-07-06T10:29	10	32	0.4	31	32	416	0.4	415	416	21.1	42.9
2025-07-06T10:30	10	30	0.6	29	31	415	0.4	414	416	21.2	42.4
2025-07-06T10:31	10	28	0.6	27	29	415	0.2	415	416	21.2	42.4
2025-07-06T10:32	10	26	0.6	25	27	415	0.3	415	416	21.2	42.4
2025-07-06T10:33	10	24	0.4	23	25	415	0.3	414	416	21.2	41.7
2025-07-06T10:34	10	23	0.4	22	23	415	0.2	414	415	21.2	42.4
2025-07-06T10:35	10	21	0.3	21	22	415	0.3	414	415	21.2	42.4
2025-07-06T10:36	10	21	0.3	20	21	414	0.2	414	415	21.2	42.4
2025-07-06T10:37	10	20	0.2	19	20	413	0.4	412	414	21.2	42.3
2025-07-06T10:38	10	19	0.2	19	20	412	0.7	411	413	21.6	39.3
2025-07-06T10:39	10	19	0.2	18	19	410	0.4	410	411	21.5	40.1
2025-07-06T10:40	10	18	0.2	18	19	409	1.0	407	410	21.3	40.8
2025-07-06T10:41	10	18	0.2	18	18	406	1.0	404	408	20.8	43.4
2025-07-06T10:42	10	18	0.1	18	18	405	0.2	404	405	20.7	44.2
2025-07-06T10:43	10	18	0.1	18	18	404	0.3	403	405	20.7	44.6
2025-07-06T10:44	10	18	0.1	18	18	404	0.3	403	404	20.6	43.8
2025-07-06T10:45	10	18	0.1	18	18	403	0.2	403	403	20.5	44.8
2025-07-06T10:46	10	18	0.1	18	19	403	0.4	402	404	20.5	45.6
2025-07-06T10:47	10	19	0.1	19	19	402	0.2	402	402	20.5	45.6
2025-07-06T10:48	10	19	0.2	19	20	402	0.5	401	403	20.3	47.0
2025-07-06T10:49	10	20	0.2	19	21	403	0.4	402	403	20.1	49.2
2025-07-06T10:50	10	20	0.2	20	21	403	0.4	402	404	19.9	50.2
2025-07-06T10:51	10	21	0.2	20	21	403	0.6	402	405	19.8	50.5
2025-07-06T10:52	10	21	0.2	21	21	404	0.5	403	405	19.8	50.5
2025-07-06T10:53	10	21	0.2	21	21	403	0.4	403	404	19.7	52.8
2025-07-06T10:54	10	21	0.1	21	22	403	0.3	403	404	19.6	53.9
2025-07-06T10:55	10	21	0.1	21	21	403	0.3	403	404	19.6	52.7
2025-07-06T10:56	10	22	0.2	21	22	403	0.2	403	404	19.9	50.4
2025-07-06T10:57	10	22	0.2	22	23	403	0.2	402	403	19.8	51.8
2025-07-06T10:58	10	23	0.2	23	23	403	0.5	402	404	19.7	52.1
2025-07-06T10:59	10	24	0.2	23	24	404	0.4	403	405	19.6	52.6
2025-07-06T11:00	10	24	0.2	24	25	404	0.3	403	405	19.9	48.9
2025-07-06T11:01	10	25	0.2	24	25	404	0.4	402	405	20.0	49.1
2025-07-06T11:02	10	25	0.2	25	26	403	0.4	402	404	20.1	47.6
2025-07-06T11:03	10	26	0.2	26	27	403	0.3	402	403	20.3	45.9
2025-07-06T11:04	10	27	0.2	27	27	403	0.3	403	404	20.4	45.4
2025-07-06T11:05	10	27	0.1	27	28	403	0.3	403	404	20.5	45.4
2025-07-06T11:06	10	28	0.1	27	28	404	0.4	404	405	20.3	46.2
2025-07-06T11:07	10	28	0.1	27	28	406	0.3	405	406	20.3	45.8
2025-07-06T11:08	10	28	0.1	28	28	406	0.3	405	406	20.3	46.3
2025-07-06T11:09	10	28	0.1	28	28	406	0.3	405	407	20.3	45.9
2025-07-06T11:10	10	29	0.2	28	29	406	0.3	405	407	20.4	44.9
2025-07-06T11:11	10	29	0.2	29	29	407	0.2	406	407	20.4	45.8
2025-07-06T11:12	10	30	0.1	29	30	407	0.3	406	408	20.4	46.0
2025-07-06T11:13	10	30	0.2	30	31	408	0.2	407	408	20.4	46.2
2025-07-06T11:14	10	31	0.2	30	31	408	0.5	406	408	20.4	46.0
2025-07-06T11:15	10	32	0.2	31	32	407	0.4	406	408	20.4	45.9
2025-07-06T11:16	10	32	0.3	32	33	407	0.4	406	408	20.2	47.8
2025-07-06T11:17	10	33	0.3	32	33	408	0.3	407	408	20.1	48.2
2025-07-06T11:18	10	34	0.4	33	35	408	0.3	407	409	20.1	48.3
2025-07-06T11:19	10	35	0.4	34	36	409	0.6	408	410	20.1	48.4
2025-07-06T11:20	10	36	0.4	36	37	410	0.3	409	410	20.3	47.5
2025-07-06T11:21	10	38	0.4	37	38	411	0.6	410	412	20.3	47.2
2025-07-06T11:22	10	39	0.3	38	39	412	0.4	411	413	20.6	44.8
2025-07-06T11:23	10	39	0.2	39	40	411	0.3	410	411	20.9	44.0
2025-07-06T11:24	10	39	0.1	39	40	411	0.4	410	412	21.3	40.0
2025-07-06T11:25	10	39	0.2	39	40	411	0.3	410	412	21.3	40.8
2025-07-06T11:26	10	39	0.2	38	39	411	0.3	411	412	21.3	40.8
2025-07-06T11:27	10	38	0.3	37	39	412	0.2	411	413	21.2	42.3
2025-07-06T11:28	10	37	0.4	36	37	413	0.3	413	414	21.1	43.1
2025-07-06T11:29	10	36	0.4	35	36	413	0.3	413	414	21.2	42.0
2025-07-06T11:30	10	35	0.2	34	35	413	0.4	412	414	21.4	40.7
2025-07-06T11:31	10	34	0.2	34	34	413	0.2	413	413	21.3	41.1
2025-07-06T11:32	10	34	0.2	33	34	414	0.2	413	414	21.3	41.8
2025-07-06T11:33	10	33	0.1	33	34	414	0.3	414	415	21.3	42.5
2025-07-06T11:34	10	33	0.1	33	33	414	0.4	414	415	21.3	41.3
2025-07-06T11:35	10	33	0.1	33	34	415	0.3	414	415	21.3	42.5
2025-07-06T11:36	10	33	0.1	33	33	414	0.8	412	415	21.1	43.1
2025-07-06T11:37	10	33	0.1	33	33	413	0.3	412	414	21.0	43.9
2025-07-06T11:38	10	33	0.1	33	33	413	0.3	412	414	20.9	44.3
2025-07-06T11:39	10	33	0.1	32	33	414	0.4	413	414	21.0	43.6
2025-07-06T11:40	10	32	0.2	32	33	414	0.4	413	415	21.0	43.3
2025-07-06T11:41	10	32	0.1	32	32	414	0.4	413	415	21.0	44.0
2025-07-06T11:42	10	32	0.1	32	32	415	0.3	414	415	21.2	42.2
2025-07-06T11:43	10	32	0.1	32	32	414	0.2	413	415	21.4	41.6
2025-07-06T11:44	10	32	0.1	32	32	414	0.2	414	415	21.4	41.3
2025-07-06T11:45	10	32	0.1	32	32	415	0.6	414	416	21.4	42.1
2025-07-06T11:46	10	32	0.1	31	32	415	0.3	414	416	21.5	41.0
2025-07-06T11:47	10	31	0.1	31	32	415	0.3	414	415	21.5	41.2
2025-07-06T11:48	10	31	0.1	31	31	415	0.2	414	415	21.5	41.7
2025-07-06T11:49	10	31	0.1	30	31	415	0.3	414	416	21.5	41.9
2025-07-06T11:50	10	31	0.1	30	31	415	0.4	414	416	21.5	41.2
2025-07-06T11:51	10	30	0.1	30	31	414	0.3	414	415	21.5	41.4
2025-07-06T11:52	10	30	0.1	30	30	414	0.3	414	415	21.5	41.6
2025-07-06T11:53	10	30	0.1	30	30	415	0.3	414	415	21.4	41.9
2025-07-06T11:54	10	30	0.1	29	30	415	0.5	414	416	21.4	43.0
2025-07-06T11:55	10	29	0.1	29	30	416	0.2	415	416	21.3	43.1
2025-07-06T11:56	10	29	0.1	29	30	416	0.4	415	417	21.3	43.3
2025-07-06T11:57	10	29	0.1	29	30	415	0.3	415	416	21.4	42.7
2025-07-06T11:58	10	29	0.1	29	30	415	0.4	414	416	21.4	42.4
2025-07-06T11:59	10	30	0.1	29	30	415	0.3	414	415	21.3	43.1
2025-07-06T12:00	10	30	0.1	29	30	414	0.2	414	415	21.3	43.5
2025-07-06T12:01	10	29	0.1	29	30	414	0.3	414	415	21.3	43.5
2025-07-06T12:02	10	29	0.2	29	29	415	0.3	414	415	21.3	43.8
2025-07-06T12:03	10	29	0.2	28	29	414	0.4	413	415	21.3	43.5
2025-07-06T12:04	10	28	0.2	28	29	413	0.3	412	414	21.2	44.2
2025-07-06T12:05	10	27	0.2	27	28	413	0.3	412	413	21.2	44.2
2025-07-06T12:06	10	27	0.2	26	27	412	0.2	412	413	21.2	44.5
2025-07-06T12:07	10	26	0.2	26	27	412	0.3	411	412	21.2	44.3
2025-07-06T12:08	10	26	0.2	25	26	412	0.3	411	412	21.1	45.1
2025-07-06T12:09	10	25	0.2	25	26	411	0.4	410	412	21.0	46.4
2025-07-06T12:10	10	25	0.1	25	25	411	0.2	410	411	21.0	45.4
2025-07-06T12:11	10	25	0.1	25	25	410	0.4	409	411	21.0	45.7
2025-07-06T12:12	10	25	0.1	25	25	410	0.5	410	412	21.0	45.6
2025-07-06T12:13	10	25	0.1	25	25	411	0.6	410	412	21.0	46.0
2025-07-06T12:14	10	26	0.2	25	26	411	0.3	411	412	21.0	45.4
2025-07-06T12:15	10	27	0.4	26	27	411	0.4	411	412	21.1	45.1
2025-07-06T12:16	10	28	0.5	27	29	412	0.4	411	413	21.0	46.9
2025-07-06T12:17	10	30	0.5	29	31	413	0.5	412	414	21.0	46.3
2025-07-06T12:18	10	31	0.5	30	32	413	0.5	412	414	21.1	45.7
2025-07-06T12:19	10	33	0.5	32	34	412	0.3	411	413	21.1	45.2
2025-07-06T12:20	10	34	0.4	33	35	412	0.5	412	413	21.1	45.4
2025-07-06T12:21	10	35	0.4	35	36	414	0.6	413	415	21.1	46.4
2025-07-06T12:22	10	36	0.2	36	37	414	0.5	413	415	21.1	45.4
2025-07-06T12:23	10	37	0.2	36	37	414	0.2	413	414	21.2	45.2
2025-07-06T12:24	10	38	0.3	37	38	414	0.6	413	416	21.1	46.7
2025-07-06T12:25	10	39	0.3	38	39	415	0.3	414	416	21.0	46.3
2025-07-06T12:26	10	40	0.3	39	40	415	0.4	415	416	21.1	46.1
2025-07-06T12:27	10	41	0.3	40	41	416	0.4	415	417	21.1	46.0
2025-07-06T12:28	10	41	0.2	41	42	417	0.5	416	418	21.1	45.8
2025-07-06T12:29	10	42	0.1	42	42	417	0.2	417	418	21.1	46.7
2025-07-06T12:30	10	42	0.1	42	42	417	0.3	416	418	21.1	46.3
2025-07-06T12:31	10	42	1.5	42	52	416	0.3	416	417	21.2	46.0
2025-07-06T12:32	10	41	0.2	41	42	417	0.4	416	418	21.1	47.2
2025-07-06T12:33	10	41	0.2	41	41	416	0.2	416	417	21.1	47.3
2025-07-06T12:34	10	40	0.2	40	41	417	0.4	416	418	21.0	48.0
2025-07-06T12:35	10	39	0.4	39	40	417	0.3	416	417	21.1	45.8
2025-07-06T12:36	10	38	0.4	37	39	417	0.2	417	418	21.1	46.1
2025-07-06T12:37	10	37	0.3	36	37	418	0.3	417	419	21.1	47.2
2025-07-06T12:38	10	36	0.2	35	36	417	0.5	417	418	21.1	46.7
2025-07-06T12:39	10	36	0.1	35	36	418	0.2	417	418	21.1	46.7
2025-07-06T12:40	10	36	0.2	36	37	418	0.3	417	418	21.2	46.7
2025-07-06T12:41	10	36	0.2	36	37	418	0.3	417	418	21.2	46.4
2025-07-06T12:42	10	35	0.5	35	36	417	0.3	417	418	21.2	45.9
2025-07-06T12:43	10	34	0.5	33	35	417	0.4	416	417	21.3	45.3
2025-07-06T12:44	10	32	0.3	32	33	416	0.6	415	417	21.4	44.4
2025-07-06T12:45	10	32	0.2	31	32	416	0.4	415	416	21.3	45.5
2025-07-06T12:46	10	32	0.1	31	32	416	0.2	415	416	21.2	46.8
2025-07-06T12:47	10	32	0.3	32	33	416	0.4	415	417	21.2	46.3
2025-07-06T12:48	10	33	0.4	33	34	416	0.3	415	416	21.2	46.8
2025-07-06T12:49	10	34	0.3	34	35	416	0.2	415	416	21.3	45.7
2025-07-06T12:50	10	35	0.2	35	35	416	0.4	415	416	21.3	45.7
2025-07-06T12:51	10	35	0.1	35	36	415	0.3	415	416	21.3	45.2
2025-07-06T12:52	10	35	0.1	35	36	415	0.3	414	416	21.3	45.4
2025-07-06T12:53	10	35	0.1	35	36	415	0.5	414	416	21.3	46.5
2025-07-06T12:54	10	35	0.1	35	35	416	0.3	415	417	21.2	47.0
2025-07-06T12:55	10	35	0.1	35	35	416	0.2	415	416	21.2	47.1
2025-07-06T12:56	10	35	0.1	35	35	416	0.4	415	417	21.2	47.5
2025-07-06T12:57	10	35	0.1	35	35	416	0.3	416	417	21.2	47.8
2025-07-06T12:58	10	35	0.1	34	35	416	0.3	415	417	21.2	47.2
2025-07-06T12:59	10	34	0.3	34	35	415	0.6	414	416	21.2	46.8
2025-07-06T13:00	10	33	0.4	32	34	414	0.3	414	415	21.2	47.3
2025-07-06T13:01	10	32	0.3	31	32	414	0.3	413	414	21.2	47.6
2025-07-06T13:02	10	31	0.2	31	31	413	0.5	413	415	21.1	47.8
2025-07-06T13:03	10	31	0.1	30	31	412	0.4	411	413	21.2	47.4
2025-07-06T13:04	10	31	0.2	31	31	411	0.3	411	412	21.0	48.4
2025-07-06T13:05	10	32	0.5	31	33	412	0.3	411	412	20.9	49.4
2025-07-06T13:06	10	34	0.5	33	35	412	0.5	411	413	20.9	49.5
2025-07-06T13:07	10	35	0.4	35	36	413	0.6	412	414	20.8	51.3
2025-07-06T13:08	10	37	0.3	36	37	413	0.4	413	414	20.7	52.0
2025-07-06T13:09	10	38	0.3	37	38	413	0.4	413	414	20.7	52.1
2025-07-06T13:10	10	38	0.2	38	39	413	0.4	412	413	20.9	49.0
2025-07-06T13:11	10	38	0.1	38	39	413	0.3	412	414	21.0	49.1
2025-07-06T13:12	10	38	0.3	37	38	414	0.5	413	415	20.9	50.3
2025-07-06T13:13	10	36	0.4	36	37	414	0.7	412	415	20.9	48.3
2025-07-06T13:14	10	35	0.3	35	36	413	0.3	412	414	20.9	48.7
2025-07-06T13:15	10	34	0.3	33	35	413	0.4	413	414	20.9	49.7
2025-07-06T13:16	10	33	0.2	33	34	413	0.3	412	414	20.9	48.5
2025-07-06T13:17	10	33	0.2	33	34	412	0.4	411	413	20.8	49.4
2025-07-06T13:18	10	33	0.3	32	34	412	0.3	411	413	20.7	49.2
2025-07-06T13:19	10	32	0.3	32	33	411	0.3	411	412	20.7	49.2
2025-07-06T13:20	10	32	0.2	31	32	411	0.3	411	412	20.6	50.0
2025-07-06T13:21	10	31	0.1	31	31	412	0.2	411	412	20.5	50.9
2025-07-06T13:22	10	31	0.1	31	31	412	0.3	411	413	20.6	50.5
2025-07-06T13:23	10	31	0.3	31	32	412	0.3	412	413	20.6	50.6
2025-07-06T13:24	10	32	0.4	31	33	413	0.3	412	413	20.5	50.8
2025-07-06T13:25	10	33	0.2	33	34	413	0.3	412	414	20.6	50.7
2025-07-06T13:26	10	34	0.2	33	34	414	0.3	413	415	20.5	51.3
2025-07-06T13:27	10	34	0.3	34	35	414	0.2	413	414	20.5	51.4
2025-07-06T13:28	10	35	0.3	34	36	414	0.3	413	415	20.5	52.2
2025-07-06T13:29	10	37	0.4	36	37	414	0.3	413	414	20.4	51.8
2025-07-06T13:30	10	37	0.2	37	38	414	0.3	413	414	20.4	52.1
2025-07-06T13:31	10	38	0.1	38	38	414	0.4	413	414	20.4	52.4
2025-07-06T13:32	10	38	0.1	38	39	414	0.3	413	415	20.3	52.7
2025-07-06T13:33	10	38	0.1	38	38	413	0.4	412	414	20.3	52.2
2025-07-06T13:34	10	38	0.1	38	38	412	0.3	411	413	20.3	51.5
2025-07-06T13:35	10	38	0.1	38	38	412	0.4	412	413	20.3	51.8
2025-07-06T13:36	10	38	0.1	38	38	413	0.6	412	414	20.2	53.1
2025-07-06T13:37	10	38	0.1	38	38	414	0.4	413	414	20.2	54.1
2025-07-06T13:38	10	38	0.1	37	38	414	0.3	414	415	20.1	53.9
2025-07-06T13:39	10	38	0.1	37	38	415	0.4	414	415	20.1	54.1
2025-07-06T13:40	10	38	0.2	38	38	414	0.3	413	414	20.1	53.8
2025-07-06T13:41	10	39	0.2	39	39	414	0.2	413	414	20.1	54.2
2025-07-06T13:42	10	39	0.1	39	40	415	0.4	414	415	20.1	55.3
2025-07-06T13:43	10	40	0.3	39	41	415	0.3	414	415	20.0	55.9
2025-07-06T13:44	10	42	0.8	40	43	414	0.6	413	415	20.0	55.0
2025-07-06T13:45	10	45	1.0	43	46	414	0.3	413	415	20.0	55.0
2025-07-06T13:46	10	49	1.5	46	51	415	0.5	414	416	20.0	55.6
2025-07-06T13:47	10	54	1.3	51	56	416	0.6	415	418	20.0	54.8
2025-07-06T13:48	10	56	0.2	55	56	418	0.8	416	419	20.0	54.5
2025-07-06T13:49	10	55	0.4	54	55	419	0.5	418	420	20.1	55.0
2025-07-06T13:50	10	54	0.4	53	54	418	0.2	418	419	20.1	54.7
2025-07-06T13:51	10	53	0.2	52	53	418	0.3	417	419	20.1	54.5
2025-07-06T13:52	10	53	0.4	52	53	418	0.4	417	419	20.2	54.5
2025-07-06T13:53	10	54	0.6	53	55	419	0.4	418	419	20.3	54.1
2025-07-06T13:54	10	56	0.3	55	56	420	0.5	419	421	20.3	53.9
2025-07-06T13:55	10	56	0.1	56	56	420	0.3	419	420	20.3	53.2
2025-07-06T13:56	10	56	0.3	56	57	419	0.7	418	420	20.3	53.2
2025-07-06T13:57	10	58	0.6	57	59	419	0.8	418	421	20.3	53.7
2025-07-06T13:58	10	60	0.6	59	61	421	0.4	420	422	20.4	54.2
2025-07-06T13:59	10	61	0.1	60	61	422	0.3	421	423	20.4	53.8
2025-07-06T14:00	10	60	0.6	59	61	422	0.4	421	423	20.5	53.2
2025-07-06T14:01	10	57	0.8	56	59	422	0.5	422	423	20.4	53.5
2025-07-06T14:02	10	55	0.8	53	56	422	0.6	421	424	20.5	53.3
2025-07-06T14:03	10	52	0.9	50	54	421	0.8	420	422	20.5	52.2
2025-07-06T14:04	10	49	0.8	48	50	420	0.3	419	420	20.5	52.2
2025-07-06T14:05	10	46	0.7	45	48	420	0.5	419	421	20.5	52.7
2025-07-06T14:06	10	44	0.6	43	45	419	0.5	418	420	20.6	52.9
2025-07-06T14:07	10	42	0.6	41	43	418	0.3	417	419	20.7	52.3
2025-07-06T14:08	10	41	0.5	40	41	419	0.4	418	420	20.7	52.2
2025-07-06T14:09	10	39	0.6	38	40	418	0.5	417	419	20.7	52.5
2025-07-06T14:10	10	37	0.6	36	38	417	0.5	417	418	20.7	51.8
2025-07-06T14:11	10	35	0.3	35	36	417	0.4	416	418	20.7	51.7
2025-07-06T14:12	10	34	0.4	33	35	417	0.2	416	417	20.7	51.8
2025-07-06T14:13	10	33	0.2	33	34	417	0.4	416	418	20.7	51.5
2025-07-06T14:14	10	33	0.3	33	34	416	0.2	416	417	20.8	50.3
2025-07-06T14:15	10	34	0.2	34	35	416	0.3	416	417	20.8	50.0
2025-07-06T14:16	10	34	0.4	33	35	416	0.3	415	417	20.8	50.2
2025-07-06T14:17	10	32	0.5	32	33	416	0.3	416	417	20.8	50.1
2025-07-06T14:18	10	31	0.2	31	31	416	0.2	416	416	20.8	50.5
2025-07-06T14:19	10	31	0.2	31	32	416	0.2	416	417	20.8	50.7
2025-07-06T14:20	10	32	0.2	31	32	416	0.4	415	416	20.8	49.8
2025-07-06T14:21	10	32	0.1	32	32	416	0.3	415	417	20.8	50.3
2025-07-06T14:22	10	32	0.2	32	33	416	0.3	415	417	20.8	50.4
2025-07-06T14:23	10	34	0.5	33	35	416	0.3	415	416	20.9	48.9
2025-07-06T14:24	10	36	1.0	35	38	416	0.3	416	417	20.9	49.3
2025-07-06T14:25	10	40	1.3	38	42	417	0.9	416	419	20.9	50.3
2025-07-06T14:26	10	45	1.4	43	47	418	0.4	417	419	20.9	49.5
2025-07-06T14:27	10	49	1.1	47	51	419	0.4	418	420	20.9	49.6
2025-07-06T14:28	10	52	0.2	51	52	420	0.5	419	421	20.9	49.3
2025-07-06T14:29	10	50	0.8	49	51	421	0.3	420	422	21.0	49.3
2025-07-06T14:30	10	48	0.4	47	49	421	0.3	421	422	21.1	49.3
2025-07-06T14:31	10	47	0.2	46	47	421	0.8	419	422	21.1	48.6
2025-07-06T14:32	10	45	0.6	44	46	420	0.3	419	420	21.1	48.2
2025-07-06T14:33	10	43	0.6	42	44	420	0.4	419	420	21.1	48.4
2025-07-06T14:34	10	42	0.2	42	43	419	0.4	418	420	21.1	49.0
2025-07-06T14:35	10	44	1.3	42	47	420	0.4	419	421	21.1	49.0
2025-07-06T14:36	10	50	1.6	47	52	421	0.4	420	422	21.2	48.9
2025-07-06T14:37	10	53	1.1	52	55	422	0.4	421	422	21.2	49.0
2025-07-06T14:38	10	54	0.4	54	55	423	0.5	422	424	21.2	49.0
2025-07-06T14:39	10	53	0.5	52	54	423	0.8	422	425	21.3	48.7
2025-07-06T14:40	10	52	0.3	51	52	423	0.5	422	423	21.3	48.4
2025-07-06T14:41	10	51	0.4	51	52	423	0.5	422	424	21.5	48.1
2025-07-06T14:42	10	55	1.6	53	58	423	0.5	422	425	21.5	47.4
2025-07-06T14:43	10	62	2.8	58	68	425	0.8	424	427	21.6	47.2
2025-07-06T14:44	10	75	4.1	68	84	427	0.4	426	428	21.6	46.6
2025-07-06T14:45	10	94	5.9	84	104	429	1.0	428	431	21.7	45.8
2025-07-06T14:46	10	126	13.1	104	145	435	2.9	431	439	22.0	44.9
2025-07-06T14:47	10	144	14.9	119	169	441	1.6	438	443	22.2	43.5
2025-07-06T14:48	10	119	6.4	112	136	439	1.3	438	443	22.4	42.9
2025-07-06T14:49	10	136	10.1	123	157	441	1.4	439	443	22.4	42.6
2025-07-06T14:50	10	125	7.6	113	136	442	0.8	440	443	22.4	42.8
2025-07-06T14:51	10	134	8.2	116	148	444	1.9	440	446	22.6	42.4
2025-07-06T14:52	10	104	5.2	96	116	442	3.4	437	446	22.8	41.8
2025-07-06T14:53	10	92	2.2	89	97	438	0.4	436	439	22.8	41.7
2025-07-06T14:54	10	87	1.0	86	89	436	0.8	435	438	22.7	41.8
2025-07-06T14:55	10	85	0.4	84	86	436	1.1	433	437	22.7	41.6
2025-07-06T14:56	10	85	0.7	83	86	433	0.7	432	435	22.6	40.4
2025-07-06T14:57	10	81	1.0	80	83	432	0.5	431	433	22.6	40.5
2025-07-06T14:58	10	78	1.4	75	80	432	0.6	431	433	22.6	40.7
2025-07-06T14:59	10	73	1.4	70	75	432	1.1	430	434	22.7	40.7
2025-07-06T15:00	10	69	0.9	67	70	432	0.3	431	432	22.6	41.0
2025-07-06T15:01	10	66	0.6	65	67	431	0.7	429	432	22.6	40.8
2025-07-06T15:02	10	65	0.5	64	65	430	0.5	429	431	22.6	41.1
2025-07-06T15:03	10	63	0.5	62	64	429	0.4	429	430	22.5	41.1
2025-07-06T15:04	10	62	0.2	61	62	429	0.5	428	430	22.5	41.4
2025-07-06T15:05	10	61	0.3	61	62	429	0.8	428	430	22.5	41.7
2025-07-06T15:06	10	60	0.2	60	61	429	0.3	428	429	22.5	41.8
2025-07-06T15:07	10	60	0.2	59	60	429	0.3	428	430	22.5	42.0
2025-07-06T15:08	10	59	0.2	58	59	429	0.3	428	429	22.4	42.0
2025-07-06T15:09	10	58	0.3	57	58	428	0.2	428	429	22.4	42.6
2025-07-06T15:10	10	57	0.1	57	57	426	1.1	424	428	22.4	42.8
2025-07-06T15:11	10	57	0.1	57	57	425	0.4	424	426	22.2	43.5
2025-07-06T15:12	10	58	0.4	57	59	425	0.5	424	426	22.1	44.0
2025-07-06T15:13	10	60	0.8	59	61	424	0.6	423	425	22.0	43.9
2025-07-06T15:14	10	63	1.4	61	66	424	0.5	423	425	21.8	43.2
2025-07-06T15:15	10	68	2.1	66	72	423	0.3	423	424	21.6	43.6
2025-07-06T15:16	10	73	1.1	72	78	425	0.8	424	427	21.7	44.5
2025-07-06T15:17	10	78	1.5	76	81	426	0.5	425	427	21.6	44.6
2025-07-06T15:18	10	79	0.8	77	80	427	0.6	426	428	21.6	45.2
2025-07-06T15:19	10	73	1.4	71	77	428	0.4	427	429	21.7	45.5
2025-07-06T15:20	10	70	0.8	69	71	427	0.4	426	428	21.7	45.7
2025-07-06T15:21	10	68	1.0	66	69	427	0.4	426	428	21.7	45.8
2025-07-06T15:22	10	64	0.9	63	66	426	0.4	425	427	21.7	46.0
2025-07-06T15:23	10	61	1.1	59	63	426	0.5	425	427	21.7	46.2
2025-07-06T15:24	10	57	1.1	55	59	424	0.5	423	425	21.5	45.8
2025-07-06T15:25	10	53	1.0	52	55	424	0.6	423	425	21.5	46.2
2025-07-06T15:26	10	50	0.7	49	52	424	0.3	423	425	21.5	46.2
2025-07-06T15:27	10	48	0.5	48	49	423	0.5	422	424	21.5	46.0
2025-07-06T15:28	10	47	0.2	47	48	423	0.4	422	423	21.4	45.8
2025-07-06T15:29	10	48	0.3	47	48	423	0.4	422	424	21.5	46.2
2025-07-06T15:30	10	49	0.6	48	50	424	0.9	423	426	21.5	46.3
2025-07-06T15:31	10	51	0.6	50	52	426	0.4	425	426	21.6	46.5
2025-07-06T15:32	10	53	0.5	52	54	427	0.7	425	428	21.6	46.6
2025-07-06T15:33	10	53	0.1	53	54	427	0.3	426	428	21.6	46.4
2025-07-06T15:34	10	53	0.4	52	53	427	0.6	426	428	21.7	46.5
2025-07-06T15:35	10	51	0.7	50	52	426	0.4	425	427	21.6	46.0
2025-07-06T15:36	10	48	1.1	46	50	426	0.4	425	426	21.6	46.1
2025-07-06T15:37	10	44	1.2	42	46	426	0.5	425	427	21.7	46.3
2025-07-06T15:38	10	40	0.9	39	42	425	0.8	424	426	21.7	45.4
2025-07-06T15:39	10	38	0.6	37	39	424	0.2	424	425	21.8	45.1
2025-07-06T15:40	10	36	0.5	35	37	423	0.8	422	424	21.7	44.7
2025-07-06T15:41	10	34	0.6	33	35	422	0.4	421	423	21.6	45.1
2025-07-06T15:42	10	32	0.4	31	33	422	0.3	421	422	21.6	45.3
2025-07-06T15:43	10	31	0.2	31	32	422	0.2	421	422	21.7	45.2
2025-07-06T15:44	10	31	0.1	31	31	421	0.2	420	421	21.6	44.6
2025-07-06T15:45	10	31	0.3	31	32	421	0.3	421	422	21.6	44.9
2025-07-06T15:46	10	33	0.5	32	34	421	0.2	421	422	21.7	44.6
2025-07-06T15:47	10	34	0.1	34	34	422	0.4	421	423	21.6	44.4
2025-07-06T15:48	10	34	0.2	33	34	422	0.2	421	422	21.6	43.6
2025-07-06T15:49	10	33	0.1	33	34	422	0.3	421	422	21.6	43.2
2025-07-06T15:50	10	34	0.4	33	35	421	0.2	421	422	21.6	43.4
2025-07-06T15:51	10	34	0.2	34	34	421	0.3	420	422	21.6	43.2
2025-07-06T15:52	10	34	0.1	33	34	422	0.3	421	422	21.7	42.6
2025-07-06T15:53	10	33	0.1	33	33	421	0.4	421	422	21.7	42.5
2025-07-06T15:54	10	32	0.7	31	33	421	0.3	420	421	21.7	42.2
2025-07-06T15:55	10	30	0.5	29	31	421	0.4	420	421	21.7	41.8
2025-07-06T15:56	10	28	0.4	27	29	420	0.3	419	421	21.7	41.6
2025-07-06T15:57	10	27	0.3	26	28	419	0.3	419	420	21.7	41.4
2025-07-06T15:58	10	26	0.2	26	27	418	0.5	417	419	21.6	41.5
2025-07-06T15:59	10	26	0.2	25	26	417	0.3	417	418	21.6	41.8
2025-07-06T16:00	10	25	0.2	24	25	417	0.3	416	418	21.5	42.3
2025-07-06T16:01	10	24	0.3	23	24	416	0.4	415	417	21.4	42.2
2025-07-06T16:02	10	23	0.3	22	23	416	0.2	415	416	21.3	42.1
2025-07-06T16:03	10	22	0.4	21	22	415	0.3	415	416	21.2	42.2
2025-07-06T16:04	10	21	0.3	20	21	415	0.2	415	416	21.2	42.3
2025-07-06T16:05	10	20	0.2	19	20	415	0.3	414	416	21.2	42.7
2025-07-06T16:06	10	19	0.2	19	19	415	0.3	415	416	21.2	42.6
2025-07-06T16:07	10	18	0.1	18	19	415	0.3	415	416	21.2	42.7
2025-07-06T16:08	10	18	0.2	17	18	415	0.3	414	415	21.2	41.6
2025-07-06T16:09	10	17	0.2	17	17	415	0.2	414	415	21.3	41.9
2025-07-06T16:10	10	17	0.1	16	17	415	0.3	414	415	21.2	42.0
2025-07-06T16:11	10	16	0.1	16	17	414	0.2	414	415	21.2	42.3
2025-07-06T16:12	10	16	0.1	16	16	414	0.2	413	414	21.2	42.0
2025-07-06T16:13	10	16	0.1	16	16	414	0.2	413	414	21.2	42.1
2025-07-06T16:14	10	16	0.1	16	16	414	0.3	413	415	21.2	42.0
2025-07-06T16:15	10	16	0.1	16	16	414	0.2	414	415	21.2	42.2
2025-07-06T16:16	10	16	0.1	16	16	414	0.2	413	414	21.1	43.1
2025-07-06T16:17	10	16	0.1	16	16	414	0.2	414	414	21.0	43.6
2025-07-06T16:18	10	16	0.2	16	17	414	0.4	413	415	21.0	43.9
2025-07-06T16:19	10	17	0.3	17	18	414	0.3	413	415	21.0	44.3
2025-07-06T16:20	10	18	0.2	17	18	414	0.2	414	414	20.9	44.8
2025-07-06T16:21	10	18	0.1	18	19	414	0.2	414	415	20.8	45.5
2025-07-06T16:22	10	18	0.1	18	19	414	0.3	413	415	20.8	45.8
2025-07-06T16:23	10	18	0.1	18	19	414	0.4	413	415	20.7	46.1
2025-07-06T16:24	10	18	0.1	18	19	413	0.3	413	414	20.6	46.7
2025-07-06T16:25	10	18	0.2	18	18	413	0.2	413	414	20.6	46.9
2025-07-06T16:26	10	17	0.2	17	18	413	0.3	412	414	20.5	47.1
2025-07-06T16:27	10	17	0.1	16	17	413	0.2	412	413	20.5	47.3
2025-07-06T16:28	10	16	0.1	16	17	413	0.2	412	413	20.5	47.3
2025-07-06T16:29	10	16	0.1	16	17	412	0.3	412	413	20.5	47.1
2025-07-06T16:30	10	16	0.1	16	17	412	0.3	411	412	20.4	47.3
2025-07-06T16:31	10	16	0.1	16	17	412	0.3	411	412	20.4	47.1
2025-07-06T16:32	10	16	0.1	16	16	412	0.2	411	412	20.4	47.2
2025-07-06T16:33	10	16	0.1	16	17	412	0.3	411	412	20.3	47.3
2025-07-06T16:34	10	16	0.1	16	16	411	0.2	411	412	20.3	47.5
2025-07-06T16:35	10	16	0.1	16	17	412	0.2	411	412	20.3	47.5
2025-07-06T16:36	10	16	0.1	16	16	411	0.3	411	412	20.3	47.5
2025-07-06T16:37	10	16	0.1	16	16	411	0.3	410	412	20.2	47.5
2025-07-06T16:38	10	16	0.1	16	16	411	0.2	410	411	20.2	47.8
2025-07-06T16:39	10	16	0.1	16	16	411	0.2	410	411	20.2	47.7
2025-07-06T16:40	10	16	0.1	16	16	411	0.3	410	412	20.2	47.4
2025-07-06T16:41	10	16	0.1	16	16	410	0.2	410	411	20.2	46.8
2025-07-06T16:42	10	16	0.1	16	16	411	0.3	410	411	20.2	47.2
2025-07-06T16:43	10	16	0.1	15	16	411	0.2	410	411	20.2	46.9
2025-07-06T16:44	10	16	0.1	15	16	411	0.2	410	411	20.2	47.1
2025-07-06T16:45	10	15	0.1	15	16	410	0.3	409	411	20.2	47.3
2025-07-06T16:46	10	15	0.1	15	16	410	0.3	410	411	20.2	47.1
2025-07-06T16:47	10	15	0.1	15	16	411	0.3	410	411	20.2	47.0
2025-07-06T16:48	10	16	0.2	15	16	411	0.3	410	411	20.2	46.4
2025-07-06T16:49	10	16	0.2	16	17	411	0.2	410	411	20.2	46.5
2025-07-06T16:50	10	17	0.1	16	17	411	0.3	410	411	20.2	46.2
2025-07-06T16:51	10	17	0.1	17	17	411	0.2	410	411	20.2	45.8
2025-07-06T16:52	10	17	0.1	17	17	411	0.2	410	411	20.2	46.0
2025-07-06T16:53	10	17	0.1	17	17	411	0.3	410	411	20.1	46.1
2025-07-06T16:54	10	17	0.1	17	17	411	0.3	410	412	20.1	46.1
2025-07-06T16:55	10	17	0.1	16	17	411	0.2	410	411	20.2	45.8
2025-07-06T16:56	10	16	0.1	16	17	411	0.2	410	411	20.2	45.6
2025-07-06T16:57	10	16	0.1	16	16	410	0.2	410	411	20.2	45.6
2025-07-06T16:58	10	16	0.1	16	17	411	0.2	410	411	20.2	45.7
2025-07-06T16:59	10	17	0.2	16	17	411	0.2	410	411	20.2	45.6
2025-07-06T17:00	10	17	0.2	17	18	411	0.3	410	411	20.2	45.5
2025-07-06T17:01	10	17	0.1	17	18	411	0.2	411	412	20.2	45.8
2025-07-06T17:02	10	17	0.1	17	18	411	0.2	411	412	20.2	45.5
2025-07-06T17:03	10	17	0.1	17	18	411	0.2	411	412	20.2	45.3
2025-07-06T17:04	10	17	0.2	17	17	411	0.2	411	412	20.2	45.3
2025-07-06T17:05	10	16	0.2	16	17	411	0.3	410	411	20.2	45.5
2025-07-06T17:06	10	16	0.2	15	16	411	0.2	410	411	20.2	45.3
2025-07-06T17:07	10	15	0.3	14	15	411	0.2	410	411	20.2	45.4
2025-07-06T17:08	10	14	0.2	14	14	411	0.3	410	411	20.2	45.5
2025-07-06T17:09	10	13	0.3	13	14	410	0.3	410	411	20.3	45.2
2025-07-06T17:10	10	12	0.3	12	13	410	0.2	410	411	20.3	45.1
2025-07-06T17:11	10	11	0.3	11	12	410	0.2	409	410	20.3	45.0
2025-07-06T17:12	10	11	0.1	10	11	410	0.2	409	410	20.2	45.1
2025-07-06T17:13	10	10	0.1	10	11	409	0.2	409	410	20.2	45.4
2025-07-06T17:14	10	10	0.1	10	11	409	0.3	409	410	20.2	45.0
2025-07-06T17:15	10	11	0.1	10	11	409	0.3	409	410	20.2	45.3
2025-07-06T17:16	10	11	0.2	11	11	409	0.3	409	410	20.2	45.3
2025-07-06T17:17	10	12	0.2	11	12	409	0.2	409	410	20.2	45.2
2025-07-06T17:18	10	13	0.3	12	13	410	0.2	409	410	20.2	45.5
2025-07-06T17:19	10	14	0.4	13	14	410	0.2	409	410	20.2	45.6
2025-07-06T17:20	10	15	0.3	14	15	410	0.3	410	411	20.2	45.8
2025-07-06T17:21	10	16	0.3	15	16	411	0.3	410	412	20.2	46.1
2025-07-06T17:22	10	17	0.3	16	17	411	0.3	410	411	20.2	46.3
2025-07-06T17:23	10	18	0.2	18	18	410	0.2	410	411	20.1	46.2
2025-07-06T17:24	10	18	0.2	18	19	410	0.2	410	411	20.1	46.9
2025-07-06T17:25	10	19	0.3	19	20	411	0.2	410	411	20.1	46.9
2025-07-06T17:26	10	20	0.3	20	21	411	0.3	410	412	20.1	47.0
2025-07-06T17:27	10	21	0.1	20	21	412	0.3	411	412	20.1	47.1
2025-07-06T17:28	10	20	0.1	20	21	412	0.2	412	413	20.1	47.5
2025-07-06T17:29	10	20	0.2	19	20	412	0.2	411	412	20.1	47.6
2025-07-06T17:30	10	19	0.3	18	19	411	0.5	410	412	20.1	47.8
2025-07-06T17:31	10	18	0.2	18	19	411	0.3	410	411	20.0	47.5
2025-07-06T17:32	10	17	0.3	17	18	410	0.3	409	410	20.0	47.4
2025-07-06T17:33	10	16	0.3	16	17	409	0.2	409	410	19.9	47.5
2025-07-06T17:34	10	16	0.2	15	16	409	0.2	409	409	19.9	47.6
2025-07-06T17:35	10	15	0.1	15	15	409	0.2	408	409	19.9	47.9
2025-07-06T17:36	10	15	0.1	15	15	409	0.3	408	410	19.9	48.1
2025-07-06T17:37	10	15	0.1	15	15	409	0.2	408	409	19.9	48.0
2025-07-06T17:38	10	15	0.0	15	15	409	0.2	408	410	19.9	48.3
2025-07-06T17:39	10	15	0.1	14	15	409	0.2	409	410	19.9	48.3
2025-07-06T17:40	10	14	0.2	14	15	409	0.2	408	409	19.9	47.8
2025-07-06T17:41	10	14	0.2	13	14	409	0.2	408	409	19.9	47.8
2025-07-06T17:42	10	13	0.2	13	13	408	0.2	408	409	19.8	47.9
2025-07-06T17:43	10	12	0.3	12	13	408	0.2	408	409	19.8	48.0
2025-07-06T17:44	10	11	0.2	11	12	408	0.2	407	408	19.8	48.0
2025-07-06T17:45	10	11	0.2	10	11	407	0.2	407	408	19.8	47.6
2025-07-06T17:46	10	10	0.2	9	10	407	0.3	406	407	19.7	47.5
2025-07-06T17:47	10	9	0.1	9	10	407	0.2	406	407	19.7	47.8
2025-07-06T17:48	10	9	0.1	9	9	407	0.2	406	407	19.7	48.0
2025-07-06T17:49	10	9	0.1	9	9	407	0.2	406	407	19.7	48.3
2025-07-06T17:50	10	9	0.1	8	9	406	0.2	406	407	19.7	48.0
2025-07-06T17:51	10	8	0.2	8	9	406	0.2	406	407	19.7	47.5
2025-07-06T17:52	10	8	0.1	8	8	406	0.2	406	407	19.7	47.3
2025-07-06T17:53	10	7	0.2	7	8	406	0.2	405	406	19.6	47.6
2025-07-06T17:54	10	7	0.2	6	7	406	0.2	405	406	19.6	47.5
2025-07-06T17:55	10	6	0.2	6	6	405	0.2	405	406	19.6	47.6
2025-07-06T17:56	10	6	0.2	5	6	405	0.2	405	406	19.6	48.1
2025-07-06T17:57	10	5	0.1	5	5	405	0.3	404	405	19.6	48.2
2025-07-06T17:58	10	5	0.1	4	5	403	0.5	402	404	19.5	48.6
2025-07-06T17:59	10	4	0.1	4	4	402	0.5	401	403	19.5	49.3
2025-07-06T18:00	10	4	0.2	4	4	401	0.4	400	401	19.4	49.7
2025-07-06T18:01	10	3	0.1	3	4	400	0.2	399	401	19.4	50.1
2025-07-06T18:02	10	3	0.1	3	3	400	0.3	399	400	19.3	50.3
2025-07-06T18:03	10	3	0.1	3	3	400	0.2	399	400	19.2	50.6
2025-07-06T18:04	10	3	0.2	2	3	400	0.4	399	401	19.3	50.2
2025-07-06T18:05	10	2	0.1	2	3	400	0.2	399	400	19.2	50.6
2025-07-06T18:06	10	2	0.1	2	3	400	0.3	399	401	19.2	50.5
2025-07-06T18:07	10	2	0.2	2	3	400	0.3	399	401	19.2	50.4
2025-07-06T18:08	10	2	0.2	2	3	400	0.4	400	401	19.2	50.0
2025-07-06T18:09	10	2	0.2	2	3	400	0.3	399	401	19.2	50.1
2025-07-06T18:10	10	3	0.1	2	3	400	0.2	400	401	19.2	49.9
2025-07-06T18:11	10	3	0.2	2	3	400	0.3	399	401	19.3	49.6
2025-07-06T18:12	10	3	0.1	3	3	401	0.3	400	401	19.3	49.9
2025-07-06T18:13	10	3	0.2	3	4	401	0.2	400	401	19.3	49.5
2025-07-06T18:14	10	3	0.2	3	4	401	0.3	400	401	19.3	49.5
2025-07-06T18:15	10	3	0.2	3	4	401	0.3	400	401	19.3	49.5
2025-07-06T18:16	10	4	0.2	3	4	400	0.3	399	401	19.3	49.8
2025-07-06T18:17	10	4	0.2	3	4	400	0.3	399	401	19.2	50.5
2025-07-06T18:18	10	4	0.1	3	4	400	0.3	399	400	19.2	50.4
2025-07-06T18:19	10	4	0.1	4	4	399	0.4	398	400	19.1	50.9
2025-07-06T18:20	10	4	0.1	4	4	398	0.4	398	399	19.1	51.0
2025-07-06T18:21	10	4	0.1	3	4	398	0.3	397	399	19.1	51.7
2025-07-06T18:22	10	4	0.2	3	4	397	0.3	396	398	19.0	53.1
2025-07-06T18:23	10	4	0.2	3	4	397	0.3	396	397	18.9	53.2
2025-07-06T18:24	10	3	0.1	3	4	396	0.3	396	397	18.8	53.5
2025-07-06T18:25	10	3	0.1	3	4	396	0.2	395	396	18.8	54.2
2025-07-06T18:26	10	3	0.2	3	3	396	0.3	395	396	18.7	55.3
2025-07-06T18:27	10	3	0.2	2	3	395	0.2	395	396	18.6	56.3
2025-07-06T18:28	10	2	0.1	2	3	395	0.2	394	396	18.5	56.8
2025-07-06T18:29	10	2	0.1	2	2	395	0.2	395	396	18.4	57.4
2025-07-06T18:30	10	2	0.1	2	2	395	0.2	395	396	18.4	57.9
2025-07-06T18:31	10	2	0.1	2	2	395	0.3	394	396	18.3	59.0
2025-07-06T18:32	10	2	0.1	2	2	396	0.3	395	396	18.3	58.9
2025-07-06T18:33	10	2	0.1	2	2	395	0.3	395	396	18.3	57.6
2025-07-06T18:34	10	2	0.1	2	2	395	0.3	394	395	18.4	57.5
2025-07-06T18:35	10	2	0.1	2	2	395	0.2	394	395	18.3	58.7
2025-07-06T18:36	10	2	0.1	2	2	394	0.2	394	395	18.2	58.7
2025-07-06T18:37	10	2	0.1	2	2	394	0.2	393	394	18.2	59.3
2025-07-06T18:38	10	2	0.0	2	2	394	0.2	393	394	18.1	60.2
2025-07-06T18:39	10	2	0.1	2	2	394	0.2	393	394	18.0	60.5
2025-07-06T18:40	10	2	0.1	2	2	394	0.2	393	394	18.0	61.0
2025-07-06T18:41	10	2	0.1	2	2	394	0.2	393	394	18.0	61.4
2025-07-06T18:42	10	2	0.1	2	2	393	0.2	393	394	17.9	62.4
2025-07-06T18:43	10	2	0.1	2	2	393	0.2	393	394	17.8	63.3
2025-07-06T18:44	10	2	0.1	2	2	393	0.3	392	394	17.7	63.5
2025-07-06T18:45	10	2	0.1	2	2	393	0.2	392	393	17.6	64.4
2025-07-06T18:46	10	2	0.1	2	2	393	0.2	392	393	17.5	65.5
2025-07-06T18:47	10	2	0.1	2	2	393	0.3	392	393	17.6	64.3
2025-07-06T18:48	10	2	0.1	2	2	393	0.3	392	393	17.6	64.3
2025-07-06T18:49	10	2	0.1	2	2	392	0.2	392	393	17.6	64.6
2025-07-06T18:50	10	2	0.1	2	2	392	0.2	392	393	17.5	64.6
2025-07-06T18:51	10	2	0.1	2	2	392	0.2	392	393	17.5	64.9
2025-07-06T18:52	10	2	0.1	2	2	392	0.2	392	393	17.5	64.8
2025-07-06T18:53	10	2	0.1	2	2	393	0.2	392	393	17.5	64.7
2025-07-06T18:54	10	2	0.1	2	2	393	0.2	392	393	17.6	62.9
2025-07-06T18:55	10	2	0.1	2	2	392	0.2	392	393	17.6	64.4
2025-07-06T18:56	10	2	0.1	2	2	393	0.3	392	393	17.5	65.0
2025-07-06T18:57	10	2	0.1	2	2	393	0.3	392	393	17.5	64.6
2025-07-06T18:58	10	2	0.1	2	2	393	0.2	392	393	17.5	65.3
2025-07-06T18:59	10	2	0.1	2	3	393	0.2	392	393	17.5	65.0
2025-07-06T19:00	10	3	0.1	2	3	393	0.2	392	394	17.4	66.3
2025-07-06T19:01	10	3	0.2	3	4	394	0.3	393	394	17.6	64.0
2025-07-06T19:02	10	4	0.2	3	4	393	0.3	392	394	17.8	63.6
2025-07-06T19:03	10	4	0.1	4	5	393	0.5	392	393	17.7	64.6
2025-07-06T19:04	10	5	0.1	5	5	393	0.3	392	393	17.4	66.5
2025-07-06T19:05	10	5	0.1	4	5	393	0.3	392	393	17.4	67.8
2025-07-06T19:06	10	4	0.1	4	5	393	0.2	392	393	17.3	68.0
2025-07-06T19:07	10	4	0.1	4	4	393	0.2	393	394	17.4	67.9
2025-07-06T19:08	10	4	0.1	3	4	393	0.2	392	393	17.4	68.9
2025-07-06T19:09	10	4	0.1	3	4	393	0.3	392	394	17.4	69.8
2025-07-06T19:10	10	4	0.1	4	4	393	0.3	393	394	17.4	69.9
2025-07-06T19:11	10	4	0.1	4	4	393	0.3	393	394	17.3	70.4
2025-07-06T19:12	10	4	0.1	3	4	393	0.3	393	394	17.3	71.1
2025-07-06T19:13	10	3	0.1	3	4	393	0.2	392	394	17.3	70.8
2025-07-06T19:14	10	3	0.1	3	3	393	0.3	393	394	17.4	70.3
2025-07-06T19:15	10	3	0.1	3	3	393	0.2	393	394	17.4	70.5
2025-07-06T19:16	10	3	0.1	3	3	393	0.2	393	394	17.4	70.4
2025-07-06T19:17	10	3	0.1	3	3	394	0.2	393	394	17.4	70.1
2025-07-06T19:18	10	3	0.1	3	3	393	0.2	393	394	17.5	69.6
2025-07-06T19:19	10	3	0.1	3	3	393	0.2	393	394	17.4	69.8
2025-07-06T19:20	10	3	0.1	3	3	393	0.2	393	394	17.4	70.1
2025-07-06T19:21	10	3	0.1	2	3	393	0.2	393	394	17.4	70.0
2025-07-06T19:22	10	2	0.1	2	2	393	0.3	393	394	17.4	69.7
2025-07-06T19:23	10	2	0.1	2	2	393	0.2	393	393	17.5	69.8
2025-07-06T19:24	10	2	0.1	1	2	393	0.2	392	393	17.3	71.0
2025-07-06T19:25	10	1	0.1	1	2	393	0.3	392	394	17.3	71.2
2025-07-06T19:26	10	1	0.1	1	1	393	0.2	392	394	17.3	71.0
2025-07-06T19:27	10	1	0.1	1	1	393	0.2	392	393	17.2	71.9
2025-07-06T19:28	10	1	0.1	0	1	393	0.2	392	393	17.3	71.4
2025-07-06T19:29	10	1	0.1	0	1	393	0.2	392	393	17.3	71.4
2025-07-06T19:30	10	1	0.1	0	1	393	0.3	392	393	17.3	71.4
2025-07-06T19:31	10	1	0.1	1	1	393	0.2	393	393	17.3	71.0
2025-07-06T19:32	10	1	0.1	1	1	393	0.2	393	394	17.3	71.3
2025-07-06T19:33	10	1	0.1	1	1	393	0.2	393	394	17.3	71.0
2025-07-06T19:34	10	1	0.1	1	1	393	0.2	393	393	17.3	71.4
2025-07-06T19:35	10	0	0.1	0	1	393	0.2	392	393	17.3	71.6
2025-07-06T19:36	10	0	0.1	0	1	393	0.2	393	393	17.2	72.0
2025-07-06T19:37	10	0	0.1	0	0	393	0.2	392	393	17.2	72.3
2025-07-06T19:38	10	0	0.1	0	0	393	0.2	392	393	17.2	72.4
2025-07-06T19:39	10	0	0.1	0	0	392	0.2	392	393	17.1	73.1
2025-07-06T19:40	10	0	0.1	0	0	392	0.2	392	393	17.1	73.2
2025-07-06T19:41	10	0	0.1	0	0	392	0.2	392	392	17.0	73.6
2025-07-06T19:42	10	0	0.1	0	0	392	0.2	392	393	17.0	73.1
2025-07-06T19:43	10	0	0.1	0	0	392	0.2	392	392	17.1	73.1
2025-07-06T19:44	10	0	0.1	0	0	392	0.2	391	393	17.1	72.7
2025-07-06T19:45	10	0	0.1	0	0	392	0.2	392	393	17.0	73.3
2025-07-06T19:46	10	0	0.1	0	0	392	0.2	392	392	17.0	73.3
2025-07-06T19:47	10	0	0.1	0	0	392	0.2	391	392	17.0	72.9
2025-07-06T19:48	10	0	0.0	0	0	392	0.3	391	393	17.0	72.8
2025-07-06T19:49	10	0	0.0	0	0	392	0.2	391	392	17.0	72.5
2025-07-06T19:50	10	0	0.1	0	0	392	0.3	391	393	17.0	72.8
2025-07-06T19:51	10	0	0.1	0	0	392	0.2	391	392	17.0	72.3
2025-07-06T19:52	10	0	0.1	0	0	392	0.3	391	392	17.0	72.4
2025-07-06T19:53	10	0	0.0	0	0	392	0.2	392	392	17.1	72.1
2025-07-06T19:54	10	0	0.1	0	0	392	0.2	391	392	17.0	71.8
2025-07-06T19:55	10	0	0.0	0	0	392	0.2	391	392	17.0	71.9
2025-07-06T19:56	10	0	0.1	0	0	392	0.2	391	392	17.1	71.6
2025-07-06T19:57	10	0	0.1	0	0	392	0.2	391	392	17.0	72.1
2025-07-06T19:58	10	0	0.1	0	0	392	0.2	391	392	17.0	71.9
2025-07-06T19:59	10	0	0.1	0	0	392	0.2	391	392	17.0	72.0
2025-07-06T20:00	10	0	0.1	0	0	392	0.2	392	392	17.0	71.8
2025-07-06T20:01	10	0	0.1	0	0	392	0.2	391	392	17.1	71.8
2025-07-06T20:02	10	0	0.1	0	0	392	0.2	391	392	17.0	72.2
2025-07-06T20:03	10	0	0.1	0	0	392	0.2	391	392	17.0	72.2
2025-07-06T20:04	10	0	0.1	0	0	392	0.2	391	392	17.1	70.1
2025-07-06T20:05	10	0	0.1	0	0	391	0.2	391	392	17.1	69.8
2025-07-06T20:06	10	0	0.1	0	0	392	0.3	391	392	17.1	69.8
2025-07-06T20:07	10	0	0.1	0	0	392	0.2	391	392	17.2	67.7
2025-07-06T20:08	10	0	0.1	0	0	391	0.2	391	392	17.2	66.3
2025-07-06T20:09	10	0	0.1	0	0	391	0.2	391	392	17.2	65.9
2025-07-06T20:10	10	0	0.1	0	0	391	0.2	391	392	17.2	66.5
2025-07-06T20:11	10	0	0.1	0	0	391	0.2	391	392	17.2	66.4
2025-07-06T20:12	10	0	0.1	0	0	391	0.2	391	392	17.2	65.8
2025-07-06T20:13	10	0	0.1	0	0	391	0.2	391	391	17.2	66.6
2025-07-06T20:14	10	0	0.1	0	0	391	0.2	391	391	17.2	67.0
2025-07-06T20:15	10	0	0.1	0	0	391	0.2	391	392	17.2	66.8
2025-07-06T20:16	10	0	0.1	0	0	391	0.2	390	392	17.2	66.3
2025-07-06T20:17	10	0	0.1	0	0	391	0.2	391	391	17.2	65.9
2025-07-06T20:18	10	0	0.1	0	0	391	0.2	391	392	17.2	66.2
2025-07-06T20:19	10	0	0.1	0	0	391	0.2	391	391	17.2	65.8
2025-07-06T20:20	10	0	0.1	0	0	391	0.2	390	391	17.3	64.9
2025-07-06T20:21	10	0	0.1	0	0	391	0.3	390	392	17.3	65.1
2025-07-06T20:22	10	0	0.1	0	0	391	0.2	390	391	17.3	65.1
2025-07-06T20:23	10	0	0.2	0	0	391	0.3	390	391	17.3	64.4
2025-07-06T20:24	10	0	0.2	0	0	391	0.3	390	392	17.3	64.2
2025-07-06T20:25	10	0	0.1	0	0	391	0.2	390	391	17.3	64.5
2025-07-06T20:26	10	0	0.2	0	0	391	0.2	390	391	17.2	65.0
2025-07-06T20:27	10	0	0.2	0	0	391	0.2	390	391	17.2	65.2
2025-07-06T20:28	10	0	0.1	0	0	391	0.2	390	391	17.2	64.9
2025-07-06T20:29	10	0	0.1	0	0	391	0.2	390	391	17.2	65.3
2025-07-06T20:30	10	0	0.2	0	0	391	0.2	390	391	17.1	66.2
2025-07-06T20:31	10	0	0.1	0	0	391	0.2	390	391	17.0	67.1
2025-07-06T20:32	10	0	0.1	0	0	391	0.3	390	392	17.0	66.6
2025-07-06T20:33	10	0	0.2	-1	0	391	0.3	391	392	17.1	65.3
2025-07-06T20:34	10	0	0.2	0	0	391	0.2	390	392	17.1	64.9
2025-07-06T20:35	10	0	0.2	0	0	391	0.4	390	391	17.1	66.8
2025-07-06T20:36	10	0	0.1	0	0	391	0.3	390	391	16.9	68.3
2025-07-06T20:37	10	0	0.2	0	0	391	0.2	390	391	16.9	68.7
2025-07-06T20:38	10	0	0.1	0	0	391	0.3	390	392	16.9	67.7
2025-07-06T20:39	10	0	0.1	0	0	391	0.3	390	391	16.9	68.2
2025-07-06T20:40	10	0	0.1	0	0	391	0.2	390	391	16.9	68.2
2025-07-06T20:41	10	0	0.2	0	0	391	0.2	390	391	16.9	67.2
2025-07-06T20:42	10	0	0.2	0	0	391	0.2	390	391	16.9	67.7
2025-07-06T20:43	10	0	0.2	0	1	391	0.2	390	391	16.9	67.5
2025-07-06T20:44	10	0	0.1	0	0	391	0.2	390	391	16.8	68.1
2025-07-06T20:45	10	0	0.1	0	0	391	0.2	390	391	16.8	68.1
2025-07-06T20:46	10	0	0.1	0	0	391	0.3	390	391	16.9	67.5
2025-07-06T20:47	10	0	0.1	0	0	391	0.2	390	391	16.9	67.4
2025-07-06T20:48	10	0	0.2	0	1	391	0.3	390	391	16.9	67.7
2025-07-06T20:49	10	0	0.1	0	0	391	0.2	390	391	16.9	68.0
2025-07-06T20:50	10	0	0.1	0	0	391	0.2	390	391	16.9	67.9
2025-07-06T20:51	10	0	0.1	0	0	391	0.2	390	391	16.9	68.1
2025-07-06T20:52	10	0	0.2	0	1	391	0.2	390	391	16.9	68.2
2025-07-06T20:53	10	0	0.1	0	0	391	0.3	390	391	16.9	67.8
2025-07-06T20:54	10	0	0.1	0	0	391	0.2	390	391	16.9	67.9
2025-07-06T20:55	10	0	0.1	0	0	391	0.2	390	391	16.9	68.2
2025-07-06T20:56	10	0	0.1	0	0	391	0.2	390	391	16.9	68.1
2025-07-06T20:57	10	0	0.1	0	0	391	0.2	390	391	16.9	68.3
2025-07-06T20:58	10	0	0.1	0	0	391	0.2	390	391	16.9	68.4
2025-07-06T20:59	10	0	0.1	0	0	391	0.2	390	391	16.9	68.6
2025-07-06T21:00	10	0	0.1	0	0	391	0.2	390	391	16.9	69.0
2025-07-06T21:01	10	0	0.1	0	0	391	0.2	390	391	16.9	69.3
2025-07-06T21:02	10	0	0.1	0	0	391	0.2	390	391	16.9	69.3
2025-07-06T21:03	10	0	0.0	0	0	391	0.2	390	391	16.8	69.7
2025-07-06T21:04	10	0	0.1	0	0	391	0.2	390	391	16.8	69.8
2025-07-06T21:05	10	0	0.1	0	0	391	0.3	390	391	16.9	68.9
2025-07-06T21:06	10	0	0.0	0	0	391	0.2	390	391	16.8	69.4
2025-07-06T21:07	10	0	0.1	0	0	391	0.2	391	391	16.9	68.4
2025-07-06T21:08	10	0	0.1	0	0	391	0.2	390	391	16.9	68.5
2025-07-06T21:09	10	0	0.1	0	0	391	0.2	390	391	16.9	68.4
2025-07-06T21:10	10	0	0.1	0	0	391	0.2	390	391	16.9	68.5
2025-07-06T21:11	10	0	0.1	0	0	391	0.2	390	391	16.9	68.5
2025-07-06T21:12	10	0	0.1	0	0	390	0.2	390	391	16.8	69.3
2025-07-06T21:13	10	0	0.1	0	0	391	0.2	390	391	16.8	68.1
2025-07-06T21:14	10	0	0.0	0	0	391	0.2	390	391	16.9	68.2
2025-07-06T21:15	10	0	0.1	0	0	391	0.3	390	391	16.8	68.5
2025-07-06T21:16	10	0	0.1	0	0	390	0.2	390	391	16.8	68.6
2025-07-06T21:17	10	0	0.1	0	0	390	0.2	390	391	16.8	69.2
2025-07-06T21:18	10	0	0.1	0	0	390	0.3	390	391	16.8	68.8
2025-07-06T21:19	10	0	0.0	0	0	390	0.2	390	391	16.8	69.1
2025-07-06T21:20	10	0	0.1	0	0	390	0.2	390	391	16.7	69.5
2025-07-06T21:21	10	0	0.1	0	0	390	0.2	390	391	16.7	69.6
2025-07-06T21:22	10	0	0.0	0	0	390	0.2	390	391	16.7	69.4
2025-07-06T21:23	10	0	0.1	0	0	390	0.2	390	391	16.7	69.7
2025-07-06T21:24	10	0	0.1	0	0	390	0.2	390	391	16.7	69.6
2025-07-06T21:25	10	0	0.0	0	0	390	0.2	390	391	16.7	69.9
2025-07-06T21:26	10	0	0.1	0	0	390	0.2	390	391	16.6	70.0
2025-07-06T21:27	10	0	0.1	0	0	390	0.3	390	391	16.7	69.9
2025-07-06T21:28	10	0	0.1	0	0	390	0.2	390	391	16.6	70.2
2025-07-06T21:29	10	0	0.0	0	0	390	0.2	390	391	16.6	70.1
2025-07-06T21:30	10	0	0.0	0	0	390	0.2	390	390	16.6	70.2
2025-07-06T21:31	10	0	0.1	0	0	390	0.2	390	391	16.7	70.1
2025-07-06T21:32	10	0	0.1	0	0	390	0.3	390	391	16.7	69.8
2025-07-06T21:33	10	0	0.1	0	0	390	0.3	390	391	16.7	69.7
2025-07-06T21:34	10	0	0.5	0	4	390	0.2	390	391	16.8	68.8
2025-07-06T21:35	10	0	0.1	0	0	391	0.2	390	391	16.8	68.7
2025-07-06T21:36	10	0	0.1	0	0	391	0.2	390	391	16.8	68.7
2025-07-06T21:37	10	0	0.1	0	0	391	0.2	390	391	16.8	68.0
2025-07-06T21:38	10	0	0.1	0	0	391	0.2	390	391	16.8	68.2
2025-07-06T21:39	10	0	0.1	0	0	391	0.2	390	391	16.8	67.8
2025-07-06T21:40	10	0	0.1	0	0	391	0.2	390	391	16.8	68.0
2025-07-06T21:41	10	0	0.1	0	0	391	0.2	390	391	16.9	67.3
2025-07-06T21:42	10	0	0.1	0	0	391	0.2	390	391	16.9	67.2
2025-07-06T21:43	10	0	1.2	0	8	391	0.2	390	391	16.8	67.3
2025-07-06T21:44	10	0	0.1	0	0	391	0.3	390	391	16.8	67.2
2025-07-06T21:45	10	0	0.1	0	0	391	0.3	390	391	16.9	66.9
2025-07-06T21:46	10	0	0.1	0	0	391	0.2	390	391	16.8	67.3
2025-07-06T21:47	10	0	0.1	0	0	391	0.2	390	391	16.8	67.4
2025-07-06T21:48	10	0	0.1	0	0	390	0.2	390	391	16.8	67.8
2025-07-06T21:49	10	0	0.1	0	0	391	0.2	390	391	16.8	67.7
2025-07-06T21:50	10	0	0.1	0	0	391	0.2	390	391	16.9	66.7
2025-07-06T21:51	10	0	0.1	0	0	391	0.2	390	391	16.9	66.7
2025-07-06T21:52	10	0	0.0	0	0	391	0.2	390	391	16.9	66.4
2025-07-06T21:53	10	0	0.1	0	0	391	0.2	390	391	16.9	66.9
2025-07-06T21:54	10	0	0.0	0	0	391	0.2	390	391	16.8	67.1
2025-07-06T21:55	10	0	0.0	0	0	391	0.2	390	391	16.8	67.1
2025-07-06T21:56	10	0	0.0	0	0	391	0.3	390	391	16.8	67.1
2025-07-06T21:57	10	0	0.0	0	0	391	0.3	390	391	16.8	67.2
2025-07-06T21:58	10	0	0.0	0	0	390	0.2	390	391	16.8	67.1
2025-07-06T21:59	10	0	0.0	0	0	390	0.4	389	391	16.7	67.6
2025-07-06T22:00	10	0	0.1	0	0	390	0.2	389	390	16.6	68.4
2025-07-06T22:01	10	0	0.1	0	0	389	0.6	387	390	16.5	69.2
2025-07-06T22:02	10	0	0.1	-1	0	387	0.6	386	388	16.2	70.4
2025-07-06T22:03	10	-1	0.2	-1	0	386	0.5	385	387	16.0	72.5
2025-07-06T22:04	10	-1	0.1	-1	-1	385	0.4	384	386	15.8	74.4
2025-07-06T22:05	10	-1	0.1	-1	-1	384	0.2	384	385	15.6	76.6
2025-07-06T22:06	10	-1	0.1	-1	-1	384	0.3	383	384	15.5	78.6
2025-07-06T22:07	10	-1	0.1	-1	-1	384	0.2	383	384	15.4	79.6
2025-07-06T22:08	10	-1	0.1	-1	0	383	0.3	383	384	15.2	80.7
2025-07-06T22:09	10	0	0.1	-1	0	383	0.3	382	383	15.0	82.7
2025-07-06T22:10	10	0	0.1	-1	0	382	0.3	382	383	14.9	83.4
2025-07-06T22:11	10	0	0.1	-1	0	382	0.4	382	383	14.8	83.8
2025-07-06T22:12	10	0	0.1	0	0	382	0.2	381	383	14.8	83.6
2025-07-06T22:13	10	0	0.0	0	0	382	0.3	381	382	14.6	85.3
2025-07-06T22:14	10	0	0.1	0	0	382	0.2	381	382	14.6	85.3
2025-07-06T22:15	10	0	0.1	0	0	381	0.2	381	382	14.5	86.4
2025-07-06T22:16	10	0	0.1	0	0	381	0.3	381	382	14.5	86.4
2025-07-06T22:17	10	0	0.1	0	0	382	0.4	381	382	14.5	87.3
2025-07-06T22:18	10	0	0.1	0	0	381	0.3	381	382	14.4	88.4
2025-07-06T22:19	10	0	0.1	0	0	382	0.3	381	382	14.4	87.7
2025-07-06T22:20	10	0	0.1	0	0	381	0.3	380	382	14.5	87.2
2025-07-06T22:21	10	0	0.1	0	0	381	0.2	381	382	14.4	87.5
2025-07-06T22:22	10	0	0.1	0	0	381	0.3	380	382	14.4	87.6
2025-07-06T22:23	10	0	0.1	0	0	381	0.2	380	381	14.3	88.2
2025-07-06T22:24	10	0	0.1	0	0	381	0.3	380	381	14.3	87.8
2025-07-06T22:25	10	0	0.1	0	0	381	0.2	380	381	14.3	87.6
2025-07-06T22:26	10	0	0.1	0	0	381	0.2	380	381	14.3	88.6
2025-07-06T22:27	10	0	0.1	0	0	380	0.2	380	381	14.2	89.1
2025-07-06T22:28	10	0	0.1	0	0	380	0.3	380	381	14.2	88.8
2025-07-06T22:29	10	0	0.1	0	0	380	0.3	380	381	14.2	87.8
2025-07-06T22:30	10	0	0.1	0	0	381	0.3	380	381	14.2	89.2
2025-07-06T22:31	10	0	0.1	0	0	380	0.2	380	381	14.2	89.2
2025-07-06T22:32	10	0	0.1	0	0	380	0.3	379	381	14.2	89.2
2025-07-06T22:33	10	0	0.1	0	0	380	0.2	379	381	14.2	89.2
2025-07-06T22:34	10	0	0.1	0	0	380	0.2	380	381	14.2	89.2
2025-07-06T22:35	10	0	0.1	0	0	380	0.2	379	380	14.2	89.2
2025-07-06T22:36	10	0	0.1	0	0	380	0.3	379	380	14.2	89.1
2025-07-06T22:37	10	0	0.1	0	0	380	0.3	379	380	14.1	88.7
2025-07-06T22:38	10	0	0.1	0	0	380	0.2	379	380	14.1	88.9
2025-07-06T22:39	10	0	0.1	0	0	380	0.3	379	380	14.1	89.5
2025-07-06T22:40	10	0	0.1	0	0	380	0.2	379	381	14.1	89.4
2025-07-06T22:41	10	0	0.1	0	0	380	0.3	379	381	14.1	89.2
2025-07-06T22:42	10	0	0.0	0	0	380	0.2	379	380	14.0	89.9
2025-07-06T22:43	10	0	0.1	0	0	380	0.2	379	381	14.1	89.3
2025-07-06T22:44	10	0	0.0	0	0	380	0.2	380	380	14.1	89.5
2025-07-06T22:45	10	0	0.1	0	0	380	0.3	379	380	14.0	90.7
2025-07-06T22:46	10	0	0.0	0	0	380	0.2	380	380	14.0	90.7
2025-07-06T22:47	10	0	0.0	0	0	380	0.3	379	381	14.0	90.6
2025-07-06T22:48	10	0	0.1	0	0	380	0.3	379	381	13.9	92.2
2025-07-06T22:49	10	0	0.0	0	0	380	0.2	380	381	13.9	92.1
2025-07-06T22:50	10	0	0.0	0	0	380	0.2	380	381	13.9	91.7
2025-07-06T22:51	10	0	0.0	0	0	380	0.3	379	381	14.0	91.5
2025-07-06T22:52	10	0	0.1	0	0	380	0.3	380	381	13.9	91.8
2025-07-06T22:53	10	0	0.1	0	0	380	0.2	380	380	13.9	91.9
2025-07-06T22:54	10	0	0.1	0	0	380	0.2	380	381	13.9	91.7
2025-07-06T22:55	10	0	0.1	0	0	380	0.2	380	381	14.0	90.6
2025-07-06T22:56	10	0	0.1	0	0	380	0.3	379	380	14.0	90.9
2025-07-06T22:57	10	0	0.1	0	0	379	0.2	379	380	14.0	90.3
2025-07-06T22:58	10	0	0.1	0	0	379	0.2	379	380	14.0	90.8
2025-07-06T22:59	10	0	0.0	0	0	379	0.3	378	380	14.0	90.8
2025-07-06T23:00	10	0	0.1	0	0	379	0.2	379	379	14.0	90.8
2025-07-06T23:01	10	0	0.1	0	0	379	0.2	378	379	13.9	91.3
2025-07-06T23:02	10	0	0.1	0	0	379	0.2	378	379	13.9	91.3
2025-07-06T23:03	10	0	0.1	0	0	378	0.3	378	379	13.9	91.3
2025-07-06T23:04	10	0	0.2	0	1	379	0.2	378	379	13.9	91.8
2025-07-06T23:05	10	0	0.2	0	1	379	0.3	378	380	13.9	91.3
2025-07-06T23:06	10	0	0.2	-1	0	379	0.3	378	379	13.9	91.0
2025-07-06T23:07	10	0	0.1	0	0	379	0.3	378	380	14.0	90.7
2025-07-06T23:08	10	0	0.1	0	0	379	0.3	379	380	14.0	90.9
2025-07-06T23:09	10	0	0.2	0	0	380	0.3	379	380	14.0	91.0
2025-07-06T23:10	10	0	0.2	0	0	380	0.3	379	380	13.9	91.5
2025-07-06T23:11	10	0	0.2	-1	0	380	0.2	379	380	13.9	91.6
2025-07-06T23:12	10	0	0.2	0	0	380	0.2	380	381	13.9	92.1
2025-07-06T23:13	10	0	0.1	0	0	380	0.3	379	380	13.9	91.8
2025-07-06T23:14	10	0	0.2	0	0	380	0.2	380	381	13.9	91.6
2025-07-06T23:15	10	0	0.1	0	1	380	0.3	380	381	13.9	91.9
2025-07-06T23:16	10	0	0.1	0	0	380	0.2	380	381	13.9	91.7
2025-07-06T23:17	10	0	0.1	0	0	380	0.3	380	381	13.9	92.3
2025-07-06T23:18	10	0	0.2	0	0	380	0.2	380	381	13.9	92.1
2025-07-06T23:19	10	0	0.1	0	0	380	0.3	380	382	13.9	92.5
2025-07-06T23:20	10	0	0.1	0	0	381	0.2	380	381	13.9	92.7
2025-07-06T23:21	10	0	0.1	0	0	381	0.2	380	381	13.9	92.9
2025-07-06T23:22	10	0	0.1	0	0	381	0.3	380	381	14.0	92.7
2025-07-06T23:23	10	0	0.1	0	0	381	0.3	380	381	14.0	92.3
2025-07-06T23:24	10	0	0.1	0	0	381	0.3	380	382	14.0	92.3
2025-07-06T23:25	10	0	0.1	0	0	381	0.3	380	381	14.0	92.5
2025-07-06T23:26	10	0	0.1	0	0	381	0.2	381	382	14.0	92.5
2025-07-06T23:27	10	0	0.1	0	0	381	0.3	380	382	14.0	92.3
2025-07-06T23:28	10	0	0.1	0	0	381	0.3	381	382	14.0	92.2
2025-07-06T23:29	10	0	0.1	0	0	381	0.2	381	382	14.1	91.4
2025-07-06T23:30	10	0	0.1	0	0	381	0.2	381	382	14.1	91.5
2025-07-06T23:31	10	0	0.1	0	0	381	0.3	381	382	14.1	91.7
2025-07-06T23:32	10	0	0.1	0	0	381	0.2	381	382	14.1	91.3
2025-07-06T23:33	10	0	0.1	0	0	381	0.2	381	382	14.1	91.1
2025-07-06T23:34	10	0	0.1	0	0	381	0.2	381	382	14.1	91.1
2025-07-06T23:35	10	0	0.1	0	0	381	0.3	381	382	14.1	90.6
2025-07-06T23:36	10	0	0.1	0	0	381	0.3	380	382	14.1	91.2
2025-07-06T23:37	10	0	0.1	0	0	381	0.3	381	382	14.1	91.4
2025-07-06T23:38	10	0	0.0	0	0	381	0.3	381	382	14.1	91.6
2025-07-06T23:39	10	0	0.1	0	0	381	0.3	381	382	14.1	91.4
2025-07-06T23:40	10	0	0.1	0	0	381	0.2	381	382	14.1	90.8
2025-07-06T23:41	10	0	0.1	0	0	381	0.2	381	382	14.1	91.1
2025-07-06T23:42	10	0	0.1	0	0	381	0.2	381	382	14.1	91.2
2025-07-06T23:43	10	0	0.1	0	0	381	0.2	381	382	14.1	91.8
2025-07-06T23:44	10	0	0.1	0	0	382	0.3	381	382	14.1	91.3
2025-07-06T23:45	10	0	0.1	0	0	382	0.3	381	382	14.2	90.6
2025-07-06T23:46	10	0	0.1	0	0	382	0.2	381	382	14.2	90.3
2025-07-06T23:47	10	0	0.1	0	0	382	0.2	381	382	14.2	90.9
2025-07-06T23:48	10	0	0.1	0	0	382	0.2	381	382	14.2	90.5
2025-07-06T23:49	10	0	0.1	0	0	382	0.3	381	382	14.2	90.5
2025-07-06T23:50	10	0	0.1	0	0	382	0.2	381	382	14.2	91.1
2025-07-06T23:51	10	0	0.1	0	0	382	0.3	381	382	14.2	91.1
2025-07-06T23:52	10	0	0.0	0	0	382	0.2	381	382	14.2	90.7
2025-07-06T23:53	10	0	0.1	0	0	382	0.2	381	382	14.2	91.2
2025-07-06T23:54	10	0	0.1	0	0	382	0.2	381	382	14.2	90.9
2025-07-06T23:55	10	0	0.0	0	0	382	0.2	381	382	14.2	90.7
2025-07-06T23:56	10	0	0.1	0	0	382	0.2	381	382	14.2	90.8
2025-07-06T23:57	10	0	0.1	0	0	382	0.2	381	382	14.2	91.3
2025-07-06T23:58	10	0	0.1	0	0	382	0.3	381	382	14.2	91.3
2025-07-06T23:59	10	0	0.1	0	0	382	0.2	381	382	14.2	90.7
2025-07-07T00:00	10	0	0.1	0	0	382	0.2	382	382	14.2	91.4
2025-07-07T00:01	10	0	0.1	0	0	382	0.2	381	382	14.3	89.9
2025-07-07T00:02	10	0	0.0	0	0	382	0.3	381	382	14.3	91.2
2025-07-07T00:03	10	0	0.1	0	0	382	0.2	381	382	14.2	90.8
2025-07-07T00:04	10	0	0.1	0	0	382	0.2	382	383	14.3	90.2
2025-07-07T00:05	10	0	0.0	0	0	382	0.3	381	382	14.3	90.3
2025-07-07T00:06	10	0	0.1	0	0	382	0.2	382	383	14.4	89.1
2025-07-07T00:07	10	0	0.1	0	0	382	0.2	381	382	14.4	88.7
2025-07-07T00:08	10	0	0.1	0	0	382	0.2	381	383	14.4	88.3
2025-07-07T00:09	10	0	0.1	0	0	382	0.2	382	382	14.4	88.8
2025-07-07T00:10	10	0	0.1	0	0	382	0.3	382	383	14.4	88.9
2025-07-07T00:11	10	0	0.1	0	0	382	0.2	382	383	14.4	88.9
2025-07-07T00:12	10	0	0.1	0	0	382	0.2	381	382	14.4	88.8
2025-07-07T00:13	10	0	0.1	0	0	382	0.2	381	382	14.4	89.1
2025-07-07T00:14	10	0	0.1	0	0	382	0.2	382	383	14.4	88.5
2025-07-07T00:15	10	0	0.1	0	0	382	0.2	381	382	14.4	88.3
2025-07-07T00:16	10	0	0.1	0	0	382	0.2	381	382	14.4	88.5
2025-07-07T00:17	10	0	0.1	0	0	382	0.2	381	382	14.5	88.1
2025-07-07T00:18	10	0	0.1	0	0	382	0.3	381	382	14.5	88.1
2025-07-07T00:19	10	0	0.1	0	0	382	0.2	381	382	14.5	87.8
2025-07-07T00:20	10	0	0.1	0	0	382	0.2	381	382	14.5	88.3
2025-07-07T00:21	10	0	0.1	0	0	382	0.3	381	382	14.4	88.8
2025-07-07T00:22	10	0	0.1	0	0	382	0.2	381	382	14.4	88.6
2025-07-07T00:23	10	0	0.1	0	0	382	0.2	381	382	14.4	89.1
2025-07-07T00:24	10	0	0.1	0	0	382	0.3	381	382	14.4	89.2
2025-07-07T00:25	10	0	0.1	0	0	382	0.2	381	382	14.4	89.2
2025-07-07T00:26	10	0	0.1	0	0	382	0.2	381	382	14.4	89.4
2025-07-07T00:27	10	0	0.1	0	0	382	0.2	381	382	14.4	89.1
2025-07-07T00:28	10	0	0.1	0	0	382	0.2	381	382	14.4	88.7
2025-07-07T00:29	10	0	0.1	0	0	382	0.2	381	382	14.4	88.7
2025-07-07T00:30	10	0	0.1	0	0	382	0.2	381	382	14.5	87.1
2025-07-07T00:31	10	0	0.1	0	0	382	0.3	381	382	14.5	87.9
2025-07-07T00:32	10	0	0.1	0	0	382	0.3	381	382	14.4	88.2
2025-07-07T00:33	10	0	0.1	0	0	382	0.2	381	382	14.5	86.8
2025-07-07T00:34	10	0	0.0	0	0	382	0.3	381	382	14.6	86.6
2025-07-07T00:35	10	0	0.1	0	0	382	0.2	381	382	14.5	87.5
2025-07-07T00:36	10	0	0.0	0	0	382	0.2	381	382	14.5	86.8
2025-07-07T00:37	10	0	0.1	0	0	382	0.3	381	382	14.6	86.0
2025-07-07T00:38	10	0	0.1	0	0	382	0.3	381	382	14.6	86.0
2025-07-07T00:39	10	0	0.1	0	0	382	0.3	381	382	14.5	87.4
2025-07-07T00:40	10	0	0.1	0	0	382	0.2	381	382	14.5	87.3
2025-07-07T00:41	10	0	0.0	0	0	382	0.2	381	382	14.5	87.3
2025-07-07T00:42	10	0	0.1	0	0	382	0.2	381	382	14.5	87.7
2025-07-07T00:43	10	0	0.0	0	0	382	0.2	381	382	14.5	87.5
2025-07-07T00:44	10	0	0.0	0	0	382	0.2	381	382	14.5	87.6
2025-07-07T00:45	10	0	0.0	0	0	382	0.2	381	382	14.5	88.1
2025-07-07T00:46	10	0	0.0	0	0	382	0.2	381	382	14.4	88.1
2025-07-07T00:47	10	0	0.0	0	0	382	0.3	381	382	14.5	87.2
2025-07-07T00:48	10	0	0.0	0	0	382	0.3	381	383	14.5	87.4
2025-07-07T00:49	10	0	0.0	0	0	382	0.2	381	382	14.4	87.7
2025-07-07T00:50	10	0	0.1	0	0	382	0.2	381	382	14.4	87.7
2025-07-07T00:51	10	0	0.7	0	5	382	0.2	381	382	14.4	87.4
2025-07-07T00:52	10	0	0.1	0	0	382	0.2	381	382	14.4	87.7
2025-07-07T00:53	10	0	0.1	0	0	382	0.2	381	382	14.4	87.2
2025-07-07T00:54	10	0	0.0	0	0	382	0.2	381	382	14.4	87.7
2025-07-07T00:55	10	0	0.1	0	0	382	0.2	381	382	14.4	87.4
2025-07-07T00:56	10	0	0.0	0	0	382	0.2	381	382	14.5	86.7
2025-07-07T00:57	10	0	0.1	0	0	382	0.3	381	382	14.4	87.3
2025-07-07T00:58	10	0	0.1	0	0	382	0.2	382	382	14.5	86.3
2025-07-07T00:59	10	0	0.1	0	0	382	0.2	381	382	14.5	86.5
2025-07-07T01:00	10	0	0.0	0	0	382	0.3	381	382	14.5	86.5
2025-07-07T01:01	10	0	0.1	0	0	382	0.2	381	382	14.5	86.8
2025-07-07T01:02	10	0	0.1	0	0	381	0.2	381	382	14.4	87.8
2025-07-07T01:03	10	0	0.0	0	0	382	0.3	381	382	14.4	87.9
2025-07-07T01:04	10	0	0.1	0	0	382	0.2	381	382	14.5	86.6
2025-07-07T01:05	10	0	0.1	0	0	382	0.2	382	382	14.5	86.0
2025-07-07T01:06	10	0	0.1	0	0	382	0.2	382	383	14.6	85.9
2025-07-07T01:07	10	0	0.0	0	0	382	0.3	382	383	14.7	84.3
2025-07-07T01:08	10	0	0.1	0	0	382	0.2	382	383	14.7	84.6
2025-07-07T01:09	10	0	0.1	0	0	382	0.2	382	383	14.6	85.5
2025-07-07T01:10	10	0	0.1	0	0	382	0.2	381	382	14.6	85.9
2025-07-07T01:11	10	0	0.0	0	0	382	0.2	381	382	14.6	85.9
2025-07-07T01:12	10	0	0.1	0	0	382	0.3	381	382	14.5	86.3
2025-07-07T01:13	10	0	0.1	0	0	382	0.3	381	382	14.6	85.9
2025-07-07T01:14	10	0	0.0	0	0	382	0.3	381	382	14.6	85.9
2025-07-07T01:15	10	0	0.1	0	0	382	0.3	381	382	14.6	85.8
2025-07-07T01:16	10	0	0.1	0	0	382	0.2	381	382	14.5	86.4
2025-07-07T01:17	10	0	0.1	0	0	382	0.2	381	382	14.6	86.3
2025-07-07T01:18	10	0	0.0	0	0	382	0.2	381	382	14.5	86.3
2025-07-07T01:19	10	0	0.0	0	0	382	0.3	381	383	14.6	86.1
2025-07-07T01:20	10	0	0.0	0	0	382	0.2	381	382	14.5	86.5
2025-07-07T01:21	10	0	0.1	0	0	382	0.2	381	382	14.5	86.4
2025-07-07T01:22	10	0	0.1	0	0	382	0.2	381	382	14.5	86.7
2025-07-07T01:23	10	0	0.0	0	0	382	0.2	382	382	14.5	86.5
2025-07-07T01:24	10	0	0.1	0	0	382	0.3	381	383	14.5	86.7
2025-07-07T01:25	10	0	0.0	0	0	382	0.2	381	382	14.5	86.7
2025-07-07T01:26	10	0	0.0	0	0	382	0.2	381	382	14.6	86.4
2025-07-07T01:27	10	0	0.0	0	0	382	0.3	381	382	14.6	86.3
2025-07-07T01:28	10	0	0.0	0	0	382	0.2	382	382	14.6	86.2
2025-07-07T01:29	10	0	0.0	0	0	382	0.2	381	382	14.6	85.9
2025-07-07T01:30	10	0	0.0	0	0	382	0.2	381	382	14.6	86.3
2025-07-07T01:31	10	0	0.1	0	0	382	0.2	381	382	14.6	86.4
2025-07-07T01:32	10	0	0.1	0	0	382	0.2	381	382	14.5	86.8
2025-07-07T01:33	10	0	0.1	0	0	382	0.2	382	383	14.6	85.5
2025-07-07T01:34	10	0	0.1	0	0	382	0.3	381	383	14.7	84.7
2025-07-07T01:35	10	0	0.1	0	0	382	0.3	382	383	14.6	85.8
2025-07-07T01:36	10	0	0.1	0	0	382	0.2	382	382	14.6	85.7
2025-07-07T01:37	10	0	0.1	0	0	382	0.2	382	383	14.7	85.1
2025-07-07T01:38	10	0	0.1	0	0	382	0.2	382	383	14.7	85.4
2025-07-07T01:39	10	0	0.1	0	0	382	0.2	382	383	14.7	84.6
2025-07-07T01:40	10	0	0.0	0	0	382	0.2	382	383	14.8	84.4
2025-07-07T01:41	10	0	0.1	0	0	382	0.2	382	383	14.7	85.7
2025-07-07T01:42	10	0	0.1	0	0	382	0.2	382	383	14.6	86.1
2025-07-07T01:43	10	0	0.0	0	0	382	0.3	382	383	14.6	85.8
2025-07-07T01:44	10	0	0.1	0	0	382	0.3	381	383	14.6	86.1
2025-07-07T01:45	10	0	0.1	0	0	382	0.3	382	383	14.6	86.0
2025-07-07T01:46	10	0	0.0	0	0	382	0.2	382	383	14.6	86.7
2025-07-07T01:47	10	0	0.1	0	0	382	0.2	381	382	14.5	87.8
2025-07-07T01:48	10	0	0.1	0	0	382	0.3	381	382	14.5	88.6
2025-07-07T01:49	10	0	0.0	0	0	382	0.2	381	382	14.4	89.1
2025-07-07T01:50	10	0	0.1	0	0	382	0.2	381	382	14.4	89.5
2025-07-07T01:51	10	0	0.1	0	0	382	0.2	381	382	14.3	90.3
2025-07-07T01:52	10	0	0.0	0	0	382	0.2	381	382	14.3	90.7
2025-07-07T01:53	10	0	0.1	0	0	381	0.2	381	382	14.3	90.6
2025-07-07T01:54	10	0	0.0	0	0	381	0.3	381	382	14.2	90.8
2025-07-07T01:55	10	0	0.0	0	0	381	0.2	381	382	14.2	91.4
2025-07-07T01:56	10	0	0.1	0	0	381	0.2	381	382	14.2	92.0
2025-07-07T01:57	10	0	0.1	0	0	381	0.2	381	382	14.1	92.3
2025-07-07T01:58	10	0	0.0	0	0	381	0.3	380	382	14.1	91.7
2025-07-07T01:59	10	0	0.0	0	0	381	0.2	380	382	14.1	91.6
2025-07-07T02:00	10	0	0.0	0	0	381	0.2	380	381	14.1	91.9
2025-07-07T02:01	10	0	0.1	0	0	381	0.3	380	382	14.1	92.0
2025-07-07T02:02	10	0	0.0	0	0	381	0.2	380	381	14.1	91.9
2025-07-07T02:03	10	0	0.1	0	0	381	0.2	381	382	14.1	91.7
2025-07-07T02:04	10	0	0.1	0	0	381	0.3	381	382	14.1	91.6
2025-07-07T02:05	10	0	0.1	0	0	381	0.3	380	382	14.1	91.9
2025-07-07T02:06	10	0	0.1	0	0	381	0.2	380	381	14.1	91.6
2025-07-07T02:07	10	0	0.1	0	0	381	0.3	380	381	14.1	92.0
2025-07-07T02:08	10	0	0.1	0	0	381	0.3	380	381	14.1	92.2
2025-07-07T02:09	10	0	0.1	0	0	381	0.2	381	382	14.1	91.8
2025-07-07T02:10	10	0	0.0	0	0	381	0.2	381	381	14.1	92.2
2025-07-07T02:11	10	0	0.1	0	0	381	0.2	380	381	14.1	92.2
2025-07-07T02:12	10	0	0.1	0	0	381	0.3	380	382	14.1	91.8
2025-07-07T02:13	10	0	0.0	0	0	381	0.3	380	381	14.1	92.4
2025-07-07T02:14	10	0	0.0	0	0	381	0.3	380	382	14.1	92.4
2025-07-07T02:15	10	0	0.1	0	0	381	0.3	380	382	14.1	92.7
2025-07-07T02:16	10	0	0.0	0	0	381	0.3	380	381	14.0	92.8
2025-07-07T02:17	10	0	0.0	0	0	381	0.2	380	381	14.0	92.9
2025-07-07T02:18	10	0	0.1	0	0	381	0.2	380	381	14.0	93.0
2025-07-07T02:19	10	0	0.1	0	0	381	0.2	380	381	14.0	92.9
2025-07-07T02:20	10	0	0.1	0	0	381	0.2	380	381	14.1	92.5
2025-07-07T02:21	10	0	0.1	0	0	380	0.2	380	381	14.1	92.9
2025-07-07T02:22	10	0	0.1	0	0	381	0.3	380	381	14.0	93.1
2025-07-07T02:23	10	0	0.0	0	0	381	0.2	380	381	14.0	93.1
2025-07-07T02:24	10	0	0.1	0	0	381	0.2	380	381	14.0	93.3
2025-07-07T02:25	10	0	0.1	0	0	381	0.3	380	381	14.0	93.1
2025-07-07T02:26	10	0	0.1	0	0	381	0.2	380	381	14.0	93.3
2025-07-07T02:27	10	0	0.1	0	0	381	0.2	380	381	14.0	93.6
2025-07-07T02:28	10	0	0.1	0	0	381	0.2	380	381	14.0	93.3
2025-07-07T02:29	10	0	0.1	0	0	381	0.2	380	381	14.0	93.9
2025-07-07T02:30	10	0	0.1	0	0	381	0.2	380	381	14.0	94.0
2025-07-07T02:31	10	0	0.1	0	0	381	0.3	380	381	14.0	93.9
2025-07-07T02:32	10	0	0.1	0	0	381	0.2	381	381	14.0	94.2
2025-07-07T02:33	10	0	0.1	0	0	381	0.3	380	382	14.0	94.1
2025-07-07T02:34	10	0	0.1	0	0	381	0.2	381	381	14.0	94.0
2025-07-07T02:35	10	0	0.1	0	0	381	0.2	380	381	14.0	94.4
2025-07-07T02:36	10	0	0.1	0	0	381	0.2	380	381	14.0	94.5
2025-07-07T02:37	10	0	0.1	0	0	381	0.2	380	382	14.0	94.1
2025-07-07T02:38	10	0	0.1	0	0	381	0.2	381	381	14.0	94.1
2025-07-07T02:39	10	0	0.1	0	0	381	0.2	381	382	14.0	94.1
2025-07-07T02:40	10	0	0.1	0	0	381	0.2	380	381	14.0	94.4
2025-07-07T02:41	10	0	0.1	0	0	381	0.2	380	381	14.0	93.8
2025-07-07T02:42	10	0	0.1	0	0	381	0.2	380	382	14.0	93.9
2025-07-07T02:43	10	0	0.1	0	0	381	0.2	381	382	14.0	94.1
2025-07-07T02:44	10	0	0.1	0	0	381	0.2	381	382	14.1	94.1
2025-07-07T02:45	10	0	0.1	0	0	381	0.3	380	382	14.1	93.7
2025-07-07T02:46	10	0	0.0	0	0	381	0.2	381	382	14.1	93.6
2025-07-07T02:47	10	0	0.1	0	0	381	0.2	381	382	14.1	93.6
2025-07-07T02:48	10	0	0.1	0	0	381	0.2	381	382	14.1	93.8
2025-07-07T02:49	10	0	0.1	0	0	381	0.2	381	382	14.1	94.0
2025-07-07T02:50	10	0	0.1	0	0	381	0.2	381	382	14.1	93.8
2025-07-07T02:51	10	0	0.1	0	0	381	0.3	381	382	14.1	93.7
2025-07-07T02:52	10	0	0.1	0	0	382	0.2	381	382	14.1	94.0
2025-07-07T02:53	10	0	0.1	0	0	382	0.2	381	382	14.1	94.0
2025-07-07T02:54	10	0	0.1	0	0	382	0.3	381	382	14.1	93.8
2025-07-07T02:55	10	0	0.1	0	0	382	0.2	381	382	14.1	93.5
2025-07-07T02:56	10	0	0.1	0	0	382	0.2	381	382	14.1	93.2
2025-07-07T02:57	10	0	0.1	0	0	381	0.2	381	382	14.1	93.4
2025-07-07T02:58	10	0	0.1	0	0	382	0.2	381	382	14.2	92.9
2025-07-07T02:59	10	0	0.1	0	0	381	0.2	381	382	14.2	93.1
2025-07-07T03:00	10	0	0.0	0	0	382	0.2	381	382	14.2	93.0
2025-07-07T03:01	10	0	0.1	0	0	382	0.2	381	382	14.2	93.2
2025-07-07T03:02	10	0	0.1	0	0	382	0.3	381	382	14.2	93.2
2025-07-07T03:03	10	0	0.1	0	0	382	0.2	381	382	14.2	93.5
2025-07-07T03:04	10	0	0.1	0	0	382	0.3	381	382	14.2	93.5
2025-07-07T03:05	10	0	0.1	0	0	382	0.2	381	382	14.2	93.9
2025-07-07T03:06	10	0	0.1	0	0	382	0.2	381	382	14.1	94.2
2025-07-07T03:07	10	0	0.1	0	0	382	0.2	381	382	14.1	94.5
2025-07-07T03:08	10	0	0.1	0	0	382	0.2	381	382	14.1	94.5
2025-07-07T03:09	10	0	0.1	0	0	382	0.2	381	382	14.1	94.3
2025-07-07T03:10	10	0	0.1	0	0	382	0.2	381	382	14.1	94.1
2025-07-07T03:11	10	0	0.0	0	0	382	0.2	381	382	14.1	93.8
2025-07-07T03:12	10	0	0.1	0	0	382	0.2	381	382	14.1	93.9
2025-07-07T03:13	10	0	0.1	0	0	382	0.2	381	382	14.2	93.5
2025-07-07T03:14	10	0	0.1	0	0	382	0.2	381	382	14.2	93.1
2025-07-07T03:15	10	0	0.0	0	0	382	0.3	381	382	14.2	93.5
2025-07-07T03:16	10	0	0.1	0	0	382	0.2	381	382	14.2	93.5
2025-07-07T03:17	10	0	0.1	0	0	382	0.2	381	382	14.2	93.4
2025-07-07T03:18	10	0	0.1	0	0	382	0.2	381	382	14.2	93.3
2025-07-07T03:19	10	0	0.1	0	0	382	0.2	381	382	14.2	93.4
2025-07-07T03:20	10	0	0.1	0	0	382	0.2	381	383	14.2	93.5
2025-07-07T03:21	10	0	0.1	0	0	382	0.2	381	382	14.2	93.5
2025-07-07T03:22	10	0	0.1	0	0	382	0.2	381	382	14.2	93.3
2025-07-07T03:23	10	0	0.1	0	0	382	0.2	382	383	14.2	93.3
2025-07-07T03:24	10	0	0.1	0	0	382	0.2	381	382	14.2	93.7
2025-07-07T03:25	10	0	0.1	0	0	382	0.2	381	382	14.2	93.0
2025-07-07T03:26	10	0	0.1	0	0	382	0.3	381	382	14.2	93.4
2025-07-07T03:27	10	0	0.1	0	0	382	0.2	381	382	14.2	93.6
2025-07-07T03:28	10	0	0.1	0	0	382	0.2	381	382	14.2	93.5
2025-07-07T03:29	10	0	0.1	0	0	382	0.2	381	382	14.2	94.0
2025-07-07T03:30	10	0	0.0	0	0	382	0.2	381	382	14.2	94.3
2025-07-07T03:31	10	0	0.1	0	0	382	0.2	381	382	14.1	94.1
2025-07-07T03:32	10	0	0.1	0	0	382	0.2	381	382	14.2	93.8
2025-07-07T03:33	10	0	0.0	0	0	382	0.3	381	382	14.2	93.5
2025-07-07T03:34	10	0	0.1	0	0	382	0.2	381	382	14.2	93.0
2025-07-07T03:35	10	0	0.1	0	0	381	0.2	381	382	14.2	93.1
2025-07-07T03:36	10	0	0.1	0	0	382	0.2	381	382	14.2	92.9
2025-07-07T03:37	10	0	0.1	0	0	382	0.2	381	382	14.3	92.7
2025-07-07T03:38	10	0	0.1	0	0	381	0.2	381	382	14.2	92.8
2025-07-07T03:39	10	0	0.1	0	0	381	0.2	381	382	14.2	93.0
2025-07-07T03:40	10	0	0.1	0	0	381	0.2	381	382	14.2	93.3
2025-07-07T03:41	10	0	0.1	0	0	382	0.2	381	382	14.2	93.2
2025-07-07T03:42	10	0	0.0	0	0	382	0.2	381	382	14.2	93.1
2025-07-07T03:43	10	0	0.1	0	1	382	0.2	381	382	14.2	92.8
2025-07-07T03:44	10	0	0.1	0	1	381	0.2	381	382	14.2	93.1
2025-07-07T03:45	10	0	0.1	0	0	381	0.2	381	382	14.2	93.5
2025-07-07T03:46	10	0	0.1	0	1	382	0.2	381	382	14.2	93.5
2025-07-07T03:47	10	0	0.1	0	1	381	0.2	381	382	14.2	94.0
2025-07-07T03:48	10	0	0.1	0	0	381	0.2	381	382	14.1	94.6
2025-07-07T03:49	10	0	0.1	0	1	381	0.3	381	382	14.1	94.7
2025-07-07T03:50	10	0	0.1	0	1	381	0.2	381	382	14.1	94.7
2025-07-07T03:51	10	0	0.1	0	1	381	0.2	381	382	14.1	95.0
2025-07-07T03:52	10	1	0.1	0	1	381	0.2	381	382	14.1	94.9
2025-07-07T03:53	10	1	0.1	0	1	381	0.2	381	382	14.1	95.3
2025-07-07T03:54	10	1	0.1	1	1	381	0.3	381	382	14.1	95.2
2025-07-07T03:55	10	1	0.1	1	1	381	0.2	381	382	14.1	95.6
2025-07-07T03:56	10	1	0.1	1	1	381	0.3	381	382	14.1	95.3
2025-07-07T03:57	10	1	0.1	1	1	381	0.3	381	382	14.1	95.0
2025-07-07T03:58	10	1	0.1	0	1	381	0.2	381	382	14.1	95.2
2025-07-07T03:59	10	1	0.1	1	1	381	0.2	381	382	14.1	95.2
2025-07-07T04:00	10	1	0.1	0	1	381	0.3	381	382	14.1	95.1
2025-07-07T04:01	10	1	0.1	0	1	381	0.3	381	382	14.1	95.3
2025-07-07T04:02	10	1	0.1	0	1	381	0.2	381	382	14.1	95.4
2025-07-07T04:03	10	1	0.1	0	1	381	0.2	381	382	14.1	95.9
2025-07-07T04:04	10	1	0.1	0	1	381	0.2	381	382	14.1	95.5
2025-07-07T04:05	10	1	0.1	0	1	381	0.2	381	382	14.1	95.3
2025-07-07T04:06	10	1	0.1	0	1	381	0.2	381	382	14.1	95.6
2025-07-07T04:07	10	1	0.1	0	1	381	0.2	381	382	14.1	95.6
2025-07-07T04:08	10	1	0.1	0	1	382	0.2	381	382	14.1	95.3
2025-07-07T04:09	10	1	0.1	0	1	381	0.3	381	382	14.1	95.1
2025-07-07T04:10	10	1	0.1	0	1	381	0.2	381	382	14.1	95.2
2025-07-07T04:11	10	1	0.1	0	1	382	0.2	381	382	14.2	94.5
2025-07-07T04:12	10	1	0.1	0	1	382	0.2	381	382	14.2	94.5
2025-07-07T04:13	10	0	0.1	0	1	382	0.3	381	382	14.2	94.2
2025-07-07T04:14	10	0	0.1	0	1	381	0.3	381	382	14.2	94.7
2025-07-07T04:15	10	0	0.1	0	0	381	0.3	381	382	14.1	95.2
2025-07-07T04:16	10	0	0.1	0	1	381	0.2	381	382	14.1	95.0
2025-07-07T04:17	10	0	0.1	0	1	381	0.2	381	382	14.2	94.6
2025-07-07T04:18	10	1	0.1	0	1	381	0.3	381	382	14.2	94.5
2025-07-07T04:19	10	0	0.1	0	1	381	0.3	381	382	14.2	94.1
2025-07-07T04:20	10	0	0.1	0	1	381	0.2	381	382	14.2	94.4
2025-07-07T04:21	10	1	0.1	0	1	381	0.2	381	382	14.2	94.8
2025-07-07T04:22	10	0	0.1	0	1	381	0.3	381	382	14.2	94.9
2025-07-07T04:23	10	1	0.1	0	1	381	0.3	381	382	14.1	95.2
2025-07-07T04:24	10	1	0.1	1	1	381	0.2	381	382	14.1	95.3
2025-07-07T04:25	10	1	0.1	1	1	381	0.2	381	382	14.1	95.3
2025-07-07T04:26	10	1	0.1	1	1	381	0.3	381	382	14.2	94.9
2025-07-07T04:27	10	1	0.1	1	1	381	0.2	381	382	14.2	94.8
2025-07-07T04:28	10	1	0.1	1	1	381	0.2	381	382	14.2	94.2
2025-07-07T04:29	10	1	0.1	1	1	381	0.3	381	382	14.3	93.8
2025-07-07T04:30	10	1	0.1	1	1	382	0.2	381	382	14.3	94.1
2025-07-07T04:31	10	1	0.1	1	1	381	0.2	381	382	14.3	93.9
2025-07-07T04:32	10	1	0.1	1	2	381	0.2	381	382	14.3	94.2
2025-07-07T04:33	10	1	0.1	1	1	381	0.2	381	382	14.3	93.8
2025-07-07T04:34	10	1	0.1	1	1	382	0.3	381	382	14.2	94.3
2025-07-07T04:35	10	1	0.1	1	1	381	0.2	381	382	14.2	94.1
2025-07-07T04:36	10	1	0.1	1	1	382	0.3	381	382	14.3	93.5
2025-07-07T04:37	10	1	0.1	1	1	382	0.2	381	382	14.3	94.1
2025-07-07T04:38	10	1	0.1	1	2	382	0.2	381	383	14.2	94.3
2025-07-07T04:39	10	2	0.1	1	2	382	0.3	381	382	14.3	93.3
2025-07-07T04:40	10	2	0.1	1	2	382	0.2	382	383	14.4	92.7
2025-07-07T04:41	10	2	0.1	2	2	382	0.2	382	383	14.4	93.2
2025-07-07T04:42	10	2	0.1	2	2	382	0.2	382	383	14.3	93.8
2025-07-07T04:43	10	2	0.1	2	2	382	0.2	382	382	14.3	93.7
2025-07-07T04:44	10	2	0.1	2	2	382	0.2	382	382	14.3	93.4
2025-07-07T04:45	10	2	0.1	2	2	382	0.2	382	383	14.3	93.8
2025-07-07T04:46	10	2	0.1	2	2	382	0.2	382	383	14.3	93.9
2025-07-07T04:47	10	2	0.1	2	3	382	0.3	382	383	14.3	93.9
2025-07-07T04:48	10	3	0.1	2	3	382	0.2	382	383	14.3	94.1
2025-07-07T04:49	10	3	0.1	3	3	382	0.2	382	383	14.3	94.0
2025-07-07T04:50	10	3	0.1	3	3	382	0.2	382	383	14.3	93.8
2025-07-07T04:51	10	3	0.1	3	3	383	0.3	382	383	14.3	94.1
2025-07-07T04:52	10	4	0.2	3	4	382	0.3	382	383	14.3	94.3
2025-07-07T04:53	10	4	0.2	4	4	383	0.2	382	383	14.3	94.3
2025-07-07T04:54	10	5	0.1	4	5	383	0.3	382	384	14.4	93.7
2025-07-07T04:55	10	5	0.1	4	5	383	0.2	383	383	14.4	93.8
2025-07-07T04:56	10	5	0.1	4	5	383	0.3	382	384	14.4	93.8
2025-07-07T04:57	10	4	0.1	4	5	383	0.3	382	384	14.4	93.6
2025-07-07T04:58	10	5	0.1	4	5	383	0.2	383	383	14.4	94.0
2025-07-07T04:59	10	5	0.1	5	5	383	0.3	383	384	14.4	93.4
2025-07-07T05:00	10	5	0.1	5	5	383	0.3	383	384	14.5	93.2
2025-07-07T05:01	10	5	0.1	5	5	383	0.3	383	384	14.5	92.9
2025-07-07T05:02	10	5	0.1	5	5	383	0.2	383	384	14.5	93.1
2025-07-07T05:03	10	5	0.1	5	5	383	0.3	383	384	14.5	93.4
2025-07-07T05:04	10	5	0.1	4	5	384	0.2	383	384	14.5	93.6
2025-07-07T05:05	10	5	0.1	5	5	384	0.2	383	384	14.5	93.4
2025-07-07T05:06	10	5	0.1	5	5	384	0.3	383	384	14.5	93.7
2025-07-07T05:07	10	5	0.1	5	6	384	0.2	384	384	14.5	93.1
2025-07-07T05:08	10	6	0.1	6	6	384	0.2	383	385	14.6	92.7
2025-07-07T05:09	10	6	0.1	6	6	384	0.3	384	385	14.6	93.0
2025-07-07T05:10	10	6	0.1	5	6	384	0.2	384	385	14.6	92.8
2025-07-07T05:11	10	5	0.1	5	5	384	0.2	384	385	14.6	92.9
2025-07-07T05:12	10	5	0.1	5	5	384	0.2	383	385	14.6	92.9
2025-07-07T05:13	10	5	0.1	5	5	384	0.2	384	385	14.6	92.8
2025-07-07T05:14	10	4	0.1	4	5	384	0.2	384	384	14.6	92.9
2025-07-07T05:15	10	4	0.1	4	4	384	0.2	384	385	14.6	92.4
2025-07-07T05:16	10	4	0.1	4	5	384	0.2	384	385	14.6	93.0
2025-07-07T05:17	10	5	0.1	4	5	384	0.2	383	384	14.6	92.7
2025-07-07T05:18	10	5	0.1	5	5	384	0.2	384	385	14.6	92.8
2025-07-07T05:19	10	5	0.2	5	6	384	0.3	384	385	14.7	91.9
2025-07-07T05:20	10	6	0.2	6	6	384	0.2	384	385	14.7	92.4
2025-07-07T05:21	10	7	0.1	6	7	384	0.3	384	385	14.7	92.0
2025-07-07T05:22	10	7	0.1	7	7	385	0.3	384	385	14.7	92.1
2025-07-07T05:23	10	8	0.3	7	8	385	0.3	384	385	14.8	91.3
2025-07-07T05:24	10	9	0.4	8	10	385	0.3	384	385	14.8	91.0
2025-07-07T05:25	10	10	0.2	10	11	385	0.2	384	385	14.8	90.8
2025-07-07T05:26	10	11	0.2	11	11	385	0.3	385	386	14.8	91.4
2025-07-07T05:27	10	12	0.2	11	12	385	0.3	385	386	14.9	89.7
2025-07-07T05:28	10	12	0.2	12	13	386	0.2	385	386	15.0	89.7
2025-07-07T05:29	10	13	0.2	13	13	386	0.2	386	387	15.0	89.4
2025-07-07T05:30	10	13	0.1	13	14	386	0.2	386	387	15.0	89.4
2025-07-07T05:31	10	14	0.1	13	14	386	0.2	386	387	15.0	89.9
2025-07-07T05:32	10	14	0.2	14	14	386	0.3	386	387	15.1	88.5
2025-07-07T05:33	10	14	0.1	14	15	386	0.2	386	387	15.1	88.5
2025-07-07T05:34	10	15	0.1	14	15	387	0.3	386	387	15.1	89.6
2025-07-07T05:35	10	15	0.1	15	15	387	0.2	386	387	15.0	90.0
2025-07-07T05:36	10	15	0.2	15	16	387	0.3	386	388	15.0	90.4
2025-07-07T05:37	10	16	0.2	16	16	387	0.2	387	388	15.0	91.5
2025-07-07T05:38	10	17	0.2	16	17	387	0.2	387	388	15.0	89.2
2025-07-07T05:39	10	18	0.3	17	18	387	0.2	387	388	15.1	88.9
2025-07-07T05:40	10	19	0.4	18	20	387	0.2	387	388	15.1	89.2
2025-07-07T05:41	10	20	0.4	20	21	388	0.3	387	389	15.1	89.6
2025-07-07T05:42	10	21	0.4	21	22	389	0.3	388	389	15.1	89.7
2025-07-07T05:43	10	23	0.4	22	24	389	0.2	388	390	15.2	88.5
2025-07-07T05:44	10	25	0.6	24	26	389	0.3	389	390	15.2	88.3
2025-07-07T05:45	10	27	0.7	26	28	390	0.5	389	391	15.2	88.4
2025-07-07T05:46	10	29	0.7	28	31	391	0.2	390	391	15.3	88.2
2025-07-07T05:47	10	32	0.9	30	34	391	0.4	390	392	15.3	88.4
2025-07-07T05:48	10	35	0.9	34	37	392	0.3	391	392	15.3	87.9
2025-07-07T05:49	10	38	0.8	37	40	393	0.3	392	393	15.4	87.8
2025-07-07T05:50	10	41	0.6	39	41	393	0.4	392	394	15.4	87.8
2025-07-07T05:51	10	42	0.3	41	43	393	0.2	393	394	15.5	86.5
2025-07-07T05:52	10	43	0.1	42	43	394	0.3	393	394	15.5	86.7
2025-07-07T05:53	10	42	0.2	42	42	395	0.4	394	396	15.5	88.0
2025-07-07T05:54	10	46	4.8	42	55	395	0.3	394	395	15.5	87.4
2025-07-07T05:55	10	47	4.4	40	55	396	0.3	395	396	15.5	88.3
2025-07-07T05:56	10	38	0.9	37	40	395	0.8	394	396	15.5	87.5
2025-07-07T05:57	10	36	0.4	35	37	394	0.4	393	395	15.6	87.3
2025-07-07T05:58	10	36	0.3	35	37	394	0.3	394	395	15.6	87.5
2025-07-07T05:59	10	37	1.2	35	39	395	0.3	394	395	15.6	87.6
2025-07-07T06:00	10	35	2.8	32	39	394	0.3	393	395	15.6	86.7
2025-07-07T06:01	10	34	3.6	31	42	394	0.4	393	394	15.7	86.8
2025-07-07T06:02	10	32	3.0	29	41	393	0.5	392	394	15.7	86.6
2025-07-07T06:03	10	27	0.9	26	29	393	0.4	392	394	15.7	87.4
2025-07-07T06:04	10	25	0.1	25	26	393	0.4	392	393	15.6	87.5
2025-07-07T06:05	10	25	0.3	25	26	392	0.4	391	392	15.7	86.3
2025-07-07T06:06	10	25	0.2	25	26	391	0.3	391	392	15.7	85.6
2025-07-07T06:07	10	26	0.5	26	27	391	0.3	390	392	15.7	85.8
2025-07-07T06:08	10	29	0.7	27	30	391	0.3	390	392	15.7	85.8
2025-07-07T06:09	10	31	0.7	30	32	392	0.3	391	393	15.7	85.9
2025-07-07T06:10	10	33	0.8	32	35	393	0.4	392	393	15.7	87.1
2025-07-07T06:11	10	39	2.1	35	42	392	0.3	392	393	15.8	84.8
2025-07-07T06:12	10	49	9.6	40	78	393	1.0	392	396	15.8	85.1
2025-07-07T06:13	10	98	5.2	81	104	398	2.1	394	401	15.8	85.5
2025-07-07T06:14	10	100	2.8	93	103	400	0.5	399	401	15.9	85.2
2025-07-07T06:15	10	82	12.9	59	99	400	0.9	398	401	16.0	83.6
2025-07-07T06:16	10	93	6.8	72	102	400	0.7	399	401	16.0	83.9
2025-07-07T06:17	10	97	15.0	64	111	401	0.7	400	402	16.1	82.9
2025-07-07T06:18	10	103	9.7	86	112	402	0.6	401	404	16.1	82.5
2025-07-07T06:19	10	110	4.9	101	117	404	1.2	403	407	16.2	83.5
2025-07-07T06:20	10	119	2.4	112	121	406	0.4	405	407	16.3	82.9
2025-07-07T06:21	10	117	6.0	94	122	407	0.7	405	407	16.3	82.5
2025-07-07T06:22	10	71	19.7	49	104	405	2.4	401	408	16.4	83.0
2025-07-07T06:23	10	48	3.5	45	56	402	0.5	401	403	16.4	83.8
2025-07-07T06:24	10	44	0.2	44	45	402	0.4	401	403	16.5	84.3
2025-07-07T06:25	10	46	0.7	44	47	400	0.9	398	402	16.4	81.8
2025-07-07T06:26	10	49	1.2	47	50	399	0.3	399	400	16.4	82.7
2025-07-07T06:27	10	54	2.5	50	59	399	0.3	399	400	16.3	82.5
2025-07-07T06:28	10	53	1.8	50	55	399	0.3	399	400	16.3	82.2
2025-07-07T06:29	10	48	1.3	46	50	399	0.3	399	400	16.3	82.7
2025-07-07T06:30	10	46	0.2	45	46	399	0.3	398	399	16.3	82.4
2025-07-07T06:31	10	45	0.1	45	46	399	0.4	398	400	16.3	82.3
2025-07-07T06:32	10	47	1.0	46	50	399	0.3	398	399	16.4	82.0
2025-07-07T06:33	10	51	1.4	49	54	399	0.6	398	400	16.3	81.8
2025-07-07T06:34	10	76	17.6	54	101	401	1.7	399	404	16.4	81.5
2025-07-07T06:35	10	58	10.3	48	81	401	1.1	399	403	16.4	82.1
2025-07-07T06:36	10	51	4.9	46	62	400	0.6	399	401	16.4	81.2
2025-07-07T06:37	10	45	0.6	44	46	399	0.4	398	400	16.4	80.6
2025-07-07T06:38	10	43	0.4	42	44	399	0.4	397	399	16.4	81.6
2025-07-07T06:39	10	42	0.4	41	42	398	0.3	397	398	16.4	81.0
2025-07-07T06:40	10	41	0.2	40	41	398	0.4	397	399	16.4	80.4
2025-07-07T06:41	10	41	0.2	40	41	397	0.3	397	398	16.4	80.8
2025-07-07T06:42	10	43	1.3	41	45	398	0.3	397	399	16.4	81.3
2025-07-07T06:43	10	41	0.6	40	42	397	0.2	397	398	16.4	79.8
2025-07-07T06:44	10	40	0.3	39	40	397	0.6	396	398	16.5	80.0
2025-07-07T06:45	10	39	0.1	39	39	397	0.3	396	397	16.5	79.6
2025-07-07T06:46	10	39	0.2	38	39	396	0.3	396	397	16.4	80.4
2025-07-07T06:47	10	43	5.9	39	62	397	0.5	396	398	16.4	80.6
2025-07-07T06:48	10	100	26.4	56	126	400	2.5	397	405	16.5	78.5
2025-07-07T06:49	10	123	3.4	115	126	406	1.7	403	408	16.6	78.8
2025-07-07T06:50	10	126	1.5	123	128	409	0.8	407	410	16.7	78.1
2025-07-07T06:51	10	112	20.2	73	129	408	1.8	405	410	16.9	76.9
2025-07-07T06:52	10	113	17.6	79	130	408	0.7	406	410	16.9	76.7
2025-07-07T06:53	10	62	12.2	51	86	406	1.9	403	408	16.9	77.4
2025-07-07T06:54	10	46	1.9	44	51	402	1.2	400	404	16.9	76.6
2025-07-07T06:55	10	45	0.9	44	47	400	0.9	398	401	16.9	76.4
2025-07-07T06:56	10	56	9.4	47	85	399	0.6	398	401	16.9	76.1
2025-07-07T06:57	10	104	30.3	63	145	404	3.0	400	408	16.9	76.9
2025-07-07T06:58	10	71	8.6	64	100	404	1.7	402	407	16.9	75.6
2025-07-07T06:59	10	109	17.4	75	134	405	2.0	402	407	16.9	75.3
2025-07-07T07:00	10	124	14.1	102	151	410	1.8	406	413	17.0	76.6
2025-07-07T07:01	10	87	20.1	66	133	410	2.2	406	414	17.1	75.4
2025-07-07T07:02	10	63	1.3	62	66	407	0.5	406	408	17.2	76.5
2025-07-07T07:03	10	63	0.7	62	64	406	1.0	404	407	17.2	75.9
2025-07-07T07:04	10	66	0.8	64	67	405	0.3	404	406	17.2	74.8
2025-07-07T07:05	10	68	0.5	67	69	404	0.6	403	406	17.2	74.1
2025-07-07T07:06	10	71	1.2	69	73	405	0.6	404	406	17.1	74.0
2025-07-07T07:07	10	92	27.7	73	151	408	2.5	405	413	17.2	75.6
2025-07-07T07:08	10	139	17.9	109	163	414	1.9	411	417	17.3	75.5
2025-07-07T07:09	10	152	19.5	111	167	417	1.6	415	420	17.4	74.3
2025-07-07T07:10	10	149	25.6	89	166	417	1.2	414	419	17.5	72.6
2025-07-07T07:11	10	79	3.4	75	89	413	1.8	411	416	17.6	73.4
2025-07-07T07:12	10	85	13.5	75	117	409	1.8	406	412	17.5	71.6
2025-07-07T07:13	10	119	22.0	88	156	412	1.5	408	414	17.4	71.9
2025-07-07T07:14	10	105	22.9	77	155	411	2.2	408	415	17.5	71.4
2025-07-07T07:15	10	142	11.9	115	154	413	1.9	409	415	17.5	71.8
2025-07-07T07:16	10	156	5.5	139	159	418	1.5	414	420	17.6	72.6
2025-07-07T07:17	10	134	14.2	116	156	418	1.3	416	420	17.7	72.1
2025-07-07T07:18	10	163	1.5	157	165	419	0.9	417	421	17.7	70.6
2025-07-07T07:19	10	149	7.5	136	161	418	1.1	417	421	17.6	70.4
2025-07-07T07:20	10	125	29.3	78	158	417	2.7	412	420	17.8	70.3
2025-07-07T07:21	10	79	1.4	78	83	412	1.5	410	414	17.7	69.8
2025-07-07T07:22	10	101	11.7	83	118	411	0.8	410	413	17.6	69.9
2025-07-07T07:23	10	147	23.2	111	180	415	2.5	411	419	17.7	70.0
2025-07-07T07:24	10	104	23.9	79	152	416	2.6	411	420	17.7	70.1
2025-07-07T07:25	10	76	1.4	74	79	411	1.0	410	414	17.7	70.1
2025-07-07T07:26	10	80	3.3	74	85	411	0.4	410	412	17.8	71.1
2025-07-07T07:27	10	70	1.7	68	74	411	0.5	410	412	17.8	70.8
2025-07-07T07:28	10	70	0.5	69	70	411	0.6	409	411	17.8	71.0
2025-07-07T07:29	10	94	27.4	69	144	411	2.9	408	416	17.8	71.0
2025-07-07T07:30	10	69	4.8	63	83	412	1.9	409	415	17.8	70.9
2025-07-07T07:31	10	62	0.6	61	63	409	0.6	408	411	17.8	70.5
2025-07-07T07:32	10	62	0.6	62	64	409	0.5	408	409	17.8	71.1
2025-07-07T07:33	10	70	5.6	64	84	409	0.5	408	410	17.8	70.8
2025-07-07T07:34	10	76	4.9	71	88	410	0.6	409	411	17.8	71.3
2025-07-07T07:35	10	70	0.3	70	71	409	0.3	409	410	17.7	70.3
2025-07-07T07:36	10	70	0.2	70	71	409	0.4	408	410	17.7	70.1
2025-07-07T07:37	10	72	1.4	70	75	409	0.4	408	410	17.7	70.3
2025-07-07T07:38	10	93	16.6	75	135	411	1.1	408	412	17.7	69.7
2025-07-07T07:39	10	84	14.6	66	119	411	1.1	410	413	17.8	70.2
2025-07-07T07:40	10	67	4.7	62	79	410	0.6	409	411	17.8	70.3
2025-07-07T07:41	10	67	3.9	62	78	410	0.3	410	411	17.9	70.7
2025-07-07T07:42	10	60	0.9	59	62	410	0.3	410	411	17.9	70.4
2025-07-07T07:43	10	58	2.4	55	64	410	0.3	410	411	18.0	70.9
2025-07-07T07:44	10	53	0.6	53	55	409	0.4	408	410	17.9	70.8
2025-07-07T07:45	10	54	0.6	53	55	409	0.3	408	409	17.9	71.2
2025-07-07T07:46	10	56	0.5	55	57	409	0.6	408	410	17.9	70.9
2025-07-07T07:47	10	57	0.2	56	57	410	0.5	409	411	18.0	71.4
2025-07-07T07:48	10	57	0.5	55	57	411	0.2	410	411	18.0	71.1
2025-07-07T07:49	10	54	0.6	53	55	411	0.6	409	411	18.0	70.8
2025-07-07T07:50	10	53	0.2	53	54	410	0.4	409	410	18.1	71.1
2025-07-07T07:51	10	53	0.5	52	54	409	0.3	408	409	18.0	69.3
2025-07-07T07:52	10	51	0.7	50	52	409	0.5	408	410	18.0	70.6
2025-07-07T07:53	10	47	1.5	44	49	409	0.8	408	410	18.0	68.5
2025-07-07T07:54	10	43	0.9	41	45	408	0.4	406	408	18.0	68.0
2025-07-07T07:55	10	40	1.2	38	42	406	0.3	406	407	18.0	69.4
2025-07-07T07:56	10	37	0.4	36	38	406	0.4	405	406	17.9	69.4
2025-07-07T07:57	10	36	0.3	36	36	405	0.3	404	406	17.9	69.5
2025-07-07T07:58	10	36	0.1	35	36	405	0.3	404	406	17.9	69.7
2025-07-07T07:59	10	36	0.2	36	37	404	0.3	404	405	17.8	68.4
2025-07-07T08:00	10	37	0.4	37	38	404	0.5	403	404	17.8	68.3
2025-07-07T08:01	10	39	0.5	38	40	404	0.3	403	404	17.8	69.2
2025-07-07T08:02	10	41	0.5	40	42	404	0.3	403	404	17.7	68.6
2025-07-07T08:03	10	43	0.6	42	44	403	0.3	402	404	17.7	66.9
2025-07-07T08:04	10	45	0.7	44	46	403	0.6	402	404	17.7	67.4
2025-07-07T08:05	10	47	0.7	46	49	403	0.3	403	404	17.7	67.6
2025-07-07T08:06	10	50	0.7	49	51	404	0.5	403	405	17.7	68.4
2025-07-07T08:07	10	52	0.6	51	53	405	0.3	404	406	17.7	69.6
2025-07-07T08:08	10	54	0.3	53	54	406	0.3	405	406	17.7	69.2
2025-07-07T08:09	10	54	0.1	54	55	405	0.3	405	406	17.6	68.8
2025-07-07T08:10	10	55	0.2	54	55	406	0.5	405	407	17.6	69.3
2025-07-07T08:11	10	55	0.1	55	56	406	0.6	405	407	17.7	69.5
2025-07-07T08:12	10	56	0.1	55	56	405	0.3	405	406	17.7	69.2
2025-07-07T08:13	10	56	0.1	56	56	406	0.2	405	407	17.7	69.2
2025-07-07T08:14	10	56	0.4	55	57	406	0.6	405	407	17.7	69.5
2025-07-07T08:15	10	55	0.4	54	55	407	0.5	406	408	17.7	69.0
2025-07-07T08:16	10	53	0.6	52	54	406	0.4	406	407	17.8	68.2
2025-07-07T08:17	10	51	0.5	50	52	406	0.5	405	407	17.8	68.0
2025-07-07T08:18	10	49	0.7	48	50	406	0.4	405	407	17.8	68.4
2025-07-07T08:19	10	47	0.5	46	48	406	0.3	405	407	17.8	68.7
2025-07-07T08:20	10	46	0.2	46	46	407	0.5	406	408	17.8	69.5
2025-07-07T08:21	10	45	0.1	45	46	407	0.6	406	409	17.8	69.4
2025-07-07T08:22	10	46	0.1	45	46	408	0.8	406	409	17.9	70.0
2025-07-07T08:23	10	46	0.2	45	46	407	0.3	406	407	17.8	69.3
2025-07-07T08:24	10	45	0.4	44	45	407	0.5	406	408	17.9	69.4
2025-07-07T08:25	10	44	0.2	43	44	406	0.4	405	407	17.9	69.8
2025-07-07T08:26	10	43	0.4	42	43	407	0.3	406	407	17.9	70.1
2025-07-07T08:27	10	41	0.4	41	42	406	0.4	405	407	17.9	70.0
2025-07-07T08:28	10	40	0.3	40	41	405	0.7	404	406	17.8	69.1
2025-07-07T08:29	10	39	0.1	39	40	404	0.2	404	405	17.8	69.4
2025-07-07T08:30	10	40	0.3	39	40	405	0.4	404	406	17.8	69.9
2025-07-07T08:31	10	40	0.2	40	41	405	0.4	405	406	17.9	69.7
2025-07-07T08:32	10	40	0.1	40	41	405	0.5	405	406	17.9	69.6
2025-07-07T08:33	10	40	0.1	40	40	405	0.4	404	406	17.9	69.3
2025-07-07T08:34	10	39	0.3	39	40	404	0.5	403	405	17.9	67.7
2025-07-07T08:35	10	39	0.2	38	39	403	0.5	402	404	17.9	65.7
2025-07-07T08:36	10	39	0.4	39	40	402	0.4	401	403	17.8	65.1
2025-07-07T08:37	10	41	0.6	40	42	401	0.3	401	402	17.7	65.0
2025-07-07T08:38	10	43	0.5	42	44	401	0.6	400	402	17.7	65.9
2025-07-07T08:39	10	45	0.5	44	46	401	0.4	400	402	17.6	66.4
2025-07-07T08:40	10	46	0.6	46	47	401	0.2	401	402	17.5	67.3
2025-07-07T08:41	10	49	0.7	47	50	401	0.3	400	402	17.5	66.4
2025-07-07T08:42	10	51	0.6	50	52	402	0.5	401	403	17.5	67.0
2025-07-07T08:43	10	52	0.4	52	53	403	0.5	402	404	17.6	66.7
2025-07-07T08:44	10	53	0.1	53	53	404	0.4	403	405	17.6	66.7
2025-07-07T08:45	10	53	0.3	52	53	404	0.3	403	404	17.8	64.9
2025-07-07T08:46	10	51	0.5	50	52	404	0.2	404	405	17.8	65.4
2025-07-07T08:47	10	50	0.4	49	50	404	0.2	404	405	17.8	66.5
2025-07-07T08:48	10	49	0.2	49	49	405	0.3	405	406	17.8	67.1
2025-07-07T08:49	10	49	0.1	48	49	406	0.3	405	407	17.8	67.2
2025-07-07T08:50	10	49	0.3	49	50	406	0.3	405	407	17.9	66.4
2025-07-07T08:51	10	51	0.5	50	52	406	0.4	406	407	18.0	65.8
2025-07-07T08:52	10	53	0.6	52	54	406	0.2	406	407	18.0	65.7
2025-07-07T08:53	10	54	0.4	54	55	406	0.4	405	407	18.0	64.5
2025-07-07T08:54	10	55	0.1	55	55	407	0.5	406	408	18.0	65.1
2025-07-07T08:55	10	56	0.5	55	57	407	0.3	406	407	18.0	64.4
2025-07-07T08:56	10	58	0.4	57	58	407	0.5	406	407	18.0	64.2
2025-07-07T08:57	10	59	0.2	58	59	408	0.5	407	409	18.1	64.3
2025-07-07T08:58	10	60	0.5	59	61	408	0.4	407	409	18.1	64.1
2025-07-07T08:59	10	60	0.1	59	60	408	0.4	407	409	18.1	64.1
2025-07-07T09:00	10	59	0.1	59	60	408	0.4	407	409	18.2	64.0
2025-07-07T09:01	10	59	0.4	58	59	408	0.3	408	409	18.3	63.7
2025-07-07T09:02	10	58	0.2	57	58	409	0.4	408	409	18.3	63.7
2025-07-07T09:03	10	57	0.1	57	57	408	0.3	408	409	18.3	63.7
2025-07-07T09:04	10	57	0.2	57	58	409	0.4	408	410	18.4	64.2
2025-07-07T09:05	10	59	0.6	58	60	411	0.8	409	412	18.4	64.3
2025-07-07T09:06	10	61	0.9	60	63	412	0.4	411	413	18.4	64.9
2025-07-07T09:07	10	64	0.7	63	65	413	0.5	412	414	18.5	65.0
2025-07-07T09:08	10	66	0.4	65	66	413	0.5	413	414	18.5	65.0
2025-07-07T09:09	10	67	0.4	66	68	413	0.7	411	414	18.5	65.4
2025-07-07T09:10	10	65	0.9	64	67	411	0.7	410	412	18.4	66.5
2025-07-07T09:11	10	64	0.1	64	65	410	0.5	408	411	18.3	66.1
2025-07-07T09:12	10	65	1.2	62	67	408	0.5	407	409	18.2	66.9
2025-07-07T09:13	10	60	0.9	59	62	407	0.6	406	408	18.2	64.0
2025-07-07T09:14	10	57	1.1	55	59	406	0.5	405	407	18.2	64.9
2025-07-07T09:15	10	54	0.6	53	55	406	0.5	406	407	18.1	67.2
2025-07-07T09:16	10	52	0.4	51	53	405	0.4	405	406	18.1	67.2
2025-07-07T09:17	10	51	0.1	51	52	406	0.6	405	407	18.0	70.1
2025-07-07T09:18	10	52	0.5	51	53	407	0.8	406	408	17.9	71.3
2025-07-07T09:19	10	53	0.5	53	55	407	0.3	406	408	17.9	71.8
2025-07-07T09:20	10	59	2.9	55	64	409	1.1	407	411	17.8	73.7
2025-07-07T09:21	10	69	2.6	64	73	411	0.8	409	412	17.8	73.7
2025-07-07T09:22	10	71	1.6	68	73	411	0.6	410	412	17.8	72.1
2025-07-07T09:23	10	67	0.3	67	68	411	0.4	410	412	17.9	72.7
2025-07-07T09:24	10	68	0.5	67	69	411	0.8	409	412	17.9	73.8
2025-07-07T09:25	10	69	1.8	68	73	410	0.4	409	411	18.0	71.7
2025-07-07T09:26	10	69	1.5	67	72	410	0.4	409	410	18.0	70.7
2025-07-07T09:27	10	68	0.4	67	69	411	0.5	410	412	18.1	70.2
2025-07-07T09:28	10	70	0.9	69	71	410	0.2	409	410	18.1	67.6
2025-07-07T09:29	10	73	0.9	71	74	411	0.6	410	412	18.2	67.0
2025-07-07T09:30	10	76	0.6	74	77	411	0.9	410	413	18.2	67.3
2025-07-07T09:31	10	77	0.2	76	77	414	0.5	412	415	18.3	68.1
2025-07-07T09:32	10	74	1.9	70	76	415	0.4	414	416	18.3	69.4
2025-07-07T09:33	10	64	3.3	58	70	414	0.5	413	415	18.4	69.9
2025-07-07T09:34	10	53	2.9	49	58	412	1.8	408	414	18.2	73.1
2025-07-07T09:35	10	44	2.9	39	49	406	1.6	403	409	17.4	78.8
2025-07-07T09:36	10	34	2.7	30	39	403	1.2	401	406	16.9	82.0
2025-07-07T09:37	10	26	2.2	23	30	401	1.1	400	403	16.8	83.3
2025-07-07T09:38	10	22	0.5	21	23	399	0.4	398	400	16.6	83.3
2025-07-07T09:39	10	22	0.5	22	23	399	0.3	398	400	16.6	83.6
2025-07-07T09:40	10	26	1.7	23	29	398	0.3	397	399	16.5	82.9
2025-07-07T09:41	10	32	1.4	29	34	398	0.3	398	399	16.4	83.3
2025-07-07T09:42	10	35	0.6	34	36	398	0.4	398	399	16.4	84.1
2025-07-07T09:43	10	36	0.1	36	36	397	0.5	396	398	16.3	83.7
2025-07-07T09:44	10	36	0.1	36	36	396	0.3	396	397	16.1	84.3
2025-07-07T09:45	10	36	0.1	36	36	397	0.5	396	398	16.0	85.2
2025-07-07T09:46	10	36	0.2	36	37	397	0.4	396	398	15.9	86.4
2025-07-07T09:47	10	38	0.4	37	38	396	0.2	395	397	15.8	86.1
2025-07-07T09:48	10	39	0.4	38	40	396	0.6	395	397	15.8	86.6
2025-07-07T09:49	10	41	0.8	40	42	397	0.4	396	397	15.7	87.1
2025-07-07T09:50	10	43	0.7	42	44	396	0.4	395	397	15.6	86.6
2025-07-07T09:51	10	45	1.0	44	51	396	0.3	395	396	15.5	86.9
2025-07-07T09:52	10	46	0.1	46	46	396	0.8	395	398	15.5	88.1
2025-07-07T09:53	10	45	0.3	45	46	396	0.2	396	397	15.5	87.7
2025-07-07T09:54	10	44	0.3	44	45	396	0.2	396	397	15.5	88.3
2025-07-07T09:55	10	43	0.2	43	43	396	0.3	395	397	15.5	88.0
2025-07-07T09:56	10	42	0.2	42	43	397	0.5	396	398	15.5	88.6
2025-07-07T09:57	10	42	0.2	42	43	396	0.3	396	397	15.4	88.4
2025-07-07T09:58	10	43	0.4	43	44	396	0.4	395	397	15.4	88.2
2025-07-07T09:59	10	44	0.1	44	44	396	0.5	395	397	15.4	88.6
2025-07-07T10:00	10	42	1.0	40	44	397	0.5	396	398	15.5	88.9
2025-07-07T10:01	10	39	0.4	39	40	397	0.3	397	398	15.5	88.7
2025-07-07T10:02	10	38	0.6	37	39	397	0.6	396	398	15.6	87.9
2025-07-07T10:03	10	35	1.1	33	37	396	0.4	394	396	15.6	87.6
2025-07-07T10:04	10	32	0.6	31	33	395	0.3	394	395	15.5	88.0
2025-07-07T10:05	10	32	0.7	31	33	393	0.4	393	394	15.5	86.6
2025-07-07T10:06	10	34	0.4	33	35	394	0.4	393	394	15.4	87.8
2025-07-07T10:07	10	36	0.7	35	37	394	0.4	393	395	15.4	87.0
2025-07-07T10:08	10	38	0.5	37	39	394	0.2	394	395	15.4	86.3
2025-07-07T10:09	10	39	0.1	38	39	395	0.5	394	396	15.4	86.4
2025-07-07T10:10	10	39	0.1	38	39	395	0.2	394	395	15.5	85.7
2025-07-07T10:11	10	38	0.1	38	39	395	0.4	394	395	15.6	84.5
2025-07-07T10:12	10	38	0.1	38	38	396	0.5	395	397	15.6	84.8
2025-07-07T10:13	10	39	0.3	38	39	396	0.2	395	396	15.7	84.6
2025-07-07T10:14	10	40	0.8	39	42	395	0.3	395	396	15.8	82.1
2025-07-07T10:15	10	44	1.2	42	46	396	0.5	395	396	15.8	84.3
2025-07-07T10:16	10	48	1.1	46	50	397	0.5	396	398	15.8	85.0
2025-07-07T10:17	10	51	0.7	50	52	398	0.3	397	398	15.8	84.4
2025-07-07T10:18	10	54	1.2	52	56	398	0.2	398	399	15.8	83.7
2025-07-07T10:19	10	54	0.2	54	55	398	0.2	398	399	15.9	83.9
2025-07-07T10:20	10	54	0.3	53	54	399	0.3	398	400	15.9	83.5
2025-07-07T10:21	10	52	0.8	50	53	398	0.2	398	399	16.0	81.7
2025-07-07T10:22	10	49	0.7	48	50	398	0.3	397	399	16.0	81.9
2025-07-07T10:23	10	48	0.1	47	48	398	0.4	397	399	16.0	83.0
2025-07-07T10:24	10	48	0.1	47	48	399	0.4	398	400	16.0	83.8
2025-07-07T10:25	10	47	0.3	47	48	399	0.3	398	400	16.0	84.6
2025-07-07T10:26	10	47	0.1	46	47	399	0.4	398	400	16.0	83.9
2025-07-07T10:27	10	47	0.3	47	47	399	0.2	399	400	16.1	83.8
2025-07-07T10:28	10	48	0.6	47	50	398	0.5	398	400	16.1	84.5
2025-07-07T10:29	10	51	0.9	50	53	398	0.3	397	399	16.0	81.7
2025-07-07T10:30	10	54	0.9	53	56	400	0.4	399	401	16.1	84.5
2025-07-07T10:31	10	58	1.2	56	60	401	0.6	400	402	16.1	84.5
2025-07-07T10:32	10	62	1.5	60	65	403	0.4	402	404	16.1	84.5
2025-07-07T10:33	10	68	1.6	65	71	403	0.4	402	404	16.1	84.5
2025-07-07T10:34	10	73	1.3	71	75	405	0.8	404	407	16.1	84.5
2025-07-07T10:35	10	76	0.3	75	76	407	0.3	406	407	16.2	84.3
2025-07-07T10:36	10	76	0.3	76	77	407	0.3	407	408	16.7	81.6
2025-07-07T10:37	10	78	0.5	77	79	408	0.8	407	410	16.7	81.7
2025-07-07T10:38	10	78	0.6	77	79	409	0.7	408	411	16.8	81.9
2025-07-07T10:39	10	76	0.3	76	77	408	0.7	406	409	16.8	78.4
2025-07-07T10:40	10	77	0.8	76	79	408	0.5	408	409	16.9	79.1
2025-07-07T10:41	10	82	1.8	79	85	409	0.6	408	410	16.9	77.9
2025-07-07T10:42	10	90	2.1	85	93	409	0.3	408	409	17.0	76.7
2025-07-07T10:43	10	101	4.5	94	108	410	1.0	409	412	17.0	76.4
2025-07-07T10:44	10	102	1.6	100	107	414	1.6	412	416	17.1	77.8
2025-07-07T10:45	10	104	0.2	103	104	417	1.1	415	418	17.2	77.6
2025-07-07T10:46	10	105	1.5	103	107	415	0.6	414	416	17.2	76.6
2025-07-07T10:47	10	102	0.9	101	105	416	0.6	415	417	17.3	76.0
2025-07-07T10:48	10	108	4.4	102	115	416	1.3	414	418	17.4	74.5
2025-07-07T10:49	10	127	9.9	115	148	417	1.3	414	419	17.5	73.5
2025-07-07T10:50	10	129	3.7	122	138	419	0.4	419	420	17.6	73.8
2025-07-07T10:51	10	126	6.3	119	143	419	0.5	417	420	17.7	72.2
2025-07-07T10:52	10	118	3.4	113	123	419	0.4	418	420	17.6	71.7
2025-07-07T10:53	10	113	7.0	107	131	420	0.4	419	421	17.8	73.6
2025-07-07T10:54	10	132	14.5	115	170	424	1.8	421	427	18.0	74.2
2025-07-07T10:55	10	180	40.9	141	262	427	3.5	425	436	18.0	71.2
2025-07-07T10:56	10	153	18.1	125	188	432	1.6	430	436	18.0	70.8
2025-07-07T10:57	10	188	25.3	147	235	434	2.7	429	438	18.1	70.6
2025-07-07T10:58	10	157	32.6	116	213	432	2.4	428	436	18.3	69.7
2025-07-07T10:59	10	106	5.4	95	116	427	1.6	425	431	18.3	69.0
2025-07-07T11:00	10	99	13.3	91	152	424	1.3	422	427	18.4	68.6
2025-07-07T11:01	10	159	28.7	125	214	427	2.1	424	430	18.5	68.1
2025-07-07T11:02	10	149	25.7	123	227	428	1.1	426	431	18.3	66.9
2025-07-07T11:03	10	223	5.6	212	231	437	3.8	429	443	18.4	66.8
2025-07-07T11:04	10	220	2.3	217	225	443	0.5	442	444	18.7	64.4
2025-07-07T11:05	10	214	1.5	212	217	446	2.5	443	450	19.0	66.0
2025-07-07T11:06	10	205	9.2	167	212	448	1.7	445	450	19.3	64.5
2025-07-07T11:07	10	198	13.7	156	210	445	1.0	443	447	19.3	64.6
2025-07-07T11:08	10	195	20.2	152	212	444	1.4	441	447	19.6	64.0
2025-07-07T11:09	10	208	1.1	207	211	443	0.9	441	445	19.4	62.3
2025-07-07T11:10	10	164	27.5	124	212	440	2.7	437	447	19.5	62.4
2025-07-07T11:11	10	162	43.6	89	212	442	2.8	437	446	19.8	62.1
2025-07-07T11:12	10	161	42.3	91	213	439	2.4	436	443	20.0	60.6
2025-07-07T11:13	10	205	7.3	175	208	445	1.9	441	447	19.7	58.3
2025-07-07T11:14	10	208	1.1	206	210	447	0.6	446	448	19.8	58.9
2025-07-07T11:15	10	163	60.2	61	212	447	4.9	436	452	20.0	59.3
2025-07-07T11:16	10	205	25.8	100	216	445	3.1	437	448	20.1	59.4
2025-07-07T11:17	10	216	2.2	212	220	444	2.1	441	448	20.0	57.7
2025-07-07T11:18	10	207	23.2	154	230	445	3.5	440	451	19.8	58.0
2025-07-07T11:19	10	180	44.6	118	239	442	3.4	437	449	19.9	57.0
2025-07-07T11:20	10	220	18.6	174	242	449	3.1	444	452	20.1	57.2
2025-07-07T11:21	10	201	33.7	134	246	452	2.3	448	456	20.5	57.2
2025-07-07T11:22	10	177	57.4	89	253	447	4.4	437	451	20.3	56.1
2025-07-07T11:23	10	112	12.2	92	145	438	0.8	437	440	20.2	57.0
2025-07-07T11:24	10	105	1.0	103	108	435	1.3	433	439	20.4	57.5
2025-07-07T11:25	10	103	8.8	92	118	433	1.3	430	435	20.3	57.5
2025-07-07T11:26	10	95	2.3	92	100	429	0.9	427	431	19.8	56.1
2025-07-07T11:27	10	99	7.6	92	117	429	0.7	428	430	19.8	57.8
2025-07-07T11:28	10	130	38.1	95	210	434	5.1	428	443	19.9	58.0
2025-07-07T11:29	10	155	20.9	127	199	441	2.3	439	446	20.1	57.9
2025-07-07T11:30	10	202	21.6	157	239	447	1.9	443	449	20.2	57.3
2025-07-07T11:31	10	170	37.2	125	234	447	1.7	443	450	20.4	57.3
2025-07-07T11:32	10	110	3.9	107	123	441	2.6	435	445	20.7	56.1
2025-07-07T11:33	10	115	7.0	107	128	435	0.7	433	436	20.6	53.9
2025-07-07T11:34	10	109	4.2	106	119	432	0.9	431	434	20.4	52.8
2025-07-07T11:35	10	104	1.2	103	106	432	0.6	430	433	20.4	53.2
2025-07-07T11:36	10	103	0.3	102	103	432	0.7	431	433	20.5	53.8
2025-07-07T11:37	10	106	2.3	103	111	429	1.3	427	433	20.4	52.5
2025-07-07T11:38	10	112	1.3	111	116	427	0.5	426	428	20.1	51.6
2025-07-07T11:39	10	126	5.7	115	144	431	1.4	428	433	20.2	52.1
2025-07-07T11:40	10	114	11.2	101	147	431	1.3	428	433	20.4	52.3
2025-07-07T11:41	10	99	0.7	98	101	427	0.9	426	429	20.4	52.0
2025-07-07T11:42	10	101	1.7	99	104	426	0.5	425	427	20.3	52.6
2025-07-07T11:43	10	109	2.1	104	112	427	0.7	425	428	20.3	52.7
2025-07-07T11:44	10	117	2.9	112	124	428	1.0	427	431	20.3	53.0
2025-07-07T11:45	10	126	5.9	121	150	432	1.0	430	434	20.3	53.1
2025-07-07T11:46	10	184	27.4	150	254	439	4.8	433	447	20.5	53.2
2025-07-07T11:47	10	192	25.6	156	252	446	3.1	441	452	20.6	52.3
2025-07-07T11:48	10	209	39.8	147	273	454	1.7	451	457	21.0	52.3
2025-07-07T11:49	10	200	35.8	149	280	456	3.7	450	462	21.3	52.1
2025-07-07T11:50	10	237	36.5	160	274	461	4.9	453	467	21.8	52.0
2025-07-07T11:51	10	232	30.0	174	287	462	2.2	458	466	21.4	49.6
2025-07-07T11:52	10	192	47.9	133	291	460	3.3	455	465	21.4	51.2
2025-07-07T11:53	10	135	28.5	113	208	449	3.3	445	458	21.8	51.0
2025-07-07T11:54	10	119	28.6	101	205	444	4.9	438	452	21.6	50.4
2025-07-07T11:55	10	128	41.7	101	218	440	3.7	436	448	21.4	49.8
2025-07-07T11:56	10	111	4.5	106	124	442	1.2	440	446	21.3	51.7
2025-07-07T11:57	10	130	34.6	95	188	443	3.5	437	448	21.4	51.4
2025-07-07T11:58	10	91	2.3	88	96	437	0.8	436	439	21.2	51.7
2025-07-07T11:59	10	91	3.5	88	97	435	1.6	433	438	21.3	51.7
2025-07-07T12:00	10	141	27.1	97	202	436	2.3	432	439	20.9	52.1
2025-07-07T12:01	10	138	26.3	110	215	437	2.2	434	442	20.7	52.0
2025-07-07T12:02	10	139	28.6	103	194	439	2.9	435	443	20.9	52.3
2025-07-07T12:03	10	201	48.9	124	245	447	7.0	438	457	21.0	52.0
2025-07-07T12:04	10	241	3.2	231	244	457	1.9	454	461	21.1	51.1
2025-07-07T12:05	10	173	55.1	86	246	460	5.2	446	465	21.6	50.9
2025-07-07T12:06	10	109	18.6	87	149	443	2.1	441	449	21.4	51.1
2025-07-07T12:07	10	126	54.0	96	261	441	2.2	438	448	21.2	51.3
2025-07-07T12:08	10	178	56.0	93	261	453	3.6	446	459	21.1	51.4
2025-07-07T12:09	10	88	2.7	85	94	443	2.6	439	449	21.0	51.3
2025-07-07T12:10	10	91	3.0	86	94	438	1.1	435	440	21.0	51.8
2025-07-07T12:11	10	83	3.6	78	89	435	2.3	432	438	21.2	51.1
2025-07-07T12:12	10	77	5.3	68	84	431	0.4	430	433	21.1	49.7
2025-07-07T12:13	10	63	2.3	60	68	428	1.8	426	432	21.2	48.4
2025-07-07T12:14	10	58	1.0	56	60	426	0.5	425	427	21.1	48.2
2025-07-07T12:15	10	55	0.8	54	56	425	0.5	424	426	21.1	47.9
2025-07-07T12:16	10	52	1.0	50	54	424	0.3	424	425	21.1	48.0
2025-07-07T12:17	10	49	0.7	48	50	424	0.4	424	425	21.1	48.7
2025-07-07T12:18	10	48	0.2	47	48	423	1.1	422	425	21.1	48.0
2025-07-07T12:19	10	47	0.1	47	48	423	0.4	422	424	21.0	47.7
2025-07-07T12:20	10	46	0.4	46	47	422	0.6	421	423	21.0	47.5
2025-07-07T12:21	10	45	0.6	44	46	421	0.3	420	422	20.9	47.5
2025-07-07T12:22	10	43	0.4	42	44	421	0.3	420	421	20.9	47.7
2025-07-07T12:23	10	42	0.2	42	43	420	0.4	419	421	20.9	47.9
2025-07-07T12:24	10	45	1.2	43	46	421	0.4	420	422	21.0	48.2
2025-07-07T12:25	10	45	0.5	44	46	419	2.1	415	422	20.0	55.5
2025-07-07T12:26	10	43	1.1	41	45	414	1.6	412	417	18.8	62.4
2025-07-07T12:27	10	39	1.2	37	41	411	0.4	411	413	18.1	65.4
2025-07-07T12:28	10	36	0.6	35	37	410	1.5	407	412	17.9	66.1
2025-07-07T12:29	10	35	0.2	35	36	407	0.3	406	408	17.5	67.1
2025-07-07T12:30	10	35	0.2	34	35	407	1.4	405	409	17.4	68.2
2025-07-07T12:31	10	34	0.4	33	34	407	0.4	406	408	17.3	68.9
2025-07-07T12:32	10	32	0.5	31	33	406	0.8	404	407	17.2	69.7
2025-07-07T12:33	10	30	0.8	29	31	406	0.6	405	407	17.2	70.0
2025-07-07T12:34	10	27	0.7	26	28	405	0.4	404	406	17.2	70.3
2025-07-07T12:35	10	25	0.4	24	26	403	0.3	403	404	17.0	70.8
2025-07-07T12:36	10	24	0.1	24	24	403	0.7	402	405	17.0	71.5
2025-07-07T12:37	10	24	0.1	24	24	403	0.3	402	404	17.0	72.0
2025-07-07T12:38	10	25	0.4	24	25	402	0.3	401	403	16.9	71.1
2025-07-07T12:39	10	25	0.1	25	26	402	0.6	401	403	17.0	71.6
2025-07-07T12:40	10	25	0.5	25	27	401	0.5	400	402	17.0	70.2
2025-07-07T12:41	10	29	1.6	26	32	401	0.7	400	402	16.9	70.5
2025-07-07T12:42	10	37	3.4	32	43	402	1.1	400	404	16.9	70.2
2025-07-07T12:43	10	49	3.2	43	56	404	0.9	403	406	16.9	69.9
2025-07-07T12:44	10	59	6.8	52	73	407	1.2	404	408	16.8	70.3
2025-07-07T12:45	10	51	0.4	51	52	407	0.3	406	407	16.9	70.2
2025-07-07T12:46	10	50	0.6	48	51	408	0.5	406	409	17.0	70.3
2025-07-07T12:47	10	47	0.8	46	49	407	0.3	406	408	16.9	70.0
2025-07-07T12:48	10	45	0.5	44	46	406	0.3	405	407	16.8	70.3
2025-07-07T12:49	10	44	0.2	44	45	404	1.2	402	406	16.7	71.2
2025-07-07T12:50	10	44	0.2	44	45	403	0.4	402	404	16.5	72.4
2025-07-07T12:51	10	46	0.9	45	48	403	0.3	402	404	16.5	73.5
2025-07-07T12:52	10	46	0.2	46	47	404	0.6	403	405	16.5	73.8
2025-07-07T12:53	10	45	0.5	44	46	402	0.7	401	404	16.3	74.3
2025-07-07T12:54	10	43	0.8	42	44	402	0.3	401	402	16.2	75.5
2025-07-07T12:55	10	40	0.9	38	42	401	0.4	401	402	16.1	76.0
2025-07-07T12:56	10	37	1.0	35	38	401	0.5	399	401	16.1	76.7
2025-07-07T12:57	10	34	0.6	33	35	399	0.5	398	400	16.0	77.0
2025-07-07T12:58	10	33	0.1	33	33	398	0.2	397	398	16.0	78.2
2025-07-07T12:59	10	33	0.1	32	33	397	0.3	397	398	15.9	79.0
2025-07-07T13:00	10	34	0.4	33	34	397	0.3	397	398	15.8	80.8
2025-07-07T13:01	10	35	0.4	34	36	397	0.4	396	398	15.8	81.6
2025-07-07T13:02	10	37	0.6	36	38	397	0.5	397	399	15.7	82.3
2025-07-07T13:03	10	38	0.2	38	38	398	0.4	397	399	15.8	80.5
2025-07-07T13:04	10	39	0.2	38	39	398	0.7	396	399	15.9	79.7
2025-07-07T13:05	10	39	0.3	39	40	398	0.4	397	399	16.0	79.4
2025-07-07T13:06	10	40	0.3	40	41	398	0.4	398	399	16.1	78.9
2025-07-07T13:07	10	41	0.4	41	42	398	0.3	398	399	16.2	77.2
2025-07-07T13:08	10	43	0.6	42	44	398	0.3	398	399	16.2	76.9
2025-07-07T13:09	10	44	0.3	44	45	398	0.3	397	399	16.3	75.2
2025-07-07T13:10	10	44	0.3	44	45	398	0.4	397	399	16.3	75.7
2025-07-07T13:11	10	42	1.0	40	44	398	0.4	397	399	16.3	76.0
2025-07-07T13:12	10	38	1.1	37	40	398	0.3	397	398	16.3	75.3
2025-07-07T13:13	10	35	1.0	33	37	398	0.2	397	398	16.3	75.9
2025-07-07T13:14	10	32	0.8	31	33	397	0.6	396	398	16.3	74.6
2025-07-07T13:15	10	29	0.8	28	31	396	0.4	396	397	16.3	74.8
2025-07-07T13:16	10	27	0.8	25	28	396	0.2	395	396	16.3	75.8
2025-07-07T13:17	10	24	0.8	23	25	395	0.6	394	396	16.3	74.9
2025-07-07T13:18	10	22	0.6	21	23	395	0.3	394	395	16.3	76.7
2025-07-07T13:19	10	20	0.4	19	21	395	0.4	394	396	16.3	77.3
2025-07-07T13:20	10	19	0.3	18	19	395	0.3	394	395	16.3	77.8
2025-07-07T13:21	10	18	0.1	18	19	395	0.3	394	395	16.2	78.4
2025-07-07T13:22	10	18	0.1	18	18	394	0.5	393	395	16.2	78.1
2025-07-07T13:23	10	18	0.2	17	18	393	0.3	393	394	16.1	79.2
2025-07-07T13:24	10	17	0.1	17	17	393	0.3	392	394	16.0	80.2
2025-07-07T13:25	10	17	0.1	17	17	392	0.2	392	393	15.8	80.5
2025-07-07T13:26	10	17	0.3	17	18	393	0.2	392	393	15.7	82.4
2025-07-07T13:27	10	18	0.3	18	19	393	0.2	392	393	15.7	81.9
2025-07-07T13:28	10	19	0.2	19	20	393	0.3	392	393	15.6	82.3
2025-07-07T13:29	10	19	0.1	19	20	392	0.3	391	393	15.6	81.0
2025-07-07T13:30	10	19	0.2	19	20	392	0.3	391	393	15.6	81.6
2025-07-07T13:31	10	18	0.2	18	19	391	0.3	391	392	15.6	80.1
2025-07-07T13:32	10	18	0.2	18	19	392	0.4	391	393	15.5	81.8
2025-07-07T13:33	10	18	0.2	17	18	392	0.4	391	393	15.5	81.3
2025-07-07T13:34	10	17	0.3	16	17	392	0.4	391	392	15.5	82.3
2025-07-07T13:35	10	16	0.4	15	17	391	0.4	390	392	15.5	81.8
2025-07-07T13:36	10	15	0.2	14	15	391	0.4	391	392	15.5	81.7
2025-07-07T13:37	10	14	0.1	14	14	391	0.2	391	392	15.5	81.8
2025-07-07T13:38	10	15	0.3	14	15	390	0.2	390	391	15.5	81.8
2025-07-07T13:39	10	16	0.5	15	17	390	0.3	389	391	15.4	83.2
2025-07-07T13:40	10	18	0.5	17	19	390	0.4	389	391	15.2	84.2
2025-07-07T13:41	10	19	0.5	19	20	390	0.3	390	391	15.2	84.2
2025-07-07T13:42	10	21	0.6	20	22	390	0.2	390	391	15.2	82.9
2025-07-07T13:43	10	24	0.9	22	25	391	0.3	390	391	15.1	83.6
2025-07-07T13:44	10	27	1.1	25	29	391	0.3	391	392	15.1	84.8
2025-07-07T13:45	10	31	1.3	29	34	391	0.4	390	392	15.1	84.4
2025-07-07T13:46	10	36	1.2	34	38	391	0.6	390	392	15.1	84.7
2025-07-07T13:47	10	39	0.6	38	39	392	0.2	391	392	15.0	84.0
2025-07-07T13:48	10	39	0.4	38	39	392	0.3	391	392	15.1	82.9
2025-07-07T13:49	10	37	0.5	36	38	392	0.3	392	393	15.2	83.1
2025-07-07T13:50	10	35	0.4	35	36	393	0.5	392	394	15.1	84.9
2025-07-07T13:51	10	35	0.1	34	35	394	0.4	394	395	15.2	85.4
2025-07-07T13:52	10	36	0.8	35	38	394	0.5	394	395	15.2	84.2
2025-07-07T13:53	10	40	1.6	38	43	394	0.4	394	395	15.2	85.1
2025-07-07T13:54	10	46	1.7	43	49	396	0.6	394	397	15.3	84.4
2025-07-07T13:55	10	51	1.1	49	53	398	0.9	396	399	15.3	85.5
2025-07-07T13:56	10	53	0.4	53	54	399	0.3	398	400	15.3	85.0
2025-07-07T13:57	10	54	0.1	54	54	399	0.3	399	400	15.3	85.0
2025-07-07T13:58	10	55	0.4	54	55	400	0.5	399	401	15.3	86.3
2025-07-07T13:59	10	56	0.4	55	57	400	0.3	399	400	15.4	83.9
2025-07-07T14:00	10	57	0.1	57	57	399	0.7	398	400	15.4	83.2
2025-07-07T14:01	10	55	1.0	53	57	399	0.3	398	400	15.5	83.5
2025-07-07T14:02	10	51	1.4	49	53	399	0.4	399	400	15.6	82.6
2025-07-07T14:03	10	47	1.0	45	49	399	0.6	398	401	15.7	82.7
2025-07-07T14:04	10	44	0.8	42	45	399	0.7	397	400	15.7	81.8
2025-07-07T14:05	10	41	0.6	40	43	398	0.4	397	399	15.7	81.8
2025-07-07T14:06	10	39	0.8	38	40	398	0.9	396	399	15.8	82.1
2025-07-07T14:07	10	36	0.9	35	38	397	0.4	396	397	15.8	82.0
2025-07-07T14:08	10	33	0.9	32	35	397	0.3	396	397	15.8	82.1
2025-07-07T14:09	10	31	0.7	29	32	397	0.2	396	397	15.9	81.1
2025-07-07T14:10	10	28	0.8	27	29	397	0.2	396	397	15.9	82.3
2025-07-07T14:11	10	26	0.7	24	27	397	0.5	396	397	15.9	81.5
2025-07-07T14:12	10	23	0.7	22	24	396	0.3	395	397	15.9	81.0
2025-07-07T14:13	10	22	0.4	21	22	395	0.4	394	396	15.9	80.7
2025-07-07T14:14	10	20	0.3	20	21	394	0.4	393	395	15.9	78.0
2025-07-07T14:15	10	19	0.4	18	20	394	0.2	393	394	15.9	79.0
2025-07-07T14:16	10	18	0.6	17	19	393	0.3	393	394	15.9	78.7
2025-07-07T14:17	10	16	0.6	15	17	393	0.2	393	394	15.9	79.7
2025-07-07T14:18	10	14	0.5	13	15	393	0.4	392	394	15.9	79.5
2025-07-07T14:19	10	12	0.3	12	13	392	0.4	392	393	15.9	79.7
2025-07-07T14:20	10	12	0.2	11	12	392	0.3	391	392	15.9	79.9
2025-07-07T14:21	10	11	0.1	11	11	391	0.2	391	392	15.9	79.7
2025-07-07T14:22	10	11	0.1	11	11	392	0.3	391	392	15.9	80.1
2025-07-07T14:23	10	11	0.1	11	12	392	0.3	391	393	15.9	78.5
2025-07-07T14:24	10	12	0.2	12	12	392	0.2	391	392	15.9	79.5
2025-07-07T14:25	10	13	0.2	12	13	392	0.3	391	392	15.9	78.5
2025-07-07T14:26	10	13	0.2	13	14	392	0.3	391	392	15.9	79.0
2025-07-07T14:27	10	14	0.3	14	15	392	0.2	391	392	15.9	78.5
2025-07-07T14:28	10	15	0.3	15	16	392	0.2	392	393	15.9	79.2
2025-07-07T14:29	10	16	0.4	16	17	392	0.5	391	393	15.8	78.0
2025-07-07T14:30	10	18	0.5	17	19	391	0.3	391	392	15.9	77.1
2025-07-07T14:31	10	20	0.6	19	21	391	0.2	391	392	16.0	74.7
2025-07-07T14:32	10	21	0.3	21	22	391	0.4	391	392	15.9	76.4
2025-07-07T14:33	10	22	0.2	21	22	392	0.3	391	393	15.8	77.3
2025-07-07T14:34	10	21	0.4	20	21	391	0.4	390	392	15.8	76.5
2025-07-07T14:35	10	20	0.2	19	20	390	0.3	389	391	15.8	74.0
2025-07-07T14:36	10	21	0.5	20	21	390	0.4	390	391	15.7	76.6
2025-07-07T14:37	10	23	0.6	21	24	391	0.3	391	392	15.8	76.7
2025-07-07T14:38	10	24	0.3	23	25	392	0.3	391	392	15.6	79.0
2025-07-07T14:39	10	25	0.2	24	25	392	0.4	391	393	15.6	79.0
2025-07-07T14:40	10	26	0.3	25	26	392	0.4	392	393	15.6	78.7
2025-07-07T14:41	10	27	0.5	26	28	392	0.4	392	393	15.6	79.5
2025-07-07T14:42	10	29	0.6	28	30	393	0.2	392	393	15.6	79.0
2025-07-07T14:43	10	31	0.3	30	31	393	0.4	392	394	15.6	79.2
2025-07-07T14:44	10	31	0.2	31	31	393	0.2	392	393	15.6	78.6
2025-07-07T14:45	10	31	0.1	31	31	393	0.3	392	393	15.7	78.0
2025-07-07T14:46	10	31	0.2	31	32	393	0.3	392	394	15.7	76.7
2025-07-07T14:47	10	31	0.2	31	32	393	0.3	392	393	15.8	76.9
2025-07-07T14:48	10	30	0.5	29	31	393	0.3	393	394	15.8	76.9
2025-07-07T14:49	10	28	0.5	27	29	393	0.2	393	394	15.8	77.1
2025-07-07T14:50	10	27	0.2	27	27	393	0.3	392	393	15.8	75.7
2025-07-07T14:51	10	26	0.2	26	27	393	0.4	392	394	15.8	75.7
2025-07-07T14:52	10	26	0.2	25	26	392	0.2	392	393	15.8	76.0
2025-07-07T14:53	10	25	0.2	25	25	393	0.2	392	393	15.8	76.3
2025-07-07T14:54	10	24	0.4	24	25	393	0.3	392	393	15.8	75.7
2025-07-07T14:55	10	23	0.6	22	24	392	0.2	392	393	15.8	75.7
2025-07-07T14:56	10	21	0.4	20	22	393	0.2	392	393	15.8	75.3
2025-07-07T14:57	10	20	0.1	20	20	392	0.4	391	393	15.9	74.6
2025-07-07T14:58	10	21	0.1	20	21	392	0.3	391	392	15.8	74.5
2025-07-07T14:59	10	21	0.1	21	21	392	0.4	391	393	15.9	73.2
2025-07-07T15:00	10	21	0.2	21	22	391	0.3	391	392	15.9	72.1
2025-07-07T15:01	10	22	0.3	22	23	391	0.3	391	392	15.9	72.5
2025-07-07T15:02	10	24	0.4	23	24	391	0.2	391	392	15.9	72.6
2025-07-07T15:03	10	25	0.3	24	26	392	0.2	392	392	15.9	74.0
2025-07-07T15:04	10	25	0.2	25	26	392	0.2	392	393	15.9	72.6
2025-07-07T15:05	10	25	0.2	24	25	393	0.4	392	393	15.9	74.4
2025-07-07T15:06	10	24	0.1	24	24	393	0.2	392	393	15.9	74.3
2025-07-07T15:07	10	24	0.2	24	24	393	0.3	393	394	15.9	75.3
2025-07-07T15:08	10	24	0.1	24	24	394	0.2	393	394	15.9	74.3
2025-07-07T15:09	10	24	0.3	24	25	394	0.3	393	394	16.0	74.4
2025-07-07T15:10	10	26	0.5	25	27	393	0.2	392	393	16.0	74.1
2025-07-07T15:11	10	28	0.9	26	30	393	0.4	392	394	15.9	73.9
2025-07-07T15:12	10	32	1.2	30	34	394	0.3	393	394	16.0	73.1
2025-07-07T15:13	10	36	1.6	34	39	395	0.6	394	396	16.0	72.9
2025-07-07T15:14	10	44	2.8	39	48	396	0.7	395	397	16.0	74.1
2025-07-07T15:15	10	53	1.9	49	56	397	0.6	396	398	16.0	72.7
2025-07-07T15:16	10	60	1.5	56	62	399	1.0	397	401	16.1	74.0
2025-07-07T15:17	10	65	2.7	62	73	400	0.3	400	401	16.2	71.8
2025-07-07T15:18	10	90	16.2	67	115	404	2.8	399	407	16.2	72.4
2025-07-07T15:19	10	83	8.3	73	102	407	0.6	405	408	16.4	72.6
2025-07-07T15:20	10	135	43.2	84	193	409	3.2	406	416	16.4	70.8
2025-07-07T15:21	10	190	8.6	153	196	418	2.5	413	421	16.4	70.5
2025-07-07T15:22	10	93	12.2	86	146	414	3.3	409	422	16.6	70.3
2025-07-07T15:23	10	100	14.1	86	127	409	0.7	408	410	16.7	69.3
2025-07-07T15:24	10	88	3.4	84	96	409	0.8	408	410	16.8	69.5
2025-07-07T15:25	10	83	0.9	82	87	408	1.0	406	410	16.6	68.0
2025-07-07T15:26	10	131	37.3	74	186	413	4.6	406	418	16.6	69.7
2025-07-07T15:27	10	67	3.2	63	74	412	2.4	408	416	17.0	70.1
2025-07-07T15:28	10	61	1.3	59	63	407	2.2	404	410	16.8	67.9
2025-07-07T15:29	10	58	0.5	58	59	405	0.3	404	405	16.7	68.4
2025-07-07T15:30	10	59	0.7	58	60	404	0.9	402	405	16.7	68.6
2025-07-07T15:31	10	62	1.0	60	63	403	0.2	403	404	16.7	68.6
2025-07-07T15:32	10	62	0.8	61	63	403	0.4	402	403	16.6	68.4
2025-07-07T15:33	10	61	0.2	60	61	404	0.6	403	405	16.6	69.3
2025-07-07T15:34	10	61	0.2	61	61	406	0.7	405	408	16.8	71.5
2025-07-07T15:35	10	62	0.1	61	62	407	0.6	406	408	16.8	71.2
2025-07-07T15:36	10	65	4.4	61	81	407	0.5	406	408	16.7	71.2
2025-07-07T15:37	10	82	5.3	75	97	409	1.0	407	411	16.8	72.4
2025-07-07T15:38	10	109	22.4	76	150	413	1.8	410	417	17.0	69.4
2025-07-07T15:39	10	140	22.3	103	169	417	2.4	414	422	17.0	67.4
2025-07-07T15:40	10	140	35.4	70	168	422	2.4	416	425	17.3	67.7
2025-07-07T15:41	10	67	6.5	59	82	412	2.8	408	418	17.1	66.5
2025-07-07T15:42	10	56	3.3	54	66	407	1.0	406	410	17.0	66.7
2025-07-07T15:43	10	53	0.2	53	54	407	0.3	406	408	17.1	67.1
2025-07-07T15:44	10	53	0.7	52	54	407	0.8	405	407	17.1	67.1
2025-07-07T15:45	10	51	1.0	49	52	405	0.3	404	405	17.1	67.0
2025-07-07T15:46	10	59	15.6	48	90	405	1.0	404	407	17.0	67.2
2025-07-07T15:47	10	47	2.6	45	59	404	2.0	401	407	16.9	65.2
2025-07-07T15:48	10	45	4.4	42	57	401	0.4	400	402	16.8	65.1
2025-07-07T15:49	10	48	4.7	42	57	400	0.4	399	401	16.7	64.9
2025-07-07T15:50	10	46	1.6	44	50	400	0.6	398	401	16.7	64.7
2025-07-07T15:51	10	43	1.7	40	46	399	0.2	399	400	16.6	65.0
2025-07-07T15:52	10	39	0.5	39	40	398	0.2	398	399	16.7	65.7
2025-07-07T15:53	10	38	0.4	37	39	398	0.3	397	398	16.6	65.2
2025-07-07T15:54	10	37	0.3	36	37	398	0.3	397	398	16.7	65.2
2025-07-07T15:55	10	36	0.1	36	37	398	0.4	398	399	16.7	65.8
2025-07-07T15:56	10	37	0.7	37	39	398	0.3	397	399	16.7	65.5
2025-07-07T15:57	10	41	1.5	39	44	399	0.5	398	399	16.7	65.7
2025-07-07T15:58	10	43	0.4	43	44	399	0.3	399	400	16.6	65.8
2025-07-07T15:59	10	47	2.1	44	51	400	0.7	399	401	16.6	66.7
2025-07-07T16:00	10	49	1.3	47	51	401	0.4	400	401	16.6	66.9
2025-07-07T16:01	10	56	7.1	48	68	402	0.9	400	404	16.7	67.5
2025-07-07T16:02	10	66	7.2	55	75	403	0.5	402	404	16.7	67.0
2025-07-07T16:03	10	59	3.8	53	65	404	0.3	403	404	16.8	65.3
2025-07-07T16:04	10	55	0.8	53	56	404	0.4	403	405	16.8	65.8
2025-07-07T16:05	10	56	0.5	55	57	404	0.3	403	405	16.8	65.0
2025-07-07T16:06	10	59	1.3	57	61	404	0.5	403	405	16.8	64.8
2025-07-07T16:07	10	72	7.9	61	87	406	1.2	403	407	16.8	65.8
2025-07-07T16:08	10	62	1.9	61	67	405	0.6	404	406	16.8	64.3
2025-07-07T16:09	10	63	0.7	61	64	405	0.7	404	406	16.8	64.0
2025-07-07T16:10	10	70	6.8	64	87	406	0.7	404	407	16.8	65.1
2025-07-07T16:11	10	81	9.7	72	101	407	0.7	406	409	16.9	65.2
2025-07-07T16:12	10	90	8.3	79	103	408	1.2	406	410	16.8	65.1
2025-07-07T16:13	10	91	9.1	70	104	410	0.5	408	410	16.8	65.1
2025-07-07T16:14	10	61	6.2	52	71	407	0.8	406	408	16.9	65.3
2025-07-07T16:15	10	49	2.1	45	52	405	1.1	403	407	16.9	63.8
2025-07-07T16:16	10	43	1.3	41	46	402	1.3	400	404	16.8	63.4
2025-07-07T16:17	10	40	0.8	39	42	400	0.4	399	401	16.8	63.5
2025-07-07T16:18	10	38	0.3	38	39	399	0.6	398	400	16.7	63.3
2025-07-07T16:19	10	37	0.5	36	38	398	0.2	398	399	16.6	63.8
2025-07-07T16:20	10	35	0.5	35	36	399	0.3	398	400	16.6	64.7
2025-07-07T16:21	10	33	0.6	32	34	399	0.4	398	400	16.7	65.9
2025-07-07T16:22	10	31	0.9	29	32	399	0.3	399	400	16.7	66.3
2025-07-07T16:23	10	28	0.9	26	29	399	0.5	398	400	16.7	65.5
2025-07-07T16:24	10	25	0.6	24	27	398	0.6	396	399	16.7	64.9
2025-07-07T16:25	10	24	0.2	24	25	396	0.4	395	397	16.6	65.1
2025-07-07T16:26	10	26	0.4	25	26	396	0.2	396	397	16.6	64.7
2025-07-07T16:27	10	27	0.5	26	28	396	0.3	396	397	16.7	64.6
2025-07-07T16:28	10	34	4.9	28	41	397	0.7	396	399	16.7	64.2
2025-07-07T16:29	10	33	1.5	32	38	398	0.5	397	399	16.7	65.1
2025-07-07T16:30	10	34	1.2	32	36	399	0.2	399	400	16.8	64.9
2025-07-07T16:31	10	38	3.3	34	43	399	0.3	399	400	16.8	64.6
2025-07-07T16:32	10	40	2.0	38	43	399	0.6	398	401	16.9	64.4
2025-07-07T16:33	10	42	2.8	39	47	399	0.5	398	400	16.9	62.3
2025-07-07T16:34	10	40	0.4	39	40	398	0.4	397	398	16.9	60.5
2025-07-07T16:35	10	41	0.8	40	43	398	0.5	398	400	16.9	61.8
2025-07-07T16:36	10	53	10.1	42	71	401	1.0	399	403	17.0	61.7
2025-07-07T16:37	10	76	4.2	71	86	404	1.1	402	406	17.0	61.8
2025-07-07T16:38	10	95	6.1	86	107	407	0.9	405	408	17.0	61.9
2025-07-07T16:39	10	117	5.7	107	124	410	1.3	407	412	17.1	62.7
2025-07-07T16:40	10	95	18.9	69	124	411	1.6	407	413	17.2	61.6
2025-07-07T16:41	10	72	23.8	50	118	408	1.9	403	410	17.2	61.3
2025-07-07T16:42	10	51	0.4	50	52	403	1.0	402	406	17.0	61.1
2025-07-07T16:43	10	53	0.6	52	54	402	0.2	402	403	17.0	62.7
2025-07-07T16:44	10	53	1.1	52	56	403	0.3	402	403	17.1	62.8
2025-07-07T16:45	10	56	4.0	51	65	404	0.5	403	405	17.1	63.4
2025-07-07T16:46	10	52	0.6	51	53	404	0.4	403	405	17.2	62.8
2025-07-07T16:47	10	76	20.9	53	113	404	0.7	403	406	17.3	61.9
2025-07-07T16:48	10	71	8.9	60	96	404	0.5	403	405	17.2	60.1
2025-07-07T16:49	10	71	11.4	60	95	405	0.7	403	406	17.2	60.5
2025-07-07T16:50	10	52	3.9	48	63	403	1.0	401	405	17.2	58.8
2025-07-07T16:51	10	46	0.9	45	48	402	0.3	402	403	17.3	59.3
2025-07-07T16:52	10	44	0.3	43	45	402	0.5	401	402	17.3	59.6
2025-07-07T16:53	10	43	0.3	43	44	401	0.3	400	402	17.2	59.9
2025-07-07T16:54	10	43	0.2	43	44	401	0.2	401	402	17.2	60.4
2025-07-07T16:55	10	43	0.2	43	43	401	0.4	400	402	17.2	60.1
2025-07-07T16:56	10	42	0.6	41	43	400	0.3	400	401	17.2	60.1
2025-07-07T16:57	10	42	0.4	42	43	400	0.3	400	401	17.1	60.5
2025-07-07T16:58	10	43	0.3	42	43	400	0.3	400	401	17.2	60.1
2025-07-07T16:59	10	40	0.8	39	42	400	0.5	400	401	17.2	60.4
2025-07-07T17:00	10	38	0.7	36	39	401	0.3	400	401	17.2	59.7
2025-07-07T17:01	10	36	0.3	35	37	401	0.3	401	402	17.3	59.4
2025-07-07T17:02	10	35	0.3	34	36	400	0.6	399	401	17.2	59.6
2025-07-07T17:03	10	34	0.4	33	35	400	0.2	399	400	17.2	60.2
2025-07-07T17:04	10	32	0.6	31	33	400	0.3	399	401	17.2	60.2
2025-07-07T17:05	10	31	0.2	31	32	398	0.3	398	399	17.2	59.8
2025-07-07T17:06	10	31	0.2	31	32	398	0.4	398	399	17.2	59.6
2025-07-07T17:07	10	32	0.4	32	33	398	0.3	398	399	17.2	59.6
2025-07-07T17:08	10	34	0.5	33	35	398	0.4	397	399	17.1	58.8
2025-07-07T17:09	10	35	0.3	35	36	398	0.5	397	399	17.1	58.5
2025-07-07T17:10	10	35	0.6	34	36	398	0.3	397	398	17.1	59.0
2025-07-07T17:11	10	32	1.1	30	34	397	0.3	397	398	17.1	59.0
2025-07-07T17:12	10	28	1.2	26	30	397	0.3	396	398	17.1	59.5
2025-07-07T17:13	10	25	0.6	24	27	397	0.2	396	398	17.1	60.0
2025-07-07T17:14	10	24	0.2	24	25	396	0.5	396	397	17.1	58.7
2025-07-07T17:15	10	23	0.3	23	24	396	0.3	395	396	17.1	59.2
2025-07-07T17:16	10	23	0.2	22	23	396	0.3	395	396	17.1	59.3
2025-07-07T17:17	10	22	0.3	21	23	395	0.3	395	396	17.0	59.0
2025-07-07T17:18	10	21	0.3	21	22	395	0.2	395	395	17.0	59.2
2025-07-07T17:19	10	20	0.3	20	21	395	0.3	394	396	17.0	59.8
2025-07-07T17:20	10	20	0.2	19	20	395	0.3	394	396	17.0	60.4
2025-07-07T17:21	10	19	0.3	18	20	395	0.2	394	395	17.0	60.2
2025-07-07T17:22	10	18	0.2	18	18	395	0.3	394	395	17.0	60.6
2025-07-07T17:23	10	18	0.2	18	19	395	0.2	394	396	17.0	59.8
2025-07-07T17:24	10	19	0.3	18	19	394	0.3	393	395	17.0	59.8
2025-07-07T17:25	10	20	0.5	19	21	395	0.4	394	395	17.0	60.4
2025-07-07T17:26	10	22	0.7	20	23	395	0.2	395	396	17.0	60.7
2025-07-07T17:27	10	24	0.6	22	24	396	0.4	395	396	17.0	61.3
2025-07-07T17:28	10	25	0.5	24	26	396	0.2	396	397	17.0	61.0
2025-07-07T17:29	10	29	1.7	26	32	397	0.3	396	397	17.0	60.8
2025-07-07T17:30	10	51	13.6	30	71	398	1.5	396	400	17.0	60.1
2025-07-07T17:31	10	64	8.1	43	75	400	1.2	398	402	17.1	60.2
2025-07-07T17:32	10	45	12.4	33	68	401	1.1	399	402	17.1	59.6
2025-07-07T17:33	10	44	4.2	37	49	400	0.4	398	400	17.1	59.7
2025-07-07T17:34	10	40	4.2	34	46	400	0.3	399	401	17.1	60.1
2025-07-07T17:35	10	29	1.2	28	33	399	0.6	398	400	17.2	59.7
2025-07-07T17:36	10	29	0.2	28	29	399	0.4	398	399	17.2	59.4
2025-07-07T17:37	10	28	0.5	27	29	398	0.2	398	399	17.2	59.3
2025-07-07T17:38	10	26	0.9	24	27	398	0.4	397	399	17.2	59.1
2025-07-07T17:39	10	23	0.6	22	24	396	0.7	395	397	17.1	58.2
2025-07-07T17:40	10	21	0.5	21	22	395	0.3	394	396	17.1	57.8
2025-07-07T17:41	10	20	0.2	20	21	394	0.3	394	395	17.1	57.5
2025-07-07T17:42	10	20	0.2	20	21	394	0.3	393	395	17.1	57.5
2025-07-07T17:43	10	20	0.4	19	20	394	0.2	393	394	17.0	57.8
2025-07-07T17:44	10	19	0.3	18	19	394	0.2	393	394	17.0	58.2
2025-07-07T17:45	10	18	0.3	17	18	393	0.2	393	394	17.0	58.1
2025-07-07T17:46	10	17	0.2	16	18	393	0.2	393	394	17.0	58.3
2025-07-07T17:47	10	16	0.3	16	17	393	0.3	392	394	17.0	58.6
2025-07-07T17:48	10	16	0.2	15	16	393	0.2	392	393	16.9	58.7
2025-07-07T17:49	10	15	0.2	15	16	393	0.3	392	393	16.9	58.5
2025-07-07T17:50	10	16	0.2	15	16	392	0.2	391	392	16.9	58.8
2025-07-07T17:51	10	15	0.2	15	16	392	0.2	391	392	16.9	58.9
2025-07-07T17:52	10	14	0.3	14	15	392	0.2	391	392	16.9	58.7
2025-07-07T17:53	10	13	0.3	13	14	391	0.2	391	392	16.8	59.0
2025-07-07T17:54	10	13	0.2	12	13	391	0.2	391	392	16.8	59.1
2025-07-07T17:55	10	12	0.1	12	13	391	0.3	391	392	16.8	59.1
2025-07-07T17:56	10	12	0.1	12	12	391	0.2	391	391	16.8	59.5
2025-07-07T17:57	10	12	0.1	12	12	391	0.2	391	392	16.8	60.1
2025-07-07T17:58	10	11	0.3	11	12	391	0.2	391	392	16.8	60.3
2025-07-07T17:59	10	10	0.4	9	11	391	0.2	391	392	16.7	60.5
2025-07-07T18:00	10	9	0.3	8	9	391	0.2	391	391	16.7	60.7
2025-07-07T18:01	10	8	0.2	7	8	391	0.2	390	391	16.7	60.8
2025-07-07T18:02	10	7	0.2	7	8	391	0.3	390	392	16.7	60.1
2025-07-07T18:03	10	7	0.1	7	7	391	0.2	390	391	16.7	60.3
2025-07-07T18:04	10	7	0.1	7	7	391	0.2	390	391	16.7	60.4
2025-07-07T18:05	10	7	0.2	7	7	391	0.3	390	391	16.7	60.8
2025-07-07T18:06	10	7	0.1	6	7	391	0.2	390	391	16.7	60.5
2025-07-07T18:07	10	6	0.1	6	7	391	0.2	390	391	16.7	60.8
2025-07-07T18:08	10	6	0.1	6	6	390	0.3	390	391	16.7	61.1
2025-07-07T18:09	10	6	0.1	6	6	390	0.2	390	391	16.7	60.7
2025-07-07T18:10	10	5	0.1	5	6	390	0.2	390	391	16.7	59.9
2025-07-07T18:11	10	5	0.1	5	5	390	0.2	389	390	16.7	59.3
2025-07-07T18:12	10	5	0.1	5	5	390	0.3	389	390	16.7	60.2
2025-07-07T18:13	10	5	0.2	4	5	390	0.2	389	390	16.6	60.4
2025-07-07T18:14	10	4	0.1	4	4	390	0.2	390	391	16.6	60.7
2025-07-07T18:15	10	4	0.1	4	4	390	0.2	389	390	16.6	61.1
2025-07-07T18:16	10	4	0.1	4	4	390	0.2	389	390	16.6	61.5
2025-07-07T18:17	10	4	0.1	4	4	390	0.3	389	390	16.6	61.3
2025-07-07T18:18	10	3	0.1	3	4	390	0.2	389	390	16.6	61.4
2025-07-07T18:19	10	3	0.1	3	3	390	0.2	389	390	16.6	61.5
2025-07-07T18:20	10	3	0.1	3	3	389	0.2	389	390	16.6	61.6
2025-07-07T18:21	10	3	0.1	2	3	389	0.2	389	390	16.5	62.4
2025-07-07T18:22	10	3	0.1	2	3	389	0.2	389	390	16.5	62.5
2025-07-07T18:23	10	3	0.1	2	3	389	0.3	388	390	16.5	62.4
2025-07-07T18:24	10	2	0.1	2	3	389	0.2	389	390	16.5	61.7
2025-07-07T18:25	10	2	0.1	2	2	389	0.2	389	390	16.5	61.9
2025-07-07T18:26	10	2	0.1	2	2	389	0.2	388	389	16.5	61.3
2025-07-07T18:27	10	2	0.1	2	2	389	0.2	388	389	16.5	61.4
2025-07-07T18:28	10	2	0.1	2	2	389	0.3	388	389	16.5	60.7
2025-07-07T18:29	10	2	0.1	2	2	389	0.2	388	389	16.5	60.8
2025-07-07T18:30	10	2	0.1	2	2	389	0.2	388	389	16.5	61.5
2025-07-07T18:31	10	2	0.1	1	2	389	0.2	388	389	16.4	62.0
2025-07-07T18:32	10	1	0.1	1	2	388	0.2	388	389	16.4	62.5
2025-07-07T18:33	10	1	0.1	1	2	388	0.3	388	389	16.4	62.4
2025-07-07T18:34	10	1	0.1	1	1	388	0.3	388	389	16.4	62.2
2025-07-07T18:35	10	1	0.1	1	1	388	0.2	388	389	16.4	61.6
2025-07-07T18:36	10	1	0.1	1	1	388	0.2	388	389	16.4	61.4
2025-07-07T18:37	10	1	0.1	1	1	388	0.3	388	389	16.4	62.0
2025-07-07T18:38	10	1	0.1	1	1	388	0.2	388	388	16.4	62.2
2025-07-07T18:39	10	1	0.1	1	1	388	0.2	387	388	16.3	63.0
2025-07-07T18:40	10	1	0.1	0	1	388	0.2	387	388	16.3	63.3
2025-07-07T18:41	10	1	0.1	0	1	388	0.2	387	388	16.2	63.3
2025-07-07T18:42	10	1	0.1	0	1	388	0.3	387	388	16.2	63.1
2025-07-07T18:43	10	0	0.1	0	1	387	0.2	387	388	16.2	64.0
2025-07-07T18:44	10	0	0.1	0	1	387	0.2	386	387	16.1	64.8
2025-07-07T18:45	10	0	0.1	0	0	386	0.4	386	387	16.0	64.7
2025-07-07T18:46	10	0	0.1	0	0	386	0.3	385	386	15.9	65.7
2025-07-07T18:47	10	0	0.1	0	0	385	0.3	385	386	15.8	66.8
2025-07-07T18:48	10	0	0.1	0	0	385	0.2	384	385	15.7	67.6
2025-07-07T18:49	10	0	0.1	0	0	385	0.2	384	385	15.6	68.1
2025-07-07T18:50	10	0	0.1	0	0	384	0.3	384	385	15.5	68.8
2025-07-07T18:51	10	0	0.1	0	0	383	0.2	383	384	15.3	69.9
2025-07-07T18:52	10	0	0.1	0	0	383	0.2	382	384	15.2	71.2
2025-07-07T18:53	10	0	0.1	0	0	383	0.3	382	383	15.1	71.7
2025-07-07T18:54	10	0	0.1	0	0	382	0.2	382	383	15.0	72.8
2025-07-07T18:55	10	0	0.1	0	0	382	0.2	381	382	14.9	73.8
2025-07-07T18:56	10	0	0.1	0	0	381	0.3	381	382	14.8	74.8
2025-07-07T18:57	10	0	0.1	0	1	381	0.3	381	382	14.7	75.9
2025-07-07T18:58	10	0	0.1	0	1	381	0.2	380	381	14.7	76.0
2025-07-07T18:59	10	1	0.1	0	1	381	0.4	379	381	14.6	75.4
2025-07-07T19:00	10	1	0.1	0	1	380	0.3	380	381	14.6	77.0
2025-07-07T19:01	10	1	0.1	0	1	380	0.2	380	381	14.5	77.3
2025-07-07T19:02	10	1	0.1	1	1	380	0.4	379	381	14.4	78.3
2025-07-07T19:03	10	1	0.1	1	1	380	0.2	380	381	14.4	77.8
2025-07-07T19:04	10	1	0.1	1	1	380	0.2	379	380	14.4	77.7
2025-07-07T19:05	10	1	0.1	1	1	380	0.2	379	380	14.4	78.1
2025-07-07T19:06	10	1	0.1	1	1	380	0.3	379	381	14.3	78.0
2025-07-07T19:07	10	1	0.1	1	1	380	0.2	379	380	14.2	79.5
2025-07-07T19:08	10	1	0.1	1	1	380	0.2	379	380	14.3	78.5
2025-07-07T19:09	10	1	0.1	1	1	379	0.2	379	380	14.2	78.9
2025-07-07T19:10	10	1	0.1	1	1	379	0.3	379	380	14.2	79.0
2025-07-07T19:11	10	1	0.1	1	1	379	0.2	379	380	14.1	80.0
2025-07-07T19:12	10	1	0.1	1	1	379	0.3	379	380	14.1	80.5
2025-07-07T19:13	10	1	0.1	1	1	379	0.2	379	380	14.1	81.3
2025-07-07T19:14	10	1	0.1	1	1	379	0.3	378	380	14.0	81.0
2025-07-07T19:15	10	1	0.1	0	1	379	0.2	379	379	14.0	81.5
2025-07-07T19:16	10	1	0.1	0	1	379	0.2	378	379	13.9	81.7
2025-07-07T19:17	10	1	0.1	0	1	378	0.2	378	379	13.9	81.8
2025-07-07T19:18	10	0	0.1	0	1	378	0.2	378	379	13.9	82.7
2025-07-07T19:19	10	0	0.1	0	1	378	0.2	378	379	13.8	82.8
2025-07-07T19:20	10	0	0.1	0	0	378	0.3	378	379	13.9	82.1
2025-07-07T19:21	10	0	0.0	0	1	378	0.3	378	379	13.8	82.5
2025-07-07T19:22	10	0	0.1	0	1	378	0.2	377	378	13.8	82.7
2025-07-07T19:23	10	0	0.1	0	1	378	0.2	377	378	13.8	82.5
2025-07-07T19:24	10	0	0.1	0	0	377	0.3	377	378	13.7	82.3
2025-07-07T19:25	10	0	0.1	0	0	377	0.2	377	378	13.8	80.8
2025-07-07T19:26	10	0	0.1	0	0	377	0.2	377	377	13.8	80.8
2025-07-07T19:27	10	0	0.1	0	1	377	0.2	376	377	13.6	83.3
2025-07-07T19:28	10	0	0.1	0	0	377	0.2	376	377	13.5	85.7
2025-07-07T19:29	10	0	0.1	0	1	377	0.2	376	377	13.5	85.5
2025-07-07T19:30	10	0	0.1	0	0	377	0.3	376	377	13.5	84.5
2025-07-07T19:31	10	0	0.1	0	1	376	0.2	376	377	13.4	86.3
2025-07-07T19:32	10	0	0.1	0	1	376	0.2	376	377	13.4	85.5
2025-07-07T19:33	10	0	0.1	0	0	376	0.3	375	377	13.4	85.1
2025-07-07T19:34	10	0	0.1	0	1	376	0.3	376	377	13.4	84.2
2025-07-07T19:35	10	0	0.1	0	1	376	0.2	376	377	13.5	83.4
2025-07-07T19:36	10	0	0.1	0	0	376	0.3	375	376	13.4	84.8
2025-07-07T19:37	10	0	0.1	0	1	376	0.2	375	376	13.4	84.8
2025-07-07T19:38	10	0	0.2	0	1	376	0.3	375	377	13.4	84.9
2025-07-07T19:39	10	0	0.2	0	1	376	0.3	375	377	13.3	86.2
2025-07-07T19:40	10	0	0.1	0	0	376	0.3	375	377	13.2	86.6
2025-07-07T19:41	10	0	0.1	0	0	376	0.3	375	376	13.2	87.7
2025-07-07T19:42	10	0	0.1	0	1	376	0.2	375	376	13.2	87.7
2025-07-07T19:43	10	0	0.1	0	0	376	0.3	375	377	13.2	88.3
2025-07-07T19:44	10	0	0.2	0	1	376	0.2	375	376	13.2	88.2
2025-07-07T19:45	10	0	0.1	0	0	376	0.2	376	377	13.2	87.8
2025-07-07T19:46	10	0	0.1	0	0	376	0.3	375	376	13.2	87.4
2025-07-07T19:47	10	0	0.1	0	0	376	0.2	376	376	13.2	87.6
2025-07-07T19:48	10	0	0.1	0	0	376	0.2	376	377	13.2	87.1
2025-07-07T19:49	10	0	0.0	0	0	376	0.2	376	377	13.2	87.4
2025-07-07T19:50	10	0	0.1	0	0	376	0.2	376	376	13.2	87.2
2025-07-07T19:51	10	0	0.0	0	0	376	0.2	375	376	13.2	87.1
2025-07-07T19:52	10	0	0.1	0	0	376	0.2	375	376	13.2	87.5
2025-07-07T19:53	10	0	0.0	0	0	376	0.2	375	376	13.1	88.3
2025-07-07T19:54	10	0	0.1	0	0	376	0.2	375	376	13.1	87.7
2025-07-07T19:55	10	0	0.0	0	0	376	0.2	376	377	13.2	87.2
2025-07-07T19:56	10	0	0.1	0	0	376	0.2	375	376	13.2	87.0
2025-07-07T19:57	10	0	0.1	0	0	376	0.2	375	376	13.1	87.6
2025-07-07T19:58	10	0	0.0	0	0	376	0.2	375	376	13.1	88.1
2025-07-07T19:59	10	0	0.0	0	0	376	0.2	376	376	13.1	87.7
2025-07-07T20:00	10	0	0.0	0	0	376	0.3	375	376	13.1	88.3
2025-07-07T20:01	10	0	0.0	0	0	376	0.3	375	376	13.0	88.5
2025-07-07T20:02	10	0	0.0	0	0	376	0.2	375	376	13.0	88.4
2025-07-07T20:03	10	0	0.1	0	0	376	0.2	375	376	13.1	87.2
2025-07-07T20:04	10	0	0.0	0	0	376	0.3	375	376	13.1	88.0
2025-07-07T20:05	10	0	0.0	0	0	376	0.3	375	376	13.1	87.3
2025-07-07T20:06	10	0	0.0	0	0	375	0.3	375	376	13.0	87.8
2025-07-07T20:07	10	0	0.1	0	0	375	0.2	375	376	13.0	87.4
2025-07-07T20:08	10	0	0.0	0	0	375	0.2	375	375	13.1	87.4
2025-07-07T20:09	10	0	0.1	0	0	375	0.2	375	376	13.0	87.4
2025-07-07T20:10	10	0	0.0	0	0	375	0.3	374	375	13.0	87.7
2025-07-07T20:11	10	0	0.1	0	0	375	0.2	375	376	13.1	87.0
2025-07-07T20:12	10	0	0.1	0	0	375	0.2	374	376	13.1	87.3
2025-07-07T20:13	10	0	0.1	0	0	375	0.2	375	376	13.1	87.5
2025-07-07T20:14	10	0	0.1	0	0	375	0.2	375	375	13.1	87.2
2025-07-07T20:15	10	0	0.1	0	0	375	0.2	375	376	13.0	88.1
2025-07-07T20:16	10	0	0.1	0	0	375	0.2	374	375	13.0	87.9
2025-07-07T20:17	10	0	0.1	0	0	375	0.2	374	375	13.1	86.8
2025-07-07T20:18	10	0	0.1	0	0	375	0.3	374	376	13.1	86.5
2025-07-07T20:19	10	0	0.1	0	0	375	0.2	374	375	13.1	86.8
2025-07-07T20:20	10	0	0.1	0	0	375	0.3	374	375	13.1	87.0
2025-07-07T20:21	10	0	0.1	0	0	375	0.2	374	375	13.1	86.8
2025-07-07T20:22	10	0	0.1	0	0	375	0.2	374	375	13.2	86.1
2025-07-07T20:23	10	0	0.1	0	0	375	0.2	374	375	13.1	87.0
2025-07-07T20:24	10	0	0.1	0	0	375	0.2	375	376	13.1	86.9
2025-07-07T20:25	10	0	0.1	0	0	375	0.3	374	376	13.1	86.7
2025-07-07T20:26	10	0	0.1	0	0	375	0.2	374	375	13.1	86.9
2025-07-07T20:27	10	0	0.1	0	0	375	0.2	374	376	13.1	87.4
2025-07-07T20:28	10	0	0.1	0	0	375	0.3	375	376	13.1	86.4
2025-07-07T20:29	10	0	0.1	0	0	375	0.2	375	375	13.1	86.7
2025-07-07T20:30	10	0	0.1	0	0	375	0.3	375	376	13.1	87.2
2025-07-07T20:31	10	0	0.1	0	0	375	0.2	375	376	13.1	86.8
2025-07-07T20:32	10	0	0.1	0	0	375	0.2	374	375	13.2	86.4
2025-07-07T20:33	10	0	0.1	0	0	375	0.3	374	375	13.1	87.4
2025-07-07T20:34	10	0	0.1	0	0	374	0.2	374	375	13.1	87.0
2025-07-07T20:35	10	0	0.1	0	0	374	0.3	373	374	13.1	87.4
2025-07-07T20:36	10	0	0.1	0	0	374	0.2	374	375	13.1	86.5
2025-07-07T20:37	10	0	0.1	0	0	374	0.2	373	374	13.2	85.8
2025-07-07T20:38	10	0	0.1	0	0	374	0.2	373	375	13.2	86.1
2025-07-07T20:39	10	0	0.1	0	0	374	0.2	374	375	13.1	86.6
2025-07-07T20:40	10	0	0.1	0	0	374	0.3	374	375	13.1	87.0
2025-07-07T20:41	10	0	0.1	0	0	374	0.2	374	375	13.1	87.7
2025-07-07T20:42	10	0	0.1	0	0	374	0.2	374	375	13.0	88.2
2025-07-07T20:43	10	0	0.1	0	0	374	0.2	374	375	13.1	87.7
2025-07-07T20:44	10	0	0.1	0	0	375	0.2	374	375	13.1	87.6
2025-07-07T20:45	10	0	0.1	0	0	375	0.2	374	375	13.1	87.3
2025-07-07T20:46	10	0	0.0	0	0	375	0.2	374	375	13.1	87.6
2025-07-07T20:47	10	0	0.1	0	0	375	0.2	374	375	13.2	87.5
2025-07-07T20:48	10	0	0.1	0	0	374	0.3	374	375	13.1	88.1
2025-07-07T20:49	10	0	0.1	0	0	374	0.3	374	375	13.1	88.0
2025-07-07T20:50	10	0	0.0	0	0	374	0.2	374	375	13.1	88.6
2025-07-07T20:51	10	0	0.0	0	0	374	0.2	374	375	13.1	88.3
2025-07-07T20:52	10	0	0.1	0	0	374	0.3	374	375	13.1	88.2
2025-07-07T20:53	10	0	0.1	0	0	375	0.2	374	375	13.1	88.6
2025-07-07T20:54	10	0	0.0	0	0	375	0.3	375	376	13.1	88.8
2025-07-07T20:55	10	0	0.0	0	0	375	0.2	375	376	13.1	88.9
2025-07-07T20:56	10	0	0.1	0	0	376	0.2	375	376	13.1	89.1
2025-07-07T20:57	10	0	0.1	0	0	376	0.3	375	376	13.1	88.8
2025-07-07T20:58	10	0	0.0	0	0	376	0.2	375	376	13.1	88.9
2025-07-07T20:59	10	0	0.1	0	0	376	0.2	375	376	13.1	89.6
2025-07-07T21:00	10	0	0.1	0	0	376	0.2	375	376	13.1	89.2
2025-07-07T21:01	10	0	0.0	0	0	376	0.2	375	376	13.1	89.1
2025-07-07T21:02	10	0	0.1	0	0	376	0.2	376	376	13.1	89.3
2025-07-07T21:03	10	0	0.0	0	0	376	0.3	375	376	13.1	89.1
2025-07-07T21:04	10	0	0.0	0	0	376	0.3	375	376	13.1	89.6
2025-07-07T21:05	10	0	0.0	0	0	376	0.2	375	376	13.1	89.9
2025-07-07T21:06	10	0	0.0	0	0	376	0.2	375	376	13.1	89.6
2025-07-07T21:07	10	0	0.0	0	0	376	0.3	376	377	13.1	89.6
2025-07-07T21:08	10	0	0.1	0	0	376	0.2	376	377	13.1	89.5
2025-07-07T21:09	10	0	0.1	0	0	376	0.2	376	377	13.1	89.9
2025-07-07T21:10	10	0	0.0	0	0	376	0.2	375	377	13.1	89.6
2025-07-07T21:11	10	0	0.0	0	0	376	0.2	376	377	13.2	88.7
2025-07-07T21:12	10	0	0.1	0	0	376	0.3	376	377	13.2	88.2
2025-07-07T21:13	10	0	0.0	0	0	376	0.2	376	377	13.2	88.5
2025-07-07T21:14	10	0	0.1	0	0	376	0.3	376	377	13.2	88.1
2025-07-07T21:15	10	0	0.1	0	0	376	0.2	376	377	13.3	87.8
2025-07-07T21:16	10	0	0.1	0	0	377	0.2	376	377	13.3	88.3
2025-07-07T21:17	10	0	0.1	0	0	377	0.3	376	377	13.3	88.1
2025-07-07T21:18	10	0	0.0	0	0	377	0.2	376	377	13.3	88.3
2025-07-07T21:19	10	0	0.1	0	0	377	0.3	376	377	13.3	87.7
2025-07-07T21:20	10	0	0.0	0	0	377	0.2	376	377	13.4	87.0
2025-07-07T21:21	10	0	0.1	0	0	377	0.2	376	377	13.4	86.8
2025-07-07T21:22	10	0	0.1	0	0	377	0.2	376	377	13.4	86.5
2025-07-07T21:23	10	0	0.1	0	0	377	0.4	376	378	13.5	85.8
2025-07-07T21:24	10	0	0.1	0	0	377	0.3	376	378	13.5	85.7
2025-07-07T21:25	10	0	0.1	0	0	377	0.2	377	378	13.6	85.3
2025-07-07T21:26	10	0	0.1	0	0	377	0.2	377	378	13.6	85.2
2025-07-07T21:27	10	0	0.1	0	0	377	0.2	377	378	13.5	85.7
2025-07-07T21:28	10	0	0.1	0	0	377	0.2	377	378	13.6	84.7
2025-07-07T21:29	10	0	0.1	0	0	377	0.2	377	378	13.6	84.9
2025-07-07T21:30	10	0	0.1	0	0	378	0.2	377	378	13.6	85.0
2025-07-07T21:31	10	0	0.1	0	0	378	0.3	377	378	13.6	84.7
2025-07-07T21:32	10	0	0.1	0	0	378	0.2	377	378	13.6	84.6
2025-07-07T21:33	10	0	0.1	0	0	378	0.3	377	379	13.6	84.7
2025-07-07T21:34	10	0	0.1	0	0	378	0.3	377	379	13.6	84.6
2025-07-07T21:35	10	0	0.1	0	0	378	0.3	377	378	13.7	84.1
2025-07-07T21:36	10	0	0.1	0	0	378	0.2	377	378	13.7	84.3
2025-07-07T21:37	10	0	0.1	0	0	378	0.2	377	378	13.7	83.6
2025-07-07T21:38	10	0	0.1	0	0	378	0.2	377	378	13.7	83.9
2025-07-07T21:39	10	0	0.1	0	0	377	0.2	377	378	13.7	83.9
2025-07-07T21:40	10	0	0.1	0	0	378	0.2	377	378	13.7	83.7
2025-07-07T21:41	10	0	0.1	0	0	377	0.2	377	378	13.7	84.4
2025-07-07T21:42	10	0	0.1	0	0	377	0.2	377	378	13.7	84.0
2025-07-07T21:43	10	0	0.1	0	0	378	0.3	377	378	13.7	84.1
2025-07-07T21:44	10	0	0.1	0	0	378	0.2	377	378	13.7	84.2
2025-07-07T21:45	10	0	0.0	0	0	378	0.2	377	378	13.8	83.5
2025-07-07T21:46	10	0	0.1	0	0	377	0.3	377	378	13.8	83.4
2025-07-07T21:47	10	0	0.1	0	0	377	0.2	377	378	13.7	84.3
2025-07-07T21:48	10	0	0.1	0	0	378	0.3	377	378	13.6	84.6
2025-07-07T21:49	10	0	0.1	0	0	377	0.2	377	378	13.6	84.8
2025-07-07T21:50	10	0	0.1	0	0	378	0.2	377	378	13.7	84.4
2025-07-07T21:51	10	0	0.1	0	0	378	0.2	377	378	13.6	84.9
2025-07-07T21:52	10	0	0.1	0	0	378	0.2	377	378	13.6	84.9
2025-07-07T21:53	10	0	0.1	0	0	378	0.3	377	378	13.7	84.3
2025-07-07T21:54	10	0	0.0	0	0	378	0.2	377	378	13.7	84.9
2025-07-07T21:55	10	0	0.0	0	0	377	0.3	377	378	13.6	86.4
2025-07-07T21:56	10	0	0.1	0	0	377	0.2	377	378	13.5	87.6
2025-07-07T21:57	10	0	0.1	0	0	377	0.2	376	378	13.5	87.8
2025-07-07T21:58	10	0	0.1	0	0	377	0.2	377	378	13.4	87.9
2025-07-07T21:59	10	0	0.1	0	0	377	0.2	376	377	13.4	88.6
2025-07-07T22:00	10	0	0.0	0	0	377	0.2	377	378	13.4	88.7
2025-07-07T22:01	10	0	0.1	0	0	377	0.2	377	378	13.4	89.1
2025-07-07T22:02	10	0	0.1	0	0	377	0.2	377	378	13.4	88.7
2025-07-07T22:03	10	0	0.1	0	0	377	0.2	376	377	13.3	89.2
2025-07-07T22:04	10	0	0.1	0	0	377	0.2	376	377	13.3	88.4
2025-07-07T22:05	10	0	0.1	0	0	377	0.3	376	378	13.3	89.3
2025-07-07T22:06	10	0	0.1	0	0	377	0.3	376	377	13.3	89.1
2025-07-07T22:07	10	0	0.1	0	0	377	0.3	376	377	13.3	88.9
2025-07-07T22:08	10	0	0.1	0	0	377	0.3	376	377	13.3	89.2
2025-07-07T22:09	10	0	0.1	0	0	377	0.2	376	377	13.3	89.4
2025-07-07T22:10	10	0	0.1	0	0	376	0.2	376	377	13.2	90.2
2025-07-07T22:11	10	0	0.1	0	0	377	0.3	376	377	13.1	90.6
2025-07-07T22:12	10	0	0.1	0	0	376	0.2	376	377	13.1	90.7
2025-07-07T22:13	10	0	0.1	0	0	376	0.2	376	377	13.1	90.8
2025-07-07T22:14	10	0	0.1	0	0	376	0.2	376	376	13.0	90.7
2025-07-07T22:15	10	0	0.1	0	0	376	0.2	375	376	13.0	90.2
2025-07-07T22:16	10	0	0.0	0	0	376	0.2	375	376	13.0	90.1
2025-07-07T22:17	10	0	0.0	0	0	376	0.2	375	376	13.0	90.0
2025-07-07T22:18	10	0	0.1	0	0	375	0.2	375	376	13.0	91.1
2025-07-07T22:19	10	0	0.0	0	0	376	0.2	375	376	12.9	91.2
2025-07-07T22:20	10	0	0.0	0	0	376	0.3	375	376	12.9	91.1
2025-07-07T22:21	10	0	0.1	0	0	375	0.2	375	376	12.9	90.9
2025-07-07T22:22	10	0	0.1	0	0	375	0.2	375	376	12.9	90.8
2025-07-07T22:23	10	0	0.1	0	0	375	0.3	374	376	12.9	91.2
2025-07-07T22:24	10	0	0.1	0	0	375	0.2	375	376	12.8	92.3
2025-07-07T22:25	10	0	0.1	0	0	375	0.3	374	375	12.8	93.0
2025-07-07T22:26	10	0	0.1	0	0	375	0.3	375	376	12.7	93.8
2025-07-07T22:27	10	0	0.1	0	0	375	0.3	374	375	12.7	93.7
2025-07-07T22:28	10	0	0.1	0	0	375	0.2	374	375	12.7	90.6
2025-07-07T22:29	10	0	0.1	0	0	375	0.2	374	376	12.7	93.7
2025-07-07T22:30	10	0	0.1	0	0	375	0.2	374	375	12.7	93.7
2025-07-07T22:31	10	0	0.1	0	0	375	0.3	374	375	12.7	93.7
2025-07-07T22:32	10	0	0.1	0	0	375	0.2	374	375	12.7	93.7
2025-07-07T22:33	10	0	0.1	0	0	374	0.2	374	375	12.7	93.7
2025-07-07T22:34	10	0	0.1	0	0	374	0.2	374	375	12.7	93.7
2025-07-07T22:35	10	0	0.0	0	0	374	0.2	374	375	12.6	92.8
2025-07-07T22:36	10	0	0.1	0	0	374	0.2	374	375	12.6	92.8
2025-07-07T22:37	10	0	0.1	0	0	374	0.3	373	375	12.6	94.2
2025-07-07T22:38	10	0	0.0	0	0	374	0.2	374	375	12.6	94.7
2025-07-07T22:39	10	0	0.0	0	0	374	0.2	374	375	12.6	94.6
2025-07-07T22:40	10	0	0.0	0	0	375	0.3	374	375	12.6	94.5
2025-07-07T22:41	10	0	0.0	0	0	374	0.2	374	375	12.6	94.7
2025-07-07T22:42	10	0	0.0	0	0	374	0.2	374	375	12.5	95.1
2025-07-07T22:43	10	0	0.0	0	0	374	0.2	373	374	12.5	95.3
2025-07-07T22:44	10	0	0.0	0	0	374	0.2	373	374	12.5	95.2
2025-07-07T22:45	10	0	0.1	0	0	374	0.3	373	375	12.5	94.8
2025-07-07T22:46	10	0	0.0	0	0	374	0.2	373	374	12.5	94.7
2025-07-07T22:47	10	0	0.1	0	0	374	0.2	373	374	12.5	94.8
2025-07-07T22:48	10	0	0.1	0	0	374	0.2	373	374	12.5	94.4
2025-07-07T22:49	10	0	0.0	0	0	374	0.2	373	374	12.5	94.4
2025-07-07T22:50	10	0	0.0	0	0	374	0.2	374	375	12.5	94.6
2025-07-07T22:51	10	0	0.0	0	0	374	0.2	373	374	12.5	93.0
2025-07-07T22:52	10	0	0.0	0	0	374	0.2	373	374	12.6	93.2
2025-07-07T22:53	10	0	0.0	0	0	374	0.2	374	375	12.6	93.4
2025-07-07T22:54	10	0	0.0	0	0	374	0.2	374	375	12.6	93.2
2025-07-07T22:55	10	0	0.1	0	0	374	0.3	374	375	12.6	93.2
2025-07-07T22:56	10	0	0.1	0	0	374	0.2	374	375	12.6	92.8
2025-07-07T22:57	10	0	0.1	0	0	374	0.2	374	375	12.6	92.6
2025-07-07T22:58	10	0	0.0	0	0	374	0.2	374	375	12.6	92.1
2025-07-07T22:59	10	0	0.1	0	0	374	0.2	374	375	12.6	92.3
2025-07-07T23:00	10	0	0.1	0	0	374	0.2	374	375	12.7	90.7
2025-07-07T23:01	10	0	0.1	0	0	374	0.3	374	375	12.7	90.9
2025-07-07T23:02	10	0	0.1	0	0	374	0.2	374	375	12.7	90.9
2025-07-07T23:03	10	0	0.1	0	0	375	0.2	374	375	12.7	90.6
2025-07-07T23:04	10	0	0.1	0	0	374	0.2	374	375	12.8	89.1
2025-07-07T23:05	10	0	0.1	0	0	374	0.2	374	375	12.8	89.7
2025-07-07T23:06	10	0	0.1	0	0	374	0.3	374	375	12.8	89.8
2025-07-07T23:07	10	0	0.1	0	0	375	0.2	374	375	12.8	89.8
2025-07-07T23:08	10	0	0.1	0	0	375	0.2	374	375	12.9	89.1
2025-07-07T23:09	10	0	0.1	0	0	374	0.2	374	375	12.9	89.1
2025-07-07T23:10	10	0	0.1	0	0	375	0.2	374	375	12.9	89.0
2025-07-07T23:11	10	0	0.1	0	0	375	0.2	374	375	12.9	88.6
2025-07-07T23:12	10	0	0.1	0	0	375	0.3	374	375	12.9	89.1
2025-07-07T23:13	10	0	0.1	0	0	375	0.3	374	375	12.9	89.2
2025-07-07T23:14	10	0	0.1	0	0	375	0.2	374	375	12.9	89.6
2025-07-07T23:15	10	0	0.1	0	0	375	0.2	374	375	12.8	89.7
2025-07-07T23:16	10	0	0.1	0	0	375	0.3	374	375	12.8	89.8
2025-07-07T23:17	10	0	0.1	0	0	375	0.2	374	375	12.8	90.6
2025-07-07T23:18	10	0	0.1	0	0	375	0.2	374	375	12.8	90.6
2025-07-07T23:19	10	0	0.1	0	0	375	0.2	374	375	12.8	90.9
2025-07-07T23:20	10	0	0.1	0	0	375	0.1	375	375	12.8	90.6
2025-07-07T23:21	10	0	0.1	0	0	375	0.2	375	375	12.8	90.3
2025-07-07T23:22	10	0	0.1	0	0	375	0.2	375	375	12.8	89.7
2025-07-07T23:23	10	0	0.0	0	0	375	0.2	374	376	12.9	88.6
2025-07-07T23:24	10	0	0.1	0	0	375	0.3	374	376	13.1	86.1
2025-07-07T23:25	10	0	0.1	0	0	375	0.2	374	375	13.1	87.2
2025-07-07T23:26	10	0	0.1	0	0	375	0.2	374	375	13.0	87.8
2025-07-07T23:27	10	0	0.1	0	0	375	0.2	374	375	13.0	88.0
2025-07-07T23:28	10	0	0.0	0	0	375	0.2	374	375	13.0	88.3
2025-07-07T23:29	10	0	0.0	0	0	375	0.2	374	375	13.0	87.6
2025-07-07T23:30	10	0	0.0	0	0	375	0.2	374	375	13.0	87.7
2025-07-07T23:31	10	0	0.0	0	0	374	0.3	374	375	13.0	87.2
2025-07-07T23:32	10	0	0.1	0	0	375	0.2	374	375	13.0	88.0
2025-07-07T23:33	10	0	0.1	0	0	374	0.2	374	375	12.9	89.0
2025-07-07T23:34	10	0	0.0	0	0	375	0.2	374	375	12.9	89.6
2025-07-07T23:35	10	0	0.1	0	0	375	0.2	374	375	12.9	88.8
2025-07-07T23:36	10	0	0.0	0	0	375	0.2	374	375	13.0	88.5
2025-07-07T23:37	10	0	0.0	0	0	375	0.2	374	375	13.0	88.4
2025-07-07T23:38	10	0	0.0	0	0	374	0.2	374	375	12.9	89.2
2025-07-07T23:39	10	0	0.0	0	0	374	0.2	374	375	12.9	89.2
2025-07-07T23:40	10	0	0.0	0	0	374	0.2	374	375	12.9	90.2
2025-07-07T23:41	10	0	0.0	0	0	374	0.2	374	375	12.8	90.6
2025-07-07T23:42	10	0	0.0	0	0	374	0.2	374	375	12.8	90.6
2025-07-07T23:43	10	0	0.0	0	0	374	0.2	374	374	12.8	90.7
2025-07-07T23:44	10	0	0.0	0	0	374	0.3	373	375	12.8	90.8
2025-07-07T23:45	10	0	0.0	0	0	374	0.2	373	374	12.7	91.2
2025-07-07T23:46	10	0	0.1	0	0	374	0.2	373	374	12.7	92.1
2025-07-07T23:47	10	0	0.0	0	0	373	0.2	373	374	12.6	92.7
2025-07-07T23:48	10	0	0.0	0	0	373	0.3	373	374	12.6	92.8
2025-07-07T23:49	10	0	0.0	0	0	373	0.3	373	374	12.6	92.4
2025-07-07T23:50	10	0	0.1	0	0	373	0.3	373	374	12.6	92.8
2025-07-07T23:51	10	0	0.1	0	0	374	0.2	373	374	12.6	93.1
2025-07-07T23:52	10	0	0.1	0	0	373	0.2	373	374	12.6	93.2
2025-07-07T23:53	10	0	0.0	0	0	374	0.2	373	374	12.6	93.4
2025-07-07T23:54	10	0	0.1	0	0	374	0.2	373	374	12.7	93.5
2025-07-07T23:55	10	0	0.1	0	0	374	0.2	373	374	12.7	93.6
2025-07-07T23:56	10	0	0.1	0	0	374	0.2	373	374	12.6	93.9
2025-07-07T23:57	10	0	0.1	0	0	374	0.2	373	374	12.7	93.8
2025-07-07T23:58	10	0	0.1	0	0	374	0.2	373	374	12.7	93.7
2025-07-07T23:59	10	0	0.0	0	0	374	0.2	373	374	12.7	93.6
2025-07-08T00:00	10	0	0.1	0	0	374	0.2	373	374	12.7	93.8
2025-07-08T00:01	10	0	0.1	0	0	374	0.2	373	374	12.7	93.9
2025-07-08T00:02	10	0	0.1	0	0	374	0.2	373	374	12.8	93.4
2025-07-08T00:03	10	0	0.1	0	0	374	0.3	373	374	12.8	93.6
2025-07-08T00:04	10	0	0.1	0	0	374	0.2	373	375	12.7	93.8
2025-07-08T00:05	10	0	0.0	0	0	374	0.3	373	375	12.7	94.2
2025-07-08T00:06	10	0	0.0	0	0	374	0.2	373	374	12.8	93.4
2025-07-08T00:07	10	0	0.1	0	0	374	0.3	373	374	12.8	93.4
2025-07-08T00:08	10	0	0.1	0	0	374	0.2	374	374	12.8	93.3
2025-07-08T00:09	10	0	0.1	0	0	374	0.2	374	375	12.8	93.1
2025-07-08T00:10	10	0	0.0	0	0	374	0.2	374	375	12.8	93.2
2025-07-08T00:11	10	0	0.0	0	0	374	0.2	374	375	12.8	92.8
2025-07-08T00:12	10	0	0.1	0	0	374	0.2	374	375	12.8	93.2
2025-07-08T00:13	10	0	0.1	0	0	374	0.2	374	375	12.8	93.5
2025-07-08T00:14	10	0	0.0	0	0	374	0.2	374	375	12.9	92.9
2025-07-08T00:15	10	0	0.1	0	0	374	0.2	374	375	12.9	93.1
2025-07-08T00:16	10	0	0.0	0	0	374	0.2	374	375	12.8	93.7
2025-07-08T00:17	10	0	0.1	0	0	374	0.2	374	375	12.8	93.7
2025-07-08T00:18	10	0	0.1	0	0	374	0.3	374	375	12.9	92.9
2025-07-08T00:19	10	0	0.0	0	0	374	0.3	374	375	12.9	92.8
2025-07-08T00:20	10	0	0.1	0	0	374	0.3	374	375	12.9	93.1
2025-07-08T00:21	10	0	0.0	0	0	374	0.2	374	375	12.9	93.1
2025-07-08T00:22	10	0	0.0	0	0	374	0.2	374	375	12.9	93.1
2025-07-08T00:23	10	0	0.0	0	0	374	0.3	374	375	12.8	93.2
2025-07-08T00:24	10	0	0.1	0	0	374	0.3	374	375	12.8	92.9
2025-07-08T00:25	10	0	0.1	0	0	375	0.2	374	375	12.9	92.5
2025-07-08T00:26	10	0	0.0	0	0	375	0.2	374	375	12.9	92.7
2025-07-08T00:27	10	0	0.1	0	0	375	0.2	374	375	12.9	92.0
2025-07-08T00:28	10	0	0.1	0	0	375	0.2	374	375	12.9	92.5
2025-07-08T00:29	10	0	0.0	0	0	375	0.2	374	375	12.9	92.8
2025-07-08T00:30	10	0	0.0	0	0	375	0.2	374	375	12.9	92.5
2025-07-08T00:31	10	0	0.1	0	0	375	0.2	374	375	12.9	91.7
2025-07-08T00:32	10	0	0.0	0	0	375	0.2	374	375	12.9	92.7
2025-07-08T00:33	10	0	0.0	0	0	375	0.2	375	375	12.9	92.3
2025-07-08T00:34	10	0	0.0	0	0	375	0.2	374	375	12.9	91.8
2025-07-08T00:35	10	0	0.0	0	0	375	0.3	374	375	12.9	91.3
2025-07-08T00:36	10	0	0.0	0	0	375	0.2	374	375	12.9	91.0
2025-07-08T00:37	10	0	0.0	0	0	375	0.2	374	375	13.0	90.3
2025-07-08T00:38	10	0	0.0	0	0	375	0.3	374	375	13.0	90.4
2025-07-08T00:39	10	0	0.0	0	0	375	0.2	374	375	12.9	90.6
2025-07-08T00:40	10	0	0.0	0	0	375	0.2	374	375	13.0	89.6
2025-07-08T00:41	10	0	0.0	0	0	375	0.2	374	375	13.0	90.1
2025-07-08T00:42	10	0	0.0	0	0	375	0.2	374	375	13.0	90.1
2025-07-08T00:43	10	0	0.0	0	0	375	0.2	374	375	12.9	91.2
2025-07-08T00:44	10	0	0.0	0	0	375	0.2	374	375	12.9	91.3
2025-07-08T00:45	10	0	0.0	0	0	375	0.2	374	375	12.9	91.2
2025-07-08T00:46	10	0	0.1	0	0	375	0.3	374	375	12.9	91.1
2025-07-08T00:47	10	0	0.0	0	0	375	0.2	374	375	12.9	91.5
2025-07-08T00:48	10	0	0.0	0	0	375	0.2	374	375	12.9	91.5
2025-07-08T00:49	10	0	0.0	0	0	374	0.3	374	375	12.9	91.4
2025-07-08T00:50	10	0	0.0	0	0	374	0.2	374	375	12.9	92.1
2025-07-08T00:51	10	0	0.1	0	0	375	0.3	374	375	12.8	92.2
2025-07-08T00:52	10	0	0.1	0	0	374	0.2	374	375	12.8	92.1
2025-07-08T00:53	10	0	0.0	0	0	375	0.2	374	375	12.9	92.0
2025-07-08T00:54	10	0	0.0	0	0	374	0.2	374	375	12.9	91.4
2025-07-08T00:55	10	0	0.0	0	0	374	0.2	374	375	12.9	91.8
2025-07-08T00:56	10	0	0.1	0	0	374	0.3	374	375	12.9	91.7
2025-07-08T00:57	10	0	0.1	0	0	374	0.3	373	375	12.9	91.9
2025-07-08T00:58	10	0	0.1	0	0	374	0.2	374	374	12.8	92.4
2025-07-08T00:59	10	0	0.1	0	0	374	0.2	373	374	12.9	91.8
2025-07-08T01:00	10	0	0.1	0	0	374	0.3	373	375	12.9	92.1
2025-07-08T01:01	10	0	0.1	0	0	374	0.2	374	375	12.9	92.0
2025-07-08T01:02	10	0	0.0	0	0	374	0.2	374	375	12.9	92.0
2025-07-08T01:03	10	0	0.0	0	0	374	0.3	374	375	12.9	92.0
2025-07-08T01:04	10	0	0.1	0	0	374	0.3	373	375	12.9	92.1
2025-07-08T01:05	10	0	0.0	0	0	374	0.2	373	374	12.9	92.1
2025-07-08T01:06	10	0	0.1	0	0	374	0.2	373	374	12.9	91.9
2025-07-08T01:07	10	0	0.0	0	0	374	0.2	374	375	12.9	90.9
2025-07-08T01:08	10	0	0.0	0	0	374	0.2	373	374	12.9	91.5
2025-07-08T01:09	10	0	0.1	0	0	374	0.2	373	374	12.9	92.2
2025-07-08T01:10	10	0	0.0	0	0	374	0.2	373	374	12.8	92.6
2025-07-08T01:11	10	0	0.0	0	0	373	0.2	373	374	12.8	92.0
2025-07-08T01:12	10	0	0.1	0	0	373	0.3	372	374	12.9	91.8
2025-07-08T01:13	10	0	0.1	0	0	373	0.3	372	374	12.9	91.7
2025-07-08T01:14	10	0	0.1	0	0	373	0.2	372	374	12.9	90.9
2025-07-08T01:15	10	0	0.0	0	0	373	0.1	373	373	12.9	91.8
2025-07-08T01:16	10	0	0.1	0	0	373	0.2	372	373	12.8	92.6
2025-07-08T01:17	10	0	0.1	0	0	373	0.2	372	373	12.8	92.2
2025-07-08T01:18	10	0	0.0	0	0	373	0.2	372	373	12.8	92.1
2025-07-08T01:19	10	0	0.1	0	0	373	0.2	373	373	12.9	91.4
2025-07-08T01:20	10	0	0.1	0	0	373	0.2	372	373	12.8	91.7
2025-07-08T01:21	10	0	0.1	0	0	373	0.2	372	373	12.8	91.9
2025-07-08T01:22	10	0	0.0	0	0	373	0.3	372	373	12.8	91.5
2025-07-08T01:23	10	0	0.1	0	0	373	0.2	372	373	12.8	91.8
2025-07-08T01:24	10	0	0.1	0	0	373	0.2	372	373	12.8	92.5
2025-07-08T01:25	10	0	0.0	0	0	373	0.2	372	373	12.8	92.1
2025-07-08T01:26	10	0	0.1	0	0	373	0.2	372	373	12.8	92.1
2025-07-08T01:27	10	0	0.1	0	0	373	0.2	373	374	12.8	91.7
2025-07-08T01:28	10	0	0.1	0	0	373	0.2	373	373	12.8	91.9
2025-07-08T01:29	10	0	0.1	0	0	373	0.2	373	374	12.8	92.2
2025-07-08T01:30	10	0	0.0	0	0	373	0.2	372	373	12.7	92.3
2025-07-08T01:31	10	0	0.1	0	0	373	0.2	373	374	12.8	91.9
2025-07-08T01:32	10	0	0.1	0	0	373	0.3	372	373	12.8	92.1
2025-07-08T01:33	10	0	0.1	0	0	373	0.3	372	373	12.7	92.3
2025-07-08T01:34	10	0	0.1	0	0	373	0.2	373	373	12.7	92.6
2025-07-08T01:35	10	0	0.1	0	0	373	0.2	372	373	12.7	92.3
2025-07-08T01:36	10	0	0.1	0	0	373	0.2	373	374	12.7	92.6
2025-07-08T01:37	10	0	0.0	0	0	373	0.1	373	373	12.7	92.8
2025-07-08T01:38	10	0	0.1	0	0	373	0.2	373	374	12.7	93.0
2025-07-08T01:39	10	0	0.1	0	0	373	0.2	373	374	12.7	92.6
2025-07-08T01:40	10	0	0.1	0	0	373	0.2	373	374	12.7	93.1
2025-07-08T01:41	10	0	0.1	0	0	374	0.2	373	374	12.7	92.7
2025-07-08T01:42	10	0	0.1	0	0	374	0.2	373	374	12.8	92.3
2025-07-08T01:43	10	0	0.1	0	0	373	0.2	373	374	12.8	92.3
2025-07-08T01:44	10	0	0.1	0	0	374	0.2	373	374	12.7	92.6
2025-07-08T01:45	10	0	0.1	0	0	374	0.2	373	374	12.7	92.9
2025-07-08T01:46	10	0	0.1	0	0	374	0.2	373	374	12.7	92.8
2025-07-08T01:47	10	0	0.1	0	0	374	0.2	373	374	12.7	93.1
2025-07-08T01:48	10	0	0.1	0	0	374	0.2	373	374	12.7	93.3
2025-07-08T01:49	10	0	0.0	0	0	374	0.2	373	374	12.7	93.3
2025-07-08T01:50	10	0	0.1	0	0	374	0.2	373	374	12.7	93.5
2025-07-08T01:51	10	0	0.1	0	0	374	0.2	373	374	12.7	93.3
2025-07-08T01:52	10	0	0.1	0	0	374	0.2	373	374	12.7	92.9
2025-07-08T01:53	10	0	0.0	0	0	374	0.2	373	374	12.7	93.3
2025-07-08T01:54	10	0	0.0	0	0	374	0.2	373	374	12.7	93.2
2025-07-08T01:55	10	0	0.1	0	0	374	0.2	373	374	12.7	93.7
2025-07-08T01:56	10	0	0.1	0	0	374	0.3	373	374	12.7	93.5
2025-07-08T01:57	10	0	0.0	0	0	374	0.2	374	374	12.7	93.5
2025-07-08T01:58	10	0	0.0	0	0	374	0.2	374	375	12.7	93.7
2025-07-08T01:59	10	0	0.1	0	0	374	0.2	374	375	12.7	93.6
2025-07-08T02:00	10	0	0.0	0	0	374	0.3	374	375	12.7	93.8
2025-07-08T02:01	10	0	0.1	0	0	374	0.2	374	375	12.7	93.8
2025-07-08T02:02	10	0	0.0	0	0	374	0.2	374	375	12.7	93.7
2025-07-08T02:03	10	0	0.1	0	0	374	0.3	374	375	12.8	93.0
2025-07-08T02:04	10	0	0.1	0	0	374	0.2	374	375	12.8	93.5
2025-07-08T02:05	10	0	0.1	0	0	374	0.3	374	375	12.7	93.6
2025-07-08T02:06	10	0	0.1	0	0	374	0.2	374	375	12.7	93.8
2025-07-08T02:07	10	0	0.0	0	0	374	0.2	374	375	12.7	93.9
2025-07-08T02:08	10	0	0.0	0	0	374	0.2	373	375	12.7	93.9
2025-07-08T02:09	10	0	0.1	0	0	374	0.2	374	375	12.7	93.9
2025-07-08T02:10	10	0	0.1	0	0	374	0.2	374	374	12.7	94.1
2025-07-08T02:11	10	0	0.1	0	0	374	0.2	374	375	12.7	93.9
2025-07-08T02:12	10	0	0.1	0	0	374	0.4	373	375	12.7	94.0
2025-07-08T02:13	10	0	0.1	0	0	374	0.3	373	375	12.7	93.4
2025-07-08T02:14	10	0	0.1	0	0	374	0.2	373	374	12.7	93.7
2025-07-08T02:15	10	0	0.1	0	0	374	0.2	373	374	12.7	94.2
2025-07-08T02:16	10	0	0.1	0	0	374	0.3	373	375	12.7	94.1
2025-07-08T02:17	10	0	0.1	0	0	374	0.2	373	374	12.7	94.3
2025-07-08T02:18	10	0	0.1	0	0	374	0.2	373	374	12.7	94.3
2025-07-08T02:19	10	0	0.1	-1	0	374	0.3	373	374	12.6	94.8
2025-07-08T02:20	10	0	0.1	0	0	374	0.2	373	374	12.6	94.7
2025-07-08T02:21	10	0	0.1	0	0	374	0.2	373	374	12.7	94.4
2025-07-08T02:22	10	0	0.1	0	0	374	0.3	373	374	12.7	94.0
2025-07-08T02:23	10	0	0.1	0	0	374	0.2	373	374	12.7	94.5
2025-07-08T02:24	10	0	0.1	0	0	374	0.2	373	374	12.7	94.7
2025-07-08T02:25	10	0	0.1	0	0	374	0.3	373	375	12.7	94.1
2025-07-08T02:26	10	0	0.1	0	0	374	0.2	374	374	12.7	94.4
2025-07-08T02:27	10	0	0.1	0	0	374	0.2	373	374	12.7	94.1
2025-07-08T02:28	10	0	0.0	0	0	374	0.2	374	375	12.7	93.9
2025-07-08T02:29	10	0	0.0	0	0	374	0.2	373	375	12.7	94.0
2025-07-08T02:30	10	0	0.1	0	0	374	0.3	373	375	12.7	94.2
2025-07-08T02:31	10	0	0.1	0	0	374	0.2	374	375	12.7	94.1
2025-07-08T02:32	10	0	0.1	0	0	374	0.2	374	375	12.7	94.4
2025-07-08T02:33	10	0	0.1	0	0	375	0.4	374	375	12.7	94.3
2025-07-08T02:34	10	0	0.1	0	0	375	0.2	374	375	12.8	93.3
2025-07-08T02:35	10	0	0.1	0	0	374	0.2	374	375	12.8	93.6
2025-07-08T02:36	10	0	0.1	0	0	374	0.2	374	375	12.8	93.3
2025-07-08T02:37	10	0	0.1	0	0	374	0.2	374	375	12.8	93.0
2025-07-08T02:38	10	0	0.0	0	0	374	0.2	374	375	12.8	93.6
2025-07-08T02:39	10	0	0.1	0	0	374	0.2	374	375	12.8	93.5
2025-07-08T02:40	10	0	0.0	0	0	375	0.2	374	375	12.8	93.3
2025-07-08T02:41	10	0	0.1	0	0	374	0.2	374	375	12.8	93.7
2025-07-08T02:42	10	0	0.0	0	0	374	0.2	374	374	12.7	94.5
2025-07-08T02:43	10	0	0.0	0	0	374	0.2	374	375	12.7	94.8
2025-07-08T02:44	10	0	0.1	0	0	375	0.2	374	375	12.8	93.8
2025-07-08T02:45	10	0	0.0	0	0	375	0.2	374	375	12.8	93.2
2025-07-08T02:46	10	0	0.1	0	0	375	0.2	374	375	12.9	93.0
2025-07-08T02:47	10	0	0.1	0	0	375	0.2	374	375	12.9	93.0
2025-07-08T02:48	10	0	0.1	0	0	375	0.2	374	375	12.9	92.3
2025-07-08T02:49	10	0	0.0	0	0	375	0.2	374	375	12.9	92.4
2025-07-08T02:50	10	0	0.1	0	0	375	0.2	374	375	12.9	92.5
2025-07-08T02:51	10	0	0.1	0	0	375	0.3	374	375	12.9	93.1
2025-07-08T02:52	10	0	0.1	0	0	375	0.3	374	375	12.9	92.7
2025-07-08T02:53	10	0	0.1	0	0	374	0.2	374	375	12.9	92.7
2025-07-08T02:54	10	0	0.0	0	0	374	0.2	374	375	12.8	93.2
2025-07-08T02:55	10	0	0.0	0	0	374	0.2	373	374	12.8	92.9
2025-07-08T02:56	10	0	0.1	0	0	374	0.2	374	374	12.8	93.4
2025-07-08T02:57	10	0	0.1	0	0	374	0.2	374	375	12.8	93.8
2025-07-08T02:58	10	0	0.1	-1	0	374	0.2	374	375	12.8	94.0
2025-07-08T02:59	10	0	0.1	-1	0	374	0.2	374	374	12.8	94.2
2025-07-08T03:00	10	0	0.1	0	0	374	0.2	374	374	12.7	94.3
2025-07-08T03:01	10	0	0.1	0	0	374	0.3	373	375	12.7	94.6
2025-07-08T03:02	10	0	0.1	-1	0	374	0.2	373	374	12.7	94.6
2025-07-08T03:03	10	0	0.1	-1	0	374	0.2	373	374	12.7	95.2
2025-07-08T03:04	10	0	0.1	-1	0	374	0.2	373	374	12.7	94.8
2025-07-08T03:05	10	0	0.1	0	0	374	0.2	373	374	12.8	94.3
2025-07-08T03:06	10	0	0.1	0	0	374	0.2	373	374	12.8	94.2
2025-07-08T03:07	10	0	0.1	0	0	374	0.2	373	374	12.8	94.2
2025-07-08T03:08	10	0	0.1	0	0	374	0.2	373	374	12.8	94.4
2025-07-08T03:09	10	0	0.0	0	0	374	0.2	373	374	12.8	94.5
2025-07-08T03:10	10	0	0.0	0	0	374	0.2	373	374	12.8	94.1
2025-07-08T03:11	10	0	0.1	0	0	374	0.2	373	374	12.8	94.0
2025-07-08T03:12	10	0	0.1	0	0	374	0.2	374	375	12.8	94.0
2025-07-08T03:13	10	0	0.1	0	0	374	0.2	374	375	12.8	93.6
2025-07-08T03:14	10	0	0.1	0	0	374	0.2	373	375	12.8	93.6
2025-07-08T03:15	10	0	0.1	0	0	374	0.2	374	375	12.8	93.9
2025-07-08T03:16	10	0	0.1	0	0	374	0.3	374	375	12.8	93.5
2025-07-08T03:17	10	0	0.1	0	0	374	0.3	373	375	12.9	93.1
2025-07-08T03:18	10	0	0.1	0	0	374	0.2	374	374	13.0	91.8
2025-07-08T03:19	10	0	0.1	0	0	374	0.3	373	375	13.0	91.2
2025-07-08T03:20	10	0	0.1	0	0	374	0.2	374	374	13.0	91.8
2025-07-08T03:21	10	0	0.1	0	0	374	0.2	373	374	12.9	92.1
2025-07-08T03:22	10	0	0.1	0	0	374	0.4	373	374	12.9	92.3
2025-07-08T03:23	10	0	0.1	0	0	374	0.2	373	374	12.9	92.7
2025-07-08T03:24	10	0	0.1	0	0	374	0.2	373	374	12.9	93.3
2025-07-08T03:25	10	0	0.1	0	0	374	0.2	373	374	12.9	93.0
2025-07-08T03:26	10	0	0.0	0	0	374	0.2	373	374	12.8	93.2
2025-07-08T03:27	10	0	0.1	0	0	374	0.2	373	374	12.9	92.8
2025-07-08T03:28	10	0	0.1	0	0	374	0.2	373	375	12.9	92.3
2025-07-08T03:29	10	0	0.1	0	0	374	0.2	373	374	12.9	92.7
2025-07-08T03:30	10	0	0.1	0	0	374	0.3	373	374	12.9	92.2
2025-07-08T03:31	10	0	0.1	0	0	374	0.2	373	374	13.0	91.4
2025-07-08T03:32	10	0	0.1	0	0	374	0.3	373	374	12.9	92.1
2025-07-08T03:33	10	0	0.1	0	0	374	0.2	373	374	12.9	92.4
2025-07-08T03:34	10	0	0.1	0	0	374	0.2	374	374	12.9	91.9
2025-07-08T03:35	10	0	0.1	0	0	374	0.2	373	374	12.9	92.4
2025-07-08T03:36	10	0	0.1	0	0	374	0.2	373	374	12.9	91.8
2025-07-08T03:37	10	0	0.1	0	0	374	0.3	373	374	13.0	91.6
2025-07-08T03:38	10	0	0.1	0	0	374	0.3	373	374	13.0	91.3
2025-07-08T03:39	10	0	0.1	0	0	374	0.3	373	375	13.0	91.0
2025-07-08T03:40	10	0	0.1	0	0	374	0.2	374	374	13.0	91.0
2025-07-08T03:41	10	0	0.1	0	0	374	0.3	373	374	13.0	91.3
2025-07-08T03:42	10	0	0.1	0	0	374	0.2	373	374	12.9	91.8
2025-07-08T03:43	10	0	0.1	0	0	374	0.2	373	374	12.9	91.8
2025-07-08T03:44	10	0	0.1	0	0	374	0.2	373	374	12.9	91.6
2025-07-08T03:45	10	0	0.1	0	0	374	0.2	373	374	12.9	91.7
2025-07-08T03:46	10	0	0.1	0	0	373	0.3	373	374	13.0	91.6
2025-07-08T03:47	10	0	0.1	0	1	373	0.3	373	374	12.9	91.6
2025-07-08T03:48	10	0	0.1	0	1	373	0.2	373	374	13.0	91.2
2025-07-08T03:49	10	0	0.1	0	1	373	0.2	373	374	13.0	90.8
2025-07-08T03:50	10	0	0.1	0	1	373	0.2	373	374	13.0	90.6
2025-07-08T03:51	10	0	0.1	0	1	373	0.3	373	374	13.0	91.1
2025-07-08T03:52	10	0	0.1	0	1	373	0.3	373	374	13.0	91.7
2025-07-08T03:53	10	0	0.1	0	1	374	0.3	373	374	12.9	92.4
2025-07-08T03:54	10	0	0.1	0	1	374	0.2	373	375	12.9	92.4
2025-07-08T03:55	10	0	0.1	0	1	374	0.2	374	375	12.9	92.6
2025-07-08T03:56	10	0	0.1	0	1	374	0.3	373	375	12.9	92.6
2025-07-08T03:57	10	0	0.1	0	1	374	0.2	374	375	12.9	93.3
2025-07-08T03:58	10	1	0.1	0	1	374	0.2	373	374	12.8	93.4
2025-07-08T03:59	10	1	0.1	0	1	374	0.2	374	375	12.8	93.8
2025-07-08T04:00	10	1	0.2	0	1	374	0.2	374	375	12.8	94.4
2025-07-08T04:01	10	1	0.1	0	1	374	0.3	374	375	12.8	94.5
2025-07-08T04:02	10	1	0.1	0	1	374	0.2	373	374	12.8	94.6
2025-07-08T04:03	10	0	0.1	0	1	374	0.3	374	375	12.8	94.5
2025-07-08T04:04	10	0	0.1	0	1	374	0.3	374	375	12.8	94.4
2025-07-08T04:05	10	0	0.1	0	1	375	0.2	374	375	12.8	94.6
2025-07-08T04:06	10	0	0.1	0	1	374	0.2	374	375	12.8	94.9
2025-07-08T04:07	10	0	0.2	0	1	375	0.3	374	375	12.8	93.6
2025-07-08T04:08	10	1	0.1	0	1	375	0.2	375	376	13.2	87.8
2025-07-08T04:09	10	1	0.1	0	1	375	0.3	374	376	13.3	86.6
2025-07-08T04:10	10	1	0.1	0	1	375	0.3	374	375	13.3	87.1
2025-07-08T04:11	10	1	0.1	1	1	375	0.3	375	376	13.3	86.9
2025-07-08T04:12	10	1	0.1	1	1	375	0.2	374	375	13.5	82.8
2025-07-08T04:13	10	1	0.2	1	2	375	0.2	374	375	13.5	84.1
2025-07-08T04:14	10	2	0.2	2	2	375	0.2	375	375	13.4	83.8
2025-07-08T04:15	10	3	0.2	2	3	375	0.2	374	375	13.5	83.2
2025-07-08T04:16	10	3	0.2	3	4	374	0.3	374	375	13.4	84.1
2025-07-08T04:17	10	4	0.2	3	4	374	0.2	374	375	13.6	80.0
2025-07-08T04:18	10	4	0.2	4	5	374	0.3	374	375	13.7	78.1
2025-07-08T04:19	10	5	0.2	5	5	374	0.2	374	375	13.7	77.0
2025-07-08T04:20	10	6	0.2	5	6	374	0.3	374	375	13.7	77.3
2025-07-08T04:21	10	6	0.1	6	6	374	0.2	374	375	13.6	79.9
2025-07-08T04:22	10	6	0.1	6	6	374	0.3	374	375	13.5	81.0
2025-07-08T04:23	10	6	0.1	6	6	374	0.3	373	374	13.3	86.3
2025-07-08T04:24	10	6	0.1	6	6	374	0.2	374	374	13.1	89.1
2025-07-08T04:25	10	6	0.1	6	6	374	0.2	374	375	13.0	90.2
2025-07-08T04:26	10	6	0.1	6	6	374	0.2	374	375	12.9	90.7
2025-07-08T04:27	10	6	0.1	6	7	374	0.3	373	375	12.9	90.4
2025-07-08T04:28	10	7	0.1	6	7	374	0.3	374	375	13.0	89.3
2025-07-08T04:29	10	7	0.1	7	7	374	0.2	373	374	13.0	89.4
2025-07-08T04:30	10	7	0.1	7	7	374	0.2	373	374	13.0	90.2
2025-07-08T04:31	10	7	0.1	7	7	373	0.2	373	374	13.0	90.1
2025-07-08T04:32	10	7	0.1	7	8	374	0.2	373	374	13.0	88.9
2025-07-08T04:33	10	8	0.2	8	8	373	0.2	373	374	13.1	87.3
2025-07-08T04:34	10	9	0.2	8	9	374	0.3	373	374	13.2	85.1
2025-07-08T04:35	10	9	0.2	9	10	374	0.2	373	374	13.2	86.1
2025-07-08T04:36	10	10	0.2	10	10	373	0.2	373	374	13.1	87.7
2025-07-08T04:37	10	11	0.2	10	11	374	0.3	373	374	13.0	89.2
2025-07-08T04:38	10	11	0.1	10	11	374	0.2	373	374	12.9	88.9
2025-07-08T04:39	10	10	0.1	10	11	374	0.3	373	375	12.9	89.6
2025-07-08T04:40	10	10	0.0	10	10	374	0.2	374	375	12.9	89.6
2025-07-08T04:41	10	10	0.1	10	10	374	0.2	374	375	13.0	88.3
2025-07-08T04:42	10	10	0.1	10	10	374	0.3	373	375	13.0	87.7
2025-07-08T04:43	10	10	0.1	9	10	374	0.3	373	375	13.1	86.7
2025-07-08T04:44	10	9	0.1	9	9	374	0.2	374	375	13.1	86.6
2025-07-08T04:45	10	9	0.1	8	9	374	0.2	374	375	13.1	86.3
2025-07-08T04:46	10	8	0.1	8	8	374	0.2	374	375	13.2	84.7
2025-07-08T04:47	10	8	0.1	8	8	374	0.2	374	374	13.2	85.8
2025-07-08T04:48	10	8	0.1	8	8	374	0.2	374	375	13.2	85.0
2025-07-08T04:49	10	8	0.1	7	8	374	0.2	374	375	13.2	85.4
2025-07-08T04:50	10	7	0.1	7	8	374	0.2	374	375	13.2	86.1
2025-07-08T04:51	10	7	0.1	7	8	374	0.3	374	375	13.2	85.8
2025-07-08T04:52	10	7	0.1	7	7	375	0.2	374	375	13.3	83.9
2025-07-08T04:53	10	7	0.1	7	7	374	0.2	374	375	13.3	83.6
2025-07-08T04:54	10	7	0.1	7	7	374	0.2	374	375	13.3	84.2
2025-07-08T04:55	10	7	0.1	7	7	374	0.3	374	375	13.2	86.3
2025-07-08T04:56	10	7	0.1	7	7	374	0.3	374	375	13.1	87.5
2025-07-08T04:57	10	7	0.1	6	7	374	0.2	374	375	13.1	86.7
2025-07-08T04:58	10	6	0.1	6	7	375	0.3	374	375	13.1	86.6
2025-07-08T04:59	10	6	0.1	6	7	375	0.2	374	376	13.2	85.2
2025-07-08T05:00	10	7	0.1	6	7	375	0.2	374	375	13.3	83.8
2025-07-08T05:01	10	7	0.1	7	7	375	0.2	374	375	13.3	83.7
2025-07-08T05:02	10	7	0.1	7	7	374	0.2	374	375	13.3	84.9
2025-07-08T05:03	10	8	0.1	7	8	374	0.2	374	375	13.2	86.1
2025-07-08T05:04	10	8	0.2	8	8	375	0.3	374	375	13.2	85.8
2025-07-08T05:05	10	9	0.2	8	9	374	0.2	374	375	13.1	86.7
2025-07-08T05:06	10	9	0.2	9	9	374	0.2	374	375	13.1	87.0
2025-07-08T05:07	10	10	0.2	9	10	374	0.2	374	375	13.0	87.7
2025-07-08T05:08	10	10	0.2	10	11	375	0.2	374	375	13.0	87.9
2025-07-08T05:09	10	11	0.2	11	11	375	0.2	374	376	13.1	84.8
2025-07-08T05:10	10	11	0.1	11	12	375	0.2	374	375	13.2	84.1
2025-07-08T05:11	10	12	0.2	12	12	375	0.3	374	375	13.2	83.7
2025-07-08T05:12	10	12	0.1	12	13	375	0.3	375	376	13.1	85.5
2025-07-08T05:13	10	13	0.1	12	13	375	0.3	375	376	13.2	82.4
2025-07-08T05:14	10	13	0.1	13	13	375	0.3	375	376	13.2	83.6
2025-07-08T05:15	10	13	0.1	13	13	375	0.2	375	375	13.2	82.4
2025-07-08T05:16	10	13	0.1	13	14	375	0.2	375	376	13.1	84.3
2025-07-08T05:17	10	13	0.1	13	14	375	0.3	374	376	13.1	83.4
2025-07-08T05:18	10	14	0.1	13	14	375	0.3	375	376	13.3	78.2
2025-07-08T05:19	10	14	0.1	14	14	375	0.2	374	375	13.4	77.0
2025-07-08T05:20	10	14	0.1	14	14	374	0.3	374	375	13.3	78.8
2025-07-08T05:21	10	14	0.1	14	14	374	0.3	374	375	13.2	77.1
2025-07-08T05:22	10	14	0.1	14	15	374	0.5	373	375	13.4	70.0
2025-07-08T05:23	10	15	0.1	14	15	373	0.2	373	374	13.4	70.9
2025-07-08T05:24	10	15	0.1	15	15	374	0.3	373	374	13.3	72.6
2025-07-08T05:25	10	15	0.1	15	15	374	0.2	373	374	13.3	69.9
2025-07-08T05:26	10	15	0.1	15	16	374	0.3	373	374	13.3	69.6
2025-07-08T05:27	10	16	0.1	15	16	374	0.3	374	375	13.3	69.8
2025-07-08T05:28	10	16	0.2	16	17	375	0.2	374	375	13.3	67.6
2025-07-08T05:29	10	17	0.2	17	17	374	0.2	374	375	13.4	65.9
2025-07-08T05:30	10	18	1.0	17	21	375	0.2	374	375	13.4	65.6
2025-07-08T05:31	10	19	0.8	18	21	375	0.3	374	376	13.4	65.0
2025-07-08T05:32	10	18	0.1	18	18	375	0.2	374	376	13.4	66.3
2025-07-08T05:33	10	18	0.1	18	18	375	0.2	375	376	13.4	65.6
2025-07-08T05:34	10	18	0.0	18	18	376	0.2	375	376	13.3	67.1
2025-07-08T05:35	10	18	0.1	18	18	376	0.3	375	376	13.4	66.2
2025-07-08T05:36	10	18	0.1	17	18	376	0.2	376	377	13.4	66.1
2025-07-08T05:37	10	17	0.1	17	18	377	0.2	376	377	13.5	65.1
2025-07-08T05:38	10	17	0.1	17	17	376	0.3	376	377	13.6	64.5
2025-07-08T05:39	10	17	0.1	17	17	376	0.2	375	377	13.6	64.8
2025-07-08T05:40	10	17	0.1	17	17	376	0.2	375	376	13.6	65.1
2025-07-08T05:41	10	18	0.1	17	18	376	0.2	376	377	13.6	66.6
2025-07-08T05:42	10	18	0.1	18	18	377	0.2	376	377	13.5	66.8
2025-07-08T05:43	10	18	0.1	18	18	377	0.3	376	377	13.6	66.2
2025-07-08T05:44	10	18	0.1	17	18	377	0.3	376	377	13.6	65.9
2025-07-08T05:45	10	17	0.1	17	18	376	0.3	376	377	13.6	66.4
2025-07-08T05:46	10	17	0.1	17	18	376	0.3	376	377	13.5	67.4
2025-07-08T05:47	10	18	0.2	18	18	377	0.2	376	377	13.4	69.3
2025-07-08T05:48	10	19	0.1	18	19	376	0.4	376	377	13.4	66.1
2025-07-08T05:49	10	19	0.1	19	19	376	0.2	376	377	13.4	67.2
2025-07-08T05:50	10	19	0.1	19	19	376	0.2	376	377	13.4	67.5
2025-07-08T05:51	10	19	0.2	18	19	376	0.3	376	377	13.5	66.3
2025-07-08T05:52	10	18	0.2	18	19	376	0.2	376	377	13.6	63.0
2025-07-08T05:53	10	18	0.1	18	18	376	0.3	376	377	13.6	63.3
2025-07-08T05:54	10	18	0.1	17	18	377	0.2	376	377	13.6	65.7
2025-07-08T05:55	10	18	0.1	18	18	377	0.2	377	378	13.5	67.9
2025-07-08T05:56	10	18	0.1	18	18	377	0.2	377	378	13.4	68.1
2025-07-08T05:57	10	18	0.2	18	18	378	0.2	377	378	13.4	69.0
2025-07-08T05:58	10	17	0.4	16	18	378	0.3	377	379	13.3	73.5
2025-07-08T05:59	10	15	0.7	14	16	378	0.3	377	378	13.3	71.5
2025-07-08T06:00	10	13	0.6	12	14	377	0.3	377	378	13.3	72.8
2025-07-08T06:01	10	11	0.4	11	12	377	0.2	377	378	13.3	72.6
2025-07-08T06:02	10	10	0.2	10	11	377	0.2	377	378	13.3	72.9
2025-07-08T06:03	10	10	0.1	10	10	377	0.3	377	378	13.3	71.4
2025-07-08T06:04	10	10	0.1	10	10	377	0.3	376	377	13.3	70.5
2025-07-08T06:05	10	10	0.1	10	10	377	0.2	376	377	13.3	70.3
2025-07-08T06:06	10	10	0.1	9	10	376	0.2	376	377	13.3	72.4
2025-07-08T06:07	10	9	0.1	9	9	377	0.2	376	377	13.3	71.7
2025-07-08T06:08	10	9	0.2	8	9	377	0.2	376	377	13.3	70.2
2025-07-08T06:09	10	8	0.2	8	8	376	0.2	376	377	13.3	72.2
2025-07-08T06:10	10	7	0.2	7	8	376	0.2	376	377	13.3	71.5
2025-07-08T06:11	10	7	0.1	7	7	376	0.2	376	377	13.3	69.1
2025-07-08T06:12	10	7	0.1	6	7	376	0.3	375	377	13.3	70.1
2025-07-08T06:13	10	6	0.1	6	7	375	0.2	375	376	13.3	68.7
2025-07-08T06:14	10	6	0.1	6	6	375	0.3	375	376	13.4	66.9
2025-07-08T06:15	10	6	0.1	6	6	375	0.2	374	375	13.3	69.1
2025-07-08T06:16	10	6	0.1	6	6	375	0.2	374	375	13.3	69.5
2025-07-08T06:17	10	7	0.1	6	7	375	0.2	374	375	13.3	67.9
2025-07-08T06:18	10	7	0.2	7	8	375	0.2	374	375	13.3	67.7
2025-07-08T06:19	10	8	0.1	8	8	375	0.2	374	375	13.3	68.0
2025-07-08T06:20	10	8	0.1	8	8	375	0.3	374	375	13.2	68.6
2025-07-08T06:21	10	8	0.1	7	8	375	0.2	374	375	13.3	68.0
2025-07-08T06:22	10	7	0.1	7	7	375	0.2	374	375	13.3	67.9
2025-07-08T06:23	10	7	0.2	7	7	375	0.2	374	375	13.2	68.0
2025-07-08T06:24	10	7	0.2	6	7	374	0.2	374	375	13.2	67.7
2025-07-08T06:25	10	6	0.2	5	6	374	0.4	373	374	13.3	66.4
2025-07-08T06:26	10	5	0.2	5	6	373	0.2	373	374	13.3	65.8
2025-07-08T06:27	10	5	0.2	4	5	373	0.2	373	374	13.2	66.8
2025-07-08T06:28	10	4	0.1	4	5	373	0.4	372	374	13.2	67.5
2025-07-08T06:29	10	4	0.1	4	4	372	0.2	372	373	13.2	65.2
2025-07-08T06:30	10	4	0.1	4	4	372	0.3	371	372	13.3	63.5
2025-07-08T06:31	10	4	0.1	4	4	371	0.2	371	372	13.2	64.8
2025-07-08T06:32	10	4	0.1	4	4	371	0.2	371	372	13.2	64.6
2025-07-08T06:33	10	4	0.1	4	4	371	0.2	371	372	13.2	63.5
2025-07-08T06:34	10	4	0.1	4	4	371	0.2	370	372	13.3	63.2
2025-07-08T06:35	10	4	0.1	4	4	371	0.2	371	371	13.2	64.0
2025-07-08T06:36	10	4	0.1	4	4	371	0.2	371	372	13.2	64.9
2025-07-08T06:37	10	5	0.2	4	5	372	0.3	371	372	13.1	65.6
2025-07-08T06:38	10	5	0.2	5	6	372	0.2	371	372	13.2	63.0
2025-07-08T06:39	10	6	0.2	5	6	372	0.2	371	372	13.2	64.3
2025-07-08T06:40	10	7	0.3	6	7	372	0.3	372	373	13.1	65.5
2025-07-08T06:41	10	8	0.5	7	9	372	0.3	372	373	13.1	66.6
2025-07-08T06:42	10	10	0.6	9	11	373	0.3	373	374	13.1	67.3
2025-07-08T06:43	10	12	0.7	11	14	374	0.3	373	374	13.1	67.4
2025-07-08T06:44	10	15	0.8	13	16	374	0.2	374	375	13.0	67.5
2025-07-08T06:45	10	18	0.9	16	19	375	0.4	374	376	13.0	67.6
2025-07-08T06:46	10	21	0.8	19	22	376	0.4	375	377	13.0	68.1
2025-07-08T06:47	10	23	0.5	22	23	377	0.4	377	378	13.0	68.1
2025-07-08T06:48	10	24	0.3	23	24	379	0.3	378	379	13.0	67.5
2025-07-08T06:49	10	25	0.3	24	25	380	0.4	379	380	13.1	66.8
2025-07-08T06:50	10	26	0.6	25	27	381	0.4	380	382	13.2	67.0
2025-07-08T06:51	10	28	0.7	27	30	381	0.4	381	382	13.2	69.3
2025-07-08T06:52	10	31	0.5	30	31	382	0.4	382	383	13.2	67.4
2025-07-08T06:53	10	32	0.7	31	33	383	0.3	383	384	13.2	68.7
2025-07-08T06:54	10	35	0.8	33	36	384	0.2	384	384	13.2	69.6
2025-07-08T06:55	10	37	0.6	36	38	384	0.2	383	385	13.2	69.7
2025-07-08T06:56	10	39	0.3	38	39	384	0.2	383	385	13.2	70.6
2025-07-08T06:57	10	39	0.3	39	40	385	0.2	384	385	13.2	69.8
2025-07-08T06:58	10	40	0.4	39	41	384	0.3	384	385	13.2	70.4
2025-07-08T06:59	10	39	0.4	38	39	384	0.3	384	385	13.2	72.2
2025-07-08T07:00	10	37	0.9	35	38	384	0.4	383	384	13.2	70.6
2025-07-08T07:01	10	33	0.9	32	35	383	0.2	382	384	13.2	71.7
2025-07-08T07:02	10	31	0.5	30	32	382	0.4	382	383	13.2	69.9
2025-07-08T07:03	10	30	0.1	30	30	382	0.3	381	382	13.2	71.0
2025-07-08T07:04	10	31	0.2	30	31	382	0.2	381	382	13.1	69.6
2025-07-08T07:05	10	33	1.7	31	36	381	0.3	381	382	13.2	69.3
2025-07-08T07:06	10	32	0.6	32	34	381	0.3	381	382	13.2	68.2
2025-07-08T07:07	10	33	0.2	32	33	380	0.3	380	381	13.2	66.0
2025-07-08T07:08	10	34	0.3	33	34	380	0.3	380	381	13.2	67.3
2025-07-08T07:09	10	34	0.2	34	35	381	0.3	380	382	13.2	69.3
2025-07-08T07:10	10	35	0.3	34	35	381	0.3	380	381	13.2	69.1
2025-07-08T07:11	10	35	1.0	34	37	381	0.3	380	382	13.2	69.9
2025-07-08T07:12	10	33	0.2	33	34	381	0.3	380	382	13.2	70.2
2025-07-08T07:13	10	33	0.2	33	33	381	0.3	380	381	13.2	68.6
2025-07-08T07:14	10	33	0.1	32	33	380	0.3	379	381	13.2	67.9
2025-07-08T07:15	10	33	1.2	32	36	380	0.5	379	381	13.3	66.9
2025-07-08T07:16	10	31	0.7	30	33	380	0.4	379	381	13.4	61.5
2025-07-08T07:17	10	29	0.5	29	30	380	0.3	379	380	13.4	62.5
2025-07-08T07:18	10	28	0.5	27	29	380	0.2	379	380	13.4	64.4
2025-07-08T07:19	10	26	0.3	26	27	379	0.3	379	380	13.4	65.6
2025-07-08T07:20	10	26	0.2	25	26	379	0.3	378	380	13.4	64.4
2025-07-08T07:21	10	25	0.1	25	26	379	0.2	378	379	13.4	65.5
2025-07-08T07:22	10	25	0.1	25	25	379	0.2	378	379	13.4	65.0
2025-07-08T07:23	10	24	0.3	24	25	379	0.3	378	379	13.4	64.9
2025-07-08T07:24	10	23	0.5	22	24	379	0.3	378	380	13.4	66.2
2025-07-08T07:25	10	22	0.3	21	22	378	0.4	378	379	13.4	65.4
2025-07-08T07:26	10	21	0.2	21	21	378	0.3	377	379	13.3	64.3
2025-07-08T07:27	10	21	0.1	20	21	377	0.2	377	378	13.4	63.1
2025-07-08T07:28	10	20	0.1	20	20	378	0.2	377	378	13.4	62.7
2025-07-08T07:29	10	21	0.2	20	21	378	0.3	377	378	13.3	64.6
2025-07-08T07:30	10	22	0.3	21	22	378	0.4	377	379	13.3	64.3
2025-07-08T07:31	10	23	0.3	22	23	379	0.3	378	380	13.3	64.5
2025-07-08T07:32	10	23	0.2	23	24	379	0.4	379	380	13.3	65.4
2025-07-08T07:33	10	23	0.1	23	24	380	0.3	379	380	13.3	65.9
2025-07-08T07:34	10	23	0.1	23	23	380	0.2	380	381	13.3	67.1
2025-07-08T07:35	10	23	0.2	22	23	380	0.2	380	381	13.3	67.3
2025-07-08T07:36	10	22	0.2	22	23	379	0.4	379	380	13.3	66.2
2025-07-08T07:37	10	22	0.2	22	22	379	0.4	378	380	13.3	66.2
2025-07-08T07:38	10	22	0.1	22	22	378	0.4	377	379	13.3	64.1
2025-07-08T07:39	10	22	0.1	21	22	377	0.3	376	377	13.3	63.5
2025-07-08T07:40	10	22	0.1	21	22	376	0.3	376	377	13.3	65.0
2025-07-08T07:41	10	22	0.2	22	22	377	0.4	376	378	13.3	63.7
2025-07-08T07:42	10	22	0.3	22	23	377	0.3	376	377	13.2	64.8
2025-07-08T07:43	10	24	0.4	23	25	377	0.3	376	377	13.2	65.9
2025-07-08T07:44	10	25	0.5	24	26	377	0.2	376	377	13.2	65.3
2025-07-08T07:45	10	27	0.6	26	28	377	0.3	377	378	13.2	64.3
2025-07-08T07:46	10	29	0.5	28	30	377	0.3	377	378	13.2	65.0
2025-07-08T07:47	10	30	0.3	30	31	378	0.4	377	379	13.2	64.7
2025-07-08T07:48	10	31	0.2	31	32	378	0.3	377	379	13.2	64.9
2025-07-08T07:49	10	32	0.2	32	33	379	0.4	378	380	13.2	65.1
2025-07-08T07:50	10	33	0.3	32	34	379	0.3	379	380	13.1	65.6
2025-07-08T07:51	10	35	0.6	34	36	379	0.4	379	380	13.1	66.4
2025-07-08T07:52	10	37	0.8	36	38	380	0.2	379	380	13.2	65.1
2025-07-08T07:53	10	40	0.9	38	41	380	0.4	379	381	13.2	65.3
2025-07-08T07:54	10	43	0.9	41	44	380	0.4	380	381	13.2	65.8
2025-07-08T07:55	10	46	0.7	44	47	381	0.3	381	382	13.2	63.1
2025-07-08T07:56	10	48	0.7	47	49	382	0.5	381	383	13.3	63.7
2025-07-08T07:57	10	50	0.6	49	51	383	0.3	382	384	13.3	64.3
2025-07-08T07:58	10	52	0.6	51	53	384	0.5	383	385	13.3	65.1
2025-07-08T07:59	10	54	0.5	53	55	383	0.5	382	384	13.3	62.0
2025-07-08T08:00	10	56	0.5	55	57	383	0.4	382	384	13.4	61.9
2025-07-08T08:01	10	58	0.6	57	59	383	0.3	382	384	13.4	62.9
2025-07-08T08:02	10	60	0.6	59	61	384	0.3	383	384	13.4	62.3
2025-07-08T08:03	10	62	0.7	61	63	384	0.3	383	385	13.4	61.7
2025-07-08T08:04	10	66	1.6	63	70	385	0.5	384	386	13.4	62.7
2025-07-08T08:05	10	68	1.5	66	71	386	0.5	385	387	13.5	62.9
2025-07-08T08:06	10	69	0.7	68	70	386	0.3	385	387	13.6	61.1
2025-07-08T08:07	10	71	0.9	70	73	387	0.4	386	388	13.6	62.3
2025-07-08T08:08	10	75	1.3	73	78	388	0.8	386	389	13.6	61.5
2025-07-08T08:09	10	76	0.6	75	77	390	0.5	389	391	13.6	62.2
2025-07-08T08:10	10	78	0.8	77	80	391	0.4	390	392	13.7	61.2
2025-07-08T08:11	10	81	1.0	80	83	391	0.4	390	391	13.6	60.0
2025-07-08T08:12	10	86	4.8	82	103	392	0.5	390	393	13.7	58.3
2025-07-08T08:13	10	90	4.3	87	101	391	1.0	389	392	13.7	55.5
2025-07-08T08:14	10	89	1.5	87	92	391	1.0	390	393	13.7	55.7
2025-07-08T08:15	10	90	2.5	87	94	392	0.8	391	393	13.7	55.0
2025-07-08T08:16	10	90	2.5	89	99	393	0.3	392	393	13.8	55.3
2025-07-08T08:17	10	89	2.6	87	98	392	0.3	391	393	13.8	55.0
2025-07-08T08:18	10	89	4.7	85	103	392	0.3	391	392	13.9	54.4
2025-07-08T08:19	10	84	0.4	83	85	393	0.4	392	394	13.9	55.0
2025-07-08T08:20	10	83	0.3	83	84	394	0.3	393	394	14.0	55.8
2025-07-08T08:21	10	84	0.5	83	84	393	0.9	392	394	13.9	54.5
2025-07-08T08:22	10	84	0.8	83	85	393	0.3	392	394	13.9	54.5
2025-07-08T08:23	10	85	0.6	84	86	392	0.6	391	393	13.9	53.6
2025-07-08T08:24	10	90	3.3	87	102	391	0.4	391	393	13.8	52.0
2025-07-08T08:25	10	97	12.8	90	141	392	0.7	391	394	13.9	52.5
2025-07-08T08:26	10	96	9.1	90	123	394	1.1	392	395	13.9	52.7
2025-07-08T08:27	10	115	28.3	91	167	396	2.1	393	399	13.9	51.8
2025-07-08T08:28	10	93	4.3	90	105	393	0.5	392	394	13.9	50.7
2025-07-08T08:29	10	98	12.2	90	127	393	0.7	392	395	14.0	51.2
2025-07-08T08:30	10	101	11.3	90	124	394	0.9	393	396	13.9	51.0
2025-07-08T08:31	10	108	28.0	92	186	394	1.4	392	397	13.9	50.7
2025-07-08T08:32	10	96	4.5	92	107	391	0.5	391	393	13.9	50.0
2025-07-08T08:33	10	114	24.9	93	184	395	2.8	391	399	14.0	50.9
2025-07-08T08:34	10	99	10.9	93	138	396	0.6	394	397	14.2	51.2
2025-07-08T08:35	10	109	25.6	93	179	396	1.1	394	398	13.9	49.9
2025-07-08T08:36	10	113	28.6	95	199	397	2.2	395	401	14.0	50.9
2025-07-08T08:37	10	118	28.1	95	190	401	1.5	398	403	14.0	50.4
2025-07-08T08:38	10	102	11.6	93	135	401	1.1	400	403	14.2	51.5
2025-07-08T08:39	10	104	21.3	91	164	403	1.2	402	406	14.4	51.9
2025-07-08T08:40	10	103	26.0	90	177	403	1.7	401	407	14.4	50.6
2025-07-08T08:41	10	97	7.5	92	129	404	1.4	402	407	14.3	50.5
2025-07-08T08:42	10	177	36.8	110	222	411	3.4	402	415	14.2	49.0
2025-07-08T08:43	10	165	52.8	92	222	413	3.1	408	418	14.1	48.8
2025-07-08T08:44	10	105	10.7	92	126	409	1.4	407	412	14.0	49.3
2025-07-08T08:45	10	113	15.9	92	144	408	1.2	406	410	14.3	49.9
2025-07-08T08:46	10	103	19.7	90	159	406	2.0	404	410	14.1	48.4
2025-07-08T08:47	10	123	29.2	93	193	409	2.5	406	413	14.1	49.5
2025-07-08T08:48	10	107	15.9	92	156	407	1.2	406	410	14.4	48.4
2025-07-08T08:49	10	132	33.9	94	193	410	1.8	406	413	14.1	47.9
2025-07-08T08:50	10	100	7.6	93	125	409	1.2	408	413	14.3	48.2
2025-07-08T08:51	10	161	45.7	91	224	415	4.9	406	420	14.4	49.1
2025-07-08T08:52	10	122	25.0	93	195	415	4.0	409	421	14.6	49.5
2025-07-08T08:53	10	132	22.4	93	174	412	1.0	410	414	14.4	48.2
2025-07-08T08:54	10	145	41.8	92	221	414	3.1	409	419	14.2	47.3
2025-07-08T08:55	10	145	42.0	82	208	416	2.6	411	420	14.3	48.2
2025-07-08T08:56	10	88	13.1	78	119	408	2.4	405	414	14.1	48.8
2025-07-08T08:57	10	93	11.2	79	122	407	0.6	406	408	14.1	48.7
2025-07-08T08:58	10	139	36.8	81	192	413	4.2	406	420	14.3	49.1
2025-07-08T08:59	10	97	16.7	82	157	411	1.7	409	415	14.3	48.3
2025-07-08T09:00	10	136	46.0	80	207	413	4.1	409	420	14.4	48.6
2025-07-08T09:01	10	103	20.0	78	148	414	1.6	411	418	14.5	49.0
2025-07-08T09:02	10	125	42.1	78	194	413	3.2	408	420	14.6	48.8
2025-07-08T09:03	10	112	24.2	79	167	416	1.7	414	420	14.8	49.7
2025-07-08T09:04	10	102	28.8	76	165	413	1.9	409	416	14.9	49.2
2025-07-08T09:05	10	125	45.0	74	199	416	3.0	410	421	14.6	48.1
2025-07-08T09:06	10	111	47.3	74	200	411	2.6	407	416	14.7	48.8
2025-07-08T09:07	10	160	34.2	106	209	416	2.2	413	421	14.7	48.4
2025-07-08T09:08	10	142	23.5	100	195	416	1.0	415	419	14.5	48.6
2025-07-08T09:09	10	166	27.4	115	210	421	1.5	418	424	14.4	48.6
2025-07-08T09:10	10	149	46.2	92	216	421	3.5	417	428	14.6	49.4
2025-07-08T09:11	10	189	20.2	143	213	427	1.1	425	429	14.6	48.5
2025-07-08T09:12	10	128	14.1	107	165	423	2.8	419	429	14.7	47.8
2025-07-08T09:13	10	173	24.3	120	212	425	2.6	419	429	14.6	47.8
2025-07-08T09:14	10	195	15.2	171	218	431	1.2	429	433	14.8	49.7
2025-07-08T09:15	10	163	28.3	120	212	430	1.9	426	433	15.1	49.5
2025-07-08T09:16	10	205	4.7	193	212	434	1.2	431	436	15.1	48.0
2025-07-08T09:17	10	189	20.7	137	211	433	3.0	429	438	15.1	50.6
2025-07-08T09:18	10	206	1.7	200	208	434	1.5	431	435	15.1	51.0
2025-07-08T09:19	10	147	45.7	79	202	430	5.2	423	436	15.4	50.5
2025-07-08T09:20	10	201	9.8	165	210	430	2.7	426	435	15.1	51.6
2025-07-08T09:21	10	202	15.0	165	212	435	1.2	433	437	15.3	51.9
2025-07-08T09:22	10	206	4.9	196	211	433	1.6	431	437	14.9	50.7
2025-07-08T09:23	10	206	2.9	196	210	433	1.7	431	436	14.9	51.6
2025-07-08T09:24	10	144	60.1	67	206	430	6.0	417	435	15.0	50.5
2025-07-08T09:25	10	63	2.9	60	68	414	4.1	408	422	14.9	51.1
2025-07-08T09:26	10	67	3.8	61	73	408	0.5	408	410	14.7	51.0
2025-07-08T09:27	10	60	2.1	57	64	407	0.6	405	408	14.8	51.4
2025-07-08T09:28	10	56	1.4	53	58	403	1.2	401	405	15.0	50.2
2025-07-08T09:29	10	52	0.7	51	53	400	0.9	399	402	14.8	49.2
2025-07-08T09:30	10	51	0.4	50	51	398	0.4	397	399	14.8	49.2
2025-07-08T09:31	10	48	0.5	48	50	397	0.5	396	398	14.7	48.7
2025-07-08T09:32	10	47	0.4	46	48	396	0.5	395	397	14.6	48.3
2025-07-08T09:33	10	46	0.2	46	47	396	0.2	395	397	14.6	49.2
2025-07-08T09:34	10	47	0.5	46	48	395	0.6	394	397	14.5	48.8
2025-07-08T09:35	10	50	2.2	48	55	397	0.6	396	398	14.5	49.5
2025-07-08T09:36	10	125	61.5	55	200	405	8.3	396	421	14.6	50.0
2025-07-08T09:37	10	200	1.6	199	204	425	4.6	416	432	14.9	49.1
2025-07-08T09:38	10	159	43.1	81	206	430	3.0	423	433	14.9	47.3
2025-07-08T09:39	10	184	41.8	82	207	429	5.1	421	436	14.9	48.0
2025-07-08T09:40	10	204	1.8	199	206	437	1.9	434	441	15.1	47.6
2025-07-08T09:41	10	207	0.9	205	212	441	0.4	440	441	15.3	47.9
2025-07-08T09:42	10	206	1.9	201	208	441	0.9	440	443	15.3	48.4
2025-07-08T09:43	10	206	4.2	199	210	438	2.5	434	442	15.2	48.1
2025-07-08T09:44	10	171	47.0	66	211	433	4.3	422	437	15.2	48.0
2025-07-08T09:45	10	62	2.6	58	67	414	6.0	406	427	15.2	48.5
2025-07-08T09:46	10	56	1.0	55	58	406	1.9	402	409	15.0	49.1
2025-07-08T09:47	10	55	0.4	55	56	402	1.0	401	404	15.1	49.0
2025-07-08T09:48	10	94	38.8	56	165	405	4.6	400	413	14.9	49.0
2025-07-08T09:49	10	69	14.9	58	103	405	2.5	402	410	14.9	48.6
2025-07-08T09:50	10	75	29.5	55	166	403	1.6	401	407	14.7	49.0
2025-07-08T09:51	10	134	47.1	64	182	411	3.4	405	417	15.0	48.4
2025-07-08T09:52	10	187	10.5	132	194	421	7.0	406	431	14.9	47.4
2025-07-08T09:53	10	190	4.8	179	194	431	1.3	428	433	15.1	47.5
2025-07-08T09:54	10	185	19.6	128	205	432	0.6	431	433	15.0	47.4
2025-07-08T09:55	10	105	17.8	79	141	426	2.4	422	433	15.3	47.9
2025-07-08T09:56	10	198	21.4	114	217	431	5.0	421	437	15.6	47.3
2025-07-08T09:57	10	161	17.2	130	191	430	2.8	426	437	15.4	45.9
2025-07-08T09:58	10	228	14.4	168	244	436	4.7	426	443	15.3	46.5
2025-07-08T09:59	10	149	41.4	107	241	435	5.5	426	443	15.2	45.4
2025-07-08T10:00	10	101	8.7	93	120	425	2.9	421	430	15.0	45.9
2025-07-08T10:01	10	94	2.5	91	98	421	1.2	419	423	15.0	46.6
2025-07-08T10:02	10	91	0.5	91	92	419	0.4	418	420	15.1	47.1
2025-07-08T10:03	10	90	1.6	87	92	419	0.5	418	420	15.2	48.5
2025-07-08T10:04	10	84	1.5	82	87	417	1.0	415	419	15.4	47.6
2025-07-08T10:05	10	82	0.1	82	82	415	0.5	414	416	15.0	46.1
2025-07-08T10:06	10	83	0.4	82	83	414	0.2	413	414	15.0	46.5
2025-07-08T10:07	10	85	0.9	83	87	414	0.6	413	415	15.1	46.8
2025-07-08T10:08	10	88	0.7	87	89	415	0.4	414	415	15.0	46.5
2025-07-08T10:09	10	90	0.7	89	91	415	0.3	414	416	15.1	47.9
2025-07-08T10:10	10	88	1.8	85	91	415	0.4	414	416	15.3	47.8
2025-07-08T10:11	10	82	1.6	80	85	414	0.4	413	415	15.1	47.7
2025-07-08T10:12	10	78	0.9	77	80	413	0.3	413	414	15.3	48.8
2025-07-08T10:13	10	75	1.0	74	77	414	0.2	413	414	15.4	49.1
2025-07-08T10:14	10	72	0.8	71	74	412	1.1	410	414	15.6	48.3
2025-07-08T10:15	10	70	0.7	69	71	409	0.8	407	411	15.3	47.7
2025-07-08T10:16	10	68	0.4	67	69	407	0.3	407	408	15.1	47.8
2025-07-08T10:17	10	67	0.1	67	67	407	0.4	406	408	15.1	47.5
2025-07-08T10:18	10	66	0.2	66	67	408	0.2	407	408	15.1	47.8
2025-07-08T10:19	10	65	0.4	65	66	408	0.4	407	409	15.1	48.8
2025-07-08T10:20	10	65	0.1	65	65	409	0.2	408	409	15.3	50.5
2025-07-08T10:21	10	65	0.1	65	65	409	0.3	408	409	15.5	47.8
2025-07-08T10:22	10	65	0.1	65	65	409	0.3	408	409	15.5	48.2
2025-07-08T10:23	10	65	0.1	65	65	408	0.9	406	409	15.6	47.9
2025-07-08T10:24	10	64	0.2	64	65	407	0.4	406	408	15.6	47.7
2025-07-08T10:25	10	65	0.5	64	66	406	0.4	405	407	15.4	47.2
2025-07-08T10:26	10	66	0.1	66	66	406	0.3	406	407	15.4	47.7
2025-07-08T10:27	10	67	0.6	66	68	407	0.4	406	408	15.0	46.2
2025-07-08T10:28	10	69	0.4	68	70	408	0.7	407	409	15.4	46.2
2025-07-08T10:29	10	71	0.8	70	72	407	0.6	406	408	15.4	47.7
2025-07-08T10:30	10	74	1.4	72	77	409	1.0	407	411	15.4	46.9
2025-07-08T10:31	10	88	6.8	77	101	413	2.1	410	416	15.4	47.7
2025-07-08T10:32	10	90	9.7	83	119	416	0.9	415	418	15.4	47.7
2025-07-08T10:33	10	105	11.8	87	127	418	1.5	416	421	15.4	47.7
2025-07-08T10:34	10	146	10.2	124	162	425	2.2	419	427	15.8	46.4
2025-07-08T10:35	10	108	12.8	96	137	423	2.1	421	427	15.5	46.3
2025-07-08T10:36	10	105	13.8	83	130	423	0.9	422	425	15.6	48.2
2025-07-08T10:37	10	80	1.2	79	83	418	2.6	413	423	15.8	47.4
2025-07-08T10:38	10	77	1.2	75	79	414	0.5	412	414	15.7	47.4
2025-07-08T10:39	10	73	0.7	73	75	409	1.7	407	412	15.4	47.5
2025-07-08T10:40	10	73	0.2	72	73	408	0.4	407	409	15.4	48.2
2025-07-08T10:41	10	73	0.2	73	73	407	0.7	405	408	15.5	47.4
2025-07-08T10:42	10	74	0.4	73	74	408	0.9	406	409	15.4	47.7
2025-07-08T10:43	10	75	0.6	74	77	409	0.7	407	410	15.5	47.8
2025-07-08T10:44	10	78	1.0	77	80	408	0.5	408	409	15.5	47.1
2025-07-08T10:45	10	82	1.3	80	84	408	0.6	407	409	15.5	47.5
2025-07-08T10:46	10	86	1.5	84	89	411	1.1	409	413	15.5	47.0
2025-07-08T10:47	10	99	6.1	89	106	415	2.0	412	418	15.6	47.7
2025-07-08T10:48	10	97	1.8	95	102	418	0.4	417	418	15.6	47.1
2025-07-08T10:49	10	93	1.1	91	95	418	0.4	417	419	15.7	47.5
2025-07-08T10:50	10	90	0.8	89	91	418	0.3	417	419	15.7	47.2
2025-07-08T10:51	10	88	0.7	86	89	416	1.1	414	418	15.8	47.7
2025-07-08T10:52	10	84	1.2	82	86	413	1.5	410	415	15.6	47.3
2025-07-08T10:53	10	81	0.3	81	82	412	0.7	411	413	15.3	47.5
2025-07-08T10:54	10	81	0.2	81	81	412	0.6	411	413	15.6	47.8
2025-07-08T10:55	10	81	0.2	81	81	411	0.4	410	412	15.7	47.6
2025-07-08T10:56	10	81	0.2	81	82	412	0.5	411	413	15.6	47.9
2025-07-08T10:57	10	81	0.6	80	82	411	0.3	411	412	15.5	48.4
2025-07-08T10:58	10	79	0.6	78	80	411	0.9	410	412	15.5	48.0
2025-07-08T10:59	10	78	0.1	78	78	410	0.2	410	411	15.6	48.4
2025-07-08T11:00	10	80	1.5	78	83	412	0.4	410	413	15.7	48.5
2025-07-08T11:01	10	82	0.9	81	84	414	0.6	412	415	16.0	48.5
2025-07-08T11:02	10	87	0.8	84	88	416	0.8	414	418	16.1	48.4
2025-07-08T11:03	10	89	0.7	87	90	418	0.4	416	418	16.2	48.8
2025-07-08T11:04	10	85	1.8	82	88	416	0.3	415	416	16.1	48.3
2025-07-08T11:05	10	79	1.2	78	82	415	1.3	413	417	16.3	47.3
2025-07-08T11:06	10	77	0.5	76	78	413	0.3	413	414	15.9	47.1
2025-07-08T11:07	10	75	0.6	74	76	412	1.3	409	414	16.0	47.4
2025-07-08T11:08	10	72	0.7	71	74	409	0.8	408	411	15.9	45.6
2025-07-08T11:09	10	71	0.3	71	72	408	0.5	407	410	15.8	45.2
2025-07-08T11:10	10	70	0.3	70	71	408	0.3	408	409	15.6	44.7
2025-07-08T11:11	10	68	1.2	66	71	408	0.2	408	409	15.7	45.2
2025-07-08T11:12	10	64	1.0	62	66	408	0.7	406	409	15.6	45.4
2025-07-08T11:13	10	61	0.7	60	62	405	0.8	404	407	15.7	45.7
2025-07-08T11:14	10	59	0.3	59	60	405	0.3	404	405	15.8	45.7
2025-07-08T11:15	10	59	0.1	59	59	405	0.4	404	406	15.8	46.1
2025-07-08T11:16	10	60	0.4	59	60	406	0.6	404	407	15.7	46.5
2025-07-08T11:17	10	61	0.5	60	62	406	0.3	405	406	15.9	46.9
2025-07-08T11:18	10	63	0.5	62	64	405	0.3	404	406	15.9	46.3
2025-07-08T11:19	10	65	0.4	64	65	405	0.9	404	407	15.8	46.1
2025-07-08T11:20	10	66	0.4	65	67	406	0.3	406	407	15.8	46.0
2025-07-08T11:21	10	67	0.3	66	68	408	1.0	407	410	15.7	46.3
2025-07-08T11:22	10	68	0.2	67	68	410	0.4	409	411	15.8	46.4
2025-07-08T11:23	10	69	0.2	68	69	410	0.3	409	410	15.9	46.5
2025-07-08T11:24	10	69	0.1	69	69	409	0.4	407	410	15.9	46.7
2025-07-08T11:25	10	69	0.1	69	69	409	0.7	408	410	16.1	47.2
2025-07-08T11:26	10	69	0.1	69	69	410	0.4	409	411	16.1	47.5
2025-07-08T11:27	10	68	0.2	68	69	409	0.4	408	410	16.2	47.3
2025-07-08T11:28	10	68	0.1	68	68	409	0.3	408	410	16.0	46.5
2025-07-08T11:29	10	69	0.5	68	70	409	0.2	408	409	15.9	46.8
2025-07-08T11:30	10	70	0.4	69	71	410	0.6	409	412	15.8	46.8
2025-07-08T11:31	10	66	1.4	64	69	411	0.3	411	412	15.9	47.3
2025-07-08T11:32	10	61	1.6	59	64	411	0.4	410	412	16.1	47.4
2025-07-08T11:33	10	55	2.0	52	59	409	1.1	407	411	16.1	47.3
2025-07-08T11:34	10	49	1.8	46	52	406	1.2	404	408	16.1	47.2
2025-07-08T11:35	10	43	1.6	40	46	404	0.9	402	405	16.1	47.6
2025-07-08T11:36	10	38	1.1	37	40	401	0.9	400	403	15.8	46.9
2025-07-08T11:37	10	36	0.7	34	37	400	0.5	399	401	15.6	47.3
2025-07-08T11:38	10	34	0.5	33	35	400	0.5	398	401	15.7	47.6
2025-07-08T11:39	10	32	0.3	32	33	400	0.4	399	401	15.8	48.2
2025-07-08T11:40	10	32	0.2	32	32	399	0.3	399	400	15.8	48.4
2025-07-08T11:41	10	31	0.1	31	32	399	0.5	398	400	15.9	48.9
2025-07-08T11:42	10	31	0.1	31	31	398	0.3	398	399	15.9	48.3
2025-07-08T11:43	10	31	0.1	31	31	398	0.5	397	399	15.9	48.1
2025-07-08T11:44	10	31	0.1	31	31	397	0.3	397	398	15.8	47.3
2025-07-08T11:45	10	31	0.2	30	31	397	0.2	397	397	15.9	47.5
2025-07-08T11:46	10	30	0.3	29	30	397	0.4	396	398	15.8	46.4
2025-07-08T11:47	10	28	0.5	28	29	397	0.2	396	397	15.8	47.1
2025-07-08T11:48	10	27	0.6	26	28	396	0.6	395	397	15.8	48.0
2025-07-08T11:49	10	25	0.3	25	26	394	1.3	391	396	15.4	50.8
2025-07-08T11:50	10	24	0.2	24	25	391	0.9	389	392	15.1	52.8
2025-07-08T11:51	10	24	0.1	24	25	388	1.0	386	390	14.5	54.5
2025-07-08T11:52	10	24	0.1	24	25	386	0.3	385	387	14.2	55.6
2025-07-08T11:53	10	24	0.1	24	24	385	0.5	384	386	14.1	56.1
2025-07-08T11:54	10	24	0.1	24	24	384	0.3	384	385	13.9	56.8
2025-07-08T11:55	10	24	0.1	23	24	384	0.3	383	385	13.8	57.8
2025-07-08T11:56	10	24	0.1	24	24	383	0.2	383	384	13.6	59.3
2025-07-08T11:57	10	24	0.2	24	24	382	0.8	380	383	13.4	62.2
2025-07-08T11:58	10	25	0.3	24	25	380	0.3	379	381	13.0	64.8
2025-07-08T11:59	10	26	0.5	25	27	379	0.4	378	380	12.9	66.2
2025-07-08T12:00	10	28	0.8	27	30	378	0.4	377	379	12.8	67.7
2025-07-08T12:01	10	32	1.0	30	33	379	0.6	378	380	12.8	67.3
2025-07-08T12:02	10	35	1.2	33	37	379	0.7	378	380	12.7	66.7
2025-07-08T12:03	10	39	1.1	37	41	380	0.9	378	382	12.6	68.9
2025-07-08T12:04	10	42	1.0	41	44	381	1.2	380	384	12.6	67.6
2025-07-08T12:05	10	46	1.1	44	48	384	0.9	382	385	12.8	66.9
2025-07-08T12:06	10	50	1.3	48	52	385	1.2	383	387	12.9	66.9
2025-07-08T12:07	10	55	1.7	52	58	387	0.8	385	388	13.0	67.2
2025-07-08T12:08	10	60	1.6	57	63	388	0.8	387	390	13.0	65.9
2025-07-08T12:09	10	66	1.5	63	68	391	1.1	389	393	13.0	66.1
2025-07-08T12:10	10	70	1.3	68	72	394	1.2	392	396	13.0	67.5
2025-07-08T12:11	10	74	1.0	72	75	397	1.1	395	399	13.3	70.0
2025-07-08T12:12	10	75	0.1	75	75	399	0.6	398	400	13.5	69.1
2025-07-08T12:13	10	75	0.1	75	75	399	0.3	399	400	13.6	67.9
2025-07-08T12:14	10	76	0.2	75	76	399	0.2	399	400	13.6	65.0
2025-07-08T12:15	10	76	0.1	76	77	400	0.5	399	401	13.6	65.0
2025-07-08T12:16	10	77	0.3	77	78	400	0.7	398	401	13.7	63.1
2025-07-08T12:17	10	78	0.5	78	79	399	0.5	398	400	13.5	63.4
2025-07-08T12:18	10	80	0.5	79	81	399	0.8	397	400	13.5	61.5
2025-07-08T12:19	10	82	0.6	81	83	399	0.6	397	399	13.6	61.2
2025-07-08T12:20	10	84	0.7	83	85	398	0.3	398	399	13.6	60.0
2025-07-08T12:21	10	87	0.8	85	88	399	0.3	398	400	13.6	60.5
2025-07-08T12:22	10	89	0.5	88	90	400	0.7	399	401	13.6	62.5
2025-07-08T12:23	10	90	0.2	90	90	403	0.7	401	403	13.9	65.0
2025-07-08T12:24	10	90	0.2	90	91	402	0.4	402	404	13.8	63.2
2025-07-08T12:25	10	92	0.7	91	94	403	0.6	402	404	13.9	64.1
2025-07-08T12:26	10	95	1.0	93	97	404	0.7	403	406	14.0	61.2
2025-07-08T12:27	10	98	1.0	97	100	406	0.4	405	407	13.9	59.4
2025-07-08T12:28	10	109	9.1	100	130	407	0.7	406	409	14.1	61.9
2025-07-08T12:29	10	111	3.8	108	122	409	0.4	409	410	13.9	63.8
2025-07-08T12:30	10	113	5.6	108	124	411	0.4	410	411	14.0	68.7
2025-07-08T12:31	10	137	11.7	122	159	412	2.1	410	417	13.7	70.6
2025-07-08T12:32	10	147	6.7	137	167	416	0.5	415	417	13.7	70.4
2025-07-08T12:33	10	159	14.4	129	182	419	1.6	417	423	13.9	69.1
2025-07-08T12:34	10	157	39.5	117	230	421	2.3	419	426	13.9	67.9
2025-07-08T12:35	10	209	52.7	119	251	428	7.9	418	439	14.2	66.9
2025-07-08T12:36	10	166	33.4	124	240	430	4.5	424	438	14.1	66.3
2025-07-08T12:37	10	149	22.4	106	193	425	2.0	421	430	13.9	66.3
2025-07-08T12:38	10	112	5.1	105	121	418	1.8	416	423	13.7	67.7
2025-07-08T12:39	10	105	6.5	97	115	417	0.6	415	418	13.9	69.7
2025-07-08T12:40	10	97	1.4	96	101	412	2.1	409	416	13.6	69.8
2025-07-08T12:41	10	122	16.2	102	157	413	2.0	410	416	13.6	70.1
2025-07-08T12:42	10	120	6.5	113	133	414	0.8	413	416	13.7	67.7
2025-07-08T12:43	10	148	33.6	117	220	418	4.3	413	424	13.8	66.7
2025-07-08T12:44	10	161	21.2	132	212	425	3.1	420	430	13.9	66.1
2025-07-08T12:45	10	125	21.4	99	177	425	4.1	419	431	14.3	65.8
2025-07-08T12:46	10	94	1.8	92	99	417	1.2	416	420	14.4	64.7
2025-07-08T12:47	10	125	37.8	93	214	418	2.0	416	424	14.5	65.1
2025-07-08T12:48	10	172	24.7	131	216	426	1.9	423	429	14.1	64.4
2025-07-08T12:49	10	186	18.5	159	219	431	2.3	426	436	14.3	65.7
2025-07-08T12:50	10	208	22.7	173	240	434	2.6	430	439	15.1	62.8
2025-07-08T12:51	10	157	18.1	126	183	426	3.3	420	431	15.4	60.5
2025-07-08T12:52	10	118	21.1	94	161	420	2.4	415	424	15.0	58.9
2025-07-08T12:53	10	93	0.6	92	94	411	3.4	405	417	14.9	57.7
2025-07-08T12:54	10	99	4.3	94	107	408	1.1	406	410	14.5	59.3
2025-07-08T12:55	10	102	2.9	97	107	408	0.5	407	409	14.7	60.0
2025-07-08T12:56	10	98	1.8	96	103	407	1.1	406	409	14.5	59.4
2025-07-08T12:57	10	130	19.9	99	173	412	4.2	406	419	14.2	60.3
2025-07-08T12:58	10	146	11.7	131	171	420	1.0	417	421	14.7	60.8
2025-07-08T12:59	10	163	17.0	139	214	422	1.9	418	426	14.7	60.0
2025-07-08T13:00	10	210	11.5	186	222	427	1.7	424	430	14.6	59.4
2025-07-08T13:01	10	171	22.6	140	206	426	2.6	421	429	14.6	58.8
2025-07-08T13:02	10	119	8.2	111	138	418	3.3	412	422	14.6	59.2
2025-07-08T13:03	10	119	13.7	102	147	415	1.3	412	417	14.5	58.5
2025-07-08T13:04	10	101	1.2	100	106	410	1.4	408	414	14.5	58.3
2025-07-08T13:05	10	121	19.3	107	180	412	2.1	408	418	14.5	58.9
2025-07-08T13:06	10	165	11.8	144	179	419	0.9	417	421	14.5	59.0
2025-07-08T13:07	10	143	13.8	116	158	420	1.3	418	422	14.4	60.6
2025-07-08T13:08	10	132	7.6	121	146	419	0.7	418	421	14.7	61.2
2025-07-08T13:09	10	127	5.6	117	143	417	1.7	414	420	14.6	60.7
2025-07-08T13:10	10	104	6.7	97	116	413	1.7	410	416	14.3	60.5
2025-07-08T13:11	10	96	1.7	94	99	409	1.4	407	411	14.6	60.8
2025-07-08T13:12	10	96	3.7	90	102	407	0.5	407	408	14.3	60.0
2025-07-08T13:13	10	88	1.0	87	90	408	0.9	406	409	14.3	60.2
2025-07-08T13:14	10	84	1.3	83	87	406	0.5	405	407	14.2	60.8
2025-07-08T13:15	10	86	0.6	85	87	406	1.1	403	408	14.6	60.5
2025-07-08T13:16	10	85	0.5	84	86	402	1.0	401	404	14.1	59.0
2025-07-08T13:17	10	85	0.9	83	86	403	0.8	401	404	14.1	58.8
2025-07-08T13:18	10	83	2.5	81	99	402	1.0	400	404	14.2	58.6
2025-07-08T13:19	10	81	0.3	80	81	402	0.5	401	403	14.2	60.0
2025-07-08T13:20	10	80	0.3	79	80	402	0.4	401	402	14.2	60.3
2025-07-08T13:21	10	80	0.3	79	81	403	0.5	401	404	14.3	60.4
2025-07-08T13:22	10	81	0.2	81	82	402	0.4	401	403	14.2	59.3
2025-07-08T13:23	10	81	0.2	81	81	402	0.4	401	403	14.2	60.8
2025-07-08T13:24	10	81	0.2	80	81	402	0.5	401	403	14.2	60.6
2025-07-08T13:25	10	80	0.2	79	80	403	0.8	401	404	14.4	61.3
2025-07-08T13:26	10	79	0.4	78	79	403	0.5	402	404	14.3	60.7
2025-07-08T13:27	10	76	0.7	75	78	403	0.5	402	404	14.2	63.3
2025-07-08T13:28	10	74	0.8	73	75	401	1.0	399	403	14.2	64.2
2025-07-08T13:29	10	72	0.7	71	74	400	0.2	399	400	14.0	64.2
2025-07-08T13:30	10	70	0.8	68	71	399	0.6	398	400	14.0	64.1
2025-07-08T13:31	10	67	0.6	66	68	399	0.5	398	400	14.1	64.1
2025-07-08T13:32	10	65	0.3	65	66	399	1.1	397	400	14.2	63.5
2025-07-08T13:33	10	64	0.3	64	65	398	0.5	397	399	14.2	63.9
2025-07-08T13:34	10	63	0.3	63	64	399	0.5	399	401	14.3	64.7
2025-07-08T13:35	10	63	0.2	62	63	399	0.9	397	400	14.2	64.4
2025-07-08T13:36	10	62	0.3	61	62	397	0.4	396	398	14.1	64.5
2025-07-08T13:37	10	61	0.4	60	61	397	0.3	396	397	14.0	64.0
2025-07-08T13:38	10	59	0.4	59	60	396	0.6	395	397	13.9	64.2
2025-07-08T13:39	10	58	0.4	57	59	396	0.4	395	397	14.0	64.3
2025-07-08T13:40	10	56	0.4	56	57	395	0.5	394	396	14.0	63.9
2025-07-08T13:41	10	55	0.4	55	56	395	0.2	395	396	14.0	63.9
2025-07-08T13:42	10	54	0.4	53	54	395	0.5	394	396	14.0	64.6
2025-07-08T13:43	10	52	0.4	52	53	395	0.8	394	396	14.0	64.4
2025-07-08T13:44	10	51	0.4	51	52	393	0.4	392	394	13.8	64.4
2025-07-08T13:45	10	50	0.4	49	51	393	0.4	392	394	13.8	64.7
2025-07-08T13:46	10	48	0.4	48	49	393	0.6	392	394	13.9	63.9
2025-07-08T13:47	10	47	0.4	46	48	392	0.3	391	392	13.9	62.9
2025-07-08T13:48	10	46	0.3	45	46	391	0.3	391	392	13.8	61.1
2025-07-08T13:49	10	45	0.2	44	45	391	0.3	391	392	13.8	61.4
2025-07-08T13:50	10	44	0.1	44	45	391	0.2	391	392	13.9	61.5
2025-07-08T13:51	10	44	0.1	44	45	390	0.5	389	391	13.8	60.1
2025-07-08T13:52	10	45	0.3	44	46	390	0.4	389	391	13.8	60.5
2025-07-08T13:53	10	46	0.5	46	47	390	0.6	389	391	13.7	60.6
2025-07-08T13:54	10	48	0.7	47	49	389	0.3	388	390	13.7	59.9
2025-07-08T13:55	10	51	0.7	50	52	390	0.3	389	391	13.7	60.9
2025-07-08T13:56	10	54	1.0	52	55	392	0.9	390	393	13.8	61.0
2025-07-08T13:57	10	58	1.4	55	60	393	0.9	391	395	13.9	60.7
2025-07-08T13:58	10	63	1.7	60	66	396	1.2	394	398	13.9	60.4
2025-07-08T13:59	10	69	1.9	66	72	397	0.7	396	399	14.0	60.2
2025-07-08T14:00	10	76	2.3	72	80	399	0.7	398	400	14.1	60.2
2025-07-08T14:01	10	85	2.8	80	89	402	1.3	400	404	14.2	60.3
2025-07-08T14:02	10	93	2.2	87	96	402	0.6	401	403	14.1	59.0
2025-07-08T14:03	10	84	2.1	81	87	402	0.4	402	403	14.1	60.0
2025-07-08T14:04	10	79	0.8	78	81	402	0.6	401	403	14.0	59.8
2025-07-08T14:05	10	78	0.1	78	78	401	0.9	400	403	14.0	59.5
2025-07-08T14:06	10	79	0.6	78	80	399	0.4	398	400	13.9	59.8
2025-07-08T14:07	10	80	0.1	80	81	399	0.3	399	400	14.0	59.5
2025-07-08T14:08	10	79	0.7	77	80	401	0.4	400	402	14.2	60.3
2025-07-08T14:09	10	76	1.3	73	78	399	0.7	399	401	14.0	59.5
2025-07-08T14:10	10	71	1.5	68	73	398	0.6	397	399	14.1	59.7
2025-07-08T14:11	10	66	1.2	64	68	398	0.5	397	399	14.0	59.9
2025-07-08T14:12	10	63	0.8	61	64	397	1.1	394	398	14.0	60.7
2025-07-08T14:13	10	60	0.6	59	61	395	0.4	394	396	13.8	61.0
2025-07-08T14:14	10	58	0.6	57	59	394	0.7	393	396	13.7	60.5
2025-07-08T14:15	10	56	0.7	55	57	394	1.0	392	396	13.9	60.3
2025-07-08T14:16	10	53	0.9	51	55	394	0.8	392	396	13.8	60.7
2025-07-08T14:17	10	50	1.1	48	51	394	0.9	392	395	14.0	60.4
2025-07-08T14:18	10	46	1.1	44	48	392	0.5	391	393	13.9	60.5
2025-07-08T14:19	10	42	1.0	40	44	392	0.5	391	393	13.9	61.3
2025-07-08T14:20	10	39	0.9	37	40	390	0.6	390	392	13.9	62.0
2025-07-08T14:21	10	36	0.8	34	37	390	0.5	389	391	14.0	62.8
2025-07-08T14:22	10	33	0.8	32	34	387	0.7	386	389	13.9	62.8
2025-07-08T14:23	10	31	0.6	30	32	386	0.7	385	387	13.9	64.3
2025-07-08T14:24	10	29	0.6	28	30	385	0.5	384	385	13.8	64.8
2025-07-08T14:25	10	27	0.4	26	28	383	0.5	382	384	13.6	64.7
2025-07-08T14:26	10	26	0.3	25	26	382	0.3	381	383	13.6	65.7
2025-07-08T14:27	10	25	0.2	24	25	381	0.5	381	382	13.5	65.1
2025-07-08T14:28	10	24	0.2	24	24	381	0.5	380	382	13.4	65.7
2025-07-08T14:29	10	23	0.3	23	24	381	0.4	380	382	13.4	67.1
2025-07-08T14:30	10	22	0.2	22	23	381	0.4	380	381	13.4	66.3
2025-07-08T14:31	10	21	0.2	21	22	381	0.4	380	381	13.3	66.4
2025-07-08T14:32	10	21	0.1	21	21	380	0.4	380	381	13.3	67.1
2025-07-08T14:33	10	21	0.1	20	21	380	0.2	379	380	13.3	66.9
2025-07-08T14:34	10	21	0.2	20	21	380	0.3	380	381	13.3	67.0
2025-07-08T14:35	10	21	0.2	21	22	380	0.2	380	381	13.3	66.6
2025-07-08T14:36	10	22	0.4	22	23	380	0.5	380	381	13.3	67.4
2025-07-08T14:37	10	24	0.6	23	25	381	0.3	381	382	13.3	68.8
2025-07-08T14:38	10	26	0.7	25	28	381	0.4	380	382	13.3	66.5
2025-07-08T14:39	10	29	0.8	28	30	381	0.4	380	382	13.3	67.9
2025-07-08T14:40	10	32	0.7	30	33	381	0.4	380	382	13.3	68.8
2025-07-08T14:41	10	34	0.5	33	35	382	0.2	381	382	13.2	68.7
2025-07-08T14:42	10	35	0.2	35	35	382	0.2	382	383	13.2	70.1
2025-07-08T14:43	10	35	0.2	35	36	382	0.4	381	383	13.2	70.7
2025-07-08T14:44	10	36	0.3	36	36	383	0.3	382	383	13.2	70.5
2025-07-08T14:45	10	37	0.4	36	38	382	0.3	381	383	13.1	71.1
2025-07-08T14:46	10	38	0.3	38	39	382	0.4	381	383	13.0	72.8
2025-07-08T14:47	10	39	0.6	39	41	382	0.2	382	382	13.0	73.8
2025-07-08T14:48	10	39	0.1	39	39	383	0.4	382	383	13.0	73.1
2025-07-08T14:49	10	39	0.1	38	39	383	0.3	382	384	13.0	73.4
2025-07-08T14:50	10	38	0.2	38	39	383	0.3	383	384	13.0	73.8
2025-07-08T14:51	10	38	0.2	37	38	382	0.3	382	383	13.0	73.9
2025-07-08T14:52	10	37	0.2	37	37	382	0.4	382	383	13.0	75.0
2025-07-08T14:53	10	37	0.1	37	37	382	0.4	381	383	13.0	74.8
2025-07-08T14:54	10	38	0.4	37	38	382	0.5	381	383	13.0	74.2
2025-07-08T14:55	10	39	0.6	38	40	382	0.3	381	383	13.0	73.3
2025-07-08T14:56	10	42	0.9	40	43	383	0.4	382	383	13.0	74.5
2025-07-08T14:57	10	45	1.1	43	47	382	0.6	382	384	13.0	73.8
2025-07-08T14:58	10	49	1.3	47	51	384	0.6	383	385	12.9	75.6
2025-07-08T14:59	10	52	0.7	51	54	385	0.4	384	386	12.9	75.0
2025-07-08T15:00	10	53	0.2	53	54	384	0.4	384	385	12.9	73.8
2025-07-08T15:01	10	52	0.3	52	53	385	0.2	384	385	12.9	73.2
2025-07-08T15:02	10	52	0.5	51	52	385	0.5	384	386	12.9	74.4
2025-07-08T15:03	10	49	0.9	48	51	385	0.4	384	386	12.9	74.2
2025-07-08T15:04	10	46	0.8	45	48	385	0.4	384	386	12.9	74.0
2025-07-08T15:05	10	44	0.7	43	45	384	0.3	384	385	13.0	74.6
2025-07-08T15:06	10	41	0.8	40	43	384	0.7	382	386	13.0	75.1
2025-07-08T15:07	10	38	0.9	37	40	383	0.4	382	384	12.9	74.5
2025-07-08T15:08	10	35	0.6	35	37	382	0.7	381	383	12.9	74.8
2025-07-08T15:09	10	34	0.3	34	35	382	0.4	381	383	12.9	75.7
2025-07-08T15:10	10	34	0.3	34	35	382	0.4	381	383	12.9	75.8
2025-07-08T15:11	10	36	0.9	34	38	382	0.3	381	383	12.9	75.3
2025-07-08T15:12	10	40	1.4	38	42	382	0.4	381	383	12.8	74.8
2025-07-08T15:13	10	45	1.9	42	49	382	0.3	381	382	12.8	74.5
2025-07-08T15:14	10	49	0.5	48	50	382	0.3	381	383	12.8	74.5
2025-07-08T15:15	10	51	0.9	50	53	383	0.8	382	384	12.8	75.6
2025-07-08T15:16	10	54	0.7	53	55	384	0.2	384	385	12.8	76.2
2025-07-08T15:17	10	55	0.4	54	56	384	0.5	383	385	12.8	76.4
2025-07-08T15:18	10	53	0.4	53	54	384	0.4	383	385	12.8	76.3
2025-07-08T15:19	10	52	0.7	51	53	384	0.4	383	385	12.7	76.5
2025-07-08T15:20	10	50	0.2	50	51	385	0.4	384	385	12.8	77.5
2025-07-08T15:21	10	49	0.9	47	50	384	0.9	382	385	12.8	77.9
2025-07-08T15:22	10	46	0.8	45	47	382	0.4	381	383	12.6	77.5
2025-07-08T15:23	10	48	3.7	45	56	382	0.4	381	382	12.6	77.9
2025-07-08T15:24	10	71	14.4	55	100	382	1.6	381	385	12.6	77.8
2025-07-08T15:25	10	105	18.0	77	136	388	1.9	384	392	12.6	78.1
2025-07-08T15:26	10	151	4.5	138	157	394	1.6	390	396	12.8	77.7
2025-07-08T15:27	10	151	1.4	149	153	396	1.0	394	398	12.8	77.0
2025-07-08T15:28	10	145	2.1	142	149	398	1.0	396	400	13.0	76.9
2025-07-08T15:29	10	141	0.8	139	142	401	0.9	399	402	13.3	77.0
2025-07-08T15:30	10	140	0.2	140	141	400	1.1	399	403	13.3	76.4
2025-07-08T15:31	10	141	0.4	141	142	399	1.1	398	401	13.1	76.2
2025-07-08T15:32	10	135	7.9	115	143	399	0.4	398	400	13.2	75.8
2025-07-08T15:33	10	86	31.8	51	145	395	3.3	392	401	13.3	75.2
2025-07-08T15:34	10	131	14.1	79	141	397	3.0	392	402	13.3	75.4
2025-07-08T15:35	10	136	0.7	134	137	401	0.6	399	402	13.4	75.2
2025-07-08T15:36	10	136	1.2	135	139	401	0.4	400	402	13.4	75.2
2025-07-08T15:37	10	97	36.5	50	139	397	3.9	390	401	13.3	74.1
2025-07-08T15:38	10	116	25.0	57	138	394	1.6	391	396	13.3	74.2
2025-07-08T15:39	10	135	0.8	133	136	395	0.9	394	397	13.1	73.2
2025-07-08T15:40	10	135	0.5	134	136	395	1.0	393	397	13.0	73.2
2025-07-08T15:41	10	102	38.8	37	138	396	2.9	389	399	13.3	73.4
2025-07-08T15:42	10	56	19.6	34	90	388	1.4	386	392	13.2	72.6
2025-07-08T15:43	10	121	10.8	92	135	392	3.1	387	396	13.1	72.7
2025-07-08T15:44	10	129	0.9	127	130	395	1.0	393	397	13.1	72.3
2025-07-08T15:45	10	126	0.5	126	128	394	0.4	393	395	13.0	72.1
2025-07-08T15:46	10	125	0.2	125	126	396	1.0	394	398	13.2	71.8
2025-07-08T15:47	10	125	0.2	125	125	396	0.3	395	397	13.2	71.1
2025-07-08T15:48	10	124	0.2	124	125	397	0.8	395	398	13.4	71.6
2025-07-08T15:49	10	124	0.2	123	124	398	0.7	396	399	13.3	70.7
2025-07-08T15:50	10	123	0.3	123	124	396	0.5	395	397	13.2	70.2
2025-07-08T15:51	10	123	0.2	122	123	396	0.9	395	398	13.1	71.7
2025-07-08T15:52	10	122	0.2	122	122	399	0.6	398	400	13.3	71.9
2025-07-08T15:53	10	122	0.2	121	122	398	1.0	397	400	13.3	71.0
2025-07-08T15:54	10	121	0.2	121	122	397	0.6	396	398	13.3	71.1
2025-07-08T15:55	10	121	0.2	120	121	398	0.3	397	399	13.4	71.3
2025-07-08T15:56	10	120	0.2	120	121	397	0.5	396	398	13.3	70.5
2025-07-08T15:57	10	120	0.2	119	120	398	1.0	396	399	13.3	70.8
2025-07-08T15:58	10	119	0.2	119	120	399	0.6	398	400	13.4	70.6
2025-07-08T15:59	10	119	0.2	119	119	398	0.9	397	400	13.4	69.7
2025-07-08T16:00	10	118	0.2	118	119	400	1.0	398	402	13.6	70.0
2025-07-08T16:01	10	118	0.1	118	118	400	0.5	400	402	13.6	68.7
2025-07-08T16:02	10	118	0.2	117	118	400	0.7	399	401	13.5	69.3
2025-07-08T16:03	10	117	0.3	116	117	399	0.6	398	401	13.5	69.9
2025-07-08T16:04	10	116	0.1	116	117	402	0.6	401	403	13.6	68.3
2025-07-08T16:05	10	116	0.1	116	116	405	1.0	403	406	13.8	68.5
2025-07-08T16:06	10	116	0.2	115	116	404	1.3	402	406	13.9	68.9
2025-07-08T16:07	10	115	0.1	115	115	403	0.8	401	405	13.8	67.8
2025-07-08T16:08	10	115	0.2	115	116	401	0.6	399	401	13.9	67.3
2025-07-08T16:09	10	116	0.1	115	116	400	0.3	400	401	13.7	66.7
2025-07-08T16:10	10	116	0.1	116	116	399	0.9	397	401	13.5	67.6
2025-07-08T16:11	10	115	0.2	115	116	400	0.7	398	401	13.5	68.1
2025-07-08T16:12	10	115	0.1	114	115	401	1.2	399	404	13.6	68.4
2025-07-08T16:13	10	114	0.3	114	115	402	0.8	400	403	13.7	68.7
2025-07-08T16:14	10	114	0.1	113	114	400	0.6	399	402	13.7	68.5
2025-07-08T16:15	10	113	0.9	113	119	399	0.8	398	402	13.8	67.5
2025-07-08T16:16	10	108	8.4	82	113	399	0.5	398	400	13.7	67.3
2025-07-08T16:17	10	108	6.5	84	112	398	0.9	398	401	13.7	67.9
2025-07-08T16:18	10	111	0.2	111	111	401	1.0	399	403	14.1	67.1
2025-07-08T16:19	10	110	0.3	110	111	399	1.4	398	402	13.7	66.7
2025-07-08T16:20	10	110	0.2	109	110	398	1.0	396	399	13.5	67.6
2025-07-08T16:21	10	109	0.3	108	109	398	0.6	396	399	13.4	67.7
2025-07-08T16:22	10	108	0.2	108	108	400	1.5	398	402	13.6	67.8
2025-07-08T16:23	10	108	0.2	107	108	401	1.1	399	403	13.9	67.8
2025-07-08T16:24	10	107	0.2	107	108	399	0.6	398	400	13.5	68.7
2025-07-08T16:25	10	107	0.2	106	107	400	0.6	398	401	13.7	68.9
2025-07-08T16:26	10	106	0.2	106	106	398	0.3	398	399	13.7	68.5
2025-07-08T16:27	10	105	0.2	105	106	398	0.4	397	398	13.7	69.1
2025-07-08T16:28	10	105	0.2	104	105	398	0.4	397	399	13.7	68.8
2025-07-08T16:29	10	104	0.2	104	105	398	0.5	397	399	13.9	68.8
2025-07-08T16:30	10	104	0.3	103	104	397	0.7	396	398	13.6	68.6
2025-07-08T16:31	10	103	0.2	103	103	399	0.6	398	400	13.9	68.5
2025-07-08T16:32	10	102	0.1	102	103	399	0.5	397	400	13.9	68.1
2025-07-08T16:33	10	102	0.3	101	102	398	0.3	398	399	13.8	68.1
2025-07-08T16:34	10	101	0.2	101	102	399	0.2	398	400	13.9	68.3
2025-07-08T16:35	10	100	0.3	100	101	397	0.8	396	399	13.8	68.2
2025-07-08T16:36	10	100	0.2	99	100	397	0.6	396	398	13.7	68.6
2025-07-08T16:37	10	99	0.1	99	100	399	0.8	398	400	14.0	68.6
2025-07-08T16:38	10	99	0.2	98	99	400	0.7	398	401	14.3	68.3
2025-07-08T16:39	10	99	0.1	98	99	399	0.3	399	400	14.2	67.7
2025-07-08T16:40	10	98	0.1	98	99	399	1.0	397	401	14.2	68.2
2025-07-08T16:41	10	98	0.2	98	98	397	0.9	396	399	13.9	68.5
2025-07-08T16:42	10	97	0.2	97	98	396	0.8	395	398	13.8	68.3
2025-07-08T16:43	10	95	1.7	90	97	396	0.3	396	396	13.8	68.0
2025-07-08T16:44	10	94	2.2	89	96	396	0.4	396	397	13.9	67.7
2025-07-08T16:45	10	93	2.5	90	97	398	0.6	396	399	14.1	67.6
2025-07-08T16:46	10	97	0.1	97	97	398	0.7	396	399	14.0	67.1
2025-07-08T16:47	10	97	0.1	97	98	397	0.5	396	398	13.9	67.3
2025-07-08T16:48	10	98	0.1	97	98	397	0.4	396	398	14.0	67.3
2025-07-08T16:49	10	98	0.1	98	98	398	0.6	397	399	13.9	66.9
2025-07-08T16:50	10	96	4.2	85	99	399	0.4	398	400	14.1	67.0
2025-07-08T16:51	10	68	27.0	39	100	396	3.0	391	400	14.1	65.7
2025-07-08T16:52	10	38	5.9	26	49	390	1.3	388	393	14.0	66.2
2025-07-08T16:53	10	29	5.7	22	37	388	0.5	387	389	14.0	66.6
2025-07-08T16:54	10	24	5.4	19	36	387	1.3	384	389	14.1	66.7
2025-07-08T16:55	10	18	0.9	17	20	384	0.5	383	385	14.0	66.0
2025-07-08T16:56	10	16	0.3	16	17	383	0.3	382	384	14.0	67.2
2025-07-08T16:57	10	16	0.1	16	16	382	0.5	381	383	13.9	67.3
2025-07-08T16:58	10	16	0.3	16	17	381	0.2	381	382	13.8	67.3
2025-07-08T16:59	10	18	0.5	17	19	381	0.2	380	381	13.8	67.5
2025-07-08T17:00	10	20	0.6	19	21	381	0.3	381	382	13.8	67.7
2025-07-08T17:01	10	23	1.3	21	25	381	0.5	380	382	13.8	68.0
2025-07-08T17:02	10	32	9.0	25	62	382	0.9	381	384	13.8	67.7
2025-07-08T17:03	10	94	8.0	65	100	389	2.9	383	393	13.8	67.7
2025-07-08T17:04	10	96	0.7	95	97	394	0.9	392	395	13.9	67.2
2025-07-08T17:05	10	88	6.8	74	95	396	0.9	394	397	14.1	67.1
2025-07-08T17:06	10	90	2.7	82	92	397	0.6	396	398	14.3	67.3
2025-07-08T17:07	10	83	12.1	48	92	397	0.5	396	398	14.3	66.8
2025-07-08T17:08	10	29	6.0	25	47	392	2.6	389	397	14.3	66.5
2025-07-08T17:09	10	35	9.2	27	52	389	0.5	388	391	14.3	66.2
2025-07-08T17:10	10	59	10.6	46	86	391	0.8	390	393	14.2	66.3
2025-07-08T17:11	10	73	17.1	33	88	394	0.8	393	396	14.3	66.4
2025-07-08T17:12	10	38	5.5	31	48	391	1.2	390	394	14.4	66.2
2025-07-08T17:13	10	36	6.3	30	54	388	1.0	387	391	14.3	65.3
2025-07-08T17:14	10	53	6.4	44	63	389	0.5	388	390	14.3	65.7
2025-07-08T17:15	10	55	7.6	43	71	390	0.4	389	391	14.3	65.5
2025-07-08T17:16	10	87	9.3	60	94	394	1.9	390	396	14.4	64.7
2025-07-08T17:17	10	55	7.0	45	72	394	0.9	392	395	14.5	65.3
2025-07-08T17:18	10	55	18.5	31	84	392	1.2	389	394	14.4	64.4
2025-07-08T17:19	10	34	3.8	29	39	389	1.2	387	391	14.3	64.3
2025-07-08T17:20	10	30	0.8	28	31	387	0.4	387	388	14.3	64.7
2025-07-08T17:21	10	32	6.2	27	46	387	0.3	386	387	14.3	64.9
2025-07-08T17:22	10	33	10.5	26	57	386	0.6	385	387	14.3	65.2
2025-07-08T17:23	10	38	13.5	25	61	387	0.7	386	388	14.3	65.2
2025-07-08T17:24	10	30	5.8	22	40	386	0.6	384	387	14.3	65.4
2025-07-08T17:25	10	62	24.9	23	83	387	2.5	383	391	14.3	65.4
2025-07-08T17:26	10	82	0.6	81	83	391	1.1	389	393	14.4	65.4
2025-07-08T17:27	10	65	11.7	50	80	393	0.6	392	394	14.5	65.0
2025-07-08T17:28	10	73	8.4	54	80	392	0.9	391	394	14.5	64.6
2025-07-08T17:29	10	79	0.4	78	79	395	0.6	393	396	14.6	64.8
2025-07-08T17:30	10	77	0.9	75	78	395	0.2	395	396	14.7	64.9
2025-07-08T17:31	10	75	0.4	74	75	395	0.7	393	396	14.7	65.7
2025-07-08T17:32	10	73	0.5	73	74	392	0.7	391	394	14.5	63.8
2025-07-08T17:33	10	72	0.5	71	73	391	0.4	390	392	14.4	62.3
2025-07-08T17:34	10	70	0.5	70	71	390	0.3	390	391	14.4	62.0
2025-07-08T17:35	10	69	0.1	69	70	390	0.3	390	391	14.4	62.6
2025-07-08T17:36	10	66	3.9	57	70	389	0.5	388	390	14.4	62.0
2025-07-08T17:37	10	63	4.6	56	70	389	0.4	388	390	14.4	61.0
2025-07-08T17:38	10	39	15.8	20	65	387	1.4	385	390	14.4	62.1
2025-07-08T17:39	10	44	12.7	26	66	386	1.1	385	388	14.4	61.9
2025-07-08T17:40	10	55	6.6	44	63	386	0.4	385	387	14.4	62.3
2025-07-08T17:41	10	39	13.2	23	61	385	1.3	383	387	14.4	62.5
2025-07-08T17:42	10	57	8.8	34	63	386	1.3	383	388	14.4	63.0
2025-07-08T17:43	10	62	0.3	61	62	387	0.3	386	387	14.4	63.0
2025-07-08T17:44	10	59	2.1	55	61	387	0.3	386	388	14.4	62.8
2025-07-08T17:45	10	56	3.2	50	59	387	0.2	386	387	14.4	62.7
2025-07-08T17:46	10	61	0.8	58	62	387	0.3	386	388	14.4	62.9
2025-07-08T17:47	10	59	2.6	53	62	386	0.4	386	388	14.4	62.4
2025-07-08T17:48	10	47	16.2	21	62	386	1.1	383	387	14.4	62.3
2025-07-08T17:49	10	41	13.6	23	61	384	0.8	383	386	14.3	62.6
2025-07-08T17:50	10	28	13.9	16	60	384	1.1	382	386	14.4	63.1
2025-07-08T17:51	10	14	1.3	13	17	382	0.8	381	383	14.4	63.1
2025-07-08T17:52	10	13	0.8	12	15	381	0.4	380	382	14.4	63.5
2025-07-08T17:53	10	13	0.2	12	13	380	0.3	379	381	14.4	63.7
2025-07-08T17:54	10	13	0.3	13	14	380	0.3	379	381	14.4	63.9
2025-07-08T17:55	10	14	0.2	14	15	380	0.2	380	381	14.4	64.1
2025-07-08T17:56	10	15	0.2	15	15	381	0.2	380	381	14.4	64.1
2025-07-08T17:57	10	16	0.2	15	16	381	0.2	380	381	14.3	62.9
2025-07-08T17:58	10	17	0.5	16	18	381	0.3	380	381	14.2	62.8
2025-07-08T17:59	10	17	0.2	17	18	381	0.3	381	382	14.2	63.1
2025-07-08T18:00	10	17	0.1	17	17	381	0.2	381	382	14.1	63.9
2025-07-08T18:01	10	17	0.2	17	18	382	0.3	381	382	14.1	63.8
2025-07-08T18:02	10	18	0.1	17	18	382	0.3	382	383	14.1	64.5
2025-07-08T18:03	10	17	0.1	17	18	382	0.2	382	383	14.1	64.4
2025-07-08T18:04	10	17	0.1	17	17	383	0.3	382	383	14.1	64.1
2025-07-08T18:05	10	17	0.1	17	17	383	0.2	382	383	14.1	64.6
2025-07-08T18:06	10	16	0.2	16	17	383	0.3	382	383	14.1	65.0
2025-07-08T18:07	10	16	0.3	15	16	383	0.2	382	384	14.1	64.6
2025-07-08T18:08	10	15	0.3	14	15	383	0.3	382	384	14.1	64.2
2025-07-08T18:09	10	14	0.3	13	14	383	0.2	383	384	14.1	63.4
2025-07-08T18:10	10	13	0.2	13	13	383	0.5	382	384	14.1	64.3
2025-07-08T18:11	10	13	0.1	12	13	383	0.2	382	383	14.1	63.3
2025-07-08T18:12	10	12	0.1	12	12	383	0.3	382	383	14.1	63.5
2025-07-08T18:13	10	12	0.1	12	12	382	0.2	382	383	14.1	62.5
2025-07-08T18:14	10	12	0.1	12	12	382	0.3	382	383	14.1	62.1
2025-07-08T18:15	10	12	0.1	12	12	382	0.3	381	383	14.2	62.1
2025-07-08T18:16	10	12	0.1	11	12	382	0.2	382	383	14.2	62.6
2025-07-08T18:17	10	11	0.1	11	12	382	0.3	381	383	14.2	62.0
2025-07-08T18:18	10	11	0.1	11	11	382	0.3	381	383	14.2	62.1
2025-07-08T18:19	10	11	0.1	11	11	382	0.2	381	382	14.2	62.1
2025-07-08T18:20	10	11	0.1	11	11	382	0.3	381	383	14.2	62.5
2025-07-08T18:21	10	11	0.1	11	11	382	0.1	382	382	14.2	62.9
2025-07-08T18:22	10	11	0.1	10	11	382	0.2	382	383	14.2	62.8
2025-07-08T18:23	10	10	0.1	10	10	382	0.2	381	382	14.2	63.0
2025-07-08T18:24	10	10	0.2	10	10	382	0.2	382	382	14.1	63.0
2025-07-08T18:25	10	9	0.2	9	10	382	0.2	381	382	14.2	63.1
2025-07-08T18:26	10	9	0.1	9	9	381	0.2	381	382	14.1	63.4
2025-07-08T18:27	10	9	0.2	8	9	381	0.3	381	382	14.1	63.7
2025-07-08T18:28	10	8	0.2	8	8	381	0.2	381	382	14.1	63.8
2025-07-08T18:29	10	8	0.1	7	8	381	0.2	381	381	14.1	64.3
2025-07-08T18:30	10	7	0.1	7	8	381	0.2	380	382	14.1	64.9
2025-07-08T18:31	10	7	0.1	7	7	381	0.3	380	382	14.1	64.8
2025-07-08T18:32	10	6	0.1	6	7	381	0.2	380	381	14.1	64.8
2025-07-08T18:33	10	6	0.2	6	6	381	0.2	380	381	14.0	65.0
2025-07-08T18:34	10	6	0.1	6	6	380	0.2	380	381	14.0	65.4
2025-07-08T18:35	10	5	0.1	5	6	380	0.3	379	381	14.0	65.4
2025-07-08T18:36	10	5	0.1	5	6	380	0.2	379	380	14.0	65.7
2025-07-08T18:37	10	5	0.1	5	5	380	0.3	379	381	13.9	66.1
2025-07-08T18:38	10	5	0.1	5	5	380	0.1	379	380	13.9	66.1
2025-07-08T18:39	10	5	0.1	5	5	379	0.2	379	380	13.9	66.3
2025-07-08T18:40	10	5	0.1	5	5	379	0.2	379	380	13.9	66.9
2025-07-08T18:41	10	5	0.1	5	5	379	0.2	379	380	13.8	67.2
2025-07-08T18:42	10	5	0.1	5	5	379	0.2	379	380	13.8	67.1
2025-07-08T18:43	10	5	0.1	5	5	379	0.2	378	379	13.8	67.2
2025-07-08T18:44	10	5	0.1	5	5	379	0.2	379	380	13.8	66.4
2025-07-08T18:45	10	5	0.1	5	5	379	0.3	378	379	13.8	66.3
2025-07-08T18:46	10	5	0.1	4	5	379	0.2	378	380	13.9	66.6
2025-07-08T18:47	10	5	0.6	5	7	379	0.2	379	380	13.9	67.1
2025-07-08T18:48	10	11	2.6	7	16	379	0.5	378	380	13.9	66.4
2025-07-08T18:49	10	17	0.8	16	18	380	0.5	379	381	13.9	65.6
2025-07-08T18:50	10	12	2.4	7	16	380	0.3	379	381	13.9	66.0
2025-07-08T18:51	10	6	0.7	6	7	380	0.3	379	380	13.9	65.3
2025-07-08T18:52	10	6	0.2	6	7	379	0.2	379	379	13.9	65.7
2025-07-08T18:53	10	6	0.4	5	6	379	0.2	379	379	13.9	66.4
2025-07-08T18:54	10	6	0.7	5	7	379	0.2	379	379	13.9	66.7
2025-07-08T18:55	10	7	0.1	7	8	379	0.2	379	379	13.9	66.6
2025-07-08T18:56	10	8	0.4	7	9	379	0.2	378	379	13.9	67.3
2025-07-08T18:57	10	8	0.3	8	9	379	0.2	379	380	13.9	67.3
2025-07-08T18:58	10	7	0.8	5	8	379	0.2	379	379	13.9	67.7
2025-07-08T18:59	10	4	0.4	4	5	379	0.3	378	380	13.9	68.0
2025-07-08T19:00	10	4	0.1	4	4	379	0.2	378	379	13.9	68.5
2025-07-08T19:01	10	4	0.1	3	4	379	0.3	378	379	13.8	68.2
2025-07-08T19:02	10	3	0.1	3	4	378	0.2	378	379	13.9	68.0
2025-07-08T19:03	10	3	0.1	3	3	378	0.2	378	379	13.9	67.9
2025-07-08T19:04	10	3	0.1	3	3	378	0.3	378	379	13.9	67.1
2025-07-08T19:05	10	3	0.1	2	3	378	0.3	377	379	13.9	66.0
2025-07-08T19:06	10	2	0.1	2	2	378	0.3	377	379	13.9	66.3
2025-07-08T19:07	10	2	0.1	2	2	378	0.2	377	378	13.9	66.1
2025-07-08T19:08	10	2	0.1	2	2	377	0.2	377	378	13.9	66.5
2025-07-08T19:09	10	2	0.1	2	2	377	0.2	377	378	13.8	67.1
2025-07-08T19:10	10	2	0.1	2	2	377	0.2	377	378	13.8	67.1
2025-07-08T19:11	10	2	0.1	2	2	377	0.2	377	378	13.7	67.8
2025-07-08T19:12	10	2	0.1	1	2	377	0.2	377	378	13.8	67.1
2025-07-08T19:13	10	1	0.1	1	2	377	0.2	376	377	13.7	67.5
2025-07-08T19:14	10	1	0.1	1	1	377	0.2	376	377	13.7	67.6
2025-07-08T19:15	10	1	0.1	1	1	377	0.2	376	377	13.7	67.8
2025-07-08T19:16	10	1	0.1	1	1	377	0.2	376	378	13.7	67.7
2025-07-08T19:17	10	1	0.0	1	1	377	0.2	376	377	13.7	67.9
2025-07-08T19:18	10	1	0.1	1	1	377	0.2	376	377	13.7	67.8
2025-07-08T19:19	10	1	0.1	1	1	376	0.3	376	377	13.7	68.2
2025-07-08T19:20	10	1	0.1	1	1	376	0.2	376	377	13.6	68.6
2025-07-08T19:21	10	1	0.1	1	1	376	0.2	376	377	13.6	68.8
2025-07-08T19:22	10	1	0.1	0	1	376	0.3	375	376	13.6	68.9
2025-07-08T19:23	10	1	0.1	1	1	376	0.3	375	377	13.6	68.9
2025-07-08T19:24	10	1	0.1	0	1	376	0.3	375	377	13.6	69.6
2025-07-08T19:25	10	1	0.1	1	1	376	0.2	375	376	13.5	69.9
2025-07-08T19:26	10	1	0.1	0	1	376	0.3	375	376	13.5	70.2
2025-07-08T19:27	10	1	0.2	0	1	376	0.2	375	376	13.5	70.7
2025-07-08T19:28	10	1	0.1	0	1	376	0.2	375	377	13.5	70.5
2025-07-08T19:29	10	1	0.1	0	1	375	0.3	375	376	13.4	70.8
2025-07-08T19:30	10	0	0.1	0	1	375	0.2	375	376	13.4	70.6
2025-07-08T19:31	10	0	0.1	0	1	375	0.2	375	376	13.5	70.6
2025-07-08T19:32	10	0	0.1	0	1	375	0.2	375	376	13.4	70.7
2025-07-08T19:33	10	0	0.2	0	1	375	0.3	374	376	13.4	70.6
2025-07-08T19:34	10	0	0.2	0	1	375	0.3	374	375	13.4	70.8
2025-07-08T19:35	10	0	0.2	0	1	375	0.3	374	375	13.4	71.0
2025-07-08T19:36	10	0	0.2	0	1	375	0.4	374	376	13.4	71.2
2025-07-08T19:37	10	0	0.1	0	1	375	0.3	374	376	13.4	71.6
2025-07-08T19:38	10	0	0.1	0	0	375	0.2	374	375	13.4	70.8
2025-07-08T19:39	10	0	0.1	0	0	375	0.2	374	375	13.4	70.4
2025-07-08T19:40	10	0	0.2	0	0	374	0.3	374	375	13.4	70.7
2025-07-08T19:41	10	0	0.1	0	1	374	0.4	373	375	13.4	70.9
2025-07-08T19:42	10	0	0.1	0	1	374	0.3	374	375	13.4	70.7
2025-07-08T19:43	10	0	0.1	0	0	374	0.3	373	375	13.3	70.8
2025-07-08T19:44	10	0	0.1	0	0	374	0.2	373	374	13.3	71.0
2025-07-08T19:45	10	0	0.1	0	0	374	0.2	373	374	13.4	70.5
2025-07-08T19:46	10	0	0.2	0	1	374	0.2	373	374	13.4	70.3
2025-07-08T19:47	10	0	0.1	0	0	374	0.2	373	374	13.3	70.8
2025-07-08T19:48	10	0	0.1	0	0	373	0.2	372	374	13.3	71.2
2025-07-08T19:49	10	0	0.1	0	0	373	0.4	373	374	13.3	71.0
2025-07-08T19:50	10	0	0.1	-1	0	373	0.2	373	374	13.3	70.9
2025-07-08T19:51	10	0	0.1	0	0	373	0.2	373	374	13.3	70.7
2025-07-08T19:52	10	0	0.1	0	0	373	0.3	373	374	13.3	70.9
2025-07-08T19:53	10	0	0.1	-1	0	373	0.2	373	374	13.3	70.9
2025-07-08T19:54	10	0	0.1	0	0	373	0.2	373	374	13.3	71.2
2025-07-08T19:55	10	0	0.1	0	0	373	0.2	373	374	13.3	71.0
2025-07-08T19:56	10	0	0.1	0	0	373	0.2	373	374	13.3	70.8
2025-07-08T19:57	10	0	0.1	0	0	373	0.3	373	374	13.3	70.8
2025-07-08T19:58	10	0	0.1	0	0	373	0.2	373	374	13.3	71.1
2025-07-08T19:59	10	0	0.1	0	0	373	0.3	372	374	13.3	71.4
2025-07-08T20:00	10	0	0.1	0	0	373	0.2	373	374	13.2	71.6
2025-07-08T20:01	10	0	0.1	0	0	373	0.2	373	373	13.3	71.9
2025-07-08T20:02	10	0	0.0	0	0	373	0.2	372	373	13.2	71.9
2025-07-08T20:03	10	0	0.1	0	0	373	0.2	372	373	13.2	72.5
2025-07-08T20:04	10	0	0.0	0	0	373	0.2	372	373	13.1	72.6
2025-07-08T20:05	10	0	0.1	0	0	372	0.2	372	373	13.1	72.6
2025-07-08T20:06	10	0	0.1	0	0	372	0.2	372	373	13.1	72.9
2025-07-08T20:07	10	0	0.1	0	0	372	0.2	372	372	13.1	72.7
2025-07-08T20:08	10	0	0.1	-1	0	372	0.2	371	372	13.1	72.8
2025-07-08T20:09	10	0	0.0	0	0	371	0.3	371	372	13.1	73.0
2025-07-08T20:10	10	0	0.1	-1	0	371	0.2	371	372	13.1	73.1
2025-07-08T20:11	10	0	0.1	0	0	371	0.2	370	371	13.0	73.3
2025-07-08T20:12	10	0	0.1	0	0	371	0.2	370	371	13.0	73.7
2025-07-08T20:13	10	0	0.1	0	0	371	0.2	370	371	13.0	73.4
2025-07-08T20:14	10	0	0.1	0	0	370	0.2	370	371	13.0	73.3
2025-07-08T20:15	10	0	0.1	0	0	370	0.2	370	371	12.9	74.1
2025-07-08T20:16	10	0	0.1	0	0	370	0.2	370	370	12.9	74.2
2025-07-08T20:17	10	0	0.1	0	0	370	0.3	369	370	12.9	74.1
2025-07-08T20:18	10	0	0.1	0	0	369	0.2	369	370	12.9	74.5
2025-07-08T20:19	10	0	0.0	0	0	369	0.3	368	370	12.9	74.3
2025-07-08T20:20	10	0	0.1	0	0	369	0.3	369	370	12.9	74.2
2025-07-08T20:21	10	0	0.1	0	0	370	0.3	369	370	12.9	74.0
2025-07-08T20:22	10	0	0.1	0	0	369	0.3	369	370	12.9	74.3
2025-07-08T20:23	10	0	0.1	0	0	370	0.2	369	370	12.9	74.7
2025-07-08T20:24	10	0	0.1	0	0	370	0.2	369	370	12.9	75.1
2025-07-08T20:25	10	0	0.1	0	0	370	0.2	369	370	12.8	75.3
2025-07-08T20:26	10	0	0.1	0	0	369	0.2	369	370	12.8	75.7
2025-07-08T20:27	10	0	0.1	0	0	369	0.2	369	370	12.7	76.1
2025-07-08T20:28	10	0	0.1	0	0	369	0.2	368	369	12.8	75.8
2025-07-08T20:29	10	0	0.1	0	0	369	0.3	368	369	12.8	75.2
2025-07-08T20:30	10	0	0.1	-1	0	368	0.2	368	369	12.9	74.5
2025-07-08T20:31	10	0	0.1	0	0	368	0.2	367	368	12.8	75.1
2025-07-08T20:32	10	0	0.1	0	0	368	0.2	367	368	12.8	74.8
2025-07-08T20:33	10	0	0.1	0	0	368	0.3	368	368	12.9	74.1
2025-07-08T20:34	10	0	0.1	0	0	368	0.3	367	368	12.9	74.5
2025-07-08T20:35	10	0	0.1	0	0	367	0.3	367	368	12.8	74.8
2025-07-08T20:36	10	0	0.1	-1	0	367	0.2	366	367	12.8	75.1
2025-07-08T20:37	10	0	0.1	-1	0	367	0.5	365	367	12.8	74.8
2025-07-08T20:38	10	0	0.1	0	0	366	0.3	365	366	12.8	75.2
2025-07-08T20:39	10	0	0.1	-1	0	365	0.2	365	366	12.7	75.8
2025-07-08T20:40	10	0	0.1	0	0	365	0.2	364	365	12.7	75.5
2025-07-08T20:41	10	0	0.1	0	0	365	0.2	365	366	12.7	75.1
2025-07-08T20:42	10	0	0.1	-1	0	365	0.2	365	366	12.8	74.7
2025-07-08T20:43	10	0	0.1	-1	0	365	0.3	364	365	12.7	74.9
2025-07-08T20:44	10	0	0.1	-1	0	364	0.2	364	365	12.8	74.4
2025-07-08T20:45	10	0	0.1	-1	0	363	0.4	363	364	12.8	74.3
2025-07-08T20:46	10	0	0.1	0	0	363	0.3	362	364	12.7	74.9
2025-07-08T20:47	10	0	0.1	0	0	362	0.2	362	363	12.7	75.1
2025-07-08T20:48	10	0	0.1	0	0	362	0.3	361	363	12.7	75.3
2025-07-08T20:49	10	0	0.1	-1	0	362	0.2	361	362	12.6	75.5
2025-07-08T20:50	10	0	0.1	0	0	362	0.3	361	362	12.6	75.6
2025-07-08T20:51	10	0	0.1	-1	0	361	0.3	361	362	12.6	76.0
2025-07-08T20:52	10	0	0.1	-1	0	361	0.3	360	362	12.5	76.3
2025-07-08T20:53	10	0	0.1	0	0	361	0.3	361	362	12.5	75.9
2025-07-08T20:54	10	0	0.1	0	0	361	0.2	360	362	12.5	76.1
2025-07-08T20:55	10	0	0.1	-1	0	360	0.3	360	361	12.5	75.5
2025-07-08T20:56	10	0	0.1	-1	0	360	0.3	360	361	12.4	75.8
2025-07-08T20:57	10	0	0.1	-1	0	360	0.3	359	361	12.5	75.0
2025-07-08T20:58	10	0	0.1	0	0	360	0.3	359	361	12.4	75.7
2025-07-08T20:59	10	0	0.1	-1	0	361	0.4	360	361	12.5	75.2
2025-07-08T21:00	10	0	0.1	-1	0	361	0.2	360	361	12.5	75.1
2025-07-08T21:01	10	0	0.1	-1	0	360	0.2	360	361	12.4	75.7
2025-07-08T21:02	10	0	0.1	-1	0	360	0.3	360	361	12.5	74.9
2025-07-08T21:03	10	0	0.1	-1	0	360	0.2	360	361	12.5	75.1
2025-07-08T21:04	10	0	0.1	0	0	360	0.4	359	360	12.4	75.6
2025-07-08T21:05	10	0	0.1	0	0	359	0.3	358	359	12.3	76.1
2025-07-08T21:06	10	0	0.1	0	0	358	0.4	358	359	12.3	76.6
2025-07-08T21:07	10	0	0.1	-1	0	358	0.2	358	359	12.4	75.8
2025-07-08T21:08	10	0	0.1	-1	0	358	0.4	357	359	12.3	76.3
2025-07-08T21:09	10	0	0.1	0	0	358	0.3	357	358	12.2	76.9
2025-07-08T21:10	10	0	0.1	0	0	358	0.3	357	358	12.1	77.9
2025-07-08T21:11	10	0	0.1	0	0	358	0.2	357	358	12.0	78.5
2025-07-08T21:12	10	0	0.1	0	0	357	0.2	357	358	12.0	78.7
2025-07-08T21:13	10	0	0.1	0	0	358	0.2	357	358	11.9	78.8
2025-07-08T21:14	10	0	0.1	-1	0	357	0.2	357	358	11.9	78.6
2025-07-08T21:15	10	0	0.1	0	0	357	0.3	356	358	11.9	78.9
2025-07-08T21:16	10	0	0.1	-1	0	356	0.2	356	357	11.9	78.8
2025-07-08T21:17	10	0	0.1	0	0	356	0.3	356	357	11.9	78.7
2025-07-08T21:18	10	0	0.1	-1	0	356	0.2	356	357	11.9	78.4
2025-07-08T21:19	10	0	0.1	-1	0	356	0.3	355	357	11.9	78.3
2025-07-08T21:20	10	0	0.1	-1	0	356	0.3	355	356	11.9	77.8
2025-07-08T21:21	10	0	0.1	-1	0	356	0.2	356	357	12.0	77.5
2025-07-08T21:22	10	0	0.1	-1	0	356	0.2	355	357	12.1	77.1
2025-07-08T21:23	10	0	0.1	-1	0	356	0.3	355	357	12.0	77.5
2025-07-08T21:24	10	0	0.1	0	0	357	0.4	356	358	11.9	78.1
2025-07-08T21:25	10	0	0.1	-1	0	357	0.3	356	358	11.8	78.6
2025-07-08T21:26	10	0	0.1	-1	0	357	0.2	356	357	11.9	78.5
2025-07-08T21:27	10	0	0.1	-1	0	357	0.3	356	357	11.8	78.7
2025-07-08T21:28	10	0	0.1	0	0	356	0.3	356	357	11.8	78.7
2025-07-08T21:29	10	0	0.1	-1	0	356	0.2	355	356	11.8	78.7
2025-07-08T21:30	10	0	0.1	-1	0	356	0.2	355	356	11.9	78.5
2025-07-08T21:31	10	0	0.1	0	0	356	0.2	355	356	11.8	78.6
2025-07-08T21:32	10	0	0.1	0	0	355	0.2	355	356	11.8	78.7
2025-07-08T21:33	10	0	0.1	-1	0	355	0.2	355	356	11.8	78.7
2025-07-08T21:34	10	0	0.1	-1	0	356	0.2	355	356	11.7	79.1
2025-07-08T21:35	10	0	0.1	-1	0	355	0.2	355	356	11.7	79.3
2025-07-08T21:36	10	0	0.1	-1	0	355	0.2	354	355	11.7	79.3
2025-07-08T21:37	10	0	0.1	0	0	355	0.2	354	355	11.7	79.0
2025-07-08T21:38	10	0	0.1	-1	0	354	0.2	353	354	11.7	78.8
2025-07-08T21:39	10	0	0.1	-1	0	353	0.2	353	354	11.6	79.2
2025-07-08T21:40	10	0	0.1	-1	0	353	0.3	352	354	11.6	79.2
2025-07-08T21:41	10	0	0.1	-1	0	353	0.2	353	354	11.7	78.8
2025-07-08T21:42	10	0	0.1	-1	0	353	0.4	352	354	11.7	78.5
2025-07-08T21:43	10	0	0.1	-1	0	354	0.2	353	354	11.8	78.2
2025-07-08T21:44	10	0	0.1	-1	0	354	0.3	353	354	11.8	77.9
2025-07-08T21:45	10	0	0.1	-1	0	353	0.3	353	354	11.8	77.6
2025-07-08T21:46	10	0	0.2	-1	0	353	0.3	352	353	11.8	77.6
2025-07-08T21:47	10	0	0.2	-1	0	352	0.3	352	353	11.8	77.5
2025-07-08T21:48	10	0	0.1	-1	0	352	0.3	351	353	11.9	77.2
2025-07-08T21:49	10	0	0.1	-1	0	352	0.2	352	353	11.9	77.0
2025-07-08T21:50	10	0	0.1	-1	0	352	0.2	352	353	11.9	77.0
2025-07-08T21:51	10	0	0.1	-1	0	352	0.3	351	352	11.9	77.0
2025-07-08T21:52	10	0	0.2	-1	0	352	0.5	351	353	11.7	78.0
2025-07-08T21:53	10	0	0.1	-1	0	352	0.3	352	353	11.7	78.2
2025-07-08T21:54	10	0	0.1	-1	0	353	0.4	352	353	11.6	78.8
2025-07-08T21:55	10	0	0.1	-1	0	353	0.2	352	353	11.6	78.4
2025-07-08T21:56	10	0	0.1	-1	0	353	0.2	353	354	11.6	78.8
2025-07-08T21:57	10	0	0.1	-1	0	353	0.3	353	354	11.6	78.6
2025-07-08T21:58	10	0	0.1	-1	0	353	0.2	352	353	11.6	78.8
2025-07-08T21:59	10	0	0.1	-1	0	353	0.2	352	353	11.5	78.9
2025-07-08T22:00	10	0	0.1	-1	0	352	0.2	352	353	11.5	79.0
2025-07-08T22:01	10	0	0.1	-1	0	352	0.2	352	353	11.6	78.8
2025-07-08T22:02	10	0	0.1	-1	0	353	0.2	352	353	11.6	78.6
2025-07-08T22:03	10	0	0.1	-1	0	353	0.3	352	354	11.5	79.0
2025-07-08T22:04	10	0	0.1	-1	0	352	0.2	352	353	11.5	79.2
2025-07-08T22:05	10	0	0.1	-1	0	352	0.2	352	353	11.5	79.4
2025-07-08T22:06	10	0	0.1	-1	0	352	0.2	352	353	11.4	79.6
2025-07-08T22:07	10	0	0.1	-1	0	352	0.2	352	353	11.4	79.8
2025-07-08T22:08	10	0	0.1	-1	0	352	0.2	351	352	11.4	80.0
2025-07-08T22:09	10	0	0.1	-1	0	352	0.2	351	352	11.4	80.1
2025-07-08T22:10	10	0	0.1	-1	0	351	0.2	351	352	11.4	80.2
2025-07-08T22:11	10	0	0.1	-1	0	351	0.2	350	351	11.3	80.4
2025-07-08T22:12	10	0	0.1	-1	0	351	0.2	350	351	11.3	80.7
2025-07-08T22:13	10	0	0.1	-1	0	351	0.3	350	351	11.3	80.8
2025-07-08T22:14	10	0	0.1	0	0	351	0.2	350	351	11.1	81.6
2025-07-08T22:15	10	0	0.1	0	0	350	0.4	350	351	10.9	82.5
2025-07-08T22:16	10	0	0.1	0	0	349	0.3	349	350	10.6	83.9
2025-07-08T22:17	10	0	0.1	0	0	349	0.2	349	349	10.5	84.8
2025-07-08T22:18	10	0	0.1	0	0	349	0.3	348	349	10.5	84.9
2025-07-08T22:19	10	0	0.1	0	0	349	0.3	348	349	10.6	84.2
2025-07-08T22:20	10	0	0.1	0	0	348	0.3	348	349	10.7	83.7
2025-07-08T22:21	10	0	0.1	0	0	348	0.3	348	349	10.8	83.0
2025-07-08T22:22	10	0	0.1	0	0	349	0.3	348	349	10.9	82.7
2025-07-08T22:23	10	0	0.1	0	0	349	0.3	348	350	11.0	82.7
2025-07-08T22:24	10	0	0.1	0	0	349	0.2	349	350	11.1	83.2
2025-07-08T22:25	10	0	0.1	-1	0	350	0.3	349	350	11.1	78.0
2025-07-08T22:26	10	0	0.1	0	0	350	0.2	349	350	11.1	80.9
2025-07-08T22:27	10	0	0.1	-1	0	350	0.2	350	350	11.1	83.7
2025-07-08T22:28	10	0	0.1	-1	0	350	0.2	349	350	11.1	83.7
2025-07-08T22:29	10	0	0.1	-1	0	349	0.2	349	350	11.1	82.3
2025-07-08T22:30	10	0	0.1	-1	0	350	0.4	349	351	11.1	83.7
2025-07-08T22:31	10	0	0.1	0	0	350	0.2	350	350	11.1	83.7
2025-07-08T22:32	10	0	0.1	0	0	350	0.2	349	350	11.1	83.7
2025-07-08T22:33	10	0	0.0	0	0	350	0.2	349	350	10.9	83.5
2025-07-08T22:34	10	0	0.1	0	0	350	0.3	349	351	10.9	83.5
2025-07-08T22:35	10	0	0.1	0	0	351	0.3	350	351	10.9	83.6
2025-07-08T22:36	10	0	0.1	0	0	351	0.4	351	352	10.9	83.6
2025-07-08T22:37	10	0	0.1	0	0	352	0.3	351	352	11.0	83.4
2025-07-08T22:38	10	0	0.1	0	0	352	0.2	352	353	11.0	83.4
2025-07-08T22:39	10	0	0.1	0	0	352	0.3	351	353	11.0	82.8
2025-07-08T22:40	10	0	0.1	0	0	352	0.2	351	353	11.0	83.3
2025-07-08T22:41	10	0	0.1	0	0	352	0.3	351	353	10.9	84.4
2025-07-08T22:42	10	0	0.1	0	0	351	0.2	351	352	10.8	85.2
2025-07-08T22:43	10	0	0.1	0	0	351	0.2	351	352	10.6	86.2
2025-07-08T22:44	10	0	0.1	0	0	351	0.2	351	352	10.7	86.5
2025-07-08T22:45	10	0	0.1	0	0	352	0.2	351	352	10.6	86.7
2025-07-08T22:46	10	0	0.1	0	0	351	0.3	351	352	10.7	86.8
2025-07-08T22:47	10	0	0.1	0	0	352	0.3	351	352	10.7	87.0
2025-07-08T22:48	10	0	0.1	0	0	351	0.3	351	352	10.8	86.9
2025-07-08T22:49	10	0	0.1	0	0	351	0.3	350	352	10.7	86.9
2025-07-08T22:50	10	0	0.1	0	0	351	0.2	350	351	10.7	86.6
2025-07-08T22:51	10	0	0.1	0	0	350	0.4	349	351	10.7	86.5
2025-07-08T22:52	10	0	0.1	0	0	350	0.3	349	350	10.7	86.5
2025-07-08T22:53	10	0	0.1	0	0	349	0.2	349	350	10.7	86.4
2025-07-08T22:54	10	0	0.1	0	0	349	0.2	349	350	10.8	86.1
2025-07-08T22:55	10	0	0.1	0	0	349	0.2	348	349	10.8	86.0
2025-07-08T22:56	10	0	0.1	0	0	349	0.2	348	349	10.8	85.7
2025-07-08T22:57	10	0	0.0	0	0	349	0.3	348	350	10.8	85.4
2025-07-08T22:58	10	0	0.1	0	0	350	0.3	349	350	10.8	85.6
2025-07-08T22:59	10	0	0.1	-1	0	349	0.2	349	350	10.8	85.7
2025-07-08T23:00	10	0	0.1	0	0	350	0.2	349	350	10.7	85.7
2025-07-08T23:01	10	0	0.1	0	0	349	0.3	349	350	10.8	85.2
2025-07-08T23:02	10	0	0.1	0	0	349	0.3	349	350	10.8	85.1
2025-07-08T23:03	10	0	0.1	0	0	349	0.3	348	350	10.9	84.8
2025-07-08T23:04	10	0	0.1	0	0	349	0.2	348	349	10.8	84.8
2025-07-08T23:05	10	0	0.1	0	0	349	0.2	348	349	10.9	84.5
2025-07-08T23:06	10	0	0.1	0	0	349	0.3	348	350	10.9	84.3
2025-07-08T23:07	10	0	0.1	-1	0	348	0.2	348	349	10.8	84.8
2025-07-08T23:08	10	0	0.1	-1	0	348	0.3	347	349	10.8	84.8
2025-07-08T23:09	10	0	0.1	0	0	349	0.2	348	349	10.8	84.4
2025-07-08T23:10	10	0	0.1	0	0	349	0.3	348	349	10.9	83.7
2025-07-08T23:11	10	0	0.1	0	0	349	0.2	349	350	11.0	83.2
2025-07-08T23:12	10	0	0.1	-1	0	350	0.2	349	351	10.9	83.6
2025-07-08T23:13	10	0	0.1	0	0	350	0.2	350	350	10.8	84.5
2025-07-08T23:14	10	0	0.1	0	0	350	0.2	350	351	10.4	86.0
2025-07-08T23:15	10	0	0.1	0	0	350	0.2	350	351	10.3	86.9
2025-07-08T23:16	10	0	0.1	0	0	350	0.3	350	351	10.2	87.3
2025-07-08T23:17	10	0	0.1	-1	0	350	0.3	349	351	10.3	87.1
2025-07-08T23:18	10	0	0.1	-1	0	350	0.3	349	351	10.2	87.3
2025-07-08T23:19	10	0	0.1	0	0	349	0.2	348	350	10.2	87.7
2025-07-08T23:20	10	0	0.1	0	0	349	0.2	348	349	10.1	88.2
2025-07-08T23:21	10	0	0.1	0	0	348	0.3	348	349	10.0	88.6
2025-07-08T23:22	10	0	0.1	0	0	348	0.2	348	348	9.9	88.9
2025-07-08T23:23	10	0	0.1	0	0	347	0.2	347	348	9.9	89.2
2025-07-08T23:24	10	0	0.1	-1	0	347	0.2	347	347	9.9	89.4
2025-07-08T23:25	10	0	0.1	0	0	347	0.2	346	347	9.8	89.6
2025-07-08T23:26	10	0	0.1	-1	0	347	0.2	346	347	9.8	89.5
2025-07-08T23:27	10	0	0.1	0	0	347	0.3	346	348	9.9	89.2
2025-07-08T23:28	10	0	0.1	-1	0	347	0.4	346	348	10.2	88.0
2025-07-08T23:29	10	0	0.1	-1	0	348	0.3	347	348	10.4	86.9
2025-07-08T23:30	10	0	0.1	-1	0	348	0.3	348	349	10.5	86.3
2025-07-08T23:31	10	0	0.1	-1	0	349	0.3	348	350	10.5	86.0
2025-07-08T23:32	10	0	0.1	-1	0	350	0.2	350	350	10.4	86.0
2025-07-08T23:33	10	0	0.1	-1	0	350	0.2	350	350	10.3	86.4
2025-07-08T23:34	10	0	0.1	-1	0	350	0.3	350	351	10.1	87.0
2025-07-08T23:35	10	0	0.1	0	0	351	0.3	350	352	10.1	86.7
2025-07-08T23:36	10	0	0.1	-1	0	351	0.3	351	352	10.0	86.5
2025-07-08T23:37	10	0	0.1	0	0	352	0.3	352	353	10.0	86.6
2025-07-08T23:38	10	0	0.1	-1	0	353	0.3	352	353	10.0	86.3
2025-07-08T23:39	10	0	0.1	-1	0	353	0.2	353	354	10.0	86.0
2025-07-08T23:40	10	0	0.1	-1	0	354	0.4	353	355	10.1	85.2
2025-07-08T23:41	10	0	0.1	-1	0	355	0.3	354	355	10.1	84.7
2025-07-08T23:42	10	-1	0.1	-1	0	355	0.3	355	356	10.2	84.7
2025-07-08T23:43	10	0	0.1	-1	0	356	0.2	355	356	10.2	84.0
2025-07-08T23:44	10	0	0.1	-1	0	356	0.3	355	357	10.4	83.7
2025-07-08T23:45	10	0	0.1	-1	0	356	0.3	356	357	10.4	83.9
2025-07-08T23:46	10	0	0.1	-1	0	356	0.2	356	356	10.4	83.6
2025-07-08T23:47	10	0	0.1	-1	0	356	0.2	356	357	10.2	84.3
2025-07-08T23:48	10	0	0.1	-1	0	356	0.3	356	357	10.2	84.5
2025-07-08T23:49	10	0	0.1	-1	0	356	0.2	356	357	10.2	84.6
2025-07-08T23:50	10	0	0.1	0	0	356	0.3	356	357	10.2	85.1
2025-07-08T23:51	10	0	0.1	-1	0	356	0.3	356	357	10.3	85.1
2025-07-08T23:52	10	0	0.1	-1	0	357	0.3	356	357	10.3	85.3
2025-07-08T23:53	10	0	0.1	-1	0	357	0.2	356	357	10.3	85.3
2025-07-08T23:54	10	0	0.1	-1	0	357	0.2	356	357	10.3	85.4
2025-07-08T23:55	10	0	0.1	0	0	357	0.2	356	357	10.3	85.5
2025-07-08T23:56	10	0	0.2	-1	1	357	0.2	356	357	10.3	85.6
2025-07-08T23:57	10	0	0.1	-1	0	357	0.3	356	357	10.3	85.5
2025-07-08T23:58	10	0	0.1	-1	0	357	0.3	356	357	10.3	85.7
2025-07-08T23:59	10	0	0.1	-1	0	357	0.3	356	358	10.3	86.0
2025-07-09T00:00	10	0	0.1	0	0	357	0.2	356	357	10.3	86.4
2025-07-09T00:01	10	0	0.1	-1	0	357	0.2	356	357	10.3	86.4
2025-07-09T00:02	10	0	0.1	0	0	357	0.3	356	357	10.2	86.8
2025-07-09T00:03	10	0	0.1	0	0	357	0.2	357	358	10.3	86.3
2025-07-09T00:04	10	0	0.1	-1	0	358	0.2	357	358	10.3	86.1
2025-07-09T00:05	10	0	0.1	-1	0	358	0.2	357	358	10.4	85.6
2025-07-09T00:06	10	0	0.1	-1	0	358	0.2	357	358	10.4	85.2
2025-07-09T00:07	10	0	0.1	-1	0	358	0.2	358	359	10.4	84.9
2025-07-09T00:08	10	0	0.1	-1	0	358	0.2	358	359	10.4	84.7
2025-07-09T00:09	10	0	0.1	-1	0	358	0.2	358	359	10.5	84.3
2025-07-09T00:10	10	0	0.1	-1	0	358	0.3	358	359	10.5	83.9
2025-07-09T00:11	10	0	0.1	-1	0	358	0.2	358	359	10.5	84.0
2025-07-09T00:12	10	0	0.1	0	0	358	0.2	358	359	10.5	84.0
2025-07-09T00:13	10	0	0.1	-1	0	358	0.2	358	359	10.7	82.9
2025-07-09T00:14	10	0	0.0	0	0	358	0.2	358	359	10.6	83.6
2025-07-09T00:15	10	0	0.1	-1	0	358	0.3	357	358	10.5	84.1
2025-07-09T00:16	10	0	0.1	-1	0	358	0.2	357	358	10.3	85.0
2025-07-09T00:17	10	0	0.1	-1	0	357	0.3	357	358	10.3	85.2
2025-07-09T00:18	10	0	0.1	-1	0	357	0.3	357	358	10.3	84.7
2025-07-09T00:19	10	0	0.1	-1	0	357	0.2	357	358	10.3	85.4
2025-07-09T00:20	10	0	0.1	-1	0	357	0.4	356	357	10.2	86.5
2025-07-09T00:21	10	0	0.0	-1	0	356	0.3	355	356	10.2	87.1
2025-07-09T00:22	10	0	0.1	-1	0	355	0.2	355	355	10.2	87.5
2025-07-09T00:23	10	0	0.0	0	0	355	0.2	354	355	10.1	88.1
2025-07-09T00:24	10	0	0.1	-1	0	355	0.2	354	355	10.0	88.8
2025-07-09T00:25	10	0	0.0	0	0	354	0.3	353	355	10.0	89.1
2025-07-09T00:26	10	0	0.1	-1	0	353	0.3	353	354	10.0	89.0
2025-07-09T00:27	10	0	0.1	0	0	353	0.4	352	353	9.9	89.5
2025-07-09T00:28	10	0	0.1	0	0	352	0.2	351	352	9.8	90.2
2025-07-09T00:29	10	0	0.1	0	0	351	0.3	351	352	9.8	90.6
2025-07-09T00:30	10	0	0.1	0	0	350	0.2	350	351	9.7	90.9
2025-07-09T00:31	10	0	0.1	0	0	350	0.4	348	350	9.7	90.8
2025-07-09T00:32	10	0	0.1	0	0	349	0.2	348	349	9.6	91.2
2025-07-09T00:33	10	0	0.1	0	0	349	0.2	348	349	9.6	91.5
2025-07-09T00:34	10	0	0.1	0	0	348	0.2	347	349	9.6	91.3
2025-07-09T00:35	10	0	0.1	0	0	347	0.3	346	348	9.6	91.0
2025-07-09T00:36	10	0	0.1	0	0	347	0.2	346	347	9.6	90.7
2025-07-09T00:37	10	0	0.1	0	0	346	0.4	346	347	9.6	90.8
2025-07-09T00:38	10	0	0.1	0	0	347	0.2	346	347	9.6	90.7
2025-07-09T00:39	10	0	0.1	0	0	347	0.2	346	347	9.6	90.3
2025-07-09T00:40	10	0	0.1	-1	0	347	0.3	346	347	9.6	90.0
2025-07-09T00:41	10	0	0.1	-1	0	348	0.4	347	348	9.6	90.1
2025-07-09T00:42	10	0	0.1	-1	0	348	0.2	347	348	9.6	90.0
2025-07-09T00:43	10	0	0.1	-1	0	348	0.4	348	349	9.6	90.2
2025-07-09T00:44	10	0	0.1	-1	0	349	0.4	348	350	9.6	90.1
2025-07-09T00:45	10	0	0.1	-1	0	350	0.3	349	350	9.6	90.1
2025-07-09T00:46	10	0	0.1	-1	0	351	0.4	350	352	9.7	89.9
2025-07-09T00:47	10	0	0.1	-1	0	351	0.2	350	351	9.7	89.5
2025-07-09T00:48	10	0	0.1	-1	0	350	0.2	350	351	9.7	89.4
2025-07-09T00:49	10	0	0.1	-1	0	350	0.2	350	351	9.7	89.7
2025-07-09T00:50	10	0	0.0	0	0	350	0.2	350	351	9.6	90.1
2025-07-09T00:51	10	0	0.1	-1	0	351	0.2	350	351	9.6	90.1
2025-07-09T00:52	10	0	0.1	-1	0	350	0.2	350	351	9.6	90.0
2025-07-09T00:53	10	0	0.0	-1	0	350	0.2	350	351	9.7	89.6
2025-07-09T00:54	10	0	0.1	-1	0	350	0.2	349	350	9.6	89.6
2025-07-09T00:55	10	0	0.0	-1	0	350	0.2	349	350	9.6	89.8
2025-07-09T00:56	10	0	0.1	-1	0	350	0.2	349	350	9.6	90.1
2025-07-09T00:57	10	0	0.1	-1	0	350	0.2	349	350	9.6	90.1
2025-07-09T00:58	10	0	0.1	-1	0	350	0.2	349	350	9.6	89.9
2025-07-09T00:59	10	0	0.1	-1	0	350	0.2	349	350	9.7	89.8
2025-07-09T01:00	10	0	0.1	-1	0	350	0.2	349	350	9.7	89.7
2025-07-09T01:01	10	0	0.1	-1	0	349	0.3	348	350	9.6	89.9
2025-07-09T01:02	10	0	0.1	-1	0	348	0.2	348	349	9.5	90.1
2025-07-09T01:03	10	0	0.1	-1	0	348	0.3	347	349	9.5	90.0
2025-07-09T01:04	10	0	0.1	0	0	348	0.3	348	349	9.6	89.6
2025-07-09T01:05	10	0	0.1	0	0	349	0.3	349	350	9.7	89.3
2025-07-09T01:06	10	0	0.1	-1	0	350	0.4	349	350	9.8	88.8
2025-07-09T01:07	10	0	0.1	-1	0	350	0.3	350	351	9.8	88.8
2025-07-09T01:08	10	0	0.1	-1	0	350	0.2	349	350	9.8	89.1
2025-07-09T01:09	10	0	0.1	-1	0	350	0.3	349	350	9.8	89.1
2025-07-09T01:10	10	0	0.1	-1	0	350	0.2	349	350	9.7	89.3
2025-07-09T01:11	10	0	0.1	-1	0	350	0.3	349	350	9.7	89.1
2025-07-09T01:12	10	0	0.1	-1	0	350	0.2	349	350	9.7	89.5
2025-07-09T01:13	10	0	0.1	-1	0	350	0.3	349	350	9.7	89.6
2025-07-09T01:14	10	0	0.1	-1	0	349	0.4	348	350	9.6	89.8
2025-07-09T01:15	10	0	0.1	-1	0	348	0.3	347	349	9.6	89.8
2025-07-09T01:16	10	0	0.1	-1	0	347	0.2	347	348	9.7	89.4
2025-07-09T01:17	10	0	0.1	-1	0	347	0.2	347	348	9.7	89.0
2025-07-09T01:18	10	0	0.1	-1	0	347	0.2	347	348	9.7	88.6
2025-07-09T01:19	10	0	0.1	-1	0	347	0.2	346	347	9.7	88.4
2025-07-09T01:20	10	0	0.1	-1	0	347	0.4	346	347	9.7	88.4
2025-07-09T01:21	10	0	0.1	-1	0	346	0.3	345	346	9.6	88.9
2025-07-09T01:22	10	0	0.1	-1	0	345	0.2	345	345	9.5	89.3
2025-07-09T01:23	10	0	0.1	-1	0	345	0.4	344	345	9.6	89.2
2025-07-09T01:24	10	0	0.1	-1	0	344	0.4	342	344	9.5	89.5
2025-07-09T01:25	10	0	0.2	-1	0	343	0.3	342	344	9.2	90.3
2025-07-09T01:26	10	0	0.1	-1	0	342	0.3	342	343	9.2	90.9
2025-07-09T01:27	10	0	0.1	-1	0	342	0.2	341	342	9.1	91.3
2025-07-09T01:28	10	0	0.1	-1	0	342	0.3	341	342	9.1	91.7
2025-07-09T01:29	10	0	0.1	-1	0	341	0.2	341	342	9.1	91.8
2025-07-09T01:30	10	0	0.1	-1	0	341	0.2	341	342	9.1	91.6
2025-07-09T01:31	10	0	0.1	-1	0	341	0.2	340	342	9.2	91.5
2025-07-09T01:32	10	0	0.2	-1	0	341	0.3	340	342	9.2	91.3
2025-07-09T01:33	10	0	0.2	-1	0	341	0.3	340	342	9.2	91.3
2025-07-09T01:34	10	0	0.1	-1	0	341	0.2	340	341	9.2	91.2
2025-07-09T01:35	10	0	0.1	-1	0	341	0.2	340	341	9.2	91.4
2025-07-09T01:36	10	0	0.1	-1	0	341	0.3	340	341	9.2	91.5
2025-07-09T01:37	10	0	0.2	-1	0	341	0.2	340	341	9.1	91.7
2025-07-09T01:38	10	0	0.3	-1	1	341	0.2	341	342	9.1	92.0
2025-07-09T01:39	10	0	0.1	-1	0	341	0.2	341	342	9.0	92.3
2025-07-09T01:40	10	0	0.1	-1	0	341	0.3	341	342	8.9	92.7
2025-07-09T01:41	10	0	0.1	-1	0	341	0.2	341	342	8.9	92.9
2025-07-09T01:42	10	0	0.1	-1	0	341	0.3	340	342	8.9	93.2
2025-07-09T01:43	10	0	0.1	-1	0	340	0.3	340	341	8.8	93.1
2025-07-09T01:44	10	0	0.1	-1	0	340	0.2	340	341	8.7	92.9
2025-07-09T01:45	10	0	0.1	-1	0	340	0.2	339	341	8.6	93.1
2025-07-09T01:46	10	0	0.1	-1	0	340	0.4	339	341	8.7	93.1
2025-07-09T01:47	10	0	0.2	-1	0	341	0.4	340	341	8.9	92.7
2025-07-09T01:48	10	0	0.1	-1	0	341	0.2	340	341	8.9	92.4
2025-07-09T01:49	10	0	0.1	-1	0	340	0.2	339	341	8.9	92.3
2025-07-09T01:50	10	0	0.1	-1	0	340	0.2	339	340	9.0	91.9
2025-07-09T01:51	10	0	0.1	-1	0	339	0.2	338	340	8.9	91.9
2025-07-09T01:52	10	0	0.1	-1	0	339	0.2	338	339	8.8	92.5
2025-07-09T01:53	10	0	0.1	-1	0	339	0.2	338	339	8.7	92.6
2025-07-09T01:54	10	0	0.1	-1	0	339	0.4	338	340	8.6	92.3
2025-07-09T01:55	10	0	0.1	-1	0	340	0.3	340	341	8.7	92.2
2025-07-09T01:56	10	0	0.1	-1	0	340	0.3	340	341	8.8	92.2
2025-07-09T01:57	10	0	0.1	-1	0	341	0.3	340	341	8.8	92.1
2025-07-09T01:58	10	0	0.1	-1	0	340	0.3	340	341	8.8	92.0
2025-07-09T01:59	10	0	0.3	-1	1	340	0.2	340	341	8.8	91.9
2025-07-09T02:00	10	0	0.1	-1	0	341	0.3	341	342	8.9	91.5
2025-07-09T02:01	10	0	0.1	-1	0	342	0.2	341	342	8.9	91.4
2025-07-09T02:02	10	0	0.1	-1	0	342	0.2	341	342	9.0	91.4
2025-07-09T02:03	10	0	0.1	-1	0	342	0.4	342	343	9.0	91.5
2025-07-09T02:04	10	-1	0.1	-1	0	343	0.4	343	344	9.1	91.6
2025-07-09T02:05	10	-1	0.1	-1	0	344	0.4	343	345	9.0	91.9
2025-07-09T02:06	10	-1	0.1	-1	0	345	0.2	344	345	9.1	91.9
2025-07-09T02:07	10	-1	0.1	-1	0	345	0.3	344	345	9.1	91.8
2025-07-09T02:08	10	-1	0.1	-1	0	345	0.3	344	345	9.0	91.8
2025-07-09T02:09	10	0	0.1	-1	0	344	0.2	343	345	8.9	91.9
2025-07-09T02:10	10	0	0.1	-1	0	343	0.4	343	344	8.8	92.1
2025-07-09T02:11	10	0	0.0	-1	0	342	0.5	341	343	8.7	92.4
2025-07-09T02:12	10	0	0.1	-1	0	341	0.4	340	342	8.7	92.5
2025-07-09T02:13	10	0	0.1	-1	0	341	0.3	340	342	8.8	92.1
2025-07-09T02:14	10	0	0.1	-1	0	341	0.2	341	341	9.0	91.7
2025-07-09T02:15	10	0	0.1	-1	0	341	0.2	340	341	9.0	91.5
2025-07-09T02:16	10	0	0.1	-1	0	340	0.2	340	341	9.1	91.3
2025-07-09T02:17	10	0	0.1	-1	0	340	0.3	339	341	9.1	91.0
2025-07-09T02:18	10	0	0.1	-1	0	339	0.3	339	340	9.0	91.2
2025-07-09T02:19	10	0	0.1	-1	0	339	0.3	338	340	8.9	91.5
2025-07-09T02:20	10	0	0.1	-1	0	339	0.3	338	340	8.9	91.8
2025-07-09T02:21	10	0	0.0	0	0	339	0.2	338	339	8.9	91.8
2025-07-09T02:22	10	0	0.1	-1	0	338	0.2	338	339	8.9	91.6
2025-07-09T02:23	10	0	0.1	-1	0	338	0.2	338	339	8.9	91.8
2025-07-09T02:24	10	0	0.1	-1	0	338	0.2	338	338	8.8	91.8
2025-07-09T02:25	10	0	0.1	-1	0	338	0.2	337	338	8.9	91.6
2025-07-09T02:26	10	0	0.1	-1	0	338	0.2	337	338	8.9	91.3
2025-07-09T02:27	10	0	0.1	-1	0	337	0.2	337	338	9.0	90.9
2025-07-09T02:28	10	0	0.1	-1	0	337	0.2	337	338	8.9	90.8
2025-07-09T02:29	10	0	0.1	-1	0	337	0.2	336	337	8.9	90.6
2025-07-09T02:30	10	0	0.1	-1	0	337	0.2	336	338	9.0	90.4
2025-07-09T02:31	10	0	0.1	-1	0	337	0.2	337	337	8.9	90.6
2025-07-09T02:32	10	0	0.1	-1	0	338	0.3	337	338	8.9	90.5
2025-07-09T02:33	10	-1	0.1	-1	0	338	0.4	337	339	8.9	90.4
2025-07-09T02:34	10	-1	0.1	-1	0	339	0.4	338	340	8.9	90.6
2025-07-09T02:35	10	-1	0.1	-1	0	340	0.3	339	341	9.0	90.0
2025-07-09T02:36	10	-1	0.1	-1	0	340	0.3	339	341	9.1	89.4
2025-07-09T02:37	10	0	0.1	-1	0	340	0.2	339	340	9.1	88.6
2025-07-09T02:38	10	0	0.1	-1	0	339	0.3	339	340	9.2	88.1
2025-07-09T02:39	10	0	0.1	-1	0	339	0.3	338	339	9.2	88.3
2025-07-09T02:40	10	0	0.1	-1	0	338	0.3	338	339	9.1	88.2
2025-07-09T02:41	10	0	0.1	-1	0	338	0.2	338	339	9.1	88.3
2025-07-09T02:42	10	0	0.1	-1	0	338	0.2	338	339	9.2	87.9
2025-07-09T02:43	10	0	0.1	-1	0	338	0.2	338	338	9.3	87.6
2025-07-09T02:44	10	0	0.1	-1	0	338	0.3	337	339	9.2	87.6
2025-07-09T02:45	10	0	0.1	-1	0	338	0.2	337	339	9.2	87.6
2025-07-09T02:46	10	0	0.1	-1	0	338	0.2	338	338	9.2	87.4
2025-07-09T02:47	10	0	0.1	-1	0	338	0.2	337	338	9.2	87.7
2025-07-09T02:48	10	0	0.1	-1	0	338	0.2	337	338	9.1	87.9
2025-07-09T02:49	10	0	0.1	0	0	338	0.3	337	338	9.0	88.2
2025-07-09T02:50	10	0	0.1	0	0	337	0.2	337	338	9.0	88.4
2025-07-09T02:51	10	0	0.1	-1	0	337	0.2	337	338	9.0	88.3
2025-07-09T02:52	10	0	0.1	-1	0	338	0.2	337	338	9.0	88.1
2025-07-09T02:53	10	0	0.1	-1	0	338	0.2	337	338	9.1	88.1
2025-07-09T02:54	10	0	0.1	-1	0	337	0.2	337	338	9.1	88.1
2025-07-09T02:55	10	0	0.1	-1	0	337	0.2	336	338	9.2	87.6
2025-07-09T02:56	10	0	0.1	-1	0	337	0.3	337	338	9.2	87.3
2025-07-09T02:57	10	0	0.1	-1	0	337	0.2	337	338	9.2	87.1
2025-07-09T02:58	10	0	0.1	-1	0	337	0.3	337	338	9.3	86.6
2025-07-09T02:59	10	0	0.1	-1	0	337	0.3	337	338	9.3	86.6
2025-07-09T03:00	10	0	0.1	-1	0	337	0.2	336	338	9.3	86.4
2025-07-09T03:01	10	0	0.1	-1	0	337	0.2	337	338	9.4	86.1
2025-07-09T03:02	10	0	0.1	-1	0	337	0.2	336	337	9.3	86.4
2025-07-09T03:03	10	0	0.1	-1	0	336	0.4	336	337	9.2	86.7
2025-07-09T03:04	10	0	0.1	-1	0	336	0.3	335	337	9.2	87.0
2025-07-09T03:05	10	0	0.1	0	0	336	0.2	336	336	9.1	87.3
2025-07-09T03:06	10	0	0.1	-1	0	336	0.2	335	336	9.0	87.6
2025-07-09T03:07	10	0	0.1	-1	0	336	0.3	335	336	9.0	87.8
2025-07-09T03:08	10	0	0.1	-1	0	336	0.2	335	336	9.2	86.9
2025-07-09T03:09	10	0	0.1	-1	0	336	0.2	336	336	9.1	86.6
2025-07-09T03:10	10	0	0.1	-1	0	336	0.3	335	336	8.9	87.8
2025-07-09T03:11	10	0	0.1	-1	0	336	0.3	335	337	8.5	90.6
2025-07-09T03:12	10	0	0.1	-1	0	336	0.2	336	337	8.4	91.4
2025-07-09T03:13	10	0	0.1	-1	0	337	0.2	336	337	8.4	91.7
2025-07-09T03:14	10	0	0.1	-1	0	337	0.4	337	338	8.4	91.5
2025-07-09T03:15	10	0	0.1	-1	0	337	0.3	336	338	8.6	90.5
2025-07-09T03:16	10	0	0.1	-1	0	336	0.3	335	336	8.3	91.0
2025-07-09T03:17	10	0	0.1	-1	0	335	0.2	335	336	8.1	91.7
2025-07-09T03:18	10	0	0.1	-1	0	335	0.2	334	335	8.1	92.1
2025-07-09T03:19	10	0	0.1	-1	0	335	0.2	334	335	8.0	92.4
2025-07-09T03:20	10	0	0.1	-1	0	335	0.2	334	335	8.0	92.5
2025-07-09T03:21	10	0	0.1	-1	0	334	0.2	334	335	8.0	92.7
2025-07-09T03:22	10	0	0.1	-1	0	335	0.4	334	336	8.0	92.7
2025-07-09T03:23	10	0	0.1	-1	0	335	0.2	334	335	8.0	92.6
2025-07-09T03:24	10	0	0.1	-1	0	334	0.2	333	334	8.0	92.7
2025-07-09T03:25	10	0	0.1	-1	0	334	0.4	334	335	8.2	91.9
2025-07-09T03:26	10	0	0.1	-1	0	334	0.4	333	335	8.5	90.3
2025-07-09T03:27	10	0	0.1	-1	0	334	0.3	334	335	8.6	89.6
2025-07-09T03:28	10	0	0.1	-1	0	334	0.3	334	335	8.7	89.2
2025-07-09T03:29	10	0	0.1	-1	0	335	0.2	334	335	8.8	88.5
2025-07-09T03:30	10	0	0.1	-1	0	334	0.3	333	335	8.8	88.2
2025-07-09T03:31	10	0	0.1	-1	0	334	0.3	333	334	8.8	87.9
2025-07-09T03:32	10	0	0.1	0	0	334	0.3	334	335	8.7	87.9
2025-07-09T03:33	10	0	0.1	0	0	334	0.2	334	335	8.6	88.3
2025-07-09T03:34	10	0	0.1	0	0	334	0.3	334	335	8.4	89.3
2025-07-09T03:35	10	0	0.1	0	0	334	0.3	333	334	8.3	90.2
2025-07-09T03:36	10	0	0.1	0	0	334	0.3	333	335	8.3	90.5
2025-07-09T03:37	10	0	0.1	0	0	334	0.3	333	334	8.3	90.3
2025-07-09T03:38	10	0	0.1	0	0	333	0.2	333	334	8.3	90.6
2025-07-09T03:39	10	0	0.1	0	0	333	0.3	333	334	8.1	91.1
2025-07-09T03:40	10	0	0.1	0	0	333	0.2	332	333	8.1	91.4
2025-07-09T03:41	10	0	0.1	0	0	333	0.3	332	333	8.0	91.7
2025-07-09T03:42	10	0	0.1	0	0	332	0.2	332	333	7.8	91.8
2025-07-09T03:43	10	0	0.1	0	0	333	0.2	332	333	7.8	92.2
2025-07-09T03:44	10	0	0.1	0	0	333	0.2	332	333	7.8	92.1
2025-07-09T03:45	10	0	0.1	0	0	333	0.2	332	333	7.9	92.1
2025-07-09T03:46	10	0	0.1	0	0	333	0.3	332	333	7.9	92.7
2025-07-09T03:47	10	0	0.0	0	0	333	0.3	332	333	7.7	93.0
2025-07-09T03:48	10	0	0.0	0	0	333	0.4	332	334	7.7	93.1
2025-07-09T03:49	10	0	0.0	0	1	334	0.2	333	334	7.7	93.6
2025-07-09T03:50	10	0	0.1	0	1	334	0.3	333	335	7.6	94.3
2025-07-09T03:51	10	1	0.1	0	1	334	0.3	334	335	7.5	94.3
2025-07-09T03:52	10	1	0.1	0	1	335	0.4	334	336	7.5	94.0
2025-07-09T03:53	10	1	0.1	1	1	336	0.3	335	337	7.6	93.3
2025-07-09T03:54	10	1	0.0	1	1	336	0.3	336	337	7.6	92.9
2025-07-09T03:55	10	1	0.1	1	1	336	0.3	335	337	7.6	92.7
2025-07-09T03:56	10	1	0.1	1	1	336	0.2	335	336	7.6	92.7
2025-07-09T03:57	10	1	0.1	1	1	336	0.3	335	336	7.8	91.8
2025-07-09T03:58	10	1	0.1	1	1	336	0.2	335	336	8.1	90.9
2025-07-09T03:59	10	1	0.1	1	1	335	0.2	335	335	8.2	90.4
2025-07-09T04:00	10	1	0.1	1	1	335	0.3	334	336	8.1	90.2
2025-07-09T04:01	10	1	0.1	1	2	335	0.3	334	336	8.0	90.4
2025-07-09T04:02	10	2	0.1	2	2	335	0.3	334	336	7.8	91.2
2025-07-09T04:03	10	2	0.2	2	2	335	0.2	335	336	7.7	91.9
2025-07-09T04:04	10	3	0.1	2	3	336	0.3	335	336	7.7	92.4
2025-07-09T04:05	10	3	0.1	3	3	336	0.2	335	336	7.7	92.7
2025-07-09T04:06	10	3	0.1	3	3	336	0.3	335	336	7.7	93.0
2025-07-09T04:07	10	3	0.1	3	3	335	0.2	335	336	7.7	92.6
2025-07-09T04:08	10	3	0.1	3	4	335	0.2	335	336	7.7	92.7
2025-07-09T04:09	10	4	0.1	3	4	335	0.2	335	336	7.6	92.3
2025-07-09T04:10	10	4	0.1	4	4	335	0.2	335	336	7.6	92.3
2025-07-09T04:11	10	4	0.1	4	4	336	0.3	335	336	7.6	92.3
2025-07-09T04:12	10	4	0.1	4	4	336	0.3	336	337	7.7	91.8
2025-07-09T04:13	10	4	0.1	4	5	337	0.4	336	338	7.9	90.6
2025-07-09T04:14	10	5	0.1	4	5	337	0.2	337	338	7.9	90.3
2025-07-09T04:15	10	5	0.1	5	5	338	0.2	337	338	7.9	90.7
2025-07-09T04:16	10	5	0.1	5	6	338	0.2	337	338	7.8	91.0
2025-07-09T04:17	10	6	0.2	5	6	338	0.2	337	338	7.9	90.4
2025-07-09T04:18	10	6	0.1	6	6	338	0.2	338	339	8.1	89.3
2025-07-09T04:19	10	7	0.3	6	9	339	0.4	338	340	8.3	88.1
2025-07-09T04:20	10	7	0.2	6	8	340	0.2	339	340	8.6	86.0
2025-07-09T04:21	10	6	0.1	6	7	340	0.2	339	340	8.6	86.0
2025-07-09T04:22	10	7	0.2	6	7	340	0.4	339	340	8.6	86.2
2025-07-09T04:23	10	7	0.2	7	8	339	0.4	338	340	8.4	87.3
2025-07-09T04:24	10	8	0.2	8	8	339	0.2	338	339	8.1	89.4
2025-07-09T04:25	10	9	0.3	8	9	339	0.2	339	340	7.8	90.5
2025-07-09T04:26	10	10	0.3	9	10	339	0.3	339	340	7.8	91.1
2025-07-09T04:27	10	11	0.3	10	11	340	0.3	339	340	7.8	90.9
2025-07-09T04:28	10	12	0.2	11	12	340	0.3	340	341	8.0	90.2
2025-07-09T04:29	10	12	0.2	12	12	340	0.3	340	341	8.0	89.9
2025-07-09T04:30	10	13	0.2	12	13	341	0.2	340	341	7.9	90.5
2025-07-09T04:31	10	13	0.2	13	14	341	0.1	340	341	7.9	90.6
2025-07-09T04:32	10	14	0.2	14	14	341	0.2	341	341	8.0	90.1
2025-07-09T04:33	10	15	0.2	14	15	341	0.2	341	342	8.1	89.9
2025-07-09T04:34	10	15	0.2	15	16	341	0.3	341	342	8.0	90.0
2025-07-09T04:35	10	16	0.2	16	17	342	0.3	341	342	8.0	90.1
2025-07-09T04:36	10	17	0.2	16	17	342	0.3	341	342	7.9	90.2
2025-07-09T04:37	10	17	0.2	17	18	342	0.2	342	343	8.0	90.2
2025-07-09T04:38	10	18	0.2	18	18	343	0.2	342	343	8.0	90.1
2025-07-09T04:39	10	19	0.2	18	19	343	0.2	343	343	8.0	90.4
2025-07-09T04:40	10	19	0.2	19	19	343	0.2	343	344	8.0	90.3
2025-07-09T04:41	10	20	0.2	19	20	344	0.3	343	344	8.0	90.4
2025-07-09T04:42	10	20	0.2	20	21	344	0.3	344	345	8.1	90.4
2025-07-09T04:43	10	21	0.2	21	21	345	0.3	344	345	8.1	90.2
2025-07-09T04:44	10	22	0.2	21	22	345	0.2	345	346	8.1	90.3
2025-07-09T04:45	10	22	0.2	22	23	346	0.2	345	346	8.1	90.3
2025-07-09T04:46	10	23	0.2	23	24	346	0.3	346	347	8.1	90.2
2025-07-09T04:47	10	24	0.2	23	24	346	0.2	346	347	8.2	90.0
2025-07-09T04:48	10	24	0.2	24	25	347	0.3	346	348	8.3	89.5
2025-07-09T04:49	10	25	0.2	25	25	347	0.2	347	348	8.4	89.1
2025-07-09T04:50	10	25	0.2	25	26	348	0.2	348	348	8.4	88.6
2025-07-09T04:51	10	26	0.2	26	27	348	0.3	348	349	8.5	88.3
2025-07-09T04:52	10	27	0.2	26	27	349	0.3	348	349	8.4	88.2
2025-07-09T04:53	10	27	0.2	27	28	349	0.2	348	349	8.4	88.6
2025-07-09T04:54	10	28	0.2	28	29	349	0.2	349	350	8.3	88.9
2025-07-09T04:55	10	29	0.2	28	29	350	0.2	349	350	8.4	88.7
2025-07-09T04:56	10	29	0.2	29	30	350	0.3	349	351	8.4	88.5
2025-07-09T04:57	10	30	0.2	30	30	351	0.2	350	351	8.5	88.1
2025-07-09T04:58	10	30	0.2	30	31	351	0.2	351	352	8.6	88.0
2025-07-09T04:59	10	31	0.2	31	31	352	0.3	351	352	8.6	88.6
2025-07-09T05:00	10	32	0.2	31	32	352	0.2	352	353	8.6	88.8
2025-07-09T05:01	10	32	0.2	32	33	352	0.3	352	353	8.7	89.4
2025-07-09T05:02	10	33	0.2	33	34	353	0.2	353	353	8.7	90.3
2025-07-09T05:03	10	34	0.2	33	34	353	0.3	353	354	8.7	90.8
2025-07-09T05:04	10	34	0.2	34	35	354	0.3	353	354	8.7	91.4
2025-07-09T05:05	10	35	0.1	34	35	354	0.3	353	355	8.7	89.5
2025-07-09T05:06	10	35	0.1	35	35	354	0.2	354	355	8.7	88.2
2025-07-09T05:07	10	36	0.3	35	36	355	0.2	354	355	8.7	88.3
2025-07-09T05:08	10	36	0.2	36	37	355	0.3	354	356	8.8	88.2
2025-07-09T05:09	10	37	0.3	37	39	355	0.2	355	356	8.8	87.6
2025-07-09T05:10	10	37	0.2	37	38	356	0.2	356	356	8.8	87.9
2025-07-09T05:11	10	38	0.2	37	38	356	0.2	355	356	8.8	88.6
2025-07-09T05:12	10	38	0.1	38	38	356	0.3	355	357	8.8	88.8
2025-07-09T05:13	10	39	0.1	38	39	356	0.2	356	357	8.8	88.5
2025-07-09T05:14	10	39	0.1	39	39	357	0.2	356	357	8.8	89.0
2025-07-09T05:15	10	40	0.2	39	40	357	0.2	357	358	8.8	89.7
2025-07-09T05:16	10	40	0.2	40	41	357	0.3	356	358	8.7	90.1
2025-07-09T05:17	10	41	0.2	41	41	357	0.2	357	358	8.7	89.5
2025-07-09T05:18	10	42	0.2	41	42	358	0.2	357	358	8.8	90.3
2025-07-09T05:19	10	42	0.2	42	43	358	0.2	358	359	8.8	90.8
2025-07-09T05:20	10	43	0.2	42	43	359	0.2	358	359	8.8	91.0
2025-07-09T05:21	10	44	0.2	43	44	359	0.2	359	360	8.9	90.1
2025-07-09T05:22	10	44	0.2	44	45	359	0.2	359	360	9.0	89.4
2025-07-09T05:23	10	45	0.3	45	46	360	0.3	359	360	9.1	89.2
2025-07-09T05:24	10	45	0.9	43	46	360	0.2	360	361	9.2	89.1
2025-07-09T05:25	10	43	1.4	41	45	360	0.3	360	361	9.3	89.1
2025-07-09T05:26	10	45	0.6	44	46	360	0.3	360	361	9.4	88.5
2025-07-09T05:27	10	46	0.8	44	47	361	0.2	360	361	9.4	86.9
2025-07-09T05:28	10	45	2.0	41	47	361	0.3	361	362	9.5	87.5
2025-07-09T05:29	10	46	0.6	45	47	362	0.3	361	362	9.4	88.0
2025-07-09T05:30	10	49	1.2	46	50	362	0.3	361	363	9.4	87.8
2025-07-09T05:31	10	50	0.2	50	51	363	0.2	362	363	9.4	88.8
2025-07-09T05:32	10	51	0.2	50	51	363	0.3	363	364	9.4	89.8
2025-07-09T05:33	10	51	0.2	51	51	363	0.2	363	364	9.4	88.0
2025-07-09T05:34	10	51	0.3	51	52	364	0.2	363	364	9.4	88.8
2025-07-09T05:35	10	52	0.3	52	53	364	0.2	364	365	9.4	89.8
2025-07-09T05:36	10	53	0.3	53	54	364	0.3	363	364	9.3	88.9
2025-07-09T05:37	10	54	0.2	54	55	364	0.2	363	364	9.2	89.0
2025-07-09T05:38	10	55	0.2	54	55	364	0.2	364	364	9.2	89.1
2025-07-09T05:39	10	55	0.2	55	56	364	0.2	363	364	9.1	89.7
2025-07-09T05:40	10	56	0.2	56	56	364	0.3	364	365	9.2	90.0
2025-07-09T05:41	10	57	0.2	56	57	365	0.2	364	366	9.2	89.8
2025-07-09T05:42	10	57	0.2	57	58	366	0.2	365	366	9.3	89.7
2025-07-09T05:43	10	58	0.2	58	58	366	0.3	365	367	9.4	89.0
2025-07-09T05:44	10	59	0.2	58	59	367	0.3	366	367	9.5	88.4
2025-07-09T05:45	10	60	0.3	59	60	367	0.4	366	368	9.5	88.0
2025-07-09T05:46	10	60	0.2	60	61	368	0.2	367	368	9.6	87.9
2025-07-09T05:47	10	61	0.2	61	61	368	0.3	368	369	9.8	87.4
2025-07-09T05:48	10	62	0.2	61	62	369	0.2	368	369	9.9	88.1
2025-07-09T05:49	10	62	0.2	62	63	369	0.2	369	370	9.9	86.9
2025-07-09T05:50	10	63	0.2	62	63	369	0.2	369	370	10.0	86.6
2025-07-09T05:51	10	63	0.2	63	64	370	0.3	370	371	10.1	86.1
2025-07-09T05:52	10	64	0.2	63	64	370	0.2	370	371	10.2	85.7
2025-07-09T05:53	10	64	0.3	64	65	371	0.3	370	371	10.3	86.1
2025-07-09T05:54	10	65	0.2	65	66	371	0.3	370	372	10.3	84.0
2025-07-09T05:55	10	66	0.2	65	66	371	0.3	371	372	10.4	85.0
2025-07-09T05:56	10	66	0.2	66	67	372	0.2	372	372	10.5	85.2
2025-07-09T05:57	10	67	0.2	67	67	372	0.3	372	373	10.6	83.8
2025-07-09T05:58	10	67	0.2	67	68	373	0.3	372	373	10.7	83.6
2025-07-09T05:59	10	68	0.3	67	69	373	0.2	373	374	10.7	86.1
2025-07-09T06:00	10	69	0.2	69	69	374	0.3	373	375	10.8	85.2
2025-07-09T06:01	10	70	0.2	69	70	374	0.2	374	375	11.0	82.3
2025-07-09T06:02	10	70	0.2	70	71	375	0.2	374	376	11.3	81.3
2025-07-09T06:03	10	71	0.2	71	71	376	0.3	375	376	11.3	82.4
2025-07-09T06:04	10	72	0.3	71	72	376	0.3	375	377	11.3	82.0
2025-07-09T06:05	10	72	0.2	72	73	376	0.2	376	377	11.3	82.5
2025-07-09T06:06	10	73	0.2	73	74	377	0.2	376	377	11.4	79.7
2025-07-09T06:07	10	74	0.2	74	74	377	0.2	376	377	11.4	79.1
2025-07-09T06:08	10	75	0.3	74	75	377	0.2	377	378	11.4	79.7
2025-07-09T06:09	10	76	0.3	75	76	378	0.2	377	378	11.4	79.1
2025-07-09T06:10	10	76	0.2	76	77	378	0.2	378	379	11.5	78.8
2025-07-09T06:11	10	76	0.5	76	77	379	0.2	378	379	11.7	77.9
2025-07-09T06:12	10	78	0.6	76	79	379	0.3	379	380	11.8	77.7
2025-07-09T06:13	10	79	0.2	78	79	380	0.4	378	381	11.8	77.9
2025-07-09T06:14	10	79	0.2	79	80	380	0.2	380	381	11.7	78.0
2025-07-09T06:15	10	80	0.3	80	81	380	0.3	380	381	11.6	78.4
2025-07-09T06:16	10	81	0.2	80	81	381	0.2	381	382	11.8	78.3
2025-07-09T06:17	10	81	0.2	81	81	381	0.3	381	382	11.8	78.1
2025-07-09T06:18	10	82	0.2	81	82	382	0.3	382	383	11.8	78.8
2025-07-09T06:19	10	82	0.1	82	82	383	0.3	382	383	11.9	79.5
2025-07-09T06:20	10	82	0.2	82	83	382	0.6	381	383	11.7	78.7
2025-07-09T06:21	10	83	0.1	83	83	381	0.4	381	382	11.4	78.9
2025-07-09T06:22	10	84	0.2	83	84	382	0.2	381	382	11.4	79.2
2025-07-09T06:23	10	84	0.2	84	85	382	0.3	382	383	11.4	78.9
2025-07-09T06:24	10	85	0.2	85	85	383	0.4	383	384	11.5	78.9
2025-07-09T06:25	10	85	0.2	85	86	384	0.3	383	384	11.6	76.9
2025-07-09T06:26	10	86	0.2	86	86	384	0.3	384	385	11.6	77.6
2025-07-09T06:27	10	87	0.2	86	87	384	0.3	383	384	11.6	77.8
2025-07-09T06:28	10	87	0.2	87	88	385	0.4	384	386	11.8	78.3
2025-07-09T06:29	10	88	0.2	87	88	386	0.5	385	387	11.9	77.0
2025-07-09T06:30	10	89	0.2	88	89	386	0.3	385	387	11.9	74.9
2025-07-09T06:31	10	89	0.2	89	89	386	0.4	386	387	11.9	75.2
2025-07-09T06:32	10	90	0.2	89	90	387	0.2	386	387	12.0	76.0
2025-07-09T06:33	10	90	0.2	90	90	386	0.2	386	387	12.0	75.0
2025-07-09T06:34	10	91	0.2	90	91	387	0.3	387	388	12.1	74.9
2025-07-09T06:35	10	91	0.2	91	92	388	0.3	387	389	12.3	74.9
2025-07-09T06:36	10	92	0.1	92	92	389	0.2	389	390	12.5	74.2
2025-07-09T06:37	10	92	0.2	92	93	389	0.2	389	390	12.6	73.0
2025-07-09T06:38	10	93	0.2	93	93	390	0.2	389	390	12.5	73.7
2025-07-09T06:39	10	94	0.2	93	94	389	0.5	389	391	12.4	74.5
2025-07-09T06:40	10	94	0.2	94	94	390	0.4	389	391	12.4	75.1
2025-07-09T06:41	10	95	0.2	94	95	390	0.2	390	391	12.6	73.8
2025-07-09T06:42	10	95	0.2	95	95	391	0.2	391	392	12.8	73.3
2025-07-09T06:43	10	96	0.2	95	96	392	0.3	391	393	12.8	74.2
2025-07-09T06:44	10	96	0.1	96	96	393	0.3	392	394	12.9	73.8
2025-07-09T06:45	10	97	0.1	96	97	392	0.8	391	394	12.8	74.6
2025-07-09T06:46	10	97	0.2	97	98	392	0.3	392	393	12.8	74.6
2025-07-09T06:47	10	98	0.2	97	98	393	0.6	392	395	12.8	75.0
2025-07-09T06:48	10	98	0.2	98	98	392	0.2	392	393	12.5	75.3
2025-07-09T06:49	10	99	0.1	98	99	393	0.3	392	394	12.5	75.8
2025-07-09T06:50	10	99	0.2	99	99	393	0.4	393	394	12.7	75.8
2025-07-09T06:51	10	100	0.2	99	100	394	0.4	393	395	12.8	75.9
2025-07-09T06:52	10	100	0.2	100	101	395	0.3	394	395	12.9	75.0
2025-07-09T06:53	10	101	0.3	100	101	395	0.3	394	396	12.9	75.4
2025-07-09T06:54	10	101	0.3	101	102	396	0.3	395	397	13.0	75.3
2025-07-09T06:55	10	102	0.2	101	102	395	0.5	394	396	12.8	76.4
2025-07-09T06:56	10	102	0.5	101	103	394	0.2	394	395	12.6	76.4
2025-07-09T06:57	10	103	0.2	102	103	395	0.3	394	395	12.7	76.1
2025-07-09T06:58	10	103	0.2	103	104	395	0.4	394	396	12.8	75.9
2025-07-09T06:59	10	104	0.2	103	104	396	0.4	395	397	12.9	76.1
2025-07-09T07:00	10	104	0.2	104	105	397	0.4	396	398	13.1	76.0
2025-07-09T07:01	10	105	0.2	104	105	398	0.8	397	400	13.3	75.2
2025-07-09T07:02	10	105	0.2	105	106	399	0.4	398	399	13.4	73.4
2025-07-09T07:03	10	106	0.2	105	106	398	0.3	398	399	13.6	72.9
2025-07-09T07:04	10	106	0.2	106	107	400	0.7	399	401	13.5	73.0
2025-07-09T07:05	10	107	0.1	107	107	399	1.3	397	401	13.2	72.8
2025-07-09T07:06	10	107	0.1	107	107	398	0.4	398	400	13.0	74.1
2025-07-09T07:07	10	108	0.2	107	108	400	0.4	399	401	13.3	73.0
2025-07-09T07:08	10	108	0.2	108	108	399	0.4	398	400	13.3	71.4
2025-07-09T07:09	10	109	0.1	108	109	399	0.4	398	400	13.2	70.8
2025-07-09T07:10	10	109	0.1	109	109	400	0.9	399	402	13.2	70.9
2025-07-09T07:11	10	109	0.2	109	110	401	0.3	401	402	13.7	70.8
2025-07-09T07:12	10	110	0.2	110	110	401	1.5	398	403	13.6	70.7
2025-07-09T07:13	10	110	0.1	110	111	401	0.9	399	402	13.2	71.2
2025-07-09T07:14	10	111	0.1	111	111	400	0.6	399	402	13.1	72.1
2025-07-09T07:15	10	111	0.2	111	111	402	0.6	400	403	13.2	72.0
2025-07-09T07:16	10	112	0.2	111	112	403	0.4	402	404	13.3	71.5
2025-07-09T07:17	10	112	0.1	112	112	402	0.4	401	403	13.3	72.0
2025-07-09T07:18	10	112	0.2	112	113	402	0.4	401	403	13.3	71.4
2025-07-09T07:19	10	113	0.1	113	113	403	0.6	402	404	13.3	70.9
2025-07-09T07:20	10	113	0.2	113	113	403	0.5	402	404	13.5	70.0
2025-07-09T07:21	10	114	0.2	113	114	403	0.5	402	404	13.5	69.9
2025-07-09T07:22	10	114	0.2	114	114	404	0.5	403	405	13.5	70.1
2025-07-09T07:23	10	115	0.2	114	115	405	0.4	404	406	13.6	69.6
2025-07-09T07:24	10	115	0.2	115	116	406	0.6	405	407	13.8	69.4
2025-07-09T07:25	10	116	0.2	115	116	407	0.3	406	407	14.1	68.8
2025-07-09T07:26	10	116	0.2	116	117	407	0.3	406	408	14.0	68.4
2025-07-09T07:27	10	117	0.1	116	117	407	0.3	406	408	13.9	68.9
2025-07-09T07:28	10	117	0.2	117	117	407	0.5	406	408	13.8	69.1
2025-07-09T07:29	10	118	0.2	117	118	407	1.7	404	409	13.8	69.2
2025-07-09T07:30	10	118	0.1	118	118	406	0.6	404	407	13.5	69.2
2025-07-09T07:31	10	118	0.2	118	119	408	0.4	407	409	13.7	69.2
2025-07-09T07:32	10	119	0.2	119	119	408	0.3	408	409	13.8	68.6
2025-07-09T07:33	10	119	0.1	119	120	408	1.0	407	410	13.9	68.9
2025-07-09T07:34	10	120	0.1	120	120	407	0.4	407	408	13.7	69.4
2025-07-09T07:35	10	120	0.1	120	120	407	0.4	406	408	13.7	69.8
2025-07-09T07:36	10	120	0.1	120	121	407	0.5	406	408	13.7	69.4
2025-07-09T07:37	10	121	0.2	121	121	409	1.2	407	412	14.0	68.7
2025-07-09T07:38	10	121	0.2	121	122	409	0.5	408	410	14.1	67.4
2025-07-09T07:39	10	122	0.2	122	122	409	0.6	408	411	14.0	67.4
2025-07-09T07:40	10	122	0.2	122	123	411	0.4	410	412	14.1	68.0
2025-07-09T07:41	10	123	0.2	123	123	411	0.5	410	412	14.0	68.2
2025-07-09T07:42	10	123	0.2	123	124	411	0.3	410	412	13.9	68.3
2025-07-09T07:43	10	124	0.2	124	124	412	0.5	411	413	14.0	68.0
2025-07-09T07:44	10	124	0.1	124	125	413	1.1	411	414	14.1	67.4
2025-07-09T07:45	10	125	0.1	124	125	411	0.3	411	412	14.1	67.5
2025-07-09T07:46	10	125	0.1	125	125	412	0.4	411	413	14.2	66.9
2025-07-09T07:47	10	125	0.1	125	126	414	0.6	413	415	14.3	66.7
2025-07-09T07:48	10	126	0.2	125	126	415	0.6	414	416	14.4	66.0
2025-07-09T07:49	10	126	0.1	126	126	417	0.6	416	418	15.0	65.6
2025-07-09T07:50	10	127	0.2	126	127	414	1.0	413	417	14.7	65.7
2025-07-09T07:51	10	127	0.1	127	128	415	0.8	414	417	14.6	66.1
2025-07-09T07:52	10	128	0.1	127	128	416	1.0	414	417	14.8	65.5
2025-07-09T07:53	10	128	0.1	128	128	415	0.6	414	416	14.6	65.6
2025-07-09T07:54	10	128	0.1	128	129	414	1.2	412	416	14.6	65.7
2025-07-09T07:55	10	129	0.1	129	129	413	0.7	412	414	14.4	65.8
2025-07-09T07:56	10	129	0.1	129	129	416	0.5	415	417	14.5	65.6
2025-07-09T07:57	10	129	0.2	129	130	417	0.5	416	418	14.7	65.1
2025-07-09T07:58	10	130	0.1	130	130	415	0.6	414	416	14.4	65.2
2025-07-09T07:59	10	130	0.2	130	131	417	0.5	415	418	14.5	65.6
2025-07-09T08:00	10	130	0.2	130	131	417	0.8	416	419	14.6	65.2
2025-07-09T08:01	10	131	0.2	130	131	418	0.8	417	419	14.7	64.7
2025-07-09T08:02	10	131	0.1	131	131	418	0.4	417	419	14.6	64.8
2025-07-09T08:03	10	131	0.2	131	132	418	0.5	418	419	14.6	64.9
2025-07-09T08:04	10	132	0.1	132	132	421	0.7	419	422	15.0	64.7
2025-07-09T08:05	10	132	0.1	132	133	422	0.4	421	423	15.4	64.2
2025-07-09T08:06	10	133	0.3	132	133	421	1.1	419	423	15.4	63.5
2025-07-09T08:07	10	133	0.2	133	134	420	0.6	419	421	15.2	63.7
2025-07-09T08:08	10	134	0.2	133	134	421	0.9	420	423	15.1	63.7
2025-07-09T08:09	10	134	0.2	134	135	422	0.2	422	423	15.1	63.8
2025-07-09T08:10	10	134	0.2	134	135	423	0.4	422	424	15.1	63.7
2025-07-09T08:11	10	135	0.2	134	135	425	1.1	423	426	15.3	63.8
2025-07-09T08:12	10	135	0.2	135	136	422	0.9	420	424	15.1	62.8
2025-07-09T08:13	10	136	0.2	135	136	423	1.1	420	425	15.0	63.2
2025-07-09T08:14	10	136	0.2	136	136	424	0.4	423	425	15.2	63.1
2025-07-09T08:15	10	136	0.1	136	136	422	1.7	419	424	15.3	62.7
2025-07-09T08:16	10	136	0.2	136	137	420	0.8	418	422	14.8	63.5
2025-07-09T08:17	10	137	0.1	136	137	422	0.5	421	423	15.1	63.1
2025-07-09T08:18	10	137	0.2	136	137	423	0.9	422	425	15.7	62.1
2025-07-09T08:19	10	137	0.3	137	138	423	1.0	422	425	15.4	61.3
2025-07-09T08:20	10	138	0.2	137	138	424	1.0	423	426	15.3	61.9
2025-07-09T08:21	10	138	0.2	138	139	424	0.5	423	425	15.2	61.6
2025-07-09T08:22	10	139	0.2	139	139	424	1.3	422	426	15.4	61.3
2025-07-09T08:23	10	139	0.9	135	139	426	0.7	425	428	15.8	61.2
2025-07-09T08:24	10	139	0.1	139	140	426	0.4	426	427	15.7	59.9
2025-07-09T08:25	10	140	0.1	139	140	425	2.0	422	428	15.7	60.7
2025-07-09T08:26	10	140	0.1	140	140	425	0.6	424	427	15.5	60.6
2025-07-09T08:27	10	140	0.2	140	140	426	0.5	425	427	15.8	60.3
2025-07-09T08:28	10	141	0.2	140	141	428	1.1	426	430	15.9	60.6
2025-07-09T08:29	10	141	0.2	141	142	425	1.5	423	429	15.5	60.0
2025-07-09T08:30	10	139	1.5	137	142	426	1.0	424	428	15.2	60.1
2025-07-09T08:31	10	137	2.7	131	141	427	0.7	426	428	15.3	60.5
2025-07-09T08:32	10	142	0.6	141	143	428	0.8	426	429	15.5	59.2
2025-07-09T08:33	10	143	0.1	143	143	429	0.4	428	430	15.4	56.0
2025-07-09T08:34	10	143	0.1	143	143	431	0.8	429	432	15.6	58.5
2025-07-09T08:35	10	143	0.2	143	144	431	0.8	429	432	15.9	58.6
2025-07-09T08:36	10	144	0.1	144	144	429	0.7	428	431	16.0	57.8
2025-07-09T08:37	10	144	0.1	144	144	430	0.3	429	431	16.1	51.8
2025-07-09T08:38	10	144	0.1	144	145	430	0.5	429	431	16.2	52.8
2025-07-09T08:39	10	145	0.2	144	145	431	0.7	430	433	16.3	53.6
2025-07-09T08:40	10	145	0.1	145	145	429	1.0	427	431	16.4	54.9
2025-07-09T08:41	10	146	0.2	145	146	429	0.5	428	429	16.1	55.2
2025-07-09T08:42	10	146	0.1	146	146	428	0.4	428	429	15.9	56.8
2025-07-09T08:43	10	146	0.1	146	146	431	1.0	429	433	15.7	57.6
2025-07-09T08:44	10	146	0.2	146	147	434	0.7	432	435	15.9	56.3
2025-07-09T08:45	10	147	0.1	146	147	433	0.5	432	435	16.5	58.1
2025-07-09T08:46	10	147	0.2	147	147	433	0.9	431	434	16.2	56.3
2025-07-09T08:47	10	147	0.1	147	148	434	0.9	433	436	15.9	56.8
2025-07-09T08:48	10	148	0.1	147	148	435	0.6	434	436	16.1	56.8
2025-07-09T08:49	10	148	0.1	148	148	437	0.6	436	438	16.6	56.7
2025-07-09T08:50	10	148	0.1	148	148	436	1.7	433	439	16.6	54.6
2025-07-09T08:51	10	149	0.2	148	149	433	1.5	430	435	16.5	52.8
2025-07-09T08:52	10	149	0.1	149	149	433	1.4	430	435	16.2	51.8
2025-07-09T08:53	10	149	0.1	149	149	435	0.6	435	437	16.5	53.8
2025-07-09T08:54	10	149	0.1	149	149	437	0.5	436	438	16.4	54.1
2025-07-09T08:55	10	150	0.3	149	150	438	0.6	437	440	16.4	54.6
2025-07-09T08:56	10	150	0.2	150	151	436	1.6	433	438	16.4	54.9
2025-07-09T08:57	10	151	0.1	151	151	434	0.9	432	436	16.0	55.4
2025-07-09T08:58	10	151	0.1	151	151	438	1.1	436	440	16.5	55.5
2025-07-09T08:59	10	151	0.1	151	152	439	0.6	438	440	16.6	53.9
2025-07-09T09:00	10	152	0.2	151	152	438	0.4	437	439	16.6	51.3
2025-07-09T09:01	10	152	0.1	152	152	440	0.5	438	441	16.6	49.3
2025-07-09T09:02	10	149	6.2	134	155	440	0.6	439	442	16.8	51.3
2025-07-09T09:03	10	153	0.1	152	153	439	0.3	438	439	16.7	51.9
2025-07-09T09:04	10	153	0.2	153	153	439	0.3	438	440	16.7	51.4
2025-07-09T09:05	10	153	0.1	153	154	437	0.9	436	440	16.5	51.7
2025-07-09T09:06	10	154	0.2	153	154	437	1.2	435	439	16.3	52.0
2025-07-09T09:07	10	154	0.1	154	154	437	1.1	435	439	16.1	52.1
2025-07-09T09:08	10	154	0.2	154	155	440	0.4	439	441	16.3	51.1
2025-07-09T09:09	10	154	0.1	154	155	439	0.6	438	440	16.4	50.1
2025-07-09T09:10	10	155	0.2	154	155	438	0.7	437	439	16.6	48.7
2025-07-09T09:11	10	155	0.1	155	155	437	0.7	436	439	16.4	48.6
2025-07-09T09:12	10	155	0.1	155	155	438	0.6	437	439	16.4	47.9
2025-07-09T09:13	10	155	0.2	155	156	441	1.0	439	442	16.7	49.8
2025-07-09T09:14	10	155	0.2	155	156	439	1.1	438	442	16.6	50.4
2025-07-09T09:15	10	155	0.2	155	156	442	0.5	441	443	16.6	51.1
2025-07-09T09:16	10	156	0.1	155	156	443	0.6	442	444	16.8	51.5
2025-07-09T09:17	10	156	0.2	156	156	446	1.3	444	449	17.4	51.4
2025-07-09T09:18	10	156	0.2	156	157	447	1.0	444	449	17.4	49.5
2025-07-09T09:19	10	157	0.1	156	157	444	0.3	443	445	17.0	48.3
2025-07-09T09:20	10	157	0.1	156	157	444	1.4	442	446	16.8	48.5
2025-07-09T09:21	10	157	0.1	157	157	444	1.0	442	445	16.6	50.6
2025-07-09T09:22	10	157	0.2	157	158	445	0.7	443	446	16.7	50.2
2025-07-09T09:23	10	158	0.1	157	158	446	0.3	446	447	16.7	50.7
2025-07-09T09:24	10	158	0.1	157	158	447	0.9	445	449	17.1	50.2
2025-07-09T09:25	10	158	0.1	158	158	443	2.2	440	447	17.1	49.2
2025-07-09T09:26	10	158	0.1	158	159	443	0.9	441	444	16.7	48.9
2025-07-09T09:27	10	158	0.1	158	159	443	0.8	442	445	16.6	47.7
2025-07-09T09:28	10	158	0.1	158	158	444	1.9	441	446	16.7	47.5
2025-07-09T09:29	10	158	0.1	158	159	441	0.7	440	443	16.6	47.7
2025-07-09T09:30	10	159	0.2	158	159	443	0.5	441	444	16.8	48.0
2025-07-09T09:31	10	159	0.1	159	159	444	1.2	443	447	16.8	49.1
2025-07-09T09:32	10	159	0.3	159	159	448	0.6	446	448	17.1	48.6
2025-07-09T09:33	10	159	0.1	159	160	450	1.1	448	452	17.3	49.2
2025-07-09T09:34	10	160	0.2	159	160	448	0.6	447	450	17.1	47.1
2025-07-09T09:35	10	160	0.2	160	161	449	1.7	445	452	17.2	47.5
2025-07-09T09:36	10	161	0.1	160	161	448	1.4	446	450	17.1	47.7
2025-07-09T09:37	10	161	0.1	161	161	450	1.2	448	451	17.1	46.5
2025-07-09T09:38	10	160	2.0	153	161	448	0.6	447	449	17.1	46.0
2025-07-09T09:39	10	161	0.1	161	161	447	1.0	445	448	17.6	48.5
2025-07-09T09:40	10	161	0.1	161	161	448	1.0	446	449	17.3	48.4
2025-07-09T09:41	10	161	0.1	161	162	448	1.0	446	449	17.1	48.2
2025-07-09T09:42	10	161	0.1	161	162	449	1.5	446	451	17.3	48.7
2025-07-09T09:43	10	161	0.1	161	161	447	1.8	443	449	17.4	47.7
2025-07-09T09:44	10	161	0.1	161	161	448	1.9	445	451	17.0	48.0
2025-07-09T09:45	10	161	0.1	161	162	451	0.6	450	452	17.2	48.6
2025-07-09T09:46	10	162	0.1	161	162	453	0.8	452	454	17.4	49.0
2025-07-09T09:47	10	162	0.1	162	162	452	2.3	447	455	17.8	48.3
2025-07-09T09:48	10	162	0.2	162	162	447	0.9	445	448	17.5	47.2
2025-07-09T09:49	10	162	0.1	162	163	447	0.7	446	448	17.2	48.3
2025-07-09T09:50	10	163	0.1	162	163	447	1.1	445	448	17.1	48.4
2025-07-09T09:51	10	163	0.1	162	163	448	0.7	447	450	17.2	49.0
2025-07-09T09:52	10	163	0.2	163	163	451	1.0	450	453	17.4	49.1
2025-07-09T09:53	10	163	0.1	163	164	451	0.4	450	452	17.4	48.7
2025-07-09T09:54	10	164	0.1	163	164	451	0.9	450	453	17.3	48.7
2025-07-09T09:55	10	164	0.1	164	164	452	1.3	450	455	17.3	48.0
2025-07-09T09:56	10	164	0.2	164	164	453	1.0	451	454	17.5	47.4
2025-07-09T09:57	10	164	0.2	164	164	452	1.0	450	454	17.1	48.4
2025-07-09T09:58	10	164	0.1	163	164	454	0.9	453	456	17.5	48.3
2025-07-09T09:59	10	164	0.2	163	164	456	0.9	455	458	17.6	47.6
2025-07-09T10:00	10	164	0.2	164	164	455	2.0	452	458	17.9	46.1
2025-07-09T10:01	10	165	0.3	164	165	454	1.4	451	456	18.1	46.0
2025-07-09T10:02	10	165	0.1	165	166	448	1.2	446	451	17.6	45.4
2025-07-09T10:03	10	165	0.1	165	166	449	0.6	448	450	17.2	46.5
2025-07-09T10:04	10	166	0.1	165	166	451	1.1	450	454	17.3	47.3
2025-07-09T10:05	10	165	0.1	165	165	454	0.5	453	454	17.8	47.3
2025-07-09T10:06	10	165	0.1	165	165	455	0.9	453	456	17.7	46.8
2025-07-09T10:07	10	166	0.1	165	166	455	0.4	454	456	17.7	47.0
2025-07-09T10:08	10	166	0.3	166	167	454	0.8	453	456	17.7	44.7
2025-07-09T10:09	10	167	0.1	167	167	453	1.4	451	456	17.9	44.6
2025-07-09T10:10	10	167	0.1	167	167	453	0.5	452	454	17.6	44.9
2025-07-09T10:11	10	167	0.1	167	167	455	1.6	452	457	17.5	44.3
2025-07-09T10:12	10	167	0.1	167	167	456	0.5	455	457	17.5	45.4
2025-07-09T10:13	10	167	0.1	167	168	457	0.7	456	459	17.6	46.1
2025-07-09T10:14	10	167	0.1	167	167	456	0.8	455	459	17.9	47.2
2025-07-09T10:15	10	167	0.1	167	167	456	0.9	455	457	17.9	46.8
2025-07-09T10:16	10	167	0.1	167	168	457	0.7	455	458	17.8	46.5
2025-07-09T10:17	10	167	0.1	167	168	459	0.8	458	461	18.3	46.0
2025-07-09T10:18	10	168	0.1	167	168	458	1.7	456	461	18.6	45.0
2025-07-09T10:19	10	168	0.1	168	168	457	0.6	455	458	18.4	44.5
2025-07-09T10:20	10	168	0.2	168	168	454	0.8	453	456	18.2	45.7
2025-07-09T10:21	10	168	0.1	168	169	458	0.9	456	459	18.4	45.7
2025-07-09T10:22	10	169	0.2	168	169	456	1.0	454	457	18.1	44.8
2025-07-09T10:23	10	169	0.3	168	169	454	0.4	453	455	17.9	45.2
2025-07-09T10:24	10	169	0.3	168	169	457	1.1	455	459	17.9	43.4
2025-07-09T10:25	10	169	0.2	168	169	460	0.5	459	461	17.9	44.8
2025-07-09T10:26	10	169	0.2	169	170	462	0.3	460	462	17.9	43.3
2025-07-09T10:27	10	170	0.1	169	170	461	1.3	456	462	17.9	44.8
2025-07-09T10:28	10	169	0.1	169	170	457	0.5	456	458	17.9	44.8
2025-07-09T10:29	10	170	0.1	169	170	460	1.4	457	463	17.9	44.8
2025-07-09T10:30	10	170	0.1	170	170	461	1.1	460	464	17.9	44.8
2025-07-09T10:31	10	170	0.1	169	170	457	2.4	454	461	17.9	44.8
2025-07-09T10:32	10	170	0.2	170	171	460	1.8	456	462	18.2	42.4
2025-07-09T10:33	10	171	0.2	170	171	461	0.8	459	462	18.4	42.3
2025-07-09T10:34	10	169	0.4	169	170	456	2.3	452	459	18.3	42.7
2025-07-09T10:35	10	169	0.1	169	169	456	1.5	453	459	18.2	43.0
2025-07-09T10:36	10	170	0.3	169	170	458	0.8	457	460	18.3	42.5
2025-07-09T10:37	10	170	0.2	170	170	459	1.0	457	461	18.4	41.3
2025-07-09T10:38	10	170	0.2	169	170	458	0.3	457	458	18.3	39.4
2025-07-09T10:39	10	169	0.1	169	170	459	0.7	457	461	18.1	39.9
2025-07-09T10:40	10	170	0.2	169	170	462	1.4	459	464	18.2	40.8
2025-07-09T10:41	10	170	0.2	170	171	462	1.3	460	464	18.4	40.6
2025-07-09T10:42	10	171	0.2	170	171	460	0.8	459	462	18.5	41.3
2025-07-09T10:43	10	171	0.2	171	172	456	1.2	455	459	18.2	40.4
2025-07-09T10:44	10	172	0.1	172	172	457	0.9	455	458	18.0	40.9
2025-07-09T10:45	10	172	0.1	172	172	460	1.2	458	461	18.4	41.4
2025-07-09T10:46	10	172	0.1	172	173	462	1.2	460	465	18.4	40.5
2025-07-09T10:47	10	172	0.1	172	172	464	2.2	459	467	18.6	39.5
2025-07-09T10:48	10	172	0.1	171	172	462	1.2	460	464	18.5	40.0
2025-07-09T10:49	10	171	0.2	171	172	463	1.3	459	465	18.6	39.8
2025-07-09T10:50	10	171	0.2	171	172	459	1.2	457	462	18.5	39.8
2025-07-09T10:51	10	172	0.2	172	172	464	0.9	462	466	18.5	41.0
2025-07-09T10:52	10	172	0.2	172	173	466	0.7	464	467	18.5	42.1
2025-07-09T10:53	10	173	0.2	173	173	463	0.5	462	464	18.4	42.3
2025-07-09T10:54	10	173	0.1	173	173	466	2.3	462	469	19.1	41.7
2025-07-09T10:55	10	173	0.1	173	173	464	3.0	460	468	18.8	39.4
2025-07-09T10:56	10	173	0.2	172	173	462	0.8	460	463	18.5	37.2
2025-07-09T10:57	10	172	0.1	172	173	460	1.6	458	463	18.8	37.2
2025-07-09T10:58	10	172	0.1	172	173	460	0.7	459	461	18.8	36.1
2025-07-09T10:59	10	173	0.2	172	173	460	1.0	459	462	18.5	35.0
2025-07-09T11:00	10	173	0.1	173	173	462	0.7	461	463	18.3	33.7
2025-07-09T11:01	10	173	0.1	172	173	461	1.3	459	464	18.2	35.7
2025-07-09T11:02	10	173	0.3	172	173	464	1.4	462	467	18.5	34.3
2025-07-09T11:03	10	173	0.2	173	174	467	1.2	465	470	18.6	34.6
2025-07-09T11:04	10	174	0.1	173	174	469	0.7	468	470	19.1	35.0
2025-07-09T11:05	10	174	0.2	174	174	466	1.3	464	469	19.2	36.2
2025-07-09T11:06	10	174	0.1	174	175	466	0.9	464	467	19.2	35.6
2025-07-09T11:07	10	174	0.1	174	175	465	0.6	464	467	19.2	35.0
2025-07-09T11:08	10	175	0.2	175	175	463	0.6	462	465	19.2	32.1
2025-07-09T11:09	10	175	0.1	175	176	465	0.8	463	466	19.1	31.1
2025-07-09T11:10	10	175	0.1	175	175	468	1.5	466	470	18.9	32.4
2025-07-09T11:11	10	174	0.2	174	175	470	0.7	469	471	18.8	31.8
2025-07-09T11:12	10	174	0.2	174	175	469	0.3	468	470	18.7	34.2
2025-07-09T11:13	10	174	0.1	174	175	471	0.7	469	472	18.8	34.2
2025-07-09T11:14	10	175	0.1	174	175	471	0.3	471	472	18.9	35.3
2025-07-09T11:15	10	174	0.1	174	175	472	0.5	471	473	19.1	36.1
2025-07-09T11:16	10	174	0.1	174	174	471	0.8	468	472	19.1	35.9
2025-07-09T11:17	10	174	0.1	174	174	468	0.6	466	469	19.4	36.5
2025-07-09T11:18	10	175	0.1	174	175	468	0.7	466	469	19.4	36.5
2025-07-09T11:19	10	175	0.2	174	175	469	0.6	468	470	19.3	35.2
2025-07-09T11:20	10	175	0.1	175	175	470	0.6	468	471	19.1	34.7
2025-07-09T11:21	10	175	0.1	175	175	468	0.6	467	470	19.1	34.9
2025-07-09T11:22	10	175	0.1	175	175	466	1.3	465	469	18.9	33.5
2025-07-09T11:23	10	175	0.1	175	175	468	0.8	467	470	19.1	33.9
2025-07-09T11:24	10	175	0.1	174	175	469	1.2	467	471	19.5	34.2
2025-07-09T11:25	10	174	0.1	174	175	471	0.7	469	472	19.8	34.4
2025-07-09T11:26	10	175	0.1	175	175	469	0.6	468	471	19.6	32.9
2025-07-09T11:27	10	175	0.1	175	176	472	0.9	471	473	19.6	33.2
2025-07-09T11:28	10	175	0.2	175	176	470	0.9	469	473	19.4	32.5
2025-07-09T11:29	10	175	0.2	175	176	469	0.7	468	471	19.1	32.2
2025-07-09T11:30	10	176	0.1	175	176	472	0.6	470	473	19.1	33.3
2025-07-09T11:31	10	175	0.1	175	176	474	1.1	472	475	19.3	34.6
2025-07-09T11:32	10	175	0.1	175	175	474	0.6	473	475	19.5	33.1
2025-07-09T11:33	10	175	0.1	175	175	475	0.8	473	476	19.9	33.8
2025-07-09T11:34	10	175	0.1	175	175	471	1.1	469	473	19.4	34.8
2025-07-09T11:35	10	175	0.1	175	175	471	1.2	469	473	19.5	35.3
2025-07-09T11:36	10	175	0.1	175	175	471	1.2	469	473	19.8	35.6
2025-07-09T11:37	10	175	0.1	175	175	469	1.7	467	472	19.6	34.6
2025-07-09T11:38	10	175	0.1	175	175	469	0.5	469	470	19.4	34.4
2025-07-09T11:39	10	175	0.1	175	175	472	1.7	469	475	19.5	34.8
2025-07-09T11:40	10	175	0.2	175	175	475	1.3	473	477	19.8	34.2
2025-07-09T11:41	10	176	0.2	175	176	474	0.4	473	475	19.3	34.2
2025-07-09T11:42	10	176	0.1	176	176	475	0.9	473	476	19.4	34.7
2025-07-09T11:43	10	176	0.1	176	176	473	1.3	472	476	19.6	35.0
2025-07-09T11:44	10	176	0.1	176	177	472	1.5	470	475	19.6	35.7
2025-07-09T11:45	10	177	0.2	177	178	468	0.8	467	470	19.2	36.1
2025-07-09T11:46	10	178	0.4	177	179	469	0.9	468	471	19.2	35.7
2025-07-09T11:47	10	179	0.2	178	179	471	0.8	470	473	19.1	35.0
2025-07-09T11:48	10	179	0.2	179	179	474	0.7	472	476	19.2	35.0
2025-07-09T11:49	10	179	0.1	178	179	476	0.9	474	477	19.5	35.1
2025-07-09T11:50	10	179	0.2	178	179	474	0.8	473	476	19.3	34.5
2025-07-09T11:51	10	179	0.2	178	179	476	0.5	475	477	19.5	35.2
2025-07-09T11:52	10	179	0.3	178	180	478	0.8	476	479	19.7	35.6
2025-07-09T11:53	10	179	0.2	178	180	478	0.7	476	479	20.0	35.4
2025-07-09T11:54	10	179	0.3	178	180	478	1.1	477	480	20.0	35.6
2025-07-09T11:55	10	178	0.2	177	178	479	0.4	478	480	20.7	36.5
2025-07-09T11:56	10	178	0.1	178	178	475	1.9	472	478	20.3	33.9
2025-07-09T11:57	10	178	0.2	178	178	472	0.8	471	474	20.0	33.3
2025-07-09T11:58	10	177	0.2	177	178	474	1.2	471	475	20.2	33.0
2025-07-09T11:59	10	177	0.1	177	178	472	0.9	469	473	19.7	32.1
2025-07-09T12:00	10	178	0.1	177	178	469	1.1	467	471	19.3	32.3
2025-07-09T12:01	10	178	0.1	178	178	471	1.2	469	473	19.7	32.6
2025-07-09T12:02	10	178	0.1	178	178	473	0.5	472	474	19.7	30.8
2025-07-09T12:03	10	178	0.1	178	178	474	1.3	472	477	19.8	30.9
2025-07-09T12:04	10	178	0.1	178	178	477	0.6	475	478	19.9	30.2
2025-07-09T12:05	10	178	0.4	177	178	471	2.9	466	476	19.9	31.9
2025-07-09T12:06	10	177	0.1	177	177	468	0.8	467	470	19.6	33.2
2025-07-09T12:07	10	177	0.1	177	177	471	0.6	470	472	19.5	33.0
2025-07-09T12:08	10	177	0.1	177	177	472	0.5	470	473	19.6	33.2
2025-07-09T12:09	10	177	0.1	177	177	475	1.1	473	477	19.9	32.5
2025-07-09T12:10	10	177	0.1	176	177	476	0.7	475	477	20.0	31.9
2025-07-09T12:11	10	177	0.1	176	177	475	1.8	472	477	20.2	32.1
2025-07-09T12:12	10	177	0.1	176	177	474	0.8	472	475	19.9	32.6
2025-07-09T12:13	10	177	0.2	177	177	474	1.0	473	476	19.4	29.2
2025-07-09T12:14	10	178	0.1	177	178	477	0.9	476	479	19.5	30.6
2025-07-09T12:15	10	178	0.1	177	178	479	0.6	478	481	19.9	31.8
2025-07-09T12:16	10	178	0.1	177	178	479	0.7	478	481	20.5	32.2
2025-07-09T12:17	10	177	0.1	177	178	478	1.8	474	481	20.5	32.2
2025-07-09T12:18	10	178	0.1	177	178	470	1.8	468	474	19.7	34.4
2025-07-09T12:19	10	178	0.1	178	178	472	1.9	469	476	19.4	35.0
2025-07-09T12:20	10	178	0.1	178	178	472	1.8	469	475	19.6	34.9
2025-07-09T12:21	10	178	0.2	178	178	472	0.3	471	473	19.3	34.5
2025-07-09T12:22	10	177	0.2	177	178	475	1.6	472	478	19.5	34.8
2025-07-09T12:23	10	177	0.1	177	177	471	3.4	468	478	19.5	34.3
2025-07-09T12:24	10	177	0.2	176	177	471	1.4	468	472	19.5	34.0
2025-07-09T12:25	10	177	0.2	176	177	470	0.6	469	471	19.4	33.8
2025-07-09T12:26	10	177	0.1	177	177	472	1.8	469	475	19.4	33.5
2025-07-09T12:27	10	177	0.2	176	177	475	0.5	474	476	19.7	34.9
2025-07-09T12:28	10	176	0.1	176	176	474	1.7	471	476	20.0	39.8
2025-07-09T12:29	10	176	0.1	176	176	473	0.8	471	475	20.1	40.0
2025-07-09T12:30	10	175	0.5	174	176	471	3.0	466	475	20.1	39.2
2025-07-09T12:31	10	174	0.3	173	174	465	0.8	463	466	19.4	38.8
2025-07-09T12:32	10	173	0.1	173	173	468	1.3	466	470	19.7	38.6
2025-07-09T12:33	10	173	0.1	173	173	467	1.1	465	468	19.5	38.1
2025-07-09T12:34	10	172	0.1	172	173	467	1.1	465	469	19.6	37.7
2025-07-09T12:35	10	172	0.2	172	173	468	1.3	465	470	19.8	38.0
2025-07-09T12:36	10	172	0.1	172	173	468	1.1	466	470	19.9	37.4
2025-07-09T12:37	10	172	0.1	172	172	470	1.0	468	472	20.3	36.5
2025-07-09T12:38	10	172	0.1	172	173	472	1.7	469	475	20.3	36.5
2025-07-09T12:39	10	172	0.1	172	173	472	0.9	471	474	20.3	36.1
2025-07-09T12:40	10	172	0.1	172	172	471	0.8	470	473	20.1	36.7
2025-07-09T12:41	10	172	0.1	172	173	474	0.9	472	476	20.1	36.8
2025-07-09T12:42	10	172	0.1	172	173	474	1.4	472	476	20.1	37.4
2025-07-09T12:43	10	173	0.1	172	173	472	0.6	470	473	20.1	36.8
2025-07-09T12:44	10	172	0.2	172	173	470	0.8	469	472	20.3	35.9
2025-07-09T12:45	10	172	0.1	172	172	469	1.6	466	471	20.0	35.4
2025-07-09T12:46	10	171	0.2	171	172	469	1.0	468	472	19.6	35.8
2025-07-09T12:47	10	171	0.2	171	171	473	0.9	471	475	20.0	35.9
2025-07-09T12:48	10	171	0.1	171	171	472	0.5	471	473	20.2	36.3
2025-07-09T12:49	10	170	0.1	170	171	471	2.9	463	474	20.8	35.8
2025-07-09T12:50	10	170	0.2	170	171	465	1.0	463	466	19.6	38.1
2025-07-09T12:51	10	170	0.1	169	170	468	1.5	465	470	19.9	37.5
2025-07-09T12:52	10	169	0.1	169	169	469	1.1	467	471	19.9	37.5
2025-07-09T12:53	10	169	0.2	169	169	471	1.4	468	473	19.7	37.4
2025-07-09T12:54	10	168	0.1	168	169	470	1.3	468	472	19.7	37.2
2025-07-09T12:55	10	169	0.1	169	169	470	0.9	468	471	19.6	37.5
2025-07-09T12:56	10	168	0.1	168	169	471	1.0	469	473	19.9	37.1
2025-07-09T12:57	10	168	0.1	168	168	467	2.3	464	471	19.9	37.9
2025-07-09T12:58	10	168	0.1	168	168	468	2.1	464	471	19.6	38.4
2025-07-09T12:59	10	168	0.1	168	168	471	1.4	469	473	20.0	38.1
2025-07-09T13:00	10	168	0.1	168	168	470	0.8	468	471	19.9	37.8
2025-07-09T13:01	10	168	0.1	168	169	469	1.2	467	471	19.9	37.8
2025-07-09T13:02	10	168	0.1	168	168	469	1.7	467	472	20.1	37.7
2025-07-09T13:03	10	168	0.1	168	168	473	1.1	470	475	20.3	36.6
2025-07-09T13:04	10	169	0.4	168	169	474	0.9	473	476	20.4	36.5
2025-07-09T13:05	10	169	0.2	168	169	474	0.8	473	476	20.4	35.7
2025-07-09T13:06	10	168	0.2	168	168	474	0.5	473	475	20.5	36.5
2025-07-09T13:07	10	168	0.1	167	168	472	1.9	469	475	20.9	37.9
2025-07-09T13:08	10	168	0.2	167	168	471	0.4	469	471	20.6	37.9
2025-07-09T13:09	10	168	0.2	168	169	472	1.1	470	474	20.5	38.5
2025-07-09T13:10	10	169	0.1	168	169	472	0.9	470	473	20.9	37.5
2025-07-09T13:11	10	168	0.3	168	169	468	0.8	467	470	20.2	37.8
2025-07-09T13:12	10	167	0.2	167	168	468	1.0	467	470	20.2	38.7
2025-07-09T13:13	10	167	0.2	167	168	470	0.8	469	472	19.9	39.2
2025-07-09T13:14	10	167	0.1	167	167	471	0.9	470	473	19.7	39.8
2025-07-09T13:15	10	167	0.1	167	167	473	0.9	471	475	19.7	40.0
2025-07-09T13:16	10	167	0.2	166	167	473	0.9	471	475	19.9	39.4
2025-07-09T13:17	10	167	0.2	166	168	473	1.1	472	475	20.2	39.3
2025-07-09T13:18	10	168	0.2	167	168	472	0.7	471	474	19.9	39.9
2025-07-09T13:19	10	168	0.2	167	168	473	2.5	469	477	20.6	39.9
2025-07-09T13:20	10	167	0.3	167	168	467	0.6	466	469	20.2	39.8
2025-07-09T13:21	10	167	0.3	166	167	467	0.7	465	468	20.1	40.1
2025-07-09T13:22	10	166	0.1	166	166	466	1.2	464	468	20.0	39.5
2025-07-09T13:23	10	165	0.4	165	166	467	0.9	466	469	20.2	39.4
2025-07-09T13:24	10	165	0.4	164	166	470	1.3	468	472	20.4	38.9
2025-07-09T13:25	10	162	4.5	151	166	471	1.2	468	473	20.4	38.7
2025-07-09T13:26	10	132	9.2	120	150	464	3.7	458	469	20.2	38.9
2025-07-09T13:27	10	121	17.1	104	163	456	1.4	454	459	19.8	39.8
2025-07-09T13:28	10	170	1.5	164	172	463	3.2	457	468	20.1	39.7
2025-07-09T13:29	10	168	1.0	166	170	470	1.8	467	472	20.0	38.9
2025-07-09T13:30	10	165	0.7	164	166	471	0.5	470	472	19.9	39.8
2025-07-09T13:31	10	164	0.2	163	165	467	1.3	465	470	19.8	40.4
2025-07-09T13:32	10	164	0.2	163	164	468	0.4	467	468	19.7	40.7
2025-07-09T13:33	10	163	0.2	163	164	470	0.7	468	471	19.7	40.5
2025-07-09T13:34	10	163	0.1	163	163	472	0.3	471	472	19.6	40.3
2025-07-09T13:35	10	163	0.2	163	164	473	0.9	471	475	19.8	40.1
2025-07-09T13:36	10	163	0.1	163	163	474	1.2	471	476	20.4	40.2
2025-07-09T13:37	10	163	0.2	163	163	469	1.9	467	473	20.2	38.9
2025-07-09T13:38	10	163	0.2	162	163	471	1.7	467	473	20.1	39.2
2025-07-09T13:39	10	162	0.1	162	163	473	0.4	473	474	20.4	39.1
2025-07-09T13:40	10	162	0.1	162	162	473	0.5	473	475	20.3	38.6
2025-07-09T13:41	10	162	0.1	162	163	475	0.3	474	476	20.4	39.7
2025-07-09T13:42	10	162	0.1	162	163	473	0.5	472	475	20.3	38.8
2025-07-09T13:43	10	162	0.2	162	163	470	1.5	468	473	20.3	39.0
2025-07-09T13:44	10	162	0.3	161	162	472	1.1	470	474	20.3	39.2
2025-07-09T13:45	10	161	0.2	160	161	471	0.6	470	473	20.8	39.3
2025-07-09T13:46	10	160	0.2	160	161	471	0.4	471	472	20.8	38.8
2025-07-09T13:47	10	160	0.2	159	160	470	1.1	468	472	20.5	38.9
2025-07-09T13:48	10	159	0.2	159	160	468	1.3	466	470	20.3	39.5
2025-07-09T13:49	10	159	0.1	159	159	468	0.8	467	470	20.3	39.4
2025-07-09T13:50	10	159	0.1	159	159	469	0.5	468	470	20.3	39.5
2025-07-09T13:51	10	159	0.1	159	159	470	0.8	468	471	20.1	39.3
2025-07-09T13:52	10	159	0.2	159	159	472	1.3	470	474	20.3	39.5
2025-07-09T13:53	10	159	0.1	159	159	474	1.2	471	476	20.6	39.4
2025-07-09T13:54	10	159	0.1	159	159	471	0.6	470	472	20.7	39.2
2025-07-09T13:55	10	159	0.2	159	159	470	1.6	467	472	20.7	39.0
2025-07-09T13:56	10	159	0.1	159	159	465	1.7	462	468	20.7	39.2
2025-07-09T13:57	10	160	0.6	159	161	464	1.0	463	466	20.3	39.2
2025-07-09T13:58	10	131	17.6	103	161	462	1.3	460	464	20.3	39.4
2025-07-09T13:59	10	162	6.5	143	166	467	2.5	462	470	20.4	39.4
2025-07-09T14:00	10	165	0.5	165	167	468	1.5	466	471	20.6	38.7
2025-07-09T14:01	10	167	0.3	167	168	470	1.3	468	473	21.1	38.7
2025-07-09T14:02	10	155	15.2	117	167	467	2.4	462	470	20.5	38.5
2025-07-09T14:03	10	88	16.9	65	116	457	4.2	452	465	20.3	39.1
2025-07-09T14:04	10					453	2.4	448	456	20.3	39.4
2025-07-09T14:05	10	54	5.8	44	67	445	2.4	441	450	20.3	39.6
2025-07-09T14:06	10	72	39.2	38	148	441	3.1	438	449	20.5	40.2
2025-07-09T14:07	10	160	5.2	147	164	453	3.5	446	458	20.0	39.4
2025-07-09T14:08	10	158	0.7	158	160	460	2.8	456	465	20.1	39.7
2025-07-09T14:09	10	158	0.2	157	158	464	1.0	462	465	20.2	39.5
2025-07-09T14:10	10	157	0.1	157	157	464	1.6	462	467	20.4	40.0
2025-07-09T14:11	10	158	0.6	157	159	463	0.8	461	464	20.0	39.9
2025-07-09T14:12	10	155	4.3	145	159	466	1.5	463	468	20.0	40.0
2025-07-09T14:13	10	154	2.7	147	157	468	1.2	466	470	20.3	40.4
2025-07-09T14:14	10	157	0.3	156	157	470	1.0	469	473	20.7	39.6
2025-07-09T14:15	10	156	0.1	156	156	468	0.4	468	469	20.7	38.9
2025-07-09T14:16	10	156	0.2	155	156	467	1.3	463	468	20.6	38.9
2025-07-09T14:17	10	155	0.2	155	156	463	0.6	462	464	20.2	39.5
2025-07-09T14:18	10	155	0.2	154	155	464	1.1	462	466	20.2	39.8
2025-07-09T14:19	10	154	0.2	154	154	466	0.4	466	467	20.3	39.8
2025-07-09T14:20	10	154	0.2	154	155	469	0.9	467	470	20.6	39.5
2025-07-09T14:21	10	155	0.2	154	155	471	0.9	470	473	20.9	39.3
2025-07-09T14:22	10	155	0.1	154	155	473	0.6	471	474	21.6	39.0
2025-07-09T14:23	10	154	0.5	153	155	466	2.1	463	471	20.8	39.0
2025-07-09T14:24	10	153	0.4	153	154	464	0.6	462	465	20.3	39.4
2025-07-09T14:25	10	153	0.7	153	155	465	0.6	465	467	20.6	39.8
2025-07-09T14:26	10	156	0.6	155	157	465	0.8	463	466	20.7	39.5
2025-07-09T14:27	10	156	0.3	156	157	467	0.8	466	469	20.9	39.8
2025-07-09T14:28	10	156	0.1	156	156	464	0.9	463	466	20.7	39.7
2025-07-09T14:29	10	157	0.2	156	157	466	1.0	464	468	20.6	39.8
2025-07-09T14:30	10	157	0.2	156	157	465	1.5	463	468	20.7	39.5
2025-07-09T14:31	10	156	0.1	156	156	466	1.1	464	468	20.5	39.6
2025-07-09T14:32	10	156	1.3	151	157	465	0.8	464	466	20.1	39.6
2025-07-09T14:33	10	59	48.4	19	150	456	9.1	442	468	20.3	40.7
2025-07-09T14:34	10	21	0.5	19	21	439	4.0	432	446	20.5	40.0
2025-07-09T14:35	10	25	10.7	19	61	431	1.3	429	434	20.2	40.1
2025-07-09T14:36	10	135	27.9	64	154	445	9.1	429	457	20.3	40.3
2025-07-09T14:37	10	154	0.4	153	154	460	3.3	453	465	20.5	40.3
2025-07-09T14:38	10	153	2.8	139	155	463	1.0	461	464	21.0	39.5
2025-07-09T14:39	10	75	29.8	46	136	451	6.4	443	462	20.5	38.8
2025-07-09T14:40	10	32	11.5	25	60	438	4.8	431	446	20.4	39.0
2025-07-09T14:41	10	74	53.0	24	157	433	4.3	430	444	20.3	39.3
2025-07-09T14:42	10	155	0.8	154	156	451	4.7	441	456	20.4	38.9
2025-07-09T14:43	10	151	1.2	149	153	459	2.3	454	462	20.8	38.8
2025-07-09T14:44	10	150	0.5	149	151	458	1.1	456	459	20.9	38.6
2025-07-09T14:45	10	148	0.4	148	149	457	0.5	456	458	20.8	38.5
2025-07-09T14:46	10	147	1.2	144	148	456	1.0	455	458	20.6	38.5
2025-07-09T14:47	10	143	0.9	141	144	458	1.5	456	461	20.7	38.8
2025-07-09T14:48	10	144	0.1	144	144	462	1.0	460	464	20.9	39.0
2025-07-09T14:49	10	144	0.1	144	144	461	0.5	460	462	20.9	38.9
2025-07-09T14:50	10	144	0.2	143	144	461	1.0	459	462	20.6	38.5
2025-07-09T14:51	10	144	0.1	143	144	461	0.8	460	463	20.4	39.0
2025-07-09T14:52	10	143	0.1	143	144	461	0.9	459	463	20.6	39.2
2025-07-09T14:53	10	143	0.1	143	144	464	0.7	462	465	21.4	39.4
2025-07-09T14:54	10	143	0.3	142	143	463	2.1	458	465	21.3	39.0
2025-07-09T14:55	10	141	0.5	140	142	458	0.9	456	459	20.7	39.1
2025-07-09T14:56	10	140	0.2	140	141	458	0.4	457	459	20.7	39.6
2025-07-09T14:57	10	140	0.1	140	140	456	0.5	456	457	20.7	39.1
2025-07-09T14:58	10	140	0.1	139	140	457	0.4	456	458	20.6	39.3
2025-07-09T14:59	10	140	0.1	140	140	456	0.5	455	457	20.5	39.3
2025-07-09T15:00	10	140	0.1	139	140	457	0.7	456	459	20.6	39.0
2025-07-09T15:01	10	140	0.2	140	140	458	0.6	457	459	20.6	38.5
2025-07-09T15:02	10	140	0.1	140	140	459	1.1	458	461	20.6	38.6
2025-07-09T15:03	10	140	0.2	140	141	460	0.9	459	462	20.9	38.4
2025-07-09T15:04	10	140	0.2	140	141	461	0.7	460	462	20.9	38.2
2025-07-09T15:05	10	139	0.3	139	140	460	1.2	458	462	20.6	38.2
2025-07-09T15:06	10	137	0.8	136	139	459	0.5	458	460	20.4	38.1
2025-07-09T15:07	10	136	0.1	136	137	462	1.1	460	464	20.8	39.3
2025-07-09T15:08	10	137	0.4	136	138	463	0.8	461	465	21.5	39.2
2025-07-09T15:09	10	137	0.2	137	137	459	0.9	458	461	21.4	38.5
2025-07-09T15:10	10	137	0.4	136	138	461	1.1	459	462	21.4	39.4
2025-07-09T15:11	10	137	0.4	136	138	459	2.8	454	462	21.6	38.3
2025-07-09T15:12	10	136	0.2	136	136	453	0.9	452	456	20.5	38.8
2025-07-09T15:13	10	135	0.3	135	136	452	0.9	451	454	20.5	40.0
2025-07-09T15:14	10	135	0.4	134	136	453	1.4	451	455	20.8	39.7
2025-07-09T15:15	10	134	0.2	134	135	453	0.9	452	454	21.0	39.4
2025-07-09T15:16	10	134	0.2	134	134	453	0.6	452	455	20.9	38.7
2025-07-09T15:17	10	133	0.2	133	134	452	0.7	451	454	20.5	37.0
2025-07-09T15:18	10	133	0.2	132	133	454	1.1	452	457	20.7	38.9
2025-07-09T15:19	10	132	0.2	132	133	456	1.0	454	458	21.2	39.4
2025-07-09T15:20	10	132	0.2	132	133	454	0.5	453	455	20.9	39.3
2025-07-09T15:21	10	132	0.2	132	133	456	0.9	454	458	20.8	39.5
2025-07-09T15:22	10	132	0.3	131	132	457	0.7	455	458	20.5	39.1
2025-07-09T15:23	10	132	0.2	131	132	456	0.8	455	458	20.5	39.3
2025-07-09T15:24	10	131	0.2	130	131	457	1.0	455	458	20.7	39.3
2025-07-09T15:25	10	131	0.3	130	132	455	1.1	453	458	20.9	39.5
2025-07-09T15:26	10	132	0.3	131	133	453	0.6	452	454	20.7	39.2
2025-07-09T15:27	10	132	0.4	131	133	453	0.9	452	454	20.8	38.7
2025-07-09T15:28	10	131	0.2	130	131	452	0.6	451	454	20.6	38.3
2025-07-09T15:29	10	130	0.5	129	131	454	0.3	453	455	20.6	37.7
2025-07-09T15:30	10	129	0.2	129	130	456	1.0	454	457	20.6	38.2
2025-07-09T15:31	10	128	0.6	127	129	456	0.8	454	457	20.8	38.3
2025-07-09T15:32	10	123	6.8	101	128	454	0.6	454	456	20.7	38.9
2025-07-09T15:33	10	91	20.2	69	127	449	2.8	445	455	20.8	38.7
2025-07-09T15:34	10	127	0.2	127	128	450	0.9	447	452	20.7	38.3
2025-07-09T15:35	10	127	0.2	127	128	452	0.8	450	453	20.5	38.3
2025-07-09T15:36	10	127	0.3	127	128	452	0.8	451	453	21.0	38.6
2025-07-09T15:37	10	127	0.2	127	128	452	0.9	450	454	20.8	36.8
2025-07-09T15:38	10	127	0.4	126	127	452	0.7	450	453	20.6	37.1
2025-07-09T15:39	10	125	0.3	125	126	451	1.2	449	453	20.5	37.3
2025-07-09T15:40	10	126	0.2	125	127	449	0.5	447	450	20.5	37.2
2025-07-09T15:41	10	125	0.4	124	126	452	0.9	450	453	21.3	36.7
2025-07-09T15:42	10	124	0.4	123	125	453	0.5	452	454	21.8	36.3
2025-07-09T15:43	10	123	0.2	123	124	453	0.9	451	454	21.1	35.7
2025-07-09T15:44	10	123	0.2	123	124	449	1.1	447	451	21.1	36.1
2025-07-09T15:45	10	123	0.2	123	124	448	1.6	446	450	21.0	36.3
2025-07-09T15:46	10	123	0.2	122	123	448	1.1	446	450	21.0	36.5
2025-07-09T15:47	10	122	0.2	122	123	450	0.6	448	451	21.0	36.4
2025-07-09T15:48	10	122	0.3	121	122	449	0.4	448	450	20.6	36.4
2025-07-09T15:49	10	121	0.2	121	122	452	1.1	450	453	21.0	37.2
2025-07-09T15:50	10	121	0.2	120	121	452	0.3	451	453	21.4	36.5
2025-07-09T15:51	10	121	0.1	120	121	453	0.5	452	454	21.2	35.2
2025-07-09T15:52	10	120	0.2	120	121	453	0.8	452	455	21.1	36.1
2025-07-09T15:53	10	120	0.2	119	120	451	0.7	450	453	21.2	36.2
2025-07-09T15:54	10	119	0.2	119	119	452	0.9	450	453	21.1	36.1
2025-07-09T15:55	10	118	0.2	118	119	449	1.1	447	450	20.9	37.2
2025-07-09T15:56	10	118	0.2	117	118	449	0.7	448	450	20.9	37.9
2025-07-09T15:57	10	117	0.1	117	118	448	0.9	447	450	21.1	38.1
2025-07-09T15:58	10	117	0.2	117	117	448	0.3	447	448	20.9	38.3
2025-07-09T15:59	10	117	0.2	116	117	447	0.5	446	448	20.6	38.6
2025-07-09T16:00	10	116	0.1	116	117	447	0.4	446	448	20.5	38.8
2025-07-09T16:01	10	116	0.1	116	116	448	0.3	447	448	20.6	38.7
2025-07-09T16:02	10	116	0.1	115	116	449	0.5	448	450	21.1	39.0
2025-07-09T16:03	10	115	0.1	115	116	446	1.6	444	448	21.0	38.9
2025-07-09T16:04	10	115	0.2	115	115	445	0.5	444	446	21.0	38.8
2025-07-09T16:05	10	115	0.2	114	115	444	0.7	442	445	20.8	39.2
2025-07-09T16:06	10	114	0.2	114	114	446	1.1	444	448	21.0	39.1
2025-07-09T16:07	10	114	0.1	113	114	447	0.3	446	448	21.0	39.2
2025-07-09T16:08	10	113	0.2	113	114	445	1.3	444	448	21.2	38.7
2025-07-09T16:09	10	113	0.3	112	113	443	0.3	442	444	21.0	38.5
2025-07-09T16:10	10	112	0.2	111	112	443	0.6	441	444	20.9	38.7
2025-07-09T16:11	10	111	0.2	111	112	442	0.6	441	443	20.6	38.8
2025-07-09T16:12	10	111	0.2	111	111	444	0.4	443	445	20.8	38.8
2025-07-09T16:13	10	110	0.2	110	111	442	0.7	441	444	20.9	38.9
2025-07-09T16:14	10	110	0.1	110	110	443	0.6	442	444	21.0	39.0
2025-07-09T16:15	10	109	0.2	109	110	443	0.4	442	444	20.9	39.2
2025-07-09T16:16	10	109	0.2	108	109	442	0.3	441	442	21.0	39.2
2025-07-09T16:17	10	108	0.2	108	108	443	0.6	441	444	21.2	39.3
2025-07-09T16:18	10	108	0.1	107	108	441	0.3	441	442	20.7	39.5
2025-07-09T16:19	10	107	0.1	107	108	441	0.4	440	442	20.8	39.5
2025-07-09T16:20	10	107	0.1	107	107	440	0.8	438	441	20.9	39.2
2025-07-09T16:21	10	107	0.2	106	107	440	1.2	439	442	20.6	39.7
2025-07-09T16:22	10	106	0.2	106	107	442	0.4	441	443	20.7	39.8
2025-07-09T16:23	10	106	0.2	105	106	442	0.6	441	444	20.8	40.3
2025-07-09T16:24	10	105	0.2	105	105	443	0.3	442	444	21.1	39.9
2025-07-09T16:25	10	104	0.2	104	105	442	0.6	441	443	21.0	39.8
2025-07-09T16:26	10	104	0.2	104	104	441	0.2	441	442	21.0	40.0
2025-07-09T16:27	10	103	0.2	103	104	440	0.5	440	442	20.8	40.0
2025-07-09T16:28	10	103	0.1	103	103	441	0.3	440	441	21.0	40.4
2025-07-09T16:29	10	103	0.1	102	103	440	0.4	439	441	20.9	40.1
2025-07-09T16:30	10	102	0.2	102	103	439	0.6	438	440	20.8	40.3
2025-07-09T16:31	10	101	0.2	101	102	437	0.3	437	438	20.8	40.3
2025-07-09T16:32	10	101	0.1	101	101	439	1.2	437	441	20.9	40.3
2025-07-09T16:33	10	100	0.1	100	101	440	0.3	440	441	21.4	40.2
2025-07-09T16:34	10	100	0.1	100	100	441	0.7	440	442	21.5	40.0
2025-07-09T16:35	10	100	0.1	99	100	441	0.9	440	443	21.2	39.6
2025-07-09T16:36	10	99	0.2	99	100	440	1.5	437	442	21.2	40.5
2025-07-09T16:37	10	99	0.3	98	99	436	0.8	435	438	20.6	40.0
2025-07-09T16:38	10	98	0.2	97	98	437	0.5	436	438	20.7	40.8
2025-07-09T16:39	10	97	0.2	97	97	438	0.3	438	439	20.9	40.9
2025-07-09T16:40	10	97	0.2	96	97	437	0.5	436	438	20.8	40.4
2025-07-09T16:41	10	96	0.1	96	96	436	0.3	436	437	20.8	40.4
2025-07-09T16:42	10	95	0.2	95	96	436	0.3	436	437	21.0	41.0
2025-07-09T16:43	10	95	0.2	95	95	435	0.4	434	436	20.8	39.8
2025-07-09T16:44	10	94	0.2	94	95	434	0.3	434	435	20.5	40.4
2025-07-09T16:45	10	94	0.2	94	94	436	0.8	434	437	20.7	40.5
2025-07-09T16:46	10	93	0.1	93	94	435	0.7	434	437	21.0	40.0
2025-07-09T16:47	10	93	0.1	92	93	434	0.4	433	435	21.0	39.5
2025-07-09T16:48	10	92	0.2	92	93	434	0.9	433	436	21.1	39.8
2025-07-09T16:49	10	92	0.2	91	92	436	0.2	435	436	21.3	39.7
2025-07-09T16:50	10	91	0.2	91	91	435	0.5	434	436	21.3	40.0
2025-07-09T16:51	10	91	0.2	91	91	433	0.4	432	434	20.9	39.7
2025-07-09T16:52	10	90	0.2	90	91	434	0.3	433	434	20.9	40.2
2025-07-09T16:53	10	90	0.2	89	90	433	0.9	431	434	20.8	39.6
2025-07-09T16:54	10	89	0.2	89	90	431	0.3	430	432	20.7	39.6
2025-07-09T16:55	10	89	0.2	88	89	432	0.5	431	433	20.9	39.8
2025-07-09T16:56	10	88	0.2	88	88	433	0.4	432	433	21.1	40.1
2025-07-09T16:57	10	87	0.2	87	88	432	0.6	431	433	20.8	40.6
2025-07-09T16:58	10	87	0.1	86	87	431	0.3	431	432	20.6	40.7
2025-07-09T16:59	10	86	0.2	86	87	432	0.3	431	432	20.8	40.9
2025-07-09T17:00	10	86	0.2	85	86	432	0.3	431	432	20.9	40.2
2025-07-09T17:01	10	85	0.1	85	86	430	0.8	429	431	20.6	39.1
2025-07-09T17:02	10	85	0.2	84	85	429	0.3	428	430	20.6	39.4
2025-07-09T17:03	10	84	0.2	84	85	430	0.3	429	430	20.8	39.9
2025-07-09T17:04	10	84	0.2	83	84	430	0.4	429	431	20.7	40.5
2025-07-09T17:05	10	83	0.2	83	83	429	0.4	429	430	20.8	40.9
2025-07-09T17:06	10	83	0.2	82	83	430	0.4	429	431	20.9	40.9
2025-07-09T17:07	10	82	0.2	82	82	429	0.9	427	430	20.6	40.6
2025-07-09T17:08	10	81	0.2	81	82	428	0.4	427	429	20.6	40.8
2025-07-09T17:09	10	81	0.2	80	81	429	0.5	428	430	20.8	40.7
2025-07-09T17:10	10	80	0.2	80	80	428	0.3	427	429	20.7	40.9
2025-07-09T17:11	10	80	0.2	79	80	429	0.5	428	430	20.8	41.0
2025-07-09T17:12	10	79	0.2	79	79	429	0.4	428	429	20.7	40.5
2025-07-09T17:13	10	78	0.2	78	79	428	0.3	428	429	20.7	41.0
2025-07-09T17:14	10	78	0.2	77	78	428	0.3	427	429	20.9	40.5
2025-07-09T17:15	10	77	0.2	77	77	428	0.3	427	428	20.8	40.3
2025-07-09T17:16	10	76	0.2	76	77	428	0.3	427	429	20.8	40.1
2025-07-09T17:17	10	76	0.2	75	76	428	0.3	427	429	20.9	40.4
2025-07-09T17:18	10	75	0.2	75	76	428	0.3	428	429	20.9	40.7
2025-07-09T17:19	10	75	0.2	74	75	428	0.4	427	429	20.8	40.8
2025-07-09T17:20	10	74	0.2	74	75	426	0.6	425	427	20.8	41.2
2025-07-09T17:21	10	74	0.2	73	74	424	0.7	423	426	20.6	40.5
2025-07-09T17:22	10	73	0.2	73	74	424	0.3	423	425	20.5	40.9
2025-07-09T17:23	10	72	0.2	72	73	425	0.3	424	425	20.6	41.1
2025-07-09T17:24	10	72	0.2	71	72	425	0.3	424	425	20.6	40.7
2025-07-09T17:25	10	71	0.2	71	72	425	0.3	424	426	20.7	41.1
2025-07-09T17:26	10	71	0.2	70	71	424	0.4	423	425	20.7	40.5
2025-07-09T17:27	10	70	0.2	70	70	424	0.2	423	424	20.6	40.3
2025-07-09T17:28	10	70	0.2	69	70	423	0.4	422	424	20.6	40.2
2025-07-09T17:29	10	69	0.2	69	69	423	0.3	422	423	20.6	40.5
2025-07-09T17:30	10	68	0.1	68	69	423	0.4	422	424	20.6	40.8
2025-07-09T17:31	10	68	0.2	68	68	424	0.2	423	424	20.6	40.8
2025-07-09T17:32	10	67	0.2	67	68	423	0.3	423	424	20.6	40.6
2025-07-09T17:33	10	67	0.2	66	67	422	0.4	421	423	20.6	40.3
2025-07-09T17:34	10	66	0.2	66	66	421	0.4	420	421	20.6	39.8
2025-07-09T17:35	10	66	0.2	65	66	420	0.2	420	421	20.5	39.8
2025-07-09T17:36	10	65	0.2	65	65	420	0.4	419	421	20.5	39.9
2025-07-09T17:37	10	64	0.3	64	65	420	0.3	419	420	20.5	40.0
2025-07-09T17:38	10	64	0.2	63	64	419	0.3	419	420	20.6	39.9
2025-07-09T17:39	10	63	0.2	63	63	420	0.4	419	421	20.6	40.0
2025-07-09T17:40	10	62	0.2	62	63	420	0.3	420	421	20.7	40.3
2025-07-09T17:41	10	62	0.2	61	62	420	0.2	420	421	20.8	40.5
2025-07-09T17:42	10	61	0.2	61	62	420	0.4	419	421	20.7	40.7
2025-07-09T17:43	10	61	0.2	60	61	419	0.2	419	420	20.6	40.3
2025-07-09T17:44	10	60	0.2	60	61	419	0.2	418	419	20.5	40.6
2025-07-09T17:45	10	59	0.2	59	60	419	0.2	418	420	20.6	41.0
2025-07-09T17:46	10	59	0.2	58	59	419	0.2	418	419	20.5	41.1
2025-07-09T17:47	10	58	0.2	58	58	419	0.2	418	419	20.6	41.2
2025-07-09T17:48	10	57	0.2	57	58	419	0.2	418	419	20.6	41.2
2025-07-09T17:49	10	57	0.2	56	57	418	0.3	417	419	20.7	40.3
2025-07-09T17:50	10	56	0.2	56	57	417	0.3	416	418	20.6	40.1
2025-07-09T17:51	10	56	0.3	55	56	417	0.3	416	417	20.5	39.7
2025-07-09T17:52	10	55	0.2	54	55	416	0.2	415	416	20.5	39.4
2025-07-09T17:53	10	54	0.2	54	54	416	0.2	415	416	20.5	39.5
2025-07-09T17:54	10	53	0.2	53	54	416	0.2	415	416	20.5	39.3
2025-07-09T17:55	10	53	0.2	52	53	416	0.2	415	416	20.5	39.7
2025-07-09T17:56	10	52	0.2	52	53	415	0.2	415	416	20.6	39.8
2025-07-09T17:57	10	51	0.2	51	52	415	0.3	415	416	20.6	39.9
2025-07-09T17:58	10	51	0.2	50	51	415	0.2	415	416	20.7	39.8
2025-07-09T17:59	10	50	0.2	50	51	415	0.3	414	415	20.6	39.9
2025-07-09T18:00	10	50	0.2	49	50	414	0.3	413	414	20.5	39.9
2025-07-09T18:01	10	49	0.2	49	49	414	0.3	413	414	20.5	39.8
2025-07-09T18:02	10	48	0.2	48	49	414	0.3	414	415	20.6	40.5
2025-07-09T18:03	10	48	0.2	47	48	414	0.3	413	414	20.6	40.3
2025-07-09T18:04	10	47	0.2	47	47	413	0.3	413	414	20.5	40.4
2025-07-09T18:05	10	46	0.2	46	47	413	0.3	412	413	20.5	40.5
2025-07-09T18:06	10	46	0.2	45	46	412	0.2	412	413	20.5	40.9
2025-07-09T18:07	10	45	0.2	44	45	412	0.3	412	413	20.5	41.4
2025-07-09T18:08	10	44	0.3	44	45	412	0.2	411	412	20.5	41.5
2025-07-09T18:09	10	43	0.2	43	44	412	0.2	411	412	20.4	42.1
2025-07-09T18:10	10	43	0.2	42	43	411	0.3	410	411	20.3	42.2
2025-07-09T18:11	10	42	0.2	41	42	411	0.3	410	411	20.3	42.4
2025-07-09T18:12	10	41	0.2	41	42	410	0.3	410	411	20.2	42.8
2025-07-09T18:13	10	40	0.2	40	41	410	0.2	410	411	20.2	43.0
2025-07-09T18:14	10	40	0.2	39	40	410	0.2	409	410	20.3	43.4
2025-07-09T18:15	10	39	0.2	39	40	410	0.2	409	410	20.2	43.6
2025-07-09T18:16	10	39	0.2	38	39	409	0.2	409	410	20.2	43.8
2025-07-09T18:17	10	38	0.2	37	38	409	0.2	409	410	20.2	43.8
2025-07-09T18:18	10	37	0.2	37	37	409	0.2	408	410	20.2	44.2
2025-07-09T18:19	10	36	0.3	36	37	409	0.2	408	409	20.2	44.1
2025-07-09T18:20	10	36	0.2	35	36	408	0.2	408	409	20.1	44.3
2025-07-09T18:21	10	35	0.2	35	35	408	0.3	408	409	20.1	44.3
2025-07-09T18:22	10	34	0.3	34	35	408	0.2	408	408	20.1	43.9
2025-07-09T18:23	10	34	0.3	33	34	407	0.3	407	408	20.1	44.0
2025-07-09T18:24	10	33	0.3	32	34	407	0.3	407	408	20.1	43.9
2025-07-09T18:25	10	32	0.3	32	33	407	0.3	406	408	20.1	44.0
2025-07-09T18:26	10	32	0.3	31	32	407	0.3	406	407	20.0	44.1
2025-07-09T18:27	10	31	0.2	30	31	406	0.2	406	407	20.1	44.0
2025-07-09T18:28	10	30	0.2	29	30	406	0.2	406	406	20.0	44.0
2025-07-09T18:29	10	29	0.3	29	31	406	0.2	405	406	20.0	44.2
2025-07-09T18:30	10	29	0.2	28	29	405	0.3	405	406	20.0	44.4
2025-07-09T18:31	10	28	0.2	27	28	405	0.2	405	405	20.0	44.4
2025-07-09T18:32	10	27	0.2	27	27	405	0.3	404	406	19.9	44.3
2025-07-09T18:33	10	27	0.2	26	27	405	0.2	404	405	19.9	44.4
2025-07-09T18:34	10	26	0.2	26	26	404	0.2	403	405	19.9	44.6
2025-07-09T18:35	10	25	0.2	25	26	404	0.2	403	404	19.9	44.9
2025-07-09T18:36	10	25	0.2	24	25	403	0.3	403	404	19.9	44.9
2025-07-09T18:37	10	24	0.2	24	24	403	0.3	403	404	19.9	44.5
2025-07-09T18:38	10	23	0.2	23	24	403	0.3	402	404	19.8	45.0
2025-07-09T18:39	10	23	0.2	22	23	402	0.2	402	403	19.8	45.2
2025-07-09T18:40	10	22	0.2	21	22	402	0.3	402	403	19.8	44.8
2025-07-09T18:41	10	21	0.2	21	22	402	0.2	401	402	19.8	45.4
2025-07-09T18:42	10	21	0.2	20	21	401	0.3	400	402	19.7	45.3
2025-07-09T18:43	10	20	0.2	20	21	401	0.3	400	401	19.7	45.3
2025-07-09T18:44	10	19	0.2	19	20	400	0.3	400	401	19.7	45.3
2025-07-09T18:45	10	19	0.2	18	19	400	0.2	399	400	19.7	45.2
2025-07-09T18:46	10	18	0.2	18	19	400	0.3	400	401	19.7	45.6
2025-07-09T18:47	10	18	0.2	17	18	400	0.2	399	400	19.6	45.5
2025-07-09T18:48	10	17	0.2	16	17	399	0.2	399	400	19.6	45.4
2025-07-09T18:49	10	16	0.2	16	17	399	0.3	399	400	19.6	45.7
2025-07-09T18:50	10	16	0.2	15	16	399	0.2	399	399	19.6	45.7
2025-07-09T18:51	10	15	0.2	14	15	399	0.3	398	399	19.6	45.9
2025-07-09T18:52	10	14	0.2	14	14	398	0.4	397	398	19.5	46.3
2025-07-09T18:53	10	13	0.2	13	14	397	0.3	397	398	19.5	46.3
2025-07-09T18:54	10	13	0.2	12	13	398	0.3	397	398	19.5	46.4
2025-07-09T18:55	10	12	0.2	11	12	398	0.3	397	398	19.4	46.7
2025-07-09T18:56	10	11	0.3	10	12	397	0.3	396	397	19.4	47.1
2025-07-09T18:57	10	10	0.3	10	11	396	0.4	395	397	19.3	47.5
2025-07-09T18:58	10	9	0.3	8	10	395	0.3	395	396	19.3	47.6
2025-07-09T18:59	10	8	0.3	8	9	395	0.4	394	396	19.3	47.7
2025-07-09T19:00	10	7	0.2	7	8	394	0.3	394	395	19.2	48.0
2025-07-09T19:01	10	7	0.2	6	7	394	0.3	393	394	19.2	48.1
2025-07-09T19:02	10	6	0.2	6	6	392	0.3	392	393	19.1	48.3
2025-07-09T19:03	10	6	0.1	5	6	392	0.2	392	392	19.1	48.6
2025-07-09T19:04	10	5	0.2	5	6	392	0.2	392	393	19.0	48.9
2025-07-09T19:05	10	5	0.3	4	5	393	0.3	392	393	19.1	48.3
2025-07-09T19:06	10	4	0.3	3	4	392	0.3	392	393	19.0	48.7
2025-07-09T19:07	10	3	0.2	2	3	392	0.4	391	393	19.0	48.5
2025-07-09T19:08	10	2	0.1	2	3	393	0.4	393	394	19.1	47.9
2025-07-09T19:09	10	2	0.1	2	2	393	0.2	393	394	19.0	48.4
2025-07-09T19:10	10	2	0.1	2	2	392	0.5	391	393	18.9	49.1
2025-07-09T19:11	10	2	0.1	2	2	391	0.3	390	391	18.8	49.5
2025-07-09T19:12	10	2	0.1	2	2	391	0.3	390	391	18.9	49.1
2025-07-09T19:13	10	2	0.1	2	2	390	0.3	390	391	18.8	49.6
2025-07-09T19:14	10	2	0.1	2	2	391	0.2	390	392	18.8	49.6
2025-07-09T19:15	10	2	0.1	2	2	390	0.4	389	391	18.7	49.9
2025-07-09T19:16	10	2	0.1	1	2	390	0.3	390	391	18.8	49.5
2025-07-09T19:17	10	2	0.1	1	2	390	0.4	389	391	18.7	49.8
2025-07-09T19:18	10	2	0.1	1	2	389	0.3	389	390	18.5	50.6
2025-07-09T19:19	10	1	0.2	1	2	388	0.3	387	388	18.5	50.8
2025-07-09T19:20	10	1	0.1	1	2	387	0.6	386	389	18.5	50.6
2025-07-09T19:21	10	1	0.1	1	2	388	0.4	388	389	18.5	50.7
2025-07-09T19:22	10	1	0.2	1	2	387	0.2	386	388	18.4	51.3
2025-07-09T19:23	10	1	0.2	1	2	387	0.6	386	388	18.3	51.4
2025-07-09T19:24	10	1	0.2	1	2	387	0.3	387	388	18.3	51.6
2025-07-09T19:25	10	1	0.1	1	1	387	0.4	386	388	18.3	51.3
2025-07-09T19:26	10	1	0.2	0	1	387	0.2	386	387	18.2	51.8
2025-07-09T19:27	10	1	0.1	1	1	387	0.2	386	387	18.1	52.1
2025-07-09T19:28	10	1	0.1	0	1	386	0.3	386	387	18.1	52.2
2025-07-09T19:29	10	1	0.1	1	1	385	0.3	385	386	18.0	52.6
2025-07-09T19:30	10	1	0.1	1	1	385	0.2	384	385	18.0	52.8
2025-07-09T19:31	10	1	0.1	0	1	385	0.3	384	385	18.0	52.8
2025-07-09T19:32	10	1	0.1	0	1	385	0.2	384	385	18.0	52.9
2025-07-09T19:33	10	0	0.1	0	1	384	0.3	383	385	17.9	53.2
2025-07-09T19:34	10	0	0.1	0	1	384	0.3	383	384	17.9	53.2
2025-07-09T19:35	10	0	0.1	0	1	384	0.4	384	385	17.8	53.4
2025-07-09T19:36	10	0	0.1	0	0	384	0.3	383	385	17.8	53.7
2025-07-09T19:37	10	0	0.1	0	0	383	0.3	382	384	17.8	53.7
2025-07-09T19:38	10	0	0.0	0	0	384	0.4	383	384	17.8	53.7
2025-07-09T19:39	10	0	0.0	0	0	383	0.3	383	384	17.7	54.1
2025-07-09T19:40	10	0	0.1	0	0	383	0.2	382	384	17.6	54.4
2025-07-09T19:41	10	0	0.1	0	0	383	0.2	383	384	17.6	54.5
2025-07-09T19:42	10	0	0.1	0	0	383	0.3	383	384	17.6	54.6
2025-07-09T19:43	10	0	0.1	0	0	383	0.2	382	384	17.6	54.8
2025-07-09T19:44	10	0	0.1	0	0	382	0.2	382	383	17.5	55.1
2025-07-09T19:45	10	0	0.1	0	0	383	0.4	382	383	17.6	54.6
2025-07-09T19:46	10	0	0.1	0	0	383	0.2	382	383	17.6	54.3
2025-07-09T19:47	10	0	0.1	0	0	383	0.3	382	383	17.7	54.1
2025-07-09T19:48	10	0	0.1	0	0	382	0.3	382	383	17.7	54.2
2025-07-09T19:49	10	0	0.1	0	0	381	0.2	381	382	17.5	54.8
2025-07-09T19:50	10	0	0.1	0	0	381	0.3	380	381	17.5	55.1
2025-07-09T19:51	10	0	0.1	0	0	381	0.4	380	382	17.5	55.1
2025-07-09T19:52	10	0	0.1	0	0	380	0.4	379	380	17.4	55.9
2025-07-09T19:53	10	0	0.1	0	0	379	0.3	378	379	17.3	55.8
2025-07-09T19:54	10	0	0.1	0	0	379	0.4	378	380	17.3	56.0
2025-07-09T19:55	10	0	0.1	0	0	378	0.4	377	379	17.3	55.8
2025-07-09T19:56	10	0	0.1	0	0	378	0.4	377	379	17.3	56.1
2025-07-09T19:57	10	0	0.1	0	0	378	0.2	377	379	17.2	56.4
2025-07-09T19:58	10	0	0.1	0	0	377	0.3	377	378	17.0	57.5
2025-07-09T19:59	10	0	0.1	0	0	376	0.2	376	377	17.0	57.7
2025-07-09T20:00	10	0	0.1	0	0	376	0.3	375	376	17.1	57.1
2025-07-09T20:01	10	0	0.1	0	0	375	0.3	375	376	17.0	57.6
2025-07-09T20:02	10	0	0.1	0	0	375	0.2	374	375	16.9	58.2
2025-07-09T20:03	10	0	0.1	0	0	375	0.2	374	375	16.9	58.4
2025-07-09T20:04	10	0	0.1	0	0	374	0.2	374	375	16.8	58.9
2025-07-09T20:05	10	0	0.1	0	0	374	0.3	374	375	16.8	59.0
2025-07-09T20:06	10	0	0.1	0	0	374	0.2	373	374	16.8	59.0
2025-07-09T20:07	10	0	0.1	0	0	373	0.2	373	374	16.7	59.3
2025-07-09T20:08	10	0	0.2	-1	0	373	0.3	373	374	16.7	59.2
2025-07-09T20:09	10	0	0.2	-1	0	373	0.3	373	374	16.7	59.3
2025-07-09T20:10	10	0	0.1	0	0	373	0.2	373	374	16.6	59.8
2025-07-09T20:11	10	0	0.1	0	0	373	0.2	372	373	16.6	60.1
2025-07-09T20:12	10	0	0.1	0	0	373	0.2	373	373	16.6	60.1
2025-07-09T20:13	10	0	0.1	0	0	373	0.3	372	373	16.5	60.2
2025-07-09T20:14	10	0	0.1	0	0	372	0.2	372	373	16.5	60.7
2025-07-09T20:15	10	0	0.1	0	0	372	0.2	371	372	16.5	60.4
2025-07-09T20:16	10	0	0.1	0	0	371	0.2	371	372	16.4	60.9
2025-07-09T20:17	10	0	0.1	0	0	371	0.2	370	371	16.4	60.8
2025-07-09T20:18	10	0	0.1	0	0	371	0.2	370	371	16.5	59.9
2025-07-09T20:19	10	0	0.1	0	0	370	0.2	370	371	16.5	59.7
2025-07-09T20:20	10	0	0.1	0	0	370	0.3	370	371	16.5	59.6
2025-07-09T20:21	10	0	0.1	0	0	370	0.2	370	371	16.5	59.5
2025-07-09T20:22	10	0	0.1	0	0	370	0.2	369	370	16.5	59.4
2025-07-09T20:23	10	0	0.1	0	0	370	0.2	369	370	16.5	59.5
2025-07-09T20:24	10	0	0.1	0	0	369	0.2	369	370	16.4	59.9
2025-07-09T20:25	10	0	0.1	0	0	369	0.2	369	370	16.4	60.0
2025-07-09T20:26	10	0	0.1	0	0	370	0.3	369	370	16.4	59.8
2025-07-09T20:27	10	0	0.1	0	0	370	0.2	369	370	16.4	59.7
2025-07-09T20:28	10	0	0.1	0	0	370	0.2	369	370	16.5	59.3
2025-07-09T20:29	10	0	0.1	0	0	370	0.3	369	370	16.5	59.5
2025-07-09T20:30	10	0	0.1	0	0	370	0.2	370	371	16.5	59.3
2025-07-09T20:31	10	0	0.1	0	0	369	0.3	369	370	16.5	59.4
2025-07-09T20:32	10	0	0.1	0	0	370	0.2	369	370	16.5	59.1
2025-07-09T20:33	10	0	0.1	0	0	370	0.2	369	370	16.6	58.9
2025-07-09T20:34	10	0	0.1	0	0	369	0.2	368	369	16.5	59.2
2025-07-09T20:35	10	0	0.1	0	0	369	0.2	368	369	16.4	59.6
2025-07-09T20:36	10	0	0.1	0	0	369	0.2	368	369	16.4	59.9
2025-07-09T20:37	10	0	0.1	0	0	369	0.2	368	369	16.4	59.8
2025-07-09T20:38	10	0	0.1	0	0	368	0.2	368	369	16.3	60.2
2025-07-09T20:39	10	0	0.1	0	0	368	0.3	367	368	16.3	60.3
2025-07-09T20:40	10	0	0.1	0	0	368	0.2	367	368	16.3	60.1
2025-07-09T20:41	10	0	0.1	0	0	368	0.2	367	368	16.3	60.0
2025-07-09T20:42	10	0	0.1	0	0	368	0.2	367	368	16.3	60.0
2025-07-09T20:43	10	0	0.1	0	0	368	0.2	367	368	16.3	60.3
2025-07-09T20:44	10	0	0.1	0	0	367	0.2	367	368	16.2	60.3
2025-07-09T20:45	10	0	0.1	0	0	368	0.3	367	368	16.3	60.1
2025-07-09T20:46	10	0	0.1	0	0	368	0.2	368	369	16.4	59.6
2025-07-09T20:47	10	0	0.1	0	0	368	0.4	368	369	16.4	59.6
2025-07-09T20:48	10	0	0.1	0	0	368	0.4	368	369	16.4	59.3
2025-07-09T20:49	10	0	0.1	0	0	368	0.2	368	369	16.4	59.3
2025-07-09T20:50	10	0	0.1	0	0	368	0.2	367	368	16.4	59.6
2025-07-09T20:51	10	0	0.1	0	0	368	0.2	368	368	16.3	59.8
2025-07-09T20:52	10	0	0.1	0	0	368	0.2	367	368	16.3	59.6
2025-07-09T20:53	10	0	0.1	0	0	368	0.2	367	368	16.3	59.9
2025-07-09T20:54	10	0	0.1	0	0	367	0.2	367	368	16.3	59.9
2025-07-09T20:55	10	0	0.1	0	0	367	0.3	367	368	16.2	60.1
2025-07-09T20:56	10	0	0.1	0	0	367	0.2	367	368	16.2	60.3
2025-07-09T20:57	10	0	0.1	0	0	367	0.2	366	367	16.1	60.5
2025-07-09T20:58	10	0	0.1	0	0	367	0.2	366	367	16.1	60.4
2025-07-09T20:59	10	0	0.1	0	0	367	0.2	366	367	16.1	60.4
2025-07-09T21:00	10	0	0.1	0	0	367	0.3	366	367	16.1	60.5
2025-07-09T21:01	10	0	0.1	0	0	367	0.2	367	368	16.0	60.7
2025-07-09T21:02	10	0	0.1	0	0	368	0.3	367	368	16.1	60.3
2025-07-09T21:03	10	0	0.1	0	0	368	0.3	368	369	16.1	60.5
2025-07-09T21:04	10	0	0.1	0	0	368	0.3	368	369	16.1	60.2
2025-07-09T21:05	10	0	0.1	0	0	368	0.2	368	369	16.1	60.3
2025-07-09T21:06	10	0	0.2	0	0	369	0.3	368	369	16.0	60.6
2025-07-09T21:07	10	0	0.1	0	0	369	0.4	368	370	16.0	60.8
2025-07-09T21:08	10	0	0.1	0	0	369	0.3	369	370	16.0	60.6
2025-07-09T21:09	10	0	0.1	0	0	370	0.3	369	370	16.0	60.7
2025-07-09T21:10	10	0	0.2	0	0	369	0.3	369	370	15.9	60.9
2025-07-09T21:11	10	0	0.1	0	0	369	0.2	369	370	15.9	60.8
2025-07-09T21:12	10	0	0.1	0	0	370	0.2	369	370	15.9	61.2
2025-07-09T21:13	10	0	0.1	0	0	370	0.3	369	370	15.9	61.2
2025-07-09T21:14	10	0	0.1	0	0	370	0.3	370	371	15.9	61.0
2025-07-09T21:15	10	0	0.1	0	0	370	0.2	370	371	15.9	61.2
2025-07-09T21:16	10	0	0.1	0	0	371	0.2	370	371	16.0	60.8
2025-07-09T21:17	10	0	0.1	0	0	371	0.2	370	371	16.0	60.9
2025-07-09T21:18	10	0	0.1	0	0	371	0.3	370	371	15.9	60.9
2025-07-09T21:19	10	0	0.1	0	0	370	0.2	370	371	15.9	61.1
2025-07-09T21:20	10	0	0.1	0	0	370	0.3	369	371	15.9	61.0
2025-07-09T21:21	10	0	0.1	0	0	370	0.3	370	371	16.0	60.7
2025-07-09T21:22	10	0	0.1	0	0	370	0.3	369	371	15.9	61.2
2025-07-09T21:23	10	0	0.1	0	0	370	0.2	369	370	15.9	61.2
2025-07-09T21:24	10	0	0.1	0	0	369	0.4	369	370	15.9	61.5
2025-07-09T21:25	10	0	0.1	0	0	369	0.3	369	370	15.9	61.4
2025-07-09T21:26	10	0	0.1	0	0	371	0.4	369	371	15.9	61.4
2025-07-09T21:27	10	0	0.1	0	0	370	0.3	370	371	15.8	62.1
2025-07-09T21:28	10	0	0.1	0	0	370	0.3	369	371	15.6	62.6
2025-07-09T21:29	10	0	0.1	0	0	370	0.2	369	370	15.6	62.8
2025-07-09T21:30	10	0	0.1	0	0	369	0.2	369	370	15.6	62.9
2025-07-09T21:31	10	0	0.1	0	0	369	0.2	369	370	15.6	62.8
2025-07-09T21:32	10	0	0.1	0	0	370	0.3	369	371	15.6	62.8
2025-07-09T21:33	10	0	0.1	0	0	370	0.3	369	371	15.6	62.9
2025-07-09T21:34	10	0	0.1	0	0	370	0.3	370	371	15.6	63.0
2025-07-09T21:35	10	0	0.1	0	0	370	0.2	370	371	15.6	63.0
2025-07-09T21:36	10	0	0.1	0	0	370	0.2	369	370	15.5	63.2
2025-07-09T21:37	10	0	0.1	0	0	370	0.4	369	370	15.6	63.0
2025-07-09T21:38	10	0	0.1	0	0	369	0.3	368	369	15.6	63.1
2025-07-09T21:39	10	0	0.1	0	0	368	0.3	368	369	15.6	62.8
2025-07-09T21:40	10	0	0.1	0	0	368	0.3	367	369	15.5	63.1
2025-07-09T21:41	10	0	0.1	0	0	368	0.2	367	368	15.5	63.1
2025-07-09T21:42	10	0	0.1	0	0	367	0.2	367	368	15.6	62.9
2025-07-09T21:43	10	0	0.1	0	0	367	0.2	366	367	15.5	63.2
2025-07-09T21:44	10	0	0.1	0	0	367	0.2	366	367	15.4	63.4
2025-07-09T21:45	10	0	0.1	0	0	366	0.2	366	367	15.5	63.3
2025-07-09T21:46	10	0	0.1	0	0	366	0.3	365	367	15.5	63.4
2025-07-09T21:47	10	0	0.1	0	0	367	0.2	366	367	15.4	63.4
2025-07-09T21:48	10	0	0.1	0	0	367	0.3	366	367	15.4	63.4
2025-07-09T21:49	10	0	0.1	0	0	368	0.4	367	368	15.4	63.5
2025-07-09T21:50	10	0	0.1	0	0	368	0.4	367	369	15.4	63.6
2025-07-09T21:51	10	0	0.1	0	0	368	0.3	368	369	15.4	63.5
2025-07-09T21:52	10	0	0.1	0	0	369	0.3	368	369	15.4	63.5
2025-07-09T21:53	10	0	0.1	0	0	369	0.3	368	370	15.4	63.8
2025-07-09T21:54	10	0	0.1	0	0	369	0.4	369	371	15.4	63.5
2025-07-09T21:55	10	0	0.1	0	0	370	0.3	369	371	15.4	63.5
2025-07-09T21:56	10	0	0.1	0	0	370	0.4	369	371	15.5	63.1
2025-07-09T21:57	10	0	0.1	0	0	370	0.2	370	371	15.6	62.8
2025-07-09T21:58	10	0	0.1	0	0	370	0.3	370	371	15.6	62.9
2025-07-09T21:59	10	0	0.1	0	0	370	0.2	369	370	15.6	63.0
2025-07-09T22:00	10	0	0.1	0	0	369	0.2	369	370	15.5	63.0
2025-07-09T22:01	10	0	0.1	0	0	370	0.2	369	370	15.5	63.2
2025-07-09T22:02	10	0	0.1	0	0	370	0.2	369	370	15.4	63.6
2025-07-09T22:03	10	0	0.1	0	0	369	0.3	369	370	15.4	63.6
2025-07-09T22:04	10	0	0.1	0	0	369	0.3	368	370	15.4	63.8
2025-07-09T22:05	10	0	0.1	0	0	369	0.3	368	369	15.3	63.9
2025-07-09T22:06	10	0	0.1	0	0	368	0.2	368	369	15.4	63.8
2025-07-09T22:07	10	0	0.1	0	0	368	0.2	368	369	15.4	63.7
2025-07-09T22:08	10	0	0.1	0	0	369	0.2	368	369	15.3	64.1
2025-07-09T22:09	10	0	0.1	0	0	368	0.3	368	369	15.3	64.1
2025-07-09T22:10	10	0	0.1	0	0	368	0.3	367	369	15.3	64.2
2025-07-09T22:11	10	0	0.1	0	0	369	0.3	368	370	15.2	64.6
2025-07-09T22:12	10	0	0.1	0	0	369	0.3	368	369	15.2	64.5
2025-07-09T22:13	10	0	0.1	0	0	368	0.2	368	368	15.2	64.4
2025-07-09T22:14	10	0	0.1	0	0	369	0.3	368	369	15.2	64.5
2025-07-09T22:15	10	0	0.1	0	0	369	0.2	368	369	15.2	64.2
2025-07-09T22:16	10	0	0.1	0	0	369	0.3	369	370	15.2	64.3
2025-07-09T22:17	10	0	0.1	0	0	369	0.2	369	370	15.3	64.0
2025-07-09T22:18	10	0	0.1	0	0	369	0.3	368	369	15.3	64.2
2025-07-09T22:19	10	0	0.1	0	0	369	0.3	368	369	15.3	64.1
2025-07-09T22:20	10	0	0.1	0	0	369	0.2	369	370	15.3	64.1
2025-07-09T22:21	10	0	0.1	0	0	369	0.3	368	370	15.2	64.3
2025-07-09T22:22	10	0	0.1	0	0	369	0.3	369	370	15.3	64.0
2025-07-09T22:23	10	0	0.1	0	0	369	0.2	368	370	15.3	64.1
2025-07-09T22:24	10	0	0.1	0	0	369	0.2	369	370	15.0	62.0
2025-07-09T22:25	10	0	0.1	0	0	369	0.2	369	370	15.3	64.1
2025-07-09T22:26	10	0	0.1	0	0	369	0.2	369	370	15.3	64.1
2025-07-09T22:27	10	0	0.1	0	0	369	0.2	369	370	15.3	64.1
2025-07-09T22:28	10	0	0.1	0	0	370	0.3	369	370	15.3	64.1
2025-07-09T22:29	10	0	0.1	0	0	370	0.4	369	371	15.3	64.1
2025-07-09T22:30	10	0	0.1	0	0	370	0.4	369	370	15.3	64.1
2025-07-09T22:31	10	0	0.1	0	0	370	0.4	369	370	15.0	65.1
2025-07-09T22:32	10	0	0.1	0	0	370	0.3	369	370	15.0	65.2
2025-07-09T22:33	10	0	0.1	0	0	369	0.3	369	370	15.0	65.6
2025-07-09T22:34	10	0	0.1	0	0	369	0.2	369	370	15.0	65.4
2025-07-09T22:35	10	0	0.1	0	0	369	0.3	369	370	15.1	65.1
2025-07-09T22:36	10	0	0.1	0	0	369	0.2	368	369	15.1	65.4
2025-07-09T22:37	10	0	0.1	0	0	369	0.3	368	369	15.1	65.3
2025-07-09T22:38	10	0	0.1	0	0	369	0.3	368	370	15.1	65.1
2025-07-09T22:39	10	0	0.1	0	0	369	0.4	368	370	15.0	65.7
2025-07-09T22:40	10	0	0.1	0	0	368	0.2	368	369	15.0	65.7
2025-07-09T22:41	10	0	0.1	0	0	368	0.3	367	369	14.9	65.9
2025-07-09T22:42	10	0	0.1	0	0	368	0.2	367	368	14.9	66.1
2025-07-09T22:43	10	0	0.1	0	0	368	0.3	368	369	14.9	66.3
2025-07-09T22:44	10	0	0.0	0	0	368	0.3	368	369	14.9	66.3
2025-07-09T22:45	10	0	0.1	0	0	368	0.2	368	369	14.9	66.2
2025-07-09T22:46	10	0	0.1	0	0	368	0.2	368	369	14.9	66.3
2025-07-09T22:47	10	0	0.0	0	0	369	0.3	368	369	14.9	66.1
2025-07-09T22:48	10	0	0.1	0	0	368	0.2	367	368	14.9	66.3
2025-07-09T22:49	10	0	0.1	0	0	367	0.4	366	368	14.8	66.5
2025-07-09T22:50	10	0	0.1	0	0	367	0.3	367	368	14.8	66.6
2025-07-09T22:51	10	0	0.1	0	0	368	0.2	367	368	14.8	66.7
2025-07-09T22:52	10	0	0.1	0	0	367	0.3	367	368	14.8	66.7
2025-07-09T22:53	10	0	0.1	0	0	367	0.2	366	367	14.8	66.6
2025-07-09T22:54	10	0	0.1	0	0	367	0.2	366	368	14.9	66.4
2025-07-09T22:55	10	0	0.1	0	0	367	0.3	366	367	14.8	66.4
2025-07-09T22:56	10	0	0.1	0	0	366	0.3	366	367	14.8	66.4
2025-07-09T22:57	10	0	0.1	0	0	367	0.3	366	367	14.8	66.5
2025-07-09T22:58	10	0	0.1	0	0	366	0.2	365	366	14.7	66.9
2025-07-09T22:59	10	0	0.1	0	0	365	0.3	365	366	14.7	67.2
2025-07-09T23:00	10	0	0.1	0	0	365	0.3	364	365	14.7	67.0
2025-07-09T23:01	10	0	0.1	0	0	365	0.3	364	365	14.8	66.8
2025-07-09T23:02	10	0	0.1	0	0	365	0.2	364	365	14.7	67.1
2025-07-09T23:03	10	0	0.1	0	0	364	0.3	363	365	14.6	67.3
2025-07-09T23:04	10	0	0.1	0	0	364	0.2	363	364	14.6	67.7
2025-07-09T23:05	10	0	0.1	0	0	363	0.2	363	363	14.6	67.7
2025-07-09T23:06	10	0	0.1	-1	0	363	0.2	362	363	14.5	68.1
2025-07-09T23:07	10	0	0.2	-1	0	362	0.3	362	363	14.5	68.2
2025-07-09T23:08	10	0	0.1	-1	0	362	0.3	362	363	14.5	68.2
2025-07-09T23:09	10	0	0.1	-1	0	362	0.3	362	363	14.4	68.4
2025-07-09T23:10	10	0	0.1	0	0	362	0.4	361	363	14.4	68.5
2025-07-09T23:11	10	0	0.1	0	0	362	0.3	362	363	14.4	68.4
2025-07-09T23:12	10	0	0.1	-1	0	361	0.4	360	362	14.4	68.6
2025-07-09T23:13	10	0	0.1	0	0	361	0.3	361	362	14.3	69.0
2025-07-09T23:14	10	0	0.1	0	0	360	0.3	359	361	14.3	69.0
2025-07-09T23:15	10	0	0.2	-1	0	360	0.3	359	361	14.3	68.9
2025-07-09T23:16	10	0	0.1	-1	0	360	0.3	359	360	14.3	69.0
2025-07-09T23:17	10	0	0.1	0	0	360	0.2	359	360	14.3	69.2
2025-07-09T23:18	10	0	0.1	-1	0	359	0.2	358	359	14.2	69.4
2025-07-09T23:19	10	0	0.1	-1	0	359	0.2	358	359	14.2	69.5
2025-07-09T23:20	10	0	0.1	-1	0	358	0.2	358	359	14.2	69.6
2025-07-09T23:21	10	0	0.1	0	0	358	0.2	358	359	14.1	69.7
2025-07-09T23:22	10	0	0.1	-1	0	358	0.2	357	358	14.2	69.6
2025-07-09T23:23	10	0	0.1	0	0	358	0.3	357	358	14.1	69.9
2025-07-09T23:24	10	0	0.2	-1	0	358	0.2	358	358	14.1	69.8
2025-07-09T23:25	10	0	0.1	0	0	358	0.2	357	358	14.2	69.6
2025-07-09T23:26	10	0	0.1	0	0	358	0.3	358	359	14.1	69.7
2025-07-09T23:27	10	0	0.1	0	0	359	0.4	358	360	14.3	69.3
2025-07-09T23:28	10	0	0.1	0	0	359	0.2	359	360	14.3	69.2
2025-07-09T23:29	10	0	0.1	0	0	360	0.2	359	360	14.2	69.4
2025-07-09T23:30	10	0	0.1	0	0	360	0.3	359	361	14.3	69.0
2025-07-09T23:31	10	0	0.1	-1	0	360	0.2	360	361	14.4	68.7
2025-07-09T23:32	10	0	0.1	0	0	360	0.2	360	361	14.2	69.2
2025-07-09T23:33	10	0	0.1	0	0	360	0.3	359	361	14.1	69.7
2025-07-09T23:34	10	0	0.1	0	0	360	0.2	359	360	14.0	70.3
2025-07-09T23:35	10	0	0.1	0	0	360	0.3	360	361	14.0	70.5
2025-07-09T23:36	10	0	0.1	0	0	360	0.3	360	361	14.0	70.7
2025-07-09T23:37	10	0	0.1	0	0	361	0.2	360	361	14.0	70.8
2025-07-09T23:38	10	0	0.1	0	0	360	0.4	360	361	13.9	71.4
2025-07-09T23:39	10	0	0.1	0	0	360	0.4	359	361	13.8	72.8
2025-07-09T23:40	10	0	0.1	0	0	360	0.3	360	361	13.6	73.8
2025-07-09T23:41	10	0	0.1	0	0	359	0.2	359	360	13.5	75.1
2025-07-09T23:42	10	0	0.1	0	0	359	0.2	358	359	13.4	75.8
2025-07-09T23:43	10	0	0.1	0	0	358	0.2	358	359	13.4	75.7
2025-07-09T23:44	10	0	0.1	0	0	358	0.2	357	358	13.3	76.4
2025-07-09T23:45	10	0	0.1	0	0	358	0.2	357	358	13.3	76.4
2025-07-09T23:46	10	0	0.1	0	0	357	0.3	357	358	13.4	75.9
2025-07-09T23:47	10	0	0.1	0	0	357	0.2	356	357	13.4	75.9
2025-07-09T23:48	10	0	0.1	0	0	356	0.3	356	357	13.4	76.2
2025-07-09T23:49	10	0	0.1	0	0	356	0.2	355	356	13.4	76.1
2025-07-09T23:50	10	0	0.1	0	0	355	0.2	355	356	13.3	76.4
2025-07-09T23:51	10	0	0.1	0	0	355	0.2	354	355	13.3	76.8
2025-07-09T23:52	10	0	0.1	0	0	355	0.3	354	356	13.2	77.1
2025-07-09T23:53	10	0	0.1	0	0	355	0.2	354	355	13.1	77.8
2025-07-09T23:54	10	0	0.1	0	0	354	0.3	354	355	13.0	78.0
2025-07-09T23:55	10	0	0.1	0	0	354	0.2	353	354	13.0	78.3
2025-07-09T23:56	10	0	0.1	0	0	354	0.2	354	355	13.0	78.2
2025-07-09T23:57	10	0	0.1	0	0	353	0.2	353	354	12.9	78.4
2025-07-09T23:58	10	0	0.1	0	0	353	0.2	353	354	12.8	78.6
2025-07-09T23:59	10	0	0.1	0	0	353	0.2	352	353	12.7	78.8
2025-07-10T00:00	10	0	0.1	0	0	353	0.2	352	353	12.6	79.2
2025-07-10T00:01	10	0	0.1	0	0	352	0.2	352	353	12.5	79.6
2025-07-10T00:02	10	0	0.1	0	0	352	0.2	352	353	12.6	79.7
2025-07-10T00:03	10	0	0.1	0	0	352	0.2	352	353	12.5	79.7
2025-07-10T00:04	10	0	0.1	0	0	352	0.3	352	353	12.4	79.9
2025-07-10T00:05	10	0	0.1	-1	0	352	0.3	352	353	12.4	80.1
2025-07-10T00:06	10	0	0.1	-1	0	352	0.2	351	352	12.4	80.6
2025-07-10T00:07	10	0	0.1	0	0	352	0.2	351	352	12.3	80.9
2025-07-10T00:08	10	0	0.1	0	0	351	0.2	350	351	12.3	81.2
2025-07-10T00:09	10	0	0.1	0	0	351	0.2	350	351	12.2	81.2
2025-07-10T00:10	10	0	0.1	0	0	350	0.2	350	351	12.1	81.4
2025-07-10T00:11	10	0	0.1	0	0	350	0.2	350	351	12.1	81.7
2025-07-10T00:12	10	0	0.1	0	0	350	0.2	350	351	12.0	81.7
2025-07-10T00:13	10	0	0.1	-1	0	350	0.2	350	351	12.0	82.1
2025-07-10T00:14	10	0	0.1	0	0	350	0.2	350	351	12.1	82.2
2025-07-10T00:15	10	0	0.1	0	0	350	0.2	349	350	12.0	81.9
2025-07-10T00:16	10	0	0.1	0	0	350	0.2	350	350	12.0	82.4
2025-07-10T00:17	10	0	0.1	0	0	350	0.2	349	350	12.0	82.5
2025-07-10T00:18	10	0	0.1	0	0	349	0.2	349	350	12.0	82.3
2025-07-10T00:19	10	0	0.1	0	0	350	0.3	349	350	12.0	82.6
2025-07-10T00:20	10	0	0.1	0	0	349	0.2	349	350	12.2	82.1
2025-07-10T00:21	10	0	0.1	0	0	349	0.3	349	350	12.2	82.0
2025-07-10T00:22	10	0	0.1	0	0	349	0.2	349	349	12.1	82.4
2025-07-10T00:23	10	0	0.1	0	0	349	0.3	348	349	12.1	82.5
2025-07-10T00:24	10	0	0.1	0	0	349	0.2	348	349	12.0	82.8
2025-07-10T00:25	10	0	0.1	0	0	349	0.2	348	349	12.0	82.8
2025-07-10T00:26	10	0	0.1	0	0	349	0.2	348	350	12.0	82.8
2025-07-10T00:27	10	0	0.1	-1	0	349	0.3	348	350	12.1	82.6
2025-07-10T00:28	10	0	0.1	-1	0	349	0.2	348	349	12.1	82.4
2025-07-10T00:29	10	0	0.1	0	0	349	0.3	348	350	12.0	82.5
2025-07-10T00:30	10	0	0.1	-1	0	349	0.3	349	350	12.1	82.3
2025-07-10T00:31	10	0	0.1	-1	0	349	0.2	349	350	12.1	82.2
2025-07-10T00:32	10	0	0.1	-1	0	349	0.2	348	349	12.1	82.1
2025-07-10T00:33	10	0	0.1	0	0	349	0.2	348	349	12.1	81.9
2025-07-10T00:34	10	0	0.1	0	0	349	0.3	348	350	12.0	82.1
2025-07-10T00:35	10	0	0.1	0	0	349	0.2	348	349	12.1	82.1
2025-07-10T00:36	10	0	0.1	0	0	349	0.2	348	349	12.1	82.0
2025-07-10T00:37	10	0	0.1	0	0	349	0.3	349	350	12.1	82.3
2025-07-10T00:38	10	0	0.1	0	0	349	0.3	348	349	12.0	82.4
2025-07-10T00:39	10	0	0.1	-1	0	349	0.2	348	349	12.0	82.4
2025-07-10T00:40	10	0	0.1	0	0	349	0.2	348	349	12.0	82.5
2025-07-10T00:41	10	0	0.1	0	0	349	0.2	348	349	12.0	82.4
2025-07-10T00:42	10	0	0.1	0	0	349	0.2	349	350	12.0	82.4
2025-07-10T00:43	10	0	0.1	0	0	349	0.3	348	349	12.1	82.1
2025-07-10T00:44	10	0	0.1	0	0	349	0.3	348	350	12.1	81.8
2025-07-10T00:45	10	0	0.1	0	0	349	0.2	349	349	12.1	81.7
2025-07-10T00:46	10	0	0.1	0	0	349	0.2	348	349	12.2	81.6
2025-07-10T00:47	10	0	0.1	0	0	349	0.2	349	350	12.1	81.7
2025-07-10T00:48	10	0	0.1	0	0	349	0.2	348	350	12.1	81.9
2025-07-10T00:49	10	0	0.1	0	0	349	0.3	348	350	12.0	82.4
2025-07-10T00:50	10	0	0.0	0	0	349	0.2	348	349	11.9	82.6
2025-07-10T00:51	10	0	0.1	0	0	349	0.2	348	349	11.9	82.9
2025-07-10T00:52	10	0	0.1	0	0	349	0.2	348	349	11.8	83.2
2025-07-10T00:53	10	0	0.1	0	0	348	0.2	348	349	11.8	83.2
2025-07-10T00:54	10	0	0.1	0	0	348	0.2	348	348	11.8	83.3
2025-07-10T00:55	10	0	0.1	0	0	348	0.2	347	348	11.8	83.3
2025-07-10T00:56	10	0	0.1	0	0	348	0.3	347	348	11.7	83.5
2025-07-10T00:57	10	0	0.0	0	0	348	0.2	347	348	11.6	83.6
2025-07-10T00:58	10	0	0.1	0	0	347	0.2	347	348	11.6	83.8
2025-07-10T00:59	10	0	0.1	0	0	348	0.2	347	348	11.6	83.9
2025-07-10T01:00	10	0	0.1	0	0	348	0.3	347	349	11.6	84.0
2025-07-10T01:01	10	0	0.1	0	0	348	0.3	347	349	11.5	84.1
2025-07-10T01:02	10	0	0.1	0	0	348	0.3	348	349	11.5	84.2
2025-07-10T01:03	10	0	0.1	0	0	349	0.3	348	349	11.4	84.5
2025-07-10T01:04	10	0	0.1	0	0	349	0.3	348	349	11.5	84.4
2025-07-10T01:05	10	0	0.1	0	0	349	0.2	348	349	11.6	84.3
2025-07-10T01:06	10	0	0.5	0	3	349	0.2	348	349	11.6	84.2
2025-07-10T01:07	10	0	0.1	0	0	349	0.3	348	350	11.6	84.3
2025-07-10T01:08	10	0	0.1	-1	0	349	0.2	349	350	11.6	84.2
2025-07-10T01:09	10	0	0.1	-1	0	349	0.2	349	350	11.6	84.4
2025-07-10T01:10	10	0	0.1	-1	0	350	0.3	349	351	11.6	84.3
2025-07-10T01:11	10	0	0.1	-1	0	350	0.3	349	351	11.7	83.8
2025-07-10T01:12	10	0	0.1	-1	0	349	0.3	349	350	11.8	83.5
2025-07-10T01:13	10	0	0.1	-1	0	349	0.3	348	350	11.8	83.4
2025-07-10T01:14	10	0	0.1	0	0	349	0.3	348	349	11.6	83.9
2025-07-10T01:15	10	0	0.1	0	0	348	0.2	348	349	11.6	84.3
2025-07-10T01:16	10	0	0.1	0	0	349	0.2	348	349	11.6	84.1
2025-07-10T01:17	10	0	0.1	-1	0	349	0.4	348	350	11.5	84.4
2025-07-10T01:18	10	0	0.2	-1	0	350	0.2	349	350	11.5	84.6
2025-07-10T01:19	10	0	0.1	-1	0	350	0.4	349	351	11.4	84.8
2025-07-10T01:20	10	0	0.1	-1	0	351	0.2	350	351	11.4	84.6
2025-07-10T01:21	10	0	0.1	-1	0	350	0.2	350	351	11.5	84.7
2025-07-10T01:22	10	0	0.1	-1	0	350	0.4	350	351	11.4	84.8
2025-07-10T01:23	10	0	0.1	-1	0	352	0.3	351	352	11.6	84.4
2025-07-10T01:24	10	0	0.2	-1	0	352	0.2	351	352	11.7	83.8
2025-07-10T01:25	10	0	0.1	-1	0	352	0.2	352	353	11.8	83.4
2025-07-10T01:26	10	0	0.1	-1	0	352	0.3	351	352	11.9	83.2
2025-07-10T01:27	10	0	0.1	-1	0	351	0.2	351	352	11.9	82.8
2025-07-10T01:28	10	0	0.1	0	0	351	0.3	350	352	12.0	82.5
2025-07-10T01:29	10	0	0.1	-1	0	350	0.4	349	351	12.0	82.3
2025-07-10T01:30	10	0	0.1	-1	0	350	0.3	349	350	12.0	82.1
2025-07-10T01:31	10	0	0.1	-1	0	350	0.3	349	350	12.0	82.2
2025-07-10T01:32	10	0	0.1	-1	0	349	0.3	349	350	12.0	82.0
2025-07-10T01:33	10	0	0.1	-1	0	349	0.2	348	349	12.0	82.1
2025-07-10T01:34	10	0	0.1	0	0	348	0.5	347	349	11.9	82.3
2025-07-10T01:35	10	0	0.1	0	0	347	0.2	347	348	11.6	82.9
2025-07-10T01:36	10	0	0.1	0	0	347	0.4	346	347	11.3	83.9
2025-07-10T01:37	10	0	0.1	0	0	346	0.3	346	347	11.2	84.8
2025-07-10T01:38	10	0	0.1	0	0	347	0.4	346	348	11.2	85.3
2025-07-10T01:39	10	0	0.1	0	0	348	0.5	346	348	11.3	85.0
2025-07-10T01:40	10	0	0.1	-1	0	349	0.4	348	349	11.5	84.1
2025-07-10T01:41	10	0	0.1	-1	0	349	0.3	348	349	11.8	83.0
2025-07-10T01:42	10	0	0.1	0	0	348	0.2	348	349	11.6	82.7
2025-07-10T01:43	10	0	0.1	0	0	348	0.2	348	349	11.4	83.4
2025-07-10T01:44	10	0	0.1	0	0	348	0.2	347	348	11.4	83.5
2025-07-10T01:45	10	0	0.1	-1	0	348	0.3	347	349	11.1	84.8
2025-07-10T01:46	10	0	0.1	-1	0	348	0.2	347	348	11.1	84.7
2025-07-10T01:47	10	0	0.1	0	0	347	0.2	347	348	10.9	85.5
2025-07-10T01:48	10	0	0.1	0	0	347	0.2	347	347	10.6	87.0
2025-07-10T01:49	10	0	0.0	0	0	347	0.2	346	347	10.3	88.1
2025-07-10T01:50	10	0	0.1	0	0	347	0.2	346	347	10.4	89.1
2025-07-10T01:51	10	0	0.1	0	0	347	0.5	346	348	10.4	89.8
2025-07-10T01:52	10	0	0.1	0	0	347	0.3	346	348	10.7	89.0
2025-07-10T01:53	10	0	0.1	-1	0	347	0.2	346	347	10.8	88.5
2025-07-10T01:54	10	0	0.1	-1	0	346	0.2	346	347	11.0	87.5
2025-07-10T01:55	10	0	0.1	-1	0	346	0.2	346	347	11.1	86.5
2025-07-10T01:56	10	0	0.1	-1	0	346	0.2	345	346	11.1	86.3
2025-07-10T01:57	10	0	0.1	0	0	346	0.2	345	346	11.1	86.3
2025-07-10T01:58	10	0	0.1	0	0	346	0.3	345	346	11.1	86.1
2025-07-10T01:59	10	0	0.1	-1	0	346	0.2	345	346	11.2	85.9
2025-07-10T02:00	10	0	0.1	0	0	345	0.2	345	346	11.1	86.0
2025-07-10T02:01	10	0	0.1	0	0	345	0.2	345	346	11.1	86.3
2025-07-10T02:02	10	0	0.1	0	0	345	0.2	345	346	11.0	86.9
2025-07-10T02:03	10	0	0.1	-1	0	346	0.3	345	346	10.9	87.0
2025-07-10T02:04	10	0	0.1	-1	0	346	0.2	346	347	11.0	86.8
2025-07-10T02:05	10	0	0.1	0	0	346	0.3	345	347	11.0	86.8
2025-07-10T02:06	10	0	0.1	0	0	346	0.3	345	347	11.1	86.3
2025-07-10T02:07	10	0	0.1	-1	0	346	0.3	345	346	11.1	86.1
2025-07-10T02:08	10	0	0.1	0	0	346	0.2	345	346	11.1	85.8
2025-07-10T02:09	10	0	0.1	-1	0	347	0.3	346	347	11.2	85.5
2025-07-10T02:10	10	0	0.1	0	0	347	0.3	346	347	11.1	85.4
2025-07-10T02:11	10	0	0.1	0	0	347	0.3	346	347	11.2	85.4
2025-07-10T02:12	10	0	0.1	0	0	347	0.2	346	347	11.2	85.1
2025-07-10T02:13	10	0	0.1	-1	0	346	0.2	346	347	11.1	84.9
2025-07-10T02:14	10	0	0.1	-1	0	347	0.3	346	348	11.1	85.2
2025-07-10T02:15	10	0	0.1	-1	0	347	0.3	346	347	11.2	84.9
2025-07-10T02:16	10	0	0.1	0	0	347	0.2	347	348	11.3	84.8
2025-07-10T02:17	10	0	0.1	-1	0	348	0.4	347	349	11.3	84.8
2025-07-10T02:18	10	0	0.1	-1	0	348	0.2	347	349	11.3	84.8
2025-07-10T02:19	10	0	0.1	-1	0	348	0.2	347	348	11.3	84.6
2025-07-10T02:20	10	0	0.1	-1	0	348	0.2	348	349	11.4	84.1
2025-07-10T02:21	10	0	0.1	-1	0	348	0.4	347	348	11.4	84.0
2025-07-10T02:22	10	0	0.1	-1	0	347	0.2	347	347	11.4	84.2
2025-07-10T02:23	10	0	0.1	0	0	347	0.3	346	347	11.4	84.3
2025-07-10T02:24	10	0	0.1	0	0	346	0.6	345	347	11.3	84.8
2025-07-10T02:25	10	0	0.1	0	0	346	0.3	345	346	11.1	85.6
2025-07-10T02:26	10	0	0.1	0	0	345	0.3	344	345	11.0	86.3
2025-07-10T02:27	10	0	0.1	0	0	345	0.2	344	345	10.9	86.9
2025-07-10T02:28	10	0	0.1	0	0	344	0.3	344	345	10.9	86.9
2025-07-10T02:29	10	0	0.1	0	0	344	0.2	344	345	11.1	86.2
2025-07-10T02:30	10	0	0.1	0	0	345	0.4	344	346	10.9	87.0
2025-07-10T02:31	10	0	0.1	0	0	345	0.3	344	345	11.0	86.5
2025-07-10T02:32	10	0	0.1	0	0	344	0.4	343	345	10.9	87.0
2025-07-10T02:33	10	0	0.1	0	0	344	0.3	343	344	10.8	87.6
2025-07-10T02:34	10	0	0.1	0	0	344	0.2	343	344	10.9	87.6
2025-07-10T02:35	10	0	0.1	0	0	344	0.2	343	344	10.9	87.3
2025-07-10T02:36	10	0	0.1	0	0	344	0.3	343	345	11.0	86.7
2025-07-10T02:37	10	0	0.1	0	0	344	0.2	343	344	11.1	86.0
2025-07-10T02:38	10	0	0.1	0	0	344	0.3	343	345	11.0	86.1
2025-07-10T02:39	10	0	0.1	0	0	344	0.2	343	344	11.0	86.3
2025-07-10T02:40	10	0	0.1	0	0	344	0.2	343	344	10.7	87.2
2025-07-10T02:41	10	0	0.1	0	0	343	0.3	343	344	10.6	87.8
2025-07-10T02:42	10	0	0.1	0	0	344	0.2	343	344	10.8	87.4
2025-07-10T02:43	10	0	0.1	0	0	343	0.2	343	344	10.9	86.8
2025-07-10T02:44	10	0	0.1	0	0	342	0.3	342	343	10.8	87.0
2025-07-10T02:45	10	0	0.1	-1	0	343	0.3	342	343	10.6	87.5
2025-07-10T02:46	10	0	0.1	0	0	342	0.3	341	343	10.5	88.0
2025-07-10T02:47	10	0	0.1	0	0	342	0.3	342	343	10.4	88.2
2025-07-10T02:48	10	0	0.1	0	0	342	0.3	342	343	10.6	88.5
2025-07-10T02:49	10	0	0.1	0	0	342	0.2	341	342	10.4	88.4
2025-07-10T02:50	10	0	0.1	0	0	342	0.2	342	343	10.3	89.0
2025-07-10T02:51	10	0	0.1	0	0	342	0.2	342	342	10.3	89.4
2025-07-10T02:52	10	0	0.1	0	0	342	0.2	341	342	10.2	89.7
2025-07-10T02:53	10	0	0.1	0	0	342	0.3	341	343	10.1	90.0
2025-07-10T02:54	10	0	0.1	0	0	342	0.3	341	343	10.2	90.0
2025-07-10T02:55	10	0	0.1	0	0	341	0.2	341	342	10.0	90.1
2025-07-10T02:56	10	0	0.1	0	0	342	0.4	341	343	9.9	90.5
2025-07-10T02:57	10	0	0.1	0	0	342	0.4	341	343	10.0	90.9
2025-07-10T02:58	10	0	0.1	-1	0	342	0.3	342	343	10.2	90.2
2025-07-10T02:59	10	0	0.1	0	0	342	0.3	341	343	10.3	89.6
2025-07-10T03:00	10	0	0.1	0	0	342	0.4	341	343	10.3	89.4
2025-07-10T03:01	10	0	0.1	0	0	342	0.4	341	343	10.4	89.0
2025-07-10T03:02	10	0	0.1	0	0	341	0.3	341	342	10.2	89.3
2025-07-10T03:03	10	0	0.1	-1	0	341	0.2	341	342	10.1	89.6
2025-07-10T03:04	10	0	0.1	0	0	341	0.2	340	341	10.0	90.0
2025-07-10T03:05	10	0	0.1	0	0	341	0.3	340	342	10.0	90.2
2025-07-10T03:06	10	0	0.1	-1	0	341	0.4	341	342	10.1	90.1
2025-07-10T03:07	10	0	0.1	-1	0	342	0.3	341	343	10.3	89.6
2025-07-10T03:08	10	0	0.1	-1	0	342	0.2	341	342	10.4	88.9
2025-07-10T03:09	10	0	0.1	-1	0	342	0.2	341	343	10.4	88.8
2025-07-10T03:10	10	0	0.1	-1	0	342	0.2	342	343	10.5	88.5
2025-07-10T03:11	10	0	0.1	-1	0	342	0.2	341	343	10.5	88.4
2025-07-10T03:12	10	0	0.1	0	0	342	0.2	342	343	10.6	88.1
2025-07-10T03:13	10	0	0.1	-1	0	342	0.3	341	342	10.6	87.8
2025-07-10T03:14	10	0	0.1	0	0	342	0.2	341	342	10.5	87.9
2025-07-10T03:15	10	0	0.1	0	0	342	0.3	341	342	10.5	88.3
2025-07-10T03:16	10	0	0.1	0	0	341	0.2	341	342	10.4	88.4
2025-07-10T03:17	10	0	0.1	0	0	341	0.2	341	342	10.3	88.9
2025-07-10T03:18	10	0	0.1	0	0	341	0.2	341	342	10.1	89.4
2025-07-10T03:19	10	0	0.1	0	0	341	0.2	341	342	9.9	90.3
2025-07-10T03:20	10	0	0.1	0	0	341	0.4	341	342	9.6	91.4
2025-07-10T03:21	10	0	0.1	0	0	342	0.3	341	343	9.7	91.6
2025-07-10T03:22	10	0	0.1	0	0	342	0.2	341	342	10.0	91.3
2025-07-10T03:23	10	0	0.1	0	0	341	0.3	341	342	9.9	91.2
2025-07-10T03:24	10	0	0.1	0	0	341	0.2	340	341	9.7	91.4
2025-07-10T03:25	10	0	0.1	0	0	340	0.3	340	341	9.5	91.9
2025-07-10T03:26	10	0	0.1	0	0	340	0.3	340	341	9.3	92.3
2025-07-10T03:27	10	0	0.1	0	0	341	0.2	340	341	9.5	91.9
2025-07-10T03:28	10	0	0.1	0	0	341	0.2	340	341	9.6	91.6
2025-07-10T03:29	10	0	0.1	0	0	341	0.3	340	341	9.7	91.3
2025-07-10T03:30	10	0	0.1	0	0	341	0.3	340	341	9.8	91.0
2025-07-10T03:31	10	0	0.1	0	0	341	0.2	340	341	9.8	90.8
2025-07-10T03:32	10	0	0.1	0	0	341	0.2	340	341	9.9	90.7
2025-07-10T03:33	10	0	0.1	0	0	341	0.2	340	341	9.9	90.5
2025-07-10T03:34	10	0	0.1	0	0	341	0.2	341	342	9.9	90.6
2025-07-10T03:35	10	0	0.1	0	0	341	0.2	341	341	9.9	90.5
2025-07-10T03:36	10	0	0.0	0	0	341	0.2	341	342	10.0	90.5
2025-07-10T03:37	10	0	0.1	0	0	341	0.2	341	342	10.2	90.1
2025-07-10T03:38	10	0	0.0	0	0	341	0.2	341	342	10.3	89.4
2025-07-10T03:39	10	0	0.1	0	0	341	0.2	341	342	10.4	88.7
2025-07-10T03:40	10	0	0.0	0	0	342	0.2	341	342	10.5	88.2
2025-07-10T03:41	10	0	0.1	0	0	341	0.2	341	342	10.7	87.1
2025-07-10T03:42	10	0	0.1	0	0	341	0.3	340	342	10.7	87.1
2025-07-10T03:43	10	0	0.1	0	1	341	0.3	340	341	10.6	87.3
2025-07-10T03:44	10	0	0.1	0	1	341	0.2	340	341	10.6	87.5
2025-07-10T03:45	10	0	0.1	0	1	341	0.2	340	341	10.4	88.2
2025-07-10T03:46	10	1	0.1	0	1	341	0.2	340	341	10.3	88.5
2025-07-10T03:47	10	0	0.1	0	1	341	0.2	341	342	10.3	89.1
2025-07-10T03:48	10	1	0.1	0	1	341	0.2	341	342	10.3	89.1
2025-07-10T03:49	10	1	0.1	1	1	341	0.2	341	342	10.4	88.8
2025-07-10T03:50	10	1	0.1	1	1	341	0.3	340	342	10.3	88.8
2025-07-10T03:51	10	1	0.1	1	1	340	0.3	340	341	10.1	88.4
2025-07-10T03:52	10	1	0.1	1	1	341	0.2	340	341	10.0	88.9
2025-07-10T03:53	10	1	0.1	1	1	341	0.2	340	341	9.9	89.6
2025-07-10T03:54	10	1	0.1	1	1	341	0.2	340	341	9.9	89.9
2025-07-10T03:55	10	1	0.1	1	1	341	0.2	340	341	9.9	90.1
2025-07-10T03:56	10	1	0.1	1	1	341	0.2	340	341	9.9	90.3
2025-07-10T03:57	10	1	0.1	1	2	341	0.2	340	341	9.9	90.3
2025-07-10T03:58	10	1	0.1	1	2	341	0.2	341	341	9.8	90.4
2025-07-10T03:59	10	2	0.1	1	2	341	0.2	341	342	9.7	90.6
2025-07-10T04:00	10	2	0.1	1	2	342	0.3	341	342	9.8	91.0
2025-07-10T04:01	10	2	0.1	1	2	341	0.2	341	342	9.8	91.2
2025-07-10T04:02	10	2	0.1	2	2	341	0.2	341	342	9.7	91.6
2025-07-10T04:03	10	2	0.1	2	2	342	0.3	341	342	9.7	92.2
2025-07-10T04:04	10	3	0.1	2	3	342	0.3	341	343	9.6	91.8
2025-07-10T04:05	10	3	0.2	3	3	342	0.3	342	343	9.5	91.7
2025-07-10T04:06	10	3	0.1	3	3	343	0.3	342	344	9.3	91.8
2025-07-10T04:07	10	3	0.1	3	4	343	0.2	342	343	9.3	92.0
2025-07-10T04:08	10	3	0.1	3	4	343	0.4	342	344	9.6	92.0
2025-07-10T04:09	10	4	0.1	3	4	343	0.2	343	344	9.8	91.8
2025-07-10T04:10	10	4	0.1	4	4	343	0.2	343	344	9.7	90.6
2025-07-10T04:11	10	4	0.1	4	5	343	0.2	343	344	9.7	90.8
2025-07-10T04:12	10	4	0.1	4	5	343	0.2	343	344	9.4	90.8
2025-07-10T04:13	10	5	0.2	4	5	343	0.2	343	344	9.2	91.4
2025-07-10T04:14	10	5	0.2	4	5	343	0.3	343	344	9.1	92.3
2025-07-10T04:15	10	5	0.1	5	5	344	0.5	343	345	9.3	92.3
2025-07-10T04:16	10	5	0.2	5	6	344	0.4	343	345	9.6	92.2
2025-07-10T04:17	10	6	0.2	5	6	345	0.4	344	346	9.8	92.1
2025-07-10T04:18	10	6	0.2	6	7	345	0.2	345	346	9.9	91.4
2025-07-10T04:19	10	7	0.2	6	7	346	0.2	345	346	10.0	90.9
2025-07-10T04:20	10	7	0.1	7	7	345	0.4	344	346	10.1	90.0
2025-07-10T04:21	10	7	0.1	7	7	345	0.2	344	345	9.9	89.0
2025-07-10T04:22	10	7	0.1	7	7	346	0.4	345	346	10.0	89.6
2025-07-10T04:23	10	7	0.2	7	8	347	0.3	346	347	10.2	89.6
2025-07-10T04:24	10	8	0.2	8	8	347	0.2	347	348	10.3	88.5
2025-07-10T04:25	10	8	0.2	8	9	348	0.2	347	348	10.4	88.1
2025-07-10T04:26	10	9	0.3	9	10	348	0.4	347	348	10.4	87.3
2025-07-10T04:27	10	10	0.3	10	11	347	0.2	347	348	9.9	88.1
2025-07-10T04:28	10	11	0.2	11	12	348	0.2	347	348	9.8	88.7
2025-07-10T04:29	10	12	0.2	12	12	348	0.3	348	349	9.9	88.9
2025-07-10T04:30	10	12	0.2	12	13	349	0.3	348	349	9.9	88.9
2025-07-10T04:31	10	13	0.2	13	14	349	0.3	349	350	9.9	88.9
2025-07-10T04:32	10	13	0.2	13	14	350	0.3	349	350	9.9	89.0
2025-07-10T04:33	10	14	0.3	14	15	350	0.3	349	351	9.8	89.1
2025-07-10T04:34	10	15	0.2	15	15	350	0.2	350	351	9.8	89.1
2025-07-10T04:35	10	16	0.2	15	16	351	0.2	350	351	9.8	89.1
2025-07-10T04:36	10	16	0.2	16	17	351	0.2	351	352	9.8	89.0
2025-07-10T04:37	10	17	0.2	17	18	351	0.2	351	352	9.8	88.9
2025-07-10T04:38	10	18	0.2	17	18	352	0.2	351	352	9.9	88.8
2025-07-10T04:39	10	18	0.2	18	19	352	0.2	352	353	10.1	88.6
2025-07-10T04:40	10	19	0.2	18	19	353	0.4	352	354	10.3	88.0
2025-07-10T04:41	10	19	0.2	19	20	353	0.2	353	354	10.6	87.0
2025-07-10T04:42	10	20	0.2	20	21	354	0.3	353	354	10.8	85.9
2025-07-10T04:43	10	21	0.2	20	21	354	0.2	354	355	10.9	85.2
2025-07-10T04:44	10	21	0.2	21	22	355	0.2	354	355	11.1	84.7
2025-07-10T04:45	10	22	0.2	22	22	355	0.4	354	355	11.2	84.3
2025-07-10T04:46	10	23	0.2	22	23	354	0.3	354	355	10.9	83.3
2025-07-10T04:47	10	23	0.2	23	24	355	0.2	355	355	10.6	83.9
2025-07-10T04:48	10	24	0.2	24	24	355	0.2	355	356	10.7	84.6
2025-07-10T04:49	10	25	0.2	24	25	355	0.2	355	356	10.7	84.7
2025-07-10T04:50	10	25	0.2	25	26	356	0.3	355	356	10.6	84.5
2025-07-10T04:51	10	26	0.2	25	26	356	0.2	356	356	10.5	85.1
2025-07-10T04:52	10	26	0.2	26	27	357	0.3	356	357	10.6	85.2
2025-07-10T04:53	10	27	0.2	27	27	357	0.3	356	357	10.7	85.0
2025-07-10T04:54	10	28	0.2	28	28	357	0.2	357	358	10.6	84.6
2025-07-10T04:55	10	29	0.2	28	29	358	0.4	357	358	10.5	85.1
2025-07-10T04:56	10	29	0.2	29	30	358	0.2	358	359	10.6	85.6
2025-07-10T04:57	10	30	0.2	29	30	358	0.2	358	359	10.8	85.3
2025-07-10T04:58	10	30	0.2	30	31	359	0.3	358	359	10.7	85.4
2025-07-10T04:59	10	31	0.2	31	31	359	0.2	359	360	10.9	84.8
2025-07-10T05:00	10	32	0.2	31	32	360	0.3	359	360	11.2	83.7
2025-07-10T05:01	10	32	0.2	32	33	360	0.2	360	361	11.8	80.8
2025-07-10T05:02	10	33	0.2	33	33	361	0.2	360	361	12.1	79.0
2025-07-10T05:03	10	34	0.2	33	34	361	0.2	361	362	12.0	78.3
2025-07-10T05:04	10	34	0.2	34	35	361	0.3	361	362	12.1	78.0
2025-07-10T05:05	10	35	0.2	35	35	362	0.2	361	362	12.4	76.9
2025-07-10T05:06	10	35	0.1	35	36	362	0.2	362	363	12.6	76.3
2025-07-10T05:07	10	36	0.2	36	36	363	0.2	362	363	12.6	75.7
2025-07-10T05:08	10	36	0.2	36	37	364	0.3	363	364	12.6	76.0
2025-07-10T05:09	10	37	0.2	37	37	364	0.2	364	365	12.2	79.2
2025-07-10T05:10	10	37	0.2	37	38	365	0.2	364	365	12.2	78.5
2025-07-10T05:11	10	38	0.2	38	38	365	0.3	364	365	12.1	78.8
2025-07-10T05:12	10	38	0.2	38	39	365	0.3	365	366	12.0	81.5
2025-07-10T05:13	10	39	0.2	39	39	366	0.3	365	367	11.9	82.0
2025-07-10T05:14	10	39	0.2	39	40	366	0.3	366	367	11.8	81.2
2025-07-10T05:15	10	40	0.1	40	40	367	0.2	366	367	11.9	82.3
2025-07-10T05:16	10	40	0.2	40	41	367	0.2	367	368	11.9	82.0
2025-07-10T05:17	10	41	0.2	41	41	367	0.2	367	368	12.0	81.5
2025-07-10T05:18	10	41	0.2	41	42	368	0.3	367	368	12.6	79.7
2025-07-10T05:19	10	42	0.2	42	43	368	0.2	368	369	12.5	78.9
2025-07-10T05:20	10	43	0.2	42	43	369	0.2	368	369	12.2	79.4
2025-07-10T05:21	10	43	0.2	43	44	369	0.2	368	370	12.1	79.8
2025-07-10T05:22	10	44	0.2	44	44	369	0.2	369	370	12.1	80.8
2025-07-10T05:23	10	45	0.2	44	45	370	0.3	369	370	12.0	82.1
2025-07-10T05:24	10	45	0.2	45	46	370	0.2	369	371	11.8	83.8
2025-07-10T05:25	10	46	0.2	46	47	371	0.3	370	371	11.6	83.4
2025-07-10T05:26	10	47	0.2	46	47	371	0.2	370	371	11.6	84.0
2025-07-10T05:27	10	47	0.2	47	48	371	0.2	371	372	11.5	84.8
2025-07-10T05:28	10	48	0.2	48	48	372	0.2	371	372	11.5	84.6
2025-07-10T05:29	10	49	0.2	48	49	372	0.2	371	372	11.6	85.8
2025-07-10T05:30	10	49	0.2	49	50	372	0.2	371	372	11.6	83.8
2025-07-10T05:31	10	50	0.2	50	50	372	0.2	372	373	11.7	83.7
2025-07-10T05:32	10	51	0.2	50	51	373	0.2	372	373	11.8	83.2
2025-07-10T05:33	10	51	0.2	51	52	373	0.2	373	374	11.8	83.0
2025-07-10T05:34	10	52	0.3	52	53	373	0.2	373	374	11.9	82.7
2025-07-10T05:35	10	53	0.2	52	53	374	0.2	373	374	12.0	84.2
2025-07-10T05:36	10	54	0.2	53	54	374	0.2	374	375	11.9	83.0
2025-07-10T05:37	10	54	0.2	54	55	375	0.2	374	375	12.0	82.8
2025-07-10T05:38	10	55	0.2	55	55	375	0.3	375	376	12.2	82.0
2025-07-10T05:39	10	55	0.2	55	56	376	0.2	375	376	12.5	81.0
2025-07-10T05:40	10	56	0.2	56	57	376	0.3	375	377	12.2	83.4
2025-07-10T05:41	10	57	0.3	56	57	376	0.3	376	377	12.1	83.2
2025-07-10T05:42	10	58	0.2	57	58	377	0.3	376	378	12.1	84.8
2025-07-10T05:43	10	58	0.3	58	59	377	0.2	377	377	12.1	84.1
2025-07-10T05:44	10	59	0.2	59	59	377	0.2	377	378	12.2	82.3
2025-07-10T05:45	10	60	0.2	59	60	378	0.2	377	378	12.2	81.8
2025-07-10T05:46	10	60	0.2	60	61	379	0.2	378	379	12.3	82.2
2025-07-10T05:47	10	61	0.2	61	61	378	0.4	378	379	12.3	83.6
2025-07-10T05:48	10	62	0.2	61	62	378	0.3	377	378	12.1	84.7
2025-07-10T05:49	10	62	0.2	62	62	378	0.2	378	379	12.1	84.5
2025-07-10T05:50	10	63	0.2	62	63	379	0.3	378	379	12.0	84.9
2025-07-10T05:51	10	63	0.2	63	64	379	0.2	378	380	12.0	85.6
2025-07-10T05:52	10	64	0.2	64	64	380	0.2	379	380	12.0	85.7
2025-07-10T05:53	10	65	0.3	64	65	380	0.2	379	380	12.0	84.9
2025-07-10T05:54	10	65	0.2	65	66	380	0.2	380	381	12.1	84.9
2025-07-10T05:55	10	66	0.2	66	66	381	0.3	380	382	12.1	83.9
2025-07-10T05:56	10	67	0.2	66	67	381	0.2	380	381	12.1	83.3
2025-07-10T05:57	10	67	0.2	67	68	381	0.3	381	382	12.1	83.0
2025-07-10T05:58	10	68	0.2	68	68	382	0.3	381	383	12.1	82.9
2025-07-10T05:59	10	69	0.2	68	69	382	0.2	382	383	12.2	82.8
2025-07-10T06:00	10	69	0.2	69	70	382	0.2	382	383	12.3	82.5
2025-07-10T06:01	10	70	0.2	69	70	383	0.2	382	383	12.3	82.1
2025-07-10T06:02	10	70	0.2	70	71	383	0.2	382	383	12.3	81.7
2025-07-10T06:03	10	71	0.2	71	71	384	0.2	383	384	12.5	82.4
2025-07-10T06:04	10	72	0.2	71	72	384	0.2	383	384	12.6	80.7
2025-07-10T06:05	10	72	0.2	72	73	384	0.3	384	385	12.6	79.6
2025-07-10T06:06	10	73	0.2	73	74	385	0.2	385	386	12.7	80.0
2025-07-10T06:07	10	74	0.3	74	75	386	0.2	385	386	12.7	80.1
2025-07-10T06:08	10	75	0.3	74	75	386	0.2	385	387	13.0	78.8
2025-07-10T06:09	10	76	0.3	75	76	386	0.3	385	387	13.3	77.1
2025-07-10T06:10	10	77	0.3	76	77	387	0.2	386	387	13.2	77.3
2025-07-10T06:11	10	77	0.3	77	78	387	0.3	386	388	13.1	78.3
2025-07-10T06:12	10	78	0.3	78	79	388	0.3	387	389	13.2	79.1
2025-07-10T06:13	10	79	0.2	79	80	388	0.3	388	389	13.3	77.9
2025-07-10T06:14	10	80	0.2	80	80	389	0.3	388	389	13.4	76.7
2025-07-10T06:15	10	81	0.2	80	81	389	0.2	389	390	13.7	76.3
2025-07-10T06:16	10	81	0.2	81	82	390	0.2	389	390	13.8	75.4
2025-07-10T06:17	10	82	0.3	81	82	390	0.2	389	390	13.6	76.2
2025-07-10T06:18	10	82	0.3	82	83	391	0.4	390	391	13.6	75.6
2025-07-10T06:19	10	83	0.2	83	83	392	0.2	391	392	13.8	76.0
2025-07-10T06:20	10	84	0.2	83	84	392	0.3	392	393	13.7	76.8
2025-07-10T06:21	10	84	0.3	83	85	393	0.2	392	393	13.6	76.2
2025-07-10T06:22	10	85	0.3	84	85	393	0.3	392	393	13.7	75.3
2025-07-10T06:23	10	85	0.2	85	86	393	0.2	393	394	13.8	75.1
2025-07-10T06:24	10	86	0.2	85	86	393	0.2	393	394	13.9	75.7
2025-07-10T06:25	10	86	0.2	86	87	394	0.3	394	395	14.1	75.2
2025-07-10T06:26	10	87	0.2	86	87	395	0.3	394	395	14.1	73.6
2025-07-10T06:27	10	87	0.2	87	88	396	0.3	395	396	14.3	74.8
2025-07-10T06:28	10	88	0.2	88	88	396	0.2	396	396	14.2	74.7
2025-07-10T06:29	10	88	0.2	88	89	397	0.3	396	397	14.2	74.2
2025-07-10T06:30	10	89	0.2	89	89	397	0.4	396	397	14.3	74.0
2025-07-10T06:31	10	89	0.2	89	90	396	0.3	396	397	14.2	73.1
2025-07-10T06:32	10	90	0.2	90	90	397	0.3	396	397	14.3	73.0
2025-07-10T06:33	10	90	0.2	90	91	397	0.2	397	398	14.4	72.7
2025-07-10T06:34	10	91	0.2	91	91	398	0.4	397	399	14.4	73.0
2025-07-10T06:35	10	92	0.2	91	92	398	0.4	397	399	14.2	72.1
2025-07-10T06:36	10	92	0.2	92	93	397	0.3	397	398	14.3	73.1
2025-07-10T06:37	10	93	0.2	92	93	397	0.5	396	398	14.4	73.0
2025-07-10T06:38	10	93	0.2	93	93	399	0.3	398	399	14.4	72.7
2025-07-10T06:39	10	94	0.2	93	94	399	0.3	398	399	14.2	72.5
2025-07-10T06:40	10	94	0.2	94	94	400	0.4	399	400	14.4	72.7
2025-07-10T06:41	10	95	0.2	94	95	400	0.4	400	401	14.6	72.3
2025-07-10T06:42	10	95	0.1	95	95	400	0.6	399	401	14.6	71.9
2025-07-10T06:43	10	96	0.2	95	96	400	0.3	399	401	14.5	73.0
2025-07-10T06:44	10	96	0.2	96	97	400	0.4	398	400	14.4	72.6
2025-07-10T06:45	10	97	0.1	96	97	399	0.3	398	400	14.3	72.8
2025-07-10T06:46	10	97	0.1	97	98	400	0.4	399	401	14.4	72.9
2025-07-10T06:47	10	98	0.1	98	98	400	0.3	400	401	14.4	72.4
2025-07-10T06:48	10	98	0.2	98	99	401	0.3	401	402	14.4	72.7
2025-07-10T06:49	10	99	0.2	98	99	402	0.3	401	402	14.4	72.8
2025-07-10T06:50	10	99	0.2	99	100	403	0.5	403	404	14.7	72.9
2025-07-10T06:51	10	100	0.2	99	100	404	0.5	403	405	14.8	72.0
2025-07-10T06:52	10	100	0.2	100	101	405	0.8	404	407	15.0	71.6
2025-07-10T06:53	10	101	0.1	101	101	405	0.6	404	406	15.2	71.5
2025-07-10T06:54	10	101	0.2	101	102	406	0.6	405	407	15.2	70.9
2025-07-10T06:55	10	102	0.2	101	102	406	0.3	405	407	15.1	70.4
2025-07-10T06:56	10	102	0.2	102	103	407	0.3	406	407	14.9	70.3
2025-07-10T06:57	10	103	0.2	102	103	407	0.3	406	407	14.9	70.4
2025-07-10T06:58	10	104	0.2	103	104	406	0.5	406	407	15.0	70.5
2025-07-10T06:59	10	104	0.2	104	105	406	0.5	405	407	15.1	70.3
2025-07-10T07:00	10	104	0.2	104	105	408	0.3	407	408	15.3	69.8
2025-07-10T07:01	10	105	0.2	104	105	409	0.5	408	410	15.3	69.4
2025-07-10T07:02	10	105	0.2	105	106	409	0.4	408	410	15.5	69.2
2025-07-10T07:03	10	106	0.3	105	107	410	0.4	409	411	15.4	69.3
2025-07-10T07:04	10	106	0.2	106	107	411	0.3	410	412	15.5	69.0
2025-07-10T07:05	10	107	0.3	106	107	411	0.6	410	413	15.6	68.0
2025-07-10T07:06	10	107	0.2	107	108	412	0.4	411	412	15.6	67.7
2025-07-10T07:07	10	108	0.1	107	108	411	0.4	410	411	15.6	68.0
2025-07-10T07:08	10	108	0.2	108	109	411	0.9	409	412	15.4	68.4
2025-07-10T07:09	10	109	0.1	109	109	409	0.4	408	410	15.2	68.7
2025-07-10T07:10	10	109	0.1	109	109	411	1.0	409	413	15.3	68.7
2025-07-10T07:11	10	109	0.2	109	110	413	0.4	412	414	15.5	68.6
2025-07-10T07:12	10	110	0.1	110	110	412	0.7	411	414	15.4	68.0
2025-07-10T07:13	10	110	0.2	110	111	412	0.2	412	413	15.4	68.2
2025-07-10T07:14	10	111	0.1	111	111	413	0.3	413	414	15.4	68.1
2025-07-10T07:15	10	111	0.2	111	111	412	0.9	411	414	15.4	68.3
2025-07-10T07:16	10	112	0.1	111	112	413	0.4	412	414	15.6	67.8
2025-07-10T07:17	10	112	0.2	112	112	414	0.5	413	415	15.9	67.7
2025-07-10T07:18	10	113	0.2	112	113	415	0.9	414	416	15.8	67.1
2025-07-10T07:19	10	113	0.2	113	113	415	1.3	412	417	16.0	67.4
2025-07-10T07:20	10	114	0.1	113	114	413	0.5	413	414	15.6	67.6
2025-07-10T07:21	10	114	0.1	114	114	415	0.5	415	416	15.6	67.5
2025-07-10T07:22	10	114	0.1	114	114	417	0.6	416	418	15.9	67.2
2025-07-10T07:23	10	115	0.2	114	115	418	0.5	417	418	15.9	66.9
2025-07-10T07:24	10	115	0.2	115	116	418	0.8	417	419	16.0	67.0
2025-07-10T07:25	10	116	0.2	115	116	418	0.6	417	419	16.1	66.2
2025-07-10T07:26	10	116	0.1	116	117	419	0.6	418	420	16.1	66.6
2025-07-10T07:27	10	117	0.1	116	117	420	0.3	419	421	16.3	66.6
2025-07-10T07:28	10	117	0.1	117	117	421	0.8	419	422	16.5	65.8
2025-07-10T07:29	10	117	0.2	117	118	422	0.5	420	423	16.3	65.1
2025-07-10T07:30	10	118	0.2	118	118	419	0.6	418	420	16.1	65.9
2025-07-10T07:31	10	118	0.1	118	119	420	0.7	420	422	16.1	65.7
2025-07-10T07:32	10	119	0.2	118	119	421	0.6	420	422	16.2	65.4
2025-07-10T07:33	10	119	0.2	119	120	419	0.9	418	421	16.3	65.4
2025-07-10T07:34	10	120	0.2	119	120	419	0.6	418	420	16.4	65.1
2025-07-10T07:35	10	120	0.2	120	121	418	0.9	416	419	16.1	65.8
2025-07-10T07:36	10	121	0.1	120	121	417	0.3	416	418	16.0	65.9
2025-07-10T07:37	10	121	0.2	121	121	420	1.4	417	422	16.0	66.4
2025-07-10T07:38	10	121	0.2	121	122	423	0.7	422	424	16.4	65.4
2025-07-10T07:39	10	122	0.1	122	122	422	0.6	420	423	16.1	65.0
2025-07-10T07:40	10	122	0.2	122	123	422	1.0	421	424	16.4	65.0
2025-07-10T07:41	10	123	0.2	122	123	425	0.9	424	427	17.0	65.0
2025-07-10T07:42	10	123	0.2	123	124	425	1.3	422	427	17.2	63.4
2025-07-10T07:43	10	124	0.1	123	124	423	0.3	423	425	16.6	63.0
2025-07-10T07:44	10	124	0.2	124	125	425	0.6	424	426	16.5	64.1
2025-07-10T07:45	10	124	0.1	124	125	426	0.4	425	426	17.1	64.0
2025-07-10T07:46	10	125	0.1	124	125	426	0.4	425	427	17.2	63.1
2025-07-10T07:47	10	125	0.2	125	126	427	0.5	426	428	17.0	63.0
2025-07-10T07:48	10	126	0.2	125	126	429	0.5	428	431	17.1	63.1
2025-07-10T07:49	10	126	0.2	126	126	427	2.3	423	430	16.8	63.3
2025-07-10T07:50	10	126	0.1	126	127	425	0.4	424	426	16.6	64.3
2025-07-10T07:51	10	127	0.1	126	127	425	0.9	424	427	16.7	64.0
2025-07-10T07:52	10	127	0.2	127	127	426	0.7	424	427	16.5	64.2
2025-07-10T07:53	10	128	0.1	127	128	428	0.5	427	429	16.8	64.3
2025-07-10T07:54	10	128	0.1	128	128	427	0.6	426	428	16.9	63.7
2025-07-10T07:55	10	128	0.2	128	129	427	0.9	425	429	16.9	63.4
2025-07-10T07:56	10	129	0.2	128	129	425	1.0	424	428	16.6	64.2
2025-07-10T07:57	10	129	0.1	129	129	426	1.0	424	427	16.5	64.5
2025-07-10T07:58	10	129	0.1	129	130	427	0.6	426	429	16.7	64.2
2025-07-10T07:59	10	130	0.1	129	130	430	0.3	429	430	16.9	63.6
2025-07-10T08:00	10	130	0.2	130	130	429	0.9	427	430	16.8	63.5
2025-07-10T08:01	10	131	0.2	130	131	429	0.6	428	430	16.8	63.9
2025-07-10T08:02	10	131	0.2	131	132	431	0.8	430	432	17.0	63.7
2025-07-10T08:03	10	131	0.1	131	132	430	0.6	429	431	16.9	63.2
2025-07-10T08:04	10	132	0.1	131	132	431	1.0	429	433	16.8	63.1
2025-07-10T08:05	10	132	0.1	132	132	432	0.8	431	434	17.1	62.9
2025-07-10T08:06	10	132	0.2	132	133	432	1.0	431	434	17.2	63.0
2025-07-10T08:07	10	133	0.2	132	133	433	1.2	431	435	17.4	62.6
2025-07-10T08:08	10	133	0.1	133	134	432	0.5	430	432	17.1	62.6
2025-07-10T08:09	10	134	0.1	133	134	431	0.4	430	432	17.0	62.8
2025-07-10T08:10	10	134	0.1	134	134	432	0.5	431	433	17.2	62.3
2025-07-10T08:11	10	134	0.2	134	135	432	0.5	432	434	17.1	62.5
2025-07-10T08:12	10	135	0.2	134	135	436	1.8	432	438	17.3	62.7
2025-07-10T08:13	10	135	0.2	135	135	435	1.6	434	438	17.6	61.1
2025-07-10T08:14	10	136	0.2	135	136	434	0.9	432	435	17.6	61.3
2025-07-10T08:15	10	136	0.1	136	136	434	1.2	432	436	17.6	61.7
2025-07-10T08:16	10	136	0.1	136	136	435	0.8	434	437	18.0	60.8
2025-07-10T08:17	10	136	0.3	136	137	435	0.8	434	437	17.7	61.0
2025-07-10T08:18	10	137	0.1	137	137	436	1.5	434	439	17.3	61.5
2025-07-10T08:19	10	137	0.1	137	138	439	0.6	438	440	17.6	61.6
2025-07-10T08:20	10	138	0.1	137	138	438	0.5	437	439	17.5	61.7
2025-07-10T08:21	10	138	0.1	138	138	438	1.0	437	440	17.8	60.9
2025-07-10T08:22	10	138	0.1	138	139	436	0.8	435	438	17.7	60.8
2025-07-10T08:23	10	139	0.1	139	139	437	0.6	435	438	17.7	61.0
2025-07-10T08:24	10	139	0.1	139	139	437	1.1	435	439	17.6	61.3
2025-07-10T08:25	10	139	0.2	139	140	438	1.3	436	441	17.8	60.6
2025-07-10T08:26	10	140	0.1	139	140	436	1.1	434	437	17.6	60.5
2025-07-10T08:27	10	140	0.1	140	140	435	0.7	434	437	17.7	60.7
2025-07-10T08:28	10	140	0.2	140	141	436	0.5	435	437	17.6	60.7
2025-07-10T08:29	10	141	0.1	140	141	437	0.7	436	438	17.7	60.7
2025-07-10T08:30	10	141	0.2	141	141	439	1.2	437	441	17.9	59.3
2025-07-10T08:31	10	142	0.1	141	142	441	0.7	440	442	18.1	58.7
2025-07-10T08:32	10	142	0.2	141	142	442	0.4	441	442	18.3	57.9
2025-07-10T08:33	10	142	0.1	142	142	440	0.8	438	442	18.1	58.2
2025-07-10T08:34	10	142	0.1	142	143	440	1.5	438	443	18.2	59.1
2025-07-10T08:35	10	142	0.1	142	143	442	0.9	441	444	18.2	58.9
2025-07-10T08:36	10	143	0.2	142	143	442	0.9	441	444	18.5	58.9
2025-07-10T08:37	10	143	0.1	143	143	444	0.4	443	445	18.5	58.5
2025-07-10T08:38	10	144	0.2	143	144	443	1.3	442	446	18.3	58.8
2025-07-10T08:39	10	144	0.1	144	144	442	0.5	442	444	18.4	58.6
2025-07-10T08:40	10	144	0.1	144	144	442	0.9	440	443	18.3	58.5
2025-07-10T08:41	10	144	0.1	144	145	441	1.0	439	443	18.2	59.0
2025-07-10T08:42	10	145	0.2	144	145	439	1.0	438	441	17.9	59.1
2025-07-10T08:43	10	145	0.1	145	145	442	0.5	441	443	18.4	58.5
2025-07-10T08:44	10	145	0.2	145	145	443	0.8	441	444	18.3	58.6
2025-07-10T08:45	10	145	0.2	145	145	442	1.3	440	444	18.3	58.2
2025-07-10T08:46	10	146	0.3	145	146	441	1.3	439	444	18.4	58.3
2025-07-10T08:47	10	145	1.7	139	146	442	1.0	441	444	18.7	57.3
2025-07-10T08:48	10	147	0.2	146	147	444	0.6	443	445	18.5	57.5
2025-07-10T08:49	10	147	0.2	147	148	444	1.3	442	447	18.5	57.5
2025-07-10T08:50	10	147	0.1	147	147	445	0.6	444	446	18.5	58.1
2025-07-10T08:51	10	148	0.2	147	148	445	0.5	444	446	18.5	58.2
2025-07-10T08:52	10	148	0.1	147	148	445	0.4	445	446	18.6	58.2
2025-07-10T08:53	10	148	0.1	147	148	443	0.6	442	445	18.6	57.6
2025-07-10T08:54	10	148	0.3	147	148	443	1.0	442	446	18.6	57.0
2025-07-10T08:55	10	148	0.2	148	149	446	0.8	445	447	19.0	56.1
2025-07-10T08:56	10	149	0.2	148	149	447	0.4	446	447	18.9	56.8
2025-07-10T08:57	10	149	0.2	148	149	447	1.4	445	450	19.0	56.8
2025-07-10T08:58	10	149	0.2	149	150	449	0.9	448	451	19.3	55.9
2025-07-10T08:59	10	150	0.1	149	150	451	0.8	450	453	19.4	55.6
2025-07-10T09:00	10	150	0.2	150	151	450	1.0	448	451	19.3	55.6
2025-07-10T09:01	10	150	0.2	150	151	452	1.0	450	454	19.1	55.7
2025-07-10T09:02	10	150	0.2	150	151	451	2.0	448	454	19.2	56.0
2025-07-10T09:03	10	150	0.2	150	151	450	0.6	448	451	19.0	55.3
2025-07-10T09:04	10	150	0.2	150	151	451	1.6	449	454	19.1	55.5
2025-07-10T09:05	10	151	0.5	150	152	452	1.3	450	454	19.1	55.2
2025-07-10T09:06	10	152	0.2	151	153	453	1.5	450	455	19.3	54.9
2025-07-10T09:07	10	152	0.3	152	153	452	1.0	450	453	19.0	55.5
2025-07-10T09:08	10	152	0.2	151	152	451	2.0	449	455	19.1	54.9
2025-07-10T09:09	10	152	0.4	151	152	453	1.1	450	455	19.2	54.0
2025-07-10T09:10	10	152	0.2	151	152	450	1.9	448	454	19.0	54.5
2025-07-10T09:11	10	153	0.3	152	154	450	0.6	448	451	18.9	54.4
2025-07-10T09:12	10	153	0.3	152	153	450	1.3	448	452	18.7	54.2
2025-07-10T09:13	10	153	0.2	153	153	456	1.7	452	458	19.0	54.4
2025-07-10T09:14	10	153	0.3	153	154	452	1.4	451	456	19.0	54.9
2025-07-10T09:15	10	153	0.3	153	154	451	0.5	451	453	18.7	55.7
2025-07-10T09:16	10	154	0.2	154	155	455	1.1	452	457	19.1	55.4
2025-07-10T09:17	10	154	0.5	153	155	455	1.3	453	457	19.4	54.3
2025-07-10T09:18	10	154	0.3	153	154	450	1.8	448	454	19.3	54.0
2025-07-10T09:19	10	153	0.4	152	154	451	1.5	448	453	19.2	53.9
2025-07-10T09:20	10	153	0.6	152	154	452	0.8	451	454	19.4	54.1
2025-07-10T09:21	10	154	0.4	153	155	455	1.3	451	456	19.6	53.3
2025-07-10T09:22	10	156	0.3	155	156	450	0.8	449	452	19.1	53.3
2025-07-10T09:23	10	155	0.2	155	156	453	1.0	450	454	19.8	52.4
2025-07-10T09:24	10	155	0.2	155	156	454	0.6	453	456	19.3	53.3
2025-07-10T09:25	10	155	0.3	155	156	459	2.2	455	463	19.7	53.5
2025-07-10T09:26	10	156	0.2	156	156	459	1.6	456	461	20.0	52.5
2025-07-10T09:27	10	156	0.1	156	156	455	1.0	454	458	19.5	53.0
2025-07-10T09:28	10	156	0.2	155	157	454	0.7	453	455	19.3	53.4
2025-07-10T09:29	10	155	0.2	155	156	455	0.9	453	457	19.5	53.5
2025-07-10T09:30	10	156	0.4	156	157	455	0.3	455	456	18.9	54.0
2025-07-10T09:31	10	156	0.4	155	157	455	0.9	453	456	19.3	53.3
2025-07-10T09:32	10	156	0.2	156	156	456	0.8	455	458	19.5	53.0
2025-07-10T09:33	10	156	0.3	155	157	456	1.5	453	458	19.9	52.0
2025-07-10T09:34	10	156	0.3	155	156	449	2.2	447	454	19.4	52.5
2025-07-10T09:35	10	156	0.2	156	157	451	0.7	449	452	19.5	52.8
2025-07-10T09:36	10	157	0.2	156	157	454	2.1	451	457	19.8	52.5
2025-07-10T09:37	10	157	0.7	156	158	457	0.8	455	459	20.1	52.1
2025-07-10T09:38	10	158	0.2	158	158	459	1.1	458	461	19.8	52.3
2025-07-10T09:39	10	158	0.3	158	159	462	0.5	461	463	20.1	51.7
2025-07-10T09:40	10	159	0.3	158	160	460	1.2	458	463	19.9	51.3
2025-07-10T09:41	10	158	0.6	157	159	459	3.2	454	463	20.1	51.0
2025-07-10T09:42	10	158	0.3	157	159	454	0.9	453	456	19.7	51.3
2025-07-10T09:43	10	159	0.2	158	159	454	1.7	452	458	19.6	51.9
2025-07-10T09:44	10	158	0.3	158	159	457	0.4	456	457	19.5	52.0
2025-07-10T09:45	10	158	0.5	158	159	459	1.2	457	461	19.5	51.8
2025-07-10T09:46	10	158	0.4	158	159	457	0.8	456	459	19.5	51.2
2025-07-10T09:47	10	160	0.3	159	160	461	2.3	456	465	20.4	50.3
2025-07-10T09:48	10	160	0.2	160	160	458	1.5	456	462	19.9	50.7
2025-07-10T09:49	10	160	0.5	159	160	458	1.0	457	460	19.7	50.9
2025-07-10T09:50	10	159	0.4	159	160	461	1.2	459	462	20.0	50.6
2025-07-10T09:51	10	160	0.2	159	160	459	1.5	457	462	20.1	50.5
2025-07-10T09:52	10	160	0.4	160	161	460	1.2	458	462	19.6	51.1
2025-07-10T09:53	10	161	0.2	160	161	464	0.9	462	466	20.3	50.4
2025-07-10T09:54	10	160	0.5	159	161	467	0.6	465	467	20.6	49.3
2025-07-10T09:55	10	159	0.4	158	160	462	2.8	457	467	20.6	49.1
2025-07-10T09:56	10	160	0.4	159	160	456	1.0	454	458	19.9	50.0
2025-07-10T09:57	10	160	0.5	159	160	455	1.1	453	457	20.0	50.0
2025-07-10T09:58	10	160	0.4	159	161	457	0.9	454	458	19.6	50.2
2025-07-10T09:59	10	161	0.5	160	162	457	0.6	455	458	19.8	50.1
2025-07-10T10:00	10	162	0.2	161	162	458	1.0	456	460	20.0	49.6
2025-07-10T10:01	10	162	0.3	162	163	455	1.5	453	458	19.7	49.7
2025-07-10T10:02	10	162	0.3	161	163	459	0.8	457	461	19.9	49.8
2025-07-10T10:03	10	162	0.3	162	163	460	1.0	458	461	20.1	49.1
2025-07-10T10:04	10	163	0.3	162	163	462	1.3	460	464	20.0	49.3
2025-07-10T10:05	10	163	0.3	162	164	461	1.7	459	465	20.2	48.7
2025-07-10T10:06	10	163	0.2	163	164	466	2.3	462	469	20.4	48.8
2025-07-10T10:07	10	164	0.4	163	164	467	1.2	465	469	20.4	48.2
2025-07-10T10:08	10	164	0.3	163	165	468	1.1	465	470	20.4	48.7
2025-07-10T10:09	10	164	0.4	163	165	464	0.9	463	466	20.3	48.0
2025-07-10T10:10	10	163	0.8	161	164	466	1.9	462	468	20.9	47.2
2025-07-10T10:11	10	162	0.8	160	163	466	1.4	463	468	20.3	48.0
2025-07-10T10:12	10	163	1.1	161	164	463	1.2	461	465	20.5	47.9
2025-07-10T10:13	10	164	0.4	163	164	463	1.9	458	465	20.4	48.0
2025-07-10T10:14	10	163	0.5	162	164	462	2.5	458	466	20.2	48.0
2025-07-10T10:15	10	164	0.3	164	165	463	0.9	461	465	20.4	47.7
2025-07-10T10:16	10	165	0.2	164	165	466	0.8	464	468	20.6	47.1
2025-07-10T10:17	10	164	0.2	164	165	467	0.9	464	468	20.9	46.5
2025-07-10T10:18	10	165	0.5	164	166	462	1.5	460	464	20.2	47.4
2025-07-10T10:19	10	165	0.2	165	166	463	1.2	461	465	20.6	47.5
2025-07-10T10:20	10	166	0.2	165	166	467	0.6	466	469	20.5	47.2
2025-07-10T10:21	10	166	0.2	165	166	471	1.1	469	473	20.7	47.1
2025-07-10T10:22	10	166	0.1	165	166	466	1.9	463	469	20.2	46.0
2025-07-10T10:23	10	166	0.2	165	166	465	0.6	464	466	20.0	46.8
2025-07-10T10:24	10	166	0.2	165	166	468	0.7	466	469	20.4	46.8
2025-07-10T10:25	10	166	0.2	165	166	470	1.1	468	473	20.4	45.2
2025-07-10T10:26	10	166	0.2	166	167	472	2.1	468	475	20.4	46.7
2025-07-10T10:27	10	167	0.1	166	167	470	0.8	469	471	20.4	46.8
2025-07-10T10:28	10	166	0.3	166	167	469	2.1	466	472	20.4	46.8
2025-07-10T10:29	10	167	0.2	166	167	467	1.1	465	469	20.4	46.8
2025-07-10T10:30	10	167	0.2	166	167	468	2.1	465	471	20.9	45.2
2025-07-10T10:31	10	167	0.2	167	168	465	2.1	463	471	20.4	45.0
2025-07-10T10:32	10	167	0.2	167	167	469	1.4	467	472	20.4	45.1
2025-07-10T10:33	10	167	0.3	166	168	469	3.3	463	472	20.7	45.3
2025-07-10T10:34	10	167	0.4	166	168	465	1.6	463	467	20.3	45.6
2025-07-10T10:35	10	166	0.2	166	167	469	1.1	466	471	20.3	45.9
2025-07-10T10:36	10	167	0.3	166	167	472	1.3	470	475	20.4	46.0
2025-07-10T10:37	10	167	0.2	167	168	475	0.8	473	477	21.0	46.2
2025-07-10T10:38	10	167	0.2	166	167	467	2.2	464	472	20.8	44.7
2025-07-10T10:39	10	167	0.1	166	167	469	2.3	466	472	20.5	45.0
2025-07-10T10:40	10	167	0.2	166	168	475	1.8	472	478	21.3	44.3
2025-07-10T10:41	10	168	0.3	167	168	468	2.0	466	474	20.9	44.2
2025-07-10T10:42	10	168	0.3	167	168	467	1.3	465	469	20.9	44.3
2025-07-10T10:43	10	168	0.3	167	169	471	2.7	466	474	20.8	44.3
2025-07-10T10:44	10	168	0.2	168	169	473	0.9	472	476	21.2	44.4
2025-07-10T10:45	10	168	0.3	168	169	476	3.6	468	481	21.5	44.0
2025-07-10T10:46	10	168	0.2	168	169	466	2.8	462	470	20.6	44.2
2025-07-10T10:47	10	168	0.2	168	169	467	1.6	464	469	20.5	44.9
2025-07-10T10:48	10	168	0.1	168	169	471	1.3	468	474	20.9	44.8
2025-07-10T10:49	10	168	0.2	168	169	473	1.1	471	474	20.9	43.9
2025-07-10T10:50	10	168	0.4	167	168	474	1.4	471	477	21.0	43.8
2025-07-10T10:51	10	167	0.6	166	168	473	0.9	471	474	21.2	43.4
2025-07-10T10:52	10	168	0.5	167	169	470	2.7	466	474	20.9	44.0
2025-07-10T10:53	10	168	0.3	168	169	468	0.7	466	469	21.0	43.9
2025-07-10T10:54	10	168	0.2	168	168	466	0.7	464	467	20.9	44.1
2025-07-10T10:55	10	168	0.3	167	168	466	1.0	464	468	21.1	43.6
2025-07-10T10:56	10	168	0.2	168	169	467	1.2	465	470	21.1	43.7
2025-07-10T10:57	10	168	0.1	168	169	467	1.3	466	470	20.9	43.8
2025-07-10T10:58	10	169	0.2	168	169	467	1.0	465	469	21.1	43.5
2025-07-10T10:59	10	169	0.3	169	170	469	0.9	467	471	21.3	43.6
2025-07-10T11:00	10	169	0.3	169	170	473	1.1	470	474	21.1	43.4
2025-07-10T11:01	10	169	0.3	169	170	475	2.0	472	479	21.5	43.1
2025-07-10T11:02	10	170	0.2	169	170	475	1.2	472	477	21.7	43.0
2025-07-10T11:03	10	170	0.1	170	170	473	0.6	472	475	21.3	43.3
2025-07-10T11:04	10	170	0.2	170	170	474	0.7	472	476	21.5	42.9
2025-07-10T11:05	10	170	0.2	170	171	476	0.6	474	477	21.5	43.3
2025-07-10T11:06	10	170	0.2	170	170	476	1.0	474	478	21.8	43.7
2025-07-10T11:07	10	170	0.2	170	171	481	2.5	478	484	22.2	43.0
2025-07-10T11:08	10	171	0.1	170	171	480	2.5	477	484	22.2	41.9
2025-07-10T11:09	10	170	0.2	170	171	478	0.9	476	479	21.8	42.8
2025-07-10T11:10	10	170	0.2	170	171	473	1.5	471	476	20.9	43.6
2025-07-10T11:11	10	171	0.1	170	171	476	0.7	475	478	21.5	43.3
2025-07-10T11:12	10	170	0.2	170	171	477	1.6	475	480	21.2	43.2
2025-07-10T11:13	10	170	0.2	170	170	480	1.3	477	482	21.6	42.9
2025-07-10T11:14	10	171	0.2	170	171	481	0.4	480	482	21.6	43.1
2025-07-10T11:15	10	171	0.1	171	171	478	1.6	476	481	21.8	42.7
2025-07-10T11:16	10	171	0.2	170	171	476	1.4	473	478	21.7	42.2
2025-07-10T11:17	10	171	0.1	170	171	474	0.9	472	477	21.5	42.5
2025-07-10T11:18	10	171	0.2	170	171	473	0.8	472	474	21.1	42.6
2025-07-10T11:19	10	171	0.2	171	171	475	1.0	474	477	21.2	42.3
2025-07-10T11:20	10	171	0.1	170	171	472	1.9	470	477	21.1	42.8
2025-07-10T11:21	10	171	0.1	170	171	472	1.8	469	475	20.8	42.9
2025-07-10T11:22	10	170	0.3	170	171	473	1.0	472	475	21.1	42.2
2025-07-10T11:23	10	170	0.2	170	170	474	0.9	473	476	21.4	41.3
2025-07-10T11:24	10	170	0.4	170	171	477	1.5	474	479	21.7	41.2
2025-07-10T11:25	10	171	0.2	171	172	475	1.4	473	478	21.2	41.2
2025-07-10T11:26	10	171	0.5	170	172	476	1.1	474	478	21.5	41.8
2025-07-10T11:27	10	170	0.2	170	171	474	0.6	473	475	21.6	40.9
2025-07-10T11:28	10	171	0.1	171	171	477	1.3	475	480	21.9	40.5
2025-07-10T11:29	10	171	0.1	171	171	475	1.8	473	479	21.8	40.4
2025-07-10T11:30	10	172	0.4	171	172	475	0.6	474	476	21.7	40.5
2025-07-10T11:31	10	172	0.1	172	172	478	1.1	476	480	21.8	40.4
2025-07-10T11:32	10	172	0.3	171	172	477	1.2	475	478	21.6	41.3
2025-07-10T11:33	10	171	0.2	171	172	479	1.8	476	482	21.9	41.0
2025-07-10T11:34	10	171	0.1	171	171	480	0.9	479	482	21.8	41.2
2025-07-10T11:35	10	171	0.2	170	171	476	2.3	472	479	21.7	41.0
2025-07-10T11:36	10	171	0.2	171	171	474	1.3	472	476	21.7	41.6
2025-07-10T11:37	10	171	0.2	171	172	476	1.1	474	478	21.5	41.8
2025-07-10T11:38	10	171	0.1	171	171	479	1.9	477	482	21.6	41.9
2025-07-10T11:39	10	171	0.2	171	172	481	1.0	480	483	21.7	41.5
2025-07-10T11:40	10	172	0.3	172	173	483	1.1	481	485	21.9	42.0
2025-07-10T11:41	10	172	0.1	172	172	482	1.5	480	485	21.8	41.7
2025-07-10T11:42	10	172	0.1	172	172	485	0.8	483	486	22.0	41.4
2025-07-10T11:43	10	172	0.2	172	172	487	0.6	486	488	22.7	40.6
2025-07-10T11:44	10	172	0.3	172	172	485	1.1	483	487	22.9	40.7
2025-07-10T11:45	10	172	0.4	171	172	480	1.1	479	484	21.9	40.7
2025-07-10T11:46	10	171	0.2	171	172	479	1.8	477	482	22.0	40.2
2025-07-10T11:47	10	171	0.1	171	171	479	0.8	477	480	22.2	39.0
2025-07-10T11:48	10	171	0.1	170	171	478	1.8	476	482	22.0	38.7
2025-07-10T11:49	10	171	0.3	171	172	481	1.0	479	482	22.5	38.7
2025-07-10T11:50	10	172	0.1	172	172	481	0.5	480	482	22.0	39.4
2025-07-10T11:51	10	173	0.1	172	173	480	0.8	479	482	21.7	40.0
2025-07-10T11:52	10	172	0.1	172	173	483	1.9	479	486	22.3	40.0
2025-07-10T11:53	10	172	0.1	172	173	484	1.3	481	486	22.5	39.7
2025-07-10T11:54	10	173	0.2	173	173	484	0.9	481	485	21.8	39.5
2025-07-10T11:55	10	173	0.2	173	174	482	1.0	480	484	21.7	40.2
2025-07-10T11:56	10	173	0.2	173	174	483	2.3	480	487	21.8	40.7
2025-07-10T11:57	10	174	0.4	173	174	487	1.1	484	489	22.4	40.1
2025-07-10T11:58	10	173	0.2	172	173	483	0.9	481	485	22.2	39.7
2025-07-10T11:59	10	172	0.2	172	173	483	0.8	482	485	21.9	39.8
2025-07-10T12:00	10	172	0.2	172	173	486	0.8	484	487	22.0	39.8
2025-07-10T12:01	10	173	0.5	172	173	486	1.9	481	489	22.1	38.7
2025-07-10T12:02	10	172	0.2	172	172	480	0.8	478	482	22.0	36.6
2025-07-10T12:03	10	172	0.2	172	172	481	0.7	480	483	22.3	37.1
2025-07-10T12:04	10	172	0.2	171	172	482	0.8	481	484	22.6	36.8
2025-07-10T12:05	10	172	0.2	172	173	482	1.5	480	484	22.5	35.5
2025-07-10T12:06	10	173	0.2	173	173	482	0.7	481	484	22.2	36.9
2025-07-10T12:07	10	173	0.5	171	173	486	0.8	484	487	22.2	38.0
2025-07-10T12:08	10	171	0.7	170	172	485	1.1	483	487	22.3	38.7
2025-07-10T12:09	10	172	0.2	172	173	488	0.6	486	489	22.3	38.0
2025-07-10T12:10	10	172	0.3	172	173	488	0.8	487	490	22.0	38.4
2025-07-10T12:11	10	172	0.3	171	172	489	0.6	488	490	22.7	38.6
2025-07-10T12:12	10	172	0.3	171	172	486	1.6	483	489	22.8	38.5
2025-07-10T12:13	10	172	0.3	171	173	483	0.6	482	484	22.3	38.1
2025-07-10T12:14	10	170	0.6	169	171	481	1.1	480	484	21.9	37.3
2025-07-10T12:15	10	172	0.3	171	173	484	2.1	479	487	22.2	35.7
2025-07-10T12:16	10	171	0.3	171	172	480	1.3	478	484	22.0	37.0
2025-07-10T12:17	10	171	0.5	171	172	484	0.6	483	485	22.4	37.0
2025-07-10T12:18	10	171	0.1	171	171	487	1.3	485	489	22.5	36.7
2025-07-10T12:19	10	171	0.2	170	171	489	0.9	487	490	22.9	37.0
2025-07-10T12:20	10	171	0.1	171	171	490	1.1	489	492	23.5	35.9
2025-07-10T12:21	10	171	0.1	170	171	489	1.2	488	492	23.5	36.0
2025-07-10T12:22	10	171	0.2	171	171	490	0.4	489	491	23.2	37.0
2025-07-10T12:23	10	171	0.2	171	172	490	1.2	489	493	23.1	36.9
2025-07-10T12:24	10	171	0.1	171	171	488	3.5	483	493	23.0	34.6
2025-07-10T12:25	10	170	0.3	170	171	484	0.8	482	486	22.6	34.8
2025-07-10T12:26	10	170	0.1	170	171	484	1.0	482	486	22.8	35.0
2025-07-10T12:27	10	170	0.1	170	171	481	0.9	479	483	22.2	34.9
2025-07-10T12:28	10	171	0.2	170	171	484	1.0	480	485	22.2	34.5
2025-07-10T12:29	10	171	0.2	170	171	488	1.8	484	491	22.5	35.3
2025-07-10T12:30	10	171	0.4	170	172	487	2.0	485	491	22.5	37.0
2025-07-10T12:31	10	171	0.2	170	171	487	1.1	485	489	22.4	37.8
2025-07-10T12:32	10	171	0.4	170	172	487	0.7	486	488	22.6	37.8
2025-07-10T12:33	10	171	0.2	170	171	489	1.2	487	491	22.8	38.2
2025-07-10T12:34	10	170	0.2	170	171	489	0.9	488	491	23.0	37.6
2025-07-10T12:35	10	170	0.2	170	171	487	0.5	487	488	23.1	37.4
2025-07-10T12:36	10	170	0.2	170	171	484	1.8	481	487	22.6	36.5
2025-07-10T12:37	10	170	0.2	169	170	484	1.5	482	486	22.4	36.8
2025-07-10T12:38	10	170	0.1	169	170	485	1.5	482	487	23.0	36.0
2025-07-10T12:39	10	170	0.2	169	170	486	1.7	483	489	23.0	35.5
2025-07-10T12:40	10	169	0.4	168	170	482	1.0	480	484	22.6	35.3
2025-07-10T12:41	10	168	0.1	168	169	483	0.9	482	485	22.9	35.2
2025-07-10T12:42	10	169	0.2	168	169	481	1.1	480	483	22.4	34.8
2025-07-10T12:43	10	169	0.1	168	169	482	1.7	480	485	22.3	34.5
2025-07-10T12:44	10	168	0.2	168	168	484	1.1	482	486	22.5	35.3
2025-07-10T12:45	10	167	0.2	167	168	480	1.2	479	483	22.9	35.8
2025-07-10T12:46	10	167	0.3	166	167	483	1.3	482	486	22.6	36.1
2025-07-10T12:47	10	167	0.5	167	168	486	1.1	485	488	22.9	36.2
2025-07-10T12:48	10	169	0.2	168	169	485	1.0	483	486	22.4	36.0
2025-07-10T12:49	10	169	0.1	169	169	485	1.0	483	487	22.0	36.3
2025-07-10T12:50	10	169	0.1	168	169	485	0.9	483	487	22.6	36.3
2025-07-10T12:51	10	169	0.1	168	169	484	0.6	483	485	22.6	35.5
2025-07-10T12:52	10	169	0.1	168	169	487	0.9	485	488	22.8	35.5
2025-07-10T12:53	10	168	0.1	168	169	487	1.8	483	488	23.0	34.8
2025-07-10T12:54	10	169	0.1	168	169	486	0.8	484	487	22.8	34.1
2025-07-10T12:55	10	169	0.1	168	169	488	1.0	486	490	22.9	32.9
2025-07-10T12:56	10	168	0.1	168	168	490	0.8	488	491	23.2	32.8
2025-07-10T12:57	10	168	0.1	168	168	490	0.5	489	491	23.6	33.8
2025-07-10T12:58	10	168	0.2	167	168	486	3.3	482	491	23.0	33.6
2025-07-10T12:59	10	167	0.2	167	168	487	1.5	484	490	22.8	33.6
2025-07-10T13:00	10	167	0.1	167	168	488	0.8	487	490	23.5	34.2
2025-07-10T13:01	10	168	0.1	167	168	485	1.7	482	488	22.9	33.9
2025-07-10T13:02	10	167	0.2	167	168	485	1.1	483	487	22.6	34.3
2025-07-10T13:03	10	167	0.1	167	167	485	1.2	483	487	22.9	33.1
2025-07-10T13:04	10	167	0.1	167	167	482	1.4	480	485	22.8	32.1
2025-07-10T13:05	10	167	0.1	167	167	481	0.3	481	482	23.0	32.2
2025-07-10T13:06	10	167	0.1	166	167	482	1.2	480	484	22.9	32.5
2025-07-10T13:07	10	166	0.4	165	167	485	1.3	483	488	23.3	32.2
2025-07-10T13:08	10	167	0.2	166	167	485	1.6	482	487	23.0	31.4
2025-07-10T13:09	10	167	0.3	167	168	482	1.1	481	485	22.7	30.6
2025-07-10T13:10	10	167	0.1	167	168	488	1.4	485	490	23.0	31.1
2025-07-10T13:11	10	167	0.2	166	167	489	1.6	486	492	23.1	30.5
2025-07-10T13:12	10	167	0.1	166	167	486	2.9	481	490	23.1	30.4
2025-07-10T13:13	10	167	0.1	166	167	480	1.4	478	483	22.7	30.6
2025-07-10T13:14	10	167	0.2	166	167	482	0.9	480	484	22.6	30.9
2025-07-10T13:15	10	166	0.1	166	167	486	0.8	484	487	22.9	31.1
2025-07-10T13:16	10	166	0.1	166	167	488	1.3	486	490	22.5	31.4
2025-07-10T13:17	10	166	0.1	166	166	491	0.5	489	492	22.7	31.7
2025-07-10T13:18	10	166	0.2	165	166	489	0.5	488	490	23.1	32.9
2025-07-10T13:19	10	165	0.1	165	165	485	2.2	482	489	23.1	33.1
2025-07-10T13:20	10	165	0.1	165	165	484	0.8	482	485	22.9	32.8
2025-07-10T13:21	10	165	0.2	164	165	483	1.0	481	484	22.8	32.6
2025-07-10T13:22	10	164	0.2	164	165	482	1.1	480	485	22.7	32.2
2025-07-10T13:23	10	165	0.3	164	165	484	1.5	482	487	23.2	29.0
2025-07-10T13:24	10	165	0.1	165	165	483	1.4	481	486	23.2	27.9
2025-07-10T13:25	10	165	0.2	164	165	484	1.0	483	486	22.6	29.1
2025-07-10T13:26	10	164	0.2	164	165	484	0.6	483	486	22.7	30.8
2025-07-10T13:27	10	163	0.2	163	164	484	1.0	481	485	23.0	31.5
2025-07-10T13:28	10	163	0.1	163	164	481	0.5	480	482	22.7	31.6
2025-07-10T13:29	10	164	0.1	163	164	484	0.4	482	485	23.2	32.2
2025-07-10T13:30	10	163	0.1	163	164	485	0.9	483	486	23.5	32.2
2025-07-10T13:31	10	164	0.1	163	164	485	1.5	483	488	23.4	32.4
2025-07-10T13:32	10	163	0.1	163	164	484	2.1	481	488	23.3	31.9
2025-07-10T13:33	10	163	0.1	163	164	482	1.1	481	485	22.8	31.4
2025-07-10T13:34	10	163	0.1	163	164	486	0.9	484	488	23.6	31.5
2025-07-10T13:35	10	163	0.1	163	163	483	1.3	482	486	23.1	28.5
2025-07-10T13:36	10	163	0.1	163	164	483	0.5	482	484	22.8	28.1
2025-07-10T13:37	10	163	0.1	163	164	486	1.5	484	489	22.7	29.8
2025-07-10T13:38	10	163	0.1	163	164	489	0.9	488	491	23.4	30.1
2025-07-10T13:39	10	163	0.2	163	163	489	1.6	485	491	23.2	29.9
2025-07-10T13:40	10	163	0.3	162	163	482	1.2	481	485	23.0	30.3
2025-07-10T13:41	10	162	0.2	162	163	483	0.8	481	484	23.3	30.7
2025-07-10T13:42	10	162	0.2	162	163	486	1.3	483	488	23.5	30.8
2025-07-10T13:43	10	162	0.2	162	162	489	0.9	488	491	24.0	30.5
2025-07-10T13:44	10	162	0.2	162	163	488	1.0	486	490	23.8	28.3
2025-07-10T13:45	10	162	0.2	162	163	488	1.4	486	490	23.8	28.2
2025-07-10T13:46	10	162	0.2	162	163	485	1.2	484	489	23.6	28.9
2025-07-10T13:47	10	162	0.2	162	162	484	2.0	480	486	23.3	28.4
2025-07-10T13:48	10	162	0.3	161	162	481	0.5	480	482	23.0	27.7
2025-07-10T13:49	10	161	0.2	161	162	482	0.6	481	483	23.1	29.2
2025-07-10T13:50	10	161	0.4	160	161	480	1.0	477	482	22.8	30.4
2025-07-10T13:51	10	161	0.2	160	161	478	1.1	477	480	22.9	29.0
2025-07-10T13:52	10	160	0.2	160	161	480	0.8	479	482	23.1	27.9
2025-07-10T13:53	10	160	0.2	160	161	481	0.5	480	482	23.3	29.8
2025-07-10T13:54	10	160	0.2	159	161	482	0.8	480	483	23.1	29.7
2025-07-10T13:55	10	160	0.1	159	160	483	0.9	481	485	23.3	27.1
2025-07-10T13:56	10	159	0.1	159	160	486	0.6	485	487	23.4	26.6
2025-07-10T13:57	10	159	0.2	159	160	487	0.9	486	489	23.3	28.8
2025-07-10T13:58	10	159	0.1	158	159	488	0.8	485	489	23.8	30.2
2025-07-10T13:59	10	158	0.2	158	159	482	1.5	480	485	23.6	30.3
2025-07-10T14:00	10	159	0.2	158	159	484	1.2	481	486	23.5	30.9
2025-07-10T14:01	10	159	0.2	158	159	484	1.0	482	486	23.3	28.6
2025-07-10T14:02	10	159	0.1	159	159	482	1.4	480	484	23.4	27.2
2025-07-10T14:03	10	159	0.2	158	159	480	0.4	479	481	23.4	26.2
2025-07-10T14:04	10	158	0.1	158	158	480	1.4	478	482	23.2	27.2
2025-07-10T14:05	10	158	0.2	158	159	482	1.9	479	485	23.5	27.8
2025-07-10T14:06	10	158	0.2	158	158	487	1.2	484	489	24.2	28.1
2025-07-10T14:07	10	158	0.1	157	158	485	1.8	481	487	24.3	28.1
2025-07-10T14:08	10	158	0.2	157	158	481	0.5	480	482	23.5	26.1
2025-07-10T14:09	10	157	0.2	157	158	482	0.6	480	483	23.5	25.6
2025-07-10T14:10	10	156	0.2	156	157	483	1.0	482	485	23.4	25.3
2025-07-10T14:11	10	156	0.1	156	157	487	1.0	485	488	23.6	26.1
2025-07-10T14:12	10	157	0.1	156	157	486	0.9	484	488	24.0	27.9
2025-07-10T14:13	10	156	0.3	156	157	483	1.6	481	486	23.7	25.0
2025-07-10T14:14	10	156	0.2	155	156	484	0.8	482	485	23.6	26.0
2025-07-10T14:15	10	155	0.1	155	155	486	0.8	485	488	24.0	26.8
2025-07-10T14:16	10	155	0.1	155	155	486	1.1	485	488	24.2	28.3
2025-07-10T14:17	10	155	0.1	154	155	482	1.1	481	485	24.1	29.1
2025-07-10T14:18	10	154	0.1	154	154	483	0.7	481	484	24.1	29.5
2025-07-10T14:19	10	154	0.2	154	154	484	1.1	481	485	24.2	29.3
2025-07-10T14:20	10	155	0.1	154	155	482	0.6	481	483	23.5	28.4
2025-07-10T14:21	10	154	0.2	154	154	482	1.0	481	484	23.4	28.1
2025-07-10T14:22	10	154	0.2	153	154	480	1.8	478	483	23.7	27.4
2025-07-10T14:23	10	153	0.2	153	153	478	1.6	475	479	23.9	27.2
2025-07-10T14:24	10	152	0.3	152	153	476	0.8	475	477	23.4	28.1
2025-07-10T14:25	10	152	0.2	152	153	478	1.6	475	480	23.7	28.5
2025-07-10T14:26	10	153	0.2	152	153	479	1.3	477	481	24.0	27.5
2025-07-10T14:27	10	152	0.2	152	153	475	1.1	474	478	23.6	27.0
2025-07-10T14:28	10	151	0.1	151	152	479	1.9	475	482	24.1	28.2
2025-07-10T14:29	10	151	0.2	151	151	478	1.5	476	481	24.0	28.4
2025-07-10T14:30	10	151	0.2	150	151	478	1.1	476	480	23.5	28.8
2025-07-10T14:31	10	151	0.1	150	151	482	0.9	480	483	23.8	28.6
2025-07-10T14:32	10	150	0.3	149	150	481	0.4	480	482	23.6	27.8
2025-07-10T14:33	10	150	0.1	150	150	480	0.8	479	482	23.5	27.7
2025-07-10T14:34	10	150	0.2	149	150	481	0.7	480	483	23.9	26.9
2025-07-10T14:35	10	150	0.2	149	150	478	1.1	476	480	23.9	26.4
2025-07-10T14:36	10	150	0.1	149	150	476	0.8	475	478	24.1	24.0
2025-07-10T14:37	10	150	0.1	150	150	476	1.0	475	478	23.6	22.7
2025-07-10T14:38	10	150	0.1	149	150	479	1.1	477	481	23.8	22.5
2025-07-10T14:39	10	149	0.2	149	150	478	0.6	476	479	23.9	20.1
2025-07-10T14:40	10	149	0.1	149	149	477	0.7	476	479	23.7	21.8
2025-07-10T14:41	10	149	0.2	148	149	479	1.0	476	480	23.6	23.9
2025-07-10T14:42	10	148	0.1	148	148	480	1.1	478	482	24.1	24.9
2025-07-10T14:43	10	148	0.3	147	148	476	0.5	475	477	24.0	23.7
2025-07-10T14:44	10	147	0.1	147	147	479	1.0	477	480	23.9	23.6
2025-07-10T14:45	10	146	0.4	146	147	479	1.2	478	482	23.9	23.0
2025-07-10T14:46	10	146	0.1	145	146	483	0.7	481	484	24.1	23.6
2025-07-10T14:47	10	145	0.1	145	146	482	1.6	478	483	24.4	26.3
2025-07-10T14:48	10	145	0.1	145	146	476	1.5	474	478	23.8	29.6
2025-07-10T14:49	10	145	0.2	145	146	477	1.3	475	479	23.5	30.6
2025-07-10T14:50	10	145	0.4	144	145	476	1.0	475	479	23.8	31.0
2025-07-10T14:51	10	144	0.1	143	144	475	0.4	474	476	24.0	30.8
2025-07-10T14:52	10	143	0.1	143	144	476	0.9	475	478	24.1	30.6
2025-07-10T14:53	10	143	0.1	143	143	476	1.1	474	478	24.0	29.3
2025-07-10T14:54	10	143	0.1	143	143	474	0.5	473	475	23.9	28.2
2025-07-10T14:55	10	143	0.1	143	143	475	1.0	474	477	23.6	28.5
2025-07-10T14:56	10	143	0.1	143	143	478	0.9	475	479	23.9	28.8
2025-07-10T14:57	10	143	0.3	142	143	474	0.7	473	475	23.8	29.0
2025-07-10T14:58	10	142	0.2	142	143	475	0.8	473	476	24.0	28.8
2025-07-10T14:59	10	142	0.2	142	143	473	1.0	472	475	24.0	27.8
2025-07-10T15:00	10	142	0.1	142	142	473	1.0	472	475	23.7	26.8
2025-07-10T15:01	10	142	0.1	142	142	474	0.6	473	476	23.9	27.4
2025-07-10T15:02	10	141	0.2	141	142	474	0.9	472	475	24.1	28.7
2025-07-10T15:03	10	141	0.2	140	141	475	0.9	473	476	24.1	29.2
2025-07-10T15:04	10	141	0.2	140	141	474	1.2	472	476	24.0	29.0
2025-07-10T15:05	10	140	0.2	140	141	474	0.6	473	475	24.0	29.2
2025-07-10T15:06	10	139	0.4	139	140	474	1.1	472	476	23.9	28.7
2025-07-10T15:07	10	138	0.2	138	139	474	1.6	471	477	24.4	29.1
2025-07-10T15:08	10	138	0.2	137	138	477	0.4	476	478	25.0	28.2
2025-07-10T15:09	10	138	0.2	137	138	475	0.5	474	476	24.7	26.1
2025-07-10T15:10	10	138	0.3	137	139	475	0.5	474	476	24.5	26.0
2025-07-10T15:11	10	139	0.3	138	139	474	1.3	472	476	24.4	28.6
2025-07-10T15:12	10	138	0.3	138	139	473	0.6	472	474	24.3	29.4
2025-07-10T15:13	10	138	0.2	137	138	469	1.4	467	472	24.0	26.9
2025-07-10T15:14	10	137	0.2	137	138	469	0.5	468	470	24.3	26.5
2025-07-10T15:15	10	137	0.3	136	138	468	1.0	466	470	24.0	25.3
2025-07-10T15:16	10	136	0.3	135	137	469	1.9	466	472	24.2	25.5
2025-07-10T15:17	10	136	0.2	135	136	470	1.3	468	473	24.1	24.3
2025-07-10T15:18	10	135	0.3	135	136	469	0.8	468	470	23.6	24.9
2025-07-10T15:19	10	135	0.2	134	135	471	0.5	470	472	23.8	26.7
2025-07-10T15:20	10	134	0.2	134	135	473	0.7	471	475	24.3	27.9
2025-07-10T15:21	10	134	0.2	134	135	472	1.0	470	474	24.5	28.1
2025-07-10T15:22	10	134	0.3	133	135	470	0.5	469	471	24.0	28.5
2025-07-10T15:23	10	133	0.4	133	134	467	1.2	466	470	24.0	29.5
2025-07-10T15:24	10	133	0.2	133	133	467	0.5	466	468	23.8	29.9
2025-07-10T15:25	10	132	0.2	132	133	466	0.9	465	468	23.8	30.1
2025-07-10T15:26	10	132	0.1	132	132	470	1.3	467	473	24.1	29.9
2025-07-10T15:27	10	131	0.2	131	132	474	1.3	472	476	24.4	30.2
2025-07-10T15:28	10	131	0.2	130	131	476	0.6	475	477	24.8	30.3
2025-07-10T15:29	10	131	0.3	130	131	471	3.4	466	476	24.4	29.5
2025-07-10T15:30	10	130	0.2	130	131	468	0.8	466	469	24.1	29.4
2025-07-10T15:31	10	130	0.2	129	131	467	0.4	466	468	24.0	28.0
2025-07-10T15:32	10	130	0.2	129	130	469	1.0	467	470	24.2	28.4
2025-07-10T15:33	10	129	0.2	129	130	467	2.2	464	470	24.1	28.0
2025-07-10T15:34	10	129	0.2	128	129	465	1.0	464	467	24.1	28.2
2025-07-10T15:35	10	128	0.2	128	129	467	0.8	466	469	24.1	28.1
2025-07-10T15:36	10	128	0.2	128	128	466	1.1	464	468	24.0	26.8
2025-07-10T15:37	10	127	0.1	127	128	465	0.3	464	465	24.0	27.5
2025-07-10T15:38	10	127	0.1	127	127	467	1.5	465	469	24.1	28.0
2025-07-10T15:39	10	127	0.2	126	127	468	1.0	465	469	24.1	27.8
2025-07-10T15:40	10	126	0.2	126	127	464	1.1	461	465	23.9	29.8
2025-07-10T15:41	10	126	0.3	125	126	462	0.8	461	464	23.6	30.1
2025-07-10T15:42	10	125	0.3	124	126	464	0.8	463	466	23.9	29.8
2025-07-10T15:43	10	124	0.2	124	125	465	0.7	464	466	24.2	30.0
2025-07-10T15:44	10	124	0.2	124	125	465	1.8	462	468	24.2	29.8
2025-07-10T15:45	10	124	0.1	124	124	465	2.1	462	468	24.1	30.6
2025-07-10T15:46	10	124	0.3	123	125	463	0.4	462	464	24.1	31.1
2025-07-10T15:47	10	123	0.2	123	124	463	0.6	462	464	24.1	30.9
2025-07-10T15:48	10	123	0.2	122	123	464	0.5	463	465	24.3	31.7
2025-07-10T15:49	10	122	0.3	121	123	464	1.0	462	466	24.0	31.3
2025-07-10T15:50	10	121	0.2	121	122	465	0.8	463	466	24.0	31.6
2025-07-10T15:51	10	121	0.1	121	121	464	0.5	463	465	23.7	31.8
2025-07-10T15:52	10	121	0.2	120	121	465	1.2	463	467	24.1	31.7
2025-07-10T15:53	10	121	0.1	120	121	466	0.7	464	468	24.5	31.1
2025-07-10T15:54	10	120	0.1	120	121	462	1.3	459	464	24.3	30.1
2025-07-10T15:55	10	120	0.2	120	121	459	0.3	458	459	23.9	29.9
2025-07-10T15:56	10	119	0.3	119	120	458	0.5	457	459	23.6	28.5
2025-07-10T15:57	10	119	0.2	118	119	460	0.5	459	461	23.5	29.3
2025-07-10T15:58	10	118	0.1	118	119	462	0.6	460	463	23.8	30.0
2025-07-10T15:59	10	118	0.1	118	118	462	0.4	461	463	24.0	31.2
2025-07-10T16:00	10	117	0.2	117	118	462	1.0	460	463	24.1	31.9
2025-07-10T16:01	10	117	0.2	116	117	459	0.4	458	460	23.6	32.0
2025-07-10T16:02	10	116	0.2	116	116	460	0.5	459	461	23.7	32.4
2025-07-10T16:03	10	115	0.2	115	116	459	0.4	459	460	23.6	32.1
2025-07-10T16:04	10	115	0.3	114	115	459	1.2	456	460	23.7	32.1
2025-07-10T16:05	10	114	0.1	114	114	456	0.4	455	457	23.6	31.7
2025-07-10T16:06	10	114	0.2	114	114	457	0.3	456	457	23.7	32.0
2025-07-10T16:07	10	114	0.2	113	114	458	1.0	456	460	23.9	31.9
2025-07-10T16:08	10	113	0.1	113	113	461	0.8	459	462	24.1	31.9
2025-07-10T16:09	10	113	0.1	113	113	463	0.6	462	464	24.3	31.6
2025-07-10T16:10	10	113	0.2	112	113	460	1.5	458	463	24.2	31.0
2025-07-10T16:11	10	112	0.2	112	113	461	0.8	459	462	24.3	31.0
2025-07-10T16:12	10	112	0.1	112	112	459	0.7	458	460	24.4	30.8
2025-07-10T16:13	10	112	0.1	111	112	456	0.8	455	458	23.7	29.5
2025-07-10T16:14	10	111	0.2	111	112	456	0.4	455	457	23.6	30.5
2025-07-10T16:15	10	111	0.1	110	111	458	0.6	456	459	23.7	31.6
2025-07-10T16:16	10	110	0.2	110	111	458	0.4	457	458	23.9	32.0
2025-07-10T16:17	10	110	0.3	109	110	459	0.6	457	460	24.0	32.4
2025-07-10T16:18	10	109	0.2	108	109	460	0.6	458	461	24.2	32.7
2025-07-10T16:19	10	108	0.3	107	108	459	0.3	458	459	24.2	32.3
2025-07-10T16:20	10	107	0.1	107	108	459	0.5	458	460	24.0	32.5
2025-07-10T16:21	10	108	0.1	107	108	460	0.8	458	461	24.3	32.3
2025-07-10T16:22	10	107	0.2	107	108	460	0.7	458	461	24.6	31.4
2025-07-10T16:23	10	106	0.3	106	107	457	0.4	456	458	24.3	31.3
2025-07-10T16:24	10	105	0.2	105	106	456	0.3	456	457	24.2	31.6
2025-07-10T16:25	10	105	0.1	105	105	457	0.5	456	458	24.2	32.1
2025-07-10T16:26	10	105	0.1	104	105	457	1.0	454	458	24.2	32.2
2025-07-10T16:27	10	104	0.2	104	105	454	0.5	453	454	23.7	31.7
2025-07-10T16:28	10	104	0.2	103	104	455	0.8	454	457	24.0	32.1
2025-07-10T16:29	10	103	0.1	103	103	457	0.3	456	457	24.4	32.1
2025-07-10T16:30	10	103	0.2	103	103	455	0.4	454	456	24.2	30.6
2025-07-10T16:31	10	103	0.2	102	103	454	0.4	453	455	24.0	30.3
2025-07-10T16:32	10	102	0.1	102	103	454	0.8	453	456	24.1	30.3
2025-07-10T16:33	10	102	0.3	101	102	452	0.3	451	453	24.0	30.0
2025-07-10T16:34	10	101	0.4	100	101	450	0.6	449	452	23.8	30.0
2025-07-10T16:35	10	100	0.3	99	101	450	0.4	449	451	23.7	30.9
2025-07-10T16:36	10	99	0.3	99	100	450	0.5	449	451	23.7	31.4
2025-07-10T16:37	10	99	0.2	98	99	450	0.3	449	450	23.7	32.2
2025-07-10T16:38	10	98	0.1	98	98	451	0.5	449	451	23.8	32.5
2025-07-10T16:39	10	98	0.3	97	98	452	0.6	451	453	23.7	32.5
2025-07-10T16:40	10	97	0.2	96	97	452	0.7	450	452	23.8	32.6
2025-07-10T16:41	10	96	0.2	96	96	450	0.4	449	450	23.6	32.2
2025-07-10T16:42	10	96	0.2	95	96	449	0.9	448	451	23.6	32.2
2025-07-10T16:43	10	95	0.3	94	96	449	0.6	448	450	23.5	32.3
2025-07-10T16:44	10	94	0.2	94	95	449	0.4	448	449	23.8	32.3
2025-07-10T16:45	10	94	0.2	93	94	448	0.5	447	449	23.9	32.0
2025-07-10T16:46	10	93	0.2	93	93	447	0.3	447	448	23.7	30.5
2025-07-10T16:47	10	92	0.2	92	93	447	0.5	446	448	23.6	30.9
2025-07-10T16:48	10	92	0.1	92	92	448	0.3	447	449	23.8	31.8
2025-07-10T16:49	10	92	0.2	92	92	446	0.6	445	448	23.7	31.1
2025-07-10T16:50	10	91	0.2	91	92	447	0.6	446	448	23.7	31.5
2025-07-10T16:51	10	90	0.2	90	91	448	0.3	447	448	23.8	31.8
2025-07-10T16:52	10	90	0.2	90	90	448	0.5	447	449	23.9	32.7
2025-07-10T16:53	10	89	0.2	89	90	446	0.6	445	447	23.8	32.2
2025-07-10T16:54	10	89	0.3	88	89	444	0.4	443	445	23.6	31.4
2025-07-10T16:55	10	88	0.3	87	89	445	0.3	444	445	23.6	31.7
2025-07-10T16:56	10	87	0.2	87	88	444	0.3	444	445	23.6	31.3
2025-07-10T16:57	10	87	0.3	86	87	444	0.2	444	445	23.7	31.7
2025-07-10T16:58	10	86	0.1	86	86	443	0.4	443	444	23.6	32.2
2025-07-10T16:59	10	86	0.2	85	86	443	0.3	442	444	23.5	32.1
2025-07-10T17:00	10	85	0.2	85	86	443	0.3	442	444	23.6	32.6
2025-07-10T17:01	10	85	0.2	84	85	443	0.3	443	444	23.6	33.0
2025-07-10T17:02	10	84	0.3	84	85	443	0.2	443	444	23.6	33.5
2025-07-10T17:03	10	84	0.2	83	84	443	0.5	442	444	23.7	33.8
2025-07-10T17:04	10	83	0.2	83	83	442	0.3	442	443	23.7	34.0
2025-07-10T17:05	10	82	0.2	82	83	442	0.3	441	442	23.6	34.1
2025-07-10T17:06	10	82	0.2	82	82	443	0.5	442	444	23.7	34.6
2025-07-10T17:07	10	81	0.2	81	82	443	0.4	442	444	23.8	34.9
2025-07-10T17:08	10	81	0.2	80	81	442	0.3	441	442	23.7	34.3
2025-07-10T17:09	10	80	0.2	80	81	442	0.3	441	443	23.7	33.6
2025-07-10T17:10	10	79	0.2	79	80	441	0.5	440	442	23.6	32.7
2025-07-10T17:11	10	79	0.2	78	79	440	0.2	439	441	23.4	32.9
2025-07-10T17:12	10	78	0.3	77	78	439	0.5	438	440	23.5	32.4
2025-07-10T17:13	10	77	0.2	77	78	438	0.2	437	439	23.4	31.8
2025-07-10T17:14	10	77	0.2	76	77	438	0.3	437	439	23.4	31.6
2025-07-10T17:15	10	76	0.2	75	76	438	0.3	437	438	23.4	31.7
2025-07-10T17:16	10	75	0.2	75	76	438	0.3	437	438	23.4	32.0
2025-07-10T17:17	10	75	0.3	75	75	438	0.4	437	438	23.5	32.2
2025-07-10T17:18	10	74	0.2	74	75	438	0.3	437	438	23.5	32.3
2025-07-10T17:19	10	74	0.2	74	74	438	0.2	438	439	23.5	32.3
2025-07-10T17:20	10	73	0.2	73	74	438	0.4	438	439	23.5	32.3
2025-07-10T17:21	10	73	0.2	73	73	438	0.4	437	439	23.5	33.0
2025-07-10T17:22	10	73	0.2	72	73	437	0.4	436	438	23.5	32.9
2025-07-10T17:23	10	72	0.2	72	72	436	0.2	436	437	23.4	32.9
2025-07-10T17:24	10	72	0.2	71	72	436	0.2	435	436	23.4	32.8
2025-07-10T17:25	10	71	0.2	71	71	436	0.3	436	437	23.4	32.8
2025-07-10T17:26	10	70	0.2	70	71	437	0.2	436	437	23.5	33.3
2025-07-10T17:27	10	70	0.2	70	70	436	0.3	435	437	23.5	33.0
2025-07-10T17:28	10	69	0.3	69	70	435	0.4	434	436	23.5	33.0
2025-07-10T17:29	10	68	0.2	68	69	435	0.2	434	435	23.4	32.9
2025-07-10T17:30	10	68	0.2	68	68	435	0.3	435	436	23.5	33.3
2025-07-10T17:31	10	67	0.2	67	68	435	0.3	434	435	23.5	33.4
2025-07-10T17:32	10	67	0.2	66	67	434	0.2	434	435	23.5	33.6
2025-07-10T17:33	10	66	0.2	66	66	434	0.3	434	435	23.5	34.2
2025-07-10T17:34	10	65	0.2	65	66	433	0.5	433	434	23.4	34.4
2025-07-10T17:35	10	65	0.3	64	65	432	0.4	431	433	23.3	34.9
2025-07-10T17:36	10	64	0.3	63	65	432	0.2	432	433	23.2	35.3
2025-07-10T17:37	10	63	0.2	62	63	432	0.2	431	432	23.2	35.6
2025-07-10T17:38	10	62	0.2	62	63	432	0.3	431	432	23.2	35.7
2025-07-10T17:39	10	62	0.2	62	62	432	0.3	431	432	23.2	35.6
2025-07-10T17:40	10	61	0.2	61	62	431	0.2	431	432	23.2	35.6
2025-07-10T17:41	10	61	0.2	60	61	432	0.3	431	432	23.2	35.8
2025-07-10T17:42	10	60	0.2	60	61	432	0.3	431	432	23.4	35.5
2025-07-10T17:43	10	59	0.2	59	60	432	0.2	431	432	23.5	35.1
2025-07-10T17:44	10	59	0.3	58	59	431	0.3	430	432	23.4	35.1
2025-07-10T17:45	10	58	0.2	58	58	431	0.2	430	431	23.4	35.4
2025-07-10T17:46	10	58	0.2	57	58	430	0.3	430	431	23.3	35.7
2025-07-10T17:47	10	57	0.2	56	57	430	0.3	429	431	23.2	36.0
2025-07-10T17:48	10	56	0.2	56	57	430	0.2	429	430	23.2	36.2
2025-07-10T17:49	10	56	0.2	55	56	430	0.2	429	430	23.3	36.3
2025-07-10T17:50	10	55	0.3	54	56	429	0.3	428	429	23.2	36.1
2025-07-10T17:51	10	54	0.2	54	55	429	0.2	428	429	23.1	36.3
2025-07-10T17:52	10	54	0.1	53	54	428	0.2	428	429	23.1	36.0
2025-07-10T17:53	10	53	0.2	52	53	428	0.3	428	429	23.2	36.2
2025-07-10T17:54	10	52	0.2	52	53	428	0.3	427	429	23.1	36.3
2025-07-10T17:55	10	52	0.3	51	52	427	0.2	427	428	23.1	36.3
2025-07-10T17:56	10	51	0.2	50	51	427	0.3	427	428	23.1	36.0
2025-07-10T17:57	10	50	0.2	50	51	427	0.4	426	428	23.1	36.7
2025-07-10T17:58	10	50	0.2	49	50	426	0.3	426	427	23.1	36.3
2025-07-10T17:59	10	49	0.2	48	49	426	0.2	426	427	23.0	36.2
2025-07-10T18:00	10	48	0.2	48	48	426	0.2	425	426	23.0	36.5
2025-07-10T18:01	10	47	0.3	47	48	425	0.2	425	426	22.9	36.1
2025-07-10T18:02	10	47	0.3	46	47	425	0.3	424	426	23.0	36.1
2025-07-10T18:03	10	46	0.3	45	46	424	0.3	424	425	22.9	36.3
2025-07-10T18:04	10	45	0.2	45	46	424	0.3	423	425	22.9	36.4
2025-07-10T18:05	10	45	0.2	44	45	424	0.3	423	424	22.9	36.0
2025-07-10T18:06	10	44	0.2	44	44	423	0.2	423	424	22.9	36.1
2025-07-10T18:07	10	43	0.2	43	44	423	0.3	423	424	22.9	36.2
2025-07-10T18:08	10	43	0.2	42	43	423	0.2	422	423	22.9	36.2
2025-07-10T18:09	10	42	0.2	41	42	423	0.3	422	423	22.9	36.8
2025-07-10T18:10	10	41	0.2	41	42	422	0.2	422	423	22.9	36.2
2025-07-10T18:11	10	41	0.2	40	41	422	0.3	422	423	22.9	36.8
2025-07-10T18:12	10	40	0.2	40	41	422	0.2	421	422	22.9	36.8
2025-07-10T18:13	10	39	0.2	39	40	421	0.2	421	422	22.9	36.8
2025-07-10T18:14	10	39	0.2	38	39	421	0.4	420	422	22.9	37.1
2025-07-10T18:15	10	38	0.2	38	39	421	0.2	420	421	22.8	37.7
2025-07-10T18:16	10	38	0.2	37	38	420	0.2	420	421	22.8	37.9
2025-07-10T18:17	10	37	0.2	36	37	420	0.2	420	421	22.8	38.0
2025-07-10T18:18	10	36	0.2	36	37	420	0.3	420	421	22.8	37.7
2025-07-10T18:19	10	35	0.2	35	36	420	0.3	419	420	22.8	37.7
2025-07-10T18:20	10	35	0.2	34	35	419	0.2	419	420	22.7	38.0
2025-07-10T18:21	10	34	0.2	34	34	419	0.2	419	420	22.7	38.1
2025-07-10T18:22	10	33	0.2	33	34	418	0.3	418	419	22.7	38.2
2025-07-10T18:23	10	32	0.2	32	33	418	0.5	418	419	22.7	38.4
2025-07-10T18:24	10	32	0.2	31	32	418	0.2	418	419	22.7	38.6
2025-07-10T18:25	10	31	0.2	31	31	418	0.2	418	419	22.7	39.0
2025-07-10T18:26	10	30	0.2	30	31	418	0.4	417	419	22.6	38.9
2025-07-10T18:27	10	30	0.2	29	30	418	0.3	417	419	22.6	39.2
2025-07-10T18:28	10	29	0.2	29	29	417	0.3	416	418	22.6	39.6
2025-07-10T18:29	10	28	0.2	28	29	417	0.3	416	418	22.6	39.5
2025-07-10T18:30	10	28	0.2	27	28	417	0.3	416	417	22.6	39.6
2025-07-10T18:31	10	27	0.2	27	28	416	0.2	416	417	22.5	39.6
2025-07-10T18:32	10	26	0.2	26	27	416	0.2	416	417	22.5	39.8
2025-07-10T18:33	10	26	0.2	25	26	416	0.3	415	416	22.5	40.0
2025-07-10T18:34	10	25	0.2	25	26	416	0.4	415	417	22.5	39.7
2025-07-10T18:35	10	24	0.2	24	25	415	0.3	415	416	22.4	40.0
2025-07-10T18:36	10	24	0.2	23	24	416	0.5	415	416	22.5	39.6
2025-07-10T18:37	10	23	0.2	23	23	415	0.5	414	416	22.4	40.0
2025-07-10T18:38	10	22	0.2	22	23	414	0.5	413	415	22.3	40.5
2025-07-10T18:39	10	22	0.2	21	22	414	0.3	413	414	22.3	40.4
2025-07-10T18:40	10	21	0.3	21	22	414	0.3	413	415	22.4	40.1
2025-07-10T18:41	10	20	0.2	20	21	413	0.4	412	414	22.3	40.6
2025-07-10T18:42	10	20	0.2	20	21	412	0.4	411	413	22.2	40.9
2025-07-10T18:43	10	19	0.2	19	20	412	0.4	411	413	22.2	41.1
2025-07-10T18:44	10	19	0.3	18	19	412	0.3	412	413	22.3	40.6
2025-07-10T18:45	10	18	0.3	18	19	411	0.4	410	412	22.1	41.2
2025-07-10T18:46	10	17	0.3	17	18	411	0.3	410	412	22.1	41.2
2025-07-10T18:47	10	17	0.2	16	17	411	0.3	410	412	22.2	40.9
2025-07-10T18:48	10	16	0.2	16	17	411	0.5	410	412	22.2	41.1
2025-07-10T18:49	10	16	0.2	15	16	410	0.2	410	411	22.0	41.8
2025-07-10T18:50	10	15	0.2	15	15	410	0.2	410	411	22.0	41.4
2025-07-10T18:51	10	15	0.2	14	15	410	0.6	408	411	22.0	41.8
2025-07-10T18:52	10	14	0.2	14	14	409	0.3	408	410	21.9	41.9
2025-07-10T18:53	10	13	0.2	13	13	410	0.6	409	411	22.0	41.3
2025-07-10T18:54	10	12	0.2	12	13	410	0.2	410	411	22.0	41.7
2025-07-10T18:55	10	12	0.3	11	12	410	0.2	409	410	22.0	41.6
2025-07-10T18:56	10	11	0.3	10	11	409	0.3	409	410	21.9	41.8
2025-07-10T18:57	10	10	0.3	9	10	408	0.4	408	409	21.9	42.1
2025-07-10T18:58	10	9	0.2	8	9	408	0.3	408	409	21.8	42.1
2025-07-10T18:59	10	8	0.2	8	9	408	0.2	408	409	21.8	42.3
2025-07-10T19:00	10	7	0.2	7	8	407	0.5	406	408	21.8	42.5
2025-07-10T19:01	10	7	0.2	7	7	407	0.6	406	408	21.7	42.6
2025-07-10T19:02	10	6	0.1	6	7	407	0.3	407	408	21.7	42.8
2025-07-10T19:03	10	6	0.1	6	6	407	0.3	406	408	21.6	43.1
2025-07-10T19:04	10	6	0.3	5	6	406	0.5	406	407	21.5	43.5
2025-07-10T19:05	10	4	0.4	4	5	406	0.3	405	406	21.5	43.7
2025-07-10T19:06	10	3	0.3	3	4	405	0.5	404	406	21.5	43.6
2025-07-10T19:07	10	3	0.2	2	3	404	0.6	403	405	21.4	44.1
2025-07-10T19:08	10	2	0.1	2	3	403	0.2	403	404	21.3	44.5
2025-07-10T19:09	10	2	0.1	2	2	404	0.3	403	404	21.3	44.4
2025-07-10T19:10	10	2	0.1	2	2	403	0.4	402	404	21.3	44.7
2025-07-10T19:11	10	2	0.1	2	2	403	0.8	401	405	21.2	45.0
2025-07-10T19:12	10	2	0.1	2	2	403	0.3	402	404	21.3	44.7
2025-07-10T19:13	10	2	0.1	1	2	403	0.2	402	403	21.2	45.0
2025-07-10T19:14	10	2	0.1	1	2	402	0.2	402	403	21.2	45.1
2025-07-10T19:15	10	2	0.1	1	2	402	0.4	401	402	21.1	45.3
2025-07-10T19:16	10	2	0.1	1	2	401	0.3	400	401	21.1	45.5
2025-07-10T19:17	10	1	0.1	1	2	401	0.2	400	401	21.1	45.7
2025-07-10T19:18	10	1	0.1	1	2	401	0.1	400	401	21.1	45.7
2025-07-10T19:19	10	1	0.1	1	1	400	0.4	399	401	21.1	45.8
2025-07-10T19:20	10	1	0.1	1	1	400	0.4	399	401	21.0	46.0
2025-07-10T19:21	10	1	0.1	1	1	400	0.2	399	400	21.0	46.1
2025-07-10T19:22	10	1	0.1	1	1	400	0.2	399	400	21.0	46.2
2025-07-10T19:23	10	1	0.1	1	1	399	0.3	399	400	21.0	46.4
2025-07-10T19:24	10	1	0.1	1	1	399	0.2	399	400	21.0	46.4
2025-07-10T19:25	10	1	0.1	1	1	399	0.3	398	399	20.9	46.7
2025-07-10T19:26	10	1	0.1	1	1	398	0.3	397	398	20.8	47.0
2025-07-10T19:27	10	1	0.1	1	1	398	0.2	397	398	20.8	47.1
2025-07-10T19:28	10	1	0.1	0	1	397	0.3	396	398	20.8	47.3
2025-07-10T19:29	10	1	0.1	0	1	396	0.3	396	397	20.8	47.4
2025-07-10T19:30	10	1	0.2	0	1	396	0.3	395	397	20.8	47.5
2025-07-10T19:31	10	1	0.1	0	1	396	0.3	395	396	20.7	47.8
2025-07-10T19:32	10	1	0.2	0	2	395	0.4	394	396	20.6	47.9
2025-07-10T19:33	10	1	0.1	0	1	395	0.2	394	396	20.7	47.8
2025-07-10T19:34	10	0	0.1	0	1	395	0.3	394	395	20.6	48.1
2025-07-10T19:35	10	0	0.1	0	1	394	0.3	393	395	20.6	48.1
2025-07-10T19:36	10	0	0.1	0	1	394	0.2	394	395	20.6	48.1
2025-07-10T19:37	10	0	0.0	0	0	394	0.3	393	395	20.6	48.3
2025-07-10T19:38	10	0	0.0	0	0	393	0.3	392	394	20.5	48.6
2025-07-10T19:39	10	0	0.1	0	0	393	0.3	392	393	20.5	48.6
2025-07-10T19:40	10	0	0.1	0	0	392	0.3	391	393	20.5	48.7
2025-07-10T19:41	10	0	0.1	0	0	392	0.2	391	392	20.4	49.0
2025-07-10T19:42	10	0	0.1	0	0	392	0.2	391	392	20.4	49.1
2025-07-10T19:43	10	0	0.1	0	0	391	0.2	391	392	20.4	49.3
2025-07-10T19:44	10	0	0.1	0	0	389	0.6	388	391	20.2	49.9
2025-07-10T19:45	10	0	0.1	0	0	388	0.4	387	389	20.0	51.0
2025-07-10T19:46	10	0	0.1	0	0	387	0.3	387	388	20.0	50.6
2025-07-10T19:47	10	0	0.1	0	0	386	0.5	385	387	19.9	50.9
2025-07-10T19:48	10	0	0.1	0	0	385	0.2	385	386	19.7	51.8
2025-07-10T19:49	10	0	0.1	0	0	385	0.3	384	385	19.6	52.0
2025-07-10T19:50	10	0	0.1	0	0	384	0.2	384	385	19.6	52.0
2025-07-10T19:51	10	0	0.1	0	0	384	0.2	383	384	19.5	52.3
2025-07-10T19:52	10	0	0.1	0	0	383	0.2	383	384	19.4	52.6
2025-07-10T19:53	10	0	0.1	0	0	383	0.3	382	383	19.3	53.1
2025-07-10T19:54	10	0	0.1	0	0	382	0.2	382	383	19.2	53.3
2025-07-10T19:55	10	0	0.1	0	0	382	0.3	381	383	19.2	53.0
2025-07-10T19:56	10	0	0.1	0	0	382	0.2	382	382	19.2	52.9
2025-07-10T19:57	10	0	0.1	0	0	382	0.3	381	382	19.2	52.9
2025-07-10T19:58	10	0	0.1	0	0	381	0.2	381	382	19.2	53.0
2025-07-10T19:59	10	0	0.1	0	0	381	0.2	381	382	19.2	52.8
2025-07-10T20:00	10	0	0.1	0	0	381	0.2	381	382	19.1	52.8
2025-07-10T20:01	10	0	0.1	0	0	381	0.3	381	382	19.3	52.1
2025-07-10T20:02	10	0	0.1	0	0	381	0.2	380	381	19.4	51.5
2025-07-10T20:03	10	0	0.1	0	0	381	0.2	380	381	19.4	51.5
2025-07-10T20:04	10	0	0.1	0	0	380	0.2	380	381	19.4	51.2
2025-07-10T20:05	10	0	0.1	0	0	380	0.2	380	381	19.4	51.4
2025-07-10T20:06	10	0	0.1	0	0	380	0.3	380	381	19.3	51.5
2025-07-10T20:07	10	0	0.1	0	0	380	0.3	379	381	19.3	51.5
2025-07-10T20:08	10	0	0.1	0	0	380	0.3	379	381	19.3	51.2
2025-07-10T20:09	10	0	0.1	0	0	380	0.2	379	380	19.4	51.1
2025-07-10T20:10	10	0	0.1	0	0	380	0.3	379	380	19.3	51.1
2025-07-10T20:11	10	0	0.2	0	0	380	0.3	379	380	19.3	51.1
2025-07-10T20:12	10	0	0.2	0	1	379	0.3	379	380	19.3	51.4
2025-07-10T20:13	10	0	0.2	0	1	379	0.3	378	379	19.2	51.5
2025-07-10T20:14	10	0	0.2	0	1	379	0.3	378	380	19.2	51.6
2025-07-10T20:15	10	0	0.1	0	0	379	0.3	378	380	19.2	51.4
2025-07-10T20:16	10	0	0.1	0	0	379	0.3	378	379	19.2	51.2
2025-07-10T20:17	10	0	0.1	0	0	379	0.3	378	379	19.2	51.4
2025-07-10T20:18	10	0	0.1	0	0	379	0.2	378	379	19.1	51.6
2025-07-10T20:19	10	0	0.1	0	0	378	0.2	378	379	19.1	51.5
2025-07-10T20:20	10	0	0.1	0	0	378	0.2	378	379	19.1	51.3
2025-07-10T20:21	10	0	0.1	0	0	378	0.2	378	379	19.2	51.1
2025-07-10T20:22	10	0	0.1	0	0	378	0.2	378	379	19.3	50.8
2025-07-10T20:23	10	0	0.1	0	0	378	0.3	378	379	19.3	50.9
2025-07-10T20:24	10	0	0.1	0	0	378	0.2	377	378	19.2	51.3
2025-07-10T20:25	10	0	0.1	0	0	378	0.3	377	379	19.1	51.4
2025-07-10T20:26	10	0	0.1	0	0	378	0.2	377	378	19.1	51.5
2025-07-10T20:27	10	0	0.1	0	0	378	0.2	377	378	19.2	51.1
2025-07-10T20:28	10	0	0.1	0	0	377	0.2	377	378	19.1	51.7
2025-07-10T20:29	10	0	0.1	0	0	377	0.3	377	378	19.0	52.0
2025-07-10T20:30	10	0	0.1	0	0	377	0.2	377	377	18.9	52.4
2025-07-10T20:31	10	0	0.1	0	0	377	0.3	377	378	18.9	52.3
2025-07-10T20:32	10	0	0.1	0	0	377	0.3	376	377	18.8	52.7
2025-07-10T20:33	10	0	0.1	0	0	377	0.3	376	377	18.9	52.2
2025-07-10T20:34	10	0	0.1	0	0	377	0.2	376	377	18.8	52.5
2025-07-10T20:35	10	0	0.1	0	0	377	0.3	376	377	18.8	52.5
2025-07-10T20:36	10	0	0.1	0	0	377	0.2	376	377	18.8	52.7
2025-07-10T20:37	10	0	0.1	0	0	377	0.3	376	377	18.8	52.8
2025-07-10T20:38	10	0	0.1	0	0	377	0.3	376	377	18.7	52.9
2025-07-10T20:39	10	0	0.1	0	0	376	0.3	376	377	18.8	52.9
2025-07-10T20:40	10	0	0.1	0	0	376	0.2	376	377	18.6	53.3
2025-07-10T20:41	10	0	0.1	0	0	376	0.2	376	377	18.7	53.0
2025-07-10T20:42	10	0	0.1	0	0	376	0.3	376	377	18.7	53.2
2025-07-10T20:43	10	0	0.1	0	0	376	0.3	375	377	18.5	53.8
2025-07-10T20:44	10	0	0.1	0	0	375	0.2	375	376	18.5	53.8
2025-07-10T20:45	10	0	0.1	0	0	376	0.3	375	376	18.5	53.8
2025-07-10T20:46	10	0	0.1	0	0	375	0.3	375	376	18.5	53.8
2025-07-10T20:47	10	0	0.1	0	0	375	0.3	375	376	18.4	54.1
2025-07-10T20:48	10	0	0.1	0	0	375	0.2	375	376	18.4	54.2
2025-07-10T20:49	10	0	0.1	0	0	375	0.2	375	376	18.4	54.0
2025-07-10T20:50	10	0	0.1	0	0	375	0.2	375	376	18.5	54.0
2025-07-10T20:51	10	0	0.1	0	0	375	0.3	375	376	18.4	54.3
2025-07-10T20:52	10	0	0.1	0	0	375	0.4	374	376	18.4	54.3
2025-07-10T20:53	10	0	0.1	0	0	375	0.3	374	376	18.4	54.5
2025-07-10T20:54	10	0	0.1	0	0	375	0.2	375	376	18.4	54.1
2025-07-10T20:55	10	0	0.1	0	0	375	0.2	374	375	18.3	54.6
2025-07-10T20:56	10	0	0.1	0	0	375	0.2	374	375	18.3	54.8
2025-07-10T20:57	10	0	0.1	0	0	374	0.3	373	375	18.3	54.8
2025-07-10T20:58	10	0	0.1	0	0	374	0.3	373	375	18.3	54.8
2025-07-10T20:59	10	0	0.1	0	0	374	0.2	373	374	18.2	55.0
2025-07-10T21:00	10	0	0.1	0	0	374	0.3	373	374	18.1	55.2
2025-07-10T21:01	10	0	0.1	0	0	374	0.3	373	374	18.1	55.3
2025-07-10T21:02	10	0	0.1	0	0	374	0.3	373	374	18.1	55.2
2025-07-10T21:03	10	0	0.1	0	0	374	0.2	373	374	18.1	55.2
2025-07-10T21:04	10	0	0.1	0	0	373	0.2	373	374	18.1	55.2
2025-07-10T21:05	10	0	0.1	0	0	373	0.3	373	374	18.1	55.4
2025-07-10T21:06	10	0	0.1	0	0	373	0.2	373	374	18.1	55.4
2025-07-10T21:07	10	0	0.1	-1	0	374	0.4	373	374	18.1	55.3
2025-07-10T21:08	10	0	0.2	0	0	374	0.4	373	375	18.2	55.2
2025-07-10T21:09	10	0	0.2	0	0	374	0.2	373	374	18.2	54.9
2025-07-10T21:10	10	0	0.2	0	0	374	0.2	374	375	18.2	55.0
2025-07-10T21:11	10	0	0.2	0	0	374	0.3	374	375	18.2	55.0
2025-07-10T21:12	10	0	0.1	0	0	375	0.3	374	376	18.3	54.9
2025-07-10T21:13	10	0	0.1	0	0	375	0.4	375	376	18.2	55.1
2025-07-10T21:14	10	0	0.1	-1	0	376	0.2	376	376	18.2	55.2
2025-07-10T21:15	10	0	0.1	0	0	376	0.2	376	377	18.3	54.8
2025-07-10T21:16	10	0	0.1	0	0	376	0.2	376	377	18.3	54.8
2025-07-10T21:17	10	0	0.1	0	0	376	0.3	376	377	18.4	54.5
2025-07-10T21:18	10	0	0.1	0	0	376	0.4	375	377	18.3	54.8
2025-07-10T21:19	10	0	0.1	0	0	376	0.3	375	377	18.3	54.7
2025-07-10T21:20	10	0	0.1	0	0	376	0.2	375	376	18.3	54.9
2025-07-10T21:21	10	0	0.1	0	0	376	0.3	375	377	18.3	54.7
2025-07-10T21:22	10	0	0.0	0	0	375	0.3	375	376	18.2	55.2
2025-07-10T21:23	10	0	0.1	0	0	375	0.3	375	376	18.2	55.3
2025-07-10T21:24	10	0	0.1	0	0	375	0.3	375	376	18.3	55.1
2025-07-10T21:25	10	0	0.1	0	0	376	0.2	375	376	18.3	55.0
2025-07-10T21:26	10	0	0.1	0	0	376	0.3	375	377	18.2	55.1
2025-07-10T21:27	10	0	0.1	0	0	376	0.3	376	377	18.2	55.4
2025-07-10T21:28	10	0	0.1	0	0	376	0.2	376	377	18.1	55.8
2025-07-10T21:29	10	0	0.1	0	0	376	0.2	376	377	18.0	55.9
2025-07-10T21:30	10	0	0.1	0	0	376	0.3	376	377	17.9	56.5
2025-07-10T21:31	10	0	0.1	0	0	376	0.3	376	377	17.9	56.7
2025-07-10T21:32	10	0	0.1	0	0	376	0.2	376	377	17.8	57.2
2025-07-10T21:33	10	0	0.1	0	0	376	0.3	376	377	17.8	57.2
2025-07-10T21:34	10	0	0.1	0	0	376	0.3	376	377	17.7	57.5
2025-07-10T21:35	10	0	0.1	0	0	376	0.3	375	376	17.8	57.2
2025-07-10T21:36	10	0	0.1	0	0	376	0.3	375	376	17.8	56.9
2025-07-10T21:37	10	0	0.1	0	0	376	0.5	375	377	17.9	56.7
2025-07-10T21:38	10	0	0.1	0	0	377	0.3	376	378	17.9	56.6
2025-07-10T21:39	10	0	0.1	0	0	377	0.5	377	378	17.8	57.0
2025-07-10T21:40	10	0	0.1	0	0	378	0.4	377	379	17.8	56.9
2025-07-10T21:41	10	0	0.1	0	0	379	0.2	378	379	18.0	56.2
2025-07-10T21:42	10	0	0.1	0	0	379	0.2	378	379	17.9	56.5
2025-07-10T21:43	10	0	0.1	0	0	378	0.3	378	379	17.9	56.6
2025-07-10T21:44	10	0	0.1	0	0	378	0.3	377	379	18.0	56.1
2025-07-10T21:45	10	0	0.1	0	0	379	0.3	378	379	18.0	56.2
2025-07-10T21:46	10	0	0.1	0	0	378	0.2	378	379	17.9	56.7
2025-07-10T21:47	10	0	0.1	0	0	378	0.5	377	379	17.8	56.7
2025-07-10T21:48	10	0	0.1	0	0	377	0.3	376	378	17.9	56.6
2025-07-10T21:49	10	0	0.1	0	0	376	0.3	376	377	17.8	56.7
2025-07-10T21:50	10	0	0.1	0	0	376	0.2	375	376	17.9	56.5
2025-07-10T21:51	10	0	0.1	0	0	375	0.3	375	376	17.8	56.7
2025-07-10T21:52	10	0	0.1	0	0	375	0.3	374	375	17.8	56.8
2025-07-10T21:53	10	0	0.1	0	0	374	0.2	374	374	17.8	56.6
2025-07-10T21:54	10	0	0.1	0	0	374	0.2	373	374	17.8	56.7
2025-07-10T21:55	10	0	0.1	0	0	373	0.3	372	374	17.8	56.9
2025-07-10T21:56	10	0	0.1	0	0	373	0.3	372	373	17.7	57.0
2025-07-10T21:57	10	0	0.1	0	0	372	0.3	371	373	17.6	57.4
2025-07-10T21:58	10	0	0.1	0	0	372	0.3	371	372	17.6	57.5
2025-07-10T21:59	10	0	0.1	0	0	371	0.2	371	372	17.6	57.6
2025-07-10T22:00	10	0	0.1	0	0	371	0.3	370	372	17.5	57.9
2025-07-10T22:01	10	0	0.1	0	0	371	0.2	370	371	17.5	58.3
2025-07-10T22:02	10	0	0.1	0	0	371	0.3	370	371	17.4	58.5
2025-07-10T22:03	10	0	0.1	0	0	371	0.2	370	371	17.4	58.2
2025-07-10T22:04	10	0	0.1	0	0	370	0.3	369	371	17.3	58.7
2025-07-10T22:05	10	0	0.1	0	0	369	0.2	369	370	17.1	59.6
2025-07-10T22:06	10	0	0.1	0	0	369	0.3	369	370	17.1	59.8
2025-07-10T22:07	10	0	0.1	0	0	369	0.3	368	369	17.0	60.4
2025-07-10T22:08	10	0	0.1	0	0	368	0.3	367	369	16.9	60.8
2025-07-10T22:09	10	0	0.1	0	0	369	0.4	368	369	16.8	61.0
2025-07-10T22:10	10	0	0.1	0	0	368	0.3	367	369	16.9	60.6
2025-07-10T22:11	10	0	0.1	0	0	367	0.3	367	368	16.8	61.2
2025-07-10T22:12	10	0	0.1	0	0	367	0.4	367	368	16.7	61.6
2025-07-10T22:13	10	0	0.1	0	0	367	0.5	366	368	16.6	61.7
2025-07-10T22:14	10	0	0.1	0	0	368	0.2	367	368	16.8	60.9
2025-07-10T22:15	10	0	0.1	0	0	368	0.3	367	369	17.0	59.8
2025-07-10T22:16	10	0	0.1	0	0	368	0.3	368	369	17.2	59.1
2025-07-10T22:17	10	0	0.1	0	0	369	0.4	368	370	17.4	58.4
2025-07-10T22:18	10	0	0.1	0	0	369	0.3	368	369	17.5	58.2
2025-07-10T22:19	10	0	0.0	0	0	369	0.3	368	370	17.5	58.2
2025-07-10T22:20	10	0	0.1	0	0	369	0.2	369	370	17.4	58.4
2025-07-10T22:21	10	0	0.1	0	0	370	0.3	369	371	17.5	57.9
2025-07-10T22:22	10	0	0.1	0	0	372	0.7	371	373	17.5	55.9
2025-07-10T22:23	10	0	0.1	0	0	373	0.4	372	374	17.1	55.0
2025-07-10T22:24	10	0	0.1	0	0	374	0.3	374	375	17.5	57.9
2025-07-10T22:25	10	0	0.1	0	0	374	0.4	374	375	17.5	57.9
2025-07-10T22:26	10	0	0.1	0	0	374	0.2	374	375	17.5	57.9
2025-07-10T22:27	10	0	0.1	0	0	374	0.3	373	374	17.5	57.9
2025-07-10T22:28	10	0	0.1	0	0	373	0.4	372	374	17.5	57.9
2025-07-10T22:29	10	0	0.1	0	0	372	0.3	372	373	17.0	60.3
2025-07-10T22:30	10	0	0.1	0	0	372	0.2	371	372	17.0	60.5
2025-07-10T22:31	10	0	0.1	0	0	371	0.2	371	372	17.0	60.5
2025-07-10T22:32	10	0	0.1	0	0	371	0.2	370	371	17.0	60.5
2025-07-10T22:33	10	0	0.2	-1	0	370	0.2	370	371	17.0	60.4
2025-07-10T22:34	10	0	0.1	0	0	370	0.2	369	370	17.0	60.6
2025-07-10T22:35	10	0	0.1	0	0	369	0.3	369	370	17.0	60.8
2025-07-10T22:36	10	0	0.2	0	0	368	0.4	368	369	16.8	61.4
2025-07-10T22:37	10	0	0.2	0	0	367	0.3	367	368	16.7	61.9
2025-07-10T22:38	10	0	0.1	0	0	367	0.2	367	368	16.4	63.1
2025-07-10T22:39	10	0	0.1	0	0	367	0.3	366	368	16.4	63.4
2025-07-10T22:40	10	0	0.1	0	0	366	0.2	366	367	16.3	63.7
2025-07-10T22:41	10	0	0.1	0	0	366	0.3	365	367	16.3	63.8
2025-07-10T22:42	10	0	0.2	-1	0	366	0.2	366	367	16.3	63.8
2025-07-10T22:43	10	0	0.1	-1	0	366	0.2	365	366	16.2	64.1
2025-07-10T22:44	10	0	0.1	-1	0	365	0.3	364	366	16.1	64.6
2025-07-10T22:45	10	0	0.1	0	0	365	0.2	365	366	15.9	65.1
2025-07-10T22:46	10	0	0.1	0	0	365	0.3	364	365	15.9	65.4
2025-07-10T22:47	10	0	0.1	-1	0	365	0.2	364	365	15.8	65.5
2025-07-10T22:48	10	0	0.2	-1	0	365	0.2	364	365	15.8	65.7
2025-07-10T22:49	10	0	0.2	0	0	365	0.2	364	365	15.8	65.8
2025-07-10T22:50	10	0	0.2	-1	0	364	0.2	364	365	15.8	65.8
2025-07-10T22:51	10	0	0.1	0	0	364	0.3	364	365	15.8	65.8
2025-07-10T22:52	10	0	0.1	0	0	364	0.2	364	365	15.7	65.9
2025-07-10T22:53	10	0	0.1	0	0	364	0.3	363	365	15.7	66.0
2025-07-10T22:54	10	0	0.1	0	0	364	0.2	363	364	15.7	66.2
2025-07-10T22:55	10	0	0.2	0	0	364	0.3	363	365	15.6	66.4
2025-07-10T22:56	10	0	0.1	0	0	364	0.3	363	364	15.6	66.6
2025-07-10T22:57	10	0	0.1	0	0	363	0.2	363	364	15.4	67.5
2025-07-10T22:58	10	0	0.1	0	0	364	0.2	363	364	15.4	67.5
2025-07-10T22:59	10	0	0.0	0	0	364	0.2	363	364	15.4	67.3
2025-07-10T23:00	10	0	0.1	0	0	363	0.2	363	364	15.4	67.4
2025-07-10T23:01	10	0	0.1	0	0	363	0.3	363	364	15.5	67.3
2025-07-10T23:02	10	0	0.1	0	0	363	0.3	362	364	15.5	67.0
2025-07-10T23:03	10	0	0.1	0	0	363	0.3	363	364	15.6	66.5
2025-07-10T23:04	10	0	0.1	0	0	363	0.3	363	364	15.8	65.9
2025-07-10T23:05	10	0	0.1	0	0	364	0.2	363	364	15.9	65.4
2025-07-10T23:06	10	0	0.1	0	0	364	0.2	363	364	15.9	65.2
2025-07-10T23:07	10	0	0.1	0	0	364	0.2	363	364	15.9	65.1
2025-07-10T23:08	10	0	0.1	0	0	364	0.2	363	365	16.0	64.8
2025-07-10T23:09	10	0	0.1	0	0	364	0.3	363	364	16.0	64.8
2025-07-10T23:10	10	0	0.1	0	0	364	0.2	363	364	16.0	64.7
2025-07-10T23:11	10	0	0.1	0	0	364	0.2	363	364	16.0	64.5
2025-07-10T23:12	10	0	0.1	0	0	364	0.3	363	364	16.0	64.5
2025-07-10T23:13	10	0	0.1	0	0	363	0.3	363	364	16.0	64.7
2025-07-10T23:14	10	0	0.1	0	0	363	0.3	362	363	16.0	64.8
2025-07-10T23:15	10	0	0.1	0	0	363	0.3	362	363	15.9	65.0
2025-07-10T23:16	10	0	0.1	0	0	363	0.2	362	363	15.9	65.2
2025-07-10T23:17	10	0	0.1	0	0	362	0.3	361	363	15.8	65.7
2025-07-10T23:18	10	0	0.1	0	0	362	0.4	361	363	15.8	65.9
2025-07-10T23:19	10	0	0.1	0	0	362	0.3	361	363	15.6	66.7
2025-07-10T23:20	10	0	0.1	0	0	362	0.2	361	363	15.7	66.1
2025-07-10T23:21	10	0	0.1	0	0	362	0.3	361	362	15.7	66.2
2025-07-10T23:22	10	0	0.1	0	0	362	0.2	361	363	15.6	66.7
2025-07-10T23:23	10	0	0.1	0	0	362	0.2	362	363	15.5	67.1
2025-07-10T23:24	10	0	0.1	0	0	362	0.3	362	363	15.5	67.3
2025-07-10T23:25	10	0	0.1	0	0	363	0.2	362	363	15.6	66.9
2025-07-10T23:26	10	0	0.1	0	0	363	0.2	362	363	15.6	66.8
2025-07-10T23:27	10	0	0.1	0	0	363	0.2	363	364	15.7	66.5
2025-07-10T23:28	10	0	0.1	0	0	363	0.3	362	363	15.6	66.9
2025-07-10T23:29	10	0	0.1	0	0	363	0.3	362	363	15.5	67.2
2025-07-10T23:30	10	0	0.1	0	0	363	0.2	362	363	15.6	67.0
2025-07-10T23:31	10	0	0.1	0	0	362	0.3	362	363	15.4	67.9
2025-07-10T23:32	10	0	0.1	0	0	362	0.2	362	363	15.3	68.5
2025-07-10T23:33	10	0	0.1	0	0	362	0.2	361	362	15.2	68.8
2025-07-10T23:34	10	0	0.1	0	0	362	0.2	361	363	15.2	69.0
2025-07-10T23:35	10	0	0.1	0	0	361	0.2	361	361	15.1	69.7
2025-07-10T23:36	10	0	0.1	0	0	361	0.4	359	361	14.9	70.5
2025-07-10T23:37	10	0	0.1	0	0	360	0.2	360	361	14.8	71.4
2025-07-10T23:38	10	0	0.1	0	0	360	0.2	360	361	14.6	71.8
2025-07-10T23:39	10	0	0.1	0	0	360	0.3	359	360	14.5	72.5
2025-07-10T23:40	10	0	0.1	0	0	360	0.2	359	360	14.4	73.1
2025-07-10T23:41	10	0	0.1	0	0	360	0.3	359	360	14.4	73.5
2025-07-10T23:42	10	0	0.1	0	0	360	0.3	360	361	14.3	74.0
2025-07-10T23:43	10	0	0.1	0	0	360	0.2	360	361	14.2	74.2
2025-07-10T23:44	10	0	0.1	0	0	360	0.3	360	361	14.2	74.5
2025-07-10T23:45	10	0	0.1	0	0	360	0.2	360	361	14.1	74.8
2025-07-10T23:46	10	0	0.1	0	0	360	0.2	360	361	14.1	74.5
2025-07-10T23:47	10	0	0.1	0	0	360	0.2	359	360	14.1	74.7
2025-07-10T23:48	10	0	0.1	0	0	359	0.2	359	360	14.0	75.1
2025-07-10T23:49	10	0	0.1	0	0	359	0.2	359	359	14.1	74.7
2025-07-10T23:50	10	0	0.1	0	0	359	0.2	358	359	14.1	75.0
2025-07-10T23:51	10	0	0.1	0	0	358	0.2	357	359	13.9	75.8
2025-07-10T23:52	10	0	0.1	0	0	358	0.2	358	358	13.8	76.4
2025-07-10T23:53	10	0	0.1	0	0	358	0.3	357	358	13.7	76.9
2025-07-10T23:54	10	0	0.1	0	0	358	0.3	357	358	13.6	77.3
2025-07-10T23:55	10	0	0.1	0	0	357	0.2	357	358	13.6	77.5
2025-07-10T23:56	10	0	0.1	0	0	357	0.3	357	358	13.5	77.6
2025-07-10T23:57	10	0	0.1	0	0	357	0.2	357	357	13.5	77.6
2025-07-10T23:58	10	0	0.1	0	0	357	0.3	356	357	13.5	77.7
2025-07-10T23:59	10	0	0.1	0	0	357	0.2	356	357	13.5	77.4
2025-07-11T00:00	10	0	0.1	0	0	357	0.3	356	357	13.6	77.1
2025-07-11T00:01	10	0	0.1	0	0	357	0.3	356	358	13.7	76.6
2025-07-11T00:02	10	0	0.1	0	0	357	0.3	357	358	13.9	75.2
2025-07-11T00:03	10	0	0.1	0	0	357	0.2	357	358	14.0	74.4
2025-07-11T00:04	10	0	0.1	0	0	357	0.3	356	358	14.1	74.1
2025-07-11T00:05	10	0	0.1	0	0	356	0.2	356	357	13.9	75.0
2025-07-11T00:06	10	0	0.1	0	0	357	0.3	356	358	13.9	74.6
2025-07-11T00:07	10	0	0.1	0	0	357	0.3	356	357	14.2	73.8
2025-07-11T00:08	10	0	0.1	0	0	357	0.3	356	357	14.2	73.5
2025-07-11T00:09	10	0	0.1	0	0	357	0.3	356	357	14.2	73.6
2025-07-11T00:10	10	0	0.1	0	0	357	0.2	356	358	14.1	73.7
2025-07-11T00:11	10	0	0.1	0	0	357	0.2	356	357	14.1	73.8
2025-07-11T00:12	10	0	0.1	0	0	357	0.2	357	358	14.2	73.5
2025-07-11T00:13	10	0	0.1	0	0	357	0.2	356	357	14.2	73.4
2025-07-11T00:14	10	0	0.1	0	0	357	0.2	357	357	14.2	73.4
2025-07-11T00:15	10	0	0.1	0	0	357	0.2	357	358	14.2	73.0
2025-07-11T00:16	10	0	0.1	0	0	357	0.2	357	358	14.3	73.1
2025-07-11T00:17	10	0	0.1	-1	0	357	0.2	357	358	14.2	73.1
2025-07-11T00:18	10	0	0.1	0	0	357	0.2	357	358	14.2	73.1
2025-07-11T00:19	10	0	0.1	0	0	357	0.2	356	358	14.1	73.5
2025-07-11T00:20	10	0	0.1	0	0	358	0.3	357	358	14.0	74.7
2025-07-11T00:21	10	0	0.1	0	0	358	0.3	357	358	14.1	74.1
2025-07-11T00:22	10	0	0.1	0	0	357	0.2	357	358	14.0	74.5
2025-07-11T00:23	10	0	0.1	0	0	357	0.3	357	358	14.0	74.7
2025-07-11T00:24	10	0	0.1	0	0	357	0.2	357	358	14.0	74.9
2025-07-11T00:25	10	0	0.2	-1	0	358	0.3	357	358	14.0	74.7
2025-07-11T00:26	10	0	0.1	0	0	358	0.2	357	358	14.0	74.4
2025-07-11T00:27	10	0	0.1	0	0	358	0.2	357	358	14.1	73.8
2025-07-11T00:28	10	0	0.1	0	0	358	0.3	357	358	14.2	73.5
2025-07-11T00:29	10	0	0.1	0	0	357	0.2	357	358	14.2	73.3
2025-07-11T00:30	10	0	0.2	0	0	357	0.5	355	358	14.3	72.8
2025-07-11T00:31	10	0	0.1	0	0	357	0.3	356	357	14.0	74.2
2025-07-11T00:32	10	0	0.1	0	0	357	0.3	356	358	13.9	74.6
2025-07-11T00:33	10	0	0.1	0	0	357	0.3	357	358	14.1	73.7
2025-07-11T00:34	10	0	0.2	0	0	357	0.3	356	357	14.3	72.6
2025-07-11T00:35	10	0	0.1	-1	0	357	0.4	356	357	14.2	72.7
2025-07-11T00:36	10	0	0.1	0	0	357	0.3	356	357	14.1	73.2
2025-07-11T00:37	10	0	0.2	-1	0	356	0.3	355	357	14.1	73.5
2025-07-11T00:38	10	0	0.1	0	0	356	0.3	355	357	14.0	73.9
2025-07-11T00:39	10	0	0.1	0	0	356	0.2	356	357	14.0	73.4
2025-07-11T00:40	10	0	0.1	-1	0	357	0.3	356	357	14.1	73.2
2025-07-11T00:41	10	0	0.1	-1	0	357	0.3	356	357	14.1	73.0
2025-07-11T00:42	10	0	0.1	0	0	357	0.2	356	357	14.2	72.7
2025-07-11T00:43	10	0	0.1	0	0	357	0.2	356	357	14.2	72.4
2025-07-11T00:44	10	0	0.1	0	0	357	0.2	356	357	14.3	72.0
2025-07-11T00:45	10	0	0.1	0	0	358	0.3	357	358	14.4	71.6
2025-07-11T00:46	10	0	0.1	0	0	358	0.2	357	358	14.6	70.8
2025-07-11T00:47	10	0	0.1	0	0	357	0.4	357	358	14.4	71.9
2025-07-11T00:48	10	0	0.1	0	0	358	0.2	357	358	14.1	72.7
2025-07-11T00:49	10	0	0.1	0	0	357	0.2	357	358	14.1	72.9
2025-07-11T00:50	10	0	0.1	0	0	358	0.4	357	359	14.3	71.7
2025-07-11T00:51	10	0	0.1	0	0	357	0.3	357	358	14.3	72.0
2025-07-11T00:52	10	0	0.1	0	0	358	0.2	357	358	14.3	71.7
2025-07-11T00:53	10	0	0.1	0	0	357	0.2	356	357	14.3	72.2
2025-07-11T00:54	10	0	0.1	0	0	356	0.4	355	357	14.2	72.5
2025-07-11T00:55	10	0	0.1	0	0	356	0.2	356	357	14.1	72.7
2025-07-11T00:56	10	0	0.1	0	0	356	0.3	355	357	14.0	73.5
2025-07-11T00:57	10	0	0.1	0	0	356	0.2	355	356	13.9	74.5
2025-07-11T00:58	10	0	0.1	0	0	356	0.4	356	357	14.1	71.8
2025-07-11T00:59	10	0	0.1	0	0	357	0.5	356	358	14.3	70.9
2025-07-11T01:00	10	0	0.1	-1	0	358	0.5	357	359	14.5	69.7
2025-07-11T01:01	10	0	0.1	0	0	358	0.3	357	358	14.6	68.8
2025-07-11T01:02	10	0	0.1	0	0	357	0.3	357	358	14.4	68.8
2025-07-11T01:03	10	0	0.1	0	0	358	0.2	357	358	14.2	69.9
2025-07-11T01:04	10	0	0.1	0	0	358	0.2	358	359	13.9	71.2
2025-07-11T01:05	10	0	0.1	0	0	359	0.3	358	359	13.7	73.0
2025-07-11T01:06	10	0	0.1	0	0	359	0.2	358	359	13.6	73.0
2025-07-11T01:07	10	0	0.1	0	0	358	0.3	358	359	13.6	73.2
2025-07-11T01:08	10	0	0.1	0	0	359	0.2	359	360	13.8	71.8
2025-07-11T01:09	10	0	0.1	0	0	359	0.5	358	360	13.9	71.3
2025-07-11T01:10	10	0	0.1	0	0	360	0.2	359	361	14.0	70.5
2025-07-11T01:11	10	0	0.1	0	0	360	0.2	360	361	13.9	70.5
2025-07-11T01:12	10	0	0.1	0	0	361	0.4	360	361	13.9	70.4
2025-07-11T01:13	10	0	0.1	0	0	360	0.4	359	361	14.0	69.8
2025-07-11T01:14	10	0	0.1	0	0	359	0.5	358	360	13.7	72.1
2025-07-11T01:15	10	0	0.1	0	0	357	0.5	356	358	13.4	74.7
2025-07-11T01:16	10	0	0.1	0	0	356	0.4	355	357	13.1	77.7
2025-07-11T01:17	10	0	0.1	0	0	355	0.4	354	356	12.8	79.7
2025-07-11T01:18	10	0	0.1	0	0	354	0.2	354	355	12.6	80.6
2025-07-11T01:19	10	0	0.1	0	0	354	0.2	354	355	12.5	82.1
2025-07-11T01:20	10	0	0.1	0	0	354	0.3	354	355	12.5	80.9
2025-07-11T01:21	10	0	0.1	0	0	354	0.2	354	355	12.6	78.4
2025-07-11T01:22	10	0	0.1	0	0	354	0.3	353	355	12.6	79.4
2025-07-11T01:23	10	0	0.1	0	0	354	0.3	353	355	12.6	79.6
2025-07-11T01:24	10	0	0.1	0	0	354	0.2	353	354	12.5	80.1
2025-07-11T01:25	10	0	0.1	0	0	354	0.2	353	354	12.4	80.5
2025-07-11T01:26	10	0	0.1	0	0	354	0.2	353	354	12.4	80.6
2025-07-11T01:27	10	0	0.1	0	0	353	0.2	353	354	12.4	80.9
2025-07-11T01:28	10	0	0.1	0	0	353	0.2	353	354	12.4	80.5
2025-07-11T01:29	10	0	0.1	0	0	354	0.3	353	354	12.5	79.7
2025-07-11T01:30	10	0	0.1	0	0	354	0.2	353	355	12.5	79.4
2025-07-11T01:31	10	0	0.1	0	0	354	0.2	353	354	12.6	79.2
2025-07-11T01:32	10	0	0.1	0	0	354	0.2	353	354	12.6	79.3
2025-07-11T01:33	10	0	0.1	0	0	353	0.2	353	354	12.6	78.6
2025-07-11T01:34	10	0	0.1	0	0	353	0.2	353	354	12.7	78.0
2025-07-11T01:35	10	0	0.1	-1	0	353	0.2	353	353	12.7	77.4
2025-07-11T01:36	10	0	0.1	0	0	353	0.3	353	354	12.8	76.8
2025-07-11T01:37	10	0	0.1	0	0	353	0.3	353	354	12.9	76.1
2025-07-11T01:38	10	0	0.1	0	0	353	0.3	353	354	13.0	76.0
2025-07-11T01:39	10	0	0.1	0	0	353	0.2	353	354	12.9	76.5
2025-07-11T01:40	10	0	0.1	0	0	353	0.3	352	353	12.8	76.9
2025-07-11T01:41	10	0	0.1	-1	0	353	0.2	352	353	12.7	77.5
2025-07-11T01:42	10	0	0.1	-1	0	353	0.2	353	354	12.8	76.4
2025-07-11T01:43	10	0	0.1	0	0	353	0.2	353	354	12.9	75.8
2025-07-11T01:44	10	0	0.1	-1	0	353	0.2	352	353	13.1	75.4
2025-07-11T01:45	10	0	0.1	0	0	353	0.3	352	353	13.0	75.7
2025-07-11T01:46	10	0	0.1	-1	0	353	0.2	353	354	13.2	73.9
2025-07-11T01:47	10	0	0.1	-1	0	353	0.2	353	354	13.2	74.8
2025-07-11T01:48	10	0	0.1	0	0	353	0.2	353	354	13.1	75.0
2025-07-11T01:49	10	0	0.1	0	0	353	0.3	352	354	13.1	75.4
2025-07-11T01:50	10	0	0.1	0	0	353	0.2	352	353	13.1	75.7
2025-07-11T01:51	10	0	0.1	0	0	353	0.2	352	353	13.1	76.0
2025-07-11T01:52	10	0	0.1	0	0	352	0.3	352	353	13.0	76.3
2025-07-11T01:53	10	0	0.1	0	0	352	0.3	351	353	12.9	76.6
2025-07-11T01:54	10	0	0.1	0	0	352	0.3	351	352	12.8	77.1
2025-07-11T01:55	10	0	0.1	0	0	351	0.2	351	352	12.7	77.5
2025-07-11T01:56	10	0	0.1	0	0	351	0.2	351	352	12.6	78.3
2025-07-11T01:57	10	0	0.1	0	0	351	0.2	351	352	12.5	78.8
2025-07-11T01:58	10	0	0.1	0	0	351	0.3	351	352	12.4	79.4
2025-07-11T01:59	10	0	0.1	0	0	351	0.3	350	351	12.3	79.9
2025-07-11T02:00	10	0	0.1	-1	0	351	0.2	350	351	12.3	80.3
2025-07-11T02:01	10	0	0.1	-1	0	351	0.2	351	351	12.1	81.0
2025-07-11T02:02	10	0	0.1	0	0	351	0.2	350	351	12.1	81.4
2025-07-11T02:03	10	0	0.1	-1	0	350	0.2	350	351	12.1	81.7
2025-07-11T02:04	10	0	0.1	0	0	350	0.2	350	351	12.0	82.1
2025-07-11T02:05	10	0	0.1	-1	0	350	0.2	350	351	11.9	82.4
2025-07-11T02:06	10	0	0.7	-1	5	350	0.2	350	351	11.9	82.8
2025-07-11T02:07	10	0	0.1	0	0	350	0.2	350	351	11.9	83.0
2025-07-11T02:08	10	0	0.6	-1	4	350	0.2	350	350	11.9	82.9
2025-07-11T02:09	10	0	0.1	0	0	350	0.2	349	351	11.9	82.9
2025-07-11T02:10	10	0	0.1	-1	0	350	0.3	349	351	11.9	82.8
2025-07-11T02:11	10	0	0.1	0	0	350	0.2	350	350	11.9	82.8
2025-07-11T02:12	10	0	0.1	-1	0	350	0.2	350	350	11.9	82.7
2025-07-11T02:13	10	0	0.4	0	3	350	0.2	350	351	11.9	82.6
2025-07-11T02:14	10	0	0.1	0	0	350	0.2	349	350	11.9	82.4
2025-07-11T02:15	10	0	0.1	0	0	350	0.2	350	351	11.9	82.0
2025-07-11T02:16	10	0	0.1	-1	0	350	0.3	350	351	12.0	81.7
2025-07-11T02:17	10	0	0.1	-1	0	350	0.2	350	351	12.1	80.6
2025-07-11T02:18	10	0	0.1	-1	0	350	0.2	349	350	12.1	80.6
2025-07-11T02:19	10	0	0.0	0	0	350	0.3	349	350	12.0	80.9
2025-07-11T02:20	10	0	0.1	0	0	350	0.4	349	351	12.1	80.6
2025-07-11T02:21	10	0	0.1	-1	0	350	0.2	350	351	12.3	80.6
2025-07-11T02:22	10	0	0.1	0	0	349	0.4	349	351	12.1	80.5
2025-07-11T02:23	10	0	0.1	0	0	349	0.2	349	350	11.9	81.8
2025-07-11T02:24	10	0	0.1	0	0	350	0.3	349	350	11.8	81.9
2025-07-11T02:25	10	0	0.1	-1	0	350	0.3	349	350	11.9	81.9
2025-07-11T02:26	10	0	0.1	-1	0	349	0.3	348	350	12.0	81.4
2025-07-11T02:27	10	0	0.1	0	0	349	0.2	348	349	12.0	81.3
2025-07-11T02:28	10	0	0.1	0	0	349	0.2	348	349	11.9	81.6
2025-07-11T02:29	10	0	0.1	0	0	349	0.2	348	349	11.9	82.0
2025-07-11T02:30	10	0	0.1	-1	0	349	0.3	348	350	11.9	82.0
2025-07-11T02:31	10	0	0.6	-1	4	349	0.3	349	350	12.0	81.5
2025-07-11T02:32	10	0	0.1	-1	0	349	0.2	349	350	12.1	80.3
2025-07-11T02:33	10	0	0.1	0	0	349	0.3	348	349	12.0	80.8
2025-07-11T02:34	10	0	0.1	0	0	349	0.3	348	349	12.1	80.6
2025-07-11T02:35	10	0	0.1	0	0	348	0.2	348	349	11.9	80.7
2025-07-11T02:36	10	0	0.1	0	0	349	0.2	348	349	11.8	80.1
2025-07-11T02:37	10	0	0.1	0	0	349	0.2	348	349	11.7	80.5
2025-07-11T02:38	10	0	0.1	0	0	348	0.2	348	349	11.7	81.0
2025-07-11T02:39	10	0	0.1	0	0	348	0.3	347	348	11.6	81.6
2025-07-11T02:40	10	0	0.1	0	0	348	0.2	347	348	11.5	82.2
2025-07-11T02:41	10	0	0.1	0	0	348	0.2	347	348	11.4	82.4
2025-07-11T02:42	10	0	0.2	0	0	348	0.2	347	348	11.4	82.4
2025-07-11T02:43	10	0	0.1	-1	0	348	0.2	347	348	11.3	82.8
2025-07-11T02:44	10	0	0.2	-1	0	348	0.3	347	348	11.4	82.3
2025-07-11T02:45	10	0	0.1	-1	0	348	0.2	347	348	11.4	82.3
2025-07-11T02:46	10	0	0.1	-1	0	348	0.3	347	348	11.3	82.7
2025-07-11T02:47	10	0	0.2	-1	0	348	0.3	347	348	11.2	83.1
2025-07-11T02:48	10	0	0.2	-1	0	348	0.3	347	348	11.3	82.9
2025-07-11T02:49	10	0	0.1	-1	0	348	0.2	348	349	11.4	82.2
2025-07-11T02:50	10	0	0.1	-1	0	348	0.3	347	348	11.4	81.9
2025-07-11T02:51	10	0	0.1	-1	0	347	0.3	347	348	11.4	82.1
2025-07-11T02:52	10	0	0.1	-1	0	347	0.3	346	348	11.2	82.9
2025-07-11T02:53	10	0	0.2	-1	0	347	0.2	347	348	11.1	83.4
2025-07-11T02:54	10	0	0.1	0	0	348	0.3	347	348	11.3	82.9
2025-07-11T02:55	10	0	0.1	0	0	348	0.3	347	349	11.4	82.5
2025-07-11T02:56	10	0	0.1	-1	0	348	0.3	347	348	11.4	81.7
2025-07-11T02:57	10	0	0.1	0	0	347	0.3	347	348	11.4	81.5
2025-07-11T02:58	10	0	0.1	0	0	347	0.3	346	348	11.3	82.1
2025-07-11T02:59	10	0	0.2	0	1	347	0.2	346	348	11.2	82.9
2025-07-11T03:00	10	0	0.2	0	0	347	0.3	347	348	11.2	82.1
2025-07-11T03:01	10	0	0.1	-1	0	347	0.3	347	348	11.3	82.0
2025-07-11T03:02	10	0	0.1	0	0	348	0.2	347	348	11.2	82.8
2025-07-11T03:03	10	0	0.1	0	0	348	0.2	347	349	11.0	83.8
2025-07-11T03:04	10	0	0.1	-1	0	349	0.3	348	349	11.1	83.6
2025-07-11T03:05	10	0	0.1	-1	0	349	0.3	349	350	11.4	82.3
2025-07-11T03:06	10	0	0.1	0	0	349	0.3	349	350	11.5	81.6
2025-07-11T03:07	10	0	0.1	0	0	350	0.3	349	351	11.6	81.4
2025-07-11T03:08	10	0	0.1	-1	0	350	0.3	350	351	11.7	81.2
2025-07-11T03:09	10	0	0.1	0	0	351	0.3	350	351	11.6	81.5
2025-07-11T03:10	10	0	0.1	0	0	350	0.2	350	351	11.6	81.3
2025-07-11T03:11	10	0	0.1	-1	0	350	0.2	350	351	11.7	81.0
2025-07-11T03:12	10	0	0.1	0	0	350	0.3	349	351	11.7	80.7
2025-07-11T03:13	10	0	0.1	0	0	350	0.2	349	350	11.8	80.3
2025-07-11T03:14	10	0	0.1	0	0	350	0.3	349	350	11.7	80.2
2025-07-11T03:15	10	0	0.1	0	0	349	0.3	348	350	11.7	80.3
2025-07-11T03:16	10	0	0.1	0	0	349	0.2	348	349	11.7	80.6
2025-07-11T03:17	10	0	0.1	0	0	348	0.3	348	349	11.6	80.9
2025-07-11T03:18	10	0	0.1	0	0	348	0.2	347	348	11.5	81.7
2025-07-11T03:19	10	0	0.1	0	0	347	0.3	347	348	11.4	82.4
2025-07-11T03:20	10	0	0.0	0	0	347	0.3	346	348	11.3	83.4
2025-07-11T03:21	10	0	0.1	0	0	347	0.2	346	347	11.2	83.0
2025-07-11T03:22	10	0	0.1	0	0	346	0.2	346	347	11.1	83.3
2025-07-11T03:23	10	0	0.1	0	0	346	0.2	346	347	11.1	83.5
2025-07-11T03:24	10	0	0.1	0	0	346	0.3	346	347	11.1	83.8
2025-07-11T03:25	10	0	0.1	0	0	346	0.2	346	347	11.2	83.5
2025-07-11T03:26	10	0	0.1	0	0	346	0.2	346	347	11.3	82.6
2025-07-11T03:27	10	0	0.1	0	0	347	0.2	346	347	11.3	82.2
2025-07-11T03:28	10	0	0.1	0	0	347	0.2	346	347	11.3	82.5
2025-07-11T03:29	10	0	0.1	0	0	347	0.2	346	347	11.3	82.3
2025-07-11T03:30	10	0	0.1	0	0	347	0.2	346	347	11.3	82.2
2025-07-11T03:31	10	0	0.1	0	0	346	0.2	346	347	11.2	82.5
2025-07-11T03:32	10	0	0.1	0	0	346	0.2	346	347	11.2	82.9
2025-07-11T03:33	10	0	0.1	0	0	346	0.2	346	347	11.2	82.7
2025-07-11T03:34	10	0	0.1	0	0	346	0.2	346	347	11.2	82.3
2025-07-11T03:35	10	0	0.1	0	0	347	0.2	346	347	11.3	81.7
2025-07-11T03:36	10	0	0.1	0	0	346	0.3	346	347	11.4	81.5
2025-07-11T03:37	10	0	0.1	0	0	346	0.3	346	347	11.2	82.1
2025-07-11T03:38	10	0	0.1	0	0	346	0.3	346	347	11.1	82.8
2025-07-11T03:39	10	0	0.1	0	0	346	0.3	346	347	11.0	83.0
2025-07-11T03:40	10	0	0.1	0	0	347	0.4	346	347	11.2	82.5
2025-07-11T03:41	10	0	0.1	0	0	347	0.3	346	347	11.4	81.3
2025-07-11T03:42	10	0	0.1	0	0	347	0.3	346	348	11.6	80.1
2025-07-11T03:43	10	0	0.1	0	0	347	0.2	347	348	11.6	80.0
2025-07-11T03:44	10	0	0.1	0	0	347	0.2	347	348	11.6	79.9
2025-07-11T03:45	10	0	0.1	0	1	347	0.3	347	348	11.5	80.5
2025-07-11T03:46	10	0	0.1	0	1	347	0.2	347	348	11.3	81.2
2025-07-11T03:47	10	1	0.1	0	1	347	0.3	346	347	11.2	81.7
2025-07-11T03:48	10	1	0.0	0	1	347	0.3	346	347	11.1	82.3
2025-07-11T03:49	10	0	0.1	0	1	347	0.3	346	347	11.1	82.3
2025-07-11T03:50	10	1	0.1	0	1	347	0.2	346	347	10.9	83.1
2025-07-11T03:51	10	1	0.1	1	1	346	0.2	346	347	10.9	83.7
2025-07-11T03:52	10	1	0.1	1	1	347	0.3	346	347	10.8	83.6
2025-07-11T03:53	10	1	0.1	1	1	347	0.2	346	347	11.0	83.0
2025-07-11T03:54	10	1	0.1	1	1	347	0.3	346	348	11.1	82.1
2025-07-11T03:55	10	1	0.1	1	1	347	0.3	347	348	11.3	81.3
2025-07-11T03:56	10	1	0.1	1	1	347	0.3	347	348	11.2	81.3
2025-07-11T03:57	10	1	0.1	1	1	347	0.3	347	348	11.2	81.6
2025-07-11T03:58	10	1	0.1	1	2	348	0.2	347	348	11.3	81.4
2025-07-11T03:59	10	1	0.1	1	2	348	0.2	348	349	11.3	81.7
2025-07-11T04:00	10	2	0.1	1	2	348	0.3	348	349	11.2	82.3
2025-07-11T04:01	10	2	0.1	1	2	350	0.4	348	350	11.4	81.7
2025-07-11T04:02	10	2	0.1	1	2	349	0.2	349	350	11.8	79.6
2025-07-11T04:03	10	2	0.1	2	2	349	0.3	348	350	11.7	79.7
2025-07-11T04:04	10	2	0.1	2	2	349	0.3	349	350	11.6	80.5
2025-07-11T04:05	10	3	0.1	2	3	349	0.2	348	349	11.5	81.0
2025-07-11T04:06	10	3	0.1	3	3	349	0.2	348	349	11.4	81.4
2025-07-11T04:07	10	3	0.1	3	3	349	0.3	349	350	11.2	81.9
2025-07-11T04:08	10	3	0.1	3	4	349	0.3	349	350	11.2	82.3
2025-07-11T04:09	10	4	0.1	3	4	349	0.3	349	350	11.2	82.4
2025-07-11T04:10	10	4	0.1	4	4	349	0.2	348	350	11.1	83.1
2025-07-11T04:11	10	4	0.1	4	4	349	0.3	348	349	10.9	84.1
2025-07-11T04:12	10	4	0.1	4	4	349	0.2	349	350	10.6	85.5
2025-07-11T04:13	10	5	0.1	4	5	349	0.2	348	350	10.5	87.2
2025-07-11T04:14	10	5	0.1	5	5	349	0.2	348	349	10.6	87.2
2025-07-11T04:15	10	5	0.1	5	5	349	0.2	348	349	10.6	87.1
2025-07-11T04:16	10	5	0.1	5	5	349	0.3	348	350	10.6	86.7
2025-07-11T04:17	10	5	0.2	5	6	349	0.2	349	350	10.8	86.2
2025-07-11T04:18	10	6	0.2	5	6	349	0.3	348	350	10.9	85.5
2025-07-11T04:19	10	6	0.2	6	7	349	0.3	349	350	11.0	84.2
2025-07-11T04:20	10	7	0.1	6	7	350	0.4	349	351	11.1	83.3
2025-07-11T04:21	10	7	0.1	7	7	351	0.3	350	352	11.2	82.8
2025-07-11T04:22	10	7	0.1	7	7	351	0.2	351	352	11.3	82.7
2025-07-11T04:23	10	7	0.1	7	7	351	0.2	351	352	11.3	82.8
2025-07-11T04:24	10	7	0.2	7	8	351	0.2	351	352	11.2	83.0
2025-07-11T04:25	10	8	0.1	8	8	351	0.2	350	351	11.1	84.0
2025-07-11T04:26	10	9	0.2	8	9	351	0.3	350	352	11.0	84.0
2025-07-11T04:27	10	9	0.3	9	10	352	0.4	351	352	11.1	84.0
2025-07-11T04:28	10	11	0.4	10	11	352	0.3	351	353	11.1	83.7
2025-07-11T04:29	10	12	0.2	11	12	352	0.2	352	353	11.1	84.2
2025-07-11T04:30	10	12	0.2	12	12	352	0.2	352	353	11.1	84.1
2025-07-11T04:31	10	13	0.2	12	13	353	0.3	352	353	11.2	83.7
2025-07-11T04:32	10	13	0.2	13	14	353	0.3	353	354	11.2	83.2
2025-07-11T04:33	10	14	0.2	14	14	353	0.3	353	354	11.2	82.8
2025-07-11T04:34	10	15	0.2	14	15	354	0.2	353	354	11.2	83.0
2025-07-11T04:35	10	15	0.2	15	16	354	0.3	353	355	11.4	82.3
2025-07-11T04:36	10	16	0.2	16	16	355	0.2	354	355	11.6	81.3
2025-07-11T04:37	10	17	0.2	16	17	355	0.2	354	355	11.7	80.8
2025-07-11T04:38	10	17	0.2	17	18	356	0.4	355	356	11.8	79.9
2025-07-11T04:39	10	18	0.2	18	18	356	0.3	356	357	12.0	78.9
2025-07-11T04:40	10	19	0.2	18	19	357	0.2	356	357	12.1	78.1
2025-07-11T04:41	10	19	0.2	19	20	357	0.3	357	358	12.1	78.1
2025-07-11T04:42	10	20	0.2	20	20	358	0.2	357	358	12.0	78.8
2025-07-11T04:43	10	20	0.2	20	21	358	0.2	358	358	11.9	79.4
2025-07-11T04:44	10	21	0.2	21	21	358	0.2	358	359	11.9	79.7
2025-07-11T04:45	10	22	0.2	21	22	359	0.3	358	359	11.9	79.6
2025-07-11T04:46	10	22	0.2	22	23	359	0.2	359	360	11.9	79.3
2025-07-11T04:47	10	23	0.2	23	23	359	0.2	359	360	11.9	79.4
2025-07-11T04:48	10	24	0.2	23	24	360	0.3	359	361	11.7	80.2
2025-07-11T04:49	10	24	0.2	24	24	360	0.2	360	361	11.8	79.9
2025-07-11T04:50	10	25	0.2	24	25	361	0.3	360	361	11.8	79.8
2025-07-11T04:51	10	25	0.2	25	26	361	0.2	361	362	11.8	79.8
2025-07-11T04:52	10	26	0.2	26	26	361	0.2	361	362	11.8	79.8
2025-07-11T04:53	10	27	0.2	26	27	362	0.2	362	363	11.7	80.2
2025-07-11T04:54	10	27	0.2	27	28	362	0.2	362	363	11.5	81.2
2025-07-11T04:55	10	28	0.9	28	33	362	0.3	362	363	11.5	81.5
2025-07-11T04:56	10	29	0.2	28	29	363	0.3	362	364	11.5	81.4
2025-07-11T04:57	10	29	0.2	29	30	363	0.3	363	364	11.5	81.2
2025-07-11T04:58	10	30	0.2	30	30	364	0.2	363	365	11.5	80.9
2025-07-11T04:59	10	31	0.2	30	31	364	0.2	364	365	11.6	80.4
2025-07-11T05:00	10	31	0.2	31	32	365	0.3	364	365	11.7	80.1
2025-07-11T05:01	10	32	0.2	31	32	365	0.2	365	365	11.8	79.9
2025-07-11T05:02	10	33	0.2	32	33	365	0.3	365	366	11.8	79.7
2025-07-11T05:03	10	33	0.2	33	34	366	0.2	365	366	11.9	79.3
2025-07-11T05:04	10	34	0.2	33	34	367	0.3	366	367	11.9	79.1
2025-07-11T05:05	10	34	0.2	34	35	367	0.2	367	368	12.0	78.7
2025-07-11T05:06	10	35	0.1	35	35	367	0.2	367	368	12.1	78.3
2025-07-11T05:07	10	35	0.2	35	36	368	0.3	367	368	12.2	78.0
2025-07-11T05:08	10	36	0.2	35	36	368	0.3	368	369	12.3	77.2
2025-07-11T05:09	10	36	0.2	36	37	369	0.2	368	369	12.3	76.7
2025-07-11T05:10	10	37	0.2	36	37	370	0.3	369	370	12.4	76.4
2025-07-11T05:11	10	37	0.3	37	38	370	0.3	369	371	12.4	76.3
2025-07-11T05:12	10	38	0.2	37	38	370	0.2	370	371	12.6	75.8
2025-07-11T05:13	10	38	0.2	38	39	371	0.2	370	371	12.7	75.2
2025-07-11T05:14	10	39	0.2	38	39	371	0.2	370	372	12.9	74.3
2025-07-11T05:15	10	39	0.2	39	40	372	0.2	371	372	12.7	76.0
2025-07-11T05:16	10	40	0.2	39	40	372	0.2	372	373	12.6	75.8
2025-07-11T05:17	10	40	0.2	40	41	373	0.3	372	373	12.6	76.1
2025-07-11T05:18	10	41	0.2	40	41	373	0.3	373	374	12.7	75.1
2025-07-11T05:19	10	41	0.2	41	42	374	0.2	373	374	12.8	76.6
2025-07-11T05:20	10	42	0.2	41	42	375	0.2	374	375	12.9	75.9
2025-07-11T05:21	10	42	0.2	42	43	375	0.2	375	376	12.9	76.5
2025-07-11T05:22	10	43	0.2	43	44	375	0.2	375	376	13.0	76.9
2025-07-11T05:23	10	44	0.2	43	44	376	0.3	376	377	13.0	76.2
2025-07-11T05:24	10	44	0.2	44	45	376	0.2	376	377	13.1	76.8
2025-07-11T05:25	10	45	0.2	45	45	377	0.2	377	377	13.2	76.8
2025-07-11T05:26	10	46	0.2	45	46	377	0.2	377	378	13.2	78.3
2025-07-11T05:27	10	46	0.2	46	47	378	0.3	377	378	13.2	78.4
2025-07-11T05:28	10	47	0.2	47	47	378	0.3	377	378	13.1	77.3
2025-07-11T05:29	10	48	0.2	47	48	378	0.2	377	378	13.1	76.6
2025-07-11T05:30	10	48	0.2	48	49	378	0.2	378	378	13.2	76.6
2025-07-11T05:31	10	49	0.2	49	49	379	0.3	378	379	13.1	76.8
2025-07-11T05:32	10	50	0.2	49	50	379	0.2	378	379	13.2	77.8
2025-07-11T05:33	10	50	0.2	50	51	379	0.3	378	380	13.2	78.0
2025-07-11T05:34	10	51	0.2	50	51	380	0.2	379	380	13.2	77.8
2025-07-11T05:35	10	52	0.2	51	52	380	0.2	380	380	13.2	78.8
2025-07-11T05:36	10	52	0.2	52	53	381	0.2	380	381	13.2	80.0
2025-07-11T05:37	10	53	0.2	53	54	381	0.2	381	382	13.2	80.5
2025-07-11T05:38	10	54	0.2	53	54	382	0.3	381	382	13.3	79.6
2025-07-11T05:39	10	54	0.2	54	55	382	0.2	381	383	13.5	77.7
2025-07-11T05:40	10	55	0.2	54	55	383	0.2	382	383	13.5	77.8
2025-07-11T05:41	10	55	0.2	55	56	383	0.2	383	383	13.5	80.2
2025-07-11T05:42	10	56	0.2	55	56	384	0.2	383	384	13.5	80.1
2025-07-11T05:43	10	57	0.2	56	57	384	0.2	383	384	13.6	78.5
2025-07-11T05:44	10	57	0.2	57	58	384	0.3	383	385	13.7	75.5
2025-07-11T05:45	10	58	0.2	57	58	384	0.3	384	385	14.0	75.1
2025-07-11T05:46	10	58	0.2	58	59	385	0.2	384	385	14.2	75.0
2025-07-11T05:47	10	59	0.2	59	59	385	0.2	385	386	14.0	77.4
2025-07-11T05:48	10	60	0.2	59	60	385	0.2	385	386	13.8	77.4
2025-07-11T05:49	10	60	0.2	60	61	385	0.2	385	386	13.8	76.4
2025-07-11T05:50	10	61	0.2	61	61	386	0.2	385	386	13.9	76.8
2025-07-11T05:51	10	62	0.2	61	62	386	0.2	386	387	13.8	77.5
2025-07-11T05:52	10	62	0.2	62	63	386	0.2	386	387	13.8	76.4
2025-07-11T05:53	10	63	0.2	63	63	387	0.2	387	388	13.9	76.7
2025-07-11T05:54	10	64	0.2	63	64	387	0.2	387	388	13.9	77.0
2025-07-11T05:55	10	64	0.2	64	64	388	0.2	387	388	14.0	76.1
2025-07-11T05:56	10	65	0.2	64	65	388	0.2	388	389	13.9	76.8
2025-07-11T05:57	10	65	0.2	65	66	389	0.2	388	389	13.9	76.5
2025-07-11T05:58	10	66	0.2	66	66	389	0.3	388	390	13.9	76.2
2025-07-11T05:59	10	67	0.3	66	67	389	0.4	388	390	14.0	75.3
2025-07-11T06:00	10	67	0.2	67	68	389	0.3	389	390	13.9	75.3
2025-07-11T06:01	10	68	0.2	67	68	390	0.3	389	391	13.9	75.6
2025-07-11T06:02	10	69	0.3	68	69	390	0.4	389	391	14.0	75.3
2025-07-11T06:03	10	69	0.2	69	69	390	0.2	390	391	13.9	74.2
2025-07-11T06:04	10	70	0.2	69	70	390	0.2	390	390	13.9	74.0
2025-07-11T06:05	10	71	0.2	70	71	390	0.2	390	391	13.8	73.9
2025-07-11T06:06	10	71	0.2	71	72	391	0.4	390	391	13.8	73.7
2025-07-11T06:07	10	72	0.2	72	72	392	0.2	391	392	14.0	73.7
2025-07-11T06:08	10	73	0.2	72	73	392	0.3	391	392	14.0	73.8
2025-07-11T06:09	10	74	0.3	73	74	392	0.2	392	393	14.0	73.8
2025-07-11T06:10	10	74	0.2	74	75	392	0.3	391	393	13.9	73.1
2025-07-11T06:11	10	75	0.3	75	76	393	0.2	392	393	14.0	72.8
2025-07-11T06:12	10	76	0.2	76	77	393	0.3	392	394	14.1	73.5
2025-07-11T06:13	10	77	0.3	76	77	393	0.3	393	394	14.2	72.0
2025-07-11T06:14	10	78	0.2	77	78	394	0.3	393	394	14.1	72.3
2025-07-11T06:15	10	78	0.2	78	79	394	0.3	394	395	14.2	72.3
2025-07-11T06:16	10	79	0.2	78	79	395	0.3	394	395	14.3	72.6
2025-07-11T06:17	10	80	0.2	79	80	395	0.2	394	395	14.3	71.8
2025-07-11T06:18	10	80	0.2	80	80	396	0.3	395	396	14.4	71.6
2025-07-11T06:19	10	81	0.2	80	81	397	0.4	396	398	14.5	71.9
2025-07-11T06:20	10	81	0.2	81	81	397	0.3	397	398	14.6	70.8
2025-07-11T06:21	10	82	0.1	81	82	398	0.2	397	398	14.6	70.2
2025-07-11T06:22	10	82	0.2	82	83	398	0.3	397	399	14.7	69.8
2025-07-11T06:23	10	83	0.2	82	83	399	0.3	398	400	14.8	70.0
2025-07-11T06:24	10	83	0.1	83	83	399	0.3	399	400	14.8	69.7
2025-07-11T06:25	10	84	0.2	83	84	400	0.2	399	400	14.8	69.7
2025-07-11T06:26	10	84	0.2	84	85	400	0.2	399	400	14.9	69.5
2025-07-11T06:27	10	85	0.2	85	85	401	0.3	400	402	15.1	69.3
2025-07-11T06:28	10	85	0.2	85	86	401	0.3	401	402	15.3	68.6
2025-07-11T06:29	10	86	0.2	86	86	402	0.3	402	403	15.4	68.9
2025-07-11T06:30	10	86	0.2	86	87	402	0.3	401	403	15.3	68.0
2025-07-11T06:31	10	87	0.2	87	87	402	0.2	402	403	15.3	68.0
2025-07-11T06:32	10	88	0.2	87	88	403	0.5	402	404	15.4	67.8
2025-07-11T06:33	10	88	0.2	88	89	404	0.3	403	405	15.7	68.1
2025-07-11T06:34	10	89	0.1	89	89	404	0.3	403	405	15.6	66.7
2025-07-11T06:35	10	89	0.1	89	90	404	0.7	403	405	15.4	67.8
2025-07-11T06:36	10	90	0.1	90	90	404	0.3	403	404	15.3	68.5
2025-07-11T06:37	10	90	0.2	90	91	405	0.3	404	405	15.6	67.1
2025-07-11T06:38	10	91	0.1	91	91	406	0.5	405	407	15.9	66.1
2025-07-11T06:39	10	91	0.3	91	92	407	0.2	407	408	15.9	66.5
2025-07-11T06:40	10	92	0.2	91	92	407	0.2	406	407	15.6	67.2
2025-07-11T06:41	10	92	0.2	92	93	407	0.5	406	408	15.7	67.8
2025-07-11T06:42	10	93	0.2	92	93	407	0.3	406	407	15.6	67.4
2025-07-11T06:43	10	93	0.2	93	94	407	0.4	406	408	15.7	67.4
2025-07-11T06:44	10	94	0.2	93	94	408	0.4	407	409	15.8	67.4
2025-07-11T06:45	10	94	0.2	94	95	409	0.3	409	410	15.9	67.0
2025-07-11T06:46	10	95	0.2	95	95	409	0.3	409	410	15.9	67.1
2025-07-11T06:47	10	95	0.2	95	96	410	0.2	409	410	15.9	66.8
2025-07-11T06:48	10	96	0.1	96	96	410	0.3	409	411	16.0	66.8
2025-07-11T06:49	10	96	0.1	96	97	411	0.4	410	412	16.1	66.5
2025-07-11T06:50	10	97	0.2	97	97	410	0.5	409	411	16.0	66.2
2025-07-11T06:51	10	97	0.1	97	98	410	0.2	410	411	16.2	65.7
2025-07-11T06:52	10	98	0.2	97	98	411	0.3	410	412	16.2	65.8
2025-07-11T06:53	10	98	0.2	98	99	411	0.2	411	412	16.1	65.5
2025-07-11T06:54	10	99	0.2	98	99	412	0.4	411	412	16.3	65.3
2025-07-11T06:55	10	99	0.2	99	100	413	0.3	412	413	16.4	65.1
2025-07-11T06:56	10	100	0.2	100	100	413	0.4	412	414	16.5	65.6
2025-07-11T06:57	10	100	0.2	100	101	413	0.4	413	414	16.4	65.2
2025-07-11T06:58	10	101	0.2	100	101	414	0.4	413	415	16.5	64.4
2025-07-11T06:59	10	101	0.2	101	102	414	0.4	413	415	16.3	64.6
2025-07-11T07:00	10	102	0.2	101	102	415	0.5	414	416	16.5	64.5
2025-07-11T07:01	10	102	0.1	102	102	415	0.8	413	416	16.5	65.0
2025-07-11T07:02	10	103	0.2	102	103	416	0.4	415	417	16.6	64.5
2025-07-11T07:03	10	103	0.2	103	103	417	0.6	416	418	16.6	64.5
2025-07-11T07:04	10	103	0.2	103	104	417	0.3	416	418	16.5	64.5
2025-07-11T07:05	10	104	0.1	104	104	417	1.1	415	418	16.6	65.0
2025-07-11T07:06	10	104	0.2	104	105	416	0.3	415	417	16.5	65.0
2025-07-11T07:07	10	105	0.2	104	105	417	0.4	416	418	16.4	65.3
2025-07-11T07:08	10	105	0.2	105	106	418	0.7	417	419	16.5	65.1
2025-07-11T07:09	10	106	0.1	105	106	418	0.3	417	419	16.5	65.0
2025-07-11T07:10	10	106	0.2	106	106	419	0.5	418	420	16.7	64.6
2025-07-11T07:11	10	107	0.2	106	107	419	0.5	419	420	16.6	64.8
2025-07-11T07:12	10	107	0.1	107	107	419	0.6	418	421	16.6	64.7
2025-07-11T07:13	10	108	0.2	107	108	422	0.3	421	422	17.2	64.0
2025-07-11T07:14	10	108	0.1	108	108	422	0.5	421	423	17.1	63.8
2025-07-11T07:15	10	109	0.2	108	109	421	0.8	420	423	17.0	63.4
2025-07-11T07:16	10	109	0.1	109	109	421	0.2	421	421	17.0	63.7
2025-07-11T07:17	10	109	0.1	109	110	422	0.4	421	422	17.0	64.3
2025-07-11T07:18	10	110	0.1	110	110	422	0.6	421	423	17.0	64.5
2025-07-11T07:19	10	110	0.1	110	110	420	0.6	419	421	16.7	65.2
2025-07-11T07:20	10	111	0.1	110	111	419	0.3	419	420	16.5	66.2
2025-07-11T07:21	10	111	0.1	111	111	421	0.4	420	421	16.5	66.0
2025-07-11T07:22	10	111	0.2	111	112	421	0.5	420	422	16.7	65.4
2025-07-11T07:23	10	112	0.2	111	112	422	0.5	421	423	16.8	65.0
2025-07-11T07:24	10	112	0.2	112	113	422	0.5	421	423	16.9	65.0
2025-07-11T07:25	10	113	0.2	112	113	422	0.8	420	423	17.1	64.5
2025-07-11T07:26	10	113	0.2	113	114	422	0.5	421	423	17.0	64.9
2025-07-11T07:27	10	114	0.2	113	114	424	0.6	423	425	16.9	65.2
2025-07-11T07:28	10	114	0.2	114	115	424	0.4	423	425	16.9	65.5
2025-07-11T07:29	10	115	0.2	115	115	426	0.8	425	427	17.0	65.3
2025-07-11T07:30	10	115	0.2	115	116	427	0.4	426	428	17.0	64.9
2025-07-11T07:31	10	116	0.2	115	116	430	0.9	428	431	17.6	64.1
2025-07-11T07:32	10	116	0.2	116	117	428	1.7	426	430	17.5	63.4
2025-07-11T07:33	10	117	0.1	116	117	427	0.6	426	428	17.1	63.8
2025-07-11T07:34	10	117	0.1	117	118	428	0.6	427	429	17.2	63.2
2025-07-11T07:35	10	118	0.1	117	118	428	0.6	427	429	17.2	63.4
2025-07-11T07:36	10	118	0.2	117	118	428	0.6	427	429	17.6	62.6
2025-07-11T07:37	10	118	0.2	118	119	430	0.6	428	431	17.7	61.5
2025-07-11T07:38	10	119	0.3	118	119	430	0.4	429	431	17.6	61.5
2025-07-11T07:39	10	119	0.2	119	120	431	0.5	431	433	17.6	61.3
2025-07-11T07:40	10	119	0.2	119	120	433	0.5	432	434	17.7	61.6
2025-07-11T07:41	10	120	0.2	119	120	434	0.4	433	434	17.9	61.6
2025-07-11T07:42	10	120	0.2	120	121	433	0.8	431	434	17.6	62.1
2025-07-11T07:43	10	121	0.2	120	121	433	0.8	432	435	17.5	62.6
2025-07-11T07:44	10	121	0.2	121	121	435	0.2	434	435	17.8	62.2
2025-07-11T07:45	10	121	0.2	121	122	435	0.9	433	437	18.0	61.3
2025-07-11T07:46	10	122	0.2	121	122	434	0.5	433	435	17.7	61.4
2025-07-11T07:47	10	122	0.2	122	123	435	0.5	435	436	17.9	61.1
2025-07-11T07:48	10	123	0.2	122	123	437	0.4	436	437	18.1	60.3
2025-07-11T07:49	10	123	0.2	123	124	436	0.3	436	437	18.2	60.0
2025-07-11T07:50	10	124	0.1	123	124	437	0.4	436	438	18.3	59.4
2025-07-11T07:51	10	124	0.1	124	124	439	0.7	438	440	18.7	59.7
2025-07-11T07:52	10	124	0.2	124	125	439	0.5	438	440	18.8	58.7
2025-07-11T07:53	10	125	0.1	124	125	439	0.7	437	440	19.0	57.6
2025-07-11T07:54	10	125	0.1	125	125	437	0.8	436	438	18.7	56.7
2025-07-11T07:55	10	125	0.1	125	126	437	0.3	437	438	18.6	57.3
2025-07-11T07:56	10	126	0.1	126	126	436	0.8	435	438	18.4	57.8
2025-07-11T07:57	10	126	0.1	126	126	438	0.3	437	438	18.5	56.7
2025-07-11T07:58	10	126	0.2	126	126	438	0.6	437	440	18.5	56.0
2025-07-11T07:59	10	126	0.1	126	127	441	0.5	440	442	18.9	55.9
2025-07-11T08:00	10	127	0.2	126	127	443	0.7	442	444	19.2	56.3
2025-07-11T08:01	10	127	0.2	127	128	442	0.8	440	443	18.9	56.0
2025-07-11T08:02	10	128	0.1	128	128	440	0.6	439	441	18.9	56.4
2025-07-11T08:03	10	128	0.1	128	128	440	0.4	440	441	18.9	56.2
2025-07-11T08:04	10	128	0.1	128	129	441	0.8	439	442	19.1	55.8
2025-07-11T08:05	10	129	0.1	129	129	440	1.0	439	442	18.8	56.1
2025-07-11T08:06	10	129	0.1	129	129	444	0.5	443	445	19.0	56.0
2025-07-11T08:07	10	129	0.2	129	130	446	0.8	444	447	19.4	55.6
2025-07-11T08:08	10	130	0.2	130	130	443	0.7	442	444	19.4	55.5
2025-07-11T08:09	10	130	0.1	130	131	444	1.1	442	445	19.0	55.5
2025-07-11T08:10	10	131	0.1	130	131	445	0.5	444	447	19.3	55.1
2025-07-11T08:11	10	131	0.1	131	131	445	1.1	444	447	19.5	53.5
2025-07-11T08:12	10	131	0.1	131	132	445	0.6	444	446	19.2	54.4
2025-07-11T08:13	10	132	0.1	131	132	445	0.8	444	447	19.4	54.5
2025-07-11T08:14	10	132	0.1	132	132	446	0.9	445	448	19.6	54.2
2025-07-11T08:15	10	132	0.1	132	133	446	0.8	445	448	19.4	54.4
2025-07-11T08:16	10	133	0.1	132	133	445	0.9	444	446	19.2	54.9
2025-07-11T08:17	10	133	0.2	133	133	448	1.3	446	450	19.5	55.0
2025-07-11T08:18	10	134	0.1	133	134	447	1.4	445	449	19.5	53.8
2025-07-11T08:19	10	134	0.2	134	134	447	1.1	445	448	19.4	54.0
2025-07-11T08:20	10	134	0.1	134	135	446	0.8	445	448	19.4	54.0
2025-07-11T08:21	10	135	0.1	134	135	449	0.6	448	450	19.7	53.6
2025-07-11T08:22	10	135	0.2	135	135	449	1.0	448	451	19.6	52.5
2025-07-11T08:23	10	135	0.2	135	136	452	0.9	451	454	20.2	52.6
2025-07-11T08:24	10	136	0.1	136	136	453	0.8	452	454	20.3	52.1
2025-07-11T08:25	10	136	0.1	136	136	452	0.5	451	453	20.0	52.8
2025-07-11T08:26	10	136	0.1	136	137	453	0.6	452	454	20.1	53.3
2025-07-11T08:27	10	137	0.1	137	137	452	1.3	450	454	20.0	52.9
2025-07-11T08:28	10	137	0.2	137	137	452	0.4	451	453	20.3	53.0
2025-07-11T08:29	10	137	0.1	137	138	454	0.7	452	455	20.4	52.7
2025-07-11T08:30	10	137	0.2	137	138	454	0.8	453	456	20.3	52.4
2025-07-11T08:31	10	138	0.2	138	139	454	1.3	453	456	20.2	52.6
2025-07-11T08:32	10	138	0.1	138	139	455	0.9	453	457	20.3	53.3
2025-07-11T08:33	10	139	0.1	138	139	453	0.8	451	454	20.3	52.6
2025-07-11T08:34	10	139	0.1	139	139	452	0.9	451	454	19.8	53.2
2025-07-11T08:35	10	139	0.2	139	140	456	1.2	454	458	20.5	53.2
2025-07-11T08:36	10	140	0.1	139	140	456	0.5	454	457	20.5	51.7
2025-07-11T08:37	10	140	0.1	139	140	452	1.1	451	455	20.4	52.5
2025-07-11T08:38	10	140	0.2	140	140	455	1.0	454	457	20.5	52.2
2025-07-11T08:39	10	140	0.1	140	141	458	0.9	457	460	20.6	52.0
2025-07-11T08:40	10	141	0.2	140	141	459	0.8	457	460	20.9	51.7
2025-07-11T08:41	10	141	0.1	141	141	458	1.4	455	461	20.8	51.3
2025-07-11T08:42	10	142	0.1	141	142	456	0.9	454	457	20.3	51.3
2025-07-11T08:43	10	142	0.1	141	142	457	1.2	456	460	20.6	51.1
2025-07-11T08:44	10	142	0.1	142	142	456	0.9	455	458	20.6	50.7
2025-07-11T08:45	10	142	0.1	142	142	459	0.6	458	460	20.8	50.3
2025-07-11T08:46	10	142	0.2	142	143	460	0.4	459	461	21.0	49.8
2025-07-11T08:47	10	143	0.2	142	143	461	0.8	459	462	21.4	49.4
2025-07-11T08:48	10	143	0.2	143	144	458	1.2	455	460	20.9	49.5
2025-07-11T08:49	10	144	0.1	143	144	458	1.4	456	461	20.9	49.9
2025-07-11T08:50	10	144	0.1	143	144	462	0.9	460	464	21.0	49.1
2025-07-11T08:51	10	144	0.1	143	144	461	0.3	460	462	20.6	50.0
2025-07-11T08:52	10	144	0.2	143	144	461	0.6	460	463	21.2	49.1
2025-07-11T08:53	10	144	0.2	144	145	462	0.3	461	462	21.3	49.2
2025-07-11T08:54	10	145	0.2	144	145	463	0.4	462	463	21.4	49.6
2025-07-11T08:55	10	145	0.1	145	145	460	1.6	457	463	21.1	49.3
2025-07-11T08:56	10	145	0.1	145	146	459	0.4	459	461	21.0	49.9
2025-07-11T08:57	10	146	0.1	145	146	459	1.3	457	462	20.9	49.8
2025-07-11T08:58	10	146	0.1	145	146	460	2.0	457	463	20.6	50.0
2025-07-11T08:59	10	146	0.2	146	147	463	0.4	462	464	20.9	49.9
2025-07-11T09:00	10	146	0.2	146	147	463	1.5	461	466	21.0	49.4
2025-07-11T09:01	10	146	0.1	146	147	467	0.6	466	468	21.3	49.0
2025-07-11T09:02	10	147	0.2	146	147	466	0.4	465	467	21.5	48.3
2025-07-11T09:03	10	147	0.2	147	148	466	1.2	463	467	21.8	48.2
2025-07-11T09:04	10	148	0.2	147	148	465	0.9	464	467	21.4	48.0
2025-07-11T09:05	10	148	0.3	147	148	467	0.6	465	468	21.4	48.3
2025-07-11T09:06	10	148	0.2	148	149	468	1.2	466	470	21.5	48.0
2025-07-11T09:07	10	149	0.2	148	149	468	1.4	465	470	21.6	47.6
2025-07-11T09:08	10	148	0.2	148	149	464	1.1	462	466	21.6	47.3
2025-07-11T09:09	10	149	0.2	148	149	465	0.8	463	467	21.7	48.0
2025-07-11T09:10	10	149	0.2	148	150	465	0.8	464	467	21.8	47.6
2025-07-11T09:11	10	150	0.2	149	150	466	1.2	464	469	21.5	47.6
2025-07-11T09:12	10	150	0.2	149	150	470	0.7	469	472	21.9	48.1
2025-07-11T09:13	10	150	0.2	149	150	472	0.9	470	473	22.0	47.5
2025-07-11T09:14	10	150	0.2	149	150	473	1.8	469	475	22.1	46.6
2025-07-11T09:15	10	150	0.2	150	151	467	1.1	465	469	21.9	47.0
2025-07-11T09:16	10	150	0.2	150	151	465	0.6	464	466	21.8	47.0
2025-07-11T09:17	10	151	0.2	150	151	467	1.2	465	470	21.7	46.9
2025-07-11T09:18	10	151	0.1	151	151	469	0.4	468	470	21.8	47.4
2025-07-11T09:19	10	151	0.1	151	151	470	0.8	468	471	22.0	47.5
2025-07-11T09:20	10	151	0.2	151	152	471	0.7	469	472	22.0	47.5
2025-07-11T09:21	10	151	0.1	151	152	471	1.3	469	472	22.0	47.3
2025-07-11T09:22	10	151	0.2	151	152	470	1.0	468	472	21.9	47.2
2025-07-11T09:23	10	152	0.2	151	152	473	0.6	472	474	22.1	47.4
2025-07-11T09:24	10	152	0.1	152	152	473	0.8	471	474	22.2	46.5
2025-07-11T09:25	10	152	0.1	152	152	471	0.9	469	473	22.4	45.7
2025-07-11T09:26	10	152	0.1	152	152	468	0.7	467	470	21.9	46.7
2025-07-11T09:27	10	153	0.1	152	153	469	0.5	468	470	21.5	46.8
2025-07-11T09:28	10	153	0.1	153	153	470	0.3	469	471	21.4	47.7
2025-07-11T09:29	10	153	0.2	153	153	473	1.1	470	474	22.1	46.8
2025-07-11T09:30	10	153	0.1	153	153	468	1.3	466	472	21.7	46.6
2025-07-11T09:31	10	153	0.2	153	154	471	1.0	468	472	21.8	46.5
2025-07-11T09:32	10	153	0.1	153	153	470	1.5	467	472	21.8	46.5
2025-07-11T09:33	10	153	0.1	153	153	468	1.5	466	471	21.9	46.4
2025-07-11T09:34	10	154	0.1	153	154	468	0.8	467	470	21.9	46.2
2025-07-11T09:35	10	154	0.2	154	154	469	1.2	467	472	22.0	46.0
2025-07-11T09:36	10	154	0.1	154	154	475	1.3	472	476	22.2	45.5
2025-07-11T09:37	10	154	0.2	154	155	476	0.7	475	477	22.4	45.5
2025-07-11T09:38	10	155	0.2	154	155	477	0.9	476	479	22.6	44.8
2025-07-11T09:39	10	155	0.1	155	155	478	0.4	478	480	22.5	44.4
2025-07-11T09:40	10	155	0.2	155	155	478	2.2	474	480	22.6	44.0
2025-07-11T09:41	10	155	0.1	155	156	475	1.3	473	478	22.6	43.3
2025-07-11T09:42	10	156	0.1	155	156	472	1.7	470	475	22.4	43.0
2025-07-11T09:43	10	156	0.1	155	156	472	1.3	471	475	22.5	43.1
2025-07-11T09:44	10	156	0.1	156	156	474	0.7	473	476	22.8	42.7
2025-07-11T09:45	10	156	0.1	156	156	474	1.0	471	476	22.4	42.2
2025-07-11T09:46	10	156	0.1	156	157	473	1.1	471	475	22.1	42.6
2025-07-11T09:47	10	157	0.1	157	157	471	1.5	468	473	22.1	42.8
2025-07-11T09:48	10	157	0.1	156	157	471	1.1	469	474	21.9	43.5
2025-07-11T09:49	10	156	0.2	156	157	477	1.2	474	479	22.5	43.5
2025-07-11T09:50	10	157	0.2	156	157	475	1.8	471	477	22.5	43.1
2025-07-11T09:51	10	157	0.1	157	157	473	1.0	471	475	22.5	42.4
2025-07-11T09:52	10	157	0.2	157	158	474	1.9	471	477	22.6	42.1
2025-07-11T09:53	10	158	0.1	158	158	478	0.8	477	480	22.8	42.5
2025-07-11T09:54	10	158	0.1	158	158	478	0.6	477	479	23.0	42.7
2025-07-11T09:55	10	158	0.2	158	159	481	1.3	479	483	23.0	42.4
2025-07-11T09:56	10	158	0.1	158	159	482	0.7	481	483	23.3	42.5
2025-07-11T09:57	10	159	0.2	158	159	482	1.2	480	484	23.2	41.8
2025-07-11T09:58	10	159	0.1	159	159	478	1.4	476	481	22.6	41.9
2025-07-11T09:59	10	159	0.1	159	159	481	0.9	479	483	23.1	41.8
2025-07-11T10:00	10	159	0.2	159	160	482	1.1	480	484	23.0	40.7
2025-07-11T10:01	10	160	0.1	159	160	480	1.4	478	483	22.9	40.4
2025-07-11T10:02	10	160	0.1	159	160	480	0.8	478	481	23.3	40.5
2025-07-11T10:03	10	160	0.1	160	160	478	0.8	477	480	23.3	39.9
2025-07-11T10:04	10	160	0.1	160	160	481	1.0	479	482	22.9	40.2
2025-07-11T10:05	10	160	0.2	160	161	480	1.7	477	482	22.9	40.3
2025-07-11T10:06	10	160	0.1	160	161	477	1.0	475	479	23.0	39.7
2025-07-11T10:07	10	160	0.2	160	161	477	0.8	476	479	22.7	39.8
2025-07-11T10:08	10	160	0.2	159	160	481	0.9	479	483	23.0	39.9
2025-07-11T10:09	10	160	0.2	160	161	485	1.2	482	487	23.2	39.5
2025-07-11T10:10	10	161	0.1	160	161	485	2.0	481	487	23.2	38.9
2025-07-11T10:11	10	161	0.1	161	161	482	1.1	480	484	23.2	37.9
2025-07-11T10:12	10	161	0.2	161	162	482	1.4	480	485	23.5	38.4
2025-07-11T10:13	10	161	0.1	161	162	481	1.1	480	484	23.0	39.1
2025-07-11T10:14	10	161	0.1	161	162	485	0.8	483	486	23.4	39.3
2025-07-11T10:15	10	162	0.2	161	162	486	1.0	484	487	23.5	39.4
2025-07-11T10:16	10	162	0.2	162	162	484	0.7	482	485	23.0	39.0
2025-07-11T10:17	10	162	0.1	162	163	486	1.9	482	488	23.3	39.3
2025-07-11T10:18	10	162	0.1	162	162	485	1.8	482	487	23.0	39.2
2025-07-11T10:19	10	162	0.1	162	162	486	0.5	485	487	23.1	39.1
2025-07-11T10:20	10	162	0.2	162	162	487	1.4	484	489	23.0	39.3
2025-07-11T10:21	10	163	0.2	162	163	488	0.4	487	488	23.0	39.3
2025-07-11T10:22	10	163	0.1	163	163	490	1.2	487	491	23.0	36.7
2025-07-11T10:23	10	163	0.1	163	163	487	2.3	483	490	23.0	39.3
2025-07-11T10:24	10	163	0.1	162	163	482	0.5	481	483	23.0	39.3
2025-07-11T10:25	10	163	0.1	162	163	485	1.3	483	487	23.0	39.3
2025-07-11T10:26	10	163	0.2	163	163	489	1.6	486	492	23.0	39.3
2025-07-11T10:27	10	163	0.1	163	164	489	2.6	485	492	23.0	39.3
2025-07-11T10:28	10	163	0.2	163	164	487	1.5	485	490	23.8	36.8
2025-07-11T10:29	10	164	0.1	163	164	488	1.2	486	489	23.3	37.4
2025-07-11T10:30	10	164	0.1	164	164	490	0.8	489	492	23.6	37.5
2025-07-11T10:31	10	164	0.1	164	164	489	1.8	487	493	23.9	36.1
2025-07-11T10:32	10	164	0.1	164	165	485	2.5	481	489	23.6	35.1
2025-07-11T10:33	10	164	0.2	164	164	481	0.7	480	482	23.4	35.2
2025-07-11T10:34	10	164	0.1	163	164	484	0.9	482	486	23.3	35.4
2025-07-11T10:35	10	164	0.1	163	164	486	0.6	485	488	23.2	35.6
2025-07-11T10:36	10	164	0.1	163	164	487	0.7	486	489	23.4	35.6
2025-07-11T10:37	10	163	0.1	163	164	489	1.3	486	491	24.1	35.9
2025-07-11T10:38	10	164	0.1	163	164	484	1.7	481	488	23.5	36.5
2025-07-11T10:39	10	164	0.1	164	164	486	0.8	484	487	23.1	37.1
2025-07-11T10:40	10	164	0.1	164	164	491	1.7	487	493	23.6	37.9
2025-07-11T10:41	10	164	0.1	164	164	489	0.6	488	492	23.3	37.5
2025-07-11T10:42	10	164	0.2	164	165	490	1.3	489	493	23.2	37.8
2025-07-11T10:43	10	165	0.1	164	165	492	0.9	491	493	23.3	37.6
2025-07-11T10:44	10	165	0.2	165	166	493	0.5	491	493	23.5	36.9
2025-07-11T10:45	10	165	0.1	165	166	491	1.2	488	493	23.6	36.8
2025-07-11T10:46	10	165	0.1	165	166	489	1.1	487	492	23.5	36.5
2025-07-11T10:47	10	166	0.1	165	166	489	1.2	487	492	23.8	36.6
2025-07-11T10:48	10	166	0.2	165	166	486	1.3	484	489	23.5	36.8
2025-07-11T10:49	10	165	0.1	165	165	491	2.0	488	495	23.5	37.3
2025-07-11T10:50	10	165	0.2	165	165	495	1.2	494	497	24.3	37.3
2025-07-11T10:51	10	165	0.1	165	165	491	1.7	488	495	23.8	36.6
2025-07-11T10:52	10	165	0.2	165	165	491	1.3	489	493	23.7	35.8
2025-07-11T10:53	10	165	0.1	165	165	490	1.0	489	492	23.6	36.3
2025-07-11T10:54	10	165	0.1	165	165	490	1.8	487	493	24.2	36.2
2025-07-11T10:55	10	165	0.1	165	165	488	2.2	485	492	23.7	35.9
2025-07-11T10:56	10	165	0.2	165	166	492	2.6	488	496	23.8	36.5
2025-07-11T10:57	10	165	0.1	165	166	495	3.2	488	498	24.5	36.2
2025-07-11T10:58	10	166	0.1	166	166	486	1.3	484	489	23.7	36.0
2025-07-11T10:59	10	166	0.1	165	166	487	0.7	486	489	23.3	36.2
2025-07-11T11:00	10	166	0.1	166	166	487	0.8	485	488	23.5	36.0
2025-07-11T11:01	10	166	0.3	165	166	486	1.1	484	488	24.0	35.6
2025-07-11T11:02	10	166	0.1	166	166	490	2.5	485	494	23.6	35.5
2025-07-11T11:03	10	166	0.1	166	166	492	1.0	490	494	23.9	35.7
2025-07-11T11:04	10	166	0.2	165	166	495	1.2	493	498	24.3	35.3
2025-07-11T11:05	10	166	0.1	166	166	494	3.4	488	498	24.1	34.4
2025-07-11T11:06	10	166	0.2	166	167	489	0.9	487	490	23.7	34.7
2025-07-11T11:07	10	166	0.2	166	166	490	1.0	488	491	23.7	35.1
2025-07-11T11:08	10	166	0.1	165	166	491	1.2	489	493	23.8	34.9
2025-07-11T11:09	10	166	0.1	165	166	489	1.5	485	490	23.7	34.8
2025-07-11T11:10	10	166	0.1	165	166	486	1.0	484	488	23.4	35.0
2025-07-11T11:11	10	165	0.2	165	166	492	2.9	487	497	24.2	34.5
2025-07-11T11:12	10	166	0.2	165	166	492	1.2	491	495	24.4	33.3
2025-07-11T11:13	10	166	0.1	166	166	490	2.8	486	494	24.3	33.6
2025-07-11T11:14	10	166	0.1	166	166	488	0.5	487	489	24.0	33.8
2025-07-11T11:15	10	166	0.2	166	167	491	2.1	489	495	24.1	33.8
2025-07-11T11:16	10	167	0.2	166	167	496	1.7	493	499	24.5	33.8
2025-07-11T11:17	10	167	0.1	167	167	498	1.6	493	500	25.0	33.8
2025-07-11T11:18	10	167	0.2	167	168	488	2.1	486	494	23.9	34.3
2025-07-11T11:19	10	167	0.2	166	167	491	1.1	488	492	24.0	34.8
2025-07-11T11:20	10	166	0.1	166	167	491	1.0	489	493	24.0	34.9
2025-07-11T11:21	10	166	0.1	166	167	490	1.3	488	493	23.7	35.0
2025-07-11T11:22	10	167	0.1	166	167	490	1.0	489	492	23.7	35.0
2025-07-11T11:23	10	167	0.1	166	167	491	1.1	489	493	23.8	35.0
2025-07-11T11:24	10	167	0.1	166	167	489	0.5	488	490	23.6	34.6
2025-07-11T11:25	10	167	0.1	167	167	492	1.4	489	493	23.5	34.8
2025-07-11T11:26	10	167	0.2	166	167	493	1.6	490	495	24.2	34.6
2025-07-11T11:27	10	167	0.1	166	167	490	1.1	488	493	23.9	33.5
2025-07-11T11:28	10	167	0.1	166	167	492	1.7	490	495	24.0	33.5
2025-07-11T11:29	10	167	0.1	166	167	493	2.7	489	498	24.2	33.3
2025-07-11T11:30	10	167	0.1	166	167	490	0.7	489	492	24.0	33.8
2025-07-11T11:31	10	167	0.2	166	167	492	0.8	490	494	23.7	33.9
2025-07-11T11:32	10	167	0.2	167	168	496	1.7	493	499	23.9	33.9
2025-07-11T11:33	10	167	0.1	167	168	498	0.4	497	499	24.3	33.7
2025-07-11T11:34	10	167	0.1	167	168	496	1.7	493	500	24.3	33.3
2025-07-11T11:35	10	167	0.1	167	168	492	0.8	491	493	24.3	32.6
2025-07-11T11:36	10	167	0.1	167	168	494	0.8	492	496	24.4	32.5
2025-07-11T11:37	10	168	0.2	167	168	493	2.5	490	497	24.1	31.4
2025-07-11T11:38	10	168	0.2	168	168	493	0.9	491	494	24.0	30.4
2025-07-11T11:39	10	168	0.1	167	168	492	0.7	491	494	24.0	31.7
2025-07-11T11:40	10	168	0.1	167	168	495	1.6	492	497	24.2	32.7
2025-07-11T11:41	10	168	0.1	168	168	495	1.5	492	498	24.2	33.1
2025-07-11T11:42	10	168	0.1	168	168	497	0.5	497	499	24.3	32.9
2025-07-11T11:43	10	168	0.1	168	168	498	1.2	495	499	24.4	32.4
2025-07-11T11:44	10	168	0.1	168	169	496	0.6	494	497	24.4	32.0
2025-07-11T11:45	10	168	0.1	168	169	494	2.2	489	497	24.1	31.7
2025-07-11T11:46	10	168	0.1	168	169	490	0.6	489	491	24.1	33.0
2025-07-11T11:47	10	168	0.1	168	169	491	1.5	489	495	23.9	33.2
2025-07-11T11:48	10	168	0.1	168	168	499	1.7	495	501	24.7	32.7
2025-07-11T11:49	10	169	0.2	168	169	496	2.0	494	500	24.3	32.5
2025-07-11T11:50	10	169	0.2	169	170	497	0.5	496	498	24.1	33.0
2025-07-11T11:51	10	169	0.2	168	169	497	0.5	496	498	24.3	32.7
2025-07-11T11:52	10	169	0.2	168	169	496	0.9	494	498	24.3	32.1
2025-07-11T11:53	10	169	0.2	168	169	495	1.0	493	496	24.1	30.9
2025-07-11T11:54	10	168	0.1	168	168	496	0.4	495	497	24.5	30.9
2025-07-11T11:55	10	168	0.1	168	168	496	0.9	495	498	24.8	30.7
2025-07-11T11:56	10	168	0.1	167	168	501	1.3	498	503	25.2	30.2
2025-07-11T11:57	10	168	0.1	168	168	499	0.9	498	501	24.5	29.4
2025-07-11T11:58	10	168	0.2	168	169	497	1.0	496	499	24.4	30.1
2025-07-11T11:59	10	169	0.1	169	169	499	0.9	497	500	24.5	30.1
2025-07-11T12:00	10	169	0.2	169	170	501	1.4	498	503	24.5	30.1
2025-07-11T12:01	10	169	0.1	169	170	501	2.2	497	504	24.9	29.8
2025-07-11T12:02	10	169	0.1	169	169	498	0.8	497	501	24.8	28.6
2025-07-11T12:03	10	169	0.3	169	170	499	1.1	497	501	24.4	26.5
2025-07-11T12:04	10	170	0.2	170	170	502	1.0	500	504	24.6	27.0
2025-07-11T12:05	10	170	0.1	170	170	500	1.2	498	503	25.3	26.7
2025-07-11T12:06	10	170	0.2	170	171	498	1.2	496	501	24.7	27.3
2025-07-11T12:07	10	170	0.1	170	171	501	1.6	498	504	24.3	27.1
2025-07-11T12:08	10	170	0.1	170	171	500	1.8	498	504	24.3	27.3
2025-07-11T12:09	10	169	0.3	169	170	500	0.6	497	501	24.4	28.3
2025-07-11T12:10	10	169	0.1	169	170	499	1.0	497	501	24.4	28.8
2025-07-11T12:11	10	169	0.2	169	170	500	1.6	498	503	24.7	28.8
2025-07-11T12:12	10	169	0.1	169	170	504	1.2	502	506	25.0	28.6
2025-07-11T12:13	10	170	0.1	170	170	503	2.8	497	507	25.2	27.8
2025-07-11T12:14	10	170	0.2	169	170	499	0.9	498	501	24.8	26.7
2025-07-11T12:15	10	169	0.2	169	170	502	0.9	501	504	24.7	26.4
2025-07-11T12:16	10	169	0.2	169	170	505	0.9	503	507	24.9	25.9
2025-07-11T12:17	10	169	0.1	169	169	506	0.8	505	508	25.5	26.2
2025-07-11T12:18	10	169	0.2	169	170	506	0.7	505	508	25.8	27.0
2025-07-11T12:19	10	169	0.1	169	169	506	0.4	505	507	25.4	26.9
2025-07-11T12:20	10	169	0.4	168	170	502	2.3	498	506	25.4	27.1
2025-07-11T12:21	10	168	0.3	168	169	499	0.9	498	502	25.2	27.1
2025-07-11T12:22	10	168	0.2	167	168	503	0.7	502	505	25.4	26.5
2025-07-11T12:23	10	168	0.3	168	169	504	0.6	503	505	25.0	27.1
2025-07-11T12:24	10	169	0.3	168	170	506	0.6	504	507	25.9	28.3
2025-07-11T12:25	10	169	0.3	168	170	504	1.3	502	506	25.5	27.3
2025-07-11T12:26	10	169	0.2	169	169	503	0.5	502	504	25.0	27.9
2025-07-11T12:27	10	169	0.2	169	169	503	1.0	501	505	24.9	27.9
2025-07-11T12:28	10	169	0.3	168	170	505	1.1	502	507	24.9	28.1
2025-07-11T12:29	10	168	0.3	167	168	507	1.2	505	509	25.0	28.6
2025-07-11T12:30	10	167	0.1	167	167	510	0.9	508	511	25.5	28.9
2025-07-11T12:31	10	167	0.1	167	167	511	1.1	508	513	25.9	27.6
2025-07-11T12:32	10	167	0.3	167	168	505	1.6	503	509	25.4	27.3
2025-07-11T12:33	10	168	0.2	167	168	500	2.7	497	504	25.0	28.3
2025-07-11T12:34	10	167	0.2	167	168	500	1.1	497	501	24.9	27.5
2025-07-11T12:35	10	167	0.1	167	167	500	0.8	497	501	24.9	26.0
2025-07-11T12:36	10	167	0.2	166	167	502	0.7	500	503	25.0	25.9
2025-07-11T12:37	10	166	0.1	166	167	501	1.2	500	503	25.2	25.6
2025-07-11T12:38	10	167	0.1	167	167	499	1.2	498	503	25.0	25.4
2025-07-11T12:39	10	167	0.2	167	167	502	0.6	502	504	25.1	24.7
2025-07-11T12:40	10	168	0.1	167	168	503	0.9	502	505	24.8	24.9
2025-07-11T12:41	10	167	0.1	167	168	507	1.2	504	509	25.0	25.6
2025-07-11T12:42	10	168	0.1	167	168	509	0.4	508	510	25.4	25.6
2025-07-11T12:43	10	168	0.1	167	168	506	1.6	503	509	25.3	23.8
2025-07-11T12:44	10	168	0.1	167	168	501	0.7	500	503	25.5	22.1
2025-07-11T12:45	10	167	0.2	167	168	505	1.7	502	508	26.0	22.2
2025-07-11T12:46	10	167	0.2	167	168	503	1.6	500	506	25.6	21.4
2025-07-11T12:47	10	167	0.2	167	168	500	0.9	498	501	25.0	22.1
2025-07-11T12:48	10	167	0.2	166	167	502	0.7	501	503	25.1	24.0
2025-07-11T12:49	10	166	0.1	166	167	506	2.0	502	508	25.7	25.4
2025-07-11T12:50	10	166	0.2	166	166	503	1.2	501	506	25.9	26.1
2025-07-11T12:51	10	166	0.2	165	166	501	1.6	497	503	25.3	27.2
2025-07-11T12:52	10	165	0.2	165	166	496	1.2	494	498	24.8	28.3
2025-07-11T12:53	10	165	0.1	165	165	502	3.1	496	506	25.2	28.2
2025-07-11T12:54	10	165	0.3	165	166	500	1.4	498	503	25.1	27.1
2025-07-11T12:55	10	165	0.1	165	165	499	0.9	497	501	25.0	27.1
2025-07-11T12:56	10	165	0.1	165	165	501	1.0	499	502	24.9	25.9
2025-07-11T12:57	10	165	0.3	164	165	506	1.8	501	508	25.4	25.6
2025-07-11T12:58	10	164	0.2	163	164	508	0.9	505	509	25.8	26.9
2025-07-11T12:59	10	164	0.2	163	164	499	2.7	496	505	25.3	28.3
2025-07-11T13:00	10	164	0.3	163	164	499	0.9	497	500	24.9	28.8
2025-07-11T13:01	10	164	0.3	163	165	500	0.6	499	501	24.9	28.4
2025-07-11T13:02	10	163	0.1	163	164	501	1.1	499	504	25.3	26.4
2025-07-11T13:03	10	163	0.1	163	163	504	0.7	503	505	25.6	25.4
2025-07-11T13:04	10	163	0.1	163	163	503	2.0	501	506	25.8	24.3
2025-07-11T13:05	10	163	0.2	163	164	499	1.7	497	502	25.3	22.8
2025-07-11T13:06	10	164	0.1	164	164	501	0.9	498	502	25.5	25.1
2025-07-11T13:07	10	164	0.4	164	165	503	0.6	502	504	25.8	25.5
2025-07-11T13:08	10	165	0.3	164	165	502	0.9	501	505	25.7	25.5
2025-07-11T13:09	10	164	0.1	164	164	504	0.6	503	505	25.4	25.0
2025-07-11T13:10	10	164	0.1	164	164	502	1.5	500	504	25.3	24.6
2025-07-11T13:11	10	164	0.3	163	164	502	1.6	499	504	25.4	25.2
2025-07-11T13:12	10	163	0.2	163	163	501	2.7	497	504	25.7	25.5
2025-07-11T13:13	10	163	0.1	162	163	499	0.7	498	500	25.2	24.1
2025-07-11T13:14	10	162	0.1	162	163	504	1.8	500	507	25.3	24.3
2025-07-11T13:15	10	163	0.2	162	163	506	1.9	501	508	25.8	24.5
2025-07-11T13:16	10	162	0.4	162	163	497	2.6	493	501	25.4	25.1
2025-07-11T13:17	10	162	0.2	161	162	497	1.8	494	500	24.9	26.0
2025-07-11T13:18	10	161	0.2	160	161	501	0.8	500	503	25.4	26.0
2025-07-11T13:19	10	160	0.2	160	161	501	0.9	500	504	25.9	26.2
2025-07-11T13:20	10	160	0.2	160	161	503	0.5	502	504	26.2	26.2
2025-07-11T13:21	10	160	0.2	159	161	498	2.3	496	504	25.7	27.2
2025-07-11T13:22	10	160	0.2	159	160	498	0.9	496	499	25.3	26.6
2025-07-11T13:23	10	159	0.1	159	160	498	1.0	497	500	25.5	27.8
2025-07-11T13:24	10	159	0.3	159	161	500	1.3	497	502	25.9	26.7
2025-07-11T13:25	10	159	0.2	158	159	499	1.8	495	502	25.8	25.6
2025-07-11T13:26	10	159	0.1	159	159	498	0.7	497	500	25.2	25.3
2025-07-11T13:27	10	159	0.1	159	160	500	0.9	497	501	25.6	25.6
2025-07-11T13:28	10	159	0.1	159	159	496	2.2	493	500	25.6	26.5
2025-07-11T13:29	10	159	0.1	159	159	498	1.0	496	500	25.9	27.4
2025-07-11T13:30	10	159	0.1	159	159	502	1.0	500	504	25.8	28.2
2025-07-11T13:31	10	158	0.1	158	159	500	1.8	498	504	25.6	28.6
2025-07-11T13:32	10	158	0.2	158	159	497	1.0	495	498	25.6	28.3
2025-07-11T13:33	10	158	0.1	158	158	496	0.9	495	498	25.4	28.3
2025-07-11T13:34	10	157	0.3	157	158	497	1.1	496	499	25.6	28.9
2025-07-11T13:35	10	157	0.1	157	157	497	0.9	495	498	25.5	29.1
2025-07-11T13:36	10	157	0.1	157	157	500	1.3	497	501	25.3	29.5
2025-07-11T13:37	10	157	0.1	157	157	500	0.7	499	502	25.5	29.4
2025-07-11T13:38	10	157	0.1	157	157	499	0.8	497	501	25.8	29.5
2025-07-11T13:39	10	156	0.1	156	157	499	1.2	497	501	25.2	29.6
2025-07-11T13:40	10	157	0.1	156	157	500	1.1	498	502	25.2	29.9
2025-07-11T13:41	10	156	0.2	156	157	503	1.1	501	505	25.4	30.1
2025-07-11T13:42	10	156	0.1	156	156	504	1.2	502	506	25.7	30.0
2025-07-11T13:43	10	155	0.2	155	156	499	1.3	496	501	25.9	29.6
2025-07-11T13:44	10	155	0.2	154	155	496	0.9	494	498	25.8	28.6
2025-07-11T13:45	10	154	0.2	154	155	495	1.6	493	499	25.7	28.9
2025-07-11T13:46	10	154	0.2	154	154	493	0.7	491	495	25.6	29.2
2025-07-11T13:47	10	154	0.2	153	154	496	0.6	495	497	25.8	28.9
2025-07-11T13:48	10	154	0.1	154	154	496	0.5	495	497	25.6	29.1
2025-07-11T13:49	10	154	0.1	154	154	496	0.5	495	497	25.2	29.4
2025-07-11T13:50	10	153	0.3	153	154	496	0.4	496	497	25.2	29.8
2025-07-11T13:51	10	153	0.1	153	153	498	1.3	496	501	25.4	30.0
2025-07-11T13:52	10	153	0.2	153	154	498	1.7	495	501	25.8	30.5
2025-07-11T13:53	10	153	0.1	153	154	496	0.6	494	497	25.6	30.8
2025-07-11T13:54	10	153	0.2	153	154	496	0.5	495	497	25.3	30.9
2025-07-11T13:55	10	153	0.1	153	153	496	0.8	495	498	25.7	30.6
2025-07-11T13:56	10	153	0.2	153	153	497	0.7	496	499	25.7	30.4
2025-07-11T13:57	10	153	0.1	152	153	501	1.1	498	503	26.1	30.3
2025-07-11T13:58	10	152	0.2	152	153	500	0.2	500	501	26.0	29.6
2025-07-11T13:59	10	152	0.2	151	152	498	2.4	494	502	25.7	29.7
2025-07-11T14:00	10	151	0.2	151	152	495	0.8	493	496	25.3	29.2
2025-07-11T14:01	10	151	0.1	151	151	497	1.1	495	499	25.4	29.9
2025-07-11T14:02	10	151	0.1	151	151	499	0.9	497	500	25.6	29.5
2025-07-11T14:03	10	151	0.1	151	151	498	0.8	496	499	25.5	29.9
2025-07-11T14:04	10	151	0.1	151	151	498	1.7	495	500	25.5	29.6
2025-07-11T14:05	10	151	0.2	150	151	498	1.4	496	500	25.3	29.8
2025-07-11T14:06	10	150	0.1	150	150	498	1.0	497	500	25.5	30.2
2025-07-11T14:07	10	150	0.2	150	150	496	0.4	496	498	25.3	30.4
2025-07-11T14:08	10	149	0.2	149	150	498	0.5	497	499	25.4	30.8
2025-07-11T14:09	10	149	0.1	149	149	499	1.2	497	501	25.8	31.0
2025-07-11T14:10	10	149	0.2	149	149	497	0.5	497	498	25.6	30.8
2025-07-11T14:11	10	148	0.1	148	149	500	0.8	498	501	26.0	31.0
2025-07-11T14:12	10	148	0.1	148	149	498	1.1	496	499	26.0	30.9
2025-07-11T14:13	10	148	0.1	148	148	498	0.5	497	499	25.8	30.7
2025-07-11T14:14	10	148	0.1	148	148	498	0.7	497	500	25.8	31.1
2025-07-11T14:15	10	148	0.1	147	148	500	1.3	496	501	26.1	30.9
2025-07-11T14:16	10	148	0.1	147	148	495	1.2	493	496	26.2	29.9
2025-07-11T14:17	10	148	0.1	147	148	495	0.9	493	496	26.0	29.3
2025-07-11T14:18	10	148	0.1	147	148	493	1.7	490	496	26.1	29.2
2025-07-11T14:19	10	148	0.1	147	148	494	1.9	490	496	26.2	29.3
2025-07-11T14:20	10	147	0.2	147	148	493	1.4	491	496	25.9	29.1
2025-07-11T14:21	10	147	0.1	147	147	493	0.6	492	494	25.9	29.3
2025-07-11T14:22	10	147	0.2	146	147	490	1.2	489	493	25.5	29.8
2025-07-11T14:23	10	146	0.1	146	147	495	1.9	492	498	25.7	29.9
2025-07-11T14:24	10	146	0.1	146	146	498	0.3	497	499	26.3	30.0
2025-07-11T14:25	10	146	0.1	146	147	493	3.1	489	498	25.7	29.6
2025-07-11T14:26	10	146	0.2	146	147	491	0.9	490	493	25.6	30.7
2025-07-11T14:27	10	146	0.2	145	146	492	1.2	491	495	26.0	31.2
2025-07-11T14:28	10	146	0.2	145	146	491	0.4	491	493	25.8	31.3
2025-07-11T14:29	10	145	0.2	145	145	490	0.9	488	492	25.7	31.4
2025-07-11T14:30	10	144	0.2	144	145	490	1.2	489	494	25.8	31.1
2025-07-11T14:31	10	144	0.2	144	144	495	0.4	494	496	26.2	31.2
2025-07-11T14:32	10	144	0.1	144	144	496	0.7	495	497	25.9	31.6
2025-07-11T14:33	10	144	0.1	144	145	497	0.4	496	498	26.0	30.9
2025-07-11T14:34	10	144	0.2	143	144	493	1.4	492	497	25.6	30.5
2025-07-11T14:35	10	143	0.2	143	144	491	0.8	489	492	25.7	31.6
2025-07-11T14:36	10	143	0.1	143	143	492	0.8	491	494	25.6	31.4
2025-07-11T14:37	10	143	0.2	142	143	493	1.1	492	496	25.7	31.2
2025-07-11T14:38	10	142	0.2	142	143	495	0.8	494	497	26.0	31.3
2025-07-11T14:39	10	142	0.2	142	143	492	1.3	490	495	25.8	30.0
2025-07-11T14:40	10	142	0.2	142	142	494	0.6	493	495	25.7	29.9
2025-07-11T14:41	10	142	0.2	141	142	494	1.1	492	497	25.9	30.2
2025-07-11T14:42	10	141	0.2	141	142	497	0.7	496	498	26.4	30.9
2025-07-11T14:43	10	141	0.4	140	142	493	1.7	490	496	26.1	30.6
2025-07-11T14:44	10	140	0.3	139	141	489	1.0	488	491	25.5	30.4
2025-07-11T14:45	10	139	0.3	139	140	490	0.6	489	491	25.3	30.7
2025-07-11T14:46	10	139	0.3	138	140	491	0.9	490	493	25.4	31.2
2025-07-11T14:47	10	139	0.2	138	139	494	0.7	492	495	25.7	31.7
2025-07-11T14:48	10	139	0.2	139	140	493	0.6	492	495	25.8	32.1
2025-07-11T14:49	10	139	0.2	139	140	495	0.9	494	497	26.3	32.3
2025-07-11T14:50	10	139	0.1	138	139	495	1.0	491	496	26.6	31.1
2025-07-11T14:51	10	139	0.2	138	139	488	1.6	486	491	25.9	30.5
2025-07-11T14:52	10	138	0.2	138	139	487	0.9	486	489	26.1	30.6
2025-07-11T14:53	10	138	0.1	138	138	488	1.6	486	490	26.4	30.6
2025-07-11T14:54	10	138	0.2	137	138	487	0.9	485	489	25.8	31.4
2025-07-11T14:55	10	137	0.1	137	137	489	0.4	488	490	26.0	31.7
2025-07-11T14:56	10	137	0.1	137	137	489	0.5	488	490	25.9	31.6
2025-07-11T14:57	10	137	0.1	137	137	489	0.7	488	491	25.9	31.3
2025-07-11T14:58	10	136	0.2	136	137	489	1.1	487	491	25.7	31.5
2025-07-11T14:59	10	136	0.1	136	136	492	1.0	490	493	26.0	31.7
2025-07-11T15:00	10	136	0.1	135	136	491	0.9	489	492	26.0	31.6
2025-07-11T15:01	10	135	0.2	135	135	490	1.0	489	492	25.9	32.0
2025-07-11T15:02	10	135	0.1	134	135	487	1.4	484	490	26.0	31.9
2025-07-11T15:03	10	134	0.2	134	134	484	0.8	482	485	25.8	32.5
2025-07-11T15:04	10	134	0.2	133	134	483	0.8	481	485	25.9	32.6
2025-07-11T15:05	10	133	0.9	133	139	483	0.7	481	484	25.7	33.1
2025-07-11T15:06	10	133	0.2	132	133	482	1.2	480	484	25.7	32.6
2025-07-11T15:07	10	132	0.2	132	132	483	1.1	481	485	25.9	32.2
2025-07-11T15:08	10	132	0.1	131	132	485	0.8	484	487	25.9	32.2
2025-07-11T15:09	10	131	0.2	131	131	484	0.4	483	485	25.8	32.3
2025-07-11T15:10	10	131	0.1	131	131	483	0.9	482	485	25.8	32.3
2025-07-11T15:11	10	131	0.1	130	131	483	0.6	482	484	25.9	32.3
2025-07-11T15:12	10	130	0.2	130	130	482	0.6	481	483	26.1	32.5
2025-07-11T15:13	10	130	0.2	129	130	481	0.6	480	483	25.8	32.5
2025-07-11T15:14	10	129	0.1	129	130	484	0.9	482	485	25.9	32.7
2025-07-11T15:15	10	129	0.1	129	129	481	0.7	480	483	25.5	32.8
2025-07-11T15:16	10	129	0.2	128	129	483	0.7	482	484	25.5	33.3
2025-07-11T15:17	10	128	0.1	128	128	482	1.4	480	484	25.7	32.8
2025-07-11T15:18	10	128	0.2	127	128	481	1.0	479	483	25.7	32.7
2025-07-11T15:19	10	127	0.1	127	128	482	1.4	479	484	26.0	32.4
2025-07-11T15:20	10	127	0.1	127	127	481	0.6	480	482	25.6	32.7
2025-07-11T15:21	10	127	0.1	127	127	483	0.8	481	485	25.5	33.1
2025-07-11T15:22	10	127	0.2	126	127	484	0.6	483	486	25.6	33.1
2025-07-11T15:23	10	126	0.1	126	126	484	0.6	483	485	25.6	32.7
2025-07-11T15:24	10	126	0.1	126	126	484	0.5	483	485	25.7	32.5
2025-07-11T15:25	10	126	0.2	125	126	482	0.6	481	484	25.9	32.3
2025-07-11T15:26	10	125	0.2	125	125	481	0.6	480	483	26.1	32.2
2025-07-11T15:27	10	124	0.2	124	125	482	0.4	481	482	26.3	32.2
2025-07-11T15:28	10	124	0.1	124	124	482	0.9	480	484	26.3	32.1
2025-07-11T15:29	10	124	0.2	124	124	480	0.4	479	481	25.8	32.1
2025-07-11T15:30	10	124	0.2	123	124	480	0.7	479	481	26.0	32.4
2025-07-11T15:31	10	123	0.2	123	124	478	1.0	477	481	25.8	32.0
2025-07-11T15:32	10	123	0.2	122	123	477	0.5	476	478	25.8	32.2
2025-07-11T15:33	10	122	0.1	122	123	477	0.5	477	478	25.7	32.0
2025-07-11T15:34	10	122	0.1	122	122	479	0.6	478	480	26.0	32.3
2025-07-11T15:35	10	122	0.1	122	122	479	0.8	477	480	25.8	31.8
2025-07-11T15:36	10	122	0.1	122	122	480	0.4	479	481	25.8	31.9
2025-07-11T15:37	10	121	0.1	121	122	481	0.8	479	482	25.8	32.0
2025-07-11T15:38	10	121	0.1	121	121	481	0.2	481	482	25.8	31.3
2025-07-11T15:39	10	121	0.1	121	121	482	0.5	482	483	25.7	31.7
2025-07-11T15:40	10	120	0.2	120	121	482	0.3	481	483	25.7	31.4
2025-07-11T15:41	10	120	0.2	120	121	481	0.5	480	482	25.7	31.7
2025-07-11T15:42	10	120	0.1	119	120	481	0.5	480	482	25.8	32.4
2025-07-11T15:43	10	119	0.2	119	119	478	1.2	477	482	26.3	32.2
2025-07-11T15:44	10	119	0.2	118	119	477	1.0	475	479	26.0	32.6
2025-07-11T15:45	10	118	0.2	117	118	477	0.8	475	478	26.2	33.0
2025-07-11T15:46	10	118	0.1	117	118	479	0.5	478	480	26.4	33.0
2025-07-11T15:47	10	117	0.1	117	118	477	1.1	476	479	26.3	33.1
2025-07-11T15:48	10	117	0.2	117	117	477	0.3	477	478	25.8	32.9
2025-07-11T15:49	10	116	0.2	116	117	478	0.4	477	479	25.6	33.2
2025-07-11T15:50	10	116	0.1	116	116	478	0.6	477	479	25.8	33.4
2025-07-11T15:51	10	115	0.2	115	116	478	0.5	477	479	26.2	33.3
2025-07-11T15:52	10	115	0.1	115	115	479	0.8	477	480	26.3	32.9
2025-07-11T15:53	10	115	0.2	114	115	478	0.7	477	480	26.5	33.0
2025-07-11T15:54	10	114	0.2	113	114	477	0.9	475	478	26.3	32.6
2025-07-11T15:55	10	113	0.3	113	114	476	0.3	475	476	25.8	32.3
2025-07-11T15:56	10	113	0.2	112	113	476	0.3	475	477	25.7	32.8
2025-07-11T15:57	10	112	0.2	112	112	476	0.3	476	477	25.7	33.1
2025-07-11T15:58	10	112	0.1	111	112	477	0.4	475	477	25.8	32.8
2025-07-11T15:59	10	111	0.1	111	112	477	0.5	476	478	26.0	33.4
2025-07-11T16:00	10	111	0.2	111	111	473	1.1	471	476	25.7	32.7
2025-07-11T16:01	10	110	0.3	110	111	472	0.3	471	472	25.5	33.0
2025-07-11T16:02	10	110	0.1	109	110	472	0.3	471	472	25.7	33.0
2025-07-11T16:03	10	109	0.2	109	110	471	0.6	470	472	25.7	32.8
2025-07-11T16:04	10	108	0.2	108	109	472	1.6	470	474	26.0	32.8
2025-07-11T16:05	10	108	0.1	108	108	472	0.8	470	473	26.4	32.3
2025-07-11T16:06	10	108	0.1	108	108	471	0.4	470	472	26.5	32.5
2025-07-11T16:07	10	108	0.1	107	108	472	0.6	470	473	26.2	32.2
2025-07-11T16:08	10	107	0.1	107	108	473	0.4	472	474	26.3	32.6
2025-07-11T16:09	10	107	0.2	106	107	471	1.1	470	474	26.2	32.8
2025-07-11T16:10	10	106	0.1	106	106	472	0.6	471	473	26.3	33.4
2025-07-11T16:11	10	106	0.2	106	106	470	0.9	469	472	26.0	33.3
2025-07-11T16:12	10	106	0.1	105	106	471	0.7	469	472	26.2	33.3
2025-07-11T16:13	10	105	0.2	105	106	469	0.4	468	470	25.9	33.3
2025-07-11T16:14	10	105	0.1	105	105	469	0.6	468	471	26.0	33.3
2025-07-11T16:15	10	104	0.1	104	105	470	0.5	469	471	26.2	33.2
2025-07-11T16:16	10	104	0.1	104	104	469	0.6	468	470	26.1	33.0
2025-07-11T16:17	10	104	0.2	103	104	468	0.9	466	470	25.8	33.3
2025-07-11T16:18	10	103	0.2	103	104	469	0.4	468	470	25.9	33.2
2025-07-11T16:19	10	103	0.2	102	103	468	0.4	467	469	25.9	33.3
2025-07-11T16:20	10	102	0.2	102	102	469	0.8	467	470	26.2	33.3
2025-07-11T16:21	10	102	0.2	101	102	468	0.6	467	470	26.1	33.1
2025-07-11T16:22	10	101	0.2	101	101	469	0.3	468	469	26.0	33.4
2025-07-11T16:23	10	101	0.2	100	101	467	0.7	466	469	25.9	33.6
2025-07-11T16:24	10	100	0.2	100	100	466	0.2	465	466	25.6	34.0
2025-07-11T16:25	10	100	0.2	99	100	465	0.5	463	466	25.7	34.4
2025-07-11T16:26	10	99	0.2	98	99	464	0.4	463	464	25.8	34.0
2025-07-11T16:27	10	98	0.1	98	99	465	0.8	464	467	25.7	34.4
2025-07-11T16:28	10	98	0.1	98	98	466	0.4	465	466	25.8	34.0
2025-07-11T16:29	10	98	0.2	97	98	465	0.6	464	466	25.8	33.6
2025-07-11T16:30	10	97	0.2	96	97	464	0.3	463	464	25.6	34.1
2025-07-11T16:31	10	96	0.2	96	97	464	0.5	463	465	25.7	34.0
2025-07-11T16:32	10	96	0.2	95	96	462	0.8	461	464	25.7	33.8
2025-07-11T16:33	10	95	0.2	95	96	461	0.4	460	462	25.6	33.8
2025-07-11T16:34	10	95	0.1	95	95	461	0.4	460	462	25.7	33.7
2025-07-11T16:35	10	95	0.2	94	95	462	0.3	461	463	25.7	34.0
2025-07-11T16:36	10	94	0.1	94	94	462	0.4	461	463	25.8	34.1
2025-07-11T16:37	10	94	0.2	93	94	462	0.6	461	463	25.8	34.1
2025-07-11T16:38	10	93	0.1	93	93	464	0.9	463	466	25.9	34.4
2025-07-11T16:39	10	93	0.2	92	93	465	0.6	464	466	26.0	34.5
2025-07-11T16:40	10	92	0.3	92	93	463	1.1	461	465	25.8	34.0
2025-07-11T16:41	10	92	0.1	91	92	461	0.4	460	462	25.4	33.8
2025-07-11T16:42	10	91	0.2	91	92	462	0.6	461	463	25.6	34.1
2025-07-11T16:43	10	91	0.2	90	91	461	0.4	460	461	25.6	33.8
2025-07-11T16:44	10	90	0.2	90	90	461	0.5	460	462	25.7	33.7
2025-07-11T16:45	10	90	0.2	89	90	460	0.3	460	461	25.7	33.4
2025-07-11T16:46	10	89	0.2	89	89	460	0.4	459	461	25.8	33.4
2025-07-11T16:47	10	88	0.2	88	89	459	0.4	459	460	25.6	33.7
2025-07-11T16:48	10	88	0.2	87	88	460	0.3	459	461	25.8	33.9
2025-07-11T16:49	10	87	0.1	87	88	459	0.4	458	460	25.8	33.7
2025-07-11T16:50	10	87	0.1	87	87	458	0.5	457	459	25.6	33.8
2025-07-11T16:51	10	87	0.1	86	87	459	0.3	458	459	25.9	34.2
2025-07-11T16:52	10	86	0.2	86	87	458	0.3	458	459	25.8	34.2
2025-07-11T16:53	10	86	0.2	85	86	459	0.6	458	460	25.7	34.1
2025-07-11T16:54	10	85	0.2	85	85	459	0.3	459	460	26.0	34.1
2025-07-11T16:55	10	85	0.1	84	85	459	0.2	458	459	25.9	34.3
2025-07-11T16:56	10	84	0.1	84	84	459	0.3	458	459	25.9	34.4
2025-07-11T16:57	10	84	0.1	84	84	459	0.4	458	460	25.9	34.8
2025-07-11T16:58	10	84	0.2	83	84	457	0.5	456	458	25.5	34.7
2025-07-11T16:59	10	83	0.2	82	83	456	0.4	455	457	25.5	34.8
2025-07-11T17:00	10	82	0.3	82	83	455	0.4	454	456	25.4	34.9
2025-07-11T17:01	10	81	0.2	81	82	455	0.5	454	456	25.4	35.0
2025-07-11T17:02	10	81	0.2	80	81	454	0.3	454	455	25.5	35.2
2025-07-11T17:03	10	80	0.2	80	80	454	0.3	454	455	25.4	35.0
2025-07-11T17:04	10	79	0.2	79	80	453	0.5	452	454	25.3	34.8
2025-07-11T17:05	10	79	0.2	78	79	452	0.4	451	453	25.3	35.1
2025-07-11T17:06	10	78	0.2	78	78	452	0.4	451	453	25.3	35.2
2025-07-11T17:07	10	77	0.1	77	78	452	0.5	452	453	25.4	35.3
2025-07-11T17:08	10	77	0.1	77	77	452	0.4	451	453	25.5	35.0
2025-07-11T17:09	10	77	0.1	77	77	452	0.7	450	453	25.4	34.8
2025-07-11T17:10	10	76	0.2	76	77	451	0.3	450	452	25.3	35.1
2025-07-11T17:11	10	76	0.2	76	76	451	0.2	450	452	25.4	35.4
2025-07-11T17:12	10	75	0.1	75	76	451	0.3	451	452	25.4	35.6
2025-07-11T17:13	10	75	0.2	75	75	452	0.3	452	453	25.4	35.7
2025-07-11T17:14	10	74	0.1	74	75	452	0.2	452	453	25.5	35.6
2025-07-11T17:15	10	74	0.1	74	74	453	0.4	452	453	25.6	35.8
2025-07-11T17:16	10	73	0.1	73	74	451	0.3	450	452	25.4	35.8
2025-07-11T17:17	10	73	0.2	73	73	451	0.2	450	451	25.3	36.1
2025-07-11T17:18	10	72	0.2	72	73	450	0.5	449	451	25.3	36.1
2025-07-11T17:19	10	72	0.2	71	72	449	0.5	448	450	25.2	36.0
2025-07-11T17:20	10	71	0.2	71	71	449	0.3	448	450	25.1	35.8
2025-07-11T17:21	10	71	0.2	70	71	448	0.4	447	449	25.1	35.6
2025-07-11T17:22	10	70	0.2	70	70	448	0.3	448	449	25.1	36.0
2025-07-11T17:23	10	69	0.2	69	70	449	0.2	448	449	25.2	35.8
2025-07-11T17:24	10	69	0.1	69	69	448	0.3	448	449	25.2	35.7
2025-07-11T17:25	10	68	0.3	68	69	448	0.4	448	449	25.2	36.0
2025-07-11T17:26	10	68	0.2	68	68	448	0.4	448	449	25.3	36.5
2025-07-11T17:27	10	67	0.2	67	68	448	0.2	448	449	25.2	36.5
2025-07-11T17:28	10	67	0.2	66	67	448	0.3	447	449	25.3	36.5
2025-07-11T17:29	10	66	0.1	66	66	448	0.3	447	448	25.3	36.2
2025-07-11T17:30	10	66	0.1	66	66	447	0.4	447	448	25.4	37.0
2025-07-11T17:31	10	65	0.2	65	66	447	0.2	447	448	25.3	36.3
2025-07-11T17:32	10	65	0.2	64	65	447	0.2	447	448	25.3	36.4
2025-07-11T17:33	10	64	0.2	64	64	447	0.6	446	448	25.3	36.5
2025-07-11T17:34	10	63	0.3	63	64	445	0.2	445	446	25.2	36.0
2025-07-11T17:35	10	62	0.3	62	63	445	0.2	445	446	25.3	36.6
2025-07-11T17:36	10	62	0.3	61	62	445	0.4	445	446	25.3	36.5
2025-07-11T17:37	10	61	0.1	61	61	444	0.2	444	445	25.2	36.5
2025-07-11T17:38	10	60	0.2	60	61	443	0.3	443	444	25.1	36.1
2025-07-11T17:39	10	60	0.2	59	60	443	0.3	443	444	25.1	36.1
2025-07-11T17:40	10	59	0.2	59	60	443	0.2	442	443	25.0	36.2
2025-07-11T17:41	10	59	0.2	58	59	442	0.3	442	443	25.0	36.1
2025-07-11T17:42	10	58	0.2	58	58	442	0.2	442	442	25.0	36.4
2025-07-11T17:43	10	57	0.2	57	58	442	0.3	441	442	24.9	36.3
2025-07-11T17:44	10	57	0.2	56	57	441	0.3	441	442	24.9	36.4
2025-07-11T17:45	10	56	0.1	56	57	441	0.2	440	441	24.9	36.3
2025-07-11T17:46	10	56	0.2	55	56	441	0.2	440	441	24.9	36.3
2025-07-11T17:47	10	55	0.2	55	55	441	0.3	441	442	25.0	36.8
2025-07-11T17:48	10	54	0.2	54	55	441	0.2	440	441	25.0	36.1
2025-07-11T17:49	10	54	0.2	53	54	440	0.2	440	441	25.0	36.3
2025-07-11T17:50	10	53	0.2	53	54	440	0.2	440	441	25.0	36.5
2025-07-11T17:51	10	53	0.3	52	53	440	0.2	439	440	24.9	37.0
2025-07-11T17:52	10	52	0.2	51	52	439	0.2	439	440	25.0	37.1
2025-07-11T17:53	10	51	0.2	51	52	439	0.3	439	440	25.0	37.3
2025-07-11T17:54	10	51	0.2	50	51	439	0.2	438	439	25.0	36.8
2025-07-11T17:55	10	50	0.2	50	50	439	0.2	438	439	25.0	36.8
2025-07-11T17:56	10	49	0.2	49	50	438	0.3	438	439	25.0	37.2
2025-07-11T17:57	10	49	0.2	48	49	438	0.3	437	438	25.0	37.4
2025-07-11T17:58	10	48	0.2	48	48	437	0.2	437	438	24.9	37.2
2025-07-11T17:59	10	48	0.2	47	48	437	0.2	436	437	24.8	37.2
2025-07-11T18:00	10	47	0.2	46	47	436	0.2	436	437	24.8	37.3
2025-07-11T18:01	10	46	0.2	46	47	436	0.3	435	437	24.8	37.1
2025-07-11T18:02	10	46	0.2	45	46	435	0.2	435	436	24.8	37.3
2025-07-11T18:03	10	45	0.2	45	45	435	0.3	435	436	24.8	36.7
2025-07-11T18:04	10	44	0.2	44	45	435	0.2	434	435	24.8	36.7
2025-07-11T18:05	10	43	0.2	43	44	435	0.2	434	435	24.7	36.8
2025-07-11T18:06	10	43	0.2	42	43	434	0.2	434	435	24.7	36.7
2025-07-11T18:07	10	42	0.2	42	42	434	0.2	433	434	24.7	36.8
2025-07-11T18:08	10	41	0.2	41	42	433	0.2	433	434	24.7	37.1
2025-07-11T18:09	10	41	0.2	40	41	433	0.2	433	434	24.7	37.2
2025-07-11T18:10	10	40	0.2	40	40	433	0.2	432	433	24.7	37.6
2025-07-11T18:11	10	40	0.2	39	40	433	0.3	432	434	24.7	37.8
2025-07-11T18:12	10	39	0.2	38	39	433	0.4	432	434	24.7	37.2
2025-07-11T18:13	10	38	0.2	38	39	433	0.2	432	434	24.8	36.9
2025-07-11T18:14	10	37	0.2	37	38	432	0.3	431	433	24.8	37.2
2025-07-11T18:15	10	37	0.2	37	37	432	0.2	431	432	24.7	37.7
2025-07-11T18:16	10	36	0.2	36	37	431	0.3	431	432	24.7	38.0
2025-07-11T18:17	10	36	0.3	35	37	431	0.3	430	432	24.7	37.6
2025-07-11T18:18	10	35	0.3	34	36	431	0.4	430	432	24.7	37.2
2025-07-11T18:19	10	34	0.2	34	35	431	0.3	430	431	24.6	37.7
2025-07-11T18:20	10	33	0.2	33	34	430	0.4	429	430	24.6	38.1
2025-07-11T18:21	10	33	0.2	32	33	429	0.2	429	430	24.5	38.3
2025-07-11T18:22	10	32	0.3	31	33	430	0.3	429	430	24.5	37.6
2025-07-11T18:23	10	31	0.3	31	32	429	0.4	428	430	24.5	37.8
2025-07-11T18:24	10	31	0.2	30	31	429	0.3	429	430	24.6	37.9
2025-07-11T18:25	10	30	0.3	29	30	429	0.4	428	429	24.5	38.2
2025-07-11T18:26	10	29	0.2	29	30	428	0.2	428	428	24.4	38.4
2025-07-11T18:27	10	29	0.3	28	29	427	0.4	427	428	24.3	38.9
2025-07-11T18:28	10	28	0.3	28	29	427	0.2	426	427	24.3	39.2
2025-07-11T18:29	10	27	0.3	27	28	427	0.3	426	427	24.3	39.3
2025-07-11T18:30	10	27	0.2	26	27	427	0.4	426	428	24.4	38.9
2025-07-11T18:31	10	26	0.2	26	27	426	0.3	425	427	24.3	39.3
2025-07-11T18:32	10	25	0.3	25	26	426	0.2	426	427	24.3	39.0
2025-07-11T18:33	10	25	0.3	24	26	426	0.3	425	426	24.3	39.4
2025-07-11T18:34	10	24	0.2	24	25	425	0.3	425	426	24.3	39.4
2025-07-11T18:35	10	24	0.2	23	24	425	0.2	424	425	24.2	39.8
2025-07-11T18:36	10	23	0.3	22	23	424	0.4	423	425	24.1	40.0
2025-07-11T18:37	10	22	0.3	21	23	424	0.3	424	425	24.2	39.9
2025-07-11T18:38	10	21	0.3	21	23	424	0.3	423	424	24.1	40.3
2025-07-11T18:39	10	21	0.3	20	22	423	0.3	423	424	24.1	40.2
2025-07-11T18:40	10	20	0.3	19	20	423	0.4	422	424	24.0	40.3
2025-07-11T18:41	10	19	0.3	19	20	423	0.4	422	423	24.0	40.5
2025-07-11T18:42	10	19	0.3	18	20	422	0.4	421	423	23.9	40.8
2025-07-11T18:43	10	18	0.2	18	19	422	0.2	421	422	23.9	40.8
2025-07-11T18:44	10	17	0.2	17	18	421	0.3	421	422	23.9	40.8
2025-07-11T18:45	10	17	0.2	16	17	421	0.2	421	422	23.9	40.6
2025-07-11T18:46	10	16	0.2	16	16	421	0.3	421	422	23.9	40.5
2025-07-11T18:47	10	16	0.2	15	16	421	0.2	421	422	23.9	40.5
2025-07-11T18:48	10	15	0.2	15	15	420	0.3	420	421	23.8	41.0
2025-07-11T18:49	10	14	0.2	14	15	420	0.2	420	421	23.8	40.8
2025-07-11T18:50	10	14	0.2	13	14	420	0.3	419	421	23.7	40.8
2025-07-11T18:51	10	13	0.2	13	13	419	0.3	419	420	23.7	40.9
2025-07-11T18:52	10	12	0.3	12	13	420	0.4	419	420	23.7	40.8
2025-07-11T18:53	10	12	0.2	11	12	419	0.3	418	419	23.7	40.9
2025-07-11T18:54	10	11	0.2	10	11	418	0.3	417	419	23.6	41.0
2025-07-11T18:55	10	10	0.3	9	10	418	0.3	417	418	23.6	41.1
2025-07-11T18:56	10	9	0.3	8	9	418	0.3	417	419	23.6	41.1
2025-07-11T18:57	10	8	0.2	8	9	417	0.4	417	418	23.5	41.4
2025-07-11T18:58	10	7	0.2	7	8	416	0.4	415	417	23.5	41.4
2025-07-11T18:59	10	7	0.2	6	7	416	0.3	415	417	23.5	41.6
2025-07-11T19:00	10	6	0.2	6	7	415	0.2	415	416	23.5	41.6
2025-07-11T19:01	10	6	0.2	5	6	415	0.2	414	415	23.4	42.0
2025-07-11T19:02	10	5	0.2	5	6	414	0.2	413	414	23.3	42.2
2025-07-11T19:03	10	5	0.2	4	5	414	0.2	413	414	23.3	42.3
2025-07-11T19:04	10	4	0.3	4	5	413	0.5	412	414	23.2	42.5
2025-07-11T19:05	10	3	0.3	3	4	412	0.3	411	412	23.1	42.9
2025-07-11T19:06	10	3	0.2	2	3	411	0.5	410	412	23.0	43.2
2025-07-11T19:07	10	2	0.1	2	3	411	0.6	410	412	23.1	42.5
2025-07-11T19:08	10	2	0.1	2	3	411	0.4	410	412	23.1	42.5
2025-07-11T19:09	10	2	0.1	2	2	410	0.3	409	410	23.0	42.9
2025-07-11T19:10	10	2	0.1	2	2	411	0.4	410	412	23.0	42.4
2025-07-11T19:11	10	2	0.1	2	2	411	0.3	411	412	22.9	42.8
2025-07-11T19:12	10	2	0.1	2	2	411	0.7	411	413	22.9	42.8
2025-07-11T19:13	10	2	0.1	2	2	413	0.3	412	413	22.9	42.3
2025-07-11T19:14	10	2	0.1	2	2	412	0.4	411	412	22.9	42.5
2025-07-11T19:15	10	2	0.1	1	2	411	0.3	410	411	22.8	42.9
2025-07-11T19:16	10	2	0.1	1	2	410	0.3	410	411	22.8	42.6
2025-07-11T19:17	10	2	0.1	1	2	410	0.3	409	411	22.8	43.0
2025-07-11T19:18	10	1	0.1	1	2	410	0.3	409	411	22.7	43.0
2025-07-11T19:19	10	1	0.1	1	2	410	0.4	409	411	22.7	43.1
2025-07-11T19:20	10	1	0.1	1	2	410	0.3	409	410	22.7	43.4
2025-07-11T19:21	10	1	0.1	1	2	409	0.2	408	409	22.6	43.5
2025-07-11T19:22	10	1	0.2	1	2	409	0.4	408	410	22.7	43.5
2025-07-11T19:23	10	1	0.2	1	2	408	0.4	407	409	22.6	43.6
2025-07-11T19:24	10	1	0.2	1	1	408	0.3	408	409	22.7	43.6
2025-07-11T19:25	10	1	0.2	1	1	408	0.3	408	409	22.5	44.1
2025-07-11T19:26	10	1	0.2	0	1	409	0.7	407	410	22.6	43.9
2025-07-11T19:27	10	1	0.1	1	1	409	0.2	408	409	22.5	44.3
2025-07-11T19:28	10	1	0.1	0	1	409	0.2	408	409	22.4	44.7
2025-07-11T19:29	10	1	0.1	0	1	409	0.3	408	409	22.3	45.0
2025-07-11T19:30	10	1	0.1	0	1	409	0.4	408	410	22.4	44.7
2025-07-11T19:31	10	1	0.1	1	1	408	0.3	407	409	22.4	44.8
2025-07-11T19:32	10	1	0.1	0	1	408	0.3	407	409	22.3	45.1
2025-07-11T19:33	10	0	0.1	0	1	409	0.3	408	409	22.3	45.1
2025-07-11T19:34	10	0	0.1	0	1	408	0.4	407	409	22.4	45.0
2025-07-11T19:35	10	0	0.1	0	1	408	0.4	407	409	22.3	45.3
2025-07-11T19:36	10	0	0.1	0	1	408	0.3	408	409	22.2	45.7
2025-07-11T19:37	10	0	0.1	0	1	407	0.2	407	408	22.2	45.9
2025-07-11T19:38	10	0	0.7	0	6	407	0.3	406	407	22.1	46.2
2025-07-11T19:39	10	0	0.6	0	5	406	0.3	405	407	22.1	46.4
2025-07-11T19:40	10	0	0.1	0	1	406	0.3	405	406	22.0	46.6
2025-07-11T19:41	10	0	0.1	0	1	405	0.5	404	406	22.0	46.9
2025-07-11T19:42	10	0	0.1	0	0	404	0.3	404	405	22.0	47.0
2025-07-11T19:43	10	0	0.1	0	0	404	0.3	404	405	22.0	47.0
2025-07-11T19:44	10	0	0.1	0	0	404	0.3	404	405	22.0	46.9
2025-07-11T19:45	10	0	0.1	0	0	405	0.5	404	406	22.0	47.1
2025-07-11T19:46	10	0	0.1	0	1	406	0.3	406	407	22.0	47.4
2025-07-11T19:47	10	0	0.1	0	0	406	0.5	405	407	22.0	47.2
2025-07-11T19:48	10	0	0.1	0	0	405	0.5	404	406	22.0	47.6
2025-07-11T19:49	10	0	0.1	0	0	406	0.4	405	406	21.9	47.7
2025-07-11T19:50	10	0	0.1	0	0	406	0.3	405	406	22.0	47.6
2025-07-11T19:51	10	0	0.1	0	0	405	0.3	404	406	21.9	47.8
2025-07-11T19:52	10	0	0.1	0	0	405	0.3	404	405	21.8	48.2
2025-07-11T19:53	10	0	0.1	0	0	404	0.3	403	405	21.8	48.3
2025-07-11T19:54	10	0	0.1	0	0	406	0.6	404	406	21.9	48.1
2025-07-11T19:55	10	0	0.1	0	0	406	0.5	405	407	21.9	48.3
2025-07-11T19:56	10	0	0.1	0	0	406	0.4	405	407	21.8	48.6
2025-07-11T19:57	10	0	0.1	0	0	406	0.2	406	406	21.8	48.3
2025-07-11T19:58	10	0	0.1	0	0	406	0.3	405	406	21.8	48.6
2025-07-11T19:59	10	0	0.1	0	0	405	0.5	405	407	21.7	48.9
2025-07-11T20:00	10	0	0.1	0	0	405	0.3	405	406	21.7	48.7
2025-07-11T20:01	10	0	0.2	0	0	406	0.4	405	407	21.7	48.9
2025-07-11T20:02	10	0	0.2	0	0	405	0.6	404	407	21.5	49.5
2025-07-11T20:03	10	0	0.2	0	0	404	0.3	404	405	21.5	49.5
2025-07-11T20:04	10	0	0.2	0	0	404	0.8	402	406	21.6	49.4
2025-07-11T20:05	10	0	0.2	0	1	403	0.3	402	404	21.4	50.1
2025-07-11T20:06	10	0	0.1	0	1	403	0.4	402	404	21.3	50.3
2025-07-11T20:07	10	0	0.1	0	0	402	0.5	401	402	21.2	50.9
2025-07-11T20:08	10	0	0.2	0	0	401	0.2	400	402	21.1	51.0
2025-07-11T20:09	10	0	0.1	0	0	401	0.2	400	401	21.1	51.2
2025-07-11T20:10	10	0	0.1	0	0	400	0.2	400	401	21.1	51.0
2025-07-11T20:11	10	0	0.1	0	0	400	0.2	400	401	21.1	51.0
2025-07-11T20:12	10	0	0.1	0	0	399	0.2	399	400	21.0	51.1
2025-07-11T20:13	10	0	0.1	0	0	399	0.3	398	400	21.0	51.2
2025-07-11T20:14	10	0	0.1	0	0	398	0.2	398	399	21.0	51.3
2025-07-11T20:15	10	0	0.1	0	0	398	0.3	397	398	20.9	51.4
2025-07-11T20:16	10	0	0.1	0	0	397	0.3	397	398	20.9	51.7
2025-07-11T20:17	10	0	0.1	0	0	397	0.3	396	397	20.9	51.2
2025-07-11T20:18	10	0	0.1	0	0	397	0.2	396	397	20.9	51.2
2025-07-11T20:19	10	0	0.1	0	0	397	0.3	396	397	20.9	51.5
2025-07-11T20:20	10	0	0.1	0	0	397	0.3	396	398	20.8	51.6
2025-07-11T20:21	10	0	0.1	0	0	397	0.3	397	398	20.9	51.4
2025-07-11T20:22	10	0	0.1	0	0	397	0.2	397	398	20.9	51.4
2025-07-11T20:23	10	0	0.1	0	0	397	0.3	397	398	20.8	51.7
2025-07-11T20:24	10	0	0.1	0	0	397	0.2	397	398	20.8	51.8
2025-07-11T20:25	10	0	0.1	0	0	397	0.3	397	398	20.9	51.6
2025-07-11T20:26	10	0	0.1	0	0	398	0.2	397	398	20.8	51.6
2025-07-11T20:27	10	0	0.1	0	0	397	0.3	396	398	20.9	51.6
2025-07-11T20:28	10	0	0.1	0	0	398	0.5	397	399	20.8	51.8
2025-07-11T20:29	10	0	0.1	0	0	398	0.2	398	399	20.9	51.7
2025-07-11T20:30	10	0	0.1	0	0	398	0.3	397	398	20.8	51.8
2025-07-11T20:31	10	0	0.1	0	0	397	0.3	396	398	20.8	52.0
2025-07-11T20:32	10	0	0.1	0	0	397	0.5	397	399	20.8	51.8
2025-07-11T20:33	10	0	0.1	0	0	398	0.3	397	398	20.9	51.6
2025-07-11T20:34	10	0	0.1	0	0	398	0.2	398	399	20.9	51.5
2025-07-11T20:35	10	0	0.1	0	0	398	0.3	397	399	20.9	51.6
2025-07-11T20:36	10	0	0.1	0	0	398	0.3	398	399	20.8	51.7
2025-07-11T20:37	10	0	0.1	0	0	397	0.2	397	398	20.8	51.9
2025-07-11T20:38	10	0	0.1	0	0	397	0.2	397	398	20.7	52.1
2025-07-11T20:39	10	0	0.1	0	0	397	0.3	397	398	20.7	52.2
2025-07-11T20:40	10	0	0.1	0	0	397	0.3	396	397	20.7	52.2
2025-07-11T20:41	10	0	0.1	0	0	396	0.3	396	397	20.6	52.4
2025-07-11T20:42	10	0	0.1	0	0	397	0.4	396	398	20.7	52.2
2025-07-11T20:43	10	0	0.1	0	0	397	0.3	396	397	20.6	52.4
2025-07-11T20:44	10	0	0.1	0	0	396	0.2	396	397	20.6	52.3
2025-07-11T20:45	10	0	0.1	0	0	396	0.3	396	397	20.6	52.3
2025-07-11T20:46	10	0	0.1	0	0	396	0.3	395	396	20.5	52.6
2025-07-11T20:47	10	0	0.1	0	0	395	0.2	395	396	20.5	52.8
2025-07-11T20:48	10	0	0.1	0	0	395	0.2	395	396	20.5	52.9
2025-07-11T20:49	10	0	0.2	0	1	395	0.3	394	395	20.5	52.8
2025-07-11T20:50	10	0	0.1	0	0	394	0.3	394	395	20.5	52.6
2025-07-11T20:51	10	0	0.2	0	0	394	0.3	393	394	20.4	53.0
2025-07-11T20:52	10	0	0.2	0	0	393	0.3	393	394	20.5	52.7
2025-07-11T20:53	10	0	0.1	0	0	393	0.3	392	393	20.5	52.8
2025-07-11T20:54	10	0	0.2	-1	0	392	0.3	392	393	20.4	53.1
2025-07-11T20:55	10	0	0.1	0	1	393	0.2	392	393	20.4	53.5
2025-07-11T20:56	10	0	0.2	0	0	393	0.3	392	393	20.4	53.4
2025-07-11T20:57	10	0	0.2	0	0	392	0.4	391	393	20.4	53.4
2025-07-11T20:58	10	0	0.2	0	0	391	0.2	391	392	20.3	53.5
2025-07-11T20:59	10	0	0.2	0	1	391	0.2	390	391	20.3	53.9
2025-07-11T21:00	10	0	0.1	0	0	391	0.3	390	391	20.2	54.2
2025-07-11T21:01	10	0	0.2	0	0	390	0.3	390	391	20.2	54.0
2025-07-11T21:02	10	0	0.2	0	0	390	0.2	390	391	20.2	54.3
2025-07-11T21:03	10	0	0.2	0	1	390	0.2	390	391	20.3	53.5
2025-07-11T21:04	10	0	0.1	0	0	390	0.3	389	391	20.3	53.7
2025-07-11T21:05	10	0	0.1	0	0	389	0.2	389	390	20.1	54.1
2025-07-11T21:06	10	0	0.1	0	0	389	0.3	388	390	20.1	54.0
2025-07-11T21:07	10	0	0.1	0	0	389	0.2	388	389	20.1	53.9
2025-07-11T21:08	10	0	0.1	0	0	388	0.3	388	389	20.3	53.4
2025-07-11T21:09	10	0	0.1	0	0	388	0.2	388	389	20.2	53.7
2025-07-11T21:10	10	0	0.1	0	0	388	0.3	388	389	20.2	53.7
2025-07-11T21:11	10	0	0.1	0	0	388	0.2	388	389	20.1	54.1
2025-07-11T21:12	10	0	0.1	0	0	388	0.2	388	389	20.1	54.1
2025-07-11T21:13	10	0	0.1	0	0	388	0.2	387	388	20.1	54.1
2025-07-11T21:14	10	0	0.1	0	0	388	0.2	387	388	20.0	54.5
2025-07-11T21:15	10	0	0.1	0	0	387	0.3	387	388	20.0	54.4
2025-07-11T21:16	10	0	0.1	0	0	387	0.3	387	388	19.9	54.6
2025-07-11T21:17	10	0	0.1	0	0	388	0.3	387	389	20.0	54.0
2025-07-11T21:18	10	0	0.1	0	0	388	0.3	388	389	20.1	54.0
2025-07-11T21:19	10	0	0.1	0	0	388	0.3	387	389	20.0	54.2
2025-07-11T21:20	10	0	0.1	0	0	388	0.3	388	389	20.0	54.1
2025-07-11T21:21	10	0	0.1	0	0	388	0.3	387	388	20.0	54.0
2025-07-11T21:22	10	0	0.1	0	0	387	0.3	386	388	19.9	54.5
2025-07-11T21:23	10	0	0.1	0	0	387	0.4	386	388	19.9	54.6
2025-07-11T21:24	10	0	0.1	0	0	386	0.3	386	387	19.9	54.5
2025-07-11T21:25	10	0	0.1	0	0	386	0.3	385	387	19.9	54.6
2025-07-11T21:26	10	0	0.1	0	0	386	0.2	385	386	19.8	54.9
2025-07-11T21:27	10	0	0.1	0	0	386	0.2	385	386	19.8	55.0
2025-07-11T21:28	10	0	0.1	0	0	385	0.3	385	386	19.7	55.4
2025-07-11T21:29	10	0	0.1	0	0	385	0.3	384	386	19.7	55.5
2025-07-11T21:30	10	0	0.1	0	0	385	0.2	384	385	19.6	55.6
2025-07-11T21:31	10	0	0.1	0	0	385	0.3	384	386	19.7	55.5
2025-07-11T21:32	10	0	0.1	0	0	385	0.3	384	386	19.7	55.5
2025-07-11T21:33	10	0	0.1	0	0	385	0.2	384	385	19.6	55.7
2025-07-11T21:34	10	0	0.1	0	0	385	0.3	384	385	19.5	55.9
2025-07-11T21:35	10	0	0.1	0	0	385	0.3	385	386	19.6	55.7
2025-07-11T21:36	10	0	0.1	0	0	386	0.4	385	387	19.6	55.4
2025-07-11T21:37	10	0	0.1	0	0	386	0.2	386	387	19.7	55.1
2025-07-11T21:38	10	0	0.1	0	0	387	0.3	386	387	19.8	54.9
2025-07-11T21:39	10	0	0.1	0	0	387	0.2	386	387	19.8	54.8
2025-07-11T21:40	10	0	0.1	0	0	386	0.2	386	387	19.8	55.1
2025-07-11T21:41	10	0	0.1	0	0	386	0.2	386	387	19.6	55.9
2025-07-11T21:42	10	0	0.1	0	0	386	0.2	386	387	19.5	56.6
2025-07-11T21:43	10	0	0.1	0	0	386	0.3	386	387	19.4	57.0
2025-07-11T21:44	10	0	0.1	0	0	387	0.3	386	388	19.4	57.0
2025-07-11T21:45	10	0	0.1	0	0	388	0.4	387	388	19.3	57.1
2025-07-11T21:46	10	0	0.1	0	0	388	0.3	387	389	19.3	57.1
2025-07-11T21:47	10	0	0.1	0	0	389	0.3	388	389	19.4	56.8
2025-07-11T21:48	10	0	0.1	0	0	388	0.4	388	389	19.3	56.9
2025-07-11T21:49	10	0	0.0	0	0	389	0.3	389	390	19.3	57.3
2025-07-11T21:50	10	0	0.1	0	0	389	0.3	389	390	19.2	57.4
2025-07-11T21:51	10	0	0.1	0	0	389	0.2	389	390	19.2	57.6
2025-07-11T21:52	10	0	0.1	0	0	389	0.3	388	389	19.1	57.8
2025-07-11T21:53	10	0	0.1	0	0	389	0.6	388	390	19.2	57.3
2025-07-11T21:54	10	0	0.1	0	0	390	0.3	389	390	19.3	57.0
2025-07-11T21:55	10	0	0.1	0	0	390	0.4	389	391	19.3	57.0
2025-07-11T21:56	10	0	0.1	0	0	390	0.3	390	391	19.4	56.4
2025-07-11T21:57	10	0	0.1	0	0	390	0.2	389	390	19.4	56.7
2025-07-11T21:58	10	0	0.1	0	0	390	0.3	389	391	19.4	56.3
2025-07-11T21:59	10	0	0.1	0	0	391	0.2	390	391	19.5	56.3
2025-07-11T22:00	10	0	0.1	0	0	391	0.3	390	392	19.7	55.3
2025-07-11T22:01	10	0	0.0	0	0	391	0.2	391	392	19.6	55.4
2025-07-11T22:02	10	0	0.1	0	0	391	0.3	390	391	19.5	55.8
2025-07-11T22:03	10	0	0.0	0	0	390	0.3	390	391	19.5	56.2
2025-07-11T22:04	10	0	0.1	0	0	390	0.2	389	390	19.5	56.2
2025-07-11T22:05	10	0	0.1	0	0	389	0.4	388	390	19.4	56.2
2025-07-11T22:06	10	0	0.1	0	0	388	0.3	387	389	19.3	56.7
2025-07-11T22:07	10	0	0.1	0	0	388	0.2	387	388	19.2	57.1
2025-07-11T22:08	10	0	0.1	0	0	387	0.3	386	388	19.2	57.4
2025-07-11T22:09	10	0	0.1	0	0	387	0.2	386	388	19.1	57.7
2025-07-11T22:10	10	0	0.1	0	0	387	0.3	386	387	19.1	57.7
2025-07-11T22:11	10	0	0.1	0	0	385	0.4	384	386	19.0	58.3
2025-07-11T22:12	10	0	0.2	0	1	385	0.4	384	386	18.8	59.4
2025-07-11T22:13	10	0	0.2	0	0	384	0.6	383	385	18.8	59.2
2025-07-11T22:14	10	0	0.2	-1	1	384	0.3	383	385	18.9	58.5
2025-07-11T22:15	10	0	0.2	0	0	383	0.3	382	384	19.0	58.3
2025-07-11T22:16	10	0	0.1	0	0	383	0.3	382	384	18.7	59.7
2025-07-11T22:17	10	0	0.1	0	0	383	0.3	382	383	18.6	60.2
2025-07-11T22:18	10	0	0.2	0	1	383	0.3	382	383	18.5	60.6
2025-07-11T22:19	10	0	0.2	-1	0	383	0.3	382	383	18.4	60.6
2025-07-11T22:20	10	0	0.2	-1	0	383	0.4	382	384	18.4	60.6
2025-07-11T22:21	10	0	0.1	0	0	383	0.4	382	384	18.4	60.6
2025-07-11T22:22	10	0	0.2	0	0	383	0.4	382	384	18.4	57.6
2025-07-11T22:23	10	0	0.2	-1	1	383	0.4	382	384	18.4	60.6
2025-07-11T22:24	10	0	0.2	0	0	383	0.3	382	384	18.4	60.6
2025-07-11T22:25	10	0	0.2	0	0	382	0.4	381	383	18.4	60.6
2025-07-11T22:26	10	0	0.1	0	0	382	0.2	382	383	18.4	60.6
2025-07-11T22:27	10	0	0.1	-1	0	381	1.0	379	382	18.9	59.1
2025-07-11T22:28	10	0	0.1	0	0	381	0.5	380	382	18.3	61.3
2025-07-11T22:29	10	0	0.1	0	0	380	0.2	379	380	18.2	62.1
2025-07-11T22:30	10	0	0.1	0	0	380	0.2	379	380	18.0	63.0
2025-07-11T22:31	10	0	0.1	0	0	380	0.3	379	380	17.9	63.0
2025-07-11T22:32	10	0	0.1	0	0	379	0.3	379	380	18.0	62.8
2025-07-11T22:33	10	0	0.1	0	0	379	0.3	379	380	18.0	62.7
2025-07-11T22:34	10	0	0.1	0	0	380	0.5	378	380	18.3	61.6
2025-07-11T22:35	10	0	0.1	0	0	379	0.3	378	379	18.5	60.8
2025-07-11T22:36	10	0	0.1	0	0	378	0.3	378	379	18.4	61.0
2025-07-11T22:37	10	0	0.1	0	0	378	0.2	378	378	18.4	61.1
2025-07-11T22:38	10	0	0.1	0	0	377	0.3	377	378	18.3	61.6
2025-07-11T22:39	10	0	0.1	0	0	377	0.4	376	378	18.2	61.9
2025-07-11T22:40	10	0	0.1	0	0	378	0.3	377	378	18.4	60.9
2025-07-11T22:41	10	0	0.1	0	0	378	0.3	377	378	18.6	60.5
2025-07-11T22:42	10	0	0.1	0	0	377	0.3	377	378	18.5	60.7
2025-07-11T22:43	10	0	0.1	0	0	377	0.2	376	377	18.4	61.3
2025-07-11T22:44	10	0	0.1	0	0	377	0.2	376	378	18.2	63.2
2025-07-11T22:45	10	0	0.1	0	0	377	0.3	377	378	18.0	65.3
2025-07-11T22:46	10	0	0.1	0	0	377	0.3	377	378	18.1	65.7
2025-07-11T22:47	10	0	0.1	0	0	377	0.3	377	378	18.2	65.3
2025-07-11T22:48	10	0	0.1	0	0	378	0.3	377	378	18.2	64.5
2025-07-11T22:49	10	0	0.1	0	0	378	0.2	377	378	18.2	65.0
2025-07-11T22:50	10	0	0.1	0	0	378	0.2	377	379	18.2	64.8
2025-07-11T22:51	10	0	0.1	0	0	378	0.2	378	379	18.1	65.3
2025-07-11T22:52	10	0	0.1	0	0	378	0.3	377	379	18.1	65.0
2025-07-11T22:53	10	0	0.1	0	0	378	0.3	378	379	18.1	64.5
2025-07-11T22:54	10	0	0.1	0	0	379	0.4	378	380	18.2	64.2
2025-07-11T22:55	10	0	0.1	0	0	379	0.3	379	380	18.2	64.1
2025-07-11T22:56	10	0	0.1	0	0	380	0.4	379	380	18.2	64.1
2025-07-11T22:57	10	0	0.1	0	0	381	0.3	380	381	18.3	63.8
2025-07-11T22:58	10	0	0.1	0	0	381	0.2	380	381	18.3	64.1
2025-07-11T22:59	10	0	0.1	0	0	381	0.2	380	381	18.2	64.1
2025-07-11T23:00	10	0	0.1	0	0	381	0.2	381	381	18.2	64.3
2025-07-11T23:01	10	0	0.1	0	0	381	0.2	381	381	18.1	64.4
2025-07-11T23:02	10	0	0.1	0	0	381	0.2	381	382	18.1	64.3
2025-07-11T23:03	10	0	0.1	0	0	382	0.3	381	382	18.2	63.9
2025-07-11T23:04	10	0	0.1	0	0	382	0.3	381	383	18.1	64.3
2025-07-11T23:05	10	0	0.1	0	0	381	0.4	380	382	18.1	64.4
2025-07-11T23:06	10	0	0.1	0	0	380	0.5	379	381	18.0	64.7
2025-07-11T23:07	10	0	0.1	0	0	379	0.3	378	380	17.8	65.4
2025-07-11T23:08	10	0	0.1	0	0	378	0.2	378	379	17.7	65.8
2025-07-11T23:09	10	0	0.1	0	0	378	0.3	378	379	17.6	66.1
2025-07-11T23:10	10	0	0.1	0	0	378	0.1	378	378	17.7	65.5
2025-07-11T23:11	10	0	0.1	0	0	378	0.3	377	378	17.7	65.3
2025-07-11T23:12	10	0	0.1	0	0	378	0.2	377	378	17.8	64.9
2025-07-11T23:13	10	0	0.1	0	0	377	0.2	377	378	17.8	64.8
2025-07-11T23:14	10	0	0.1	0	0	377	0.2	377	377	17.6	65.8
2025-07-11T23:15	10	0	0.1	0	0	377	0.4	376	378	17.6	66.6
2025-07-11T23:16	10	0	0.1	0	0	377	0.3	376	377	17.7	66.2
2025-07-11T23:17	10	0	0.1	0	0	377	0.2	376	377	17.6	66.7
2025-07-11T23:18	10	0	0.1	0	0	377	0.3	376	378	17.6	66.7
2025-07-11T23:19	10	0	0.1	0	0	376	0.4	375	377	17.5	67.0
2025-07-11T23:20	10	0	0.1	0	0	375	0.4	375	376	17.4	67.4
2025-07-11T23:21	10	0	0.1	0	0	376	0.4	375	377	17.0	68.8
2025-07-11T23:22	10	0	0.1	0	0	375	0.3	375	376	16.9	69.1
2025-07-11T23:23	10	0	0.1	0	0	376	0.4	375	376	17.0	68.2
2025-07-11T23:24	10	0	0.1	0	0	375	0.2	375	375	17.0	67.5
2025-07-11T23:25	10	0	0.1	0	0	375	0.3	374	376	16.9	67.8
2025-07-11T23:26	10	0	0.1	0	0	375	0.2	374	375	16.7	68.6
2025-07-11T23:27	10	0	0.1	0	0	374	0.2	374	375	16.5	69.4
2025-07-11T23:28	10	0	0.1	0	0	374	0.2	373	374	16.5	69.9
2025-07-11T23:29	10	0	0.1	0	0	373	0.2	373	374	16.3	70.6
2025-07-11T23:30	10	0	0.1	0	0	373	0.2	373	374	16.3	70.9
2025-07-11T23:31	10	0	0.1	0	0	373	0.2	373	373	16.2	71.1
2025-07-11T23:32	10	0	0.1	0	0	373	0.2	372	374	16.2	71.1
2025-07-11T23:33	10	0	0.1	0	0	373	0.3	372	373	16.3	70.9
2025-07-11T23:34	10	0	0.1	0	0	373	0.2	372	373	16.4	70.3
2025-07-11T23:35	10	0	0.1	0	0	372	0.2	372	373	16.5	69.8
2025-07-11T23:36	10	0	0.1	0	0	372	0.2	372	372	16.5	69.7
2025-07-11T23:37	10	0	0.1	0	0	371	0.2	371	372	16.4	69.9
2025-07-11T23:38	10	0	0.1	0	0	371	0.3	371	372	16.4	70.0
2025-07-11T23:39	10	0	0.1	0	0	371	0.2	371	371	16.4	70.0
2025-07-11T23:40	10	0	0.1	0	0	371	0.2	370	371	16.4	70.1
2025-07-11T23:41	10	0	0.1	0	0	370	0.2	370	371	16.4	70.1
2025-07-11T23:42	10	0	0.1	0	0	371	0.2	370	371	16.4	70.2
2025-07-11T23:43	10	0	0.1	0	0	370	0.2	370	371	16.4	69.9
2025-07-11T23:44	10	0	0.1	0	0	371	0.3	370	371	16.5	69.1
2025-07-11T23:45	10	0	0.1	0	0	371	0.3	370	372	16.6	68.7
2025-07-11T23:46	10	0	0.1	0	0	371	0.2	371	372	16.7	68.1
2025-07-11T23:47	10	0	0.1	0	0	371	0.2	371	372	16.8	67.8
2025-07-11T23:48	10	0	0.1	0	0	371	0.2	370	372	16.9	67.5
2025-07-11T23:49	10	0	0.1	0	0	371	0.2	371	371	17.0	67.8
2025-07-11T23:50	10	0	0.1	0	0	371	0.3	370	372	17.0	68.2
2025-07-11T23:51	10	0	0.0	0	0	371	0.2	371	371	17.0	68.3
2025-07-11T23:52	10	0	0.1	0	0	371	0.2	371	372	17.0	68.7
2025-07-11T23:53	10	0	0.1	0	0	371	0.3	371	372	17.0	69.3
2025-07-11T23:54	10	0	0.0	0	0	372	0.2	371	372	17.0	69.8
2025-07-11T23:55	10	0	0.1	0	0	371	0.3	371	372	17.0	69.7
2025-07-11T23:56	10	0	0.1	0	0	371	0.3	370	372	16.9	70.1
2025-07-11T23:57	10	0	0.1	0	0	371	0.2	371	372	16.9	70.5
2025-07-11T23:58	10	0	0.1	0	0	371	0.2	370	371	16.8	70.7
2025-07-11T23:59	10	0	0.1	0	0	371	0.2	370	371	16.8	71.2
2025-07-12T00:00	10	0	0.1	0	0	371	0.2	370	371	16.8	71.4
2025-07-12T00:01	10	0	0.1	0	0	370	0.2	370	371	16.7	71.6
2025-07-12T00:02	10	0	0.1	0	0	370	0.2	370	371	16.6	71.8
2025-07-12T00:03	10	0	0.1	0	0	370	0.2	370	371	16.5	72.2
2025-07-12T00:04	10	0	0.1	0	0	370	0.2	369	370	16.5	72.4
2025-07-12T00:05	10	0	0.1	0	0	370	0.3	369	370	16.5	72.3
2025-07-12T00:06	10	0	0.2	0	0	369	0.3	369	370	16.4	72.3
2025-07-12T00:07	10	0	0.2	0	0	370	0.3	369	370	16.4	72.6
2025-07-12T00:08	10	0	0.2	0	0	370	0.3	369	371	16.5	72.4
2025-07-12T00:09	10	0	0.1	0	0	371	0.4	370	372	16.5	72.2
2025-07-12T00:10	10	0	0.2	-1	0	372	0.4	371	373	16.6	71.9
2025-07-12T00:11	10	0	0.1	0	0	372	0.3	372	373	16.5	72.2
2025-07-12T00:12	10	0	0.2	0	0	373	0.3	373	374	16.5	72.0
2025-07-12T00:13	10	0	0.1	-1	0	373	0.3	373	374	16.5	71.6
2025-07-12T00:14	10	0	0.1	0	0	374	0.3	373	374	16.3	71.8
2025-07-12T00:15	10	0	0.2	0	0	374	0.4	373	375	16.1	71.7
2025-07-12T00:16	10	0	0.1	0	0	374	0.3	373	374	15.9	71.8
2025-07-12T00:17	10	0	0.1	-1	0	373	0.3	372	374	15.7	72.8
2025-07-12T00:18	10	0	0.1	0	0	374	0.3	374	375	15.8	72.0
2025-07-12T00:19	10	0	0.1	0	0	374	0.4	373	374	16.0	70.9
2025-07-12T00:20	10	0	0.1	0	0	373	0.3	373	374	16.0	71.3
2025-07-12T00:21	10	0	0.1	0	0	373	0.2	373	374	15.9	71.5
2025-07-12T00:22	10	0	0.1	-1	0	373	0.3	372	373	15.9	71.4
2025-07-12T00:23	10	0	0.1	0	0	373	0.2	372	373	16.2	71.1
2025-07-12T00:24	10	0	0.1	0	0	373	0.2	372	373	16.2	70.9
2025-07-12T00:25	10	0	0.1	0	0	373	0.3	372	374	16.1	71.6
2025-07-12T00:26	10	0	0.1	0	0	373	0.2	373	374	16.3	70.7
2025-07-12T00:27	10	0	0.1	0	0	373	0.2	372	373	16.1	71.4
2025-07-12T00:28	10	0	0.1	0	0	372	0.3	371	373	16.1	71.6
2025-07-12T00:29	10	0	0.1	0	0	371	0.3	371	372	16.1	71.5
2025-07-12T00:30	10	0	0.1	0	0	371	0.2	370	371	16.1	71.4
2025-07-12T00:31	10	0	0.1	0	0	370	0.2	370	371	16.2	71.0
2025-07-12T00:32	10	0	0.1	0	0	370	0.2	370	371	16.4	70.2
2025-07-12T00:33	10	0	0.1	0	0	369	0.3	369	370	16.5	69.4
2025-07-12T00:34	10	0	0.1	0	0	369	0.2	369	370	16.4	69.5
2025-07-12T00:35	10	0	0.1	0	0	369	0.3	368	369	16.2	70.4
2025-07-12T00:36	10	0	0.1	0	0	368	0.2	368	369	16.0	71.6
2025-07-12T00:37	10	0	0.1	0	0	368	0.4	367	368	15.8	72.4
2025-07-12T00:38	10	0	0.1	0	0	367	0.2	367	367	15.6	73.9
2025-07-12T00:39	10	0	0.1	0	0	367	0.3	366	368	15.7	73.0
2025-07-12T00:40	10	0	0.1	0	0	367	0.2	366	368	15.6	73.4
2025-07-12T00:41	10	0	0.1	0	0	367	0.2	366	367	15.8	72.6
2025-07-12T00:42	10	0	0.1	0	0	367	0.4	366	368	16.0	72.9
2025-07-12T00:43	10	0	0.1	0	0	367	0.3	367	368	16.1	72.2
2025-07-12T00:44	10	0	0.1	0	0	367	0.4	366	368	16.1	72.3
2025-07-12T00:45	10	0	0.1	0	0	367	0.2	366	367	16.0	72.8
2025-07-12T00:46	10	0	0.1	0	0	366	0.2	366	367	16.0	73.8
2025-07-12T00:47	10	0	0.1	0	0	366	0.2	366	367	16.0	74.0
2025-07-12T00:48	10	0	0.1	0	0	366	0.3	366	367	16.0	74.5
2025-07-12T00:49	10	0	0.1	0	0	366	0.2	366	367	16.0	74.7
2025-07-12T00:50	10	0	0.1	0	0	366	0.2	366	366	16.0	74.8
2025-07-12T00:51	10	0	0.1	0	0	366	0.3	365	367	16.1	75.0
2025-07-12T00:52	10	0	0.1	0	0	366	0.2	366	367	16.1	74.6
2025-07-12T00:53	10	0	0.1	0	0	366	0.2	366	367	16.1	74.6
2025-07-12T00:54	10	0	0.1	0	0	366	0.2	366	366	16.0	74.9
2025-07-12T00:55	10	0	0.1	0	0	366	0.2	366	367	16.0	75.2
2025-07-12T00:56	10	0	0.1	0	0	366	0.3	365	367	16.0	75.3
2025-07-12T00:57	10	0	0.1	0	0	366	0.2	365	366	16.0	75.3
2025-07-12T00:58	10	0	0.1	0	0	366	0.3	365	367	16.0	75.7
2025-07-12T00:59	10	0	0.1	0	0	366	0.2	366	367	16.1	75.7
2025-07-12T01:00	10	0	0.1	0	0	366	0.2	365	366	16.1	75.2
2025-07-12T01:01	10	0	0.1	0	0	365	0.3	365	366	16.2	75.0
2025-07-12T01:02	10	0	0.1	0	0	365	0.2	364	365	16.1	75.3
2025-07-12T01:03	10	0	0.1	0	0	365	0.3	364	365	16.0	75.6
2025-07-12T01:04	10	0	0.1	0	0	365	0.3	364	365	16.0	75.6
2025-07-12T01:05	10	0	0.1	0	0	365	0.3	364	365	15.9	75.7
2025-07-12T01:06	10	0	0.1	0	0	364	0.2	364	365	15.8	76.0
2025-07-12T01:07	10	0	0.1	0	0	365	0.2	364	365	15.7	76.4
2025-07-12T01:08	10	0	0.1	0	0	365	0.2	364	365	15.6	76.6
2025-07-12T01:09	10	0	0.1	0	0	365	0.3	364	365	15.6	76.8
2025-07-12T01:10	10	0	0.1	0	0	365	0.2	364	365	15.6	76.8
2025-07-12T01:11	10	0	0.1	0	0	365	0.2	364	365	15.6	77.1
2025-07-12T01:12	10	0	0.1	0	0	365	0.2	365	365	15.6	77.1
2025-07-12T01:13	10	0	0.1	0	0	365	0.3	364	365	15.4	77.8
2025-07-12T01:14	10	0	0.1	0	0	365	0.2	364	365	15.4	78.2
2025-07-12T01:15	10	0	0.1	0	0	364	0.2	364	365	15.4	77.5
2025-07-12T01:16	10	0	0.1	0	0	365	0.3	364	365	15.4	77.8
2025-07-12T01:17	10	0	0.1	0	0	365	0.2	364	365	15.4	77.6
2025-07-12T01:18	10	0	0.1	0	0	364	0.3	364	365	15.5	77.3
2025-07-12T01:19	10	0	0.1	0	0	364	0.2	364	365	15.5	77.4
2025-07-12T01:20	10	0	0.1	0	0	364	0.2	363	365	15.5	77.2
2025-07-12T01:21	10	0	0.1	0	0	364	0.3	364	365	15.5	77.1
2025-07-12T01:22	10	0	0.1	0	0	364	0.3	364	365	15.5	77.2
2025-07-12T01:23	10	0	0.1	0	0	364	0.3	364	365	15.4	77.3
2025-07-12T01:24	10	0	0.1	0	0	365	0.2	364	365	15.5	77.3
2025-07-12T01:25	10	0	0.1	0	0	364	0.2	364	365	15.5	77.3
2025-07-12T01:26	10	0	0.1	0	0	365	0.2	364	365	15.6	77.1
2025-07-12T01:27	10	0	0.1	0	0	365	0.3	364	366	15.6	76.9
2025-07-12T01:28	10	0	0.1	0	0	365	0.3	365	366	15.6	76.8
2025-07-12T01:29	10	0	0.1	0	0	366	0.3	365	366	15.6	76.8
2025-07-12T01:30	10	0	0.1	0	0	367	0.4	366	367	15.8	76.4
2025-07-12T01:31	10	0	0.1	0	0	368	0.4	367	369	15.9	75.9
2025-07-12T01:32	10	0	0.1	0	0	369	0.3	369	370	16.1	75.2
2025-07-12T01:33	10	0	0.1	0	0	369	0.3	369	370	16.1	74.9
2025-07-12T01:34	10	0	0.1	0	0	370	0.3	370	371	16.1	74.9
2025-07-12T01:35	10	0	0.1	0	0	370	0.2	370	371	16.1	74.9
2025-07-12T01:36	10	0	0.1	0	0	370	0.3	369	371	15.9	75.0
2025-07-12T01:37	10	0	0.1	0	0	370	0.2	370	371	16.0	74.8
2025-07-12T01:38	10	0	0.8	0	6	370	0.3	370	371	15.9	74.0
2025-07-12T01:39	10	0	0.1	0	0	370	0.4	369	371	15.8	74.0
2025-07-12T01:40	10	0	0.1	0	0	369	0.2	369	370	15.6	73.5
2025-07-12T01:41	10	0	0.1	0	0	369	0.4	368	370	15.5	73.9
2025-07-12T01:42	10	0	0.1	0	0	368	0.3	368	369	15.4	73.6
2025-07-12T01:43	10	0	0.1	0	0	368	0.3	367	368	15.5	73.3
2025-07-12T01:44	10	0	0.1	0	0	368	0.3	367	368	15.5	72.9
2025-07-12T01:45	10	0	0.1	0	0	368	0.2	367	368	15.2	73.2
2025-07-12T01:46	10	0	0.1	0	0	368	0.5	367	369	15.2	73.4
2025-07-12T01:47	10	0	0.1	0	0	367	0.2	367	368	14.9	74.5
2025-07-12T01:48	10	0	0.1	0	0	367	0.2	367	368	14.8	75.2
2025-07-12T01:49	10	0	0.1	0	0	367	0.2	366	367	14.6	75.9
2025-07-12T01:50	10	0	0.1	0	0	367	0.3	366	368	14.6	76.3
2025-07-12T01:51	10	0	0.1	0	0	367	0.3	366	368	14.9	75.0
2025-07-12T01:52	10	0	0.1	0	0	366	0.2	366	367	15.1	74.0
2025-07-12T01:53	10	0	0.1	0	0	366	0.3	365	367	15.0	74.1
2025-07-12T01:54	10	0	0.1	0	0	365	0.3	365	366	15.2	73.3
2025-07-12T01:55	10	0	0.1	0	0	365	0.4	364	366	15.3	73.0
2025-07-12T01:56	10	0	0.1	0	0	365	0.2	364	365	15.4	72.3
2025-07-12T01:57	10	0	0.1	0	0	364	0.4	363	365	15.5	72.1
2025-07-12T01:58	10	0	0.1	0	0	363	0.7	362	364	15.1	73.6
2025-07-12T01:59	10	0	0.1	0	0	362	0.3	361	363	14.5	76.1
2025-07-12T02:00	10	0	0.1	0	0	361	0.3	361	362	14.4	77.3
2025-07-12T02:01	10	0	0.1	0	0	361	0.4	360	362	14.2	78.4
2025-07-12T02:02	10	0	0.1	0	0	362	0.4	361	362	14.5	77.2
2025-07-12T02:03	10	0	0.1	0	0	362	0.3	361	362	14.7	77.6
2025-07-12T02:04	10	0	0.0	0	0	361	0.4	360	362	14.7	77.6
2025-07-12T02:05	10	0	0.1	0	0	361	0.3	360	361	14.6	78.2
2025-07-12T02:06	10	0	0.1	0	0	360	0.3	359	361	14.6	78.6
2025-07-12T02:07	10	0	0.1	0	0	360	0.2	359	360	14.3	79.3
2025-07-12T02:08	10	0	0.1	0	0	360	0.4	359	361	14.3	80.0
2025-07-12T02:09	10	0	0.1	0	0	360	0.3	359	360	14.4	79.8
2025-07-12T02:10	10	0	0.1	0	1	359	0.2	359	360	14.3	79.8
2025-07-12T02:11	10	0	0.1	0	0	359	0.2	359	360	14.2	80.4
2025-07-12T02:12	10	0	0.1	0	0	359	0.3	358	360	14.1	80.4
2025-07-12T02:13	10	0	0.2	0	1	359	0.3	359	360	14.1	81.0
2025-07-12T02:14	10	0	0.1	0	0	359	0.2	359	360	14.1	80.7
2025-07-12T02:15	10	0	0.1	0	0	359	0.2	358	360	14.0	81.1
2025-07-12T02:16	10	0	0.1	0	0	359	0.2	359	360	14.0	81.5
2025-07-12T02:17	10	0	0.2	0	0	359	0.3	358	360	14.0	81.6
2025-07-12T02:18	10	0	0.1	0	0	359	0.3	359	360	14.1	81.1
2025-07-12T02:19	10	0	0.1	0	0	359	0.2	359	360	14.1	80.6
2025-07-12T02:20	10	0	0.2	0	0	359	0.2	359	360	14.2	80.6
2025-07-12T02:21	10	0	0.1	0	0	359	0.2	359	360	14.2	81.1
2025-07-12T02:22	10	0	0.1	0	0	359	0.2	359	360	14.1	81.1
2025-07-12T02:23	10	0	0.1	0	0	359	0.2	358	359	14.0	81.4
2025-07-12T02:24	10	0	0.1	0	0	359	0.2	359	360	13.9	81.9
2025-07-12T02:25	10	0	0.1	0	0	359	0.3	358	360	13.9	82.2
2025-07-12T02:26	10	0	0.1	0	0	359	0.3	359	360	13.9	82.3
2025-07-12T02:27	10	0	0.2	0	1	360	0.4	359	360	13.9	82.4
2025-07-12T02:28	10	0	0.2	0	0	360	0.3	359	360	14.0	82.1
2025-07-12T02:29	10	0	0.6	0	4	360	0.8	359	361	13.9	81.8
2025-07-12T02:30	10	0	0.2	0	0	360	0.4	359	361	14.1	81.6
2025-07-12T02:31	10	0	0.2	0	0	360	0.3	359	360	14.0	82.1
2025-07-12T02:32	10	0	0.1	0	0	360	0.3	359	360	14.1	81.9
2025-07-12T02:33	10	0	0.2	0	0	359	0.3	359	360	14.2	81.5
2025-07-12T02:34	10	0	0.2	0	0	359	0.3	358	360	14.1	81.1
2025-07-12T02:35	10	0	0.2	0	1	359	0.3	359	360	14.0	81.6
2025-07-12T02:36	10	0	0.2	0	0	359	0.4	358	360	13.9	81.6
2025-07-12T02:37	10	0	0.2	0	1	359	0.3	358	360	13.8	82.1
2025-07-12T02:38	10	0	0.2	0	0	359	0.3	359	360	13.8	82.4
2025-07-12T02:39	10	0	0.1	0	0	360	0.4	359	360	13.7	82.6
2025-07-12T02:40	10	0	0.1	0	1	359	0.3	359	360	13.6	83.2
2025-07-12T02:41	10	0	0.1	0	0	360	0.3	359	360	13.5	83.7
2025-07-12T02:42	10	0	0.2	0	0	359	0.2	359	360	13.6	83.6
2025-07-12T02:43	10	0	0.2	0	1	359	0.2	358	359	13.6	83.4
2025-07-12T02:44	10	0	0.1	0	0	359	0.3	358	359	13.5	83.1
2025-07-12T02:45	10	0	0.1	0	1	358	0.3	358	359	13.6	83.1
2025-07-12T02:46	10	0	0.1	0	0	358	0.2	358	359	13.5	83.0
2025-07-12T02:47	10	0	0.1	0	0	358	0.2	357	359	13.6	83.0
2025-07-12T02:48	10	0	0.1	0	0	358	0.3	357	358	13.6	83.3
2025-07-12T02:49	10	0	0.1	0	0	358	0.4	356	358	13.4	84.6
2025-07-12T02:50	10	0	0.1	0	0	357	0.2	357	358	13.4	84.0
2025-07-12T02:51	10	0	0.0	0	0	358	0.2	357	358	13.5	83.2
2025-07-12T02:52	10	0	0.1	0	0	358	0.4	357	359	13.6	82.9
2025-07-12T02:53	10	0	0.1	0	0	358	0.2	357	358	13.7	82.4
2025-07-12T02:54	10	0	0.1	0	0	358	0.2	357	358	13.6	82.5
2025-07-12T02:55	10	0	0.1	0	0	358	0.2	357	358	13.5	82.5
2025-07-12T02:56	10	0	0.1	0	0	357	0.2	357	358	13.5	82.6
2025-07-12T02:57	10	0	0.1	0	0	358	0.4	357	358	13.6	82.0
2025-07-12T02:58	10	0	0.1	0	0	357	0.3	357	358	13.8	80.9
2025-07-12T02:59	10	0	0.1	0	0	357	0.2	357	358	13.7	81.2
2025-07-12T03:00	10	0	0.1	0	0	357	0.2	357	357	13.6	81.8
2025-07-12T03:01	10	0	0.1	0	0	357	0.2	357	358	13.5	81.9
2025-07-12T03:02	10	0	0.1	0	0	357	0.2	357	358	13.6	81.3
2025-07-12T03:03	10	0	0.1	0	0	357	0.2	357	358	13.7	81.1
2025-07-12T03:04	10	0	0.1	0	0	357	0.3	357	358	13.6	81.3
2025-07-12T03:05	10	0	0.1	0	0	357	0.2	357	358	13.6	81.6
2025-07-12T03:06	10	0	0.1	0	0	357	0.2	356	357	13.5	81.8
2025-07-12T03:07	10	0	0.1	0	0	357	0.6	356	359	13.4	82.3
2025-07-12T03:08	10	0	0.1	0	0	358	0.3	357	359	13.7	81.2
2025-07-12T03:09	10	0	0.1	0	0	357	0.2	357	358	13.6	81.3
2025-07-12T03:10	10	0	0.1	0	0	357	0.2	357	358	13.4	82.4
2025-07-12T03:11	10	0	0.1	0	0	357	0.2	357	358	13.4	82.6
2025-07-12T03:12	10	0	0.1	0	0	358	0.3	357	358	13.3	82.8
2025-07-12T03:13	10	0	0.1	0	0	358	0.2	357	358	13.4	82.6
2025-07-12T03:14	10	0	0.1	0	0	358	0.3	357	359	13.5	82.0
2025-07-12T03:15	10	0	0.1	0	0	358	0.2	357	358	13.4	82.7
2025-07-12T03:16	10	0	0.1	0	0	357	0.2	357	358	13.3	83.4
2025-07-12T03:17	10	0	0.1	0	0	357	0.3	356	357	13.2	84.1
2025-07-12T03:18	10	0	0.1	0	0	357	0.2	356	357	13.1	84.9
2025-07-12T03:19	10	0	0.1	0	0	356	0.3	356	357	13.0	85.1
2025-07-12T03:20	10	0	0.1	0	0	356	0.2	356	356	13.0	85.5
2025-07-12T03:21	10	0	0.1	0	0	356	0.2	355	357	12.9	85.8
2025-07-12T03:22	10	0	0.1	0	0	356	0.2	355	356	13.0	86.1
2025-07-12T03:23	10	0	0.1	0	0	356	0.2	355	356	13.0	86.0
2025-07-12T03:24	10	0	0.1	0	0	356	0.3	355	357	13.0	85.7
2025-07-12T03:25	10	0	0.1	0	0	356	0.2	356	356	13.1	85.3
2025-07-12T03:26	10	0	0.1	0	0	356	0.4	355	357	13.1	84.6
2025-07-12T03:27	10	0	0.1	0	0	355	0.2	355	356	13.1	85.2
2025-07-12T03:28	10	0	0.1	0	0	355	0.3	355	356	12.9	85.5
2025-07-12T03:29	10	0	0.1	0	0	356	0.3	355	356	13.0	84.6
2025-07-12T03:30	10	0	0.1	0	0	355	0.2	355	356	13.1	83.9
2025-07-12T03:31	10	0	0.1	0	0	355	0.2	355	356	13.1	83.9
2025-07-12T03:32	10	0	0.1	0	0	355	0.3	355	356	13.1	84.0
2025-07-12T03:33	10	0	0.1	0	0	355	0.3	355	356	13.1	83.7
2025-07-12T03:34	10	0	0.1	0	0	355	0.2	355	356	13.1	83.9
2025-07-12T03:35	10	0	0.1	0	0	355	0.2	355	356	13.1	83.6
2025-07-12T03:36	10	0	0.1	0	0	356	0.3	355	356	13.3	82.7
2025-07-12T03:37	10	0	0.1	0	0	356	0.2	355	356	13.4	81.9
2025-07-12T03:38	10	0	0.1	0	0	356	0.2	355	356	13.5	81.7
2025-07-12T03:39	10	0	0.1	0	0	355	0.2	355	356	13.3	82.2
2025-07-12T03:40	10	0	0.1	0	0	356	0.2	355	356	13.2	82.9
2025-07-12T03:41	10	0	0.1	0	0	355	0.2	355	356	13.1	83.2
2025-07-12T03:42	10	0	0.1	0	0	355	0.2	355	356	13.1	83.5
2025-07-12T03:43	10	0	0.1	0	0	356	0.3	355	356	13.0	83.7
2025-07-12T03:44	10	0	0.1	0	1	356	0.3	356	357	13.0	83.8
2025-07-12T03:45	10	0	0.1	0	1	357	0.3	356	357	13.0	84.1
2025-07-12T03:46	10	0	0.1	0	1	357	0.3	356	358	12.9	84.6
2025-07-12T03:47	10	0	0.1	0	1	357	0.2	357	358	12.8	85.1
2025-07-12T03:48	10	0	0.1	0	1	357	0.2	357	358	12.8	85.4
2025-07-12T03:49	10	1	0.1	0	1	357	0.2	357	358	12.9	85.3
2025-07-12T03:50	10	1	0.1	0	1	357	0.3	357	358	12.9	85.3
2025-07-12T03:51	10	1	0.1	0	1	357	0.3	356	358	12.9	85.4
2025-07-12T03:52	10	1	0.1	0	1	356	0.4	356	357	12.7	86.0
2025-07-12T03:53	10	1	0.1	0	1	356	0.3	356	357	12.7	86.4
2025-07-12T03:54	10	1	0.1	1	1	356	0.2	356	357	12.6	86.7
2025-07-12T03:55	10	1	0.1	1	1	356	0.2	356	357	12.7	86.9
2025-07-12T03:56	10	1	0.1	1	1	356	0.3	355	357	12.7	87.2
2025-07-12T03:57	10	1	0.1	1	1	356	0.2	356	357	12.8	86.6
2025-07-12T03:58	10	1	0.1	1	1	356	0.2	356	357	12.9	85.9
2025-07-12T03:59	10	1	0.1	1	1	356	0.2	356	357	12.9	85.7
2025-07-12T04:00	10	1	0.1	1	1	356	0.2	355	356	12.8	86.1
2025-07-12T04:01	10	1	0.1	1	1	356	0.2	356	356	12.8	86.0
2025-07-12T04:02	10	1	0.1	1	1	356	0.2	356	357	12.8	85.8
2025-07-12T04:03	10	1	0.1	1	1	357	0.3	356	357	12.8	85.8
2025-07-12T04:04	10	1	0.1	1	2	357	0.2	356	357	12.8	86.0
2025-07-12T04:05	10	2	0.1	1	2	357	0.2	356	357	12.7	86.4
2025-07-12T04:06	10	2	0.1	1	2	357	0.2	356	357	12.7	86.4
2025-07-12T04:07	10	2	0.1	2	2	356	0.3	355	357	12.6	86.4
2025-07-12T04:08	10	2	0.1	2	2	355	0.3	355	356	12.5	87.1
2025-07-12T04:09	10	2	0.1	2	3	356	0.4	355	356	12.3	87.6
2025-07-12T04:10	10	3	0.2	2	3	356	0.3	355	357	12.3	86.8
2025-07-12T04:11	10	3	0.1	3	3	356	0.2	355	356	12.3	86.4
2025-07-12T04:12	10	3	0.1	3	3	356	0.3	355	356	12.3	86.4
2025-07-12T04:13	10	3	0.2	2	3	356	0.3	355	357	12.4	86.4
2025-07-12T04:14	10	3	0.1	2	3	356	0.2	355	356	12.5	86.0
2025-07-12T04:15	10	3	0.1	2	3	356	0.3	355	357	12.4	85.9
2025-07-12T04:16	10	3	0.1	3	3	357	0.3	356	358	12.3	86.3
2025-07-12T04:17	10	3	0.1	3	3	358	0.4	357	359	12.4	85.9
2025-07-12T04:18	10	3	0.1	3	4	358	0.3	358	359	12.6	85.1
2025-07-12T04:19	10	4	0.1	3	4	359	0.4	358	360	12.3	85.7
2025-07-12T04:20	10	4	0.1	4	4	359	0.3	359	360	12.5	85.4
2025-07-12T04:21	10	4	0.1	4	4	359	0.2	359	360	12.6	84.8
2025-07-12T04:22	10	4	0.1	4	4	359	0.2	358	360	12.8	84.3
2025-07-12T04:23	10	4	0.1	3	4	359	0.2	358	359	12.8	84.2
2025-07-12T04:24	10	4	0.1	3	4	359	0.3	358	360	12.7	84.4
2025-07-12T04:25	10	3	0.1	3	4	359	0.3	359	360	12.8	84.2
2025-07-12T04:26	10	3	0.1	3	3	359	0.3	359	360	12.8	84.1
2025-07-12T04:27	10	3	0.1	3	4	360	0.3	359	361	12.7	84.3
2025-07-12T04:28	10	4	0.2	3	4	359	0.3	359	360	12.8	84.0
2025-07-12T04:29	10	4	0.2	4	5	360	0.2	359	360	12.7	84.3
2025-07-12T04:30	10	5	0.3	5	5	360	0.2	359	360	12.7	84.3
2025-07-12T04:31	10	6	0.5	5	7	360	0.4	360	361	12.7	84.4
2025-07-12T04:32	10	8	0.3	7	8	362	0.5	361	362	12.8	84.3
2025-07-12T04:33	10	9	0.2	8	9	362	0.3	361	363	12.9	83.9
2025-07-12T04:34	10	9	0.4	9	10	363	0.2	362	363	13.0	83.5
2025-07-12T04:35	10	12	0.9	10	13	363	0.3	363	364	13.0	83.3
2025-07-12T04:36	10	15	0.7	13	15	363	0.3	363	364	12.9	83.4
2025-07-12T04:37	10	16	0.2	15	16	364	0.3	364	365	12.9	83.5
2025-07-12T04:38	10	17	0.2	16	17	365	0.3	364	365	13.1	82.8
2025-07-12T04:39	10	17	0.2	17	18	365	0.2	365	366	13.2	82.4
2025-07-12T04:40	10	18	0.3	18	19	365	0.2	365	366	13.1	82.6
2025-07-12T04:41	10	19	0.2	19	19	366	0.3	365	366	13.1	82.8
2025-07-12T04:42	10	20	0.2	19	20	366	0.3	365	367	13.0	83.0
2025-07-12T04:43	10	20	0.2	20	20	367	0.3	366	368	13.2	82.5
2025-07-12T04:44	10	21	0.2	20	21	368	0.2	367	368	13.3	81.8
2025-07-12T04:45	10	21	0.2	21	22	368	0.2	367	368	13.4	81.5
2025-07-12T04:46	10	22	0.1	21	22	369	0.2	368	369	13.4	81.3
2025-07-12T04:47	10	22	0.2	22	23	369	0.2	368	369	13.4	81.3
2025-07-12T04:48	10	23	0.2	23	23	369	0.2	369	370	13.4	81.6
2025-07-12T04:49	10	24	0.2	23	24	370	0.2	369	370	13.4	81.6
2025-07-12T04:50	10	24	0.2	24	25	370	0.2	370	371	13.5	81.3
2025-07-12T04:51	10	25	0.2	25	25	371	0.3	370	371	13.5	81.3
2025-07-12T04:52	10	26	0.2	25	26	371	0.3	370	372	13.4	81.6
2025-07-12T04:53	10	26	0.2	26	26	372	0.3	371	372	13.4	81.6
2025-07-12T04:54	10	27	0.2	26	27	372	0.2	372	373	13.5	81.2
2025-07-12T04:55	10	27	0.2	27	28	373	0.2	372	373	13.6	80.7
2025-07-12T04:56	10	28	0.2	28	28	373	0.2	372	374	13.7	80.3
2025-07-12T04:57	10	29	0.2	28	29	373	0.3	373	374	13.9	79.7
2025-07-12T04:58	10	29	0.2	29	30	374	0.2	373	374	13.9	79.2
2025-07-12T04:59	10	30	0.2	29	30	374	0.2	374	375	14.0	79.1
2025-07-12T05:00	10	31	0.2	30	31	375	0.2	374	375	14.0	79.1
2025-07-12T05:01	10	31	0.2	31	32	375	0.3	375	376	14.0	79.2
2025-07-12T05:02	10	32	0.2	32	32	376	0.2	375	376	14.0	79.4
2025-07-12T05:03	10	33	0.2	32	33	376	0.3	376	377	13.9	80.9
2025-07-12T05:04	10	33	0.2	33	34	377	0.2	376	377	14.0	79.5
2025-07-12T05:05	10	34	0.2	33	34	377	0.2	377	377	14.1	79.0
2025-07-12T05:06	10	34	0.2	34	35	378	0.2	377	378	14.1	78.8
2025-07-12T05:07	10	35	0.2	35	35	378	0.2	377	378	14.2	78.5
2025-07-12T05:08	10	35	0.2	35	36	378	0.2	378	379	14.2	78.4
2025-07-12T05:09	10	36	0.1	36	36	379	0.2	378	380	14.1	79.3
2025-07-12T05:10	10	36	0.2	36	37	379	0.2	379	380	14.1	79.5
2025-07-12T05:11	10	37	0.2	36	37	379	0.2	379	380	14.1	80.2
2025-07-12T05:12	10	37	0.2	37	38	379	0.2	379	380	14.1	80.6
2025-07-12T05:13	10	38	0.1	38	38	380	0.2	379	380	14.1	80.2
2025-07-12T05:14	10	38	0.2	38	39	380	0.3	379	380	14.1	79.7
2025-07-12T05:15	10	39	0.2	39	39	380	0.2	380	381	14.1	79.8
2025-07-12T05:16	10	39	0.2	39	40	381	0.2	380	381	14.1	79.9
2025-07-12T05:17	10	40	0.2	40	40	381	0.2	381	382	14.2	79.7
2025-07-12T05:18	10	40	0.1	40	41	381	0.2	381	382	14.2	81.4
2025-07-12T05:19	10	41	0.2	41	41	382	0.2	382	383	14.2	80.9
2025-07-12T05:20	10	41	0.2	41	42	383	0.2	382	383	14.2	81.6
2025-07-12T05:21	10	42	0.2	42	43	383	0.2	383	384	14.3	79.7
2025-07-12T05:22	10	43	0.2	42	43	383	0.2	383	384	14.4	79.8
2025-07-12T05:23	10	43	0.2	43	44	384	0.3	383	384	14.4	80.1
2025-07-12T05:24	10	44	0.2	44	45	384	0.3	383	385	14.4	80.1
2025-07-12T05:25	10	45	0.2	44	45	385	0.3	384	385	14.5	80.7
2025-07-12T05:26	10	45	0.2	45	46	386	0.2	385	386	14.5	79.6
2025-07-12T05:27	10	46	0.2	46	46	385	0.2	385	386	14.6	79.3
2025-07-12T05:28	10	47	0.2	46	47	385	0.3	385	386	14.5	80.5
2025-07-12T05:29	10	47	0.2	47	48	386	0.2	385	386	14.5	80.1
2025-07-12T05:30	10	48	0.2	48	49	386	0.2	386	387	14.5	80.0
2025-07-12T05:31	10	49	0.2	48	49	387	0.2	386	387	14.5	80.3
2025-07-12T05:32	10	49	0.2	49	50	387	0.2	386	387	14.5	80.6
2025-07-12T05:33	10	50	0.2	50	51	387	0.3	387	388	14.5	81.0
2025-07-12T05:34	10	51	0.2	50	51	387	0.2	387	388	14.6	81.1
2025-07-12T05:35	10	51	0.2	51	52	388	0.3	387	388	14.6	80.7
2025-07-12T05:36	10	52	0.3	51	53	388	0.3	388	389	14.6	80.1
2025-07-12T05:37	10	53	0.2	52	53	389	0.2	389	389	14.6	79.7
2025-07-12T05:38	10	53	0.2	53	54	389	0.3	389	390	14.6	80.6
2025-07-12T05:39	10	54	0.2	54	54	390	0.2	389	390	14.6	80.7
2025-07-12T05:40	10	55	0.2	54	55	390	0.2	389	390	14.7	80.7
2025-07-12T05:41	10	55	0.2	55	56	390	0.2	390	391	14.7	80.9
2025-07-12T05:42	10	56	0.2	55	56	391	0.3	390	391	14.7	79.8
2025-07-12T05:43	10	56	0.2	56	57	391	0.2	391	391	14.8	79.2
2025-07-12T05:44	10	57	0.2	57	57	391	0.2	391	392	14.8	78.7
2025-07-12T05:45	10	58	0.2	57	58	392	0.3	391	392	14.9	79.2
2025-07-12T05:46	10	58	0.2	58	59	392	0.3	391	393	14.9	78.0
2025-07-12T05:47	10	59	0.2	59	59	392	0.3	392	393	14.9	78.1
2025-07-12T05:48	10	60	0.2	59	60	393	0.3	392	393	15.0	79.3
2025-07-12T05:49	10	60	0.2	60	61	394	0.4	393	395	15.1	79.0
2025-07-12T05:50	10	61	0.2	61	61	394	0.2	394	394	15.2	77.6
2025-07-12T05:51	10	62	0.2	61	62	394	0.2	394	395	15.2	76.7
2025-07-12T05:52	10	62	0.2	62	62	395	0.3	394	396	15.3	76.6
2025-07-12T05:53	10	63	0.2	62	63	395	0.3	395	396	15.3	75.9
2025-07-12T05:54	10	63	0.2	63	64	395	0.2	395	396	15.4	76.0
2025-07-12T05:55	10	64	0.2	64	64	395	0.2	394	395	15.4	75.5
2025-07-12T05:56	10	65	0.2	64	65	396	0.3	395	397	15.4	75.8
2025-07-12T05:57	10	65	0.2	65	66	396	0.2	395	396	15.4	75.1
2025-07-12T05:58	10	66	0.2	65	66	396	0.3	396	397	15.4	74.9
2025-07-12T05:59	10	66	0.2	66	67	397	0.3	396	397	15.5	75.1
2025-07-12T06:00	10	67	0.2	67	68	397	0.3	397	398	15.5	75.5
2025-07-12T06:01	10	68	0.2	67	68	398	0.2	397	398	15.5	75.6
2025-07-12T06:02	10	68	0.2	68	69	398	0.3	398	399	15.6	75.3
2025-07-12T06:03	10	69	0.2	69	69	399	0.3	398	400	15.7	75.7
2025-07-12T06:04	10	70	0.2	69	70	399	0.2	399	400	15.7	76.0
2025-07-12T06:05	10	70	0.2	70	71	400	0.3	399	400	15.8	75.0
2025-07-12T06:06	10	71	0.2	71	71	400	0.3	400	401	15.8	74.8
2025-07-12T06:07	10	72	0.3	71	72	401	0.2	400	401	15.8	74.8
2025-07-12T06:08	10	72	0.3	72	73	401	0.2	401	402	15.8	74.1
2025-07-12T06:09	10	73	0.3	73	74	401	0.2	400	401	15.8	74.2
2025-07-12T06:10	10	74	0.2	74	75	401	0.2	401	402	15.8	74.8
2025-07-12T06:11	10	75	0.2	75	75	402	0.2	402	403	15.9	74.2
2025-07-12T06:12	10	76	0.2	75	76	402	0.2	402	403	15.9	74.8
2025-07-12T06:13	10	77	0.3	76	77	403	0.2	402	403	15.9	74.9
2025-07-12T06:14	10	78	0.2	77	78	403	0.4	402	404	15.7	75.2
2025-07-12T06:15	10	78	0.2	78	79	404	0.3	403	404	15.8	75.0
2025-07-12T06:16	10	79	0.2	78	79	404	0.2	403	405	15.8	75.2
2025-07-12T06:17	10	79	0.2	79	80	404	0.3	403	405	15.9	74.6
2025-07-12T06:18	10	80	0.2	80	81	404	0.2	403	404	15.7	74.3
2025-07-12T06:19	10	81	0.3	80	81	404	0.4	403	405	15.7	74.4
2025-07-12T06:20	10	81	0.2	81	81	405	0.3	404	405	15.8	74.3
2025-07-12T06:21	10	81	0.1	81	82	406	0.2	405	406	15.9	74.1
2025-07-12T06:22	10	81	0.7	80	82	406	0.2	405	406	16.0	73.8
2025-07-12T06:23	10	81	1.4	79	83	406	0.3	405	407	16.0	73.7
2025-07-12T06:24	10	83	0.3	83	84	407	0.4	406	407	16.1	73.8
2025-07-12T06:25	10	84	0.2	83	84	407	0.3	407	408	16.1	73.3
2025-07-12T06:26	10	84	0.1	84	85	408	0.2	408	408	16.1	72.2
2025-07-12T06:27	10	85	0.2	84	85	408	0.4	408	409	16.1	70.9
2025-07-12T06:28	10	85	0.2	85	85	409	0.4	408	410	16.4	71.6
2025-07-12T06:29	10	86	0.2	85	86	410	0.4	409	410	16.7	71.4
2025-07-12T06:30	10	86	0.2	86	87	409	0.3	409	410	16.7	67.6
2025-07-12T06:31	10	87	0.2	86	87	410	0.2	409	410	16.7	67.2
2025-07-12T06:32	10	87	0.2	87	88	411	0.4	410	411	16.7	68.4
2025-07-12T06:33	10	88	0.2	88	88	411	0.4	411	412	16.6	68.8
2025-07-12T06:34	10	89	0.1	88	89	411	0.3	410	412	16.5	68.6
2025-07-12T06:35	10	89	0.1	89	89	412	0.3	411	412	16.5	68.3
2025-07-12T06:36	10	90	0.2	89	90	413	0.3	412	413	16.5	68.2
2025-07-12T06:37	10	90	0.2	90	90	412	0.3	412	413	16.6	68.2
2025-07-12T06:38	10	91	0.2	90	91	413	0.3	412	414	16.6	68.1
2025-07-12T06:39	10	91	0.2	91	91	414	0.2	413	414	16.8	67.5
2025-07-12T06:40	10	92	0.2	91	92	414	0.2	414	414	16.8	66.8
2025-07-12T06:41	10	92	0.2	92	93	414	0.3	413	414	16.8	67.4
2025-07-12T06:42	10	93	0.2	92	93	414	0.2	414	415	16.8	67.4
2025-07-12T06:43	10	93	0.2	93	94	415	0.3	414	416	16.9	67.3
2025-07-12T06:44	10	94	0.2	93	94	415	0.2	415	416	16.9	67.1
2025-07-12T06:45	10	94	0.2	94	95	416	0.5	415	417	16.9	67.3
2025-07-12T06:46	10	95	0.2	94	95	417	0.4	416	417	17.0	67.3
2025-07-12T06:47	10	95	0.2	95	96	417	0.2	416	417	16.9	67.4
2025-07-12T06:48	10	96	0.2	96	96	417	0.2	416	417	17.0	67.1
2025-07-12T06:49	10	97	0.2	96	97	418	0.3	417	418	17.0	67.1
2025-07-12T06:50	10	97	0.1	97	97	418	0.5	417	419	17.2	66.2
2025-07-12T06:51	10	98	0.2	97	98	418	0.3	417	419	17.3	66.2
2025-07-12T06:52	10	98	0.1	98	98	419	0.4	418	420	17.4	66.1
2025-07-12T06:53	10	99	0.2	98	99	420	0.3	419	421	17.4	66.4
2025-07-12T06:54	10	99	0.2	99	99	420	0.4	419	420	17.2	67.2
2025-07-12T06:55	10	100	0.2	99	100	420	0.4	420	421	17.4	66.7
2025-07-12T06:56	10	100	0.2	100	100	421	0.3	420	421	17.5	65.6
2025-07-12T06:57	10	101	0.1	100	101	422	0.4	421	423	17.6	66.3
2025-07-12T06:58	10	101	0.1	101	101	423	0.5	422	424	17.6	65.8
2025-07-12T06:59	10	102	0.2	101	102	423	0.3	422	424	17.7	65.8
2025-07-12T07:00	10	102	0.2	102	102	423	0.3	422	424	17.6	66.2
2025-07-12T07:01	10	102	0.2	102	103	424	0.3	423	424	17.7	65.7
2025-07-12T07:02	10	103	0.2	102	103	423	0.2	423	424	17.6	65.1
2025-07-12T07:03	10	103	0.2	103	104	424	0.4	423	425	17.7	64.9
2025-07-12T07:04	10	104	0.2	103	104	425	0.4	424	426	17.8	65.7
2025-07-12T07:05	10	104	0.2	104	105	426	0.5	425	427	18.0	65.5
2025-07-12T07:06	10	105	0.2	104	105	425	0.5	424	427	17.9	64.6
2025-07-12T07:07	10	105	0.1	105	105	425	0.5	424	426	17.7	64.8
2025-07-12T07:08	10	105	0.1	105	106	423	0.5	423	425	17.5	64.4
2025-07-12T07:09	10	106	0.1	106	106	424	0.3	423	424	17.4	65.1
2025-07-12T07:10	10	106	0.1	106	107	425	0.5	424	426	17.4	65.5
2025-07-12T07:11	10	107	0.2	106	107	426	0.4	425	427	17.6	65.4
2025-07-12T07:12	10	107	0.1	107	108	427	0.6	425	428	17.7	65.3
2025-07-12T07:13	10	108	0.2	107	108	428	0.5	427	429	17.9	65.3
2025-07-12T07:14	10	108	0.2	108	109	428	0.8	427	430	17.9	65.1
2025-07-12T07:15	10	109	0.2	108	109	429	0.5	428	429	18.0	65.2
2025-07-12T07:16	10	109	0.2	109	109	430	0.6	429	431	18.2	64.6
2025-07-12T07:17	10	110	0.2	109	110	430	0.4	429	431	18.0	63.8
2025-07-12T07:18	10	110	0.2	110	110	429	1.0	428	431	18.2	61.6
2025-07-12T07:19	10	111	0.1	110	111	428	0.5	428	430	18.1	61.5
2025-07-12T07:20	10	111	0.1	111	111	431	0.8	429	432	18.1	61.6
2025-07-12T07:21	10	111	0.2	111	112	431	0.3	430	432	18.0	61.9
2025-07-12T07:22	10	112	0.2	111	112	431	0.2	431	432	18.3	61.5
2025-07-12T07:23	10	112	0.1	112	112	432	0.9	430	433	18.4	61.2
2025-07-12T07:24	10	112	0.1	112	113	431	0.3	430	431	18.1	61.6
2025-07-12T07:25	10	113	0.1	113	113	432	0.4	431	432	18.2	62.0
2025-07-12T07:26	10	113	0.1	113	114	432	0.7	431	433	18.1	62.2
2025-07-12T07:27	10	114	0.2	113	114	432	0.4	432	433	18.0	62.3
2025-07-12T07:28	10	114	0.2	114	115	433	0.4	433	434	18.2	61.6
2025-07-12T07:29	10	115	0.1	114	115	435	0.7	433	436	18.4	60.7
2025-07-12T07:30	10	115	0.1	115	115	434	0.6	433	435	18.4	60.4
2025-07-12T07:31	10	115	0.2	115	116	434	0.6	432	435	18.3	61.0
2025-07-12T07:32	10	116	0.1	116	116	434	0.8	433	435	18.3	61.3
2025-07-12T07:33	10	116	0.2	116	117	434	0.3	434	435	18.2	60.9
2025-07-12T07:34	10	117	0.1	116	117	435	0.4	434	436	18.2	61.2
2025-07-12T07:35	10	117	0.1	117	117	435	0.2	434	435	18.2	60.5
2025-07-12T07:36	10	118	0.2	117	118	436	0.7	435	437	18.4	60.5
2025-07-12T07:37	10	118	0.2	118	118	437	0.3	437	438	18.5	60.3
2025-07-12T07:38	10	118	0.2	118	119	438	0.5	437	439	18.6	60.0
2025-07-12T07:39	10	119	0.2	119	119	440	0.4	439	440	18.8	58.8
2025-07-12T07:40	10	120	0.1	119	120	438	0.8	437	440	18.7	58.1
2025-07-12T07:41	10	120	0.1	120	120	439	0.7	437	440	18.8	58.7
2025-07-12T07:42	10	120	0.2	120	120	441	0.6	440	443	19.1	58.6
2025-07-12T07:43	10	121	0.1	120	121	440	1.0	438	442	18.9	59.0
2025-07-12T07:44	10	121	0.1	121	121	439	0.2	438	440	18.5	60.3
2025-07-12T07:45	10	122	0.2	121	122	441	0.6	439	441	18.7	59.1
2025-07-12T07:46	10	122	0.1	122	122	440	0.5	439	442	18.9	56.9
2025-07-12T07:47	10	122	0.1	122	122	442	0.8	441	443	19.2	57.5
2025-07-12T07:48	10	123	0.2	122	123	441	0.6	440	442	19.2	57.1
2025-07-12T07:49	10	123	0.2	123	123	442	0.4	441	443	19.2	57.9
2025-07-12T07:50	10	124	0.1	123	124	444	0.5	443	445	19.3	58.2
2025-07-12T07:51	10	124	0.1	124	124	443	0.7	442	445	19.1	58.4
2025-07-12T07:52	10	124	0.2	124	125	443	0.5	442	444	18.9	59.0
2025-07-12T07:53	10	125	0.1	125	125	444	0.5	443	445	18.9	59.3
2025-07-12T07:54	10	125	0.2	125	126	446	0.8	444	447	19.2	58.8
2025-07-12T07:55	10	126	0.1	126	126	446	0.9	444	448	19.5	57.3
2025-07-12T07:56	10	126	0.1	126	126	445	0.4	444	446	19.2	57.4
2025-07-12T07:57	10	126	0.1	126	127	445	0.5	444	446	19.2	58.4
2025-07-12T07:58	10	127	0.1	127	127	444	0.7	443	445	19.0	58.7
2025-07-12T07:59	10	127	0.2	127	128	446	0.5	445	447	19.1	58.6
2025-07-12T08:00	10	128	0.1	127	128	445	0.4	445	446	19.2	57.8
2025-07-12T08:01	10	128	0.2	127	128	447	0.8	445	448	19.2	58.4
2025-07-12T08:02	10	128	0.2	128	129	448	0.3	448	449	19.4	58.4
2025-07-12T08:03	10	129	0.2	128	129	448	0.4	447	449	19.6	58.0
2025-07-12T08:04	10	129	0.2	129	130	448	0.3	447	449	19.6	56.9
2025-07-12T08:05	10	129	0.2	129	130	449	0.4	448	449	19.7	56.5
2025-07-12T08:06	10	130	0.2	129	130	449	0.4	449	450	19.6	57.4
2025-07-12T08:07	10	130	0.2	129	131	450	0.4	449	450	19.4	58.0
2025-07-12T08:08	10	130	0.2	130	131	451	0.7	450	452	19.6	57.9
2025-07-12T08:09	10	131	0.1	130	131	452	0.5	451	454	20.0	57.5
2025-07-12T08:10	10	131	0.2	131	131	451	1.4	449	453	19.8	57.3
2025-07-12T08:11	10	131	0.1	131	132	451	0.8	449	452	19.6	58.3
2025-07-12T08:12	10	132	0.1	132	132	451	0.8	449	452	19.5	58.5
2025-07-12T08:13	10	132	0.1	132	132	448	0.9	446	450	19.1	59.2
2025-07-12T08:14	10	132	0.1	132	133	450	0.8	448	451	19.2	59.3
2025-07-12T08:15	10	133	0.2	132	133	451	0.7	450	452	19.3	58.6
2025-07-12T08:16	10	133	0.2	133	134	452	0.8	451	453	19.5	58.5
2025-07-12T08:17	10	134	0.1	133	134	452	0.3	451	452	19.4	58.6
2025-07-12T08:18	10	134	0.1	134	134	453	0.3	452	454	19.7	58.3
2025-07-12T08:19	10	134	0.1	134	135	454	0.7	453	455	19.8	58.0
2025-07-12T08:20	10	135	0.1	134	135	454	0.8	453	455	20.0	56.6
2025-07-12T08:21	10	135	0.2	134	135	456	0.5	455	457	20.2	56.0
2025-07-12T08:22	10	135	0.1	135	136	457	0.3	456	457	20.3	55.1
2025-07-12T08:23	10	135	0.1	135	136	456	0.4	455	457	20.1	55.5
2025-07-12T08:24	10	136	0.1	136	136	455	0.7	455	457	19.9	56.0
2025-07-12T08:25	10	136	0.1	136	137	455	0.3	454	455	19.6	56.6
2025-07-12T08:26	10	137	0.1	136	137	456	0.8	455	458	20.0	56.9
2025-07-12T08:27	10	137	0.1	137	137	458	0.3	457	458	20.3	56.1
2025-07-12T08:28	10	137	0.1	137	137	458	0.3	457	458	20.1	55.7
2025-07-12T08:29	10	137	0.2	137	138	460	0.8	458	461	20.4	55.9
2025-07-12T08:30	10	138	0.2	137	138	460	0.7	459	462	20.7	54.5
2025-07-12T08:31	10	138	0.1	138	139	459	1.9	455	461	20.6	54.3
2025-07-12T08:32	10	139	0.1	138	139	456	0.5	455	457	20.0	55.0
2025-07-12T08:33	10	139	0.1	138	139	457	1.1	456	459	19.9	55.5
2025-07-12T08:34	10	139	0.1	139	139	460	0.5	458	461	20.3	54.9
2025-07-12T08:35	10	139	0.1	139	140	459	0.4	458	460	20.1	54.6
2025-07-12T08:36	10	140	0.1	140	140	460	0.3	459	460	20.0	54.5
2025-07-12T08:37	10	140	0.2	140	141	459	0.4	459	460	19.9	55.4
2025-07-12T08:38	10	140	0.2	140	141	460	0.8	459	462	20.0	54.5
2025-07-12T08:39	10	141	0.2	140	141	463	0.5	462	463	20.4	54.1
2025-07-12T08:40	10	141	0.2	141	141	463	0.4	463	464	20.9	53.4
2025-07-12T08:41	10	141	0.1	141	142	463	0.2	462	463	20.7	52.2
2025-07-12T08:42	10	142	0.1	141	142	463	0.5	462	464	20.6	52.6
2025-07-12T08:43	10	142	0.1	142	142	463	0.9	461	465	20.5	52.6
2025-07-12T08:44	10	142	0.1	142	142	464	0.6	463	465	20.7	52.2
2025-07-12T08:45	10	142	0.1	142	143	464	0.3	464	465	20.6	52.8
2025-07-12T08:46	10	143	0.1	142	143	465	0.6	463	466	20.6	52.6
2025-07-12T08:47	10	143	0.1	143	143	463	0.6	462	465	20.3	52.5
2025-07-12T08:48	10	143	0.1	143	144	464	0.4	463	465	20.3	52.2
2025-07-12T08:49	10	144	0.1	143	144	465	0.8	463	466	20.4	51.9
2025-07-12T08:50	10	144	0.1	144	144	466	0.6	465	467	20.6	51.5
2025-07-12T08:51	10	144	0.1	144	144	464	1.3	462	466	20.4	51.5
2025-07-12T08:52	10	144	0.1	144	145	463	0.6	462	464	20.4	51.6
2025-07-12T08:53	10	145	0.2	145	145	465	0.5	464	466	20.5	50.9
2025-07-12T08:54	10	145	0.1	145	145	466	1.1	465	468	20.5	51.1
2025-07-12T08:55	10	145	0.1	145	146	467	0.4	466	468	20.9	49.9
2025-07-12T08:56	10	146	0.2	145	146	468	0.6	467	469	21.1	49.1
2025-07-12T08:57	10	146	0.1	146	146	468	0.3	467	469	21.0	49.7
2025-07-12T08:58	10	146	0.1	146	147	470	0.9	468	471	21.1	50.1
2025-07-12T08:59	10	147	0.1	146	147	469	0.8	468	471	21.2	48.9
2025-07-12T09:00	10	147	0.1	147	147	470	1.0	468	472	21.2	49.9
2025-07-12T09:01	10	147	0.1	147	147	469	0.6	468	471	21.0	49.6
2025-07-12T09:02	10	147	0.1	147	147	471	0.5	470	472	21.2	50.4
2025-07-12T09:03	10	147	0.1	147	148	470	0.8	469	472	21.0	49.5
2025-07-12T09:04	10	148	0.1	147	148	471	0.6	469	472	21.0	49.5
2025-07-12T09:05	10	148	0.1	148	148	472	0.7	471	473	21.3	50.3
2025-07-12T09:06	10	148	0.1	148	148	472	0.3	472	473	21.4	49.3
2025-07-12T09:07	10	149	0.1	148	149	471	0.3	471	472	21.3	48.2
2025-07-12T09:08	10	149	0.1	149	149	472	0.2	472	473	21.4	48.8
2025-07-12T09:09	10	149	0.1	149	149	472	0.4	471	473	21.6	49.1
2025-07-12T09:10	10	149	0.1	149	150	472	0.8	470	473	21.3	49.8
2025-07-12T09:11	10	150	0.1	149	150	471	0.4	470	472	21.2	49.7
2025-07-12T09:12	10	150	0.1	150	150	471	0.3	470	471	21.3	49.6
2025-07-12T09:13	10	150	0.1	150	151	471	0.3	471	472	21.3	49.4
2025-07-12T09:14	10	151	0.1	150	151	471	0.4	471	472	21.4	49.4
2025-07-12T09:15	10	151	0.1	151	151	473	0.4	472	474	21.3	49.9
2025-07-12T09:16	10	151	0.1	151	151	475	0.3	475	476	21.4	49.8
2025-07-12T09:17	10	151	0.1	151	151	476	0.8	475	477	21.5	49.6
2025-07-12T09:18	10	151	0.1	151	151	475	1.5	473	478	21.8	49.8
2025-07-12T09:19	10	151	0.1	151	152	475	0.7	474	476	21.6	50.3
2025-07-12T09:20	10	151	0.1	151	152	477	0.6	475	478	21.8	49.6
2025-07-12T09:21	10	152	0.1	151	152	476	0.5	475	477	21.7	49.1
2025-07-12T09:22	10	152	0.1	152	152	475	1.0	473	477	21.6	48.7
2025-07-12T09:23	10	152	0.1	152	152	475	0.9	474	477	21.6	49.2
2025-07-12T09:24	10	152	0.1	152	153	474	0.5	473	475	21.6	48.9
2025-07-12T09:25	10	152	0.1	152	153	475	0.3	474	476	21.4	49.3
2025-07-12T09:26	10	153	0.2	152	153	475	0.9	474	478	21.5	48.9
2025-07-12T09:27	10	153	0.2	152	153	477	0.4	476	478	21.6	48.5
2025-07-12T09:28	10	153	0.2	153	154	479	0.8	477	480	21.9	48.5
2025-07-12T09:29	10	154	0.2	153	154	479	0.9	477	481	22.1	48.5
2025-07-12T09:30	10	154	0.2	153	155	480	0.5	479	481	22.4	48.6
2025-07-12T09:31	10	154	0.2	154	154	479	1.0	477	481	22.3	48.0
2025-07-12T09:32	10	154	0.2	154	155	480	0.8	478	481	22.1	47.5
2025-07-12T09:33	10	155	0.2	154	155	478	0.5	477	479	21.8	47.6
2025-07-12T09:34	10	155	0.2	154	155	477	0.4	476	478	21.8	47.6
2025-07-12T09:35	10	155	0.2	155	155	478	0.8	477	480	21.8	48.1
2025-07-12T09:36	10	155	0.2	155	156	478	0.4	478	479	21.7	48.5
2025-07-12T09:37	10	155	0.2	155	156	479	1.2	477	481	21.9	48.5
2025-07-12T09:38	10	156	0.2	155	156	478	0.8	477	479	21.6	48.8
2025-07-12T09:39	10	156	0.2	155	156	480	0.3	479	481	22.0	49.2
2025-07-12T09:40	10	156	0.2	156	156	481	0.7	479	482	22.0	48.3
2025-07-12T09:41	10	156	0.3	156	157	480	0.7	479	481	21.8	48.1
2025-07-12T09:42	10	157	0.2	156	157	480	0.4	479	481	21.7	48.0
2025-07-12T09:43	10	157	0.2	156	158	482	0.5	481	483	21.8	48.3
2025-07-12T09:44	10	157	0.2	157	158	482	0.8	480	484	21.8	48.5
2025-07-12T09:45	10	158	0.2	157	158	481	0.5	480	482	21.9	47.8
2025-07-12T09:46	10	158	0.2	157	158	482	0.8	481	484	21.9	47.5
2025-07-12T09:47	10	158	0.2	158	159	483	0.6	482	484	21.9	47.5
2025-07-12T09:48	10	158	0.3	157	159	483	0.2	483	484	21.9	47.1
2025-07-12T09:49	10	158	0.2	158	159	484	0.3	483	485	22.1	46.4
2025-07-12T09:50	10	159	0.2	158	159	485	0.3	484	485	22.3	46.1
2025-07-12T09:51	10	159	0.2	158	159	485	0.9	483	487	22.2	46.5
2025-07-12T09:52	10	159	0.2	159	159	484	0.7	483	485	22.1	46.7
2025-07-12T09:53	10	159	0.2	159	159	484	0.4	483	485	22.1	46.7
2025-07-12T09:54	10	159	0.2	159	160	485	0.2	484	485	22.4	45.7
2025-07-12T09:55	10	159	0.2	159	160	486	0.3	485	487	22.6	45.0
2025-07-12T09:56	10	160	0.2	159	160	485	0.3	485	486	22.8	44.3
2025-07-12T09:57	10	160	0.2	159	160	485	0.3	485	486	23.0	44.3
2025-07-12T09:58	10	160	0.2	160	160	486	0.2	486	487	22.8	44.1
2025-07-12T09:59	10	160	0.2	160	161	486	0.5	485	487	22.6	44.9
2025-07-12T10:00	10	161	0.2	160	161	487	0.7	485	488	22.5	45.5
2025-07-12T10:01	10	161	0.2	160	161	487	0.6	486	489	22.5	45.7
2025-07-12T10:02	10	161	0.2	161	162	487	0.4	486	488	22.3	45.3
2025-07-12T10:03	10	161	0.2	161	162	487	0.5	486	488	22.4	45.1
2025-07-12T10:04	10	161	0.2	161	162	488	1.0	486	490	22.6	45.0
2025-07-12T10:05	10	162	0.2	161	163	487	0.8	486	489	22.7	44.1
2025-07-12T10:06	10	162	0.2	161	162	490	0.7	488	491	22.9	44.5
2025-07-12T10:07	10	162	0.2	162	162	489	0.8	487	490	22.9	43.6
2025-07-12T10:08	10	162	0.2	161	162	488	0.5	487	489	22.7	44.0
2025-07-12T10:09	10	162	0.2	161	162	489	0.4	488	490	22.6	44.4
2025-07-12T10:10	10	162	0.2	161	163	491	0.7	490	492	22.9	44.4
2025-07-12T10:11	10	162	0.2	162	163	492	0.6	491	493	23.1	44.0
2025-07-12T10:12	10	162	0.1	162	163	492	0.4	491	493	23.0	43.7
2025-07-12T10:13	10	162	0.1	162	163	492	0.6	492	494	23.1	44.6
2025-07-12T10:14	10	163	0.2	162	163	493	0.7	492	495	23.4	44.0
2025-07-12T10:15	10	163	0.2	163	163	494	0.4	493	495	23.4	44.2
2025-07-12T10:16	10	163	0.1	163	163	493	0.8	491	495	23.0	44.1
2025-07-12T10:17	10	163	0.1	163	163	492	0.3	492	493	22.9	44.2
2025-07-12T10:18	10	163	0.1	163	164	493	1.1	492	496	23.0	44.3
2025-07-12T10:19	10	163	0.1	163	164	494	1.2	492	496	23.0	45.0
2025-07-12T10:20	10	164	0.1	163	164	490	1.3	488	493	23.0	42.8
2025-07-12T10:21	10	164	0.1	163	164	491	1.0	489	492	22.4	41.9
2025-07-12T10:22	10	164	0.1	163	164	492	0.4	491	493	23.0	45.0
2025-07-12T10:23	10	164	0.2	164	164	493	1.5	491	496	23.0	45.0
2025-07-12T10:24	10	164	0.2	164	165	493	1.4	491	495	23.0	45.0
2025-07-12T10:25	10	164	0.1	164	165	493	1.1	491	495	23.0	45.0
2025-07-12T10:26	10	165	0.1	164	165	493	0.3	492	493	23.2	42.8
2025-07-12T10:27	10	165	0.1	164	165	494	0.3	493	494	23.4	42.8
2025-07-12T10:28	10	165	0.1	165	165	493	0.4	492	494	23.4	42.8
2025-07-12T10:29	10	165	0.1	165	166	494	0.3	493	494	23.3	42.8
2025-07-12T10:30	10	165	0.2	165	166	495	0.3	495	496	23.3	43.0
2025-07-12T10:31	10	165	0.1	165	165	497	1.2	495	499	23.7	43.5
2025-07-12T10:32	10	165	0.1	165	166	498	0.9	497	500	24.2	42.6
2025-07-12T10:33	10	165	0.1	165	166	496	1.0	494	498	24.0	41.8
2025-07-12T10:34	10	165	0.1	165	165	496	0.6	495	497	23.5	42.3
2025-07-12T10:35	10	165	0.1	165	165	498	0.5	497	499	23.6	43.1
2025-07-12T10:36	10	165	0.1	165	165	498	0.3	498	499	24.0	42.9
2025-07-12T10:37	10	165	0.1	165	165	499	0.3	498	499	24.2	42.0
2025-07-12T10:38	10	165	0.1	165	165	500	0.8	498	501	24.4	41.8
2025-07-12T10:39	10	166	0.1	165	166	500	0.6	498	501	24.5	42.0
2025-07-12T10:40	10	166	0.1	165	166	499	0.7	498	501	24.3	42.7
2025-07-12T10:41	10	166	0.1	166	166	495	3.3	491	501	23.9	42.0
2025-07-12T10:42	10	166	0.1	166	166	495	1.6	493	498	23.8	42.6
2025-07-12T10:43	10	166	0.1	166	166	494	0.4	493	495	23.9	42.5
2025-07-12T10:44	10	166	0.1	166	166	495	0.6	494	496	23.7	42.4
2025-07-12T10:45	10	166	0.1	166	166	498	0.6	496	499	23.6	42.7
2025-07-12T10:46	10	166	0.1	166	166	499	0.8	497	500	23.8	42.7
2025-07-12T10:47	10	166	0.1	166	166	497	1.0	495	499	23.7	42.6
2025-07-12T10:48	10	166	0.1	166	167	496	0.5	495	497	23.4	42.8
2025-07-12T10:49	10	167	0.1	166	167	498	0.5	497	499	23.3	43.0
2025-07-12T10:50	10	167	0.2	167	168	499	0.8	498	500	23.6	42.8
2025-07-12T10:51	10	167	0.1	167	167	498	0.5	498	500	23.4	42.5
2025-07-12T10:52	10	168	0.1	167	168	499	0.8	498	500	23.6	42.4
2025-07-12T10:53	10	167	0.1	167	168	498	0.6	497	499	23.4	42.4
2025-07-12T10:54	10	167	0.1	167	168	497	1.1	495	499	23.5	42.4
2025-07-12T10:55	10	168	0.1	167	168	498	0.6	497	499	23.7	41.9
2025-07-12T10:56	10	168	0.1	168	168	500	0.5	499	501	23.9	41.5
2025-07-12T10:57	10	168	0.1	168	168	501	0.6	500	502	24.0	41.3
2025-07-12T10:58	10	168	0.1	168	168	502	0.5	501	503	23.7	41.8
2025-07-12T10:59	10	168	0.1	168	168	502	0.2	502	503	23.8	42.6
2025-07-12T11:00	10	168	0.1	167	168	503	0.5	502	504	24.1	41.9
2025-07-12T11:01	10	168	0.1	167	168	503	1.2	501	505	24.1	41.8
2025-07-12T11:02	10	168	0.1	167	168	500	0.5	499	501	23.9	41.8
2025-07-12T11:03	10	167	0.1	167	167	501	0.7	500	503	24.1	41.7
2025-07-12T11:04	10	167	0.1	167	168	500	0.7	498	501	24.1	41.4
2025-07-12T11:05	10	167	0.1	167	168	502	0.8	501	504	24.2	41.2
2025-07-12T11:06	10	167	0.2	167	168	503	0.9	501	505	24.3	41.7
2025-07-12T11:07	10	168	0.1	167	168	503	0.8	501	504	24.2	41.5
2025-07-12T11:08	10	167	0.1	167	168	503	0.7	502	504	24.5	41.6
2025-07-12T11:09	10	167	0.1	167	168	504	0.3	503	504	24.5	40.7
2025-07-12T11:10	10	168	0.2	167	168	504	0.3	503	504	24.3	41.2
2025-07-12T11:11	10	168	0.1	168	168	504	0.5	503	505	24.4	41.5
2025-07-12T11:12	10	169	0.1	168	169	505	0.5	504	505	24.2	40.7
2025-07-12T11:13	10	169	0.1	169	169	502	2.4	499	506	24.1	41.0
2025-07-12T11:14	10	169	0.1	169	169	503	1.2	500	504	24.0	41.4
2025-07-12T11:15	10	169	0.1	169	169	505	0.5	504	506	24.4	41.5
2025-07-12T11:16	10	169	0.1	169	169	506	0.4	505	507	24.5	40.5
2025-07-12T11:17	10	169	0.1	169	169	505	0.7	503	506	24.5	40.4
2025-07-12T11:18	10	169	0.1	168	169	504	0.4	503	504	24.3	40.8
2025-07-12T11:19	10	169	0.1	168	169	504	0.3	504	505	24.5	41.2
2025-07-12T11:20	10	169	0.1	169	169	506	0.7	505	507	24.5	40.5
2025-07-12T11:21	10	169	0.1	168	169	507	0.4	506	507	24.7	41.0
2025-07-12T11:22	10	169	0.1	169	169	507	0.3	506	508	24.8	39.8
2025-07-12T11:23	10	169	0.1	169	169	508	0.6	506	508	25.0	40.8
2025-07-12T11:24	10	169	0.1	169	170	505	1.3	503	508	24.7	39.7
2025-07-12T11:25	10	169	0.1	169	169	505	0.4	504	506	24.4	40.2
2025-07-12T11:26	10	169	0.1	169	169	506	0.5	505	507	24.6	40.5
2025-07-12T11:27	10	169	0.1	169	169	508	0.9	507	510	24.8	41.0
2025-07-12T11:28	10	169	0.1	169	169	507	0.7	506	509	24.9	39.9
2025-07-12T11:29	10	169	0.1	169	169	507	0.8	506	509	24.9	39.8
2025-07-12T11:30	10	169	0.1	169	169	507	0.3	506	508	24.8	40.0
2025-07-12T11:31	10	169	0.1	169	169	508	0.4	507	509	24.8	39.8
2025-07-12T11:32	10	169	0.1	169	169	509	1.0	508	511	24.9	40.0
2025-07-12T11:33	10	169	0.1	169	169	508	1.2	506	510	25.1	39.2
2025-07-12T11:34	10	169	0.1	169	169	507	0.5	506	508	25.0	39.2
2025-07-12T11:35	10	169	0.1	168	169	508	0.3	508	509	25.1	39.6
2025-07-12T11:36	10	169	0.1	169	169	510	0.6	509	511	25.4	40.0
2025-07-12T11:37	10	169	0.1	169	169	511	1.2	508	513	25.5	39.0
2025-07-12T11:38	10	169	0.1	169	169	510	0.7	509	511	25.4	39.4
2025-07-12T11:39	10	169	0.1	169	169	510	1.1	508	512	25.6	39.2
2025-07-12T11:40	10	169	0.1	169	169	509	0.5	508	510	25.1	38.8
2025-07-12T11:41	10	169	0.1	169	169	510	0.6	508	511	25.5	39.5
2025-07-12T11:42	10	169	0.2	168	169	509	1.5	506	511	25.7	38.0
2025-07-12T11:43	10	168	0.1	168	169	508	0.5	507	509	25.0	38.5
2025-07-12T11:44	10	168	0.1	168	169	509	0.5	507	509	25.2	39.0
2025-07-12T11:45	10	168	0.2	168	168	511	0.9	509	512	25.4	39.7
2025-07-12T11:46	10	168	0.1	168	168	510	0.7	509	511	25.3	38.6
2025-07-12T11:47	10	169	0.2	168	169	510	0.5	509	511	25.3	39.3
2025-07-12T11:48	10	169	0.1	169	169	511	0.8	510	513	25.4	38.4
2025-07-12T11:49	10	168	0.1	168	169	512	0.7	510	513	25.4	38.4
2025-07-12T11:50	10	169	0.3	168	169	511	0.8	510	513	25.5	38.8
2025-07-12T11:51	10	169	0.1	169	169	508	0.9	507	511	25.7	37.9
2025-07-12T11:52	10	169	0.7	168	172	508	0.8	507	510	25.5	38.5
2025-07-12T11:53	10	169	0.2	168	169	510	1.0	508	512	25.4	38.2
2025-07-12T11:54	10	169	0.1	169	169	511	1.1	509	513	25.4	38.1
2025-07-12T11:55	10	169	0.1	169	169	510	0.8	509	511	25.1	38.3
2025-07-12T11:56	10	169	0.1	169	169	510	0.4	510	511	25.2	38.0
2025-07-12T11:57	10	169	0.1	168	169	511	0.6	510	512	25.3	38.1
2025-07-12T11:58	10	168	0.4	168	169	507	1.8	504	512	25.3	38.0
2025-07-12T11:59	10	168	0.2	168	169	506	1.0	504	508	25.0	38.4
2025-07-12T12:00	10	168	0.2	168	169	510	0.6	508	512	25.4	38.3
2025-07-12T12:01	10	169	0.2	168	169	511	0.5	510	512	25.4	38.2
2025-07-12T12:02	10	169	0.2	169	170	512	0.5	511	513	25.6	37.8
2025-07-12T12:03	10	170	0.1	169	170	513	0.9	512	515	26.1	37.7
2025-07-12T12:04	10	170	0.1	170	170	512	1.2	510	515	25.9	36.9
2025-07-12T12:05	10	170	0.1	170	170	508	1.9	506	512	25.8	36.8
2025-07-12T12:06	10	170	0.1	169	170	508	0.8	506	509	25.4	37.2
2025-07-12T12:07	10	170	0.1	169	170	510	0.9	508	512	25.4	37.4
2025-07-12T12:08	10	170	0.1	170	170	511	0.9	509	513	25.4	37.2
2025-07-12T12:09	10	170	0.1	170	170	511	1.0	510	513	25.2	37.0
2025-07-12T12:10	10	170	0.1	170	170	511	0.7	510	513	25.3	36.8
2025-07-12T12:11	10	170	0.1	169	170	512	1.4	511	515	25.5	36.1
2025-07-12T12:12	10	170	0.1	169	170	511	1.3	509	514	25.6	35.1
2025-07-12T12:13	10	169	0.3	168	170	510	0.3	509	511	25.3	35.9
2025-07-12T12:14	10	168	0.1	168	169	511	0.5	510	512	25.5	36.1
2025-07-12T12:15	10	168	0.2	168	169	514	0.7	512	515	25.9	36.8
2025-07-12T12:16	10	169	0.2	168	169	514	0.6	513	516	26.0	36.0
2025-07-12T12:17	10	168	0.3	168	169	512	2.2	510	516	25.9	34.7
2025-07-12T12:18	10	169	0.2	168	169	507	2.2	504	512	25.3	35.2
2025-07-12T12:19	10	168	0.2	168	169	509	1.1	506	510	25.1	36.0
2025-07-12T12:20	10	169	0.2	168	169	510	0.8	509	512	25.3	36.5
2025-07-12T12:21	10	169	0.1	168	169	514	1.9	511	517	25.8	36.2
2025-07-12T12:22	10	169	0.1	168	169	513	1.3	510	516	26.1	34.4
2025-07-12T12:23	10	169	0.1	169	169	510	1.3	507	513	26.1	33.5
2025-07-12T12:24	10	169	0.1	169	169	508	0.9	506	510	25.5	33.6
2025-07-12T12:25	10	169	0.1	168	169	510	0.5	509	511	25.7	33.3
2025-07-12T12:26	10	168	0.1	168	169	510	0.6	508	510	25.5	34.2
2025-07-12T12:27	10	168	0.1	168	169	511	0.9	510	513	25.5	33.8
2025-07-12T12:28	10	169	0.1	168	169	511	1.2	509	513	25.8	34.1
2025-07-12T12:29	10	169	0.1	168	169	509	0.9	507	510	25.4	35.4
2025-07-12T12:30	10	168	0.2	168	169	509	1.1	508	511	25.4	34.7
2025-07-12T12:31	10	168	0.1	168	168	510	0.7	509	512	25.9	35.3
2025-07-12T12:32	10	168	0.1	167	168	512	0.4	511	513	25.8	33.7
2025-07-12T12:33	10	168	0.1	167	168	510	1.0	509	512	25.6	34.1
2025-07-12T12:34	10	167	0.1	167	168	509	0.4	508	510	25.4	33.6
2025-07-12T12:35	10	167	0.1	167	167	511	1.0	509	513	25.6	34.2
2025-07-12T12:36	10	167	0.1	166	167	512	0.5	511	513	25.7	34.5
2025-07-12T12:37	10	167	0.1	167	167	511	0.3	510	512	25.6	34.2
2025-07-12T12:38	10	167	0.1	167	167	513	0.7	512	515	25.8	34.4
2025-07-12T12:39	10	167	0.1	167	167	515	0.5	514	516	26.1	34.8
2025-07-12T12:40	10	167	0.2	167	168	513	0.8	512	515	26.1	35.3
2025-07-12T12:41	10	167	0.1	167	167	513	1.2	512	516	26.2	35.8
2025-07-12T12:42	10	167	0.1	166	167	509	3.1	504	515	26.4	35.4
2025-07-12T12:43	10	167	0.2	166	167	506	0.4	505	507	25.7	36.7
2025-07-12T12:44	10	166	0.1	166	167	504	0.5	504	505	25.7	37.0
2025-07-12T12:45	10	166	0.1	166	167	506	0.8	505	508	25.6	36.4
2025-07-12T12:46	10	166	0.1	166	167	510	1.4	506	512	25.8	36.0
2025-07-12T12:47	10	166	0.1	166	167	512	1.1	510	514	26.1	35.6
2025-07-12T12:48	10	166	0.1	166	167	511	0.6	510	513	25.7	36.3
2025-07-12T12:49	10	166	0.1	166	167	510	0.6	508	511	25.8	36.3
2025-07-12T12:50	10	166	0.1	166	166	511	1.1	509	513	26.0	36.6
2025-07-12T12:51	10	166	0.1	166	166	513	0.5	512	514	26.4	36.4
2025-07-12T12:52	10	166	0.1	165	166	512	1.8	509	515	26.3	36.5
2025-07-12T12:53	10	166	0.1	165	166	510	1.6	508	514	26.0	36.9
2025-07-12T12:54	10	165	0.1	165	166	511	1.4	509	514	26.1	37.2
2025-07-12T12:55	10	165	0.1	165	166	510	0.6	509	511	26.1	37.3
2025-07-12T12:56	10	165	0.1	165	165	508	1.0	506	510	25.9	37.4
2025-07-12T12:57	10	165	0.1	165	165	510	1.5	507	513	26.1	37.1
2025-07-12T12:58	10	165	0.1	165	165	511	0.8	509	512	25.9	37.1
2025-07-12T12:59	10	165	0.1	165	165	512	0.7	510	513	25.9	37.7
2025-07-12T13:00	10	165	0.1	165	165	512	0.5	511	513	25.8	38.1
2025-07-12T13:01	10	165	0.1	164	165	513	0.5	512	514	25.9	38.0
2025-07-12T13:02	10	165	0.1	164	165	512	0.7	511	514	25.7	37.8
2025-07-12T13:03	10	165	0.1	164	165	512	0.6	511	514	25.9	37.7
2025-07-12T13:04	10	165	0.1	164	165	514	1.1	511	517	26.0	37.6
2025-07-12T13:05	10	164	0.1	164	165	510	0.8	509	511	25.8	37.5
2025-07-12T13:06	10	164	0.1	164	164	510	0.4	509	511	25.7	37.2
2025-07-12T13:07	10	164	0.1	164	164	512	0.5	511	513	25.7	37.3
2025-07-12T13:08	10	163	0.3	163	164	509	0.9	508	512	25.8	37.1
2025-07-12T13:09	10	164	0.2	163	164	511	0.8	509	512	26.1	37.2
2025-07-12T13:10	10	164	0.1	164	164	511	0.6	510	512	26.2	36.3
2025-07-12T13:11	10	164	0.1	164	164	512	0.3	511	512	26.1	36.5
2025-07-12T13:12	10	164	0.2	164	164	510	0.3	510	511	26.0	36.9
2025-07-12T13:13	10	164	0.1	164	164	512	1.1	509	513	26.3	37.8
2025-07-12T13:14	10	164	0.2	164	164	511	0.9	509	513	26.3	37.2
2025-07-12T13:15	10	164	0.2	163	164	508	1.1	507	511	26.4	36.9
2025-07-12T13:16	10	163	0.2	163	164	511	0.7	509	512	26.7	37.0
2025-07-12T13:17	10	163	0.2	163	164	509	1.0	507	511	26.5	36.7
2025-07-12T13:18	10	163	0.2	163	164	504	1.5	502	508	26.3	36.6
2025-07-12T13:19	10	163	0.3	162	164	505	1.1	504	508	26.1	36.9
2025-07-12T13:20	10	162	0.3	161	162	507	0.6	506	509	26.3	36.8
2025-07-12T13:21	10	161	0.1	161	162	510	0.8	509	511	26.4	37.2
2025-07-12T13:22	10	161	0.2	161	161	508	0.8	507	510	26.5	36.8
2025-07-12T13:23	10	161	0.1	161	161	510	1.5	507	512	26.4	36.9
2025-07-12T13:24	10	161	0.2	161	161	512	0.3	511	513	26.7	36.9
2025-07-12T13:25	10	161	0.2	161	162	514	1.2	511	515	26.6	36.6
2025-07-12T13:26	10	162	0.1	161	162	515	0.4	515	516	26.9	36.9
2025-07-12T13:27	10	162	0.1	161	162	514	1.1	512	516	27.2	36.3
2025-07-12T13:28	10	162	0.1	162	162	511	0.7	510	513	26.6	36.9
2025-07-12T13:29	10	162	0.1	161	162	512	2.4	508	515	26.8	36.5
2025-07-12T13:30	10	162	0.1	162	162	508	0.9	507	510	26.4	36.8
2025-07-12T13:31	10	162	0.1	162	162	509	1.3	507	512	26.4	36.8
2025-07-12T13:32	10	162	0.1	162	162	509	2.1	506	512	26.4	37.0
2025-07-12T13:33	10	162	0.1	162	162	507	1.2	504	508	26.4	37.3
2025-07-12T13:34	10	162	0.1	161	162	511	1.1	508	513	26.6	37.0
2025-07-12T13:35	10	161	0.1	161	162	512	0.4	512	513	26.7	36.8
2025-07-12T13:36	10	162	0.1	161	162	511	0.7	510	513	27.1	36.0
2025-07-12T13:37	10	162	0.1	161	162	511	1.0	509	513	26.7	36.5
2025-07-12T13:38	10	161	0.4	160	162	509	1.3	507	511	26.2	37.6
2025-07-12T13:39	10	160	0.3	159	160	510	0.4	509	510	26.2	37.5
2025-07-12T13:40	10	159	0.2	159	159	510	0.6	509	512	26.4	37.0
2025-07-12T13:41	10	159	0.1	159	159	513	1.6	510	516	26.7	37.2
2025-07-12T13:42	10	159	0.1	159	159	513	0.3	513	514	26.9	36.5
2025-07-12T13:43	10	159	0.1	159	159	514	1.0	513	516	27.1	36.7
2025-07-12T13:44	10	159	0.1	159	160	514	0.7	513	515	27.5	36.4
2025-07-12T13:45	10	160	0.1	159	160	514	0.7	513	515	27.5	35.6
2025-07-12T13:46	10	160	0.2	159	160	515	0.3	514	516	27.4	35.8
2025-07-12T13:47	10	159	0.2	159	160	514	1.4	512	516	27.3	36.3
2025-07-12T13:48	10	159	0.2	159	159	511	2.3	508	514	27.2	36.2
2025-07-12T13:49	10	159	0.1	158	159	511	0.6	510	512	27.1	36.0
2025-07-12T13:50	10	159	0.2	158	159	512	0.6	510	513	26.9	35.9
2025-07-12T13:51	10	158	0.1	157	158	513	0.4	513	515	27.0	36.4
2025-07-12T13:52	10	157	0.2	157	158	510	1.5	508	514	26.8	35.7
2025-07-12T13:53	10	157	0.2	156	157	511	0.6	509	512	26.7	36.1
2025-07-12T13:54	10	157	0.2	156	157	510	0.6	509	511	26.6	35.8
2025-07-12T13:55	10	156	0.2	156	157	509	0.7	508	510	26.5	36.4
2025-07-12T13:56	10	156	0.1	156	157	510	0.4	510	512	26.8	36.0
2025-07-12T13:57	10	157	0.1	156	157	511	0.8	510	513	26.9	36.0
2025-07-12T13:58	10	156	0.3	156	157	513	0.3	512	513	27.2	35.7
2025-07-12T13:59	10	156	0.1	156	157	512	0.3	512	513	27.2	35.0
2025-07-12T14:00	10	156	0.1	156	157	512	0.7	511	514	27.3	34.3
2025-07-12T14:01	10	156	0.2	156	157	510	0.9	508	512	27.3	33.9
2025-07-12T14:02	10	156	0.1	156	156	507	0.9	506	509	26.9	34.2
2025-07-12T14:03	10	155	0.4	154	156	507	1.2	505	509	26.9	34.4
2025-07-12T14:04	10	154	0.2	154	155	505	1.2	504	508	26.9	34.2
2025-07-12T14:05	10	154	0.1	154	154	508	0.5	507	509	27.0	34.3
2025-07-12T14:06	10	155	0.2	154	155	509	1.3	507	511	27.1	34.0
2025-07-12T14:07	10	156	1.6	147	157	509	1.2	507	511	27.1	34.1
2025-07-12T14:08	10	104	36.1	22	142	503	4.6	489	510	27.1	34.0
2025-07-12T14:09	10	25	0.7	24	27	482	5.4	474	493	26.9	34.3
2025-07-12T14:10	10	36	14.6	26	78	474	1.2	472	475	26.8	34.7
2025-07-12T14:11	10	123	39.0	51	156	484	8.7	473	498	26.8	34.8
2025-07-12T14:12	10	154	0.3	153	154	501	3.4	494	505	27.1	34.9
2025-07-12T14:13	10	155	1.1	154	157	507	1.5	504	509	27.2	34.1
2025-07-12T14:14	10	160	1.6	157	162	510	1.6	508	513	27.3	33.9
2025-07-12T14:15	10	78	51.3	31	162	500	11.9	481	515	27.5	34.2
2025-07-12T14:16	10	33	0.6	33	35	477	4.3	471	485	26.9	35.1
2025-07-12T14:17	10	62	36.4	34	145	474	3.7	470	480	26.7	35.5
2025-07-12T14:18	10	33	0.4	33	34	469	1.6	466	473	26.7	35.6
2025-07-12T14:19	10	34	0.5	33	35	465	0.7	464	467	26.6	35.6
2025-07-12T14:20	10	36	0.5	35	38	464	0.4	463	465	26.6	35.8
2025-07-12T14:21	10	128	48.0	37	165	475	10.4	461	491	26.8	35.5
2025-07-12T14:22	10	159	1.0	157	161	492	2.7	487	497	26.8	35.5
2025-07-12T14:23	10	157	0.3	156	158	499	1.5	495	501	27.2	35.0
2025-07-12T14:24	10	156	0.3	155	156	500	0.7	498	501	27.0	34.6
2025-07-12T14:25	10	156	0.3	156	157	502	0.9	500	503	27.0	34.6
2025-07-12T14:26	10	156	0.2	156	157	503	1.3	502	506	27.0	35.0
2025-07-12T14:27	10	156	0.4	155	157	506	1.1	505	508	27.0	35.0
2025-07-12T14:28	10	156	0.3	156	157	507	0.6	505	507	27.0	35.2
2025-07-12T14:29	10	156	0.4	154	156	509	0.9	507	511	27.5	34.9
2025-07-12T14:30	10	149	6.3	139	156	510	3.3	503	514	28.1	34.3
2025-07-12T14:31	10	137	15.6	106	159	504	1.6	502	508	27.3	34.5
2025-07-12T14:32	10	158	0.9	155	159	508	1.1	506	509	27.4	35.1
2025-07-12T14:33	10	154	1.2	152	157	509	1.2	507	511	27.8	34.6
2025-07-12T14:34	10	152	0.5	151	153	509	0.9	507	510	27.8	34.4
2025-07-12T14:35	10	151	0.3	150	152	508	0.5	507	509	27.8	34.8
2025-07-12T14:36	10	151	0.2	151	152	507	1.3	504	509	27.7	34.9
2025-07-12T14:37	10	152	0.4	151	154	505	0.5	505	506	27.6	35.1
2025-07-12T14:38	10	152	0.3	152	153	507	0.6	505	508	27.4	35.1
2025-07-12T14:39	10	152	0.2	151	152	504	1.3	501	506	27.5	34.9
2025-07-12T14:40	10	153	0.6	152	154	501	1.7	498	503	27.2	35.2
2025-07-12T14:41	10	154	0.3	153	154	500	0.4	499	502	27.0	35.6
2025-07-12T14:42	10	152	0.7	151	153	504	1.6	501	507	27.5	35.1
2025-07-12T14:43	10	151	0.6	149	151	501	2.1	496	504	27.4	35.2
2025-07-12T14:44	10	151	0.2	151	152	500	1.8	498	504	26.9	35.7
2025-07-12T14:45	10	151	0.2	151	152	501	1.8	497	504	26.8	35.9
2025-07-12T14:46	10	151	0.3	150	151	497	0.5	497	499	26.6	36.3
2025-07-12T14:47	10	149	0.5	149	150	497	0.7	496	499	26.7	36.0
2025-07-12T14:48	10	148	0.5	147	149	497	0.5	496	498	26.9	35.8
2025-07-12T14:49	10	146	0.5	146	147	495	0.3	494	496	27.0	35.3
2025-07-12T14:50	10	146	0.3	145	146	496	0.4	495	497	26.9	35.3
2025-07-12T14:51	10	145	0.2	145	146	496	0.7	495	497	26.8	35.7
2025-07-12T14:52	10	145	0.2	145	146	497	0.8	496	499	27.0	35.4
2025-07-12T14:53	10	145	0.3	144	146	500	0.6	499	501	27.0	35.3
2025-07-12T14:54	10	144	0.2	144	145	500	0.7	499	501	26.9	35.4
2025-07-12T14:55	10	144	0.3	143	145	499	0.8	498	501	26.9	35.5
2025-07-12T14:56	10	144	0.2	143	144	503	1.6	500	505	27.4	35.8
2025-07-12T14:57	10	143	0.5	142	144	501	0.9	500	503	27.6	34.3
2025-07-12T14:58	10	143	0.8	141	144	501	0.5	500	503	27.3	34.7
2025-07-12T14:59	10	143	0.3	142	144	502	0.9	500	503	27.6	34.1
2025-07-12T15:00	10	143	0.3	142	144	500	0.5	499	501	27.2	34.5
2025-07-12T15:01	10	142	0.6	141	143	500	1.7	498	503	27.2	34.6
2025-07-12T15:02	10	140	0.5	139	141	498	0.5	496	499	26.9	34.9
2025-07-12T15:03	10	139	0.2	139	140	499	0.4	498	500	26.9	35.0
2025-07-12T15:04	10	139	0.2	139	140	500	0.6	499	501	26.9	35.0
2025-07-12T15:05	10	139	0.3	138	139	502	1.0	501	504	27.3	35.0
2025-07-12T15:06	10	137	0.6	136	138	503	0.5	501	503	27.4	34.6
2025-07-12T15:07	10	136	0.2	135	136	500	1.2	498	502	27.0	35.0
2025-07-12T15:08	10	135	0.2	135	136	498	0.5	497	499	26.8	35.2
2025-07-12T15:09	10	135	0.2	134	135	499	0.7	498	501	26.8	35.3
2025-07-12T15:10	10	135	0.1	134	135	500	0.6	499	501	27.0	35.1
2025-07-12T15:11	10	135	0.1	135	135	500	0.2	499	500	27.0	35.2
2025-07-12T15:12	10	135	0.1	134	135	500	0.6	499	502	27.2	35.3
2025-07-12T15:13	10	134	0.3	133	134	501	0.5	500	502	27.6	34.6
2025-07-12T15:14	10	133	0.4	132	134	500	0.8	498	502	27.7	34.4
2025-07-12T15:15	10	131	0.4	131	132	497	1.2	495	498	27.6	34.8
2025-07-12T15:16	10	130	0.3	130	131	496	0.4	495	496	27.3	35.3
2025-07-12T15:17	10	129	0.2	129	130	494	0.9	493	496	27.4	35.5
2025-07-12T15:18	10	129	0.2	128	129	494	0.3	493	494	27.5	35.7
2025-07-12T15:19	10	128	0.2	128	129	494	0.4	493	495	27.3	35.4
2025-07-12T15:20	10	128	0.2	128	128	494	0.7	493	496	27.1	35.6
2025-07-12T15:21	10	128	0.1	127	128	497	0.7	496	498	27.6	36.3
2025-07-12T15:22	10	127	0.1	127	128	497	0.6	495	498	27.4	35.3
2025-07-12T15:23	10	127	0.2	127	127	496	0.8	494	497	27.3	35.6
2025-07-12T15:24	10	126	0.2	126	127	495	0.6	494	496	27.3	35.5
2025-07-12T15:25	10	126	0.2	126	126	493	2.8	489	497	27.3	35.7
2025-07-12T15:26	10	126	0.3	125	126	487	0.4	487	489	26.8	36.1
2025-07-12T15:27	10	125	0.2	125	125	489	1.2	488	491	26.8	36.2
2025-07-12T15:28	10	124	0.1	124	125	491	0.4	490	492	26.9	36.3
2025-07-12T15:29	10	124	0.1	124	124	492	0.6	491	493	27.0	36.4
2025-07-12T15:30	10	124	0.1	124	124	494	1.5	492	497	27.4	36.1
2025-07-12T15:31	10	124	0.1	123	124	495	0.4	494	496	27.7	35.3
2025-07-12T15:32	10	123	0.1	123	124	491	1.3	489	495	27.3	34.8
2025-07-12T15:33	10	123	0.2	123	123	490	1.4	488	492	27.5	34.8
2025-07-12T15:34	10	123	0.1	123	123	490	0.5	489	491	27.0	35.3
2025-07-12T15:35	10	123	0.1	122	123	491	0.5	490	492	27.0	35.3
2025-07-12T15:36	10	122	0.2	122	123	487	2.3	485	491	27.1	35.2
2025-07-12T15:37	10	122	0.2	121	122	488	1.4	485	490	27.0	35.6
2025-07-12T15:38	10	121	0.2	121	121	488	0.4	488	489	27.0	35.4
2025-07-12T15:39	10	121	0.1	121	121	490	1.0	488	492	27.3	35.3
2025-07-12T15:40	10	120	0.1	120	121	491	1.2	488	492	27.6	34.5
2025-07-12T15:41	10	120	0.2	120	121	486	0.9	485	489	27.2	34.8
2025-07-12T15:42	10	120	0.2	119	120	487	1.0	485	489	27.2	35.0
2025-07-12T15:43	10	119	0.2	119	119	487	0.7	485	488	27.3	35.0
2025-07-12T15:44	10	119	0.1	118	119	488	0.4	487	489	27.2	35.0
2025-07-12T15:45	10	118	0.2	118	119	488	0.6	487	490	27.2	35.1
2025-07-12T15:46	10	118	0.1	118	119	488	1.0	487	490	27.1	34.9
2025-07-12T15:47	10	118	0.2	117	118	487	0.7	486	488	27.0	35.1
2025-07-12T15:48	10	117	0.2	117	118	488	0.6	487	489	27.0	35.1
2025-07-12T15:49	10	117	0.2	116	117	489	0.5	488	490	27.3	35.1
2025-07-12T15:50	10	116	0.2	116	117	488	0.6	486	489	27.4	35.0
2025-07-12T15:51	10	116	0.1	116	116	488	0.5	487	489	27.3	35.3
2025-07-12T15:52	10	116	0.1	115	116	489	0.9	486	490	27.5	34.9
2025-07-12T15:53	10	115	0.2	115	116	484	0.7	483	486	27.2	34.5
2025-07-12T15:54	10	115	0.2	115	115	485	0.7	484	486	27.1	34.6
2025-07-12T15:55	10	115	0.2	114	115	486	0.5	485	487	27.3	34.3
2025-07-12T15:56	10	114	0.2	114	115	487	0.5	486	488	27.3	34.6
2025-07-12T15:57	10	114	0.2	113	114	488	0.4	487	488	27.4	34.9
2025-07-12T15:58	10	113	0.2	113	114	486	0.7	484	488	27.3	34.5
2025-07-12T15:59	10	113	0.3	112	113	482	1.2	481	485	27.3	34.4
2025-07-12T16:00	10	112	0.3	111	113	482	0.4	481	483	27.0	34.7
2025-07-12T16:01	10	111	0.1	111	112	484	0.8	482	485	27.1	34.5
2025-07-12T16:02	10	111	0.2	111	111	485	0.3	484	486	27.2	34.8
2025-07-12T16:03	10	111	0.2	110	111	486	0.5	485	487	27.3	34.9
2025-07-12T16:04	10	110	0.1	110	111	487	0.4	486	488	27.5	34.3
2025-07-12T16:05	10	110	0.2	110	111	485	1.8	482	488	27.2	34.2
2025-07-12T16:06	10	110	0.3	109	110	483	0.6	482	485	27.0	34.6
2025-07-12T16:07	10	109	0.1	109	109	485	0.4	484	485	27.2	34.3
2025-07-12T16:08	10	109	0.1	108	109	486	0.5	485	487	27.5	34.2
2025-07-12T16:09	10	108	0.1	108	108	486	1.0	484	487	27.7	33.5
2025-07-12T16:10	10	108	0.2	107	108	483	0.7	482	484	27.4	33.6
2025-07-12T16:11	10	107	0.2	107	108	483	0.5	482	484	27.3	33.9
2025-07-12T16:12	10	107	0.2	106	107	482	0.7	480	483	27.4	33.5
2025-07-12T16:13	10	106	0.2	106	107	483	0.9	481	485	27.6	33.5
2025-07-12T16:14	10	106	0.2	106	106	482	0.4	481	483	27.4	33.1
2025-07-12T16:15	10	106	0.1	105	106	482	0.5	481	483	27.3	33.1
2025-07-12T16:16	10	105	0.2	105	105	482	0.6	481	483	27.3	33.2
2025-07-12T16:17	10	105	0.2	104	105	480	0.7	479	481	27.1	33.2
2025-07-12T16:18	10	104	0.2	104	104	481	0.6	480	482	27.2	33.4
2025-07-12T16:19	10	104	0.1	103	104	481	0.5	481	482	27.4	33.0
2025-07-12T16:20	10	103	0.1	103	103	482	0.4	481	483	27.5	33.0
2025-07-12T16:21	10	103	0.1	103	103	482	0.7	480	483	28.3	32.2
2025-07-12T16:22	10	102	0.1	102	103	481	0.6	479	482	27.9	32.1
2025-07-12T16:23	10	102	0.2	102	102	480	0.3	479	480	27.6	32.4
2025-07-12T16:24	10	101	0.2	101	102	481	0.3	480	481	27.9	32.5
2025-07-12T16:25	10	101	0.2	100	101	481	0.3	481	482	28.2	32.1
2025-07-12T16:26	10	100	0.2	100	101	481	0.3	480	482	28.1	32.3
2025-07-12T16:27	10	100	0.1	100	100	481	0.3	481	482	27.9	32.2
2025-07-12T16:28	10	99	0.2	99	100	479	1.6	476	482	27.6	32.3
2025-07-12T16:29	10	99	0.2	98	99	478	0.5	477	479	27.3	32.8
2025-07-12T16:30	10	98	0.2	98	98	479	0.5	478	480	27.4	32.8
2025-07-12T16:31	10	97	0.2	97	98	479	0.3	479	480	27.7	32.7
2025-07-12T16:32	10	97	0.2	96	97	479	0.3	478	480	27.8	32.8
2025-07-12T16:33	10	96	0.2	96	96	479	0.3	478	480	27.9	32.1
2025-07-12T16:34	10	96	0.1	95	96	480	0.4	479	480	27.9	32.0
2025-07-12T16:35	10	95	0.1	95	95	479	0.3	478	480	28.0	32.4
2025-07-12T16:36	10	95	0.2	94	95	477	1.5	475	479	28.0	32.4
2025-07-12T16:37	10	94	0.2	94	95	476	0.3	475	477	27.9	32.4
2025-07-12T16:38	10	94	0.2	93	94	477	0.3	476	478	28.0	32.4
2025-07-12T16:39	10	93	0.2	93	94	476	0.3	475	476	27.7	32.5
2025-07-12T16:40	10	93	0.2	92	93	475	0.5	474	476	27.8	32.5
2025-07-12T16:41	10	92	0.2	92	93	474	0.9	473	476	27.8	32.6
2025-07-12T16:42	10	92	0.2	91	92	473	0.6	471	474	27.5	33.2
2025-07-12T16:43	10	91	0.3	90	92	472	0.7	471	474	27.5	33.2
2025-07-12T16:44	10	90	0.2	90	91	473	0.6	471	474	27.4	33.2
2025-07-12T16:45	10	90	0.3	89	91	472	0.3	472	473	27.2	33.4
2025-07-12T16:46	10	89	0.3	89	90	473	0.3	472	474	27.2	33.5
2025-07-12T16:47	10	89	0.3	88	90	473	0.2	473	474	27.1	33.5
2025-07-12T16:48	10	88	0.3	88	89	472	0.3	472	473	27.1	33.7
2025-07-12T16:49	10	88	0.3	87	88	473	0.6	472	474	27.3	33.9
2025-07-12T16:50	10	87	0.2	87	88	473	0.4	472	474	27.3	33.8
2025-07-12T16:51	10	87	0.3	86	87	473	0.3	473	474	27.5	34.7
2025-07-12T16:52	10	86	0.2	85	86	472	0.8	471	474	27.6	34.8
2025-07-12T16:53	10	85	0.3	85	86	469	1.4	467	472	27.3	34.9
2025-07-12T16:54	10	85	0.3	84	86	469	0.4	468	470	27.1	35.5
2025-07-12T16:55	10	84	0.4	83	85	468	0.6	467	470	27.1	35.6
2025-07-12T16:56	10	83	0.2	83	84	468	1.1	466	470	27.2	35.7
2025-07-12T16:57	10	83	0.3	83	84	466	0.5	465	467	27.1	35.7
2025-07-12T16:58	10	82	0.4	82	83	466	0.4	466	467	26.9	35.9
2025-07-12T16:59	10	82	0.2	81	82	468	0.5	467	468	27.1	36.4
2025-07-12T17:00	10	81	0.3	80	82	467	0.4	466	468	27.2	36.3
2025-07-12T17:01	10	80	0.3	80	81	468	0.9	466	469	27.3	36.5
2025-07-12T17:02	10	80	0.3	79	81	467	0.6	466	468	27.3	35.7
2025-07-12T17:03	10	79	0.3	79	80	467	0.3	466	467	27.4	35.6
2025-07-12T17:04	10	79	0.2	79	80	466	0.4	465	467	27.2	35.6
2025-07-12T17:05	10	78	0.3	78	79	466	0.5	464	467	27.3	35.5
2025-07-12T17:06	10	78	0.3	77	79	465	0.5	464	466	27.0	35.7
2025-07-12T17:07	10	77	0.2	77	78	464	0.5	463	465	27.1	35.7
2025-07-12T17:08	10	76	0.4	76	77	463	0.5	462	464	27.1	35.6
2025-07-12T17:09	10	76	0.2	76	77	464	0.5	463	465	27.3	36.0
2025-07-12T17:10	10	75	0.3	75	76	465	0.7	463	466	27.5	35.2
2025-07-12T17:11	10	75	0.3	75	76	463	0.7	462	464	27.3	35.0
2025-07-12T17:12	10	75	0.4	74	76	462	0.4	460	462	27.0	35.3
2025-07-12T17:13	10	74	0.2	74	75	462	0.3	461	462	27.0	35.7
2025-07-12T17:14	10	73	0.2	73	74	462	0.4	461	462	27.1	35.5
2025-07-12T17:15	10	73	0.2	73	74	461	0.5	460	463	27.2	35.6
2025-07-12T17:16	10	73	0.2	72	73	461	0.2	461	462	27.1	35.2
2025-07-12T17:17	10	72	0.3	71	72	461	0.3	461	462	27.2	35.5
2025-07-12T17:18	10	71	0.2	71	72	462	0.4	461	463	27.4	35.5
2025-07-12T17:19	10	71	0.2	70	71	461	0.4	461	462	27.3	35.8
2025-07-12T17:20	10	70	0.2	70	71	461	0.3	460	461	27.2	35.6
2025-07-12T17:21	10	70	0.2	69	70	460	0.7	459	461	27.1	35.1
2025-07-12T17:22	10	69	0.2	69	70	459	0.5	458	460	27.0	35.4
2025-07-12T17:23	10	68	0.2	68	69	458	0.3	457	459	26.8	35.5
2025-07-12T17:24	10	68	0.2	67	68	458	0.4	457	458	26.7	35.6
2025-07-12T17:25	10	67	0.2	67	68	458	0.3	458	459	26.9	35.7
2025-07-12T17:26	10	67	0.2	66	67	458	0.3	457	459	26.9	35.6
2025-07-12T17:27	10	66	0.2	66	67	458	0.2	458	459	27.1	35.4
2025-07-12T17:28	10	65	0.3	65	66	457	0.8	455	458	26.9	35.3
2025-07-12T17:29	10	64	0.2	64	65	455	0.3	455	456	26.6	35.8
2025-07-12T17:30	10	64	0.2	63	64	455	0.2	455	456	26.8	35.9
2025-07-12T17:31	10	63	0.1	63	64	455	0.3	455	456	26.8	36.0
2025-07-12T17:32	10	63	0.2	63	63	455	0.3	454	456	26.8	35.9
2025-07-12T17:33	10	62	0.2	62	63	455	0.3	454	456	26.8	36.2
2025-07-12T17:34	10	62	0.2	61	62	455	0.3	454	456	26.9	36.1
2025-07-12T17:35	10	61	0.3	60	61	454	0.3	454	455	26.8	36.2
2025-07-12T17:36	10	60	0.3	59	61	454	0.3	454	455	26.9	36.1
2025-07-12T17:37	10	59	0.2	59	60	455	0.3	454	455	27.0	36.2
2025-07-12T17:38	10	58	0.2	58	59	453	0.3	453	454	26.9	36.2
2025-07-12T17:39	10	58	0.2	57	58	454	0.4	453	455	27.0	36.4
2025-07-12T17:40	10	57	0.2	57	58	453	0.3	453	455	26.9	36.1
2025-07-12T17:41	10	57	0.2	56	57	453	0.4	452	453	26.8	35.9
2025-07-12T17:42	10	56	0.2	56	57	452	0.2	451	452	26.7	35.9
2025-07-12T17:43	10	56	0.1	55	56	451	0.3	451	452	26.7	36.0
2025-07-12T17:44	10	55	0.2	55	55	450	0.2	450	451	26.6	36.4
2025-07-12T17:45	10	54	0.5	53	55	450	0.3	449	451	26.5	36.3
2025-07-12T17:46	10	53	0.3	52	53	450	0.2	449	450	26.5	36.4
2025-07-12T17:47	10	52	0.3	51	53	450	0.2	450	451	26.6	36.5
2025-07-12T17:48	10	51	0.3	50	51	449	0.3	449	450	26.6	36.4
2025-07-12T17:49	10	51	0.1	50	51	449	0.3	449	450	26.6	36.8
2025-07-12T17:50	10	50	0.2	50	51	450	0.4	449	450	26.7	37.1
2025-07-12T17:51	10	50	0.3	49	50	449	0.4	448	450	26.7	36.9
2025-07-12T17:52	10	48	0.4	48	49	448	0.3	447	449	26.5	36.8
2025-07-12T17:53	10	48	0.1	48	48	447	0.2	447	448	26.4	36.8
2025-07-12T17:54	10	48	0.2	47	48	447	0.2	447	448	26.4	37.0
2025-07-12T17:55	10	47	0.2	47	47	447	0.2	446	447	26.4	37.0
2025-07-12T17:56	10	46	0.2	46	47	447	0.2	446	447	26.4	37.1
2025-07-12T17:57	10	46	0.2	45	46	447	0.3	446	447	26.5	37.1
2025-07-12T17:58	10	45	0.2	45	45	446	0.2	446	447	26.4	36.8
2025-07-12T17:59	10	44	0.2	44	45	446	0.2	445	446	26.4	36.7
2025-07-12T18:00	10	44	0.2	43	44	445	0.2	445	446	26.4	36.9
2025-07-12T18:01	10	43	0.2	43	44	445	0.2	445	446	26.4	36.9
2025-07-12T18:02	10	43	0.3	42	43	445	0.3	444	445	26.4	36.8
2025-07-12T18:03	10	42	0.3	41	43	445	0.3	444	445	26.3	36.8
2025-07-12T18:04	10	41	0.3	40	42	444	0.2	444	445	26.3	37.1
2025-07-12T18:05	10	40	0.3	39	41	444	0.2	443	444	26.3	37.1
2025-07-12T18:06	10	39	0.3	39	40	443	0.3	443	444	26.3	37.3
2025-07-12T18:07	10	38	0.5	37	39	443	0.3	442	444	26.3	37.5
2025-07-12T18:08	10	37	0.5	36	38	443	0.2	442	443	26.3	37.5
2025-07-12T18:09	10	35	0.5	34	36	442	0.3	442	443	26.3	37.5
2025-07-12T18:10	10	36	0.1	36	36	442	0.2	442	442	26.3	37.7
2025-07-12T18:11	10	36	0.2	35	36	442	0.2	441	442	26.3	37.8
2025-07-12T18:12	10	35	0.1	35	35	442	0.2	441	442	26.3	37.8
2025-07-12T18:13	10	35	0.2	35	35	441	0.2	441	442	26.3	37.9
2025-07-12T18:14	10	34	0.2	34	35	441	0.2	441	441	26.3	37.6
2025-07-12T18:15	10	34	0.2	33	34	441	0.3	440	441	26.3	37.6
2025-07-12T18:16	10	33	0.2	33	34	440	0.2	440	441	26.2	37.9
2025-07-12T18:17	10	32	0.2	32	33	440	0.2	439	440	26.3	37.9
2025-07-12T18:18	10	32	0.2	32	32	440	0.3	439	440	26.2	37.8
2025-07-12T18:19	10	31	0.2	31	32	440	0.3	439	441	26.2	37.6
2025-07-12T18:20	10	31	0.2	30	31	439	0.2	439	440	26.2	37.6
2025-07-12T18:21	10	30	0.2	30	30	439	0.3	438	439	26.2	37.7
2025-07-12T18:22	10	29	0.2	29	30	438	0.3	438	439	26.2	38.0
2025-07-12T18:23	10	29	0.2	29	29	438	0.2	438	439	26.2	38.2
2025-07-12T18:24	10	28	0.2	28	29	438	0.3	437	438	26.1	38.2
2025-07-12T18:25	10	28	0.2	27	28	438	0.3	437	438	26.1	38.2
2025-07-12T18:26	10	27	0.2	27	28	437	0.2	437	438	26.1	38.4
2025-07-12T18:27	10	27	0.2	26	27	437	0.3	436	437	26.1	38.5
2025-07-12T18:28	10	26	0.2	26	26	436	0.3	436	437	26.0	38.7
2025-07-12T18:29	10	25	0.2	25	26	436	0.2	436	437	26.0	38.8
2025-07-12T18:30	10	25	0.2	24	25	436	0.3	435	436	26.0	39.0
2025-07-12T18:31	10	24	0.2	24	25	435	0.2	435	436	26.0	39.0
2025-07-12T18:32	10	24	0.2	23	24	435	0.2	434	435	26.0	39.0
2025-07-12T18:33	10	23	0.2	23	24	435	0.2	434	435	26.0	39.0
2025-07-12T18:34	10	22	0.2	22	23	434	0.3	434	435	26.0	39.2
2025-07-12T18:35	10	22	0.2	22	22	434	0.2	433	434	25.9	39.3
2025-07-12T18:36	10	21	0.2	21	22	433	0.2	433	434	25.9	39.6
2025-07-12T18:37	10	21	0.2	20	21	433	0.3	432	434	25.9	39.3
2025-07-12T18:38	10	20	0.2	20	21	433	0.4	432	433	25.9	39.3
2025-07-12T18:39	10	19	0.2	19	20	432	0.3	431	433	25.9	39.6
2025-07-12T18:40	10	19	0.2	19	19	432	0.3	431	432	25.8	39.4
2025-07-12T18:41	10	18	0.2	18	19	432	0.2	431	432	25.8	39.3
2025-07-12T18:42	10	18	0.2	17	18	431	0.3	431	432	25.8	39.6
2025-07-12T18:43	10	17	0.2	17	18	431	0.2	430	431	25.8	39.8
2025-07-12T18:44	10	17	0.2	16	17	430	0.3	429	431	25.7	40.0
2025-07-12T18:45	10	16	0.2	16	16	430	0.2	429	430	25.7	40.2
2025-07-12T18:46	10	16	0.2	15	16	429	0.3	429	430	25.7	39.9
2025-07-12T18:47	10	15	0.1	15	15	429	0.3	428	429	25.7	40.1
2025-07-12T18:48	10	15	0.2	14	15	429	0.3	428	429	25.6	40.4
2025-07-12T18:49	10	14	0.1	14	14	428	0.2	427	428	25.6	40.7
2025-07-12T18:50	10	14	0.2	13	14	427	0.3	427	428	25.5	40.8
2025-07-12T18:51	10	13	0.2	13	14	426	0.2	426	427	25.5	40.5
2025-07-12T18:52	10	13	0.2	12	13	426	0.2	426	427	25.6	40.5
2025-07-12T18:53	10	12	0.2	11	12	426	0.3	425	426	25.5	40.6
2025-07-12T18:54	10	11	0.3	10	12	426	0.3	425	426	25.5	40.7
2025-07-12T18:55	10	10	0.3	9	11	425	0.2	425	426	25.5	40.8
2025-07-12T18:56	10	9	0.3	8	10	425	0.3	424	425	25.4	40.9
2025-07-12T18:57	10	8	0.3	8	9	424	0.4	424	425	25.4	41.0
2025-07-12T18:58	10	7	0.2	7	8	424	0.3	424	425	25.4	41.3
2025-07-12T18:59	10	7	0.2	6	7	424	0.3	423	424	25.3	41.4
2025-07-12T19:00	10	6	0.1	6	6	423	0.2	423	424	25.3	41.4
2025-07-12T19:01	10	6	0.1	6	6	423	0.4	422	423	25.3	41.5
2025-07-12T19:02	10	6	0.1	5	6	422	0.2	422	423	25.3	41.5
2025-07-12T19:03	10	5	0.2	5	6	422	0.4	421	423	25.3	41.5
2025-07-12T19:04	10	4	0.3	4	5	423	0.2	422	423	25.3	41.3
2025-07-12T19:05	10	3	0.3	3	4	423	0.2	422	423	25.2	41.6
2025-07-12T19:06	10	3	0.2	2	3	422	0.3	421	423	25.2	41.7
2025-07-12T19:07	10	2	0.1	2	3	421	0.4	421	422	25.1	42.0
2025-07-12T19:08	10	3	0.3	2	3	420	0.3	420	421	25.0	42.4
2025-07-12T19:09	10	2	0.2	2	3	420	0.3	420	421	25.0	42.4
2025-07-12T19:10	10	2	0.2	2	3	419	0.4	419	420	25.0	42.5
2025-07-12T19:11	10	2	0.2	1	3	419	0.6	418	421	25.0	42.5
2025-07-12T19:12	10	2	0.1	2	2	421	0.5	420	422	25.0	42.4
2025-07-12T19:13	10	2	0.3	1	3	421	0.4	420	422	25.0	42.7
2025-07-12T19:14	10	2	0.2	2	3	420	0.3	420	421	24.8	43.2
2025-07-12T19:15	10	2	0.3	1	3	420	0.2	419	420	24.8	43.2
2025-07-12T19:16	10	2	0.2	1	2	420	0.3	419	420	24.8	43.5
2025-07-12T19:17	10	2	0.2	1	2	420	0.2	419	420	24.8	43.5
2025-07-12T19:18	10	2	0.1	1	2	419	0.4	418	419	24.7	43.7
2025-07-12T19:19	10	2	0.1	1	2	418	0.3	417	418	24.5	44.6
2025-07-12T19:20	10	1	0.1	1	2	417	0.3	416	418	24.4	44.9
2025-07-12T19:21	10	1	0.1	1	2	417	0.3	416	417	24.3	45.2
2025-07-12T19:22	10	1	0.1	1	2	416	0.2	416	417	24.1	46.3
2025-07-12T19:23	10	1	0.1	1	1	416	0.2	415	416	24.1	46.1
2025-07-12T19:24	10	1	0.1	1	1	416	0.2	416	417	24.3	45.5
2025-07-12T19:25	10	1	0.1	1	1	416	0.3	415	416	24.3	45.2
2025-07-12T19:26	10	1	0.1	1	1	415	0.2	415	415	24.3	45.5
2025-07-12T19:27	10	1	0.1	1	1	415	0.2	415	416	24.3	45.7
2025-07-12T19:28	10	1	0.1	1	1	415	0.2	414	415	24.2	45.8
2025-07-12T19:29	10	1	0.1	1	1	414	0.2	414	415	24.2	46.0
2025-07-12T19:30	10	1	0.1	0	1	415	0.2	414	415	24.1	46.2
2025-07-12T19:31	10	1	0.1	0	1	415	0.2	414	415	24.1	46.0
2025-07-12T19:32	10	0	0.1	0	1	415	0.2	414	415	24.1	46.2
2025-07-12T19:33	10	0	0.1	0	1	415	0.2	414	415	24.0	46.5
2025-07-12T19:34	10	0	0.1	0	1	415	0.4	414	416	24.0	46.7
2025-07-12T19:35	10	0	0.1	0	1	416	0.6	415	417	24.1	46.9
2025-07-12T19:36	10	0	0.1	0	1	417	0.3	416	417	24.1	46.9
2025-07-12T19:37	10	0	0.1	0	1	417	0.4	416	417	24.1	47.2
2025-07-12T19:38	10	0	0.1	0	1	417	0.4	417	418	24.0	47.4
2025-07-12T19:39	10	0	0.1	0	0	418	0.3	417	418	23.9	48.0
2025-07-12T19:40	10	0	0.0	0	1	418	0.2	417	418	23.5	48.3
2025-07-12T19:41	10	0	0.1	0	0	418	0.2	417	418	23.5	48.7
2025-07-12T19:42	10	0	0.1	0	0	418	0.3	418	419	23.4	48.8
2025-07-12T19:43	10	0	0.1	0	0	418	0.3	418	419	23.4	48.6
2025-07-12T19:44	10	0	0.1	0	0	418	0.2	418	419	23.4	48.7
2025-07-12T19:45	10	0	0.1	0	0	419	0.2	418	419	23.5	48.2
2025-07-12T19:46	10	0	0.0	0	0	419	0.3	418	419	23.6	47.8
2025-07-12T19:47	10	0	0.1	0	0	419	0.2	419	420	23.7	47.5
2025-07-12T19:48	10	0	0.0	0	0	419	0.2	419	420	23.9	47.0
2025-07-12T19:49	10	0	0.1	0	0	419	0.2	418	419	24.0	46.7
2025-07-12T19:50	10	0	0.1	0	0	419	0.2	419	420	24.0	46.3
2025-07-12T19:51	10	0	0.1	0	0	419	0.3	418	420	24.0	46.6
2025-07-12T19:52	10	0	0.1	0	0	419	0.2	418	420	24.0	46.5
2025-07-12T19:53	10	0	0.1	0	1	419	0.2	419	419	24.0	46.6
2025-07-12T19:54	10	0	0.1	0	0	418	0.4	417	419	23.9	46.7
2025-07-12T19:55	10	0	0.1	0	1	418	0.2	418	419	23.9	46.6
2025-07-12T19:56	10	0	0.2	0	1	418	0.3	417	418	23.9	46.8
2025-07-12T19:57	10	0	0.2	0	1	417	0.4	416	418	23.8	47.0
2025-07-12T19:58	10	0	0.1	0	0	416	0.3	416	417	23.8	47.0
2025-07-12T19:59	10	0	0.2	0	1	415	0.4	414	416	23.6	48.1
2025-07-12T20:00	10	0	0.2	0	1	414	0.4	413	415	23.4	48.9
2025-07-12T20:01	10	0	0.1	0	1	414	0.3	413	415	23.3	49.3
2025-07-12T20:02	10	0	0.2	0	1	413	0.2	412	414	23.2	49.8
2025-07-12T20:03	10	0	0.1	0	1	413	0.2	412	413	23.2	49.1
2025-07-12T20:04	10	0	0.1	0	0	413	0.2	412	413	23.1	50.0
2025-07-12T20:05	10	0	0.1	0	0	413	0.3	412	414	23.1	49.9
2025-07-12T20:06	10	0	0.1	0	0	413	0.2	412	413	23.1	49.3
2025-07-12T20:07	10	0	0.1	0	0	413	0.3	413	414	23.1	49.1
2025-07-12T20:08	10	0	0.1	0	0	413	0.2	413	414	23.1	48.9
2025-07-12T20:09	10	0	0.1	0	0	413	0.3	413	414	23.2	48.5
2025-07-12T20:10	10	0	0.1	0	0	414	0.2	413	414	23.3	47.7
2025-07-12T20:11	10	0	0.1	0	0	414	0.3	413	414	23.3	47.9
2025-07-12T20:12	10	0	0.1	0	0	414	0.3	412	414	23.3	47.8
2025-07-12T20:13	10	0	0.0	0	0	414	0.3	413	414	23.4	47.5
2025-07-12T20:14	10	0	0.1	0	0	413	0.2	413	414	23.4	47.6
2025-07-12T20:15	10	0	0.0	0	0	414	0.3	413	414	23.4	47.1
2025-07-12T20:16	10	0	0.1	0	0	414	0.3	413	414	23.4	46.6
2025-07-12T20:17	10	0	0.1	0	0	414	0.2	414	415	23.5	46.2
2025-07-12T20:18	10	0	0.1	0	0	415	0.5	414	416	23.5	45.7
2025-07-12T20:19	10	0	0.1	0	0	415	0.3	415	416	23.5	45.7
2025-07-12T20:20	10	0	0.1	0	0	416	0.3	415	416	23.5	45.5
2025-07-12T20:21	10	0	0.1	0	0	415	0.3	414	416	23.5	46.0
2025-07-12T20:22	10	0	0.1	0	0	415	0.2	415	416	23.4	46.2
2025-07-12T20:23	10	0	0.1	0	0	415	0.2	414	415	23.4	46.6
2025-07-12T20:24	10	0	0.1	0	0	414	0.3	414	415	23.4	46.5
2025-07-12T20:25	10	0	0.1	0	0	414	0.3	414	415	23.3	46.6
2025-07-12T20:26	10	0	0.1	0	0	413	0.4	413	414	23.3	46.8
2025-07-12T20:27	10	0	0.1	0	0	413	0.3	412	413	23.1	47.4
2025-07-12T20:28	10	0	0.1	0	0	412	0.3	412	413	23.1	47.4
2025-07-12T20:29	10	0	0.1	0	0	412	0.4	411	413	23.1	47.4
2025-07-12T20:30	10	0	0.1	0	0	411	0.4	410	412	23.1	47.5
2025-07-12T20:31	10	0	0.1	0	0	411	0.3	410	412	23.1	47.3
2025-07-12T20:32	10	0	0.1	0	0	411	0.3	411	412	23.1	47.2
2025-07-12T20:33	10	0	0.1	0	0	410	0.4	409	411	23.1	47.3
2025-07-12T20:34	10	0	0.1	0	0	410	0.2	409	410	23.1	47.3
2025-07-12T20:35	10	0	0.1	0	0	410	0.3	409	410	23.0	47.3
2025-07-12T20:36	10	0	0.1	0	0	410	0.3	409	410	23.0	47.2
2025-07-12T20:37	10	0	0.1	0	0	408	0.4	408	409	23.0	47.5
2025-07-12T20:38	10	0	0.1	0	0	408	0.3	407	408	22.9	47.7
2025-07-12T20:39	10	0	0.1	0	0	407	0.4	407	408	22.9	47.5
2025-07-12T20:40	10	0	0.1	0	0	407	0.3	406	408	22.8	47.8
2025-07-12T20:41	10	0	0.1	0	0	407	0.2	406	407	22.7	48.1
2025-07-12T20:42	10	0	0.1	0	0	406	0.3	405	407	22.7	48.1
2025-07-12T20:43	10	0	0.1	0	0	406	0.3	405	406	22.6	48.4
2025-07-12T20:44	10	0	0.1	0	0	405	0.2	405	406	22.5	48.8
2025-07-12T20:45	10	0	0.1	0	0	405	0.2	405	405	22.5	48.7
2025-07-12T20:46	10	0	0.1	0	0	405	0.2	405	406	22.5	48.6
2025-07-12T20:47	10	0	0.1	0	0	405	0.2	405	406	22.5	48.4
2025-07-12T20:48	10	0	0.1	0	0	405	0.3	405	406	22.5	48.3
2025-07-12T20:49	10	0	0.1	0	0	406	0.3	405	407	22.5	48.2
2025-07-12T20:50	10	0	0.1	0	1	406	0.2	405	406	22.5	48.2
2025-07-12T20:51	10	0	0.2	0	1	405	0.3	405	406	22.5	48.6
2025-07-12T20:52	10	0	0.1	0	1	405	0.3	404	405	22.5	48.6
2025-07-12T20:53	10	0	0.2	0	1	404	0.4	403	405	22.4	48.8
2025-07-12T20:54	10	0	0.2	0	0	403	0.2	403	404	22.3	49.1
2025-07-12T20:55	10	0	0.2	0	0	403	0.3	402	404	22.3	49.0
2025-07-12T20:56	10	0	0.2	0	1	403	0.3	402	404	22.3	49.0
2025-07-12T20:57	10	0	0.2	0	1	402	0.3	402	403	22.2	49.1
2025-07-12T20:58	10	0	0.2	0	1	401	0.5	400	402	22.2	49.4
2025-07-12T20:59	10	0	0.2	0	1	401	0.4	400	402	22.0	49.9
2025-07-12T21:00	10	0	0.1	0	0	400	0.2	399	400	21.8	51.0
2025-07-12T21:01	10	0	0.2	-1	1	399	0.4	398	400	21.6	53.2
2025-07-12T21:02	10	0	0.2	0	0	399	0.3	398	400	21.3	55.1
2025-07-12T21:03	10	0	0.1	0	0	398	0.3	397	399	21.2	56.4
2025-07-12T21:04	10	0	0.1	0	0	398	0.2	397	398	21.2	56.2
2025-07-12T21:05	10	0	0.1	0	0	397	0.2	397	398	21.1	56.8
2025-07-12T21:06	10	0	0.1	0	0	397	0.2	396	397	21.0	57.8
2025-07-12T21:07	10	0	0.1	0	0	397	0.3	396	397	21.1	56.0
2025-07-12T21:08	10	0	0.1	0	0	397	0.3	396	397	21.3	53.8
2025-07-12T21:09	10	0	0.1	0	0	396	0.2	396	397	21.3	54.1
2025-07-12T21:10	10	0	0.1	0	0	396	0.3	396	397	21.3	53.1
2025-07-12T21:11	10	0	0.0	0	0	396	0.2	396	396	21.4	52.3
2025-07-12T21:12	10	0	0.1	0	0	396	0.3	395	396	21.4	52.7
2025-07-12T21:13	10	0	0.1	0	0	396	0.2	395	396	21.4	52.4
2025-07-12T21:14	10	0	0.1	0	0	396	0.2	395	396	21.3	52.6
2025-07-12T21:15	10	0	0.1	0	0	395	0.3	395	396	21.3	52.7
2025-07-12T21:16	10	0	0.1	0	0	395	0.3	395	396	21.4	51.9
2025-07-12T21:17	10	0	0.1	0	0	396	0.3	395	396	21.5	50.8
2025-07-12T21:18	10	0	0.1	0	0	396	0.4	396	397	21.8	49.0
2025-07-12T21:19	10	0	0.1	0	0	397	0.3	396	397	22.0	48.5
2025-07-12T21:20	10	0	0.1	0	0	397	0.2	396	397	22.0	49.0
2025-07-12T21:21	10	0	0.1	0	0	397	0.2	397	398	22.0	49.5
2025-07-12T21:22	10	0	0.1	0	0	398	0.3	397	398	21.9	50.2
2025-07-12T21:23	10	0	0.1	0	0	398	0.4	398	399	21.7	51.2
2025-07-12T21:24	10	0	0.1	0	0	399	0.2	399	400	21.6	51.5
2025-07-12T21:25	10	0	0.1	0	0	400	0.3	399	400	21.5	51.9
2025-07-12T21:26	10	0	0.1	0	0	400	0.2	400	401	21.5	51.4
2025-07-12T21:27	10	0	0.1	0	0	400	0.4	399	401	21.5	51.4
2025-07-12T21:28	10	0	0.1	0	0	399	0.3	398	399	21.4	51.9
2025-07-12T21:29	10	0	0.1	0	0	398	0.2	398	399	21.5	51.5
2025-07-12T21:30	10	0	0.1	0	0	398	0.2	398	399	21.4	51.7
2025-07-12T21:31	10	0	0.1	0	0	398	0.2	397	398	21.5	50.7
2025-07-12T21:32	10	0	0.1	0	0	398	0.4	397	398	21.6	50.7
2025-07-12T21:33	10	0	0.1	0	0	398	0.2	397	398	21.5	51.1
2025-07-12T21:34	10	0	0.1	0	0	397	0.4	396	398	21.4	51.6
2025-07-12T21:35	10	0	0.1	0	0	395	0.4	395	397	21.3	52.1
2025-07-12T21:36	10	0	0.1	0	0	395	0.3	394	395	21.1	52.7
2025-07-12T21:37	10	0	0.1	0	0	394	0.2	394	395	21.0	53.7
2025-07-12T21:38	10	0	0.1	0	0	394	0.2	393	394	20.8	54.3
2025-07-12T21:39	10	0	0.1	0	0	393	0.3	392	394	20.7	55.2
2025-07-12T21:40	10	0	0.1	0	0	393	0.3	392	394	20.6	55.3
2025-07-12T21:41	10	0	0.1	0	0	392	0.3	391	393	20.5	55.6
2025-07-12T21:42	10	0	0.1	0	0	392	0.2	391	392	20.5	55.7
2025-07-12T21:43	10	0	0.1	0	0	392	0.2	391	393	20.5	55.9
2025-07-12T21:44	10	0	0.1	0	0	391	0.2	391	392	20.4	55.7
2025-07-12T21:45	10	0	0.1	0	0	391	0.3	390	392	20.4	56.1
2025-07-12T21:46	10	0	0.1	0	0	391	0.2	390	391	20.3	56.4
2025-07-12T21:47	10	0	0.1	0	0	390	0.3	390	391	20.2	57.5
2025-07-12T21:48	10	0	0.1	0	0	390	0.3	390	391	20.2	56.6
2025-07-12T21:49	10	0	0.1	0	0	391	0.2	390	391	20.2	56.7
2025-07-12T21:50	10	0	0.1	0	0	390	0.2	390	391	20.1	56.8
2025-07-12T21:51	10	0	0.1	0	0	390	0.2	390	391	20.1	56.8
2025-07-12T21:52	10	0	0.1	0	0	390	0.2	390	391	20.1	56.9
2025-07-12T21:53	10	0	0.1	0	0	390	0.3	389	390	20.1	57.3
2025-07-12T21:54	10	0	0.1	0	0	390	0.2	389	390	20.0	57.5
2025-07-12T21:55	10	0	0.1	0	0	389	0.2	389	390	20.0	58.4
2025-07-12T21:56	10	0	0.1	0	0	389	0.2	389	389	19.9	59.2
2025-07-12T21:57	10	0	0.1	0	0	389	0.2	389	390	19.8	59.6
2025-07-12T21:58	10	0	0.1	0	0	389	0.3	388	389	19.8	60.3
2025-07-12T21:59	10	0	0.1	0	0	389	0.5	388	390	19.7	60.7
2025-07-12T22:00	10	0	0.1	0	0	389	0.2	388	389	19.7	60.7
2025-07-12T22:01	10	0	0.1	0	0	388	0.2	388	389	19.6	61.2
2025-07-12T22:02	10	0	0.1	0	0	388	0.3	387	388	19.5	61.0
2025-07-12T22:03	10	0	0.1	0	0	388	0.2	387	388	19.6	60.3
2025-07-12T22:04	10	0	0.2	0	0	388	0.2	387	388	19.7	59.9
2025-07-12T22:05	10	0	0.1	0	0	388	0.2	387	388	19.5	61.2
2025-07-12T22:06	10	0	0.1	0	0	388	0.5	387	389	19.4	61.8
2025-07-12T22:07	10	0	0.2	0	1	388	0.4	387	388	19.5	60.8
2025-07-12T22:08	10	0	0.2	0	1	387	0.2	387	388	19.4	61.2
2025-07-12T22:09	10	0	0.1	0	0	387	0.2	386	388	19.3	61.0
2025-07-12T22:10	10	0	0.2	0	0	386	0.2	386	387	19.3	61.3
2025-07-12T22:11	10	0	0.1	0	0	386	0.4	386	387	19.1	62.5
2025-07-12T22:12	10	0	0.1	0	0	386	0.2	386	387	19.2	61.6
2025-07-12T22:13	10	0	0.2	0	0	386	0.3	385	387	19.3	61.4
2025-07-12T22:14	10	0	0.1	0	0	386	0.3	385	386	19.2	61.6
2025-07-12T22:15	10	0	0.1	0	0	386	0.4	385	387	19.3	61.3
2025-07-12T22:16	10	0	0.1	0	0	387	0.2	386	387	19.4	61.5
2025-07-12T22:17	10	0	0.1	0	0	386	0.2	386	387	19.2	59.0
2025-07-12T22:18	10	0	0.1	0	0	386	0.2	386	387	19.4	61.0
2025-07-12T22:19	10	0	0.1	0	0	386	0.3	386	387	19.4	61.0
2025-07-12T22:20	10	0	0.1	0	0	386	0.2	386	387	19.4	61.0
2025-07-12T22:21	10	0	0.0	0	0	386	0.3	385	387	19.4	61.0
2025-07-12T22:22	10	0	0.1	0	0	386	0.2	385	386	19.4	61.0
2025-07-12T22:23	10	0	0.1	0	0	386	0.3	385	386	19.4	61.0
2025-07-12T22:24	10	0	0.1	0	0	385	0.2	385	386	19.5	61.0
2025-07-12T22:25	10	0	0.1	0	0	386	0.3	385	386	19.6	60.9
2025-07-12T22:26	10	0	0.1	0	0	386	0.3	385	386	19.7	60.7
2025-07-12T22:27	10	0	0.1	0	0	385	0.4	384	386	19.6	61.2
2025-07-12T22:28	10	0	0.1	0	0	385	0.2	385	385	19.5	61.9
2025-07-12T22:29	10	0	0.1	0	0	385	0.3	384	386	19.5	62.1
2025-07-12T22:30	10	0	0.1	0	0	385	0.4	384	386	19.5	62.2
2025-07-12T22:31	10	0	0.0	0	0	386	0.3	385	386	19.5	62.2
2025-07-12T22:32	10	0	0.1	0	0	386	0.2	385	386	19.5	62.1
2025-07-12T22:33	10	0	0.1	0	0	386	0.2	385	386	19.5	61.9
2025-07-12T22:34	10	0	0.1	0	0	385	0.2	385	385	19.4	61.8
2025-07-12T22:35	10	0	0.1	0	0	385	0.3	384	385	19.3	61.9
2025-07-12T22:36	10	0	0.1	0	0	385	0.2	385	386	19.3	62.2
2025-07-12T22:37	10	0	0.1	0	0	386	0.2	385	386	19.3	62.1
2025-07-12T22:38	10	0	0.1	0	0	385	0.2	385	386	19.4	61.8
2025-07-12T22:39	10	0	0.1	0	0	385	0.2	384	386	19.5	61.6
2025-07-12T22:40	10	0	0.1	0	0	385	0.2	384	385	19.5	61.3
2025-07-12T22:41	10	0	0.1	0	0	384	0.3	383	385	19.1	62.5
2025-07-12T22:42	10	0	0.1	0	0	384	0.2	384	385	18.8	63.7
2025-07-12T22:43	10	0	0.1	0	0	384	0.2	384	385	18.7	63.7
2025-07-12T22:44	10	0	0.1	0	0	384	0.2	383	384	18.7	63.9
2025-07-12T22:45	10	0	0.1	0	0	384	0.2	383	384	18.6	64.9
2025-07-12T22:46	10	0	0.1	0	0	384	0.2	383	384	18.6	64.8
2025-07-12T22:47	10	0	0.1	0	0	384	0.2	383	384	18.7	64.6
2025-07-12T22:48	10	0	0.1	0	0	383	0.2	383	384	18.8	64.3
2025-07-12T22:49	10	0	0.1	0	0	383	0.2	383	384	18.8	64.2
2025-07-12T22:50	10	0	0.1	0	0	383	0.2	383	383	18.8	64.2
2025-07-12T22:51	10	0	0.1	0	0	383	0.3	383	384	18.8	63.8
2025-07-12T22:52	10	0	0.1	0	0	383	0.2	383	384	19.0	62.8
2025-07-12T22:53	10	0	0.1	0	0	383	0.2	383	384	19.1	62.5
2025-07-12T22:54	10	0	0.1	0	0	383	0.3	382	384	19.3	62.1
2025-07-12T22:55	10	0	0.1	0	0	383	0.2	382	383	19.2	62.1
2025-07-12T22:56	10	0	0.1	0	0	382	0.3	382	383	19.2	62.3
2025-07-12T22:57	10	0	0.1	0	0	382	0.2	382	383	19.1	62.5
2025-07-12T22:58	10	0	0.1	0	0	382	0.3	382	383	18.9	63.4
2025-07-12T22:59	10	0	0.1	0	0	382	0.3	382	383	18.5	65.0
2025-07-12T23:00	10	0	0.1	0	0	382	0.3	382	383	18.5	65.1
2025-07-12T23:01	10	0	0.1	0	0	382	0.3	382	383	18.5	65.3
2025-07-12T23:02	10	0	0.1	0	0	382	0.3	382	383	18.6	64.7
2025-07-12T23:03	10	0	0.1	0	0	382	0.2	381	382	18.7	64.3
2025-07-12T23:04	10	0	0.1	0	0	382	0.3	381	382	18.6	64.5
2025-07-12T23:05	10	0	0.1	0	0	382	0.2	382	383	18.5	64.8
2025-07-12T23:06	10	0	0.1	0	0	382	0.2	382	382	18.5	64.9
2025-07-12T23:07	10	0	0.0	0	0	382	0.2	382	383	18.5	64.8
2025-07-12T23:08	10	0	0.1	0	0	382	0.3	381	382	18.5	64.3
2025-07-12T23:09	10	0	0.1	0	0	381	0.2	381	382	18.4	64.7
2025-07-12T23:10	10	0	0.1	0	0	381	0.2	381	382	18.3	65.4
2025-07-12T23:11	10	0	0.1	0	0	381	0.3	380	382	18.1	66.3
2025-07-12T23:12	10	0	0.1	0	0	380	0.2	380	381	17.9	67.4
2025-07-12T23:13	10	0	0.1	0	0	380	0.3	379	381	17.7	68.4
2025-07-12T23:14	10	0	0.1	0	0	380	0.3	379	380	17.7	68.1
2025-07-12T23:15	10	0	0.1	0	0	380	0.3	379	380	17.8	67.8
2025-07-12T23:16	10	0	0.1	0	0	380	0.2	380	381	17.8	67.2
2025-07-12T23:17	10	0	0.1	0	0	380	0.2	379	380	17.9	66.8
2025-07-12T23:18	10	0	0.1	0	0	380	0.3	379	381	17.9	66.8
2025-07-12T23:19	10	0	0.1	0	0	380	0.4	380	381	17.8	67.7
2025-07-12T23:20	10	0	0.1	0	0	381	0.6	380	382	17.9	67.2
2025-07-12T23:21	10	0	0.1	0	0	382	0.2	381	382	17.9	67.2
2025-07-12T23:22	10	0	0.1	0	0	382	0.3	381	383	18.0	66.6
2025-07-12T23:23	10	0	0.2	-1	0	382	0.3	381	383	18.0	65.9
2025-07-12T23:24	10	0	0.2	0	0	381	0.3	381	382	18.0	66.3
2025-07-12T23:25	10	0	0.2	0	0	381	0.3	380	382	17.9	67.1
2025-07-12T23:26	10	0	0.1	0	0	380	0.2	380	381	17.7	68.9
2025-07-12T23:27	10	0	0.2	0	0	380	0.3	380	381	17.6	69.4
2025-07-12T23:28	10	0	0.2	0	1	381	0.3	380	381	17.5	68.2
2025-07-12T23:29	10	0	0.1	0	0	381	0.4	380	382	17.6	67.3
2025-07-12T23:30	10	0	0.2	-1	0	382	0.5	381	383	17.8	66.6
2025-07-12T23:31	10	0	0.2	0	0	383	0.4	382	384	18.0	65.7
2025-07-12T23:32	10	0	0.1	0	0	384	0.3	383	384	18.1	65.5
2025-07-12T23:33	10	0	0.1	0	0	384	0.3	383	385	17.9	66.4
2025-07-12T23:34	10	0	0.1	0	0	384	0.3	384	385	17.9	66.8
2025-07-12T23:35	10	0	0.2	0	1	385	0.3	384	385	18.0	66.4
2025-07-12T23:36	10	0	0.1	0	0	385	0.3	384	385	18.1	66.3
2025-07-12T23:37	10	0	0.2	0	1	385	0.3	384	385	18.0	66.7
2025-07-12T23:38	10	0	0.1	0	0	384	0.3	384	385	17.9	67.1
2025-07-12T23:39	10	0	0.1	0	0	384	0.5	382	385	17.5	68.9
2025-07-12T23:40	10	0	0.1	0	0	383	0.5	382	384	17.3	69.8
2025-07-12T23:41	10	0	0.1	0	0	383	0.2	382	383	17.4	69.6
2025-07-12T23:42	10	0	0.1	0	0	382	0.2	381	383	17.5	69.2
2025-07-12T23:43	10	0	0.1	0	0	382	0.3	381	383	17.4	69.4
2025-07-12T23:44	10	0	0.1	0	0	382	0.3	381	382	17.4	69.5
2025-07-12T23:45	10	0	0.1	0	0	383	0.3	382	383	17.5	68.8
2025-07-12T23:46	10	0	0.1	0	0	383	0.5	382	384	17.8	67.6
2025-07-12T23:47	10	0	0.1	0	0	383	0.2	383	384	18.1	66.3
2025-07-12T23:48	10	0	0.1	0	0	383	0.4	382	383	18.1	66.0
2025-07-12T23:49	10	0	0.0	0	0	382	0.2	381	383	18.0	66.4
2025-07-12T23:50	10	0	0.0	0	0	382	0.2	382	383	18.0	67.0
2025-07-12T23:51	10	0	0.0	0	0	381	0.3	381	382	18.0	67.6
2025-07-12T23:52	10	0	0.0	0	0	381	0.3	381	382	17.9	67.9
2025-07-12T23:53	10	0	0.0	0	0	381	0.2	380	381	17.8	68.3
2025-07-12T23:54	10	0	0.0	0	0	381	0.2	381	382	17.9	68.1
2025-07-12T23:55	10	0	0.0	0	0	381	0.2	381	382	17.9	68.2
2025-07-12T23:56	10	0	0.1	0	0	382	0.2	381	382	17.9	68.1
2025-07-12T23:57	10	0	0.1	0	0	382	0.4	381	383	17.7	68.7
2025-07-12T23:58	10	0	0.0	0	0	383	0.5	382	384	17.8	68.2
2025-07-12T23:59	10	0	0.0	0	0	384	0.5	384	385	17.9	68.1
2025-07-13T00:00	10	0	0.0	0	0	386	0.5	385	387	17.9	67.8
2025-07-13T00:01	10	0	0.1	0	0	386	0.3	386	387	17.8	68.1
2025-07-13T00:02	10	0	0.0	0	0	387	0.4	387	388	17.8	68.2
2025-07-13T00:03	10	0	0.1	0	0	388	0.3	387	389	17.7	68.6
2025-07-13T00:04	10	0	0.0	0	0	388	0.3	387	389	17.6	69.2
2025-07-13T00:05	10	0	0.1	0	0	389	0.3	388	389	17.5	69.7
2025-07-13T00:06	10	0	0.1	0	0	389	0.3	388	389	17.5	70.3
2025-07-13T00:07	10	0	0.1	0	0	389	0.3	388	389	17.4	70.8
2025-07-13T00:08	10	0	0.1	0	0	388	0.3	388	389	17.3	71.1
2025-07-13T00:09	10	0	0.1	0	0	388	0.2	387	388	17.2	71.5
2025-07-13T00:10	10	0	0.1	0	0	387	0.3	387	388	17.2	71.7
2025-07-13T00:11	10	0	0.1	0	0	387	0.2	387	387	17.1	71.6
2025-07-13T00:12	10	0	0.1	0	0	387	0.2	386	387	17.2	70.9
2025-07-13T00:13	10	0	0.1	0	0	386	0.2	386	387	17.3	70.7
2025-07-13T00:14	10	0	0.1	0	0	386	0.3	385	387	17.3	70.7
2025-07-13T00:15	10	0	0.1	0	0	386	0.2	385	386	17.3	71.0
2025-07-13T00:16	10	0	0.1	0	0	385	0.3	385	386	17.2	71.3
2025-07-13T00:17	10	0	0.1	0	0	385	0.3	384	385	17.1	71.8
2025-07-13T00:18	10	0	0.1	0	0	385	0.3	385	386	17.1	71.7
2025-07-13T00:19	10	0	0.1	0	0	385	0.3	385	386	17.2	71.5
2025-07-13T00:20	10	0	0.1	0	0	385	0.3	384	386	17.2	71.7
2025-07-13T00:21	10	0	0.1	0	0	384	0.3	384	385	17.1	72.1
2025-07-13T00:22	10	0	0.1	0	0	384	0.3	383	385	17.0	72.4
2025-07-13T00:23	10	0	0.1	0	0	384	0.2	383	384	17.1	72.4
2025-07-13T00:24	10	0	0.1	0	0	384	0.3	383	385	17.1	72.2
2025-07-13T00:25	10	0	0.1	0	0	384	0.4	383	385	17.3	71.3
2025-07-13T00:26	10	0	0.1	0	0	384	0.2	384	385	17.4	70.8
2025-07-13T00:27	10	0	0.1	0	0	384	0.2	384	385	17.4	70.9
2025-07-13T00:28	10	0	0.1	0	0	385	0.4	384	385	17.4	70.8
2025-07-13T00:29	10	0	0.0	0	0	386	0.3	385	386	17.5	70.5
2025-07-13T00:30	10	0	0.1	0	0	386	0.2	385	386	17.5	70.5
2025-07-13T00:31	10	0	0.1	0	0	385	0.4	385	386	17.4	70.6
2025-07-13T00:32	10	0	0.1	0	0	385	0.3	384	386	17.4	70.9
2025-07-13T00:33	10	0	0.1	0	0	385	0.3	384	385	17.4	70.9
2025-07-13T00:34	10	0	0.1	0	0	384	0.3	384	385	17.4	70.7
2025-07-13T00:35	10	0	0.1	0	0	385	0.3	384	385	17.4	70.6
2025-07-13T00:36	10	0	0.1	0	0	385	0.3	384	386	17.4	70.3
2025-07-13T00:37	10	0	0.0	0	0	385	0.3	384	386	17.4	70.7
2025-07-13T00:38	10	0	0.1	0	0	386	0.2	384	386	17.4	70.4
2025-07-13T00:39	10	0	0.0	0	0	385	0.3	384	386	17.4	70.7
2025-07-13T00:40	10	0	0.0	0	0	385	0.2	384	385	17.3	70.7
2025-07-13T00:41	10	0	0.1	0	0	384	0.2	384	385	17.2	71.4
2025-07-13T00:42	10	0	0.1	0	0	384	0.3	383	384	17.1	71.8
2025-07-13T00:43	10	0	0.1	0	0	384	0.3	383	385	17.2	71.4
2025-07-13T00:44	10	0	0.0	0	0	384	0.3	383	384	17.2	71.0
2025-07-13T00:45	10	0	0.0	0	0	383	0.3	383	384	17.2	70.9
2025-07-13T00:46	10	0	0.1	0	0	383	0.3	383	384	17.3	70.2
2025-07-13T00:47	10	0	0.0	0	0	384	0.3	383	384	17.5	69.5
2025-07-13T00:48	10	0	0.1	0	0	384	0.3	383	384	17.5	69.2
2025-07-13T00:49	10	0	0.1	0	0	383	0.2	383	384	17.5	69.3
2025-07-13T00:50	10	0	0.0	0	0	383	0.2	382	383	17.5	69.4
2025-07-13T00:51	10	0	0.1	0	0	382	0.3	382	383	17.4	69.5
2025-07-13T00:52	10	0	0.1	0	0	382	0.2	382	383	17.5	68.9
2025-07-13T00:53	10	0	0.1	0	0	383	0.3	382	383	17.6	68.4
2025-07-13T00:54	10	0	1.1	0	7	383	0.2	382	383	17.6	68.0
2025-07-13T00:55	10	0	0.1	0	0	383	0.2	382	383	17.6	68.2
2025-07-13T00:56	10	0	0.1	0	0	383	0.3	382	384	17.6	68.0
2025-07-13T00:57	10	0	0.1	0	0	383	0.3	382	384	17.6	68.1
2025-07-13T00:58	10	0	0.0	0	0	382	0.4	381	383	17.2	70.1
2025-07-13T00:59	10	0	0.1	0	0	381	0.5	380	382	16.8	72.1
2025-07-13T01:00	10	0	0.0	0	0	381	0.3	381	382	16.6	72.8
2025-07-13T01:01	10	0	0.1	0	0	382	0.3	381	382	16.9	71.2
2025-07-13T01:02	10	0	0.0	0	0	382	0.4	381	382	17.1	69.8
2025-07-13T01:03	10	0	0.1	0	0	381	0.3	380	381	17.0	70.5
2025-07-13T01:04	10	0	0.1	0	0	380	0.5	379	381	16.8	71.7
2025-07-13T01:05	10	0	0.1	0	0	379	0.2	379	380	16.4	73.5
2025-07-13T01:06	10	0	0.1	0	0	379	0.2	378	379	16.3	74.0
2025-07-13T01:07	10	0	0.1	0	0	379	0.2	378	379	16.3	74.0
2025-07-13T01:08	10	0	0.1	0	0	378	0.3	378	379	16.3	74.4
2025-07-13T01:09	10	0	0.1	0	0	379	0.6	378	380	16.3	74.0
2025-07-13T01:10	10	0	0.1	0	0	380	0.4	379	381	16.6	72.5
2025-07-13T01:11	10	0	0.1	0	0	381	0.4	380	382	16.6	72.3
2025-07-13T01:12	10	0	0.1	0	0	381	0.4	380	382	16.6	71.9
2025-07-13T01:13	10	0	0.1	0	0	382	0.3	381	382	16.7	71.4
2025-07-13T01:14	10	0	0.0	0	0	381	0.4	380	382	16.6	71.8
2025-07-13T01:15	10	0	0.1	0	0	380	0.5	379	381	16.5	72.8
2025-07-13T01:16	10	0	0.1	0	0	379	0.6	378	380	16.3	74.1
2025-07-13T01:17	10	0	0.1	0	0	378	0.3	377	378	16.0	75.7
2025-07-13T01:18	10	0	0.1	0	0	377	0.3	377	378	16.2	74.6
2025-07-13T01:19	10	0	0.1	0	0	378	0.3	377	378	16.2	74.7
2025-07-13T01:20	10	0	0.1	0	0	378	0.3	377	379	16.3	73.8
2025-07-13T01:21	10	0	0.1	0	0	378	0.3	378	379	16.5	72.9
2025-07-13T01:22	10	0	0.1	0	0	378	0.2	377	378	16.2	74.6
2025-07-13T01:23	10	0	0.1	0	0	378	0.4	378	380	16.1	75.2
2025-07-13T01:24	10	0	0.1	0	0	380	0.4	379	381	16.4	73.9
2025-07-13T01:25	10	0	0.1	0	0	379	0.4	378	380	16.4	73.8
2025-07-13T01:26	10	0	0.1	0	0	377	0.4	376	378	15.9	76.3
2025-07-13T01:27	10	0	0.1	0	0	377	0.2	376	377	15.7	77.3
2025-07-13T01:28	10	0	0.1	0	0	377	0.2	376	377	15.9	76.4
2025-07-13T01:29	10	0	0.2	-1	0	377	0.3	376	377	16.0	75.7
2025-07-13T01:30	10	0	0.1	0	0	376	0.3	376	377	16.1	75.1
2025-07-13T01:31	10	0	0.1	0	0	376	0.2	376	377	16.3	74.4
2025-07-13T01:32	10	0	0.2	0	0	376	0.3	375	377	16.4	73.7
2025-07-13T01:33	10	0	0.1	0	0	375	0.2	375	376	16.4	73.7
2025-07-13T01:34	10	0	0.2	0	0	375	0.3	375	376	16.4	73.1
2025-07-13T01:35	10	0	0.1	0	0	375	0.5	374	376	16.4	73.1
2025-07-13T01:36	10	0	0.1	0	0	375	0.2	374	375	16.2	74.1
2025-07-13T01:37	10	0	0.1	0	0	375	0.3	374	376	16.2	74.0
2025-07-13T01:38	10	0	0.1	0	0	375	0.3	374	375	16.1	74.4
2025-07-13T01:39	10	0	0.1	0	1	375	0.4	374	375	16.1	74.6
2025-07-13T01:40	10	0	0.1	0	0	374	0.2	374	375	16.0	74.9
2025-07-13T01:41	10	0	0.2	0	0	374	0.3	374	375	16.0	75.1
2025-07-13T01:42	10	0	0.1	-1	0	374	0.2	374	375	16.0	75.2
2025-07-13T01:43	10	0	0.1	-1	0	374	0.3	374	375	16.0	75.3
2025-07-13T01:44	10	0	0.2	0	1	375	0.2	374	375	16.0	75.1
2025-07-13T01:45	10	0	0.2	0	0	375	0.2	374	375	16.1	74.4
2025-07-13T01:46	10	0	0.1	0	0	374	0.3	374	375	16.1	74.6
2025-07-13T01:47	10	0	0.1	0	0	374	0.2	374	375	15.9	75.4
2025-07-13T01:48	10	0	0.1	0	0	374	0.2	374	375	15.8	75.9
2025-07-13T01:49	10	0	0.1	0	0	374	0.2	373	374	15.7	76.3
2025-07-13T01:50	10	0	0.1	0	0	373	0.2	373	374	15.6	76.6
2025-07-13T01:51	10	0	0.1	0	0	373	0.2	373	374	15.5	77.0
2025-07-13T01:52	10	0	0.1	0	0	373	0.3	373	374	15.4	77.0
2025-07-13T01:53	10	0	0.1	0	0	374	0.4	373	374	15.4	76.9
2025-07-13T01:54	10	0	0.1	0	0	374	0.2	374	374	15.4	76.9
2025-07-13T01:55	10	0	0.1	0	0	374	0.2	374	374	15.4	77.1
2025-07-13T01:56	10	0	0.1	0	0	374	0.2	374	374	15.4	76.6
2025-07-13T01:57	10	0	0.1	0	0	374	0.3	373	374	15.4	76.9
2025-07-13T01:58	10	0	0.1	0	0	374	0.3	373	374	15.4	76.8
2025-07-13T01:59	10	0	0.1	0	0	373	0.2	373	374	15.4	76.9
2025-07-13T02:00	10	0	0.1	0	0	373	0.3	372	373	15.3	77.4
2025-07-13T02:01	10	0	0.1	0	0	372	0.3	372	373	15.2	77.6
2025-07-13T02:02	10	0	0.1	0	0	372	0.2	372	373	15.2	77.6
2025-07-13T02:03	10	0	0.1	0	0	372	0.3	372	373	15.3	76.5
2025-07-13T02:04	10	0	0.1	0	0	372	0.3	372	373	15.4	75.9
2025-07-13T02:05	10	0	0.1	0	0	373	0.3	372	373	15.5	75.4
2025-07-13T02:06	10	0	0.1	0	0	373	0.3	372	373	15.6	74.5
2025-07-13T02:07	10	0	0.0	0	0	373	0.3	372	373	15.7	74.4
2025-07-13T02:08	10	0	0.0	0	0	373	0.3	373	374	15.7	74.1
2025-07-13T02:09	10	0	0.0	0	0	374	0.3	373	374	15.9	73.6
2025-07-13T02:10	10	0	0.0	0	0	374	0.2	374	375	15.9	73.3
2025-07-13T02:11	10	0	0.0	0	0	374	0.3	373	375	15.9	73.5
2025-07-13T02:12	10	0	0.1	0	0	373	0.4	373	374	15.8	73.8
2025-07-13T02:13	10	0	0.0	0	0	373	0.2	373	374	15.7	74.5
2025-07-13T02:14	10	0	0.0	0	0	373	0.4	372	373	15.6	75.1
2025-07-13T02:15	10	0	0.1	0	0	372	0.3	372	373	15.5	75.7
2025-07-13T02:16	10	0	0.0	0	0	372	0.3	371	373	15.5	75.8
2025-07-13T02:17	10	0	0.1	0	0	372	0.2	371	372	15.4	76.2
2025-07-13T02:18	10	0	0.1	0	0	372	0.2	371	372	15.4	76.3
2025-07-13T02:19	10	0	0.1	0	0	372	0.2	371	372	15.3	76.3
2025-07-13T02:20	10	0	0.1	0	0	372	0.2	372	373	15.3	76.3
2025-07-13T02:21	10	0	0.1	0	0	372	0.3	372	373	15.3	76.5
2025-07-13T02:22	10	0	0.1	0	0	372	0.2	371	372	15.3	76.4
2025-07-13T02:23	10	0	0.1	0	0	372	0.2	371	372	15.3	76.0
2025-07-13T02:24	10	0	0.1	0	0	372	0.3	371	373	15.3	76.1
2025-07-13T02:25	10	0	0.1	0	0	372	0.3	372	373	15.4	75.7
2025-07-13T02:26	10	0	0.1	0	0	373	0.4	372	373	15.4	75.6
2025-07-13T02:27	10	0	0.1	0	0	374	0.2	373	374	15.4	75.7
2025-07-13T02:28	10	0	0.1	0	0	374	0.2	373	374	15.4	76.2
2025-07-13T02:29	10	0	0.1	0	0	374	0.2	373	374	15.3	77.4
2025-07-13T02:30	10	0	0.1	0	0	374	0.3	373	374	15.3	77.2
2025-07-13T02:31	10	0	0.1	0	0	373	0.3	372	374	15.5	75.7
2025-07-13T02:32	10	0	0.1	0	0	373	0.3	372	373	15.5	77.3
2025-07-13T02:33	10	0	0.1	0	0	372	0.3	372	373	15.3	78.2
2025-07-13T02:34	10	0	0.1	0	0	372	0.3	371	372	15.3	78.2
2025-07-13T02:35	10	0	0.1	0	0	371	0.3	371	372	15.2	78.7
2025-07-13T02:36	10	0	0.1	0	0	371	0.3	371	372	15.2	78.7
2025-07-13T02:37	10	0	0.1	0	0	371	0.3	371	372	15.3	78.2
2025-07-13T02:38	10	0	0.1	0	0	371	0.3	371	372	15.3	77.9
2025-07-13T02:39	10	0	0.1	0	0	371	0.3	371	372	15.4	76.5
2025-07-13T02:40	10	0	0.1	0	0	372	0.2	371	372	15.6	75.1
2025-07-13T02:41	10	0	0.1	0	0	371	0.2	371	372	15.7	75.1
2025-07-13T02:42	10	0	0.1	0	0	371	0.2	370	372	15.6	75.9
2025-07-13T02:43	10	0	0.1	0	0	371	0.3	371	372	15.6	76.0
2025-07-13T02:44	10	0	0.1	0	0	371	0.2	371	372	15.7	75.9
2025-07-13T02:45	10	0	0.1	0	0	372	0.3	371	372	15.6	77.1
2025-07-13T02:46	10	0	0.1	0	0	372	0.2	371	372	15.5	77.6
2025-07-13T02:47	10	0	0.1	0	0	372	0.3	371	372	15.4	77.7
2025-07-13T02:48	10	0	0.1	0	0	371	0.3	370	372	15.4	78.0
2025-07-13T02:49	10	0	0.1	0	0	371	0.3	370	371	15.2	78.6
2025-07-13T02:50	10	0	0.1	0	0	370	0.2	370	371	15.0	79.7
2025-07-13T02:51	10	0	0.1	0	0	370	0.4	370	371	15.1	79.8
2025-07-13T02:52	10	0	0.1	0	0	371	0.3	370	371	15.2	79.6
2025-07-13T02:53	10	0	0.1	0	0	371	0.2	370	371	15.2	79.5
2025-07-13T02:54	10	0	0.1	0	0	371	0.2	370	371	15.2	79.5
2025-07-13T02:55	10	0	0.1	0	0	370	0.2	370	371	15.2	79.4
2025-07-13T02:56	10	0	0.1	0	0	370	0.2	370	371	15.3	79.4
2025-07-13T02:57	10	0	0.1	0	0	370	0.2	370	371	15.3	79.4
2025-07-13T02:58	10	0	0.1	0	0	370	0.2	370	371	15.3	79.3
2025-07-13T02:59	10	0	0.1	0	0	370	0.2	369	370	15.3	79.2
2025-07-13T03:00	10	0	0.1	0	0	370	0.2	370	371	15.3	79.2
2025-07-13T03:01	10	0	0.1	0	0	370	0.3	369	371	15.2	79.2
2025-07-13T03:02	10	0	0.1	0	0	370	0.2	369	370	15.1	79.5
2025-07-13T03:03	10	0	0.0	0	0	371	0.3	370	371	15.1	79.5
2025-07-13T03:04	10	0	0.1	0	0	371	0.3	370	372	15.1	79.6
2025-07-13T03:05	10	0	0.1	0	0	371	0.2	371	371	15.1	79.5
2025-07-13T03:06	10	0	0.1	0	0	371	0.2	370	372	15.2	78.9
2025-07-13T03:07	10	0	0.0	0	0	372	0.2	371	372	15.3	77.9
2025-07-13T03:08	10	0	0.1	0	0	372	0.2	371	372	15.3	77.9
2025-07-13T03:09	10	0	0.0	0	0	372	0.2	371	372	15.3	77.8
2025-07-13T03:10	10	0	0.1	0	0	372	0.2	371	372	15.2	78.2
2025-07-13T03:11	10	0	0.0	0	0	372	0.3	372	373	15.4	77.2
2025-07-13T03:12	10	0	0.0	0	0	372	0.4	371	372	15.4	76.8
2025-07-13T03:13	10	0	0.0	0	0	371	0.3	370	372	15.1	79.1
2025-07-13T03:14	10	0	0.0	0	0	371	0.3	370	372	15.1	78.7
2025-07-13T03:15	10	0	0.1	0	0	370	0.4	369	371	15.0	79.8
2025-07-13T03:16	10	0	0.1	0	0	370	0.3	369	371	14.8	80.5
2025-07-13T03:17	10	0	0.1	0	0	370	0.2	370	371	14.9	79.8
2025-07-13T03:18	10	0	0.1	0	0	370	0.4	369	371	15.0	78.5
2025-07-13T03:19	10	0	0.0	0	0	370	0.2	370	371	15.3	76.2
2025-07-13T03:20	10	0	0.0	0	0	370	0.3	369	370	15.2	77.2
2025-07-13T03:21	10	0	0.0	0	0	369	0.2	369	370	15.1	78.2
2025-07-13T03:22	10	0	0.0	0	0	370	0.3	369	371	15.1	77.9
2025-07-13T03:23	10	0	0.0	0	0	371	0.4	370	372	15.2	76.3
2025-07-13T03:24	10	0	0.0	0	0	370	0.2	370	371	15.4	75.4
2025-07-13T03:25	10	0	0.0	0	0	370	0.4	369	371	15.2	76.8
2025-07-13T03:26	10	0	0.0	0	0	370	0.2	369	370	14.9	78.8
2025-07-13T03:27	10	0	0.0	0	0	370	0.4	369	371	14.8	79.7
2025-07-13T03:28	10	0	0.0	0	0	370	0.2	370	371	15.1	76.3
2025-07-13T03:29	10	0	0.0	0	0	370	0.5	370	372	15.4	74.7
2025-07-13T03:30	10	0	0.1	0	0	372	0.9	371	374	16.0	71.7
2025-07-13T03:31	10	0	0.1	0	0	373	0.3	372	373	16.5	70.1
2025-07-13T03:32	10	0	0.1	0	0	372	0.4	371	373	16.5	69.4
2025-07-13T03:33	10	0	0.1	0	0	372	0.4	371	372	16.3	70.4
2025-07-13T03:34	10	0	0.1	0	0	371	0.3	371	372	16.3	70.4
2025-07-13T03:35	10	0	0.1	0	0	371	0.3	371	372	16.2	70.8
2025-07-13T03:36	10	0	0.1	0	1	371	0.6	370	373	16.2	71.1
2025-07-13T03:37	10	0	0.1	0	0	373	0.3	372	373	16.4	71.2
2025-07-13T03:38	10	0	0.1	0	1	373	0.8	371	374	16.6	70.1
2025-07-13T03:39	10	0	0.1	0	1	373	0.4	371	373	16.7	69.9
2025-07-13T03:40	10	0	0.1	0	0	373	0.2	372	373	16.7	70.1
2025-07-13T03:41	10	0	0.1	0	1	373	0.5	371	373	16.7	70.6
2025-07-13T03:42	10	0	0.1	0	1	372	0.3	372	373	16.5	70.3
2025-07-13T03:43	10	1	0.1	0	1	372	0.4	371	373	16.4	71.2
2025-07-13T03:44	10	0	0.1	0	1	372	0.2	371	372	16.3	71.6
2025-07-13T03:45	10	1	0.1	0	1	373	0.3	372	374	16.3	72.0
2025-07-13T03:46	10	1	0.1	0	1	373	0.2	372	373	16.3	72.6
2025-07-13T03:47	10	1	0.1	1	1	373	0.3	372	373	16.3	73.0
2025-07-13T03:48	10	1	0.1	1	1	372	0.2	372	373	16.2	73.7
2025-07-13T03:49	10	1	0.1	1	1	372	0.2	372	373	16.2	74.1
2025-07-13T03:50	10	1	0.1	1	1	372	0.2	372	373	16.2	74.4
2025-07-13T03:51	10	1	0.1	1	1	372	0.2	372	373	16.2	74.3
2025-07-13T03:52	10	1	0.1	1	1	372	0.2	372	373	16.3	74.2
2025-07-13T03:53	10	1	0.1	1	1	373	0.2	372	373	16.3	74.1
2025-07-13T03:54	10	1	0.1	1	2	373	0.2	372	373	16.3	74.1
2025-07-13T03:55	10	2	0.1	1	2	373	0.3	372	373	16.3	74.0
2025-07-13T03:56	10	2	0.1	2	2	372	0.2	372	373	16.2	74.1
2025-07-13T03:57	10	2	0.1	2	2	372	0.3	372	373	16.1	74.5
2025-07-13T03:58	10	2	0.1	2	2	372	0.2	372	373	16.0	74.8
2025-07-13T03:59	10	3	0.1	2	3	372	0.2	371	372	15.9	75.1
2025-07-13T04:00	10	3	0.1	3	3	372	0.2	371	372	15.8	75.3
2025-07-13T04:01	10	3	0.2	3	3	372	0.3	372	373	15.7	75.4
2025-07-13T04:02	10	4	0.1	3	4	372	0.3	372	373	15.6	75.4
2025-07-13T04:03	10	4	0.1	4	4	373	0.4	372	374	15.5	76.4
2025-07-13T04:04	10	4	0.1	4	4	374	0.3	373	374	15.6	76.7
2025-07-13T04:05	10	4	0.2	4	4	374	0.3	374	375	15.6	76.7
2025-07-13T04:06	10	5	0.9	4	11	375	0.3	374	375	15.6	76.8
2025-07-13T04:07	10	5	0.1	5	5	375	0.3	374	376	15.6	76.7
2025-07-13T04:08	10	5	0.1	5	5	375	0.3	375	376	15.6	76.7
2025-07-13T04:09	10	5	0.1	5	6	376	0.2	375	376	15.6	76.7
2025-07-13T04:10	10	6	0.2	5	6	376	0.3	375	377	15.6	76.7
2025-07-13T04:11	10	7	0.4	6	8	377	0.4	376	378	15.6	76.7
2025-07-13T04:12	10	8	0.3	7	9	378	0.3	377	378	15.7	76.4
2025-07-13T04:13	10	9	0.2	8	9	379	0.4	378	379	15.7	76.2
2025-07-13T04:14	10	10	0.2	9	10	380	0.4	379	380	15.8	75.9
2025-07-13T04:15	10	10	0.2	10	11	381	0.3	380	381	15.9	75.3
2025-07-13T04:16	10	11	0.2	11	12	381	0.3	381	382	15.9	74.9
2025-07-13T04:17	10	12	0.2	11	12	381	0.2	381	382	15.8	75.0
2025-07-13T04:18	10	13	0.3	12	13	382	0.3	381	382	15.6	76.0
2025-07-13T04:19	10	14	0.3	13	14	382	0.2	382	383	15.6	76.9
2025-07-13T04:20	10	15	0.3	14	15	383	0.4	382	383	15.5	77.6
2025-07-13T04:21	10	16	0.4	15	17	383	0.3	382	384	15.4	77.7
2025-07-13T04:22	10	18	0.4	17	18	384	0.4	383	384	15.5	77.8
2025-07-13T04:23	10	19	0.4	18	19	385	0.4	384	385	15.4	77.9
2025-07-13T04:24	10	20	0.3	19	20	386	0.5	385	387	15.4	78.3
2025-07-13T04:25	10	21	0.4	20	22	387	0.5	386	388	15.4	78.4
2025-07-13T04:26	10	22	0.4	21	23	388	0.4	388	389	15.4	78.3
2025-07-13T04:27	10	24	0.5	23	25	389	0.4	389	390	15.4	77.8
2025-07-13T04:28	10	26	0.6	25	27	390	0.4	389	391	15.4	78.1
2025-07-13T04:29	10	28	0.6	26	29	391	0.4	390	392	15.4	78.4
2025-07-13T04:30	10	30	0.6	29	31	392	0.4	391	392	15.4	78.4
2025-07-13T04:31	10	32	0.6	31	33	393	0.4	392	393	15.4	78.8
2025-07-13T04:32	10	34	0.4	33	34	394	0.4	393	394	15.4	79.2
2025-07-13T04:33	10	35	0.2	34	35	394	0.2	394	395	15.4	79.0
2025-07-13T04:34	10	35	0.1	34	35	395	0.2	395	396	15.4	79.2
2025-07-13T04:35	10	34	0.2	34	35	395	0.2	395	396	15.5	79.1
2025-07-13T04:36	10	34	0.3	33	34	395	0.3	395	396	15.5	79.0
2025-07-13T04:37	10	32	0.7	31	33	395	0.3	394	395	15.5	79.8
2025-07-13T04:38	10	30	0.7	28	31	394	0.5	393	395	15.4	80.2
2025-07-13T04:39	10	27	0.8	26	28	393	0.3	393	394	15.3	80.7
2025-07-13T04:40	10	25	0.6	24	26	393	0.2	393	394	15.4	81.3
2025-07-13T04:41	10	23	0.6	22	24	393	0.2	393	394	15.5	81.2
2025-07-13T04:42	10	21	0.7	19	22	393	0.3	392	394	15.6	80.5
2025-07-13T04:43	10	16	2.0	13	19	392	0.6	391	393	15.6	79.9
2025-07-13T04:44	10	12	0.9	10	13	391	0.5	390	392	15.6	81.2
2025-07-13T04:45	10	11	0.9	10	13	390	0.4	390	391	15.6	80.9
2025-07-13T04:46	10	12	0.7	11	13	390	0.5	389	391	15.5	81.5
2025-07-13T04:47	10	9	0.6	8	11	389	0.4	388	390	15.5	82.1
2025-07-13T04:48	10	8	0.5	7	9	388	0.3	387	389	15.5	80.8
2025-07-13T04:49	10	6	0.3	6	7	388	0.2	387	388	15.6	81.1
2025-07-13T04:50	10	6	0.1	6	6	388	0.1	387	388	15.6	81.8
2025-07-13T04:51	10	5	0.1	5	6	388	0.3	387	388	15.7	82.1
2025-07-13T04:52	10	5	0.2	5	5	387	0.3	387	388	15.9	82.2
2025-07-13T04:53	10	5	0.1	4	5	388	0.2	387	388	15.9	82.4
2025-07-13T04:54	10	4	0.1	4	5	387	0.2	387	388	15.8	82.9
2025-07-13T04:55	10	4	0.2	4	5	387	0.2	387	388	15.7	83.8
2025-07-13T04:56	10	4	0.1	4	4	387	0.3	386	388	15.6	84.9
2025-07-13T04:57	10	4	0.1	4	4	387	0.3	387	388	15.8	84.1
2025-07-13T04:58	10	4	0.1	4	4	388	0.5	387	389	15.9	83.2
2025-07-13T04:59	10	4	0.1	4	4	388	0.3	387	389	16.2	81.2
2025-07-13T05:00	10	4	0.1	4	4	389	0.4	388	389	16.3	80.9
2025-07-13T05:01	10	4	0.1	4	4	389	0.3	388	390	16.5	80.4
2025-07-13T05:02	10	4	0.1	4	4	390	0.2	389	390	16.6	79.6
2025-07-13T05:03	10	4	0.1	4	4	390	0.2	389	390	16.7	79.0
2025-07-13T05:04	10	5	0.5	4	6	390	0.3	390	391	16.6	79.7
2025-07-13T05:05	10	5	0.4	4	6	390	0.2	390	391	16.6	80.5
2025-07-13T05:06	10	4	0.2	4	5	390	0.3	389	391	16.5	80.9
2025-07-13T05:07	10	4	0.1	4	4	389	0.4	388	390	16.2	83.4
2025-07-13T05:08	10	4	0.1	4	4	389	0.2	388	389	15.9	85.0
2025-07-13T05:09	10	4	0.1	4	4	389	0.3	388	389	15.8	85.5
2025-07-13T05:10	10	4	0.1	4	4	389	0.3	388	390	15.9	84.8
2025-07-13T05:11	10	4	0.1	3	4	389	0.3	389	390	15.9	84.5
2025-07-13T05:12	10	4	0.1	3	4	389	0.2	388	389	15.9	83.7
2025-07-13T05:13	10	4	0.1	3	4	389	0.3	388	389	15.9	86.0
2025-07-13T05:14	10	4	0.1	4	4	387	0.6	386	389	15.4	89.0
2025-07-13T05:15	10	4	0.1	4	4	387	0.3	386	387	15.2	90.3
2025-07-13T05:16	10	4	0.1	4	4	387	0.2	386	387	15.1	89.8
2025-07-13T05:17	10	4	0.1	4	4	387	0.4	386	388	15.2	88.6
2025-07-13T05:18	10	4	0.1	4	5	387	0.4	386	388	15.3	88.1
2025-07-13T05:19	10	5	0.1	4	5	387	0.3	387	388	15.4	86.5
2025-07-13T05:20	10	5	0.2	4	5	388	0.4	387	388	15.5	85.9
2025-07-13T05:21	10	5	0.1	5	5	388	0.3	387	389	15.5	86.4
2025-07-13T05:22	10	5	0.1	5	6	388	0.2	388	389	15.5	87.1
2025-07-13T05:23	10	6	0.1	6	6	388	0.2	388	389	15.5	86.9
2025-07-13T05:24	10	6	0.2	5	6	388	0.2	388	389	15.5	87.7
2025-07-13T05:25	10	6	0.2	6	7	388	0.3	388	389	15.4	89.1
2025-07-13T05:26	10	7	0.1	7	7	388	0.3	388	389	15.3	89.5
2025-07-13T05:27	10	7	0.1	7	8	388	0.2	388	389	15.3	90.1
2025-07-13T05:28	10	8	0.2	8	8	388	0.2	388	389	15.2	91.1
2025-07-13T05:29	10	8	0.2	8	9	388	0.2	388	389	15.2	91.0
2025-07-13T05:30	10	9	0.2	9	9	389	0.2	388	389	15.3	91.3
2025-07-13T05:31	10	10	0.2	9	10	389	0.3	388	390	15.3	89.2
2025-07-13T05:32	10	10	0.2	10	11	389	0.2	389	390	15.4	88.4
2025-07-13T05:33	10	11	0.2	11	12	389	0.2	389	390	15.5	88.3
2025-07-13T05:34	10	12	0.2	11	12	390	0.2	389	390	15.4	90.8
2025-07-13T05:35	10	13	0.2	12	13	390	0.3	389	391	15.4	89.5
2025-07-13T05:36	10	14	0.2	13	14	391	0.2	390	391	15.4	89.4
2025-07-13T05:37	10	14	0.2	14	15	391	0.3	391	392	15.4	88.7
2025-07-13T05:38	10	15	0.3	14	15	391	0.2	391	392	15.4	89.8
2025-07-13T05:39	10	16	0.2	15	16	392	0.3	391	392	15.5	87.9
2025-07-13T05:40	10	16	0.2	16	17	393	0.4	392	394	15.7	85.4
2025-07-13T05:41	10	17	0.1	16	17	394	0.3	393	395	15.8	84.3
2025-07-13T05:42	10	17	0.1	17	17	394	0.3	393	395	15.8	86.1
2025-07-13T05:43	10	17	0.1	17	17	395	0.2	394	395	15.7	87.0
2025-07-13T05:44	10	17	0.1	17	17	395	0.2	395	396	15.9	83.8
2025-07-13T05:45	10	17	0.1	17	17	395	0.2	394	395	15.9	88.4
2025-07-13T05:46	10	17	0.1	17	17	395	0.2	395	396	15.8	89.1
2025-07-13T05:47	10	17	0.1	17	17	395	0.3	394	395	15.8	88.5
2025-07-13T05:48	10	17	0.1	17	17	395	0.2	394	395	15.7	89.1
2025-07-13T05:49	10	17	0.1	16	17	394	0.2	394	395	15.7	90.0
2025-07-13T05:50	10	16	0.1	16	16	394	0.3	394	395	15.7	89.5
2025-07-13T05:51	10	16	0.1	16	16	394	0.2	394	395	15.7	89.9
2025-07-13T05:52	10	15	0.1	15	16	394	0.2	394	395	15.7	89.9
2025-07-13T05:53	10	15	0.2	14	15	394	0.3	394	395	15.8	90.3
2025-07-13T05:54	10	14	0.2	14	14	395	0.2	394	395	15.8	90.6
2025-07-13T05:55	10	14	0.1	13	14	395	0.2	394	395	15.8	90.6
2025-07-13T05:56	10	14	0.3	13	15	395	0.2	394	395	15.9	90.1
2025-07-13T05:57	10	15	0.4	13	15	395	0.2	395	396	15.9	90.3
2025-07-13T05:58	10	13	0.2	12	13	395	0.3	395	396	15.9	90.2
2025-07-13T05:59	10	19	4.5	13	24	395	0.3	394	395	16.0	88.4
2025-07-13T06:00	10	19	1.7	17	22	395	0.3	394	396	16.0	87.0
2025-07-13T06:01	10	20	2.9	17	25	395	0.2	394	395	16.0	87.3
2025-07-13T06:02	10	23	1.5	21	25	395	0.2	394	395	16.0	87.8
2025-07-13T06:03	10	21	1.6	17	22	395	0.3	395	396	16.0	88.1
2025-07-13T06:04	10	23	3.9	17	28	395	0.3	395	396	16.1	87.5
2025-07-13T06:05	10	26	0.7	25	27	396	0.3	395	396	16.1	88.4
2025-07-13T06:06	10	23	2.2	17	25	396	0.2	396	397	16.1	89.1
2025-07-13T06:07	10	14	0.9	13	17	395	0.5	395	397	16.2	88.7
2025-07-13T06:08	10	11	1.2	9	13	395	0.4	394	395	16.1	88.6
2025-07-13T06:09	10	9	0.1	9	9	394	0.3	393	395	16.1	89.4
2025-07-13T06:10	10	9	0.1	9	9	394	0.2	393	394	16.0	90.4
2025-07-13T06:11	10	9	0.1	9	9	394	0.2	393	394	16.0	90.7
2025-07-13T06:12	10	9	0.1	9	9	394	0.2	393	394	15.9	90.7
2025-07-13T06:13	10	9	0.1	9	9	394	0.2	394	394	15.9	90.6
2025-07-13T06:14	10	9	0.1	9	9	394	0.2	393	394	15.9	90.6
2025-07-13T06:15	10	9	0.1	9	9	394	0.2	393	394	15.9	90.9
2025-07-13T06:16	10	9	0.2	9	10	394	0.2	394	395	15.9	91.4
2025-07-13T06:17	10	10	0.2	10	10	394	0.2	394	395	15.9	91.6
2025-07-13T06:18	10	10	0.2	10	11	394	0.2	394	395	15.9	91.4
2025-07-13T06:19	10	11	0.2	11	11	394	0.2	393	394	15.9	91.2
2025-07-13T06:20	10	12	0.3	11	12	394	0.2	393	394	15.9	91.7
2025-07-13T06:21	10	13	0.3	12	13	394	0.3	393	394	15.9	92.2
2025-07-13T06:22	10	14	0.4	13	14	394	0.3	394	395	15.9	92.9
2025-07-13T06:23	10	15	0.4	14	16	395	0.3	394	395	15.9	92.3
2025-07-13T06:24	10	16	0.5	16	17	395	0.3	394	396	15.9	92.0
2025-07-13T06:25	10	18	0.7	17	20	395	0.3	395	396	16.0	92.3
2025-07-13T06:26	10	21	0.9	20	23	397	0.5	395	398	16.0	92.3
2025-07-13T06:27	10	24	1.1	23	27	398	0.4	397	399	16.0	92.5
2025-07-13T06:28	10	40	15.5	26	71	399	1.4	398	403	16.0	92.2
2025-07-13T06:29	10	87	6.6	71	94	405	2.2	401	408	16.1	91.8
2025-07-13T06:30	10	94	0.2	94	95	410	1.2	407	411	16.3	91.8
2025-07-13T06:31	10	94	1.9	90	95	412	0.5	410	412	16.5	90.9
2025-07-13T06:32	10	90	2.6	84	92	413	0.3	412	414	16.7	90.3
2025-07-13T06:33	10	72	17.9	41	92	413	1.1	411	414	16.9	89.6
2025-07-13T06:34	10	41	0.1	41	41	410	1.0	409	412	17.0	89.0
2025-07-13T06:35	10	57	16.6	41	82	410	1.1	409	412	17.0	88.0
2025-07-13T06:36	10	47	10.1	38	67	411	1.0	409	412	17.0	88.1
2025-07-13T06:37	10	38	0.7	35	39	410	0.3	409	410	17.0	88.2
2025-07-13T06:38	10	33	1.1	31	35	409	0.7	407	410	17.0	88.6
2025-07-13T06:39	10	30	0.6	29	31	408	0.4	407	409	16.9	88.5
2025-07-13T06:40	10	29	0.3	28	29	407	0.4	406	408	16.8	88.9
2025-07-13T06:41	10	28	0.4	27	28	407	0.2	407	408	16.9	89.1
2025-07-13T06:42	10	26	0.5	25	27	407	0.2	406	407	16.9	90.1
2025-07-13T06:43	10	25	0.3	24	26	407	0.3	406	407	16.9	89.6
2025-07-13T06:44	10	24	0.1	24	25	407	0.3	406	407	17.0	89.8
2025-07-13T06:45	10	24	0.1	24	24	406	0.2	406	407	17.0	89.8
2025-07-13T06:46	10	23	0.2	23	24	406	0.3	406	407	17.0	88.9
2025-07-13T06:47	10	22	0.4	21	23	406	0.3	405	406	17.0	89.1
2025-07-13T06:48	10	21	0.4	20	22	405	0.6	404	406	17.0	89.0
2025-07-13T06:49	10	19	0.6	18	20	405	0.3	404	405	17.0	89.3
2025-07-13T06:50	10	17	0.5	17	18	404	0.3	403	404	16.9	89.3
2025-07-13T06:51	10	16	0.6	15	17	403	0.2	403	404	16.9	89.7
2025-07-13T06:52	10	14	0.5	13	15	403	0.2	403	404	16.9	89.1
2025-07-13T06:53	10	12	0.4	12	13	403	0.2	403	404	16.9	88.4
2025-07-13T06:54	10	11	0.3	11	12	403	0.3	402	404	16.9	88.6
2025-07-13T06:55	10	10	0.3	10	11	402	0.3	402	403	16.9	88.6
2025-07-13T06:56	10	9	0.2	9	10	402	0.2	402	403	16.9	87.3
2025-07-13T06:57	10	9	0.2	8	9	402	0.2	401	402	17.0	86.9
2025-07-13T06:58	10	8	0.2	7	8	402	0.2	401	402	17.0	87.1
2025-07-13T06:59	10	7	0.2	7	8	402	0.2	401	402	17.0	87.5
2025-07-13T07:00	10	7	0.1	7	7	402	0.2	401	402	17.0	87.4
2025-07-13T07:01	10	7	0.1	7	7	401	0.3	401	402	17.0	87.4
2025-07-13T07:02	10	7	0.1	6	7	401	0.2	401	401	17.0	88.0
2025-07-13T07:03	10	7	0.1	6	7	401	0.3	400	401	17.0	88.2
2025-07-13T07:04	10	6	0.1	6	6	401	0.2	400	401	17.0	89.0
2025-07-13T07:05	10	6	0.2	6	7	400	0.3	400	401	17.0	89.3
2025-07-13T07:06	10	6	0.2	6	7	400	0.2	399	400	17.0	89.3
2025-07-13T07:07	10	6	0.2	5	6	400	0.3	399	400	17.0	89.2
2025-07-13T07:08	10	5	0.2	5	6	399	0.2	399	400	17.0	88.9
2025-07-13T07:09	10	5	0.2	4	5	399	0.2	398	399	17.0	88.8
2025-07-13T07:10	10	4	0.1	4	5	399	0.3	398	400	17.0	88.9
2025-07-13T07:11	10	4	0.2	4	5	398	0.3	397	399	17.0	89.8
2025-07-13T07:12	10	4	0.1	4	5	398	0.2	397	398	17.0	89.0
2025-07-13T07:13	10	4	0.2	4	5	397	0.4	396	398	17.0	89.2
2025-07-13T07:14	10	5	0.2	4	5	396	0.3	396	397	17.0	88.5
2025-07-13T07:15	10	5	0.2	4	5	396	0.3	395	396	17.0	89.1
2025-07-13T07:16	10	5	0.1	4	5	396	0.2	396	397	16.9	89.1
2025-07-13T07:17	10	5	0.2	4	5	396	0.3	395	397	16.9	89.6
2025-07-13T07:18	10	5	0.2	5	6	396	0.2	396	397	16.9	89.6
2025-07-13T07:19	10	5	0.2	5	6	396	0.3	396	397	16.9	89.3
2025-07-13T07:20	10	6	0.2	5	6	397	0.2	396	397	16.9	88.1
2025-07-13T07:21	10	6	0.2	5	6	397	0.2	397	397	17.0	87.0
2025-07-13T07:22	10	6	0.2	5	6	397	0.3	396	398	17.0	86.7
2025-07-13T07:23	10	6	0.2	6	7	397	0.3	397	398	17.0	86.6
2025-07-13T07:24	10	6	0.2	6	7	398	0.3	397	398	17.1	85.2
2025-07-13T07:25	10	7	0.2	6	7	398	0.2	397	398	17.1	86.4
2025-07-13T07:26	10	7	0.2	7	8	398	0.2	398	399	17.1	86.0
2025-07-13T07:27	10	8	0.2	8	9	398	0.3	398	399	17.2	86.0
2025-07-13T07:28	10	9	0.2	8	9	399	0.3	398	399	17.3	85.6
2025-07-13T07:29	10	9	0.3	9	10	399	0.3	398	400	17.3	85.7
2025-07-13T07:30	10	10	0.3	10	11	399	0.2	399	400	17.3	85.9
2025-07-13T07:31	10	11	0.3	11	12	400	0.3	399	401	17.3	86.2
2025-07-13T07:32	10	12	0.2	11	13	400	0.4	400	401	17.4	85.9
2025-07-13T07:33	10	12	0.2	12	13	401	0.2	400	401	17.5	85.0
2025-07-13T07:34	10	12	0.2	12	13	401	0.2	400	401	17.5	85.0
2025-07-13T07:35	10	12	0.2	12	13	401	0.2	401	402	17.5	85.2
2025-07-13T07:36	10	13	0.3	13	14	401	0.3	401	402	17.5	85.0
2025-07-13T07:37	10	14	0.4	13	15	402	0.3	401	403	17.5	85.6
2025-07-13T07:38	10	16	0.4	15	16	402	0.3	402	403	17.5	84.9
2025-07-13T07:39	10	17	0.5	16	18	402	0.3	402	403	17.6	84.1
2025-07-13T07:40	10	19	0.4	18	20	402	0.3	401	402	17.7	82.7
2025-07-13T07:41	10	20	0.4	20	21	402	0.2	402	403	17.6	85.4
2025-07-13T07:42	10	21	0.3	20	22	403	0.3	402	404	17.5	85.6
2025-07-13T07:43	10	22	0.2	21	22	404	0.3	403	404	17.6	85.6
2025-07-13T07:44	10	22	0.2	22	23	404	0.3	403	405	17.7	84.6
2025-07-13T07:45	10	22	0.3	21	22	404	0.3	404	405	17.8	84.0
2025-07-13T07:46	10	21	0.2	21	22	404	0.4	403	405	17.9	83.2
2025-07-13T07:47	10	21	0.2	20	21	404	0.3	404	405	17.9	84.4
2025-07-13T07:48	10	21	0.2	20	21	405	0.3	404	405	17.9	83.7
2025-07-13T07:49	10	21	0.2	20	22	405	0.4	404	406	17.8	85.2
2025-07-13T07:50	10	21	0.1	21	21	405	0.4	405	406	17.8	86.4
2025-07-13T07:51	10	21	0.2	20	21	406	0.3	405	407	17.8	87.0
2025-07-13T07:52	10	21	0.1	20	21	407	0.2	406	407	17.9	88.3
2025-07-13T07:53	10	20	0.2	20	21	407	0.3	406	407	17.9	88.8
2025-07-13T07:54	10	20	0.2	20	21	407	0.3	406	408	17.8	88.8
2025-07-13T07:55	10	20	0.2	19	20	407	0.3	406	408	17.8	89.3
2025-07-13T07:56	10	20	0.2	19	20	407	0.3	406	408	17.8	89.6
2025-07-13T07:57	10	20	0.2	20	20	407	0.3	406	407	17.8	88.9
2025-07-13T07:58	10	20	0.1	20	21	407	0.2	406	407	17.7	89.6
2025-07-13T07:59	10	20	0.2	20	21	407	0.3	406	408	17.7	89.8
2025-07-13T08:00	10	21	0.3	20	22	407	0.3	406	408	17.7	90.0
2025-07-13T08:01	10	22	0.2	21	22	407	0.2	407	408	17.7	89.1
2025-07-13T08:02	10	22	0.1	22	22	407	0.2	407	408	17.7	89.3
2025-07-13T08:03	10	22	0.1	22	22	407	0.4	406	408	17.8	88.7
2025-07-13T08:04	10	22	0.1	21	22	406	0.4	406	407	17.8	88.7
2025-07-13T08:05	10	21	0.1	21	22	406	0.3	405	406	17.7	89.8
2025-07-13T08:06	10	21	0.1	21	21	405	0.3	405	406	17.6	89.9
2025-07-13T08:07	10	21	0.1	21	22	405	0.2	404	405	17.5	90.7
2025-07-13T08:08	10	22	0.1	21	22	405	0.3	404	405	17.5	91.0
2025-07-13T08:09	10	22	0.3	22	23	405	0.2	404	405	17.4	90.9
2025-07-13T08:10	10	24	0.5	23	25	405	0.4	404	406	17.4	91.0
2025-07-13T08:11	10	26	0.6	25	27	406	0.4	405	407	17.5	91.4
2025-07-13T08:12	10	28	0.5	27	28	407	0.4	406	408	17.5	91.4
2025-07-13T08:13	10	29	0.2	28	29	408	0.4	408	409	17.5	92.0
2025-07-13T08:14	10	29	0.3	29	30	409	0.3	408	410	17.6	91.1
2025-07-13T08:15	10	30	0.1	30	30	410	0.3	409	410	17.7	91.6
2025-07-13T08:16	10	30	0.1	30	30	410	0.5	409	411	17.8	90.7
2025-07-13T08:17	10	30	0.1	30	30	411	0.3	410	412	17.8	89.5
2025-07-13T08:18	10	30	0.1	30	30	411	0.2	411	412	17.8	89.9
2025-07-13T08:19	10	30	0.1	30	30	411	0.2	411	412	17.9	89.2
2025-07-13T08:20	10	31	0.3	30	32	412	0.2	411	412	17.9	89.2
2025-07-13T08:21	10	32	0.2	31	32	412	0.4	411	413	18.0	89.3
2025-07-13T08:22	10	32	0.2	32	33	412	0.2	412	412	18.0	88.7
2025-07-13T08:23	10	33	0.5	33	34	412	0.3	411	412	18.0	87.5
2025-07-13T08:24	10	35	0.6	34	36	412	0.2	411	413	18.0	88.1
2025-07-13T08:25	10	38	0.6	36	39	413	0.3	412	413	18.0	87.3
2025-07-13T08:26	10	40	0.6	39	41	413	0.4	413	414	18.1	87.0
2025-07-13T08:27	10	41	0.2	41	41	413	0.2	413	414	18.1	86.5
2025-07-13T08:28	10	41	0.2	41	41	413	0.5	412	414	18.1	86.6
2025-07-13T08:29	10	40	0.4	39	41	413	0.4	412	414	18.2	85.3
2025-07-13T08:30	10	39	0.4	38	39	412	0.3	412	413	18.3	84.5
2025-07-13T08:31	10	38	0.2	37	38	412	0.3	411	412	18.3	84.5
2025-07-13T08:32	10	37	0.1	37	37	411	0.5	410	412	18.3	83.2
2025-07-13T08:33	10	37	0.2	37	37	411	0.4	410	412	18.3	83.4
2025-07-13T08:34	10	36	0.1	36	37	412	0.3	411	413	18.3	85.3
2025-07-13T08:35	10	39	2.1	36	43	413	0.4	412	414	18.3	85.0
2025-07-13T08:36	10	56	13.1	43	80	415	1.4	413	418	18.4	84.0
2025-07-13T08:37	10	67	19.0	41	100	419	0.9	417	421	18.4	82.8
2025-07-13T08:38	10	106	38.0	41	139	422	3.8	417	428	18.5	82.9
2025-07-13T08:39	10	132	6.7	117	138	428	1.4	426	431	18.6	83.0
2025-07-13T08:40	10	141	1.1	137	142	432	1.1	430	434	18.7	79.7
2025-07-13T08:41	10	141	0.3	141	142	435	0.8	433	437	19.0	78.1
2025-07-13T08:42	10	140	0.3	140	141	438	0.8	436	439	19.2	80.9
2025-07-13T08:43	10	140	0.4	139	140	437	1.1	436	440	19.4	81.1
2025-07-13T08:44	10	139	0.8	136	139	437	0.2	437	438	19.1	78.7
2025-07-13T08:45	10	134	3.2	125	137	438	0.3	437	439	19.1	79.4
2025-07-13T08:46	10	135	0.6	134	136	438	0.5	437	439	19.0	79.9
2025-07-13T08:47	10	135	0.7	133	136	438	0.3	437	439	19.1	79.1
2025-07-13T08:48	10	136	0.4	136	137	439	0.4	438	440	19.3	79.5
2025-07-13T08:49	10	137	0.1	137	138	441	0.4	440	442	19.6	79.1
2025-07-13T08:50	10	138	0.2	137	138	442	0.2	442	442	19.5	79.0
2025-07-13T08:51	10	138	0.3	137	138	443	0.3	442	443	19.7	79.0
2025-07-13T08:52	10	137	0.4	136	138	443	0.6	442	444	19.8	80.6
2025-07-13T08:53	10	137	0.1	136	137	443	0.3	443	444	19.8	78.4
2025-07-13T08:54	10	137	0.2	137	138	444	0.3	443	444	19.8	77.3
2025-07-13T08:55	10	138	0.3	138	139	444	0.4	444	445	20.0	77.0
2025-07-13T08:56	10	139	0.2	139	139	445	0.3	444	445	20.1	75.9
2025-07-13T08:57	10	139	0.1	139	140	446	0.3	445	446	20.0	76.4
2025-07-13T08:58	10	140	0.3	139	141	447	0.4	446	448	20.2	76.5
2025-07-13T08:59	10	141	0.4	140	142	447	0.3	446	447	20.5	76.0
2025-07-13T09:00	10	143	0.5	142	144	448	0.4	447	449	20.4	76.7
2025-07-13T09:01	10	144	0.5	144	145	449	0.6	448	450	20.6	76.2
2025-07-13T09:02	10	146	0.5	145	147	450	0.3	450	451	20.7	77.1
2025-07-13T09:03	10	147	0.2	146	147	451	0.3	451	452	20.8	76.5
2025-07-13T09:04	10	144	2.3	139	146	451	0.9	449	452	20.8	73.5
2025-07-13T09:05	10	141	2.0	138	144	450	1.0	449	452	20.7	73.6
2025-07-13T09:06	10	140	6.8	116	145	450	0.4	448	450	20.7	71.4
2025-07-13T09:07	10	128	14.0	100	143	448	1.0	446	450	20.6	72.3
2025-07-13T09:08	10	143	1.6	140	145	450	0.4	449	450	20.7	73.7
2025-07-13T09:09	10	143	0.4	143	144	450	0.4	450	451	20.6	74.4
2025-07-13T09:10	10	144	0.2	143	145	451	0.3	450	452	20.5	75.8
2025-07-13T09:11	10	145	0.4	144	146	452	0.6	451	454	20.5	75.9
2025-07-13T09:12	10	145	0.3	144	145	452	0.3	451	453	20.5	74.5
2025-07-13T09:13	10	144	0.2	144	145	452	0.4	451	453	20.6	74.0
2025-07-13T09:14	10	144	0.2	144	145	452	0.4	451	453	20.7	73.8
2025-07-13T09:15	10	144	0.2	144	145	453	0.5	452	454	20.9	71.6
2025-07-13T09:16	10	145	0.2	145	146	454	0.7	453	455	20.9	71.2
2025-07-13T09:17	10	145	0.5	143	145	455	0.5	454	456	20.9	71.4
2025-07-13T09:18	10	145	0.5	143	146	456	0.6	454	457	20.9	72.4
2025-07-13T09:19	10	146	0.1	145	146	456	0.3	456	457	21.0	72.5
2025-07-13T09:20	10	146	0.3	146	147	457	0.3	456	458	21.4	72.3
2025-07-13T09:21	10	146	0.2	146	147	458	0.5	457	459	21.5	70.0
2025-07-13T09:22	10	147	0.2	146	147	457	1.0	455	458	21.5	66.2
2025-07-13T09:23	10	147	0.2	146	147	456	0.4	455	456	21.4	65.8
2025-07-13T09:24	10	146	0.2	146	146	456	0.5	456	458	21.3	66.4
2025-07-13T09:25	10	147	0.2	146	147	455	1.2	452	457	21.2	66.3
2025-07-13T09:26	10	147	0.2	147	147	454	0.6	453	455	21.1	67.4
2025-07-13T09:27	10	148	0.3	147	148	454	1.1	452	456	21.1	66.7
2025-07-13T09:28	10	148	0.3	147	149	454	0.7	453	455	21.2	67.0
2025-07-13T09:29	10	149	0.2	148	149	454	0.8	453	456	21.1	66.4
2025-07-13T09:30	10	149	0.3	148	149	456	0.5	455	457	21.2	66.2
2025-07-13T09:31	10	149	0.4	148	150	459	1.3	456	461	21.4	67.1
2025-07-13T09:32	10	150	0.3	149	150	458	0.5	457	460	21.4	65.6
2025-07-13T09:33	10	150	0.1	150	151	458	0.8	456	459	21.4	65.4
2025-07-13T09:34	10	150	0.1	150	150	459	0.8	458	460	21.6	66.5
2025-07-13T09:35	10	150	0.1	150	151	459	1.0	457	461	21.7	66.2
2025-07-13T09:36	10	151	0.1	150	151	460	0.8	458	461	21.7	66.2
2025-07-13T09:37	10	151	0.1	150	151	459	0.8	457	460	21.5	65.4
2025-07-13T09:38	10	151	0.3	151	151	459	0.5	458	460	21.7	64.7
2025-07-13T09:39	10	152	0.1	151	152	459	1.0	457	461	21.6	64.2
2025-07-13T09:40	10	151	0.1	151	152	462	1.4	461	465	21.8	65.4
2025-07-13T09:41	10	152	0.2	151	152	465	0.7	463	467	22.1	66.0
2025-07-13T09:42	10	153	0.2	152	153	462	0.9	461	464	22.1	64.2
2025-07-13T09:43	10	153	0.1	153	153	462	0.4	461	463	21.9	64.9
2025-07-13T09:44	10	153	0.1	153	154	461	0.5	461	463	21.8	65.2
2025-07-13T09:45	10	153	0.1	153	154	465	1.5	462	468	22.2	66.3
2025-07-13T09:46	10	154	0.1	154	154	465	1.5	462	468	22.4	64.0
2025-07-13T09:47	10	154	0.1	154	154	464	0.8	462	465	21.9	64.2
2025-07-13T09:48	10	154	0.1	154	155	466	0.4	464	467	22.1	65.2
2025-07-13T09:49	10	155	0.3	154	155	464	0.9	463	466	22.1	64.2
2025-07-13T09:50	10	156	0.2	155	156	465	0.5	465	467	22.0	64.8
2025-07-13T09:51	10	156	0.3	155	157	465	0.6	464	466	22.0	65.1
2025-07-13T09:52	10	157	0.5	156	158	468	1.1	466	469	22.3	65.0
2025-07-13T09:53	10	158	0.5	157	159	470	0.5	469	471	22.7	63.7
2025-07-13T09:54	10	159	0.5	158	160	470	0.7	469	471	22.8	63.7
2025-07-13T09:55	10	155	5.5	142	160	471	0.8	470	473	22.8	64.0
2025-07-13T09:56	10	160	0.4	159	160	472	0.8	470	473	22.9	63.3
2025-07-13T09:57	10	161	0.4	160	162	470	0.6	469	471	22.5	62.7
2025-07-13T09:58	10	161	0.4	160	161	472	0.7	470	473	22.5	63.6
2025-07-13T09:59	10	161	0.2	161	162	472	0.9	470	474	22.7	63.8
2025-07-13T10:00	10	161	0.3	161	162	473	0.8	471	474	22.9	63.9
2025-07-13T10:01	10	162	0.4	162	163	474	0.4	473	475	23.1	62.4
2025-07-13T10:02	10	164	0.3	163	164	474	0.5	473	475	22.8	62.0
2025-07-13T10:03	10	164	0.3	164	165	475	0.4	474	476	22.9	61.5
2025-07-13T10:04	10	164	0.3	164	165	475	0.3	474	476	23.0	62.1
2025-07-13T10:05	10	163	0.4	162	164	477	0.4	476	477	23.2	62.7
2025-07-13T10:06	10	162	0.5	161	162	477	0.8	475	478	23.2	62.5
2025-07-13T10:07	10	160	0.4	159	161	476	1.0	474	477	23.5	62.7
2025-07-13T10:08	10	159	0.3	158	160	474	1.2	472	476	23.0	61.3
2025-07-13T10:09	10	158	0.2	158	159	473	0.6	472	475	22.5	62.0
2025-07-13T10:10	10	158	0.2	157	158	474	0.7	473	476	22.6	63.0
2025-07-13T10:11	10	158	0.1	158	158	474	0.4	474	476	22.8	62.8
2025-07-13T10:12	10	157	0.1	157	158	476	0.9	474	478	23.1	62.7
2025-07-13T10:13	10	158	0.3	157	158	476	1.2	475	478	23.1	63.0
2025-07-13T10:14	10	158	0.2	158	159	475	2.0	473	479	23.0	62.4
2025-07-13T10:15	10	159	0.1	159	159	475	1.2	473	477	22.7	63.2
2025-07-13T10:16	10	159	0.1	158	159	478	0.5	477	479	22.8	63.5
2025-07-13T10:17	10	159	0.2	158	159	479	0.8	477	480	22.8	63.5
2025-07-13T10:18	10	159	0.1	158	159	477	0.9	475	478	22.8	63.5
2025-07-13T10:19	10	158	0.1	158	159	476	0.5	475	477	22.8	63.5
2025-07-13T10:20	10	159	0.2	158	159	478	0.8	477	480	22.8	63.5
2025-07-13T10:21	10	159	0.2	159	160	477	0.7	475	478	22.8	63.5
2025-07-13T10:22	10	158	0.4	158	159	475	0.6	474	476	22.8	63.5
2025-07-13T10:23	10	159	0.6	158	160	477	0.7	476	479	22.8	63.7
2025-07-13T10:24	10	159	0.7	158	160	475	1.3	472	477	23.1	66.2
2025-07-13T10:25	10	160	0.3	160	161	473	0.8	472	475	22.8	67.4
2025-07-13T10:26	10	161	0.2	160	161	476	1.8	473	479	22.9	67.2
2025-07-13T10:27	10	154	11.9	119	161	476	1.5	473	478	23.0	67.6
2025-07-13T10:28	10	160	0.1	160	160	473	1.1	471	475	22.7	68.3
2025-07-13T10:29	10	160	0.3	159	160	475	1.0	473	477	23.2	67.2
2025-07-13T10:30	10	160	0.3	159	160	474	0.8	473	476	22.7	67.5
2025-07-13T10:31	10	160	0.3	160	161	471	1.1	470	474	22.9	67.1
2025-07-13T10:32	10	162	0.6	161	163	472	1.7	470	475	23.1	65.9
2025-07-13T10:33	10	163	1.3	159	164	475	0.8	474	477	22.9	65.4
2025-07-13T10:34	10	162	0.4	161	162	479	1.9	476	482	23.2	65.4
2025-07-13T10:35	10	161	0.2	160	161	482	0.9	481	484	23.4	64.7
2025-07-13T10:36	10	161	0.2	160	161	480	1.2	478	483	23.3	64.4
2025-07-13T10:37	10	161	0.4	160	161	480	1.0	478	482	23.2	64.4
2025-07-13T10:38	10	161	0.2	161	161	480	0.9	478	482	23.0	64.0
2025-07-13T10:39	10	161	0.5	160	161	480	0.9	479	482	23.0	64.0
2025-07-13T10:40	10	161	0.3	160	162	483	0.5	482	484	23.4	64.0
2025-07-13T10:41	10	163	0.4	162	163	482	1.4	480	485	23.4	63.3
2025-07-13T10:42	10	163	0.3	162	163	481	0.9	480	483	23.1	64.3
2025-07-13T10:43	10	162	0.1	162	162	483	0.7	482	485	23.6	63.9
2025-07-13T10:44	10	162	0.3	162	163	481	1.2	479	484	23.3	62.9
2025-07-13T10:45	10	163	0.1	163	163	483	1.2	481	485	23.0	64.1
2025-07-13T10:46	10	163	0.1	163	163	483	0.3	482	483	23.1	63.6
2025-07-13T10:47	10	163	0.1	163	163	484	0.8	483	485	23.2	63.4
2025-07-13T10:48	10	163	0.3	162	163	487	1.1	484	488	24.0	63.0
2025-07-13T10:49	10	163	0.3	163	164	485	1.0	483	487	23.8	62.0
2025-07-13T10:50	10	163	0.1	163	163	486	0.9	485	487	23.7	62.7
2025-07-13T10:51	10	163	0.3	162	163	487	0.5	486	488	23.9	62.0
2025-07-13T10:52	10	164	0.2	163	164	486	0.5	485	487	23.8	61.1
2025-07-13T10:53	10	164	0.1	164	164	485	0.5	484	487	23.6	61.3
2025-07-13T10:54	10	165	0.2	164	165	484	0.5	483	485	23.5	61.4
2025-07-13T10:55	10	165	0.2	165	166	486	0.7	485	487	23.5	61.8
2025-07-13T10:56	10	167	0.5	166	168	488	0.6	487	489	23.6	61.1
2025-07-13T10:57	10	120	54.9	41	170	483	7.6	470	491	23.7	62.2
2025-07-13T10:58	10	123	41.3	52	170	476	4.2	471	483	23.8	62.7
2025-07-13T10:59	10	166	5.6	152	173	485	1.4	481	487	23.7	62.5
2025-07-13T11:00	10	168	1.8	160	169	488	0.9	486	489	23.9	62.6
2025-07-13T11:01	10	167	2.4	159	168	487	0.5	486	488	24.0	62.4
2025-07-13T11:02	10	168	0.9	165	170	486	0.6	485	487	24.0	62.0
2025-07-13T11:03	10	171	0.4	170	171	488	1.4	485	490	24.2	61.5
2025-07-13T11:04	10	174	1.6	171	177	486	0.9	485	489	23.7	60.9
2025-07-13T11:05	10	123	56.7	46	179	479	8.3	463	489	23.6	62.6
2025-07-13T11:06	10	140	50.3	46	177	473	7.6	463	484	23.7	63.0
2025-07-13T11:07	10	173	1.8	168	174	483	1.1	481	485	23.8	61.9
2025-07-13T11:08	10	168	2.0	161	170	484	0.9	482	486	23.6	62.2
2025-07-13T11:09	10	165	5.9	142	170	485	1.0	484	487	23.8	62.4
2025-07-13T11:10	10	63	33.7	36	154	472	7.4	464	487	23.9	62.0
2025-07-13T11:11	10	161	11.2	144	173	476	3.7	468	482	23.5	62.9
2025-07-13T11:12	10	170	0.9	169	172	483	1.6	479	485	23.6	63.0
2025-07-13T11:13	10	168	1.1	165	169	484	0.9	482	485	23.8	62.4
2025-07-13T11:14	10	151	14.2	105	165	482	1.3	480	486	23.6	62.1
2025-07-13T11:15	10	144	31.7	94	174	479	3.1	474	483	23.4	62.6
2025-07-13T11:16	10	173	0.3	173	174	483	0.8	481	485	23.4	62.5
2025-07-13T11:17	10	172	0.4	171	173	489	2.4	484	492	23.5	62.9
2025-07-13T11:18	10	170	0.4	169	171	492	0.8	490	493	23.9	61.9
2025-07-13T11:19	10	169	0.6	167	169	491	0.7	490	493	24.1	61.0
2025-07-13T11:20	10	167	0.6	166	168	492	2.1	489	495	24.4	59.9
2025-07-13T11:21	10	165	0.1	165	165	489	1.0	487	491	24.7	58.7
2025-07-13T11:22	10	165	0.1	165	165	489	0.7	488	490	24.5	59.3
2025-07-13T11:23	10	165	0.1	165	166	487	1.2	486	490	24.5	59.8
2025-07-13T11:24	10	165	0.3	164	165	489	1.4	487	492	24.2	60.8
2025-07-13T11:25	10	164	0.2	164	165	486	0.8	485	488	23.9	61.8
2025-07-13T11:26	10	165	0.2	165	165	488	1.9	485	491	23.9	62.0
2025-07-13T11:27	10	165	0.1	165	165	489	1.9	486	492	24.3	60.2
2025-07-13T11:28	10	161	5.9	147	166	490	1.6	486	492	24.1	60.6
2025-07-13T11:29	10	165	0.8	164	166	487	1.3	485	490	24.0	60.8
2025-07-13T11:30	10	166	0.3	165	167	491	1.3	489	493	24.3	60.0
2025-07-13T11:31	10	167	0.2	166	167	492	0.6	491	493	24.6	59.5
2025-07-13T11:32	10	167	0.1	167	168	491	0.8	490	493	24.3	59.2
2025-07-13T11:33	10	168	0.3	167	168	494	0.5	493	495	24.3	59.1
2025-07-13T11:34	10	168	0.2	168	169	496	1.0	494	498	24.7	57.8
2025-07-13T11:35	10	169	0.2	169	169	495	0.3	494	495	24.4	57.7
2025-07-13T11:36	10	170	0.4	169	170	497	1.3	495	499	24.8	57.4
2025-07-13T11:37	10	171	0.5	170	172	498	0.8	496	499	25.2	57.3
2025-07-13T11:38	10	171	0.1	171	172	500	0.9	497	501	25.3	55.9
2025-07-13T11:39	10	172	0.2	171	172	497	1.0	496	500	24.9	56.0
2025-07-13T11:40	10	173	0.6	172	174	497	0.6	496	498	25.0	56.0
2025-07-13T11:41	10	174	0.4	174	175	496	0.3	495	497	24.5	56.6
2025-07-13T11:42	10	176	0.5	175	177	498	0.7	497	500	24.7	56.6
2025-07-13T11:43	10	178	0.6	176	179	500	0.8	498	501	24.8	56.0
2025-07-13T11:44	10	180	0.8	179	181	500	1.3	498	502	24.7	56.0
2025-07-13T11:45	10	183	1.3	181	186	502	1.2	500	505	25.0	55.8
2025-07-13T11:46	10	114	52.2	55	189	498	7.7	484	507	25.3	55.2
2025-07-13T11:47	10	90	48.8	55	192	482	3.5	477	488	25.2	55.0
2025-07-13T11:48	10	181	28.7	106	201	495	3.4	486	499	24.7	55.7
2025-07-13T11:49	10	189	10.6	164	198	500	2.3	495	503	24.8	56.1
2025-07-13T11:50	10	102	39.7	59	198	492	8.2	480	505	24.9	55.3
2025-07-13T11:51	10	72	23.1	60	169	478	2.4	475	483	24.8	55.5
2025-07-13T11:52	10	172	28.6	117	203	491	4.6	478	495	25.0	55.3
2025-07-13T11:53	10	90	19.8	68	135	484	3.8	480	493	25.1	55.5
2025-07-13T11:54	10	129	15.2	89	144	486	1.2	484	488	25.5	55.4
2025-07-13T11:55	10	98	44.9	54	164	484	5.4	475	490	25.3	54.6
2025-07-13T11:56	10	74	35.5	54	159	475	2.5	472	483	25.4	55.6
2025-07-13T11:57	10	86	32.0	59	148	480	3.8	473	485	25.6	55.6
2025-07-13T11:58	10	125	45.2	60	176	477	4.7	471	485	25.5	54.3
2025-07-13T11:59	10	180	31.8	95	203	490	3.6	482	495	25.4	54.0
2025-07-13T12:00	10	166	29.9	95	203	493	4.4	485	500	25.6	54.2
2025-07-13T12:01	10	98	44.1	62	177	490	8.7	479	501	25.7	53.8
2025-07-13T12:02	10	85	38.3	62	191	478	2.5	476	485	25.5	54.3
2025-07-13T12:03	10	197	3.2	192	203	493	3.9	482	497	25.7	54.7
2025-07-13T12:04	10	104	46.3	67	204	488	8.8	473	499	25.7	54.8
2025-07-13T12:05	10	96	45.4	67	213	475	3.4	472	486	25.4	55.5
2025-07-13T12:06	10	212	2.0	208	214	494	5.4	483	503	25.3	55.8
2025-07-13T12:07	10	205	12.2	159	213	503	1.7	500	507	25.7	55.0
2025-07-13T12:08	10	183	42.0	88	215	505	4.0	498	510	26.2	54.7
2025-07-13T12:09	10	211	9.0	189	221	505	1.1	503	507	26.1	54.1
2025-07-13T12:10	10	185	25.1	125	215	505	1.6	501	507	26.0	54.4
2025-07-13T12:11	10	141	39.3	98	208	500	6.3	488	507	26.1	54.2
2025-07-13T12:12	10	106	12.1	95	131	488	1.2	486	491	26.0	54.1
2025-07-13T12:13	10	155	45.4	100	215	487	4.9	481	497	25.2	55.7
2025-07-13T12:14	10	173	39.7	111	222	496	2.6	491	499	25.1	56.0
2025-07-13T12:15	10	176	36.0	123	239	494	3.0	490	501	25.2	58.1
2025-07-13T12:16	10	177	42.2	118	237	497	2.8	493	502	25.2	58.2
2025-07-13T12:17	10	153	49.9	95	223	495	5.5	485	502	25.3	57.7
2025-07-13T12:18	10	105	15.4	92	142	483	4.4	477	491	25.3	57.8
2025-07-13T12:19	10	121	15.1	102	147	480	1.3	477	482	24.9	59.2
2025-07-13T12:20	10	144	32.1	108	199	475	2.2	472	480	24.1	61.4
2025-07-13T12:21	10	193	20.2	155	229	486	2.9	479	490	24.2	61.7
2025-07-13T12:22	10	176	27.4	146	229	488	2.4	484	491	24.5	60.7
2025-07-13T12:23	10	130	20.0	103	165	481	4.0	475	487	24.4	60.8
2025-07-13T12:24	10	109	5.7	103	120	473	1.4	471	476	24.0	62.2
2025-07-13T12:25	10	155	23.3	114	192	480	5.0	472	490	24.3	61.5
2025-07-13T12:26	10	183	14.1	165	212	491	1.8	487	494	24.4	60.8
2025-07-13T12:27	10	199	14.4	169	215	490	1.2	488	492	23.8	62.4
2025-07-13T12:28	10	214	0.8	213	216	495	1.8	491	498	23.8	62.8
2025-07-13T12:29	10	212	3.5	207	217	496	1.4	493	500	23.8	62.8
2025-07-13T12:30	10	204	5.9	190	213	497	1.2	495	499	23.9	62.3
2025-07-13T12:31	10	209	1.5	205	211	500	2.1	496	505	24.4	61.8
2025-07-13T12:32	10	200	9.0	183	207	501	2.4	497	504	24.4	61.4
2025-07-13T12:33	10	197	4.9	183	201	496	1.1	494	497	24.0	62.7
2025-07-13T12:34	10	197	1.8	193	200	499	1.2	497	502	24.2	61.8
2025-07-13T12:35	10	191	4.5	178	196	500	0.9	498	501	24.4	61.0
2025-07-13T12:36	10	179	16.4	143	193	497	2.4	491	501	24.0	60.9
2025-07-13T12:37	10	190	2.8	173	192	497	2.8	492	501	24.1	61.3
2025-07-13T12:38	10	191	0.2	190	191	497	0.8	496	499	23.9	61.4
2025-07-13T12:39	10	191	0.7	190	193	498	1.2	496	500	23.9	61.5
2025-07-13T12:40	10	140	38.2	88	195	493	6.1	483	501	24.1	60.8
2025-07-13T12:41	10	85	21.5	65	145	478	2.9	474	486	24.0	61.6
2025-07-13T12:42	10	177	19.3	148	199	488	4.3	480	494	24.3	60.7
2025-07-13T12:43	10	195	1.2	193	198	495	1.2	493	497	24.2	61.7
2025-07-13T12:44	10	193	0.3	193	194	497	2.5	494	502	24.0	62.1
2025-07-13T12:45	10	193	0.6	191	194	497	0.6	496	499	24.1	61.9
2025-07-13T12:46	10	193	0.7	192	195	498	0.7	497	500	24.1	61.8
2025-07-13T12:47	10	191	0.5	190	192	502	1.4	500	505	24.5	61.4
2025-07-13T12:48	10	189	0.4	189	190	498	1.3	496	501	24.0	61.5
2025-07-13T12:49	10	188	0.6	187	189	503	2.1	499	506	24.4	60.8
2025-07-13T12:50	10	186	0.5	185	187	505	0.7	503	506	24.8	59.7
2025-07-13T12:51	10	184	0.9	183	185	498	2.8	495	504	24.4	60.8
2025-07-13T12:52	10	182	0.6	181	183	501	1.2	498	503	24.3	61.4
2025-07-13T12:53	10	180	0.3	179	181	500	1.2	498	502	24.4	60.8
2025-07-13T12:54	10	179	0.2	179	180	498	1.7	495	502	24.4	60.7
2025-07-13T12:55	10	179	0.2	179	180	500	1.8	497	503	24.3	61.0
2025-07-13T12:56	10	179	0.2	179	180	502	1.3	500	504	24.7	60.0
2025-07-13T12:57	10	180	0.6	179	181	501	1.1	500	504	24.6	59.5
2025-07-13T12:58	10	182	0.6	181	183	505	1.1	503	507	24.8	59.7
2025-07-13T12:59	10	185	0.9	183	186	505	1.9	501	507	25.1	58.6
2025-07-13T13:00	10	186	0.2	186	186	504	0.6	503	505	24.8	59.3
2025-07-13T13:01	10	185	0.2	185	186	504	0.9	503	506	24.8	59.4
2025-07-13T13:02	10	184	0.4	184	185	506	1.2	504	508	25.3	58.3
2025-07-13T13:03	10	183	0.3	183	184	504	1.0	502	506	24.9	58.5
2025-07-13T13:04	10	175	10.4	152	184	507	0.7	506	509	25.3	58.6
2025-07-13T13:05	10	161	15.7	133	177	504	1.8	502	508	25.9	57.2
2025-07-13T13:06	10	172	8.4	154	184	504	1.6	501	507	26.1	56.4
2025-07-13T13:07	10	154	18.9	115	177	501	1.5	498	503	25.5	56.7
2025-07-13T13:08	10	114	20.1	87	159	495	3.3	492	503	25.9	55.8
2025-07-13T13:09	10	161	6.4	149	173	499	1.6	495	501	26.2	54.7
2025-07-13T13:10	10	112	12.3	89	152	492	4.6	486	501	25.8	55.5
2025-07-13T13:11	10	93	7.8	83	115	483	2.4	481	488	25.3	56.1
2025-07-13T13:12	10	153	25.7	117	193	489	4.3	481	495	25.5	56.8
2025-07-13T13:13	10	107	41.9	69	186	488	5.0	480	495	25.6	54.5
2025-07-13T13:14	10	69	5.5	62	82	477	2.3	474	482	25.3	55.7
2025-07-13T13:15	10	78	6.8	71	91	476	0.6	475	477	25.0	56.8
2025-07-13T13:16	10	156	32.8	87	193	487	8.0	474	495	24.9	57.2
2025-07-13T13:17	10	100	23.0	65	133	488	3.4	481	493	25.0	57.3
2025-07-13T13:18	10	166	38.2	80	193	492	8.0	480	503	25.4	57.3
2025-07-13T13:19	10	187	1.1	184	189	503	1.7	500	506	25.6	56.1
2025-07-13T13:20	10	188	2.1	182	191	507	0.6	505	508	25.7	55.5
2025-07-13T13:21	10	150	39.8	98	196	503	6.7	492	510	25.6	55.6
2025-07-13T13:22	10	75	15.5	62	109	485	6.6	475	497	25.4	56.2
2025-07-13T13:23	10	63	1.6	62	68	474	1.8	471	478	25.1	57.5
2025-07-13T13:24	10	132	42.5	68	205	481	7.4	471	493	25.2	57.5
2025-07-13T13:25	10	210	0.7	207	211	501	5.1	489	506	25.7	56.4
2025-07-13T13:26	10	194	25.1	131	210	504	3.1	496	509	25.6	56.3
2025-07-13T13:27	10	108	10.2	93	131	489	4.5	484	499	25.3	57.0
2025-07-13T13:28	10	98	23.1	82	158	484	3.1	478	489	25.3	57.0
2025-07-13T13:29	10	120	28.7	85	161	483	4.0	479	490	25.3	57.0
2025-07-13T13:30	10	93	18.3	75	126	481	2.8	477	487	25.3	57.5
2025-07-13T13:31	10	71	2.0	68	75	476	2.1	472	478	25.6	56.8
2025-07-13T13:32	10	68	1.4	67	76	470	0.7	470	473	25.1	57.5
2025-07-13T13:33	10	76	7.6	67	95	472	1.3	470	476	25.3	57.6
2025-07-13T13:34	10	86	19.1	67	119	477	2.3	473	480	25.5	57.5
2025-07-13T13:35	10	112	54.8	68	206	475	5.3	471	488	25.2	57.3
2025-07-13T13:36	10	203	1.2	201	205	494	4.8	484	500	25.3	57.4
2025-07-13T13:37	10	198	1.5	196	201	503	2.2	498	506	25.9	56.0
2025-07-13T13:38	10	175	21.5	134	196	502	2.2	499	505	26.1	55.5
2025-07-13T13:39	10	185	1.6	182	188	503	1.2	500	505	26.0	55.2
2025-07-13T13:40	10	180	2.0	175	182	503	0.6	501	504	25.8	55.8
2025-07-13T13:41	10	182	0.3	181	183	501	0.7	500	502	25.6	54.8
2025-07-13T13:42	10	182	0.2	182	183	500	1.3	498	503	25.5	55.6
2025-07-13T13:43	10	183	0.4	182	183	503	0.5	501	504	25.6	56.0
2025-07-13T13:44	10	178	8.4	154	183	500	2.5	497	504	26.0	55.4
2025-07-13T13:45	10	182	0.8	179	183	501	0.8	500	503	25.9	55.9
2025-07-13T13:46	10	180	1.3	176	181	501	1.9	498	504	25.7	56.1
2025-07-13T13:47	10	175	9.6	142	182	499	1.6	496	502	25.4	56.5
2025-07-13T13:48	10	181	3.1	171	183	500	1.0	499	503	25.6	55.8
2025-07-13T13:49	10	185	0.7	184	186	502	1.7	499	505	25.8	55.4
2025-07-13T13:50	10	176	12.9	149	186	503	1.4	500	506	25.8	55.0
2025-07-13T13:51	10	124	25.6	79	165	497	5.4	489	503	25.9	54.6
2025-07-13T13:52	10	143	46.8	74	190	493	5.6	486	503	25.6	55.3
2025-07-13T13:53	10	187	0.4	186	188	505	3.0	500	511	26.0	54.9
2025-07-13T13:54	10	185	1.0	184	187	509	2.3	504	512	26.8	53.1
2025-07-13T13:55	10	186	0.6	185	187	503	1.0	501	506	26.0	54.1
2025-07-13T13:56	10	190	1.3	187	191	508	1.5	505	510	26.1	54.5
2025-07-13T13:57	10	168	26.6	119	194	509	2.4	505	513	26.6	54.2
2025-07-13T13:58	10	175	12.4	155	191	509	1.5	506	512	27.1	51.8
2025-07-13T13:59	10	191	2.1	181	193	507	0.8	506	509	27.2	51.4
2025-07-13T14:00	10	193	0.5	192	194	511	0.8	509	512	26.5	52.8
2025-07-13T14:01	10	194	0.3	193	195	508	2.7	504	513	26.5	53.1
2025-07-13T14:02	10	193	0.8	192	195	502	1.9	500	506	25.7	54.7
2025-07-13T14:03	10	192	0.7	190	193	506	1.9	502	509	25.9	54.7
2025-07-13T14:04	10	191	0.2	190	191	508	1.3	506	511	25.9	54.8
2025-07-13T14:05	10	191	0.2	190	191	511	1.0	510	513	26.1	54.1
2025-07-13T14:06	10	191	0.1	191	191	514	0.6	512	515	26.3	53.8
2025-07-13T14:07	10	190	0.1	190	191	514	0.8	512	515	26.6	52.6
2025-07-13T14:08	10	189	0.7	187	190	512	1.7	510	515	26.9	47.1
2025-07-13T14:09	10	186	0.9	184	187	512	0.5	511	513	26.8	45.1
2025-07-13T14:10	10	182	1.4	180	184	513	1.6	509	515	27.0	48.2
2025-07-13T14:11	10	178	0.6	178	180	509	0.4	509	510	26.7	52.3
2025-07-13T14:12	10	177	0.7	175	178	508	2.8	504	513	27.2	51.1
2025-07-13T14:13	10	173	3.9	160	176	502	2.3	500	507	26.7	52.0
2025-07-13T14:14	10	174	1.8	168	176	501	1.6	499	505	26.4	52.7
2025-07-13T14:15	10	154	28.1	102	180	502	3.4	497	507	26.9	51.5
2025-07-13T14:16	10	144	25.4	89	175	498	2.2	493	501	26.8	51.0
2025-07-13T14:17	10	158	17.0	118	178	498	2.0	494	501	27.0	50.8
2025-07-13T14:18	10	157	17.0	127	176	498	2.4	494	502	26.8	51.2
2025-07-13T14:19	10	161	5.5	153	174	497	2.9	493	501	26.3	52.3
2025-07-13T14:20	10	124	14.2	102	152	489	2.6	485	494	26.0	54.3
2025-07-13T14:21	10	89	5.8	82	102	482	3.0	477	487	26.3	53.5
2025-07-13T14:22	10	90	1.6	88	94	475	1.5	473	478	25.6	55.1
2025-07-13T14:23	10	101	8.4	88	111	475	0.8	473	476	25.5	54.8
2025-07-13T14:24	10	87	4.6	81	101	472	1.7	469	475	25.5	54.6
2025-07-13T14:25	10	94	13.2	80	125	469	0.8	468	471	25.1	55.1
2025-07-13T14:26	10	136	9.6	93	148	475	2.4	469	477	25.1	55.2
2025-07-13T14:27	10	61	6.7	55	84	467	3.6	462	476	24.8	55.9
2025-07-13T14:28	10	52	1.3	50	55	461	0.7	460	463	24.6	56.7
2025-07-13T14:29	10	50	0.1	50	51	459	0.6	458	461	24.6	56.8
2025-07-13T14:30	10	53	1.9	51	57	459	0.5	458	460	24.7	56.6
2025-07-13T14:31	10	99	31.1	57	131	463	4.9	457	472	24.8	56.5
2025-07-13T14:32	10	131	3.2	125	137	471	1.2	468	473	24.8	56.5
2025-07-13T14:33	10	128	9.6	103	137	474	1.2	472	476	24.9	56.4
2025-07-13T14:34	10	129	15.5	94	142	474	2.7	470	478	25.1	56.0
2025-07-13T14:35	10	152	7.1	139	163	478	1.6	474	480	25.0	56.4
2025-07-13T14:36	10	142	8.8	130	161	478	1.6	474	480	25.0	56.6
2025-07-13T14:37	10	123	5.9	114	131	477	1.0	475	479	24.9	56.8
2025-07-13T14:38	10	111	4.1	98	123	477	0.5	476	478	25.0	56.3
2025-07-13T14:39	10	60	12.7	49	95	471	3.8	466	478	25.0	56.4
2025-07-13T14:40	10	48	0.8	46	50	464	2.0	461	467	25.1	56.3
2025-07-13T14:41	10	50	3.7	46	59	459	0.9	457	461	24.7	57.4
2025-07-13T14:42	10	66	5.8	60	81	459	1.6	457	462	24.6	57.7
2025-07-13T14:43	10	104	11.3	81	118	467	4.0	460	473	25.1	56.5
2025-07-13T14:44	10	64	13.6	54	109	466	3.0	463	472	25.2	56.2
2025-07-13T14:45	10	50	1.6	48	54	463	0.7	462	464	25.5	55.6
2025-07-13T14:46	10	47	0.5	46	48	461	0.8	458	462	25.5	55.3
2025-07-13T14:47	10	46	0.2	46	46	457	0.8	456	459	25.3	55.0
2025-07-13T14:48	10	46	0.1	45	46	456	0.6	455	458	25.4	54.0
2025-07-13T14:49	10	46	0.1	45	46	454	0.4	454	455	25.1	54.2
2025-07-13T14:50	10	45	0.1	45	46	454	0.7	452	455	25.0	53.1
2025-07-13T14:51	10	45	0.1	45	45	453	0.8	452	455	24.9	54.5
2025-07-13T14:52	10	45	0.1	45	46	453	1.0	452	455	25.1	54.7
2025-07-13T14:53	10	46	0.3	45	46	453	0.4	452	454	24.8	55.2
2025-07-13T14:54	10	47	0.3	46	48	454	0.3	454	455	24.9	55.4
2025-07-13T14:55	10	48	0.1	47	48	455	0.5	454	455	24.8	56.1
2025-07-13T14:56	10	47	0.2	47	48	455	0.5	454	456	24.9	55.8
2025-07-13T14:57	10	47	0.2	47	47	454	0.8	453	455	24.8	55.6
2025-07-13T14:58	10	46	0.3	45	47	452	0.4	451	453	24.6	56.1
2025-07-13T14:59	10	46	0.2	45	46	453	0.5	452	454	24.6	56.3
2025-07-13T15:00	10	46	0.3	45	46	454	0.3	453	454	24.6	56.2
2025-07-13T15:01	10	46	0.3	45	47	455	0.9	453	457	24.6	56.2
2025-07-13T15:02	10	47	0.2	46	47	455	0.8	453	456	24.8	55.6
2025-07-13T15:03	10	47	0.4	46	48	455	0.8	454	457	24.7	56.0
2025-07-13T15:04	10	49	0.7	48	50	456	0.4	455	457	24.9	56.0
2025-07-13T15:05	10	52	1.0	50	53	455	0.3	455	456	24.9	55.7
2025-07-13T15:06	10	56	1.6	53	59	456	0.4	455	457	25.0	55.0
2025-07-13T15:07	10	107	21.2	59	129	463	5.1	455	471	24.9	55.4
2025-07-13T15:08	10	65	9.5	59	107	466	2.1	462	470	25.0	55.1
2025-07-13T15:09	10	57	0.9	56	59	461	0.8	460	463	24.9	55.8
2025-07-13T15:10	10	55	0.5	54	56	460	0.2	460	461	24.8	55.3
2025-07-13T15:11	10	54	0.4	53	54	461	0.4	460	462	24.9	55.2
2025-07-13T15:12	10	52	0.3	51	53	461	0.8	460	462	25.0	55.0
2025-07-13T15:13	10	52	0.3	52	53	460	0.2	460	461	25.0	55.6
2025-07-13T15:14	10	54	1.1	53	57	461	0.5	460	462	25.2	55.7
2025-07-13T15:15	10	52	1.1	51	57	462	0.2	461	462	25.3	56.2
2025-07-13T15:16	10	123	25.0	58	145	470	5.6	461	477	25.4	55.9
2025-07-13T15:17	10	59	16.4	50	121	468	4.2	464	478	25.5	55.5
2025-07-13T15:18	10	60	15.4	48	94	465	2.1	462	468	25.5	54.8
2025-07-13T15:19	10	139	17.8	74	149	473	5.9	461	480	25.4	54.7
2025-07-13T15:20	10	139	6.8	120	145	479	1.1	478	481	25.5	54.4
2025-07-13T15:21	10	139	1.0	137	141	481	0.6	480	482	25.6	53.3
2025-07-13T15:22	10	135	0.8	134	137	483	0.3	482	484	25.7	52.5
2025-07-13T15:23	10	132	1.0	130	134	482	0.6	482	484	25.9	51.0
2025-07-13T15:24	10	129	0.8	127	130	482	0.3	482	483	26.0	50.3
2025-07-13T15:25	10	127	0.5	126	128	482	1.0	481	484	26.2	49.9
2025-07-13T15:26	10	126	0.2	125	126	481	0.6	480	482	26.0	49.3
2025-07-13T15:27	10	125	0.1	125	126	482	0.4	481	483	25.9	49.2
2025-07-13T15:28	10	125	0.2	124	125	483	0.4	482	484	26.1	48.8
2025-07-13T15:29	10	124	0.2	124	124	483	0.7	481	484	26.2	48.4
2025-07-13T15:30	10	123	0.3	123	124	482	0.6	480	483	26.1	48.3
2025-07-13T15:31	10	124	0.6	122	125	482	0.6	481	484	26.2	48.4
2025-07-13T15:32	10	124	1.7	122	127	482	0.5	481	483	26.3	47.9
2025-07-13T15:33	10	128	0.2	127	128	481	0.6	480	482	26.3	47.1
2025-07-13T15:34	10	127	0.1	127	128	482	0.4	481	483	26.3	47.3
2025-07-13T15:35	10	127	0.4	126	127	483	0.4	482	484	26.4	47.3
2025-07-13T15:36	10	125	0.6	124	126	484	0.3	483	485	26.7	47.6
2025-07-13T15:37	10	122	0.6	121	124	484	0.4	483	485	26.7	46.7
2025-07-13T15:38	10	122	0.2	121	123	485	0.3	485	486	27.0	44.8
2025-07-13T15:39	10	122	0.2	122	123	484	1.9	480	487	27.1	43.2
2025-07-13T15:40	10	121	1.0	119	123	479	1.6	477	481	27.0	43.3
2025-07-13T15:41	10	119	0.6	118	120	477	1.9	474	480	27.0	43.6
2025-07-13T15:42	10	95	33.0	35	119	475	2.5	469	478	26.8	44.2
2025-07-13T15:43	10	43	8.3	35	61	466	2.8	461	472	26.8	44.2
2025-07-13T15:44	10	36	6.9	28	49	461	1.8	458	463	26.7	43.8
2025-07-13T15:45	10	89	40.0	30	126	463	5.2	457	473	26.5	44.2
2025-07-13T15:46	10	117	10.8	77	125	474	1.6	470	476	26.7	44.4
2025-07-13T15:47	10	43	18.5	29	75	466	4.6	460	475	26.7	44.4
2025-07-13T15:48	10	30	0.5	30	31	460	0.9	459	462	26.6	45.3
2025-07-13T15:49	10	37	5.1	32	49	459	0.4	458	460	26.7	45.2
2025-07-13T15:50	10	67	33.1	36	121	460	3.1	457	467	26.8	45.5
2025-07-13T15:51	10	87	27.0	48	120	468	1.8	465	471	26.7	45.4
2025-07-13T15:52	10	102	19.7	49	119	469	2.2	466	472	26.7	45.5
2025-07-13T15:53	10	64	15.9	43	92	465	1.3	463	468	26.7	45.4
2025-07-13T15:54	10	98	10.0	73	108	470	1.5	466	472	26.9	45.2
2025-07-13T15:55	10	65	5.5	57	72	468	1.4	465	470	26.9	45.0
2025-07-13T15:56	10	64	4.1	58	72	466	0.5	465	466	26.9	44.6
2025-07-13T15:57	10	90	10.9	72	101	467	1.8	465	471	26.8	44.6
2025-07-13T15:58	10	97	3.3	92	103	472	1.6	469	474	27.0	44.2
2025-07-13T15:59	10	82	6.5	74	92	473	1.3	470	474	27.0	43.4
2025-07-13T16:00	10	84	1.7	78	86	471	0.3	470	472	27.0	43.7
2025-07-13T16:01	10	68	11.9	41	85	471	1.5	467	472	27.0	43.5
2025-07-13T16:02	10	38	1.7	36	41	465	1.7	462	468	27.1	43.6
2025-07-13T16:03	10	37	0.2	36	37	461	1.1	459	464	27.1	44.7
2025-07-13T16:04	10	52	12.2	37	70	461	0.7	459	462	26.9	45.6
2025-07-13T16:05	10	75	1.8	71	78	463	1.5	461	466	26.9	46.0
2025-07-13T16:06	10	73	3.6	66	77	467	0.8	465	468	27.0	45.3
2025-07-13T16:07	10	61	3.3	55	66	467	0.3	466	468	27.1	45.9
2025-07-13T16:08	10	45	4.6	40	55	464	1.9	461	467	27.1	45.9
2025-07-13T16:09	10	41	0.8	40	42	460	1.1	459	462	26.9	46.2
2025-07-13T16:10	10	37	1.8	34	40	458	0.6	457	460	26.7	46.4
2025-07-13T16:11	10	33	0.7	32	34	457	0.2	457	458	26.7	46.5
2025-07-13T16:12	10	32	0.1	31	32	457	0.3	456	458	26.7	46.7
2025-07-13T16:13	10	32	0.2	32	32	456	0.3	456	457	26.7	46.8
2025-07-13T16:14	10	32	0.3	31	32	456	0.2	456	457	26.8	47.0
2025-07-13T16:15	10	31	0.4	30	32	456	0.4	455	457	26.8	47.4
2025-07-13T16:16	10	30	0.2	30	30	455	0.3	455	456	26.7	48.0
2025-07-13T16:17	10	30	0.1	30	30	455	0.4	454	456	26.7	48.3
2025-07-13T16:18	10	31	0.4	30	32	454	0.2	454	455	26.5	49.7
2025-07-13T16:19	10	33	0.6	32	33	454	0.5	453	455	26.3	50.1
2025-07-13T16:20	10	34	0.1	33	34	454	0.3	453	454	26.2	50.4
2025-07-13T16:21	10	34	0.3	33	34	454	0.4	453	455	26.2	50.7
2025-07-13T16:22	10	32	0.7	31	33	454	0.2	453	454	26.3	51.0
2025-07-13T16:23	10	31	0.1	31	31	454	0.3	453	455	26.3	51.0
2025-07-13T16:24	10	31	0.1	31	31	454	0.3	453	455	26.3	51.1
2025-07-13T16:25	10	31	0.1	31	31	453	0.3	453	454	26.2	51.2
2025-07-13T16:26	10	31	0.1	31	31	453	0.5	452	454	26.2	51.3
2025-07-13T16:27	10	31	0.1	31	31	451	0.5	450	452	26.0	50.9
2025-07-13T16:28	10	31	0.1	31	31	450	0.2	450	451	25.9	51.0
2025-07-13T16:29	10	31	0.1	31	31	450	0.3	450	451	25.9	50.9
2025-07-13T16:30	10	31	0.1	31	31	451	0.3	450	451	26.1	51.0
2025-07-13T16:31	10	31	0.1	31	31	451	0.3	451	452	26.1	50.7
2025-07-13T16:32	10	31	0.1	31	32	452	0.3	451	452	26.1	51.0
2025-07-13T16:33	10	32	0.2	31	32	452	0.3	451	453	26.1	51.1
2025-07-13T16:34	10	32	0.1	32	32	450	0.6	449	451	25.9	51.1
2025-07-13T16:35	10	32	0.1	32	32	449	0.5	448	450	25.6	51.7
2025-07-13T16:36	10	32	0.1	32	32	448	0.3	448	449	25.4	52.3
2025-07-13T16:37	10	32	0.1	32	32	448	0.3	447	449	25.3	52.9
2025-07-13T16:38	10	32	0.1	32	32	448	0.3	447	449	25.3	53.0
2025-07-13T16:39	10	32	0.1	32	32	448	0.3	448	449	25.4	53.0
2025-07-13T16:40	10	32	0.1	32	32	448	0.2	448	449	25.4	52.9
2025-07-13T16:41	10	32	0.1	32	32	448	0.4	447	449	25.4	52.8
2025-07-13T16:42	10	32	0.2	32	32	449	0.3	448	449	25.5	52.7
2025-07-13T16:43	10	32	0.2	31	32	449	0.3	449	450	25.5	52.8
2025-07-13T16:44	10	31	0.4	31	33	449	0.3	449	450	25.5	52.6
2025-07-13T16:45	10	33	0.9	31	34	449	0.2	449	449	25.5	52.7
2025-07-13T16:46	10	30	0.7	28	31	448	0.3	448	449	25.5	52.8
2025-07-13T16:47	10	28	0.5	27	29	448	0.3	447	449	25.5	53.1
2025-07-13T16:48	10	26	0.3	26	27	448	0.3	447	449	25.5	53.2
2025-07-13T16:49	10	25	0.4	24	26	448	0.3	447	449	25.6	53.1
2025-07-13T16:50	10	24	0.3	24	25	448	0.4	447	449	25.6	53.0
2025-07-13T16:51	10	23	0.4	22	24	447	0.4	446	448	25.5	53.0
2025-07-13T16:52	10	22	0.3	21	23	446	0.5	445	447	25.4	52.8
2025-07-13T16:53	10	21	0.3	21	22	445	0.3	444	446	25.4	52.6
2025-07-13T16:54	10	20	0.2	20	21	445	0.2	444	445	25.3	52.5
2025-07-13T16:55	10	20	0.2	20	20	444	0.3	444	445	25.4	52.5
2025-07-13T16:56	10	19	0.2	19	20	444	0.2	444	445	25.3	52.5
2025-07-13T16:57	10	19	0.3	18	19	444	0.2	444	445	25.4	52.5
2025-07-13T16:58	10	18	0.2	18	18	444	0.3	443	445	25.4	52.5
2025-07-13T16:59	10	17	0.2	17	18	444	0.2	443	444	25.4	52.6
2025-07-13T17:00	10	17	0.2	16	17	444	0.2	443	444	25.4	52.3
2025-07-13T17:01	10	16	0.3	15	16	443	0.3	442	444	25.4	52.0
2025-07-13T17:02	10	15	0.3	14	15	442	0.2	442	443	25.3	52.1
2025-07-13T17:03	10	14	0.3	14	14	442	0.2	442	443	25.3	52.3
2025-07-13T17:04	10	13	0.3	12	14	442	0.2	441	442	25.3	52.2
2025-07-13T17:05	10	12	0.2	12	13	441	0.2	441	442	25.3	52.3
2025-07-13T17:06	10	12	0.2	11	12	441	0.3	440	442	25.2	52.5
2025-07-13T17:07	10	11	0.1	11	12	441	0.2	440	441	25.2	52.8
2025-07-13T17:08	10	11	0.1	11	11	441	0.2	440	441	25.2	53.0
2025-07-13T17:09	10	10	0.1	10	11	441	0.2	441	441	25.2	53.0
2025-07-13T17:10	10	10	0.1	10	10	441	0.2	440	441	25.2	53.1
2025-07-13T17:11	10	10	0.1	9	10	441	0.2	440	441	25.2	53.4
2025-07-13T17:12	10	9	0.1	9	9	440	0.2	440	441	25.1	53.2
2025-07-13T17:13	10	9	0.2	8	9	440	0.2	439	440	25.1	53.4
2025-07-13T17:14	10	8	0.2	8	8	440	0.2	439	440	25.1	53.6
2025-07-13T17:15	10	8	0.2	7	8	439	0.3	439	440	25.1	53.5
2025-07-13T17:16	10	7	0.3	6	7	439	0.3	438	439	25.1	53.6
2025-07-13T17:17	10	6	0.2	6	7	439	0.2	438	439	25.0	53.3
2025-07-13T17:18	10	5	0.2	5	6	438	0.2	438	439	25.0	53.5
2025-07-13T17:19	10	5	0.2	4	5	438	0.2	438	439	25.0	53.7
2025-07-13T17:20	10	4	0.2	4	5	438	0.3	438	439	25.0	54.0
2025-07-13T17:21	10	4	0.2	3	4	438	0.2	437	438	24.9	54.9
2025-07-13T17:22	10	3	0.1	3	3	437	0.4	437	438	24.9	55.5
2025-07-13T17:23	10	3	0.1	3	3	437	0.4	436	438	24.8	55.9
2025-07-13T17:24	10	3	0.2	2	3	436	0.4	435	436	24.7	56.5
2025-07-13T17:25	10	2	0.2	2	2	434	0.8	433	436	24.5	56.2
2025-07-13T17:26	10	2	0.3	1	2	432	0.8	431	434	24.4	55.9
2025-07-13T17:27	10	1	0.2	1	1	431	0.4	430	432	24.2	56.4
2025-07-13T17:28	10	1	0.1	0	1	430	0.2	430	431	24.1	58.3
2025-07-13T17:29	10	0	0.1	0	1	430	0.3	429	430	24.0	60.4
2025-07-13T17:30	10	0	0.1	0	0	429	0.4	428	430	23.9	61.7
2025-07-13T17:31	10	0	0.1	0	1	427	0.7	426	428	23.5	61.5
2025-07-13T17:32	10	0	0.1	0	1	423	2.4	419	426	23.1	62.4
2025-07-13T17:33	10	0	0.4	0	1	417	2.0	414	421	22.1	62.8
2025-07-13T17:34	10	-1	0.4	-1	0	414	1.2	412	416	21.6	67.0
2025-07-13T17:35	10	-1	0.4	-2	-1	411	0.6	411	413	20.8	71.8
2025-07-13T17:36	10	-2	0.4	-3	-2	410	0.4	409	410	20.1	75.3
2025-07-13T17:37	10	-3	0.3	-4	-2	407	1.2	406	409	19.1	81.4
2025-07-13T17:38	10	-4	0.1	-4	-3	406	0.5	404	406	17.9	87.8
2025-07-13T17:39	10	-3	0.1	-3	-3	403	1.9	401	407	17.6	89.9
2025-07-13T17:40	10	-3	0.1	-4	-3	403	2.4	399	406	17.4	92.4
2025-07-13T17:41	10	-4	0.1	-4	-4	404	2.3	400	407	17.6	90.2
2025-07-13T17:42	10	-4	0.1	-4	-4	405	1.6	402	408	17.7	87.0
2025-07-13T17:43	10	-4	0.1	-4	-4	407	2.0	404	410	18.3	79.8
2025-07-13T17:44	10	-4	0.2	-4	-3	407	1.1	405	409	19.7	71.1
2025-07-13T17:45	10	-3	0.3	-4	-3	407	1.3	404	410	19.9	70.0
2025-07-13T17:46	10	-3	0.3	-3	-2	407	0.4	406	408	19.7	71.2
2025-07-13T17:47	10	-2	0.2	-2	-2	405	0.6	404	406	19.0	79.2
2025-07-13T17:48	10	-1	0.2	-2	-1	405	0.6	404	406	18.6	82.3
2025-07-13T17:49	10	-1	0.2	-1	-1	406	0.7	404	407	19.0	79.4
2025-07-13T17:50	10	-1	0.1	-1	0	406	0.6	405	407	19.0	80.8
2025-07-13T17:51	10	0	0.1	-1	0	406	0.5	405	407	19.0	81.4
2025-07-13T17:52	10	0	0.1	0	0	408	0.9	406	409	19.3	80.1
2025-07-13T17:53	10	0	0.1	0	0	408	0.3	407	408	19.5	80.1
2025-07-13T17:54	10	0	0.2	0	1	408	0.5	407	409	19.4	79.9
2025-07-13T17:55	10	0	0.2	0	1	409	0.2	408	409	19.5	78.7
2025-07-13T17:56	10	0	0.2	0	1	408	0.3	408	409	19.3	81.1
2025-07-13T17:57	10	0	0.1	0	1	409	0.3	408	410	19.2	82.6
2025-07-13T17:58	10	1	0.1	0	1	408	0.2	408	409	19.1	83.8
2025-07-13T17:59	10	1	0.1	1	1	409	0.3	408	410	19.2	83.2
2025-07-13T18:00	10	1	0.1	1	1	409	0.2	409	410	19.4	83.7
2025-07-13T18:01	10	1	0.1	1	1	409	0.3	408	409	19.4	83.5
2025-07-13T18:02	10	1	0.1	1	2	409	0.2	408	409	19.6	80.6
2025-07-13T18:03	10	2	0.1	1	2	408	0.3	407	409	19.6	80.5
2025-07-13T18:04	10	2	0.1	1	2	408	0.3	407	409	19.6	79.9
2025-07-13T18:05	10	2	0.1	2	2	408	0.4	407	409	19.4	83.1
2025-07-13T18:06	10	2	0.1	2	2	407	0.3	407	408	19.0	87.8
2025-07-13T18:07	10	2	0.1	2	3	407	0.3	407	408	18.9	87.6
2025-07-13T18:08	10	3	0.1	2	3	407	0.2	407	408	18.8	89.1
2025-07-13T18:09	10	3	0.1	3	3	407	0.3	406	408	18.7	88.8
2025-07-13T18:10	10	3	0.1	3	4	407	0.3	407	408	18.8	86.2
2025-07-13T18:11	10	4	0.2	3	4	407	0.3	406	407	18.8	86.6
2025-07-13T18:12	10	4	0.1	4	4	406	0.2	406	407	18.6	89.5
2025-07-13T18:13	10	4	0.1	4	5	407	0.3	406	407	18.4	91.1
2025-07-13T18:14	10	5	0.1	5	5	407	0.4	406	408	18.6	88.3
2025-07-13T18:15	10	5	0.1	4	5	407	0.3	407	408	18.7	87.5
2025-07-13T18:16	10	5	0.1	5	5	407	0.2	407	408	18.7	87.3
2025-07-13T18:17	10	5	0.1	5	6	408	0.2	407	408	18.7	87.8
2025-07-13T18:18	10	5	0.2	5	6	408	0.6	407	409	18.9	85.9
2025-07-13T18:19	10	6	0.2	5	6	408	0.4	407	409	19.2	82.9
2025-07-13T18:20	10	6	0.1	6	6	407	0.2	407	408	18.9	87.1
2025-07-13T18:21	10	6	0.2	6	6	408	0.3	407	408	18.8	87.2
2025-07-13T18:22	10	6	0.1	6	6	408	0.2	407	408	18.8	87.5
2025-07-13T18:23	10	6	0.2	6	7	408	0.2	408	409	18.8	87.3
2025-07-13T18:24	10	6	0.1	6	7	409	0.3	408	409	18.8	88.2
2025-07-13T18:25	10	7	0.1	7	7	409	0.3	409	410	18.8	88.3
2025-07-13T18:26	10	7	0.1	7	7	410	0.3	409	410	18.9	86.8
2025-07-13T18:27	10	7	0.1	7	7	409	0.3	409	410	19.1	83.8
2025-07-13T18:28	10	8	1.2	7	11	409	0.3	408	409	19.0	88.2
2025-07-13T18:29	10	16	2.8	12	22	409	0.3	409	410	19.0	85.2
2025-07-13T18:30	10	25	1.0	22	26	410	0.4	409	410	19.3	80.6
2025-07-13T18:31	10	23	0.8	22	25	409	0.3	409	410	19.6	79.1
2025-07-13T18:32	10	25	0.3	24	26	410	0.6	409	411	19.2	83.8
2025-07-13T18:33	10	25	0.1	25	25	411	0.4	410	412	19.4	79.7
2025-07-13T18:34	10	25	0.2	25	26	411	0.3	411	412	19.5	78.8
2025-07-13T18:35	10	25	0.2	25	26	412	0.2	411	412	19.3	83.9
2025-07-13T18:36	10	24	0.3	24	25	412	0.2	411	412	19.1	84.9
2025-07-13T18:37	10	23	0.2	23	24	412	0.2	412	413	19.2	82.2
2025-07-13T18:38	10	22	0.2	22	23	413	0.4	412	413	19.4	77.7
2025-07-13T18:39	10	21	0.3	21	22	413	0.3	412	413	19.7	76.5
2025-07-13T18:40	10	19	0.9	18	21	412	0.4	411	413	19.5	83.5
2025-07-13T18:41	10	18	0.5	17	18	411	0.5	410	412	19.2	85.3
2025-07-13T18:42	10	14	1.6	11	17	410	0.6	409	412	19.3	81.6
2025-07-13T18:43	10	9	1.1	8	11	409	0.5	409	410	19.2	83.2
2025-07-13T18:44	10	7	0.4	6	8	409	0.3	409	410	19.3	81.3
2025-07-13T18:45	10	6	0.2	6	7	409	0.3	409	410	19.4	79.4
2025-07-13T18:46	10	6	0.3	6	7	409	0.3	409	410	19.7	77.3
2025-07-13T18:47	10	8	0.8	7	9	409	0.4	408	410	19.8	75.7
2025-07-13T18:48	10	11	1.0	9	13	409	0.4	409	410	20.0	74.1
2025-07-13T18:49	10	13	0.3	13	14	409	0.3	408	410	20.0	74.8
2025-07-13T18:50	10	13	0.2	13	14	409	0.4	408	410	19.8	76.9
2025-07-13T18:51	10	13	0.3	12	13	409	0.5	408	411	19.8	76.8
2025-07-13T18:52	10	12	0.4	11	12	409	0.4	408	410	20.0	75.2
2025-07-13T18:53	10	9	1.2	7	11	408	0.4	408	409	19.6	80.6
2025-07-13T18:54	10	5	0.7	4	7	408	0.4	407	409	19.4	82.3
2025-07-13T18:55	10	4	0.2	4	5	408	0.3	407	408	19.3	82.8
2025-07-13T18:56	10	4	0.1	4	4	408	0.2	407	408	19.3	82.8
2025-07-13T18:57	10	3	0.2	3	4	408	0.2	407	408	19.2	82.7
2025-07-13T18:58	10	3	0.1	3	3	407	0.3	407	408	19.2	83.5
2025-07-13T18:59	10	3	0.1	3	3	407	0.2	407	407	19.2	82.6
2025-07-13T19:00	10	3	0.1	2	3	407	0.2	407	408	19.2	83.8
2025-07-13T19:01	10	2	0.1	2	3	407	0.2	407	407	19.3	82.5
2025-07-13T19:02	10	2	0.1	2	3	406	0.2	406	407	19.2	84.4
2025-07-13T19:03	10	2	0.1	2	3	406	0.3	405	407	19.1	86.7
2025-07-13T19:04	10	2	0.1	2	2	406	0.2	405	406	19.0	88.7
2025-07-13T19:05	10	2	0.1	2	2	406	0.2	405	406	18.9	88.1
2025-07-13T19:06	10	2	0.1	1	2	405	0.2	405	406	19.0	86.0
2025-07-13T19:07	10	2	0.1	2	2	405	0.3	404	406	19.0	86.4
2025-07-13T19:08	10	2	0.1	1	2	405	0.5	404	406	19.2	83.0
2025-07-13T19:09	10	2	0.1	1	2	404	0.3	404	405	19.3	84.0
2025-07-13T19:10	10	2	0.1	1	2	404	0.4	403	405	19.0	86.7
2025-07-13T19:11	10	2	0.1	1	2	404	0.3	403	404	19.0	86.8
2025-07-13T19:12	10	1	0.1	1	2	404	0.3	403	404	18.9	86.5
2025-07-13T19:13	10	1	0.1	1	1	404	0.3	403	405	19.0	85.2
2025-07-13T19:14	10	1	0.1	1	1	404	0.2	404	405	19.2	82.8
2025-07-13T19:15	10	1	0.1	1	1	405	0.2	404	405	19.4	81.0
2025-07-13T19:16	10	1	0.1	1	1	404	0.3	404	405	19.5	81.0
2025-07-13T19:17	10	1	0.1	1	1	404	0.2	404	405	19.4	81.7
2025-07-13T19:18	10	1	0.1	1	1	404	0.3	403	404	19.4	82.0
2025-07-13T19:19	10	1	0.1	1	1	404	0.3	403	404	19.3	82.4
2025-07-13T19:20	10	1	0.1	1	1	404	0.4	403	405	19.3	81.6
2025-07-13T19:21	10	1	0.1	1	1	404	0.3	403	404	19.5	80.6
2025-07-13T19:22	10	1	0.1	1	1	404	0.3	403	404	19.5	80.1
2025-07-13T19:23	10	1	0.1	1	1	403	0.2	403	404	19.6	79.2
2025-07-13T19:24	10	1	0.1	1	1	403	0.3	402	404	19.6	79.6
2025-07-13T19:25	10	1	0.1	1	1	403	0.3	402	403	19.6	79.4
2025-07-13T19:26	10	1	0.1	0	1	402	0.3	401	403	19.6	79.8
2025-07-13T19:27	10	1	0.1	0	1	402	0.3	401	403	19.5	81.1
2025-07-13T19:28	10	0	0.1	0	1	401	0.3	400	402	19.4	81.8
2025-07-13T19:29	10	0	0.1	0	1	400	0.2	400	401	19.3	82.1
2025-07-13T19:30	10	0	0.1	0	1	400	0.2	400	401	19.3	81.1
2025-07-13T19:31	10	0	0.1	0	1	400	0.2	400	400	19.3	80.9
2025-07-13T19:32	10	0	0.1	0	0	400	0.2	399	400	19.3	80.9
2025-07-13T19:33	10	0	0.1	0	0	400	0.3	399	401	19.3	81.0
2025-07-13T19:34	10	0	0.1	0	0	400	0.3	400	401	19.3	81.5
2025-07-13T19:35	10	0	0.1	0	0	401	0.3	400	402	19.5	79.3
2025-07-13T19:36	10	0	0.1	0	0	400	0.3	400	401	19.4	80.7
2025-07-13T19:37	10	0	0.1	0	0	402	0.7	401	403	19.6	78.2
2025-07-13T19:38	10	0	0.1	0	0	403	0.4	402	404	19.8	77.8
2025-07-13T19:39	10	0	0.1	0	0	404	0.4	403	405	20.0	75.7
2025-07-13T19:40	10	0	0.1	0	1	404	0.4	403	405	20.1	75.6
2025-07-13T19:41	10	0	0.1	0	1	403	0.6	402	404	19.8	78.5
2025-07-13T19:42	10	0	0.1	0	0	403	0.7	402	405	19.5	80.1
2025-07-13T19:43	10	0	0.1	0	0	402	0.4	401	403	19.1	83.9
2025-07-13T19:44	10	0	0.1	0	1	402	0.3	402	403	19.0	84.2
2025-07-13T19:45	10	0	0.1	0	0	402	0.2	402	403	19.2	82.6
2025-07-13T19:46	10	0	0.0	0	0	402	0.2	402	403	19.2	83.6
2025-07-13T19:47	10	0	0.1	0	0	402	0.2	401	403	19.1	84.8
2025-07-13T19:48	10	0	0.1	0	0	402	0.2	402	402	19.0	85.8
2025-07-13T19:49	10	0	0.1	0	0	402	0.3	402	403	18.9	86.1
2025-07-13T19:50	10	0	0.1	0	0	402	0.3	402	403	18.9	86.7
2025-07-13T19:51	10	0	0.1	0	0	402	0.3	402	403	18.9	86.8
2025-07-13T19:52	10	0	0.1	0	0	403	0.2	402	403	18.9	86.8
2025-07-13T19:53	10	0	0.1	0	0	403	0.2	402	403	19.0	86.8
2025-07-13T19:54	10	0	0.1	0	0	403	0.2	402	404	18.8	87.7
2025-07-13T19:55	10	0	0.1	0	0	403	0.2	402	403	18.8	87.2
2025-07-13T19:56	10	0	0.1	0	0	402	0.2	402	403	18.8	87.5
2025-07-13T19:57	10	0	0.1	0	0	402	0.2	402	403	18.7	87.2
2025-07-13T19:58	10	0	0.1	0	0	402	0.2	402	403	18.8	87.1
2025-07-13T19:59	10	0	0.2	0	1	402	0.3	402	403	18.8	87.2
2025-07-13T20:00	10	0	0.1	0	0	402	0.2	401	403	18.8	86.7
2025-07-13T20:01	10	0	0.2	0	1	402	0.3	401	402	18.8	86.8
2025-07-13T20:02	10	0	0.1	0	0	402	0.2	401	402	18.9	86.0
2025-07-13T20:03	10	0	0.1	0	1	402	0.3	401	402	18.9	85.9
2025-07-13T20:04	10	0	0.1	0	0	401	0.2	400	401	18.9	85.9
2025-07-13T20:05	10	0	0.2	0	1	401	0.3	401	402	19.0	84.6
2025-07-13T20:06	10	0	0.2	0	1	401	0.3	400	401	19.0	84.3
2025-07-13T20:07	10	0	0.2	0	1	400	0.3	400	401	19.0	84.2
2025-07-13T20:08	10	0	0.2	0	0	400	0.3	399	401	18.9	85.0
2025-07-13T20:09	10	0	0.2	0	1	400	0.3	399	400	18.9	85.3
2025-07-13T20:10	10	0	0.1	0	0	400	0.3	399	400	18.9	85.3
2025-07-13T20:11	10	0	0.2	0	1	400	0.3	399	401	19.0	84.7
2025-07-13T20:12	10	0	0.1	0	0	400	0.2	400	401	19.1	83.6
2025-07-13T20:13	10	0	0.1	0	0	401	0.2	400	401	19.3	82.5
2025-07-13T20:14	10	0	0.1	0	1	401	0.3	400	402	19.3	82.1
2025-07-13T20:15	10	0	0.1	0	1	401	0.3	401	402	19.4	81.1
2025-07-13T20:16	10	0	0.2	0	1	401	0.2	400	401	19.4	81.1
2025-07-13T20:17	10	0	0.1	0	0	400	0.4	399	401	19.4	80.7
2025-07-13T20:18	10	0	0.1	0	0	400	0.2	400	401	19.4	80.7
2025-07-13T20:19	10	0	0.1	0	0	400	0.3	399	400	19.4	80.7
2025-07-13T20:20	10	0	0.1	0	1	400	0.2	399	400	19.4	80.8
2025-07-13T20:21	10	0	0.1	0	0	400	0.2	399	400	19.3	80.7
2025-07-13T20:22	10	0	0.1	0	0	400	0.2	400	401	19.3	81.0
2025-07-13T20:23	10	0	0.1	0	0	401	0.3	400	401	19.3	81.0
2025-07-13T20:24	10	0	0.1	0	0	400	0.2	400	401	19.2	82.1
2025-07-13T20:25	10	0	0.1	0	0	401	0.3	400	401	19.1	82.5
2025-07-13T20:26	10	0	0.1	0	0	401	0.2	400	401	19.2	81.5
2025-07-13T20:27	10	0	0.0	0	0	401	0.3	401	402	19.1	81.7
2025-07-13T20:28	10	0	0.1	0	1	401	0.3	401	402	19.2	81.5
2025-07-13T20:29	10	0	0.1	0	0	401	0.2	401	402	19.1	81.9
2025-07-13T20:30	10	0	0.1	0	0	401	0.2	401	402	19.1	82.0
2025-07-13T20:31	10	0	0.1	0	0	401	0.2	401	402	19.1	82.5
2025-07-13T20:32	10	0	0.1	0	0	401	0.2	401	402	19.0	83.7
2025-07-13T20:33	10	0	0.1	0	0	401	0.2	401	402	19.0	83.7
2025-07-13T20:34	10	0	0.1	0	0	401	0.2	401	401	18.9	84.1
2025-07-13T20:35	10	0	0.1	0	0	401	0.2	401	402	18.9	84.4
2025-07-13T20:36	10	0	0.0	0	0	401	0.2	400	401	18.8	85.6
2025-07-13T20:37	10	0	0.0	0	0	401	0.3	400	401	18.6	87.7
2025-07-13T20:38	10	0	0.0	0	0	401	0.2	401	402	18.4	90.3
2025-07-13T20:39	10	0	0.0	0	0	401	0.2	401	402	18.3	91.1
2025-07-13T20:40	10	0	0.1	0	0	402	0.4	401	402	18.4	90.1
2025-07-13T20:41	10	0	0.1	0	0	402	0.3	401	402	18.5	88.2
2025-07-13T20:42	10	0	0.1	0	0	402	0.4	401	403	18.6	87.3
2025-07-13T20:43	10	0	0.1	0	0	402	0.4	402	403	18.8	84.5
2025-07-13T20:44	10	0	0.0	0	0	402	0.2	401	402	18.9	84.2
2025-07-13T20:45	10	0	0.0	0	0	402	0.2	401	402	18.7	85.8
2025-07-13T20:46	10	0	0.1	0	0	402	0.2	401	402	18.7	85.2
2025-07-13T20:47	10	0	0.1	0	0	402	0.2	401	402	18.7	85.3
2025-07-13T20:48	10	0	0.1	0	0	401	0.2	401	402	18.8	83.7
2025-07-13T20:49	10	0	0.1	0	0	401	0.3	401	402	18.9	83.3
2025-07-13T20:50	10	0	0.1	0	0	401	0.3	401	402	18.8	85.9
2025-07-13T20:51	10	0	0.1	0	0	400	0.3	400	401	18.6	86.8
2025-07-13T20:52	10	0	0.1	0	0	400	0.3	399	401	18.5	87.1
2025-07-13T20:53	10	0	0.0	0	0	400	0.3	399	401	18.5	87.9
2025-07-13T20:54	10	0	0.0	0	0	400	0.3	399	401	18.5	86.9
2025-07-13T20:55	10	0	0.0	0	0	399	0.2	399	400	18.6	86.3
2025-07-13T20:56	10	0	0.1	0	0	399	0.2	399	400	18.6	86.3
2025-07-13T20:57	10	0	0.1	0	0	399	0.3	399	400	18.6	86.9
2025-07-13T20:58	10	0	0.0	0	0	400	0.3	399	400	18.6	86.7
2025-07-13T20:59	10	0	0.0	0	0	399	0.3	398	400	18.5	87.9
2025-07-13T21:00	10	0	0.1	0	0	400	0.3	399	400	18.4	88.0
2025-07-13T21:01	10	0	0.1	0	0	399	0.3	399	400	18.4	87.9
2025-07-13T21:02	10	0	0.1	0	0	399	0.3	399	400	18.3	88.5
2025-07-13T21:03	10	0	0.0	0	0	400	0.2	399	400	18.4	87.7
2025-07-13T21:04	10	0	0.1	0	0	400	0.2	399	400	18.4	87.5
2025-07-13T21:05	10	0	0.0	0	0	399	0.2	398	400	18.4	87.9
2025-07-13T21:06	10	0	0.0	0	0	399	0.3	399	400	18.3	89.1
2025-07-13T21:07	10	0	0.1	0	0	399	0.2	398	400	18.3	88.4
2025-07-13T21:08	10	0	0.0	0	0	399	0.3	398	400	18.3	88.1
2025-07-13T21:09	10	0	0.0	0	0	399	0.2	398	399	18.3	87.8
2025-07-13T21:10	10	0	0.1	0	0	398	0.2	398	399	18.3	87.7
2025-07-13T21:11	10	0	0.0	0	0	398	0.4	397	399	18.3	88.4
2025-07-13T21:12	10	0	0.1	0	0	398	0.3	397	398	18.1	90.5
2025-07-13T21:13	10	0	0.0	0	0	399	0.3	398	399	18.0	90.8
2025-07-13T21:14	10	0	0.1	0	0	399	0.3	398	400	18.1	89.8
2025-07-13T21:15	10	0	0.1	0	0	399	0.4	399	400	18.3	87.9
2025-07-13T21:16	10	0	0.1	0	0	400	0.3	399	400	18.6	85.6
2025-07-13T21:17	10	0	0.1	0	0	400	0.3	400	401	18.8	84.3
2025-07-13T21:18	10	0	0.1	0	0	400	0.3	399	401	18.6	85.8
2025-07-13T21:19	10	0	0.1	0	0	400	0.2	400	401	18.6	85.9
2025-07-13T21:20	10	0	0.0	0	0	400	0.3	400	401	18.5	87.2
2025-07-13T21:21	10	0	0.1	0	0	401	0.3	400	401	18.4	87.3
2025-07-13T21:22	10	0	0.1	0	0	401	0.2	401	402	18.4	87.0
2025-07-13T21:23	10	0	0.1	0	0	402	0.2	401	402	18.5	86.9
2025-07-13T21:24	10	0	0.1	0	0	402	0.4	401	403	18.5	87.2
2025-07-13T21:25	10	0	0.1	0	0	402	0.2	401	402	18.5	86.7
2025-07-13T21:26	10	0	0.1	0	0	403	0.3	402	404	18.7	85.7
2025-07-13T21:27	10	0	0.1	0	0	404	0.5	403	404	18.9	83.9
2025-07-13T21:28	10	0	0.1	0	0	403	0.5	402	404	19.0	83.6
2025-07-13T21:29	10	0	0.1	0	0	403	0.5	402	404	18.8	85.4
2025-07-13T21:30	10	0	0.1	0	0	403	0.4	402	403	18.6	87.2
2025-07-13T21:31	10	0	0.1	0	0	403	0.4	402	404	18.6	86.1
2025-07-13T21:32	10	0	0.1	0	0	403	0.3	402	404	18.8	84.9
2025-07-13T21:33	10	0	0.1	0	0	403	0.3	402	404	18.7	85.4
2025-07-13T21:34	10	0	0.1	0	0	403	0.2	403	404	18.8	84.4
2025-07-13T21:35	10	0	0.1	0	0	403	0.3	402	404	18.8	84.3
2025-07-13T21:36	10	0	0.1	0	0	403	0.3	402	404	18.9	84.2
2025-07-13T21:37	10	0	0.1	0	0	403	0.3	403	404	18.8	84.7
2025-07-13T21:38	10	0	0.1	0	0	403	0.4	402	404	18.8	85.4
2025-07-13T21:39	10	0	0.1	0	0	403	0.4	402	404	18.8	84.4
2025-07-13T21:40	10	0	0.1	0	0	404	0.5	403	405	19.1	80.7
2025-07-13T21:41	10	0	0.1	0	0	403	0.2	403	404	19.0	83.1
2025-07-13T21:42	10	0	0.1	0	0	404	0.3	403	405	19.0	82.9
2025-07-13T21:43	10	0	0.1	0	1	404	0.3	403	404	19.0	82.9
2025-07-13T21:44	10	0	0.1	0	0	404	0.2	403	404	19.0	83.3
2025-07-13T21:45	10	0	0.1	0	0	404	0.2	403	404	19.1	82.3
2025-07-13T21:46	10	0	0.1	0	0	404	0.3	403	404	19.0	82.6
2025-07-13T21:47	10	0	0.1	0	0	404	0.2	403	404	18.9	84.3
2025-07-13T21:48	10	0	0.1	0	0	403	0.2	403	404	18.8	85.9
2025-07-13T21:49	10	0	0.1	0	0	404	0.2	403	404	18.7	86.2
2025-07-13T21:50	10	0	0.1	0	0	403	0.2	403	404	18.7	86.3
2025-07-13T21:51	10	0	0.1	0	0	404	0.2	403	404	18.7	86.1
2025-07-13T21:52	10	0	0.1	0	0	404	0.3	403	404	18.7	86.7
2025-07-13T21:53	10	0	0.1	0	0	404	0.3	403	404	18.6	86.7
2025-07-13T21:54	10	0	0.1	0	0	404	0.2	403	405	18.6	87.1
2025-07-13T21:55	10	0	0.1	0	0	404	0.3	403	404	18.7	85.8
2025-07-13T21:56	10	0	0.1	0	0	405	0.5	404	406	18.9	82.7
2025-07-13T21:57	10	0	0.1	0	0	404	0.4	403	405	19.0	82.8
2025-07-13T21:58	10	0	0.1	0	0	404	0.4	403	405	19.0	83.2
2025-07-13T21:59	10	0	0.1	0	0	404	0.2	404	405	18.9	84.3
2025-07-13T22:00	10	0	0.1	0	1	405	0.3	404	406	19.1	81.3
2025-07-13T22:01	10	0	0.1	0	0	405	0.3	404	406	19.3	79.5
2025-07-13T22:02	10	0	0.1	0	0	405	0.2	404	405	19.4	79.0
2025-07-13T22:03	10	0	0.1	0	0	405	0.2	404	405	19.3	80.6
2025-07-13T22:04	10	0	0.1	0	0	404	0.4	403	405	19.2	81.6
2025-07-13T22:05	10	0	0.1	0	0	405	0.6	404	406	19.4	77.9
2025-07-13T22:06	10	0	0.1	0	0	405	0.3	404	406	19.8	75.2
2025-07-13T22:07	10	0	0.1	0	0	405	0.3	404	406	19.7	76.8
2025-07-13T22:08	10	0	0.1	0	0	405	0.5	404	406	19.5	78.2
2025-07-13T22:09	10	0	0.1	0	0	405	0.3	404	406	19.5	78.2
2025-07-13T22:10	10	0	0.1	0	0	405	0.5	404	406	19.7	77.0
2025-07-13T22:11	10	0	0.1	0	0	404	0.3	403	405	19.4	80.2
2025-07-13T22:12	10	0	0.1	0	0	405	0.4	404	406	19.4	78.8
2025-07-13T22:13	10	0	0.1	0	0	405	0.3	404	405	19.5	78.1
2025-07-13T22:14	10	0	0.1	0	0	404	0.2	404	405	19.5	77.9
2025-07-13T22:15	10	0	0.1	0	0	404	0.4	403	405	19.5	76.9
2025-07-13T22:16	10	0	0.1	0	0	404	0.3	403	405	19.1	76.9
2025-07-13T22:17	10	0	0.1	0	0	404	0.2	404	405	19.5	76.9
2025-07-13T22:18	10	0	0.1	0	0	404	0.3	404	405	20.3	76.9
2025-07-13T22:19	10	0	0.1	0	0	404	0.2	403	404	19.5	76.9
2025-07-13T22:20	10	0	0.1	0	0	404	0.3	403	404	19.5	76.9
2025-07-13T22:21	10	0	0.1	0	0	403	0.2	403	404	19.5	76.9
2025-07-13T22:22	10	0	0.1	0	0	403	0.2	403	404	19.5	77.5
2025-07-13T22:23	10	0	0.1	0	0	403	0.3	402	404	19.2	80.2
2025-07-13T22:24	10	0	0.1	0	0	403	0.2	403	404	19.0	81.9
2025-07-13T22:25	10	0	0.0	0	0	403	0.2	403	404	19.0	82.6
2025-07-13T22:26	10	0	0.0	0	0	403	0.2	403	404	19.0	82.0
2025-07-13T22:27	10	0	0.1	0	0	403	0.2	403	404	19.0	81.4
2025-07-13T22:28	10	0	0.1	0	0	403	0.2	403	404	19.0	82.5
2025-07-13T22:29	10	0	0.1	0	0	403	0.2	403	404	19.1	81.1
2025-07-13T22:30	10	0	0.1	0	0	403	0.3	403	404	19.2	80.6
2025-07-13T22:31	10	0	0.0	0	0	403	0.2	403	404	19.1	81.0
2025-07-13T22:32	10	0	0.1	0	0	403	0.2	403	404	19.2	80.2
2025-07-13T22:33	10	0	0.1	0	0	404	0.3	403	404	19.2	79.8
2025-07-13T22:34	10	0	0.1	0	0	404	0.3	403	404	19.3	78.5
2025-07-13T22:35	10	0	0.1	0	0	404	0.2	403	405	19.5	78.0
2025-07-13T22:36	10	0	0.1	0	0	404	0.3	404	405	19.5	78.1
2025-07-13T22:37	10	0	0.1	0	0	404	0.2	404	405	19.5	77.9
2025-07-13T22:38	10	0	0.1	0	0	404	0.3	404	405	19.5	79.0
2025-07-13T22:39	10	0	0.1	0	0	404	0.3	404	405	19.3	80.5
2025-07-13T22:40	10	0	0.1	0	0	405	0.4	403	405	19.2	81.1
2025-07-13T22:41	10	0	0.1	0	0	405	0.2	404	405	19.3	79.5
2025-07-13T22:42	10	0	0.1	0	0	405	0.2	404	405	19.3	80.3
2025-07-13T22:43	10	0	0.1	0	0	405	0.2	404	405	19.2	80.9
2025-07-13T22:44	10	0	0.1	0	0	404	0.5	403	405	19.1	82.9
2025-07-13T22:45	10	0	0.1	0	0	403	0.4	403	404	18.5	87.6
2025-07-13T22:46	10	0	0.1	0	0	403	0.2	402	403	18.3	89.1
2025-07-13T22:47	10	0	0.1	0	0	403	0.2	402	403	18.3	88.9
2025-07-13T22:48	10	0	0.1	0	0	403	0.3	403	404	18.4	87.1
2025-07-13T22:49	10	0	0.1	0	0	403	0.2	403	404	18.5	85.7
2025-07-13T22:50	10	0	0.0	0	0	403	0.5	403	404	18.7	83.3
2025-07-13T22:51	10	0	0.1	0	0	405	0.6	403	406	19.1	80.1
2025-07-13T22:52	10	0	0.1	0	0	405	0.2	404	405	19.4	78.8
2025-07-13T22:53	10	0	0.1	0	0	406	0.4	405	406	19.6	76.4
2025-07-13T22:54	10	0	0.1	0	0	405	0.4	404	406	19.7	76.4
2025-07-13T22:55	10	0	0.1	0	0	404	0.6	403	405	19.5	79.0
2025-07-13T22:56	10	0	0.1	0	0	404	0.3	404	405	19.1	81.7
2025-07-13T22:57	10	0	0.1	0	0	404	0.5	403	405	18.9	84.4
2025-07-13T22:58	10	0	0.1	0	0	403	0.4	402	404	18.5	88.2
2025-07-13T22:59	10	0	0.0	0	0	403	0.4	402	404	18.3	89.2
2025-07-13T23:00	10	0	0.0	0	0	403	0.3	402	404	18.4	88.2
2025-07-13T23:01	10	0	0.1	0	0	403	0.3	403	404	18.4	88.2
2025-07-13T23:02	10	0	0.1	0	0	403	0.3	403	404	18.4	87.9
2025-07-13T23:03	10	0	0.0	0	0	404	0.3	403	404	18.4	87.8
2025-07-13T23:04	10	0	0.0	0	0	404	0.3	403	404	18.5	87.4
2025-07-13T23:05	10	0	0.1	0	0	404	0.2	403	404	18.5	87.3
2025-07-13T23:06	10	0	0.1	0	0	404	0.2	403	404	18.4	88.2
2025-07-13T23:07	10	0	0.0	0	0	403	0.3	403	404	18.3	88.8
2025-07-13T23:08	10	0	0.1	0	0	403	0.2	402	403	18.3	89.3
2025-07-13T23:09	10	0	0.1	0	0	402	0.2	402	403	18.2	89.3
2025-07-13T23:10	10	0	0.1	0	0	402	0.2	402	402	18.2	89.8
2025-07-13T23:11	10	0	0.1	0	0	402	0.2	402	403	18.2	89.4
2025-07-13T23:12	10	0	0.1	0	0	402	0.3	401	402	18.3	88.7
2025-07-13T23:13	10	0	0.1	0	0	401	0.2	401	402	18.2	89.7
2025-07-13T23:14	10	0	0.1	0	0	401	0.2	401	402	18.1	90.2
2025-07-13T23:15	10	0	0.1	0	0	401	0.3	401	402	18.0	91.2
2025-07-13T23:16	10	0	0.1	0	0	401	0.3	400	402	18.0	90.8
2025-07-13T23:17	10	0	0.1	0	0	401	0.2	400	401	18.0	91.9
2025-07-13T23:18	10	0	0.1	0	0	401	0.3	400	401	17.9	92.2
2025-07-13T23:19	10	0	0.1	0	0	401	0.3	400	401	17.9	92.7
2025-07-13T23:20	10	0	0.1	0	0	401	0.3	400	402	17.9	92.6
2025-07-13T23:21	10	0	0.1	0	0	401	0.2	401	402	17.9	92.4
2025-07-13T23:22	10	0	0.1	0	0	401	0.3	400	402	17.9	92.8
2025-07-13T23:23	10	0	0.1	0	0	401	0.2	401	402	17.9	92.7
2025-07-13T23:24	10	0	0.1	0	0	401	0.2	401	402	17.9	92.6
2025-07-13T23:25	10	0	0.1	0	0	401	0.3	401	402	17.9	93.1
2025-07-13T23:26	10	0	0.1	0	0	401	0.2	401	402	17.9	92.6
2025-07-13T23:27	10	0	0.1	0	0	401	0.3	401	402	17.9	92.4
2025-07-13T23:28	10	0	0.1	0	0	402	0.2	401	402	17.9	92.0
2025-07-13T23:29	10	0	0.1	0	0	401	0.2	401	402	18.0	91.5
2025-07-13T23:30	10	0	0.1	0	0	402	0.2	401	402	18.1	90.7
2025-07-13T23:31	10	0	0.1	0	0	402	0.3	401	402	18.1	90.6
2025-07-13T23:32	10	0	0.1	0	0	402	0.3	401	402	18.1	90.2
2025-07-13T23:33	10	0	0.1	0	0	402	0.3	402	403	18.2	89.6
2025-07-13T23:34	10	0	0.1	0	0	402	0.3	401	403	18.2	89.6
2025-07-13T23:35	10	0	0.1	0	0	402	0.2	402	403	18.3	88.7
2025-07-13T23:36	10	0	0.1	0	0	402	0.3	401	403	18.3	89.8
2025-07-13T23:37	10	0	0.1	0	0	402	0.3	401	402	18.1	92.0
2025-07-13T23:38	10	0	0.1	0	0	402	0.2	401	403	18.0	91.9
2025-07-13T23:39	10	0	0.1	0	0	402	0.2	401	402	18.0	92.0
2025-07-13T23:40	10	0	0.1	0	0	401	0.3	401	402	18.0	91.8
2025-07-13T23:41	10	0	0.1	0	0	401	0.2	400	402	18.0	92.3
2025-07-13T23:42	10	0	0.1	0	0	401	0.2	400	401	18.0	91.9
2025-07-13T23:43	10	0	0.1	0	0	401	0.2	401	401	17.9	93.3
2025-07-13T23:44	10	0	0.1	0	0	401	0.3	401	402	17.9	93.2
2025-07-13T23:45	10	0	0.1	0	0	402	0.3	401	402	17.9	92.0
2025-07-13T23:46	10	0	0.1	0	0	402	0.3	401	402	18.0	90.9
2025-07-13T23:47	10	0	0.1	0	0	402	0.2	402	403	18.0	90.7
2025-07-13T23:48	10	0	0.1	0	0	402	0.2	402	403	18.1	89.7
2025-07-13T23:49	10	0	0.1	0	0	402	0.2	402	402	18.1	89.9
2025-07-13T23:50	10	0	0.1	0	0	402	0.2	401	402	18.1	90.6
2025-07-13T23:51	10	0	0.1	0	0	402	0.2	401	402	18.0	91.1
2025-07-13T23:52	10	0	0.1	0	0	402	0.3	401	403	18.1	90.5
2025-07-13T23:53	10	0	0.1	0	0	402	0.2	401	402	18.1	90.9
2025-07-13T23:54	10	0	0.1	0	0	402	0.2	401	402	18.0	91.7
2025-07-13T23:55	10	0	0.1	0	0	402	0.2	402	402	18.0	91.3
2025-07-13T23:56	10	0	0.1	0	0	402	0.3	401	402	18.0	91.2
2025-07-13T23:57	10	0	0.1	0	0	402	0.3	401	402	18.0	91.0
2025-07-13T23:58	10	0	0.1	0	0	402	0.2	401	402	18.0	91.4
2025-07-13T23:59	10	0	0.1	0	0	402	0.2	401	402	18.0	91.2
2025-07-14T00:00	10	0	0.1	0	0	402	0.2	401	402	18.0	91.5
2025-07-14T00:01	10	0	0.1	0	0	402	0.2	401	402	18.0	91.3
2025-07-14T00:02	10	0	0.1	0	0	401	0.2	401	402	18.0	91.2
2025-07-14T00:03	10	0	0.1	0	0	402	0.2	401	402	18.0	91.6
2025-07-14T00:04	10	0	0.1	0	0	402	0.3	401	402	18.0	90.2
2025-07-14T00:05	10	0	0.1	0	0	402	0.2	401	402	18.1	90.0
2025-07-14T00:06	10	0	0.1	0	0	402	0.2	401	402	18.1	89.9
2025-07-14T00:07	10	0	0.1	0	0	402	0.2	401	402	18.1	90.4
2025-07-14T00:08	10	0	0.1	0	0	402	0.2	401	402	18.1	88.7
2025-07-14T00:09	10	0	0.1	0	0	402	0.3	401	403	18.2	87.7
2025-07-14T00:10	10	0	0.1	0	0	402	0.2	401	402	18.3	87.7
2025-07-14T00:11	10	0	0.1	0	0	402	0.2	401	402	18.2	88.6
2025-07-14T00:12	10	0	0.1	0	0	402	0.3	401	402	18.1	88.7
2025-07-14T00:13	10	0	0.1	0	0	402	0.2	402	403	18.1	88.1
2025-07-14T00:14	10	0	0.1	0	0	402	0.2	402	403	18.2	88.2
2025-07-14T00:15	10	0	0.1	0	0	402	0.2	402	402	18.1	88.8
2025-07-14T00:16	10	0	0.1	0	0	402	0.3	402	403	18.2	88.3
2025-07-14T00:17	10	0	0.1	0	0	402	0.2	402	403	18.3	87.0
2025-07-14T00:18	10	0	0.1	0	0	402	0.5	401	403	18.2	88.3
2025-07-14T00:19	10	0	0.1	0	0	401	0.4	400	402	18.1	88.9
2025-07-14T00:20	10	0	0.1	0	0	400	0.2	400	401	18.0	90.2
2025-07-14T00:21	10	0	0.1	0	1	400	0.2	400	401	17.9	90.4
2025-07-14T00:22	10	0	0.1	0	0	400	0.2	400	401	17.8	90.8
2025-07-14T00:23	10	0	0.1	0	0	400	0.2	400	401	17.8	90.6
2025-07-14T00:24	10	0	0.1	0	0	400	0.2	400	401	17.8	91.8
2025-07-14T00:25	10	0	0.1	0	0	400	0.3	400	401	17.8	91.3
2025-07-14T00:26	10	0	0.1	0	0	400	0.2	400	401	17.8	91.5
2025-07-14T00:27	10	0	0.1	0	0	401	0.4	400	401	17.8	91.2
2025-07-14T00:28	10	0	0.1	0	0	400	0.2	400	401	17.8	90.8
2025-07-14T00:29	10	0	0.1	0	0	400	0.3	400	401	17.8	90.9
2025-07-14T00:30	10	0	0.1	0	0	400	0.2	400	401	17.8	91.4
2025-07-14T00:31	10	0	0.1	0	0	400	0.2	400	401	17.7	92.3
2025-07-14T00:32	10	0	0.1	0	0	400	0.2	400	401	17.7	92.8
2025-07-14T00:33	10	0	0.1	0	0	400	0.2	400	401	17.7	93.1
2025-07-14T00:34	10	0	0.1	0	0	400	0.2	400	401	17.6	93.7
2025-07-14T00:35	10	0	0.1	0	0	400	0.2	400	401	17.6	93.9
2025-07-14T00:36	10	0	0.1	0	0	400	0.2	400	401	17.6	94.4
2025-07-14T00:37	10	0	0.1	0	0	400	0.2	400	401	17.6	94.7
2025-07-14T00:38	10	0	0.1	0	0	400	0.3	400	401	17.5	95.1
2025-07-14T00:39	10	0	0.1	0	0	400	0.2	400	400	17.5	95.3
2025-07-14T00:40	10	0	0.1	0	0	400	0.3	399	401	17.5	95.8
2025-07-14T00:41	10	0	0.1	0	0	400	0.2	400	400	17.4	95.9
2025-07-14T00:42	10	0	0.0	0	0	400	0.3	399	401	17.4	96.0
2025-07-14T00:43	10	0	0.1	0	0	400	0.2	399	400	17.4	95.6
2025-07-14T00:44	10	0	0.1	0	0	400	0.2	399	401	17.5	95.2
2025-07-14T00:45	10	0	0.1	0	0	400	0.3	399	400	17.5	95.3
2025-07-14T00:46	10	0	0.0	0	0	400	0.2	399	400	17.5	95.3
2025-07-14T00:47	10	0	0.1	0	0	399	0.3	399	400	17.5	95.2
2025-07-14T00:48	10	0	0.1	0	0	399	0.2	399	399	17.4	95.1
2025-07-14T00:49	10	0	0.0	0	0	399	0.2	398	399	17.4	94.7
2025-07-14T00:50	10	0	0.1	0	0	399	0.4	398	399	17.3	95.6
2025-07-14T00:51	10	0	0.1	0	0	399	0.3	398	399	17.3	95.2
2025-07-14T00:52	10	0	0.1	0	0	399	0.2	398	399	17.4	94.4
2025-07-14T00:53	10	0	0.1	0	0	399	0.3	398	399	17.4	94.2
2025-07-14T00:54	10	0	0.0	0	0	399	0.3	398	400	17.4	94.2
2025-07-14T00:55	10	0	0.1	0	0	399	0.2	398	399	17.4	94.7
2025-07-14T00:56	10	0	0.1	0	0	399	0.2	398	399	17.4	94.6
2025-07-14T00:57	10	0	0.1	0	0	399	0.2	399	399	17.4	94.6
2025-07-14T00:58	10	0	0.1	0	0	399	0.2	398	400	17.4	94.2
2025-07-14T00:59	10	0	0.1	0	0	399	0.3	399	400	17.5	93.6
2025-07-14T01:00	10	0	0.1	0	0	399	0.3	399	400	17.5	93.4
2025-07-14T01:01	10	0	0.1	0	0	399	0.2	399	400	17.5	93.0
2025-07-14T01:02	10	0	0.1	0	0	399	0.2	398	400	17.5	93.3
2025-07-14T01:03	10	0	0.1	0	0	399	0.3	399	400	17.5	93.5
2025-07-14T01:04	10	0	0.1	0	0	399	0.2	399	400	17.6	92.7
2025-07-14T01:05	10	0	0.1	0	0	399	0.3	398	400	17.6	92.8
2025-07-14T01:06	10	0	0.1	0	0	399	0.2	399	400	17.6	93.3
2025-07-14T01:07	10	0	0.1	0	0	399	0.2	399	399	17.6	93.2
2025-07-14T01:08	10	0	0.1	0	0	399	0.3	399	400	17.6	92.4
2025-07-14T01:09	10	0	0.1	0	0	399	0.2	399	400	17.7	92.0
2025-07-14T01:10	10	0	0.1	0	0	400	0.2	399	400	17.7	92.1
2025-07-14T01:11	10	0	0.1	0	0	399	0.2	399	400	17.7	92.4
2025-07-14T01:12	10	0	0.1	0	0	399	0.2	399	400	17.7	92.8
2025-07-14T01:13	10	0	0.1	0	0	399	0.2	399	400	17.6	93.1
2025-07-14T01:14	10	0	0.1	0	0	399	0.2	399	399	17.6	93.8
2025-07-14T01:15	10	0	0.1	0	0	399	0.3	398	400	17.5	93.7
2025-07-14T01:16	10	0	0.1	0	0	399	0.2	399	399	17.5	94.0
2025-07-14T01:17	10	0	0.1	0	0	399	0.2	398	399	17.5	94.6
2025-07-14T01:18	10	0	0.1	0	0	399	0.2	398	399	17.5	94.9
2025-07-14T01:19	10	0	0.1	0	0	399	0.2	398	399	17.5	94.9
2025-07-14T01:20	10	0	0.1	0	0	399	0.2	398	399	17.5	94.7
2025-07-14T01:21	10	0	0.1	0	0	399	0.2	398	399	17.5	94.8
2025-07-14T01:22	10	0	0.1	0	0	399	0.2	398	399	17.5	95.2
2025-07-14T01:23	10	0	0.1	0	0	399	0.2	398	399	17.4	95.6
2025-07-14T01:24	10	0	0.1	0	0	398	0.2	398	399	17.4	95.8
2025-07-14T01:25	10	0	0.1	0	0	398	0.2	398	399	17.4	95.8
2025-07-14T01:26	10	0	0.1	0	0	399	0.2	398	399	17.4	95.9
2025-07-14T01:27	10	0	0.1	0	0	399	0.2	398	399	17.4	96.0
2025-07-14T01:28	10	0	0.1	0	0	399	0.2	398	399	17.4	96.3
2025-07-14T01:29	10	0	0.1	0	0	398	0.2	398	399	17.3	96.3
2025-07-14T01:30	10	0	0.1	0	0	398	0.2	398	399	17.3	96.4
2025-07-14T01:31	10	0	0.1	0	0	399	0.2	398	399	17.3	96.2
2025-07-14T01:32	10	0	0.1	0	0	398	0.2	398	399	17.3	96.0
2025-07-14T01:33	10	0	0.1	0	0	398	0.2	398	399	17.3	96.4
2025-07-14T01:34	10	0	0.1	0	0	398	0.2	398	399	17.3	96.3
2025-07-14T01:35	10	0	0.1	0	0	398	0.2	398	399	17.3	96.4
2025-07-14T01:36	10	0	0.1	0	0	398	0.2	398	399	17.3	96.8
2025-07-14T01:37	10	0	0.1	0	0	398	0.2	398	399	17.3	96.6
2025-07-14T01:38	10	0	0.1	0	0	398	0.2	397	398	17.3	96.6
2025-07-14T01:39	10	0	0.1	0	0	398	0.3	397	399	17.3	96.7
2025-07-14T01:40	10	0	0.1	0	0	398	0.3	397	399	17.3	96.4
2025-07-14T01:41	10	0	0.1	0	0	398	0.3	398	399	17.3	96.2
2025-07-14T01:42	10	0	0.1	0	0	398	0.2	398	399	17.3	95.9
2025-07-14T01:43	10	0	0.1	0	0	398	0.3	398	399	17.4	95.9
2025-07-14T01:44	10	0	0.1	0	0	398	0.2	398	399	17.3	96.1
2025-07-14T01:45	10	0	0.1	0	0	398	0.2	398	399	17.3	96.1
2025-07-14T01:46	10	0	0.1	0	0	398	0.2	398	399	17.3	95.9
2025-07-14T01:47	10	0	0.1	0	0	399	0.2	398	399	17.3	96.1
2025-07-14T01:48	10	0	0.1	0	0	398	0.2	398	399	17.3	96.2
2025-07-14T01:49	10	0	0.1	0	0	398	0.2	398	399	17.3	96.2
2025-07-14T01:50	10	0	0.1	0	0	399	0.2	398	399	17.3	96.1
2025-07-14T01:51	10	0	0.1	0	0	399	0.2	398	399	17.4	95.8
2025-07-14T01:52	10	0	0.1	0	0	399	0.2	398	399	17.4	95.3
2025-07-14T01:53	10	0	0.1	0	0	399	0.2	398	399	17.5	95.2
2025-07-14T01:54	10	0	0.1	0	1	399	0.2	398	399	17.5	94.7
2025-07-14T01:55	10	0	0.1	0	0	399	0.3	399	400	17.5	94.6
2025-07-14T01:56	10	0	0.1	0	0	399	0.2	399	400	17.5	94.7
2025-07-14T01:57	10	0	0.1	0	0	399	0.2	399	400	17.5	94.5
2025-07-14T01:58	10	0	0.1	0	1	399	0.3	399	400	17.5	94.6
2025-07-14T01:59	10	0	0.1	0	0	399	0.2	398	399	17.5	94.8
2025-07-14T02:00	10	0	0.1	0	1	399	0.3	398	400	17.5	94.4
2025-07-14T02:01	10	0	0.1	0	1	399	0.3	399	400	17.5	94.5
2025-07-14T02:02	10	0	0.1	0	0	399	0.2	399	400	17.5	94.4
2025-07-14T02:03	10	0	0.1	0	1	399	0.2	399	400	17.6	94.0
2025-07-14T02:04	10	0	0.1	0	0	399	0.2	399	400	17.6	94.4
2025-07-14T02:05	10	0	0.1	0	0	399	0.2	399	400	17.6	94.6
2025-07-14T02:06	10	0	0.1	0	0	399	0.2	399	400	17.6	94.6
2025-07-14T02:07	10	0	0.1	0	0	399	0.3	399	400	17.6	94.4
2025-07-14T02:08	10	0	0.1	0	1	399	0.2	399	400	17.6	94.5
2025-07-14T02:09	10	0	0.1	0	0	399	0.2	399	400	17.6	94.8
2025-07-14T02:10	10	0	0.1	0	0	399	0.2	399	400	17.5	95.1
2025-07-14T02:11	10	0	0.1	0	0	399	0.3	398	400	17.5	95.3
2025-07-14T02:12	10	0	0.1	0	0	399	0.2	399	400	17.5	95.9
2025-07-14T02:13	10	0	0.1	0	1	399	0.2	399	399	17.4	96.5
2025-07-14T02:14	10	0	0.1	0	0	399	0.2	398	399	17.4	96.6
2025-07-14T02:15	10	0	0.1	0	0	399	0.2	398	399	17.4	96.7
2025-07-14T02:16	10	0	0.1	0	0	399	0.2	399	400	17.4	96.9
2025-07-14T02:17	10	0	0.1	0	0	399	0.2	399	400	17.4	96.7
2025-07-14T02:18	10	0	0.1	0	0	399	0.2	399	400	17.5	96.3
2025-07-14T02:19	10	0	0.1	0	0	400	0.3	399	400	17.5	95.9
2025-07-14T02:20	10	0	0.1	0	0	400	0.2	399	400	17.6	96.0
2025-07-14T02:21	10	0	0.1	0	0	400	0.2	399	400	17.5	96.3
2025-07-14T02:22	10	0	0.1	0	0	399	0.2	399	400	17.5	96.3
2025-07-14T02:23	10	0	0.1	0	1	399	0.2	399	400	17.5	96.3
2025-07-14T02:24	10	0	0.1	0	0	400	0.2	399	400	17.5	96.2
2025-07-14T02:25	10	0	0.1	0	1	400	0.2	399	400	17.6	96.2
2025-07-14T02:26	10	0	0.1	0	0	399	0.3	399	400	17.5	96.3
2025-07-14T02:27	10	0	0.1	0	1	399	0.2	399	400	17.5	96.5
2025-07-14T02:28	10	0	0.1	0	0	400	0.2	399	400	17.6	96.2
2025-07-14T02:29	10	0	0.1	0	0	400	0.2	399	400	17.6	96.0
2025-07-14T02:30	10	0	0.1	0	1	400	0.3	399	400	17.6	96.0
2025-07-14T02:31	10	0	0.1	0	0	400	0.3	399	400	17.7	95.5
2025-07-14T02:32	10	0	0.1	0	0	400	0.2	400	401	17.8	95.1
2025-07-14T02:33	10	0	0.1	0	0	400	0.2	400	401	17.8	95.0
2025-07-14T02:34	10	0	0.1	0	0	400	0.2	400	401	17.8	94.5
2025-07-14T02:35	10	0	0.1	0	1	400	0.3	400	401	17.9	94.0
2025-07-14T02:36	10	0	0.1	0	0	400	0.3	400	401	17.9	93.8
2025-07-14T02:37	10	0	0.1	0	1	400	0.2	400	401	17.9	94.0
2025-07-14T02:38	10	0	0.1	0	0	400	0.2	400	401	17.9	94.0
2025-07-14T02:39	10	0	0.1	0	1	400	0.3	400	401	18.0	93.5
2025-07-14T02:40	10	0	0.2	0	1	400	0.2	400	401	18.0	93.8
2025-07-14T02:41	10	0	0.1	0	1	401	0.3	400	401	18.0	93.4
2025-07-14T02:42	10	0	0.1	0	1	401	0.2	400	401	18.1	92.8
2025-07-14T02:43	10	0	0.1	0	1	401	0.2	400	401	18.0	93.3
2025-07-14T02:44	10	0	0.1	0	1	401	0.2	400	402	18.1	93.1
2025-07-14T02:45	10	0	0.1	0	1	401	0.2	400	401	18.1	93.1
2025-07-14T02:46	10	0	0.1	0	1	401	0.2	401	402	18.1	92.3
2025-07-14T02:47	10	0	0.1	0	1	401	0.3	400	402	18.1	92.6
2025-07-14T02:48	10	0	0.1	0	1	401	0.2	401	402	18.1	92.8
2025-07-14T02:49	10	0	0.1	0	1	401	0.2	401	402	18.1	93.0
2025-07-14T02:50	10	0	0.1	0	1	401	0.3	401	402	18.2	92.3
2025-07-14T02:51	10	0	0.1	0	0	401	0.2	401	402	18.2	92.1
2025-07-14T02:52	10	0	0.1	0	0	401	0.2	401	402	18.2	92.2
2025-07-14T02:53	10	0	0.1	0	0	402	0.2	401	402	18.2	92.2
2025-07-14T02:54	10	0	0.1	0	1	401	0.2	401	402	18.1	92.9
2025-07-14T02:55	10	0	0.1	0	0	402	0.2	401	403	18.2	92.2
2025-07-14T02:56	10	0	0.1	0	1	402	0.2	401	402	18.2	92.4
2025-07-14T02:57	10	0	0.2	0	1	402	0.2	401	402	18.2	92.7
2025-07-14T02:58	10	0	0.1	0	0	402	0.2	401	402	18.2	93.2
2025-07-14T02:59	10	0	0.1	0	0	402	0.3	401	403	18.1	93.5
2025-07-14T03:00	10	0	0.1	0	0	402	0.3	401	403	18.1	93.7
2025-07-14T03:01	10	0	0.1	0	0	402	0.2	401	402	18.0	94.2
2025-07-14T03:02	10	0	0.1	0	0	401	0.2	401	402	18.0	94.8
2025-07-14T03:03	10	0	0.2	0	1	401	0.3	401	402	17.9	95.4
2025-07-14T03:04	10	0	0.1	0	1	401	0.2	401	402	17.8	95.8
2025-07-14T03:05	10	0	0.1	0	0	401	0.2	401	402	17.8	96.1
2025-07-14T03:06	10	0	0.1	0	0	401	0.2	400	401	17.8	96.5
2025-07-14T03:07	10	0	0.1	0	1	401	0.2	400	401	17.7	96.7
2025-07-14T03:08	10	0	0.1	0	0	400	0.2	400	401	17.7	97.1
2025-07-14T03:09	10	0	0.1	0	1	401	0.2	400	401	17.7	97.5
2025-07-14T03:10	10	0	0.1	0	0	401	0.2	400	401	17.7	97.4
2025-07-14T03:11	10	0	0.1	0	0	401	0.2	400	401	17.7	97.6
2025-07-14T03:12	10	0	0.1	0	0	401	0.2	400	401	17.7	97.7
2025-07-14T03:13	10	0	0.1	0	0	401	0.3	400	401	17.7	97.8
2025-07-14T03:14	10	0	0.1	0	0	401	0.2	400	401	17.7	97.9
2025-07-14T03:15	10	0	0.1	0	0	401	0.3	400	402	17.7	97.7
2025-07-14T03:16	10	0	0.1	0	0	401	0.2	400	401	17.7	97.6
2025-07-14T03:17	10	0	0.1	0	0	401	0.2	400	401	17.7	97.6
2025-07-14T03:18	10	0	0.1	0	0	401	0.2	400	401	17.7	97.6
2025-07-14T03:19	10	0	0.1	0	0	401	0.3	401	402	17.7	97.5
2025-07-14T03:20	10	0	0.1	0	0	401	0.2	401	402	17.7	97.3
2025-07-14T03:21	10	0	0.1	0	0	401	0.2	401	402	17.7	97.4
2025-07-14T03:22	10	0	0.1	0	0	401	0.2	401	402	17.7	97.3
2025-07-14T03:23	10	0	0.1	0	0	401	0.3	401	402	17.7	96.7
2025-07-14T03:24	10	0	0.1	0	0	401	0.3	401	402	17.8	96.2
2025-07-14T03:25	10	0	0.1	0	0	401	0.2	401	402	17.8	95.6
2025-07-14T03:26	10	0	0.1	0	0	401	0.2	401	402	17.9	94.8
2025-07-14T03:27	10	0	0.1	0	0	401	0.2	401	402	17.9	95.1
2025-07-14T03:28	10	0	0.1	0	0	401	0.2	401	402	17.9	94.8
2025-07-14T03:29	10	0	0.1	0	0	401	0.2	401	402	17.9	94.6
2025-07-14T03:30	10	0	0.1	0	0	401	0.2	401	402	18.0	94.3
2025-07-14T03:31	10	0	0.1	0	0	401	0.3	401	402	18.0	94.2
2025-07-14T03:32	10	0	0.1	0	0	401	0.2	401	402	18.0	93.3
2025-07-14T03:33	10	0	0.1	0	0	401	0.2	401	402	18.1	93.3
2025-07-14T03:34	10	0	0.1	0	0	401	0.2	401	402	18.0	93.8
2025-07-14T03:35	10	0	0.1	0	0	402	0.2	401	402	18.0	93.2
2025-07-14T03:36	10	0	0.1	0	0	401	0.3	401	402	18.1	92.8
2025-07-14T03:37	10	0	0.1	0	0	401	0.2	401	402	18.1	93.0
2025-07-14T03:38	10	0	0.1	0	0	401	0.2	401	402	18.1	93.9
2025-07-14T03:39	10	0	0.1	0	0	401	0.2	401	402	18.0	94.0
2025-07-14T03:40	10	0	0.1	0	0	401	0.2	401	401	18.0	94.2
2025-07-14T03:41	10	0	0.1	0	0	401	0.3	401	402	18.0	94.3
2025-07-14T03:42	10	0	0.1	0	1	402	0.2	401	402	18.0	94.2
2025-07-14T03:43	10	0	0.1	0	0	402	0.2	401	402	18.0	94.2
2025-07-14T03:44	10	0	0.1	0	0	401	0.2	401	402	17.9	94.7
2025-07-14T03:45	10	0	0.1	0	0	401	0.2	401	402	17.9	95.5
2025-07-14T03:46	10	0	0.1	0	0	402	0.2	401	402	17.8	94.9
2025-07-14T03:47	10	0	0.1	0	0	401	0.2	401	402	17.9	95.1
2025-07-14T03:48	10	0	0.1	0	0	402	0.2	401	402	17.8	95.3
2025-07-14T03:49	10	0	0.1	0	0	401	0.2	401	402	17.8	95.6
2025-07-14T03:50	10	0	0.1	0	0	402	0.2	401	403	17.8	95.4
2025-07-14T03:51	10	0	0.1	0	0	402	0.3	401	403	17.9	94.5
2025-07-14T03:52	10	0	0.1	0	0	402	0.3	401	402	18.0	93.6
2025-07-14T03:53	10	0	0.1	0	0	401	0.3	401	402	17.9	95.3
2025-07-14T03:54	10	0	0.1	0	0	402	0.2	401	402	17.9	95.2
2025-07-14T03:55	10	0	0.1	0	0	402	0.2	401	402	17.9	94.8
2025-07-14T03:56	10	0	0.1	0	0	402	0.2	401	402	18.0	94.0
2025-07-14T03:57	10	0	0.1	0	0	401	0.2	401	402	18.0	94.5
2025-07-14T03:58	10	0	0.1	0	0	401	0.2	401	402	17.9	94.9
2025-07-14T03:59	10	0	0.1	0	0	401	0.2	401	402	17.9	95.0
2025-07-14T04:00	10	0	0.0	0	0	401	0.3	400	402	17.9	95.2
2025-07-14T04:01	10	0	0.1	0	0	401	0.2	400	401	17.9	95.4
2025-07-14T04:02	10	0	0.1	0	0	401	0.2	401	401	17.9	95.3
2025-07-14T04:03	10	0	0.1	0	0	401	0.3	400	401	17.9	95.4
2025-07-14T04:04	10	0	0.1	0	0	400	0.2	400	401	17.9	95.6
2025-07-14T04:05	10	0	0.1	0	0	401	0.2	400	401	17.9	95.6
2025-07-14T04:06	10	0	0.1	0	1	400	0.2	400	401	17.9	95.3
2025-07-14T04:07	10	0	0.1	0	0	400	0.2	400	401	17.9	94.8
2025-07-14T04:08	10	0	0.1	0	0	400	0.2	400	401	17.9	94.9
2025-07-14T04:09	10	0	0.0	0	0	400	0.2	400	400	17.9	94.9
2025-07-14T04:10	10	0	0.0	0	0	400	0.2	400	401	17.8	95.1
2025-07-14T04:11	10	0	0.1	0	0	400	0.2	399	400	17.8	94.8
2025-07-14T04:12	10	0	0.1	0	0	400	0.2	400	400	17.8	95.2
2025-07-14T04:13	10	0	0.1	0	0	400	0.2	399	400	17.8	95.2
2025-07-14T04:14	10	0	0.1	0	0	400	0.2	399	400	17.8	95.4
2025-07-14T04:15	10	0	0.1	0	0	400	0.2	400	401	17.8	95.0
2025-07-14T04:16	10	0	0.1	0	0	400	0.2	399	401	17.8	95.0
2025-07-14T04:17	10	0	0.1	0	0	400	0.2	399	400	17.9	95.0
2025-07-14T04:18	10	0	0.1	0	0	400	0.2	399	400	17.8	95.7
2025-07-14T04:19	10	0	0.1	0	0	400	0.2	399	400	17.8	95.5
2025-07-14T04:20	10	0	0.1	0	0	400	0.2	399	400	17.8	95.3
2025-07-14T04:21	10	0	0.1	0	0	400	0.3	399	400	17.8	95.2
2025-07-14T04:22	10	0	0.1	0	0	400	0.2	400	401	17.8	95.2
2025-07-14T04:23	10	0	0.1	0	0	400	0.3	399	401	17.8	95.9
2025-07-14T04:24	10	0	0.1	0	1	400	0.2	400	400	17.7	96.7
2025-07-14T04:25	10	1	0.1	0	1	400	0.3	400	401	17.7	96.9
2025-07-14T04:26	10	1	0.1	0	1	400	0.2	400	401	17.7	96.8
2025-07-14T04:27	10	1	0.1	0	1	400	0.2	400	401	17.7	96.8
2025-07-14T04:28	10	1	0.1	0	1	400	0.2	400	401	17.7	96.4
2025-07-14T04:29	10	0	0.0	0	1	401	0.2	400	401	17.8	96.6
2025-07-14T04:30	10	0	0.1	0	1	401	0.2	400	401	17.7	96.7
2025-07-14T04:31	10	0	0.1	0	0	401	0.2	400	401	17.7	96.7
2025-07-14T04:32	10	0	0.1	0	1	401	0.2	400	401	17.7	96.4
2025-07-14T04:33	10	0	0.1	0	1	401	0.3	400	401	17.8	95.8
2025-07-14T04:34	10	0	0.0	0	0	401	0.2	400	401	17.8	96.0
2025-07-14T04:35	10	0	0.1	0	0	401	0.3	400	401	17.8	96.1
2025-07-14T04:36	10	0	0.1	0	0	401	0.2	401	401	17.8	95.8
2025-07-14T04:37	10	0	0.1	0	1	401	0.2	400	402	17.8	95.8
2025-07-14T04:38	10	0	0.1	0	1	401	0.3	400	401	17.8	96.6
2025-07-14T04:39	10	0	0.1	0	1	401	0.2	400	401	17.8	96.5
2025-07-14T04:40	10	0	0.1	0	1	400	0.3	399	401	17.8	95.9
2025-07-14T04:41	10	1	0.1	0	1	400	0.2	399	400	17.7	96.2
2025-07-14T04:42	10	1	0.1	0	1	400	0.2	399	400	17.7	96.5
2025-07-14T04:43	10	1	0.1	0	1	400	0.2	399	400	17.7	96.7
2025-07-14T04:44	10	1	0.1	0	1	400	0.2	400	400	17.7	96.6
2025-07-14T04:45	10	1	0.1	1	1	400	0.2	399	400	17.7	96.4
2025-07-14T04:46	10	1	0.1	1	1	400	0.2	400	400	17.8	95.8
2025-07-14T04:47	10	1	0.1	1	1	400	0.2	399	400	17.8	95.7
2025-07-14T04:48	10	1	0.1	1	1	400	0.3	399	400	17.8	95.6
2025-07-14T04:49	10	1	0.1	1	1	400	0.2	399	400	17.8	95.5
2025-07-14T04:50	10	1	0.1	1	1	400	0.2	399	400	17.8	94.8
2025-07-14T04:51	10	1	0.1	1	1	400	0.2	399	400	17.8	94.9
2025-07-14T04:52	10	1	0.1	1	2	400	0.2	400	401	17.8	94.5
2025-07-14T04:53	10	1	0.1	1	2	400	0.2	400	401	17.9	93.9
2025-07-14T04:54	10	1	0.1	1	1	400	0.2	399	400	17.8	93.7
2025-07-14T04:55	10	1	0.1	1	2	400	0.2	400	400	17.9	93.1
2025-07-14T04:56	10	1	0.1	1	2	400	0.3	399	401	17.9	91.5
2025-07-14T04:57	10	1	0.1	1	2	400	0.2	399	400	17.9	91.5
2025-07-14T04:58	10	2	0.1	1	2	399	0.3	399	400	17.9	89.9
2025-07-14T04:59	10	2	0.1	1	2	399	0.2	399	399	17.9	89.5
2025-07-14T05:00	10	2	0.0	2	2	399	0.2	398	399	18.0	87.8
2025-07-14T05:01	10	2	0.1	1	2	399	0.3	398	399	17.9	87.7
2025-07-14T05:02	10	2	0.1	1	2	398	0.2	398	399	18.0	87.1
2025-07-14T05:03	10	2	0.1	2	2	398	0.3	397	399	17.9	87.4
2025-07-14T05:04	10	2	0.1	2	2	398	0.2	397	398	17.8	87.6
2025-07-14T05:05	10	2	0.1	2	2	398	0.2	397	398	17.8	86.7
2025-07-14T05:06	10	2	0.1	2	2	398	0.2	397	398	17.7	88.0
2025-07-14T05:07	10	2	0.1	2	2	397	0.2	397	398	17.6	88.7
2025-07-14T05:08	10	2	0.1	2	2	397	0.2	397	398	17.7	88.4
2025-07-14T05:09	10	2	0.1	2	2	397	0.2	397	398	17.6	88.6
2025-07-14T05:10	10	2	0.1	2	2	397	0.2	397	398	17.6	88.3
2025-07-14T05:11	10	2	0.0	2	2	397	0.2	397	398	17.6	88.2
2025-07-14T05:12	10	2	0.1	2	2	397	0.2	397	398	17.6	87.3
2025-07-14T05:13	10	2	0.1	2	2	397	0.3	396	398	17.5	88.3
2025-07-14T05:14	10	2	0.1	2	2	397	0.2	397	398	17.5	87.4
2025-07-14T05:15	10	2	0.1	2	2	397	0.2	396	397	17.5	87.2
2025-07-14T05:16	10	2	0.1	2	2	397	0.2	396	397	17.5	88.1
2025-07-14T05:17	10	2	0.1	2	2	397	0.2	396	397	17.5	87.9
2025-07-14T05:18	10	2	0.1	2	2	397	0.2	396	397	17.5	88.2
2025-07-14T05:19	10	2	0.1	2	2	397	0.3	396	397	17.5	88.5
2025-07-14T05:20	10	2	0.1	2	2	397	0.2	396	397	17.5	88.2
2025-07-14T05:21	10	2	0.1	2	3	397	0.2	396	397	17.6	87.7
2025-07-14T05:22	10	3	0.1	2	3	397	0.2	396	397	17.5	88.8
2025-07-14T05:23	10	3	0.1	3	3	397	0.2	396	397	17.4	90.1
2025-07-14T05:24	10	3	0.1	3	3	397	0.3	396	398	17.4	89.9
2025-07-14T05:25	10	3	0.1	3	3	397	0.2	396	397	17.3	90.7
2025-07-14T05:26	10	3	0.1	2	3	397	0.3	396	397	17.3	91.2
2025-07-14T05:27	10	3	0.2	2	3	397	0.2	396	397	17.2	91.8
2025-07-14T05:28	10	3	0.1	3	3	397	0.3	396	398	17.2	92.1
2025-07-14T05:29	10	3	0.1	3	3	397	0.2	397	398	17.3	91.3
2025-07-14T05:30	10	3	0.2	3	3	397	0.3	396	398	17.3	91.5
2025-07-14T05:31	10	3	0.2	3	4	397	0.2	397	398	17.3	91.5
2025-07-14T05:32	10	3	0.1	3	4	397	0.3	396	398	17.3	91.6
2025-07-14T05:33	10	3	0.1	3	3	397	0.3	397	398	17.3	92.3
2025-07-14T05:34	10	3	0.2	2	3	397	0.3	396	398	17.2	92.7
2025-07-14T05:35	10	3	0.1	2	3	397	0.2	397	398	17.2	93.2
2025-07-14T05:36	10	3	0.1	2	3	397	0.2	397	398	17.2	93.2
2025-07-14T05:37	10	3	0.1	2	3	397	0.3	397	398	17.2	93.2
2025-07-14T05:38	10	3	0.2	2	3	397	0.3	397	398	17.3	92.6
2025-07-14T05:39	10	3	0.2	2	3	397	0.3	397	398	17.3	92.3
2025-07-14T05:40	10	3	0.2	2	3	397	0.2	397	398	17.3	92.5
2025-07-14T05:41	10	3	0.2	3	3	397	0.2	397	398	17.3	92.9
2025-07-14T05:42	10	3	0.2	3	3	398	0.2	397	398	17.3	92.7
2025-07-14T05:43	10	3	0.1	3	4	398	0.3	397	398	17.3	92.9
2025-07-14T05:44	10	3	0.1	3	4	398	0.2	397	398	17.3	92.8
2025-07-14T05:45	10	4	0.2	3	4	398	0.2	397	398	17.3	92.7
2025-07-14T05:46	10	4	0.2	4	4	398	0.3	397	398	17.3	92.7
2025-07-14T05:47	10	5	0.3	4	6	398	0.2	397	398	17.4	92.1
2025-07-14T05:48	10	6	0.4	5	7	398	0.2	398	399	17.4	91.7
2025-07-14T05:49	10	7	0.3	6	8	398	0.3	398	399	17.5	91.1
2025-07-14T05:50	10	8	0.2	7	8	399	0.3	398	399	17.4	91.9
2025-07-14T05:51	10	8	0.2	8	8	399	0.3	398	400	17.4	91.9
2025-07-14T05:52	10	8	0.1	8	9	399	0.3	398	400	17.5	90.9
2025-07-14T05:53	10	9	0.2	8	9	399	0.2	399	399	17.4	91.6
2025-07-14T05:54	10	9	0.2	9	10	399	0.2	399	400	17.4	91.5
2025-07-14T05:55	10	9	0.2	9	9	399	0.3	398	400	17.4	91.3
2025-07-14T05:56	10	8	0.2	8	9	399	0.2	399	400	17.4	91.7
2025-07-14T05:57	10	8	0.2	7	8	399	0.3	399	400	17.4	91.6
2025-07-14T05:58	10	7	0.2	7	8	399	0.3	398	400	17.4	91.6
2025-07-14T05:59	10	7	0.2	6	7	399	0.3	399	400	17.4	91.8
2025-07-14T06:00	10	6	0.2	6	7	399	0.3	399	400	17.5	91.1
2025-07-14T06:01	10	6	0.2	5	6	399	0.2	398	399	17.5	90.9
2025-07-14T06:02	10	6	0.2	5	6	399	0.2	398	399	17.5	90.3
2025-07-14T06:03	10	5	0.2	5	6	399	0.2	398	399	17.5	90.0
2025-07-14T06:04	10	5	0.1	5	5	399	0.4	397	399	17.5	90.7
2025-07-14T06:05	10	5	0.1	5	6	399	0.2	398	399	17.5	90.1
2025-07-14T06:06	10	5	0.2	5	6	399	0.3	398	400	17.5	90.3
2025-07-14T06:07	10	5	0.2	5	6	399	0.2	398	400	17.5	90.4
2025-07-14T06:08	10	5	0.1	5	6	399	0.3	398	400	17.4	91.1
2025-07-14T06:09	10	5	0.1	5	6	399	0.3	399	400	17.4	91.1
2025-07-14T06:10	10	6	0.2	5	6	399	0.2	399	400	17.4	90.7
2025-07-14T06:11	10	6	0.4	6	7	399	0.3	398	399	17.5	90.4
2025-07-14T06:12	10	7	0.4	7	8	399	0.2	399	400	17.4	91.0
2025-07-14T06:13	10	9	0.5	8	10	399	0.2	399	400	17.4	90.6
2025-07-14T06:14	10	10	0.4	10	11	399	0.3	398	400	17.4	90.8
2025-07-14T06:15	10	12	0.5	11	12	400	0.2	399	400	17.4	91.3
2025-07-14T06:16	10	13	0.6	12	15	400	0.3	399	401	17.4	91.4
2025-07-14T06:17	10	15	0.6	14	16	400	0.3	400	401	17.4	91.3
2025-07-14T06:18	10	17	0.8	16	19	401	0.2	400	401	17.4	91.3
2025-07-14T06:19	10	20	0.9	19	22	401	0.4	400	402	17.4	90.5
2025-07-14T06:20	10	24	1.1	22	26	402	0.4	401	403	17.4	90.6
2025-07-14T06:21	10	27	0.8	26	28	402	0.3	402	403	17.5	89.5
2025-07-14T06:22	10	29	0.5	28	30	403	0.4	402	404	17.5	90.1
2025-07-14T06:23	10	31	0.5	30	31	403	0.3	403	404	17.5	90.3
2025-07-14T06:24	10	31	0.5	30	32	404	0.3	403	404	17.5	89.4
2025-07-14T06:25	10	28	1.0	27	30	404	0.4	404	405	17.6	90.0
2025-07-14T06:26	10	25	1.5	23	28	404	0.4	404	405	17.5	89.8
2025-07-14T06:27	10	22	0.6	21	24	404	0.2	403	404	17.5	90.2
2025-07-14T06:28	10	21	0.6	19	22	404	0.2	403	404	17.5	89.9
2025-07-14T06:29	10	19	0.3	19	20	404	0.3	403	405	17.5	90.5
2025-07-14T06:30	10	19	0.2	18	19	403	0.3	403	404	17.6	89.4
2025-07-14T06:31	10	18	0.3	18	19	403	0.2	402	404	17.6	90.2
2025-07-14T06:32	10	18	0.3	17	18	403	0.2	402	403	17.6	90.0
2025-07-14T06:33	10	16	0.4	16	17	403	0.4	402	404	17.6	90.2
2025-07-14T06:34	10	15	0.4	14	16	403	0.3	402	403	17.5	90.3
2025-07-14T06:35	10	14	0.4	13	15	402	0.3	402	403	17.5	89.7
2025-07-14T06:36	10	13	0.3	12	13	402	0.2	402	403	17.5	89.8
2025-07-14T06:37	10	12	0.3	12	13	402	0.2	402	403	17.6	90.3
2025-07-14T06:38	10	11	0.3	11	12	402	0.3	402	403	17.5	90.5
2025-07-14T06:39	10	11	0.2	10	11	402	0.4	401	403	17.5	90.2
2025-07-14T06:40	10	10	0.2	10	11	402	0.3	401	403	17.6	89.8
2025-07-14T06:41	10	10	0.1	10	10	402	0.3	402	403	17.6	90.1
2025-07-14T06:42	10	10	0.1	10	11	402	0.2	401	402	17.6	89.3
2025-07-14T06:43	10	11	0.1	10	11	402	0.2	401	402	17.6	89.3
2025-07-14T06:44	10	11	0.3	10	12	402	0.2	402	402	17.6	89.0
2025-07-14T06:45	10	12	0.3	11	13	402	0.2	401	402	17.6	89.4
2025-07-14T06:46	10	13	0.3	13	14	402	0.2	402	402	17.6	90.2
2025-07-14T06:47	10	14	0.2	14	15	403	0.3	402	403	17.6	90.3
2025-07-14T06:48	10	15	0.2	14	15	403	0.3	402	404	17.6	90.3
2025-07-14T06:49	10	16	0.4	15	17	403	0.2	403	404	17.6	90.1
2025-07-14T06:50	10	17	0.3	16	18	403	0.2	403	404	17.6	90.3
2025-07-14T06:51	10	17	0.2	17	18	404	0.2	404	404	17.6	90.7
2025-07-14T06:52	10	17	0.2	17	17	404	0.2	404	404	17.6	90.7
2025-07-14T06:53	10	17	0.2	16	17	404	0.2	404	405	17.6	91.0
2025-07-14T06:54	10	16	0.1	16	16	404	0.2	404	405	17.6	91.0
2025-07-14T06:55	10	16	0.2	16	17	404	0.2	404	405	17.6	91.1
2025-07-14T06:56	10	16	0.2	15	16	404	0.2	403	405	17.6	90.8
2025-07-14T06:57	10	15	0.3	14	15	404	0.2	404	405	17.6	90.7
2025-07-14T06:58	10	14	0.1	14	15	403	0.2	403	404	17.7	90.2
2025-07-14T06:59	10	14	0.1	14	15	403	0.3	402	404	17.7	89.5
2025-07-14T07:00	10	15	0.1	14	15	403	0.3	403	404	17.7	89.7
2025-07-14T07:01	10	15	0.1	15	15	403	0.2	403	404	17.7	90.4
2025-07-14T07:02	10	15	0.2	15	16	403	0.3	403	404	17.7	90.5
2025-07-14T07:03	10	16	0.3	16	17	404	0.2	403	404	17.7	90.8
2025-07-14T07:04	10	17	0.3	17	18	404	0.2	403	404	17.7	90.9
2025-07-14T07:05	10	18	0.3	18	19	404	0.3	404	405	17.7	91.0
2025-07-14T07:06	10	19	0.4	19	20	404	0.2	404	405	17.7	90.9
2025-07-14T07:07	10	21	0.5	20	22	405	0.2	404	405	17.7	91.3
2025-07-14T07:08	10	23	0.5	22	24	406	0.2	405	406	17.7	90.8
2025-07-14T07:09	10	25	0.5	24	26	406	0.3	406	407	17.7	90.7
2025-07-14T07:10	10	27	0.5	26	27	407	0.2	406	407	17.7	91.0
2025-07-14T07:11	10	28	0.4	28	29	407	0.2	407	408	17.7	90.9
2025-07-14T07:12	10	30	0.3	29	30	408	0.3	407	408	17.8	90.5
2025-07-14T07:13	10	30	0.2	30	31	409	0.5	408	410	17.8	91.1
2025-07-14T07:14	10	31	0.1	30	31	410	0.3	409	411	17.8	91.0
2025-07-14T07:15	10	30	0.1	30	30	410	0.2	409	410	17.9	90.8
2025-07-14T07:16	10	29	0.4	29	30	409	0.2	409	410	17.9	90.4
2025-07-14T07:17	10	28	0.6	26	29	409	0.3	408	410	17.9	90.3
2025-07-14T07:18	10	26	0.4	25	27	409	0.2	408	409	17.9	90.3
2025-07-14T07:19	10	25	0.1	25	26	409	0.3	408	409	18.0	90.8
2025-07-14T07:20	10	26	0.3	25	26	409	0.3	408	409	17.9	90.5
2025-07-14T07:21	10	27	0.5	26	28	409	0.2	409	409	18.0	90.2
2025-07-14T07:22	10	29	0.7	28	30	408	0.2	408	409	17.9	89.8
2025-07-14T07:23	10	31	0.7	30	32	409	0.4	408	410	18.0	90.3
2025-07-14T07:24	10	34	1.0	32	36	411	0.6	409	412	18.0	90.5
2025-07-14T07:25	10	37	1.0	36	39	412	0.3	411	413	18.0	89.9
2025-07-14T07:26	10	41	0.8	39	42	413	0.4	412	413	18.1	90.1
2025-07-14T07:27	10	43	0.6	42	44	414	0.4	413	415	18.1	90.2
2025-07-14T07:28	10	45	0.6	44	46	415	0.4	414	416	18.1	90.1
2025-07-14T07:29	10	47	0.4	46	47	416	0.3	415	417	18.2	89.6
2025-07-14T07:30	10	48	0.2	47	48	416	0.2	416	417	18.3	90.0
2025-07-14T07:31	10	48	0.2	48	49	417	0.2	416	417	18.3	89.8
2025-07-14T07:32	10	48	0.2	48	49	417	0.2	416	417	18.3	90.1
2025-07-14T07:33	10	48	0.2	48	48	417	0.2	416	417	18.3	89.9
2025-07-14T07:34	10	48	0.1	48	48	417	0.3	416	418	18.4	89.6
2025-07-14T07:35	10	48	0.2	48	49	417	0.3	416	418	18.4	89.4
2025-07-14T07:36	10	47	0.3	46	48	417	0.3	416	417	18.4	88.6
2025-07-14T07:37	10	47	0.1	46	47	416	0.5	415	417	18.5	89.2
2025-07-14T07:38	10	47	0.3	47	48	416	0.2	416	417	18.5	87.9
2025-07-14T07:39	10	49	0.5	48	50	417	0.2	416	417	18.6	88.2
2025-07-14T07:40	10	51	0.5	50	51	416	0.3	416	417	18.6	88.4
2025-07-14T07:41	10	51	0.1	51	52	417	0.3	417	418	18.6	88.2
2025-07-14T07:42	10	51	0.1	51	52	418	0.3	417	418	18.7	87.8
2025-07-14T07:43	10	51	0.2	50	51	418	0.3	417	418	18.8	86.8
2025-07-14T07:44	10	50	0.4	49	51	418	0.3	418	419	18.8	86.2
2025-07-14T07:45	10	49	0.4	48	50	417	0.6	416	418	18.8	85.0
2025-07-14T07:46	10	47	0.2	47	48	417	0.2	417	418	18.9	86.3
2025-07-14T07:47	10	46	0.7	45	47	417	0.5	416	418	18.9	86.0
2025-07-14T07:48	10	44	0.7	42	45	416	0.4	415	417	18.9	85.7
2025-07-14T07:49	10	41	0.6	40	42	416	0.3	415	416	18.9	84.3
2025-07-14T07:50	10	40	0.3	39	40	416	0.3	415	416	19.0	83.7
2025-07-14T07:51	10	39	0.1	39	39	415	0.5	415	416	19.1	82.9
2025-07-14T07:52	10	39	0.1	39	39	415	0.3	414	415	19.2	81.2
2025-07-14T07:53	10	39	0.1	39	39	415	0.4	414	415	19.1	81.3
2025-07-14T07:54	10	38	0.2	38	39	415	0.8	414	416	19.1	83.0
2025-07-14T07:55	10	37	0.2	37	38	414	0.4	413	415	19.2	80.7
2025-07-14T07:56	10	37	0.1	37	37	414	0.5	413	415	19.2	82.0
2025-07-14T07:57	10	37	0.1	36	37	415	0.3	414	415	19.3	83.5
2025-07-14T07:58	10	37	0.1	36	37	415	0.3	414	416	19.1	83.3
2025-07-14T07:59	10	38	1.0	37	41	415	0.2	414	415	19.1	82.9
2025-07-14T08:00	10	46	3.7	41	52	416	0.7	415	417	19.2	84.2
2025-07-14T08:01	10	55	4.3	50	62	416	0.5	415	417	19.1	82.5
2025-07-14T08:02	10	52	1.6	50	56	416	0.5	416	417	19.2	82.5
2025-07-14T08:03	10	52	2.2	49	56	418	0.3	417	418	19.3	82.8
2025-07-14T08:04	10	55	6.6	49	70	418	0.4	417	419	19.4	82.5
2025-07-14T08:05	10	70	4.4	65	78	420	0.8	419	422	19.4	82.6
2025-07-14T08:06	10	78	4.6	71	89	422	0.8	421	424	19.4	81.2
2025-07-14T08:07	10	68	5.1	61	79	423	0.5	422	424	19.4	81.1
2025-07-14T08:08	10	87	19.2	61	120	424	1.5	422	427	19.5	80.7
2025-07-14T08:09	10	68	9.9	56	90	424	1.4	422	427	19.6	81.4
2025-07-14T08:10	10	54	1.5	52	57	423	0.4	422	423	19.6	81.5
2025-07-14T08:11	10	52	0.3	52	53	422	1.0	420	423	19.7	80.9
2025-07-14T08:12	10	57	4.1	52	65	421	0.3	420	422	19.7	80.9
2025-07-14T08:13	10	55	2.0	53	59	421	0.5	420	422	19.6	80.5
2025-07-14T08:14	10	74	7.7	59	88	424	1.3	420	425	19.6	81.2
2025-07-14T08:15	10	65	8.0	56	90	425	0.8	424	426	19.7	82.2
2025-07-14T08:16	10	92	16.5	67	116	428	1.5	426	430	19.8	82.8
2025-07-14T08:17	10	56	7.4	49	80	427	1.5	424	430	19.9	80.3
2025-07-14T08:18	10	64	15.8	49	101	425	0.8	424	428	20.0	81.3
2025-07-14T08:19	10	71	27.2	46	137	427	1.2	425	429	20.0	80.7
2025-07-14T08:20	10	104	32.9	47	154	428	2.2	425	433	19.9	80.5
2025-07-14T08:21	10	109	43.7	55	155	433	2.6	428	437	19.9	80.6
2025-07-14T08:22	10	67	12.8	55	95	429	0.7	427	430	19.9	80.7
2025-07-14T08:23	10	74	18.7	59	118	427	1.1	426	430	20.1	80.1
2025-07-14T08:24	10	103	34.9	65	165	429	2.0	427	434	20.1	78.5
2025-07-14T08:25	10	148	17.0	110	167	436	3.3	432	442	20.2	80.3
2025-07-14T08:26	10	146	22.0	98	168	442	1.4	440	445	20.5	80.3
2025-07-14T08:27	10	170	1.6	167	173	444	1.0	442	445	20.7	79.9
2025-07-14T08:28	10	176	2.3	173	180	443	0.6	441	444	20.4	77.8
2025-07-14T08:29	10	184	2.0	180	188	446	1.3	442	448	20.5	79.2
2025-07-14T08:30	10	170	19.0	125	190	447	1.1	444	449	20.7	78.6
2025-07-14T08:31	10	159	32.0	109	200	444	1.3	441	446	20.6	76.6
2025-07-14T08:32	10	155	35.7	108	202	443	2.3	440	447	20.6	77.2
2025-07-14T08:33	10	154	17.1	127	188	446	1.0	445	448	20.7	77.1
2025-07-14T08:34	10	113	9.8	100	137	442	2.1	439	447	20.7	77.5
2025-07-14T08:35	10	95	5.0	88	110	439	1.8	437	443	20.8	77.9
2025-07-14T08:36	10	94	6.4	86	113	437	0.6	436	439	20.8	77.5
2025-07-14T08:37	10	87	2.8	85	96	435	1.0	434	438	20.8	76.9
2025-07-14T08:38	10	108	23.7	88	159	436	1.6	434	439	20.6	76.2
2025-07-14T08:39	10	97	2.8	91	101	436	0.7	435	437	20.6	76.6
2025-07-14T08:40	10	139	26.8	101	188	440	2.3	436	443	20.7	76.6
2025-07-14T08:41	10	124	16.9	102	163	441	0.4	441	443	20.8	77.1
2025-07-14T08:42	10	102	9.3	91	127	440	1.8	437	443	20.9	76.6
2025-07-14T08:43	10	90	3.0	86	99	437	0.6	436	438	20.7	76.1
2025-07-14T08:44	10	87	5.7	76	96	438	0.5	437	439	20.9	76.8
2025-07-14T08:45	10	71	1.8	69	75	435	1.0	434	437	20.8	76.3
2025-07-14T08:46	10	69	0.2	68	69	434	0.4	433	435	20.8	77.4
2025-07-14T08:47	10	70	0.6	69	71	433	0.5	432	434	20.8	76.4
2025-07-14T08:48	10	72	1.0	71	74	433	0.2	432	433	20.7	76.8
2025-07-14T08:49	10	83	9.4	74	109	434	0.8	433	436	20.7	77.4
2025-07-14T08:50	10	85	5.3	80	101	435	0.5	434	436	20.7	77.3
2025-07-14T08:51	10	75	2.3	73	82	434	1.3	432	436	20.7	76.7
2025-07-14T08:52	10	72	0.4	72	73	432	0.5	431	433	20.6	76.4
2025-07-14T08:53	10	71	0.3	71	72	431	0.2	431	432	20.5	76.3
2025-07-14T08:54	10	73	1.4	71	76	432	0.4	431	433	20.6	77.7
2025-07-14T08:55	10	67	1.6	65	70	432	0.6	431	433	20.7	78.2
2025-07-14T08:56	10	63	1.5	60	65	431	0.3	430	432	20.7	76.2
2025-07-14T08:57	10	58	1.4	55	60	431	0.2	430	431	20.6	77.2
2025-07-14T08:58	10	54	0.6	53	55	431	0.3	430	432	20.7	78.5
2025-07-14T08:59	10	54	0.2	53	54	431	0.4	430	432	20.8	77.3
2025-07-14T09:00	10	54	0.2	54	54	430	0.4	429	431	20.8	76.9
2025-07-14T09:01	10	55	0.2	54	55	430	0.6	429	430	20.8	76.3
2025-07-14T09:02	10	55	0.2	54	55	429	0.4	428	430	20.8	76.2
2025-07-14T09:03	10	53	0.5	52	54	429	0.2	428	429	20.8	76.7
2025-07-14T09:04	10	51	0.5	51	52	429	0.3	429	430	20.8	76.8
2025-07-14T09:05	10	49	0.9	48	51	428	0.6	427	430	20.8	76.6
2025-07-14T09:06	10	47	0.6	46	48	428	0.2	428	429	20.8	77.1
2025-07-14T09:07	10	45	0.3	45	46	429	0.3	428	429	20.9	77.5
2025-07-14T09:08	10	44	0.3	44	45	429	0.2	428	429	20.9	76.8
2025-07-14T09:09	10	43	0.4	42	44	427	0.7	426	429	20.9	76.4
2025-07-14T09:10	10	42	0.1	42	43	427	0.3	426	428	20.8	76.5
2025-07-14T09:11	10	43	0.7	43	45	427	0.4	426	428	20.9	77.1
2025-07-14T09:12	10	47	1.2	45	49	426	0.4	425	427	20.8	74.6
2025-07-14T09:13	10	52	1.8	49	55	427	0.5	426	428	20.9	75.4
2025-07-14T09:14	10	58	2.0	55	62	428	0.4	427	429	20.9	75.0
2025-07-14T09:15	10	74	16.9	62	133	428	0.7	428	432	20.9	73.9
2025-07-14T09:16	10	123	39.6	73	177	436	2.3	430	439	20.9	73.8
2025-07-14T09:17	10	82	16.0	63	106	436	1.0	434	438	21.0	74.4
2025-07-14T09:18	10	63	0.6	63	65	434	0.2	433	435	21.1	74.2
2025-07-14T09:19	10	64	2.1	63	73	433	0.5	432	434	21.1	74.7
2025-07-14T09:20	10	72	11.8	65	110	434	0.7	433	436	21.2	75.2
2025-07-14T09:21	10	63	1.7	60	65	433	0.7	432	434	21.1	74.1
2025-07-14T09:22	10	60	0.6	59	61	432	0.5	431	433	21.1	74.6
2025-07-14T09:23	10	62	0.8	61	63	431	0.3	430	432	21.1	74.5
2025-07-14T09:24	10	75	19.6	62	130	432	1.3	431	436	21.2	75.7
2025-07-14T09:25	10	90	18.1	71	129	436	1.0	434	438	21.2	75.3
2025-07-14T09:26	10	104	18.3	82	140	438	0.8	436	439	21.3	74.7
2025-07-14T09:27	10	148	36.1	84	191	442	3.7	436	447	21.3	74.3
2025-07-14T09:28	10	148	34.7	98	189	445	2.7	442	449	21.4	74.0
2025-07-14T09:29	10	113	43.1	58	181	446	3.2	440	450	21.3	73.6
2025-07-14T09:30	10	130	26.0	87	178	445	1.4	442	448	21.5	74.2
2025-07-14T09:31	10	159	9.2	130	171	450	1.9	445	453	21.6	74.4
2025-07-14T09:32	10	167	1.3	165	170	453	0.6	452	454	21.8	74.2
2025-07-14T09:33	10	154	9.0	136	165	454	0.8	453	455	21.8	73.5
2025-07-14T09:34	10	161	0.5	160	162	455	0.7	454	457	22.0	73.9
2025-07-14T09:35	10	160	0.1	160	161	456	0.3	455	456	22.0	72.5
2025-07-14T09:36	10	161	0.1	161	161	456	0.8	454	457	21.9	72.2
2025-07-14T09:37	10	161	0.3	161	162	456	0.6	454	457	21.9	71.9
2025-07-14T09:38	10	163	0.4	162	163	456	0.6	455	457	21.8	71.8
2025-07-14T09:39	10	165	0.7	163	166	456	0.6	455	458	22.0	71.5
2025-07-14T09:40	10	167	0.4	166	167	457	0.6	456	458	21.9	70.9
2025-07-14T09:41	10	168	0.4	167	169	459	1.3	457	461	21.8	71.3
2025-07-14T09:42	10	170	0.9	168	172	462	1.0	460	464	22.0	72.6
2025-07-14T09:43	10	172	0.2	171	172	463	0.4	463	464	22.3	72.4
2025-07-14T09:44	10	170	1.0	168	171	465	0.5	464	466	22.5	71.4
2025-07-14T09:45	10	167	0.7	166	168	465	0.5	464	466	22.6	71.8
2025-07-14T09:46	10	167	0.8	166	168	466	0.4	465	466	22.9	71.5
2025-07-14T09:47	10	171	1.5	169	173	464	0.9	463	467	22.8	69.6
2025-07-14T09:48	10	175	1.0	173	176	464	0.6	462	465	22.7	69.6
2025-07-14T09:49	10	178	0.6	177	179	464	1.5	461	466	22.5	69.9
2025-07-14T09:50	10	179	0.5	178	180	463	1.2	461	467	22.8	66.7
2025-07-14T09:51	10	180	0.3	179	181	466	1.1	464	468	22.8	66.9
2025-07-14T09:52	10	178	1.3	176	180	466	2.0	462	468	23.0	66.6
2025-07-14T09:53	10	175	0.8	173	176	464	0.8	463	466	22.9	67.4
2025-07-14T09:54	10	173	0.2	173	174	466	0.7	464	467	23.2	67.7
2025-07-14T09:55	10	176	1.3	174	178	465	1.1	463	467	23.2	67.5
2025-07-14T09:56	10	178	1.0	177	181	466	1.3	464	468	23.3	65.7
2025-07-14T09:57	10	146	39.0	75	183	461	4.8	454	468	23.0	64.1
2025-07-14T09:58	10	178	5.6	164	183	463	1.9	459	465	22.9	62.4
2025-07-14T09:59	10	91	39.4	52	167	458	4.7	452	468	23.2	64.1
2025-07-14T10:00	10	82	36.1	57	165	451	2.7	447	457	23.2	63.9
2025-07-14T10:01	10	147	38.1	73	196	458	2.4	453	461	23.0	64.6
2025-07-14T10:02	10	122	49.8	66	202	457	3.5	451	462	23.1	65.6
2025-07-14T10:03	10	165	44.6	93	205	464	2.4	460	468	23.2	65.2
2025-07-14T10:04	10	137	47.5	74	207	464	3.2	459	470	23.4	65.7
2025-07-14T10:05	10	98	26.6	77	162	458	1.9	454	461	23.5	64.1
2025-07-14T10:06	10	153	58.9	74	208	460	5.0	454	467	23.4	63.5
2025-07-14T10:07	10	169	47.3	90	208	464	4.2	457	470	23.5	61.2
2025-07-14T10:08	10	162	37.0	89	209	462	1.8	458	465	23.5	60.2
2025-07-14T10:09	10	162	46.3	72	208	464	1.8	460	467	23.4	60.7
2025-07-14T10:10	10	119	51.9	60	199	462	3.8	455	467	23.6	60.6
2025-07-14T10:11	10	70	27.6	58	168	452	2.2	449	457	23.6	60.9
2025-07-14T10:12	10	67	16.8	59	154	451	2.1	448	456	23.6	61.2
2025-07-14T10:13	10	55	1.9	53	62	445	2.0	443	450	23.5	58.8
2025-07-14T10:14	10	52	0.6	51	53	442	0.4	441	443	23.5	58.7
2025-07-14T10:15	10	52	0.2	51	52	441	0.7	440	442	23.5	58.7
2025-07-14T10:16	10	89	55.5	52	199	442	3.8	439	452	23.5	58.7
2025-07-14T10:17	10	127	68.8	51	199	452	4.3	443	458	23.5	58.7
2025-07-14T10:18	10	54	6.7	46	72	442	1.5	440	446	23.5	58.7
2025-07-14T10:19	10	48	1.6	46	51	440	0.4	439	441	23.5	58.7
2025-07-14T10:20	10	51	2.9	48	59	440	0.3	439	440	23.5	58.7
2025-07-14T10:21	10	51	2.6	48	56	440	0.5	439	441	23.5	58.4
2025-07-14T10:22	10	65	4.6	56	71	442	1.2	440	444	23.3	57.5
2025-07-14T10:23	10	91	19.3	71	133	446	2.3	443	450	23.3	57.4
2025-07-14T10:24	10	93	29.0	70	159	448	1.7	446	451	23.4	58.2
2025-07-14T10:25	10	71	4.0	68	81	446	0.9	445	449	23.4	58.6
2025-07-14T10:26	10	75	10.5	66	103	447	0.5	446	448	23.5	58.9
2025-07-14T10:27	10	67	2.4	66	78	447	0.5	446	448	23.6	58.8
2025-07-14T10:28	10	69	8.9	62	86	447	0.8	445	448	23.5	57.8
2025-07-14T10:29	10	61	1.1	59	63	442	1.4	441	446	23.5	56.3
2025-07-14T10:30	10	105	41.6	62	181	445	4.5	440	452	23.5	54.8
2025-07-14T10:31	10	66	16.7	56	116	444	1.3	442	447	23.5	54.0
2025-07-14T10:32	10	52	7.9	47	84	441	2.0	438	446	23.5	53.9
2025-07-14T10:33	10	48	2.1	44	52	439	0.4	438	440	23.5	53.9
2025-07-14T10:34	10	44	0.6	43	45	439	0.5	438	440	23.6	55.0
2025-07-14T10:35	10	101	59.3	45	186	442	5.8	437	454	23.6	55.3
2025-07-14T10:36	10	183	9.5	161	191	455	3.3	451	461	23.7	53.9
2025-07-14T10:37	10	155	40.3	66	192	460	3.4	451	464	23.8	52.9
2025-07-14T10:38	10	84	12.1	65	114	450	1.5	447	453	23.8	51.0
2025-07-14T10:39	10	95	42.5	61	198	446	1.8	443	450	23.8	52.4
2025-07-14T10:40	10	74	44.9	47	197	447	4.0	441	454	23.8	52.7
2025-07-14T10:41	10	44	1.5	42	47	440	1.1	438	443	23.9	51.8
2025-07-14T10:42	10	43	0.8	42	45	438	1.1	436	439	23.9	51.7
2025-07-14T10:43	10	75	37.5	45	177	438	2.6	435	447	23.8	52.4
2025-07-14T10:44	10	190	1.8	180	191	454	4.7	443	460	23.8	52.8
2025-07-14T10:45	10	185	1.3	182	188	463	1.9	458	465	24.0	53.6
2025-07-14T10:46	10	185	0.6	184	186	465	1.6	462	467	24.3	53.0
2025-07-14T10:47	10	189	2.0	186	193	466	0.7	464	467	24.4	52.0
2025-07-14T10:48	10	197	2.2	193	201	471	2.2	467	475	24.3	51.3
2025-07-14T10:49	10	158	42.7	84	208	469	4.2	463	477	24.6	51.7
2025-07-14T10:50	10	171	41.0	89	208	468	3.0	462	472	24.3	51.1
2025-07-14T10:51	10	149	29.5	96	196	466	1.4	463	468	24.6	52.6
2025-07-14T10:52	10	84	50.0	55	201	460	7.5	450	473	24.6	52.4
2025-07-14T10:53	10	59	1.7	57	63	450	2.3	447	454	24.4	52.3
2025-07-14T10:54	10	66	5.0	62	81	447	1.0	445	448	24.2	52.1
2025-07-14T10:55	10	67	5.5	63	96	447	0.5	446	448	24.0	52.8
2025-07-14T10:56	10	91	36.8	61	174	450	2.6	447	454	24.1	53.1
2025-07-14T10:57	10	59	1.1	57	61	446	1.0	445	448	24.2	53.6
2025-07-14T10:58	10	60	6.9	57	83	446	0.6	445	448	24.2	54.1
2025-07-14T10:59	10	172	51.2	68	204	458	9.5	445	471	24.3	55.1
2025-07-14T11:00	10	200	0.5	198	200	471	1.3	468	473	24.6	53.8
2025-07-14T11:01	10	198	0.4	197	199	472	1.8	469	475	24.6	51.1
2025-07-14T11:02	10	195	3.9	182	198	475	1.3	473	477	24.8	50.5
2025-07-14T11:03	10	194	0.5	193	195	474	0.6	473	476	24.8	49.8
2025-07-14T11:04	10	182	15.9	143	195	471	3.0	467	475	24.6	49.7
2025-07-14T11:05	10	199	2.7	195	205	471	2.2	469	475	24.6	50.6
2025-07-14T11:06	10	135	47.7	61	206	470	4.7	459	477	25.0	50.4
2025-07-14T11:07	10	59	0.7	58	61	456	3.7	450	463	24.6	49.7
2025-07-14T11:08	10	105	57.7	61	212	453	4.3	449	463	24.5	50.1
2025-07-14T11:09	10	99	36.5	65	174	459	3.0	453	464	24.3	50.9
2025-07-14T11:10	10	64	0.4	63	65	452	1.5	450	455	24.3	50.3
2025-07-14T11:11	10	95	41.4	64	181	451	2.6	449	458	24.2	50.7
2025-07-14T11:12	10	206	14.7	177	218	467	6.5	455	476	24.1	50.9
2025-07-14T11:13	10	218	0.4	217	219	479	2.9	474	485	24.3	50.9
2025-07-14T11:14	10	151	57.3	81	220	476	6.2	468	486	24.5	51.5
2025-07-14T11:15	10	135	68.0	71	221	468	8.4	455	477	24.7	50.9
2025-07-14T11:16	10	163	58.7	71	207	463	6.5	454	473	24.5	50.9
2025-07-14T11:17	10	199	3.0	194	204	476	1.6	472	478	24.5	51.1
2025-07-14T11:18	10	191	1.1	190	194	477	0.6	476	478	24.7	50.6
2025-07-14T11:19	10	189	2.1	182	191	476	1.5	474	480	24.5	51.0
2025-07-14T11:20	10	193	1.1	191	195	476	2.0	473	479	24.8	52.0
2025-07-14T11:21	10	194	21.4	88	204	473	1.5	468	476	24.8	50.5
2025-07-14T11:22	10	117	59.4	64	210	465	4.3	459	473	24.4	51.0
2025-07-14T11:23	10	78	37.4	54	197	461	7.3	452	475	24.5	50.6
2025-07-14T11:24	10	56	1.4	54	59	452	1.1	451	455	24.5	50.9
2025-07-14T11:25	10	73	20.6	59	135	453	2.2	451	458	24.5	50.8
2025-07-14T11:26	10	67	4.4	64	81	453	1.2	451	455	24.5	51.3
2025-07-14T11:27	10	66	3.5	64	79	452	0.8	451	454	24.7	52.4
2025-07-14T11:28	10	66	0.8	65	68	451	0.6	450	452	24.6	52.1
2025-07-14T11:29	10	106	36.6	68	182	453	2.8	451	461	24.6	52.8
2025-07-14T11:30	10	114	29.7	82	183	459	2.2	456	463	24.5	52.9
2025-07-14T11:31	10	168	45.6	100	229	462	5.1	455	472	24.5	52.1
2025-07-14T11:32	10	190	49.7	98	228	472	3.5	464	476	24.5	51.5
2025-07-14T11:33	10	140	54.1	76	220	468	4.5	459	473	24.6	51.6
2025-07-14T11:34	10	74	1.9	72	78	459	1.6	456	462	24.8	52.2
2025-07-14T11:35	10	126	54.5	70	213	461	5.1	454	469	24.7	51.8
2025-07-14T11:36	10	63	2.5	60	69	457	2.3	454	462	24.7	52.0
2025-07-14T11:37	10	63	3.3	60	72	453	1.5	451	455	24.7	51.7
2025-07-14T11:38	10	77	17.7	60	114	453	1.6	450	455	24.6	52.1
2025-07-14T11:39	10	60	0.5	60	61	452	0.6	451	453	24.6	52.2
2025-07-14T11:40	10	63	0.8	61	64	451	0.6	449	452	24.7	52.3
2025-07-14T11:41	10	64	1.0	63	67	449	0.4	449	450	24.7	52.6
2025-07-14T11:42	10	68	1.0	67	69	450	0.7	449	451	24.7	53.0
2025-07-14T11:43	10	71	1.6	67	72	450	0.3	450	451	24.6	52.4
2025-07-14T11:44	10	71	2.9	69	82	450	0.3	449	450	24.5	52.3
2025-07-14T11:45	10	85	18.2	73	134	451	1.2	449	455	24.6	52.4
2025-07-14T11:46	10	81	8.2	76	112	453	0.8	452	455	24.7	52.0
2025-07-14T11:47	10	115	40.0	70	186	458	2.3	453	464	24.7	52.5
2025-07-14T11:48	10	146	50.0	70	206	466	2.7	462	472	24.8	52.3
2025-07-14T11:49	10	174	23.8	114	199	474	1.8	469	477	25.0	52.7
2025-07-14T11:50	10	174	21.3	111	188	475	1.3	473	478	25.0	51.8
2025-07-14T11:51	10	184	9.5	153	191	476	1.0	475	478	25.1	49.8
2025-07-14T11:52	10	193	1.3	191	196	477	0.6	476	478	25.0	49.4
2025-07-14T11:53	10	186	18.3	125	202	478	1.7	474	480	25.1	49.2
2025-07-14T11:54	10	141	44.3	77	199	472	3.5	465	477	25.0	48.5
2025-07-14T11:55	10	112	43.3	72	194	467	4.3	460	473	25.1	49.3
2025-07-14T11:56	10	189	39.2	77	215	475	8.7	460	486	25.4	49.5
2025-07-14T11:57	10	209	6.2	187	214	484	0.9	483	486	25.7	48.3
2025-07-14T11:58	10	146	51.2	74	211	477	5.2	470	486	25.6	47.8
2025-07-14T11:59	10	130	48.3	68	209	473	4.2	466	479	25.8	48.5
2025-07-14T12:00	10	125	36.1	78	207	472	3.0	467	477	25.8	48.1
2025-07-14T12:01	10	182	32.7	112	217	473	2.9	467	478	25.5	46.5
2025-07-14T12:02	10	92	51.2	61	217	467	7.3	457	480	25.5	47.2
2025-07-14T12:03	10	59	1.3	57	61	456	1.7	454	460	25.4	47.1
2025-07-14T12:04	10	141	58.8	57	205	463	7.7	454	476	25.4	47.5
2025-07-14T12:05	10	199	1.6	197	203	476	2.0	472	478	25.4	48.4
2025-07-14T12:06	10	194	1.3	192	197	477	1.7	474	481	25.4	47.6
2025-07-14T12:07	10	191	0.5	190	192	479	1.3	477	482	25.5	46.7
2025-07-14T12:08	10	192	0.4	191	192	481	1.1	479	483	25.7	46.2
2025-07-14T12:09	10	186	5.6	169	192	480	0.5	479	481	25.6	45.5
2025-07-14T12:10	10	179	24.8	93	197	481	1.1	478	483	25.6	45.9
2025-07-14T12:11	10	119	24.4	83	166	475	1.7	472	479	25.9	46.0
2025-07-14T12:12	10	168	19.4	131	185	479	4.2	473	485	25.9	46.4
2025-07-14T12:13	10	182	0.8	181	184	484	1.3	482	486	25.9	46.7
2025-07-14T12:14	10	171	18.9	118	182	483	1.6	478	484	25.5	47.0
2025-07-14T12:15	10	160	34.0	84	186	477	3.2	473	484	25.6	47.7
2025-07-14T12:16	10	183	0.4	183	184	484	0.6	483	485	25.7	47.3
2025-07-14T12:17	10	183	0.3	183	184	485	0.8	484	487	25.8	47.5
2025-07-14T12:18	10	184	0.2	184	185	487	0.7	485	488	26.0	47.7
2025-07-14T12:19	10	186	0.6	185	187	486	1.9	483	489	26.0	46.7
2025-07-14T12:20	10	189	1.1	187	190	481	2.3	478	485	25.5	47.0
2025-07-14T12:21	10	186	9.6	157	192	481	0.8	480	484	25.4	47.1
2025-07-14T12:22	10	193	1.9	189	196	484	0.8	482	485	25.6	47.4
2025-07-14T12:23	10	175	23.4	126	199	481	3.4	476	486	25.3	47.0
2025-07-14T12:24	10	114	55.3	50	187	477	6.3	465	484	25.5	48.2
2025-07-14T12:25	10	115	38.1	51	175	469	3.3	464	473	25.6	47.1
2025-07-14T12:26	10	179	29.5	84	196	478	4.7	469	484	25.5	47.5
2025-07-14T12:27	10	81	57.5	44	196	473	8.3	463	485	25.7	47.7
2025-07-14T12:28	10	46	0.7	45	47	462	2.5	457	466	25.7	47.3
2025-07-14T12:29	10	60	11.5	48	93	460	0.8	458	461	25.7	46.7
2025-07-14T12:30	10	49	1.2	48	54	455	2.2	452	459	25.5	47.0
2025-07-14T12:31	10	67	39.9	47	189	454	2.3	452	462	25.5	48.0
2025-07-14T12:32	10	168	30.7	92	194	471	4.8	459	476	25.7	48.3
2025-07-14T12:33	10	188	2.4	180	191	479	3.0	473	483	26.0	47.9
2025-07-14T12:34	10	186	1.2	184	188	485	1.6	481	487	26.0	47.2
2025-07-14T12:35	10	182	0.9	180	183	488	0.6	486	489	26.2	47.1
2025-07-14T12:36	10	178	1.1	177	180	488	0.6	487	489	26.1	46.9
2025-07-14T12:37	10	174	1.6	172	176	488	0.8	486	489	26.3	47.9
2025-07-14T12:38	10	172	0.1	172	173	485	0.6	484	487	26.3	47.4
2025-07-14T12:39	10	173	0.2	173	173	483	2.5	478	486	26.5	46.0
2025-07-14T12:40	10	173	0.2	172	173	479	1.3	477	481	26.1	45.2
2025-07-14T12:41	10	173	0.4	172	174	479	1.0	478	482	26.1	44.5
2025-07-14T12:42	10	174	1.4	170	176	483	0.8	482	485	26.2	45.0
2025-07-14T12:43	10	178	0.7	176	179	483	0.6	483	484	26.3	45.0
2025-07-14T12:44	10	180	0.4	179	180	482	0.9	480	484	26.0	44.6
2025-07-14T12:45	10	181	0.6	180	182	482	1.0	480	483	25.9	44.3
2025-07-14T12:46	10	182	0.4	182	183	487	2.2	483	490	26.1	45.0
2025-07-14T12:47	10	183	0.3	182	183	487	2.0	484	490	26.4	45.4
2025-07-14T12:48	10	181	1.1	179	183	487	1.6	485	489	25.9	44.0
2025-07-14T12:49	10	179	0.1	179	180	488	0.8	487	490	26.1	45.4
2025-07-14T12:50	10	181	1.3	179	183	486	1.4	484	488	26.3	46.6
2025-07-14T12:51	10	66	48.6	38	181	474	9.0	463	490	26.5	45.8
2025-07-14T12:52	10	41	2.0	39	47	463	2.5	457	466	26.6	46.5
2025-07-14T12:53	10	99	39.7	48	181	461	4.1	457	471	25.9	45.5
2025-07-14T12:54	10	92	39.6	39	184	468	3.2	461	473	25.9	46.8
2025-07-14T12:55	10	38	1.5	37	43	458	2.2	455	463	26.0	46.3
2025-07-14T12:56	10	47	6.4	42	76	455	0.3	454	456	26.0	46.4
2025-07-14T12:57	10	50	14.5	43	94	454	1.3	452	456	25.9	44.0
2025-07-14T12:58	10	123	65.3	44	197	458	7.8	450	472	25.9	44.2
2025-07-14T12:59	10	188	2.9	179	191	475	4.3	468	481	25.8	43.5
2025-07-14T13:00	10	182	3.2	177	187	481	0.6	480	483	26.1	43.4
2025-07-14T13:01	10	173	1.6	171	176	485	1.9	481	487	26.2	43.3
2025-07-14T13:02	10	170	0.6	169	171	485	0.7	484	487	26.3	42.7
2025-07-14T13:03	10	168	0.2	168	169	487	1.5	482	489	26.5	43.3
2025-07-14T13:04	10	169	0.1	168	169	480	1.7	478	483	26.3	43.8
2025-07-14T13:05	10	168	0.4	167	169	480	0.7	477	480	26.0	44.4
2025-07-14T13:06	10	167	0.4	166	168	480	1.5	478	483	26.0	44.4
2025-07-14T13:07	10	166	0.1	166	166	483	1.2	480	485	26.4	44.1
2025-07-14T13:08	10	166	0.1	166	166	481	1.0	479	483	26.5	43.1
2025-07-14T13:09	10	167	1.0	166	169	481	1.2	479	483	26.4	42.2
2025-07-14T13:10	10	118	59.1	28	169	480	5.7	469	485	26.5	42.6
2025-07-14T13:11	10	123	21.8	79	159	475	1.8	470	479	26.6	42.4
2025-07-14T13:12	10	166	0.6	162	166	481	1.2	479	483	26.6	43.3
2025-07-14T13:13	10	168	0.7	167	169	479	0.5	478	480	26.2	43.3
2025-07-14T13:14	10	169	1.6	162	171	480	1.5	477	483	26.1	43.9
2025-07-14T13:15	10	169	5.3	153	174	480	1.3	479	483	26.4	43.3
2025-07-14T13:16	10	155	19.1	108	178	476	1.6	474	480	26.3	43.0
2025-07-14T13:17	10	175	8.2	153	180	480	1.7	477	482	26.4	43.0
2025-07-14T13:18	10	144	54.7	52	182	479	3.3	471	484	26.3	42.2
2025-07-14T13:19	10	155	40.1	56	183	478	5.3	470	485	26.4	42.7
2025-07-14T13:20	10	175	6.3	156	180	482	1.5	480	485	26.5	41.5
2025-07-14T13:21	10	176	0.4	176	177	486	0.6	485	487	26.5	42.3
2025-07-14T13:22	10	178	1.8	176	182	489	1.3	486	491	26.8	41.4
2025-07-14T13:23	10	110	42.2	66	182	481	6.3	473	491	26.7	41.0
2025-07-14T13:24	10	173	13.2	122	181	479	2.2	474	483	26.6	41.3
2025-07-14T13:25	10	177	1.3	175	179	484	0.9	482	486	26.3	42.3
2025-07-14T13:26	10	180	0.4	179	181	488	1.3	485	490	26.5	42.9
2025-07-14T13:27	10	124	57.9	43	181	485	5.1	474	491	26.7	42.4
2025-07-14T13:28	10	42	2.4	39	50	468	5.9	460	479	26.7	43.7
2025-07-14T13:29	10	40	1.5	39	45	459	1.5	457	462	26.5	44.5
2025-07-14T13:30	10	49	4.4	44	59	459	0.6	458	460	26.6	44.6
2025-07-14T13:31	10	41	1.1	40	44	456	0.8	455	458	26.6	42.6
2025-07-14T13:32	10	44	2.6	40	49	455	0.4	454	455	26.4	42.8
2025-07-14T13:33	10	44	1.4	42	46	453	1.2	451	455	26.3	42.5
2025-07-14T13:34	10	40	0.8	39	42	452	0.6	451	453	26.2	43.5
2025-07-14T13:35	10	39	0.4	39	40	452	0.2	452	453	26.3	43.2
2025-07-14T13:36	10	42	1.3	40	44	452	0.5	451	453	26.3	43.4
2025-07-14T13:37	10	70	26.6	44	119	455	2.7	452	461	26.3	43.7
2025-07-14T13:38	10	88	35.0	59	162	461	1.9	458	465	26.3	43.1
2025-07-14T13:39	10	97	36.1	63	174	464	2.4	461	468	26.2	43.1
2025-07-14T13:40	10	76	12.3	64	103	463	1.1	461	465	26.3	44.2
2025-07-14T13:41	10	91	36.8	64	166	461	3.0	458	469	26.2	44.3
2025-07-14T13:42	10	160	36.4	90	192	473	6.1	464	482	26.2	45.0
2025-07-14T13:43	10	95	55.9	52	193	475	7.0	464	484	26.5	44.6
2025-07-14T13:44	10	51	1.6	48	53	460	3.0	457	467	26.3	42.4
2025-07-14T13:45	10	47	1.1	45	49	456	1.2	453	458	26.2	42.8
2025-07-14T13:46	10	45	2.1	42	51	454	0.5	452	454	26.2	43.4
2025-07-14T13:47	10	40	1.1	38	42	451	0.6	450	453	26.1	43.5
2025-07-14T13:48	10	37	0.4	37	38	451	0.2	450	451	26.1	44.4
2025-07-14T13:49	10	37	0.6	37	39	450	0.2	450	451	26.1	44.8
2025-07-14T13:50	10	41	1.8	39	45	451	0.3	450	451	26.1	44.8
2025-07-14T13:51	10	71	21.2	45	121	453	2.6	450	457	26.1	44.6
2025-07-14T13:52	10	63	3.8	58	73	454	1.3	452	456	26.0	44.3
2025-07-14T13:53	10	54	2.7	50	58	452	0.4	451	453	26.0	44.0
2025-07-14T13:54	10	46	1.8	43	50	451	0.7	450	452	26.0	44.7
2025-07-14T13:55	10	42	0.6	41	43	450	0.2	449	450	26.0	44.6
2025-07-14T13:56	10	42	0.2	42	42	449	0.4	448	449	26.0	44.5
2025-07-14T13:57	10	44	1.0	42	46	448	0.4	447	449	26.0	45.3
2025-07-14T13:58	10	47	0.7	45	48	449	0.3	448	450	26.0	44.4
2025-07-14T13:59	10	46	1.0	44	47	449	0.4	448	450	26.0	44.3
2025-07-14T14:00	10	42	1.6	39	44	449	0.8	447	450	26.0	44.3
2025-07-14T14:01	10	36	1.4	34	39	447	0.4	446	448	26.0	44.0
2025-07-14T14:02	10	33	0.6	32	34	447	0.2	447	448	26.0	43.8
2025-07-14T14:03	10	32	0.1	32	32	447	0.3	447	448	26.0	45.1
2025-07-14T14:04	10	32	0.1	31	32	447	0.2	446	447	26.0	44.3
2025-07-14T14:05	10	31	0.4	30	31	447	0.3	446	447	26.0	45.8
2025-07-14T14:06	10	29	0.5	28	30	446	0.2	446	447	25.9	46.1
2025-07-14T14:07	10	28	0.3	27	28	445	0.4	444	446	26.0	44.8
2025-07-14T14:08	10	27	0.1	27	27	444	0.6	443	445	26.0	44.7
2025-07-14T14:09	10	28	0.2	27	28	444	0.6	443	445	25.9	46.2
2025-07-14T14:10	10	28	0.1	28	28	444	0.2	444	445	26.0	45.0
2025-07-14T14:11	10	27	0.2	27	28	444	0.3	443	445	26.1	45.3
2025-07-14T14:12	10	26	0.3	26	27	443	0.5	441	443	26.0	45.4
2025-07-14T14:13	10	25	0.3	25	26	441	0.7	439	442	26.0	45.0
2025-07-14T14:14	10	25	0.3	24	25	439	1.1	436	440	25.9	45.3
2025-07-14T14:15	10	24	0.2	24	25	435	0.8	433	437	25.6	45.5
2025-07-14T14:16	10	24	0.2	23	24	432	0.6	431	434	25.4	45.7
2025-07-14T14:17	10	23	0.4	22	24	432	0.4	431	432	25.2	47.0
2025-07-14T14:18	10	22	0.1	22	22	431	0.3	431	432	25.1	45.8
2025-07-14T14:19	10	22	0.1	22	22	430	0.2	430	431	25.0	46.9
2025-07-14T14:20	10	23	0.3	22	23	429	0.5	428	430	25.0	46.7
2025-07-14T14:21	10	24	0.8	23	26	430	0.6	429	431	24.8	49.3
2025-07-14T14:22	10	27	4.3	24	41	431	0.7	429	432	24.5	51.9
2025-07-14T14:23	10	25	0.2	24	25	430	0.4	429	432	24.3	55.6
2025-07-14T14:24	10	25	0.1	25	25	430	0.5	429	431	24.1	55.4
2025-07-14T14:25	10	25	0.2	25	25	428	1.0	426	429	23.6	57.0
2025-07-14T14:26	10	26	0.4	25	27	426	0.3	425	427	23.2	58.0
2025-07-14T14:27	10	28	1.1	27	30	426	0.9	425	428	23.0	61.2
2025-07-14T14:28	10	34	2.3	30	38	427	0.7	426	429	23.0	60.3
2025-07-14T14:29	10	79	45.1	38	158	430	3.6	426	438	23.2	54.6
2025-07-14T14:30	10	156	13.9	127	168	442	4.6	433	449	23.4	51.8
2025-07-14T14:31	10	169	2.5	159	172	452	2.5	446	455	23.4	54.9
2025-07-14T14:32	10	74	29.8	55	158	446	5.6	439	455	23.3	54.1
2025-07-14T14:33	10	68	4.1	63	79	441	0.4	440	442	23.1	55.7
2025-07-14T14:34	10	166	22.0	78	176	447	4.5	438	452	23.0	56.5
2025-07-14T14:35	10	173	0.2	173	174	454	2.1	450	457	23.0	56.6
2025-07-14T14:36	10	170	2.4	165	173	455	1.8	453	458	23.1	54.6
2025-07-14T14:37	10	163	0.6	161	164	454	0.5	453	454	23.2	57.0
2025-07-14T14:38	10	161	0.4	160	161	453	1.0	452	455	23.1	55.3
2025-07-14T14:39	10	161	0.3	160	161	453	0.6	452	454	22.9	56.7
2025-07-14T14:40	10	153	5.3	144	161	453	0.4	452	453	22.8	57.3
2025-07-14T14:41	10	153	1.5	150	156	452	0.3	452	453	22.8	57.4
2025-07-14T14:42	10	59	30.8	37	151	446	5.7	437	456	23.0	56.8
2025-07-14T14:43	10	130	37.4	39	151	444	4.4	437	449	22.9	57.3
2025-07-14T14:44	10	153	0.6	151	154	449	0.6	448	450	23.0	58.7
2025-07-14T14:45	10	153	0.7	151	154	451	0.5	449	452	23.1	56.9
2025-07-14T14:46	10	149	2.9	145	154	450	0.8	449	451	23.2	56.9
2025-07-14T14:47	10	154	1.5	150	156	451	1.0	450	453	23.1	56.9
2025-07-14T14:48	10	140	6.4	130	150	453	0.4	452	454	23.2	56.7
2025-07-14T14:49	10	150	2.4	142	152	457	1.8	453	459	23.4	58.2
2025-07-14T14:50	10	89	49.6	38	152	455	5.6	445	461	23.6	57.2
2025-07-14T14:51	10	40	7.5	33	57	444	2.1	440	448	23.6	55.4
2025-07-14T14:52	10	32	0.4	31	33	439	1.2	438	442	23.8	56.6
2025-07-14T14:53	10	32	0.2	31	32	438	0.5	437	439	23.8	55.8
2025-07-14T14:54	10	33	0.9	32	35	437	0.5	436	438	23.8	53.1
2025-07-14T14:55	10	37	1.1	35	39	437	0.2	436	437	23.9	52.8
2025-07-14T14:56	10	41	1.5	38	44	437	0.3	436	437	23.8	53.2
2025-07-14T14:57	10	49	3.0	44	54	438	0.5	437	439	23.7	53.8
2025-07-14T14:58	10	57	1.4	54	59	440	1.0	438	441	23.8	52.8
2025-07-14T14:59	10	57	0.3	56	57	441	0.4	440	442	24.0	52.4
2025-07-14T15:00	10	80	31.0	56	134	443	2.8	440	449	24.1	54.0
2025-07-14T15:01	10	120	14.5	91	142	451	2.6	447	456	24.0	56.8
2025-07-14T15:02	10	149	4.0	141	157	458	2.0	454	461	24.1	54.2
2025-07-14T15:03	10	152	2.3	144	156	462	1.0	460	463	24.2	56.0
2025-07-14T15:04	10	138	5.4	129	146	463	0.3	462	464	24.5	55.5
2025-07-14T15:05	10	150	6.6	140	160	464	0.7	462	465	24.6	55.0
2025-07-14T15:06	10	150	4.6	141	156	463	0.3	463	464	24.5	52.0
2025-07-14T15:07	10	138	5.1	132	145	463	0.6	462	464	24.5	53.4
2025-07-14T15:08	10	129	5.0	120	134	463	0.6	461	464	24.7	53.8
2025-07-14T15:09	10	133	5.4	125	143	464	0.6	462	464	24.8	51.9
2025-07-14T15:10	10	151	2.4	144	154	466	1.1	464	468	24.8	52.7
2025-07-14T15:11	10	152	2.5	148	156	469	0.5	468	470	25.1	51.5
2025-07-14T15:12	10	156	1.2	155	159	469	0.4	469	470	25.3	47.0
2025-07-14T15:13	10	159	1.1	157	160	469	0.4	468	470	25.3	53.0
2025-07-14T15:14	10	149	15.1	107	161	470	1.1	468	472	25.3	49.1
2025-07-14T15:15	10	161	1.8	155	163	471	0.8	469	472	25.6	46.2
2025-07-14T15:16	10	83	43.1	48	162	465	6.0	456	474	25.8	45.9
2025-07-14T15:17	10	48	0.4	47	49	456	2.0	453	460	25.8	49.0
2025-07-14T15:18	10	50	0.9	48	52	453	1.0	452	456	25.7	46.3
2025-07-14T15:19	10	60	7.6	52	78	452	0.3	452	453	25.7	44.6
2025-07-14T15:20	10	64	9.0	55	87	453	0.5	451	454	25.6	48.1
2025-07-14T15:21	10	108	40.7	60	156	457	4.4	452	465	25.7	49.3
2025-07-14T15:22	10	160	2.4	154	162	467	2.4	463	471	25.8	50.6
2025-07-14T15:23	10	142	23.8	103	163	469	1.9	465	471	26.0	50.6
2025-07-14T15:24	10	154	11.7	100	163	470	1.5	467	472	25.9	48.5
2025-07-14T15:25	10	64	4.6	62	90	464	3.8	459	472	26.0	48.4
2025-07-14T15:26	10	64	1.1	63	67	459	0.6	458	460	26.1	48.3
2025-07-14T15:27	10	115	31.4	67	154	464	3.7	457	468	25.9	48.0
2025-07-14T15:28	10	117	26.2	74	146	465	2.5	462	469	25.9	49.2
2025-07-14T15:29	10	108	33.8	60	141	468	2.6	461	470	26.0	49.3
2025-07-14T15:30	10	68	11.5	56	96	462	1.2	459	464	26.1	48.2
2025-07-14T15:31	10	54	1.4	51	56	458	1.2	456	461	26.1	46.2
2025-07-14T15:32	10	50	1.0	47	51	456	0.5	455	458	26.2	45.3
2025-07-14T15:33	10	44	1.3	42	47	455	0.7	454	456	26.3	45.6
2025-07-14T15:34	10	41	0.9	39	42	454	0.6	452	455	26.3	47.4
2025-07-14T15:35	10	38	0.8	37	40	452	0.6	450	453	26.1	51.2
2025-07-14T15:36	10	42	3.7	37	50	451	0.4	451	452	25.8	52.7
2025-07-14T15:37	10	52	7.0	39	61	452	0.7	451	453	25.7	54.2
2025-07-14T15:38	10	33	3.9	27	39	449	1.1	447	451	25.5	53.9
2025-07-14T15:39	10	27	0.5	26	27	447	0.5	446	448	25.3	54.5
2025-07-14T15:40	10	25	0.2	25	26	447	0.6	445	448	25.4	53.7
2025-07-14T15:41	10	30	2.8	25	35	447	0.4	446	448	26.0	47.0
2025-07-14T15:42	10	25	0.1	25	25	445	0.8	443	446	26.5	42.9
2025-07-14T15:43	10	26	0.2	25	26	443	0.4	442	444	26.5	43.2
2025-07-14T15:44	10	26	0.1	26	26	443	0.2	443	444	26.5	42.8
2025-07-14T15:45	10	26	0.1	26	26	443	0.3	442	444	26.5	43.0
2025-07-14T15:46	10	26	0.1	26	26	443	0.2	443	444	26.5	43.7
2025-07-14T15:47	10	27	0.2	26	27	443	0.2	443	444	26.4	43.8
2025-07-14T15:48	10	27	0.1	27	27	443	0.4	442	444	26.4	43.3
2025-07-14T15:49	10	27	0.2	27	28	443	0.3	442	443	26.4	43.6
2025-07-14T15:50	10	28	0.1	28	28	443	0.3	443	444	26.4	44.3
2025-07-14T15:51	10	28	0.1	28	28	444	0.3	443	444	26.4	44.0
2025-07-14T15:52	10	28	0.2	28	29	444	0.3	443	444	26.4	44.0
2025-07-14T15:53	10	29	0.3	29	30	443	0.2	443	444	26.4	44.1
2025-07-14T15:54	10	31	0.6	30	31	443	0.3	442	443	26.4	43.8
2025-07-14T15:55	10	33	0.7	32	34	443	0.2	443	443	26.4	43.8
2025-07-14T15:56	10	35	0.9	34	37	443	0.2	442	443	26.4	43.1
2025-07-14T15:57	10	37	0.3	37	38	443	0.2	442	443	26.4	42.9
2025-07-14T15:58	10	39	0.6	38	40	443	0.4	442	444	26.4	43.4
2025-07-14T15:59	10	40	0.3	40	41	444	0.3	443	445	26.4	43.1
2025-07-14T16:00	10	41	0.5	40	42	444	0.3	443	445	26.4	43.1
2025-07-14T16:01	10	43	0.6	42	44	444	0.2	444	445	26.4	43.0
2025-07-14T16:02	10	45	0.6	44	46	445	0.3	444	445	26.4	43.3
2025-07-14T16:03	10	46	0.2	46	46	445	0.4	444	446	26.4	43.3
2025-07-14T16:04	10	47	0.3	46	47	446	0.4	445	447	26.4	43.8
2025-07-14T16:05	10	48	0.4	47	49	447	0.4	446	447	26.4	44.1
2025-07-14T16:06	10	49	0.5	49	50	447	0.3	446	448	26.4	43.8
2025-07-14T16:07	10	50	0.2	50	50	447	0.3	447	448	26.5	43.9
2025-07-14T16:08	10	51	0.4	50	52	447	0.2	447	448	26.5	43.9
2025-07-14T16:09	10	52	0.2	52	52	447	0.4	446	448	26.5	42.9
2025-07-14T16:10	10	51	0.2	51	52	447	0.4	446	448	26.5	43.0
2025-07-14T16:11	10	52	0.2	51	52	446	0.3	446	447	26.5	42.8
2025-07-14T16:12	10	52	0.1	52	52	446	0.4	446	447	26.5	43.5
2025-07-14T16:13	10	52	0.1	52	52	447	0.4	446	448	26.5	44.1
2025-07-14T16:14	10	53	0.8	52	54	448	0.6	446	448	26.5	44.2
2025-07-14T16:15	10	56	1.7	54	59	448	0.3	448	449	26.5	44.5
2025-07-14T16:16	10	62	2.5	59	68	449	0.7	448	450	26.5	43.6
2025-07-14T16:17	10	72	2.7	68	78	451	0.8	449	452	26.6	44.5
2025-07-14T16:18	10	100	10.3	79	114	454	1.8	451	457	26.6	43.9
2025-07-14T16:19	10	122	4.9	114	130	457	0.9	456	459	26.6	43.3
2025-07-14T16:20	10	133	1.2	130	135	461	1.8	458	465	26.7	43.8
2025-07-14T16:21	10	133	0.5	133	135	464	0.7	463	466	26.8	43.9
2025-07-14T16:22	10	136	0.4	135	137	466	0.3	465	467	27.0	44.8
2025-07-14T16:23	10	135	0.6	134	136	467	0.5	466	468	27.2	43.5
2025-07-14T16:24	10	132	0.8	131	134	466	0.6	465	467	27.1	43.4
2025-07-14T16:25	10	129	1.1	127	131	467	0.5	465	468	27.2	43.9
2025-07-14T16:26	10	125	1.0	123	127	468	1.7	464	469	27.4	43.2
2025-07-14T16:27	10	122	1.1	120	124	464	0.3	463	464	27.4	42.3
2025-07-14T16:28	10	118	1.6	115	120	462	1.6	459	465	27.3	42.2
2025-07-14T16:29	10	112	1.7	109	115	459	1.1	458	461	27.2	42.5
2025-07-14T16:30	10	111	2.1	105	113	460	1.1	457	461	27.2	42.3
2025-07-14T16:31	10	99	2.0	96	104	457	0.8	456	459	27.2	41.8
2025-07-14T16:32	10	102	2.3	98	105	457	0.4	456	457	27.1	41.4
2025-07-14T16:33	10	101	1.4	99	103	457	0.4	455	457	27.1	42.0
2025-07-14T16:34	10	96	0.9	95	99	455	0.5	454	455	27.1	41.0
2025-07-14T16:35	10	97	0.4	96	98	455	0.6	454	456	27.1	41.0
2025-07-14T16:36	10	95	1.0	94	97	455	0.4	454	456	27.1	40.8
2025-07-14T16:37	10	94	0.6	92	95	454	0.5	453	456	27.1	40.8
2025-07-14T16:38	10	90	1.1	88	92	454	0.4	454	455	27.1	41.1
2025-07-14T16:39	10	89	1.2	88	92	454	0.4	454	455	27.2	41.4
2025-07-14T16:40	10	91	0.9	89	92	454	0.7	453	456	27.1	41.8
2025-07-14T16:41	10	83	4.3	73	89	456	0.4	455	456	27.4	42.0
2025-07-14T16:42	10	74	3.1	69	79	453	0.6	452	455	27.3	41.0
2025-07-14T16:43	10	84	2.3	80	87	453	0.3	453	454	27.2	41.2
2025-07-14T16:44	10	84	0.4	84	85	452	0.3	452	453	27.1	41.2
2025-07-14T16:45	10	86	0.7	85	87	453	0.8	452	454	27.1	41.7
2025-07-14T16:46	10	89	1.3	87	91	454	0.3	453	455	27.1	41.9
2025-07-14T16:47	10	92	0.5	91	93	455	1.1	454	457	27.2	41.9
2025-07-14T16:48	10	94	0.4	93	95	457	0.5	456	458	27.3	41.9
2025-07-14T16:49	10	95	0.1	95	95	456	0.4	455	457	27.2	41.7
2025-07-14T16:50	10	95	0.2	95	95	457	0.5	456	458	27.2	41.2
2025-07-14T16:51	10	94	0.7	93	95	454	1.5	452	457	26.8	41.3
2025-07-14T16:52	10	92	0.7	90	93	452	0.4	451	453	26.7	42.0
2025-07-14T16:53	10	89	0.7	88	91	452	0.4	451	453	26.6	41.6
2025-07-14T16:54	10	87	0.6	86	88	452	0.4	451	452	26.6	41.7
2025-07-14T16:55	10	86	0.5	85	87	452	0.4	451	452	26.7	41.9
2025-07-14T16:56	10	84	0.3	84	85	452	0.4	451	453	26.6	42.5
2025-07-14T16:57	10	83	0.2	83	84	453	0.3	452	454	26.8	43.0
2025-07-14T16:58	10	83	0.3	82	83	452	0.3	452	453	26.8	43.0
2025-07-14T16:59	10	82	0.4	81	82	452	0.3	451	453	26.7	43.4
2025-07-14T17:00	10	81	0.2	80	81	453	0.3	452	453	26.8	43.7
2025-07-14T17:01	10	80	0.3	79	80	452	0.4	451	453	26.8	43.7
2025-07-14T17:02	10	79	0.3	78	80	453	0.2	452	454	26.8	43.9
2025-07-14T17:03	10	78	0.3	77	79	452	0.6	450	453	26.6	43.8
2025-07-14T17:04	10	77	0.3	76	78	450	0.4	449	451	26.5	43.5
2025-07-14T17:05	10	76	0.4	76	77	449	0.4	448	450	26.5	43.5
2025-07-14T17:06	10	76	0.2	75	76	449	0.3	448	450	26.5	43.5
2025-07-14T17:07	10	75	0.2	75	76	449	0.3	448	450	26.5	44.0
2025-07-14T17:08	10	75	0.4	74	76	449	0.3	448	450	26.5	44.0
2025-07-14T17:09	10	74	0.3	73	75	449	0.5	448	451	26.5	44.0
2025-07-14T17:10	10	73	0.3	73	74	448	0.4	447	449	26.4	43.5
2025-07-14T17:11	10	73	0.3	72	73	448	0.3	448	449	26.4	44.2
2025-07-14T17:12	10	72	0.3	71	73	448	0.4	447	449	26.4	44.5
2025-07-14T17:13	10	71	0.3	71	72	449	0.4	448	449	26.4	44.4
2025-07-14T17:14	10	71	0.3	70	71	448	0.4	447	449	26.4	44.5
2025-07-14T17:15	10	70	0.3	70	71	448	0.6	447	449	26.5	44.4
2025-07-14T17:16	10	70	0.2	69	70	447	0.4	447	448	26.4	44.6
2025-07-14T17:17	10	69	0.2	69	69	448	0.3	447	449	26.4	44.6
2025-07-14T17:18	10	69	0.2	68	69	448	0.4	447	448	26.4	44.4
2025-07-14T17:19	10	68	0.2	68	69	447	0.2	447	448	26.4	44.2
2025-07-14T17:20	10	68	0.3	67	69	447	0.3	446	447	26.3	44.1
2025-07-14T17:21	10	67	0.3	66	67	447	0.2	446	447	26.4	44.4
2025-07-14T17:22	10	66	0.3	65	67	447	0.3	446	448	26.4	44.2
2025-07-14T17:23	10	66	0.2	65	66	447	0.3	446	448	26.5	44.4
2025-07-14T17:24	10	65	0.1	65	65	446	0.2	446	447	26.4	43.4
2025-07-14T17:25	10	65	0.2	64	65	446	0.3	445	446	26.4	43.6
2025-07-14T17:26	10	64	0.2	63	64	446	0.2	445	447	26.4	44.2
2025-07-14T17:27	10	63	0.3	63	64	446	0.3	446	447	26.4	44.6
2025-07-14T17:28	10	63	0.1	63	63	447	0.2	446	447	26.5	45.4
2025-07-14T17:29	10	62	0.2	62	63	447	0.2	446	447	26.6	44.1
2025-07-14T17:30	10	62	0.3	61	62	446	0.2	446	447	26.5	44.5
2025-07-14T17:31	10	61	0.3	60	61	446	0.3	446	447	26.5	44.5
2025-07-14T17:32	10	60	0.3	59	60	445	0.4	445	446	26.4	44.5
2025-07-14T17:33	10	59	0.4	58	59	445	0.2	444	445	26.4	44.7
2025-07-14T17:34	10	58	0.2	57	58	445	0.3	445	446	26.4	44.8
2025-07-14T17:35	10	57	0.1	57	57	445	0.2	444	445	26.4	43.6
2025-07-14T17:36	10	57	0.2	57	57	445	0.3	444	445	26.4	43.7
2025-07-14T17:37	10	56	1.3	52	57	445	0.3	444	446	26.5	44.1
2025-07-14T17:38	10	43	3.1	40	51	444	0.7	443	445	26.5	44.4
2025-07-14T17:39	10	46	2.1	43	51	443	0.3	443	444	26.5	44.6
2025-07-14T17:40	10	51	2.0	45	53	444	0.3	444	445	26.5	44.8
2025-07-14T17:41	10	41	4.2	35	48	443	0.6	442	445	26.5	44.9
2025-07-14T17:42	10	51	1.4	48	52	443	0.2	442	443	26.4	45.2
2025-07-14T17:43	10	52	0.2	51	52	443	0.2	443	444	26.4	45.7
2025-07-14T17:44	10	51	0.2	51	51	443	0.3	442	443	26.4	45.6
2025-07-14T17:45	10	50	0.2	50	51	443	0.2	442	443	26.4	45.7
2025-07-14T17:46	10	50	0.1	49	50	443	0.3	442	444	26.4	46.0
2025-07-14T17:47	10	49	0.2	49	49	443	0.3	443	444	26.5	46.2
2025-07-14T17:48	10	48	0.2	48	49	443	0.3	442	443	26.4	45.5
2025-07-14T17:49	10	48	0.2	47	48	442	0.4	441	443	26.4	44.0
2025-07-14T17:50	10	47	0.1	47	48	442	0.2	442	443	26.4	45.1
2025-07-14T17:51	10	47	0.3	46	47	442	0.4	441	443	26.4	44.0
2025-07-14T17:52	10	46	0.3	45	46	441	0.3	440	441	26.4	43.2
2025-07-14T17:53	10	45	0.2	44	45	440	0.2	440	441	26.4	43.1
2025-07-14T17:54	10	44	0.1	44	45	440	0.3	439	441	26.4	43.4
2025-07-14T17:55	10	44	0.3	43	44	440	0.2	439	440	26.3	44.3
2025-07-14T17:56	10	43	0.1	43	43	440	0.2	439	440	26.3	44.4
2025-07-14T17:57	10	42	0.2	42	43	440	0.2	439	440	26.3	44.1
2025-07-14T17:58	10	42	0.2	42	42	439	0.2	439	440	26.3	44.7
2025-07-14T17:59	10	41	0.2	41	42	439	0.3	438	439	26.3	43.8
2025-07-14T18:00	10	41	0.2	40	41	438	0.2	438	439	26.2	43.8
2025-07-14T18:01	10	40	0.2	40	41	438	0.3	438	439	26.3	42.9
2025-07-14T18:02	10	40	0.2	39	40	438	0.2	438	438	26.3	43.9
2025-07-14T18:03	10	39	0.1	39	39	438	0.3	437	438	26.3	42.9
2025-07-14T18:04	10	39	0.2	38	39	438	0.2	437	438	26.3	42.8
2025-07-14T18:05	10	38	0.2	37	38	437	0.2	437	438	26.2	43.5
2025-07-14T18:06	10	37	0.2	37	38	437	0.2	437	438	26.2	43.7
2025-07-14T18:07	10	36	0.1	36	37	437	0.2	437	438	26.2	42.5
2025-07-14T18:08	10	36	0.2	36	36	437	0.2	437	437	26.2	41.5
2025-07-14T18:09	10	35	0.2	35	36	436	0.2	436	437	26.2	42.3
2025-07-14T18:10	10	35	0.2	34	35	436	0.2	436	437	26.1	42.9
2025-07-14T18:11	10	34	0.4	33	34	436	0.2	435	436	26.1	42.5
2025-07-14T18:12	10	29	4.8	17	33	436	0.3	435	436	26.1	42.6
2025-07-14T18:13	10	10	2.0	8	17	434	0.8	433	436	26.1	42.9
2025-07-14T18:14	10	8	0.1	8	8	433	0.4	432	434	26.0	42.6
2025-07-14T18:15	10	16	6.9	8	29	432	0.5	431	433	26.0	42.9
2025-07-14T18:16	10	29	0.2	29	30	433	0.4	432	433	26.0	42.8
2025-07-14T18:17	10	29	0.2	29	30	433	0.2	433	434	25.9	42.7
2025-07-14T18:18	10	29	0.1	29	29	433	0.3	432	434	25.9	42.8
2025-07-14T18:19	10	28	0.2	28	29	433	0.2	433	434	26.0	42.3
2025-07-14T18:20	10	28	0.2	27	28	433	0.3	432	433	26.0	42.4
2025-07-14T18:21	10	27	0.1	27	28	433	0.2	432	433	26.0	42.1
2025-07-14T18:22	10	27	0.1	27	27	433	0.2	432	433	25.9	42.7
2025-07-14T18:23	10	27	0.1	26	27	432	0.2	432	433	25.9	42.4
2025-07-14T18:24	10	26	0.2	26	26	432	0.3	431	432	25.9	42.3
2025-07-14T18:25	10	26	0.2	25	26	432	0.2	432	432	25.9	42.6
2025-07-14T18:26	10	25	0.2	24	25	432	0.3	431	432	25.9	42.5
2025-07-14T18:27	10	24	0.2	24	25	431	0.2	431	432	25.9	42.5
2025-07-14T18:28	10	24	0.2	23	24	431	0.2	431	432	25.8	42.8
2025-07-14T18:29	10	23	0.2	23	23	431	0.3	430	432	25.8	42.8
2025-07-14T18:30	10	21	1.2	19	23	431	0.2	430	431	25.8	42.6
2025-07-14T18:31	10	17	1.1	15	19	430	0.3	429	431	25.8	43.0
2025-07-14T18:32	10	17	1.0	15	19	429	0.1	429	430	25.7	43.3
2025-07-14T18:33	10	16	1.8	13	18	429	0.4	428	430	25.6	43.8
2025-07-14T18:34	10	11	0.7	10	13	428	0.3	428	429	25.6	43.4
2025-07-14T18:35	10	15	1.8	11	17	428	0.2	427	428	25.5	44.0
2025-07-14T18:36	10	18	0.4	17	19	428	0.2	427	428	25.5	44.2
2025-07-14T18:37	10	18	0.3	18	19	428	0.3	427	428	25.5	44.4
2025-07-14T18:38	10	18	0.2	17	18	428	0.3	427	428	25.4	44.3
2025-07-14T18:39	10	17	0.2	17	18	427	0.3	426	428	25.5	44.2
2025-07-14T18:40	10	17	0.2	16	18	427	0.3	426	427	25.4	45.2
2025-07-14T18:41	10	16	0.5	15	17	426	0.3	426	427	25.3	45.8
2025-07-14T18:42	10	13	1.3	11	15	426	0.3	425	427	25.2	45.5
2025-07-14T18:43	10	9	0.8	8	11	425	0.3	425	426	25.2	46.1
2025-07-14T18:44	10	9	0.3	8	9	424	0.4	423	425	25.1	46.1
2025-07-14T18:45	10	10	0.3	9	11	424	0.3	423	424	25.0	47.3
2025-07-14T18:46	10	10	0.2	10	11	423	0.4	422	424	24.9	48.0
2025-07-14T18:47	10	10	0.2	10	11	423	0.4	422	424	24.9	48.1
2025-07-14T18:48	10	11	0.3	10	12	423	0.2	422	423	24.8	48.2
2025-07-14T18:49	10	11	0.2	11	12	422	0.3	422	423	24.8	48.7
2025-07-14T18:50	10	11	0.2	11	12	422	0.3	422	423	24.8	48.5
2025-07-14T18:51	10	11	0.2	11	12	423	0.3	422	423	24.8	47.9
2025-07-14T18:52	10	11	0.2	10	11	423	0.2	422	423	24.9	47.3
2025-07-14T18:53	10	10	0.3	10	11	422	0.2	422	423	24.9	47.5
2025-07-14T18:54	10	9	0.3	8	10	422	0.2	421	422	24.9	47.3
2025-07-14T18:55	10	8	0.2	8	9	421	0.2	421	422	24.9	47.7
2025-07-14T18:56	10	8	0.3	7	9	421	0.4	420	422	24.9	47.5
2025-07-14T18:57	10	7	0.3	6	8	420	0.3	419	421	24.8	49.1
2025-07-14T18:58	10	6	0.3	6	7	420	0.3	419	421	24.6	49.4
2025-07-14T18:59	10	6	0.2	5	6	419	0.4	418	420	24.5	50.6
2025-07-14T19:00	10	5	0.1	5	6	420	0.5	419	420	24.4	50.0
2025-07-14T19:01	10	5	0.2	5	6	419	0.2	419	420	24.7	47.6
2025-07-14T19:02	10	5	0.2	4	5	419	0.2	418	419	24.7	47.9
2025-07-14T19:03	10	4	0.2	4	4	419	0.3	418	419	24.7	48.2
2025-07-14T19:04	10	3	0.2	3	4	418	0.3	418	419	24.6	48.1
2025-07-14T19:05	10	3	0.1	3	3	418	0.4	417	419	24.6	47.9
2025-07-14T19:06	10	3	0.1	3	3	417	0.2	417	418	24.5	49.1
2025-07-14T19:07	10	3	0.1	3	3	417	0.3	416	418	24.4	48.7
2025-07-14T19:08	10	3	0.1	3	3	417	0.3	417	418	24.4	48.9
2025-07-14T19:09	10	3	0.1	2	3	417	0.2	417	418	24.4	48.6
2025-07-14T19:10	10	2	0.1	2	3	417	0.5	416	418	24.3	48.2
2025-07-14T19:11	10	2	0.1	2	3	417	0.3	416	417	24.3	47.7
2025-07-14T19:12	10	2	0.1	2	2	416	0.2	416	417	24.4	47.6
2025-07-14T19:13	10	2	0.1	2	2	417	0.3	416	418	24.6	45.0
2025-07-14T19:14	10	2	0.1	2	2	417	0.3	416	418	24.7	45.4
2025-07-14T19:15	10	2	0.1	1	2	418	0.6	416	419	24.9	43.5
2025-07-14T19:16	10	2	0.1	1	2	416	0.7	415	418	24.8	45.6
2025-07-14T19:17	10	2	0.1	1	2	417	0.2	416	417	24.3	48.1
2025-07-14T19:18	10	2	0.1	1	2	417	0.2	416	417	24.3	47.1
2025-07-14T19:19	10	1	0.1	1	2	416	0.5	416	417	24.3	47.0
2025-07-14T19:20	10	1	0.1	1	2	417	0.4	416	418	24.4	45.8
2025-07-14T19:21	10	1	0.1	1	2	417	0.5	416	418	24.4	46.5
2025-07-14T19:22	10	1	0.1	1	1	416	0.4	415	417	24.1	48.4
2025-07-14T19:23	10	1	0.2	1	2	416	0.2	415	416	23.9	50.1
2025-07-14T19:24	10	1	0.1	1	1	415	0.4	415	416	23.9	49.1
2025-07-14T19:25	10	1	0.2	1	1	415	0.3	415	416	24.1	47.6
2025-07-14T19:26	10	1	0.1	1	1	414	0.5	414	415	24.0	48.7
2025-07-14T19:27	10	1	0.1	1	1	414	0.4	414	415	23.8	49.3
2025-07-14T19:28	10	1	0.1	0	1	415	0.3	414	416	23.9	48.7
2025-07-14T19:29	10	1	0.1	0	1	414	0.2	414	415	23.9	48.5
2025-07-14T19:30	10	1	0.1	0	1	414	0.2	414	415	23.8	49.0
2025-07-14T19:31	10	1	0.1	0	1	414	0.9	413	416	23.5	51.5
2025-07-14T19:32	10	0	0.1	0	1	415	0.5	414	416	23.7	48.6
2025-07-14T19:33	10	0	0.1	0	1	416	0.4	415	417	24.1	46.2
2025-07-14T19:34	10	0	0.1	0	0	417	0.3	416	418	24.3	46.0
2025-07-14T19:35	10	0	0.1	0	1	417	0.2	416	418	24.3	45.9
2025-07-14T19:36	10	0	0.1	0	1	418	0.3	417	418	24.3	46.0
2025-07-14T19:37	10	0	0.1	0	1	418	0.3	417	418	24.4	45.9
2025-07-14T19:38	10	0	0.1	0	1	417	0.4	416	418	24.2	47.3
2025-07-14T19:39	10	0	0.1	0	1	417	0.2	416	418	23.9	48.8
2025-07-14T19:40	10	0	0.1	0	0	417	0.3	416	418	24.1	46.9
2025-07-14T19:41	10	0	0.1	0	0	417	0.4	416	418	24.3	45.8
2025-07-14T19:42	10	0	0.1	0	1	417	0.4	416	418	24.5	45.3
2025-07-14T19:43	10	0	0.1	0	1	417	0.6	416	418	24.5	45.7
2025-07-14T19:44	10	0	0.1	0	1	417	0.4	416	418	24.7	44.4
2025-07-14T19:45	10	0	0.1	0	0	416	0.5	415	417	24.6	45.2
2025-07-14T19:46	10	0	0.1	0	1	415	0.2	415	416	24.3	46.6
2025-07-14T19:47	10	0	0.1	0	1	416	0.5	415	417	24.4	46.1
2025-07-14T19:48	10	0	0.1	0	0	417	0.4	416	417	24.5	45.1
2025-07-14T19:49	10	0	0.1	0	1	416	0.4	415	417	24.6	45.0
2025-07-14T19:50	10	0	0.1	0	1	415	0.5	414	417	24.3	46.9
2025-07-14T19:51	10	0	0.1	0	1	416	0.6	415	417	24.3	46.2
2025-07-14T19:52	10	0	0.2	0	1	417	0.3	416	417	24.6	44.7
2025-07-14T19:53	10	0	0.2	0	0	416	0.2	416	417	24.5	45.3
2025-07-14T19:54	10	0	0.2	0	1	416	0.5	415	417	24.3	46.5
2025-07-14T19:55	10	0	0.2	0	1	416	0.8	414	417	24.2	46.3
2025-07-14T19:56	10	0	0.2	0	1	416	0.3	415	417	24.3	46.3
2025-07-14T19:57	10	0	0.1	0	1	416	0.5	415	417	24.3	46.0
2025-07-14T19:58	10	0	0.2	0	1	415	0.5	414	416	24.0	47.9
2025-07-14T19:59	10	0	0.2	0	1	416	0.6	415	417	23.9	47.9
2025-07-14T20:00	10	0	0.1	0	0	416	0.3	415	417	24.0	47.4
2025-07-14T20:01	10	0	0.1	0	0	416	0.5	415	417	24.0	47.5
2025-07-14T20:02	10	0	0.1	0	0	415	0.6	413	416	24.0	47.4
2025-07-14T20:03	10	0	0.1	0	0	413	0.4	412	414	23.5	50.1
2025-07-14T20:04	10	0	0.1	0	0	414	0.6	412	415	23.4	50.2
2025-07-14T20:05	10	0	0.1	0	0	415	0.6	414	416	23.8	48.0
2025-07-14T20:06	10	0	0.1	0	0	415	0.3	414	415	24.0	46.8
2025-07-14T20:07	10	0	0.1	0	0	415	0.7	414	417	24.1	46.5
2025-07-14T20:08	10	0	0.1	0	0	416	0.4	415	417	24.3	45.8
2025-07-14T20:09	10	0	0.0	0	0	416	0.6	415	417	24.5	44.7
2025-07-14T20:10	10	0	0.0	0	0	414	0.5	413	415	24.2	46.7
2025-07-14T20:11	10	0	0.1	0	0	413	0.4	413	414	23.6	49.0
2025-07-14T20:12	10	0	0.1	0	0	414	0.7	412	415	23.9	47.0
2025-07-14T20:13	10	0	0.1	0	0	414	0.4	413	414	24.0	47.2
2025-07-14T20:14	10	0	0.1	0	0	413	0.4	412	414	24.0	46.5
2025-07-14T20:15	10	0	0.1	0	0	411	0.5	411	413	23.7	48.8
2025-07-14T20:16	10	0	0.1	0	0	412	0.3	412	413	23.8	47.4
2025-07-14T20:17	10	0	0.1	0	0	412	0.3	411	412	23.9	47.2
2025-07-14T20:18	10	0	0.1	0	0	411	0.8	410	412	23.8	47.7
2025-07-14T20:19	10	0	0.1	0	0	411	0.3	410	411	23.5	48.8
2025-07-14T20:20	10	0	0.1	0	0	411	0.2	410	411	23.7	47.9
2025-07-14T20:21	10	0	0.1	0	0	411	0.5	410	411	23.8	47.3
2025-07-14T20:22	10	0	0.1	0	0	410	0.3	409	411	23.9	46.8
2025-07-14T20:23	10	0	0.1	0	0	411	0.7	409	412	23.8	47.2
2025-07-14T20:24	10	0	0.1	0	0	411	0.4	410	412	24.1	46.1
2025-07-14T20:25	10	0	0.1	0	1	409	0.9	407	411	23.6	50.0
2025-07-14T20:26	10	0	0.1	0	0	409	0.4	408	410	22.6	55.3
2025-07-14T20:27	10	0	0.1	0	0	409	0.4	409	410	22.9	51.5
2025-07-14T20:28	10	0	0.1	0	0	409	0.3	408	409	23.1	51.3
2025-07-14T20:29	10	0	0.1	0	0	408	0.3	407	409	23.0	52.0
2025-07-14T20:30	10	0	0.1	0	0	408	0.3	407	409	23.0	51.0
2025-07-14T20:31	10	0	0.1	0	0	407	0.3	407	408	23.1	51.2
2025-07-14T20:32	10	0	0.1	0	0	407	0.2	407	408	22.9	53.0
2025-07-14T20:33	10	0	0.1	0	0	407	0.2	406	407	23.0	51.7
2025-07-14T20:34	10	0	0.1	0	0	406	0.3	406	407	23.0	52.1
2025-07-14T20:35	10	0	0.1	0	0	405	0.2	405	406	22.7	54.3
2025-07-14T20:36	10	0	0.1	0	0	405	0.3	404	406	22.5	55.7
2025-07-14T20:37	10	0	0.1	0	0	405	0.5	404	406	22.4	55.3
2025-07-14T20:38	10	0	0.1	0	0	405	0.4	405	406	22.7	53.1
2025-07-14T20:39	10	0	0.1	0	0	406	1.1	405	408	22.5	54.5
2025-07-14T20:40	10	0	0.1	0	0	407	0.8	405	408	23.1	50.7
2025-07-14T20:41	10	0	0.1	0	0	407	1.0	405	409	23.3	49.9
2025-07-14T20:42	10	0	0.1	0	0	406	1.0	405	408	23.3	50.6
2025-07-14T20:43	10	0	0.1	0	0	405	0.3	405	406	22.9	53.4
2025-07-14T20:44	10	0	0.1	0	0	405	0.2	405	405	22.6	55.1
2025-07-14T20:45	10	0	0.1	0	0	405	0.4	405	406	22.3	56.2
2025-07-14T20:46	10	0	0.1	0	0	405	0.4	404	405	22.3	55.6
2025-07-14T20:47	10	0	0.1	0	0	404	0.2	404	404	22.0	57.4
2025-07-14T20:48	10	0	0.1	0	0	404	0.4	403	405	21.5	60.3
2025-07-14T20:49	10	0	0.1	0	0	404	0.4	404	405	21.5	60.0
2025-07-14T20:50	10	0	0.1	0	0	404	0.3	404	405	21.5	59.6
2025-07-14T20:51	10	0	0.1	0	0	404	0.3	404	405	21.5	58.9
2025-07-14T20:52	10	0	0.1	0	0	404	0.4	404	405	21.5	59.2
2025-07-14T20:53	10	0	0.1	0	0	405	0.6	404	406	21.6	58.3
2025-07-14T20:54	10	0	0.1	0	1	405	0.2	405	406	21.7	57.4
2025-07-14T20:55	10	0	0.1	0	0	405	0.3	404	406	21.6	59.1
2025-07-14T20:56	10	0	0.2	0	1	405	0.4	405	406	21.4	60.1
2025-07-14T20:57	10	0	0.2	0	0	406	0.2	405	406	21.3	60.3
2025-07-14T20:58	10	0	0.2	0	1	406	0.5	405	407	21.0	61.8
2025-07-14T20:59	10	0	0.1	0	0	407	0.3	406	407	21.2	60.0
2025-07-14T21:00	10	0	0.2	0	1	406	0.4	406	407	21.2	60.8
2025-07-14T21:01	10	0	0.2	0	0	407	0.3	406	407	21.1	60.8
2025-07-14T21:02	10	0	0.2	0	1	407	0.5	406	408	21.2	59.5
2025-07-14T21:03	10	0	0.1	0	0	407	0.3	406	408	21.4	58.2
2025-07-14T21:04	10	0	0.2	0	0	407	0.2	407	408	21.5	58.0
2025-07-14T21:05	10	0	0.2	-1	0	407	0.3	406	408	21.5	58.3
2025-07-14T21:06	10	0	0.2	-1	1	408	0.3	407	409	21.5	57.9
2025-07-14T21:07	10	0	0.2	0	0	408	0.3	407	408	21.6	57.1
2025-07-14T21:08	10	0	0.2	0	1	408	0.3	407	409	21.7	56.4
2025-07-14T21:09	10	0	0.1	0	1	408	0.3	407	408	21.5	58.3
2025-07-14T21:10	10	0	0.1	0	1	407	0.3	407	408	21.3	60.7
2025-07-14T21:11	10	0	0.1	0	0	408	0.2	407	408	21.2	60.2
2025-07-14T21:12	10	0	0.1	0	0	408	0.3	408	409	21.5	57.8
2025-07-14T21:13	10	0	0.1	0	0	408	0.3	407	409	21.7	57.5
2025-07-14T21:14	10	0	0.1	0	0	408	0.5	406	408	21.3	62.4
2025-07-14T21:15	10	0	0.1	0	0	407	0.2	406	407	20.6	67.8
2025-07-14T21:16	10	0	0.0	0	0	408	0.8	407	410	20.7	63.5
2025-07-14T21:17	10	0	0.1	0	0	409	0.4	407	409	21.1	60.8
2025-07-14T21:18	10	0	0.1	0	0	407	0.2	407	408	20.5	66.8
2025-07-14T21:19	10	0	0.1	0	0	408	0.2	407	408	20.4	66.4
2025-07-14T21:20	10	0	0.1	0	0	408	0.2	407	408	20.4	66.3
2025-07-14T21:21	10	0	0.1	0	0	408	0.4	407	409	20.4	66.7
2025-07-14T21:22	10	0	0.1	0	0	409	0.6	408	410	20.7	63.5
2025-07-14T21:23	10	0	0.1	0	0	408	0.2	407	408	20.8	64.0
2025-07-14T21:24	10	0	0.1	0	0	408	0.2	407	408	20.6	66.9
2025-07-14T21:25	10	0	0.1	0	0	408	0.3	407	408	20.5	65.9
2025-07-14T21:26	10	0	0.0	0	0	408	0.2	408	409	20.7	63.7
2025-07-14T21:27	10	0	0.1	0	0	408	0.2	407	408	20.7	64.2
2025-07-14T21:28	10	0	0.1	0	0	407	0.3	406	408	20.5	64.8
2025-07-14T21:29	10	0	0.0	0	0	407	0.3	406	407	20.4	66.4
2025-07-14T21:30	10	0	0.1	0	0	406	0.2	405	407	20.3	66.7
2025-07-14T21:31	10	0	0.1	0	0	405	0.3	404	406	20.3	66.8
2025-07-14T21:32	10	0	0.1	0	0	405	0.3	405	406	20.3	67.2
2025-07-14T21:33	10	0	0.1	0	0	405	0.2	404	405	20.4	66.6
2025-07-14T21:34	10	0	0.1	0	0	405	0.2	404	405	20.3	67.0
2025-07-14T21:35	10	0	0.1	0	0	404	0.3	404	405	20.3	67.7
2025-07-14T21:36	10	0	0.1	0	0	404	0.2	403	404	20.1	68.5
2025-07-14T21:37	10	0	0.1	0	0	403	0.2	403	404	20.1	68.8
2025-07-14T21:38	10	0	0.1	0	0	403	0.3	403	404	20.1	68.2
2025-07-14T21:39	10	0	0.1	0	0	403	0.2	403	404	20.2	66.9
2025-07-14T21:40	10	0	0.1	0	0	403	0.2	402	403	20.5	64.9
2025-07-14T21:41	10	0	0.1	0	0	402	0.2	402	403	20.6	64.9
2025-07-14T21:42	10	0	0.1	0	0	402	0.3	401	403	20.6	65.4
2025-07-14T21:43	10	0	0.1	0	0	401	0.4	401	402	20.2	69.5
2025-07-14T21:44	10	0	0.1	0	0	400	0.3	399	401	19.7	73.6
2025-07-14T21:45	10	0	0.1	0	0	400	0.5	400	401	19.8	70.5
2025-07-14T21:46	10	0	0.1	0	0	401	0.3	400	401	20.0	67.9
2025-07-14T21:47	10	0	0.1	0	0	401	0.3	400	401	20.3	65.3
2025-07-14T21:48	10	0	0.1	0	0	401	0.3	400	401	20.5	64.5
2025-07-14T21:49	10	0	0.1	0	0	401	0.3	400	401	20.6	63.9
2025-07-14T21:50	10	0	0.1	0	0	401	0.4	400	402	20.7	63.2
2025-07-14T21:51	10	0	0.1	0	0	402	0.2	401	402	20.7	63.1
2025-07-14T21:52	10	0	0.1	0	0	402	0.3	401	402	20.7	63.2
2025-07-14T21:53	10	0	0.1	0	0	401	0.3	401	402	20.6	64.0
2025-07-14T21:54	10	0	0.1	0	0	401	0.3	400	402	20.5	65.1
2025-07-14T21:55	10	0	0.1	0	0	400	0.3	400	401	20.3	67.0
2025-07-14T21:56	10	0	0.1	0	0	400	0.4	399	401	20.2	67.8
2025-07-14T21:57	10	0	0.1	0	0	400	0.4	399	400	20.1	68.3
2025-07-14T21:58	10	0	0.0	0	0	399	0.4	398	400	20.0	71.1
2025-07-14T21:59	10	0	0.1	0	1	398	0.2	398	399	19.7	72.6
2025-07-14T22:00	10	0	0.1	0	0	398	0.3	397	399	19.5	74.6
2025-07-14T22:01	10	0	0.1	0	0	397	0.2	397	398	19.5	74.1
2025-07-14T22:02	10	0	0.1	0	0	397	0.3	396	398	19.5	75.8
2025-07-14T22:03	10	0	0.1	0	0	397	0.2	396	397	19.3	77.8
2025-07-14T22:04	10	0	0.1	0	0	396	0.2	396	397	19.3	78.0
2025-07-14T22:05	10	0	0.1	0	0	396	0.3	396	397	19.2	78.2
2025-07-14T22:06	10	0	0.1	0	0	396	0.4	396	397	19.1	79.2
2025-07-14T22:07	10	0	0.1	0	0	397	0.5	396	397	19.1	76.8
2025-07-14T22:08	10	0	0.1	0	0	398	0.8	396	399	19.6	69.1
2025-07-14T22:09	10	0	0.1	0	0	398	0.3	397	399	20.1	65.6
2025-07-14T22:10	10	0	0.1	0	0	398	0.4	397	398	20.3	64.8
2025-07-14T22:11	10	0	0.2	0	0	397	0.3	396	398	19.9	72.3
2025-07-14T22:12	10	0	0.2	0	1	398	0.2	397	398	19.5	73.6
2025-07-14T22:13	10	0	0.1	0	1	398	0.3	397	398	19.5	73.2
2025-07-14T22:14	10	0	0.1	0	1	398	0.3	397	399	19.5	70.8
2025-07-14T22:15	10	0	0.1	0	0	398	0.4	397	399	19.5	73.2
2025-07-14T22:16	10	0	0.1	0	0	399	0.3	398	399	19.5	73.2
2025-07-14T22:17	10	0	0.2	0	1	399	0.2	398	399	19.5	73.2
2025-07-14T22:18	10	0	0.2	0	0	399	0.2	398	399	19.5	73.2
2025-07-14T22:19	10	0	0.2	0	0	399	0.4	399	400	19.5	73.2
2025-07-14T22:20	10	0	0.2	0	1	400	0.2	399	400	19.6	72.0
2025-07-14T22:21	10	0	0.1	0	0	400	0.3	399	401	20.0	68.6
2025-07-14T22:22	10	0	0.1	0	0	401	0.2	400	401	19.8	69.9
2025-07-14T22:23	10	0	0.2	0	0	401	0.2	400	401	19.8	69.5
2025-07-14T22:24	10	0	0.2	0	1	401	0.3	400	401	19.8	69.4
2025-07-14T22:25	10	0	0.2	0	0	401	0.2	400	401	19.8	70.0
2025-07-14T22:26	10	0	0.1	0	1	401	0.2	401	402	19.7	70.1
2025-07-14T22:27	10	0	0.1	0	0	401	0.2	400	401	19.7	69.8
2025-07-14T22:28	10	0	0.1	0	0	401	0.2	401	401	19.8	69.1
2025-07-14T22:29	10	0	0.1	0	0	401	0.2	401	402	19.9	67.8
2025-07-14T22:30	10	0	0.1	0	0	401	0.4	400	402	19.8	68.7
2025-07-14T22:31	10	0	0.1	0	1	402	0.3	401	402	19.8	67.3
2025-07-14T22:32	10	0	0.1	0	0	402	0.2	401	402	19.9	66.5
2025-07-14T22:33	10	0	0.1	0	0	402	0.3	401	403	19.6	69.0
2025-07-14T22:34	10	0	0.1	0	0	403	0.3	402	404	19.7	68.6
2025-07-14T22:35	10	0	0.1	0	0	403	0.3	403	404	19.8	68.3
2025-07-14T22:36	10	0	0.1	0	0	403	0.3	403	404	19.8	68.2
2025-07-14T22:37	10	0	0.1	0	0	404	0.3	403	404	19.8	68.0
2025-07-14T22:38	10	0	0.1	0	0	404	0.3	403	404	19.7	69.2
2025-07-14T22:39	10	0	0.1	0	0	404	0.3	403	405	19.6	70.0
2025-07-14T22:40	10	0	0.1	0	0	404	0.2	403	405	19.6	70.9
2025-07-14T22:41	10	0	0.1	0	0	405	0.3	404	405	19.5	71.1
2025-07-14T22:42	10	0	0.1	0	0	405	0.2	405	406	19.6	70.8
2025-07-14T22:43	10	0	0.1	0	0	405	0.3	404	406	19.6	70.8
2025-07-14T22:44	10	0	0.1	0	0	405	0.2	405	406	19.5	72.6
2025-07-14T22:45	10	0	0.1	0	0	405	0.2	405	406	19.5	72.6
2025-07-14T22:46	10	0	0.1	0	0	406	0.4	405	407	19.7	70.8
2025-07-14T22:47	10	0	0.1	0	0	406	0.4	405	407	19.9	69.9
2025-07-14T22:48	10	0	0.1	0	0	406	0.3	405	407	19.9	69.7
2025-07-14T22:49	10	0	0.1	0	0	406	0.3	405	407	19.9	70.0
2025-07-14T22:50	10	0	0.1	0	0	406	0.2	405	406	19.9	70.0
2025-07-14T22:51	10	0	0.1	0	0	406	0.4	405	407	19.9	69.4
2025-07-14T22:52	10	0	0.1	0	0	406	0.2	405	407	20.0	69.2
2025-07-14T22:53	10	0	0.1	0	0	406	0.2	405	406	19.9	70.2
2025-07-14T22:54	10	0	0.1	0	0	406	0.3	406	407	19.9	70.0
2025-07-14T22:55	10	0	0.1	0	0	407	0.2	406	408	20.1	68.3
2025-07-14T22:56	10	0	0.1	0	0	408	0.9	406	409	20.4	66.1
2025-07-14T22:57	10	0	0.1	0	0	409	0.5	408	410	20.9	62.8
2025-07-14T22:58	10	0	0.1	0	1	409	0.2	409	410	21.1	61.5
2025-07-14T22:59	10	1	0.1	0	1	409	0.5	408	410	20.9	63.4
2025-07-14T23:00	10	1	0.1	0	1	409	0.2	408	409	20.7	64.6
2025-07-14T23:01	10	0	0.1	0	1	408	0.3	408	409	20.6	64.9
2025-07-14T23:02	10	0	0.1	0	1	409	0.3	408	409	20.6	65.4
2025-07-14T23:03	10	0	0.1	0	1	408	0.2	408	409	20.5	65.8
2025-07-14T23:04	10	0	0.1	0	1	409	0.3	408	410	20.6	65.4
2025-07-14T23:05	10	0	0.1	0	0	409	0.2	408	409	20.6	65.4
2025-07-14T23:06	10	0	0.1	0	0	409	0.2	408	409	20.6	65.3
2025-07-14T23:07	10	0	0.1	0	0	409	0.3	408	409	20.6	65.2
2025-07-14T23:08	10	0	0.1	0	0	409	0.3	409	410	20.5	65.7
2025-07-14T23:09	10	0	0.1	0	0	409	0.2	408	409	20.5	66.2
2025-07-14T23:10	10	0	0.1	0	0	409	0.3	408	409	20.4	66.8
2025-07-14T23:11	10	0	0.1	0	1	409	0.4	408	409	20.4	67.4
2025-07-14T23:12	10	0	0.1	0	0	408	0.2	408	409	20.3	67.7
2025-07-14T23:13	10	0	0.1	0	0	408	0.2	408	409	20.3	68.0
2025-07-14T23:14	10	0	0.1	0	0	408	0.3	408	409	20.2	68.5
2025-07-14T23:15	10	0	0.1	0	0	408	0.2	407	408	20.2	69.0
2025-07-14T23:16	10	0	0.1	0	0	408	0.3	407	408	20.1	69.4
2025-07-14T23:17	10	0	0.0	0	0	407	0.3	407	408	20.1	69.4
2025-07-14T23:18	10	0	0.1	0	0	407	0.3	407	408	20.1	69.4
2025-07-14T23:19	10	0	0.1	0	0	407	0.2	407	408	20.2	69.3
2025-07-14T23:20	10	0	0.1	0	0	407	0.3	407	408	20.2	69.2
2025-07-14T23:21	10	0	0.1	0	0	407	0.2	407	408	20.3	68.6
2025-07-14T23:22	10	0	0.1	0	0	407	0.2	407	408	20.3	69.0
2025-07-14T23:23	10	0	0.1	0	0	407	0.3	406	408	20.4	68.6
2025-07-14T23:24	10	0	0.1	0	0	407	0.2	406	408	20.4	68.3
2025-07-14T23:25	10	0	0.1	0	0	407	0.3	406	407	20.3	69.0
2025-07-14T23:26	10	0	0.1	0	0	407	0.3	406	407	20.3	69.1
2025-07-14T23:27	10	0	0.1	0	0	406	0.3	406	407	20.3	69.0
2025-07-14T23:28	10	0	0.1	0	0	406	0.2	406	407	20.3	68.6
2025-07-14T23:29	10	0	0.1	0	0	407	0.4	406	408	20.4	67.8
2025-07-14T23:30	10	0	0.1	0	0	407	0.3	406	408	20.4	68.2
2025-07-14T23:31	10	0	0.1	0	0	406	0.2	406	407	20.3	68.9
2025-07-14T23:32	10	0	0.1	0	0	407	0.2	406	407	20.3	69.0
2025-07-14T23:33	10	0	0.1	0	0	407	0.3	406	407	20.3	68.7
2025-07-14T23:34	10	0	0.1	0	0	407	0.2	406	408	20.3	69.0
2025-07-14T23:35	10	0	0.1	0	0	407	0.3	406	407	20.2	69.5
2025-07-14T23:36	10	0	0.1	0	0	406	0.5	404	407	20.0	70.9
2025-07-14T23:37	10	0	0.1	0	0	406	0.4	405	407	19.8	72.7
2025-07-14T23:38	10	0	0.1	0	0	406	0.4	405	406	19.8	72.4
2025-07-14T23:39	10	0	0.1	0	0	404	0.3	404	405	19.4	75.7
2025-07-14T23:40	10	0	0.1	0	0	404	0.3	403	405	19.1	77.8
2025-07-14T23:41	10	0	0.1	0	0	403	0.3	403	404	19.0	78.8
2025-07-14T23:42	10	0	0.1	0	0	404	0.2	403	404	19.0	78.5
2025-07-14T23:43	10	0	0.1	0	0	403	0.4	403	404	19.1	77.2
2025-07-14T23:44	10	0	0.1	0	0	403	0.2	403	404	19.3	75.7
2025-07-14T23:45	10	0	0.1	-1	0	404	0.4	403	405	19.4	75.0
2025-07-14T23:46	10	0	0.1	-1	0	404	0.4	403	405	19.5	74.1
2025-07-14T23:47	10	0	0.1	0	0	404	0.4	404	405	19.6	72.8
2025-07-14T23:48	10	0	0.1	-1	0	405	0.3	404	406	19.9	70.8
2025-07-14T23:49	10	0	0.1	0	0	405	0.2	405	406	19.9	70.7
2025-07-14T23:50	10	0	0.1	0	0	405	0.3	405	406	19.9	70.5
2025-07-14T23:51	10	0	0.1	0	0	405	0.2	404	405	19.8	71.5
2025-07-14T23:52	10	0	0.1	0	0	405	0.2	405	406	19.8	71.7
2025-07-14T23:53	10	0	0.1	0	0	405	0.2	405	406	19.8	71.9
2025-07-14T23:54	10	0	0.1	0	0	405	0.2	404	406	19.7	72.5
2025-07-14T23:55	10	0	0.1	0	0	405	0.2	404	405	19.6	72.7
2025-07-14T23:56	10	0	0.1	0	0	405	0.2	405	406	19.6	72.3
2025-07-14T23:57	10	0	0.1	0	0	405	0.2	405	406	19.7	72.5
2025-07-14T23:58	10	0	0.1	0	0	405	0.3	405	406	19.7	72.5
2025-07-14T23:59	10	0	0.1	0	0	405	0.2	405	406	19.6	72.8
2025-07-15T00:00	10	0	0.1	0	0	405	0.2	405	406	19.6	73.3
2025-07-15T00:01	10	0	0.1	0	0	405	0.2	405	406	19.6	73.0
2025-07-15T00:02	10	0	0.1	0	0	405	0.2	405	406	19.6	73.4
2025-07-15T00:03	10	0	0.1	0	0	405	0.2	405	406	19.5	73.6
2025-07-15T00:04	10	0	0.1	0	0	405	0.2	405	405	19.5	73.3
2025-07-15T00:05	10	0	0.1	0	0	405	0.2	404	406	19.5	73.3
2025-07-15T00:06	10	0	0.1	0	0	405	0.3	404	406	19.6	72.8
2025-07-15T00:07	10	0	0.1	0	0	404	0.3	404	405	19.5	73.9
2025-07-15T00:08	10	0	0.1	0	0	404	0.3	403	405	19.5	73.2
2025-07-15T00:09	10	0	0.1	0	0	404	0.3	403	405	19.5	73.5
2025-07-15T00:10	10	0	0.1	0	0	404	0.2	403	404	19.5	73.1
2025-07-15T00:11	10	0	0.1	0	0	404	0.2	403	404	19.6	72.9
2025-07-15T00:12	10	0	0.1	0	0	404	0.2	403	404	19.5	73.0
2025-07-15T00:13	10	0	0.1	0	0	404	0.2	403	404	19.5	73.1
2025-07-15T00:14	10	0	0.1	0	0	404	0.3	403	404	19.5	73.1
2025-07-15T00:15	10	0	0.1	0	0	403	0.3	402	404	19.6	72.9
2025-07-15T00:16	10	0	0.1	0	0	403	0.3	402	403	19.5	73.7
2025-07-15T00:17	10	0	0.1	0	0	402	0.2	402	403	19.5	73.4
2025-07-15T00:18	10	0	0.1	0	0	402	0.2	402	402	19.6	73.2
2025-07-15T00:19	10	0	0.1	0	0	401	0.2	401	402	19.6	72.8
2025-07-15T00:20	10	0	0.1	0	0	401	0.3	401	402	19.6	73.1
2025-07-15T00:21	10	0	0.1	0	0	401	0.2	401	402	19.6	73.4
2025-07-15T00:22	10	0	0.1	0	0	401	0.2	401	402	19.6	73.6
2025-07-15T00:23	10	0	0.1	0	0	401	0.2	400	401	19.5	73.9
2025-07-15T00:24	10	0	0.1	0	0	401	0.2	400	401	19.5	74.3
2025-07-15T00:25	10	0	0.1	0	0	401	0.2	401	402	19.4	74.8
2025-07-15T00:26	10	0	0.1	0	0	401	0.3	400	402	19.2	76.0
2025-07-15T00:27	10	0	0.1	0	0	401	0.3	401	402	19.1	76.3
2025-07-15T00:28	10	0	0.0	0	0	401	0.2	400	402	19.2	76.0
2025-07-15T00:29	10	0	0.1	0	0	401	0.2	401	402	19.2	76.3
2025-07-15T00:30	10	0	0.1	0	0	401	0.2	401	402	19.2	76.1
2025-07-15T00:31	10	0	0.1	0	0	401	0.3	401	402	19.2	76.2
2025-07-15T00:32	10	0	0.1	0	0	401	0.2	400	401	19.0	77.2
2025-07-15T00:33	10	0	0.0	0	0	401	0.3	400	401	18.9	78.2
2025-07-15T00:34	10	0	0.1	0	0	401	0.2	400	401	18.8	78.7
2025-07-15T00:35	10	0	0.1	0	0	401	0.2	400	401	18.8	79.2
2025-07-15T00:36	10	0	0.1	0	0	401	0.2	400	401	18.6	80.2
2025-07-15T00:37	10	0	0.1	0	0	400	0.2	400	401	18.6	80.6
2025-07-15T00:38	10	0	0.1	0	0	400	0.2	400	401	18.5	81.5
2025-07-15T00:39	10	0	0.1	0	0	400	0.3	400	401	18.5	81.8
2025-07-15T00:40	10	0	0.1	0	0	400	0.2	400	401	18.4	82.0
2025-07-15T00:41	10	0	0.1	0	0	400	0.3	399	401	18.4	81.8
2025-07-15T00:42	10	0	0.1	0	0	400	0.2	400	401	18.5	81.5
2025-07-15T00:43	10	0	0.1	0	0	400	0.3	400	401	18.5	81.4
2025-07-15T00:44	10	0	0.1	0	0	400	0.2	400	401	18.4	81.7
2025-07-15T00:45	10	0	0.0	0	0	400	0.3	400	401	18.4	81.7
2025-07-15T00:46	10	0	0.0	0	0	400	0.3	399	400	18.5	81.2
2025-07-15T00:47	10	0	0.1	0	0	400	0.3	399	400	18.5	80.5
2025-07-15T00:48	10	0	0.0	0	0	400	0.2	399	400	18.6	80.4
2025-07-15T00:49	10	0	0.0	0	0	400	0.2	399	400	18.6	79.9
2025-07-15T00:50	10	0	0.0	0	0	400	0.2	399	400	18.6	80.0
2025-07-15T00:51	10	0	0.1	0	0	399	0.2	399	400	18.7	79.6
2025-07-15T00:52	10	0	0.1	0	0	399	0.2	399	400	18.6	80.2
2025-07-15T00:53	10	0	0.1	0	0	399	0.2	399	399	18.6	80.0
2025-07-15T00:54	10	0	0.1	0	0	399	0.3	399	400	18.6	80.0
2025-07-15T00:55	10	0	0.1	0	0	399	0.2	399	400	18.7	79.6
2025-07-15T00:56	10	0	0.1	0	0	399	0.2	399	400	18.7	79.4
2025-07-15T00:57	10	0	0.1	0	0	399	0.2	399	400	18.8	79.0
2025-07-15T00:58	10	0	0.1	0	0	399	0.2	399	399	18.8	78.4
2025-07-15T00:59	10	0	0.1	0	0	399	0.2	398	399	18.8	78.5
2025-07-15T01:00	10	0	0.1	0	0	399	0.3	399	400	18.9	77.8
2025-07-15T01:01	10	0	0.1	0	0	399	0.3	398	399	18.9	78.3
2025-07-15T01:02	10	0	0.1	0	0	399	0.2	398	399	18.9	77.6
2025-07-15T01:03	10	0	0.1	0	0	399	0.2	398	399	18.9	78.0
2025-07-15T01:04	10	0	0.1	0	0	399	0.2	398	399	18.9	77.8
2025-07-15T01:05	10	0	0.0	0	0	399	0.2	398	399	18.9	77.9
2025-07-15T01:06	10	0	0.1	0	0	399	0.2	399	399	18.9	78.0
2025-07-15T01:07	10	0	0.1	0	0	399	0.2	399	399	18.9	77.8
2025-07-15T01:08	10	0	0.1	0	0	399	0.2	398	400	18.9	78.0
2025-07-15T01:09	10	0	0.1	0	0	399	0.2	399	400	18.8	78.3
2025-07-15T01:10	10	0	0.1	0	0	399	0.2	399	400	18.8	78.3
2025-07-15T01:11	10	0	0.1	0	0	400	0.2	399	400	18.8	78.9
2025-07-15T01:12	10	0	0.1	0	0	400	0.2	400	400	18.7	79.4
2025-07-15T01:13	10	0	0.1	0	0	400	0.2	400	400	18.6	80.7
2025-07-15T01:14	10	0	0.0	0	0	401	0.3	400	401	18.5	81.3
2025-07-15T01:15	10	0	0.1	0	0	401	0.2	400	401	18.5	81.2
2025-07-15T01:16	10	0	0.1	0	0	401	0.2	400	401	18.5	81.7
2025-07-15T01:17	10	0	0.1	0	0	401	0.2	400	401	18.4	81.7
2025-07-15T01:18	10	0	0.1	0	0	401	0.2	400	401	18.4	82.5
2025-07-15T01:19	10	0	0.1	0	0	401	0.2	400	401	18.2	83.9
2025-07-15T01:20	10	0	0.1	0	0	401	0.2	400	401	18.1	85.1
2025-07-15T01:21	10	0	0.1	0	0	400	0.3	400	401	18.0	85.7
2025-07-15T01:22	10	0	0.1	0	0	400	0.2	400	401	18.0	86.3
2025-07-15T01:23	10	0	0.1	0	0	400	0.3	400	401	17.9	86.7
2025-07-15T01:24	10	0	0.1	0	0	400	0.2	400	401	17.9	87.3
2025-07-15T01:25	10	0	0.1	0	0	400	0.3	400	401	17.8	87.7
2025-07-15T01:26	10	0	0.1	0	0	400	0.2	400	401	17.8	87.7
2025-07-15T01:27	10	0	0.1	0	0	400	0.3	400	401	17.8	88.3
2025-07-15T01:28	10	0	0.1	0	0	400	0.2	400	401	17.8	88.6
2025-07-15T01:29	10	0	0.1	0	0	400	0.2	400	401	17.7	89.0
2025-07-15T01:30	10	0	0.1	0	0	400	0.3	399	401	17.7	89.1
2025-07-15T01:31	10	0	0.1	0	0	400	0.3	400	401	17.7	89.2
2025-07-15T01:32	10	0	0.2	0	1	400	0.3	400	401	17.7	89.3
2025-07-15T01:33	10	0	0.1	0	0	400	0.2	400	401	17.6	89.4
2025-07-15T01:34	10	0	0.1	0	0	400	0.2	400	401	17.6	89.6
2025-07-15T01:35	10	0	0.2	0	0	400	0.2	399	401	17.6	89.8
2025-07-15T01:36	10	0	0.1	0	1	400	0.2	400	401	17.6	90.0
2025-07-15T01:37	10	0	0.1	0	0	400	0.3	400	401	17.5	90.0
2025-07-15T01:38	10	0	0.2	0	0	400	0.3	399	401	17.5	89.8
2025-07-15T01:39	10	0	0.2	0	0	400	0.2	400	401	17.5	89.1
2025-07-15T01:40	10	0	0.2	0	1	400	0.3	400	401	17.6	88.7
2025-07-15T01:41	10	0	0.1	0	0	400	0.2	400	401	17.6	89.1
2025-07-15T01:42	10	0	0.2	0	1	401	0.3	400	401	17.6	89.3
2025-07-15T01:43	10	0	0.2	0	1	401	0.2	400	401	17.6	89.3
2025-07-15T01:44	10	0	0.2	0	0	400	0.3	400	401	17.6	89.2
2025-07-15T01:45	10	0	0.2	0	1	400	0.2	400	401	17.6	88.8
2025-07-15T01:46	10	0	0.2	0	0	401	0.2	400	401	17.6	88.7
2025-07-15T01:47	10	0	0.2	0	1	401	0.3	400	402	17.8	87.3
2025-07-15T01:48	10	0	0.1	0	0	401	0.3	400	401	17.8	87.3
2025-07-15T01:49	10	0	0.1	0	0	401	0.3	400	401	17.8	87.3
2025-07-15T01:50	10	0	0.2	0	1	401	0.2	401	401	17.8	87.4
2025-07-15T01:51	10	0	0.2	0	1	401	0.3	401	402	17.8	87.6
2025-07-15T01:52	10	0	0.2	0	1	401	0.3	400	402	17.8	87.7
2025-07-15T01:53	10	0	0.2	0	1	401	0.2	400	401	17.8	87.7
2025-07-15T01:54	10	0	0.2	0	1	401	0.3	400	401	17.8	87.7
2025-07-15T01:55	10	0	0.2	0	1	400	0.3	400	401	17.7	88.7
2025-07-15T01:56	10	0	0.2	0	1	401	0.3	400	402	17.8	87.9
2025-07-15T01:57	10	0	0.1	0	0	401	0.2	400	401	17.9	86.7
2025-07-15T01:58	10	0	0.1	0	1	401	0.3	400	401	17.9	86.2
2025-07-15T01:59	10	0	0.1	0	0	401	0.2	400	401	17.9	86.5
2025-07-15T02:00	10	0	0.1	0	0	401	0.2	400	401	18.0	85.2
2025-07-15T02:01	10	0	0.1	0	0	401	0.2	400	401	18.0	85.1
2025-07-15T02:02	10	0	0.1	0	0	401	0.3	400	401	18.1	84.3
2025-07-15T02:03	10	0	0.1	0	0	401	0.2	400	401	18.1	84.5
2025-07-15T02:04	10	0	0.1	0	0	401	0.3	400	402	18.1	84.5
2025-07-15T02:05	10	0	0.1	0	0	401	0.2	400	401	18.0	85.5
2025-07-15T02:06	10	0	0.1	0	0	401	0.2	400	401	18.0	86.0
2025-07-15T02:07	10	0	0.1	0	0	401	0.2	400	401	17.9	87.0
2025-07-15T02:08	10	0	0.1	0	0	400	0.2	400	401	17.8	88.0
2025-07-15T02:09	10	0	0.1	0	1	401	0.2	400	401	17.8	88.5
2025-07-15T02:10	10	0	0.1	0	1	400	0.2	400	401	17.7	88.8
2025-07-15T02:11	10	0	0.1	0	1	401	0.2	400	401	17.7	88.7
2025-07-15T02:12	10	0	0.1	0	0	400	0.2	400	401	17.7	89.2
2025-07-15T02:13	10	0	0.0	0	0	400	0.2	400	401	17.6	89.2
2025-07-15T02:14	10	0	0.1	0	0	400	0.2	400	401	17.7	88.7
2025-07-15T02:15	10	0	0.1	0	0	400	0.2	400	401	17.7	88.9
2025-07-15T02:16	10	0	0.1	0	0	400	0.2	400	401	17.6	88.8
2025-07-15T02:17	10	0	0.0	0	0	400	0.2	400	401	17.6	89.0
2025-07-15T02:18	10	0	0.1	0	0	400	0.3	399	401	17.6	88.3
2025-07-15T02:19	10	0	0.1	0	0	400	0.2	399	400	17.6	88.5
2025-07-15T02:20	10	0	0.0	0	0	399	0.2	399	400	17.6	88.2
2025-07-15T02:21	10	0	0.1	0	0	400	0.2	399	400	17.7	87.5
2025-07-15T02:22	10	0	0.1	0	0	400	0.2	399	400	17.8	87.0
2025-07-15T02:23	10	0	0.1	0	0	400	0.2	399	400	17.8	86.0
2025-07-15T02:24	10	0	0.1	0	0	400	0.3	399	401	17.9	85.8
2025-07-15T02:25	10	0	0.1	0	0	400	0.2	400	400	18.0	85.0
2025-07-15T02:26	10	0	0.1	0	0	400	0.2	400	401	18.0	85.1
2025-07-15T02:27	10	0	0.1	0	0	400	0.2	400	401	17.9	85.4
2025-07-15T02:28	10	0	0.1	0	1	400	0.2	400	401	17.9	85.8
2025-07-15T02:29	10	0	0.1	0	0	400	0.3	400	401	17.9	85.7
2025-07-15T02:30	10	0	0.1	0	0	400	0.2	400	401	17.9	85.7
2025-07-15T02:31	10	0	0.1	0	0	400	0.2	400	401	17.9	85.5
2025-07-15T02:32	10	0	0.1	0	0	400	0.2	400	401	18.0	85.3
2025-07-15T02:33	10	0	0.1	0	0	400	0.2	400	401	18.0	85.5
2025-07-15T02:34	10	0	0.1	0	0	400	0.2	400	401	18.0	85.2
2025-07-15T02:35	10	0	0.1	0	0	401	0.3	400	401	18.0	85.3
2025-07-15T02:36	10	0	0.1	0	0	401	0.3	400	401	18.0	85.4
2025-07-15T02:37	10	0	0.1	0	0	401	0.3	400	401	18.0	85.4
2025-07-15T02:38	10	0	0.1	0	0	401	0.2	400	401	18.0	86.0
2025-07-15T02:39	10	0	0.1	0	0	401	0.2	400	401	18.0	85.9
2025-07-15T02:40	10	0	0.1	0	0	401	0.2	400	401	18.0	86.1
2025-07-15T02:41	10	0	0.1	0	0	401	0.2	400	401	17.9	86.6
2025-07-15T02:42	10	0	0.1	0	0	401	0.2	401	402	17.9	86.4
2025-07-15T02:43	10	0	0.1	0	0	401	0.2	401	402	18.0	85.8
2025-07-15T02:44	10	0	0.1	0	0	401	0.2	400	401	18.0	85.4
2025-07-15T02:45	10	0	0.1	0	0	401	0.2	400	401	18.0	85.4
2025-07-15T02:46	10	0	0.1	0	0	401	0.2	400	401	18.0	85.0
2025-07-15T02:47	10	0	0.1	0	0	401	0.2	400	401	18.1	84.8
2025-07-15T02:48	10	0	0.1	0	0	401	0.2	401	402	18.1	84.5
2025-07-15T02:49	10	0	0.1	0	0	401	0.2	401	402	18.1	84.6
2025-07-15T02:50	10	0	0.1	0	0	401	0.2	401	402	18.1	84.7
2025-07-15T02:51	10	0	0.1	0	0	401	0.2	401	402	18.0	85.1
2025-07-15T02:52	10	0	0.1	0	0	401	0.2	401	402	18.0	85.1
2025-07-15T02:53	10	0	0.1	0	0	401	0.2	401	402	18.0	85.5
2025-07-15T02:54	10	0	0.1	0	0	401	0.3	400	401	17.9	86.7
2025-07-15T02:55	10	0	0.1	0	0	401	0.3	400	401	17.9	87.2
2025-07-15T02:56	10	0	0.1	0	0	401	0.2	400	401	17.8	87.7
2025-07-15T02:57	10	0	0.1	0	0	401	0.3	400	401	17.8	87.8
2025-07-15T02:58	10	0	0.1	0	0	401	0.2	400	401	17.8	88.1
2025-07-15T02:59	10	0	0.1	0	0	400	0.2	400	401	17.8	88.0
2025-07-15T03:00	10	0	0.1	0	0	401	0.3	400	401	17.8	87.4
2025-07-15T03:01	10	0	0.1	0	0	401	0.3	400	401	17.9	86.5
2025-07-15T03:02	10	0	0.1	0	0	401	0.3	400	401	17.9	87.0
2025-07-15T03:03	10	0	0.1	0	0	401	0.3	400	402	17.9	86.8
2025-07-15T03:04	10	0	0.1	0	0	401	0.2	401	402	17.9	86.4
2025-07-15T03:05	10	0	0.1	0	0	401	0.2	401	402	17.9	86.8
2025-07-15T03:06	10	0	0.1	0	0	401	0.2	401	402	17.9	86.4
2025-07-15T03:07	10	0	0.0	0	0	401	0.2	401	402	18.0	86.3
2025-07-15T03:08	10	0	0.1	0	0	402	0.3	401	402	18.0	85.9
2025-07-15T03:09	10	0	0.1	0	0	401	0.2	401	402	18.0	86.0
2025-07-15T03:10	10	0	0.1	0	0	402	0.3	401	402	18.0	85.9
2025-07-15T03:11	10	0	0.1	0	0	402	0.2	401	402	18.0	85.3
2025-07-15T03:12	10	0	0.1	0	0	402	0.2	401	402	18.0	85.6
2025-07-15T03:13	10	0	0.1	0	0	402	0.2	401	402	18.0	85.9
2025-07-15T03:14	10	0	0.1	0	0	401	0.2	401	402	18.0	86.0
2025-07-15T03:15	10	0	0.1	0	0	401	0.3	401	402	18.0	85.9
2025-07-15T03:16	10	0	0.1	0	0	401	0.2	401	402	18.0	85.9
2025-07-15T03:17	10	0	0.1	0	0	402	0.2	401	402	18.0	85.6
2025-07-15T03:18	10	0	0.1	0	0	401	0.2	401	402	18.0	85.9
2025-07-15T03:19	10	0	0.1	0	0	401	0.3	401	402	18.0	86.3
2025-07-15T03:20	10	0	0.1	0	0	401	0.3	401	402	17.9	86.8
2025-07-15T03:21	10	0	0.1	0	0	401	0.2	401	402	17.9	87.1
2025-07-15T03:22	10	0	0.1	0	0	401	0.2	401	402	17.9	87.1
2025-07-15T03:23	10	0	0.1	0	0	401	0.2	401	402	17.9	87.5
2025-07-15T03:24	10	0	0.1	0	0	401	0.3	401	402	17.9	87.3
2025-07-15T03:25	10	0	0.1	0	0	401	0.2	401	402	17.9	87.8
2025-07-15T03:26	10	0	0.1	0	0	401	0.3	401	402	17.8	87.8
2025-07-15T03:27	10	0	0.1	0	0	401	0.2	400	401	17.8	88.2
2025-07-15T03:28	10	0	0.1	0	0	401	0.2	400	401	17.7	88.4
2025-07-15T03:29	10	0	0.1	0	0	401	0.2	400	401	17.7	88.6
2025-07-15T03:30	10	0	0.1	0	0	401	0.3	400	401	17.7	88.9
2025-07-15T03:31	10	0	0.1	0	0	401	0.2	400	401	17.7	89.4
2025-07-15T03:32	10	0	0.1	0	0	401	0.2	400	401	17.7	89.4
2025-07-15T03:33	10	0	0.1	0	0	401	0.2	400	401	17.7	89.1
2025-07-15T03:34	10	0	0.1	0	0	401	0.2	400	401	17.7	88.7
2025-07-15T03:35	10	0	0.1	0	0	401	0.2	400	401	17.7	88.9
2025-07-15T03:36	10	0	0.1	0	0	401	0.2	400	401	17.7	88.5
2025-07-15T03:37	10	0	0.1	0	0	401	0.2	400	401	17.7	88.9
2025-07-15T03:38	10	0	0.1	0	0	401	0.2	401	401	17.7	88.5
2025-07-15T03:39	10	0	0.1	0	0	401	0.3	400	402	17.7	88.8
2025-07-15T03:40	10	0	0.1	0	0	401	0.3	400	401	17.7	89.6
2025-07-15T03:41	10	0	0.1	0	0	401	0.2	400	401	17.6	89.9
2025-07-15T03:42	10	0	0.1	0	0	401	0.2	400	401	17.6	89.4
2025-07-15T03:43	10	0	0.1	0	0	401	0.3	400	401	17.7	89.7
2025-07-15T03:44	10	0	0.1	0	0	401	0.2	400	401	17.6	89.6
2025-07-15T03:45	10	0	0.1	0	0	401	0.3	400	401	17.6	89.7
2025-07-15T03:46	10	0	0.1	0	0	401	0.2	400	401	17.7	89.4
2025-07-15T03:47	10	0	0.1	0	1	400	0.3	400	401	17.6	89.9
2025-07-15T03:48	10	1	0.1	0	1	400	0.2	399	400	17.7	88.9
2025-07-15T03:49	10	1	0.1	0	1	400	0.2	399	400	17.8	88.0
2025-07-15T03:50	10	1	0.1	1	1	399	0.3	398	400	17.8	88.2
2025-07-15T03:51	10	1	0.1	0	1	398	0.3	398	399	17.8	88.4
2025-07-15T03:52	10	1	0.1	0	1	398	0.3	397	399	17.9	87.3
2025-07-15T03:53	10	1	0.1	0	1	398	0.2	397	398	17.9	87.8
2025-07-15T03:54	10	1	0.1	0	1	397	0.2	396	397	17.8	89.0
2025-07-15T03:55	10	1	0.1	0	1	396	0.3	396	397	17.7	89.9
2025-07-15T03:56	10	1	0.1	1	1	397	0.2	396	397	17.7	89.9
2025-07-15T03:57	10	1	0.1	1	1	396	0.2	396	397	17.7	89.9
2025-07-15T03:58	10	1	0.1	1	1	396	0.2	396	397	17.7	89.8
2025-07-15T03:59	10	1	0.1	1	1	396	0.2	396	397	17.7	89.4
2025-07-15T04:00	10	1	0.1	1	1	396	0.2	396	397	17.7	89.5
2025-07-15T04:01	10	1	0.1	1	1	397	0.2	396	397	17.7	89.6
2025-07-15T04:02	10	1	0.1	1	1	397	0.2	396	397	17.7	89.1
2025-07-15T04:03	10	1	0.1	1	1	397	0.3	396	397	17.8	89.2
2025-07-15T04:04	10	1	0.1	1	1	397	0.3	396	397	17.8	88.2
2025-07-15T04:05	10	1	0.1	1	2	397	0.2	397	398	17.9	87.7
2025-07-15T04:06	10	1	0.1	1	2	398	0.3	397	398	17.9	87.5
2025-07-15T04:07	10	2	0.1	1	2	398	0.2	397	398	17.9	88.1
2025-07-15T04:08	10	2	0.1	2	2	398	0.3	398	399	17.9	88.3
2025-07-15T04:09	10	2	0.1	2	2	399	0.3	398	399	17.9	87.2
2025-07-15T04:10	10	2	0.1	2	2	399	0.2	398	399	18.0	86.8
2025-07-15T04:11	10	3	0.1	2	3	399	0.2	399	399	17.9	88.0
2025-07-15T04:12	10	3	0.1	3	3	399	0.3	398	399	17.9	88.4
2025-07-15T04:13	10	3	0.1	3	3	399	0.2	398	399	17.8	89.2
2025-07-15T04:14	10	3	0.1	3	3	399	0.2	398	399	17.8	88.9
2025-07-15T04:15	10	3	0.1	3	3	399	0.3	398	400	17.8	87.9
2025-07-15T04:16	10	3	0.1	3	3	399	0.3	398	400	17.9	87.2
2025-07-15T04:17	10	3	0.1	3	3	399	0.4	398	400	17.9	87.4
2025-07-15T04:18	10	3	0.1	3	3	400	0.2	399	400	17.8	88.1
2025-07-15T04:19	10	3	0.1	3	3	400	0.3	400	401	17.8	88.3
2025-07-15T04:20	10	3	0.1	3	3	401	0.3	400	401	17.8	88.0
2025-07-15T04:21	10	3	0.1	2	3	401	0.3	400	401	17.8	87.7
2025-07-15T04:22	10	3	0.1	2	3	401	0.2	401	402	17.8	87.8
2025-07-15T04:23	10	3	0.1	2	3	401	0.2	401	402	17.8	88.0
2025-07-15T04:24	10	3	0.1	3	3	401	0.2	401	402	17.8	88.1
2025-07-15T04:25	10	3	0.1	3	3	401	0.3	400	402	17.8	88.2
2025-07-15T04:26	10	3	0.1	3	4	401	0.2	401	401	17.8	88.4
2025-07-15T04:27	10	3	0.1	3	3	401	0.2	400	401	17.8	88.3
2025-07-15T04:28	10	3	0.1	3	3	401	0.2	400	401	17.8	88.2
2025-07-15T04:29	10	3	0.1	3	4	401	0.2	400	401	17.8	88.8
2025-07-15T04:30	10	4	0.1	3	4	401	0.3	400	401	17.7	89.6
2025-07-15T04:31	10	4	0.1	4	4	401	0.2	401	401	17.6	89.8
2025-07-15T04:32	10	4	0.1	4	5	401	0.2	400	401	17.6	89.8
2025-07-15T04:33	10	5	0.2	4	5	401	0.2	401	402	17.6	90.2
2025-07-15T04:34	10	5	0.2	5	6	401	0.2	401	402	17.5	90.2
2025-07-15T04:35	10	6	0.2	6	7	402	0.3	401	402	17.5	90.6
2025-07-15T04:36	10	6	0.1	6	7	402	0.2	401	402	17.5	91.0
2025-07-15T04:37	10	7	0.1	6	7	402	0.2	401	402	17.5	91.2
2025-07-15T04:38	10	7	0.1	6	7	402	0.2	401	402	17.4	91.4
2025-07-15T04:39	10	6	0.1	6	7	402	0.2	401	402	17.4	91.7
2025-07-15T04:40	10	6	0.1	6	7	402	0.2	401	402	17.4	91.9
2025-07-15T04:41	10	6	0.1	6	6	402	0.2	401	403	17.4	91.8
2025-07-15T04:42	10	6	0.1	6	6	402	0.2	402	403	17.4	91.5
2025-07-15T04:43	10	6	0.2	5	6	402	0.2	402	402	17.5	91.0
2025-07-15T04:44	10	5	0.1	5	6	402	0.2	401	402	17.5	91.3
2025-07-15T04:45	10	5	0.1	5	6	402	0.2	401	402	17.4	90.9
2025-07-15T04:46	10	5	0.1	5	6	402	0.3	401	403	17.5	90.7
2025-07-15T04:47	10	5	0.1	5	5	402	0.2	402	403	17.5	90.5
2025-07-15T04:48	10	5	0.2	4	5	402	0.2	402	402	17.5	90.8
2025-07-15T04:49	10	4	0.1	4	4	402	0.2	401	402	17.5	90.3
2025-07-15T04:50	10	4	0.1	4	4	402	0.2	401	402	17.6	90.1
2025-07-15T04:51	10	4	0.1	4	4	402	0.2	401	402	17.6	89.8
2025-07-15T04:52	10	4	0.1	4	4	402	0.2	401	402	17.6	89.5
2025-07-15T04:53	10	4	0.1	3	4	402	0.3	401	402	17.6	89.8
2025-07-15T04:54	10	3	0.2	3	4	401	0.3	400	402	17.6	89.7
2025-07-15T04:55	10	3	0.2	3	3	401	0.2	400	401	17.6	89.9
2025-07-15T04:56	10	2	0.1	2	3	401	0.2	401	402	17.6	90.1
2025-07-15T04:57	10	2	0.1	2	2	401	0.3	400	401	17.6	89.9
2025-07-15T04:58	10	2	0.1	2	2	400	0.3	400	401	17.6	90.3
2025-07-15T04:59	10	2	0.1	2	2	400	0.3	399	401	17.3	92.1
2025-07-15T05:00	10	2	0.1	1	2	400	0.3	399	400	17.2	92.7
2025-07-15T05:01	10	1	0.1	1	2	399	0.3	399	400	17.2	93.1
2025-07-15T05:02	10	1	0.1	1	2	399	0.2	399	400	17.2	93.7
2025-07-15T05:03	10	1	0.1	1	2	399	0.3	398	400	17.1	93.7
2025-07-15T05:04	10	2	0.1	1	2	399	0.3	398	400	17.2	93.5
2025-07-15T05:05	10	2	0.1	2	2	399	0.3	398	400	17.1	94.1
2025-07-15T05:06	10	2	0.2	1	2	399	0.3	398	399	17.1	94.5
2025-07-15T05:07	10	2	0.1	2	2	399	0.2	398	399	17.0	94.8
2025-07-15T05:08	10	2	0.1	2	3	398	0.2	398	399	17.0	95.3
2025-07-15T05:09	10	3	0.1	2	3	398	0.2	398	399	17.0	95.7
2025-07-15T05:10	10	3	0.1	2	3	398	0.3	397	398	17.0	96.1
2025-07-15T05:11	10	3	0.1	3	3	398	0.3	397	399	17.0	96.9
2025-07-15T05:12	10	3	0.1	3	3	398	0.3	398	399	17.0	96.9
2025-07-15T05:13	10	3	0.1	3	3	398	0.2	398	399	17.0	96.3
2025-07-15T05:14	10	3	0.1	3	3	399	0.3	398	399	17.0	95.9
2025-07-15T05:15	10	3	0.1	3	3	399	0.2	398	399	17.0	96.4
2025-07-15T05:16	10	3	0.1	3	4	399	0.3	398	399	17.0	96.8
2025-07-15T05:17	10	3	0.1	3	4	399	0.2	398	399	17.0	97.1
2025-07-15T05:18	10	4	0.1	3	4	399	0.3	398	399	16.9	97.2
2025-07-15T05:19	10	4	0.2	3	4	399	0.2	398	400	16.9	97.4
2025-07-15T05:20	10	4	0.1	4	4	399	0.3	399	400	16.9	97.5
2025-07-15T05:21	10	4	0.2	4	5	399	0.3	399	400	16.9	97.7
2025-07-15T05:22	10	5	0.2	4	5	400	0.3	399	400	16.9	97.5
2025-07-15T05:23	10	5	0.2	5	5	400	0.2	399	400	16.9	96.6
2025-07-15T05:24	10	6	0.2	5	6	400	0.3	400	401	17.0	96.4
2025-07-15T05:25	10	6	0.2	6	7	400	0.3	400	401	17.0	96.6
2025-07-15T05:26	10	7	0.2	6	7	401	0.2	400	401	17.0	96.3
2025-07-15T05:27	10	7	0.2	7	8	401	0.3	400	401	17.0	96.4
2025-07-15T05:28	10	8	0.2	8	8	401	0.2	400	401	17.0	96.6
2025-07-15T05:29	10	9	0.2	8	9	401	0.2	401	402	17.1	96.7
2025-07-15T05:30	10	9	0.1	9	9	402	0.2	401	402	17.1	96.6
2025-07-15T05:31	10	9	0.1	9	9	402	0.3	401	402	17.1	96.1
2025-07-15T05:32	10	9	0.1	9	9	402	0.3	402	403	17.2	95.6
2025-07-15T05:33	10	9	0.1	9	9	402	0.2	402	403	17.3	94.7
2025-07-15T05:34	10	9	0.1	9	9	402	0.3	402	403	17.3	94.7
2025-07-15T05:35	10	9	0.1	9	9	403	0.2	402	403	17.3	94.7
2025-07-15T05:36	10	9	0.1	9	10	402	0.2	402	403	17.3	93.8
2025-07-15T05:37	10	10	0.1	9	10	403	0.2	402	403	17.4	93.7
2025-07-15T05:38	10	10	0.2	10	11	403	0.3	402	404	17.4	94.2
2025-07-15T05:39	10	11	0.2	10	11	403	0.3	403	404	17.4	94.3
2025-07-15T05:40	10	11	0.1	11	11	404	0.3	403	404	17.4	94.5
2025-07-15T05:41	10	11	0.2	11	12	404	0.2	404	405	17.4	94.9
2025-07-15T05:42	10	12	0.2	12	12	405	0.2	404	405	17.4	93.1
2025-07-15T05:43	10	12	0.2	12	13	405	0.2	404	405	17.5	93.2
2025-07-15T05:44	10	13	0.2	13	13	405	0.2	405	405	17.5	93.7
2025-07-15T05:45	10	13	0.1	13	14	405	0.3	405	406	17.5	93.5
2025-07-15T05:46	10	13	0.1	13	14	405	0.2	405	406	17.6	93.6
2025-07-15T05:47	10	14	0.1	13	14	406	0.2	405	406	17.6	93.2
2025-07-15T05:48	10	14	0.2	14	14	406	0.3	405	406	17.6	93.1
2025-07-15T05:49	10	14	0.1	14	15	405	0.2	405	406	17.7	91.2
2025-07-15T05:50	10	14	0.1	14	15	406	0.3	405	406	17.8	90.3
2025-07-15T05:51	10	14	0.1	14	14	406	0.2	405	406	17.8	90.7
2025-07-15T05:52	10	14	0.1	14	14	406	0.2	406	407	17.8	91.4
2025-07-15T05:53	10	14	0.1	14	14	406	0.2	406	407	17.8	92.1
2025-07-15T05:54	10	14	0.2	14	14	406	0.3	406	407	17.8	91.7
2025-07-15T05:55	10	13	0.3	13	14	406	0.3	406	407	17.8	92.4
2025-07-15T05:56	10	12	0.2	12	13	407	0.2	406	407	17.8	92.5
2025-07-15T05:57	10	11	0.2	11	12	407	0.3	406	407	17.8	93.0
2025-07-15T05:58	10	11	0.1	11	11	407	0.3	406	407	17.9	92.8
2025-07-15T05:59	10	12	0.3	11	12	407	0.3	406	407	17.9	91.8
2025-07-15T06:00	10	13	0.4	12	14	407	0.2	406	407	17.9	91.3
2025-07-15T06:01	10	14	0.5	13	15	407	0.2	406	407	17.9	91.7
2025-07-15T06:02	10	16	0.5	15	17	407	0.2	407	408	17.9	92.1
2025-07-15T06:03	10	17	0.3	16	18	408	0.3	407	409	17.9	92.4
2025-07-15T06:04	10	18	0.4	17	19	409	0.2	408	409	17.9	92.3
2025-07-15T06:05	10	19	0.3	19	20	409	0.2	408	409	18.0	91.7
2025-07-15T06:06	10	20	0.1	19	20	409	0.2	408	409	18.0	91.7
2025-07-15T06:07	10	20	0.3	20	21	409	0.2	408	409	18.0	90.9
2025-07-15T06:08	10	21	1.0	20	24	409	0.2	409	410	18.0	91.3
2025-07-15T06:09	10	20	0.2	20	21	410	0.2	409	410	18.1	91.0
2025-07-15T06:10	10	19	0.6	18	20	409	0.2	409	410	18.1	90.7
2025-07-15T06:11	10	17	0.6	16	18	409	0.3	409	410	18.1	91.2
2025-07-15T06:12	10	15	0.3	15	16	409	0.4	408	409	18.1	91.6
2025-07-15T06:13	10	15	0.3	15	16	408	0.3	408	409	18.1	90.4
2025-07-15T06:14	10	17	0.4	16	18	408	0.3	408	409	18.1	90.1
2025-07-15T06:15	10	18	0.4	18	19	408	0.2	408	409	18.2	90.2
2025-07-15T06:16	10	20	0.4	19	20	409	0.2	408	409	18.2	90.3
2025-07-15T06:17	10	21	0.1	20	21	409	0.2	408	409	18.2	90.5
2025-07-15T06:18	10	20	0.3	20	21	409	0.2	409	410	18.1	91.7
2025-07-15T06:19	10	19	0.4	18	20	409	0.2	409	410	18.1	92.0
2025-07-15T06:20	10	18	0.3	17	18	409	0.2	408	409	18.1	92.7
2025-07-15T06:21	10	17	0.2	17	17	409	0.3	408	410	18.1	93.2
2025-07-15T06:22	10	17	0.1	16	17	409	0.3	408	410	18.1	93.6
2025-07-15T06:23	10	17	0.4	17	18	409	0.3	409	410	18.0	93.3
2025-07-15T06:24	10	19	0.7	18	21	409	0.3	409	410	18.1	91.6
2025-07-15T06:25	10	22	0.9	20	24	410	0.4	409	411	18.2	91.6
2025-07-15T06:26	10	25	0.5	24	25	411	0.5	410	412	18.2	91.6
2025-07-15T06:27	10	25	0.1	25	25	412	0.2	411	412	18.3	92.0
2025-07-15T06:28	10	25	0.1	25	25	412	0.3	411	412	18.4	90.5
2025-07-15T06:29	10	26	0.3	25	26	412	0.2	411	412	18.4	90.4
2025-07-15T06:30	10	27	0.2	26	27	412	0.2	411	412	18.5	88.4
2025-07-15T06:31	10	27	0.1	27	27	412	0.3	411	413	18.5	89.1
2025-07-15T06:32	10	27	0.2	26	27	412	0.2	412	413	18.5	88.7
2025-07-15T06:33	10	26	0.2	26	27	412	0.2	411	412	18.5	88.4
2025-07-15T06:34	10	27	0.2	27	28	412	0.3	411	413	18.6	88.3
2025-07-15T06:35	10	28	0.4	28	29	412	0.3	412	413	18.6	90.0
2025-07-15T06:36	10	30	0.4	29	30	413	0.2	412	413	18.5	89.8
2025-07-15T06:37	10	31	0.5	30	32	413	0.3	413	414	18.5	89.4
2025-07-15T06:38	10	32	0.1	32	32	414	0.2	413	414	18.5	90.2
2025-07-15T06:39	10	32	0.1	32	32	414	0.2	413	414	18.4	91.2
2025-07-15T06:40	10	33	0.3	32	33	414	0.3	413	414	18.4	92.5
2025-07-15T06:41	10	34	0.3	33	34	415	0.4	414	415	18.4	93.4
2025-07-15T06:42	10	33	0.6	32	34	415	0.3	414	415	18.4	94.1
2025-07-15T06:43	10	31	0.9	29	32	414	0.2	414	415	18.4	94.6
2025-07-15T06:44	10	30	0.5	29	31	414	0.3	414	415	18.3	95.0
2025-07-15T06:45	10	31	0.5	30	32	414	0.3	414	415	18.3	95.3
2025-07-15T06:46	10	33	0.5	32	34	415	0.2	414	416	18.3	95.8
2025-07-15T06:47	10	35	0.5	34	36	416	0.3	415	416	18.3	95.5
2025-07-15T06:48	10	35	0.3	35	36	415	0.3	415	416	18.2	94.9
2025-07-15T06:49	10	35	0.5	35	36	415	0.4	414	415	18.2	95.4
2025-07-15T06:50	10	36	0.8	35	38	415	0.5	414	416	18.1	95.3
2025-07-15T06:51	10	34	0.7	33	35	416	0.2	415	416	18.3	95.5
2025-07-15T06:52	10	30	1.6	27	33	415	0.6	414	416	18.3	95.2
2025-07-15T06:53	10	25	1.1	24	28	414	0.4	413	415	18.2	92.8
2025-07-15T06:54	10	24	0.1	23	24	413	0.3	413	414	18.2	93.8
2025-07-15T06:55	10	24	0.2	24	24	413	0.2	412	413	18.2	93.9
2025-07-15T06:56	10	25	0.2	24	25	413	0.2	412	413	18.3	93.7
2025-07-15T06:57	10	25	0.1	24	25	413	0.3	413	414	18.3	93.4
2025-07-15T06:58	10	25	0.3	24	25	413	0.3	413	414	18.4	93.5
2025-07-15T06:59	10	27	0.8	25	28	413	0.3	412	414	18.3	93.2
2025-07-15T07:00	10	31	1.3	29	33	414	0.4	413	415	18.4	93.3
2025-07-15T07:01	10	34	0.7	33	35	414	0.2	414	415	18.3	93.1
2025-07-15T07:02	10	35	0.1	35	36	415	0.2	415	416	18.4	93.2
2025-07-15T07:03	10	37	0.8	36	38	415	0.3	415	416	18.4	92.7
2025-07-15T07:04	10	40	0.7	38	40	416	0.3	415	417	18.4	92.6
2025-07-15T07:05	10	41	0.5	40	42	417	0.3	416	417	18.5	92.9
2025-07-15T07:06	10	43	0.8	42	45	418	0.4	417	418	18.5	92.6
2025-07-15T07:07	10	46	0.6	45	47	418	0.3	418	419	18.5	91.9
2025-07-15T07:08	10	47	0.2	47	47	419	0.5	418	420	18.5	92.3
2025-07-15T07:09	10	46	0.3	46	47	419	0.5	418	420	18.5	91.2
2025-07-15T07:10	10	45	0.4	44	46	418	0.2	418	419	18.6	91.4
2025-07-15T07:11	10	44	0.2	44	45	418	0.2	418	419	18.6	91.5
2025-07-15T07:12	10	46	0.6	45	47	419	0.2	419	420	18.7	92.0
2025-07-15T07:13	10	48	0.7	47	49	420	0.4	419	421	18.7	92.2
2025-07-15T07:14	10	49	0.2	49	50	420	0.2	420	421	18.8	92.6
2025-07-15T07:15	10	49	1.4	47	52	421	0.2	420	421	18.7	92.5
2025-07-15T07:16	10	44	1.4	41	47	421	0.3	420	421	18.7	92.1
2025-07-15T07:17	10	40	0.8	39	41	420	0.5	419	421	18.8	92.5
2025-07-15T07:18	10	38	0.4	37	39	420	0.3	419	420	18.8	92.5
2025-07-15T07:19	10	37	0.2	37	38	420	0.2	419	420	18.8	91.7
2025-07-15T07:20	10	37	0.3	36	38	419	0.4	418	420	18.9	91.0
2025-07-15T07:21	10	36	0.3	36	37	418	0.5	417	419	18.9	90.5
2025-07-15T07:22	10	35	0.5	34	36	418	0.2	417	418	18.9	90.4
2025-07-15T07:23	10	34	0.4	33	34	417	0.5	416	418	18.9	89.5
2025-07-15T07:24	10	33	0.1	33	33	417	0.2	416	417	18.9	88.8
2025-07-15T07:25	10	33	0.1	33	33	417	0.3	416	418	19.0	90.0
2025-07-15T07:26	10	34	0.6	33	35	416	0.4	416	418	19.0	88.7
2025-07-15T07:27	10	36	0.8	35	38	417	0.2	416	417	19.0	88.6
2025-07-15T07:28	10	40	1.2	38	42	418	0.5	417	419	19.0	89.5
2025-07-15T07:29	10	44	1.3	42	46	419	0.6	418	421	19.0	90.2
2025-07-15T07:30	10	48	1.3	46	50	420	0.3	420	421	19.1	89.7
2025-07-15T07:31	10	52	1.0	50	54	421	0.3	421	422	19.1	89.3
2025-07-15T07:32	10	54	0.3	54	55	421	0.3	421	422	19.1	88.1
2025-07-15T07:33	10	55	1.5	53	59	423	0.5	422	424	19.1	89.6
2025-07-15T07:34	10	50	0.8	49	53	423	0.2	423	424	19.2	89.9
2025-07-15T07:35	10	52	1.1	51	54	422	0.5	421	423	19.2	88.3
2025-07-15T07:36	10	55	0.6	54	56	422	0.3	421	422	19.2	87.3
2025-07-15T07:37	10	57	0.7	56	59	423	0.4	422	424	19.3	88.4
2025-07-15T07:38	10	60	0.8	59	61	424	0.3	423	424	19.3	88.3
2025-07-15T07:39	10	62	0.5	61	63	424	0.3	424	425	19.4	88.0
2025-07-15T07:40	10	63	0.1	62	63	425	0.3	424	425	19.4	87.4
2025-07-15T07:41	10	61	0.6	61	63	425	0.2	425	426	19.4	88.4
2025-07-15T07:42	10	65	4.2	61	74	424	0.5	423	426	19.4	87.2
2025-07-15T07:43	10	67	2.5	64	71	425	0.2	425	426	19.3	87.3
2025-07-15T07:44	10	60	1.9	58	66	425	0.3	424	426	19.3	87.0
2025-07-15T07:45	10	57	0.7	55	58	424	0.5	423	425	19.4	86.5
2025-07-15T07:46	10	53	1.4	50	55	422	0.5	421	423	19.3	85.5
2025-07-15T07:47	10	47	1.7	44	50	422	0.2	422	423	19.4	87.0
2025-07-15T07:48	10	42	0.9	41	44	421	0.7	420	422	19.4	86.6
2025-07-15T07:49	10	40	0.7	39	41	420	0.5	419	421	19.4	86.5
2025-07-15T07:50	10	38	0.2	38	39	420	0.2	419	420	19.5	87.0
2025-07-15T07:51	10	39	0.5	38	40	419	0.4	418	420	19.5	86.0
2025-07-15T07:52	10	42	1.1	40	44	419	0.5	418	420	19.5	86.1
2025-07-15T07:53	10	45	0.4	44	45	420	0.6	419	422	19.4	86.4
2025-07-15T07:54	10	45	0.2	44	45	421	0.3	420	422	19.5	86.0
2025-07-15T07:55	10	58	15.1	45	84	421	0.8	421	423	19.5	85.2
2025-07-15T07:56	10	53	7.6	48	77	422	0.5	421	423	19.5	85.1
2025-07-15T07:57	10	46	1.1	45	48	422	0.7	420	423	19.6	85.9
2025-07-15T07:58	10	45	0.3	45	46	420	0.3	420	421	19.6	84.3
2025-07-15T07:59	10	48	1.2	46	49	421	0.4	420	421	19.6	84.4
2025-07-15T08:00	10	51	0.9	49	52	422	0.4	421	422	19.6	85.0
2025-07-15T08:01	10	72	28.2	52	141	424	1.7	422	428	19.7	84.6
2025-07-15T08:02	10	74	28.8	58	146	427	1.7	425	430	19.8	84.2
2025-07-15T08:03	10	66	8.6	58	92	425	0.5	424	426	19.8	82.5
2025-07-15T08:04	10	130	22.5	65	146	431	3.6	424	435	19.9	82.5
2025-07-15T08:05	10	128	13.0	99	142	434	1.2	433	437	20.0	81.4
2025-07-15T08:06	10	141	3.2	130	143	437	1.0	436	439	20.1	81.0
2025-07-15T08:07	10	125	14.9	99	147	437	2.4	434	441	20.2	80.9
2025-07-15T08:08	10	136	14.3	110	153	437	1.6	436	441	20.3	81.0
2025-07-15T08:09	10	136	18.7	98	161	441	0.6	440	442	20.4	81.1
2025-07-15T08:10	10	89	3.4	85	97	438	2.3	435	443	20.5	79.9
2025-07-15T08:11	10	81	1.9	78	85	434	1.3	431	437	20.4	80.1
2025-07-15T08:12	10	76	1.4	74	78	432	0.2	432	433	20.4	79.6
2025-07-15T08:13	10	73	0.7	72	74	432	0.7	430	433	20.4	79.7
2025-07-15T08:14	10	73	2.7	71	81	430	0.4	430	432	20.4	78.6
2025-07-15T08:15	10	80	4.4	75	93	432	0.5	430	433	20.4	78.3
2025-07-15T08:16	10	67	2.2	65	74	432	1.0	430	433	20.5	79.5
2025-07-15T08:17	10	64	0.4	63	65	431	0.3	430	432	20.5	78.9
2025-07-15T08:18	10	62	0.5	62	63	430	0.9	428	431	20.5	77.9
2025-07-15T08:19	10	63	1.2	62	66	430	0.3	429	430	20.5	77.4
2025-07-15T08:20	10	63	0.2	63	64	429	0.7	428	430	20.5	75.2
2025-07-15T08:21	10	67	1.9	64	70	429	0.4	428	430	20.5	76.3
2025-07-15T08:22	10	77	8.4	70	100	431	1.0	429	432	20.5	77.4
2025-07-15T08:23	10	74	1.2	72	77	431	0.5	430	432	20.5	77.8
2025-07-15T08:24	10	86	8.9	77	107	432	1.2	431	435	20.5	78.5
2025-07-15T08:25	10	130	11.5	108	153	438	1.9	433	441	20.6	77.6
2025-07-15T08:26	10	90	12.6	81	144	438	1.8	435	442	20.6	76.4
2025-07-15T08:27	10	89	14.1	73	114	437	1.0	435	438	20.7	75.9
2025-07-15T08:28	10	90	16.9	74	130	434	0.9	433	436	20.7	74.3
2025-07-15T08:29	10	75	16.5	55	105	434	1.4	431	436	20.6	74.9
2025-07-15T08:30	10	50	2.3	47	55	431	1.2	429	433	20.7	75.1
2025-07-15T08:31	10	47	0.3	46	47	429	0.6	428	430	20.7	74.4
2025-07-15T08:32	10	47	0.3	47	48	428	0.7	426	429	20.6	74.8
2025-07-15T08:33	10	48	0.4	48	49	426	0.5	425	427	20.5	73.3
2025-07-15T08:34	10	50	0.5	49	51	426	0.6	425	427	20.5	74.3
2025-07-15T08:35	10	53	1.5	51	56	427	0.3	427	428	20.5	74.7
2025-07-15T08:36	10	59	2.0	56	63	427	0.4	427	428	20.5	74.4
2025-07-15T08:37	10	65	1.2	63	67	429	1.1	428	431	20.6	74.9
2025-07-15T08:38	10	67	0.7	66	68	431	0.7	430	433	20.7	75.6
2025-07-15T08:39	10	72	6.9	64	84	433	0.6	432	434	20.8	77.4
2025-07-15T08:40	10	64	0.6	63	65	432	0.4	432	433	20.8	74.8
2025-07-15T08:41	10	60	1.5	58	62	432	0.4	431	433	20.8	75.5
2025-07-15T08:42	10	55	1.0	54	58	430	0.5	429	431	20.8	73.8
2025-07-15T08:43	10	59	4.8	54	72	430	0.4	430	431	20.8	74.3
2025-07-15T08:44	10	75	14.8	59	103	431	1.0	429	432	20.8	74.1
2025-07-15T08:45	10	64	3.0	61	71	431	0.3	431	432	20.8	74.6
2025-07-15T08:46	10	68	1.8	66	73	432	0.3	431	433	20.8	74.2
2025-07-15T08:47	10	99	25.0	70	162	435	2.5	432	441	20.9	74.2
2025-07-15T08:48	10	121	37.6	80	186	441	1.7	438	444	20.9	74.7
2025-07-15T08:49	10	84	3.6	79	93	438	0.8	436	439	20.9	73.3
2025-07-15T08:50	10	79	1.0	78	82	435	0.9	434	437	20.9	73.4
2025-07-15T08:51	10	89	4.8	83	104	436	0.9	435	438	20.9	73.5
2025-07-15T08:52	10	110	24.2	90	171	440	1.9	437	443	21.0	73.5
2025-07-15T08:53	10	159	33.0	92	194	444	4.9	436	450	21.0	71.4
2025-07-15T08:54	10	149	32.4	105	198	451	2.0	446	453	21.2	73.2
2025-07-15T08:55	10	151	35.5	104	204	448	3.3	443	454	21.4	71.2
2025-07-15T08:56	10	192	19.6	134	207	454	2.0	451	457	21.4	69.0
2025-07-15T08:57	10	190	17.4	143	203	456	1.9	453	459	21.5	72.1
2025-07-15T08:58	10	162	20.4	116	191	457	0.9	455	458	21.5	71.7
2025-07-15T08:59	10	117	12.7	101	149	451	3.5	446	458	21.8	70.6
2025-07-15T09:00	10	166	22.6	104	197	450	2.3	446	454	21.5	67.9
2025-07-15T09:01	10	132	43.6	78	200	451	3.1	444	455	21.5	67.6
2025-07-15T09:02	10	75	1.0	75	78	442	1.5	440	446	21.4	65.7
2025-07-15T09:03	10	75	2.8	72	82	440	1.1	438	441	21.4	68.1
2025-07-15T09:04	10	69	1.3	67	72	437	0.9	436	439	21.3	66.8
2025-07-15T09:05	10	66	0.7	65	67	437	0.4	436	438	21.4	67.5
2025-07-15T09:06	10	65	0.2	65	65	437	0.4	436	438	21.5	67.5
2025-07-15T09:07	10	67	0.6	65	67	436	1.0	434	438	21.6	65.4
2025-07-15T09:08	10	69	0.8	68	70	435	0.6	434	436	21.6	63.7
2025-07-15T09:09	10	72	1.0	70	73	436	0.8	435	437	21.6	63.4
2025-07-15T09:10	10	77	3.1	74	86	437	1.2	435	438	21.5	64.0
2025-07-15T09:11	10	76	1.0	75	79	437	0.6	436	438	21.6	64.0
2025-07-15T09:12	10	83	2.3	79	87	437	0.8	435	438	21.5	63.7
2025-07-15T09:13	10	120	29.4	84	162	442	3.8	437	448	21.6	63.5
2025-07-15T09:14	10	139	23.1	104	180	449	2.1	445	451	21.7	63.8
2025-07-15T09:15	10	139	28.5	99	181	449	2.4	446	452	21.7	63.0
2025-07-15T09:16	10	101	10.4	90	126	446	1.0	444	448	21.8	63.8
2025-07-15T09:17	10	87	4.1	81	96	443	1.1	441	446	21.8	62.7
2025-07-15T09:18	10	78	1.5	77	82	440	1.1	439	442	21.7	63.8
2025-07-15T09:19	10	84	7.9	78	107	440	0.5	439	441	21.6	63.8
2025-07-15T09:20	10	78	7.7	73	104	439	0.4	439	441	21.6	64.8
2025-07-15T09:21	10	71	0.7	70	73	439	0.3	438	440	21.6	64.9
2025-07-15T09:22	10	70	0.3	70	70	438	0.7	437	440	21.5	64.8
2025-07-15T09:23	10	71	0.6	70	72	439	0.6	438	440	21.5	64.0
2025-07-15T09:24	10	69	5.2	65	82	439	0.5	438	440	21.6	65.9
2025-07-15T09:25	10	70	4.3	65	80	439	0.3	438	439	21.8	65.7
2025-07-15T09:26	10	72	5.6	66	85	439	0.6	439	441	21.7	64.6
2025-07-15T09:27	10	72	0.3	72	73	440	0.4	439	440	21.9	67.1
2025-07-15T09:28	10	76	2.3	73	80	440	0.5	439	441	21.9	64.8
2025-07-15T09:29	10	92	10.7	81	126	441	1.2	439	443	21.7	64.4
2025-07-15T09:30	10	81	0.8	80	83	441	0.3	440	442	21.7	66.0
2025-07-15T09:31	10	76	1.6	74	80	439	0.9	438	441	21.8	64.5
2025-07-15T09:32	10	75	0.8	74	77	439	0.8	438	441	21.7	64.6
2025-07-15T09:33	10	84	6.0	77	97	441	1.0	439	443	21.7	64.6
2025-07-15T09:34	10	132	31.3	97	182	447	4.3	442	454	21.7	65.0
2025-07-15T09:35	10	123	9.2	106	142	450	0.9	448	452	21.8	63.4
2025-07-15T09:36	10	98	9.8	89	117	449	1.5	447	451	21.9	64.3
2025-07-15T09:37	10	117	30.2	88	180	450	2.4	446	453	22.0	64.7
2025-07-15T09:38	10	105	31.2	72	174	451	2.5	446	455	22.1	61.9
2025-07-15T09:39	10	69	2.3	67	76	445	1.4	443	447	22.0	62.0
2025-07-15T09:40	10	61	4.0	56	72	443	1.0	441	445	22.1	63.3
2025-07-15T09:41	10	54	1.3	52	56	439	1.2	438	442	22.1	64.1
2025-07-15T09:42	10	51	0.6	50	52	438	0.2	438	439	22.1	64.6
2025-07-15T09:43	10	49	0.2	49	50	438	1.0	436	439	22.2	64.9
2025-07-15T09:44	10	50	0.2	49	50	435	0.6	435	437	22.0	62.8
2025-07-15T09:45	10	49	0.6	48	50	435	0.2	434	435	21.9	63.8
2025-07-15T09:46	10	48	0.2	48	49	435	0.2	435	436	21.9	64.4
2025-07-15T09:47	10	49	0.5	48	50	436	0.3	435	436	21.9	65.1
2025-07-15T09:48	10	51	0.5	50	52	436	0.3	436	437	21.9	64.7
2025-07-15T09:49	10	52	0.3	52	53	437	0.6	436	438	22.0	65.7
2025-07-15T09:50	10	52	0.2	51	52	438	0.3	437	439	22.1	64.5
2025-07-15T09:51	10	51	0.1	51	52	437	0.7	436	438	22.1	62.6
2025-07-15T09:52	10	52	0.5	51	53	436	0.3	435	437	22.0	63.3
2025-07-15T09:53	10	52	0.3	52	53	436	0.4	435	436	21.9	64.6
2025-07-15T09:54	10	52	0.1	52	52	436	0.3	435	437	21.9	64.7
2025-07-15T09:55	10	53	0.6	52	54	436	0.2	435	436	22.0	65.0
2025-07-15T09:56	10	53	0.6	52	54	435	0.3	435	436	21.9	64.2
2025-07-15T09:57	10	53	1.3	52	56	436	0.5	435	437	21.9	65.1
2025-07-15T09:58	10	60	1.8	56	62	437	0.6	437	439	22.0	62.8
2025-07-15T09:59	10	61	0.4	60	62	438	0.2	438	438	22.0	61.6
2025-07-15T10:00	10	62	0.9	60	63	438	0.5	437	439	22.0	61.1
2025-07-15T10:01	10	64	0.6	63	65	439	0.5	439	440	22.1	62.4
2025-07-15T10:02	10	65	0.1	65	65	440	0.3	440	441	22.1	62.2
2025-07-15T10:03	10	66	0.6	65	67	440	0.3	439	440	22.2	60.4
2025-07-15T10:04	10	67	0.4	66	68	440	0.6	439	441	22.2	60.4
2025-07-15T10:05	10	63	2.0	60	66	440	0.9	438	441	22.4	60.8
2025-07-15T10:06	10	58	0.8	57	60	438	0.3	438	439	22.3	60.5
2025-07-15T10:07	10	57	0.1	56	57	438	0.3	437	439	22.3	61.7
2025-07-15T10:08	10	58	1.1	57	60	438	0.3	438	439	22.3	64.3
2025-07-15T10:09	10	60	0.5	59	61	438	0.3	438	439	22.3	62.7
2025-07-15T10:10	10	63	1.3	61	65	439	0.6	438	440	22.3	62.4
2025-07-15T10:11	10	68	1.2	65	70	441	0.5	440	442	22.3	62.8
2025-07-15T10:12	10	68	1.0	66	69	441	0.3	440	442	22.4	58.3
2025-07-15T10:13	10	64	1.6	61	66	439	1.1	438	441	22.4	62.5
2025-07-15T10:14	10	59	1.3	56	62	437	0.6	436	439	22.4	62.5
2025-07-15T10:15	10	55	0.7	54	57	437	0.2	436	437	22.4	62.5
2025-07-15T10:16	10	54	0.2	53	54	437	0.4	436	437	22.4	62.5
2025-07-15T10:17	10	55	0.7	54	56	437	0.3	436	437	22.4	62.5
2025-07-15T10:18	10	58	1.3	56	60	437	0.3	436	437	22.4	62.5
2025-07-15T10:19	10	64	6.0	60	90	437	0.5	436	439	22.3	62.2
2025-07-15T10:20	10	75	18.2	59	108	441	0.9	438	442	22.2	61.3
2025-07-15T10:21	10	56	1.7	53	59	440	0.4	439	441	22.3	65.2
2025-07-15T10:22	10	50	1.5	48	53	438	0.5	437	439	22.4	63.3
2025-07-15T10:23	10	47	0.5	46	48	438	0.3	437	439	22.4	64.0
2025-07-15T10:24	10	48	0.9	47	50	437	0.4	436	438	22.4	63.5
2025-07-15T10:25	10	52	0.8	50	53	436	0.3	435	437	22.4	63.2
2025-07-15T10:26	10	50	0.7	49	52	437	0.3	436	437	22.3	64.6
2025-07-15T10:27	10	48	0.3	48	49	436	0.7	435	437	22.4	63.7
2025-07-15T10:28	10	48	0.3	47	48	435	0.2	435	435	22.3	62.0
2025-07-15T10:29	10	46	0.4	46	47	436	0.4	435	437	22.3	63.5
2025-07-15T10:30	10	45	0.4	44	46	435	0.4	434	436	22.4	63.3
2025-07-15T10:31	10	44	0.4	43	44	435	0.3	434	435	22.5	61.6
2025-07-15T10:32	10	43	0.2	42	43	434	0.6	433	435	22.6	60.7
2025-07-15T10:33	10	42	0.1	42	43	434	0.3	433	434	22.6	61.4
2025-07-15T10:34	10	43	0.4	43	44	434	0.3	433	435	22.5	60.1
2025-07-15T10:35	10	45	0.9	44	47	434	0.3	434	435	22.6	60.3
2025-07-15T10:36	10	46	1.2	45	48	435	0.3	435	436	22.6	60.1
2025-07-15T10:37	10	44	0.6	43	45	434	0.4	433	435	22.6	58.8
2025-07-15T10:38	10	42	0.3	42	43	434	0.3	433	434	22.6	59.6
2025-07-15T10:39	10	41	0.3	41	42	433	0.2	432	433	22.5	59.0
2025-07-15T10:40	10	41	0.3	41	42	432	0.3	431	433	22.5	57.6
2025-07-15T10:41	10	44	1.3	42	46	433	0.5	432	434	22.5	59.2
2025-07-15T10:42	10	50	2.2	46	54	433	0.4	432	434	22.5	58.4
2025-07-15T10:43	10	56	1.1	53	57	435	1.0	433	437	22.5	59.7
2025-07-15T10:44	10	60	2.2	57	64	436	0.4	435	437	22.5	58.5
2025-07-15T10:45	10	76	10.0	64	93	438	1.7	436	442	22.5	59.9
2025-07-15T10:46	10	97	3.5	91	104	443	0.9	441	444	22.6	59.1
2025-07-15T10:47	10	85	4.8	80	95	443	0.5	442	443	22.6	58.5
2025-07-15T10:48	10	79	0.6	78	80	443	0.4	442	444	22.6	58.3
2025-07-15T10:49	10	82	6.8	72	100	443	0.5	442	444	22.7	57.4
2025-07-15T10:50	10	72	1.8	71	78	441	0.5	441	443	22.7	57.4
2025-07-15T10:51	10	94	12.6	78	128	444	1.6	440	446	22.6	56.5
2025-07-15T10:52	10	74	2.5	71	80	443	1.0	442	445	22.6	57.2
2025-07-15T10:53	10	68	1.6	66	71	442	0.3	441	443	22.6	57.3
2025-07-15T10:54	10	63	1.3	61	65	441	0.6	440	442	22.6	57.4
2025-07-15T10:55	10	59	1.1	57	61	440	0.3	439	441	22.6	57.1
2025-07-15T10:56	10	57	0.4	56	57	439	0.4	438	440	22.6	57.6
2025-07-15T10:57	10	57	1.0	56	59	439	0.3	438	440	22.6	57.8
2025-07-15T10:58	10	63	2.6	59	68	440	0.6	439	441	22.6	58.3
2025-07-15T10:59	10	75	4.4	68	83	442	0.9	440	444	22.7	59.4
2025-07-15T11:00	10	99	7.9	83	111	446	1.6	443	448	22.9	58.5
2025-07-15T11:01	10	105	2.8	101	113	448	1.0	446	450	23.0	58.6
2025-07-15T11:02	10	110	3.8	106	121	449	0.6	448	451	23.0	55.5
2025-07-15T11:03	10	131	3.4	122	136	453	1.7	450	456	23.3	55.2
2025-07-15T11:04	10	97	12.1	84	125	449	3.7	445	456	23.3	53.7
2025-07-15T11:05	10	79	2.8	74	84	444	1.5	442	447	23.3	54.1
2025-07-15T11:06	10	70	2.3	66	74	442	1.4	439	444	23.3	53.8
2025-07-15T11:07	10	64	1.2	62	67	438	0.6	437	440	23.2	53.9
2025-07-15T11:08	10	63	0.5	62	64	437	0.4	436	438	23.2	54.4
2025-07-15T11:09	10	68	2.3	64	72	437	0.6	436	439	23.2	54.5
2025-07-15T11:10	10	79	4.6	72	89	440	0.9	438	441	23.3	54.5
2025-07-15T11:11	10	133	22.0	89	187	446	3.8	440	454	23.2	54.4
2025-07-15T11:12	10	206	14.5	176	223	462	4.7	451	468	23.3	55.0
2025-07-15T11:13	10	191	15.0	156	219	466	0.7	465	468	23.6	54.8
2025-07-15T11:14	10	201	7.4	184	210	471	1.7	468	473	23.8	54.5
2025-07-15T11:15	10	193	21.5	143	211	472	1.3	469	474	23.6	53.9
2025-07-15T11:16	10	94	39.5	72	205	464	6.9	452	475	23.9	54.6
2025-07-15T11:17	10	70	0.8	70	72	451	2.5	448	456	23.6	54.1
2025-07-15T11:18	10	78	7.5	70	94	449	0.5	448	450	23.6	54.6
2025-07-15T11:19	10	141	43.3	89	206	455	3.9	449	464	23.6	54.4
2025-07-15T11:20	10	199	2.6	191	202	466	1.9	461	468	23.6	54.5
2025-07-15T11:21	10	182	12.3	146	198	469	0.7	467	470	23.8	54.0
2025-07-15T11:22	10	115	18.1	85	147	465	2.1	463	471	24.0	54.4
2025-07-15T11:23	10	134	17.1	103	161	463	1.8	461	466	24.1	53.8
2025-07-15T11:24	10	85	21.3	72	145	457	4.4	452	465	23.9	53.3
2025-07-15T11:25	10	145	57.7	77	218	458	6.9	452	471	23.9	54.0
2025-07-15T11:26	10	150	35.9	97	211	464	4.8	456	470	24.0	52.8
2025-07-15T11:27	10	196	30.3	119	215	469	3.2	462	473	24.0	52.5
2025-07-15T11:28	10	148	51.3	87	215	466	3.3	461	472	24.1	52.2
2025-07-15T11:29	10	140	32.2	91	188	460	1.5	458	463	24.0	52.2
2025-07-15T11:30	10	194	3.4	181	197	469	3.6	461	473	23.7	51.6
2025-07-15T11:31	10	189	4.8	180	194	473	1.7	471	476	24.0	52.6
2025-07-15T11:32	10	166	31.3	101	198	471	4.7	462	476	23.9	51.1
2025-07-15T11:33	10	155	44.0	82	206	466	3.1	460	471	23.9	51.6
2025-07-15T11:34	10	86	10.0	72	106	457	3.1	452	463	23.9	51.2
2025-07-15T11:35	10	81	11.3	72	111	452	1.3	451	455	23.8	51.4
2025-07-15T11:36	10	94	24.6	65	133	456	2.2	453	460	24.0	52.3
2025-07-15T11:37	10	72	18.6	58	115	450	3.4	444	454	23.7	53.0
2025-07-15T11:38	10	58	0.3	57	58	443	1.9	441	446	23.3	53.8
2025-07-15T11:39	10	60	1.5	58	63	441	0.4	440	442	23.4	54.1
2025-07-15T11:40	10	65	1.5	63	70	442	0.3	441	443	23.6	54.0
2025-07-15T11:41	10	88	28.2	68	154	443	2.5	441	448	23.6	53.5
2025-07-15T11:42	10	59	4.0	56	77	441	2.3	438	447	23.3	53.1
2025-07-15T11:43	10	58	1.1	57	61	440	0.5	439	441	23.4	53.5
2025-07-15T11:44	10	74	12.7	61	106	442	2.3	439	446	23.5	53.4
2025-07-15T11:45	10	74	2.5	70	78	443	0.4	442	444	23.4	53.1
2025-07-15T11:46	10	68	2.0	66	72	444	0.4	443	445	23.5	53.5
2025-07-15T11:47	10	69	3.4	66	79	443	0.9	441	444	23.6	53.5
2025-07-15T11:48	10	66	2.8	63	74	440	1.1	438	442	23.4	53.1
2025-07-15T11:49	10	65	0.5	64	66	439	0.4	438	439	23.3	52.9
2025-07-15T11:50	10	65	0.3	64	65	439	0.6	438	440	23.4	53.2
2025-07-15T11:51	10	65	0.6	64	67	440	0.3	439	440	23.5	53.3
2025-07-15T11:52	10	72	4.5	67	81	440	1.1	438	442	23.5	52.8
2025-07-15T11:53	10	92	14.7	75	124	444	2.8	440	448	23.6	53.0
2025-07-15T11:54	10	121	22.3	90	164	447	1.8	445	450	23.6	52.5
2025-07-15T11:55	10	100	2.5	98	112	448	0.7	447	450	23.5	52.6
2025-07-15T11:56	10	116	22.2	96	182	452	2.7	448	457	23.6	52.6
2025-07-15T11:57	10	94	0.9	93	96	452	0.3	451	452	23.6	52.2
2025-07-15T11:58	10	93	0.2	92	93	451	0.8	449	452	23.8	52.4
2025-07-15T11:59	10	95	3.1	92	107	450	0.6	449	452	23.7	52.8
2025-07-15T12:00	10	125	43.9	86	215	454	3.6	449	461	23.8	52.4
2025-07-15T12:01	10	83	1.3	82	86	449	1.0	447	451	23.7	52.5
2025-07-15T12:02	10	82	0.3	81	83	448	0.5	447	449	23.8	52.1
2025-07-15T12:03	10	87	3.2	81	91	447	1.4	443	448	23.7	51.9
2025-07-15T12:04	10	92	15.7	75	125	445	1.1	443	447	23.7	52.0
2025-07-15T12:05	10	73	0.7	72	75	442	0.9	441	444	23.7	52.0
2025-07-15T12:06	10	73	0.6	72	74	441	0.5	440	442	23.6	52.0
2025-07-15T12:07	10	76	1.7	74	79	441	0.6	440	442	23.5	52.1
2025-07-15T12:08	10	84	2.9	79	89	443	0.8	442	445	23.7	52.4
2025-07-15T12:09	10	107	14.5	89	158	446	2.0	444	450	23.8	52.2
2025-07-15T12:10	10	163	35.6	112	222	456	3.2	449	463	23.9	51.2
2025-07-15T12:11	10	136	39.1	96	208	461	3.9	454	466	24.0	51.3
2025-07-15T12:12	10	94	3.1	90	104	452	2.1	449	456	24.0	50.8
2025-07-15T12:13	10	88	1.0	87	91	449	0.8	448	451	24.1	50.9
2025-07-15T12:14	10	94	1.9	91	98	450	0.2	449	450	24.2	50.7
2025-07-15T12:15	10	104	9.2	98	136	451	1.6	449	454	24.1	50.9
2025-07-15T12:16	10	193	27.8	138	224	463	7.1	452	473	24.2	50.8
2025-07-15T12:17	10	111	27.2	93	198	462	6.5	454	473	24.2	50.1
2025-07-15T12:18	10	95	6.5	86	109	455	1.1	453	456	24.1	49.7
2025-07-15T12:19	10	82	1.6	80	86	452	0.4	452	454	24.0	49.4
2025-07-15T12:20	10	87	10.2	80	113	452	0.6	451	453	24.0	49.7
2025-07-15T12:21	10	150	43.8	95	214	452	4.5	447	460	23.8	49.5
2025-07-15T12:22	10	205	4.5	194	212	464	3.5	457	469	24.0	49.3
2025-07-15T12:23	10	182	31.0	118	220	466	3.1	461	470	24.2	49.3
2025-07-15T12:24	10	185	17.1	154	212	470	1.5	468	473	24.8	48.7
2025-07-15T12:25	10	210	2.8	205	215	472	1.7	469	475	24.6	48.7
2025-07-15T12:26	10	200	7.7	188	215	474	1.0	472	476	24.7	48.1
2025-07-15T12:27	10	202	8.3	182	212	476	1.2	473	478	24.8	48.5
2025-07-15T12:28	10	172	7.8	159	187	470	3.5	464	476	24.7	47.6
2025-07-15T12:29	10	141	12.1	128	171	463	1.6	461	467	24.3	48.1
2025-07-15T12:30	10	119	11.4	106	138	462	2.6	457	466	24.5	48.4
2025-07-15T12:31	10	170	11.7	133	182	463	2.9	458	467	24.3	47.9
2025-07-15T12:32	10	152	8.8	138	168	467	0.5	466	468	24.5	48.4
2025-07-15T12:33	10	135	23.2	103	176	465	2.0	462	469	24.6	47.9
2025-07-15T12:34	10	139	9.5	129	161	466	1.0	462	467	24.7	48.3
2025-07-15T12:35	10	200	22.6	161	224	469	4.9	461	477	24.8	48.1
2025-07-15T12:36	10	195	8.3	181	215	473	2.5	469	476	25.0	47.1
2025-07-15T12:37	10	186	19.5	143	204	470	2.4	466	474	24.8	47.3
2025-07-15T12:38	10	203	3.9	193	209	475	1.2	473	477	24.9	47.2
2025-07-15T12:39	10	183	8.9	169	201	474	1.6	470	476	24.7	46.7
2025-07-15T12:40	10	156	8.2	146	171	469	1.9	466	472	24.6	47.0
2025-07-15T12:41	10	152	15.9	122	168	469	1.3	464	470	24.8	47.0
2025-07-15T12:42	10	152	23.5	122	184	464	1.8	462	468	24.4	47.1
2025-07-15T12:43	10	165	13.5	143	183	470	1.8	467	472	24.4	47.4
2025-07-15T12:44	10	146	4.5	141	158	470	1.4	468	473	24.7	47.6
2025-07-15T12:45	10	137	13.4	112	158	472	0.6	470	473	25.0	47.8
2025-07-15T12:46	10	110	3.9	106	126	467	2.9	463	471	25.1	47.4
2025-07-15T12:47	10	131	11.9	94	144	468	1.8	464	470	25.1	47.7
2025-07-15T12:48	10	85	9.0	74	104	458	2.8	455	465	24.8	47.4
2025-07-15T12:49	10	76	9.5	66	102	455	1.0	453	457	24.7	48.1
2025-07-15T12:50	10	68	5.4	65	84	454	0.5	453	455	24.8	48.2
2025-07-15T12:51	10	103	27.8	75	170	458	2.1	454	462	24.8	48.0
2025-07-15T12:52	10	136	35.7	86	206	462	2.4	459	467	24.9	48.0
2025-07-15T12:53	10	132	22.9	103	186	462	1.2	460	464	24.6	47.8
2025-07-15T12:54	10	163	35.7	101	209	466	1.9	463	469	24.9	47.9
2025-07-15T12:55	10	197	8.0	184	209	468	1.9	463	470	24.9	47.5
2025-07-15T12:56	10	98	34.0	71	206	459	6.4	449	470	24.3	47.6
2025-07-15T12:57	10	69	1.4	67	71	449	1.8	445	452	24.1	47.8
2025-07-15T12:58	10	83	32.8	67	192	446	1.6	445	453	24.1	47.5
2025-07-15T12:59	10	184	37.8	97	213	460	4.4	450	467	24.3	47.5
2025-07-15T13:00	10	175	49.4	71	210	467	3.1	461	472	24.5	47.2
2025-07-15T13:01	10	65	2.4	62	71	456	3.4	452	464	24.6	46.8
2025-07-15T13:02	10	65	2.0	62	69	450	1.8	446	454	24.7	47.0
2025-07-15T13:03	10	65	0.2	65	65	446	1.0	444	447	24.5	46.9
2025-07-15T13:04	10	70	3.8	65	77	445	0.5	444	446	24.3	46.7
2025-07-15T13:05	10	155	59.2	70	210	453	8.4	443	467	24.2	46.5
2025-07-15T13:06	10	205	1.0	204	208	467	3.6	462	473	24.5	46.2
2025-07-15T13:07	10	201	1.5	199	205	474	1.5	471	477	24.7	45.8
2025-07-15T13:08	10	200	1.2	198	202	476	1.5	474	479	25.0	45.6
2025-07-15T13:09	10	204	6.6	177	212	478	1.4	474	480	24.9	45.8
2025-07-15T13:10	10	120	25.9	83	174	468	4.5	462	478	24.8	46.5
2025-07-15T13:11	10	150	49.9	84	221	465	3.7	460	471	25.0	46.3
2025-07-15T13:12	10	177	40.3	90	220	472	2.4	465	474	25.0	46.3
2025-07-15T13:13	10	90	7.6	83	113	462	3.9	455	468	24.9	46.5
2025-07-15T13:14	10	175	38.7	85	202	465	6.2	455	473	24.8	46.3
2025-07-15T13:15	10	183	10.5	166	197	471	1.1	469	473	24.8	46.1
2025-07-15T13:16	10	173	16.9	130	196	472	2.1	470	477	24.8	46.2
2025-07-15T13:17	10	171	18.4	137	197	470	1.7	467	473	25.0	45.8
2025-07-15T13:18	10	194	0.8	192	196	474	1.4	472	476	24.9	46.0
2025-07-15T13:19	10	181	12.1	152	192	475	1.6	472	478	25.3	45.8
2025-07-15T13:20	10	186	0.6	185	187	471	0.8	470	473	24.6	45.4
2025-07-15T13:21	10	185	0.5	184	186	472	0.7	471	474	24.5	45.9
2025-07-15T13:22	10	184	0.5	183	184	475	1.8	471	478	24.7	46.1
2025-07-15T13:23	10	180	2.6	175	183	471	0.7	469	473	24.7	45.9
2025-07-15T13:24	10	176	2.3	171	181	473	0.7	470	474	24.9	45.8
2025-07-15T13:25	10	178	2.0	171	180	474	2.4	470	476	25.3	45.3
2025-07-15T13:26	10	178	0.3	177	179	473	1.5	471	476	24.8	45.1
2025-07-15T13:27	10	178	0.3	177	179	473	1.0	471	475	24.9	45.2
2025-07-15T13:28	10	176	1.2	173	178	469	1.6	467	473	24.7	44.6
2025-07-15T13:29	10	173	0.7	172	174	468	1.4	466	471	24.5	44.3
2025-07-15T13:30	10	170	1.9	164	172	468	0.7	467	470	24.6	44.7
2025-07-15T13:31	10	165	5.5	153	170	468	0.8	466	469	24.8	44.1
2025-07-15T13:32	10	166	3.2	157	170	467	0.4	466	468	24.7	44.0
2025-07-15T13:33	10	170	1.1	168	171	468	0.7	466	469	24.8	44.2
2025-07-15T13:34	10	171	0.1	171	171	468	0.9	467	470	24.8	44.3
2025-07-15T13:35	10	170	1.6	166	171	469	0.9	467	471	24.6	44.7
2025-07-15T13:36	10	170	2.6	164	172	466	0.7	465	468	24.7	44.9
2025-07-15T13:37	10	168	2.7	161	171	467	0.7	465	468	24.6	44.9
2025-07-15T13:38	10	163	6.6	148	170	467	0.5	466	468	24.4	45.1
2025-07-15T13:39	10	158	4.7	150	165	467	0.8	466	469	24.6	45.2
2025-07-15T13:40	10	160	8.2	143	167	470	1.4	467	471	24.9	45.2
2025-07-15T13:41	10	155	5.3	140	159	468	1.4	465	471	25.1	44.3
2025-07-15T13:42	10	159	2.3	154	164	467	1.6	465	470	24.9	44.6
2025-07-15T13:43	10	168	1.0	164	169	471	1.1	468	473	25.1	44.9
2025-07-15T13:44	10	168	2.2	162	169	473	0.8	471	474	25.1	44.8
2025-07-15T13:45	10	167	2.2	161	169	477	1.2	474	479	25.4	45.1
2025-07-15T13:46	10	158	4.9	150	169	473	1.7	472	479	25.2	44.3
2025-07-15T13:47	10	157	12.0	123	167	473	1.5	471	476	25.0	44.4
2025-07-15T13:48	10	163	2.5	153	164	474	0.9	472	476	25.0	44.6
2025-07-15T13:49	10	123	37.6	60	165	472	4.8	460	476	25.3	44.5
2025-07-15T13:50	10	62	19.7	45	121	457	4.1	452	464	25.1	44.1
2025-07-15T13:51	10	138	37.5	75	175	459	4.6	453	466	25.0	43.8
2025-07-15T13:52	10	84	37.1	49	174	457	5.4	450	467	24.9	43.8
2025-07-15T13:53	10	171	27.2	73	183	460	5.1	450	466	24.7	43.7
2025-07-15T13:54	10	171	20.1	119	185	466	1.7	463	469	24.9	44.0
2025-07-15T13:55	10	178	2.1	175	182	468	0.7	466	469	25.0	43.4
2025-07-15T13:56	10	174	1.3	172	177	468	1.9	465	472	24.8	43.5
2025-07-15T13:57	10	165	10.8	131	172	471	1.0	469	472	25.0	43.8
2025-07-15T13:58	10	163	2.5	158	168	469	0.9	467	471	25.1	43.8
2025-07-15T13:59	10	170	1.2	168	171	466	1.6	463	469	24.8	43.6
2025-07-15T14:00	10	160	21.0	112	176	467	2.2	463	470	24.9	44.0
2025-07-15T14:01	10	176	2.5	172	179	468	2.9	463	472	25.0	43.4
2025-07-15T14:02	10	172	1.2	170	174	471	0.8	469	472	25.0	43.7
2025-07-15T14:03	10	63	37.6	45	175	461	7.0	451	473	25.2	44.0
2025-07-15T14:04	10	74	26.4	48	148	452	1.5	450	455	25.2	43.6
2025-07-15T14:05	10	176	4.1	154	179	463	3.9	453	468	25.1	43.5
2025-07-15T14:06	10	172	1.9	169	175	463	0.5	462	464	24.8	42.9
2025-07-15T14:07	10	169	0.5	168	169	464	0.6	463	465	24.6	43.2
2025-07-15T14:08	10	167	0.5	166	168	466	1.1	464	468	24.5	43.6
2025-07-15T14:09	10	165	0.8	164	167	467	1.0	465	469	24.7	43.9
2025-07-15T14:10	10	161	1.7	159	164	467	0.7	466	469	24.8	43.9
2025-07-15T14:11	10	158	0.8	156	159	464	0.8	462	466	24.5	44.1
2025-07-15T14:12	10	156	0.8	154	157	461	0.9	460	463	24.3	44.5
2025-07-15T14:13	10	153	0.6	152	154	462	1.3	460	465	24.5	44.6
2025-07-15T14:14	10	151	0.6	150	152	466	0.9	464	468	25.0	44.1
2025-07-15T14:15	10	151	0.3	150	151	467	0.9	466	469	24.9	44.4
2025-07-15T14:16	10	149	1.0	148	151	463	1.9	461	468	24.6	44.5
2025-07-15T14:17	10	152	1.0	150	153	463	0.4	462	464	24.7	44.5
2025-07-15T14:18	10	153	0.3	152	153	464	1.1	462	466	24.8	44.8
2025-07-15T14:19	10	152	0.3	152	153	468	1.9	465	471	24.9	44.8
2025-07-15T14:20	10	153	0.6	151	154	467	2.0	465	471	24.9	44.0
2025-07-15T14:21	10	154	0.5	153	155	464	1.8	461	467	24.9	44.6
2025-07-15T14:22	10	154	0.2	154	154	463	1.1	462	465	24.8	44.9
2025-07-15T14:23	10	152	0.8	151	154	463	0.4	462	464	24.8	44.2
2025-07-15T14:24	10	150	1.5	147	152	461	0.6	460	462	24.6	42.8
2025-07-15T14:25	10	135	11.0	107	148	462	0.7	461	464	24.8	43.0
2025-07-15T14:26	10	141	4.9	124	146	462	1.0	460	463	24.6	44.8
2025-07-15T14:27	10	143	4.8	124	146	462	0.9	460	463	24.6	44.1
2025-07-15T14:28	10	146	0.3	145	146	461	1.5	458	463	24.6	44.2
2025-07-15T14:29	10	144	0.8	143	145	460	1.0	458	462	24.6	43.7
2025-07-15T14:30	10	145	0.5	144	146	462	0.7	460	463	24.6	43.5
2025-07-15T14:31	10	145	0.3	144	145	462	1.0	460	463	24.6	44.1
2025-07-15T14:32	10	143	0.6	142	144	463	0.7	462	465	24.7	44.0
2025-07-15T14:33	10	142	0.2	142	143	464	1.2	463	466	24.8	44.6
2025-07-15T14:34	10	143	0.3	142	143	463	1.3	461	465	25.0	43.8
2025-07-15T14:35	10	143	0.4	142	143	462	1.3	459	464	25.1	43.5
2025-07-15T14:36	10	139	2.2	135	142	460	1.6	458	462	25.0	42.8
2025-07-15T14:37	10	134	1.5	132	137	460	1.1	457	461	24.8	43.0
2025-07-15T14:38	10	133	2.8	130	140	459	0.8	458	460	24.6	42.9
2025-07-15T14:39	10	132	5.2	124	140	457	1.2	456	460	24.5	43.0
2025-07-15T14:40	10	134	1.5	131	137	456	0.5	455	457	24.5	43.4
2025-07-15T14:41	10	135	3.2	129	138	457	1.2	455	459	24.5	43.8
2025-07-15T14:42	10	137	0.4	137	138	459	0.5	458	460	24.7	43.9
2025-07-15T14:43	10	138	0.7	137	139	460	1.0	458	462	24.8	43.9
2025-07-15T14:44	10	138	0.7	137	139	457	1.3	456	460	24.5	43.3
2025-07-15T14:45	10	137	0.2	136	137	458	0.7	457	459	24.5	43.9
2025-07-15T14:46	10	136	0.3	135	137	458	0.8	456	459	24.5	44.0
2025-07-15T14:47	10	135	0.5	134	136	458	1.0	456	460	24.3	44.4
2025-07-15T14:48	10	134	0.3	133	134	462	1.0	460	464	24.7	44.8
2025-07-15T14:49	10	134	0.3	134	135	461	1.2	459	463	24.9	43.5
2025-07-15T14:50	10	135	0.4	134	136	459	0.4	458	460	24.6	44.0
2025-07-15T14:51	10	133	0.4	133	134	458	0.6	457	459	24.6	43.7
2025-07-15T14:52	10	134	0.2	133	134	458	0.3	458	459	24.7	43.8
2025-07-15T14:53	10	134	0.3	133	134	459	0.5	458	460	24.6	43.7
2025-07-15T14:54	10	133	0.4	132	134	459	0.5	458	461	24.5	44.0
2025-07-15T14:55	10	131	0.8	130	132	462	1.2	460	464	24.8	44.2
2025-07-15T14:56	10	128	2.4	124	131	461	0.6	460	463	24.8	43.8
2025-07-15T14:57	10	125	1.3	122	127	458	1.6	456	461	24.8	43.6
2025-07-15T14:58	10	126	0.9	124	127	455	0.9	454	457	24.5	43.8
2025-07-15T14:59	10	126	1.0	125	128	455	1.4	454	458	24.5	43.7
2025-07-15T15:00	10	128	2.5	123	132	458	0.6	457	460	24.7	43.6
2025-07-15T15:01	10	130	2.5	125	133	460	0.8	458	461	24.8	43.8
2025-07-15T15:02	10	131	1.9	127	134	460	0.9	459	462	25.0	43.6
2025-07-15T15:03	10	130	2.2	127	133	458	2.5	454	461	24.8	42.6
2025-07-15T15:04	10	123	2.3	119	127	455	0.6	453	455	24.6	42.4
2025-07-15T15:05	10	116	4.4	106	123	454	0.5	453	455	24.5	42.6
2025-07-15T15:06	10	107	5.2	101	117	453	0.9	451	454	24.6	42.9
2025-07-15T15:07	10	124	7.2	105	130	453	0.8	451	454	24.5	42.7
2025-07-15T15:08	10	121	5.1	112	129	455	1.9	452	458	24.6	42.9
2025-07-15T15:09	10	117	6.4	106	126	455	1.6	452	458	24.8	42.4
2025-07-15T15:10	10	124	1.2	123	127	452	0.6	451	453	24.4	42.1
2025-07-15T15:11	10	125	1.3	122	127	454	1.6	451	456	24.5	42.5
2025-07-15T15:12	10	120	1.6	116	123	455	0.9	452	456	24.6	42.4
2025-07-15T15:13	10	122	0.6	121	124	452	0.6	451	454	24.5	42.3
2025-07-15T15:14	10	121	1.4	118	123	454	0.5	453	455	24.6	42.5
2025-07-15T15:15	10	124	0.9	122	125	455	1.0	454	458	24.7	42.7
2025-07-15T15:16	10	122	1.8	119	125	457	1.1	455	459	24.9	42.9
2025-07-15T15:17	10	121	1.0	117	123	459	0.4	458	460	25.0	42.9
2025-07-15T15:18	10	115	1.1	113	117	457	1.1	456	460	25.0	42.7
2025-07-15T15:19	10	119	2.7	116	124	455	0.6	454	456	24.9	42.2
2025-07-15T15:20	10	121	3.0	115	124	456	0.4	456	457	24.8	42.0
2025-07-15T15:21	10	122	2.3	116	125	455	0.9	454	457	24.7	42.4
2025-07-15T15:22	10	120	4.0	112	125	455	0.7	454	457	24.6	42.2
2025-07-15T15:23	10	117	4.1	112	123	458	1.0	456	460	24.9	42.6
2025-07-15T15:24	10	118	1.9	116	121	457	0.6	456	459	24.9	42.6
2025-07-15T15:25	10	121	1.4	119	124	457	1.6	455	460	25.1	42.9
2025-07-15T15:26	10	124	0.9	123	126	454	1.6	452	456	24.9	42.5
2025-07-15T15:27	10	122	2.1	118	125	454	0.4	453	455	24.8	42.3
2025-07-15T15:28	10	123	0.4	122	124	454	0.5	454	455	24.8	42.2
2025-07-15T15:29	10	121	0.5	120	122	455	0.6	453	456	24.8	42.3
2025-07-15T15:30	10	123	0.4	122	124	453	0.9	451	454	24.6	42.2
2025-07-15T15:31	10	122	0.4	121	123	453	1.0	451	455	24.6	42.6
2025-07-15T15:32	10	121	0.6	120	123	454	1.0	452	456	24.8	42.7
2025-07-15T15:33	10	120	1.3	118	122	454	1.2	452	456	24.7	42.3
2025-07-15T15:34	10	114	5.5	99	119	453	0.6	451	454	24.7	42.5
2025-07-15T15:35	10	98	4.2	91	105	451	0.6	450	453	24.7	42.9
2025-07-15T15:36	10	110	1.2	106	112	450	0.8	449	452	24.5	42.6
2025-07-15T15:37	10	109	1.1	107	112	451	0.5	450	452	24.6	43.1
2025-07-15T15:38	10	111	1.9	109	123	452	0.5	451	453	24.6	42.9
2025-07-15T15:39	10	113	0.6	111	114	454	0.9	452	455	24.7	42.9
2025-07-15T15:40	10	113	1.6	111	116	451	0.9	450	454	24.4	42.5
2025-07-15T15:41	10	113	1.0	111	115	452	0.7	450	453	24.7	43.1
2025-07-15T15:42	10	114	2.3	110	117	454	1.0	452	455	24.9	42.8
2025-07-15T15:43	10	110	8.7	94	118	452	0.5	451	453	24.7	42.2
2025-07-15T15:44	10	111	7.0	94	117	451	0.5	450	452	24.8	42.2
2025-07-15T15:45	10	114	1.9	111	117	451	0.5	450	452	24.5	42.1
2025-07-15T15:46	10	113	2.5	109	117	451	0.3	451	452	24.6	42.3
2025-07-15T15:47	10	110	2.3	105	113	452	0.7	451	453	24.7	42.3
2025-07-15T15:48	10	112	1.0	110	113	452	0.6	451	453	24.6	41.7
2025-07-15T15:49	10	110	0.7	109	112	449	1.6	447	452	24.4	41.9
2025-07-15T15:50	10	110	0.5	109	111	449	1.2	447	451	24.5	42.3
2025-07-15T15:51	10	108	0.7	106	109	450	0.5	450	451	24.7	42.2
2025-07-15T15:52	10	102	4.9	96	112	449	1.1	448	452	24.5	42.3
2025-07-15T15:53	10	110	1.5	107	113	453	1.0	450	454	24.7	42.6
2025-07-15T15:54	10	107	1.3	105	109	452	0.6	451	453	24.6	42.4
2025-07-15T15:55	10	102	4.7	92	107	452	0.5	451	453	24.6	42.5
2025-07-15T15:56	10	102	1.3	100	104	450	0.9	448	452	24.6	42.2
2025-07-15T15:57	10	102	1.1	99	104	448	0.4	447	449	24.5	42.0
2025-07-15T15:58	10	107	3.5	102	112	448	0.3	448	449	24.5	42.0
2025-07-15T15:59	10	107	1.4	105	110	448	0.4	447	449	24.5	41.8
2025-07-15T16:00	10	101	5.1	92	107	448	0.4	447	448	24.4	42.1
2025-07-15T16:01	10	94	3.1	89	98	446	0.8	444	447	24.4	42.0
2025-07-15T16:02	10	99	0.7	96	99	445	0.4	444	446	24.2	42.0
2025-07-15T16:03	10	101	2.0	97	103	446	0.5	445	448	24.4	42.5
2025-07-15T16:04	10	97	1.6	94	100	447	0.4	446	448	24.5	42.4
2025-07-15T16:05	10	93	3.0	88	97	447	0.7	446	449	24.6	42.8
2025-07-15T16:06	10	90	2.6	84	93	444	1.0	443	446	24.5	42.6
2025-07-15T16:07	10	85	1.4	81	87	442	0.4	441	444	24.2	42.3
2025-07-15T16:08	10	84	2.6	81	89	444	0.7	442	445	24.3	42.9
2025-07-15T16:09	10	99	5.8	89	106	445	0.8	443	446	24.4	43.0
2025-07-15T16:10	10	104	1.4	102	106	446	0.4	445	447	24.4	42.8
2025-07-15T16:11	10	98	4.2	93	105	446	0.4	445	447	24.4	42.7
2025-07-15T16:12	10	88	4.0	82	93	444	0.4	443	445	24.3	42.6
2025-07-15T16:13	10	89	2.5	85	93	445	1.2	443	447	24.4	43.3
2025-07-15T16:14	10	85	4.7	78	106	444	0.6	443	446	24.4	43.1
2025-07-15T16:15	10	77	3.0	73	83	444	0.4	443	445	24.4	43.4
2025-07-15T16:16	10	85	4.1	79	90	443	0.3	443	444	24.3	42.9
2025-07-15T16:17	10	87	1.7	83	89	443	0.4	442	444	24.3	43.0
2025-07-15T16:18	10	84	0.8	82	85	444	0.5	443	445	24.4	43.3
2025-07-15T16:19	10	82	1.4	80	85	444	0.4	443	445	24.4	43.5
2025-07-15T16:20	10	78	1.7	73	80	444	0.3	443	445	24.4	43.5
2025-07-15T16:21	10	71	2.4	67	74	443	1.0	441	444	24.3	43.5
2025-07-15T16:22	10	72	2.1	67	77	441	0.3	441	442	24.3	43.7
2025-07-15T16:23	10	81	0.9	77	82	442	0.5	441	442	24.2	43.4
2025-07-15T16:24	10	84	1.0	82	85	441	0.6	440	443	24.1	43.6
2025-07-15T16:25	10	80	2.6	77	85	442	0.6	441	443	24.2	43.8
2025-07-15T16:26	10	78	0.8	76	79	441	0.3	441	442	24.1	43.8
2025-07-15T16:27	10	79	1.3	77	81	441	0.3	440	442	24.1	43.2
2025-07-15T16:28	10	80	1.1	78	82	442	0.5	441	443	24.2	43.3
2025-07-15T16:29	10	81	1.2	79	83	441	0.4	440	442	24.2	42.7
2025-07-15T16:30	10	77	4.2	71	82	441	0.3	440	442	24.3	42.7
2025-07-15T16:31	10	78	3.3	71	84	441	0.5	440	442	24.3	43.1
2025-07-15T16:32	10	91	2.5	84	93	441	0.5	440	442	24.2	41.7
2025-07-15T16:33	10	93	0.7	92	95	441	0.4	440	442	24.2	41.1
2025-07-15T16:34	10	91	2.1	87	95	441	0.5	440	442	24.0	41.3
2025-07-15T16:35	10	91	1.9	87	93	442	0.9	440	443	24.2	42.0
2025-07-15T16:36	10	89	1.1	87	91	442	0.5	441	443	24.3	41.6
2025-07-15T16:37	10	88	2.4	81	91	441	0.4	441	443	24.3	42.0
2025-07-15T16:38	10	84	2.9	80	88	441	0.4	440	442	24.3	42.2
2025-07-15T16:39	10	84	3.5	80	89	442	0.3	441	442	24.2	42.4
2025-07-15T16:40	10	76	3.6	71	84	441	0.4	441	442	24.3	42.6
2025-07-15T16:41	10	73	3.8	67	80	441	0.8	438	442	24.3	42.8
2025-07-15T16:42	10	80	2.5	76	84	440	0.5	438	441	24.0	42.8
2025-07-15T16:43	10	78	1.5	75	81	440	0.5	439	441	24.1	43.0
2025-07-15T16:44	10	81	3.8	76	86	439	0.2	438	439	24.0	43.0
2025-07-15T16:45	10	76	1.0	74	78	439	0.3	438	439	24.0	43.3
2025-07-15T16:46	10	81	3.7	75	86	438	0.4	437	439	24.0	43.1
2025-07-15T16:47	10	79	1.2	77	81	438	0.3	437	438	23.9	43.1
2025-07-15T16:48	10	81	3.0	77	84	438	0.6	437	439	23.9	43.6
2025-07-15T16:49	10	65	10.3	48	81	438	1.1	435	439	24.0	43.6
2025-07-15T16:50	10	73	16.6	48	92	436	1.6	434	440	23.9	43.3
2025-07-15T16:51	10	81	6.7	70	91	438	0.5	437	439	23.9	42.8
2025-07-15T16:52	10	91	0.5	90	92	438	0.5	437	439	23.9	43.2
2025-07-15T16:53	10	91	0.8	90	92	440	0.8	439	442	24.0	43.5
2025-07-15T16:54	10	72	8.6	64	90	439	1.6	436	442	24.1	43.1
2025-07-15T16:55	10	72	5.3	65	82	437	0.5	436	438	23.9	43.3
2025-07-15T16:56	10	82	0.9	80	83	438	0.2	437	438	24.0	43.2
2025-07-15T16:57	10	81	1.8	76	83	438	0.3	437	438	23.9	43.1
2025-07-15T16:58	10	64	4.9	57	75	437	1.2	435	439	23.9	43.1
2025-07-15T16:59	10	56	2.0	53	59	435	0.5	435	436	23.9	43.3
2025-07-15T17:00	10	63	3.6	59	68	434	0.3	433	435	23.8	43.4
2025-07-15T17:01	10	57	6.3	45	66	434	0.4	433	435	23.9	43.8
2025-07-15T17:02	10	42	1.8	40	47	432	0.7	431	434	23.9	44.0
2025-07-15T17:03	10	59	6.0	47	66	433	1.0	431	435	23.9	43.9
2025-07-15T17:04	10	58	1.4	57	63	434	0.2	434	435	23.9	43.9
2025-07-15T17:05	10	63	1.4	60	65	435	0.2	434	435	23.9	43.8
2025-07-15T17:06	10	45	5.9	36	60	433	1.0	432	435	23.9	43.6
2025-07-15T17:07	10	47	7.0	36	56	432	0.6	430	433	23.8	43.5
2025-07-15T17:08	10	46	4.7	38	55	432	0.4	431	433	23.8	43.9
2025-07-15T17:09	10	46	14.9	29	68	433	0.8	431	434	23.8	44.2
2025-07-15T17:10	10	28	0.4	27	29	431	0.4	430	432	23.8	44.7
2025-07-15T17:11	10	28	0.2	27	28	430	0.3	429	430	23.8	44.5
2025-07-15T17:12	10	32	2.7	28	38	429	0.2	429	429	23.7	43.9
2025-07-15T17:13	10	43	2.7	38	47	430	0.6	429	431	23.7	44.2
2025-07-15T17:14	10	46	1.4	43	48	431	0.2	430	431	23.6	43.1
2025-07-15T17:15	10	50	3.3	44	55	431	0.3	430	431	23.6	42.5
2025-07-15T17:16	10	40	2.0	34	43	430	0.4	429	431	23.6	42.7
2025-07-15T17:17	10	29	2.2	26	34	428	0.8	427	430	23.6	42.5
2025-07-15T17:18	10	24	1.9	21	26	427	0.5	426	428	23.5	43.0
2025-07-15T17:19	10	19	1.0	17	21	426	0.5	425	427	23.4	43.2
2025-07-15T17:20	10	17	0.5	16	18	424	0.4	424	425	23.4	43.5
2025-07-15T17:21	10	15	0.2	15	16	423	0.3	423	424	23.3	43.7
2025-07-15T17:22	10	15	0.1	15	15	423	0.2	422	423	23.3	43.8
2025-07-15T17:23	10	15	0.2	15	16	422	0.3	422	423	23.2	44.2
2025-07-15T17:24	10	16	0.2	16	16	422	0.2	422	423	23.2	43.9
2025-07-15T17:25	10	17	0.2	16	17	422	0.3	421	423	23.2	43.8
2025-07-15T17:26	10	17	0.2	17	18	422	0.2	422	423	23.2	44.6
2025-07-15T17:27	10	18	0.1	17	18	423	0.3	422	423	23.1	44.3
2025-07-15T17:28	10	17	0.1	17	18	422	0.2	422	423	23.1	44.5
2025-07-15T17:29	10	17	0.1	17	17	422	0.2	422	423	23.1	44.5
2025-07-15T17:30	10	17	0.1	16	17	422	0.2	422	423	23.1	44.7
2025-07-15T17:31	10	17	0.1	16	17	422	0.2	422	423	23.1	44.7
2025-07-15T17:32	10	17	0.2	17	17	422	0.3	422	423	23.1	44.3
2025-07-15T17:33	10	17	0.2	17	18	423	0.3	422	423	23.1	44.0
2025-07-15T17:34	10	17	0.1	17	18	423	0.3	422	423	23.1	44.2
2025-07-15T17:35	10	17	0.2	16	17	423	0.2	422	424	23.1	44.4
2025-07-15T17:36	10	16	0.2	16	17	423	0.2	422	423	23.1	44.4
2025-07-15T17:37	10	16	0.1	16	16	422	0.2	422	423	23.0	45.0
2025-07-15T17:38	10	16	0.1	15	16	422	0.2	422	423	23.0	44.8
2025-07-15T17:39	10	15	0.1	15	15	422	0.2	422	423	23.0	44.8
2025-07-15T17:40	10	15	0.1	15	15	422	0.2	422	423	23.0	45.2
2025-07-15T17:41	10	14	0.1	14	15	422	0.2	421	422	23.0	45.4
2025-07-15T17:42	10	14	0.2	14	14	422	0.2	422	423	23.0	45.0
2025-07-15T17:43	10	13	0.2	13	14	422	0.2	421	422	23.0	45.3
2025-07-15T17:44	10	13	0.2	13	13	421	0.2	421	422	23.0	44.7
2025-07-15T17:45	10	12	0.2	12	13	421	0.3	420	421	23.0	45.0
2025-07-15T17:46	10	12	0.2	11	12	421	0.3	420	421	22.9	45.0
2025-07-15T17:47	10	11	0.3	10	11	420	0.4	419	421	23.0	44.8
2025-07-15T17:48	10	10	0.3	9	10	419	0.3	419	420	22.9	45.5
2025-07-15T17:49	10	9	0.2	9	9	419	0.4	418	420	22.8	45.7
2025-07-15T17:50	10	8	0.2	8	9	418	0.2	418	419	22.8	46.1
2025-07-15T17:51	10	8	0.1	8	8	418	0.3	417	418	22.8	45.8
2025-07-15T17:52	10	8	0.1	7	8	417	0.2	417	417	22.8	46.5
2025-07-15T17:53	10	8	0.1	8	8	417	0.3	416	417	22.7	46.7
2025-07-15T17:54	10	8	0.2	8	9	417	0.2	416	417	22.7	46.9
2025-07-15T17:55	10	9	0.2	8	9	417	0.3	416	417	22.7	46.4
2025-07-15T17:56	10	10	0.2	9	10	417	0.3	416	418	22.7	46.6
2025-07-15T17:57	10	10	0.2	10	11	417	0.3	416	417	22.8	45.7
2025-07-15T17:58	10	11	0.3	11	12	417	0.4	416	417	22.8	46.1
2025-07-15T17:59	10	12	0.2	12	13	417	0.3	417	418	22.7	46.1
2025-07-15T18:00	10	13	0.1	12	13	418	0.2	417	418	22.7	46.5
2025-07-15T18:01	10	13	0.1	13	13	418	0.4	417	419	22.7	45.8
2025-07-15T18:02	10	13	0.1	13	13	418	0.2	418	419	22.8	46.1
2025-07-15T18:03	10	13	0.1	13	13	418	0.2	418	419	22.7	46.2
2025-07-15T18:04	10	13	0.1	13	13	418	0.2	418	419	22.7	46.3
2025-07-15T18:05	10	13	0.1	13	14	418	0.2	418	419	22.7	46.8
2025-07-15T18:06	10	14	0.1	13	14	418	0.2	418	419	22.6	47.6
2025-07-15T18:07	10	14	0.1	14	14	418	0.3	417	419	22.7	46.3
2025-07-15T18:08	10	14	0.1	14	14	418	0.2	418	419	22.7	46.0
2025-07-15T18:09	10	14	0.1	14	14	418	0.2	418	419	22.7	46.4
2025-07-15T18:10	10	14	0.1	14	15	418	0.2	418	419	22.7	46.4
2025-07-15T18:11	10	14	0.1	14	15	418	0.3	418	419	22.7	45.7
2025-07-15T18:12	10	14	0.1	14	14	418	0.2	418	419	22.8	45.5
2025-07-15T18:13	10	13	0.2	13	14	418	0.3	417	419	22.7	46.0
2025-07-15T18:14	10	13	0.2	12	13	418	0.2	418	418	22.7	45.6
2025-07-15T18:15	10	12	0.2	12	13	418	0.3	417	418	22.8	45.9
2025-07-15T18:16	10	12	0.3	11	12	417	0.2	417	418	22.7	46.1
2025-07-15T18:17	10	11	0.2	10	11	417	0.2	417	418	22.7	46.7
2025-07-15T18:18	10	10	0.3	10	11	417	0.3	416	418	22.7	46.3
2025-07-15T18:19	10	10	0.2	9	10	417	0.2	416	417	22.7	46.2
2025-07-15T18:20	10	9	0.2	8	9	417	0.3	416	417	22.7	46.6
2025-07-15T18:21	10	8	0.3	7	8	416	0.4	415	416	22.6	46.6
2025-07-15T18:22	10	7	0.2	7	8	415	0.2	415	416	22.6	46.3
2025-07-15T18:23	10	7	0.2	6	7	415	0.3	415	416	22.6	46.3
2025-07-15T18:24	10	6	0.2	6	7	415	0.2	414	415	22.7	46.0
2025-07-15T18:25	10	6	0.2	6	7	415	0.2	414	415	22.6	46.5
2025-07-15T18:26	10	6	0.1	5	6	414	0.3	414	415	22.6	46.9
2025-07-15T18:27	10	5	0.2	5	6	414	0.4	413	414	22.6	47.1
2025-07-15T18:28	10	5	0.2	5	6	414	0.3	413	414	22.5	47.0
2025-07-15T18:29	10	5	0.2	5	6	414	0.5	413	415	22.5	47.3
2025-07-15T18:30	10	5	0.2	5	6	413	0.3	412	414	22.4	48.0
2025-07-15T18:31	10	6	0.3	5	7	413	0.4	412	413	22.4	48.0
2025-07-15T18:32	10	7	0.3	6	8	413	0.3	412	414	22.4	48.3
2025-07-15T18:33	10	6	0.4	5	7	413	0.3	412	413	22.3	49.2
2025-07-15T18:34	10	6	0.2	5	6	412	0.3	412	413	22.3	48.9
2025-07-15T18:35	10	5	0.2	5	6	412	0.2	412	413	22.3	48.8
2025-07-15T18:36	10	5	0.2	5	6	412	0.2	411	412	22.3	48.5
2025-07-15T18:37	10	5	0.2	5	5	412	0.2	412	413	22.4	48.3
2025-07-15T18:38	10	5	0.1	4	5	412	0.3	411	413	22.3	48.6
2025-07-15T18:39	10	4	0.1	4	5	412	0.2	412	413	22.4	48.5
2025-07-15T18:40	10	4	0.2	4	5	412	0.3	411	413	22.4	48.4
2025-07-15T18:41	10	4	0.1	4	4	411	0.3	411	412	22.3	48.8
2025-07-15T18:42	10	4	0.1	4	4	411	0.2	410	411	22.3	48.5
2025-07-15T18:43	10	4	0.1	3	4	411	0.3	410	411	22.3	49.1
2025-07-15T18:44	10	3	0.1	3	3	411	0.3	410	411	22.2	49.2
2025-07-15T18:45	10	3	0.1	3	3	411	0.2	411	412	22.3	48.8
2025-07-15T18:46	10	3	0.1	3	3	411	0.2	411	412	22.3	48.8
2025-07-15T18:47	10	3	0.1	3	3	410	0.5	410	412	22.3	49.1
2025-07-15T18:48	10	3	0.1	3	3	410	0.3	409	411	22.3	49.0
2025-07-15T18:49	10	3	0.1	3	3	410	0.2	410	410	22.2	49.3
2025-07-15T18:50	10	3	0.1	3	3	410	0.2	409	410	22.2	49.2
2025-07-15T18:51	10	3	0.1	3	3	409	0.2	409	410	22.2	49.6
2025-07-15T18:52	10	3	0.1	3	3	409	0.3	408	409	22.1	49.8
2025-07-15T18:53	10	3	0.1	3	3	408	0.2	408	409	22.0	50.1
2025-07-15T18:54	10	3	0.1	3	3	408	0.3	408	409	22.0	50.2
2025-07-15T18:55	10	3	0.1	3	3	408	0.2	407	408	22.0	50.5
2025-07-15T18:56	10	3	0.1	3	3	408	0.3	407	408	22.0	50.3
2025-07-15T18:57	10	3	0.1	3	3	408	0.2	407	408	21.9	50.5
2025-07-15T18:58	10	3	0.1	3	3	408	0.2	407	408	21.9	50.7
2025-07-15T18:59	10	3	0.1	3	3	407	0.3	406	408	21.7	51.4
2025-07-15T19:00	10	3	0.1	3	3	407	0.2	406	407	21.6	52.3
2025-07-15T19:01	10	3	0.1	2	3	406	0.3	406	407	21.5	52.2
2025-07-15T19:02	10	2	0.1	2	3	406	0.2	405	407	21.5	52.6
2025-07-15T19:03	10	2	0.1	2	3	406	0.2	405	406	21.4	53.3
2025-07-15T19:04	10	2	0.1	2	2	406	0.2	405	406	21.4	52.3
2025-07-15T19:05	10	2	0.1	2	2	405	0.3	405	406	21.5	51.9
2025-07-15T19:06	10	2	0.1	1	2	405	0.3	405	406	21.5	51.4
2025-07-15T19:07	10	2	0.1	1	2	405	0.2	404	405	21.6	51.1
2025-07-15T19:08	10	1	0.1	1	2	405	0.4	404	405	21.6	51.3
2025-07-15T19:09	10	1	0.1	1	2	404	0.3	403	404	21.4	52.3
2025-07-15T19:10	10	1	0.1	1	1	403	0.3	403	404	21.4	52.0
2025-07-15T19:11	10	1	0.1	1	1	403	0.2	403	403	21.4	52.1
2025-07-15T19:12	10	1	0.1	1	1	403	0.2	402	403	21.3	52.2
2025-07-15T19:13	10	1	0.1	1	1	403	0.2	402	403	21.3	52.1
2025-07-15T19:14	10	1	0.1	1	1	402	0.2	402	403	21.3	52.5
2025-07-15T19:15	10	1	0.1	1	1	402	0.2	401	402	21.2	53.7
2025-07-15T19:16	10	1	0.1	1	1	402	0.2	401	402	21.0	55.1
2025-07-15T19:17	10	1	0.1	1	1	401	0.2	401	402	20.8	57.1
2025-07-15T19:18	10	1	0.1	1	1	401	0.3	401	401	20.8	56.9
2025-07-15T19:19	10	1	0.1	1	1	401	0.2	401	402	20.8	56.3
2025-07-15T19:20	10	1	0.1	1	1	401	0.3	401	402	20.8	55.7
2025-07-15T19:21	10	1	0.1	1	1	401	0.3	401	402	20.8	56.0
2025-07-15T19:22	10	1	0.1	1	1	401	0.4	400	402	20.7	57.5
2025-07-15T19:23	10	1	0.1	1	2	400	0.2	399	400	20.5	58.7
2025-07-15T19:24	10	1	0.1	1	1	400	0.4	399	401	20.4	58.8
2025-07-15T19:25	10	1	0.1	1	1	400	0.2	399	400	20.5	58.2
2025-07-15T19:26	10	1	0.1	1	1	400	0.3	400	401	20.5	57.0
2025-07-15T19:27	10	1	0.1	0	1	400	0.2	399	400	20.6	57.1
2025-07-15T19:28	10	1	0.1	0	1	400	0.2	399	400	20.6	56.6
2025-07-15T19:29	10	1	0.1	0	1	399	0.2	399	400	20.6	56.9
2025-07-15T19:30	10	1	0.1	0	1	399	0.2	399	400	20.5	57.4
2025-07-15T19:31	10	0	0.1	0	1	399	0.2	399	400	20.5	56.8
2025-07-15T19:32	10	0	0.1	0	0	399	0.2	399	399	20.5	56.7
2025-07-15T19:33	10	0	0.1	0	0	399	0.3	398	399	20.5	57.0
2025-07-15T19:34	10	0	0.1	0	0	398	0.2	398	399	20.5	57.0
2025-07-15T19:35	10	0	0.0	0	0	399	0.3	398	399	20.6	55.5
2025-07-15T19:36	10	0	0.0	0	0	399	0.3	398	400	20.7	54.3
2025-07-15T19:37	10	0	0.1	0	0	399	0.4	398	400	20.8	54.8
2025-07-15T19:38	10	0	0.1	0	0	399	0.3	398	400	20.9	53.5
2025-07-15T19:39	10	0	0.1	0	0	399	0.2	398	399	20.9	53.8
2025-07-15T19:40	10	0	0.1	0	0	398	0.5	397	399	20.9	54.0
2025-07-15T19:41	10	0	0.0	0	0	398	0.2	397	398	20.8	54.3
2025-07-15T19:42	10	0	0.1	0	0	397	0.5	396	398	20.8	54.6
2025-07-15T19:43	10	0	0.0	0	0	396	0.4	395	397	20.4	57.9
2025-07-15T19:44	10	0	0.1	0	0	397	0.6	396	398	20.3	56.6
2025-07-15T19:45	10	0	0.1	0	0	397	0.2	397	397	20.7	54.0
2025-07-15T19:46	10	0	0.1	0	0	397	0.4	397	398	20.6	55.0
2025-07-15T19:47	10	0	0.1	0	0	396	0.5	396	397	20.5	56.4
2025-07-15T19:48	10	0	0.1	0	0	397	0.5	396	398	20.6	54.2
2025-07-15T19:49	10	0	0.0	0	0	397	0.2	397	398	20.9	53.3
2025-07-15T19:50	10	0	0.0	0	0	397	0.2	396	397	20.7	54.4
2025-07-15T19:51	10	0	0.0	0	0	397	0.4	396	397	20.7	54.1
2025-07-15T19:52	10	0	0.0	0	0	397	0.3	397	398	20.9	52.9
2025-07-15T19:53	10	0	0.0	0	0	397	0.2	397	398	21.0	52.2
2025-07-15T19:54	10	0	0.0	0	0	397	0.4	396	398	21.0	52.7
2025-07-15T19:55	10	0	0.1	0	0	397	0.2	396	397	20.8	53.8
2025-07-15T19:56	10	0	0.0	0	0	397	0.3	396	398	20.7	54.1
2025-07-15T19:57	10	0	0.0	0	0	397	0.4	396	398	20.7	54.2
2025-07-15T19:58	10	0	0.1	0	1	397	0.3	396	397	20.5	55.5
2025-07-15T19:59	10	0	0.1	0	0	397	1.0	396	399	20.7	53.9
2025-07-15T20:00	10	0	0.1	0	0	397	0.5	396	398	20.9	53.3
2025-07-15T20:01	10	0	0.1	0	0	397	0.3	396	397	20.6	54.8
2025-07-15T20:02	10	0	0.1	0	1	396	0.3	396	397	20.7	53.9
2025-07-15T20:03	10	0	0.1	0	0	396	0.3	395	397	20.5	54.9
2025-07-15T20:04	10	0	0.1	0	0	396	0.3	395	397	20.5	55.1
2025-07-15T20:05	10	0	0.1	0	0	397	0.2	396	397	20.6	53.8
2025-07-15T20:06	10	0	0.1	0	0	396	0.2	396	397	20.6	54.1
2025-07-15T20:07	10	0	0.2	0	0	395	0.4	395	396	20.5	54.9
2025-07-15T20:08	10	0	0.2	0	1	396	0.3	395	396	20.4	55.1
2025-07-15T20:09	10	0	0.2	0	1	396	0.3	395	397	20.5	54.5
2025-07-15T20:10	10	0	0.2	0	1	396	0.2	396	397	20.4	54.8
2025-07-15T20:11	10	0	0.2	0	1	396	0.3	395	396	20.4	54.5
2025-07-15T20:12	10	0	0.2	0	1	396	0.4	395	397	20.4	54.3
2025-07-15T20:13	10	0	0.1	0	0	396	0.2	396	396	20.5	54.1
2025-07-15T20:14	10	0	0.2	0	1	396	0.2	395	397	20.5	54.0
2025-07-15T20:15	10	0	0.2	0	1	396	0.3	395	397	20.5	53.8
2025-07-15T20:16	10	0	0.1	0	0	396	0.4	395	397	20.5	53.5
2025-07-15T20:17	10	0	0.2	0	1	396	0.3	395	396	20.5	53.8
2025-07-15T20:18	10	0	0.1	0	1	395	0.2	395	396	20.4	54.3
2025-07-15T20:19	10	0	0.1	0	0	395	0.3	394	396	20.4	54.4
2025-07-15T20:20	10	0	0.1	0	0	395	0.2	394	395	20.4	54.3
2025-07-15T20:21	10	0	0.1	0	0	395	0.3	394	395	20.4	54.3
2025-07-15T20:22	10	0	0.1	0	0	394	0.2	394	395	20.3	54.6
2025-07-15T20:23	10	0	0.1	0	0	394	0.3	393	394	20.3	54.9
2025-07-15T20:24	10	0	0.1	0	0	393	0.2	393	394	20.1	55.6
2025-07-15T20:25	10	0	0.1	0	0	393	0.2	393	394	20.1	55.6
2025-07-15T20:26	10	0	0.1	0	0	393	0.2	393	394	20.1	55.9
2025-07-15T20:27	10	0	0.1	0	0	393	0.2	392	393	20.0	56.7
2025-07-15T20:28	10	0	0.1	0	0	393	0.2	392	393	19.8	57.5
2025-07-15T20:29	10	0	0.1	0	0	393	0.2	393	394	19.8	57.9
2025-07-15T20:30	10	0	0.1	0	0	393	0.3	392	394	19.7	58.3
2025-07-15T20:31	10	0	0.1	0	0	392	0.3	392	393	19.6	58.8
2025-07-15T20:32	10	0	0.1	0	0	392	0.2	392	393	19.4	60.0
2025-07-15T20:33	10	0	0.1	0	0	392	0.3	391	393	19.4	59.8
2025-07-15T20:34	10	0	0.1	0	0	392	0.3	391	393	19.4	59.9
2025-07-15T20:35	10	0	0.0	0	0	392	0.2	391	392	19.2	61.0
2025-07-15T20:36	10	0	0.1	0	0	391	0.2	391	392	19.1	61.6
2025-07-15T20:37	10	0	0.1	0	0	391	0.2	391	392	19.0	62.3
2025-07-15T20:38	10	0	0.1	0	0	391	0.3	391	392	19.0	61.8
2025-07-15T20:39	10	0	0.1	0	0	391	0.4	391	392	19.0	61.5
2025-07-15T20:40	10	0	0.1	0	0	392	0.3	391	392	19.0	61.8
2025-07-15T20:41	10	0	0.1	0	0	392	0.3	391	392	18.8	63.0
2025-07-15T20:42	10	0	0.1	0	0	392	0.4	391	393	18.8	62.8
2025-07-15T20:43	10	0	0.1	0	0	392	0.3	391	392	18.9	62.3
2025-07-15T20:44	10	0	0.1	0	0	392	0.2	391	392	18.9	62.3
2025-07-15T20:45	10	0	0.1	0	0	391	0.4	391	392	18.9	62.6
2025-07-15T20:46	10	0	0.1	0	0	392	0.2	391	392	18.8	63.0
2025-07-15T20:47	10	0	0.1	0	0	392	0.3	391	392	18.9	62.6
2025-07-15T20:48	10	0	0.1	0	0	392	0.3	391	392	19.0	62.4
2025-07-15T20:49	10	0	0.1	0	0	392	0.3	392	393	18.9	62.8
2025-07-15T20:50	10	0	0.1	0	0	392	0.2	392	393	18.8	63.4
2025-07-15T20:51	10	0	0.1	0	0	392	0.2	392	393	18.7	63.7
2025-07-15T20:52	10	0	0.1	0	0	392	0.3	392	393	18.8	62.9
2025-07-15T20:53	10	0	0.1	0	0	393	0.2	393	394	19.0	62.2
2025-07-15T20:54	10	0	0.1	0	0	393	0.2	393	394	18.9	62.5
2025-07-15T20:55	10	0	0.1	0	0	393	0.2	393	394	18.9	63.0
2025-07-15T20:56	10	0	0.1	0	0	393	0.2	393	394	18.9	62.7
2025-07-15T20:57	10	0	0.1	0	0	394	0.2	393	394	18.8	63.2
2025-07-15T20:58	10	0	0.1	0	0	394	0.3	393	395	18.8	63.1
2025-07-15T20:59	10	0	0.1	0	0	394	0.2	393	394	18.8	63.2
2025-07-15T21:00	10	0	0.1	0	0	394	0.2	394	395	18.9	62.9
2025-07-15T21:01	10	0	0.1	0	0	394	0.2	394	395	18.9	62.7
2025-07-15T21:02	10	0	0.1	0	0	394	0.3	394	395	18.8	63.1
2025-07-15T21:03	10	0	0.1	0	0	394	0.3	394	395	18.9	62.8
2025-07-15T21:04	10	0	0.1	0	0	394	0.3	394	395	18.9	62.9
2025-07-15T21:05	10	0	0.1	0	0	394	0.2	394	395	18.8	63.2
2025-07-15T21:06	10	0	0.1	0	0	394	0.3	394	395	18.8	63.4
2025-07-15T21:07	10	0	0.1	0	0	394	0.2	394	395	18.8	63.3
2025-07-15T21:08	10	0	0.1	0	0	394	0.3	393	394	18.7	64.0
2025-07-15T21:09	10	0	0.1	0	0	394	0.2	393	394	18.6	64.3
2025-07-15T21:10	10	0	0.1	0	0	393	0.3	393	394	18.5	65.2
2025-07-15T21:11	10	0	0.1	0	0	393	0.2	393	394	18.5	64.9
2025-07-15T21:12	10	0	0.1	0	0	393	0.3	392	393	18.5	65.8
2025-07-15T21:13	10	0	0.1	0	0	393	0.3	392	394	18.4	66.4
2025-07-15T21:14	10	0	0.1	0	0	393	0.2	392	393	18.3	66.9
2025-07-15T21:15	10	0	0.1	0	0	392	0.3	392	393	18.2	67.3
2025-07-15T21:16	10	0	0.1	0	0	392	0.3	391	393	18.2	67.4
2025-07-15T21:17	10	0	0.1	0	0	392	0.2	391	393	18.1	67.9
2025-07-15T21:18	10	0	0.1	0	0	392	0.3	391	393	18.1	67.9
2025-07-15T21:19	10	0	0.1	0	0	392	0.3	392	393	18.1	68.1
2025-07-15T21:20	10	0	0.1	0	0	392	0.3	391	393	18.1	68.4
2025-07-15T21:21	10	0	0.1	0	0	392	0.3	391	392	18.0	68.8
2025-07-15T21:22	10	0	0.1	0	0	392	0.3	391	393	18.0	68.4
2025-07-15T21:23	10	0	0.1	0	0	392	0.4	391	392	17.9	69.0
2025-07-15T21:24	10	0	0.1	0	0	392	0.3	391	392	17.9	68.9
2025-07-15T21:25	10	0	0.1	0	0	391	0.3	391	392	17.9	69.4
2025-07-15T21:26	10	0	0.1	0	0	391	0.2	391	391	17.9	69.2
2025-07-15T21:27	10	0	0.1	0	0	392	0.3	391	392	18.0	68.4
2025-07-15T21:28	10	0	0.1	0	0	392	0.3	391	393	18.0	68.5
2025-07-15T21:29	10	0	0.1	0	0	392	0.3	391	393	18.0	68.1
2025-07-15T21:30	10	0	0.1	0	0	392	0.2	391	392	18.0	68.3
2025-07-15T21:31	10	0	0.0	0	0	392	0.2	391	392	17.9	68.3
2025-07-15T21:32	10	0	0.0	0	0	392	0.2	391	392	17.9	68.3
2025-07-15T21:33	10	0	0.0	0	0	392	0.3	392	393	17.9	67.9
2025-07-15T21:34	10	0	0.0	0	0	392	0.3	392	393	17.9	68.1
2025-07-15T21:35	10	0	0.1	0	0	393	0.2	392	393	17.9	68.2
2025-07-15T21:36	10	0	0.0	0	0	392	0.2	392	393	17.8	68.7
2025-07-15T21:37	10	0	0.1	0	0	392	0.2	392	393	17.8	68.8
2025-07-15T21:38	10	0	0.1	0	0	393	0.3	392	393	17.9	68.5
2025-07-15T21:39	10	0	0.0	0	0	393	0.4	392	394	17.9	68.2
2025-07-15T21:40	10	0	0.2	0	1	393	0.2	392	393	17.9	68.4
2025-07-15T21:41	10	0	0.1	0	0	393	0.3	392	394	17.9	68.2
2025-07-15T21:42	10	0	0.1	0	0	392	0.3	392	393	17.8	68.6
2025-07-15T21:43	10	0	0.2	0	1	393	0.3	392	393	17.8	68.7
2025-07-15T21:44	10	0	0.1	0	0	393	0.3	392	393	17.8	68.5
2025-07-15T21:45	10	0	0.2	0	0	393	0.3	392	393	17.8	68.5
2025-07-15T21:46	10	0	0.2	0	1	393	0.2	392	393	17.8	68.3
2025-07-15T21:47	10	0	0.1	0	0	393	0.3	392	394	17.8	68.4
2025-07-15T21:48	10	0	0.2	0	1	393	0.3	393	394	17.8	68.6
2025-07-15T21:49	10	0	0.1	0	0	393	0.3	393	394	17.8	68.7
2025-07-15T21:50	10	0	0.1	0	1	394	0.3	393	394	17.7	68.9
2025-07-15T21:51	10	0	0.1	0	0	394	0.2	393	394	17.7	69.3
2025-07-15T21:52	10	0	0.1	0	0	394	0.3	393	395	17.7	68.8
2025-07-15T21:53	10	0	0.1	0	0	394	0.2	394	394	17.7	68.8
2025-07-15T21:54	10	0	0.1	0	0	394	0.3	394	395	17.8	68.3
2025-07-15T21:55	10	0	0.1	0	0	394	0.2	394	395	17.8	68.5
2025-07-15T21:56	10	0	0.1	0	0	394	0.2	394	395	17.9	68.1
2025-07-15T21:57	10	0	0.2	0	1	394	0.2	394	395	17.8	68.5
2025-07-15T21:58	10	0	0.1	0	0	394	0.3	394	395	17.8	68.7
2025-07-15T21:59	10	0	0.1	0	0	394	0.2	394	394	17.7	69.2
2025-07-15T22:00	10	0	0.1	0	0	394	0.3	394	395	17.8	68.5
2025-07-15T22:01	10	0	0.1	0	0	395	0.3	394	395	17.9	67.3
2025-07-15T22:02	10	0	0.1	0	0	394	0.2	394	395	17.9	68.2
2025-07-15T22:03	10	0	0.1	0	0	394	0.2	394	395	17.9	67.8
2025-07-15T22:04	10	0	0.1	0	0	394	0.2	394	395	17.8	68.5
2025-07-15T22:05	10	0	0.1	0	0	395	0.2	394	395	17.7	69.1
2025-07-15T22:06	10	0	0.1	0	0	395	0.3	394	395	17.6	69.3
2025-07-15T22:07	10	0	0.1	0	0	395	0.3	394	395	17.6	69.1
2025-07-15T22:08	10	0	0.1	0	0	395	0.2	395	396	17.7	68.7
2025-07-15T22:09	10	0	0.1	0	0	395	0.2	395	396	17.6	69.3
2025-07-15T22:10	10	0	0.1	0	0	395	0.3	395	396	17.7	68.7
2025-07-15T22:11	10	0	0.1	0	0	395	0.2	395	396	17.7	68.7
2025-07-15T22:12	10	0	0.1	0	0	396	0.2	395	396	17.7	68.7
2025-07-15T22:13	10	0	0.0	0	0	396	0.2	395	396	17.7	68.7
2025-07-15T22:14	10	0	0.1	0	0	396	0.2	395	396	17.7	68.7
2025-07-15T22:15	10	0	0.1	0	0	396	0.3	395	396	17.7	68.7
2025-07-15T22:16	10	0	0.1	0	0	395	0.2	395	396	17.7	68.7
2025-07-15T22:17	10	0	0.1	0	0	395	0.3	395	396	17.7	68.7
2025-07-15T22:18	10	0	0.1	0	0	395	0.2	395	395	17.7	68.4
2025-07-15T22:19	10	0	0.1	0	0	395	0.2	394	395	17.8	67.9
2025-07-15T22:20	10	0	0.1	0	0	395	0.2	394	395	17.8	67.5
2025-07-15T22:21	10	0	0.1	0	0	395	0.2	394	395	17.8	67.9
2025-07-15T22:22	10	0	0.0	0	0	395	0.3	394	395	17.8	67.7
2025-07-15T22:23	10	0	0.1	0	0	395	0.3	394	396	18.0	66.4
2025-07-15T22:24	10	0	0.1	0	0	395	0.3	394	396	17.9	67.0
2025-07-15T22:25	10	0	0.1	0	0	396	0.2	395	396	18.0	66.9
2025-07-15T22:26	10	0	0.1	0	0	396	0.2	395	396	17.9	67.6
2025-07-15T22:27	10	0	0.1	0	0	396	0.2	396	397	17.8	67.8
2025-07-15T22:28	10	0	0.1	0	0	396	0.2	396	396	17.9	67.3
2025-07-15T22:29	10	0	0.1	0	0	396	0.2	396	397	17.9	66.9
2025-07-15T22:30	10	0	0.1	0	0	397	0.3	396	397	18.1	65.2
2025-07-15T22:31	10	0	0.1	0	0	397	0.2	396	397	18.2	64.9
2025-07-15T22:32	10	0	0.1	0	0	397	0.2	396	397	18.2	64.7
2025-07-15T22:33	10	0	0.1	0	0	397	0.3	396	397	18.2	64.4
2025-07-15T22:34	10	0	0.1	0	0	397	0.3	397	398	18.3	63.9
2025-07-15T22:35	10	0	0.1	0	0	397	0.2	397	398	18.3	63.9
2025-07-15T22:36	10	0	0.1	0	0	397	0.2	397	398	18.2	64.7
2025-07-15T22:37	10	0	0.1	0	0	397	0.2	397	398	18.4	63.6
2025-07-15T22:38	10	0	0.1	0	0	397	0.3	396	398	18.1	65.8
2025-07-15T22:39	10	0	0.1	0	0	398	0.3	397	398	18.3	63.3
2025-07-15T22:40	10	0	0.1	0	0	398	0.3	397	399	18.7	60.1
2025-07-15T22:41	10	0	0.1	0	0	398	0.3	397	399	18.8	59.2
2025-07-15T22:42	10	0	0.1	0	0	398	0.2	397	398	18.9	59.3
2025-07-15T22:43	10	0	0.1	0	0	398	0.2	398	398	18.9	59.5
2025-07-15T22:44	10	0	0.1	0	0	398	0.2	398	399	18.8	59.8
2025-07-15T22:45	10	0	0.1	0	0	398	0.3	397	399	18.7	60.8
2025-07-15T22:46	10	0	0.1	0	0	398	0.2	397	398	18.6	61.9
2025-07-15T22:47	10	0	0.1	0	0	398	0.2	397	398	18.5	62.4
2025-07-15T22:48	10	0	0.1	0	0	397	0.2	397	398	18.4	63.8
2025-07-15T22:49	10	0	0.1	0	0	397	0.2	397	398	18.4	63.4
2025-07-15T22:50	10	0	0.1	0	0	398	0.2	397	398	18.4	63.2
2025-07-15T22:51	10	0	0.1	0	0	397	0.3	397	398	18.4	62.8
2025-07-15T22:52	10	0	0.1	0	0	397	0.2	397	398	18.4	63.4
2025-07-15T22:53	10	0	0.1	0	0	397	0.3	397	398	18.4	62.4
2025-07-15T22:54	10	0	0.1	0	0	397	0.2	397	398	18.5	62.0
2025-07-15T22:55	10	0	0.1	0	0	398	0.2	397	398	18.5	62.4
2025-07-15T22:56	10	0	0.1	0	0	397	0.3	396	397	18.3	63.7
2025-07-15T22:57	10	0	0.1	0	0	397	0.3	396	397	18.3	63.7
2025-07-15T22:58	10	0	0.1	0	0	397	0.3	396	397	18.3	63.3
2025-07-15T22:59	10	0	0.1	0	0	396	0.2	396	397	18.3	64.4
2025-07-15T23:00	10	0	0.1	0	0	396	0.2	396	397	18.2	64.5
2025-07-15T23:01	10	0	0.1	0	0	396	0.2	395	396	18.1	65.4
2025-07-15T23:02	10	0	0.1	0	0	395	0.2	395	396	18.1	65.9
2025-07-15T23:03	10	0	0.1	0	0	395	0.2	395	396	18.0	66.5
2025-07-15T23:04	10	0	0.1	0	0	395	0.2	395	396	18.0	65.7
2025-07-15T23:05	10	0	0.1	0	0	395	0.2	394	395	18.0	66.6
2025-07-15T23:06	10	0	0.1	0	0	394	0.2	394	395	18.0	66.6
2025-07-15T23:07	10	0	0.1	0	0	394	0.2	393	394	18.0	66.2
2025-07-15T23:08	10	0	0.1	0	0	394	0.3	393	394	18.0	66.7
2025-07-15T23:09	10	0	0.1	0	0	393	0.2	393	394	17.9	67.5
2025-07-15T23:10	10	0	0.1	0	0	393	0.3	393	394	17.9	67.6
2025-07-15T23:11	10	0	0.1	0	0	393	0.3	392	394	18.0	66.1
2025-07-15T23:12	10	0	0.1	0	0	393	0.2	393	393	17.9	67.1
2025-07-15T23:13	10	0	0.1	0	0	393	0.2	392	393	17.8	68.0
2025-07-15T23:14	10	0	0.1	0	0	393	0.2	392	393	17.8	67.6
2025-07-15T23:15	10	0	0.1	0	0	393	0.3	392	393	17.8	67.8
2025-07-15T23:16	10	0	0.1	0	0	393	0.3	392	393	17.8	68.0
2025-07-15T23:17	10	0	0.1	0	0	393	0.3	392	394	17.8	68.1
2025-07-15T23:18	10	0	0.1	0	0	393	0.2	392	393	17.7	68.9
2025-07-15T23:19	10	0	0.1	0	0	393	0.2	392	393	17.6	69.3
2025-07-15T23:20	10	0	0.1	0	0	393	0.3	392	394	17.6	68.9
2025-07-15T23:21	10	0	0.1	0	0	393	0.2	393	394	17.7	68.5
2025-07-15T23:22	10	0	0.1	0	0	393	0.2	393	394	17.7	67.9
2025-07-15T23:23	10	0	0.1	0	0	392	0.2	392	393	17.7	68.6
2025-07-15T23:24	10	0	0.1	0	0	392	0.3	391	393	17.6	68.9
2025-07-15T23:25	10	0	0.1	0	0	391	0.3	391	392	17.6	68.5
2025-07-15T23:26	10	0	0.1	0	0	391	0.3	391	392	17.6	69.3
2025-07-15T23:27	10	0	0.1	0	0	391	0.2	390	391	17.5	69.6
2025-07-15T23:28	10	0	0.1	0	0	390	0.2	390	391	17.5	69.4
2025-07-15T23:29	10	0	0.1	0	0	391	0.2	390	391	17.6	67.8
2025-07-15T23:30	10	0	0.1	0	0	390	0.3	389	391	17.6	67.7
2025-07-15T23:31	10	0	0.1	0	0	390	0.3	390	391	17.6	68.5
2025-07-15T23:32	10	0	0.1	0	0	390	0.2	389	390	17.5	68.9
2025-07-15T23:33	10	0	0.1	0	0	390	0.2	389	390	17.5	68.9
2025-07-15T23:34	10	0	0.1	0	0	389	0.2	389	390	17.5	69.4
2025-07-15T23:35	10	0	0.1	0	0	389	0.2	388	389	17.4	69.5
2025-07-15T23:36	10	0	0.1	0	0	389	0.2	388	389	17.4	69.9
2025-07-15T23:37	10	0	0.1	0	0	389	0.3	388	390	17.4	69.7
2025-07-15T23:38	10	0	0.1	0	0	389	0.2	389	389	17.5	68.3
2025-07-15T23:39	10	0	0.1	0	0	389	0.3	388	390	17.4	69.2
2025-07-15T23:40	10	0	0.1	0	0	389	0.3	388	390	17.5	68.4
2025-07-15T23:41	10	0	0.1	0	0	389	0.3	388	390	17.4	68.7
2025-07-15T23:42	10	0	0.1	0	0	389	0.3	388	390	17.4	68.7
2025-07-15T23:43	10	0	0.1	0	0	389	0.3	388	389	17.4	68.4
2025-07-15T23:44	10	0	0.1	0	0	389	0.4	388	389	17.4	68.7
2025-07-15T23:45	10	0	0.1	0	0	389	0.3	388	389	17.3	69.8
2025-07-15T23:46	10	0	0.1	0	0	388	0.2	388	389	17.3	69.7
2025-07-15T23:47	10	0	0.1	0	0	388	0.3	388	389	17.3	69.6
2025-07-15T23:48	10	0	0.1	0	0	388	0.2	388	389	17.3	69.3
2025-07-15T23:49	10	0	0.1	0	0	388	0.3	387	389	17.3	69.1
2025-07-15T23:50	10	0	0.1	0	0	389	0.2	388	389	17.4	68.0
2025-07-15T23:51	10	0	0.1	0	0	388	0.2	387	388	17.3	69.2
2025-07-15T23:52	10	0	0.1	0	0	388	0.3	387	388	17.2	70.1
2025-07-15T23:53	10	0	0.1	0	0	387	0.2	387	388	17.2	70.1
2025-07-15T23:54	10	0	0.1	0	0	387	0.3	387	388	17.3	69.0
2025-07-15T23:55	10	0	0.1	0	0	387	0.3	386	387	17.2	69.6
2025-07-15T23:56	10	0	0.1	0	0	387	0.2	386	387	17.2	69.7
2025-07-15T23:57	10	0	0.1	0	0	386	0.2	386	387	17.2	70.2
2025-07-15T23:58	10	0	0.1	0	0	387	0.2	386	387	17.1	70.3
2025-07-15T23:59	10	0	0.1	0	0	386	0.2	386	387	17.1	70.2
2025-07-16T00:00	10	0	0.1	0	0	386	0.3	385	386	17.1	69.7
2025-07-16T00:01	10	0	0.1	0	0	385	0.3	385	386	17.1	70.3
2025-07-16T00:02	10	0	0.1	0	0	385	0.2	385	386	17.0	71.3
2025-07-16T00:03	10	0	0.1	0	0	385	0.2	385	386	16.9	71.2
2025-07-16T00:04	10	0	0.1	0	0	385	0.2	385	386	16.9	70.4
2025-07-16T00:05	10	0	0.1	0	0	385	0.3	385	386	16.9	70.4
2025-07-16T00:06	10	0	0.1	0	0	385	0.2	384	385	17.0	70.2
2025-07-16T00:07	10	0	0.1	0	0	385	0.2	384	385	16.9	70.7
2025-07-16T00:08	10	0	0.1	0	0	385	0.3	384	385	17.0	69.6
2025-07-16T00:09	10	0	0.1	0	0	385	0.2	385	386	17.0	68.7
2025-07-16T00:10	10	0	0.1	0	0	385	0.3	384	385	17.0	68.8
2025-07-16T00:11	10	0	0.1	0	0	385	0.2	384	385	17.0	68.6
2025-07-16T00:12	10	0	0.0	0	0	385	0.2	384	385	17.0	69.2
2025-07-16T00:13	10	0	0.1	0	0	385	0.3	385	386	17.0	68.9
2025-07-16T00:14	10	0	0.0	0	0	386	0.2	385	386	17.0	69.0
2025-07-16T00:15	10	0	0.0	0	0	386	0.4	385	387	16.9	69.6
2025-07-16T00:16	10	0	0.0	0	0	387	0.3	386	388	17.0	68.2
2025-07-16T00:17	10	0	0.0	0	0	387	0.3	387	388	17.0	68.7
2025-07-16T00:18	10	0	0.1	0	0	388	0.2	387	388	17.0	68.2
2025-07-16T00:19	10	0	0.1	0	0	388	0.2	387	388	16.9	69.7
2025-07-16T00:20	10	0	0.0	0	0	388	0.2	387	388	16.7	70.8
2025-07-16T00:21	10	0	0.0	0	0	388	0.3	388	389	16.8	69.4
2025-07-16T00:22	10	0	0.1	0	0	388	0.3	387	388	16.8	69.2
2025-07-16T00:23	10	0	0.1	0	0	387	0.2	387	388	16.8	69.4
2025-07-16T00:24	10	0	0.0	0	0	387	0.3	387	388	16.9	69.1
2025-07-16T00:25	10	0	0.1	0	0	387	0.3	387	388	16.8	69.8
2025-07-16T00:26	10	0	0.0	0	0	387	0.3	386	388	16.7	69.7
2025-07-16T00:27	10	0	0.0	0	0	387	0.3	386	387	16.7	70.0
2025-07-16T00:28	10	0	0.0	0	0	387	0.3	386	387	16.8	68.7
2025-07-16T00:29	10	0	0.0	0	0	387	0.2	386	387	16.9	68.2
2025-07-16T00:30	10	0	0.0	0	0	386	0.2	386	387	16.9	68.5
2025-07-16T00:31	10	0	0.1	0	0	387	0.2	386	387	16.9	68.7
2025-07-16T00:32	10	0	0.1	0	0	386	0.3	386	387	16.8	69.4
2025-07-16T00:33	10	0	0.0	0	0	386	0.2	386	387	16.7	69.7
2025-07-16T00:34	10	0	0.0	0	0	386	0.2	386	387	16.7	69.4
2025-07-16T00:35	10	0	0.0	0	0	387	0.2	386	387	16.9	67.5
2025-07-16T00:36	10	0	0.0	0	0	387	0.2	386	387	16.9	68.0
2025-07-16T00:37	10	0	0.1	0	0	387	0.2	386	387	16.9	67.4
2025-07-16T00:38	10	0	0.1	0	0	387	0.3	387	388	17.0	66.8
2025-07-16T00:39	10	0	0.1	0	0	387	0.3	387	388	17.0	66.4
2025-07-16T00:40	10	0	0.1	0	0	388	0.2	387	388	17.1	65.5
2025-07-16T00:41	10	0	0.1	0	0	388	0.3	387	389	17.1	66.0
2025-07-16T00:42	10	0	0.1	0	0	388	0.2	387	388	17.0	66.6
2025-07-16T00:43	10	0	0.1	0	0	388	0.2	388	388	17.0	66.0
2025-07-16T00:44	10	0	0.1	0	0	388	0.3	387	388	17.0	66.7
2025-07-16T00:45	10	0	0.1	0	0	388	0.2	387	389	16.9	67.0
2025-07-16T00:46	10	0	0.1	0	0	388	0.2	388	389	16.9	66.9
2025-07-16T00:47	10	0	0.1	0	0	388	0.3	388	389	16.9	66.6
2025-07-16T00:48	10	0	0.1	0	0	388	0.2	388	389	16.8	68.2
2025-07-16T00:49	10	0	0.1	0	0	388	0.3	388	389	16.7	68.5
2025-07-16T00:50	10	0	0.0	0	0	388	0.3	388	389	16.8	66.8
2025-07-16T00:51	10	0	0.1	0	0	389	0.2	388	389	16.8	67.1
2025-07-16T00:52	10	0	0.1	0	0	389	0.2	388	389	16.9	66.7
2025-07-16T00:53	10	0	0.0	0	0	389	0.3	388	389	16.8	67.2
2025-07-16T00:54	10	0	0.1	0	0	389	0.3	388	389	16.8	66.8
2025-07-16T00:55	10	0	0.1	0	0	389	0.3	388	390	16.9	66.0
2025-07-16T00:56	10	0	0.1	0	0	389	0.3	388	390	16.9	65.7
2025-07-16T00:57	10	0	0.1	0	0	389	0.3	388	390	16.9	65.8
2025-07-16T00:58	10	0	0.0	0	0	388	0.2	388	389	16.8	67.2
2025-07-16T00:59	10	0	0.1	0	0	388	0.2	388	389	16.8	67.4
2025-07-16T01:00	10	0	0.1	0	0	388	0.2	388	389	16.8	66.5
2025-07-16T01:01	10	0	0.1	0	0	388	0.2	388	389	16.8	66.8
2025-07-16T01:02	10	0	0.1	0	0	388	0.2	388	389	16.9	66.0
2025-07-16T01:03	10	0	0.1	0	0	389	0.2	388	389	16.9	65.8
2025-07-16T01:04	10	0	0.1	0	0	388	0.2	388	389	16.8	66.6
2025-07-16T01:05	10	0	0.0	0	0	388	0.2	388	389	16.8	66.7
2025-07-16T01:06	10	0	0.0	0	0	388	0.2	388	389	16.7	67.0
2025-07-16T01:07	10	0	0.1	0	0	388	0.3	387	389	16.6	68.3
2025-07-16T01:08	10	0	0.1	0	0	388	0.3	387	388	16.6	68.3
2025-07-16T01:09	10	0	0.0	0	0	388	0.2	388	389	16.7	67.2
2025-07-16T01:10	10	0	0.0	0	0	388	0.2	387	388	16.6	67.9
2025-07-16T01:11	10	0	0.0	0	0	388	0.3	387	389	16.6	67.1
2025-07-16T01:12	10	0	0.1	0	0	388	0.2	387	388	16.7	66.8
2025-07-16T01:13	10	0	0.0	0	0	388	0.3	387	388	16.7	67.0
2025-07-16T01:14	10	0	0.0	0	0	388	0.3	387	388	16.6	67.4
2025-07-16T01:15	10	0	0.0	0	0	388	0.2	387	388	16.7	65.9
2025-07-16T01:16	10	0	0.0	0	0	387	0.3	387	388	16.7	67.1
2025-07-16T01:17	10	0	0.0	0	0	387	0.2	387	388	16.6	67.5
2025-07-16T01:18	10	0	0.0	0	0	387	0.2	387	388	16.6	66.5
2025-07-16T01:19	10	0	0.0	0	0	387	0.2	386	388	16.7	66.6
2025-07-16T01:20	10	0	0.1	0	0	387	0.2	386	387	16.6	67.0
2025-07-16T01:21	10	0	0.1	0	0	387	0.3	386	387	16.6	67.6
2025-07-16T01:22	10	0	0.1	0	0	386	0.2	386	387	16.5	68.2
2025-07-16T01:23	10	0	0.1	0	0	386	0.2	386	387	16.5	68.1
2025-07-16T01:24	10	0	0.1	0	0	386	0.2	386	387	16.5	68.4
2025-07-16T01:25	10	0	0.1	0	0	386	0.2	386	387	16.4	69.2
2025-07-16T01:26	10	0	0.1	0	0	386	0.2	386	387	16.3	70.1
2025-07-16T01:27	10	0	0.1	0	0	386	0.2	386	387	16.3	69.7
2025-07-16T01:28	10	0	0.1	0	0	386	0.2	386	387	16.4	69.5
2025-07-16T01:29	10	0	0.1	0	0	386	0.2	385	386	16.3	70.4
2025-07-16T01:30	10	0	0.1	0	0	386	0.2	385	387	16.3	70.0
2025-07-16T01:31	10	0	0.1	0	0	386	0.2	386	386	16.3	70.3
2025-07-16T01:32	10	0	0.1	0	0	386	0.3	385	386	16.3	70.4
2025-07-16T01:33	10	0	0.2	0	0	386	0.3	385	386	16.3	69.8
2025-07-16T01:34	10	0	0.1	0	0	386	0.3	385	386	16.4	68.8
2025-07-16T01:35	10	0	0.2	0	1	386	0.3	385	386	16.4	68.1
2025-07-16T01:36	10	0	0.1	0	0	386	0.2	386	387	16.5	67.1
2025-07-16T01:37	10	0	0.0	0	0	386	0.2	386	387	16.5	67.8
2025-07-16T01:38	10	0	0.1	0	0	386	0.2	385	386	16.5	67.4
2025-07-16T01:39	10	0	0.1	0	0	386	0.2	386	387	16.6	66.1
2025-07-16T01:40	10	0	0.1	0	0	386	0.3	385	387	16.8	65.3
2025-07-16T01:41	10	0	0.1	0	0	387	0.4	386	387	16.8	64.4
2025-07-16T01:42	10	0	0.2	0	1	386	0.2	386	387	16.9	64.4
2025-07-16T01:43	10	0	0.2	0	1	387	0.2	386	387	16.9	64.4
2025-07-16T01:44	10	0	0.2	0	1	386	0.3	386	387	16.9	64.2
2025-07-16T01:45	10	0	0.2	0	1	386	0.2	386	387	16.8	64.7
2025-07-16T01:46	10	0	0.2	0	1	386	0.3	385	387	16.9	63.7
2025-07-16T01:47	10	0	0.1	0	0	386	0.2	385	387	16.9	64.2
2025-07-16T01:48	10	0	0.2	0	1	386	0.3	385	387	16.9	64.0
2025-07-16T01:49	10	0	0.1	0	1	386	0.3	385	387	16.9	63.9
2025-07-16T01:50	10	0	0.1	0	0	386	0.3	385	387	16.8	64.9
2025-07-16T01:51	10	0	0.2	0	0	386	0.4	385	387	16.8	64.6
2025-07-16T01:52	10	0	0.1	0	0	386	0.3	386	387	16.8	64.5
2025-07-16T01:53	10	0	0.1	0	0	386	0.2	386	387	16.8	64.3
2025-07-16T01:54	10	0	0.1	0	0	386	0.2	386	387	16.8	64.3
2025-07-16T01:55	10	0	0.2	0	1	386	0.4	385	387	16.7	65.5
2025-07-16T01:56	10	0	0.1	0	1	386	0.3	385	387	16.6	65.7
2025-07-16T01:57	10	0	0.1	0	0	385	0.2	385	386	16.6	66.5
2025-07-16T01:58	10	0	0.2	0	1	385	0.3	385	386	16.5	66.7
2025-07-16T01:59	10	0	0.1	0	0	385	0.2	385	386	16.5	66.5
2025-07-16T02:00	10	0	0.1	0	0	386	0.2	385	386	16.6	66.1
2025-07-16T02:01	10	0	0.1	0	0	386	0.2	385	386	16.6	65.6
2025-07-16T02:02	10	0	0.1	0	0	386	0.3	386	387	16.7	64.6
2025-07-16T02:03	10	0	0.2	0	1	387	0.2	386	387	16.8	64.2
2025-07-16T02:04	10	0	0.2	0	0	387	0.2	386	387	16.8	64.5
2025-07-16T02:05	10	0	0.1	0	0	387	0.3	386	388	16.7	64.8
2025-07-16T02:06	10	0	0.1	0	0	387	0.2	386	387	16.7	65.3
2025-07-16T02:07	10	0	0.1	0	0	387	0.2	387	388	16.7	65.3
2025-07-16T02:08	10	0	0.1	0	0	388	0.3	387	388	16.6	65.6
2025-07-16T02:09	10	0	0.2	0	1	387	0.3	387	388	16.5	66.3
2025-07-16T02:10	10	0	0.2	0	0	387	0.2	387	388	16.5	66.5
2025-07-16T02:11	10	0	0.1	0	0	387	0.2	387	388	16.4	67.3
2025-07-16T02:12	10	0	0.2	0	1	387	0.3	387	388	16.4	67.2
2025-07-16T02:13	10	0	0.1	0	0	387	0.3	386	388	16.5	66.6
2025-07-16T02:14	10	0	0.2	0	1	387	0.3	387	388	16.4	67.3
2025-07-16T02:15	10	0	0.1	0	0	387	0.3	387	388	16.5	66.8
2025-07-16T02:16	10	0	0.1	0	0	387	0.3	387	388	16.4	67.0
2025-07-16T02:17	10	0	0.2	0	0	387	0.3	386	388	16.5	66.9
2025-07-16T02:18	10	0	0.1	0	0	387	0.2	387	388	16.4	67.3
2025-07-16T02:19	10	0	0.1	0	0	387	0.3	387	388	16.4	67.3
2025-07-16T02:20	10	0	0.2	0	0	387	0.3	386	388	16.4	67.3
2025-07-16T02:21	10	0	0.1	0	0	387	0.2	387	387	16.4	67.2
2025-07-16T02:22	10	0	0.2	0	0	387	0.3	386	387	16.4	67.5
2025-07-16T02:23	10	0	0.1	0	0	387	0.3	386	388	16.5	66.6
2025-07-16T02:24	10	0	0.1	0	0	387	0.3	386	388	16.5	66.8
2025-07-16T02:25	10	0	0.2	0	1	387	0.3	386	387	16.5	66.4
2025-07-16T02:26	10	0	0.2	0	0	387	0.3	386	387	16.5	66.2
2025-07-16T02:27	10	0	0.2	0	1	386	0.3	386	387	16.5	66.6
2025-07-16T02:28	10	0	0.1	0	0	386	0.3	386	387	16.5	66.5
2025-07-16T02:29	10	0	0.1	0	0	386	0.3	386	387	16.4	66.8
2025-07-16T02:30	10	0	0.1	0	0	386	0.3	386	387	16.5	66.3
2025-07-16T02:31	10	0	0.1	0	0	386	0.2	386	387	16.5	66.7
2025-07-16T02:32	10	0	0.1	0	0	386	0.3	386	387	16.5	66.1
2025-07-16T02:33	10	0	0.1	0	0	386	0.2	385	386	16.5	66.5
2025-07-16T02:34	10	0	0.1	0	0	385	0.3	385	386	16.4	67.0
2025-07-16T02:35	10	0	0.1	0	0	385	0.3	385	386	16.4	67.0
2025-07-16T02:36	10	0	0.1	0	0	385	0.3	385	386	16.5	65.4
2025-07-16T02:37	10	0	0.1	0	0	385	0.2	385	386	16.5	65.6
2025-07-16T02:38	10	0	0.1	0	0	385	0.2	384	386	16.5	65.5
2025-07-16T02:39	10	0	0.1	0	0	385	0.2	385	386	16.6	65.3
2025-07-16T02:40	10	0	0.2	0	1	385	0.3	384	385	16.5	65.8
2025-07-16T02:41	10	0	0.2	0	1	385	0.3	384	386	16.6	64.7
2025-07-16T02:42	10	0	0.1	0	0	385	0.3	384	386	16.6	64.9
2025-07-16T02:43	10	0	0.1	0	0	385	0.2	385	386	16.5	65.1
2025-07-16T02:44	10	0	0.1	0	0	385	0.3	385	386	16.6	64.2
2025-07-16T02:45	10	0	0.1	0	0	385	0.3	385	386	16.6	63.9
2025-07-16T02:46	10	0	0.1	0	0	386	0.2	385	386	16.6	64.6
2025-07-16T02:47	10	0	0.1	0	0	386	0.2	385	386	16.5	64.7
2025-07-16T02:48	10	0	0.1	0	0	386	0.3	385	387	16.6	64.1
2025-07-16T02:49	10	0	0.1	0	0	386	0.2	385	386	16.6	64.4
2025-07-16T02:50	10	0	0.1	0	0	386	0.2	385	386	16.6	64.0
2025-07-16T02:51	10	0	0.2	0	1	386	0.3	386	387	16.6	63.6
2025-07-16T02:52	10	0	0.1	0	0	386	0.3	385	387	16.6	63.8
2025-07-16T02:53	10	0	0.1	0	0	386	0.2	386	387	16.6	64.8
2025-07-16T02:54	10	0	0.1	0	1	386	0.2	386	387	16.6	64.2
2025-07-16T02:55	10	0	0.1	0	0	386	0.3	386	387	16.6	64.1
2025-07-16T02:56	10	0	0.1	0	0	386	0.2	386	387	16.7	63.4
2025-07-16T02:57	10	0	0.1	0	0	386	0.3	385	386	16.7	64.1
2025-07-16T02:58	10	0	0.1	0	0	386	0.3	385	386	16.5	65.3
2025-07-16T02:59	10	0	0.1	0	0	386	0.2	385	386	16.5	64.9
2025-07-16T03:00	10	0	0.1	0	0	385	0.3	384	386	16.6	64.5
2025-07-16T03:01	10	0	0.1	0	0	385	0.3	384	386	16.6	64.7
2025-07-16T03:02	10	0	0.1	0	0	385	0.2	385	386	16.6	64.3
2025-07-16T03:03	10	0	0.1	0	0	385	0.2	385	386	16.5	65.1
2025-07-16T03:04	10	0	0.1	0	0	385	0.2	385	386	16.6	64.7
2025-07-16T03:05	10	0	0.1	0	0	385	0.3	385	386	16.5	65.9
2025-07-16T03:06	10	0	0.1	0	0	386	0.2	385	386	16.5	65.2
2025-07-16T03:07	10	0	0.1	0	0	386	0.2	385	386	16.5	65.6
2025-07-16T03:08	10	0	0.1	0	0	386	0.2	385	386	16.5	65.9
2025-07-16T03:09	10	0	0.0	0	0	387	0.3	386	387	16.5	65.1
2025-07-16T03:10	10	0	0.1	0	0	387	0.2	386	387	16.5	65.5
2025-07-16T03:11	10	0	0.1	0	0	387	0.2	386	388	16.5	65.6
2025-07-16T03:12	10	0	0.0	0	0	387	0.3	387	388	16.6	65.0
2025-07-16T03:13	10	0	0.0	0	0	388	0.3	387	388	16.7	64.6
2025-07-16T03:14	10	0	0.1	0	0	388	0.2	387	388	16.7	64.4
2025-07-16T03:15	10	0	0.1	0	0	388	0.3	388	389	16.8	64.1
2025-07-16T03:16	10	0	0.1	0	0	388	0.2	388	388	16.7	64.4
2025-07-16T03:17	10	0	0.1	0	0	388	0.2	388	389	16.7	64.4
2025-07-16T03:18	10	0	0.1	0	0	388	0.2	387	389	16.6	64.9
2025-07-16T03:19	10	0	0.1	0	0	388	0.3	387	388	16.6	65.2
2025-07-16T03:20	10	0	0.1	0	0	388	0.2	387	388	16.7	64.6
2025-07-16T03:21	10	0	0.1	0	0	388	0.3	387	389	16.6	65.1
2025-07-16T03:22	10	0	0.1	0	0	388	0.2	388	388	16.6	64.8
2025-07-16T03:23	10	0	0.1	0	0	388	0.2	387	388	16.7	64.3
2025-07-16T03:24	10	0	0.1	0	0	388	0.3	387	388	16.6	65.1
2025-07-16T03:25	10	0	0.1	0	0	388	0.2	387	388	16.6	64.9
2025-07-16T03:26	10	0	0.1	0	0	387	0.3	387	388	16.6	65.1
2025-07-16T03:27	10	0	0.1	0	0	387	0.2	387	388	16.6	65.2
2025-07-16T03:28	10	0	0.1	0	0	387	0.2	387	388	16.6	65.0
2025-07-16T03:29	10	0	0.1	0	0	387	0.2	387	388	16.5	65.6
2025-07-16T03:30	10	0	0.1	0	0	387	0.2	387	388	16.6	65.0
2025-07-16T03:31	10	0	0.1	0	0	387	0.3	386	388	16.5	65.2
2025-07-16T03:32	10	0	0.1	0	0	387	0.2	387	388	16.6	65.1
2025-07-16T03:33	10	0	0.1	0	0	387	0.2	386	387	16.6	64.9
2025-07-16T03:34	10	0	0.1	0	1	387	0.2	386	388	16.5	65.3
2025-07-16T03:35	10	0	0.1	0	0	387	0.2	387	388	16.5	65.4
2025-07-16T03:36	10	0	0.1	0	1	387	0.2	387	388	16.5	65.8
2025-07-16T03:37	10	0	0.1	0	0	387	0.2	386	387	16.5	66.0
2025-07-16T03:38	10	0	0.1	0	0	387	0.2	386	387	16.4	66.2
2025-07-16T03:39	10	0	0.1	0	0	387	0.3	386	387	16.5	66.1
2025-07-16T03:40	10	0	0.1	0	0	386	0.2	386	387	16.4	66.8
2025-07-16T03:41	10	0	0.1	0	1	386	0.2	386	387	16.4	66.9
2025-07-16T03:42	10	0	0.1	0	1	386	0.2	386	387	16.4	66.4
2025-07-16T03:43	10	0	0.1	0	1	386	0.3	386	387	16.4	66.8
2025-07-16T03:44	10	0	0.1	0	0	386	0.3	386	387	16.4	66.7
2025-07-16T03:45	10	0	0.1	0	0	387	0.3	386	387	16.5	65.7
2025-07-16T03:46	10	0	0.2	0	1	387	0.3	386	388	16.6	65.4
2025-07-16T03:47	10	0	0.1	0	0	387	0.2	387	388	16.5	65.4
2025-07-16T03:48	10	0	0.2	0	1	387	0.2	387	388	16.6	65.3
2025-07-16T03:49	10	0	0.1	0	1	387	0.3	386	388	16.6	65.5
2025-07-16T03:50	10	0	0.1	0	0	387	0.3	386	387	16.4	66.4
2025-07-16T03:51	10	0	0.1	0	1	387	0.2	386	387	16.4	66.8
2025-07-16T03:52	10	0	0.1	0	1	387	0.2	386	387	16.5	66.2
2025-07-16T03:53	10	0	0.1	0	1	387	0.2	386	387	16.4	67.1
2025-07-16T03:54	10	0	0.1	0	1	387	0.2	386	387	16.4	66.7
2025-07-16T03:55	10	0	0.1	0	1	387	0.3	386	387	16.4	66.6
2025-07-16T03:56	10	0	0.1	0	0	387	0.3	387	388	16.4	66.5
2025-07-16T03:57	10	0	0.1	0	1	387	0.2	387	388	16.4	66.8
2025-07-16T03:58	10	1	0.1	0	1	387	0.2	387	388	16.4	66.6
2025-07-16T03:59	10	0	0.1	0	1	388	0.3	387	388	16.4	66.8
2025-07-16T04:00	10	0	0.1	0	1	388	0.3	387	388	16.4	66.4
2025-07-16T04:01	10	0	0.1	0	1	388	0.2	387	388	16.4	66.5
2025-07-16T04:02	10	0	0.1	0	1	388	0.2	387	388	16.4	66.9
2025-07-16T04:03	10	1	0.1	0	1	388	0.2	388	389	16.4	66.4
2025-07-16T04:04	10	1	0.1	0	1	388	0.2	388	389	16.4	66.6
2025-07-16T04:05	10	1	0.1	1	1	388	0.3	388	389	16.5	66.2
2025-07-16T04:06	10	1	0.1	0	1	388	0.3	388	389	16.5	66.1
2025-07-16T04:07	10	1	0.1	0	1	389	0.3	388	389	16.5	65.7
2025-07-16T04:08	10	1	0.1	1	1	389	0.3	388	389	16.5	66.2
2025-07-16T04:09	10	1	0.1	0	1	389	0.2	388	389	16.4	66.5
2025-07-16T04:10	10	1	0.1	1	1	389	0.2	388	389	16.5	65.7
2025-07-16T04:11	10	1	0.1	1	1	389	0.2	389	389	16.6	65.2
2025-07-16T04:12	10	1	0.1	1	1	389	0.2	389	390	16.6	65.4
2025-07-16T04:13	10	1	0.1	1	1	389	0.2	389	390	16.6	65.9
2025-07-16T04:14	10	1	0.1	1	1	389	0.2	389	390	16.5	65.8
2025-07-16T04:15	10	1	0.1	1	1	389	0.3	388	390	16.5	66.1
2025-07-16T04:16	10	1	0.1	1	2	389	0.2	389	390	16.5	66.8
2025-07-16T04:17	10	2	0.1	1	2	389	0.3	389	390	16.5	66.9
2025-07-16T04:18	10	2	0.1	1	2	389	0.2	389	390	16.4	67.4
2025-07-16T04:19	10	2	0.1	2	2	389	0.2	389	390	16.4	67.6
2025-07-16T04:20	10	2	0.1	2	2	389	0.3	389	390	16.3	68.5
2025-07-16T04:21	10	2	0.1	2	2	389	0.2	389	390	16.4	67.9
2025-07-16T04:22	10	2	0.1	2	2	389	0.3	389	390	16.4	68.1
2025-07-16T04:23	10	2	0.1	2	2	390	0.2	389	390	16.3	69.0
2025-07-16T04:24	10	2	0.1	2	2	390	0.2	389	390	16.3	69.1
2025-07-16T04:25	10	2	0.1	2	2	390	0.2	389	390	16.3	68.2
2025-07-16T04:26	10	2	0.1	2	2	390	0.2	389	390	16.3	68.7
2025-07-16T04:27	10	2	0.1	2	2	390	0.3	389	390	16.4	67.8
2025-07-16T04:28	10	2	0.1	2	2	390	0.2	389	390	16.4	68.2
2025-07-16T04:29	10	2	0.1	2	2	390	0.2	390	391	16.4	67.9
2025-07-16T04:30	10	2	0.1	2	2	390	0.2	390	391	16.5	66.9
2025-07-16T04:31	10	2	0.1	2	2	390	0.2	390	390	16.5	66.9
2025-07-16T04:32	10	2	0.1	2	2	390	0.2	390	391	16.5	66.8
2025-07-16T04:33	10	2	0.1	2	3	390	0.2	390	391	16.5	66.8
2025-07-16T04:34	10	2	0.1	2	2	390	0.2	390	391	16.5	67.2
2025-07-16T04:35	10	2	0.1	2	2	390	0.2	390	391	16.5	67.1
2025-07-16T04:36	10	2	0.1	2	2	391	0.2	390	391	16.6	66.7
2025-07-16T04:37	10	2	0.1	2	2	391	0.2	390	391	16.6	66.8
2025-07-16T04:38	10	2	0.1	2	3	391	0.2	390	391	16.6	67.2
2025-07-16T04:39	10	3	0.1	2	3	391	0.2	390	391	16.6	67.0
2025-07-16T04:40	10	3	0.1	3	3	391	0.2	391	392	16.6	67.6
2025-07-16T04:41	10	3	0.1	3	3	391	0.2	390	391	16.5	67.9
2025-07-16T04:42	10	3	0.1	3	3	391	0.2	391	391	16.5	68.1
2025-07-16T04:43	10	3	0.1	3	3	391	0.2	391	392	16.5	68.4
2025-07-16T04:44	10	3	0.1	3	3	391	0.2	391	392	16.5	68.0
2025-07-16T04:45	10	3	0.1	3	3	391	0.2	391	392	16.5	67.7
2025-07-16T04:46	10	3	0.1	3	4	391	0.2	391	392	16.5	68.6
2025-07-16T04:47	10	3	0.1	3	4	392	0.3	391	392	16.5	68.4
2025-07-16T04:48	10	4	0.1	3	4	392	0.2	391	392	16.5	68.9
2025-07-16T04:49	10	4	0.1	3	4	392	0.2	391	392	16.5	68.6
2025-07-16T04:50	10	4	0.1	4	4	392	0.2	392	393	16.6	67.6
2025-07-16T04:51	10	4	0.1	4	4	392	0.2	392	393	16.6	67.4
2025-07-16T04:52	10	4	0.1	4	4	392	0.2	392	393	16.7	66.8
2025-07-16T04:53	10	4	0.1	4	4	392	0.2	392	393	16.6	67.3
2025-07-16T04:54	10	5	0.2	4	5	392	0.2	392	393	16.6	67.8
2025-07-16T04:55	10	5	0.1	5	5	392	0.2	392	393	16.6	68.1
2025-07-16T04:56	10	5	0.2	5	6	392	0.2	392	392	16.6	68.3
2025-07-16T04:57	10	6	0.1	6	6	392	0.2	391	392	16.5	69.3
2025-07-16T04:58	10	6	0.2	6	7	392	0.2	392	393	16.5	69.5
2025-07-16T04:59	10	7	0.2	6	7	392	0.2	392	392	16.5	69.7
2025-07-16T05:00	10	8	0.2	7	8	392	0.2	392	393	16.4	69.9
2025-07-16T05:01	10	8	0.2	8	9	392	0.2	392	393	16.4	69.9
2025-07-16T05:02	10	9	0.2	8	9	392	0.2	392	393	16.5	69.5
2025-07-16T05:03	10	9	0.2	9	10	392	0.2	392	393	16.5	69.1
2025-07-16T05:04	10	10	0.1	10	10	393	0.3	392	393	16.5	69.8
2025-07-16T05:05	10	10	0.1	10	11	393	0.3	392	393	16.5	69.6
2025-07-16T05:06	10	11	0.1	11	11	393	0.3	392	393	16.5	70.2
2025-07-16T05:07	10	11	0.1	11	11	393	0.2	393	393	16.5	69.9
2025-07-16T05:08	10	11	0.1	11	11	393	0.2	393	394	16.6	69.6
2025-07-16T05:09	10	11	0.1	10	11	393	0.2	393	394	16.6	69.9
2025-07-16T05:10	10	10	0.1	10	11	393	0.2	392	393	16.6	69.4
2025-07-16T05:11	10	10	0.1	10	10	393	0.2	392	393	16.7	68.9
2025-07-16T05:12	10	10	0.1	10	11	393	0.3	392	393	16.8	68.3
2025-07-16T05:13	10	10	0.1	10	10	392	0.2	392	393	16.8	68.6
2025-07-16T05:14	10	10	0.1	10	11	392	0.2	392	393	16.8	68.7
2025-07-16T05:15	10	11	0.2	10	11	392	0.3	392	393	16.8	68.6
2025-07-16T05:16	10	12	0.3	11	12	392	0.2	392	393	16.9	68.2
2025-07-16T05:17	10	13	0.4	12	13	393	0.3	392	393	16.8	68.9
2025-07-16T05:18	10	14	0.3	13	14	393	0.2	393	394	16.9	67.5
2025-07-16T05:19	10	15	0.3	14	16	394	0.3	393	395	16.9	67.7
2025-07-16T05:20	10	16	0.2	15	16	394	0.3	393	395	17.0	67.5
2025-07-16T05:21	10	16	0.2	16	17	394	0.3	394	395	16.9	68.5
2025-07-16T05:22	10	17	0.1	16	17	395	0.3	394	395	17.0	68.3
2025-07-16T05:23	10	17	0.3	16	18	395	0.2	394	395	17.0	67.4
2025-07-16T05:24	10	18	0.3	17	18	395	0.3	394	396	17.0	67.7
2025-07-16T05:25	10	20	0.8	18	21	396	0.3	395	396	17.1	67.6
2025-07-16T05:26	10	21	0.4	21	22	396	0.2	395	396	17.1	67.1
2025-07-16T05:27	10	22	0.4	21	23	396	0.3	395	397	17.1	67.5
2025-07-16T05:28	10	22	0.4	22	23	396	0.3	395	396	17.1	67.1
2025-07-16T05:29	10	22	0.4	21	22	396	0.2	395	397	17.1	67.2
2025-07-16T05:30	10	21	0.2	20	21	396	0.3	396	397	17.1	67.7
2025-07-16T05:31	10	21	0.2	20	21	396	0.3	396	397	17.2	67.2
2025-07-16T05:32	10	22	0.9	21	24	396	0.3	395	397	17.2	67.4
2025-07-16T05:33	10	24	0.6	23	25	397	0.2	396	397	17.2	68.0
2025-07-16T05:34	10	24	0.5	23	25	397	0.3	396	398	17.2	67.4
2025-07-16T05:35	10	25	0.4	24	26	397	0.3	397	398	17.2	67.4
2025-07-16T05:36	10	26	0.3	26	27	398	0.4	397	399	17.2	67.6
2025-07-16T05:37	10	27	0.2	26	27	399	0.3	398	399	17.3	67.7
2025-07-16T05:38	10	27	1.5	25	30	399	0.3	398	400	17.3	67.2
2025-07-16T05:39	10	25	0.2	25	26	399	0.2	398	399	17.3	66.9
2025-07-16T05:40	10	25	0.1	25	26	399	0.3	398	399	17.3	66.9
2025-07-16T05:41	10	26	0.3	25	26	399	0.3	398	400	17.3	66.9
2025-07-16T05:42	10	27	0.9	26	30	399	0.3	398	400	17.3	66.8
2025-07-16T05:43	10	29	0.8	28	31	399	0.3	399	400	17.4	67.1
2025-07-16T05:44	10	29	0.3	28	29	399	0.2	399	400	17.3	67.2
2025-07-16T05:45	10	29	0.2	28	30	400	0.2	399	400	17.4	67.3
2025-07-16T05:46	10	33	5.3	28	42	400	0.4	399	401	17.4	67.0
2025-07-16T05:47	10	27	0.3	26	28	400	0.3	399	401	17.4	67.7
2025-07-16T05:48	10	26	0.2	26	27	400	0.4	399	401	17.4	67.8
2025-07-16T05:49	10	26	0.2	25	26	400	0.2	399	400	17.4	67.3
2025-07-16T05:50	10	27	0.5	26	28	400	0.3	398	400	17.5	66.4
2025-07-16T05:51	10	28	0.3	28	29	400	0.3	399	400	17.5	66.1
2025-07-16T05:52	10	29	0.3	28	30	399	0.1	399	400	17.5	66.4
2025-07-16T05:53	10	30	0.9	29	31	400	0.4	399	401	17.5	66.3
2025-07-16T05:54	10	37	4.5	32	55	401	0.6	400	403	17.5	67.5
2025-07-16T05:55	10	45	8.9	38	64	403	0.6	402	404	17.5	67.0
2025-07-16T05:56	10	46	8.7	39	76	403	0.6	402	405	17.5	67.2
2025-07-16T05:57	10	50	12.2	39	77	405	0.4	404	406	17.6	66.8
2025-07-16T05:58	10	42	2.1	39	46	404	0.4	403	404	17.7	66.3
2025-07-16T05:59	10	39	2.3	35	42	403	0.3	403	404	17.7	67.4
2025-07-16T06:00	10	32	1.5	30	35	402	0.5	401	404	17.7	66.2
2025-07-16T06:01	10	27	1.2	26	30	401	0.3	401	402	17.7	66.4
2025-07-16T06:02	10	25	0.5	24	26	400	0.5	399	401	17.8	66.4
2025-07-16T06:03	10	24	0.1	24	24	400	0.3	399	400	17.8	65.6
2025-07-16T06:04	10	24	0.3	24	25	399	0.2	399	400	17.8	66.2
2025-07-16T06:05	10	25	0.3	25	26	399	0.3	399	400	17.7	66.2
2025-07-16T06:06	10	26	0.2	25	26	399	0.3	398	400	17.8	65.3
2025-07-16T06:07	10	25	0.3	24	25	399	0.2	399	400	17.8	65.6
2025-07-16T06:08	10	25	0.3	24	25	399	0.3	398	400	17.8	65.4
2025-07-16T06:09	10	25	0.3	24	25	399	0.2	398	399	17.8	66.1
2025-07-16T06:10	10	24	0.2	24	25	399	0.2	398	399	17.8	65.2
2025-07-16T06:11	10	26	0.8	25	27	399	0.2	398	399	17.7	65.6
2025-07-16T06:12	10	32	3.7	28	39	400	0.5	399	401	17.8	65.0
2025-07-16T06:13	10	35	0.4	35	36	401	0.3	400	401	17.8	65.5
2025-07-16T06:14	10	34	0.9	33	35	401	0.2	401	402	17.8	65.5
2025-07-16T06:15	10	31	0.6	30	33	401	0.2	401	402	17.8	65.3
2025-07-16T06:16	10	30	0.1	30	30	401	0.2	401	402	17.8	65.3
2025-07-16T06:17	10	31	0.3	30	31	401	0.3	401	402	17.8	64.9
2025-07-16T06:18	10	32	0.6	31	33	402	0.2	401	402	17.8	65.4
2025-07-16T06:19	10	34	0.8	33	36	402	0.2	402	402	17.8	64.8
2025-07-16T06:20	10	37	0.7	36	38	403	0.3	402	404	17.9	65.1
2025-07-16T06:21	10	38	0.4	37	38	403	0.3	402	404	17.8	64.9
2025-07-16T06:22	10	35	1.0	34	37	403	0.3	402	404	17.8	65.4
2025-07-16T06:23	10	32	0.8	31	33	403	0.2	403	404	17.9	66.1
2025-07-16T06:24	10	30	0.6	29	31	403	0.4	402	403	17.9	65.7
2025-07-16T06:25	10	28	0.3	28	29	402	0.3	402	403	17.9	65.7
2025-07-16T06:26	10	28	0.1	27	28	402	0.2	401	402	17.9	65.8
2025-07-16T06:27	10	28	0.5	28	29	402	0.2	401	402	17.9	65.9
2025-07-16T06:28	10	32	1.7	29	35	402	0.4	401	403	17.9	65.9
2025-07-16T06:29	10	36	2.2	34	40	403	0.3	403	404	18.0	65.4
2025-07-16T06:30	10	38	2.0	37	43	403	0.3	403	404	18.0	65.1
2025-07-16T06:31	10	40	1.2	38	42	404	0.5	403	405	18.0	66.3
2025-07-16T06:32	10	48	3.0	42	53	406	0.6	405	407	18.0	66.1
2025-07-16T06:33	10	46	1.2	44	48	407	0.5	406	408	18.1	65.2
2025-07-16T06:34	10	45	0.7	44	46	406	0.4	406	407	18.1	64.2
2025-07-16T06:35	10	48	2.8	45	56	406	0.3	406	407	18.2	63.9
2025-07-16T06:36	10	57	4.1	52	65	408	0.6	407	409	18.2	64.0
2025-07-16T06:37	10	65	2.0	61	69	409	0.7	408	410	18.2	62.9
2025-07-16T06:38	10	73	9.2	63	104	411	0.9	409	413	18.2	63.5
2025-07-16T06:39	10	63	11.3	55	103	412	1.0	410	414	18.3	64.1
2025-07-16T06:40	10	55	0.4	54	56	411	0.2	410	411	18.4	63.3
2025-07-16T06:41	10	62	7.5	56	80	412	0.7	411	413	18.4	63.5
2025-07-16T06:42	10	59	1.4	58	63	412	0.4	411	413	18.4	63.0
2025-07-16T06:43	10	59	0.6	58	61	412	0.2	411	412	18.4	63.1
2025-07-16T06:44	10	62	2.6	60	69	413	0.5	412	414	18.4	63.4
2025-07-16T06:45	10	60	0.6	59	62	412	0.5	411	413	18.4	62.6
2025-07-16T06:46	10	60	0.8	59	62	412	0.5	411	413	18.4	63.6
2025-07-16T06:47	10	58	0.5	57	59	413	0.3	412	414	18.5	63.6
2025-07-16T06:48	10	56	0.6	55	57	414	0.3	413	414	18.6	63.7
2025-07-16T06:49	10	54	0.6	53	55	413	0.3	413	414	18.6	63.6
2025-07-16T06:50	10	52	0.5	51	53	413	0.6	412	414	18.6	63.1
2025-07-16T06:51	10	50	0.5	50	51	412	0.4	411	413	18.6	62.2
2025-07-16T06:52	10	49	0.2	49	50	411	0.4	411	412	18.7	61.6
2025-07-16T06:53	10	49	0.1	48	49	412	0.4	411	413	18.7	61.6
2025-07-16T06:54	10	49	0.1	48	49	412	0.5	411	413	18.8	61.2
2025-07-16T06:55	10	49	0.1	49	49	412	0.5	410	412	18.8	60.9
2025-07-16T06:56	10	49	0.1	48	49	412	0.5	411	413	18.8	61.6
2025-07-16T06:57	10	49	0.1	48	49	413	0.3	412	413	18.9	61.6
2025-07-16T06:58	10	48	0.1	48	48	413	0.2	413	414	18.9	62.3
2025-07-16T06:59	10	48	0.1	48	49	413	0.3	412	413	18.9	61.2
2025-07-16T07:00	10	49	0.1	48	49	413	0.3	413	414	18.9	62.2
2025-07-16T07:01	10	49	0.2	49	49	413	0.2	412	413	18.9	60.6
2025-07-16T07:02	10	49	0.2	49	50	413	0.2	413	414	18.9	61.1
2025-07-16T07:03	10	50	0.2	50	50	413	0.6	412	414	18.9	60.4
2025-07-16T07:04	10	51	0.2	50	51	413	0.2	412	413	18.9	60.6
2025-07-16T07:05	10	51	0.3	51	52	413	0.3	412	414	18.9	61.0
2025-07-16T07:06	10	52	0.1	51	52	414	0.6	413	415	18.9	61.6
2025-07-16T07:07	10	52	0.1	52	52	415	0.4	414	416	19.0	61.3
2025-07-16T07:08	10	52	0.2	52	52	415	0.3	414	415	19.0	61.7
2025-07-16T07:09	10	52	0.1	52	53	415	0.6	414	416	19.0	61.8
2025-07-16T07:10	10	52	0.3	51	52	415	0.6	414	417	19.0	61.2
2025-07-16T07:11	10	51	0.3	50	51	415	0.5	414	416	19.0	61.4
2025-07-16T07:12	10	50	0.3	49	50	413	0.4	413	415	19.0	60.6
2025-07-16T07:13	10	49	0.1	49	49	414	0.2	413	414	19.0	61.7
2025-07-16T07:14	10	49	0.1	49	49	414	0.4	413	415	19.0	62.1
2025-07-16T07:15	10	49	0.1	49	49	414	0.2	413	414	19.1	61.6
2025-07-16T07:16	10	50	0.3	49	50	413	0.6	412	414	19.1	60.3
2025-07-16T07:17	10	51	0.6	50	52	413	0.5	412	414	19.1	61.0
2025-07-16T07:18	10	54	0.7	52	55	414	0.3	414	415	19.1	61.6
2025-07-16T07:19	10	56	0.7	55	57	414	0.3	413	415	19.2	60.3
2025-07-16T07:20	10	59	1.0	57	61	415	0.4	414	417	19.2	61.1
2025-07-16T07:21	10	64	1.7	61	67	417	0.3	416	417	19.3	60.4
2025-07-16T07:22	10	65	0.6	64	66	417	0.2	416	417	19.3	59.7
2025-07-16T07:23	10	66	0.3	66	67	418	0.6	417	419	19.4	60.0
2025-07-16T07:24	10	67	0.1	67	67	419	0.5	418	420	19.5	60.5
2025-07-16T07:25	10	67	0.5	66	67	420	0.5	419	421	19.5	60.1
2025-07-16T07:26	10	66	0.2	65	66	419	0.7	418	421	19.5	58.9
2025-07-16T07:27	10	65	0.4	64	66	419	0.3	418	420	19.6	59.6
2025-07-16T07:28	10	64	0.2	64	65	419	0.4	418	419	19.6	59.0
2025-07-16T07:29	10	65	0.6	64	66	419	0.3	419	420	19.7	59.2
2025-07-16T07:30	10	72	6.9	66	85	420	0.6	419	421	19.6	58.6
2025-07-16T07:31	10	74	8.0	67	90	421	0.3	421	422	19.6	58.7
2025-07-16T07:32	10	70	1.9	67	75	422	0.5	421	424	19.8	59.1
2025-07-16T07:33	10	109	17.4	76	126	427	3.4	422	432	19.9	59.6
2025-07-16T07:34	10	133	16.5	101	150	434	2.1	430	436	20.0	59.1
2025-07-16T07:35	10	81	5.6	76	98	430	3.3	425	436	20.2	59.4
2025-07-16T07:36	10	79	1.9	76	82	426	0.5	425	427	20.1	57.9
2025-07-16T07:37	10	80	0.4	79	81	426	0.2	426	427	20.1	58.4
2025-07-16T07:38	10	81	1.9	77	84	427	0.4	426	428	20.3	57.9
2025-07-16T07:39	10	74	0.8	73	76	427	0.6	426	428	20.3	58.5
2025-07-16T07:40	10	76	2.5	73	82	427	0.6	426	428	20.3	58.0
2025-07-16T07:41	10	93	8.2	82	108	427	0.8	426	429	20.2	56.8
2025-07-16T07:42	10	106	8.6	95	123	429	0.5	428	430	20.1	57.7
2025-07-16T07:43	10	106	15.2	90	137	431	1.2	429	433	20.2	57.5
2025-07-16T07:44	10	79	4.9	73	92	428	1.1	427	430	20.2	57.1
2025-07-16T07:45	10	71	0.5	71	73	428	0.2	427	428	20.4	58.3
2025-07-16T07:46	10	74	1.4	72	76	427	0.8	426	429	20.4	57.3
2025-07-16T07:47	10	76	2.2	74	82	427	0.4	426	427	20.3	57.9
2025-07-16T07:48	10	84	3.1	81	91	427	0.3	426	427	20.3	57.5
2025-07-16T07:49	10	81	0.5	80	82	426	0.5	426	427	20.2	57.3
2025-07-16T07:50	10	80	1.8	78	84	427	0.5	426	428	20.3	55.7
2025-07-16T07:51	10	74	1.9	72	79	428	0.4	427	429	20.4	56.7
2025-07-16T07:52	10	69	1.5	67	72	427	0.5	426	428	20.5	56.8
2025-07-16T07:53	10	66	0.5	65	67	426	0.9	424	428	20.5	56.6
2025-07-16T07:54	10	65	0.3	64	65	424	0.4	423	425	20.4	55.4
2025-07-16T07:55	10	65	0.3	64	65	422	0.9	421	424	20.4	54.6
2025-07-16T07:56	10	66	0.7	65	68	422	0.3	422	423	20.4	54.1
2025-07-16T07:57	10	70	1.1	68	71	424	1.0	422	426	20.5	55.4
2025-07-16T07:58	10	73	0.8	71	74	426	0.5	425	427	20.6	56.2
2025-07-16T07:59	10	75	0.3	74	75	427	0.3	427	428	20.6	55.2
2025-07-16T08:00	10	70	2.4	66	74	427	0.2	426	427	20.5	55.0
2025-07-16T08:01	10	64	0.8	63	66	427	0.9	425	428	20.5	55.3
2025-07-16T08:02	10	64	0.4	63	64	425	0.8	423	426	20.5	55.0
2025-07-16T08:03	10	66	1.0	64	68	424	0.3	423	425	20.5	55.0
2025-07-16T08:04	10	69	0.9	68	71	425	1.1	423	427	20.6	55.2
2025-07-16T08:05	10	73	1.7	71	77	427	0.5	426	428	20.7	55.3
2025-07-16T08:06	10	86	4.8	77	96	429	1.0	427	431	20.7	54.0
2025-07-16T08:07	10	96	3.7	89	103	431	0.6	430	432	20.8	53.7
2025-07-16T08:08	10	89	4.1	84	100	431	0.4	430	432	20.8	54.1
2025-07-16T08:09	10	80	2.4	77	84	431	0.9	429	432	20.9	53.7
2025-07-16T08:10	10	78	1.1	77	81	430	0.3	429	430	20.8	53.1
2025-07-16T08:11	10	74	2.4	72	80	429	1.4	427	432	20.8	53.2
2025-07-16T08:12	10	70	1.3	68	72	428	0.4	427	429	20.8	54.0
2025-07-16T08:13	10	66	1.0	65	68	427	0.9	426	429	20.8	53.8
2025-07-16T08:14	10	64	0.4	63	65	427	0.5	426	428	20.8	54.2
2025-07-16T08:15	10	63	0.3	62	63	428	0.4	427	428	20.9	54.5
2025-07-16T08:16	10	62	0.4	61	62	427	0.5	426	428	20.9	52.9
2025-07-16T08:17	10	60	0.4	60	61	426	0.4	425	427	20.9	53.6
2025-07-16T08:18	10	59	0.2	59	60	425	0.3	424	425	20.9	53.9
2025-07-16T08:19	10	59	0.3	58	59	425	0.5	424	426	20.8	54.2
2025-07-16T08:20	10	58	0.5	57	60	424	0.3	424	425	20.8	54.1
2025-07-16T08:21	10	56	1.2	55	59	425	0.5	424	426	21.0	52.7
2025-07-16T08:22	10	54	0.6	53	55	423	0.8	422	425	21.0	49.6
2025-07-16T08:23	10	55	1.6	53	58	422	0.4	421	423	21.0	49.2
2025-07-16T08:24	10	67	13.1	55	98	423	2.0	421	427	21.0	51.3
2025-07-16T08:25	10	126	31.4	69	160	432	5.4	424	439	21.0	50.3
2025-07-16T08:26	10	95	14.9	82	129	432	2.2	429	438	21.0	49.4
2025-07-16T08:27	10	116	28.3	88	174	435	2.1	432	441	21.1	50.4
2025-07-16T08:28	10	164	8.7	145	174	441	0.7	439	442	21.2	48.7
2025-07-16T08:29	10	113	14.2	97	144	437	3.9	432	443	21.2	48.1
2025-07-16T08:30	10	87	12.3	71	116	432	1.1	430	434	21.2	48.4
2025-07-16T08:31	10	149	12.3	122	168	437	2.3	433	441	21.4	47.7
2025-07-16T08:32	10	151	13.3	127	165	439	0.8	437	440	21.3	46.8
2025-07-16T08:33	10	148	15.3	108	163	442	1.0	439	443	21.5	47.0
2025-07-16T08:34	10	138	15.1	108	157	442	1.1	440	444	21.8	46.8
2025-07-16T08:35	10	158	3.1	153	163	444	1.1	442	446	21.8	46.7
2025-07-16T08:36	10	162	1.7	156	164	446	0.5	445	447	21.8	46.1
2025-07-16T08:37	10	140	19.9	112	165	443	2.4	441	447	21.8	45.8
2025-07-16T08:38	10	134	13.3	115	158	442	2.3	438	445	21.7	46.3
2025-07-16T08:39	10	135	10.6	116	150	439	0.8	438	440	21.7	46.1
2025-07-16T08:40	10	115	13.0	94	137	438	0.8	437	440	21.6	46.4
2025-07-16T08:41	10	137	2.3	133	141	439	0.8	438	440	21.6	46.5
2025-07-16T08:42	10	142	7.0	132	153	439	1.3	438	442	21.4	46.8
2025-07-16T08:43	10	145	4.9	136	153	445	1.2	442	447	21.8	47.4
2025-07-16T08:44	10	146	7.7	129	153	445	0.5	444	446	21.7	46.5
2025-07-16T08:45	10	144	3.8	134	150	446	1.3	445	449	22.0	46.7
2025-07-16T08:46	10	155	5.4	146	164	446	2.0	444	450	21.8	46.6
2025-07-16T08:47	10	167	3.5	162	173	452	1.3	450	454	22.0	46.7
2025-07-16T08:48	10	177	4.1	172	186	456	2.4	453	460	22.1	46.4
2025-07-16T08:49	10	172	13.3	141	188	460	1.3	456	461	22.4	46.0
2025-07-16T08:50	10	133	19.2	105	164	452	3.7	444	458	22.1	45.2
2025-07-16T08:51	10	144	9.9	124	163	446	1.4	444	450	22.1	44.6
2025-07-16T08:52	10	162	12.6	142	186	450	1.7	447	453	22.1	44.1
2025-07-16T08:53	10	144	12.4	131	169	451	1.9	446	453	22.2	43.2
2025-07-16T08:54	10	167	15.3	135	187	449	1.1	447	451	21.9	43.1
2025-07-16T08:55	10	129	18.7	109	167	449	3.3	443	453	21.9	43.5
2025-07-16T08:56	10	115	5.0	109	126	443	0.7	441	445	21.9	43.4
2025-07-16T08:57	10	101	3.8	98	113	443	1.0	441	445	22.0	44.3
2025-07-16T08:58	10	96	0.8	94	97	441	1.1	439	443	22.1	43.8
2025-07-16T08:59	10	91	1.6	89	95	440	0.5	439	441	22.2	44.2
2025-07-16T09:00	10	89	0.5	88	90	438	2.1	435	441	22.1	43.7
2025-07-16T09:01	10	88	0.6	86	89	435	0.6	434	436	21.8	42.9
2025-07-16T09:02	10	85	0.4	85	86	434	0.6	433	435	21.7	43.5
2025-07-16T09:03	10	83	1.1	81	85	434	0.6	433	435	21.8	44.2
2025-07-16T09:04	10	77	2.0	73	81	434	0.7	432	435	21.9	44.7
2025-07-16T09:05	10	69	2.1	67	73	431	0.5	430	432	21.8	44.6
2025-07-16T09:06	10	69	0.4	67	69	431	0.6	430	432	21.9	44.3
2025-07-16T09:07	10	85	10.5	69	99	432	1.5	430	435	22.0	44.3
2025-07-16T09:08	10	101	14.2	78	136	436	1.2	434	439	22.0	44.0
2025-07-16T09:09	10	132	5.6	121	141	441	2.0	437	444	22.0	44.0
2025-07-16T09:10	10	112	12.3	102	136	443	0.8	441	444	22.0	44.0
2025-07-16T09:11	10	101	3.5	95	108	442	1.6	439	445	22.2	44.2
2025-07-16T09:12	10	92	5.7	87	106	439	0.7	438	440	22.0	43.7
2025-07-16T09:13	10	139	20.1	104	169	444	4.2	438	452	22.2	44.5
2025-07-16T09:14	10	159	5.4	151	168	450	0.9	448	451	22.3	43.6
2025-07-16T09:15	10	147	2.2	143	151	450	1.5	448	453	22.2	43.3
2025-07-16T09:16	10	143	3.0	137	147	452	1.1	450	454	22.4	43.4
2025-07-16T09:17	10	134	2.5	130	138	452	1.1	448	453	22.5	43.5
2025-07-16T09:18	10	137	3.7	132	145	446	1.0	445	449	22.1	43.0
2025-07-16T09:19	10	138	4.3	132	147	445	1.2	443	448	21.9	43.5
2025-07-16T09:20	10	145	8.2	124	155	445	0.6	444	446	21.9	44.0
2025-07-16T09:21	10	118	11.4	98	136	441	2.2	439	446	22.0	43.2
2025-07-16T09:22	10	132	7.0	118	144	442	1.7	439	444	21.8	42.6
2025-07-16T09:23	10	143	15.8	124	172	444	0.7	443	446	21.9	43.1
2025-07-16T09:24	10	130	19.9	103	162	447	1.7	444	449	22.1	43.2
2025-07-16T09:25	10	98	2.9	94	103	443	1.2	441	445	22.1	42.5
2025-07-16T09:26	10	96	1.0	94	98	440	0.8	439	442	22.1	43.2
2025-07-16T09:27	10	99	1.2	97	101	440	1.0	438	441	22.0	43.5
2025-07-16T09:28	10	104	2.1	101	107	439	1.0	437	441	22.1	43.7
2025-07-16T09:29	10	105	0.5	104	106	439	0.6	437	440	22.0	43.5
2025-07-16T09:30	10	105	0.6	104	107	439	0.8	437	440	22.0	43.8
2025-07-16T09:31	10	106	0.8	105	108	438	0.6	437	439	22.0	43.4
2025-07-16T09:32	10	107	3.2	103	116	440	0.6	438	441	22.0	43.4
2025-07-16T09:33	10	97	2.6	94	102	438	1.0	437	440	21.9	43.5
2025-07-16T09:34	10	91	1.4	88	93	438	0.6	437	439	21.9	44.4
2025-07-16T09:35	10	87	0.7	86	88	438	1.0	436	439	22.2	44.6
2025-07-16T09:36	10	87	0.8	86	89	436	0.6	434	437	22.1	44.2
2025-07-16T09:37	10	91	1.8	89	96	437	0.5	436	438	22.0	44.3
2025-07-16T09:38	10	98	3.4	96	107	438	0.5	437	439	21.9	44.4
2025-07-16T09:39	10	100	1.5	96	104	438	0.4	437	439	21.9	44.3
2025-07-16T09:40	10	101	2.3	98	106	439	0.5	438	440	22.0	44.6
2025-07-16T09:41	10	102	4.5	97	109	441	0.8	439	442	22.1	44.6
2025-07-16T09:42	10	118	11.7	108	146	442	1.2	440	446	22.1	44.6
2025-07-16T09:43	10	142	6.5	131	159	447	2.0	444	451	22.2	44.8
2025-07-16T09:44	10	121	7.4	112	133	449	0.9	448	451	22.5	45.2
2025-07-16T09:45	10	139	22.1	112	169	450	2.5	447	455	22.6	44.4
2025-07-16T09:46	10	120	11.4	110	153	447	3.8	442	455	22.3	44.4
2025-07-16T09:47	10	109	1.4	106	111	444	0.8	443	445	22.2	45.3
2025-07-16T09:48	10	100	2.6	96	106	442	1.4	440	444	22.2	45.0
2025-07-16T09:49	10	97	3.4	94	106	441	0.4	440	442	22.2	45.6
2025-07-16T09:50	10	105	7.0	99	137	440	1.2	437	442	22.2	43.8
2025-07-16T09:51	10	145	17.3	121	176	447	1.9	440	450	22.3	43.8
2025-07-16T09:52	10	160	11.9	147	184	452	2.4	448	455	22.3	43.6
2025-07-16T09:53	10	211	17.5	152	232	463	4.9	452	468	22.5	43.5
2025-07-16T09:54	10	231	13.5	192	245	472	3.0	465	475	22.6	43.3
2025-07-16T09:55	10	191	38.6	128	244	468	5.7	460	475	22.9	42.7
2025-07-16T09:56	10	121	22.6	104	199	456	3.5	452	465	22.9	42.5
2025-07-16T09:57	10	202	33.3	134	247	460	3.0	455	466	22.7	41.8
2025-07-16T09:58	10	185	39.0	119	248	467	2.4	462	472	22.9	42.0
2025-07-16T09:59	10	147	31.3	111	208	461	3.4	453	464	23.2	41.8
2025-07-16T10:00	10	131	20.3	101	184	452	2.8	446	456	22.6	41.7
2025-07-16T10:01	10	103	3.8	100	114	444	1.4	442	448	22.1	42.5
2025-07-16T10:02	10	115	6.1	103	124	445	0.9	443	447	22.2	43.2
2025-07-16T10:03	10	119	10.5	109	144	448	1.7	445	451	22.4	43.0
2025-07-16T10:04	10	131	7.7	114	144	450	2.8	445	453	22.1	42.9
2025-07-16T10:05	10	126	13.7	112	156	453	1.3	451	456	22.1	43.2
2025-07-16T10:06	10	107	6.5	97	115	450	1.3	447	452	22.2	43.1
2025-07-16T10:07	10	97	2.9	94	106	448	0.5	447	449	22.3	43.0
2025-07-16T10:08	10	92	4.6	83	101	445	1.7	441	449	22.3	43.4
2025-07-16T10:09	10	89	5.5	82	100	441	0.4	440	442	22.2	43.0
2025-07-16T10:10	10	99	9.9	86	121	442	1.1	440	444	22.2	43.0
2025-07-16T10:11	10	118	38.2	86	194	442	3.6	439	452	22.2	43.0
2025-07-16T10:12	10	186	23.6	140	224	455	4.0	450	462	22.2	43.0
2025-07-16T10:13	10	201	29.6	106	222	463	2.0	460	467	22.2	43.0
2025-07-16T10:14	10	121	17.0	89	148	457	2.6	451	462	22.2	43.0
2025-07-16T10:15	10	183	29.4	93	223	460	4.8	450	467	22.2	43.0
2025-07-16T10:16	10	204	34.9	139	242	468	2.8	462	472	22.2	43.0
2025-07-16T10:17	10	157	35.0	117	234	462	2.7	458	467	22.5	43.4
2025-07-16T10:18	10	123	12.7	107	173	461	4.2	454	467	23.2	42.9
2025-07-16T10:19	10	111	6.8	105	128	451	1.4	450	456	23.0	43.3
2025-07-16T10:20	10	116	3.3	111	121	449	1.0	447	452	22.9	43.9
2025-07-16T10:21	10	132	10.2	121	159	451	1.1	449	453	23.0	43.7
2025-07-16T10:22	10	143	13.2	124	173	454	1.7	451	457	22.7	43.7
2025-07-16T10:23	10	125	5.1	117	134	451	2.3	449	456	22.5	43.8
2025-07-16T10:24	10	120	5.1	115	131	449	1.9	446	452	22.4	43.7
2025-07-16T10:25	10	119	2.4	116	126	448	1.3	446	450	22.2	44.0
2025-07-16T10:26	10	146	23.0	126	205	452	1.5	449	455	22.6	44.2
2025-07-16T10:27	10	142	20.2	126	201	454	1.8	452	458	22.4	43.0
2025-07-16T10:28	10	133	6.8	121	144	454	0.6	453	455	22.3	43.2
2025-07-16T10:29	10	118	2.1	116	123	453	0.5	452	454	22.5	43.3
2025-07-16T10:30	10	127	6.5	121	147	454	1.1	452	457	22.8	43.9
2025-07-16T10:31	10	138	17.9	117	182	456	1.3	453	458	22.8	44.0
2025-07-16T10:32	10	134	10.1	119	157	455	2.0	451	458	22.9	43.8
2025-07-16T10:33	10	174	43.2	123	249	458	6.8	450	472	22.6	43.3
2025-07-16T10:34	10	190	30.6	140	244	469	1.9	465	472	23.1	43.0
2025-07-16T10:35	10	188	23.0	139	232	470	1.4	467	472	23.1	42.5
2025-07-16T10:36	10	155	20.9	129	200	463	4.6	457	470	22.9	41.6
2025-07-16T10:37	10	136	27.2	110	200	456	2.8	452	462	22.8	41.4
2025-07-16T10:38	10	131	39.3	97	225	458	4.2	450	466	22.9	42.6
2025-07-16T10:39	10	122	27.3	98	197	450	2.6	448	457	22.6	42.3
2025-07-16T10:40	10	127	13.7	111	153	455	2.2	452	458	22.7	42.6
2025-07-16T10:41	10	110	7.5	103	131	449	1.0	447	452	22.5	42.0
2025-07-16T10:42	10	99	7.6	88	111	447	2.1	444	451	22.5	41.7
2025-07-16T10:43	10	95	10.1	87	119	445	0.8	444	447	22.5	42.1
2025-07-16T10:44	10	92	3.9	87	98	442	1.3	441	446	22.4	42.2
2025-07-16T10:45	10	100	3.0	96	107	443	0.8	441	444	22.4	42.7
2025-07-16T10:46	10	107	7.7	96	119	446	2.1	443	449	22.5	42.8
2025-07-16T10:47	10	110	3.7	99	114	446	1.1	445	448	22.3	43.1
2025-07-16T10:48	10	90	3.6	87	99	445	1.4	443	448	22.4	43.4
2025-07-16T10:49	10	96	3.7	88	102	445	1.3	442	447	22.4	43.5
2025-07-16T10:50	10	84	8.0	73	100	445	2.1	442	448	22.6	43.4
2025-07-16T10:51	10	77	6.2	71	98	441	1.0	440	443	22.5	43.7
2025-07-16T10:52	10	135	24.8	98	182	445	3.7	440	453	22.4	43.4
2025-07-16T10:53	10	130	35.2	93	181	452	1.9	449	455	22.6	43.8
2025-07-16T10:54	10	92	11.7	78	115	447	1.4	445	450	22.6	43.6
2025-07-16T10:55	10	133	33.3	94	187	450	3.5	447	457	22.9	43.8
2025-07-16T10:56	10	153	16.7	128	187	458	1.3	455	460	22.8	43.4
2025-07-16T10:57	10	119	15.1	97	148	453	2.3	450	457	22.4	43.5
2025-07-16T10:58	10	106	8.9	94	122	450	1.5	446	452	22.7	44.0
2025-07-16T10:59	10	103	2.0	100	109	448	0.5	447	449	22.7	43.7
2025-07-16T11:00	10	104	13.4	88	142	447	1.0	445	449	22.5	43.7
2025-07-16T11:01	10	83	4.4	78	89	446	1.5	443	448	22.7	45.0
2025-07-16T11:02	10	79	0.8	78	80	442	0.8	440	444	22.7	44.0
2025-07-16T11:03	10	86	3.3	80	91	440	1.1	439	442	22.6	44.0
2025-07-16T11:04	10	85	4.2	82	94	440	0.9	439	442	22.6	43.2
2025-07-16T11:05	10	84	2.8	81	90	439	0.5	438	440	22.6	43.1
2025-07-16T11:06	10	79	1.6	77	83	440	0.8	439	441	22.6	43.4
2025-07-16T11:07	10	87	11.3	78	116	441	1.5	439	445	22.7	43.0
2025-07-16T11:08	10	111	20.7	93	158	445	2.0	443	451	22.8	43.1
2025-07-16T11:09	10	164	32.5	114	201	453	4.0	448	459	22.8	43.0
2025-07-16T11:10	10	173	14.9	129	187	456	3.0	450	460	22.9	42.9
2025-07-16T11:11	10	176	1.2	174	178	461	0.7	460	462	22.9	42.8
2025-07-16T11:12	10	172	1.8	169	175	463	1.4	460	466	22.9	42.5
2025-07-16T11:13	10	174	1.1	171	176	467	0.8	465	468	22.9	42.8
2025-07-16T11:14	10	168	20.1	105	179	466	1.5	463	469	23.3	42.6
2025-07-16T11:15	10	176	0.3	175	176	469	0.8	468	471	23.3	42.2
2025-07-16T11:16	10	177	0.9	176	179	469	1.4	466	471	23.4	42.3
2025-07-16T11:17	10	179	0.4	178	180	469	1.2	467	472	23.5	41.9
2025-07-16T11:18	10	178	2.4	173	180	465	3.2	462	473	23.3	41.1
2025-07-16T11:19	10	174	3.8	164	179	463	1.1	461	465	23.1	41.4
2025-07-16T11:20	10	169	2.4	164	172	467	1.5	464	470	23.5	41.7
2025-07-16T11:21	10	173	2.9	169	178	468	0.9	466	470	23.4	41.2
2025-07-16T11:22	10	178	0.5	178	179	471	2.6	468	476	23.4	41.6
2025-07-16T11:23	10	173	4.0	167	179	472	2.9	467	476	23.5	41.3
2025-07-16T11:24	10	162	6.3	148	169	471	1.2	469	473	23.2	41.6
2025-07-16T11:25	10	164	7.7	151	175	468	2.7	465	473	23.4	41.5
2025-07-16T11:26	10	174	5.5	163	184	470	1.9	466	473	23.3	41.5
2025-07-16T11:27	10	169	5.3	157	180	464	1.2	462	466	23.3	42.5
2025-07-16T11:28	10	180	0.9	178	183	468	3.5	462	474	23.1	41.7
2025-07-16T11:29	10	176	5.0	165	181	470	3.1	466	474	23.3	41.5
2025-07-16T11:30	10	178	3.2	171	184	470	1.4	466	471	23.3	41.2
2025-07-16T11:31	10	189	2.8	184	192	475	2.5	470	478	23.7	41.6
2025-07-16T11:32	10	192	3.1	184	196	476	1.1	474	478	23.7	40.9
2025-07-16T11:33	10	178	14.6	143	195	472	2.1	469	476	23.6	40.3
2025-07-16T11:34	10	185	8.2	166	198	474	1.8	471	478	23.7	40.4
2025-07-16T11:35	10	174	6.4	166	186	475	3.5	469	480	24.0	40.2
2025-07-16T11:36	10	167	5.2	156	175	471	0.6	470	473	23.9	40.8
2025-07-16T11:37	10	134	10.7	113	155	471	1.0	468	473	24.1	41.0
2025-07-16T11:38	10	131	9.7	115	144	465	2.6	462	470	24.1	41.3
2025-07-16T11:39	10	139	5.6	128	149	464	0.9	462	466	23.9	41.7
2025-07-16T11:40	10	156	9.3	140	174	466	1.5	463	469	24.0	41.6
2025-07-16T11:41	10	164	6.2	154	172	464	1.2	462	466	23.8	40.7
2025-07-16T11:42	10	165	12.1	142	183	463	0.9	461	465	23.5	40.5
2025-07-16T11:43	10	178	4.7	164	185	468	1.7	464	470	23.6	40.7
2025-07-16T11:44	10	177	0.5	176	178	470	1.6	468	473	23.5	40.8
2025-07-16T11:45	10	176	0.3	175	176	473	1.1	471	475	23.8	40.4
2025-07-16T11:46	10	176	3.9	163	180	475	2.2	471	477	23.8	40.5
2025-07-16T11:47	10	182	1.8	180	186	475	1.1	474	477	23.8	39.8
2025-07-16T11:48	10	191	3.4	186	197	478	1.6	475	481	24.1	40.6
2025-07-16T11:49	10	206	5.4	197	215	480	1.3	478	483	23.8	38.3
2025-07-16T11:50	10	194	27.3	133	222	483	2.3	477	486	23.9	37.1
2025-07-16T11:51	10	132	14.6	113	167	471	4.4	465	480	24.1	36.7
2025-07-16T11:52	10	137	28.6	103	214	466	2.0	461	470	24.0	37.4
2025-07-16T11:53	10	99	4.6	94	110	458	3.3	452	463	23.9	37.3
2025-07-16T11:54	10	94	2.9	91	101	452	1.0	451	454	23.7	37.4
2025-07-16T11:55	10	90	0.4	89	91	450	1.3	448	452	23.6	38.2
2025-07-16T11:56	10	93	2.5	89	97	449	0.4	448	450	23.6	38.9
2025-07-16T11:57	10	98	0.8	97	100	451	1.9	448	454	23.4	38.3
2025-07-16T11:58	10	100	2.9	95	104	454	1.0	452	457	23.5	38.3
2025-07-16T11:59	10	101	2.5	98	107	458	1.1	455	460	24.0	39.5
2025-07-16T12:00	10	161	39.4	101	209	467	7.8	456	477	24.2	39.1
2025-07-16T12:01	10	156	21.4	118	202	472	2.2	467	476	24.3	38.4
2025-07-16T12:02	10	146	10.2	132	164	466	0.5	465	468	23.9	38.7
2025-07-16T12:03	10	185	13.9	159	212	473	3.9	466	479	24.0	40.2
2025-07-16T12:04	10	198	11.4	178	220	476	1.8	473	478	24.0	39.3
2025-07-16T12:05	10	201	10.2	161	209	479	1.0	476	481	24.2	39.8
2025-07-16T12:06	10	213	17.3	163	230	477	2.0	473	480	24.2	39.8
2025-07-16T12:07	10	228	5.0	213	234	479	1.1	477	481	24.2	40.1
2025-07-16T12:08	10	197	38.0	127	240	478	3.3	472	481	24.2	40.2
2025-07-16T12:09	10	120	11.7	110	163	466	5.0	460	476	23.9	40.6
2025-07-16T12:10	10	120	4.1	114	131	462	1.0	460	463	24.0	41.0
2025-07-16T12:11	10	114	3.3	110	121	460	1.5	458	463	24.0	39.1
2025-07-16T12:12	10	105	3.3	102	115	459	0.7	458	460	24.0	39.4
2025-07-16T12:13	10	110	3.4	105	118	456	0.8	455	458	24.0	39.0
2025-07-16T12:14	10	107	0.6	106	108	455	0.7	453	456	23.9	39.6
2025-07-16T12:15	10	109	1.1	108	113	458	1.3	456	460	24.0	39.8
2025-07-16T12:16	10	114	1.8	111	117	460	0.6	459	462	24.2	40.0
2025-07-16T12:17	10	111	2.4	106	115	457	1.6	454	460	23.8	39.7
2025-07-16T12:18	10	104	0.8	103	106	455	0.8	454	457	23.6	39.5
2025-07-16T12:19	10	103	0.5	102	103	456	0.8	455	458	23.8	40.0
2025-07-16T12:20	10	102	0.7	101	104	456	0.5	455	457	23.8	39.7
2025-07-16T12:21	10	98	1.4	96	101	455	2.0	452	458	24.0	39.2
2025-07-16T12:22	10	94	1.1	92	96	451	1.1	449	453	23.9	38.8
2025-07-16T12:23	10	91	0.7	90	93	449	0.4	448	450	23.9	38.5
2025-07-16T12:24	10	89	0.4	89	90	449	1.0	447	450	24.0	38.8
2025-07-16T12:25	10	88	0.4	88	89	448	0.5	447	449	23.9	38.6
2025-07-16T12:26	10	88	0.5	87	90	450	1.5	448	453	24.1	39.1
2025-07-16T12:27	10	89	0.7	88	90	452	0.5	450	452	24.2	38.9
2025-07-16T12:28	10	88	0.3	87	88	449	0.5	448	450	24.0	39.8
2025-07-16T12:29	10	86	0.3	86	87	450	0.4	449	451	24.2	40.4
2025-07-16T12:30	10	83	2.6	80	88	450	1.0	448	452	24.1	40.4
2025-07-16T12:31	10	77	1.5	75	80	447	1.7	444	449	24.0	40.7
2025-07-16T12:32	10	72	1.4	70	75	444	0.5	443	445	23.7	40.4
2025-07-16T12:33	10	68	1.1	66	70	444	0.4	443	445	23.8	41.3
2025-07-16T12:34	10	64	1.0	63	66	443	1.4	440	445	23.9	41.0
2025-07-16T12:35	10	61	0.7	60	63	440	0.3	440	441	23.8	41.1
2025-07-16T12:36	10	60	0.3	59	60	441	0.6	440	442	23.9	41.5
2025-07-16T12:37	10	59	0.1	59	59	440	0.6	440	441	23.8	41.0
2025-07-16T12:38	10	59	0.2	59	60	439	0.4	439	441	23.7	41.2
2025-07-16T12:39	10	60	0.5	60	61	441	0.4	440	441	23.7	40.9
2025-07-16T12:40	10	62	0.6	61	63	442	0.5	441	442	23.7	40.6
2025-07-16T12:41	10	64	0.7	63	66	442	0.5	441	443	23.8	41.1
2025-07-16T12:42	10	67	0.9	65	69	443	0.5	442	444	23.9	41.0
2025-07-16T12:43	10	71	1.6	69	74	444	1.2	442	446	23.8	40.5
2025-07-16T12:44	10	77	1.7	74	80	447	0.5	445	448	23.9	40.6
2025-07-16T12:45	10	81	0.4	80	81	448	0.6	447	449	23.9	41.3
2025-07-16T12:46	10	81	0.2	80	81	448	0.5	447	449	23.9	42.0
2025-07-16T12:47	10	81	0.8	80	83	449	0.6	448	450	23.8	42.3
2025-07-16T12:48	10	87	3.0	83	94	449	0.7	448	451	23.7	42.5
2025-07-16T12:49	10	88	0.5	87	89	450	0.3	450	451	23.6	42.2
2025-07-16T12:50	10	86	0.6	85	87	451	1.0	449	452	23.7	42.5
2025-07-16T12:51	10	84	0.7	83	85	448	1.0	446	449	23.6	41.4
2025-07-16T12:52	10	84	0.3	83	84	446	0.4	445	447	23.5	42.1
2025-07-16T12:53	10	86	1.2	84	88	447	0.6	446	448	23.5	41.7
2025-07-16T12:54	10	88	0.5	88	89	448	0.4	447	448	23.6	42.0
2025-07-16T12:55	10	91	1.1	89	93	448	0.5	447	449	23.6	41.8
2025-07-16T12:56	10	95	1.2	93	97	449	0.8	447	450	23.6	41.8
2025-07-16T12:57	10	91	1.9	88	95	450	0.4	449	450	23.7	42.3
2025-07-16T12:58	10	86	1.2	83	88	449	0.5	447	450	23.7	42.4
2025-07-16T12:59	10	82	1.2	80	84	447	0.7	445	448	23.7	42.0
2025-07-16T13:00	10	78	1.1	76	80	445	0.7	444	446	23.6	41.8
2025-07-16T13:01	10	75	0.6	74	76	443	0.7	442	445	23.5	42.0
2025-07-16T13:02	10	74	0.1	73	74	442	0.4	441	443	23.5	42.2
2025-07-16T13:03	10	73	0.2	73	74	443	0.8	441	444	23.6	42.6
2025-07-16T13:04	10	72	0.3	72	73	443	0.7	442	444	23.6	42.1
2025-07-16T13:05	10	71	0.4	70	72	443	0.3	442	444	23.7	42.4
2025-07-16T13:06	10	69	0.9	67	70	443	0.3	442	444	23.7	42.3
2025-07-16T13:07	10	65	1.6	62	67	442	0.7	441	443	23.6	41.7
2025-07-16T13:08	10	59	1.4	57	62	441	0.4	440	441	23.5	41.6
2025-07-16T13:09	10	55	0.8	54	57	440	0.5	439	441	23.6	41.7
2025-07-16T13:10	10	53	0.6	52	54	439	0.7	437	440	23.6	41.3
2025-07-16T13:11	10	51	0.6	50	52	438	0.3	437	438	23.5	41.5
2025-07-16T13:12	10	49	0.3	49	50	437	0.3	436	438	23.6	41.8
2025-07-16T13:13	10	49	0.1	48	49	437	0.4	436	438	23.6	41.7
2025-07-16T13:14	10	48	0.2	48	49	438	0.2	437	438	23.6	41.9
2025-07-16T13:15	10	48	0.2	48	49	436	0.7	435	438	23.5	42.1
2025-07-16T13:16	10	48	0.2	48	49	436	0.3	435	437	23.5	42.4
2025-07-16T13:17	10	48	0.3	47	48	435	0.6	433	436	23.4	42.6
2025-07-16T13:18	10	46	0.9	46	51	434	0.2	433	434	23.3	42.7
2025-07-16T13:19	10	45	0.2	45	46	434	0.5	433	435	23.3	42.8
2025-07-16T13:20	10	45	0.1	45	45	434	0.2	433	434	23.4	43.2
2025-07-16T13:21	10	45	0.3	45	46	433	0.2	433	434	23.3	43.3
2025-07-16T13:22	10	46	0.1	46	46	434	0.5	433	435	23.4	43.7
2025-07-16T13:23	10	46	0.2	46	46	434	0.3	433	435	23.3	43.9
2025-07-16T13:24	10	46	0.1	45	46	434	0.4	434	435	23.4	44.1
2025-07-16T13:25	10	46	0.3	46	47	435	0.2	434	435	23.5	44.1
2025-07-16T13:26	10	47	0.2	47	48	434	0.2	434	435	23.4	43.9
2025-07-16T13:27	10	47	0.3	46	47	435	0.4	434	436	23.4	43.5
2025-07-16T13:28	10	45	0.7	44	46	435	0.4	434	436	23.4	43.3
2025-07-16T13:29	10	42	0.8	41	44	435	0.5	433	436	23.3	43.3
2025-07-16T13:30	10	40	0.4	40	41	434	0.3	433	434	23.3	43.4
2025-07-16T13:31	10	39	0.2	39	40	433	0.3	432	434	23.2	43.6
2025-07-16T13:32	10	39	0.2	39	39	432	0.6	432	434	23.2	43.5
2025-07-16T13:33	10	39	0.1	39	39	433	0.6	432	434	23.3	43.7
2025-07-16T13:34	10	39	0.2	39	39	433	0.3	432	433	23.3	43.6
2025-07-16T13:35	10	40	0.2	39	40	432	0.5	431	433	23.2	43.6
2025-07-16T13:36	10	41	0.4	40	41	431	0.3	430	432	23.1	42.8
2025-07-16T13:37	10	42	0.7	41	43	432	0.4	431	433	23.1	43.5
2025-07-16T13:38	10	45	1.0	43	47	433	0.3	432	433	23.1	43.8
2025-07-16T13:39	10	48	1.0	47	50	432	0.3	432	433	23.0	43.4
2025-07-16T13:40	10	52	0.9	50	53	433	0.6	432	434	23.0	43.4
2025-07-16T13:41	10	54	0.6	53	55	434	0.3	433	434	23.0	43.3
2025-07-16T13:42	10	55	0.2	55	55	434	0.3	433	435	23.0	43.5
2025-07-16T13:43	10	55	0.1	55	56	434	0.5	433	435	23.0	43.4
2025-07-16T13:44	10	55	0.4	54	55	434	0.3	433	434	23.0	44.3
2025-07-16T13:45	10	53	0.4	53	54	433	0.4	432	434	23.0	44.7
2025-07-16T13:46	10	52	0.3	51	53	431	1.5	429	434	23.0	44.8
2025-07-16T13:47	10	51	0.7	49	52	428	0.9	427	430	22.8	44.4
2025-07-16T13:48	10	48	0.9	46	49	428	0.5	426	428	22.8	45.3
2025-07-16T13:49	10	45	0.5	44	46	428	0.5	427	429	22.8	46.7
2025-07-16T13:50	10	44	0.3	43	44	429	0.4	429	430	22.8	46.9
2025-07-16T13:51	10	43	0.1	43	44	430	0.4	429	431	22.8	47.0
2025-07-16T13:52	10	43	0.2	43	44	430	0.5	428	431	22.8	47.3
2025-07-16T13:53	10	44	0.5	44	45	429	0.5	428	430	22.8	46.1
2025-07-16T13:54	10	47	0.7	45	48	429	0.3	429	430	22.8	45.9
2025-07-16T13:55	10	49	0.6	48	50	430	0.5	429	431	22.9	46.5
2025-07-16T13:56	10	50	0.1	50	50	431	0.6	430	432	22.9	46.7
2025-07-16T13:57	10	49	0.4	49	50	432	0.3	431	432	22.8	45.9
2025-07-16T13:58	10	48	0.5	47	49	430	0.7	429	432	22.8	45.3
2025-07-16T13:59	10	46	0.4	46	47	430	0.3	429	430	22.9	46.3
2025-07-16T14:00	10	46	1.3	45	54	429	0.2	429	430	22.8	46.6
2025-07-16T14:01	10	45	0.3	44	45	430	0.5	429	431	22.8	47.2
2025-07-16T14:02	10	44	0.5	43	44	429	0.9	427	430	22.8	47.1
2025-07-16T14:03	10	42	0.4	41	43	427	0.5	426	428	22.7	46.0
2025-07-16T14:04	10	41	0.2	41	41	426	0.3	425	427	22.6	45.8
2025-07-16T14:05	10	41	0.1	41	41	426	0.3	425	426	22.5	46.1
2025-07-16T14:06	10	42	0.5	41	43	427	0.6	426	428	22.5	46.8
2025-07-16T14:07	10	45	1.0	43	46	428	0.7	427	430	22.5	47.5
2025-07-16T14:08	10	49	1.4	46	51	431	0.7	429	432	22.6	47.5
2025-07-16T14:09	10	53	1.4	51	56	431	0.6	430	432	22.6	47.9
2025-07-16T14:10	10	58	1.5	56	61	430	0.9	429	432	22.4	47.5
2025-07-16T14:11	10	63	1.3	61	65	433	0.6	431	434	22.5	48.5
2025-07-16T14:12	10	67	0.8	65	68	433	0.6	431	434	22.4	47.9
2025-07-16T14:13	10	68	0.2	68	68	435	0.8	433	436	22.4	48.5
2025-07-16T14:14	10	66	0.9	65	68	434	0.4	433	435	22.4	47.3
2025-07-16T14:15	10	63	1.2	61	65	434	0.7	433	435	22.3	46.8
2025-07-16T14:16	10	58	1.5	55	61	434	0.4	433	434	22.2	47.5
2025-07-16T14:17	10	53	1.5	50	55	433	0.5	432	434	22.2	48.2
2025-07-16T14:18	10	48	1.1	47	50	432	0.5	431	433	22.2	47.7
2025-07-16T14:19	10	45	0.7	44	47	431	0.7	429	432	22.1	46.3
2025-07-16T14:20	10	44	0.3	44	44	429	0.5	428	430	22.0	46.0
2025-07-16T14:21	10	43	0.2	43	44	429	0.2	428	429	22.0	46.5
2025-07-16T14:22	10	42	0.4	42	43	429	0.3	428	429	22.0	46.8
2025-07-16T14:23	10	41	0.3	41	42	428	1.0	426	429	22.0	46.2
2025-07-16T14:24	10	41	0.1	40	41	427	0.4	426	428	22.0	46.5
2025-07-16T14:25	10	41	0.2	40	41	428	0.6	427	429	22.1	47.0
2025-07-16T14:26	10	40	0.2	40	40	430	0.8	428	431	22.1	47.0
2025-07-16T14:27	10	39	0.3	39	40	431	0.3	430	431	22.2	46.6
2025-07-16T14:28	10	38	0.5	37	39	430	0.9	428	431	22.2	46.3
2025-07-16T14:29	10	36	0.6	35	37	428	0.3	427	429	22.1	45.2
2025-07-16T14:30	10	35	0.3	34	35	428	0.3	427	429	22.1	45.7
2025-07-16T14:31	10	34	0.3	33	34	428	0.3	428	429	22.1	46.1
2025-07-16T14:32	10	33	0.2	33	34	427	0.7	426	429	22.1	46.1
2025-07-16T14:33	10	33	0.2	33	34	427	0.5	426	428	22.1	46.3
2025-07-16T14:34	10	34	0.1	33	34	428	0.4	427	429	22.1	46.5
2025-07-16T14:35	10	34	0.2	34	35	428	0.3	428	429	22.0	46.6
2025-07-16T14:36	10	33	0.4	33	34	428	0.3	427	429	22.1	46.5
2025-07-16T14:37	10	32	0.5	31	33	428	0.3	427	428	22.1	46.7
2025-07-16T14:38	10	30	0.5	30	31	428	0.3	427	429	22.1	46.8
2025-07-16T14:39	10	29	0.4	29	30	426	0.6	425	427	22.0	47.7
2025-07-16T14:40	10	28	0.3	28	29	426	0.3	425	427	22.0	48.0
2025-07-16T14:41	10	28	0.2	27	28	426	0.2	425	426	22.0	47.0
2025-07-16T14:42	10	28	0.2	27	28	425	0.3	425	426	22.0	47.1
2025-07-16T14:43	10	29	0.6	28	30	425	0.3	424	426	22.0	47.0
2025-07-16T14:44	10	31	0.9	30	33	426	0.4	425	427	22.0	47.1
2025-07-16T14:45	10	35	1.1	33	37	427	0.4	426	428	22.0	47.5
2025-07-16T14:46	10	38	0.8	36	39	428	0.7	426	429	22.0	48.0
2025-07-16T14:47	10	39	0.4	39	40	429	0.5	428	430	22.0	47.8
2025-07-16T14:48	10	40	0.3	39	40	430	0.4	429	431	22.1	47.8
2025-07-16T14:49	10	38	0.4	38	39	430	0.2	430	431	22.0	47.6
2025-07-16T14:50	10	37	0.3	37	38	430	0.2	430	431	22.0	47.7
2025-07-16T14:51	10	37	0.2	36	37	431	0.3	430	431	22.1	48.1
2025-07-16T14:52	10	37	0.2	36	38	430	0.8	429	432	22.1	48.0
2025-07-16T14:53	10	37	0.2	37	38	430	0.6	429	432	22.1	48.6
2025-07-16T14:54	10	37	0.2	37	38	432	0.3	431	432	22.1	48.9
2025-07-16T14:55	10	38	0.2	37	38	431	0.3	430	432	22.1	48.4
2025-07-16T14:56	10	38	0.2	37	38	432	0.2	432	432	22.1	48.8
2025-07-16T14:57	10	37	0.3	36	38	430	1.1	429	432	22.1	48.1
2025-07-16T14:58	10	36	0.3	35	37	429	0.4	428	430	22.1	48.4
2025-07-16T14:59	10	36	0.2	35	36	429	0.3	428	430	22.1	48.6
2025-07-16T15:00	10	36	0.2	36	36	428	0.3	427	429	22.2	48.2
2025-07-16T15:01	10	37	0.2	36	37	428	0.4	427	429	22.2	48.0
2025-07-16T15:02	10	37	0.3	36	37	428	0.5	426	429	22.2	48.2
2025-07-16T15:03	10	35	0.6	34	36	429	0.3	428	429	22.3	48.8
2025-07-16T15:04	10	34	0.4	33	34	429	0.4	428	430	22.3	48.8
2025-07-16T15:05	10	32	0.5	32	33	427	0.2	427	428	22.3	48.0
2025-07-16T15:06	10	31	0.3	31	32	428	0.4	427	429	22.3	49.0
2025-07-16T15:07	10	30	0.4	29	31	427	0.5	426	428	22.3	47.8
2025-07-16T15:08	10	29	0.4	28	30	427	0.3	426	427	22.3	47.3
2025-07-16T15:09	10	27	0.4	26	28	426	0.3	425	427	22.4	47.2
2025-07-16T15:10	10	26	0.5	25	27	426	0.3	425	426	22.4	46.8
2025-07-16T15:11	10	24	0.4	24	25	425	0.4	425	426	22.5	47.2
2025-07-16T15:12	10	23	0.3	22	24	425	0.3	424	425	22.5	47.1
2025-07-16T15:13	10	22	0.3	22	23	424	0.5	423	425	22.5	46.0
2025-07-16T15:14	10	22	0.1	22	23	424	0.3	423	424	22.5	45.1
2025-07-16T15:15	10	22	0.2	22	23	423	0.2	423	424	22.4	45.3
2025-07-16T15:16	10	22	0.2	21	22	423	0.3	422	423	22.4	45.1
2025-07-16T15:17	10	21	0.2	21	22	423	0.3	423	424	22.4	45.3
2025-07-16T15:18	10	21	0.3	20	21	423	0.3	422	424	22.4	45.3
2025-07-16T15:19	10	20	0.3	19	20	423	0.3	422	423	22.4	45.5
2025-07-16T15:20	10	18	0.4	18	19	422	0.3	422	423	22.4	45.8
2025-07-16T15:21	10	17	0.4	16	18	423	0.3	422	423	22.4	46.3
2025-07-16T15:22	10	16	0.3	15	17	423	0.2	422	423	22.4	46.5
2025-07-16T15:23	10	15	0.3	14	15	423	0.2	422	423	22.4	46.6
2025-07-16T15:24	10	14	0.3	13	14	422	0.2	422	423	22.4	46.6
2025-07-16T15:25	10	13	0.2	13	13	422	0.3	421	423	22.4	46.7
2025-07-16T15:26	10	12	0.2	12	13	422	0.2	421	422	22.4	46.7
2025-07-16T15:27	10	12	0.1	12	12	421	0.2	421	422	22.4	46.8
2025-07-16T15:28	10	12	0.1	12	13	421	0.2	421	422	22.4	46.6
2025-07-16T15:29	10	12	0.1	12	12	421	0.2	421	421	22.4	47.1
2025-07-16T15:30	10	12	0.1	12	13	421	0.3	421	422	22.3	46.8
2025-07-16T15:31	10	12	0.2	12	12	422	0.2	421	422	22.3	46.9
2025-07-16T15:32	10	13	0.2	12	13	422	0.2	421	422	22.3	47.1
2025-07-16T15:33	10	13	0.1	13	13	422	0.2	421	422	22.3	47.3
2025-07-16T15:34	10	13	0.1	13	13	422	0.2	421	422	22.3	47.1
2025-07-16T15:35	10	13	0.1	12	13	422	0.2	421	422	22.3	47.7
2025-07-16T15:36	10	12	0.1	12	13	422	0.2	421	422	22.3	47.8
2025-07-16T15:37	10	12	0.1	12	13	421	0.2	421	422	22.3	47.7
2025-07-16T15:38	10	13	0.3	12	13	421	0.3	421	422	22.2	47.6
2025-07-16T15:39	10	14	0.4	13	15	421	0.2	421	422	22.2	47.7
2025-07-16T15:40	10	15	0.4	15	16	421	0.3	421	422	22.2	47.8
2025-07-16T15:41	10	16	0.3	16	17	422	0.2	421	422	22.2	48.0
2025-07-16T15:42	10	17	0.1	17	17	423	0.4	422	423	22.2	48.4
2025-07-16T15:43	10	17	0.1	17	17	423	0.4	422	424	22.2	48.8
2025-07-16T15:44	10	17	0.1	17	17	422	0.4	421	423	22.1	48.9
2025-07-16T15:45	10	17	0.1	16	17	422	0.4	421	423	22.1	49.1
2025-07-16T15:46	10	16	0.2	16	16	422	0.2	421	422	22.1	49.1
2025-07-16T15:47	10	16	0.2	15	16	421	0.3	421	422	22.1	48.7
2025-07-16T15:48	10	15	0.1	15	15	422	0.2	421	422	22.1	49.2
2025-07-16T15:49	10	15	0.1	15	15	421	0.3	421	422	22.1	49.1
2025-07-16T15:50	10	15	0.1	15	16	421	0.2	420	421	22.0	49.2
2025-07-16T15:51	10	16	0.1	15	16	421	0.2	420	421	22.0	49.4
2025-07-16T15:52	10	15	0.2	15	16	421	0.3	420	422	22.0	49.9
2025-07-16T15:53	10	15	0.2	14	15	421	0.2	421	422	22.0	50.0
2025-07-16T15:54	10	14	0.3	13	14	421	0.2	421	422	22.0	49.7
2025-07-16T15:55	10	13	0.1	13	13	420	0.3	420	421	22.0	49.7
2025-07-16T15:56	10	13	0.1	13	14	420	0.2	420	421	22.0	49.7
2025-07-16T15:57	10	14	0.2	14	14	420	0.2	420	421	22.0	49.9
2025-07-16T15:58	10	15	0.2	14	15	420	0.2	420	420	21.9	49.8
2025-07-16T15:59	10	15	0.1	15	15	420	0.2	420	420	21.9	49.9
2025-07-16T16:00	10	15	0.1	15	15	420	0.3	420	421	21.9	50.3
2025-07-16T16:01	10	15	0.2	15	15	420	0.2	420	421	21.9	50.7
2025-07-16T16:02	10	14	0.3	14	15	420	0.3	420	421	21.8	50.8
2025-07-16T16:03	10	13	0.3	13	14	420	0.2	419	420	21.8	50.9
2025-07-16T16:04	10	12	0.3	12	13	419	0.3	418	420	21.7	50.7
2025-07-16T16:05	10	12	0.1	12	12	419	0.2	418	419	21.7	50.9
2025-07-16T16:06	10	12	0.2	12	12	418	0.2	418	419	21.7	50.7
2025-07-16T16:07	10	12	0.1	12	12	418	0.2	418	419	21.6	51.0
2025-07-16T16:08	10	12	0.1	12	13	418	0.3	418	419	21.6	51.2
2025-07-16T16:09	10	12	0.1	12	12	418	0.3	417	418	21.5	51.4
2025-07-16T16:10	10	12	0.1	12	12	418	0.2	417	418	21.4	51.5
2025-07-16T16:11	10	12	0.3	12	13	417	0.3	417	418	21.3	52.0
2025-07-16T16:12	10	14	0.3	13	14	417	0.3	416	418	21.3	52.5
2025-07-16T16:13	10	14	0.1	14	14	418	0.3	417	418	21.2	53.1
2025-07-16T16:14	10	14	0.1	14	14	417	0.3	417	418	21.2	53.2
2025-07-16T16:15	10	14	0.1	14	14	417	0.4	416	418	21.2	53.3
2025-07-16T16:16	10	14	0.2	14	15	416	0.2	416	417	21.1	54.0
2025-07-16T16:17	10	15	0.2	14	15	416	0.3	416	417	21.1	54.1
2025-07-16T16:18	10	15	0.1	15	16	416	0.3	416	417	21.0	54.6
2025-07-16T16:19	10	15	0.1	15	16	416	0.4	415	417	21.0	54.3
2025-07-16T16:20	10	16	0.2	15	16	416	0.4	415	417	21.0	54.4
2025-07-16T16:21	10	16	0.1	16	16	417	0.3	416	417	21.0	54.5
2025-07-16T16:22	10	16	0.1	15	16	416	0.2	416	417	21.0	54.0
2025-07-16T16:23	10	15	0.1	15	16	416	0.2	416	417	21.0	54.5
2025-07-16T16:24	10	15	0.1	15	16	416	0.3	415	417	20.9	54.8
2025-07-16T16:25	10	16	0.4	16	17	417	0.2	416	417	20.9	55.1
2025-07-16T16:26	10	17	0.2	16	17	417	0.3	416	417	20.9	55.7
2025-07-16T16:27	10	16	0.2	16	16	417	0.4	416	418	20.9	55.4
2025-07-16T16:28	10	15	0.2	15	16	417	0.3	416	417	20.9	55.3
2025-07-16T16:29	10	14	0.2	14	15	417	0.2	416	418	20.9	55.6
2025-07-16T16:30	10	14	0.1	14	14	417	0.3	417	418	20.9	55.3
2025-07-16T16:31	10	13	0.2	13	14	417	0.2	417	418	21.0	54.7
2025-07-16T16:32	10	13	0.1	13	13	417	0.2	416	417	21.0	55.5
2025-07-16T16:33	10	13	0.1	13	13	417	0.2	416	417	21.0	55.0
2025-07-16T16:34	10	13	0.1	13	13	417	0.3	416	418	21.0	54.9
2025-07-16T16:35	10	13	0.1	13	14	417	0.2	417	418	21.1	54.1
2025-07-16T16:36	10	14	0.1	13	14	417	0.3	417	418	21.0	55.9
2025-07-16T16:37	10	13	0.1	13	14	417	0.2	417	418	21.0	55.7
2025-07-16T16:38	10	13	0.2	13	13	417	0.2	417	418	21.0	55.5
2025-07-16T16:39	10	13	0.2	12	13	417	0.2	417	418	21.0	54.7
2025-07-16T16:40	10	12	0.1	12	13	417	0.2	417	418	21.0	54.8
2025-07-16T16:41	10	13	0.2	12	13	417	0.3	416	418	21.1	54.1
2025-07-16T16:42	10	14	0.4	13	15	417	0.3	416	417	21.1	54.8
2025-07-16T16:43	10	15	0.4	15	16	417	0.3	417	418	20.9	56.3
2025-07-16T16:44	10	16	0.1	16	16	418	0.2	417	418	20.9	55.8
2025-07-16T16:45	10	16	0.2	15	16	417	0.2	417	418	20.9	56.9
2025-07-16T16:46	10	15	0.4	14	15	417	0.3	416	418	20.9	55.9
2025-07-16T16:47	10	14	0.3	13	14	416	0.3	416	417	20.8	56.8
2025-07-16T16:48	10	13	0.1	13	13	416	0.2	416	417	20.8	57.1
2025-07-16T16:49	10	13	0.1	13	13	416	0.2	415	416	20.7	58.0
2025-07-16T16:50	10	14	0.1	13	14	416	0.2	416	416	20.7	58.0
2025-07-16T16:51	10	14	0.1	14	14	416	0.2	415	417	20.8	57.2
2025-07-16T16:52	10	13	0.2	13	14	416	0.3	415	416	20.8	56.9
2025-07-16T16:53	10	13	0.1	13	13	416	0.2	416	416	20.8	57.0
2025-07-16T16:54	10	13	0.1	13	13	416	0.2	415	416	20.8	56.4
2025-07-16T16:55	10	13	0.1	13	14	416	0.2	415	417	20.8	56.8
2025-07-16T16:56	10	13	0.1	13	14	416	0.2	416	417	20.8	56.9
2025-07-16T16:57	10	13	0.1	13	13	416	0.2	416	417	20.8	56.9
2025-07-16T16:58	10	13	0.2	12	13	416	0.2	415	417	20.8	57.0
2025-07-16T16:59	10	12	0.1	12	12	416	0.2	415	416	20.9	56.3
2025-07-16T17:00	10	12	0.1	12	12	416	0.2	415	416	21.0	55.6
2025-07-16T17:01	10	12	0.1	12	12	416	0.2	415	417	21.0	55.6
2025-07-16T17:02	10	12	0.1	12	12	416	0.2	416	416	21.0	55.2
2025-07-16T17:03	10	12	0.1	12	12	416	0.3	416	417	21.0	55.6
2025-07-16T17:04	10	12	0.2	11	12	416	0.2	416	417	21.0	55.1
2025-07-16T17:05	10	11	0.1	11	11	416	0.2	416	417	21.1	54.4
2025-07-16T17:06	10	11	0.1	10	11	417	0.3	416	417	21.1	54.9
2025-07-16T17:07	10	10	0.1	10	10	417	0.2	416	417	21.1	55.2
2025-07-16T17:08	10	10	0.1	10	11	417	0.3	416	417	21.1	55.7
2025-07-16T17:09	10	10	0.1	10	11	417	0.2	416	417	21.1	55.3
2025-07-16T17:10	10	10	0.1	10	10	417	0.2	416	417	21.1	54.4
2025-07-16T17:11	10	10	0.1	10	11	417	0.2	416	417	21.2	54.5
2025-07-16T17:12	10	10	0.1	10	10	417	0.2	417	417	21.1	54.9
2025-07-16T17:13	10	10	0.1	10	11	417	0.2	417	418	21.2	54.2
2025-07-16T17:14	10	11	0.2	10	11	417	0.2	417	418	21.3	52.9
2025-07-16T17:15	10	11	0.1	11	11	418	0.3	417	418	21.5	51.5
2025-07-16T17:16	10	11	0.1	11	11	418	0.2	417	418	21.6	51.7
2025-07-16T17:17	10	11	0.1	11	11	417	0.2	417	418	21.5	52.6
2025-07-16T17:18	10	12	0.2	11	12	417	0.3	417	419	21.6	51.4
2025-07-16T17:19	10	12	0.2	12	12	418	0.2	417	418	21.7	50.7
2025-07-16T17:20	10	13	0.2	12	13	418	0.2	417	418	21.7	50.9
2025-07-16T17:21	10	13	0.2	13	14	418	0.2	418	418	21.7	50.9
2025-07-16T17:22	10	14	0.2	14	14	418	0.2	418	418	21.7	50.8
2025-07-16T17:23	10	15	0.3	14	15	418	0.2	418	419	21.7	51.7
2025-07-16T17:24	10	16	0.4	15	17	418	0.3	417	418	21.6	52.1
2025-07-16T17:25	10	17	0.3	17	18	418	0.2	418	419	21.5	53.1
2025-07-16T17:26	10	18	0.2	18	18	419	0.2	418	419	21.5	53.6
2025-07-16T17:27	10	19	0.2	18	19	419	0.2	419	420	21.5	53.2
2025-07-16T17:28	10	19	0.4	18	19	419	0.2	419	420	21.5	53.6
2025-07-16T17:29	10	17	0.4	17	18	419	0.2	418	419	21.6	52.7
2025-07-16T17:30	10	16	0.2	16	17	419	0.2	418	419	21.6	52.3
2025-07-16T17:31	10	15	0.4	15	16	418	0.3	418	419	21.7	52.0
2025-07-16T17:32	10	14	0.3	14	15	418	0.2	418	418	21.7	52.2
2025-07-16T17:33	10	14	0.1	13	14	418	0.3	417	418	21.6	52.1
2025-07-16T17:34	10	13	0.2	13	14	417	0.3	417	418	21.6	53.2
2025-07-16T17:35	10	13	0.2	12	13	417	0.2	417	418	21.5	53.7
2025-07-16T17:36	10	12	0.2	11	12	417	0.3	416	417	21.5	53.5
2025-07-16T17:37	10	12	0.2	11	12	416	0.2	416	417	21.5	53.7
2025-07-16T17:38	10	12	0.1	12	12	416	0.3	415	417	21.5	53.9
2025-07-16T17:39	10	12	0.1	12	12	416	0.2	416	417	21.5	53.9
2025-07-16T17:40	10	12	0.1	12	12	416	0.2	416	417	21.4	54.1
2025-07-16T17:41	10	12	0.3	12	13	416	0.2	415	416	21.5	53.5
2025-07-16T17:42	10	13	0.1	13	13	416	0.2	415	416	21.5	53.4
2025-07-16T17:43	10	12	0.3	12	13	416	0.3	415	416	21.5	53.6
2025-07-16T17:44	10	11	0.4	11	12	415	0.2	415	416	21.5	54.1
2025-07-16T17:45	10	10	0.2	10	11	415	0.3	415	416	21.5	54.0
2025-07-16T17:46	10	10	0.1	10	10	415	0.2	414	415	21.4	54.8
2025-07-16T17:47	10	9	0.2	9	10	414	0.3	414	415	21.4	54.7
2025-07-16T17:48	10	9	0.2	9	9	414	0.2	413	414	21.3	55.5
2025-07-16T17:49	10	8	0.2	8	9	414	0.2	413	414	21.3	56.2
2025-07-16T17:50	10	8	0.1	8	9	414	0.2	413	414	21.2	56.2
2025-07-16T17:51	10	9	0.1	8	9	413	0.2	413	413	21.2	56.8
2025-07-16T17:52	10	9	0.1	8	9	413	0.2	412	413	21.2	56.3
2025-07-16T17:53	10	9	0.1	9	9	413	0.2	413	413	21.2	55.9
2025-07-16T17:54	10	9	0.1	9	9	413	0.2	412	413	21.2	56.4
2025-07-16T17:55	10	10	0.2	9	10	413	0.2	412	413	21.2	56.5
2025-07-16T17:56	10	10	0.2	9	10	413	0.2	412	413	21.1	56.6
2025-07-16T17:57	10	9	0.2	9	9	413	0.2	412	413	21.1	56.9
2025-07-16T17:58	10	8	0.3	8	9	412	0.2	412	413	21.1	56.2
2025-07-16T17:59	10	8	0.2	7	8	412	0.2	412	412	21.1	56.4
2025-07-16T18:00	10	7	0.1	7	7	412	0.4	411	412	21.1	56.8
2025-07-16T18:01	10	7	0.1	7	7	411	0.3	411	412	21.0	58.0
2025-07-16T18:02	10	7	0.1	7	7	411	0.2	410	411	21.0	57.7
2025-07-16T18:03	10	8	0.1	7	8	411	0.4	410	412	21.0	57.4
2025-07-16T18:04	10	8	0.1	8	8	411	0.2	410	411	21.1	56.6
2025-07-16T18:05	10	8	0.1	8	8	411	0.2	410	411	21.1	57.5
2025-07-16T18:06	10	8	0.2	7	8	411	0.2	411	412	21.0	57.5
2025-07-16T18:07	10	7	0.1	7	7	411	0.2	411	412	21.1	57.0
2025-07-16T18:08	10	7	0.1	7	7	411	0.3	411	412	21.2	56.5
2025-07-16T18:09	10	6	0.1	6	7	411	0.3	411	412	21.3	55.2
2025-07-16T18:10	10	6	0.1	6	7	411	0.3	410	412	21.4	54.7
2025-07-16T18:11	10	6	0.1	6	7	411	0.3	410	411	21.5	54.5
2025-07-16T18:12	10	6	0.2	6	7	410	0.2	410	411	21.4	55.5
2025-07-16T18:13	10	9	3.2	6	17	410	0.3	409	411	21.5	54.2
2025-07-16T18:14	10	28	4.1	18	33	412	1.1	410	414	21.5	54.7
2025-07-16T18:15	10	27	5.3	20	34	413	0.5	413	415	21.5	54.5
2025-07-16T18:16	10	30	2.8	27	34	415	0.4	414	415	21.6	53.6
2025-07-16T18:17	10	16	6.3	7	27	415	0.8	413	416	21.8	52.7
2025-07-16T18:18	10	7	0.2	6	7	412	1.0	411	414	21.6	54.3
2025-07-16T18:19	10	6	0.1	6	7	412	0.4	411	412	21.3	56.3
2025-07-16T18:20	10	7	1.0	6	9	411	0.2	411	412	21.3	55.4
2025-07-16T18:21	10	7	0.6	6	8	411	0.2	410	412	21.3	55.6
2025-07-16T18:22	10	7	0.6	6	8	411	0.3	411	412	21.3	56.2
2025-07-16T18:23	10	6	0.6	6	7	411	0.2	411	412	21.3	55.5
2025-07-16T18:24	10	6	0.1	6	6	411	0.3	410	412	21.3	55.9
2025-07-16T18:25	10	6	0.2	5	6	410	0.5	409	411	21.3	56.2
2025-07-16T18:26	10	5	0.1	5	5	410	0.3	409	410	21.2	56.3
2025-07-16T18:27	10	6	0.2	5	6	409	0.2	409	410	21.2	56.5
2025-07-16T18:28	10	6	0.2	6	6	409	0.2	409	410	21.1	56.7
2025-07-16T18:29	10	6	0.1	5	6	409	0.3	408	409	21.1	56.4
2025-07-16T18:30	10	5	0.2	5	6	409	0.3	408	410	21.1	56.5
2025-07-16T18:31	10	5	0.2	5	5	409	0.3	408	409	21.1	56.5
2025-07-16T18:32	10	4	0.2	4	5	408	0.3	408	409	21.1	56.5
2025-07-16T18:33	10	4	0.2	4	4	408	0.3	407	408	21.1	56.7
2025-07-16T18:34	10	4	0.1	3	4	408	0.3	407	408	21.0	58.3
2025-07-16T18:35	10	3	0.1	3	4	408	0.3	407	408	20.9	58.0
2025-07-16T18:36	10	3	0.1	3	3	408	0.3	407	409	21.1	56.4
2025-07-16T18:37	10	3	0.1	2	3	408	0.3	407	408	21.2	56.2
2025-07-16T18:38	10	3	0.1	2	3	408	0.3	407	409	21.1	56.2
2025-07-16T18:39	10	2	0.1	2	3	408	0.3	408	409	21.2	55.9
2025-07-16T18:40	10	2	0.1	2	2	409	0.4	408	409	21.1	56.5
2025-07-16T18:41	10	2	0.1	2	2	409	0.2	408	409	21.2	56.0
2025-07-16T18:42	10	2	0.1	2	2	410	0.4	409	410	21.4	54.7
2025-07-16T18:43	10	2	0.1	2	2	409	0.2	409	410	21.4	55.2
2025-07-16T18:44	10	2	0.1	2	2	409	0.2	409	410	21.2	56.1
2025-07-16T18:45	10	2	0.1	2	3	410	0.2	409	410	21.1	56.5
2025-07-16T18:46	10	3	0.1	2	3	410	0.2	410	410	21.1	56.4
2025-07-16T18:47	10	2	0.1	2	3	410	0.2	409	410	21.1	56.5
2025-07-16T18:48	10	2	0.1	2	3	410	0.2	410	410	21.1	57.0
2025-07-16T18:49	10	2	0.1	2	2	410	0.2	409	410	21.0	57.5
2025-07-16T18:50	10	2	0.1	2	2	410	0.2	410	411	21.1	56.4
2025-07-16T18:51	10	2	0.1	2	2	410	0.3	409	411	21.1	56.6
2025-07-16T18:52	10	2	0.1	2	2	410	0.3	409	410	21.0	57.7
2025-07-16T18:53	10	2	0.1	2	2	409	0.2	409	410	20.9	58.6
2025-07-16T18:54	10	2	0.1	2	2	410	0.3	409	410	20.8	58.4
2025-07-16T18:55	10	2	0.1	2	2	410	0.3	409	410	20.9	57.7
2025-07-16T18:56	10	2	0.1	1	2	409	0.3	409	410	20.9	58.2
2025-07-16T18:57	10	1	0.1	1	2	409	0.3	409	410	20.8	59.2
2025-07-16T18:58	10	1	0.1	1	2	410	0.2	409	410	20.8	58.8
2025-07-16T18:59	10	1	0.1	1	1	409	0.2	409	410	20.8	58.6
2025-07-16T19:00	10	1	0.1	1	1	409	0.3	409	410	20.8	59.3
2025-07-16T19:01	10	1	0.1	1	1	410	0.2	409	410	20.8	58.6
2025-07-16T19:02	10	1	0.1	1	1	409	0.2	409	410	20.8	59.2
2025-07-16T19:03	10	1	0.0	1	1	409	0.3	409	410	20.8	59.3
2025-07-16T19:04	10	1	0.1	1	1	409	0.2	409	410	20.8	59.1
2025-07-16T19:05	10	1	0.1	1	1	410	0.3	409	410	21.0	57.1
2025-07-16T19:06	10	1	0.1	1	1	410	0.2	409	410	21.0	57.0
2025-07-16T19:07	10	1	0.1	1	1	410	0.2	410	411	21.1	56.1
2025-07-16T19:08	10	1	0.1	0	1	410	0.2	410	410	21.2	55.3
2025-07-16T19:09	10	1	0.1	1	1	410	0.3	409	411	21.2	55.1
2025-07-16T19:10	10	1	0.1	0	1	410	0.3	409	411	21.4	53.4
2025-07-16T19:11	10	1	0.2	1	1	410	0.3	410	411	21.5	52.9
2025-07-16T19:12	10	1	0.2	0	1	410	0.3	410	411	21.5	52.5
2025-07-16T19:13	10	1	0.1	0	1	410	0.3	410	411	21.5	51.8
2025-07-16T19:14	10	1	0.1	1	1	410	0.3	410	411	21.6	51.6
2025-07-16T19:15	10	1	0.1	0	1	410	0.2	410	411	21.5	52.1
2025-07-16T19:16	10	1	0.2	0	2	410	0.3	410	411	21.5	51.7
2025-07-16T19:17	10	1	0.1	0	1	411	0.2	410	411	21.6	50.7
2025-07-16T19:18	10	1	0.1	0	1	411	0.2	410	412	21.7	50.5
2025-07-16T19:19	10	1	0.1	0	1	411	0.2	411	412	21.6	50.7
2025-07-16T19:20	10	1	0.1	0	1	411	0.2	411	412	21.7	49.9
2025-07-16T19:21	10	1	0.1	0	1	412	0.3	411	412	21.8	49.5
2025-07-16T19:22	10	1	0.1	0	1	412	0.2	411	412	21.7	49.8
2025-07-16T19:23	10	0	0.1	0	1	412	0.2	411	412	21.8	49.5
2025-07-16T19:24	10	0	0.2	0	1	412	0.3	411	412	21.8	49.9
2025-07-16T19:25	10	1	0.2	0	1	412	0.2	411	412	21.7	50.1
2025-07-16T19:26	10	0	0.2	0	1	411	0.3	410	412	21.7	50.7
2025-07-16T19:27	10	0	0.2	0	1	411	0.3	411	412	21.6	51.3
2025-07-16T19:28	10	0	0.2	0	1	411	0.3	411	412	21.5	52.0
2025-07-16T19:29	10	0	0.2	0	1	411	0.3	410	412	21.4	52.8
2025-07-16T19:30	10	0	0.2	0	1	411	0.3	410	411	21.3	53.3
2025-07-16T19:31	10	0	0.2	0	1	411	0.3	410	411	21.3	53.7
2025-07-16T19:32	10	0	0.1	0	1	411	0.3	411	412	21.3	54.3
2025-07-16T19:33	10	0	0.1	0	1	410	0.3	410	411	21.1	55.8
2025-07-16T19:34	10	0	0.2	0	1	410	0.3	410	411	21.0	57.0
2025-07-16T19:35	10	0	0.1	0	0	411	0.3	410	411	21.0	56.7
2025-07-16T19:36	10	0	0.1	0	0	410	0.2	410	411	21.0	57.0
2025-07-16T19:37	10	0	0.1	0	0	411	0.3	410	411	21.1	56.2
2025-07-16T19:38	10	0	0.1	0	0	411	0.2	410	411	21.1	56.5
2025-07-16T19:39	10	0	0.1	0	0	411	0.2	410	411	21.0	56.9
2025-07-16T19:40	10	0	0.2	0	1	411	0.2	410	411	21.0	57.0
2025-07-16T19:41	10	0	0.1	0	1	411	0.2	410	412	21.0	56.7
2025-07-16T19:42	10	0	0.1	0	1	411	0.2	410	411	21.0	57.1
2025-07-16T19:43	10	0	0.1	0	0	411	0.3	410	411	21.0	56.4
2025-07-16T19:44	10	0	0.2	0	1	411	0.3	411	412	21.1	55.4
2025-07-16T19:45	10	0	0.1	0	0	411	0.2	411	412	21.2	55.3
2025-07-16T19:46	10	0	0.1	0	1	411	0.2	411	412	21.1	55.8
2025-07-16T19:47	10	0	0.1	0	1	411	0.3	410	412	21.1	55.5
2025-07-16T19:48	10	0	0.2	0	0	411	0.2	411	412	21.1	55.5
2025-07-16T19:49	10	0	0.1	0	0	411	0.3	410	412	21.2	54.8
2025-07-16T19:50	10	0	0.1	0	0	411	0.2	410	411	21.1	55.8
2025-07-16T19:51	10	0	0.1	0	0	411	0.3	410	411	21.0	56.2
2025-07-16T19:52	10	0	0.1	0	0	411	0.3	410	411	21.0	56.6
2025-07-16T19:53	10	0	0.1	0	0	410	0.2	410	411	20.9	56.9
2025-07-16T19:54	10	0	0.1	0	0	410	0.2	410	411	20.9	57.3
2025-07-16T19:55	10	0	0.0	0	0	410	0.2	409	410	20.9	57.6
2025-07-16T19:56	10	0	0.1	0	0	410	0.3	410	411	20.9	57.2
2025-07-16T19:57	10	0	0.1	0	0	410	0.2	410	410	20.9	57.3
2025-07-16T19:58	10	0	0.1	0	0	410	0.2	409	410	20.8	57.8
2025-07-16T19:59	10	0	0.1	0	0	410	0.3	409	411	20.8	57.6
2025-07-16T20:00	10	0	0.1	0	1	410	0.3	409	411	20.8	57.5
2025-07-16T20:01	10	0	0.1	0	0	410	0.2	410	411	20.9	56.8
2025-07-16T20:02	10	0	0.1	0	0	410	0.2	410	411	20.9	57.4
2025-07-16T20:03	10	0	0.1	0	0	410	0.2	410	411	20.9	56.6
2025-07-16T20:04	10	0	0.1	0	0	410	0.2	410	411	20.9	57.4
2025-07-16T20:05	10	0	0.1	0	0	410	0.2	410	410	20.8	58.0
2025-07-16T20:06	10	0	0.1	0	0	410	0.3	410	411	20.9	56.8
2025-07-16T20:07	10	0	0.1	0	1	410	0.2	410	411	20.9	57.0
2025-07-16T20:08	10	0	0.1	0	1	410	0.2	410	411	20.9	57.2
2025-07-16T20:09	10	0	0.2	0	1	410	0.3	410	411	20.9	56.9
2025-07-16T20:10	10	0	0.1	0	0	411	0.3	410	411	21.1	55.0
2025-07-16T20:11	10	0	0.1	0	0	411	0.2	411	412	21.2	54.9
2025-07-16T20:12	10	0	0.1	0	0	411	0.2	410	411	21.1	55.7
2025-07-16T20:13	10	0	0.1	0	0	410	0.3	410	411	21.0	56.3
2025-07-16T20:14	10	0	0.1	0	0	411	0.5	410	412	21.1	55.2
2025-07-16T20:15	10	0	0.1	0	1	411	0.3	410	412	21.2	54.8
2025-07-16T20:16	10	0	0.1	0	0	411	0.3	411	412	21.2	54.0
2025-07-16T20:17	10	0	0.1	0	0	411	0.3	410	412	21.2	54.3
2025-07-16T20:18	10	0	0.1	0	1	411	0.2	410	411	21.1	55.2
2025-07-16T20:19	10	0	0.1	0	0	411	0.2	410	411	21.1	55.5
2025-07-16T20:20	10	0	0.1	0	1	410	0.2	410	411	21.0	56.2
2025-07-16T20:21	10	0	0.1	0	0	411	0.2	410	411	21.0	55.8
2025-07-16T20:22	10	0	0.1	0	0	411	0.3	410	411	21.1	55.1
2025-07-16T20:23	10	0	0.1	0	0	411	0.3	410	411	21.0	55.8
2025-07-16T20:24	10	0	0.1	0	0	411	0.2	410	411	21.0	55.9
2025-07-16T20:25	10	0	0.1	0	1	411	0.2	410	411	21.0	55.7
2025-07-16T20:26	10	0	0.0	0	0	411	0.2	410	411	21.0	55.6
2025-07-16T20:27	10	0	0.1	0	0	411	0.2	411	411	21.0	55.9
2025-07-16T20:28	10	0	0.0	0	0	410	0.2	410	411	21.0	55.7
2025-07-16T20:29	10	0	0.1	0	0	411	0.2	410	411	21.0	55.5
2025-07-16T20:30	10	0	0.1	0	0	411	0.2	410	411	20.9	56.3
2025-07-16T20:31	10	0	0.1	0	0	411	0.2	410	411	20.9	56.2
2025-07-16T20:32	10	0	0.1	0	0	411	0.2	410	411	20.9	56.3
2025-07-16T20:33	10	0	0.1	0	0	410	0.2	410	411	20.8	57.6
2025-07-16T20:34	10	0	0.0	0	0	410	0.2	410	411	20.7	58.1
2025-07-16T20:35	10	0	0.1	0	0	409	0.3	409	410	20.6	59.8
2025-07-16T20:36	10	0	0.1	0	0	410	0.2	409	410	20.5	60.2
2025-07-16T20:37	10	0	0.1	0	0	410	0.2	409	410	20.5	60.3
2025-07-16T20:38	10	0	0.1	0	0	409	0.2	408	409	20.4	61.7
2025-07-16T20:39	10	0	0.1	0	0	409	0.2	408	409	20.3	62.3
2025-07-16T20:40	10	0	0.1	0	0	409	0.2	408	409	20.3	62.1
2025-07-16T20:41	10	0	0.1	0	0	409	0.2	408	409	20.3	61.7
2025-07-16T20:42	10	0	0.1	0	0	409	0.3	408	409	20.3	60.8
2025-07-16T20:43	10	0	0.1	0	0	409	0.2	408	409	20.4	60.8
2025-07-16T20:44	10	0	0.1	0	0	409	0.3	408	409	20.4	60.0
2025-07-16T20:45	10	0	0.1	0	0	409	0.2	408	410	20.5	59.1
2025-07-16T20:46	10	0	0.0	0	0	409	0.2	409	409	20.5	59.0
2025-07-16T20:47	10	0	0.0	0	0	409	0.2	409	410	20.5	58.3
2025-07-16T20:48	10	0	0.0	0	0	409	0.2	409	410	20.5	58.3
2025-07-16T20:49	10	0	0.0	0	0	409	0.3	409	410	20.6	56.8
2025-07-16T20:50	10	0	0.1	0	0	410	0.3	409	410	20.8	55.7
2025-07-16T20:51	10	0	0.0	0	0	410	0.3	410	411	20.8	55.5
2025-07-16T20:52	10	0	0.1	0	0	410	0.2	409	411	20.9	55.2
2025-07-16T20:53	10	0	0.1	0	0	410	0.2	409	410	20.9	55.0
2025-07-16T20:54	10	0	0.1	0	0	410	0.2	409	410	20.9	54.9
2025-07-16T20:55	10	0	0.1	0	0	410	0.2	409	410	20.9	54.8
2025-07-16T20:56	10	0	0.1	0	0	410	0.3	410	411	20.9	55.0
2025-07-16T20:57	10	0	0.1	0	0	410	0.2	409	410	20.8	55.1
2025-07-16T20:58	10	0	0.1	0	0	410	0.2	409	410	20.9	54.9
2025-07-16T20:59	10	0	0.1	0	0	410	0.2	410	411	20.9	54.8
2025-07-16T21:00	10	0	0.1	0	0	410	0.2	410	411	20.9	54.7
2025-07-16T21:01	10	0	0.1	0	0	410	0.3	410	411	20.9	55.0
2025-07-16T21:02	10	0	0.1	0	0	410	0.3	409	410	20.8	55.2
2025-07-16T21:03	10	0	0.1	0	0	410	0.2	409	410	20.8	55.2
2025-07-16T21:04	10	0	0.1	0	0	410	0.2	410	411	20.8	55.1
2025-07-16T21:05	10	0	0.1	0	0	410	0.2	409	410	20.8	55.6
2025-07-16T21:06	10	0	0.1	0	0	410	0.3	410	411	20.7	55.9
2025-07-16T21:07	10	0	0.1	0	0	409	0.3	409	410	20.7	56.1
2025-07-16T21:08	10	0	0.1	0	0	409	0.2	409	410	20.6	56.7
2025-07-16T21:09	10	0	0.1	0	0	409	0.3	409	410	20.6	57.2
2025-07-16T21:10	10	0	0.0	0	0	409	0.3	409	410	20.5	57.8
2025-07-16T21:11	10	0	0.0	0	0	409	0.2	408	409	20.4	58.5
2025-07-16T21:12	10	0	0.0	0	0	409	0.3	408	409	20.4	59.1
2025-07-16T21:13	10	0	0.1	0	0	409	0.2	408	409	20.3	60.0
2025-07-16T21:14	10	0	0.1	0	0	408	0.2	408	409	20.2	61.2
2025-07-16T21:15	10	0	0.0	0	0	408	0.2	408	409	20.1	62.5
2025-07-16T21:16	10	0	0.1	0	0	408	0.3	407	409	20.0	62.8
2025-07-16T21:17	10	0	0.1	0	0	408	0.3	407	409	20.0	63.6
2025-07-16T21:18	10	0	0.1	0	0	408	0.2	407	408	19.9	64.0
2025-07-16T21:19	10	0	0.1	0	0	408	0.3	407	409	20.0	63.2
2025-07-16T21:20	10	0	0.1	0	0	408	0.3	407	408	20.0	62.9
2025-07-16T21:21	10	0	0.1	0	0	408	0.3	407	409	20.0	62.4
2025-07-16T21:22	10	0	0.1	0	0	408	0.2	407	409	20.1	62.4
2025-07-16T21:23	10	0	0.1	0	0	408	0.2	407	409	20.1	62.2
2025-07-16T21:24	10	0	0.1	0	0	408	0.3	407	408	20.1	62.1
2025-07-16T21:25	10	0	0.0	0	0	408	0.3	408	409	20.1	61.9
2025-07-16T21:26	10	0	0.0	0	0	408	0.3	408	409	20.1	60.8
2025-07-16T21:27	10	0	0.0	0	0	409	0.2	408	409	20.2	59.5
2025-07-16T21:28	10	0	0.1	0	0	409	0.3	408	409	20.3	58.9
2025-07-16T21:29	10	0	0.1	0	0	408	0.2	408	409	20.4	58.3
2025-07-16T21:30	10	0	0.1	0	0	409	0.2	408	409	20.3	58.5
2025-07-16T21:31	10	0	0.1	0	0	409	0.2	408	409	20.3	58.5
2025-07-16T21:32	10	0	0.1	0	0	409	0.2	408	409	20.3	58.8
2025-07-16T21:33	10	0	0.1	0	0	408	0.2	408	409	20.3	59.0
2025-07-16T21:34	10	0	0.1	0	0	408	0.3	408	409	20.3	59.2
2025-07-16T21:35	10	0	0.1	0	0	408	0.3	408	409	20.2	59.2
2025-07-16T21:36	10	0	0.1	0	0	408	0.3	407	409	20.2	59.1
2025-07-16T21:37	10	0	0.1	0	0	408	0.2	408	408	20.2	59.1
2025-07-16T21:38	10	0	0.1	0	0	408	0.2	408	409	20.3	58.7
2025-07-16T21:39	10	0	0.1	0	0	408	0.2	408	409	20.3	58.8
2025-07-16T21:40	10	0	0.1	0	0	408	0.3	407	409	20.2	59.9
2025-07-16T21:41	10	0	0.1	0	0	407	0.3	406	408	20.0	62.3
2025-07-16T21:42	10	0	0.1	0	0	407	0.3	407	408	19.9	63.1
2025-07-16T21:43	10	0	0.1	0	0	407	0.2	407	408	19.9	63.5
2025-07-16T21:44	10	0	0.1	0	0	407	0.2	407	408	19.9	63.9
2025-07-16T21:45	10	0	0.1	0	0	407	0.2	406	408	19.9	63.9
2025-07-16T21:46	10	0	0.1	0	0	407	0.4	406	408	19.9	63.3
2025-07-16T21:47	10	0	0.1	0	0	407	0.2	407	408	19.9	63.1
2025-07-16T21:48	10	0	0.1	0	0	407	0.2	407	408	19.9	63.2
2025-07-16T21:49	10	0	0.1	0	0	407	0.3	406	408	19.9	62.7
2025-07-16T21:50	10	0	0.1	0	0	407	0.2	407	408	20.0	61.6
2025-07-16T21:51	10	0	0.1	0	0	407	0.3	407	408	20.0	61.4
2025-07-16T21:52	10	0	0.1	0	0	407	0.3	407	408	20.1	61.0
2025-07-16T21:53	10	0	0.1	0	0	407	0.3	407	408	20.1	60.8
2025-07-16T21:54	10	0	0.1	0	0	408	0.3	407	408	20.1	60.8
2025-07-16T21:55	10	0	0.1	0	0	408	0.2	407	408	20.1	61.0
2025-07-16T21:56	10	0	0.1	0	0	408	0.3	407	409	20.1	60.9
2025-07-16T21:57	10	0	0.1	0	0	408	0.2	407	408	20.1	60.8
2025-07-16T21:58	10	0	0.1	0	0	408	0.3	408	409	20.2	60.8
2025-07-16T21:59	10	0	0.1	0	0	408	0.2	408	409	20.1	61.0
2025-07-16T22:00	10	0	0.1	0	0	408	0.2	408	409	20.2	60.8
2025-07-16T22:01	10	0	0.1	0	0	408	0.2	408	409	20.2	60.8
2025-07-16T22:02	10	0	0.1	0	0	408	0.2	407	409	20.2	60.8
2025-07-16T22:03	10	0	0.1	0	0	408	0.3	408	409	20.2	60.9
2025-07-16T22:04	10	0	0.1	0	0	408	0.2	408	409	20.1	61.0
2025-07-16T22:05	10	0	0.1	0	0	408	0.2	407	408	20.1	61.1
2025-07-16T22:06	10	0	0.1	0	0	408	0.2	407	408	20.1	61.2
2025-07-16T22:07	10	0	0.1	0	0	408	0.2	407	408	20.1	61.2
2025-07-16T22:08	10	0	0.1	0	0	407	0.2	407	408	20.1	61.4
2025-07-16T22:09	10	0	0.1	0	0	407	0.2	407	408	20.1	61.3
2025-07-16T22:10	10	0	0.1	0	0	408	0.3	407	408	19.8	59.3
2025-07-16T22:11	10	0	0.1	0	0	407	0.3	407	408	20.1	61.3
2025-07-16T22:12	10	0	0.1	0	0	407	0.2	407	408	20.1	61.3
2025-07-16T22:13	10	0	0.1	0	0	408	0.2	407	408	20.1	61.3
2025-07-16T22:14	10	0	0.1	0	0	408	0.2	407	408	20.1	61.3
2025-07-16T22:15	10	0	0.1	0	0	407	0.2	407	408	20.1	61.3
2025-07-16T22:16	10	0	0.1	0	0	408	0.2	407	408	20.1	61.4
2025-07-16T22:17	10	0	0.1	0	0	408	0.2	407	408	20.1	61.6
2025-07-16T22:18	10	0	0.1	0	0	408	0.2	407	408	20.1	61.6
2025-07-16T22:19	10	0	0.1	0	0	408	0.2	407	408	20.1	61.8
2025-07-16T22:20	10	0	0.1	0	0	408	0.3	407	408	20.1	61.9
2025-07-16T22:21	10	0	0.1	0	0	407	0.6	406	408	20.0	62.7
2025-07-16T22:22	10	0	0.1	0	0	406	0.3	405	407	19.7	64.1
2025-07-16T22:23	10	0	0.1	0	0	406	0.2	405	406	19.6	64.8
2025-07-16T22:24	10	0	0.1	0	0	405	0.3	405	406	19.5	65.3
2025-07-16T22:25	10	0	0.1	0	0	405	0.3	405	406	19.5	65.8
2025-07-16T22:26	10	0	0.1	0	0	405	0.3	404	406	19.4	66.5
2025-07-16T22:27	10	0	0.1	0	0	405	0.2	405	406	19.4	66.6
2025-07-16T22:28	10	0	0.1	0	0	405	0.2	405	406	19.4	66.7
2025-07-16T22:29	10	0	0.1	0	0	405	0.3	404	406	19.4	67.2
2025-07-16T22:30	10	0	0.1	0	0	405	0.2	404	405	19.3	67.8
2025-07-16T22:31	10	0	0.1	0	0	405	0.3	404	406	19.3	68.3
2025-07-16T22:32	10	0	0.1	0	0	405	0.3	404	406	19.3	69.2
2025-07-16T22:33	10	0	0.1	0	0	405	0.2	404	405	19.2	69.7
2025-07-16T22:34	10	0	0.1	0	0	405	0.2	404	405	19.2	70.2
2025-07-16T22:35	10	0	0.1	0	0	405	0.3	404	405	19.2	70.8
2025-07-16T22:36	10	0	0.0	0	0	405	0.2	405	405	19.2	71.2
2025-07-16T22:37	10	0	0.1	0	0	405	0.2	404	405	19.1	71.7
2025-07-16T22:38	10	0	0.1	0	0	405	0.2	404	405	19.1	72.4
2025-07-16T22:39	10	0	0.1	0	0	405	0.3	404	405	19.0	72.8
2025-07-16T22:40	10	0	0.1	0	0	404	0.2	404	405	19.0	73.4
2025-07-16T22:41	10	0	0.1	0	0	404	0.3	404	405	19.0	73.6
2025-07-16T22:42	10	0	0.1	0	0	404	0.3	404	405	19.0	73.6
2025-07-16T22:43	10	0	0.1	0	0	404	0.3	404	405	19.0	73.6
2025-07-16T22:44	10	0	0.1	0	0	404	0.2	403	405	19.0	73.4
2025-07-16T22:45	10	0	0.1	0	0	404	0.2	404	405	19.0	73.2
2025-07-16T22:46	10	0	0.1	0	0	404	0.3	404	405	19.0	73.3
2025-07-16T22:47	10	0	0.1	0	0	404	0.3	403	405	18.9	73.6
2025-07-16T22:48	10	0	0.0	0	0	404	0.2	404	404	18.9	74.0
2025-07-16T22:49	10	0	0.1	0	0	404	0.2	403	404	18.9	74.2
2025-07-16T22:50	10	0	0.0	0	0	404	0.2	403	404	18.9	74.4
2025-07-16T22:51	10	0	0.0	0	0	404	0.2	403	404	18.9	74.4
2025-07-16T22:52	10	0	0.1	0	0	404	0.3	403	404	18.9	74.6
2025-07-16T22:53	10	0	0.1	0	0	404	0.2	403	404	18.8	75.0
2025-07-16T22:54	10	0	0.1	0	0	404	0.2	403	404	18.8	75.2
2025-07-16T22:55	10	0	0.0	0	0	404	0.2	403	404	18.8	75.0
2025-07-16T22:56	10	0	0.1	0	0	404	0.2	403	404	18.8	75.1
2025-07-16T22:57	10	0	0.1	0	0	404	0.2	403	404	18.8	75.4
2025-07-16T22:58	10	0	0.1	0	0	404	0.3	403	404	18.8	75.2
2025-07-16T22:59	10	0	0.1	0	0	404	0.2	403	404	18.8	75.2
2025-07-16T23:00	10	0	0.1	0	0	403	0.3	403	404	18.8	75.6
2025-07-16T23:01	10	0	0.1	0	0	403	0.2	403	404	18.7	76.0
2025-07-16T23:02	10	0	0.1	0	0	403	0.3	403	404	18.7	76.1
2025-07-16T23:03	10	0	0.1	0	0	404	0.2	403	404	18.7	75.9
2025-07-16T23:04	10	0	0.1	0	0	403	0.3	403	404	18.7	75.9
2025-07-16T23:05	10	0	0.1	0	0	403	0.2	403	404	18.7	76.1
2025-07-16T23:06	10	0	0.1	0	0	403	0.2	403	404	18.7	75.8
2025-07-16T23:07	10	0	0.1	0	0	403	0.2	403	404	18.7	75.9
2025-07-16T23:08	10	0	0.1	0	0	403	0.2	403	404	18.7	76.1
2025-07-16T23:09	10	0	0.1	0	0	403	0.2	402	403	18.7	76.0
2025-07-16T23:10	10	0	0.0	0	0	403	0.2	402	403	18.7	76.3
2025-07-16T23:11	10	0	0.1	0	0	403	0.2	402	403	18.7	76.3
2025-07-16T23:12	10	0	0.1	0	0	402	0.3	402	403	18.7	76.4
2025-07-16T23:13	10	0	0.1	0	0	402	0.2	402	403	18.7	76.3
2025-07-16T23:14	10	0	0.1	0	0	402	0.2	402	403	18.7	76.2
2025-07-16T23:15	10	0	0.0	0	0	402	0.2	402	403	18.7	76.0
2025-07-16T23:16	10	0	0.1	0	0	402	0.3	401	402	18.7	76.2
2025-07-16T23:17	10	0	0.1	0	0	402	0.2	401	402	18.7	76.2
2025-07-16T23:18	10	0	0.1	0	0	402	0.2	401	402	18.7	76.4
2025-07-16T23:19	10	0	0.1	0	0	402	0.2	401	402	18.6	76.5
2025-07-16T23:20	10	0	0.1	0	0	402	0.2	401	402	18.6	76.8
2025-07-16T23:21	10	0	0.1	0	0	401	0.2	401	402	18.5	77.2
2025-07-16T23:22	10	0	0.1	0	0	401	0.2	401	402	18.5	77.2
2025-07-16T23:23	10	0	0.1	0	0	401	0.2	401	402	18.5	77.7
2025-07-16T23:24	10	0	0.1	0	0	402	0.3	401	402	18.5	77.7
2025-07-16T23:25	10	0	0.1	0	0	402	0.2	401	402	18.5	77.7
2025-07-16T23:26	10	0	0.1	0	0	402	0.2	401	402	18.5	77.4
2025-07-16T23:27	10	0	0.1	0	0	402	0.2	401	402	18.5	77.5
2025-07-16T23:28	10	0	0.1	0	0	402	0.2	401	403	18.5	77.5
2025-07-16T23:29	10	0	0.1	0	0	402	0.3	402	403	18.5	77.3
2025-07-16T23:30	10	0	0.1	0	0	402	0.3	402	403	18.5	77.6
2025-07-16T23:31	10	0	0.1	0	0	402	0.2	402	403	18.5	77.9
2025-07-16T23:32	10	0	0.1	0	0	402	0.2	402	403	18.5	77.9
2025-07-16T23:33	10	0	0.1	0	0	402	0.2	402	403	18.5	78.0
2025-07-16T23:34	10	0	0.1	0	0	402	0.2	402	402	18.4	78.3
2025-07-16T23:35	10	0	0.1	0	0	402	0.2	402	403	18.4	78.3
2025-07-16T23:36	10	0	0.1	0	0	402	0.2	402	402	18.4	78.6
2025-07-16T23:37	10	0	0.1	0	0	402	0.2	402	403	18.4	78.4
2025-07-16T23:38	10	0	0.1	0	0	402	0.2	402	403	18.4	78.5
2025-07-16T23:39	10	0	0.1	0	0	402	0.3	402	403	18.4	78.5
2025-07-16T23:40	10	0	0.2	0	0	402	0.3	402	403	18.4	78.6
2025-07-16T23:41	10	0	0.2	0	0	402	0.3	401	403	18.4	78.4
2025-07-16T23:42	10	0	0.1	0	0	402	0.3	402	403	18.4	78.6
2025-07-16T23:43	10	0	0.2	0	1	402	0.3	402	403	18.4	78.8
2025-07-16T23:44	10	0	0.2	-1	0	402	0.3	401	403	18.4	78.9
2025-07-16T23:45	10	0	0.2	0	1	402	0.3	402	403	18.4	79.0
2025-07-16T23:46	10	0	0.1	0	0	402	0.2	402	403	18.4	79.2
2025-07-16T23:47	10	0	0.1	0	1	402	0.2	402	403	18.3	79.4
2025-07-16T23:48	10	0	0.2	0	0	402	0.3	401	403	18.3	79.1
2025-07-16T23:49	10	0	0.1	0	0	402	0.3	401	403	18.3	79.2
2025-07-16T23:50	10	0	0.1	0	0	402	0.2	401	402	18.3	79.3
2025-07-16T23:51	10	0	0.1	0	0	402	0.2	401	402	18.3	79.1
2025-07-16T23:52	10	0	0.2	0	1	402	0.3	401	402	18.3	79.4
2025-07-16T23:53	10	0	0.1	0	0	402	0.3	401	402	18.3	79.5
2025-07-16T23:54	10	0	0.1	0	0	402	0.3	401	402	18.3	79.3
2025-07-16T23:55	10	0	0.1	0	0	402	0.3	401	402	18.3	79.5
2025-07-16T23:56	10	0	0.2	0	0	402	0.2	401	402	18.3	79.2
2025-07-16T23:57	10	0	0.2	0	1	402	0.2	401	402	18.3	79.2
2025-07-16T23:58	10	0	0.2	0	0	402	0.3	401	402	18.3	79.2
2025-07-16T23:59	10	0	0.2	0	1	402	0.3	401	403	18.3	79.0
2025-07-17T00:00	10	0	0.2	0	1	402	0.2	401	402	18.4	78.4
2025-07-17T00:01	10	0	0.2	0	1	402	0.3	401	402	18.4	78.8
2025-07-17T00:02	10	0	0.1	0	0	402	0.2	401	402	18.4	79.1
2025-07-17T00:03	10	0	0.2	0	1	402	0.3	401	402	18.4	79.0
2025-07-17T00:04	10	0	0.2	0	1	402	0.2	401	403	18.4	79.1
2025-07-17T00:05	10	0	0.2	0	0	402	0.3	402	403	18.4	78.4
2025-07-17T00:06	10	0	0.1	0	0	402	0.2	402	403	18.4	78.3
2025-07-17T00:07	10	0	0.1	0	0	402	0.2	402	403	18.4	78.2
2025-07-17T00:08	10	0	0.2	0	0	402	0.2	401	403	18.5	77.9
2025-07-17T00:09	10	0	0.1	0	0	402	0.2	402	403	18.5	77.6
2025-07-17T00:10	10	0	0.2	0	0	402	0.2	402	403	18.5	77.6
2025-07-17T00:11	10	0	0.1	0	0	402	0.2	402	403	18.5	77.6
2025-07-17T00:12	10	0	0.1	0	0	402	0.3	402	403	18.5	77.9
2025-07-17T00:13	10	0	0.2	0	1	402	0.2	402	402	18.5	77.8
2025-07-17T00:14	10	0	0.1	0	0	402	0.3	402	403	18.4	78.2
2025-07-17T00:15	10	0	0.1	0	0	402	0.3	401	403	18.4	78.6
2025-07-17T00:16	10	0	0.1	0	0	402	0.3	401	402	18.4	79.1
2025-07-17T00:17	10	0	0.2	0	1	401	0.3	401	402	18.3	79.7
2025-07-17T00:18	10	0	0.1	0	0	401	0.2	400	401	18.2	80.2
2025-07-17T00:19	10	0	0.1	0	0	400	0.3	400	401	18.2	81.0
2025-07-17T00:20	10	0	0.1	0	0	400	0.2	399	400	18.1	81.8
2025-07-17T00:21	10	0	0.1	0	0	400	0.3	399	400	18.0	82.4
2025-07-17T00:22	10	0	0.1	0	1	400	0.3	399	400	18.0	82.9
2025-07-17T00:23	10	0	0.1	0	0	399	0.3	399	400	17.9	82.7
2025-07-17T00:24	10	0	0.1	0	0	399	0.2	399	400	17.9	83.1
2025-07-17T00:25	10	0	0.1	0	0	399	0.2	399	400	17.9	83.6
2025-07-17T00:26	10	0	0.1	0	0	399	0.2	398	399	17.8	83.9
2025-07-17T00:27	10	0	0.0	0	0	399	0.2	398	400	17.8	83.7
2025-07-17T00:28	10	0	0.0	0	0	399	0.2	399	399	17.8	84.0
2025-07-17T00:29	10	0	0.1	0	0	399	0.3	398	399	17.8	84.9
2025-07-17T00:30	10	0	0.1	0	0	399	0.2	398	399	17.7	84.8
2025-07-17T00:31	10	0	0.1	0	0	399	0.3	398	399	17.8	84.4
2025-07-17T00:32	10	0	0.1	0	0	399	0.2	399	400	17.8	84.2
2025-07-17T00:33	10	0	0.1	0	0	399	0.3	399	400	17.8	83.2
2025-07-17T00:34	10	0	0.1	0	0	399	0.2	399	399	17.8	83.6
2025-07-17T00:35	10	0	0.1	0	0	399	0.3	399	400	17.8	84.0
2025-07-17T00:36	10	0	0.1	0	0	399	0.2	399	400	17.8	84.2
2025-07-17T00:37	10	0	0.1	0	0	399	0.2	399	400	17.8	83.8
2025-07-17T00:38	10	0	0.1	0	0	399	0.2	399	400	17.8	83.8
2025-07-17T00:39	10	0	0.1	0	0	399	0.2	399	400	17.8	83.6
2025-07-17T00:40	10	0	0.1	0	0	399	0.2	399	400	17.8	83.8
2025-07-17T00:41	10	0	0.0	0	0	399	0.2	399	400	17.8	83.8
2025-07-17T00:42	10	0	0.1	0	0	399	0.3	399	400	17.7	84.3
2025-07-17T00:43	10	0	0.1	0	0	399	0.2	399	400	17.7	84.2
2025-07-17T00:44	10	0	0.1	0	0	399	0.2	399	400	17.8	83.5
2025-07-17T00:45	10	0	0.1	0	0	399	0.3	398	399	17.7	84.2
2025-07-17T00:46	10	0	0.1	0	0	399	0.2	398	399	17.6	85.6
2025-07-17T00:47	10	0	0.1	0	0	399	0.2	398	399	17.6	85.4
2025-07-17T00:48	10	0	0.0	0	0	399	0.2	398	399	17.6	85.5
2025-07-17T00:49	10	0	0.1	0	0	399	0.2	399	399	17.6	84.8
2025-07-17T00:50	10	0	0.1	0	0	399	0.2	398	399	17.7	84.5
2025-07-17T00:51	10	0	0.1	0	0	399	0.2	398	399	17.7	84.5
2025-07-17T00:52	10	0	0.1	0	0	399	0.2	398	399	17.6	84.9
2025-07-17T00:53	10	0	0.1	0	0	399	0.2	399	399	17.7	84.5
2025-07-17T00:54	10	0	0.1	0	0	399	0.2	398	399	17.7	84.5
2025-07-17T00:55	10	0	0.1	0	0	399	0.2	398	399	17.6	84.7
2025-07-17T00:56	10	0	0.1	0	0	399	0.2	398	399	17.6	84.8
2025-07-17T00:57	10	0	0.1	0	0	399	0.2	398	399	17.6	84.9
2025-07-17T00:58	10	0	0.1	0	0	398	0.2	398	399	17.6	84.9
2025-07-17T00:59	10	0	0.1	0	0	398	0.2	398	399	17.6	85.2
2025-07-17T01:00	10	0	0.1	0	0	398	0.3	397	399	17.6	85.4
2025-07-17T01:01	10	0	0.1	0	0	398	0.2	397	398	17.6	85.7
2025-07-17T01:02	10	0	0.1	0	0	398	0.2	397	398	17.5	86.3
2025-07-17T01:03	10	0	0.1	0	0	398	0.2	397	398	17.5	86.1
2025-07-17T01:04	10	0	0.1	0	0	398	0.3	397	398	17.5	86.1
2025-07-17T01:05	10	0	0.1	0	0	398	0.2	397	398	17.5	86.2
2025-07-17T01:06	10	0	0.1	0	0	398	0.2	397	398	17.5	85.7
2025-07-17T01:07	10	0	0.1	0	0	398	0.2	397	398	17.6	85.2
2025-07-17T01:08	10	0	0.1	0	0	398	0.2	397	398	17.6	84.7
2025-07-17T01:09	10	0	0.1	0	0	397	0.2	397	398	17.6	85.2
2025-07-17T01:10	10	0	0.1	0	0	398	0.2	397	398	17.6	84.8
2025-07-17T01:11	10	0	0.1	0	0	397	0.2	397	398	17.6	85.0
2025-07-17T01:12	10	0	0.1	0	0	398	0.2	397	398	17.6	85.0
2025-07-17T01:13	10	0	0.1	0	0	398	0.2	397	398	17.6	84.7
2025-07-17T01:14	10	0	0.1	0	0	398	0.2	397	398	17.6	84.6
2025-07-17T01:15	10	0	0.1	0	0	398	0.2	397	398	17.6	84.5
2025-07-17T01:16	10	0	0.1	0	0	397	0.3	397	398	17.6	85.2
2025-07-17T01:17	10	0	0.1	0	0	397	0.3	396	398	17.5	85.4
2025-07-17T01:18	10	0	0.1	0	0	397	0.3	396	397	17.5	85.5
2025-07-17T01:19	10	0	0.1	0	0	397	0.3	396	397	17.5	85.6
2025-07-17T01:20	10	0	0.1	0	0	396	0.2	396	397	17.5	85.8
2025-07-17T01:21	10	0	0.1	0	0	396	0.2	396	397	17.5	85.5
2025-07-17T01:22	10	0	0.1	0	0	396	0.2	396	397	17.6	84.3
2025-07-17T01:23	10	0	0.1	0	0	396	0.2	396	397	17.6	84.2
2025-07-17T01:24	10	0	0.1	0	0	396	0.2	396	397	17.6	84.3
2025-07-17T01:25	10	0	0.1	0	0	396	0.2	395	396	17.6	84.7
2025-07-17T01:26	10	0	0.1	0	0	396	0.2	395	397	17.6	84.5
2025-07-17T01:27	10	0	0.1	0	0	396	0.3	395	397	17.5	84.9
2025-07-17T01:28	10	0	0.1	0	0	396	0.2	395	396	17.5	85.5
2025-07-17T01:29	10	0	0.1	0	0	396	0.3	395	396	17.5	85.5
2025-07-17T01:30	10	0	0.1	0	0	396	0.3	395	396	17.4	85.8
2025-07-17T01:31	10	0	0.1	0	0	396	0.3	396	397	17.5	85.2
2025-07-17T01:32	10	0	0.1	0	0	396	0.2	396	397	17.5	85.1
2025-07-17T01:33	10	0	0.1	0	0	396	0.2	395	397	17.5	85.2
2025-07-17T01:34	10	0	0.1	0	0	396	0.2	396	397	17.5	85.5
2025-07-17T01:35	10	0	0.1	0	0	396	0.2	396	397	17.5	85.4
2025-07-17T01:36	10	0	0.1	0	0	396	0.2	396	397	17.5	85.3
2025-07-17T01:37	10	0	0.1	0	0	396	0.2	396	397	17.5	85.4
2025-07-17T01:38	10	0	0.1	0	0	397	0.3	396	397	17.5	85.2
2025-07-17T01:39	10	0	0.1	0	0	397	0.2	396	397	17.5	85.0
2025-07-17T01:40	10	0	0.1	0	0	397	0.2	396	397	17.5	85.1
2025-07-17T01:41	10	0	0.1	0	0	397	0.3	396	397	17.5	85.5
2025-07-17T01:42	10	0	0.1	0	0	397	0.2	396	397	17.4	85.8
2025-07-17T01:43	10	0	0.1	0	0	397	0.2	396	397	17.5	85.5
2025-07-17T01:44	10	0	0.1	0	0	397	0.2	396	397	17.5	85.2
2025-07-17T01:45	10	0	0.1	0	0	397	0.2	397	398	17.5	84.9
2025-07-17T01:46	10	0	0.1	0	0	398	0.3	397	398	17.6	84.6
2025-07-17T01:47	10	0	0.1	0	0	398	0.3	397	398	17.6	84.2
2025-07-17T01:48	10	0	0.1	0	0	398	0.2	398	398	17.6	84.0
2025-07-17T01:49	10	0	0.1	0	0	398	0.3	397	399	17.7	83.4
2025-07-17T01:50	10	0	0.1	0	0	398	0.3	397	399	17.7	83.8
2025-07-17T01:51	10	0	0.1	0	0	398	0.2	398	399	17.7	83.6
2025-07-17T01:52	10	0	0.1	0	0	398	0.2	398	399	17.7	83.7
2025-07-17T01:53	10	0	0.1	0	0	398	0.2	398	399	17.7	83.8
2025-07-17T01:54	10	0	0.1	0	0	398	0.3	398	399	17.7	83.7
2025-07-17T01:55	10	0	0.1	0	0	399	0.2	398	399	17.7	83.6
2025-07-17T01:56	10	0	0.1	0	0	398	0.2	398	399	17.7	84.1
2025-07-17T01:57	10	0	0.1	0	0	398	0.2	398	399	17.6	84.3
2025-07-17T01:58	10	0	0.1	0	0	398	0.2	398	399	17.6	84.8
2025-07-17T01:59	10	0	0.1	0	0	398	0.2	398	399	17.6	84.9
2025-07-17T02:00	10	0	0.1	0	0	398	0.3	398	399	17.6	84.9
2025-07-17T02:01	10	0	0.1	0	0	398	0.3	398	399	17.6	85.0
2025-07-17T02:02	10	0	0.1	0	0	398	0.2	398	399	17.5	85.4
2025-07-17T02:03	10	0	0.1	0	0	398	0.2	397	399	17.5	85.0
2025-07-17T02:04	10	0	0.1	0	0	398	0.2	397	398	17.5	85.1
2025-07-17T02:05	10	0	0.1	0	0	398	0.2	397	398	17.5	85.3
2025-07-17T02:06	10	0	0.1	0	0	398	0.3	397	398	17.5	85.1
2025-07-17T02:07	10	0	0.1	0	0	398	0.2	397	398	17.5	84.9
2025-07-17T02:08	10	0	0.1	0	0	398	0.2	397	398	17.5	85.3
2025-07-17T02:09	10	0	0.1	0	0	398	0.3	397	398	17.5	84.9
2025-07-17T02:10	10	0	0.1	0	0	398	0.2	397	398	17.5	85.2
2025-07-17T02:11	10	0	0.1	0	0	398	0.3	398	399	17.6	85.0
2025-07-17T02:12	10	0	0.1	0	0	398	0.3	397	399	17.6	85.0
2025-07-17T02:13	10	0	0.1	0	0	398	0.2	397	399	17.6	85.3
2025-07-17T02:14	10	0	0.1	0	0	398	0.2	397	398	17.5	85.8
2025-07-17T02:15	10	0	0.1	0	0	398	0.3	397	398	17.5	86.7
2025-07-17T02:16	10	0	0.1	0	0	398	0.2	397	398	17.4	87.0
2025-07-17T02:17	10	0	0.1	0	0	398	0.2	397	398	17.4	87.2
2025-07-17T02:18	10	0	0.1	0	0	397	0.2	397	398	17.4	87.2
2025-07-17T02:19	10	0	0.1	0	0	398	0.2	397	398	17.4	87.5
2025-07-17T02:20	10	0	0.1	0	0	397	0.2	397	398	17.3	87.7
2025-07-17T02:21	10	0	0.1	0	0	398	0.3	397	398	17.3	88.0
2025-07-17T02:22	10	0	0.1	0	0	397	0.3	397	398	17.3	87.9
2025-07-17T02:23	10	0	0.1	0	0	397	0.3	397	398	17.3	88.3
2025-07-17T02:24	10	0	0.1	0	0	397	0.3	396	398	17.3	88.3
2025-07-17T02:25	10	0	0.1	0	0	397	0.3	396	397	17.2	88.9
2025-07-17T02:26	10	0	0.1	0	0	396	0.2	396	397	17.3	88.4
2025-07-17T02:27	10	0	0.1	0	0	397	0.2	396	397	17.3	88.9
2025-07-17T02:28	10	0	0.1	0	0	397	0.3	396	397	17.2	89.2
2025-07-17T02:29	10	0	0.1	0	0	397	0.3	396	397	17.2	89.2
2025-07-17T02:30	10	0	0.1	0	0	397	0.3	396	398	17.2	89.4
2025-07-17T02:31	10	0	0.1	0	0	397	0.2	396	397	17.2	89.6
2025-07-17T02:32	10	0	0.1	0	0	397	0.2	396	397	17.2	89.9
2025-07-17T02:33	10	0	0.1	0	0	397	0.2	396	397	17.2	90.1
2025-07-17T02:34	10	0	0.1	0	0	397	0.2	397	398	17.1	90.3
2025-07-17T02:35	10	0	0.1	0	0	397	0.3	397	398	17.1	90.4
2025-07-17T02:36	10	0	0.1	0	0	397	0.2	397	398	17.1	90.1
2025-07-17T02:37	10	0	0.1	0	0	397	0.2	397	398	17.1	90.3
2025-07-17T02:38	10	0	0.1	0	0	397	0.2	397	398	17.1	90.1
2025-07-17T02:39	10	0	0.1	0	0	397	0.3	397	398	17.1	90.1
2025-07-17T02:40	10	0	0.1	0	0	397	0.3	397	398	17.2	89.5
2025-07-17T02:41	10	0	0.1	0	0	397	0.3	397	398	17.2	89.6
2025-07-17T02:42	10	0	0.1	0	0	397	0.3	397	398	17.2	89.9
2025-07-17T02:43	10	0	0.1	0	0	397	0.2	397	398	17.2	89.7
2025-07-17T02:44	10	0	0.1	0	0	397	0.2	397	398	17.2	89.4
2025-07-17T02:45	10	0	0.1	0	0	398	0.2	397	398	17.3	89.1
2025-07-17T02:46	10	0	0.1	0	0	397	0.2	397	398	17.2	89.3
2025-07-17T02:47	10	0	0.1	0	0	398	0.2	397	398	17.2	89.6
2025-07-17T02:48	10	0	0.1	0	0	398	0.2	397	398	17.3	88.7
2025-07-17T02:49	10	0	0.1	0	0	398	0.2	397	398	17.3	88.8
2025-07-17T02:50	10	0	0.1	0	0	398	0.2	397	398	17.3	88.7
2025-07-17T02:51	10	0	0.1	0	0	398	0.2	397	398	17.3	88.8
2025-07-17T02:52	10	0	0.1	0	0	398	0.2	397	398	17.3	88.8
2025-07-17T02:53	10	0	0.1	0	0	398	0.2	397	398	17.3	88.8
2025-07-17T02:54	10	0	0.1	0	0	398	0.3	397	398	17.3	88.5
2025-07-17T02:55	10	0	0.1	0	0	398	0.3	397	398	17.3	88.7
2025-07-17T02:56	10	0	0.1	0	0	397	0.2	397	398	17.3	88.8
2025-07-17T02:57	10	0	0.1	0	0	397	0.2	397	398	17.2	89.3
2025-07-17T02:58	10	0	0.1	0	0	398	0.3	397	398	17.2	88.7
2025-07-17T02:59	10	0	0.1	0	0	397	0.3	397	398	17.3	88.1
2025-07-17T03:00	10	0	0.1	0	0	398	0.2	397	398	17.3	88.4
2025-07-17T03:01	10	0	0.1	0	0	398	0.2	397	398	17.3	88.2
2025-07-17T03:02	10	0	0.1	0	0	398	0.3	397	398	17.3	88.1
2025-07-17T03:03	10	0	0.1	0	0	397	0.3	397	398	17.3	88.4
2025-07-17T03:04	10	0	0.1	0	0	398	0.2	397	398	17.3	88.4
2025-07-17T03:05	10	0	0.1	0	0	397	0.2	397	398	17.3	88.7
2025-07-17T03:06	10	0	0.1	0	0	397	0.3	397	398	17.2	89.3
2025-07-17T03:07	10	0	0.1	0	0	397	0.2	397	397	17.2	89.2
2025-07-17T03:08	10	0	0.1	0	0	397	0.2	397	397	17.2	89.6
2025-07-17T03:09	10	0	0.1	0	0	397	0.2	396	397	17.3	88.2
2025-07-17T03:10	10	0	0.1	0	0	397	0.2	396	397	17.3	88.4
2025-07-17T03:11	10	0	0.1	0	0	397	0.2	396	397	17.3	87.6
2025-07-17T03:12	10	0	0.1	0	0	397	0.3	396	397	17.4	86.9
2025-07-17T03:13	10	0	0.1	0	0	396	0.2	396	397	17.4	87.5
2025-07-17T03:14	10	0	0.1	0	0	396	0.2	396	397	17.3	87.8
2025-07-17T03:15	10	0	0.1	0	0	396	0.2	396	397	17.4	87.4
2025-07-17T03:16	10	0	0.1	0	0	396	0.2	396	397	17.3	88.0
2025-07-17T03:17	10	0	0.1	0	0	396	0.2	396	397	17.3	87.6
2025-07-17T03:18	10	0	0.1	0	0	396	0.2	396	397	17.3	87.8
2025-07-17T03:19	10	0	0.1	0	0	396	0.3	396	397	17.3	87.6
2025-07-17T03:20	10	0	0.1	0	0	397	0.2	396	397	17.3	87.4
2025-07-17T03:21	10	0	0.1	0	0	397	0.3	396	397	17.3	87.1
2025-07-17T03:22	10	0	0.1	0	0	396	0.2	396	397	17.3	87.2
2025-07-17T03:23	10	0	0.1	0	0	397	0.2	396	397	17.3	87.3
2025-07-17T03:24	10	0	0.1	0	0	397	0.3	396	398	17.4	86.8
2025-07-17T03:25	10	0	0.1	0	0	397	0.2	396	397	17.4	86.9
2025-07-17T03:26	10	0	0.1	0	0	397	0.2	396	397	17.3	87.2
2025-07-17T03:27	10	0	0.1	0	0	397	0.3	396	397	17.4	86.7
2025-07-17T03:28	10	0	0.1	0	0	397	0.2	397	398	17.4	86.2
2025-07-17T03:29	10	0	0.1	0	0	397	0.2	397	398	17.4	86.0
2025-07-17T03:30	10	0	0.1	0	0	397	0.2	397	397	17.4	86.5
2025-07-17T03:31	10	0	0.1	0	0	397	0.3	397	398	17.4	86.7
2025-07-17T03:32	10	0	0.1	0	0	397	0.2	397	398	17.4	86.7
2025-07-17T03:33	10	0	0.1	0	0	397	0.2	397	398	17.4	86.6
2025-07-17T03:34	10	0	0.1	0	0	397	0.2	397	398	17.4	86.3
2025-07-17T03:35	10	0	0.1	0	0	397	0.2	397	398	17.4	86.6
2025-07-17T03:36	10	0	0.1	0	0	397	0.3	397	398	17.4	86.5
2025-07-17T03:37	10	0	0.1	0	0	397	0.3	397	398	17.4	86.7
2025-07-17T03:38	10	0	0.1	0	0	397	0.2	397	398	17.4	86.9
2025-07-17T03:39	10	0	0.1	0	0	397	0.2	397	398	17.4	86.6
2025-07-17T03:40	10	0	0.1	0	0	397	0.2	397	398	17.4	86.8
2025-07-17T03:41	10	0	0.1	0	0	397	0.2	397	398	17.4	86.8
2025-07-17T03:42	10	0	0.1	0	0	398	0.2	397	398	17.4	86.1
2025-07-17T03:43	10	0	0.1	0	0	397	0.2	397	398	17.4	86.3
2025-07-17T03:44	10	0	0.1	0	0	398	0.2	397	398	17.4	86.4
2025-07-17T03:45	10	0	0.1	0	0	397	0.3	397	398	17.5	85.7
2025-07-17T03:46	10	0	0.1	0	0	397	0.2	397	398	17.4	86.5
2025-07-17T03:47	10	0	0.1	0	0	397	0.3	397	398	17.4	86.8
2025-07-17T03:48	10	0	0.1	0	0	397	0.2	397	398	17.4	86.7
2025-07-17T03:49	10	0	0.1	0	0	397	0.2	397	398	17.4	86.5
2025-07-17T03:50	10	0	0.1	0	0	397	0.2	397	398	17.4	86.2
2025-07-17T03:51	10	0	0.1	0	0	397	0.2	397	398	17.4	86.6
2025-07-17T03:52	10	0	0.1	0	0	398	0.2	397	398	17.4	86.2
2025-07-17T03:53	10	0	0.1	0	0	397	0.2	397	398	17.4	86.2
2025-07-17T03:54	10	0	0.1	0	0	397	0.2	397	398	17.4	86.2
2025-07-17T03:55	10	0	0.1	0	0	397	0.2	397	398	17.4	86.2
2025-07-17T03:56	10	0	0.1	0	0	397	0.2	397	398	17.4	86.2
2025-07-17T03:57	10	0	0.1	0	0	398	0.3	397	398	17.4	86.3
2025-07-17T03:58	10	0	0.1	0	0	398	0.3	397	398	17.5	85.4
2025-07-17T03:59	10	0	0.1	0	0	398	0.2	397	398	17.5	86.1
2025-07-17T04:00	10	0	0.1	0	0	398	0.3	397	398	17.5	85.3
2025-07-17T04:01	10	0	0.1	0	0	398	0.2	397	398	17.5	85.6
2025-07-17T04:02	10	0	0.1	0	1	398	0.2	397	398	17.5	85.7
2025-07-17T04:03	10	0	0.1	0	1	398	0.2	397	398	17.5	85.4
2025-07-17T04:04	10	1	0.1	0	1	398	0.2	397	398	17.5	85.6
2025-07-17T04:05	10	1	0.1	0	1	398	0.2	397	398	17.5	85.8
2025-07-17T04:06	10	1	0.1	1	1	398	0.2	398	399	17.5	85.8
2025-07-17T04:07	10	1	0.1	1	1	398	0.2	398	398	17.5	85.1
2025-07-17T04:08	10	1	0.1	1	1	398	0.2	397	399	17.5	85.4
2025-07-17T04:09	10	1	0.1	1	1	398	0.2	398	399	17.5	85.4
2025-07-17T04:10	10	1	0.1	1	1	398	0.2	398	399	17.5	85.6
2025-07-17T04:11	10	1	0.1	1	1	398	0.3	397	399	17.5	85.4
2025-07-17T04:12	10	1	0.1	1	1	398	0.2	398	399	17.5	85.3
2025-07-17T04:13	10	1	0.1	1	2	398	0.2	398	399	17.5	85.1
2025-07-17T04:14	10	2	0.1	1	2	398	0.2	398	398	17.5	85.4
2025-07-17T04:15	10	2	0.1	2	2	398	0.2	398	399	17.5	85.1
2025-07-17T04:16	10	2	0.2	2	3	398	0.3	398	399	17.5	85.8
2025-07-17T04:17	10	3	0.2	2	3	399	0.2	398	399	17.5	85.7
2025-07-17T04:18	10	3	0.2	3	3	398	0.2	398	399	17.5	85.6
2025-07-17T04:19	10	4	0.2	3	4	398	0.2	398	399	17.5	85.7
2025-07-17T04:20	10	4	0.2	4	5	399	0.2	398	399	17.5	85.5
2025-07-17T04:21	10	5	0.2	5	5	399	0.2	398	399	17.5	85.5
2025-07-17T04:22	10	6	0.3	5	6	399	0.2	398	399	17.5	85.3
2025-07-17T04:23	10	7	0.4	6	8	399	0.2	399	400	17.5	85.6
2025-07-17T04:24	10	8	0.4	8	9	399	0.3	398	400	17.5	86.2
2025-07-17T04:25	10	10	0.4	9	10	400	0.4	399	400	17.5	86.0
2025-07-17T04:26	10	11	0.5	10	12	400	0.2	400	401	17.5	85.3
2025-07-17T04:27	10	12	0.2	12	12	400	0.3	399	401	17.5	85.7
2025-07-17T04:28	10	12	0.1	12	12	400	0.2	400	401	17.5	86.3
2025-07-17T04:29	10	12	0.1	12	12	400	0.2	400	401	17.5	85.3
2025-07-17T04:30	10	11	0.2	11	12	401	0.2	400	401	17.5	85.3
2025-07-17T04:31	10	11	0.2	10	11	401	0.3	400	401	17.5	85.4
2025-07-17T04:32	10	10	0.1	10	10	401	0.2	400	401	17.6	85.0
2025-07-17T04:33	10	10	0.2	9	10	401	0.2	400	401	17.5	86.0
2025-07-17T04:34	10	9	0.2	9	10	401	0.2	400	401	17.5	85.9
2025-07-17T04:35	10	9	0.2	8	9	401	0.3	400	401	17.5	85.7
2025-07-17T04:36	10	8	0.1	8	8	400	0.2	400	401	17.5	86.3
2025-07-17T04:37	10	7	0.2	7	8	401	0.2	400	401	17.5	85.9
2025-07-17T04:38	10	7	0.3	6	7	400	0.3	400	401	17.5	85.7
2025-07-17T04:39	10	6	0.3	5	6	401	0.2	400	401	17.5	85.8
2025-07-17T04:40	10	5	0.1	5	5	401	0.2	400	401	17.5	85.9
2025-07-17T04:41	10	5	0.1	4	5	401	0.2	400	401	17.5	85.9
2025-07-17T04:42	10	5	0.1	4	5	401	0.2	400	401	17.5	86.1
2025-07-17T04:43	10	5	0.1	5	5	401	0.3	400	401	17.5	86.4
2025-07-17T04:44	10	5	0.2	5	5	400	0.2	400	401	17.5	86.5
2025-07-17T04:45	10	6	0.3	5	6	400	0.2	400	401	17.5	86.9
2025-07-17T04:46	10	7	0.3	6	7	401	0.2	400	401	17.4	87.4
2025-07-17T04:47	10	8	0.3	7	8	401	0.3	400	402	17.4	87.7
2025-07-17T04:48	10	9	0.2	8	9	401	0.2	401	401	17.4	87.8
2025-07-17T04:49	10	9	0.2	9	9	401	0.3	400	402	17.4	87.8
2025-07-17T04:50	10	10	0.2	9	10	402	0.3	401	403	17.4	87.5
2025-07-17T04:51	10	10	0.2	10	11	402	0.2	402	403	17.5	87.6
2025-07-17T04:52	10	11	0.3	11	12	403	0.3	402	403	17.5	87.4
2025-07-17T04:53	10	12	0.3	11	12	403	0.2	402	403	17.5	87.8
2025-07-17T04:54	10	13	0.4	12	14	403	0.2	402	403	17.5	88.0
2025-07-17T04:55	10	14	0.3	14	15	403	0.2	403	404	17.5	87.7
2025-07-17T04:56	10	15	0.2	14	15	403	0.2	403	404	17.5	87.4
2025-07-17T04:57	10	15	0.2	15	16	404	0.3	403	404	17.5	87.4
2025-07-17T04:58	10	15	0.1	15	16	404	0.3	403	404	17.5	87.7
2025-07-17T04:59	10	15	0.2	15	16	404	0.2	404	405	17.5	88.1
2025-07-17T05:00	10	15	0.2	14	15	404	0.2	404	405	17.5	87.3
2025-07-17T05:01	10	13	0.4	13	14	404	0.2	404	405	17.5	87.4
2025-07-17T05:02	10	13	0.2	12	13	404	0.3	404	405	17.5	87.9
2025-07-17T05:03	10	12	0.2	12	12	404	0.3	403	405	17.6	88.1
2025-07-17T05:04	10	12	0.2	11	12	404	0.3	403	405	17.6	87.9
2025-07-17T05:05	10	11	0.1	11	11	404	0.2	403	404	17.6	87.8
2025-07-17T05:06	10	11	0.1	11	11	404	0.3	403	404	17.6	87.4
2025-07-17T05:07	10	12	0.2	11	12	403	0.2	403	404	17.6	87.0
2025-07-17T05:08	10	12	0.1	12	12	403	0.2	403	404	17.6	87.1
2025-07-17T05:09	10	11	0.2	11	12	404	0.3	403	404	17.6	86.9
2025-07-17T05:10	10	11	0.1	11	11	404	0.2	403	404	17.7	86.1
2025-07-17T05:11	10	11	0.1	10	11	404	0.2	403	404	17.7	86.7
2025-07-17T05:12	10	11	0.2	11	11	404	0.2	403	404	17.7	87.1
2025-07-17T05:13	10	11	0.2	11	12	404	0.2	404	405	17.7	86.9
2025-07-17T05:14	10	12	0.3	12	13	405	0.2	404	405	17.8	86.7
2025-07-17T05:15	10	13	0.3	13	14	405	0.3	404	405	17.8	86.9
2025-07-17T05:16	10	14	0.1	13	14	404	0.3	404	405	17.8	86.3
2025-07-17T05:17	10	14	0.2	14	15	404	0.2	404	404	17.7	86.2
2025-07-17T05:18	10	15	0.1	14	15	404	0.2	403	404	17.7	86.2
2025-07-17T05:19	10	15	0.1	14	15	404	0.2	403	404	17.6	86.7
2025-07-17T05:20	10	15	0.1	14	15	404	0.3	404	405	17.6	87.3
2025-07-17T05:21	10	15	0.1	14	15	405	0.3	404	405	17.7	87.8
2025-07-17T05:22	10	15	0.1	14	15	405	0.2	405	406	17.7	88.6
2025-07-17T05:23	10	15	0.1	14	15	405	0.3	405	406	17.7	88.1
2025-07-17T05:24	10	14	0.1	14	15	405	0.2	405	406	17.7	87.6
2025-07-17T05:25	10	14	0.1	14	14	405	0.3	405	406	17.7	87.9
2025-07-17T05:26	10	14	0.2	13	14	406	0.3	405	406	17.7	88.3
2025-07-17T05:27	10	13	0.2	13	14	406	0.2	405	406	17.7	88.2
2025-07-17T05:28	10	12	0.3	12	13	406	0.2	405	406	17.7	88.3
2025-07-17T05:29	10	11	0.4	10	12	406	0.2	405	406	17.8	88.0
2025-07-17T05:30	10	10	0.2	10	11	405	0.4	404	406	17.7	88.5
2025-07-17T05:31	10	9	0.2	9	10	405	0.3	404	405	17.7	88.9
2025-07-17T05:32	10	9	0.1	9	9	404	0.3	404	405	17.6	89.4
2025-07-17T05:33	10	9	0.1	9	9	404	0.3	403	405	17.6	89.2
2025-07-17T05:34	10	9	0.1	9	9	404	0.3	403	405	17.6	88.5
2025-07-17T05:35	10	9	0.1	9	9	404	0.3	404	405	17.7	88.8
2025-07-17T05:36	10	8	0.1	8	9	404	0.3	403	404	17.6	88.8
2025-07-17T05:37	10	8	0.1	8	9	404	0.2	404	405	17.7	89.2
2025-07-17T05:38	10	9	0.1	8	9	404	0.3	404	405	17.7	88.8
2025-07-17T05:39	10	9	0.6	9	13	404	0.2	404	404	17.7	89.2
2025-07-17T05:40	10	9	0.1	9	10	404	0.2	403	404	17.6	89.0
2025-07-17T05:41	10	10	0.1	9	10	404	0.2	403	404	17.6	89.0
2025-07-17T05:42	10	10	0.1	9	10	404	0.3	403	404	17.6	88.8
2025-07-17T05:43	10	10	0.1	9	10	404	0.3	403	404	17.6	89.2
2025-07-17T05:44	10	9	0.1	9	10	404	0.2	403	404	17.6	89.1
2025-07-17T05:45	10	10	0.1	9	10	403	0.3	403	404	17.6	88.6
2025-07-17T05:46	10	10	0.2	10	10	403	0.3	402	404	17.6	88.9
2025-07-17T05:47	10	11	0.3	10	11	403	0.2	402	403	17.6	89.1
2025-07-17T05:48	10	12	0.4	11	13	403	0.2	402	403	17.6	89.1
2025-07-17T05:49	10	13	0.4	13	14	403	0.2	402	403	17.6	89.4
2025-07-17T05:50	10	15	0.5	14	16	403	0.2	403	404	17.5	89.6
2025-07-17T05:51	10	17	0.5	16	17	404	0.4	403	404	17.5	89.9
2025-07-17T05:52	10	18	0.5	17	19	404	0.3	404	405	17.5	90.8
2025-07-17T05:53	10	20	0.4	19	20	404	0.2	404	405	17.5	91.1
2025-07-17T05:54	10	21	0.4	21	22	405	0.2	404	405	17.5	91.0
2025-07-17T05:55	10	22	0.2	22	22	405	0.3	404	406	17.5	91.2
2025-07-17T05:56	10	23	0.2	22	23	405	0.2	404	405	17.5	91.6
2025-07-17T05:57	10	23	0.2	23	24	405	0.2	405	406	17.5	91.7
2025-07-17T05:58	10	24	0.2	24	24	405	0.3	404	406	17.4	91.7
2025-07-17T05:59	10	25	0.3	24	26	405	0.3	405	406	17.5	91.6
2025-07-17T06:00	10	26	0.4	25	27	405	0.4	404	406	17.5	91.6
2025-07-17T06:01	10	27	0.3	27	28	405	0.3	404	406	17.5	90.5
2025-07-17T06:02	10	29	0.5	28	30	405	0.2	404	405	17.5	90.3
2025-07-17T06:03	10	30	0.4	29	31	405	0.3	404	405	17.6	90.0
2025-07-17T06:04	10	31	0.4	30	32	405	0.6	404	407	17.6	90.0
2025-07-17T06:05	10	32	0.3	32	33	407	0.3	406	407	17.6	91.1
2025-07-17T06:06	10	33	0.2	33	33	406	0.3	406	407	17.6	90.2
2025-07-17T06:07	10	33	0.1	33	33	407	0.3	406	407	17.6	90.2
2025-07-17T06:08	10	33	0.1	33	33	406	0.3	405	407	17.6	89.8
2025-07-17T06:09	10	33	0.1	33	33	407	0.3	406	407	17.6	90.3
2025-07-17T06:10	10	34	1.2	33	37	407	0.2	406	408	17.6	90.2
2025-07-17T06:11	10	37	1.8	33	40	408	0.5	407	409	17.7	90.5
2025-07-17T06:12	10	30	1.0	29	33	407	0.3	407	408	17.7	89.8
2025-07-17T06:13	10	60	27.5	29	92	409	2.0	406	412	17.7	89.1
2025-07-17T06:14	10	90	2.7	86	94	413	1.7	411	416	17.8	88.6
2025-07-17T06:15	10	84	11.3	55	93	416	0.4	415	416	18.0	89.6
2025-07-17T06:16	10	30	7.2	25	53	412	2.2	409	416	18.1	89.1
2025-07-17T06:17	10	25	0.2	25	26	409	0.9	407	411	18.0	88.2
2025-07-17T06:18	10	44	12.6	26	62	409	1.1	407	410	18.0	88.1
2025-07-17T06:19	10	51	14.5	37	85	410	0.8	409	412	18.0	87.8
2025-07-17T06:20	10	62	23.1	31	89	412	1.2	410	414	18.1	87.1
2025-07-17T06:21	10	56	21.4	31	84	410	1.0	409	412	18.1	87.1
2025-07-17T06:22	10	85	7.3	68	90	413	0.9	411	414	18.1	86.3
2025-07-17T06:23	10	89	0.2	89	89	415	0.8	414	416	18.2	86.2
2025-07-17T06:24	10	88	1.1	85	89	416	0.3	416	417	18.2	86.1
2025-07-17T06:25	10	76	11.0	45	84	417	0.6	415	417	18.3	86.2
2025-07-17T06:26	10	46	10.7	37	73	414	0.9	412	416	18.4	85.8
2025-07-17T06:27	10	93	5.6	74	96	417	1.5	414	419	18.5	86.1
2025-07-17T06:28	10	96	0.6	95	98	418	0.3	417	418	18.5	83.9
2025-07-17T06:29	10	99	0.8	98	100	418	0.3	418	419	18.4	83.7
2025-07-17T06:30	10	101	0.5	100	102	419	0.2	418	420	18.4	84.4
2025-07-17T06:31	10	98	5.9	81	103	421	0.6	419	422	18.6	84.8
2025-07-17T06:32	10	90	8.0	76	99	419	0.4	418	420	18.5	83.1
2025-07-17T06:33	10	102	1.6	96	103	421	0.9	419	422	18.5	83.4
2025-07-17T06:34	10	101	2.6	97	104	422	0.4	422	423	18.7	84.4
2025-07-17T06:35	10	87	8.2	65	97	423	1.0	421	424	18.9	84.9
2025-07-17T06:36	10	49	4.1	47	64	418	1.8	416	423	18.9	84.3
2025-07-17T06:37	10	62	7.1	49	71	417	0.4	416	418	18.9	82.4
2025-07-17T06:38	10	93	9.0	63	99	419	1.7	416	421	18.7	81.5
2025-07-17T06:39	10	90	4.4	83	97	421	0.4	420	422	18.7	82.1
2025-07-17T06:40	10	92	2.3	87	94	422	0.3	421	423	18.8	81.7
2025-07-17T06:41	10	103	2.8	94	104	422	0.3	421	423	18.8	81.9
2025-07-17T06:42	10	104	0.3	103	104	423	0.5	422	424	18.8	81.8
2025-07-17T06:43	10	107	1.8	104	110	423	0.3	423	424	19.0	81.4
2025-07-17T06:44	10	53	24.7	30	107	420	3.3	415	425	18.9	81.1
2025-07-17T06:45	10	28	1.0	26	30	415	1.1	413	417	18.8	81.8
2025-07-17T06:46	10	30	5.0	26	42	412	0.9	410	414	18.7	81.3
2025-07-17T06:47	10	72	26.1	35	108	415	3.4	410	419	18.6	82.0
2025-07-17T06:48	10	45	6.1	39	61	415	1.6	413	418	18.6	81.8
2025-07-17T06:49	10	49	2.3	42	52	414	0.6	413	415	18.5	82.3
2025-07-17T06:50	10	52	1.9	49	55	415	0.5	414	416	18.5	82.4
2025-07-17T06:51	10	78	11.9	55	95	418	1.7	415	420	18.6	82.3
2025-07-17T06:52	10	46	5.6	42	63	417	1.3	416	420	18.6	82.2
2025-07-17T06:53	10	43	0.5	42	44	416	0.3	416	417	18.7	82.3
2025-07-17T06:54	10	41	0.5	40	42	416	0.3	415	416	18.8	81.8
2025-07-17T06:55	10	39	0.2	39	40	416	0.3	415	416	18.8	81.4
2025-07-17T06:56	10	39	0.3	38	39	416	0.5	415	416	18.8	81.6
2025-07-17T06:57	10	38	0.1	38	38	415	0.2	415	416	18.8	80.4
2025-07-17T06:58	10	38	0.3	38	39	415	0.2	415	415	18.9	81.0
2025-07-17T06:59	10	39	0.1	39	39	415	0.3	414	415	18.9	81.0
2025-07-17T07:00	10	40	0.7	39	41	415	0.2	414	415	19.0	80.6
2025-07-17T07:01	10	38	0.2	38	39	415	0.2	415	415	19.0	81.1
2025-07-17T07:02	10	40	1.3	38	43	415	0.4	415	416	19.0	80.7
2025-07-17T07:03	10	46	1.7	43	49	416	0.4	416	417	19.1	80.8
2025-07-17T07:04	10	45	1.8	44	51	417	0.3	417	418	19.1	80.9
2025-07-17T07:05	10	93	22.7	52	123	421	3.0	417	427	19.1	79.2
2025-07-17T07:06	10	137	5.7	123	142	430	2.4	425	433	19.1	78.9
2025-07-17T07:07	10	102	18.4	80	136	431	1.6	428	433	19.3	78.9
2025-07-17T07:08	10	76	2.5	72	80	428	0.9	426	429	19.4	78.8
2025-07-17T07:09	10	119	34.5	70	154	430	3.3	426	436	19.4	79.0
2025-07-17T07:10	10	154	0.4	153	155	438	1.3	435	440	19.6	79.5
2025-07-17T07:11	10	156	0.9	155	158	440	0.6	438	441	19.8	78.8
2025-07-17T07:12	10	160	0.9	158	161	441	0.9	439	442	19.6	77.4
2025-07-17T07:13	10	161	1.0	158	162	443	0.7	442	444	19.7	77.3
2025-07-17T07:14	10	148	8.7	127	158	444	0.8	442	444	19.9	77.8
2025-07-17T07:15	10	105	11.4	90	127	438	3.2	434	443	20.0	77.2
2025-07-17T07:16	10	132	16.5	91	146	438	1.7	435	441	20.0	76.1
2025-07-17T07:17	10	60	12.8	47	91	433	3.6	428	439	20.1	75.5
2025-07-17T07:18	10	45	1.4	43	48	428	1.7	424	431	19.9	76.7
2025-07-17T07:19	10	43	0.4	42	44	423	1.8	420	426	19.3	75.7
2025-07-17T07:20	10	39	1.6	37	42	421	0.5	420	422	19.3	76.1
2025-07-17T07:21	10	34	1.5	31	37	418	1.3	416	421	19.1	75.6
2025-07-17T07:22	10	29	1.2	28	32	416	0.8	415	417	19.0	75.9
2025-07-17T07:23	10	26	0.7	25	27	415	0.4	414	416	19.1	75.9
2025-07-17T07:24	10	25	0.3	24	25	415	0.5	414	416	19.1	75.6
2025-07-17T07:25	10	24	0.1	24	24	413	0.3	412	414	19.0	75.1
2025-07-17T07:26	10	24	0.1	24	24	413	0.3	413	414	19.0	74.9
2025-07-17T07:27	10	25	0.2	24	25	413	0.3	413	414	19.2	74.6
2025-07-17T07:28	10	26	0.3	25	26	413	0.3	412	414	19.1	74.0
2025-07-17T07:29	10	27	0.7	26	28	413	0.3	412	413	19.1	73.3
2025-07-17T07:30	10	30	0.7	29	31	412	0.3	412	413	19.1	70.8
2025-07-17T07:31	10	31	0.2	31	31	412	0.2	411	412	19.0	70.1
2025-07-17T07:32	10	31	0.3	30	31	412	0.2	411	412	19.0	69.5
2025-07-17T07:33	10	31	0.2	30	31	412	0.3	411	413	19.0	69.0
2025-07-17T07:34	10	31	0.4	30	31	412	0.4	411	413	19.1	69.2
2025-07-17T07:35	10	29	0.3	28	30	413	0.3	412	413	19.2	69.0
2025-07-17T07:36	10	29	0.3	28	30	412	0.3	411	413	19.1	67.8
2025-07-17T07:37	10	28	1.2	26	30	411	0.3	410	411	19.0	67.2
2025-07-17T07:38	10	25	0.5	24	26	410	0.3	409	410	19.0	68.1
2025-07-17T07:39	10	23	1.0	21	24	409	0.5	408	410	19.0	66.6
2025-07-17T07:40	10	21	0.1	21	21	407	0.3	407	408	19.0	66.6
2025-07-17T07:41	10	20	0.4	19	21	407	0.2	407	408	19.0	67.4
2025-07-17T07:42	10	19	0.4	18	19	407	0.3	407	408	19.0	67.8
2025-07-17T07:43	10	18	0.4	18	19	407	0.3	406	407	19.0	67.3
2025-07-17T07:44	10	32	14.0	19	61	407	1.3	406	411	19.0	67.1
2025-07-17T07:45	10	75	18.3	47	104	414	2.9	409	419	19.1	66.3
2025-07-17T07:46	10	86	26.0	57	139	418	1.5	415	421	19.0	71.5
2025-07-17T07:47	10	130	11.0	110	139	425	2.0	420	427	18.9	74.1
2025-07-17T07:48	10	77	30.4	29	110	424	2.5	418	426	19.0	75.2
2025-07-17T07:49	10	35	15.3	29	102	416	2.1	413	420	19.0	77.0
2025-07-17T07:50	10	134	6.4	110	142	423	3.6	414	427	18.8	78.1
2025-07-17T07:51	10	130	3.7	120	137	428	1.2	426	430	18.8	78.3
2025-07-17T07:52	10	102	15.1	73	119	427	1.0	425	429	18.9	78.3
2025-07-17T07:53	10	132	6.0	112	136	429	1.5	427	432	18.9	78.7
2025-07-17T07:54	10	132	0.7	131	133	433	1.1	431	435	19.0	78.5
2025-07-17T07:55	10	130	0.2	130	131	434	0.9	432	435	19.0	78.2
2025-07-17T07:56	10	130	0.1	130	130	433	0.4	432	434	19.0	77.8
2025-07-17T07:57	10	130	0.2	130	131	435	0.8	433	436	19.2	77.6
2025-07-17T07:58	10	131	0.4	131	132	434	0.6	432	435	19.1	76.9
2025-07-17T07:59	10	133	0.4	132	133	435	0.6	434	436	19.4	77.0
2025-07-17T08:00	10	134	0.3	133	134	436	0.7	435	437	19.6	75.4
2025-07-17T08:01	10	134	0.2	134	135	435	0.7	434	437	19.1	75.3
2025-07-17T08:02	10	135	0.2	135	135	438	0.7	436	439	19.4	75.5
2025-07-17T08:03	10	135	0.1	135	135	438	0.5	437	439	19.7	74.4
2025-07-17T08:04	10	136	0.2	135	136	436	0.4	436	437	19.7	74.1
2025-07-17T08:05	10	136	0.1	136	136	437	0.9	436	439	19.5	74.2
2025-07-17T08:06	10	136	0.2	136	137	437	1.3	435	439	19.5	71.9
2025-07-17T08:07	10	137	0.3	137	138	438	1.5	436	440	19.3	72.3
2025-07-17T08:08	10	139	0.4	138	139	440	0.4	439	441	19.5	72.8
2025-07-17T08:09	10	140	0.3	139	140	439	0.7	438	440	19.5	73.6
2025-07-17T08:10	10	140	0.1	140	141	438	0.7	437	439	19.4	73.1
2025-07-17T08:11	10	141	0.2	141	142	438	0.7	436	439	19.4	73.5
2025-07-17T08:12	10	141	0.3	141	142	438	0.5	437	439	19.3	73.7
2025-07-17T08:13	10	141	0.1	140	141	438	1.4	436	440	19.3	73.0
2025-07-17T08:14	10	141	0.2	140	141	437	0.5	436	438	19.0	73.4
2025-07-17T08:15	10	141	0.5	141	142	440	0.6	438	441	19.2	73.6
2025-07-17T08:16	10	143	0.2	142	143	440	0.6	439	441	19.3	73.1
2025-07-17T08:17	10	143	0.1	143	143	441	0.8	439	443	19.6	73.0
2025-07-17T08:18	10	143	0.1	143	143	441	0.9	440	443	19.9	72.1
2025-07-17T08:19	10	144	0.1	143	144	441	0.4	440	442	19.5	71.3
2025-07-17T08:20	10	144	0.1	143	144	440	0.7	439	441	19.4	71.8
2025-07-17T08:21	10	145	0.9	144	147	441	0.5	440	442	19.3	71.8
2025-07-17T08:22	10	149	1.0	147	150	442	0.5	441	443	19.5	71.7
2025-07-17T08:23	10	152	0.8	150	153	443	0.6	442	444	19.5	71.2
2025-07-17T08:24	10	154	0.9	153	156	445	1.0	443	447	19.9	71.4
2025-07-17T08:25	10	158	1.4	156	161	445	1.0	444	447	19.7	70.1
2025-07-17T08:26	10	157	9.9	121	163	447	1.3	444	449	19.9	70.4
2025-07-17T08:27	10	115	20.0	85	146	444	2.0	441	449	20.2	68.7
2025-07-17T08:28	10	129	19.1	92	160	443	1.3	440	446	19.9	69.0
2025-07-17T08:29	10	107	14.1	79	123	440	0.6	438	442	20.1	69.6
2025-07-17T08:30	10	121	15.5	93	144	440	1.6	438	443	19.9	70.6
2025-07-17T08:31	10	95	20.6	65	132	438	2.0	435	442	19.8	70.7
2025-07-17T08:32	10	115	32.3	70	171	438	2.3	436	444	20.1	70.4
2025-07-17T08:33	10	84	20.4	55	147	439	2.9	435	444	20.4	70.2
2025-07-17T08:34	10	115	20.4	65	147	439	2.2	434	441	20.3	69.3
2025-07-17T08:35	10	95	24.2	72	150	434	2.7	431	440	19.8	69.6
2025-07-17T08:36	10	148	14.8	118	164	440	2.1	435	443	19.7	70.5
2025-07-17T08:37	10	157	0.9	155	159	443	1.6	441	445	19.9	69.7
2025-07-17T08:38	10	154	0.8	153	156	444	0.7	443	445	19.8	69.4
2025-07-17T08:39	10	152	0.3	152	153	443	1.0	441	445	19.7	69.3
2025-07-17T08:40	10	152	0.2	152	153	442	0.9	441	444	19.7	69.4
2025-07-17T08:41	10	152	0.2	152	153	444	1.1	443	447	19.6	69.2
2025-07-17T08:42	10	153	0.4	152	154	446	0.8	444	447	19.7	68.9
2025-07-17T08:43	10	155	0.7	154	156	447	0.7	446	449	19.6	68.5
2025-07-17T08:44	10	157	0.6	156	158	450	0.8	448	451	20.0	69.2
2025-07-17T08:45	10	159	0.5	158	160	451	0.6	450	452	20.3	67.7
2025-07-17T08:46	10	161	0.6	160	162	450	0.4	449	451	20.0	66.3
2025-07-17T08:47	10	162	0.4	161	163	451	1.2	450	454	20.2	67.0
2025-07-17T08:48	10	159	1.2	157	161	453	0.9	451	454	20.0	66.5
2025-07-17T08:49	10	157	0.2	157	158	448	1.6	447	453	19.6	66.5
2025-07-17T08:50	10	158	0.1	158	159	450	1.3	448	452	19.5	67.2
2025-07-17T08:51	10	159	0.6	159	161	453	0.8	452	455	20.0	67.3
2025-07-17T08:52	10	162	1.0	161	164	454	0.3	454	455	20.4	65.8
2025-07-17T08:53	10	166	1.3	164	168	456	1.2	454	458	20.4	66.0
2025-07-17T08:54	10	170	0.6	168	171	455	1.1	454	458	20.4	65.5
2025-07-17T08:55	10	170	0.2	170	171	454	0.5	453	455	20.1	67.2
2025-07-17T08:56	10	171	0.6	170	173	454	1.7	451	456	20.5	67.7
2025-07-17T08:57	10	126	55.6	40	174	449	5.0	438	453	20.3	66.8
2025-07-17T08:58	10	49	9.9	41	76	435	3.4	431	442	20.1	67.4
2025-07-17T08:59	10	68	24.8	49	119	433	2.5	429	437	19.8	67.3
2025-07-17T09:00	10	66	13.9	51	89	429	1.4	428	432	19.7	68.2
2025-07-17T09:01	10	52	4.1	49	67	428	1.8	425	431	19.6	67.9
2025-07-17T09:02	10	65	11.9	50	86	427	1.5	425	430	19.7	68.0
2025-07-17T09:03	10	157	35.6	75	186	436	6.2	426	444	19.7	67.2
2025-07-17T09:04	10	147	54.1	50	185	445	3.1	438	450	19.9	67.3
2025-07-17T09:05	10	99	56.3	49	186	436	3.2	432	443	20.2	65.7
2025-07-17T09:06	10	188	1.4	186	191	447	3.7	440	453	20.0	65.3
2025-07-17T09:07	10	186	17.4	99	192	456	2.6	451	460	20.3	65.3
2025-07-17T09:08	10	63	4.6	60	86	444	6.0	436	458	20.6	63.9
2025-07-17T09:09	10	65	10.2	56	92	435	2.1	431	438	20.3	63.7
2025-07-17T09:10	10	57	1.0	56	61	430	1.0	429	432	20.1	63.9
2025-07-17T09:11	10	154	39.7	62	192	437	7.0	427	448	19.8	63.8
2025-07-17T09:12	10	190	2.0	187	193	452	2.6	445	455	20.0	63.4
2025-07-17T09:13	10	185	0.9	184	187	455	1.0	453	457	20.2	63.5
2025-07-17T09:14	10	184	0.3	183	184	453	0.6	452	454	20.1	64.3
2025-07-17T09:15	10	179	2.5	174	183	453	0.6	452	454	20.0	63.8
2025-07-17T09:16	10	173	0.7	171	174	454	1.3	452	457	20.1	63.7
2025-07-17T09:17	10	170	0.3	170	171	458	0.9	456	459	20.5	63.0
2025-07-17T09:18	10	165	5.2	154	171	455	0.9	454	458	20.1	62.6
2025-07-17T09:19	10	135	31.5	79	167	456	3.7	446	459	20.6	62.8
2025-07-17T09:20	10	140	20.2	90	165	449	2.0	446	452	20.2	62.4
2025-07-17T09:21	10	143	24.1	94	167	451	1.8	447	453	20.1	62.0
2025-07-17T09:22	10	160	2.7	153	163	454	1.1	450	455	20.5	62.0
2025-07-17T09:23	10	164	0.5	163	165	457	1.1	454	458	20.5	61.7
2025-07-17T09:24	10	166	0.4	165	166	458	0.6	457	459	20.3	61.5
2025-07-17T09:25	10	166	0.5	165	166	458	0.9	456	459	20.5	61.8
2025-07-17T09:26	10	163	3.2	155	165	456	0.5	455	457	20.2	61.5
2025-07-17T09:27	10	155	11.7	130	165	456	0.5	455	457	20.5	62.1
2025-07-17T09:28	10	162	2.7	154	165	459	1.8	456	461	20.7	61.3
2025-07-17T09:29	10	161	0.3	160	162	460	0.5	459	461	20.6	59.9
2025-07-17T09:30	10	161	0.1	160	161	459	1.0	458	461	20.5	59.4
2025-07-17T09:31	10	161	0.1	161	161	458	1.1	456	460	20.5	59.7
2025-07-17T09:32	10	161	0.1	161	161	458	0.7	457	460	20.4	59.8
2025-07-17T09:33	10	161	0.1	161	161	459	0.5	458	460	20.6	59.9
2025-07-17T09:34	10	161	0.2	161	161	461	0.5	459	461	20.7	60.1
2025-07-17T09:35	10	161	0.2	160	161	461	0.7	459	462	20.9	61.0
2025-07-17T09:36	10	162	0.5	161	163	459	0.6	457	460	20.8	58.6
2025-07-17T09:37	10	162	0.1	162	163	460	0.4	459	461	20.8	58.3
2025-07-17T09:38	10	163	0.2	162	163	462	0.8	461	464	20.8	59.3
2025-07-17T09:39	10	163	0.1	163	164	464	0.6	463	465	21.4	61.1
2025-07-17T09:40	10	164	0.1	164	164	464	0.6	462	465	21.1	58.6
2025-07-17T09:41	10	165	0.4	164	166	462	0.4	462	463	20.8	59.4
2025-07-17T09:42	10	167	0.6	166	168	463	0.9	462	465	20.7	58.8
2025-07-17T09:43	10	169	0.6	168	170	464	0.3	463	465	21.0	59.9
2025-07-17T09:44	10	172	1.2	170	174	465	0.4	464	466	21.1	59.5
2025-07-17T09:45	10	176	1.3	174	178	464	1.4	462	467	20.9	59.3
2025-07-17T09:46	10	179	0.8	178	181	465	0.6	464	467	21.2	58.8
2025-07-17T09:47	10	182	0.5	181	183	465	1.5	463	467	21.1	57.9
2025-07-17T09:48	10	184	1.0	183	186	466	0.8	465	467	20.8	57.9
2025-07-17T09:49	10	189	1.9	186	192	469	0.8	467	470	21.0	57.7
2025-07-17T09:50	10	197	2.9	192	201	472	1.3	469	474	21.2	57.9
2025-07-17T09:51	10	147	35.8	91	201	469	5.8	458	476	21.5	58.1
2025-07-17T09:52	10	152	13.4	117	170	461	1.0	459	463	21.0	56.7
2025-07-17T09:53	10	90	50.5	52	182	456	7.0	446	466	20.7	57.5
2025-07-17T09:54	10	54	0.3	53	54	445	2.6	441	449	20.9	58.5
2025-07-17T09:55	10	54	0.4	53	54	440	1.3	437	442	20.8	58.9
2025-07-17T09:56	10	57	3.9	54	71	437	0.5	436	438	20.8	60.3
2025-07-17T09:57	10	134	45.9	73	200	444	6.8	436	458	20.6	59.1
2025-07-17T09:58	10	161	44.3	91	207	459	3.2	453	463	20.5	59.3
2025-07-17T09:59	10	191	23.3	117	205	462	6.1	452	471	20.6	59.0
2025-07-17T10:00	10	195	16.0	146	203	470	0.8	467	471	21.3	58.3
2025-07-17T10:01	10	149	35.4	91	199	465	4.8	457	471	21.2	56.5
2025-07-17T10:02	10	99	31.9	73	165	455	5.1	447	461	20.9	56.7
2025-07-17T10:03	10	104	11.9	89	131	450	1.2	448	452	20.9	57.5
2025-07-17T10:04	10	143	21.2	101	180	455	2.4	450	458	21.1	56.8
2025-07-17T10:05	10	99	26.6	79	159	451	4.3	445	458	21.0	56.6
2025-07-17T10:06	10	75	4.9	67	81	444	1.9	441	448	21.1	56.5
2025-07-17T10:07	10	66	0.5	65	67	441	0.9	439	442	21.2	56.9
2025-07-17T10:08	10	68	1.5	66	71	439	0.3	439	440	21.3	57.1
2025-07-17T10:09	10	109	31.1	71	167	444	5.2	438	451	21.3	56.3
2025-07-17T10:10	10	131	18.1	95	162	450	1.3	448	452	21.3	57.1
2025-07-17T10:11	10	144	43.1	101	213	453	4.5	450	464	21.3	57.1
2025-07-17T10:12	10	116	46.2	74	208	458	5.7	450	466	21.3	57.1
2025-07-17T10:13	10	149	43.3	97	208	453	4.2	449	462	21.3	57.1
2025-07-17T10:14	10	184	29.2	125	209	462	2.6	458	467	21.3	57.1
2025-07-17T10:15	10	200	2.2	197	204	469	1.6	465	471	21.3	57.0
2025-07-17T10:16	10	197	1.2	193	198	470	0.7	469	471	21.3	55.9
2025-07-17T10:17	10	185	5.0	173	192	472	0.6	471	474	21.6	56.9
2025-07-17T10:18	10	192	0.2	191	192	470	0.8	469	472	21.5	53.2
2025-07-17T10:19	10	185	18.3	109	193	473	0.9	470	474	21.6	52.8
2025-07-17T10:20	10	91	23.5	43	123	460	6.2	448	472	21.7	52.7
2025-07-17T10:21	10	39	1.1	38	43	444	4.1	438	452	21.6	52.4
2025-07-17T10:22	10	38	0.3	38	39	437	1.4	435	440	21.6	52.6
2025-07-17T10:23	10	38	0.5	38	39	435	0.7	434	436	21.5	52.8
2025-07-17T10:24	10	58	26.6	37	134	435	2.0	434	441	21.6	52.8
2025-07-17T10:25	10	144	44.3	63	188	447	7.1	439	460	21.6	51.9
2025-07-17T10:26	10	185	0.8	184	187	462	2.3	457	465	21.7	51.8
2025-07-17T10:27	10	180	2.6	175	184	465	2.4	461	469	22.0	51.9
2025-07-17T10:28	10	175	0.2	174	175	465	0.8	464	467	21.7	51.3
2025-07-17T10:29	10	174	0.4	173	174	467	1.1	464	468	21.5	52.0
2025-07-17T10:30	10	173	0.4	172	173	465	0.8	464	466	21.4	51.8
2025-07-17T10:31	10	171	0.3	171	172	467	1.1	465	469	21.5	51.7
2025-07-17T10:32	10	170	0.4	169	171	468	0.6	467	469	21.6	51.3
2025-07-17T10:33	10	169	0.2	169	169	468	0.9	467	469	21.5	50.8
2025-07-17T10:34	10	169	0.2	168	169	466	0.8	464	467	21.3	50.7
2025-07-17T10:35	10	168	0.1	168	169	466	0.5	465	467	21.3	51.0
2025-07-17T10:36	10	169	0.3	168	170	468	0.7	467	469	21.4	50.7
2025-07-17T10:37	10	170	0.4	169	171	469	0.5	468	470	21.6	50.0
2025-07-17T10:38	10	171	0.2	170	171	471	0.9	470	473	21.8	50.4
2025-07-17T10:39	10	171	0.1	171	171	471	1.6	469	473	21.9	48.7
2025-07-17T10:40	10	171	0.1	170	171	471	0.6	471	473	21.9	48.7
2025-07-17T10:41	10	171	0.1	170	171	474	0.7	472	476	22.4	50.1
2025-07-17T10:42	10	171	0.3	171	172	472	1.6	470	475	22.2	49.3
2025-07-17T10:43	10	172	0.2	171	172	469	1.7	466	472	21.7	49.4
2025-07-17T10:44	10	171	0.3	170	171	470	1.0	468	471	21.5	50.1
2025-07-17T10:45	10	170	0.2	170	171	471	0.8	470	473	21.7	50.3
2025-07-17T10:46	10	169	0.3	169	170	471	0.3	470	472	21.7	49.8
2025-07-17T10:47	10	170	0.2	169	170	471	0.4	471	472	21.7	50.0
2025-07-17T10:48	10	170	0.4	170	171	473	0.7	472	475	21.9	50.0
2025-07-17T10:49	10	170	0.3	170	171	474	0.6	473	475	22.2	48.5
2025-07-17T10:50	10	168	3.7	158	171	472	0.5	471	473	22.0	48.8
2025-07-17T10:51	10	170	0.8	167	170	470	1.7	468	473	22.0	48.0
2025-07-17T10:52	10	170	0.2	170	170	468	0.9	467	469	21.7	47.9
2025-07-17T10:53	10	170	0.1	170	171	469	1.0	467	471	21.7	48.0
2025-07-17T10:54	10	170	0.1	170	171	470	0.6	468	471	21.7	47.8
2025-07-17T10:55	10	171	0.1	170	171	471	0.7	469	472	21.6	48.0
2025-07-17T10:56	10	171	0.2	171	171	474	1.0	472	475	22.0	48.3
2025-07-17T10:57	10	171	0.1	171	171	475	0.4	474	476	22.1	47.0
2025-07-17T10:58	10	170	0.6	169	171	477	0.3	476	477	22.7	48.2
2025-07-17T10:59	10	169	0.1	169	169	474	0.6	473	477	22.2	47.2
2025-07-17T11:00	10	169	0.1	169	169	473	1.8	470	476	22.2	47.4
2025-07-17T11:01	10	169	0.1	169	169	472	0.6	471	473	22.2	48.2
2025-07-17T11:02	10	169	0.1	169	169	471	0.7	470	473	22.3	47.6
2025-07-17T11:03	10	169	0.1	169	169	473	1.1	472	476	22.3	47.8
2025-07-17T11:04	10	169	0.1	169	170	475	1.1	473	476	22.4	47.4
2025-07-17T11:05	10	170	0.1	169	170	474	0.9	473	476	22.3	47.8
2025-07-17T11:06	10	170	0.3	170	171	475	1.5	473	477	22.7	47.8
2025-07-17T11:07	10	166	3.2	160	170	474	1.2	471	475	22.6	47.3
2025-07-17T11:08	10	170	0.7	168	171	467	1.7	466	471	22.1	46.6
2025-07-17T11:09	10	169	1.9	164	171	468	1.0	467	470	22.0	46.8
2025-07-17T11:10	10	163	3.1	153	168	470	0.9	469	473	22.4	46.5
2025-07-17T11:11	10	162	8.9	140	171	470	0.6	469	472	22.1	46.7
2025-07-17T11:12	10	171	0.7	170	172	472	1.6	469	474	21.9	47.0
2025-07-17T11:13	10	171	0.7	169	172	475	0.9	474	477	22.2	47.2
2025-07-17T11:14	10	171	1.5	167	173	477	0.5	476	478	22.2	46.3
2025-07-17T11:15	10	173	1.1	169	174	477	1.0	475	479	22.1	46.2
2025-07-17T11:16	10	174	0.2	174	174	478	0.3	478	479	22.5	48.0
2025-07-17T11:17	10	172	1.4	170	174	479	0.3	478	479	22.4	46.3
2025-07-17T11:18	10	169	0.8	167	170	478	0.3	477	479	22.6	47.7
2025-07-17T11:19	10	173	2.5	167	177	477	1.9	474	480	22.9	45.6
2025-07-17T11:20	10	163	6.1	153	173	473	0.7	472	475	22.5	46.1
2025-07-17T11:21	10	169	1.2	167	172	471	0.8	470	473	22.4	46.3
2025-07-17T11:22	10	168	0.8	167	170	471	1.4	468	473	22.7	46.2
2025-07-17T11:23	10	170	0.3	169	170	472	1.0	470	474	22.3	45.9
2025-07-17T11:24	10	170	0.8	168	171	475	1.2	473	477	22.2	46.8
2025-07-17T11:25	10	164	2.9	157	168	476	1.8	473	479	22.4	46.5
2025-07-17T11:26	10	162	1.7	159	164	473	0.5	472	474	22.2	46.3
2025-07-17T11:27	10	165	0.8	164	166	472	1.9	469	475	22.0	46.0
2025-07-17T11:28	10	167	2.0	163	169	471	0.9	469	473	21.9	46.2
2025-07-17T11:29	10	170	0.8	168	171	474	1.1	472	476	22.3	45.7
2025-07-17T11:30	10	171	0.4	171	172	476	0.9	474	477	22.4	43.9
2025-07-17T11:31	10	172	0.2	172	173	478	0.9	476	479	22.4	44.2
2025-07-17T11:32	10	172	0.5	171	173	478	1.0	476	480	22.3	44.3
2025-07-17T11:33	10	172	0.2	172	173	480	0.4	479	481	22.7	44.3
2025-07-17T11:34	10	172	0.1	172	172	479	0.6	478	480	22.7	45.8
2025-07-17T11:35	10	172	0.2	171	172	478	0.3	477	479	22.5	45.3
2025-07-17T11:36	10	172	0.6	171	172	479	1.0	477	480	22.8	45.6
2025-07-17T11:37	10	170	0.7	169	171	479	0.5	477	480	23.0	46.4
2025-07-17T11:38	10	161	12.3	135	173	477	1.9	474	480	22.9	45.5
2025-07-17T11:39	10	173	2.3	162	176	476	0.6	475	477	22.5	45.2
2025-07-17T11:40	10	172	1.2	169	173	478	0.6	477	479	22.4	45.7
2025-07-17T11:41	10	172	2.8	164	175	480	0.4	479	481	22.8	45.5
2025-07-17T11:42	10	176	1.3	172	179	481	0.5	480	482	23.0	43.8
2025-07-17T11:43	10	169	14.0	132	179	480	1.3	477	481	22.9	40.6
2025-07-17T11:44	10	173	3.9	164	176	478	0.9	476	480	22.9	39.2
2025-07-17T11:45	10	173	0.7	171	174	477	0.8	475	478	23.2	39.9
2025-07-17T11:46	10	167	16.2	110	175	474	2.8	470	477	23.0	40.1
2025-07-17T11:47	10	172	0.5	171	172	473	1.0	472	476	22.7	40.4
2025-07-17T11:48	10	171	0.2	170	171	474	1.1	472	476	22.7	39.5
2025-07-17T11:49	10	170	0.8	169	171	474	0.7	473	475	22.9	39.1
2025-07-17T11:50	10	169	0.4	169	170	477	1.1	475	479	22.7	39.6
2025-07-17T11:51	10	171	0.1	170	171	478	0.9	477	480	22.9	39.9
2025-07-17T11:52	10	171	0.1	171	171	477	0.9	476	479	23.0	40.6
2025-07-17T11:53	10	171	0.1	171	171	477	1.0	475	478	22.9	40.6
2025-07-17T11:54	10	171	0.2	171	172	478	1.1	476	480	23.0	40.7
2025-07-17T11:55	10	172	0.1	171	172	475	1.6	473	478	22.8	40.5
2025-07-17T11:56	10	172	0.1	171	172	475	0.9	474	477	22.6	40.7
2025-07-17T11:57	10	171	0.1	171	172	478	0.8	476	479	22.9	40.8
2025-07-17T11:58	10	172	0.1	172	172	478	0.6	477	479	22.7	40.5
2025-07-17T11:59	10	172	0.1	171	172	475	0.8	474	477	22.5	41.2
2025-07-17T12:00	10	172	0.1	171	172	477	1.5	475	480	22.5	41.6
2025-07-17T12:01	10	172	0.2	171	172	479	0.4	479	480	22.8	41.4
2025-07-17T12:02	10	172	0.3	171	172	478	0.6	477	480	23.2	41.1
2025-07-17T12:03	10	172	0.4	171	172	476	1.4	474	478	22.8	41.6
2025-07-17T12:04	10	172	0.4	171	172	478	1.3	476	481	22.7	42.4
2025-07-17T12:05	10	172	0.2	172	173	482	0.4	481	482	23.1	42.6
2025-07-17T12:06	10	171	2.4	166	173	482	0.8	481	483	23.2	41.7
2025-07-17T12:07	10	171	0.4	170	172	481	0.5	480	482	23.4	42.7
2025-07-17T12:08	10	170	0.5	169	171	482	0.9	481	484	23.6	43.5
2025-07-17T12:09	10	171	0.3	170	171	481	1.8	478	483	23.7	42.2
2025-07-17T12:10	10	171	0.2	171	172	473	3.1	469	479	23.0	41.7
2025-07-17T12:11	10	171	0.2	171	172	472	1.6	470	475	22.5	42.5
2025-07-17T12:12	10	171	0.2	171	172	478	1.2	475	480	22.6	42.8
2025-07-17T12:13	10	171	0.3	171	172	480	0.4	479	480	22.8	43.1
2025-07-17T12:14	10	170	0.7	169	171	480	0.7	479	482	23.0	43.7
2025-07-17T12:15	10	171	0.3	170	172	480	1.8	476	483	23.1	43.9
2025-07-17T12:16	10	170	0.2	170	171	475	0.7	474	477	23.0	44.2
2025-07-17T12:17	10	170	0.2	170	171	474	1.5	472	477	22.9	44.5
2025-07-17T12:18	10	170	0.2	169	170	473	0.8	471	474	22.7	44.7
2025-07-17T12:19	10	170	0.2	169	170	473	1.5	469	475	22.8	44.8
2025-07-17T12:20	10	170	0.2	169	171	471	0.8	470	473	22.7	44.7
2025-07-17T12:21	10	170	0.4	169	171	474	1.3	472	477	22.8	44.3
2025-07-17T12:22	10	170	0.4	169	171	476	0.5	475	477	22.7	44.7
2025-07-17T12:23	10	163	10.3	140	172	476	1.4	474	478	23.1	46.0
2025-07-17T12:24	10	169	3.2	157	170	475	0.5	474	477	23.2	43.9
2025-07-17T12:25	10	169	0.2	169	170	476	0.9	475	478	23.1	44.4
2025-07-17T12:26	10	169	0.2	168	169	479	0.8	477	480	23.3	44.3
2025-07-17T12:27	10	169	0.2	168	169	472	2.2	469	477	22.8	44.3
2025-07-17T12:28	10	168	0.2	167	168	470	0.5	469	471	22.8	44.6
2025-07-17T12:29	10	168	0.1	167	168	470	1.3	468	473	22.8	44.5
2025-07-17T12:30	10	167	0.1	167	168	471	0.8	469	473	22.7	44.8
2025-07-17T12:31	10	167	0.1	167	168	473	1.6	471	476	22.8	44.6
2025-07-17T12:32	10	168	0.1	167	168	476	0.9	475	478	22.9	44.3
2025-07-17T12:33	10	168	0.2	168	168	477	0.6	476	479	22.8	44.4
2025-07-17T12:34	10	169	0.2	168	169	479	0.9	478	481	23.2	45.0
2025-07-17T12:35	10	169	0.6	168	171	479	0.7	477	480	23.3	43.8
2025-07-17T12:36	10	157	6.0	146	171	475	0.8	474	477	22.9	43.8
2025-07-17T12:37	10	158	4.4	150	165	476	2.1	472	479	23.0	44.0
2025-07-17T12:38	10	162	5.4	151	169	475	1.6	472	477	22.8	43.7
2025-07-17T12:39	10	168	0.2	168	169	480	1.5	477	482	23.1	44.5
2025-07-17T12:40	10	169	0.2	168	169	479	0.6	478	480	23.1	43.3
2025-07-17T12:41	10	169	0.2	169	170	479	0.5	478	480	22.9	43.9
2025-07-17T12:42	10	169	0.2	169	170	481	1.1	479	483	23.2	45.4
2025-07-17T12:43	10	168	0.5	167	169	480	0.4	479	481	23.3	43.5
2025-07-17T12:44	10	166	0.3	166	167	480	0.3	480	481	23.2	44.7
2025-07-17T12:45	10	167	0.4	166	168	481	0.4	480	481	23.5	44.4
2025-07-17T12:46	10	160	17.7	109	172	480	3.1	473	483	23.5	44.5
2025-07-17T12:47	10	169	1.3	167	172	478	1.4	475	480	23.2	44.2
2025-07-17T12:48	10	167	0.9	165	168	480	0.5	478	481	23.4	43.9
2025-07-17T12:49	10	165	2.7	159	168	477	1.7	474	480	23.5	43.9
2025-07-17T12:50	10	162	1.7	158	164	474	0.8	473	476	23.7	43.3
2025-07-17T12:51	10	165	0.3	164	165	478	0.6	477	479	23.9	42.8
2025-07-17T12:52	10	165	0.2	164	165	476	1.4	474	479	23.5	43.0
2025-07-17T12:53	10	165	0.2	165	165	474	0.7	472	475	23.2	43.4
2025-07-17T12:54	10	165	0.1	165	165	475	2.3	472	479	23.2	44.0
2025-07-17T12:55	10	165	0.1	165	165	475	2.5	472	478	23.4	43.3
2025-07-17T12:56	10	165	0.1	165	165	475	1.8	472	478	23.3	43.0
2025-07-17T12:57	10	165	0.1	165	166	479	0.8	477	480	23.3	43.5
2025-07-17T12:58	10	165	0.2	165	165	480	0.5	479	481	23.5	43.9
2025-07-17T12:59	10	165	0.1	165	165	480	0.5	479	482	23.4	44.3
2025-07-17T13:00	10	165	0.2	165	165	479	0.4	478	480	23.5	43.9
2025-07-17T13:01	10	165	0.2	165	165	480	0.3	480	481	23.5	43.0
2025-07-17T13:02	10	165	0.2	165	165	479	1.0	478	481	23.3	44.0
2025-07-17T13:03	10	164	0.2	164	165	481	1.5	479	484	23.6	46.1
2025-07-17T13:04	10	164	0.3	163	164	480	0.8	479	481	23.8	42.9
2025-07-17T13:05	10	163	0.1	163	164	477	0.8	476	480	24.1	43.7
2025-07-17T13:06	10	163	0.1	163	163	477	1.1	475	480	23.8	43.5
2025-07-17T13:07	10	163	0.1	163	163	479	1.3	477	481	24.1	42.5
2025-07-17T13:08	10	163	0.1	163	163	475	1.2	474	478	23.4	42.0
2025-07-17T13:09	10	163	0.1	163	163	478	1.5	476	481	23.3	42.8
2025-07-17T13:10	10	163	0.1	163	163	479	2.0	476	482	23.9	42.2
2025-07-17T13:11	10	163	0.1	163	163	479	2.0	475	481	23.8	42.3
2025-07-17T13:12	10	163	0.1	162	163	479	1.0	478	481	24.1	40.9
2025-07-17T13:13	10	162	0.1	162	163	479	0.9	477	480	24.0	41.1
2025-07-17T13:14	10	163	0.1	162	163	476	0.8	475	478	23.6	41.7
2025-07-17T13:15	10	162	0.1	162	162	479	0.9	477	480	23.7	41.7
2025-07-17T13:16	10	162	0.1	162	162	475	1.8	472	479	23.6	41.7
2025-07-17T13:17	10	162	0.2	161	162	473	0.8	471	474	23.6	42.0
2025-07-17T13:18	10	161	0.1	161	161	474	0.5	473	475	23.6	42.4
2025-07-17T13:19	10	161	0.1	161	161	477	1.2	474	479	23.6	42.1
2025-07-17T13:20	10	161	0.1	161	161	479	0.5	478	480	23.7	42.5
2025-07-17T13:21	10	161	0.1	161	161	480	0.6	479	481	23.8	41.5
2025-07-17T13:22	10	161	0.1	161	162	479	1.1	478	481	23.7	41.8
2025-07-17T13:23	10	161	0.2	161	162	478	1.1	476	480	23.8	41.9
2025-07-17T13:24	10	161	0.1	161	161	481	0.6	480	482	24.1	41.6
2025-07-17T13:25	10	161	0.3	160	161	480	1.1	479	483	23.8	41.2
2025-07-17T13:26	10	160	0.2	160	161	479	0.3	479	480	23.6	41.9
2025-07-17T13:27	10	160	0.2	160	161	479	0.7	478	480	24.0	41.7
2025-07-17T13:28	10	160	0.2	159	161	478	0.6	477	479	23.7	42.5
2025-07-17T13:29	10	160	0.3	159	161	477	0.9	475	478	23.8	42.6
2025-07-17T13:30	10	159	0.2	159	160	477	1.2	475	479	24.0	42.7
2025-07-17T13:31	10	159	0.3	158	160	479	0.6	477	479	24.2	42.8
2025-07-17T13:32	10	159	0.2	158	160	480	0.4	479	481	24.3	43.6
2025-07-17T13:33	10	159	0.2	159	159	481	0.6	480	482	24.2	42.6
2025-07-17T13:34	10	159	0.3	158	159	481	1.1	478	483	24.6	43.7
2025-07-17T13:35	10	159	0.2	158	160	478	1.1	476	480	24.2	42.1
2025-07-17T13:36	10	159	0.3	158	159	479	0.5	478	480	23.9	41.6
2025-07-17T13:37	10	159	0.1	158	159	480	0.4	479	481	23.9	41.9
2025-07-17T13:38	10	159	0.2	158	159	479	0.7	478	480	23.9	42.4
2025-07-17T13:39	10	159	0.3	158	160	479	0.8	478	481	23.9	41.7
2025-07-17T13:40	10	158	0.1	158	159	478	2.1	475	481	24.0	40.3
2025-07-17T13:41	10	158	0.2	158	159	476	0.4	476	477	23.8	40.6
2025-07-17T13:42	10	158	0.1	158	158	473	2.6	470	477	23.5	40.6
2025-07-17T13:43	10	157	0.3	157	158	471	1.2	470	474	23.3	40.8
2025-07-17T13:44	10	157	0.1	156	157	476	1.3	473	478	23.6	40.9
2025-07-17T13:45	10	156	0.1	156	157	476	0.5	475	477	23.9	41.9
2025-07-17T13:46	10	156	0.1	156	156	475	0.3	475	476	23.9	41.6
2025-07-17T13:47	10	156	0.1	156	156	478	1.0	476	480	24.0	42.2
2025-07-17T13:48	10	156	0.2	155	156	473	1.5	471	476	23.5	41.7
2025-07-17T13:49	10	155	0.2	155	156	470	0.9	469	472	23.2	41.9
2025-07-17T13:50	10	155	0.1	155	155	473	0.5	472	474	23.3	42.2
2025-07-17T13:51	10	155	0.1	154	155	477	1.7	474	479	23.6	41.9
2025-07-17T13:52	10	154	0.1	154	155	479	0.4	478	480	24.3	41.8
2025-07-17T13:53	10	154	0.1	154	155	476	1.9	473	480	24.2	41.3
2025-07-17T13:54	10	154	0.1	154	155	474	0.6	473	476	23.6	41.6
2025-07-17T13:55	10	154	0.1	154	154	476	0.6	475	478	23.7	41.6
2025-07-17T13:56	10	154	0.1	154	155	478	0.6	477	480	24.0	42.5
2025-07-17T13:57	10	154	0.1	154	154	480	0.2	479	480	24.3	43.8
2025-07-17T13:58	10	154	0.1	154	154	478	0.9	477	480	24.1	42.0
2025-07-17T13:59	10	154	0.2	153	154	478	0.5	477	479	24.1	42.2
2025-07-17T14:00	10	154	0.1	154	154	477	0.7	474	478	24.1	41.5
2025-07-17T14:01	10	154	0.2	153	154	473	1.0	471	475	23.8	41.1
2025-07-17T14:02	10	153	0.2	153	154	472	0.8	471	474	23.6	41.5
2025-07-17T14:03	10	153	0.2	153	153	475	1.7	472	477	23.8	41.4
2025-07-17T14:04	10	153	0.1	152	153	475	0.4	475	476	23.8	41.3
2025-07-17T14:05	10	152	0.1	152	153	476	1.0	475	478	24.3	42.1
2025-07-17T14:06	10	152	0.1	152	152	477	0.9	475	478	24.5	41.5
2025-07-17T14:07	10	152	0.1	152	152	477	0.5	476	478	24.3	41.3
2025-07-17T14:08	10	152	0.1	152	152	478	0.4	478	479	24.3	42.8
2025-07-17T14:09	10	152	0.1	152	152	479	0.9	478	480	24.3	42.0
2025-07-17T14:10	10	152	0.2	151	152	479	0.6	478	480	24.6	42.0
2025-07-17T14:11	10	152	0.2	151	152	476	2.1	472	479	24.3	40.8
2025-07-17T14:12	10	151	0.2	151	152	472	0.9	471	474	24.0	41.2
2025-07-17T14:13	10	150	0.3	150	151	473	1.1	471	475	24.1	41.3
2025-07-17T14:14	10	150	0.1	150	150	474	1.0	471	476	24.4	41.2
2025-07-17T14:15	10	150	0.2	149	150	471	1.6	468	474	24.0	40.9
2025-07-17T14:16	10	149	0.3	149	150	472	1.1	470	474	24.0	41.5
2025-07-17T14:17	10	149	0.2	149	149	474	0.6	472	475	24.5	41.4
2025-07-17T14:18	10	149	0.2	148	149	470	1.7	467	473	23.9	41.1
2025-07-17T14:19	10	148	0.1	148	149	471	0.9	470	472	24.3	41.0
2025-07-17T14:20	10	148	0.1	148	148	470	0.8	469	472	24.1	41.0
2025-07-17T14:21	10	148	0.1	148	148	470	0.6	469	472	23.8	41.3
2025-07-17T14:22	10	148	0.2	147	148	472	0.4	472	473	24.0	41.4
2025-07-17T14:23	10	148	0.1	147	148	473	0.7	472	474	23.9	41.3
2025-07-17T14:24	10	147	0.1	147	148	474	0.8	472	475	24.0	40.9
2025-07-17T14:25	10	147	0.1	147	148	473	0.6	472	475	24.2	40.5
2025-07-17T14:26	10	147	0.1	147	147	475	0.9	474	477	24.2	42.0
2025-07-17T14:27	10	146	0.1	146	147	476	0.4	475	477	24.3	40.7
2025-07-17T14:28	10	146	0.1	146	147	474	0.6	473	475	24.2	40.2
2025-07-17T14:29	10	146	0.2	146	146	475	0.5	474	477	24.3	40.5
2025-07-17T14:30	10	146	0.1	145	146	477	0.9	475	478	24.4	40.9
2025-07-17T14:31	10	146	0.1	145	146	477	0.4	476	478	24.6	41.3
2025-07-17T14:32	10	145	0.1	145	146	478	0.3	478	479	24.9	42.0
2025-07-17T14:33	10	145	0.1	145	145	478	0.4	476	479	24.9	40.7
2025-07-17T14:34	10	145	0.2	144	145	473	1.7	471	476	24.5	40.2
2025-07-17T14:35	10	144	0.3	144	145	471	1.5	469	474	24.3	40.7
2025-07-17T14:36	10	143	0.1	143	144	469	1.0	467	471	24.0	40.9
2025-07-17T14:37	10	143	0.2	143	143	467	1.0	466	469	23.9	41.2
2025-07-17T14:38	10	143	0.2	142	143	467	0.4	466	468	23.9	41.4
2025-07-17T14:39	10	142	0.1	142	142	469	1.1	467	471	23.9	41.5
2025-07-17T14:40	10	142	0.1	142	142	472	1.3	470	474	24.2	41.7
2025-07-17T14:41	10	142	0.1	142	142	473	0.5	472	474	24.6	41.7
2025-07-17T14:42	10	142	0.1	141	142	472	0.8	471	473	24.2	40.5
2025-07-17T14:43	10	142	0.1	141	142	471	0.7	470	473	24.0	40.5
2025-07-17T14:44	10	141	0.1	141	142	473	0.3	472	474	24.0	40.7
2025-07-17T14:45	10	141	0.1	141	141	473	0.8	472	475	24.3	41.6
2025-07-17T14:46	10	141	0.1	140	141	473	0.7	472	474	24.3	40.9
2025-07-17T14:47	10	140	0.2	140	140	472	1.7	469	474	24.7	41.1
2025-07-17T14:48	10	140	0.1	140	140	470	0.8	468	471	24.3	40.9
2025-07-17T14:49	10	140	0.2	139	140	469	0.6	468	471	24.0	40.5
2025-07-17T14:50	10	139	0.1	139	140	470	1.0	469	472	24.3	40.8
2025-07-17T14:51	10	139	0.1	139	139	469	0.4	468	470	24.1	40.3
2025-07-17T14:52	10	139	0.2	139	139	470	0.6	468	471	24.0	40.7
2025-07-17T14:53	10	138	0.2	138	139	471	0.6	470	472	24.3	41.1
2025-07-17T14:54	10	138	0.2	138	138	469	0.6	467	470	24.5	40.8
2025-07-17T14:55	10	138	0.1	138	138	470	1.1	469	473	24.4	41.3
2025-07-17T14:56	10	138	0.1	137	138	472	0.9	471	474	24.5	40.6
2025-07-17T14:57	10	137	0.1	137	138	472	0.4	471	473	24.3	40.9
2025-07-17T14:58	10	137	0.1	137	138	471	0.4	470	472	24.1	40.3
2025-07-17T14:59	10	137	0.1	137	137	470	0.9	468	472	24.1	40.7
2025-07-17T15:00	10	137	0.1	136	137	472	0.3	471	472	24.4	41.4
2025-07-17T15:01	10	136	0.1	136	136	473	0.9	472	474	24.5	41.3
2025-07-17T15:02	10	136	0.1	136	136	473	1.9	469	475	24.8	40.1
2025-07-17T15:03	10	136	0.2	135	136	466	1.3	464	469	24.1	40.7
2025-07-17T15:04	10	135	0.2	135	136	465	1.1	464	467	24.0	41.1
2025-07-17T15:05	10	135	0.2	134	135	465	0.3	464	465	24.0	41.1
2025-07-17T15:06	10	134	0.1	134	135	466	1.0	464	468	24.2	40.7
2025-07-17T15:07	10	134	0.2	134	135	470	1.1	468	472	24.4	41.2
2025-07-17T15:08	10	134	0.2	134	134	472	0.5	471	473	24.8	44.3
2025-07-17T15:09	10	134	0.2	133	134	471	0.4	470	472	24.9	41.8
2025-07-17T15:10	10	134	0.2	133	134	472	0.5	471	473	25.0	42.3
2025-07-17T15:11	10	133	0.2	133	134	468	2.7	464	473	24.7	40.5
2025-07-17T15:12	10	133	0.2	133	133	465	0.6	464	466	24.0	40.3
2025-07-17T15:13	10	132	1.0	130	133	468	0.8	467	469	24.0	41.0
2025-07-17T15:14	10	132	0.4	131	132	469	0.3	469	470	24.4	41.1
2025-07-17T15:15	10	132	0.2	131	132	469	0.2	469	470	24.1	40.5
2025-07-17T15:16	10	132	0.3	131	133	470	0.6	469	471	24.4	41.5
2025-07-17T15:17	10	131	0.3	130	132	466	1.1	464	469	24.4	40.4
2025-07-17T15:18	10	131	0.4	130	132	463	0.9	461	464	24.2	40.4
2025-07-17T15:19	10	130	0.4	129	131	463	0.5	462	464	24.0	40.8
2025-07-17T15:20	10	129	0.2	129	130	464	0.4	463	465	24.4	40.4
2025-07-17T15:21	10	129	0.2	128	129	465	0.5	464	466	24.2	40.1
2025-07-17T15:22	10	128	0.2	128	129	466	0.4	465	467	24.5	40.3
2025-07-17T15:23	10	128	0.3	127	129	466	1.1	464	468	24.6	39.8
2025-07-17T15:24	10	127	0.4	127	128	463	0.9	462	465	24.2	40.3
2025-07-17T15:25	10	126	0.2	126	127	464	0.6	462	465	24.1	40.6
2025-07-17T15:26	10	126	0.3	125	126	463	1.0	461	466	24.1	40.5
2025-07-17T15:27	10	125	0.2	125	126	465	0.3	464	465	24.3	40.5
2025-07-17T15:28	10	125	0.2	125	125	466	0.4	465	467	24.3	40.7
2025-07-17T15:29	10	125	0.2	125	126	466	0.2	465	466	24.4	40.5
2025-07-17T15:30	10	125	0.2	124	125	465	0.4	464	466	24.2	40.3
2025-07-17T15:31	10	124	0.2	124	125	467	0.6	466	468	24.4	41.2
2025-07-17T15:32	10	124	0.2	123	124	466	1.7	462	468	24.5	40.6
2025-07-17T15:33	10	124	0.1	123	124	463	0.4	462	464	24.5	39.9
2025-07-17T15:34	10	123	0.2	123	124	462	0.9	460	463	24.5	39.8
2025-07-17T15:35	10	122	0.2	122	123	462	0.3	461	462	24.5	40.2
2025-07-17T15:36	10	122	0.2	122	122	464	1.3	462	466	24.5	40.8
2025-07-17T15:37	10	122	0.2	121	122	466	0.5	465	467	24.7	39.9
2025-07-17T15:38	10	121	0.2	121	122	466	0.3	466	467	24.8	40.6
2025-07-17T15:39	10	121	0.1	121	121	467	0.3	466	467	24.8	40.7
2025-07-17T15:40	10	121	0.2	120	121	466	0.5	465	468	24.5	40.0
2025-07-17T15:41	10	120	0.1	120	121	466	0.3	465	467	24.5	40.7
2025-07-17T15:42	10	120	0.2	120	121	466	0.4	465	467	24.7	41.2
2025-07-17T15:43	10	119	0.2	119	120	462	1.8	459	466	24.7	40.3
2025-07-17T15:44	10	119	0.2	119	120	459	0.7	458	461	24.4	40.3
2025-07-17T15:45	10	119	0.2	118	119	460	0.6	459	461	24.6	40.8
2025-07-17T15:46	10	118	0.1	118	118	461	0.4	460	461	24.5	40.3
2025-07-17T15:47	10	118	0.2	117	118	460	0.6	459	462	24.5	40.7
2025-07-17T15:48	10	117	0.1	117	118	461	0.5	460	462	24.5	40.7
2025-07-17T15:49	10	117	0.1	117	117	461	0.3	460	462	24.8	40.3
2025-07-17T15:50	10	116	0.1	116	117	460	1.0	459	462	24.3	40.4
2025-07-17T15:51	10	116	0.1	116	116	461	1.2	459	463	24.1	41.1
2025-07-17T15:52	10	116	0.1	116	116	462	0.8	461	464	24.8	41.8
2025-07-17T15:53	10	115	0.1	115	116	461	0.6	460	463	24.5	40.4
2025-07-17T15:54	10	115	0.1	115	115	462	0.6	461	463	24.6	40.2
2025-07-17T15:55	10	115	0.1	115	115	462	0.4	461	463	24.6	39.8
2025-07-17T15:56	10	115	0.1	114	115	461	0.8	460	463	24.6	39.6
2025-07-17T15:57	10	114	0.2	114	114	460	0.5	459	461	24.5	39.9
2025-07-17T15:58	10	114	0.2	113	114	461	0.9	460	462	24.6	40.4
2025-07-17T15:59	10	113	0.1	113	113	462	0.3	462	463	24.8	40.2
2025-07-17T16:00	10	113	0.2	112	113	461	1.2	458	462	24.8	39.9
2025-07-17T16:01	10	112	0.2	112	113	458	0.6	457	460	24.9	40.2
2025-07-17T16:02	10	112	0.2	111	112	458	0.8	457	460	25.0	40.5
2025-07-17T16:03	10	111	0.2	111	111	459	1.0	457	461	25.0	40.8
2025-07-17T16:04	10	111	0.2	110	111	456	0.5	456	457	24.5	39.9
2025-07-17T16:05	10	110	0.2	110	110	458	0.6	457	459	24.5	40.1
2025-07-17T16:06	10	109	0.1	109	110	459	0.4	458	460	24.8	40.7
2025-07-17T16:07	10	109	0.2	109	109	458	1.1	457	460	24.7	39.9
2025-07-17T16:08	10	109	0.2	108	109	457	0.5	455	458	24.6	40.3
2025-07-17T16:09	10	108	0.2	108	109	457	0.7	456	458	24.5	40.3
2025-07-17T16:10	10	108	0.1	108	108	459	0.5	458	459	24.5	40.3
2025-07-17T16:11	10	107	0.1	107	108	460	0.6	459	461	24.7	41.6
2025-07-17T16:12	10	107	0.1	107	107	459	1.2	456	461	24.7	40.3
2025-07-17T16:13	10	107	0.2	106	107	455	0.5	454	456	24.6	39.9
2025-07-17T16:14	10	106	0.2	106	107	454	0.3	453	454	24.6	39.8
2025-07-17T16:15	10	106	0.2	105	106	454	0.5	453	455	24.4	40.0
2025-07-17T16:16	10	105	0.2	104	105	455	0.3	454	456	24.6	40.5
2025-07-17T16:17	10	104	0.2	104	105	454	0.7	453	455	24.6	40.4
2025-07-17T16:18	10	104	0.2	104	104	453	0.5	452	454	24.5	40.3
2025-07-17T16:19	10	103	0.2	103	104	453	0.6	452	454	24.2	40.6
2025-07-17T16:20	10	103	0.1	103	103	455	0.5	454	455	24.2	40.4
2025-07-17T16:21	10	103	0.2	102	103	455	0.5	454	456	24.4	40.7
2025-07-17T16:22	10	102	0.1	102	103	455	0.8	454	457	24.3	40.6
2025-07-17T16:23	10	102	0.2	102	102	456	0.8	454	457	24.5	40.5
2025-07-17T16:24	10	101	0.2	101	102	455	0.6	454	456	24.3	40.1
2025-07-17T16:25	10	101	0.1	101	101	456	0.4	456	457	24.4	40.5
2025-07-17T16:26	10	101	0.2	100	101	456	0.3	455	457	24.6	40.9
2025-07-17T16:27	10	100	0.2	100	100	455	0.8	454	457	24.7	41.1
2025-07-17T16:28	10	99	0.2	99	100	453	1.1	452	455	24.5	40.6
2025-07-17T16:29	10	99	0.2	98	99	454	0.7	452	455	24.6	40.7
2025-07-17T16:30	10	98	0.1	98	99	454	0.5	452	455	24.8	40.7
2025-07-17T16:31	10	98	0.2	98	98	452	0.6	451	454	24.6	40.5
2025-07-17T16:32	10	97	0.2	97	98	453	0.3	452	453	24.6	40.9
2025-07-17T16:33	10	97	0.2	96	97	453	0.3	452	454	24.8	40.9
2025-07-17T16:34	10	96	0.2	96	97	451	1.7	449	454	24.8	40.3
2025-07-17T16:35	10	96	0.2	95	96	450	0.6	449	451	24.5	40.3
2025-07-17T16:36	10	95	0.2	95	96	451	0.3	450	451	24.6	40.1
2025-07-17T16:37	10	95	0.1	94	95	451	0.4	450	452	24.6	40.0
2025-07-17T16:38	10	94	0.3	94	95	451	0.5	450	452	24.6	40.5
2025-07-17T16:39	10	93	0.2	93	94	449	0.7	448	450	24.5	40.0
2025-07-17T16:40	10	93	0.2	93	93	449	0.3	448	450	24.3	40.5
2025-07-17T16:41	10	92	0.2	92	93	449	0.4	448	449	24.4	40.5
2025-07-17T16:42	10	92	0.2	91	92	449	0.5	448	450	24.4	40.3
2025-07-17T16:43	10	91	0.1	91	91	450	0.8	448	451	24.8	40.5
2025-07-17T16:44	10	91	0.2	90	91	448	0.3	448	449	24.4	39.9
2025-07-17T16:45	10	90	0.2	90	91	449	0.3	448	449	24.4	40.8
2025-07-17T16:46	10	90	0.2	90	90	450	0.7	449	451	24.5	40.9
2025-07-17T16:47	10	89	0.1	89	90	451	0.4	450	452	24.6	40.7
2025-07-17T16:48	10	89	0.1	89	89	450	0.6	449	452	24.6	39.7
2025-07-17T16:49	10	89	0.2	88	89	449	0.4	448	450	24.6	39.5
2025-07-17T16:50	10	88	0.2	88	88	449	1.0	448	451	24.6	39.2
2025-07-17T16:51	10	87	0.2	87	88	449	0.4	448	449	24.5	39.3
2025-07-17T16:52	10	87	0.2	86	87	449	0.6	448	450	24.8	39.9
2025-07-17T16:53	10	86	0.2	86	87	448	1.0	446	449	24.7	39.7
2025-07-17T16:54	10	86	0.2	85	86	447	0.3	446	447	24.5	40.7
2025-07-17T16:55	10	85	0.2	85	85	447	0.4	446	447	24.5	41.3
2025-07-17T16:56	10	84	0.2	84	85	446	0.3	446	447	24.5	41.1
2025-07-17T16:57	10	84	0.2	83	84	446	0.3	445	446	24.4	41.3
2025-07-17T16:58	10	83	0.2	83	84	446	0.2	446	447	24.4	41.3
2025-07-17T16:59	10	83	0.2	82	83	447	0.5	446	448	24.5	41.8
2025-07-17T17:00	10	82	0.1	82	83	448	0.4	447	448	24.8	41.5
2025-07-17T17:01	10	82	0.1	82	82	447	0.2	446	447	24.7	41.0
2025-07-17T17:02	10	81	0.2	81	82	447	0.2	447	448	24.7	41.3
2025-07-17T17:03	10	81	0.1	81	81	447	0.8	445	447	24.8	41.1
2025-07-17T17:04	10	80	0.3	80	81	444	0.5	443	445	24.3	40.3
2025-07-17T17:05	10	79	0.2	79	80	443	0.3	443	444	24.2	40.4
2025-07-17T17:06	10	79	0.2	78	79	444	0.4	443	444	24.3	40.5
2025-07-17T17:07	10	78	0.2	78	78	443	0.5	442	444	24.3	40.2
2025-07-17T17:08	10	78	0.2	77	78	443	0.3	442	443	24.3	40.5
2025-07-17T17:09	10	77	0.1	77	78	443	0.4	442	443	24.3	40.3
2025-07-17T17:10	10	77	0.1	76	77	443	0.3	443	444	24.5	40.2
2025-07-17T17:11	10	76	0.2	76	77	443	0.3	442	443	24.5	40.4
2025-07-17T17:12	10	76	0.2	75	76	443	0.5	442	444	24.3	41.0
2025-07-17T17:13	10	75	0.2	75	75	444	0.3	443	444	24.3	41.3
2025-07-17T17:14	10	75	0.2	74	75	443	0.4	442	444	24.5	41.7
2025-07-17T17:15	10	74	0.2	74	75	442	0.4	441	443	24.4	41.7
2025-07-17T17:16	10	73	0.2	73	74	442	0.4	441	442	24.4	42.0
2025-07-17T17:17	10	73	0.2	72	73	440	0.3	440	441	24.3	41.9
2025-07-17T17:18	10	72	0.2	72	73	440	0.3	440	441	24.4	41.9
2025-07-17T17:19	10	72	0.2	71	72	441	0.3	440	442	24.4	41.9
2025-07-17T17:20	10	71	0.2	70	71	440	0.4	439	441	24.4	42.1
2025-07-17T17:21	10	70	0.2	70	70	440	0.5	439	441	24.4	41.6
2025-07-17T17:22	10	70	0.2	69	70	439	0.3	439	439	24.3	41.4
2025-07-17T17:23	10	69	0.2	68	69	440	0.4	439	440	24.3	41.4
2025-07-17T17:24	10	68	0.2	68	69	439	0.3	438	440	24.3	41.5
2025-07-17T17:25	10	68	0.2	67	68	439	0.3	438	439	24.3	41.5
2025-07-17T17:26	10	67	0.1	67	68	439	0.3	438	440	24.3	41.6
2025-07-17T17:27	10	67	0.2	66	67	439	0.4	438	440	24.3	42.3
2025-07-17T17:28	10	66	0.2	66	67	438	0.2	438	439	24.1	42.2
2025-07-17T17:29	10	66	0.2	65	66	438	0.2	438	439	24.2	42.2
2025-07-17T17:30	10	65	0.2	65	66	439	0.4	438	440	24.4	42.1
2025-07-17T17:31	10	64	0.2	64	65	439	0.3	438	439	24.5	42.5
2025-07-17T17:32	10	64	0.2	63	64	439	0.3	439	440	24.6	42.3
2025-07-17T17:33	10	63	0.3	63	64	439	0.3	438	440	24.5	42.5
2025-07-17T17:34	10	63	0.2	62	63	438	0.3	437	439	24.4	43.0
2025-07-17T17:35	10	62	0.3	61	63	438	0.2	437	438	24.3	43.2
2025-07-17T17:36	10	62	0.3	61	62	438	0.4	437	438	24.3	42.8
2025-07-17T17:37	10	61	0.2	61	61	438	0.2	437	438	24.3	43.2
2025-07-17T17:38	10	60	0.3	60	61	438	0.3	437	438	24.4	43.4
2025-07-17T17:39	10	60	0.2	59	60	438	0.2	437	438	24.5	43.3
2025-07-17T17:40	10	59	0.3	58	59	438	0.4	437	438	24.4	43.4
2025-07-17T17:41	10	58	0.3	58	59	437	0.3	436	437	24.4	43.1
2025-07-17T17:42	10	58	0.2	57	58	436	0.4	435	436	24.2	42.5
2025-07-17T17:43	10	57	0.3	56	57	434	0.5	433	435	24.1	42.6
2025-07-17T17:44	10	56	0.3	55	57	434	0.4	433	435	24.1	43.0
2025-07-17T17:45	10	55	0.3	55	56	433	0.3	433	434	24.0	42.8
2025-07-17T17:46	10	55	0.3	54	55	434	0.3	433	434	24.1	43.2
2025-07-17T17:47	10	54	0.3	53	55	433	0.3	433	434	24.1	42.9
2025-07-17T17:48	10	53	0.4	53	54	433	0.4	432	434	24.1	43.2
2025-07-17T17:49	10	53	0.3	52	53	433	0.3	432	434	24.1	43.0
2025-07-17T17:50	10	52	0.3	51	53	433	0.3	432	434	24.1	43.4
2025-07-17T17:51	10	51	0.3	51	52	433	0.3	432	434	24.1	43.3
2025-07-17T17:52	10	51	0.2	50	51	432	0.3	432	433	24.1	43.7
2025-07-17T17:53	10	50	0.2	50	51	432	0.3	432	433	24.1	43.8
2025-07-17T17:54	10	50	0.2	49	50	432	0.4	432	433	24.1	43.8
2025-07-17T17:55	10	49	0.2	48	49	432	0.2	431	432	24.0	43.7
2025-07-17T17:56	10	48	0.3	48	49	431	0.2	431	432	23.9	44.2
2025-07-17T17:57	10	48	0.2	47	48	431	0.2	431	432	24.0	44.4
2025-07-17T17:58	10	47	0.2	47	47	431	0.2	431	431	24.0	44.2
2025-07-17T17:59	10	46	0.2	46	47	430	0.2	430	431	23.9	44.2
2025-07-17T18:00	10	46	0.2	45	46	430	0.3	430	431	23.9	44.2
2025-07-17T18:01	10	45	0.2	45	46	430	0.2	429	430	23.9	44.6
2025-07-17T18:02	10	44	0.2	44	45	430	0.3	429	430	23.9	44.0
2025-07-17T18:03	10	44	0.2	43	44	429	0.3	429	430	23.8	43.7
2025-07-17T18:04	10	43	0.2	43	43	429	0.2	428	429	23.8	43.9
2025-07-17T18:05	10	42	0.2	42	43	429	0.2	428	429	23.8	44.2
2025-07-17T18:06	10	42	0.2	41	42	429	0.3	428	429	23.9	44.4
2025-07-17T18:07	10	41	0.2	41	41	428	0.3	428	429	23.9	44.4
2025-07-17T18:08	10	40	0.2	40	41	428	0.2	427	428	23.8	44.6
2025-07-17T18:09	10	39	0.2	39	40	428	0.2	427	428	23.8	45.2
2025-07-17T18:10	10	39	0.2	38	39	428	0.2	427	428	23.8	45.4
2025-07-17T18:11	10	38	0.2	38	39	428	0.2	427	428	23.8	45.3
2025-07-17T18:12	10	38	0.2	37	38	427	0.2	427	428	23.8	45.5
2025-07-17T18:13	10	37	0.2	37	37	427	0.2	426	427	23.8	46.0
2025-07-17T18:14	10	36	0.2	36	37	427	0.2	426	427	23.8	45.5
2025-07-17T18:15	10	36	0.2	35	36	426	0.2	426	427	23.8	45.3
2025-07-17T18:16	10	35	0.2	35	35	426	0.2	426	427	23.7	45.2
2025-07-17T18:17	10	34	0.2	34	35	426	0.2	425	426	23.7	45.1
2025-07-17T18:18	10	34	0.2	33	34	425	0.2	425	426	23.6	45.1
2025-07-17T18:19	10	33	0.2	32	33	425	0.2	424	425	23.6	45.4
2025-07-17T18:20	10	32	0.2	32	33	425	0.3	424	425	23.6	45.3
2025-07-17T18:21	10	31	0.2	31	32	424	0.3	424	425	23.6	45.7
2025-07-17T18:22	10	31	0.2	31	31	424	0.2	424	424	23.6	46.0
2025-07-17T18:23	10	30	0.2	30	31	424	0.2	423	424	23.6	46.0
2025-07-17T18:24	10	30	0.2	29	30	424	0.2	423	424	23.5	46.1
2025-07-17T18:25	10	29	0.2	29	29	423	0.2	423	424	23.5	46.4
2025-07-17T18:26	10	28	0.3	28	29	423	0.3	422	423	23.5	46.7
2025-07-17T18:27	10	28	0.2	27	28	423	0.2	422	423	23.4	46.2
2025-07-17T18:28	10	27	0.2	27	27	422	0.2	422	423	23.4	46.4
2025-07-17T18:29	10	26	0.2	26	27	422	0.2	422	423	23.4	46.7
2025-07-17T18:30	10	26	0.2	25	26	422	0.3	421	422	23.4	46.6
2025-07-17T18:31	10	25	0.2	25	26	421	0.2	421	422	23.3	47.3
2025-07-17T18:32	10	24	0.2	24	25	421	0.3	421	422	23.4	46.9
2025-07-17T18:33	10	24	0.2	23	24	421	0.2	421	421	23.3	47.5
2025-07-17T18:34	10	23	0.2	23	24	421	0.2	420	421	23.3	47.2
2025-07-17T18:35	10	23	0.2	22	23	420	0.2	420	421	23.3	46.8
2025-07-17T18:36	10	22	0.2	22	22	420	0.2	420	421	23.2	47.3
2025-07-17T18:37	10	21	0.2	21	22	419	0.3	419	420	23.2	47.9
2025-07-17T18:38	10	21	0.2	20	21	419	0.2	419	420	23.2	47.2
2025-07-17T18:39	10	20	0.2	20	21	419	0.3	419	420	23.2	47.4
2025-07-17T18:40	10	19	0.2	19	20	418	0.2	418	419	23.1	47.9
2025-07-17T18:41	10	19	0.3	18	19	418	0.2	418	419	23.1	47.5
2025-07-17T18:42	10	18	0.2	18	19	418	0.2	417	419	23.1	47.8
2025-07-17T18:43	10	17	0.2	17	18	418	0.3	417	418	23.0	48.1
2025-07-17T18:44	10	17	0.2	16	17	418	0.2	417	418	23.0	47.6
2025-07-17T18:45	10	16	0.2	16	17	417	0.3	417	418	22.9	48.3
2025-07-17T18:46	10	15	0.2	15	16	417	0.2	416	418	22.9	48.1
2025-07-17T18:47	10	15	0.2	14	15	417	0.3	416	417	22.9	48.4
2025-07-17T18:48	10	14	0.2	14	15	416	0.2	415	416	22.8	48.7
2025-07-17T18:49	10	13	0.3	13	14	415	0.2	415	416	22.8	49.3
2025-07-17T18:50	10	13	0.3	12	13	416	0.3	415	416	22.8	49.0
2025-07-17T18:51	10	12	0.3	11	12	415	0.2	415	416	22.8	48.9
2025-07-17T18:52	10	10	0.4	10	11	415	0.2	414	415	22.8	49.0
2025-07-17T18:53	10	9	0.3	9	10	414	0.2	413	414	22.7	49.2
2025-07-17T18:54	10	8	0.3	8	9	413	0.4	413	414	22.7	49.2
2025-07-17T18:55	10	7	0.2	7	8	414	0.5	413	414	22.6	49.5
2025-07-17T18:56	10	7	0.2	6	7	414	0.2	413	414	22.6	49.1
2025-07-17T18:57	10	6	0.1	6	6	414	0.3	413	414	22.6	49.3
2025-07-17T18:58	10	6	0.2	5	6	413	0.3	412	413	22.6	49.3
2025-07-17T18:59	10	5	0.1	5	6	413	0.3	412	413	22.5	49.7
2025-07-17T19:00	10	5	0.2	5	5	412	0.2	412	412	22.5	50.0
2025-07-17T19:01	10	4	0.4	3	5	411	0.2	411	412	22.4	50.3
2025-07-17T19:02	10	3	0.3	2	3	411	0.3	410	412	22.4	50.2
2025-07-17T19:03	10	2	0.1	2	2	410	0.4	410	411	22.4	50.5
2025-07-17T19:04	10	2	0.1	2	2	410	0.3	409	410	22.4	50.2
2025-07-17T19:05	10	2	0.1	2	2	410	0.3	410	411	22.4	49.8
2025-07-17T19:06	10	2	0.1	2	2	410	0.3	409	410	22.3	50.3
2025-07-17T19:07	10	2	0.1	2	2	410	0.2	409	410	22.3	50.3
2025-07-17T19:08	10	2	0.1	1	2	409	0.2	408	410	22.2	50.8
2025-07-17T19:09	10	2	0.1	1	2	409	0.2	408	409	22.2	51.0
2025-07-17T19:10	10	2	0.1	1	2	408	0.3	407	409	22.1	51.4
2025-07-17T19:11	10	2	0.1	1	2	407	0.4	407	408	22.1	51.4
2025-07-17T19:12	10	1	0.2	1	2	408	0.3	407	409	22.1	51.5
2025-07-17T19:13	10	1	0.1	1	2	407	0.2	407	408	22.0	51.8
2025-07-17T19:14	10	1	0.2	1	2	407	0.3	406	408	22.0	52.1
2025-07-17T19:15	10	1	0.2	1	2	407	0.3	406	408	21.9	52.1
2025-07-17T19:16	10	1	0.2	1	1	407	0.3	406	408	21.9	52.1
2025-07-17T19:17	10	1	0.2	1	2	406	0.3	406	407	21.8	52.6
2025-07-17T19:18	10	1	0.1	1	2	406	0.3	406	407	21.8	52.7
2025-07-17T19:19	10	1	0.1	1	1	406	0.3	406	407	21.8	52.5
2025-07-17T19:20	10	1	0.1	1	1	406	0.3	405	406	21.8	52.9
2025-07-17T19:21	10	1	0.1	1	1	405	0.3	404	405	21.8	52.9
2025-07-17T19:22	10	1	0.1	1	1	404	0.3	403	404	21.8	52.8
2025-07-17T19:23	10	1	0.1	1	1	404	0.3	403	404	21.7	52.9
2025-07-17T19:24	10	1	0.1	1	1	404	0.4	403	405	21.7	53.1
2025-07-17T19:25	10	1	0.1	0	1	404	0.3	403	404	21.6	53.2
2025-07-17T19:26	10	1	0.1	0	1	404	0.3	403	404	21.7	53.0
2025-07-17T19:27	10	1	0.1	0	1	403	0.4	402	404	21.5	53.7
2025-07-17T19:28	10	1	0.1	0	1	402	0.3	402	403	21.4	53.9
2025-07-17T19:29	10	0	0.1	0	1	402	0.3	402	403	21.4	54.3
2025-07-17T19:30	10	1	0.1	0	1	402	0.3	401	403	21.4	54.1
2025-07-17T19:31	10	0	0.1	0	1	402	0.2	401	402	21.3	54.4
2025-07-17T19:32	10	0	0.1	0	1	401	0.3	401	402	21.1	55.9
2025-07-17T19:33	10	0	0.1	0	1	401	0.3	401	402	21.1	56.1
2025-07-17T19:34	10	0	0.1	0	1	401	0.3	400	401	21.0	56.8
2025-07-17T19:35	10	0	0.1	0	1	400	0.3	400	401	20.9	57.5
2025-07-17T19:36	10	0	0.1	0	1	400	0.2	399	400	20.7	58.2
2025-07-17T19:37	10	0	0.1	0	0	400	0.4	399	401	20.8	57.8
2025-07-17T19:38	10	0	0.1	0	0	400	0.2	399	400	20.7	58.5
2025-07-17T19:39	10	0	0.1	0	0	400	0.3	399	400	20.6	59.0
2025-07-17T19:40	10	0	0.1	0	0	399	0.2	398	399	20.5	59.0
2025-07-17T19:41	10	0	0.1	0	0	398	0.3	398	399	20.7	57.9
2025-07-17T19:42	10	0	0.1	0	0	399	0.4	398	399	20.8	57.2
2025-07-17T19:43	10	0	0.1	0	0	400	0.4	399	400	20.9	56.2
2025-07-17T19:44	10	0	0.1	0	0	399	0.4	398	400	20.8	57.4
2025-07-17T19:45	10	0	0.1	0	0	399	0.6	398	400	20.6	58.5
2025-07-17T19:46	10	0	0.1	0	0	399	0.4	398	400	20.6	58.3
2025-07-17T19:47	10	0	0.1	0	0	400	0.4	399	401	20.7	57.9
2025-07-17T19:48	10	0	0.1	0	0	400	0.3	400	401	20.8	57.0
2025-07-17T19:49	10	0	0.1	0	0	400	0.3	399	400	20.6	58.3
2025-07-17T19:50	10	0	0.1	0	0	399	0.3	398	400	20.5	58.5
2025-07-17T19:51	10	0	0.1	0	0	399	0.4	398	400	20.4	59.6
2025-07-17T19:52	10	0	0.2	-1	0	399	0.9	398	401	20.4	59.4
2025-07-17T19:53	10	0	0.2	-1	1	400	0.4	399	401	20.4	59.0
2025-07-17T19:54	10	0	0.2	-1	0	401	0.6	400	402	20.8	56.3
2025-07-17T19:55	10	0	0.1	0	0	401	0.3	401	402	21.0	55.1
2025-07-17T19:56	10	0	0.1	0	0	400	0.5	399	401	21.0	55.4
2025-07-17T19:57	10	0	0.1	0	0	400	0.3	399	401	20.9	55.6
2025-07-17T19:58	10	0	0.2	0	1	400	0.3	399	400	20.9	55.8
2025-07-17T19:59	10	0	0.2	0	1	399	0.2	399	400	20.7	56.3
2025-07-17T20:00	10	0	0.1	0	0	400	0.2	399	400	20.9	55.8
2025-07-17T20:01	10	0	0.0	0	0	399	0.5	398	400	20.9	55.9
2025-07-17T20:02	10	0	0.1	0	0	399	0.3	398	399	20.9	56.0
2025-07-17T20:03	10	0	0.0	0	0	398	0.4	398	399	20.9	56.2
2025-07-17T20:04	10	0	0.0	0	0	397	0.2	396	398	20.7	57.0
2025-07-17T20:05	10	0	1.4	0	10	397	0.2	397	397	20.7	56.8
2025-07-17T20:06	10	0	0.1	0	0	397	0.4	396	398	20.7	56.6
2025-07-17T20:07	10	0	0.1	0	0	397	0.2	397	398	20.9	56.0
2025-07-17T20:08	10	0	0.1	0	0	397	0.2	397	398	20.9	56.0
2025-07-17T20:09	10	0	0.1	0	0	396	0.3	396	397	20.8	56.3
2025-07-17T20:10	10	0	0.0	0	0	397	0.3	396	397	20.8	56.6
2025-07-17T20:11	10	0	0.1	0	0	397	0.3	396	397	20.8	56.5
2025-07-17T20:12	10	0	0.1	0	0	397	0.3	396	397	20.8	56.6
2025-07-17T20:13	10	0	0.1	0	0	396	0.3	396	397	20.8	56.8
2025-07-17T20:14	10	0	0.0	0	0	396	0.3	396	397	20.7	57.0
2025-07-17T20:15	10	0	0.1	0	0	396	0.4	396	397	20.8	56.8
2025-07-17T20:16	10	0	0.1	0	0	396	0.3	396	397	20.7	57.3
2025-07-17T20:17	10	0	0.1	0	0	397	0.2	397	398	20.7	57.1
2025-07-17T20:18	10	0	0.1	0	0	397	0.2	396	397	20.6	57.5
2025-07-17T20:19	10	0	0.1	0	0	396	0.3	396	397	20.5	57.9
2025-07-17T20:20	10	0	0.1	0	0	396	0.3	396	397	20.4	58.9
2025-07-17T20:21	10	0	0.1	0	0	396	0.3	395	397	20.4	58.8
2025-07-17T20:22	10	0	0.1	0	0	396	0.5	395	397	20.3	59.0
2025-07-17T20:23	10	0	0.1	0	0	396	0.5	395	397	20.4	58.5
2025-07-17T20:24	10	0	0.1	0	0	396	0.3	395	397	20.5	58.2
2025-07-17T20:25	10	0	0.1	0	0	397	0.5	396	398	20.5	57.9
2025-07-17T20:26	10	0	0.0	0	0	399	0.3	398	399	20.7	57.3
2025-07-17T20:27	10	0	0.1	0	0	399	0.4	398	399	20.8	56.8
2025-07-17T20:28	10	0	0.1	0	0	397	0.6	396	399	20.6	58.1
2025-07-17T20:29	10	0	0.1	0	0	396	0.4	395	397	20.5	58.4
2025-07-17T20:30	10	0	0.0	0	0	396	0.3	396	397	20.6	57.5
2025-07-17T20:31	10	0	0.0	0	0	396	0.4	395	396	20.5	58.3
2025-07-17T20:32	10	0	0.1	0	0	395	0.4	394	396	20.4	59.2
2025-07-17T20:33	10	0	0.1	0	0	395	0.3	394	395	20.2	59.8
2025-07-17T20:34	10	0	0.1	0	0	395	0.2	394	395	20.1	60.3
2025-07-17T20:35	10	0	0.1	0	0	394	0.3	393	395	20.2	59.9
2025-07-17T20:36	10	0	0.1	0	0	394	0.3	393	395	20.3	59.3
2025-07-17T20:37	10	0	0.1	0	0	394	0.2	394	395	20.3	59.2
2025-07-17T20:38	10	0	0.1	0	0	395	0.4	394	395	20.4	59.0
2025-07-17T20:39	10	0	0.1	0	0	395	0.2	394	395	20.3	59.3
2025-07-17T20:40	10	0	0.1	0	0	395	0.2	394	395	20.3	59.3
2025-07-17T20:41	10	0	0.1	0	0	395	0.3	394	395	20.4	59.1
2025-07-17T20:42	10	0	0.0	0	0	394	0.3	394	395	20.4	59.2
2025-07-17T20:43	10	0	0.0	0	0	395	0.2	394	395	20.4	58.9
2025-07-17T20:44	10	0	0.1	0	0	394	0.2	394	395	20.5	58.7
2025-07-17T20:45	10	0	0.1	0	0	394	0.2	394	395	20.5	58.8
2025-07-17T20:46	10	0	0.1	0	0	394	0.2	394	395	20.5	58.8
2025-07-17T20:47	10	0	0.1	0	0	394	0.2	394	395	20.5	58.7
2025-07-17T20:48	10	0	0.1	0	0	395	0.3	394	395	20.5	58.6
2025-07-17T20:49	10	0	0.1	0	0	395	0.2	394	395	20.5	58.7
2025-07-17T20:50	10	0	0.2	0	0	395	0.3	394	395	20.6	58.4
2025-07-17T20:51	10	0	0.1	0	0	395	0.2	395	396	20.6	58.5
2025-07-17T20:52	10	0	0.1	0	0	395	0.3	395	396	20.5	58.7
2025-07-17T20:53	10	0	0.2	0	1	395	0.5	393	395	20.5	59.0
2025-07-17T20:54	10	0	0.2	0	0	393	0.6	392	394	20.0	61.5
2025-07-17T20:55	10	0	0.2	0	1	392	0.3	391	392	19.6	63.2
2025-07-17T20:56	10	0	0.1	0	0	392	0.2	392	392	19.6	62.9
2025-07-17T20:57	10	0	0.1	0	0	392	0.2	392	393	19.8	62.3
2025-07-17T20:58	10	0	0.1	0	0	392	0.2	392	393	20.0	61.0
2025-07-17T20:59	10	0	0.1	0	0	392	0.3	391	393	20.1	60.5
2025-07-17T21:00	10	0	0.1	0	0	392	0.2	392	393	20.0	61.3
2025-07-17T21:01	10	0	0.1	0	0	393	0.2	392	393	19.9	61.7
2025-07-17T21:02	10	0	0.1	0	0	392	0.2	392	393	19.9	61.7
2025-07-17T21:03	10	0	0.1	0	0	392	0.2	392	393	19.9	61.4
2025-07-17T21:04	10	0	0.1	0	0	392	0.2	392	393	20.0	61.0
2025-07-17T21:05	10	0	0.1	0	1	392	0.2	391	392	20.0	61.0
2025-07-17T21:06	10	0	0.1	0	0	392	0.2	392	393	20.0	60.9
2025-07-17T21:07	10	0	0.1	0	0	392	0.3	391	393	20.0	61.0
2025-07-17T21:08	10	0	0.1	0	0	392	0.3	391	392	20.0	61.0
2025-07-17T21:09	10	0	0.1	0	0	392	0.3	391	392	20.0	60.9
2025-07-17T21:10	10	0	0.1	0	0	390	0.4	390	391	19.9	61.4
2025-07-17T21:11	10	0	0.1	0	0	391	0.6	390	392	19.9	61.2
2025-07-17T21:12	10	0	0.1	0	0	391	0.3	391	392	19.9	60.9
2025-07-17T21:13	10	0	0.0	0	0	391	0.3	390	391	20.0	60.9
2025-07-17T21:14	10	0	0.1	0	0	391	0.2	390	391	19.7	62.3
2025-07-17T21:15	10	0	0.1	0	0	391	0.2	390	391	19.4	63.5
2025-07-17T21:16	10	0	0.1	0	0	390	0.3	390	391	19.4	63.1
2025-07-17T21:17	10	0	0.1	0	0	390	0.3	390	391	19.6	62.3
2025-07-17T21:18	10	0	0.1	0	0	390	0.2	390	391	19.5	62.4
2025-07-17T21:19	10	0	0.1	0	0	390	0.2	390	391	19.4	63.4
2025-07-17T21:20	10	0	0.1	0	0	390	0.3	389	391	19.3	63.5
2025-07-17T21:21	10	0	0.1	0	0	390	0.3	389	390	19.1	65.5
2025-07-17T21:22	10	0	0.1	0	0	389	0.2	388	390	18.8	67.1
2025-07-17T21:23	10	0	0.1	0	0	389	0.3	388	389	18.7	67.5
2025-07-17T21:24	10	0	0.1	0	0	389	0.2	388	389	18.6	67.8
2025-07-17T21:25	10	0	0.1	0	0	389	0.4	388	390	18.8	65.8
2025-07-17T21:26	10	0	0.1	0	0	389	0.2	388	389	19.1	64.3
2025-07-17T21:27	10	0	0.1	0	0	388	0.2	388	389	19.2	63.9
2025-07-17T21:28	10	0	0.1	0	0	387	0.2	387	388	19.1	64.8
2025-07-17T21:29	10	0	0.1	0	0	387	0.2	386	387	18.8	67.0
2025-07-17T21:30	10	0	0.1	0	0	387	0.3	386	388	18.7	67.4
2025-07-17T21:31	10	0	0.1	0	0	386	0.3	385	387	18.5	68.2
2025-07-17T21:32	10	0	0.1	0	0	386	0.3	386	387	18.4	69.3
2025-07-17T21:33	10	0	0.1	0	0	386	0.2	386	387	18.4	68.9
2025-07-17T21:34	10	0	0.1	0	0	386	0.2	386	387	18.5	67.7
2025-07-17T21:35	10	0	0.1	0	0	386	0.2	385	387	18.5	67.7
2025-07-17T21:36	10	0	0.1	0	0	386	0.3	385	386	18.3	69.8
2025-07-17T21:37	10	0	0.1	0	0	386	0.2	385	387	18.1	70.8
2025-07-17T21:38	10	0	0.1	0	0	386	0.3	385	387	18.1	70.1
2025-07-17T21:39	10	0	0.1	0	0	386	0.2	385	386	18.3	68.8
2025-07-17T21:40	10	0	0.1	0	0	386	0.2	385	386	18.2	69.8
2025-07-17T21:41	10	0	0.1	0	0	385	0.2	385	386	18.1	70.4
2025-07-17T21:42	10	0	0.1	0	0	385	0.3	385	386	18.0	70.5
2025-07-17T21:43	10	0	0.1	0	0	385	0.2	385	386	18.1	70.5
2025-07-17T21:44	10	0	0.1	0	0	385	0.2	385	386	18.0	70.5
2025-07-17T21:45	10	0	0.1	0	0	385	0.1	385	385	18.0	70.4
2025-07-17T21:46	10	0	0.1	0	0	385	0.2	384	385	18.0	70.4
2025-07-17T21:47	10	0	0.1	0	0	385	0.3	384	385	17.9	71.8
2025-07-17T21:48	10	0	0.1	0	0	385	0.3	384	385	17.7	72.6
2025-07-17T21:49	10	0	0.1	0	0	385	0.3	384	385	17.8	71.7
2025-07-17T21:50	10	0	0.1	0	0	384	0.3	383	384	17.8	72.2
2025-07-17T21:51	10	0	0.1	0	0	384	0.4	383	384	17.7	72.6
2025-07-17T21:52	10	0	0.1	0	0	383	0.5	383	384	17.7	72.8
2025-07-17T21:53	10	0	0.1	0	0	384	0.7	382	385	17.6	73.2
2025-07-17T21:54	10	0	0.1	0	0	384	0.4	383	384	17.7	72.7
2025-07-17T21:55	10	0	0.1	0	0	384	0.4	383	384	17.7	72.4
2025-07-17T21:56	10	0	0.1	0	0	384	0.5	383	385	17.9	71.1
2025-07-17T21:57	10	0	0.1	0	0	385	0.3	384	385	18.0	69.9
2025-07-17T21:58	10	0	0.1	0	0	384	0.4	383	385	17.9	72.1
2025-07-17T21:59	10	0	0.1	0	0	385	1.0	384	387	17.6	73.1
2025-07-17T22:00	10	0	0.1	0	0	386	0.2	385	386	18.0	69.3
2025-07-17T22:01	10	0	0.0	0	0	385	0.3	384	386	18.4	67.9
2025-07-17T22:02	10	0	0.0	0	0	384	0.6	383	385	18.3	68.7
2025-07-17T22:03	10	0	0.1	0	0	383	0.3	382	384	17.8	72.5
2025-07-17T22:04	10	0	0.0	0	0	384	0.3	383	384	17.7	71.7
2025-07-17T22:05	10	0	0.1	0	0	384	0.2	383	384	17.9	70.0
2025-07-17T22:06	10	0	0.0	0	0	383	0.3	383	384	18.0	67.6
2025-07-17T22:07	10	0	0.0	0	0	383	0.2	382	383	18.0	69.8
2025-07-17T22:08	10	0	0.0	0	0	383	0.2	382	383	18.0	67.5
2025-07-17T22:09	10	0	0.0	0	0	383	0.2	382	383	18.0	66.3
2025-07-17T22:10	10	0	0.1	0	0	383	0.4	382	384	18.0	69.8
2025-07-17T22:11	10	0	0.1	0	0	383	0.2	382	383	18.0	69.8
2025-07-17T22:12	10	0	0.0	0	0	383	0.2	382	383	18.0	69.8
2025-07-17T22:13	10	0	0.0	0	0	382	0.3	381	383	18.0	69.8
2025-07-17T22:14	10	0	0.1	0	0	382	0.2	382	383	18.0	70.9
2025-07-17T22:15	10	0	0.1	0	0	381	0.4	381	382	17.9	72.8
2025-07-17T22:16	10	0	0.1	0	0	382	0.3	381	382	17.7	74.7
2025-07-17T22:17	10	0	0.1	0	0	382	0.3	381	382	17.5	75.8
2025-07-17T22:18	10	0	0.1	0	0	381	0.2	381	382	17.5	76.2
2025-07-17T22:19	10	0	0.1	0	0	381	0.3	381	382	17.4	76.4
2025-07-17T22:20	10	0	0.1	0	0	381	0.2	381	382	17.3	76.1
2025-07-17T22:21	10	0	0.2	0	0	382	0.3	381	382	17.2	76.0
2025-07-17T22:22	10	0	0.2	0	0	382	0.3	381	382	17.2	75.6
2025-07-17T22:23	10	0	0.2	0	0	381	0.3	381	382	17.3	74.5
2025-07-17T22:24	10	0	0.2	0	0	381	0.2	381	382	17.4	74.2
2025-07-17T22:25	10	0	0.2	-1	0	381	0.3	380	382	17.4	73.8
2025-07-17T22:26	10	0	0.1	0	0	381	0.2	381	382	17.4	73.4
2025-07-17T22:27	10	0	0.2	0	1	381	0.2	381	382	17.3	73.8
2025-07-17T22:28	10	0	0.1	0	0	381	0.2	380	381	17.2	74.6
2025-07-17T22:29	10	0	0.1	0	0	381	0.3	380	381	17.1	75.2
2025-07-17T22:30	10	0	0.1	0	0	380	0.3	379	380	16.8	77.8
2025-07-17T22:31	10	0	0.1	0	0	380	0.2	380	381	16.5	79.5
2025-07-17T22:32	10	0	0.1	0	0	380	0.4	380	381	16.5	78.5
2025-07-17T22:33	10	0	0.1	0	0	381	0.3	380	381	16.7	77.2
2025-07-17T22:34	10	0	0.1	0	0	381	0.2	380	381	16.8	76.6
2025-07-17T22:35	10	0	0.1	0	0	380	0.3	380	381	16.7	78.1
2025-07-17T22:36	10	0	0.1	0	0	381	0.3	380	381	16.6	79.6
2025-07-17T22:37	10	0	0.1	0	0	381	0.4	380	382	16.6	79.1
2025-07-17T22:38	10	0	0.1	0	0	381	0.2	381	382	16.8	77.0
2025-07-17T22:39	10	0	0.1	0	0	382	0.3	381	383	16.9	75.9
2025-07-17T22:40	10	0	0.1	0	0	382	0.3	381	383	17.1	74.9
2025-07-17T22:41	10	0	0.1	0	0	382	0.2	382	383	17.1	75.0
2025-07-17T22:42	10	0	0.0	0	0	382	0.2	382	383	17.0	75.2
2025-07-17T22:43	10	0	0.0	0	0	382	0.2	381	383	17.0	75.1
2025-07-17T22:44	10	0	0.0	0	0	382	0.2	382	383	17.1	74.8
2025-07-17T22:45	10	0	0.0	0	0	382	0.3	381	382	17.1	74.4
2025-07-17T22:46	10	0	0.0	0	0	381	0.3	381	382	17.1	74.0
2025-07-17T22:47	10	0	0.0	0	0	380	0.3	380	381	17.1	74.6
2025-07-17T22:48	10	0	0.0	0	0	380	0.2	379	380	17.0	75.0
2025-07-17T22:49	10	0	0.0	0	0	379	0.4	378	380	16.9	75.9
2025-07-17T22:50	10	0	0.0	0	0	379	0.2	379	380	16.8	76.7
2025-07-17T22:51	10	0	0.0	0	0	379	0.2	378	380	16.8	76.0
2025-07-17T22:52	10	0	0.1	0	0	379	0.2	379	380	16.8	76.1
2025-07-17T22:53	10	0	0.0	0	0	379	0.3	378	379	16.8	75.5
2025-07-17T22:54	10	0	0.1	0	0	379	0.2	378	379	16.8	75.4
2025-07-17T22:55	10	0	0.1	0	0	378	0.2	378	379	16.7	76.0
2025-07-17T22:56	10	0	0.1	0	0	378	0.2	378	379	16.7	75.8
2025-07-17T22:57	10	0	0.1	0	0	378	0.2	378	379	16.7	75.9
2025-07-17T22:58	10	0	0.1	0	0	378	0.2	378	379	16.7	75.5
2025-07-17T22:59	10	0	0.1	0	0	378	0.3	377	379	16.8	75.2
2025-07-17T23:00	10	0	0.1	0	0	378	0.2	377	379	16.8	75.1
2025-07-17T23:01	10	0	0.0	0	0	378	0.3	377	378	16.6	76.2
2025-07-17T23:02	10	0	0.1	0	0	378	0.3	377	378	16.4	77.8
2025-07-17T23:03	10	0	0.1	0	0	378	0.3	377	379	16.3	77.6
2025-07-17T23:04	10	0	0.1	0	0	378	0.2	377	378	16.3	77.8
2025-07-17T23:05	10	0	0.1	0	0	378	0.2	377	378	16.3	78.5
2025-07-17T23:06	10	0	0.1	0	0	378	0.2	377	378	16.3	77.9
2025-07-17T23:07	10	0	0.1	0	0	377	0.3	377	378	16.3	76.6
2025-07-17T23:08	10	0	0.1	0	0	378	0.5	377	379	16.5	75.2
2025-07-17T23:09	10	0	0.1	0	0	378	0.2	378	379	16.7	74.2
2025-07-17T23:10	10	0	0.1	0	0	378	0.2	377	379	16.7	73.8
2025-07-17T23:11	10	0	0.1	0	0	378	0.4	377	379	16.8	73.3
2025-07-17T23:12	10	0	0.1	0	0	378	0.5	377	379	16.7	73.5
2025-07-17T23:13	10	0	0.1	0	0	377	0.6	376	378	16.8	72.9
2025-07-17T23:14	10	0	0.1	0	0	377	0.3	376	378	16.6	73.9
2025-07-17T23:15	10	0	0.1	0	0	377	0.3	376	377	16.5	74.2
2025-07-17T23:16	10	0	0.1	0	0	376	0.3	376	377	16.4	74.8
2025-07-17T23:17	10	0	0.1	0	0	377	0.3	376	377	16.4	74.4
2025-07-17T23:18	10	0	0.1	0	0	376	0.3	376	377	16.4	74.8
2025-07-17T23:19	10	0	0.1	0	0	377	0.2	376	377	16.4	74.9
2025-07-17T23:20	10	0	0.1	0	0	376	0.2	376	377	16.5	74.4
2025-07-17T23:21	10	0	0.1	0	0	376	0.3	376	377	16.4	74.9
2025-07-17T23:22	10	0	0.1	0	0	376	0.2	376	377	16.4	75.1
2025-07-17T23:23	10	0	0.1	0	0	376	0.2	375	376	16.3	76.1
2025-07-17T23:24	10	0	0.1	0	0	376	0.2	375	376	16.1	77.6
2025-07-17T23:25	10	0	0.1	0	0	376	0.2	375	376	15.9	78.3
2025-07-17T23:26	10	0	0.1	0	0	376	0.2	375	376	15.9	78.5
2025-07-17T23:27	10	0	0.1	0	0	376	0.3	375	376	15.9	77.8
2025-07-17T23:28	10	0	0.1	0	0	376	0.2	375	376	15.9	77.6
2025-07-17T23:29	10	0	0.1	0	0	375	0.2	375	376	16.0	77.5
2025-07-17T23:30	10	0	0.1	0	0	375	0.2	375	376	16.0	78.1
2025-07-17T23:31	10	0	0.1	0	0	376	0.3	375	376	15.9	79.3
2025-07-17T23:32	10	0	0.1	0	0	376	0.2	375	376	15.9	78.5
2025-07-17T23:33	10	0	0.1	0	0	376	0.2	375	376	16.0	77.9
2025-07-17T23:34	10	0	0.1	0	0	376	0.2	375	376	16.0	78.6
2025-07-17T23:35	10	0	0.1	0	0	376	0.2	375	376	16.0	80.9
2025-07-17T23:36	10	0	0.1	0	0	375	0.3	375	376	16.0	79.8
2025-07-17T23:37	10	0	0.1	0	0	375	0.2	375	376	16.0	79.9
2025-07-17T23:38	10	0	0.1	0	0	375	0.2	375	375	16.0	80.8
2025-07-17T23:39	10	0	0.1	0	0	375	0.2	375	376	16.0	79.6
2025-07-17T23:40	10	0	0.1	0	0	376	0.2	375	376	16.0	78.0
2025-07-17T23:41	10	0	0.1	0	0	375	0.2	375	376	16.1	78.2
2025-07-17T23:42	10	0	0.0	0	0	376	0.3	375	377	16.2	76.5
2025-07-17T23:43	10	0	0.1	0	0	376	0.2	376	377	16.3	76.2
2025-07-17T23:44	10	0	0.0	0	0	376	0.3	375	377	16.3	75.4
2025-07-17T23:45	10	0	0.0	0	0	376	0.2	375	376	16.3	75.5
2025-07-17T23:46	10	0	0.0	0	0	375	0.3	374	376	16.3	76.3
2025-07-17T23:47	10	0	0.0	0	0	374	0.3	374	375	16.1	77.5
2025-07-17T23:48	10	0	0.1	0	0	374	0.2	374	375	15.9	77.7
2025-07-17T23:49	10	0	0.1	0	0	374	0.2	373	374	15.7	79.4
2025-07-17T23:50	10	0	0.1	0	0	374	0.2	373	374	15.6	82.7
2025-07-17T23:51	10	0	0.1	0	0	373	0.2	373	374	15.4	83.5
2025-07-17T23:52	10	0	0.1	0	0	373	0.2	373	374	15.4	83.2
2025-07-17T23:53	10	0	0.1	0	0	373	0.3	373	374	15.4	83.7
2025-07-17T23:54	10	0	0.1	0	0	373	0.2	373	374	15.4	83.2
2025-07-17T23:55	10	0	0.1	0	0	373	0.2	372	373	15.4	83.7
2025-07-17T23:56	10	0	0.1	0	0	373	0.3	372	373	15.4	84.2
2025-07-17T23:57	10	0	0.1	0	0	373	0.2	372	373	15.3	84.6
2025-07-17T23:58	10	0	0.1	0	1	373	0.3	372	374	15.2	84.9
2025-07-17T23:59	10	0	0.1	0	0	373	0.2	373	374	15.3	83.4
2025-07-18T00:00	10	0	0.1	0	0	373	0.2	373	374	15.3	82.6
2025-07-18T00:01	10	0	0.1	0	0	373	0.2	372	373	15.3	84.3
2025-07-18T00:02	10	0	0.1	0	0	373	0.2	372	373	15.2	83.7
2025-07-18T00:03	10	0	0.2	0	1	373	0.3	372	373	15.2	83.2
2025-07-18T00:04	10	0	0.1	0	1	373	0.2	372	373	15.2	83.7
2025-07-18T00:05	10	0	0.1	0	0	373	0.2	372	374	15.2	82.4
2025-07-18T00:06	10	0	0.1	0	0	373	0.3	372	374	15.3	82.1
2025-07-18T00:07	10	0	0.1	0	0	373	0.3	372	373	15.4	81.6
2025-07-18T00:08	10	0	0.1	0	1	373	0.3	372	374	15.4	80.3
2025-07-18T00:09	10	0	0.1	0	1	373	0.2	372	373	15.4	79.9
2025-07-18T00:10	10	0	0.1	0	1	373	0.2	372	373	15.4	79.8
2025-07-18T00:11	10	0	0.1	0	1	373	0.2	372	373	15.5	79.5
2025-07-18T00:12	10	0	0.1	0	0	373	0.3	372	374	15.4	80.1
2025-07-18T00:13	10	0	0.1	0	0	373	0.3	372	374	15.3	80.5
2025-07-18T00:14	10	0	0.1	0	0	373	0.3	372	373	15.3	80.6
2025-07-18T00:15	10	0	0.1	0	1	373	0.2	373	374	15.3	80.3
2025-07-18T00:16	10	0	0.1	0	0	373	0.3	373	374	15.3	80.3
2025-07-18T00:17	10	0	0.2	0	0	373	0.3	373	374	15.3	80.4
2025-07-18T00:18	10	0	0.1	0	1	373	0.3	372	373	15.3	80.6
2025-07-18T00:19	10	0	0.1	0	0	373	0.3	372	373	15.3	81.4
2025-07-18T00:20	10	0	0.1	0	0	373	0.2	372	373	15.3	81.6
2025-07-18T00:21	10	0	0.1	0	0	373	0.2	372	373	15.2	83.3
2025-07-18T00:22	10	0	0.1	0	0	373	0.2	373	374	15.2	83.1
2025-07-18T00:23	10	0	0.1	0	0	373	0.2	372	373	15.2	84.2
2025-07-18T00:24	10	0	0.1	0	1	372	0.3	372	373	15.1	85.0
2025-07-18T00:25	10	0	0.1	0	0	372	0.2	371	372	15.1	84.2
2025-07-18T00:26	10	0	0.1	0	0	373	0.3	372	373	15.3	81.2
2025-07-18T00:27	10	0	0.1	0	0	373	0.2	372	373	15.5	80.2
2025-07-18T00:28	10	0	0.1	0	0	372	0.3	372	373	15.6	79.6
2025-07-18T00:29	10	0	0.7	0	4	373	0.2	372	373	15.6	79.3
2025-07-18T00:30	10	0	0.1	0	0	373	0.2	372	373	15.6	78.9
2025-07-18T00:31	10	0	0.1	0	0	373	0.2	372	373	15.9	77.3
2025-07-18T00:32	10	0	0.1	0	0	373	0.3	372	374	15.9	77.1
2025-07-18T00:33	10	0	0.1	0	0	373	0.3	372	374	16.0	76.8
2025-07-18T00:34	10	0	0.1	0	0	373	0.3	373	374	16.0	77.1
2025-07-18T00:35	10	0	0.1	0	0	373	0.2	373	374	15.9	77.7
2025-07-18T00:36	10	0	0.1	0	0	373	0.3	373	374	15.7	78.9
2025-07-18T00:37	10	0	0.0	0	0	373	0.3	373	374	15.4	80.7
2025-07-18T00:38	10	0	0.0	0	0	373	0.2	372	373	15.2	81.6
2025-07-18T00:39	10	0	0.1	0	0	372	0.3	372	373	15.2	81.6
2025-07-18T00:40	10	0	0.1	0	0	372	0.3	372	373	15.0	83.4
2025-07-18T00:41	10	0	0.1	0	0	372	0.2	371	372	14.9	85.2
2025-07-18T00:42	10	0	0.1	0	0	371	0.3	371	372	14.7	86.9
2025-07-18T00:43	10	0	0.1	0	0	371	0.3	371	372	14.6	86.8
2025-07-18T00:44	10	0	0.1	0	0	371	0.3	370	372	14.6	86.1
2025-07-18T00:45	10	0	0.1	0	0	371	0.5	371	373	14.7	85.6
2025-07-18T00:46	10	0	0.1	0	0	372	0.2	371	372	14.9	83.6
2025-07-18T00:47	10	0	0.1	0	0	372	0.2	371	372	15.0	82.9
2025-07-18T00:48	10	0	0.0	0	0	371	0.2	371	372	15.0	83.1
2025-07-18T00:49	10	0	0.1	0	0	371	0.2	371	372	14.9	83.1
2025-07-18T00:50	10	0	0.0	0	0	371	0.2	371	372	14.9	83.1
2025-07-18T00:51	10	0	0.1	0	0	371	0.2	371	372	15.0	82.8
2025-07-18T00:52	10	0	0.1	0	0	371	0.4	370	371	15.1	82.6
2025-07-18T00:53	10	0	0.1	0	0	370	0.5	369	371	15.1	82.6
2025-07-18T00:54	10	0	0.1	0	0	370	0.5	369	371	14.7	85.4
2025-07-18T00:55	10	0	0.0	0	0	370	0.3	370	371	14.6	85.9
2025-07-18T00:56	10	0	0.1	0	0	371	0.2	370	371	14.6	85.8
2025-07-18T00:57	10	0	0.1	0	0	371	0.2	370	371	14.7	85.6
2025-07-18T00:58	10	0	0.1	0	0	370	0.2	370	371	14.6	85.5
2025-07-18T00:59	10	0	0.1	0	0	370	0.2	370	371	14.7	85.2
2025-07-18T01:00	10	0	0.1	0	0	370	0.3	369	370	14.7	85.1
2025-07-18T01:01	10	0	0.1	0	0	370	0.2	369	370	14.7	84.9
2025-07-18T01:02	10	0	0.1	0	0	369	0.2	369	370	14.7	84.5
2025-07-18T01:03	10	0	0.1	0	0	369	0.2	369	370	14.7	84.3
2025-07-18T01:04	10	0	0.1	0	0	369	0.2	368	370	14.7	84.6
2025-07-18T01:05	10	0	0.1	0	0	369	0.3	368	370	14.7	84.6
2025-07-18T01:06	10	0	0.1	0	0	369	0.2	369	369	14.6	84.7
2025-07-18T01:07	10	0	0.1	0	0	369	0.3	368	370	14.6	84.5
2025-07-18T01:08	10	0	0.1	0	0	369	0.2	369	370	14.7	84.0
2025-07-18T01:09	10	0	0.1	0	0	369	0.3	369	370	14.8	83.6
2025-07-18T01:10	10	0	0.1	0	0	369	0.2	369	370	14.9	83.0
2025-07-18T01:11	10	0	0.1	0	0	370	0.3	370	371	14.9	82.9
2025-07-18T01:12	10	0	0.1	0	0	371	0.3	370	371	15.0	82.8
2025-07-18T01:13	10	0	0.1	0	0	371	0.3	370	372	14.9	82.8
2025-07-18T01:14	10	0	0.1	0	0	372	0.3	371	373	15.0	82.8
2025-07-18T01:15	10	0	0.1	0	0	373	0.2	372	373	15.1	82.8
2025-07-18T01:16	10	0	0.1	0	0	373	0.2	372	373	15.1	82.5
2025-07-18T01:17	10	0	0.1	0	0	373	0.2	372	373	15.1	82.3
2025-07-18T01:18	10	0	0.1	0	0	373	0.2	372	373	15.2	82.2
2025-07-18T01:19	10	0	0.1	0	0	373	0.2	373	374	15.2	81.7
2025-07-18T01:20	10	0	0.1	0	0	373	0.3	372	374	15.3	81.6
2025-07-18T01:21	10	0	0.1	0	0	373	0.4	372	373	15.3	81.5
2025-07-18T01:22	10	0	0.1	0	1	372	0.3	372	373	15.1	82.6
2025-07-18T01:23	10	0	0.1	0	0	372	0.3	371	373	14.9	83.6
2025-07-18T01:24	10	0	0.1	0	0	371	0.2	371	372	14.9	84.3
2025-07-18T01:25	10	0	0.1	0	0	371	0.2	371	372	14.8	84.3
2025-07-18T01:26	10	0	0.1	0	0	371	0.3	370	371	14.9	83.8
2025-07-18T01:27	10	0	0.1	0	0	370	0.5	369	371	14.8	84.3
2025-07-18T01:28	10	0	0.1	0	0	369	0.3	369	370	14.7	85.0
2025-07-18T01:29	10	0	0.1	0	0	369	0.2	369	370	14.6	85.4
2025-07-18T01:30	10	0	0.1	0	0	369	0.2	369	370	14.5	85.5
2025-07-18T01:31	10	0	0.1	0	0	370	0.3	369	370	14.5	85.5
2025-07-18T01:32	10	0	0.1	0	0	370	0.2	370	371	14.4	85.5
2025-07-18T01:33	10	0	0.1	0	0	371	0.2	370	371	14.2	86.6
2025-07-18T01:34	10	0	0.1	0	0	371	0.2	370	371	14.1	87.4
2025-07-18T01:35	10	0	0.1	0	0	371	0.3	371	372	14.0	87.9
2025-07-18T01:36	10	0	0.1	0	0	372	0.4	371	372	14.0	87.8
2025-07-18T01:37	10	0	0.1	0	0	372	0.3	371	372	14.0	88.1
2025-07-18T01:38	10	0	0.1	0	0	372	0.3	371	372	13.9	88.3
2025-07-18T01:39	10	0	0.1	0	0	372	0.3	371	372	14.0	88.1
2025-07-18T01:40	10	0	0.1	0	0	371	0.3	371	372	14.1	87.6
2025-07-18T01:41	10	0	0.1	0	0	371	0.2	371	372	14.2	87.4
2025-07-18T01:42	10	0	0.1	0	0	371	0.2	370	371	14.3	86.9
2025-07-18T01:43	10	0	0.1	0	0	370	0.3	370	371	14.4	86.3
2025-07-18T01:44	10	0	0.1	0	0	370	0.2	369	370	14.4	86.2
2025-07-18T01:45	10	0	0.1	0	0	369	0.2	369	370	14.4	85.6
2025-07-18T01:46	10	0	0.1	0	0	369	0.3	368	370	14.4	86.0
2025-07-18T01:47	10	0	0.1	0	0	369	0.2	368	369	14.3	86.5
2025-07-18T01:48	10	0	0.1	0	0	369	0.2	368	369	14.3	86.5
2025-07-18T01:49	10	0	0.1	0	0	369	0.2	368	369	14.3	86.3
2025-07-18T01:50	10	0	0.0	0	0	369	0.2	368	369	14.3	86.0
2025-07-18T01:51	10	0	0.1	0	0	369	0.2	368	369	14.3	86.1
2025-07-18T01:52	10	0	0.1	0	0	368	0.2	368	369	14.3	86.1
2025-07-18T01:53	10	0	0.1	0	0	368	0.2	367	368	14.3	86.3
2025-07-18T01:54	10	0	0.1	0	0	368	0.2	367	368	14.2	86.8
2025-07-18T01:55	10	0	0.1	0	0	367	0.2	367	368	14.2	87.1
2025-07-18T01:56	10	0	0.1	0	0	368	0.3	367	368	14.1	87.4
2025-07-18T01:57	10	0	0.1	0	0	367	0.2	367	368	14.2	86.9
2025-07-18T01:58	10	0	0.1	0	0	367	0.3	367	368	14.1	87.4
2025-07-18T01:59	10	0	0.1	0	0	367	0.2	366	368	14.0	88.1
2025-07-18T02:00	10	0	0.1	0	0	367	0.2	367	367	13.8	88.7
2025-07-18T02:01	10	0	0.1	0	0	367	0.3	366	368	13.7	89.1
2025-07-18T02:02	10	0	0.1	0	0	367	0.2	367	368	13.8	88.7
2025-07-18T02:03	10	0	0.1	0	0	367	0.2	367	368	13.8	88.8
2025-07-18T02:04	10	0	0.1	0	0	367	0.2	367	368	13.8	88.9
2025-07-18T02:05	10	0	0.1	0	0	367	0.2	367	368	13.8	88.9
2025-07-18T02:06	10	0	0.1	0	0	367	0.3	366	367	13.8	88.9
2025-07-18T02:07	10	0	0.1	0	0	366	0.2	366	367	13.8	89.2
2025-07-18T02:08	10	0	0.1	0	0	367	0.3	366	367	13.7	89.4
2025-07-18T02:09	10	0	0.1	0	0	366	0.2	366	367	13.8	89.3
2025-07-18T02:10	10	0	0.1	0	0	366	0.2	366	367	13.8	89.1
2025-07-18T02:11	10	0	0.1	0	0	366	0.2	366	367	13.8	89.0
2025-07-18T02:12	10	0	0.1	0	0	367	0.3	366	367	13.9	88.7
2025-07-18T02:13	10	0	0.0	0	0	367	0.2	366	367	14.0	88.1
2025-07-18T02:14	10	0	0.1	0	0	366	0.3	366	367	14.0	87.8
2025-07-18T02:15	10	0	0.0	0	0	366	0.2	366	367	14.0	88.0
2025-07-18T02:16	10	0	0.1	0	0	366	0.2	366	367	14.0	87.8
2025-07-18T02:17	10	0	0.0	0	0	366	0.2	366	367	14.0	87.8
2025-07-18T02:18	10	0	0.0	0	0	366	0.3	366	367	14.0	88.1
2025-07-18T02:19	10	0	0.0	0	0	367	0.3	366	367	14.1	87.5
2025-07-18T02:20	10	0	0.0	0	0	367	0.2	366	367	14.3	86.5
2025-07-18T02:21	10	0	0.0	0	0	367	0.2	366	367	14.4	85.9
2025-07-18T02:22	10	0	0.0	0	0	367	0.2	366	367	14.4	85.6
2025-07-18T02:23	10	0	0.0	0	0	367	0.2	367	368	14.4	85.5
2025-07-18T02:24	10	0	0.0	0	0	367	0.2	366	367	14.4	85.5
2025-07-18T02:25	10	0	0.1	0	0	367	0.2	366	367	14.3	85.7
2025-07-18T02:26	10	0	0.1	0	0	366	0.2	366	367	14.2	86.1
2025-07-18T02:27	10	0	0.1	0	0	366	0.2	366	366	14.2	86.4
2025-07-18T02:28	10	0	0.1	0	0	366	0.2	365	366	14.1	86.7
2025-07-18T02:29	10	0	0.1	0	0	366	0.2	366	367	14.1	86.9
2025-07-18T02:30	10	0	0.1	0	0	366	0.2	366	367	14.0	87.3
2025-07-18T02:31	10	0	0.1	0	0	366	0.2	366	367	13.9	87.6
2025-07-18T02:32	10	0	0.1	0	0	366	0.3	366	367	13.8	88.0
2025-07-18T02:33	10	0	0.1	0	0	366	0.2	366	367	13.8	88.4
2025-07-18T02:34	10	0	0.1	0	0	366	0.2	366	367	13.7	88.7
2025-07-18T02:35	10	0	0.1	0	0	366	0.2	366	367	13.7	88.7
2025-07-18T02:36	10	0	0.1	0	0	367	0.2	366	367	13.6	89.4
2025-07-18T02:37	10	0	0.1	0	0	367	0.2	366	367	13.5	90.0
2025-07-18T02:38	10	0	0.1	0	0	367	0.2	366	367	13.4	90.3
2025-07-18T02:39	10	0	0.1	0	0	366	0.2	366	367	13.4	90.6
2025-07-18T02:40	10	0	0.1	0	0	366	0.2	365	366	13.4	90.8
2025-07-18T02:41	10	0	0.1	0	1	366	0.2	366	366	13.3	91.2
2025-07-18T02:42	10	0	0.1	0	0	366	0.2	365	366	13.3	91.6
2025-07-18T02:43	10	0	0.1	0	0	366	0.3	365	366	13.2	91.8
2025-07-18T02:44	10	0	0.1	0	0	366	0.2	365	366	13.2	91.7
2025-07-18T02:45	10	0	0.1	0	1	366	0.3	365	366	13.2	91.6
2025-07-18T02:46	10	0	0.1	0	0	366	0.2	365	366	13.3	91.3
2025-07-18T02:47	10	0	0.2	-1	0	365	0.3	365	366	13.3	91.3
2025-07-18T02:48	10	0	0.2	0	1	365	0.3	365	366	13.3	91.4
2025-07-18T02:49	10	0	0.1	0	0	365	0.2	365	366	13.2	91.6
2025-07-18T02:50	10	0	0.1	0	0	365	0.3	364	366	13.3	91.8
2025-07-18T02:51	10	0	0.1	0	0	365	0.2	365	366	13.3	91.7
2025-07-18T02:52	10	0	0.1	0	0	365	0.3	364	366	13.4	91.4
2025-07-18T02:53	10	0	0.1	0	0	365	0.3	365	366	13.6	90.3
2025-07-18T02:54	10	0	0.1	0	0	365	0.3	365	366	13.7	89.3
2025-07-18T02:55	10	0	0.2	0	0	365	0.3	365	366	13.7	89.3
2025-07-18T02:56	10	0	0.2	0	0	365	0.3	364	366	13.7	89.2
2025-07-18T02:57	10	0	0.2	0	0	365	0.2	364	366	13.6	89.3
2025-07-18T02:58	10	0	0.1	0	1	365	0.4	364	366	13.6	89.5
2025-07-18T02:59	10	0	0.2	0	1	364	0.3	364	365	13.5	90.1
2025-07-18T03:00	10	0	0.1	0	0	364	0.2	364	365	13.3	90.8
2025-07-18T03:01	10	0	0.2	0	0	365	0.3	364	365	13.2	91.4
2025-07-18T03:02	10	0	0.2	0	0	365	0.3	365	366	13.1	91.1
2025-07-18T03:03	10	0	0.1	0	0	366	0.3	365	367	13.1	91.1
2025-07-18T03:04	10	0	0.2	0	1	366	0.2	366	367	13.1	91.1
2025-07-18T03:05	10	0	0.2	0	1	366	0.3	366	367	13.1	91.2
2025-07-18T03:06	10	0	0.1	0	0	366	0.3	366	367	13.2	90.8
2025-07-18T03:07	10	0	0.1	0	0	366	0.2	365	366	13.2	90.9
2025-07-18T03:08	10	0	0.1	0	0	366	0.4	365	367	13.1	91.1
2025-07-18T03:09	10	0	0.1	0	0	366	0.4	366	367	13.2	91.0
2025-07-18T03:10	10	0	0.2	0	0	366	0.3	366	367	13.2	90.9
2025-07-18T03:11	10	0	0.1	0	0	366	0.3	366	367	13.1	91.1
2025-07-18T03:12	10	0	0.1	0	0	366	0.2	365	366	13.2	91.2
2025-07-18T03:13	10	0	0.1	0	0	366	0.2	365	366	13.2	91.0
2025-07-18T03:14	10	0	0.1	0	0	365	0.2	365	366	13.1	91.0
2025-07-18T03:15	10	0	0.1	0	0	366	0.4	365	367	13.0	91.3
2025-07-18T03:16	10	0	0.1	0	0	366	0.3	366	367	13.3	90.9
2025-07-18T03:17	10	0	0.1	0	0	366	0.2	365	367	13.5	90.1
2025-07-18T03:18	10	0	0.0	0	0	366	0.3	365	367	13.6	89.4
2025-07-18T03:19	10	0	0.1	0	0	366	0.3	366	367	13.7	88.9
2025-07-18T03:20	10	0	0.1	0	0	366	0.2	366	367	13.7	88.7
2025-07-18T03:21	10	0	0.1	0	0	366	0.2	365	366	13.7	88.8
2025-07-18T03:22	10	0	0.1	0	0	366	0.2	366	367	13.7	88.7
2025-07-18T03:23	10	0	0.1	0	0	366	0.3	365	366	13.8	88.7
2025-07-18T03:24	10	0	0.1	0	0	365	0.3	365	366	13.7	88.8
2025-07-18T03:25	10	0	0.0	0	0	365	0.2	365	366	13.8	88.5
2025-07-18T03:26	10	0	0.1	0	0	365	0.2	365	366	13.9	87.9
2025-07-18T03:27	10	0	0.1	0	0	365	0.3	365	366	14.0	87.8
2025-07-18T03:28	10	0	0.1	0	0	365	0.4	364	366	14.0	87.8
2025-07-18T03:29	10	0	0.0	0	0	365	0.2	364	365	13.9	87.9
2025-07-18T03:30	10	0	0.0	0	0	365	0.2	364	365	13.9	87.8
2025-07-18T03:31	10	0	0.1	0	0	365	0.3	364	365	13.9	88.0
2025-07-18T03:32	10	0	0.0	0	0	364	0.2	364	365	13.7	88.6
2025-07-18T03:33	10	0	0.0	0	0	365	0.3	364	366	13.6	89.1
2025-07-18T03:34	10	0	0.0	0	0	365	0.2	365	366	13.6	89.3
2025-07-18T03:35	10	0	0.1	0	0	366	0.3	365	366	13.5	89.6
2025-07-18T03:36	10	0	0.0	0	0	366	0.3	365	367	13.5	89.7
2025-07-18T03:37	10	0	0.0	0	0	366	0.3	365	367	13.5	89.7
2025-07-18T03:38	10	0	0.1	0	0	366	0.3	365	366	13.5	89.8
2025-07-18T03:39	10	0	0.1	0	0	365	0.3	364	366	13.3	90.1
2025-07-18T03:40	10	0	0.1	0	0	365	0.3	364	365	13.2	90.8
2025-07-18T03:41	10	0	0.1	0	1	365	0.2	364	365	13.2	91.1
2025-07-18T03:42	10	0	0.1	0	1	365	0.2	365	365	13.3	91.1
2025-07-18T03:43	10	0	0.1	0	1	364	0.3	364	365	13.3	91.0
2025-07-18T03:44	10	1	0.1	0	1	364	0.3	363	364	13.1	91.1
2025-07-18T03:45	10	1	0.1	0	1	363	0.3	363	364	13.0	91.5
2025-07-18T03:46	10	1	0.1	0	1	363	0.3	363	364	13.0	91.9
2025-07-18T03:47	10	1	0.0	1	1	363	0.2	363	364	13.1	92.2
2025-07-18T03:48	10	1	0.1	0	1	363	0.2	363	364	13.1	92.1
2025-07-18T03:49	10	1	0.1	1	1	363	0.2	363	364	13.1	91.8
2025-07-18T03:50	10	1	0.1	1	1	363	0.2	362	363	13.0	91.7
2025-07-18T03:51	10	1	0.1	1	1	363	0.2	362	363	12.9	92.0
2025-07-18T03:52	10	1	0.1	1	1	363	0.2	362	363	12.9	92.3
2025-07-18T03:53	10	1	0.1	1	1	363	0.2	362	363	12.9	92.4
2025-07-18T03:54	10	1	0.1	1	1	363	0.3	362	363	12.9	92.5
2025-07-18T03:55	10	1	0.1	1	1	363	0.5	363	364	12.9	92.4
2025-07-18T03:56	10	1	0.1	1	1	364	0.3	364	365	13.0	92.7
2025-07-18T03:57	10	1	0.1	1	1	364	0.3	364	365	13.0	92.5
2025-07-18T03:58	10	1	0.1	1	1	365	0.2	364	365	13.0	92.5
2025-07-18T03:59	10	1	0.1	1	1	365	0.2	364	365	13.0	92.6
2025-07-18T04:00	10	1	0.1	1	1	365	0.3	364	366	12.9	92.7
2025-07-18T04:01	10	1	0.1	1	1	364	0.3	364	365	12.8	92.9
2025-07-18T04:02	10	1	0.1	1	1	364	0.2	364	365	12.8	93.1
2025-07-18T04:03	10	1	0.1	1	2	364	0.2	364	365	12.7	93.4
2025-07-18T04:04	10	2	0.1	1	2	364	0.3	363	364	12.7	93.7
2025-07-18T04:05	10	2	0.1	1	2	364	0.2	363	364	12.7	93.8
2025-07-18T04:06	10	2	0.1	2	2	364	0.3	363	364	12.7	93.7
2025-07-18T04:07	10	2	0.1	2	2	364	0.2	363	364	12.7	93.7
2025-07-18T04:08	10	2	0.1	2	2	364	0.3	363	364	12.7	93.7
2025-07-18T04:09	10	2	0.1	2	3	364	0.3	363	365	12.6	93.8
2025-07-18T04:10	10	3	0.1	2	3	364	0.2	364	365	12.6	93.8
2025-07-18T04:11	10	3	0.1	3	3	364	0.2	364	365	12.6	93.8
2025-07-18T04:12	10	3	0.1	3	3	364	0.2	364	365	12.6	93.4
2025-07-18T04:13	10	3	0.1	3	4	364	0.2	364	365	12.6	93.2
2025-07-18T04:14	10	4	0.1	3	4	364	0.3	364	365	12.6	92.9
2025-07-18T04:15	10	4	0.2	4	4	365	0.4	364	365	12.8	92.6
2025-07-18T04:16	10	5	0.2	4	5	365	0.4	364	366	12.8	92.3
2025-07-18T04:17	10	5	0.2	5	6	365	0.4	364	366	12.9	92.0
2025-07-18T04:18	10	6	0.1	5	6	366	0.3	365	367	13.0	91.5
2025-07-18T04:19	10	5	0.1	5	6	366	0.3	366	367	13.1	91.1
2025-07-18T04:20	10	6	0.1	5	6	367	0.4	366	368	13.2	90.8
2025-07-18T04:21	10	6	0.2	6	7	368	0.3	368	369	13.2	90.7
2025-07-18T04:22	10	7	0.2	6	7	369	0.4	368	370	13.3	90.7
2025-07-18T04:23	10	7	0.1	7	7	370	0.3	369	370	13.2	90.9
2025-07-18T04:24	10	7	0.1	7	7	370	0.2	369	370	13.2	91.2
2025-07-18T04:25	10	7	0.1	7	8	370	0.2	369	371	13.2	91.3
2025-07-18T04:26	10	7	0.2	6	7	370	0.2	369	370	13.2	91.2
2025-07-18T04:27	10	6	0.3	5	7	370	0.3	369	370	13.1	91.2
2025-07-18T04:28	10	5	0.1	5	6	370	0.2	369	370	13.1	91.3
2025-07-18T04:29	10	5	0.1	5	5	370	0.2	370	371	13.3	91.0
2025-07-18T04:30	10	5	0.1	5	6	371	0.2	370	371	13.2	90.8
2025-07-18T04:31	10	6	0.2	6	6	371	0.3	370	371	13.2	90.7
2025-07-18T04:32	10	7	0.3	6	7	371	0.2	371	372	13.3	90.5
2025-07-18T04:33	10	8	0.4	7	8	371	0.2	370	371	13.3	90.3
2025-07-18T04:34	10	9	0.5	8	10	371	0.3	371	372	13.3	90.2
2025-07-18T04:35	10	11	0.6	10	12	372	0.2	371	372	13.4	90.0
2025-07-18T04:36	10	12	0.2	11	12	372	0.2	371	372	13.4	89.9
2025-07-18T04:37	10	11	0.3	10	12	372	0.2	371	372	13.4	89.7
2025-07-18T04:38	10	10	0.2	10	11	372	0.2	372	372	13.4	89.6
2025-07-18T04:39	10	9	0.4	9	10	372	0.2	372	373	13.5	89.4
2025-07-18T04:40	10	9	0.2	9	10	372	0.2	372	373	13.6	88.7
2025-07-18T04:41	10	10	0.3	9	11	372	0.2	372	373	13.7	88.3
2025-07-18T04:42	10	12	0.5	11	12	373	0.2	373	374	13.7	88.2
2025-07-18T04:43	10	12	0.1	12	12	373	0.3	373	374	13.7	88.3
2025-07-18T04:44	10	13	0.5	12	14	373	0.3	373	374	13.7	88.2
2025-07-18T04:45	10	17	1.5	14	19	374	0.3	374	375	13.7	88.2
2025-07-18T04:46	10	21	0.6	19	21	375	0.2	374	375	13.8	88.2
2025-07-18T04:47	10	21	0.4	20	21	376	0.2	375	376	13.7	88.6
2025-07-18T04:48	10	20	0.2	19	20	376	0.3	376	377	13.7	88.6
2025-07-18T04:49	10	21	0.3	20	21	377	0.2	377	378	13.7	88.3
2025-07-18T04:50	10	24	1.7	21	27	378	0.5	377	379	13.8	88.3
2025-07-18T04:51	10	30	1.8	27	33	379	0.4	378	379	13.7	88.8
2025-07-18T04:52	10	33	0.3	33	34	380	0.5	379	381	13.7	89.2
2025-07-18T04:53	10	34	0.3	34	35	381	0.4	380	382	13.8	88.8
2025-07-18T04:54	10	35	0.4	35	36	382	0.4	381	383	13.9	88.2
2025-07-18T04:55	10	35	0.2	35	36	383	0.2	383	384	14.0	87.9
2025-07-18T04:56	10	37	0.8	36	38	384	0.2	384	385	14.1	86.9
2025-07-18T04:57	10	39	0.4	38	39	385	0.4	384	385	14.2	87.0
2025-07-18T04:58	10	40	0.2	39	40	386	0.2	385	386	14.3	86.3
2025-07-18T04:59	10	41	0.5	40	42	386	0.3	386	387	14.3	86.6
2025-07-18T05:00	10	41	0.5	41	42	387	0.3	386	387	14.4	86.0
2025-07-18T05:01	10	43	1.2	41	44	388	0.2	387	388	14.4	86.8
2025-07-18T05:02	10	45	0.3	44	45	388	0.2	388	389	14.4	87.3
2025-07-18T05:03	10	46	0.3	45	46	388	0.2	388	389	14.4	85.0
2025-07-18T05:04	10	46	0.2	46	47	389	0.2	388	389	14.5	84.6
2025-07-18T05:05	10	47	0.3	47	48	389	0.3	388	390	14.5	85.3
2025-07-18T05:06	10	48	0.2	48	48	389	0.2	389	389	14.5	84.9
2025-07-18T05:07	10	47	2.4	41	49	389	0.3	389	390	14.6	84.9
2025-07-18T05:08	10	35	2.3	33	41	389	0.5	388	390	14.6	84.7
2025-07-18T05:09	10	31	1.7	28	34	388	0.4	387	389	14.6	84.6
2025-07-18T05:10	10	25	1.7	22	28	387	0.5	386	388	14.6	85.6
2025-07-18T05:11	10	22	0.3	21	22	387	0.3	386	387	14.6	86.3
2025-07-18T05:12	10	21	0.2	21	22	387	0.3	386	387	14.6	86.8
2025-07-18T05:13	10	22	0.8	21	24	386	0.2	386	387	14.6	85.9
2025-07-18T05:14	10	26	1.9	24	30	387	0.3	386	387	14.6	86.1
2025-07-18T05:15	10	33	1.1	30	34	387	0.3	386	387	14.6	85.4
2025-07-18T05:16	10	30	1.2	28	32	387	0.2	387	388	14.7	85.4
2025-07-18T05:17	10	26	0.5	25	28	387	0.3	386	388	14.7	85.8
2025-07-18T05:18	10	25	0.4	24	26	387	0.3	386	387	14.7	85.4
2025-07-18T05:19	10	26	1.5	24	29	387	0.3	386	387	14.7	85.1
2025-07-18T05:20	10	29	1.2	26	30	387	0.2	386	387	14.7	85.2
2025-07-18T05:21	10	23	1.2	22	26	387	0.4	386	388	14.8	85.0
2025-07-18T05:22	10	24	0.7	23	25	387	0.2	386	387	14.8	84.7
2025-07-18T05:23	10	25	0.2	25	26	387	0.2	386	387	14.8	84.9
2025-07-18T05:24	10	24	1.1	22	25	387	0.2	386	387	14.8	85.3
2025-07-18T05:25	10	19	1.2	17	22	386	0.3	386	387	14.8	85.8
2025-07-18T05:26	10	17	0.2	17	18	386	0.4	385	387	14.8	85.5
2025-07-18T05:27	10	20	1.9	18	23	386	0.2	385	386	14.8	84.6
2025-07-18T05:28	10	25	0.9	23	27	386	0.3	385	387	14.8	85.3
2025-07-18T05:29	10	29	0.9	27	30	386	0.4	385	387	14.9	84.5
2025-07-18T05:30	10	26	0.9	25	28	387	0.2	386	387	14.9	84.1
2025-07-18T05:31	10	24	2.9	18	27	387	0.3	386	387	15.0	83.9
2025-07-18T05:32	10	17	0.5	16	19	386	0.5	385	387	15.0	85.7
2025-07-18T05:33	10	15	0.7	14	16	385	0.4	384	386	14.9	85.7
2025-07-18T05:34	10	13	0.5	12	14	384	0.4	384	385	14.9	85.9
2025-07-18T05:35	10	12	0.1	12	13	384	0.4	383	384	14.7	86.5
2025-07-18T05:36	10	12	0.1	12	13	383	0.3	383	384	14.7	86.7
2025-07-18T05:37	10	12	0.1	12	12	383	0.2	383	383	14.6	86.7
2025-07-18T05:38	10	12	0.1	12	12	382	0.3	382	383	14.6	86.9
2025-07-18T05:39	10	12	0.1	12	12	382	0.2	382	383	14.6	87.1
2025-07-18T05:40	10	12	0.1	12	13	382	0.2	382	383	14.6	87.3
2025-07-18T05:41	10	13	0.3	13	13	382	0.3	382	383	14.6	87.2
2025-07-18T05:42	10	13	0.2	13	13	382	0.2	382	383	14.6	87.1
2025-07-18T05:43	10	13	0.1	13	13	383	0.2	382	383	14.6	87.1
2025-07-18T05:44	10	13	0.2	13	13	383	0.2	382	383	14.6	87.1
2025-07-18T05:45	10	14	0.6	13	15	383	0.3	382	383	14.6	87.0
2025-07-18T05:46	10	17	1.2	15	19	383	0.3	383	384	14.6	86.8
2025-07-18T05:47	10	21	2.3	19	27	384	0.5	383	385	14.6	86.7
2025-07-18T05:48	10	31	1.2	27	32	386	0.6	384	386	14.6	86.7
2025-07-18T05:49	10	28	3.3	23	32	386	0.3	385	387	14.6	86.3
2025-07-18T05:50	10	31	6.3	23	43	387	0.6	386	388	14.7	86.1
2025-07-18T05:51	10	47	1.4	43	49	389	0.9	387	390	14.8	85.1
2025-07-18T05:52	10	45	1.8	43	48	390	0.4	389	391	14.8	85.3
2025-07-18T05:53	10	45	1.3	42	47	391	0.2	391	392	14.9	85.6
2025-07-18T05:54	10	45	1.9	42	47	391	0.2	391	392	14.9	85.0
2025-07-18T05:55	10	45	2.9	41	49	392	0.3	391	392	15.0	85.1
2025-07-18T05:56	10	42	2.1	39	45	392	0.2	391	393	15.0	86.6
2025-07-18T05:57	10	37	3.1	33	43	392	0.5	391	393	15.0	86.0
2025-07-18T05:58	10	57	7.8	42	67	393	0.8	391	394	15.1	86.8
2025-07-18T05:59	10	40	2.1	35	43	392	0.4	392	393	15.0	85.8
2025-07-18T06:00	10	39	5.0	33	47	392	0.3	391	392	15.0	85.9
2025-07-18T06:01	10	44	2.1	41	48	392	0.3	392	393	15.1	84.8
2025-07-18T06:02	10	56	3.3	48	59	393	0.7	392	394	15.1	83.4
2025-07-18T06:03	10	61	0.9	59	63	395	0.5	393	395	15.2	84.0
2025-07-18T06:04	10	61	1.3	60	64	396	0.3	395	397	15.2	84.1
2025-07-18T06:05	10	66	1.0	64	69	397	0.5	396	398	15.3	85.7
2025-07-18T06:06	10	70	0.5	69	71	398	0.4	397	399	15.3	85.3
2025-07-18T06:07	10	67	2.9	63	71	399	0.4	398	399	15.4	84.3
2025-07-18T06:08	10	58	5.3	51	67	398	0.6	397	399	15.5	83.3
2025-07-18T06:09	10	53	1.0	50	54	397	0.3	397	398	15.6	82.9
2025-07-18T06:10	10	57	6.1	49	64	397	0.5	396	398	15.6	82.1
2025-07-18T06:11	10	65	1.4	63	67	398	0.5	397	399	15.6	82.7
2025-07-18T06:12	10	68	1.3	67	72	399	0.3	398	400	15.7	83.1
2025-07-18T06:13	10	76	2.1	72	79	400	0.5	400	401	15.8	82.6
2025-07-18T06:14	10	77	1.5	74	80	401	0.2	401	402	15.8	81.2
2025-07-18T06:15	10	71	1.5	69	74	401	0.4	400	402	15.8	80.6
2025-07-18T06:16	10	71	1.1	69	72	401	0.2	401	402	15.9	81.0
2025-07-18T06:17	10	63	8.1	48	72	401	0.6	400	403	15.9	81.2
2025-07-18T06:18	10	55	7.6	47	67	400	0.4	399	401	15.9	81.8
2025-07-18T06:19	10	70	1.1	67	71	401	0.5	400	402	16.0	80.6
2025-07-18T06:20	10	71	0.8	70	72	402	0.3	402	403	16.0	81.5
2025-07-18T06:21	10	75	5.1	69	82	403	0.6	403	405	16.1	81.1
2025-07-18T06:22	10	82	0.9	81	85	405	0.3	404	405	16.1	80.3
2025-07-18T06:23	10	85	1.2	82	87	405	0.3	405	406	16.1	80.4
2025-07-18T06:24	10	84	1.1	82	86	406	0.3	405	406	16.1	79.4
2025-07-18T06:25	10	78	2.1	74	84	405	0.4	405	406	16.2	79.2
2025-07-18T06:26	10	78	4.6	73	87	405	0.3	405	406	16.2	79.3
2025-07-18T06:27	10	82	2.0	80	87	406	0.3	405	407	16.2	78.6
2025-07-18T06:28	10	79	1.3	76	80	406	0.2	406	407	16.3	78.4
2025-07-18T06:29	10	73	1.0	72	75	406	0.5	405	407	16.5	78.5
2025-07-18T06:30	10	74	6.2	67	85	405	0.4	405	406	16.5	77.6
2025-07-18T06:31	10	81	3.0	76	85	407	0.5	406	408	16.7	77.1
2025-07-18T06:32	10	77	1.5	75	79	408	0.2	408	409	17.0	76.5
2025-07-18T06:33	10	71	3.6	67	77	408	0.5	407	409	17.0	77.1
2025-07-18T06:34	10	75	3.8	68	80	407	0.3	407	408	16.8	76.7
2025-07-18T06:35	10	75	2.4	72	79	408	0.3	407	408	16.8	77.2
2025-07-18T06:36	10	72	1.2	69	73	407	0.2	407	408	16.9	76.0
2025-07-18T06:37	10	67	1.1	65	69	407	0.4	406	408	17.0	75.5
2025-07-18T06:38	10	71	2.5	67	75	407	0.3	406	408	17.0	75.2
2025-07-18T06:39	10	76	2.4	73	82	408	0.3	407	409	17.0	75.1
2025-07-18T06:40	10	83	1.0	81	85	409	0.3	408	410	17.2	74.8
2025-07-18T06:41	10	78	1.5	76	81	410	0.3	409	410	17.4	75.3
2025-07-18T06:42	10	81	1.0	80	83	411	0.3	410	411	17.2	75.9
2025-07-18T06:43	10	84	1.4	82	86	412	0.3	411	412	17.2	76.3
2025-07-18T06:44	10	89	1.2	86	91	412	0.4	411	413	17.2	74.8
2025-07-18T06:45	10	89	0.8	88	91	413	0.4	412	414	17.5	74.8
2025-07-18T06:46	10	88	0.6	87	89	414	0.3	413	415	17.4	75.1
2025-07-18T06:47	10	89	0.4	88	90	414	0.2	413	414	17.4	73.7
2025-07-18T06:48	10	92	1.1	90	93	414	0.3	413	414	17.3	72.1
2025-07-18T06:49	10	93	0.2	93	94	414	0.3	414	415	17.6	71.4
2025-07-18T06:50	10	96	0.8	94	97	415	0.2	415	416	17.7	72.3
2025-07-18T06:51	10	96	0.2	96	97	415	0.2	415	416	17.7	70.5
2025-07-18T06:52	10	98	1.2	96	99	416	0.2	415	416	17.8	71.1
2025-07-18T06:53	10	98	0.7	97	100	416	0.2	416	417	17.6	71.9
2025-07-18T06:54	10	97	0.7	96	99	416	0.3	416	417	17.5	70.1
2025-07-18T06:55	10	93	1.3	92	96	417	0.3	416	418	17.5	70.7
2025-07-18T06:56	10	96	3.3	93	101	417	0.3	416	418	17.5	70.5
2025-07-18T06:57	10	99	0.8	97	100	418	0.2	417	418	17.5	71.2
2025-07-18T06:58	10	96	1.7	94	101	417	0.2	417	418	17.5	72.1
2025-07-18T06:59	10	100	0.7	99	101	418	0.3	417	419	17.6	73.3
2025-07-18T07:00	10	99	0.4	98	100	419	0.2	418	419	17.8	71.9
2025-07-18T07:01	10	99	0.7	98	100	419	0.3	418	419	18.0	71.7
2025-07-18T07:02	10	98	0.4	98	99	419	0.3	418	420	18.0	71.5
2025-07-18T07:03	10	99	1.7	97	102	419	0.3	418	420	17.8	72.0
2025-07-18T07:04	10	96	1.6	94	101	419	0.3	419	420	17.8	73.2
2025-07-18T07:05	10	102	1.8	100	106	420	0.4	419	421	17.6	72.4
2025-07-18T07:06	10	104	1.8	100	107	421	0.3	420	422	17.6	73.2
2025-07-18T07:07	10	99	0.9	98	101	421	0.3	420	421	17.6	72.0
2025-07-18T07:08	10	100	1.4	98	103	421	0.5	421	422	17.7	72.2
2025-07-18T07:09	10	100	2.1	98	104	421	0.3	421	422	17.7	71.5
2025-07-18T07:10	10	108	2.2	104	110	423	0.7	421	424	17.6	71.8
2025-07-18T07:11	10	110	0.3	109	110	423	0.2	423	424	17.7	71.5
2025-07-18T07:12	10	108	0.7	107	109	424	0.2	423	424	18.0	71.3
2025-07-18T07:13	10	103	2.6	99	107	423	0.4	423	424	18.2	69.6
2025-07-18T07:14	10	101	1.3	99	102	423	0.2	423	424	18.2	70.1
2025-07-18T07:15	10	103	2.6	99	107	424	0.5	423	425	18.3	71.2
2025-07-18T07:16	10	108	0.8	107	109	423	0.3	423	424	17.9	70.7
2025-07-18T07:17	10	107	2.4	103	111	424	0.2	423	424	17.9	70.5
2025-07-18T07:18	10	112	1.5	110	114	425	0.5	424	426	18.0	70.7
2025-07-18T07:19	10	109	2.3	106	113	425	0.3	425	426	18.0	70.3
2025-07-18T07:20	10	107	0.8	104	107	425	0.3	424	426	18.0	70.6
2025-07-18T07:21	10	99	1.6	96	103	425	0.5	424	426	18.0	70.4
2025-07-18T07:22	10	87	4.3	83	95	424	1.0	422	425	18.1	70.5
2025-07-18T07:23	10	90	3.0	83	94	423	0.3	422	424	18.1	69.1
2025-07-18T07:24	10	89	2.4	83	92	423	0.3	423	424	18.2	69.4
2025-07-18T07:25	10	84	1.6	79	85	423	0.3	423	424	18.4	68.8
2025-07-18T07:26	10	78	5.5	71	90	422	0.5	422	424	18.5	68.3
2025-07-18T07:27	10	93	1.3	90	95	424	0.8	422	425	18.4	68.2
2025-07-18T07:28	10	94	3.1	89	98	424	0.4	423	425	18.3	68.7
2025-07-18T07:29	10	96	0.5	95	97	424	0.4	423	425	18.2	69.0
2025-07-18T07:30	10	92	1.1	90	94	424	0.4	424	425	18.3	68.3
2025-07-18T07:31	10	96	1.8	93	100	425	0.4	424	426	18.2	68.7
2025-07-18T07:32	10	98	1.8	95	101	425	0.3	425	426	18.1	68.7
2025-07-18T07:33	10	97	1.3	95	99	425	0.3	425	426	18.2	68.8
2025-07-18T07:34	10	99	1.7	96	101	426	0.2	426	426	18.3	68.6
2025-07-18T07:35	10	100	1.6	98	103	427	0.4	426	428	18.4	68.3
2025-07-18T07:36	10	100	1.6	97	102	426	0.3	426	427	18.3	67.5
2025-07-18T07:37	10	104	1.0	102	105	427	0.2	426	427	18.3	67.7
2025-07-18T07:38	10	105	0.8	104	107	427	0.3	426	427	18.2	67.5
2025-07-18T07:39	10	110	1.1	107	111	428	1.0	427	430	18.3	67.3
2025-07-18T07:40	10	113	1.4	110	115	430	0.5	429	431	18.7	68.2
2025-07-18T07:41	10	117	0.5	115	117	430	0.4	429	430	18.7	67.4
2025-07-18T07:42	10	118	0.4	117	119	429	0.3	429	430	18.5	67.4
2025-07-18T07:43	10	118	1.2	115	120	430	0.5	430	431	18.4	67.6
2025-07-18T07:44	10	118	1.7	114	120	431	0.3	430	432	18.5	67.1
2025-07-18T07:45	10	121	0.6	120	122	431	0.7	430	433	18.4	67.4
2025-07-18T07:46	10	121	0.3	121	122	433	0.3	432	434	18.4	67.9
2025-07-18T07:47	10	122	0.3	121	122	434	0.6	433	435	18.5	68.1
2025-07-18T07:48	10	122	0.3	121	123	435	0.9	433	437	19.1	67.4
2025-07-18T07:49	10	123	0.3	122	124	432	0.7	431	434	18.9	65.6
2025-07-18T07:50	10	123	0.2	123	124	434	1.5	431	436	18.8	66.4
2025-07-18T07:51	10	124	0.2	123	124	435	0.5	434	436	19.0	65.0
2025-07-18T07:52	10	124	0.3	123	124	437	0.5	435	438	19.3	65.4
2025-07-18T07:53	10	124	0.4	123	124	437	0.4	437	438	19.3	65.4
2025-07-18T07:54	10	124	0.4	123	125	438	1.2	435	440	19.3	65.9
2025-07-18T07:55	10	125	0.4	124	126	435	0.6	433	436	18.8	65.5
2025-07-18T07:56	10	125	0.6	124	126	436	1.3	434	438	18.9	66.1
2025-07-18T07:57	10	126	0.1	126	126	437	0.8	436	438	18.9	65.3
2025-07-18T07:58	10	126	0.2	126	127	435	1.3	433	437	19.0	65.7
2025-07-18T07:59	10	127	0.1	127	127	435	1.3	434	438	18.9	65.5
2025-07-18T08:00	10	127	0.2	127	127	438	0.5	437	440	19.2	65.6
2025-07-18T08:01	10	128	0.2	127	128	440	0.9	438	441	19.2	65.2
2025-07-18T08:02	10	128	0.2	128	128	440	0.5	439	441	19.3	65.4
2025-07-18T08:03	10	129	0.1	128	129	439	0.4	438	440	19.4	65.1
2025-07-18T08:04	10	129	0.2	129	129	440	0.4	439	441	19.3	65.2
2025-07-18T08:05	10	129	0.1	129	130	441	0.3	440	441	19.6	64.2
2025-07-18T08:06	10	130	0.1	129	130	442	0.6	441	443	19.6	64.1
2025-07-18T08:07	10	130	0.2	130	130	442	0.6	440	443	19.4	63.7
2025-07-18T08:08	10	130	0.1	130	131	443	0.5	442	444	19.5	65.6
2025-07-18T08:09	10	131	0.1	130	131	444	0.6	443	445	19.6	64.8
2025-07-18T08:10	10	131	0.1	131	131	442	0.4	442	443	19.5	64.4
2025-07-18T08:11	10	131	0.2	131	132	443	0.6	443	444	19.6	64.4
2025-07-18T08:12	10	132	0.2	131	132	444	0.6	443	445	19.7	64.6
2025-07-18T08:13	10	132	0.1	132	132	445	1.1	443	447	20.0	64.8
2025-07-18T08:14	10	133	0.2	132	133	444	1.5	442	448	19.8	63.4
2025-07-18T08:15	10	133	0.1	132	133	445	0.5	444	446	19.6	64.2
2025-07-18T08:16	10	133	0.1	133	133	444	0.6	443	445	19.4	64.0
2025-07-18T08:17	10	133	0.1	133	134	444	0.4	443	445	19.6	63.9
2025-07-18T08:18	10	134	0.2	133	134	444	0.4	443	445	19.8	63.1
2025-07-18T08:19	10	134	0.1	134	134	446	0.8	444	447	19.7	63.3
2025-07-18T08:20	10	134	0.1	134	135	447	0.6	446	448	19.7	63.5
2025-07-18T08:21	10	135	0.2	134	135	448	0.7	446	449	19.9	63.2
2025-07-18T08:22	10	135	0.2	135	136	447	0.6	446	448	19.9	61.6
2025-07-18T08:23	10	136	0.1	135	136	447	0.5	447	449	19.9	61.7
2025-07-18T08:24	10	136	0.2	136	137	448	0.4	447	449	20.1	61.9
2025-07-18T08:25	10	137	0.1	136	137	448	0.8	447	450	20.0	61.2
2025-07-18T08:26	10	137	0.1	137	137	450	0.3	449	450	20.2	60.3
2025-07-18T08:27	10	137	0.1	137	138	450	0.2	450	451	20.2	61.0
2025-07-18T08:28	10	138	0.1	137	138	451	0.4	450	452	20.3	61.1
2025-07-18T08:29	10	138	0.1	138	138	450	0.4	449	451	20.5	60.6
2025-07-18T08:30	10	138	0.1	138	138	447	0.8	446	449	20.0	60.5
2025-07-18T08:31	10	138	0.2	138	139	446	0.5	445	447	19.8	61.1
2025-07-18T08:32	10	139	0.2	138	139	448	0.5	447	449	20.0	61.0
2025-07-18T08:33	10	138	0.7	137	139	450	1.0	448	451	20.0	60.9
2025-07-18T08:34	10	139	0.3	138	140	451	0.6	450	453	20.3	61.0
2025-07-18T08:35	10	140	0.3	139	140	452	0.4	451	452	20.2	59.7
2025-07-18T08:36	10	140	0.1	140	140	453	0.6	452	454	20.3	61.0
2025-07-18T08:37	10	140	0.1	140	141	455	0.4	454	455	20.7	59.9
2025-07-18T08:38	10	141	0.2	140	141	455	0.3	454	455	20.7	58.5
2025-07-18T08:39	10	141	0.3	140	141	456	0.4	455	457	21.0	59.0
2025-07-18T08:40	10	141	0.2	141	141	454	1.4	452	457	20.8	58.5
2025-07-18T08:41	10	140	0.8	139	141	451	2.0	448	455	20.3	59.5
2025-07-18T08:42	10	138	0.6	137	139	451	1.0	449	453	20.2	60.2
2025-07-18T08:43	10	139	0.4	138	140	450	1.7	447	453	20.2	59.8
2025-07-18T08:44	10	140	0.6	138	141	450	1.2	448	452	20.0	60.2
2025-07-18T08:45	10	140	0.1	140	141	452	0.5	451	453	20.3	60.2
2025-07-18T08:46	10	140	0.3	140	141	453	0.7	452	455	20.5	59.8
2025-07-18T08:47	10	141	0.3	141	142	454	0.7	453	455	20.4	59.6
2025-07-18T08:48	10	143	0.6	142	143	455	0.8	453	456	20.4	59.3
2025-07-18T08:49	10	144	0.1	143	144	453	0.8	452	454	20.4	59.6
2025-07-18T08:50	10	144	0.1	144	144	452	0.5	451	453	20.3	59.3
2025-07-18T08:51	10	144	0.2	144	144	455	1.2	453	457	20.4	59.5
2025-07-18T08:52	10	145	0.1	144	145	455	0.6	455	457	20.6	58.7
2025-07-18T08:53	10	145	0.2	145	146	458	0.7	457	459	20.8	59.8
2025-07-18T08:54	10	146	0.2	146	146	458	1.3	456	460	20.7	58.2
2025-07-18T08:55	10	147	0.2	146	147	458	0.6	457	459	20.6	58.3
2025-07-18T08:56	10	148	0.3	147	148	457	0.9	455	458	20.6	58.8
2025-07-18T08:57	10	149	0.3	148	149	456	0.5	455	457	20.5	59.1
2025-07-18T08:58	10	151	1.0	147	152	458	1.1	456	459	20.8	59.3
2025-07-18T08:59	10	144	2.1	140	148	459	0.6	458	460	20.9	58.3
2025-07-18T09:00	10	137	5.9	123	144	458	1.2	455	459	20.7	59.1
2025-07-18T09:01	10	118	4.3	108	124	453	1.7	450	456	20.9	59.0
2025-07-18T09:02	10	115	8.8	94	129	451	1.9	447	453	20.8	59.1
2025-07-18T09:03	10	111	8.8	94	133	447	0.7	446	449	20.6	59.6
2025-07-18T09:04	10	147	4.8	134	154	454	2.8	448	458	20.5	59.7
2025-07-18T09:05	10	154	0.4	152	154	459	1.3	456	461	20.8	59.7
2025-07-18T09:06	10	152	3.0	145	155	461	0.3	461	462	21.0	58.5
2025-07-18T09:07	10	145	8.2	129	155	461	0.9	460	462	21.2	58.1
2025-07-18T09:08	10	131	7.2	117	140	459	0.9	457	460	21.4	56.9
2025-07-18T09:09	10	127	9.6	115	144	458	1.1	456	460	21.3	57.1
2025-07-18T09:10	10	138	7.7	126	153	459	0.7	457	461	21.6	57.8
2025-07-18T09:11	10	153	0.8	151	154	462	0.7	460	463	21.6	57.5
2025-07-18T09:12	10	151	0.3	151	152	461	0.3	461	462	21.5	57.1
2025-07-18T09:13	10	151	0.1	151	151	461	1.2	458	462	21.4	57.3
2025-07-18T09:14	10	151	0.2	151	151	458	0.6	457	460	20.9	58.0
2025-07-18T09:15	10	151	0.2	151	151	459	0.6	458	461	21.0	58.1
2025-07-18T09:16	10	151	0.2	151	151	461	1.3	459	463	21.0	58.4
2025-07-18T09:17	10	151	0.3	150	152	464	0.5	463	465	21.3	57.9
2025-07-18T09:18	10	151	0.3	150	152	462	1.2	460	464	21.2	57.5
2025-07-18T09:19	10	151	0.3	151	152	460	0.5	460	461	21.2	57.4
2025-07-18T09:20	10	152	0.3	151	152	462	0.3	462	463	21.1	57.3
2025-07-18T09:21	10	152	0.1	151	152	464	0.8	463	466	21.3	58.6
2025-07-18T09:22	10	152	0.2	151	152	466	0.6	464	467	21.6	56.6
2025-07-18T09:23	10	152	0.3	151	153	464	0.4	463	465	21.6	56.0
2025-07-18T09:24	10	152	0.3	151	152	465	0.5	464	466	21.9	56.2
2025-07-18T09:25	10	152	0.3	151	152	466	0.7	465	467	21.7	55.6
2025-07-18T09:26	10	152	0.3	151	153	466	0.4	466	467	21.8	55.7
2025-07-18T09:27	10	153	0.2	152	153	466	0.5	465	467	21.7	56.2
2025-07-18T09:28	10	153	0.3	152	154	466	0.6	465	468	21.6	56.7
2025-07-18T09:29	10	154	0.1	153	154	466	1.0	464	467	21.5	56.9
2025-07-18T09:30	10	154	0.1	153	154	465	0.5	464	466	21.4	56.5
2025-07-18T09:31	10	154	0.2	154	154	465	1.0	464	467	21.4	55.8
2025-07-18T09:32	10	154	0.2	154	154	466	0.3	466	467	21.5	55.3
2025-07-18T09:33	10	154	0.1	154	155	465	0.3	464	466	21.3	55.2
2025-07-18T09:34	10	154	0.1	154	154	466	0.5	464	467	21.4	56.2
2025-07-18T09:35	10	154	0.2	154	155	467	0.9	466	469	21.5	55.4
2025-07-18T09:36	10	155	0.2	154	155	470	0.3	469	471	21.9	56.3
2025-07-18T09:37	10	155	0.2	155	156	471	0.3	470	472	22.0	55.0
2025-07-18T09:38	10	156	0.2	156	156	471	0.3	470	472	22.4	56.4
2025-07-18T09:39	10	156	0.2	156	157	472	0.6	471	473	22.6	55.3
2025-07-18T09:40	10	157	0.1	156	157	470	1.6	468	473	22.0	54.6
2025-07-18T09:41	10	157	0.2	156	157	469	0.5	468	470	21.6	55.2
2025-07-18T09:42	10	157	0.2	156	157	471	0.5	470	472	22.0	56.0
2025-07-18T09:43	10	157	0.1	157	158	472	0.3	471	472	22.4	55.3
2025-07-18T09:44	10	157	0.1	157	158	472	0.3	471	473	22.5	55.2
2025-07-18T09:45	10	158	0.2	157	158	473	0.4	472	474	22.8	55.0
2025-07-18T09:46	10	158	0.2	158	159	472	1.2	470	474	22.6	54.0
2025-07-18T09:47	10	158	0.1	158	158	469	0.7	467	470	21.9	54.2
2025-07-18T09:48	10	158	0.1	158	158	468	1.8	466	471	21.9	54.4
2025-07-18T09:49	10	158	0.1	158	158	466	0.6	465	467	21.7	54.9
2025-07-18T09:50	10	158	0.1	158	158	466	0.5	465	467	21.6	54.9
2025-07-18T09:51	10	158	0.2	158	159	468	0.8	467	469	22.0	55.1
2025-07-18T09:52	10	159	0.2	158	159	468	0.8	466	470	21.9	55.0
2025-07-18T09:53	10	159	0.2	159	159	469	0.6	468	470	22.0	54.8
2025-07-18T09:54	10	159	0.2	159	160	470	1.5	468	473	22.2	55.0
2025-07-18T09:55	10	160	0.2	159	160	473	1.1	470	474	22.6	55.3
2025-07-18T09:56	10	160	0.2	160	160	472	1.3	470	475	22.6	53.5
2025-07-18T09:57	10	160	0.1	160	160	475	0.6	474	477	22.9	53.6
2025-07-18T09:58	10	160	0.2	160	161	475	0.6	474	476	22.7	53.5
2025-07-18T09:59	10	160	0.1	160	161	475	0.9	473	476	22.7	53.9
2025-07-18T10:00	10	161	0.1	161	161	475	0.6	474	476	22.5	53.6
2025-07-18T10:01	10	161	0.1	161	161	475	1.0	473	477	22.7	53.4
2025-07-18T10:02	10	161	0.1	161	161	471	1.1	469	473	22.4	52.8
2025-07-18T10:03	10	161	0.1	161	161	471	1.1	469	473	22.1	52.6
2025-07-18T10:04	10	162	0.1	161	162	474	0.3	473	474	22.1	53.0
2025-07-18T10:05	10	162	0.1	162	162	473	0.4	472	474	22.3	52.9
2025-07-18T10:06	10	162	0.1	162	162	475	0.9	473	477	22.3	52.9
2025-07-18T10:07	10	162	0.1	162	163	475	1.2	473	477	22.3	51.2
2025-07-18T10:08	10	163	0.1	162	163	474	0.6	473	475	22.3	53.0
2025-07-18T10:09	10	163	0.1	163	163	476	0.5	475	477	22.3	53.0
2025-07-18T10:10	10	163	0.1	163	163	477	0.3	476	478	22.3	53.0
2025-07-18T10:11	10	163	0.1	163	163	478	0.7	477	479	22.3	53.0
2025-07-18T10:12	10	163	0.1	163	163	478	0.4	477	479	22.3	53.0
2025-07-18T10:13	10	163	0.1	163	163	479	0.8	478	481	22.7	52.5
2025-07-18T10:14	10	163	0.1	163	163	478	2.0	474	481	22.9	51.1
2025-07-18T10:15	10	164	0.1	163	164	476	1.2	474	478	22.7	51.2
2025-07-18T10:16	10	164	0.1	163	164	477	1.4	474	479	22.7	52.0
2025-07-18T10:17	10	164	0.1	163	164	474	0.8	472	475	22.7	52.3
2025-07-18T10:18	10	164	0.1	164	164	472	1.0	471	474	22.4	52.2
2025-07-18T10:19	10	164	0.1	164	164	474	1.0	473	477	22.5	52.3
2025-07-18T10:20	10	164	0.1	164	164	477	0.3	476	478	22.6	51.9
2025-07-18T10:21	10	164	0.1	164	165	479	0.5	477	479	22.9	51.0
2025-07-18T10:22	10	165	0.1	164	165	477	0.9	476	479	22.8	50.4
2025-07-18T10:23	10	165	0.1	165	165	478	0.6	477	479	22.8	50.7
2025-07-18T10:24	10	165	0.1	165	165	480	0.6	479	481	23.0	50.3
2025-07-18T10:25	10	165	0.1	164	165	481	0.6	480	482	23.0	50.6
2025-07-18T10:26	10	165	0.1	164	165	476	2.2	472	481	22.9	50.5
2025-07-18T10:27	10	165	0.1	164	165	475	0.9	473	476	22.7	50.7
2025-07-18T10:28	10	164	0.1	164	165	476	1.7	472	478	22.9	50.5
2025-07-18T10:29	10	164	0.1	164	165	474	1.8	472	478	22.6	51.0
2025-07-18T10:30	10	165	0.1	164	165	478	1.0	477	480	23.0	51.7
2025-07-18T10:31	10	165	0.1	165	165	478	0.4	477	479	23.0	52.0
2025-07-18T10:32	10	165	0.2	165	165	477	0.5	476	478	23.1	51.1
2025-07-18T10:33	10	165	0.1	165	166	478	1.0	476	480	23.0	51.1
2025-07-18T10:34	10	166	0.1	165	166	478	1.1	477	481	23.1	50.8
2025-07-18T10:35	10	166	0.1	165	166	480	0.8	479	481	23.4	51.0
2025-07-18T10:36	10	166	0.1	166	166	480	0.6	479	481	23.2	49.9
2025-07-18T10:37	10	166	0.1	166	166	481	1.4	479	483	23.1	50.6
2025-07-18T10:38	10	166	0.1	166	166	483	0.4	482	483	23.3	49.9
2025-07-18T10:39	10	166	0.1	166	167	482	0.4	482	483	23.1	49.7
2025-07-18T10:40	10	166	0.1	166	167	483	0.7	482	484	23.4	50.2
2025-07-18T10:41	10	167	0.1	166	167	484	0.9	483	486	23.5	49.8
2025-07-18T10:42	10	167	0.1	166	167	485	0.6	484	486	23.9	48.3
2025-07-18T10:43	10	167	0.1	167	167	484	0.3	483	485	23.7	48.2
2025-07-18T10:44	10	167	0.1	167	167	485	1.1	483	487	24.1	48.4
2025-07-18T10:45	10	167	0.1	167	167	481	2.0	479	484	23.6	47.7
2025-07-18T10:46	10	167	0.1	167	167	481	1.1	480	483	23.3	48.5
2025-07-18T10:47	10	167	0.1	167	167	484	0.6	483	485	23.6	48.5
2025-07-18T10:48	10	167	0.1	167	167	482	0.9	480	484	23.6	47.4
2025-07-18T10:49	10	167	0.1	167	167	483	1.2	481	485	23.6	47.3
2025-07-18T10:50	10	167	0.1	167	167	483	1.0	481	484	23.4	47.7
2025-07-18T10:51	10	167	0.1	167	167	486	1.1	484	488	23.6	48.2
2025-07-18T10:52	10	167	0.1	167	168	484	3.0	479	488	23.6	48.0
2025-07-18T10:53	10	167	0.1	167	168	479	0.4	479	480	23.3	48.0
2025-07-18T10:54	10	167	0.1	167	168	483	1.7	480	487	23.4	48.3
2025-07-18T10:55	10	167	0.1	167	167	486	1.3	482	487	23.8	48.4
2025-07-18T10:56	10	167	0.2	167	167	480	1.4	478	483	23.4	47.5
2025-07-18T10:57	10	167	0.1	167	167	480	1.1	478	482	23.5	47.5
2025-07-18T10:58	10	167	0.1	167	167	482	1.2	480	484	23.5	47.2
2025-07-18T10:59	10	167	0.1	167	167	484	0.6	483	485	23.8	46.6
2025-07-18T11:00	10	167	0.1	167	168	486	1.1	484	488	24.0	46.6
2025-07-18T11:01	10	168	0.1	167	168	487	0.5	486	488	24.0	47.1
2025-07-18T11:02	10	168	0.1	168	168	484	1.4	482	486	23.6	46.9
2025-07-18T11:03	10	168	0.1	168	168	483	0.3	482	484	23.4	47.3
2025-07-18T11:04	10	168	0.1	168	169	483	0.8	481	484	23.5	47.5
2025-07-18T11:05	10	168	0.1	168	169	484	0.5	483	486	23.5	47.7
2025-07-18T11:06	10	169	0.1	168	169	486	1.1	484	488	23.6	48.3
2025-07-18T11:07	10	169	0.1	169	169	486	1.1	484	488	23.7	47.4
2025-07-18T11:08	10	169	0.1	169	169	485	0.5	484	486	23.6	46.3
2025-07-18T11:09	10	169	0.1	169	169	487	0.5	486	488	23.6	46.7
2025-07-18T11:10	10	169	0.1	169	169	486	0.5	485	487	23.7	46.2
2025-07-18T11:11	10	169	0.1	169	169	487	0.9	485	489	23.8	46.5
2025-07-18T11:12	10	169	0.1	169	169	489	0.6	488	490	24.0	46.4
2025-07-18T11:13	10	169	0.1	169	169	489	0.5	488	490	24.3	45.3
2025-07-18T11:14	10	169	0.1	169	169	489	0.8	487	490	24.4	45.2
2025-07-18T11:15	10	169	0.1	169	169	489	0.4	488	489	24.3	44.1
2025-07-18T11:16	10	169	0.1	169	170	490	0.3	489	490	24.4	45.3
2025-07-18T11:17	10	170	0.1	169	170	491	0.3	490	491	24.7	46.3
2025-07-18T11:18	10	169	0.1	169	170	490	0.8	488	491	24.7	44.3
2025-07-18T11:19	10	169	0.1	169	170	488	0.3	488	489	24.5	43.7
2025-07-18T11:20	10	169	0.1	169	170	489	1.1	486	490	24.1	46.1
2025-07-18T11:21	10	169	0.1	169	169	487	0.5	485	488	24.1	47.5
2025-07-18T11:22	10	169	0.1	169	169	486	0.5	486	488	24.0	46.7
2025-07-18T11:23	10	169	0.1	169	169	487	0.6	486	488	24.0	46.7
2025-07-18T11:24	10	169	0.1	169	169	487	1.0	486	489	24.1	47.1
2025-07-18T11:25	10	169	0.1	169	169	487	0.7	486	489	24.0	47.0
2025-07-18T11:26	10	169	0.1	169	169	486	0.9	484	487	24.2	46.6
2025-07-18T11:27	10	169	0.1	169	169	486	0.9	485	488	23.9	46.3
2025-07-18T11:28	10	169	0.1	169	169	489	0.8	488	491	24.0	46.7
2025-07-18T11:29	10	169	0.1	169	170	491	0.5	490	492	24.3	47.1
2025-07-18T11:30	10	169	0.1	169	170	491	0.2	490	492	24.3	46.5
2025-07-18T11:31	10	170	0.1	169	170	492	0.5	491	493	24.5	46.7
2025-07-18T11:32	10	170	0.1	170	170	490	1.8	487	493	24.5	46.3
2025-07-18T11:33	10	170	0.1	170	170	488	0.4	487	489	24.1	46.0
2025-07-18T11:34	10	170	0.1	170	170	489	0.8	488	491	24.1	46.1
2025-07-18T11:35	10	170	0.1	170	170	487	0.8	486	488	24.4	45.4
2025-07-18T11:36	10	170	0.1	170	170	487	0.6	486	488	24.6	45.1
2025-07-18T11:37	10	170	0.2	170	170	490	1.4	487	492	24.8	45.9
2025-07-18T11:38	10	170	0.2	170	170	492	1.2	490	494	25.0	44.5
2025-07-18T11:39	10	170	0.1	170	171	493	0.4	492	494	25.0	44.7
2025-07-18T11:40	10	170	0.1	170	171	491	1.2	489	493	24.9	44.3
2025-07-18T11:41	10	170	0.1	170	171	491	0.8	490	493	24.8	43.5
2025-07-18T11:42	10	171	0.1	170	171	493	0.8	490	494	24.9	44.4
2025-07-18T11:43	10	170	0.1	170	171	487	1.1	486	491	24.7	43.9
2025-07-18T11:44	10	170	0.1	170	171	490	1.6	487	492	24.8	44.5
2025-07-18T11:45	10	170	0.1	170	171	492	0.6	491	493	24.8	43.6
2025-07-18T11:46	10	170	0.1	170	171	494	0.7	493	495	25.0	45.5
2025-07-18T11:47	10	170	0.1	170	170	495	0.5	494	497	25.4	45.5
2025-07-18T11:48	10	170	0.1	170	170	496	0.5	495	497	25.5	44.3
2025-07-18T11:49	10	170	0.1	170	171	494	1.6	489	495	25.3	44.3
2025-07-18T11:50	10	170	0.1	170	171	492	1.3	490	494	25.0	43.8
2025-07-18T11:51	10	170	0.1	170	171	493	0.9	491	494	25.5	45.2
2025-07-18T11:52	10	170	0.1	170	171	493	0.6	492	494	25.4	44.1
2025-07-18T11:53	10	170	0.1	170	171	492	1.7	489	495	25.1	43.2
2025-07-18T11:54	10	170	0.1	170	171	489	1.5	488	492	24.9	43.4
2025-07-18T11:55	10	171	0.1	171	171	490	0.9	489	491	24.8	43.8
2025-07-18T11:56	10	171	0.1	171	171	490	1.2	488	493	25.0	43.5
2025-07-18T11:57	10	171	0.1	171	171	493	0.9	491	495	25.0	43.1
2025-07-18T11:58	10	171	0.1	171	171	494	0.7	493	495	25.1	43.6
2025-07-18T11:59	10	171	0.1	171	171	493	0.3	493	494	25.0	43.1
2025-07-18T12:00	10	171	0.1	171	172	495	0.5	494	496	25.0	43.3
2025-07-18T12:01	10	171	0.1	171	172	496	0.6	494	497	25.2	42.9
2025-07-18T12:02	10	172	0.1	171	172	492	1.3	490	495	25.2	41.9
2025-07-18T12:03	10	172	0.1	171	172	493	0.5	491	494	25.2	42.3
2025-07-18T12:04	10	172	0.1	171	172	491	1.8	488	494	25.1	42.2
2025-07-18T12:05	10	172	0.1	171	172	492	1.5	489	494	25.0	41.7
2025-07-18T12:06	10	171	0.2	171	172	494	1.8	490	495	25.1	41.9
2025-07-18T12:07	10	171	0.1	171	171	491	0.9	490	493	24.9	41.9
2025-07-18T12:08	10	171	0.1	171	171	493	0.6	492	494	24.9	42.1
2025-07-18T12:09	10	171	0.1	171	171	494	0.4	493	495	25.0	42.0
2025-07-18T12:10	10	171	0.1	171	171	495	0.8	494	496	25.1	41.8
2025-07-18T12:11	10	171	0.1	171	171	497	0.4	496	498	25.5	42.3
2025-07-18T12:12	10	171	0.1	170	171	497	0.4	496	498	25.9	42.7
2025-07-18T12:13	10	171	0.1	171	171	496	0.5	495	498	25.9	41.3
2025-07-18T12:14	10	171	0.1	170	171	497	0.8	496	499	25.8	41.2
2025-07-18T12:15	10	171	0.1	170	171	494	1.1	493	497	25.7	40.5
2025-07-18T12:16	10	171	0.1	170	171	495	0.6	493	496	25.5	41.3
2025-07-18T12:17	10	170	0.2	170	171	496	0.6	495	497	25.9	42.1
2025-07-18T12:18	10	170	0.1	170	171	496	1.2	494	498	26.0	40.9
2025-07-18T12:19	10	170	0.2	170	171	495	0.5	494	496	25.6	40.3
2025-07-18T12:20	10	170	0.2	170	171	497	0.6	495	498	25.8	40.4
2025-07-18T12:21	10	171	0.2	170	171	497	0.4	497	498	26.0	41.8
2025-07-18T12:22	10	170	0.2	170	171	498	0.6	496	498	26.0	40.7
2025-07-18T12:23	10	171	0.1	170	171	495	0.9	494	497	25.6	40.3
2025-07-18T12:24	10	171	0.1	171	171	494	0.6	493	495	25.5	40.7
2025-07-18T12:25	10	171	0.1	170	171	494	0.8	493	496	25.4	40.8
2025-07-18T12:26	10	171	0.1	170	171	497	0.7	496	499	25.6	40.8
2025-07-18T12:27	10	171	0.1	171	171	497	0.2	496	497	25.6	40.4
2025-07-18T12:28	10	171	0.1	171	171	496	0.4	496	497	25.6	40.3
2025-07-18T12:29	10	171	0.1	171	171	498	1.0	496	500	25.8	40.5
2025-07-18T12:30	10	171	0.1	171	171	499	0.6	498	500	26.1	40.8
2025-07-18T12:31	10	171	0.1	171	171	498	0.8	497	500	26.0	40.3
2025-07-18T12:32	10	171	0.1	171	172	497	0.5	496	498	25.9	41.7
2025-07-18T12:33	10	171	0.1	171	172	496	1.7	494	499	26.0	40.9
2025-07-18T12:34	10	172	0.1	171	172	495	0.5	494	496	26.0	41.2
2025-07-18T12:35	10	172	0.1	171	172	494	0.5	493	495	25.9	40.5
2025-07-18T12:36	10	172	0.4	171	173	496	0.9	495	498	25.8	40.8
2025-07-18T12:37	10	173	0.2	172	173	498	0.7	496	500	26.0	41.2
2025-07-18T12:38	10	173	0.1	173	173	496	1.1	494	498	26.8	42.4
2025-07-18T12:39	10	173	0.1	173	173	497	1.4	494	499	26.7	40.7
2025-07-18T12:40	10	173	0.1	173	173	493	0.9	492	496	26.2	39.3
2025-07-18T12:41	10	173	0.1	173	173	495	0.9	493	496	26.0	40.3
2025-07-18T12:42	10	173	0.1	172	173	497	1.3	494	499	26.3	41.1
2025-07-18T12:43	10	173	0.1	172	173	497	0.5	496	498	26.3	39.8
2025-07-18T12:44	10	172	0.4	171	173	495	0.9	494	497	26.2	39.5
2025-07-18T12:45	10	172	0.7	171	173	496	0.7	495	498	26.2	39.0
2025-07-18T12:46	10	173	0.1	173	173	497	1.3	495	499	26.3	39.4
2025-07-18T12:47	10	173	0.1	173	173	496	0.4	495	497	26.4	39.6
2025-07-18T12:48	10	173	0.1	173	174	495	1.6	492	497	26.2	39.3
2025-07-18T12:49	10	174	0.2	173	174	497	1.3	494	499	26.1	40.5
2025-07-18T12:50	10	174	0.1	174	174	495	1.3	494	498	26.1	39.6
2025-07-18T12:51	10	175	0.2	174	175	497	0.9	495	499	26.1	40.0
2025-07-18T12:52	10	175	0.4	173	175	499	0.6	498	500	26.1	38.6
2025-07-18T12:53	10	172	0.8	171	173	499	0.4	498	500	26.1	39.1
2025-07-18T12:54	10	175	0.5	173	175	499	0.4	498	500	26.3	39.1
2025-07-18T12:55	10	176	0.9	172	176	500	0.4	500	501	26.6	39.8
2025-07-18T12:56	10	166	3.1	162	172	500	1.0	498	501	26.7	39.1
2025-07-18T12:57	10	170	1.7	165	173	498	0.4	497	499	26.6	38.4
2025-07-18T12:58	10	175	1.2	173	177	499	0.4	498	500	26.7	38.2
2025-07-18T12:59	10	170	5.0	161	177	499	0.4	498	500	26.8	37.5
2025-07-18T13:00	10	157	2.9	153	163	498	0.4	498	499	26.9	39.3
2025-07-18T13:01	10	155	5.3	146	162	497	1.2	494	499	27.0	39.0
2025-07-18T13:02	10	127	12.3	106	147	490	3.2	484	496	26.7	37.3
2025-07-18T13:03	10	108	4.1	100	118	482	1.7	480	486	26.5	37.6
2025-07-18T13:04	10	99	5.5	89	107	480	0.6	479	481	26.3	37.6
2025-07-18T13:05	10	79	8.1	68	95	477	3.2	470	481	26.5	38.4
2025-07-18T13:06	10	114	19.1	73	142	476	3.9	470	481	26.4	38.8
2025-07-18T13:07	10	163	12.7	143	185	486	4.0	479	493	26.5	39.1
2025-07-18T13:08	10	187	5.4	176	192	495	2.6	491	499	26.5	38.4
2025-07-18T13:09	10	187	2.6	183	190	496	0.4	496	497	26.6	38.4
2025-07-18T13:10	10	188	1.4	184	190	499	1.1	497	501	26.4	38.0
2025-07-18T13:11	10	181	6.0	166	188	502	0.8	500	503	26.6	38.9
2025-07-18T13:12	10	156	5.9	146	166	498	2.1	495	501	26.9	38.6
2025-07-18T13:13	10	132	8.6	118	147	492	2.4	488	496	26.7	38.1
2025-07-18T13:14	10	169	17.1	142	190	494	3.8	489	500	26.6	37.4
2025-07-18T13:15	10	177	13.9	148	192	498	1.2	496	501	26.6	37.5
2025-07-18T13:16	10	189	1.6	185	191	503	1.2	500	504	26.7	37.6
2025-07-18T13:17	10	182	6.2	171	189	503	1.0	502	505	27.0	37.8
2025-07-18T13:18	10	182	4.5	174	187	502	0.7	501	504	27.1	36.6
2025-07-18T13:19	10	185	0.5	184	186	504	0.8	502	505	27.1	37.0
2025-07-18T13:20	10	183	0.5	182	184	503	0.5	502	504	27.3	37.5
2025-07-18T13:21	10	181	0.5	180	182	504	0.8	502	505	27.1	37.5
2025-07-18T13:22	10	178	2.1	173	181	501	0.8	500	503	27.1	37.3
2025-07-18T13:23	10	178	0.5	177	179	501	0.7	500	502	27.5	38.2
2025-07-18T13:24	10	176	0.5	175	177	498	1.2	496	501	27.3	36.8
2025-07-18T13:25	10	175	0.5	174	175	499	1.2	496	500	27.3	37.8
2025-07-18T13:26	10	173	0.4	172	174	496	0.3	496	497	27.1	36.5
2025-07-18T13:27	10	172	0.4	171	173	498	1.3	496	500	27.0	36.8
2025-07-18T13:28	10	171	0.4	170	171	500	1.1	498	501	27.2	37.0
2025-07-18T13:29	10	170	0.1	169	170	499	0.8	498	501	27.2	35.9
2025-07-18T13:30	10	169	0.4	168	170	501	0.5	500	502	27.2	36.3
2025-07-18T13:31	10	168	0.2	168	169	503	0.5	501	504	27.5	36.8
2025-07-18T13:32	10	168	0.1	168	168	501	0.3	501	502	27.2	35.4
2025-07-18T13:33	10	168	0.1	168	168	501	0.6	500	502	27.1	35.8
2025-07-18T13:34	10	168	0.1	167	168	500	0.3	500	501	27.3	36.0
2025-07-18T13:35	10	168	0.1	168	168	501	1.0	499	503	27.4	36.9
2025-07-18T13:36	10	168	0.2	168	168	499	1.2	497	501	27.5	36.8
2025-07-18T13:37	10	167	5.1	152	170	501	0.7	499	502	27.6	37.3
2025-07-18T13:38	10	131	10.3	101	152	494	2.8	490	500	27.5	36.3
2025-07-18T13:39	10	90	16.6	74	135	483	3.8	479	492	27.4	36.2
2025-07-18T13:40	10	162	8.7	136	168	488	3.8	481	493	27.3	36.3
2025-07-18T13:41	10	168	0.3	167	168	493	0.8	491	494	27.1	35.9
2025-07-18T13:42	10	167	0.4	166	168	495	0.9	493	496	27.4	37.3
2025-07-18T13:43	10	166	0.8	164	167	494	1.4	493	498	27.3	35.4
2025-07-18T13:44	10	164	1.0	163	166	497	0.5	496	498	27.3	36.2
2025-07-18T13:45	10	167	0.3	166	168	498	1.0	497	500	27.3	35.5
2025-07-18T13:46	10	163	3.0	156	167	498	1.3	496	500	27.3	35.8
2025-07-18T13:47	10	154	2.3	149	157	495	1.1	493	497	27.3	35.6
2025-07-18T13:48	10	156	3.7	150	163	495	1.0	493	498	27.4	34.9
2025-07-18T13:49	10	163	1.1	160	165	497	0.6	496	498	27.6	35.8
2025-07-18T13:50	10	165	1.0	162	166	500	0.9	498	501	27.8	36.4
2025-07-18T13:51	10	160	1.1	158	162	496	1.1	494	498	27.5	35.9
2025-07-18T13:52	10	156	1.9	150	159	494	1.4	492	497	27.4	35.6
2025-07-18T13:53	10	150	4.7	140	158	491	1.3	489	494	27.4	35.6
2025-07-18T13:54	10	158	2.2	154	162	493	0.7	491	494	27.5	35.6
2025-07-18T13:55	10	162	2.3	157	165	494	0.4	494	495	27.4	35.5
2025-07-18T13:56	10	164	0.7	163	165	496	1.4	494	498	27.3	35.6
2025-07-18T13:57	10	156	4.3	149	163	495	1.8	492	498	27.7	35.4
2025-07-18T13:58	10	155	3.6	150	161	491	0.8	490	493	27.2	36.0
2025-07-18T13:59	10	165	2.0	160	167	495	2.1	492	498	27.6	36.9
2025-07-18T14:00	10	163	1.5	161	167	497	0.7	496	499	27.6	36.8
2025-07-18T14:01	10	167	1.4	163	169	500	0.6	498	501	27.7	36.2
2025-07-18T14:02	10	166	2.3	162	170	499	0.4	498	500	27.5	36.2
2025-07-18T14:03	10	172	1.1	169	173	499	0.6	498	501	27.6	36.1
2025-07-18T14:04	10	173	0.4	172	174	501	0.6	500	502	27.7	36.0
2025-07-18T14:05	10	173	1.9	169	176	503	1.0	502	505	27.8	36.9
2025-07-18T14:06	10	173	1.7	169	175	502	1.2	500	505	28.1	36.7
2025-07-18T14:07	10	173	2.3	165	174	499	1.6	497	502	27.8	35.8
2025-07-18T14:08	10	174	3.6	163	178	499	0.9	496	501	27.6	35.6
2025-07-18T14:09	10	167	9.6	143	179	497	0.6	495	497	27.5	35.4
2025-07-18T14:10	10	163	14.8	121	181	496	0.8	494	497	27.6	35.3
2025-07-18T14:11	10	158	16.5	123	178	497	0.9	496	499	27.5	35.5
2025-07-18T14:12	10	171	12.0	144	185	501	2.1	497	505	27.7	36.3
2025-07-18T14:13	10	113	45.8	60	184	494	9.5	481	506	27.9	36.4
2025-07-18T14:14	10	115	32.6	71	163	483	3.5	479	490	27.6	36.4
2025-07-18T14:15	10	119	37.4	67	178	491	3.3	483	496	27.8	36.7
2025-07-18T14:16	10	69	3.1	65	78	479	2.8	475	485	28.0	36.6
2025-07-18T14:17	10	73	8.1	65	96	475	0.5	474	476	28.0	37.2
2025-07-18T14:18	10	92	29.3	68	174	477	1.9	474	482	27.9	37.6
2025-07-18T14:19	10	134	32.8	89	183	483	4.2	478	492	27.7	37.1
2025-07-18T14:20	10	162	16.6	126	184	492	1.1	489	493	27.9	37.3
2025-07-18T14:21	10	175	15.7	134	187	494	3.0	488	497	27.9	38.1
2025-07-18T14:22	10	177	7.1	154	187	496	1.2	494	498	27.9	37.6
2025-07-18T14:23	10	120	18.8	99	153	488	5.8	482	499	27.7	37.3
2025-07-18T14:24	10	145	24.1	115	192	488	2.2	484	491	27.9	37.4
2025-07-18T14:25	10	110	17.2	88	141	484	3.1	479	488	28.0	36.8
2025-07-18T14:26	10	108	18.6	81	144	480	1.2	477	482	27.9	36.9
2025-07-18T14:27	10	90	6.9	81	102	478	1.1	476	480	28.1	38.2
2025-07-18T14:28	10	114	21.9	83	163	480	2.5	476	483	28.2	37.8
2025-07-18T14:29	10	114	18.1	85	142	481	1.5	478	483	28.0	36.6
2025-07-18T14:30	10	142	8.7	127	158	484	2.0	481	487	28.0	36.8
2025-07-18T14:31	10	152	20.7	114	182	489	1.5	487	493	28.0	36.3
2025-07-18T14:32	10	174	10.1	154	185	496	2.7	491	499	28.2	36.3
2025-07-18T14:33	10	134	33.1	86	185	495	3.6	487	499	28.3	35.9
2025-07-18T14:34	10	97	8.8	86	122	485	1.8	482	489	28.2	37.2
2025-07-18T14:35	10	91	7.1	82	107	478	2.0	476	483	27.4	39.4
2025-07-18T14:36	10	112	18.1	90	150	476	1.7	473	478	27.0	41.8
2025-07-18T14:37	10	94	17.2	79	130	477	2.5	473	480	27.0	42.3
2025-07-18T14:38	10	99	8.8	80	112	475	1.2	472	476	27.5	41.5
2025-07-18T14:39	10	87	16.9	74	127	474	2.5	471	478	27.7	41.2
2025-07-18T14:40	10	88	9.6	75	103	472	0.7	471	474	27.6	40.2
2025-07-18T14:41	10	90	9.8	77	110	473	1.2	472	476	27.6	39.4
2025-07-18T14:42	10	128	34.3	85	177	479	4.5	473	487	27.7	40.9
2025-07-18T14:43	10	166	12.1	142	186	489	3.1	484	495	27.6	41.0
2025-07-18T14:44	10	182	2.8	178	187	494	0.6	492	495	27.7	38.2
2025-07-18T14:45	10	182	1.0	180	183	496	0.8	494	497	27.7	37.7
2025-07-18T14:46	10	177	6.1	164	184	496	0.8	495	498	27.8	37.7
2025-07-18T14:47	10	184	0.8	182	185	497	1.1	495	499	27.7	37.3
2025-07-18T14:48	10	180	1.6	178	183	497	1.2	495	499	27.7	37.6
2025-07-18T14:49	10	177	0.6	176	178	499	1.4	496	501	28.0	38.2
2025-07-18T14:50	10	175	0.7	174	176	496	0.9	494	497	28.2	37.9
2025-07-18T14:51	10	171	1.9	168	174	496	0.9	494	498	27.9	39.7
2025-07-18T14:52	10	169	0.7	168	171	494	0.7	493	496	27.6	40.4
2025-07-18T14:53	10	168	1.2	165	169	493	0.6	492	494	27.6	40.8
2025-07-18T14:54	10	161	4.8	151	167	493	0.5	492	494	28.0	39.3
2025-07-18T14:55	10	157	3.4	151	162	491	0.5	490	492	28.2	37.8
2025-07-18T14:56	10	138	12.5	120	160	489	1.3	487	492	28.2	37.3
2025-07-18T14:57	10	131	10.9	119	149	487	1.4	484	490	28.1	37.4
2025-07-18T14:58	10	155	1.7	150	157	490	1.2	489	492	28.1	38.3
2025-07-18T14:59	10	154	2.5	149	156	492	0.8	490	493	28.3	38.4
2025-07-18T15:00	10	148	4.0	138	152	489	1.4	486	491	27.9	36.8
2025-07-18T15:01	10	148	2.0	145	152	485	1.0	483	486	27.7	37.7
2025-07-18T15:02	10	145	2.0	142	149	484	0.5	483	485	27.5	38.1
2025-07-18T15:03	10	149	0.5	147	150	485	1.0	484	487	27.5	38.3
2025-07-18T15:04	10	149	0.3	149	150	486	0.7	484	487	27.6	38.0
2025-07-18T15:05	10	151	0.4	150	152	485	0.8	484	487	27.4	37.7
2025-07-18T15:06	10	152	0.5	151	153	486	0.8	484	487	27.6	37.5
2025-07-18T15:07	10	153	0.7	151	155	486	0.5	485	487	27.9	37.4
2025-07-18T15:08	10	150	1.7	146	153	486	0.8	485	487	27.7	37.6
2025-07-18T15:09	10	149	2.9	141	152	488	0.9	486	489	28.0	37.8
2025-07-18T15:10	10	141	5.9	133	152	489	0.9	487	491	28.2	37.7
2025-07-18T15:11	10	152	0.5	152	153	491	0.8	490	493	28.4	36.9
2025-07-18T15:12	10	153	0.7	152	154	491	0.5	490	492	28.3	36.5
2025-07-18T15:13	10	149	1.7	147	153	489	0.6	488	491	27.9	36.5
2025-07-18T15:14	10	153	1.0	151	155	487	0.8	486	489	28.0	36.9
2025-07-18T15:15	10	154	1.3	151	155	487	1.0	486	489	27.8	37.0
2025-07-18T15:16	10	152	2.9	146	155	491	0.8	489	492	28.0	37.7
2025-07-18T15:17	10	155	2.6	145	157	490	0.4	489	491	28.0	36.9
2025-07-18T15:18	10	155	0.6	154	156	488	1.1	487	490	27.8	36.8
2025-07-18T15:19	10	157	1.0	156	159	491	0.5	490	492	27.8	36.5
2025-07-18T15:20	10	159	0.4	158	159	493	1.1	491	495	27.7	36.6
2025-07-18T15:21	10	160	1.3	157	161	493	1.2	491	495	27.9	36.3
2025-07-18T15:22	10	160	0.8	158	161	494	1.1	491	495	28.1	36.5
2025-07-18T15:23	10	157	0.5	157	159	489	0.7	488	491	28.1	36.1
2025-07-18T15:24	10	155	1.0	153	157	489	0.5	488	490	27.9	36.1
2025-07-18T15:25	10	151	0.9	149	153	490	1.3	488	492	28.1	37.0
2025-07-18T15:26	10	147	1.7	144	149	492	0.8	490	493	28.4	36.5
2025-07-18T15:27	10	148	0.7	146	149	489	1.2	487	491	28.4	35.7
2025-07-18T15:28	10	148	0.4	147	149	487	0.5	486	488	28.0	36.1
2025-07-18T15:29	10	148	0.2	148	149	488	0.5	487	489	28.3	35.9
2025-07-18T15:30	10	147	0.7	146	148	488	0.6	487	490	28.1	36.0
2025-07-18T15:31	10	145	0.7	143	146	489	1.2	487	491	28.2	35.9
2025-07-18T15:32	10	142	0.7	141	143	487	0.4	486	488	28.2	35.7
2025-07-18T15:33	10	140	0.8	138	141	486	1.1	484	488	28.0	35.6
2025-07-18T15:34	10	136	1.3	135	138	486	0.4	485	486	28.0	36.2
2025-07-18T15:35	10	135	0.5	134	135	484	1.3	481	486	28.2	35.6
2025-07-18T15:36	10	133	0.6	132	134	482	0.7	481	484	27.8	35.3
2025-07-18T15:37	10	130	0.6	129	131	486	0.9	484	487	27.9	36.1
2025-07-18T15:38	10	129	0.5	128	129	487	0.5	486	488	28.1	36.0
2025-07-18T15:39	10	127	0.5	126	128	481	1.5	480	485	27.9	36.0
2025-07-18T15:40	10	126	0.4	125	127	480	0.7	479	481	27.8	36.4
2025-07-18T15:41	10	125	0.2	124	125	480	0.9	479	482	27.6	36.7
2025-07-18T15:42	10	124	1.2	121	125	482	0.5	481	484	27.9	37.0
2025-07-18T15:43	10	123	0.8	121	124	479	1.6	477	483	27.9	37.0
2025-07-18T15:44	10	123	0.3	123	124	479	0.8	478	481	27.8	37.6
2025-07-18T15:45	10	124	0.1	123	124	478	0.9	477	481	27.8	37.9
2025-07-18T15:46	10	123	1.5	120	124	476	0.6	475	478	27.5	38.3
2025-07-18T15:47	10	123	1.0	121	124	476	0.3	475	477	27.5	38.3
2025-07-18T15:48	10	124	0.3	123	125	476	0.6	475	478	27.6	37.8
2025-07-18T15:49	10	103	15.7	82	125	476	1.7	473	479	27.7	37.1
2025-07-18T15:50	10	106	7.8	91	116	475	0.9	473	476	27.8	37.0
2025-07-18T15:51	10	114	2.0	110	117	475	0.6	475	477	28.0	36.9
2025-07-18T15:52	10	122	2.6	114	124	477	0.6	475	478	28.0	37.1
2025-07-18T15:53	10	124	2.5	112	127	475	0.7	474	476	27.7	37.3
2025-07-18T15:54	10	77	23.0	46	110	471	4.0	465	477	27.7	37.4
2025-07-18T15:55	10	101	20.8	67	129	469	1.2	467	471	27.6	37.8
2025-07-18T15:56	10	82	10.1	68	104	468	0.9	466	469	27.7	37.7
2025-07-18T15:57	10	115	10.8	88	125	471	2.8	466	475	27.7	38.0
2025-07-18T15:58	10	78	16.8	58	113	470	3.3	466	475	27.8	36.9
2025-07-18T15:59	10	70	12.4	55	88	466	1.3	463	468	27.8	37.7
2025-07-18T16:00	10	82	8.4	62	91	466	1.4	463	468	28.0	37.2
2025-07-18T16:01	10	73	1.8	70	76	466	0.3	465	466	28.0	37.6
2025-07-18T16:02	10	83	7.8	74	96	466	1.2	465	469	27.9	37.8
2025-07-18T16:03	10	90	2.0	86	95	469	0.4	468	470	27.9	37.9
2025-07-18T16:04	10	83	4.5	75	89	468	0.5	467	469	27.9	37.5
2025-07-18T16:05	10	96	10.4	76	106	467	1.2	466	470	27.9	36.7
2025-07-18T16:06	10	112	5.0	104	119	470	0.8	469	471	27.9	36.5
2025-07-18T16:07	10	120	1.0	119	122	471	1.0	470	473	27.6	36.1
2025-07-18T16:08	10	121	1.0	120	123	474	0.9	473	476	27.7	36.2
2025-07-18T16:09	10	120	1.2	119	123	474	0.6	473	475	27.7	35.7
2025-07-18T16:10	10	125	0.3	124	125	475	0.9	474	477	27.7	35.8
2025-07-18T16:11	10	124	0.5	123	124	476	0.8	475	477	28.0	35.7
2025-07-18T16:12	10	123	0.3	122	123	476	0.4	475	476	28.0	35.9
2025-07-18T16:13	10	117	4.9	109	122	476	0.8	474	477	28.2	35.7
2025-07-18T16:14	10	108	1.3	106	110	474	0.7	473	475	27.9	35.5
2025-07-18T16:15	10	109	1.1	107	110	474	0.8	472	475	28.0	35.8
2025-07-18T16:16	10	111	1.6	108	113	473	0.7	472	474	27.9	36.3
2025-07-18T16:17	10	110	1.4	107	112	474	0.3	474	475	28.1	36.6
2025-07-18T16:18	10	105	0.9	104	106	474	0.7	472	475	28.2	36.8
2025-07-18T16:19	10	105	1.4	101	107	473	0.4	472	474	28.1	36.3
2025-07-18T16:20	10	99	2.0	94	101	473	0.6	472	474	28.3	36.4
2025-07-18T16:21	10	88	3.7	84	94	471	0.9	470	473	28.2	36.9
2025-07-18T16:22	10	96	2.2	89	100	469	0.7	468	471	28.0	35.9
2025-07-18T16:23	10	97	4.7	89	102	468	0.6	467	469	27.9	35.5
2025-07-18T16:24	10	92	5.8	85	100	466	0.6	465	468	27.8	35.5
2025-07-18T16:25	10	98	3.3	90	101	467	0.4	467	468	27.8	35.4
2025-07-18T16:26	10	72	9.5	61	89	465	2.0	462	468	27.8	35.0
2025-07-18T16:27	10	59	1.4	56	63	462	0.8	461	463	27.9	35.3
2025-07-18T16:28	10	50	5.7	41	56	459	1.4	457	462	27.9	35.7
2025-07-18T16:29	10	49	3.6	41	55	457	0.5	456	458	27.8	36.5
2025-07-18T16:30	10	61	11.4	48	77	458	1.5	456	461	27.7	37.3
2025-07-18T16:31	10	79	13.8	56	97	462	1.4	459	465	27.7	37.2
2025-07-18T16:32	10	93	3.7	87	96	465	0.5	463	466	27.7	37.3
2025-07-18T16:33	10	103	4.4	90	107	468	2.1	465	472	27.8	38.4
2025-07-18T16:34	10	107	0.4	106	108	471	0.5	470	472	27.9	38.0
2025-07-18T16:35	10	109	1.3	107	111	472	1.2	470	474	28.0	36.5
2025-07-18T16:36	10	111	0.2	110	111	474	0.5	473	475	28.2	36.6
2025-07-18T16:37	10	109	2.1	101	111	474	0.5	473	475	28.2	36.2
2025-07-18T16:38	10	83	13.3	68	104	472	2.2	467	474	28.3	35.9
2025-07-18T16:39	10	66	3.1	63	74	465	1.6	463	469	28.1	35.8
2025-07-18T16:40	10	64	11.9	45	80	464	1.3	462	466	28.0	37.1
2025-07-18T16:41	10	61	9.2	46	75	461	0.6	460	462	28.0	36.5
2025-07-18T16:42	10	81	3.4	75	86	463	1.2	461	465	27.9	36.5
2025-07-18T16:43	10	79	7.2	70	89	464	0.6	463	466	27.9	36.7
2025-07-18T16:44	10	86	3.1	79	89	465	0.6	464	466	27.8	35.8
2025-07-18T16:45	10	84	1.5	82	87	464	0.3	464	465	27.8	36.2
2025-07-18T16:46	10	80	3.5	74	85	465	0.5	464	466	27.9	36.4
2025-07-18T16:47	10	74	1.7	72	77	463	0.8	461	464	27.8	36.3
2025-07-18T16:48	10	70	2.7	65	72	460	1.0	458	462	27.6	36.0
2025-07-18T16:49	10	73	5.3	65	81	460	0.8	459	461	27.7	36.6
2025-07-18T16:50	10	80	0.6	79	81	461	0.6	460	462	27.8	36.6
2025-07-18T16:51	10	79	1.8	77	84	462	0.3	462	463	27.8	36.5
2025-07-18T16:52	10	88	1.7	85	91	464	1.0	462	465	27.9	36.9
2025-07-18T16:53	10	63	18.1	38	91	461	2.6	458	465	27.8	36.6
2025-07-18T16:54	10	93	1.9	87	95	462	1.5	459	464	27.8	37.1
2025-07-18T16:55	10	83	9.1	59	91	463	0.6	461	464	27.9	37.0
2025-07-18T16:56	10	56	2.7	52	61	460	0.6	459	462	27.9	37.4
2025-07-18T16:57	10	57	2.0	54	60	459	0.3	459	460	27.9	37.6
2025-07-18T16:58	10	48	7.4	38	60	458	1.6	455	460	27.8	37.3
2025-07-18T16:59	10	32	3.0	27	38	454	1.6	451	457	27.8	38.7
2025-07-18T17:00	10	40	5.6	29	45	451	0.3	451	452	27.6	38.4
2025-07-18T17:01	10	46	2.2	44	50	452	0.3	451	453	27.5	37.2
2025-07-18T17:02	10	42	7.5	26	50	452	0.7	450	452	27.5	37.7
2025-07-18T17:03	10	24	0.4	24	26	449	0.6	448	451	27.5	37.2
2025-07-18T17:04	10	34	7.8	24	46	449	0.8	448	450	27.5	37.3
2025-07-18T17:05	10	29	2.8	25	33	448	0.4	448	449	27.5	36.6
2025-07-18T17:06	10	41	9.4	25	52	448	1.4	447	451	27.5	36.5
2025-07-18T17:07	10	37	2.6	34	42	449	0.4	448	450	27.5	36.7
2025-07-18T17:08	10	39	3.9	28	42	449	0.3	448	450	27.5	37.2
2025-07-18T17:09	10	35	6.8	27	43	448	0.5	447	449	27.4	37.5
2025-07-18T17:10	10	28	4.9	23	40	448	0.5	447	449	27.4	37.9
2025-07-18T17:11	10	23	0.1	23	24	447	0.2	447	448	27.4	38.5
2025-07-18T17:12	10	25	1.8	22	27	447	0.3	446	447	27.4	37.8
2025-07-18T17:13	10	22	0.2	22	23	446	0.3	445	447	27.4	38.1
2025-07-18T17:14	10	21	0.2	21	22	445	0.3	445	446	27.3	38.5
2025-07-18T17:15	10	21	0.2	21	21	444	0.2	444	445	27.2	38.6
2025-07-18T17:16	10	20	0.2	20	21	444	0.3	443	444	27.2	38.6
2025-07-18T17:17	10	20	0.2	20	20	443	0.2	443	444	27.1	38.8
2025-07-18T17:18	10	19	0.2	19	20	443	0.2	443	444	27.1	39.2
2025-07-18T17:19	10	19	0.2	19	20	443	0.3	442	444	27.0	39.1
2025-07-18T17:20	10	19	0.1	19	19	442	0.3	442	443	27.1	38.7
2025-07-18T17:21	10	19	0.1	19	19	442	0.2	441	442	27.0	38.9
2025-07-18T17:22	10	19	0.2	19	20	442	0.3	441	443	27.0	38.5
2025-07-18T17:23	10	20	0.2	20	21	442	0.2	441	442	27.0	39.3
2025-07-18T17:24	10	21	0.2	20	21	442	0.4	441	443	26.9	40.1
2025-07-18T17:25	10	21	0.2	21	22	443	0.3	442	443	26.9	39.5
2025-07-18T17:26	10	21	0.1	21	21	443	0.2	442	443	27.0	39.2
2025-07-18T17:27	10	21	0.1	21	21	442	0.2	442	443	27.0	40.0
2025-07-18T17:28	10	21	0.2	20	21	442	0.2	442	443	27.0	38.8
2025-07-18T17:29	10	20	0.3	19	20	442	0.3	441	442	27.0	39.5
2025-07-18T17:30	10	19	0.2	19	19	441	0.3	440	442	26.8	40.1
2025-07-18T17:31	10	18	0.1	18	19	441	0.2	440	441	26.9	39.8
2025-07-18T17:32	10	18	0.1	18	18	440	0.2	440	441	26.8	40.3
2025-07-18T17:33	10	19	0.4	18	20	440	0.2	440	440	26.8	40.7
2025-07-18T17:34	10	20	0.4	20	22	440	0.2	440	441	26.8	40.4
2025-07-18T17:35	10	22	1.0	21	23	440	0.4	439	441	26.8	40.7
2025-07-18T17:36	10	21	0.2	20	21	440	0.2	440	441	26.8	40.6
2025-07-18T17:37	10	21	0.2	21	22	440	0.3	439	441	26.8	40.8
2025-07-18T17:38	10	22	0.1	22	23	440	0.3	440	441	26.7	41.0
2025-07-18T17:39	10	23	0.5	23	24	441	0.2	440	441	26.8	40.8
2025-07-18T17:40	10	30	4.1	23	36	441	0.8	440	443	26.7	40.7
2025-07-18T17:41	10	44	4.1	36	50	444	1.0	442	446	26.8	40.4
2025-07-18T17:42	10	42	6.6	32	51	445	0.3	444	446	26.8	40.2
2025-07-18T17:43	10	28	1.8	25	32	444	0.4	444	445	26.8	40.4
2025-07-18T17:44	10	26	0.5	25	27	443	0.3	442	444	26.8	40.9
2025-07-18T17:45	10	28	2.0	25	31	443	0.3	442	444	26.8	40.1
2025-07-18T17:46	10	24	1.0	23	27	443	0.3	442	444	26.8	40.2
2025-07-18T17:47	10	23	0.2	22	23	442	0.2	442	443	26.9	40.2
2025-07-18T17:48	10	22	0.2	22	23	442	0.4	441	442	26.8	40.6
2025-07-18T17:49	10	22	0.6	21	24	441	0.3	441	442	26.8	40.6
2025-07-18T17:50	10	32	7.9	23	49	442	0.7	441	444	26.8	40.5
2025-07-18T17:51	10	50	3.7	42	55	445	0.8	442	446	26.8	40.9
2025-07-18T17:52	10	37	4.8	30	45	444	0.6	443	445	26.8	41.6
2025-07-18T17:53	10	36	9.5	21	48	444	0.8	442	445	26.7	42.9
2025-07-18T17:54	10	21	0.6	20	23	442	0.7	441	443	26.6	43.0
2025-07-18T17:55	10	19	0.3	18	19	441	0.5	440	442	26.6	42.8
2025-07-18T17:56	10	18	0.3	18	20	440	0.3	439	441	26.6	42.7
2025-07-18T17:57	10	17	0.2	17	18	439	0.3	438	440	26.5	43.5
2025-07-18T17:58	10	18	1.0	17	22	439	0.2	438	439	26.5	43.5
2025-07-18T17:59	10	39	8.7	22	48	440	1.3	438	442	26.4	44.5
2025-07-18T18:00	10	47	0.7	45	48	442	0.7	441	443	26.3	45.3
2025-07-18T18:01	10	35	7.3	22	45	443	0.6	441	443	26.3	45.0
2025-07-18T18:02	10	20	1.3	18	23	440	0.8	438	442	26.3	45.4
2025-07-18T18:03	10	33	4.8	24	39	440	0.6	439	441	26.2	45.7
2025-07-18T18:04	10	41	0.8	39	42	441	0.4	440	441	26.3	45.3
2025-07-18T18:05	10	43	0.4	42	43	441	0.5	440	442	26.3	45.8
2025-07-18T18:06	10	43	0.4	42	44	442	0.3	442	443	26.2	46.3
2025-07-18T18:07	10	44	0.1	43	44	443	0.3	442	443	26.2	45.7
2025-07-18T18:08	10	43	0.2	43	44	443	0.3	442	444	26.2	46.8
2025-07-18T18:09	10	42	0.4	41	43	443	0.2	443	444	26.3	46.2
2025-07-18T18:10	10	40	0.5	40	41	443	0.2	442	443	26.3	45.4
2025-07-18T18:11	10	39	0.1	39	40	442	0.4	441	443	26.3	45.0
2025-07-18T18:12	10	39	0.4	39	40	441	0.2	441	442	26.3	45.4
2025-07-18T18:13	10	38	0.5	36	39	441	0.4	440	441	26.3	45.4
2025-07-18T18:14	10	26	6.6	15	36	439	0.9	438	441	26.2	45.6
2025-07-18T18:15	10	14	0.6	13	15	437	0.9	436	439	26.1	46.3
2025-07-18T18:16	10	13	0.2	12	13	436	0.5	435	437	25.9	48.8
2025-07-18T18:17	10	12	0.2	12	13	435	0.3	434	436	25.9	49.2
2025-07-18T18:18	10	12	0.2	12	12	434	0.4	433	435	25.8	50.4
2025-07-18T18:19	10	11	0.2	11	12	433	0.3	433	434	25.8	49.9
2025-07-18T18:20	10	11	0.1	10	11	433	0.2	433	433	25.7	50.6
2025-07-18T18:21	10	10	0.1	10	11	433	0.2	432	433	25.7	50.4
2025-07-18T18:22	10	10	0.1	10	10	432	0.3	432	433	25.7	50.4
2025-07-18T18:23	10	10	0.1	10	10	432	0.2	431	432	25.7	50.4
2025-07-18T18:24	10	10	0.1	10	10	432	0.3	431	432	25.6	50.6
2025-07-18T18:25	10	10	0.1	9	10	432	0.2	431	432	25.6	50.1
2025-07-18T18:26	10	9	0.1	9	9	431	0.3	431	432	25.7	48.8
2025-07-18T18:27	10	9	0.1	9	9	431	0.2	431	431	25.7	49.2
2025-07-18T18:28	10	9	0.1	8	9	431	0.2	430	431	25.7	49.2
2025-07-18T18:29	10	8	0.1	8	9	431	0.2	430	431	25.7	48.2
2025-07-18T18:30	10	8	0.1	8	8	431	0.2	430	431	25.7	48.0
2025-07-18T18:31	10	8	0.1	8	8	431	0.2	430	431	25.8	46.8
2025-07-18T18:32	10	8	0.1	7	8	430	0.3	429	430	25.8	47.3
2025-07-18T18:33	10	7	0.1	7	8	429	0.2	429	430	25.7	46.8
2025-07-18T18:34	10	7	0.1	7	7	429	0.2	429	430	25.8	45.7
2025-07-18T18:35	10	7	0.1	7	7	429	0.2	428	429	25.8	45.7
2025-07-18T18:36	10	7	0.1	6	7	429	0.2	428	429	25.8	45.5
2025-07-18T18:37	10	6	0.1	6	7	428	0.2	428	429	25.9	45.3
2025-07-18T18:38	10	7	0.3	6	7	428	0.3	427	428	25.9	45.3
2025-07-18T18:39	10	8	0.3	7	8	428	0.3	427	428	25.9	45.8
2025-07-18T18:40	10	7	0.7	6	8	427	0.3	427	428	25.8	45.7
2025-07-18T18:41	10	6	0.4	6	7	427	0.2	427	428	25.9	45.5
2025-07-18T18:42	10	9	1.3	7	11	427	0.3	427	428	25.9	45.7
2025-07-18T18:43	10	12	0.3	11	12	427	0.3	427	428	25.9	45.9
2025-07-18T18:44	10	11	0.3	11	12	428	0.2	427	428	25.9	46.1
2025-07-18T18:45	10	13	0.4	12	13	427	0.3	427	428	25.8	46.2
2025-07-18T18:46	10	13	0.4	12	13	428	0.3	427	428	25.8	46.3
2025-07-18T18:47	10	10	1.0	9	12	427	0.4	427	428	25.8	46.4
2025-07-18T18:48	10	8	0.2	8	9	426	0.4	425	427	25.6	47.6
2025-07-18T18:49	10	10	0.5	9	10	426	0.2	425	426	25.5	47.9
2025-07-18T18:50	10	9	0.7	8	10	426	0.3	425	426	25.5	48.3
2025-07-18T18:51	10	7	0.8	5	8	426	0.3	425	426	25.4	48.2
2025-07-18T18:52	10	6	0.2	5	6	425	0.4	424	426	25.4	48.7
2025-07-18T18:53	10	6	0.1	6	6	425	0.2	424	425	25.1	50.2
2025-07-18T18:54	10	6	0.2	5	6	424	0.2	424	425	25.0	51.8
2025-07-18T18:55	10	5	0.1	5	6	424	0.2	423	425	24.8	53.1
2025-07-18T18:56	10	5	0.1	5	6	424	0.2	423	424	24.7	54.4
2025-07-18T18:57	10	5	0.2	5	5	423	0.2	423	424	24.6	55.7
2025-07-18T18:58	10	5	0.2	4	5	423	0.3	422	424	24.5	56.3
2025-07-18T18:59	10	4	0.2	3	4	423	0.4	422	424	24.5	54.7
2025-07-18T19:00	10	3	0.1	3	4	423	0.2	423	424	24.5	55.2
2025-07-18T19:01	10	3	0.1	3	3	423	0.3	422	424	24.5	54.0
2025-07-18T19:02	10	3	0.1	3	3	423	0.2	422	423	24.4	54.9
2025-07-18T19:03	10	2	0.1	2	3	422	0.2	422	423	24.3	55.4
2025-07-18T19:04	10	2	0.1	2	3	422	0.2	422	423	24.2	56.0
2025-07-18T19:05	10	2	0.1	2	2	422	0.3	422	423	24.1	56.2
2025-07-18T19:06	10	2	0.1	1	2	422	0.2	422	422	24.1	56.4
2025-07-18T19:07	10	1	0.1	1	2	422	0.2	421	422	24.1	56.3
2025-07-18T19:08	10	1	0.1	1	2	421	0.2	421	422	24.0	56.2
2025-07-18T19:09	10	1	0.1	1	1	421	0.2	421	421	24.0	55.9
2025-07-18T19:10	10	1	0.1	1	1	421	0.2	420	421	24.1	56.1
2025-07-18T19:11	10	1	0.1	1	1	421	0.2	420	421	24.1	55.8
2025-07-18T19:12	10	1	0.2	1	2	420	0.2	420	421	24.0	56.1
2025-07-18T19:13	10	1	0.2	0	2	420	0.2	420	421	24.0	56.8
2025-07-18T19:14	10	1	0.2	0	1	420	0.3	419	420	24.0	56.9
2025-07-18T19:15	10	1	0.2	0	1	420	0.3	419	420	24.0	55.7
2025-07-18T19:16	10	1	0.2	0	1	420	0.3	419	420	23.9	55.4
2025-07-18T19:17	10	1	0.2	0	1	420	0.2	419	420	23.9	54.7
2025-07-18T19:18	10	1	0.2	0	1	419	0.3	418	420	23.9	55.5
2025-07-18T19:19	10	1	0.1	0	1	419	0.2	418	419	23.8	56.9
2025-07-18T19:20	10	1	0.1	0	1	419	0.3	418	420	23.7	57.1
2025-07-18T19:21	10	1	0.1	0	1	419	0.2	418	419	23.6	56.7
2025-07-18T19:22	10	0	0.1	0	1	418	0.3	417	419	23.5	58.1
2025-07-18T19:23	10	0	0.0	0	1	418	0.2	418	419	23.4	58.4
2025-07-18T19:24	10	0	0.1	0	1	418	0.2	418	419	23.3	59.6
2025-07-18T19:25	10	0	0.1	0	0	417	0.3	417	418	23.3	60.4
2025-07-18T19:26	10	0	0.1	0	0	417	0.2	417	418	23.3	60.4
2025-07-18T19:27	10	0	0.1	0	0	417	0.3	416	418	23.4	59.9
2025-07-18T19:28	10	0	0.1	0	0	417	0.2	416	417	23.5	58.9
2025-07-18T19:29	10	0	0.1	0	0	416	0.4	416	417	23.5	58.6
2025-07-18T19:30	10	0	0.1	0	0	416	0.2	416	417	23.5	58.2
2025-07-18T19:31	10	0	0.1	0	0	417	0.3	416	417	23.6	57.4
2025-07-18T19:32	10	0	0.1	0	1	417	0.4	416	418	23.7	56.1
2025-07-18T19:33	10	0	0.1	0	0	417	0.3	416	417	23.9	54.7
2025-07-18T19:34	10	0	0.1	0	0	417	0.4	416	418	24.0	53.9
2025-07-18T19:35	10	0	0.1	0	0	417	0.2	417	418	24.2	53.0
2025-07-18T19:36	10	0	0.1	0	0	417	0.3	417	418	24.2	53.3
2025-07-18T19:37	10	0	0.1	0	0	417	0.3	416	418	24.1	53.6
2025-07-18T19:38	10	0	0.1	0	1	417	0.2	417	418	24.1	53.4
2025-07-18T19:39	10	0	0.1	0	0	418	0.3	417	418	24.2	53.1
2025-07-18T19:40	10	0	0.1	0	1	417	0.2	417	418	24.2	53.1
2025-07-18T19:41	10	0	0.1	0	0	418	0.3	417	418	24.2	53.0
2025-07-18T19:42	10	0	0.1	0	1	417	0.3	416	418	24.1	53.7
2025-07-18T19:43	10	0	0.1	0	0	417	0.4	416	417	24.1	53.8
2025-07-18T19:44	10	0	0.1	0	0	416	0.3	415	417	24.0	54.0
2025-07-18T19:45	10	0	0.1	0	0	416	0.3	415	416	24.0	54.1
2025-07-18T19:46	10	0	0.1	0	0	416	0.4	415	416	23.9	54.5
2025-07-18T19:47	10	0	0.1	0	0	415	0.2	415	416	23.9	54.8
2025-07-18T19:48	10	0	0.1	0	0	415	0.2	415	416	23.9	54.6
2025-07-18T19:49	10	0	0.0	0	0	415	0.2	415	415	23.9	54.4
2025-07-18T19:50	10	0	0.0	0	0	415	0.2	414	415	23.9	54.9
2025-07-18T19:51	10	0	0.0	0	0	415	0.2	414	415	23.8	55.6
2025-07-18T19:52	10	0	0.0	0	0	415	0.2	414	415	23.7	55.8
2025-07-18T19:53	10	0	0.1	0	0	414	0.2	414	415	23.7	55.8
2025-07-18T19:54	10	0	0.1	0	0	414	0.2	414	415	23.7	55.8
2025-07-18T19:55	10	0	0.1	0	0	414	0.2	413	414	23.6	56.1
2025-07-18T19:56	10	0	0.1	0	1	414	0.2	413	414	23.6	56.3
2025-07-18T19:57	10	0	0.1	0	0	413	0.3	412	414	23.6	56.4
2025-07-18T19:58	10	0	0.2	0	1	413	0.3	412	413	23.4	57.1
2025-07-18T19:59	10	0	0.2	0	1	412	0.2	412	413	23.4	57.2
2025-07-18T20:00	10	0	0.2	0	0	412	0.3	411	412	23.4	57.0
2025-07-18T20:01	10	0	0.2	0	1	412	0.3	411	412	23.4	56.5
2025-07-18T20:02	10	0	0.2	0	1	412	0.3	411	413	23.6	55.8
2025-07-18T20:03	10	0	0.2	0	0	412	0.4	411	413	23.7	55.0
2025-07-18T20:04	10	0	0.2	0	1	413	0.3	412	413	23.9	54.4
2025-07-18T20:05	10	0	0.1	0	1	413	0.3	412	414	24.0	53.9
2025-07-18T20:06	10	0	0.1	0	0	413	0.3	413	414	24.1	53.6
2025-07-18T20:07	10	0	0.1	0	0	414	0.2	413	414	24.1	53.2
2025-07-18T20:08	10	0	0.1	0	0	414	0.2	413	414	24.2	53.1
2025-07-18T20:09	10	0	0.1	0	0	414	0.4	413	414	24.1	53.5
2025-07-18T20:10	10	0	0.0	0	0	413	0.3	412	414	24.0	54.1
2025-07-18T20:11	10	0	0.0	0	0	413	0.3	412	413	24.0	53.7
2025-07-18T20:12	10	0	0.1	0	0	412	0.4	411	413	24.0	54.1
2025-07-18T20:13	10	0	0.0	0	0	412	0.7	410	413	23.8	55.4
2025-07-18T20:14	10	0	0.1	0	0	409	1.2	407	411	23.4	58.3
2025-07-18T20:15	10	0	0.1	0	1	408	0.6	407	409	22.7	61.8
2025-07-18T20:16	10	0	0.1	0	0	408	0.4	408	409	22.5	62.0
2025-07-18T20:17	10	0	0.1	0	0	407	0.3	407	408	22.4	63.4
2025-07-18T20:18	10	0	0.1	0	0	408	0.3	407	408	22.2	64.8
2025-07-18T20:19	10	0	0.1	0	0	408	0.5	407	409	22.3	64.5
2025-07-18T20:20	10	0	0.1	0	0	408	0.4	407	409	22.4	64.0
2025-07-18T20:21	10	0	0.1	0	0	408	0.4	407	409	22.6	63.4
2025-07-18T20:22	10	0	0.1	0	0	408	0.3	407	408	22.6	63.3
2025-07-18T20:23	10	0	0.1	0	0	407	0.5	406	408	22.4	64.1
2025-07-18T20:24	10	0	0.1	0	0	406	0.2	405	406	22.1	65.0
2025-07-18T20:25	10	0	0.1	0	0	405	0.4	405	406	22.0	65.4
2025-07-18T20:26	10	0	0.1	0	0	406	0.4	405	407	22.0	65.2
2025-07-18T20:27	10	0	0.1	0	0	407	0.3	406	407	22.1	65.2
2025-07-18T20:28	10	0	0.1	0	0	406	0.4	405	407	22.1	65.4
2025-07-18T20:29	10	0	0.1	0	0	406	0.3	406	407	22.2	65.3
2025-07-18T20:30	10	0	0.1	0	0	406	0.2	406	407	22.3	65.0
2025-07-18T20:31	10	0	0.1	0	0	406	0.4	405	407	22.3	64.5
2025-07-18T20:32	10	0	0.1	0	0	406	0.2	406	407	22.3	64.8
2025-07-18T20:33	10	0	0.1	0	0	406	0.2	406	407	22.3	64.9
2025-07-18T20:34	10	0	0.1	0	0	407	0.4	406	407	22.3	65.2
2025-07-18T20:35	10	0	0.1	0	0	406	0.3	406	407	22.3	64.9
2025-07-18T20:36	10	0	0.1	0	0	406	0.3	405	407	22.3	65.0
2025-07-18T20:37	10	0	0.1	0	0	405	0.5	404	406	22.3	64.8
2025-07-18T20:38	10	0	0.1	0	0	405	0.3	405	406	22.2	65.3
2025-07-18T20:39	10	0	0.1	0	0	405	0.3	404	406	22.3	65.3
2025-07-18T20:40	10	0	0.1	0	0	405	0.3	404	406	22.3	65.2
2025-07-18T20:41	10	0	0.1	0	0	404	0.3	404	405	22.3	65.0
2025-07-18T20:42	10	0	0.1	0	0	404	0.2	404	405	22.2	64.8
2025-07-18T20:43	10	0	0.1	0	0	404	0.3	403	404	22.1	65.0
2025-07-18T20:44	10	0	0.1	0	0	404	0.2	403	404	22.0	65.5
2025-07-18T20:45	10	0	0.1	0	0	403	0.3	403	404	21.9	65.8
2025-07-18T20:46	10	0	0.1	0	0	403	0.2	403	404	21.8	65.9
2025-07-18T20:47	10	0	0.1	0	0	403	0.3	403	404	21.8	66.2
2025-07-18T20:48	10	0	0.1	0	0	402	0.3	402	403	21.8	66.2
2025-07-18T20:49	10	0	0.1	0	0	402	0.2	402	403	21.5	67.8
2025-07-18T20:50	10	0	0.1	0	0	402	0.3	402	403	21.2	68.6
2025-07-18T20:51	10	0	0.1	0	0	403	0.2	402	403	21.1	68.7
2025-07-18T20:52	10	0	0.1	0	0	403	0.3	402	404	21.1	68.2
2025-07-18T20:53	10	0	0.1	0	0	403	0.3	403	404	21.3	67.3
2025-07-18T20:54	10	0	0.1	0	0	403	0.2	403	403	21.4	66.8
2025-07-18T20:55	10	0	0.1	0	0	402	0.4	402	403	21.4	66.4
2025-07-18T20:56	10	0	0.1	0	0	402	0.3	401	402	21.4	66.3
2025-07-18T20:57	10	0	0.0	0	0	401	0.4	400	402	21.3	66.2
2025-07-18T20:58	10	0	0.1	0	0	401	0.3	400	402	21.2	66.7
2025-07-18T20:59	10	0	0.1	0	1	401	0.3	401	402	21.2	67.1
2025-07-18T21:00	10	0	0.1	0	0	402	0.5	401	403	21.2	67.2
2025-07-18T21:01	10	0	0.2	0	1	402	0.3	402	403	21.3	67.2
2025-07-18T21:02	10	0	0.1	0	1	403	0.4	402	403	21.3	66.5
2025-07-18T21:03	10	0	0.2	0	1	403	0.3	402	403	21.4	66.2
2025-07-18T21:04	10	0	0.1	0	1	402	0.2	402	403	21.4	66.0
2025-07-18T21:05	10	0	0.2	0	1	402	0.4	401	402	21.3	66.3
2025-07-18T21:06	10	0	0.1	0	1	401	0.3	400	401	21.1	66.8
2025-07-18T21:07	10	0	0.2	0	1	400	0.2	400	401	21.0	67.4
2025-07-18T21:08	10	0	0.1	0	1	400	0.2	400	400	20.9	68.0
2025-07-18T21:09	10	0	0.1	0	0	400	0.4	400	401	20.9	67.9
2025-07-18T21:10	10	0	0.1	0	0	401	0.3	400	402	21.2	66.9
2025-07-18T21:11	10	0	0.0	0	0	401	0.2	401	402	21.5	65.9
2025-07-18T21:12	10	0	0.0	0	0	401	0.3	401	402	21.6	65.7
2025-07-18T21:13	10	0	0.0	0	0	401	0.3	400	402	21.6	65.4
2025-07-18T21:14	10	0	0.0	0	0	401	0.3	400	401	21.6	65.5
2025-07-18T21:15	10	0	0.0	0	0	401	0.2	400	401	21.5	66.1
2025-07-18T21:16	10	0	0.1	0	0	401	0.2	400	401	21.5	66.0
2025-07-18T21:17	10	0	0.0	0	0	400	0.3	400	401	21.5	65.9
2025-07-18T21:18	10	0	0.0	0	0	400	0.2	400	401	21.5	65.8
2025-07-18T21:19	10	0	0.1	0	0	400	0.2	400	401	21.6	65.6
2025-07-18T21:20	10	0	0.0	0	0	400	0.3	400	401	21.6	65.7
2025-07-18T21:21	10	0	0.0	0	0	400	0.2	400	401	21.5	65.8
2025-07-18T21:22	10	0	0.1	0	0	400	0.3	399	400	21.5	66.0
2025-07-18T21:23	10	0	0.1	0	0	400	0.2	399	400	21.4	66.4
2025-07-18T21:24	10	0	0.0	0	0	400	0.2	399	400	21.3	66.9
2025-07-18T21:25	10	0	0.0	0	0	400	0.2	399	400	21.3	67.3
2025-07-18T21:26	10	0	0.1	0	0	400	0.2	400	400	21.4	66.8
2025-07-18T21:27	10	0	0.0	0	0	400	0.2	400	400	21.4	66.9
2025-07-18T21:28	10	0	0.0	0	0	400	0.2	399	400	21.4	67.1
2025-07-18T21:29	10	0	0.1	0	0	400	0.2	399	400	21.3	67.3
2025-07-18T21:30	10	0	0.0	0	0	399	0.2	399	400	21.3	67.2
2025-07-18T21:31	10	0	0.1	0	0	399	0.3	398	400	21.2	67.8
2025-07-18T21:32	10	0	0.1	0	0	399	0.3	398	399	21.2	68.1
2025-07-18T21:33	10	0	0.1	0	0	399	0.3	399	400	21.3	67.3
2025-07-18T21:34	10	0	0.1	0	0	400	0.5	399	401	21.3	66.9
2025-07-18T21:35	10	0	0.1	0	0	401	0.3	400	402	21.3	67.0
2025-07-18T21:36	10	0	0.1	0	0	401	0.2	400	401	21.3	67.1
2025-07-18T21:37	10	0	0.1	0	0	401	0.2	400	401	21.4	66.9
2025-07-18T21:38	10	0	0.1	0	0	401	0.2	400	401	21.4	66.7
2025-07-18T21:39	10	0	0.1	0	0	400	0.3	399	401	21.4	66.8
2025-07-18T21:40	10	0	0.1	0	0	400	0.3	399	400	21.4	66.9
2025-07-18T21:41	10	0	0.1	0	0	399	0.5	398	400	21.3	67.4
2025-07-18T21:42	10	0	0.1	0	0	398	0.4	398	399	21.1	68.6
2025-07-18T21:43	10	0	0.1	0	0	400	0.7	399	401	21.0	68.9
2025-07-18T21:44	10	0	0.1	0	0	401	0.3	400	401	21.0	68.5
2025-07-18T21:45	10	0	0.1	0	0	401	0.4	400	402	20.9	69.1
2025-07-18T21:46	10	0	0.1	0	0	401	0.3	401	402	21.0	67.9
2025-07-18T21:47	10	0	0.1	0	0	401	0.3	400	402	20.6	68.5
2025-07-18T21:48	10	0	0.1	0	1	401	0.3	400	401	20.2	71.0
2025-07-18T21:49	10	0	0.1	0	1	400	0.4	399	401	19.9	74.4
2025-07-18T21:50	10	0	0.1	0	1	400	0.3	399	400	19.6	76.1
2025-07-18T21:51	10	0	0.1	0	1	400	0.3	399	400	19.5	74.5
2025-07-18T21:52	10	0	0.1	0	0	399	0.3	399	400	19.5	73.5
2025-07-18T21:53	10	0	0.1	0	0	399	0.4	399	400	19.6	73.1
2025-07-18T21:54	10	0	0.1	0	0	399	0.3	398	400	19.5	73.6
2025-07-18T21:55	10	0	0.1	0	0	399	0.2	398	399	19.5	74.2
2025-07-18T21:56	10	0	0.1	0	0	399	0.4	398	400	19.3	75.0
2025-07-18T21:57	10	0	0.1	0	0	399	0.3	398	400	19.3	74.8
2025-07-18T21:58	10	0	0.1	0	0	399	0.3	398	399	19.3	74.2
2025-07-18T21:59	10	0	0.1	0	0	399	0.4	398	400	19.4	73.7
2025-07-18T22:00	10	0	0.1	0	0	399	0.4	398	400	19.5	73.1
2025-07-18T22:01	10	0	0.1	0	0	399	0.3	399	400	19.6	72.8
2025-07-18T22:02	10	0	0.1	0	0	399	0.2	399	399	19.5	73.4
2025-07-18T22:03	10	0	0.1	0	0	399	0.3	399	400	19.4	74.2
2025-07-18T22:04	10	0	0.1	0	0	400	0.3	399	400	19.5	73.0
2025-07-18T22:05	10	0	0.1	0	0	400	0.2	399	400	19.5	72.9
2025-07-18T22:06	10	0	0.1	0	0	399	0.3	399	400	18.8	72.9
2025-07-18T22:07	10	0	0.1	0	0	399	0.3	399	400	19.5	72.9
2025-07-18T22:08	10	0	0.1	0	0	399	0.2	398	399	19.5	72.9
2025-07-18T22:09	10	0	0.1	0	0	399	0.2	398	399	19.5	72.9
2025-07-18T22:10	10	0	0.1	0	0	398	0.3	398	399	19.5	72.9
2025-07-18T22:11	10	0	0.1	0	0	399	0.2	398	399	19.5	72.9
2025-07-18T22:12	10	0	0.1	0	0	399	0.4	398	400	19.5	74.4
2025-07-18T22:13	10	0	0.0	0	0	400	0.3	399	400	19.7	74.5
2025-07-18T22:14	10	0	0.1	0	0	401	0.2	400	401	20.0	73.5
2025-07-18T22:15	10	0	0.1	0	0	401	0.2	401	401	19.9	74.0
2025-07-18T22:16	10	0	0.1	0	0	402	0.3	401	402	19.8	74.2
2025-07-18T22:17	10	0	0.1	0	0	402	0.3	401	402	20.0	73.0
2025-07-18T22:18	10	0	0.1	0	0	402	0.2	402	403	20.0	72.4
2025-07-18T22:19	10	0	0.1	0	0	403	0.3	402	403	20.1	71.7
2025-07-18T22:20	10	0	0.2	0	1	402	0.2	402	403	20.0	72.4
2025-07-18T22:21	10	0	0.2	0	1	402	0.2	402	403	19.9	72.7
2025-07-18T22:22	10	0	0.2	0	1	402	0.3	401	403	19.9	72.8
2025-07-18T22:23	10	0	0.2	0	1	402	0.3	402	403	20.0	72.9
2025-07-18T22:24	10	0	0.2	0	1	401	0.5	400	402	19.9	73.6
2025-07-18T22:25	10	0	0.1	0	1	401	0.3	400	402	19.6	74.8
2025-07-18T22:26	10	0	0.2	0	1	401	0.3	400	401	19.5	74.5
2025-07-18T22:27	10	0	0.2	0	1	401	0.3	400	401	19.6	73.7
2025-07-18T22:28	10	0	0.2	0	1	401	0.2	400	401	19.7	73.4
2025-07-18T22:29	10	0	0.2	0	1	401	0.3	401	402	19.8	72.9
2025-07-18T22:30	10	0	0.1	0	1	402	0.3	401	402	19.9	71.9
2025-07-18T22:31	10	0	0.2	0	1	402	0.3	401	403	20.0	71.3
2025-07-18T22:32	10	0	0.2	0	1	402	0.2	402	403	20.0	71.4
2025-07-18T22:33	10	0	0.2	0	1	402	0.3	401	403	20.0	71.4
2025-07-18T22:34	10	0	0.1	0	0	403	0.5	402	404	19.9	71.8
2025-07-18T22:35	10	0	0.2	0	1	404	0.4	403	404	20.3	70.2
2025-07-18T22:36	10	0	0.1	0	1	403	0.3	402	404	20.3	71.3
2025-07-18T22:37	10	0	0.1	0	1	404	0.2	403	404	20.2	72.4
2025-07-18T22:38	10	0	0.1	0	1	404	0.2	403	404	20.1	72.9
2025-07-18T22:39	10	0	0.1	0	0	404	0.3	403	404	20.0	73.1
2025-07-18T22:40	10	0	0.2	0	1	404	0.3	403	404	20.0	73.2
2025-07-18T22:41	10	0	0.1	0	0	404	0.3	404	405	20.0	72.8
2025-07-18T22:42	10	0	0.1	0	0	405	0.3	404	406	20.2	71.8
2025-07-18T22:43	10	0	0.1	0	0	405	0.3	404	405	20.1	73.4
2025-07-18T22:44	10	0	0.1	0	1	405	0.4	404	406	20.1	73.6
2025-07-18T22:45	10	0	0.1	0	0	405	0.3	405	406	20.1	73.0
2025-07-18T22:46	10	0	0.1	0	0	406	0.3	405	406	20.3	72.1
2025-07-18T22:47	10	0	0.1	0	0	406	0.4	405	406	20.3	71.9
2025-07-18T22:48	10	0	0.1	0	0	405	0.3	404	406	19.9	75.3
2025-07-18T22:49	10	0	0.1	0	0	406	1.1	404	408	19.9	73.7
2025-07-18T22:50	10	0	0.1	0	0	405	0.3	404	406	20.0	73.9
2025-07-18T22:51	10	0	0.1	0	0	405	0.3	405	406	19.9	74.6
2025-07-18T22:52	10	0	0.1	0	0	405	0.2	405	406	19.7	75.8
2025-07-18T22:53	10	0	0.1	0	0	406	0.3	405	406	19.8	74.8
2025-07-18T22:54	10	0	0.1	0	0	406	0.2	406	407	19.9	74.7
2025-07-18T22:55	10	0	0.1	0	0	406	0.2	405	406	19.8	75.6
2025-07-18T22:56	10	0	0.1	0	0	406	0.2	405	406	19.7	76.3
2025-07-18T22:57	10	0	0.1	0	0	406	0.2	405	406	19.7	76.2
2025-07-18T22:58	10	0	0.1	0	0	406	0.2	406	407	19.7	75.9
2025-07-18T22:59	10	0	0.1	0	0	406	0.3	406	407	19.8	74.8
2025-07-18T23:00	10	0	0.1	0	0	407	0.3	406	407	20.0	73.5
2025-07-18T23:01	10	0	0.1	0	0	407	0.2	406	407	20.1	73.6
2025-07-18T23:02	10	0	0.1	0	0	407	0.2	406	407	20.1	73.7
2025-07-18T23:03	10	0	0.1	0	0	406	0.2	406	407	20.0	74.6
2025-07-18T23:04	10	0	0.1	0	0	406	0.6	405	407	19.8	75.2
2025-07-18T23:05	10	0	0.1	0	0	405	0.3	405	406	19.5	77.0
2025-07-18T23:06	10	0	0.1	0	0	405	0.3	404	405	19.3	77.9
2025-07-18T23:07	10	0	0.0	0	0	405	0.3	404	405	19.2	78.1
2025-07-18T23:08	10	0	0.1	0	0	404	0.2	404	405	19.3	77.7
2025-07-18T23:09	10	0	0.0	0	0	404	0.3	403	405	19.2	78.8
2025-07-18T23:10	10	0	0.1	0	0	404	0.3	404	405	19.2	78.1
2025-07-18T23:11	10	0	0.0	0	0	404	0.3	403	405	19.1	78.5
2025-07-18T23:12	10	0	0.1	0	0	404	0.2	403	404	19.0	78.9
2025-07-18T23:13	10	0	0.1	0	0	403	0.2	403	404	19.0	79.6
2025-07-18T23:14	10	0	0.1	0	0	403	0.2	403	404	19.0	79.5
2025-07-18T23:15	10	0	0.0	0	0	403	0.3	402	404	19.0	79.3
2025-07-18T23:16	10	0	0.1	0	0	403	0.2	402	403	19.0	79.7
2025-07-18T23:17	10	0	0.1	0	0	403	0.2	402	403	18.9	80.0
2025-07-18T23:18	10	0	0.0	0	0	402	0.3	402	403	19.0	78.7
2025-07-18T23:19	10	0	0.0	0	0	402	0.3	402	403	19.3	76.6
2025-07-18T23:20	10	0	0.1	0	0	402	0.2	402	403	19.5	75.4
2025-07-18T23:21	10	0	0.0	0	0	402	0.2	401	402	19.6	75.4
2025-07-18T23:22	10	0	0.1	0	0	402	0.3	401	402	19.6	75.4
2025-07-18T23:23	10	0	0.1	0	0	402	0.2	402	403	19.7	74.2
2025-07-18T23:24	10	0	0.1	0	0	402	0.3	402	403	19.8	73.7
2025-07-18T23:25	10	0	0.1	0	0	403	0.2	402	403	20.0	72.7
2025-07-18T23:26	10	0	0.1	0	0	402	0.3	402	403	19.9	73.6
2025-07-18T23:27	10	0	0.1	0	0	403	0.2	402	403	19.9	74.2
2025-07-18T23:28	10	0	0.1	0	0	403	0.2	402	403	19.9	74.4
2025-07-18T23:29	10	0	0.1	0	0	403	0.2	402	403	19.9	74.2
2025-07-18T23:30	10	0	0.1	0	0	403	0.2	402	403	19.6	76.3
2025-07-18T23:31	10	0	0.1	0	0	403	0.2	402	403	19.4	77.3
2025-07-18T23:32	10	0	0.1	0	0	403	0.2	402	403	19.4	77.6
2025-07-18T23:33	10	0	0.1	0	0	403	0.2	402	403	19.3	77.9
2025-07-18T23:34	10	0	0.1	0	0	403	0.2	402	403	19.3	78.0
2025-07-18T23:35	10	0	0.1	0	0	403	0.2	402	403	19.3	77.6
2025-07-18T23:36	10	0	0.1	0	0	403	0.3	402	403	19.4	77.4
2025-07-18T23:37	10	0	0.1	0	0	403	0.2	402	403	19.4	76.8
2025-07-18T23:38	10	0	0.1	0	0	403	0.2	402	403	19.5	75.4
2025-07-18T23:39	10	0	0.1	0	0	402	0.2	402	403	19.6	75.3
2025-07-18T23:40	10	0	0.1	0	0	402	0.3	402	403	19.7	74.1
2025-07-18T23:41	10	0	0.1	0	0	402	0.4	401	402	19.6	76.0
2025-07-18T23:42	10	0	0.1	0	0	401	0.3	401	402	19.4	77.3
2025-07-18T23:43	10	0	0.1	0	0	401	0.3	401	402	19.4	76.6
2025-07-18T23:44	10	0	0.1	0	0	401	0.3	401	402	19.5	75.8
2025-07-18T23:45	10	0	0.1	0	0	401	0.2	401	401	19.6	74.7
2025-07-18T23:46	10	0	0.1	0	0	401	0.4	400	402	19.5	77.2
2025-07-18T23:47	10	0	0.1	0	0	401	0.3	400	401	19.4	77.6
2025-07-18T23:48	10	0	0.1	0	0	400	0.2	400	401	19.2	79.9
2025-07-18T23:49	10	0	0.1	0	0	401	0.2	400	401	19.0	81.8
2025-07-18T23:50	10	0	0.1	0	0	400	0.3	400	401	18.9	82.1
2025-07-18T23:51	10	0	0.1	0	0	400	0.2	400	401	18.9	81.3
2025-07-18T23:52	10	0	0.1	0	0	400	0.3	399	400	19.0	80.6
2025-07-18T23:53	10	0	0.1	0	0	399	0.3	399	400	19.0	80.6
2025-07-18T23:54	10	0	0.1	0	0	399	0.3	398	399	18.9	81.0
2025-07-18T23:55	10	0	0.1	0	0	399	0.3	398	400	18.9	80.8
2025-07-18T23:56	10	0	0.1	0	0	399	0.4	398	399	19.0	79.9
2025-07-18T23:57	10	0	0.1	0	0	398	0.2	398	399	19.3	77.4
2025-07-18T23:58	10	0	0.1	0	0	398	0.3	397	399	19.4	76.4
2025-07-18T23:59	10	0	0.1	0	0	398	0.3	397	398	19.5	75.3
2025-07-19T00:00	10	0	0.1	0	0	397	0.3	397	398	19.8	73.1
2025-07-19T00:01	10	0	0.1	0	0	397	0.3	396	398	19.8	73.1
2025-07-19T00:02	10	0	0.1	0	0	397	0.2	396	397	19.7	73.4
2025-07-19T00:03	10	0	0.1	0	0	396	0.2	396	397	19.5	75.0
2025-07-19T00:04	10	0	0.1	0	0	397	0.3	396	398	19.4	75.1
2025-07-19T00:05	10	0	0.1	0	0	397	0.2	397	398	19.5	74.8
2025-07-19T00:06	10	0	0.1	0	0	397	0.3	396	398	19.6	74.4
2025-07-19T00:07	10	0	0.1	0	0	397	0.3	396	397	19.6	74.0
2025-07-19T00:08	10	0	0.1	0	0	397	0.2	396	397	19.8	73.3
2025-07-19T00:09	10	0	0.1	0	0	396	0.3	396	397	19.8	73.4
2025-07-19T00:10	10	0	0.1	0	0	396	0.3	395	397	19.9	73.2
2025-07-19T00:11	10	0	0.1	0	0	396	0.4	395	396	19.9	73.3
2025-07-19T00:12	10	0	0.1	0	0	395	0.3	395	396	19.9	73.3
2025-07-19T00:13	10	0	0.1	0	0	394	0.5	393	395	19.8	74.0
2025-07-19T00:14	10	0	0.1	0	0	394	0.2	393	394	19.4	76.0
2025-07-19T00:15	10	0	0.0	0	0	394	0.3	393	394	19.4	76.3
2025-07-19T00:16	10	0	0.1	0	0	395	0.5	394	396	19.3	77.2
2025-07-19T00:17	10	0	0.1	0	0	396	0.4	395	397	19.3	77.4
2025-07-19T00:18	10	0	0.1	0	0	397	0.4	396	398	19.3	77.1
2025-07-19T00:19	10	0	0.1	0	0	397	0.2	397	398	19.3	76.8
2025-07-19T00:20	10	0	0.1	0	0	396	0.4	396	397	18.8	80.0
2025-07-19T00:21	10	0	0.1	0	0	397	0.4	396	398	18.7	80.1
2025-07-19T00:22	10	0	0.1	0	0	397	0.4	396	397	18.7	80.3
2025-07-19T00:23	10	0	0.1	0	0	396	0.3	395	397	18.5	82.5
2025-07-19T00:24	10	0	0.1	0	0	396	0.2	395	396	18.3	83.7
2025-07-19T00:25	10	0	0.1	0	0	396	0.2	395	396	18.2	84.1
2025-07-19T00:26	10	0	0.1	0	0	396	0.3	395	396	18.2	84.1
2025-07-19T00:27	10	0	0.1	0	0	395	0.2	395	396	18.3	83.9
2025-07-19T00:28	10	0	0.1	0	0	395	0.3	394	395	18.2	84.1
2025-07-19T00:29	10	0	0.1	0	0	395	0.2	394	395	18.3	83.9
2025-07-19T00:30	10	0	0.1	0	0	395	0.4	394	395	18.3	83.9
2025-07-19T00:31	10	0	0.1	0	0	395	0.3	394	396	18.3	83.5
2025-07-19T00:32	10	0	0.1	0	0	396	0.4	395	396	18.3	83.6
2025-07-19T00:33	10	0	0.1	0	0	396	0.4	395	397	18.4	83.3
2025-07-19T00:34	10	0	0.1	0	0	397	0.3	396	397	18.4	83.0
2025-07-19T00:35	10	0	0.0	0	0	397	0.2	396	397	18.5	82.8
2025-07-19T00:36	10	0	0.1	0	0	397	0.3	396	397	18.4	83.0
2025-07-19T00:37	10	0	0.1	0	0	397	0.3	396	397	18.4	83.2
2025-07-19T00:38	10	0	0.0	0	0	396	0.3	396	397	18.3	83.8
2025-07-19T00:39	10	0	0.0	0	0	397	0.2	396	397	18.2	84.1
2025-07-19T00:40	10	0	0.1	0	0	396	0.3	396	397	18.2	84.2
2025-07-19T00:41	10	0	0.1	0	0	396	0.2	396	397	18.3	84.0
2025-07-19T00:42	10	0	0.0	0	0	397	0.3	396	397	18.2	84.2
2025-07-19T00:43	10	0	0.0	0	0	396	0.2	396	397	18.2	83.9
2025-07-19T00:44	10	0	0.0	0	0	396	0.2	396	397	18.3	83.3
2025-07-19T00:45	10	0	0.0	0	0	396	0.2	396	397	18.3	83.1
2025-07-19T00:46	10	0	1.2	0	9	396	0.2	395	396	18.3	82.8
2025-07-19T00:47	10	0	0.6	0	5	395	0.3	395	396	18.3	82.9
2025-07-19T00:48	10	0	0.1	0	0	395	0.2	394	395	18.3	82.9
2025-07-19T00:49	10	0	0.0	0	0	395	0.2	394	396	18.3	82.6
2025-07-19T00:50	10	0	0.1	0	0	395	0.2	395	396	18.4	82.0
2025-07-19T00:51	10	0	0.1	0	0	394	0.3	394	395	18.4	82.4
2025-07-19T00:52	10	0	0.1	0	0	395	0.3	394	395	18.4	81.9
2025-07-19T00:53	10	0	0.1	0	0	395	0.3	394	395	18.6	80.4
2025-07-19T00:54	10	0	0.1	0	0	394	0.4	393	395	18.7	80.0
2025-07-19T00:55	10	0	0.1	0	1	394	0.2	393	394	18.6	80.5
2025-07-19T00:56	10	0	0.1	0	1	394	0.2	393	394	18.5	80.7
2025-07-19T00:57	10	0	0.1	0	1	393	0.3	393	394	18.5	80.8
2025-07-19T00:58	10	0	0.1	0	1	394	0.2	393	394	18.5	80.4
2025-07-19T00:59	10	0	0.1	0	1	394	0.3	394	395	18.5	80.6
2025-07-19T01:00	10	0	0.1	0	1	395	0.3	394	395	18.5	80.7
2025-07-19T01:01	10	0	0.2	0	1	395	0.4	394	396	18.5	80.2
2025-07-19T01:02	10	0	0.1	0	1	396	0.3	395	397	18.6	79.5
2025-07-19T01:03	10	0	0.1	0	1	396	0.3	395	396	18.7	79.3
2025-07-19T01:04	10	0	0.2	0	1	396	0.2	396	397	18.7	79.0
2025-07-19T01:05	10	0	0.2	0	1	396	0.3	395	397	18.6	79.7
2025-07-19T01:06	10	0	0.2	0	1	396	0.3	395	396	18.4	81.0
2025-07-19T01:07	10	0	0.2	0	1	396	0.3	395	397	18.4	81.4
2025-07-19T01:08	10	0	0.1	0	1	396	0.3	396	397	18.4	81.2
2025-07-19T01:09	10	0	0.2	0	1	397	0.4	395	397	18.5	80.6
2025-07-19T01:10	10	0	0.2	0	0	397	0.3	396	397	18.5	80.8
2025-07-19T01:11	10	0	0.2	0	1	397	0.3	396	398	18.4	81.0
2025-07-19T01:12	10	0	0.2	0	1	397	0.3	396	398	18.3	82.0
2025-07-19T01:13	10	0	0.2	0	1	397	0.2	397	398	18.2	82.2
2025-07-19T01:14	10	0	0.2	0	1	397	0.3	397	398	18.3	81.8
2025-07-19T01:15	10	0	0.1	0	0	397	0.2	397	398	18.4	81.4
2025-07-19T01:16	10	0	0.2	0	1	397	0.2	397	398	18.4	81.0
2025-07-19T01:17	10	0	0.2	0	1	398	0.3	397	399	18.4	81.2
2025-07-19T01:18	10	0	0.1	0	0	398	0.3	397	399	18.3	81.9
2025-07-19T01:19	10	0	0.2	0	1	398	0.2	398	399	18.3	81.8
2025-07-19T01:20	10	0	0.1	0	0	398	0.2	398	399	18.5	81.1
2025-07-19T01:21	10	0	0.2	0	1	398	0.3	398	399	18.5	81.0
2025-07-19T01:22	10	0	0.2	0	1	399	0.3	398	399	18.5	80.5
2025-07-19T01:23	10	0	0.2	0	0	399	0.3	398	399	18.6	80.2
2025-07-19T01:24	10	0	0.2	0	1	399	0.2	398	399	18.6	79.8
2025-07-19T01:25	10	0	0.1	0	0	399	0.3	398	399	18.6	79.0
2025-07-19T01:26	10	0	0.1	0	1	398	0.4	397	399	18.6	79.3
2025-07-19T01:27	10	0	0.2	0	1	398	0.3	397	399	18.5	80.4
2025-07-19T01:28	10	0	0.1	0	0	397	0.3	397	398	18.4	80.9
2025-07-19T01:29	10	0	0.2	0	1	397	0.2	397	398	18.4	80.9
2025-07-19T01:30	10	0	0.1	0	0	397	0.2	397	398	18.3	81.3
2025-07-19T01:31	10	0	0.2	0	1	398	0.3	397	398	18.4	80.9
2025-07-19T01:32	10	0	0.2	0	1	398	0.2	397	398	18.4	80.4
2025-07-19T01:33	10	0	0.2	0	1	398	0.2	397	399	18.4	80.7
2025-07-19T01:34	10	0	0.2	0	1	398	0.2	397	399	18.4	80.7
2025-07-19T01:35	10	0	0.1	0	0	398	0.2	398	399	18.4	80.6
2025-07-19T01:36	10	0	0.2	0	1	398	0.3	398	399	18.3	80.9
2025-07-19T01:37	10	0	0.2	0	1	399	0.3	398	399	18.4	80.2
2025-07-19T01:38	10	0	0.1	0	0	398	0.2	398	399	18.4	80.5
2025-07-19T01:39	10	0	0.2	0	1	398	0.3	397	399	18.3	80.9
2025-07-19T01:40	10	0	0.2	0	1	398	0.2	397	398	18.2	81.8
2025-07-19T01:41	10	0	0.1	0	1	398	0.2	397	398	18.2	82.1
2025-07-19T01:42	10	0	0.2	0	1	397	0.3	396	398	18.1	82.5
2025-07-19T01:43	10	0	0.2	0	1	397	0.2	397	398	18.0	83.1
2025-07-19T01:44	10	0	0.1	0	0	397	0.2	396	397	18.0	83.3
2025-07-19T01:45	10	0	0.1	0	0	396	0.2	396	397	18.1	82.5
2025-07-19T01:46	10	0	0.1	0	0	396	0.2	396	397	18.1	82.9
2025-07-19T01:47	10	0	0.1	0	1	396	0.3	395	396	18.0	83.2
2025-07-19T01:48	10	0	0.1	0	1	395	0.3	395	396	18.0	83.3
2025-07-19T01:49	10	0	0.1	0	1	395	0.3	394	396	18.0	83.2
2025-07-19T01:50	10	0	0.1	0	1	395	0.3	394	396	17.9	83.8
2025-07-19T01:51	10	0	0.1	0	0	394	0.3	393	395	17.8	84.2
2025-07-19T01:52	10	0	0.1	0	0	394	0.2	393	394	17.8	84.4
2025-07-19T01:53	10	0	0.1	0	0	394	0.3	393	394	17.9	84.1
2025-07-19T01:54	10	0	0.1	0	1	394	0.3	393	395	17.9	83.8
2025-07-19T01:55	10	0	0.2	0	1	394	0.2	394	394	18.1	83.0
2025-07-19T01:56	10	0	0.1	0	1	394	0.4	394	395	18.1	82.8
2025-07-19T01:57	10	0	0.1	0	0	395	0.4	394	395	18.1	83.1
2025-07-19T01:58	10	0	0.1	0	0	395	0.3	394	395	18.1	83.3
2025-07-19T01:59	10	0	0.2	0	1	394	0.2	394	395	18.0	84.1
2025-07-19T02:00	10	0	0.1	0	1	394	0.2	393	394	17.9	84.8
2025-07-19T02:01	10	0	0.1	0	0	394	0.3	393	394	17.8	85.2
2025-07-19T02:02	10	0	0.1	0	0	393	0.3	393	394	17.8	85.2
2025-07-19T02:03	10	0	0.1	0	0	393	0.2	393	394	17.8	85.2
2025-07-19T02:04	10	0	0.2	0	0	393	0.3	393	394	17.8	85.3
2025-07-19T02:05	10	0	0.1	0	0	393	0.2	393	394	17.8	85.2
2025-07-19T02:06	10	0	0.1	0	0	393	0.3	393	394	17.8	85.3
2025-07-19T02:07	10	0	0.1	0	0	392	0.3	392	393	17.8	85.2
2025-07-19T02:08	10	0	0.1	0	0	392	0.2	391	392	17.8	85.4
2025-07-19T02:09	10	0	0.1	0	0	391	0.2	391	392	17.7	85.9
2025-07-19T02:10	10	0	0.1	0	1	392	0.3	391	392	17.7	86.0
2025-07-19T02:11	10	0	0.0	0	0	392	0.2	392	393	17.8	85.6
2025-07-19T02:12	10	0	0.0	0	0	392	0.2	391	392	17.8	85.5
2025-07-19T02:13	10	0	0.1	0	0	392	0.2	391	392	17.8	85.1
2025-07-19T02:14	10	0	0.1	0	0	391	0.3	390	392	17.8	85.0
2025-07-19T02:15	10	0	0.0	0	0	390	0.3	390	391	17.8	85.4
2025-07-19T02:16	10	0	0.0	0	0	390	0.2	390	390	17.7	85.8
2025-07-19T02:17	10	0	0.0	0	0	390	0.2	389	390	17.6	85.9
2025-07-19T02:18	10	0	0.0	0	0	389	0.3	389	390	17.6	85.9
2025-07-19T02:19	10	0	0.0	0	0	389	0.2	388	389	17.7	85.5
2025-07-19T02:20	10	0	0.0	0	0	388	0.2	388	389	17.7	85.4
2025-07-19T02:21	10	0	0.0	0	0	388	0.2	387	388	17.7	85.4
2025-07-19T02:22	10	0	0.0	0	0	387	0.3	387	388	17.7	85.5
2025-07-19T02:23	10	0	0.0	0	0	387	0.3	386	388	17.7	85.9
2025-07-19T02:24	10	0	0.0	0	0	387	0.3	386	387	17.6	86.1
2025-07-19T02:25	10	0	0.0	0	0	387	0.2	386	387	17.6	86.2
2025-07-19T02:26	10	0	0.1	0	0	387	0.3	386	387	17.7	86.2
2025-07-19T02:27	10	0	0.0	0	0	386	0.2	386	387	17.6	86.4
2025-07-19T02:28	10	0	0.0	0	0	387	0.2	386	387	17.6	86.6
2025-07-19T02:29	10	0	0.1	0	0	387	0.3	386	388	17.6	86.2
2025-07-19T02:30	10	0	0.0	0	0	387	0.2	387	388	17.7	85.4
2025-07-19T02:31	10	0	0.0	0	0	387	0.3	387	388	17.8	84.7
2025-07-19T02:32	10	0	0.1	0	0	387	0.2	386	387	17.8	84.7
2025-07-19T02:33	10	0	0.0	0	0	387	0.3	386	387	17.8	84.6
2025-07-19T02:34	10	0	0.1	0	0	386	0.2	386	387	17.8	84.5
2025-07-19T02:35	10	0	0.0	0	0	385	0.4	385	386	17.8	84.3
2025-07-19T02:36	10	0	0.1	0	0	385	0.2	385	386	17.7	84.7
2025-07-19T02:37	10	0	0.0	0	0	385	0.2	384	385	17.6	85.2
2025-07-19T02:38	10	0	0.0	0	0	385	0.2	384	385	17.5	85.7
2025-07-19T02:39	10	0	0.0	0	0	385	0.2	384	385	17.5	86.0
2025-07-19T02:40	10	0	0.0	0	0	385	0.4	384	386	17.4	86.3
2025-07-19T02:41	10	0	0.1	0	0	385	0.2	384	385	17.3	86.7
2025-07-19T02:42	10	0	0.1	0	0	385	0.3	384	385	17.3	86.7
2025-07-19T02:43	10	0	0.1	0	0	385	0.3	384	385	17.4	86.2
2025-07-19T02:44	10	0	0.1	0	0	385	0.3	384	386	17.5	85.4
2025-07-19T02:45	10	0	0.1	0	0	386	0.2	385	386	17.5	85.3
2025-07-19T02:46	10	0	0.0	0	0	386	0.5	385	387	17.6	85.0
2025-07-19T02:47	10	0	0.0	0	0	386	0.2	386	387	17.6	84.4
2025-07-19T02:48	10	0	0.1	0	0	387	0.2	386	387	17.7	83.9
2025-07-19T02:49	10	0	0.1	0	0	386	0.3	385	387	17.7	84.1
2025-07-19T02:50	10	0	0.1	0	0	386	0.3	385	386	17.6	84.4
2025-07-19T02:51	10	0	0.1	0	0	386	0.4	385	386	17.6	84.6
2025-07-19T02:52	10	0	0.0	0	0	385	0.3	384	385	17.6	84.7
2025-07-19T02:53	10	0	0.1	0	0	385	0.2	384	385	17.5	85.3
2025-07-19T02:54	10	0	0.1	0	0	385	0.2	384	385	17.4	85.6
2025-07-19T02:55	10	0	0.1	0	0	384	0.3	384	385	17.3	86.0
2025-07-19T02:56	10	0	0.1	0	0	384	0.2	384	385	17.3	85.7
2025-07-19T02:57	10	0	0.1	0	0	384	0.2	384	385	17.4	85.4
2025-07-19T02:58	10	0	0.1	0	0	384	0.2	383	384	17.4	85.2
2025-07-19T02:59	10	0	0.1	0	0	384	0.2	383	384	17.5	84.8
2025-07-19T03:00	10	0	0.1	0	0	383	0.3	383	384	17.5	84.5
2025-07-19T03:01	10	0	0.1	0	0	383	0.5	382	384	17.3	85.6
2025-07-19T03:02	10	0	0.1	0	0	382	0.3	382	383	17.0	87.1
2025-07-19T03:03	10	0	0.1	0	0	382	0.3	381	382	16.8	89.0
2025-07-19T03:04	10	0	0.1	0	0	381	0.4	381	382	16.6	89.4
2025-07-19T03:05	10	0	0.1	0	0	381	0.3	380	382	16.5	90.8
2025-07-19T03:06	10	0	0.1	0	0	381	0.3	380	381	16.5	90.3
2025-07-19T03:07	10	0	0.1	0	0	381	0.3	380	381	16.6	89.5
2025-07-19T03:08	10	0	0.1	0	0	381	0.3	380	382	16.7	89.4
2025-07-19T03:09	10	0	0.1	0	0	380	0.2	380	381	16.6	89.7
2025-07-19T03:10	10	0	0.1	0	1	380	0.2	380	381	16.6	89.9
2025-07-19T03:11	10	0	0.1	0	0	380	0.2	379	380	16.5	90.2
2025-07-19T03:12	10	0	0.1	0	0	379	0.3	379	380	16.5	90.1
2025-07-19T03:13	10	0	0.1	0	0	379	0.3	379	380	16.5	89.9
2025-07-19T03:14	10	0	0.1	0	0	380	0.3	379	380	16.5	90.0
2025-07-19T03:15	10	0	0.1	0	0	380	0.3	379	380	16.5	90.0
2025-07-19T03:16	10	0	0.1	0	0	380	0.4	379	381	16.5	89.8
2025-07-19T03:17	10	0	0.1	0	0	381	0.2	380	381	16.6	89.8
2025-07-19T03:18	10	0	0.1	0	0	380	0.3	380	381	16.6	89.7
2025-07-19T03:19	10	0	0.1	0	1	380	0.3	380	381	16.6	89.6
2025-07-19T03:20	10	0	0.1	0	0	380	0.2	380	381	16.6	89.5
2025-07-19T03:21	10	0	0.1	0	0	380	0.2	380	381	16.5	89.4
2025-07-19T03:22	10	0	0.1	0	0	381	0.3	380	381	16.5	89.2
2025-07-19T03:23	10	0	0.1	0	0	381	0.5	380	383	16.5	87.7
2025-07-19T03:24	10	0	0.1	0	0	383	0.3	382	383	16.6	86.8
2025-07-19T03:25	10	0	0.1	0	0	383	0.3	382	384	16.6	86.9
2025-07-19T03:26	10	0	0.1	0	0	383	0.4	382	383	16.7	87.0
2025-07-19T03:27	10	0	0.1	0	0	383	0.3	382	383	16.7	87.1
2025-07-19T03:28	10	0	0.1	0	0	383	0.3	382	383	16.5	87.8
2025-07-19T03:29	10	0	0.1	0	0	383	0.3	382	383	16.6	87.7
2025-07-19T03:30	10	0	0.1	0	0	383	0.4	382	384	16.6	87.6
2025-07-19T03:31	10	0	0.1	0	0	384	0.3	383	384	16.7	87.4
2025-07-19T03:32	10	0	0.1	0	0	384	0.3	384	385	16.7	87.3
2025-07-19T03:33	10	0	0.1	0	0	384	0.2	384	385	16.7	87.2
2025-07-19T03:34	10	0	0.1	0	0	385	0.2	384	385	16.7	87.1
2025-07-19T03:35	10	0	0.1	0	0	385	0.3	384	385	16.8	86.8
2025-07-19T03:36	10	0	0.1	0	0	385	0.2	384	385	16.8	86.6
2025-07-19T03:37	10	0	0.1	0	1	385	0.3	384	385	16.8	86.7
2025-07-19T03:38	10	0	0.1	0	1	384	0.3	384	385	16.8	86.7
2025-07-19T03:39	10	0	0.1	0	1	384	0.2	384	385	16.8	86.7
2025-07-19T03:40	10	0	0.1	0	1	384	0.3	383	385	16.8	86.4
2025-07-19T03:41	10	0	0.1	0	1	384	0.3	383	384	16.7	86.8
2025-07-19T03:42	10	0	0.1	0	1	383	0.3	383	384	16.7	87.0
2025-07-19T03:43	10	0	0.1	0	1	383	0.2	383	384	16.7	87.0
2025-07-19T03:44	10	0	0.1	0	1	383	0.2	383	384	16.7	86.8
2025-07-19T03:45	10	0	0.1	0	1	383	0.4	383	384	16.6	86.9
2025-07-19T03:46	10	0	0.1	0	1	384	0.2	383	384	16.7	86.7
2025-07-19T03:47	10	1	0.1	0	1	383	0.4	383	384	16.6	87.2
2025-07-19T03:48	10	1	0.1	0	1	383	0.2	383	384	16.4	87.8
2025-07-19T03:49	10	1	0.1	0	1	384	0.2	383	384	16.4	88.0
2025-07-19T03:50	10	1	0.1	0	1	384	0.3	383	384	16.4	87.8
2025-07-19T03:51	10	1	0.1	0	1	384	0.2	383	384	16.5	87.3
2025-07-19T03:52	10	1	0.1	1	1	384	0.2	383	384	16.6	86.8
2025-07-19T03:53	10	1	0.1	0	1	384	0.3	383	385	16.6	86.7
2025-07-19T03:54	10	1	0.1	1	1	384	0.3	383	385	16.6	86.5
2025-07-19T03:55	10	1	0.1	1	1	384	0.4	383	384	16.6	86.4
2025-07-19T03:56	10	1	0.1	1	1	382	0.4	382	383	16.4	87.3
2025-07-19T03:57	10	1	0.1	1	1	382	0.3	382	383	16.3	87.8
2025-07-19T03:58	10	1	0.1	1	1	383	0.3	383	384	16.4	87.4
2025-07-19T03:59	10	1	0.1	1	1	383	0.4	382	384	16.5	86.9
2025-07-19T04:00	10	1	0.1	1	1	382	0.3	382	383	16.4	87.1
2025-07-19T04:01	10	1	0.1	1	1	382	0.2	381	382	16.4	87.2
2025-07-19T04:02	10	1	0.1	1	1	382	0.3	381	382	16.4	86.8
2025-07-19T04:03	10	1	0.1	1	1	382	0.2	382	382	16.5	86.7
2025-07-19T04:04	10	1	0.1	1	1	382	0.2	382	382	16.4	87.1
2025-07-19T04:05	10	1	0.1	1	1	382	0.3	382	383	16.4	86.9
2025-07-19T04:06	10	1	0.1	1	1	383	0.3	382	383	16.4	86.9
2025-07-19T04:07	10	1	0.1	1	2	383	0.2	382	384	16.3	86.9
2025-07-19T04:08	10	1	0.1	1	2	383	0.2	383	384	16.3	87.1
2025-07-19T04:09	10	2	0.1	1	2	384	0.4	383	384	16.3	87.1
2025-07-19T04:10	10	2	0.1	1	2	383	0.3	382	384	16.4	86.7
2025-07-19T04:11	10	2	0.1	2	2	383	0.2	383	384	16.3	87.1
2025-07-19T04:12	10	2	0.1	2	2	383	0.2	383	383	16.4	87.2
2025-07-19T04:13	10	2	0.1	2	2	383	0.2	383	384	16.4	87.1
2025-07-19T04:14	10	2	0.1	2	2	383	0.3	382	384	16.5	86.5
2025-07-19T04:15	10	2	0.1	2	2	383	0.2	383	384	16.6	85.6
2025-07-19T04:16	10	2	0.1	2	2	384	0.2	383	384	16.7	85.2
2025-07-19T04:17	10	2	0.1	2	3	384	0.2	384	385	16.7	85.2
2025-07-19T04:18	10	3	0.1	2	3	384	0.3	383	385	16.7	85.1
2025-07-19T04:19	10	3	0.1	3	3	384	0.3	383	384	16.7	85.2
2025-07-19T04:20	10	3	0.1	3	3	384	0.3	383	384	16.7	84.7
2025-07-19T04:21	10	3	0.1	3	3	383	0.4	382	384	16.7	84.8
2025-07-19T04:22	10	3	0.2	3	4	382	0.2	382	383	16.6	85.9
2025-07-19T04:23	10	4	0.3	3	4	382	0.2	382	382	16.5	86.6
2025-07-19T04:24	10	5	0.2	4	5	383	0.3	382	383	16.5	85.9
2025-07-19T04:25	10	5	0.1	5	5	382	0.3	382	383	16.6	85.7
2025-07-19T04:26	10	5	0.2	5	6	383	0.3	382	383	16.5	85.8
2025-07-19T04:27	10	5	0.1	5	5	382	0.2	382	383	16.5	86.0
2025-07-19T04:28	10	5	0.2	5	6	383	0.2	382	383	16.5	86.4
2025-07-19T04:29	10	6	0.3	6	7	383	0.3	382	383	16.4	86.7
2025-07-19T04:30	10	7	0.1	7	7	383	0.2	383	383	16.3	87.2
2025-07-19T04:31	10	7	0.2	7	8	383	0.2	383	384	16.3	87.8
2025-07-19T04:32	10	8	0.2	7	8	384	0.3	383	384	16.3	87.5
2025-07-19T04:33	10	9	0.2	8	9	384	0.2	384	384	16.4	86.9
2025-07-19T04:34	10	9	0.2	9	10	384	0.3	383	385	16.4	86.9
2025-07-19T04:35	10	10	0.2	9	10	384	0.3	384	385	16.3	87.2
2025-07-19T04:36	10	9	0.5	8	10	384	0.2	384	385	16.3	86.9
2025-07-19T04:37	10	7	0.8	6	8	384	0.2	384	385	16.3	87.2
2025-07-19T04:38	10	6	0.1	5	6	384	0.2	384	385	16.3	87.4
2025-07-19T04:39	10	7	0.8	6	8	384	0.2	384	385	16.2	87.7
2025-07-19T04:40	10	7	0.6	6	8	384	0.2	383	384	16.1	87.8
2025-07-19T04:41	10	6	0.3	5	7	384	0.3	383	385	16.1	87.6
2025-07-19T04:42	10	6	0.2	6	7	384	0.3	384	385	16.1	87.9
2025-07-19T04:43	10	9	1.5	7	12	385	0.4	384	385	16.1	87.5
2025-07-19T04:44	10	14	0.8	12	15	385	0.4	385	386	16.1	87.3
2025-07-19T04:45	10	14	0.2	14	15	386	0.2	385	386	16.2	87.2
2025-07-19T04:46	10	15	0.3	15	16	386	0.3	386	387	16.1	87.3
2025-07-19T04:47	10	16	0.3	16	17	387	0.2	386	388	16.0	88.0
2025-07-19T04:48	10	17	0.3	17	18	387	0.3	386	388	15.9	88.4
2025-07-19T04:49	10	18	0.2	18	18	388	0.3	387	389	16.0	87.6
2025-07-19T04:50	10	19	0.2	18	19	388	0.3	388	389	16.1	87.2
2025-07-19T04:51	10	19	0.2	19	20	389	0.3	388	389	16.2	86.9
2025-07-19T04:52	10	20	0.1	19	20	389	0.2	389	390	16.3	85.8
2025-07-19T04:53	10	20	0.2	19	20	389	0.2	389	390	16.2	86.1
2025-07-19T04:54	10	20	0.2	19	20	389	0.2	389	390	16.2	86.7
2025-07-19T04:55	10	21	0.2	20	21	389	0.2	389	390	16.1	86.6
2025-07-19T04:56	10	22	0.4	21	22	390	0.3	389	390	16.2	86.4
2025-07-19T04:57	10	23	0.2	22	23	390	0.3	389	391	16.3	85.7
2025-07-19T04:58	10	23	0.2	23	24	390	0.3	390	391	16.3	85.8
2025-07-19T04:59	10	24	0.3	24	25	391	0.2	390	391	16.3	85.4
2025-07-19T05:00	10	25	0.2	25	25	391	0.2	390	391	16.3	85.5
2025-07-19T05:01	10	25	0.2	25	26	391	0.2	391	392	16.4	85.1
2025-07-19T05:02	10	26	0.2	25	26	391	0.2	391	392	16.4	84.6
2025-07-19T05:03	10	26	0.2	26	27	392	0.2	391	392	16.5	84.6
2025-07-19T05:04	10	27	0.2	26	27	392	0.3	391	392	16.5	84.7
2025-07-19T05:05	10	28	0.3	27	28	392	0.2	392	392	16.5	84.7
2025-07-19T05:06	10	28	0.2	28	29	393	0.2	392	393	16.5	84.6
2025-07-19T05:07	10	29	0.2	29	29	393	0.2	393	394	16.5	84.3
2025-07-19T05:08	10	30	0.2	29	30	393	0.2	393	394	16.6	84.2
2025-07-19T05:09	10	31	0.2	30	31	394	0.2	393	394	16.6	83.6
2025-07-19T05:10	10	31	0.2	31	31	394	0.3	393	394	16.7	83.1
2025-07-19T05:11	10	32	0.2	31	32	394	0.2	394	395	16.8	83.3
2025-07-19T05:12	10	32	0.2	32	32	395	0.2	394	395	16.8	83.0
2025-07-19T05:13	10	33	0.2	32	33	395	0.2	394	395	16.8	82.4
2025-07-19T05:14	10	33	0.2	33	34	395	0.3	395	396	16.9	81.4
2025-07-19T05:15	10	34	0.1	33	34	395	0.3	395	396	17.0	81.4
2025-07-19T05:16	10	34	0.2	34	35	396	0.2	395	396	16.9	82.2
2025-07-19T05:17	10	35	0.2	34	35	396	0.2	396	396	16.9	82.5
2025-07-19T05:18	10	35	0.3	35	36	396	0.2	396	397	16.8	82.9
2025-07-19T05:19	10	36	0.3	36	37	396	0.2	396	397	16.8	82.9
2025-07-19T05:20	10	32	4.6	24	37	396	0.5	395	397	16.8	82.9
2025-07-19T05:21	10	27	2.4	24	31	395	0.3	395	396	16.7	83.5
2025-07-19T05:22	10	30	1.6	28	32	396	0.2	395	396	16.7	83.6
2025-07-19T05:23	10	34	3.5	28	38	396	0.4	395	397	16.8	84.1
2025-07-19T05:24	10	38	0.1	38	38	397	0.2	396	397	16.8	83.8
2025-07-19T05:25	10	39	0.2	38	39	397	0.3	397	398	16.8	83.9
2025-07-19T05:26	10	39	0.2	39	40	398	0.3	397	399	16.9	83.3
2025-07-19T05:27	10	40	0.1	40	40	399	0.3	398	399	17.0	82.8
2025-07-19T05:28	10	40	0.2	40	41	399	0.3	398	400	17.0	83.3
2025-07-19T05:29	10	41	0.1	41	41	400	0.2	399	400	17.1	82.2
2025-07-19T05:30	10	42	0.3	41	42	400	0.2	400	401	17.2	82.3
2025-07-19T05:31	10	43	0.2	42	43	401	0.2	400	401	17.2	81.9
2025-07-19T05:32	10	43	0.2	43	43	401	0.2	400	401	17.3	81.5
2025-07-19T05:33	10	44	0.2	43	44	401	0.2	401	402	17.3	80.8
2025-07-19T05:34	10	44	0.2	44	45	402	0.2	401	402	17.4	80.8
2025-07-19T05:35	10	45	0.2	45	45	402	0.3	401	403	17.4	81.2
2025-07-19T05:36	10	46	0.2	45	46	402	0.3	402	403	17.5	80.7
2025-07-19T05:37	10	46	0.2	46	46	403	0.2	402	403	17.5	80.5
2025-07-19T05:38	10	47	0.4	45	47	403	0.2	402	403	17.5	79.7
2025-07-19T05:39	10	46	1.2	44	47	403	0.3	403	404	17.6	79.3
2025-07-19T05:40	10	42	5.0	33	47	404	0.3	403	404	17.6	78.9
2025-07-19T05:41	10	37	3.6	32	42	403	0.3	403	404	17.7	78.5
2025-07-19T05:42	10	46	1.6	43	48	404	0.4	404	405	17.8	78.5
2025-07-19T05:43	10	47	2.0	44	50	405	0.3	404	406	17.8	78.3
2025-07-19T05:44	10	51	0.7	49	52	406	0.4	405	407	17.9	79.4
2025-07-19T05:45	10	51	0.6	50	52	407	0.3	406	408	17.9	80.6
2025-07-19T05:46	10	52	0.1	52	52	407	0.2	407	408	17.9	79.2
2025-07-19T05:47	10	52	0.2	52	53	408	0.3	407	408	17.9	78.7
2025-07-19T05:48	10	53	0.2	52	53	408	0.3	407	408	18.0	78.6
2025-07-19T05:49	10	53	0.2	53	54	408	0.2	408	409	18.1	77.4
2025-07-19T05:50	10	54	0.2	53	54	409	0.3	408	409	18.2	77.4
2025-07-19T05:51	10	54	0.2	54	55	409	0.2	409	410	18.3	77.9
2025-07-19T05:52	10	55	0.2	55	56	409	0.3	409	410	18.3	77.1
2025-07-19T05:53	10	55	0.1	55	56	409	0.3	409	410	18.4	76.8
2025-07-19T05:54	10	50	6.2	39	57	409	0.6	408	410	18.5	76.8
2025-07-19T05:55	10	57	0.3	57	58	410	0.2	409	410	18.4	76.7
2025-07-19T05:56	10	58	0.3	58	59	410	0.2	410	411	18.5	77.2
2025-07-19T05:57	10	59	0.3	59	60	411	0.2	410	411	18.5	76.6
2025-07-19T05:58	10	60	0.2	60	61	411	0.2	411	412	18.5	76.6
2025-07-19T05:59	10	61	0.3	61	62	412	0.3	411	413	18.5	76.4
2025-07-19T06:00	10	62	0.3	62	63	412	0.3	412	413	18.6	75.7
2025-07-19T06:01	10	63	0.4	63	64	413	0.2	413	414	18.9	74.7
2025-07-19T06:02	10	64	0.3	64	65	413	0.3	413	414	18.9	74.5
2025-07-19T06:03	10	65	0.2	65	66	414	0.3	413	415	19.0	74.3
2025-07-19T06:04	10	66	0.3	65	66	415	0.3	414	416	19.2	74.1
2025-07-19T06:05	10	67	0.3	66	67	416	0.2	415	416	19.1	75.4
2025-07-19T06:06	10	68	0.2	67	68	416	0.2	416	417	18.9	76.3
2025-07-19T06:07	10	68	0.2	68	69	416	0.3	416	417	19.0	76.4
2025-07-19T06:08	10	69	0.3	68	70	417	0.2	416	417	19.1	74.9
2025-07-19T06:09	10	70	0.3	69	71	417	0.3	416	418	19.1	75.1
2025-07-19T06:10	10	70	0.5	69	71	417	0.3	417	418	19.5	72.5
2025-07-19T06:11	10	67	2.6	63	70	418	0.2	417	418	19.6	72.5
2025-07-19T06:12	10	70	2.0	65	72	418	0.2	417	418	19.5	73.4
2025-07-19T06:13	10	71	2.2	66	73	418	0.3	417	418	19.4	72.3
2025-07-19T06:14	10	72	1.6	68	73	419	0.4	417	419	19.5	72.8
2025-07-19T06:15	10	74	0.2	73	74	419	0.2	419	419	19.4	72.5
2025-07-19T06:16	10	75	0.2	74	75	420	0.2	419	420	19.4	73.2
2025-07-19T06:17	10	75	0.5	73	75	420	0.3	420	421	19.6	72.5
2025-07-19T06:18	10	61	12.4	39	73	420	1.2	417	421	19.6	71.6
2025-07-19T06:19	10	63	9.2	42	71	418	0.6	417	419	19.5	71.1
2025-07-19T06:20	10	57	6.5	48	68	418	1.0	416	419	19.4	72.4
2025-07-19T06:21	10	63	6.0	54	73	417	0.4	417	418	19.4	72.9
2025-07-19T06:22	10	66	6.6	55	74	419	0.4	418	419	19.4	72.4
2025-07-19T06:23	10	69	4.1	61	76	419	0.4	418	420	19.5	72.0
2025-07-19T06:24	10	44	11.9	23	60	418	1.5	414	421	19.7	71.7
2025-07-19T06:25	10	36	7.9	23	53	415	0.4	414	416	19.7	71.9
2025-07-19T06:26	10	73	6.9	54	79	418	1.8	415	421	19.6	71.9
2025-07-19T06:27	10	77	0.9	75	78	421	0.5	420	422	19.8	70.4
2025-07-19T06:28	10	78	0.6	77	79	422	0.4	421	423	20.1	69.4
2025-07-19T06:29	10	79	0.2	79	80	423	0.3	422	423	20.1	69.7
2025-07-19T06:30	10	80	0.2	79	80	423	0.3	422	424	20.1	70.0
2025-07-19T06:31	10	80	0.2	80	81	424	0.2	424	424	20.0	70.2
2025-07-19T06:32	10	81	0.2	81	81	424	0.2	424	425	20.0	70.4
2025-07-19T06:33	10	81	0.2	81	82	424	0.2	424	425	19.8	70.4
2025-07-19T06:34	10	82	0.1	82	82	424	0.2	424	425	19.8	70.9
2025-07-19T06:35	10	82	0.2	82	83	425	0.2	424	425	19.9	70.6
2025-07-19T06:36	10	83	0.2	83	83	425	0.3	425	426	20.1	70.2
2025-07-19T06:37	10	83	0.1	83	84	426	0.2	425	426	20.4	69.3
2025-07-19T06:38	10	84	0.1	84	84	427	0.2	426	427	20.7	67.1
2025-07-19T06:39	10	85	0.3	84	85	427	0.2	426	427	20.7	66.6
2025-07-19T06:40	10	85	0.1	85	86	427	0.2	427	428	21.2	65.0
2025-07-19T06:41	10	86	0.2	86	86	428	0.3	427	429	21.2	64.7
2025-07-19T06:42	10	86	0.2	86	87	428	0.2	428	429	21.3	65.0
2025-07-19T06:43	10	87	0.3	86	88	428	0.3	428	429	20.8	66.9
2025-07-19T06:44	10	88	0.3	87	89	428	0.4	427	429	20.2	67.7
2025-07-19T06:45	10	88	0.2	88	89	429	0.4	428	429	20.2	68.4
2025-07-19T06:46	10	89	0.2	89	90	428	0.5	428	429	20.2	68.4
2025-07-19T06:47	10	90	0.2	89	90	429	0.3	428	429	20.2	67.8
2025-07-19T06:48	10	90	0.2	90	91	429	0.7	427	430	20.1	68.4
2025-07-19T06:49	10	91	0.2	91	91	428	0.4	428	429	20.0	68.4
2025-07-19T06:50	10	92	0.3	91	92	429	0.2	429	430	20.0	68.4
2025-07-19T06:51	10	93	0.2	92	93	430	0.3	429	430	20.1	68.1
2025-07-19T06:52	10	93	0.3	93	94	431	0.5	430	432	20.3	67.9
2025-07-19T06:53	10	94	0.3	94	95	432	0.3	431	433	20.4	67.9
2025-07-19T06:54	10	95	0.3	95	96	432	0.2	432	433	20.4	67.1
2025-07-19T06:55	10	96	0.4	96	97	432	0.3	432	433	20.3	67.8
2025-07-19T06:56	10	98	0.5	97	99	432	0.3	432	433	20.2	67.4
2025-07-19T06:57	10	99	0.2	99	99	433	0.6	432	434	20.2	68.0
2025-07-19T06:58	10	100	0.7	99	102	434	0.3	433	434	20.3	68.2
2025-07-19T06:59	10	102	0.5	101	103	434	0.5	434	435	20.4	67.3
2025-07-19T07:00	10	104	0.5	103	105	436	0.2	435	436	20.8	66.4
2025-07-19T07:01	10	104	2.8	96	107	436	0.2	436	437	20.6	67.1
2025-07-19T07:02	10	100	3.8	94	105	436	0.3	435	437	20.5	66.4
2025-07-19T07:03	10	107	1.3	105	109	437	0.4	436	438	20.6	66.5
2025-07-19T07:04	10	105	1.0	103	106	437	0.4	436	438	20.7	67.0
2025-07-19T07:05	10	102	4.9	94	108	437	0.4	436	438	20.7	65.5
2025-07-19T07:06	10	92	2.9	85	96	436	0.3	436	437	20.6	66.3
2025-07-19T07:07	10	90	4.7	85	101	435	0.4	434	437	20.6	67.4
2025-07-19T07:08	10	102	2.1	100	107	437	0.5	435	438	20.6	66.6
2025-07-19T07:09	10	95	2.9	92	101	437	0.4	436	438	20.7	66.4
2025-07-19T07:10	10	99	1.7	95	101	437	0.3	436	437	20.8	65.5
2025-07-19T07:11	10	97	3.3	89	101	438	0.2	437	438	20.8	64.5
2025-07-19T07:12	10	90	2.4	86	94	437	0.4	436	438	21.0	64.5
2025-07-19T07:13	10	96	3.1	90	100	438	0.4	437	439	21.1	65.1
2025-07-19T07:14	10	100	1.2	97	102	438	0.9	436	439	20.8	64.9
2025-07-19T07:15	10	102	0.5	101	103	437	0.3	436	437	20.6	65.5
2025-07-19T07:16	10	106	1.2	103	107	438	0.4	437	439	20.6	65.4
2025-07-19T07:17	10	109	2.0	105	111	439	0.4	438	440	20.7	65.0
2025-07-19T07:18	10	101	7.7	87	110	440	0.4	439	441	20.8	65.0
2025-07-19T07:19	10	83	2.4	79	87	438	1.2	436	440	20.9	65.5
2025-07-19T07:20	10	72	2.3	69	78	433	1.4	432	437	20.7	64.7
2025-07-19T07:21	10	82	5.5	71	90	434	0.7	432	435	20.8	65.4
2025-07-19T07:22	10	101	7.0	90	111	437	1.3	434	438	20.9	65.0
2025-07-19T07:23	10	107	2.2	103	110	439	0.6	438	440	20.9	64.3
2025-07-19T07:24	10	89	7.2	81	104	438	1.0	436	440	20.9	64.3
2025-07-19T07:25	10	89	1.8	85	91	438	0.5	436	439	20.9	64.2
2025-07-19T07:26	10	87	7.6	79	101	437	0.8	436	439	20.9	64.9
2025-07-19T07:27	10	103	0.9	100	104	439	0.6	436	439	21.0	64.8
2025-07-19T07:28	10	100	0.9	99	102	439	0.3	438	440	21.0	65.2
2025-07-19T07:29	10	104	2.1	102	108	440	0.5	439	441	20.9	65.5
2025-07-19T07:30	10	99	5.0	92	107	441	0.2	441	442	21.0	65.4
2025-07-19T07:31	10	94	1.9	90	98	440	0.5	440	442	21.1	64.8
2025-07-19T07:32	10	97	3.2	88	100	441	0.4	440	442	21.2	64.5
2025-07-19T07:33	10	92	4.6	86	98	440	0.5	439	441	21.2	64.7
2025-07-19T07:34	10	93	2.5	90	98	440	0.3	439	440	21.2	64.6
2025-07-19T07:35	10	93	1.9	90	97	441	0.2	440	441	21.2	65.2
2025-07-19T07:36	10	99	3.4	94	106	440	0.4	440	441	21.2	65.3
2025-07-19T07:37	10	112	2.6	106	116	442	1.0	440	443	21.1	65.6
2025-07-19T07:38	10	99	5.6	94	108	444	0.3	443	444	21.3	66.2
2025-07-19T07:39	10	87	5.5	77	94	443	0.5	442	444	21.7	66.7
2025-07-19T07:40	10	96	1.1	94	99	443	0.3	443	444	21.7	64.9
2025-07-19T07:41	10	92	5.4	83	98	444	0.7	443	445	21.7	66.8
2025-07-19T07:42	10	82	1.0	81	84	442	0.8	440	443	21.7	65.4
2025-07-19T07:43	10	88	2.6	82	94	440	0.5	439	441	21.5	65.1
2025-07-19T07:44	10	94	2.1	91	98	441	0.6	440	442	21.4	65.4
2025-07-19T07:45	10	88	1.9	84	92	442	0.4	441	443	21.5	65.9
2025-07-19T07:46	10	98	4.9	88	103	442	0.7	440	443	21.5	65.9
2025-07-19T07:47	10	105	2.2	102	108	444	0.7	443	446	21.5	66.3
2025-07-19T07:48	10	110	0.9	108	111	446	0.9	445	448	21.6	65.5
2025-07-19T07:49	10	108	3.4	103	112	446	0.4	446	447	21.7	66.3
2025-07-19T07:50	10	110	2.8	103	113	447	0.7	446	449	21.9	66.2
2025-07-19T07:51	10	101	6.9	86	112	447	0.8	445	449	21.9	65.1
2025-07-19T07:52	10	111	6.4	98	118	448	0.5	447	449	22.0	64.1
2025-07-19T07:53	10	121	2.5	111	123	450	0.9	448	451	22.0	64.6
2025-07-19T07:54	10	122	0.7	121	123	450	0.4	449	451	21.8	64.3
2025-07-19T07:55	10	123	0.5	121	124	450	0.5	449	452	21.6	64.9
2025-07-19T07:56	10	123	0.2	123	124	452	0.4	451	452	21.6	65.0
2025-07-19T07:57	10	124	0.1	124	124	451	0.6	450	452	21.5	65.1
2025-07-19T07:58	10	123	1.3	120	124	451	0.5	450	452	21.5	65.2
2025-07-19T07:59	10	118	2.8	114	122	451	0.6	450	453	21.6	64.9
2025-07-19T08:00	10	122	1.0	120	123	452	0.3	452	453	21.7	64.3
2025-07-19T08:01	10	123	1.6	121	125	452	0.5	451	453	21.6	64.3
2025-07-19T08:02	10	122	1.5	120	125	454	1.0	451	455	21.9	64.9
2025-07-19T08:03	10	126	1.1	124	128	455	0.9	453	456	22.1	63.0
2025-07-19T08:04	10	127	0.8	126	128	454	0.6	453	455	21.7	63.6
2025-07-19T08:05	10	129	0.6	127	129	455	0.3	454	456	21.8	63.8
2025-07-19T08:06	10	128	0.8	127	130	456	0.4	454	456	21.7	63.8
2025-07-19T08:07	10	118	10.1	102	129	456	1.4	453	457	22.1	63.6
2025-07-19T08:08	10	104	5.6	99	118	453	0.6	452	454	22.3	62.6
2025-07-19T08:09	10	117	8.9	101	130	454	0.7	453	455	22.2	62.6
2025-07-19T08:10	10	125	5.6	105	130	454	0.4	453	455	22.1	62.0
2025-07-19T08:11	10	121	2.8	116	125	455	0.3	454	455	22.1	62.3
2025-07-19T08:12	10	114	3.7	108	122	455	0.4	454	456	22.2	62.5
2025-07-19T08:13	10	117	3.8	110	122	455	0.8	453	456	22.2	62.4
2025-07-19T08:14	10	110	3.0	103	113	453	0.4	452	454	22.0	62.4
2025-07-19T08:15	10	110	8.3	101	122	453	0.9	452	455	22.2	62.8
2025-07-19T08:16	10	129	6.9	120	137	455	1.6	453	458	22.5	60.3
2025-07-19T08:17	10	136	2.6	133	140	459	0.8	458	460	22.7	59.9
2025-07-19T08:18	10	140	1.2	139	142	461	0.5	460	462	22.7	60.6
2025-07-19T08:19	10	113	28.5	75	143	459	3.5	453	463	22.6	60.6
2025-07-19T08:20	10	103	35.4	57	148	453	2.6	450	458	22.5	61.1
2025-07-19T08:21	10	146	8.9	113	152	461	1.8	457	463	22.5	61.7
2025-07-19T08:22	10	70	11.3	62	108	454	4.1	449	463	22.7	62.3
2025-07-19T08:23	10	70	13.6	63	120	450	1.0	448	451	22.7	62.1
2025-07-19T08:24	10	105	29.2	73	143	452	1.7	449	455	22.4	61.0
2025-07-19T08:25	10	78	5.3	72	88	449	1.1	447	450	22.2	61.2
2025-07-19T08:26	10	133	23.4	76	153	453	4.3	446	459	22.1	61.4
2025-07-19T08:27	10	141	9.6	127	157	459	1.5	457	461	22.1	61.5
2025-07-19T08:28	10	143	14.8	113	164	462	1.3	460	464	22.3	61.2
2025-07-19T08:29	10	151	9.6	129	163	464	0.8	462	465	22.4	60.3
2025-07-19T08:30	10	117	12.9	100	145	461	1.5	459	464	22.4	60.3
2025-07-19T08:31	10	99	8.1	87	115	458	1.0	456	461	22.6	59.2
2025-07-19T08:32	10	117	14.3	87	138	459	0.8	457	461	22.7	59.1
2025-07-19T08:33	10	85	4.2	80	93	455	1.7	453	459	22.6	59.4
2025-07-19T08:34	10	80	0.5	80	82	453	0.6	452	454	22.7	59.0
2025-07-19T08:35	10	91	15.7	80	137	454	1.1	452	457	22.8	58.8
2025-07-19T08:36	10	126	24.1	84	161	459	1.4	456	462	22.8	58.4
2025-07-19T08:37	10	84	0.7	83	86	455	1.1	453	457	22.8	58.6
2025-07-19T08:38	10	81	0.7	80	83	453	0.6	452	454	22.8	58.1
2025-07-19T08:39	10	83	1.9	81	92	452	0.4	452	453	22.9	58.2
2025-07-19T08:40	10	96	14.5	87	130	455	0.9	453	457	22.9	58.2
2025-07-19T08:41	10	92	1.7	90	95	455	0.4	454	456	22.9	58.1
2025-07-19T08:42	10	118	17.3	94	151	459	3.1	455	464	23.1	57.7
2025-07-19T08:43	10	185	18.9	144	203	469	4.2	461	474	23.1	58.0
2025-07-19T08:44	10	118	28.5	99	201	467	4.8	462	476	23.1	58.2
2025-07-19T08:45	10	118	17.0	96	157	464	1.0	463	466	23.1	57.9
2025-07-19T08:46	10	106	20.5	95	159	461	1.3	458	464	23.0	58.0
2025-07-19T08:47	10	123	15.3	105	160	462	0.9	460	464	23.0	58.0
2025-07-19T08:48	10	146	16.9	112	167	466	1.2	464	468	23.0	57.8
2025-07-19T08:49	10	131	10.0	115	145	466	0.8	465	468	23.3	56.9
2025-07-19T08:50	10	113	16.9	93	145	465	2.2	462	469	23.5	55.9
2025-07-19T08:51	10	125	10.9	97	138	466	0.8	464	467	23.4	56.9
2025-07-19T08:52	10	123	14.8	92	137	465	1.2	462	466	23.2	57.6
2025-07-19T08:53	10	85	1.9	84	92	459	1.7	456	463	23.2	57.5
2025-07-19T08:54	10	85	0.4	84	85	458	0.2	457	458	23.2	57.9
2025-07-19T08:55	10	90	5.0	85	108	456	0.9	454	458	23.1	57.7
2025-07-19T08:56	10	132	5.2	111	136	462	2.6	456	464	23.2	57.8
2025-07-19T08:57	10	134	1.0	132	135	464	0.9	463	466	23.3	57.2
2025-07-19T08:58	10	134	2.5	130	139	465	0.7	464	467	23.3	56.8
2025-07-19T08:59	10	132	7.6	116	141	467	0.7	465	468	23.2	57.0
2025-07-19T09:00	10	108	13.4	94	135	465	1.6	462	467	23.4	56.5
2025-07-19T09:01	10	105	8.3	90	119	462	0.8	460	463	23.4	56.1
2025-07-19T09:02	10	86	1.4	85	90	459	1.0	457	461	23.3	57.5
2025-07-19T09:03	10	82	0.8	81	85	456	0.7	455	458	23.2	57.8
2025-07-19T09:04	10	102	13.4	82	117	457	2.0	455	461	23.2	58.2
2025-07-19T09:05	10	83	8.3	72	113	457	1.3	456	461	23.3	57.5
2025-07-19T09:06	10	65	2.7	61	72	455	1.1	453	457	23.4	57.0
2025-07-19T09:07	10	58	1.5	56	61	450	1.3	449	454	23.3	56.0
2025-07-19T09:08	10	54	1.1	52	56	448	0.9	447	450	23.1	55.9
2025-07-19T09:09	10	51	0.5	50	52	447	0.3	447	448	23.1	56.3
2025-07-19T09:10	10	50	0.2	50	51	447	0.5	446	448	23.4	56.3
2025-07-19T09:11	10	53	1.1	51	55	445	0.6	444	446	23.3	56.5
2025-07-19T09:12	10	57	1.5	55	60	445	0.6	444	446	23.3	57.3
2025-07-19T09:13	10	59	0.2	59	59	446	0.4	445	447	23.4	56.6
2025-07-19T09:14	10	58	0.9	56	59	446	0.3	446	447	23.3	56.7
2025-07-19T09:15	10	56	0.3	55	56	447	0.6	446	448	23.3	57.1
2025-07-19T09:16	10	54	0.5	53	55	447	0.4	447	448	23.3	57.2
2025-07-19T09:17	10	53	0.4	52	54	446	0.6	445	447	23.4	57.2
2025-07-19T09:18	10	52	0.2	52	52	445	0.2	444	445	23.4	57.7
2025-07-19T09:19	10	52	0.1	52	52	444	0.2	443	444	23.4	57.6
2025-07-19T09:20	10	51	0.1	51	52	444	0.3	443	445	23.3	58.6
2025-07-19T09:21	10	52	0.4	51	53	444	0.2	444	445	23.4	58.5
2025-07-19T09:22	10	54	0.5	53	55	444	0.6	443	445	23.4	58.1
2025-07-19T09:23	10	55	0.3	55	56	444	0.8	443	445	23.3	57.9
2025-07-19T09:24	10	55	0.2	55	55	445	0.3	444	446	23.3	58.1
2025-07-19T09:25	10	54	0.3	53	55	446	0.3	445	446	23.3	58.3
2025-07-19T09:26	10	53	0.4	52	54	446	0.5	445	447	23.3	58.0
2025-07-19T09:27	10	52	0.3	51	52	447	0.3	446	447	23.4	58.3
2025-07-19T09:28	10	52	2.0	51	59	446	0.6	445	447	23.4	58.2
2025-07-19T09:29	10	53	5.6	49	65	445	0.3	444	446	23.4	58.2
2025-07-19T09:30	10	48	0.6	47	49	445	0.3	444	446	23.4	58.8
2025-07-19T09:31	10	46	0.6	45	47	444	0.6	443	445	23.5	58.5
2025-07-19T09:32	10	45	0.6	43	46	443	0.2	443	444	23.5	58.9
2025-07-19T09:33	10	42	0.7	41	44	443	0.3	442	443	23.5	58.8
2025-07-19T09:34	10	40	0.7	39	41	442	0.2	442	443	23.5	58.8
2025-07-19T09:35	10	38	0.6	37	39	442	0.3	442	443	23.5	60.1
2025-07-19T09:36	10	36	0.3	36	37	441	0.2	441	442	23.5	60.3
2025-07-19T09:37	10	36	0.2	36	36	441	0.4	441	442	23.5	61.3
2025-07-19T09:38	10	35	0.2	35	36	441	0.2	441	442	23.5	59.4
2025-07-19T09:39	10	35	0.2	34	35	442	0.2	441	442	23.5	59.6
2025-07-19T09:40	10	35	0.1	34	35	441	0.3	441	442	23.5	59.0
2025-07-19T09:41	10	34	0.1	34	35	441	0.2	441	441	23.4	58.8
2025-07-19T09:42	10	35	0.2	35	35	441	0.2	440	441	23.5	58.8
2025-07-19T09:43	10	35	0.2	35	36	441	0.6	439	441	23.5	59.5
2025-07-19T09:44	10	36	0.2	35	36	439	0.3	439	440	23.5	59.4
2025-07-19T09:45	10	34	0.5	33	35	439	0.3	439	440	23.4	59.6
2025-07-19T09:46	10	32	0.8	30	33	439	0.2	439	440	23.5	59.8
2025-07-19T09:47	10	29	0.9	28	31	438	0.3	438	439	23.5	60.3
2025-07-19T09:48	10	26	0.7	25	28	437	0.4	436	438	23.5	61.2
2025-07-19T09:49	10	24	0.7	23	25	436	0.3	436	437	23.5	61.3
2025-07-19T09:50	10	22	0.6	21	23	435	0.5	434	436	23.5	61.4
2025-07-19T09:51	10	20	0.6	18	21	434	0.3	434	435	23.6	61.7
2025-07-19T09:52	10	18	0.5	17	19	434	0.3	433	435	23.6	61.9
2025-07-19T09:53	10	16	0.4	15	17	433	0.3	432	434	23.5	62.8
2025-07-19T09:54	10	15	0.4	14	15	432	0.6	430	433	23.4	64.4
2025-07-19T09:55	10	14	0.3	13	14	430	0.3	430	431	23.3	65.1
2025-07-19T09:56	10	13	0.3	12	13	430	0.3	429	430	23.1	65.5
2025-07-19T09:57	10	12	0.2	12	12	429	0.4	428	430	23.0	65.8
2025-07-19T09:58	10	11	0.2	11	12	429	0.3	428	429	22.9	65.8
2025-07-19T09:59	10	11	0.1	11	11	428	0.2	427	428	22.9	65.8
2025-07-19T10:00	10	11	0.1	11	11	427	0.3	427	428	22.8	66.1
2025-07-19T10:01	10	11	0.1	11	12	428	0.2	427	428	22.8	65.8
2025-07-19T10:02	10	12	0.1	11	12	428	0.3	427	428	22.8	66.0
2025-07-19T10:03	10	12	0.1	12	12	428	0.4	427	429	22.8	66.3
2025-07-19T10:04	10	12	0.1	12	12	428	0.3	427	429	22.8	64.1
2025-07-19T10:05	10	12	0.1	12	13	427	0.4	426	428	22.8	66.3
2025-07-19T10:06	10	12	0.1	12	13	426	0.4	425	427	22.8	64.1
2025-07-19T10:07	10	12	0.1	12	12	425	0.4	425	426	22.8	66.3
2025-07-19T10:08	10	12	0.1	12	12	424	0.5	423	425	22.8	66.3
2025-07-19T10:09	10	12	0.1	12	12	423	0.3	422	423	22.8	66.3
2025-07-19T10:10	10	12	0.2	11	13	423	0.3	422	424	22.8	66.3
2025-07-19T10:11	10	13	0.2	12	13	423	0.4	422	424	22.5	65.4
2025-07-19T10:12	10	13	0.3	12	13	423	0.3	422	424	22.3	64.9
2025-07-19T10:13	10	14	0.3	13	14	423	0.3	423	424	22.2	65.3
2025-07-19T10:14	10	14	0.2	14	15	423	0.3	422	424	22.2	65.7
2025-07-19T10:15	10	15	0.4	15	16	424	0.3	423	424	22.2	66.2
2025-07-19T10:16	10	16	0.4	15	17	424	0.4	423	425	22.2	66.1
2025-07-19T10:17	10	17	0.4	17	18	424	0.4	424	425	22.2	66.8
2025-07-19T10:18	10	19	0.4	18	19	425	0.5	424	426	22.3	66.6
2025-07-19T10:19	10	20	0.5	19	21	425	0.2	424	425	22.3	66.1
2025-07-19T10:20	10	22	0.6	21	23	424	0.4	423	425	22.5	65.0
2025-07-19T10:21	10	24	0.8	23	26	424	0.2	423	424	22.5	65.0
2025-07-19T10:22	10	27	0.6	26	28	424	0.3	424	425	22.5	65.1
2025-07-19T10:23	10	28	0.4	27	29	424	0.3	424	425	22.5	63.7
2025-07-19T10:24	10	29	0.1	29	29	424	0.5	423	425	22.6	63.3
2025-07-19T10:25	10	29	0.1	29	29	425	0.3	424	425	22.5	64.1
2025-07-19T10:26	10	29	0.3	29	30	424	0.2	424	425	22.6	62.3
2025-07-19T10:27	10	31	0.8	29	32	425	0.4	424	426	22.6	62.5
2025-07-19T10:28	10	35	1.4	32	37	426	0.5	425	427	22.6	61.9
2025-07-19T10:29	10	39	1.4	37	42	426	0.2	426	427	22.6	61.9
2025-07-19T10:30	10	44	1.2	42	46	428	0.8	426	429	22.6	62.2
2025-07-19T10:31	10	48	1.1	46	49	430	0.6	428	431	22.6	64.2
2025-07-19T10:32	10	51	0.8	49	52	430	0.4	429	431	22.6	64.1
2025-07-19T10:33	10	53	0.3	52	53	431	0.3	430	431	22.7	62.7
2025-07-19T10:34	10	53	0.2	52	53	430	0.4	430	431	22.7	62.4
2025-07-19T10:35	10	52	0.3	51	53	431	0.3	431	432	22.8	62.5
2025-07-19T10:36	10	51	0.2	51	51	432	0.3	431	433	22.8	63.0
2025-07-19T10:37	10	51	0.2	50	51	432	0.8	430	433	22.8	61.7
2025-07-19T10:38	10	52	0.3	51	52	431	0.4	430	432	22.8	61.5
2025-07-19T10:39	10	53	0.3	52	53	431	0.4	431	432	22.9	61.6
2025-07-19T10:40	10	53	0.1	53	53	430	0.8	429	432	22.9	60.3
2025-07-19T10:41	10	53	0.1	53	53	431	0.6	430	432	22.9	61.1
2025-07-19T10:42	10	53	0.3	52	53	432	0.4	431	433	22.9	60.8
2025-07-19T10:43	10	52	0.3	52	53	431	0.6	430	432	23.0	59.4
2025-07-19T10:44	10	51	1.2	49	52	431	0.4	429	431	23.0	59.8
2025-07-19T10:45	10	48	0.6	47	49	432	0.4	431	433	23.0	60.5
2025-07-19T10:46	10	46	0.3	46	47	431	0.3	431	432	23.0	60.3
2025-07-19T10:47	10	45	0.3	45	46	432	0.5	431	433	23.0	60.7
2025-07-19T10:48	10	44	0.1	44	45	431	0.9	430	433	23.0	60.5
2025-07-19T10:49	10	44	0.1	44	44	431	0.3	430	431	23.0	60.6
2025-07-19T10:50	10	45	0.2	44	45	431	0.4	430	432	23.0	61.2
2025-07-19T10:51	10	45	0.2	45	46	431	0.4	430	432	23.0	61.2
2025-07-19T10:52	10	46	0.2	45	46	431	0.3	431	432	23.0	61.3
2025-07-19T10:53	10	46	0.1	46	46	430	0.6	429	432	23.0	61.6
2025-07-19T10:54	10	46	0.2	46	47	430	0.3	430	431	22.9	61.9
2025-07-19T10:55	10	47	0.3	47	48	431	0.5	430	431	22.9	62.5
2025-07-19T10:56	10	49	0.6	48	50	430	0.2	429	430	22.9	63.0
2025-07-19T10:57	10	51	0.8	50	52	431	0.6	430	432	22.9	63.4
2025-07-19T10:58	10	54	1.0	52	56	433	0.3	432	434	22.9	63.8
2025-07-19T10:59	10	57	1.1	56	59	435	0.9	433	436	23.0	64.4
2025-07-19T11:00	10	60	0.6	59	61	436	0.4	435	437	23.1	64.6
2025-07-19T11:01	10	62	0.3	61	62	435	0.5	434	436	23.0	64.6
2025-07-19T11:02	10	62	0.4	61	62	434	0.9	433	436	22.9	64.7
2025-07-19T11:03	10	60	0.9	58	61	433	0.6	432	434	22.8	64.8
2025-07-19T11:04	10	57	0.8	55	58	433	0.7	432	435	22.7	65.0
2025-07-19T11:05	10	55	0.4	54	56	432	1.0	430	434	22.7	64.8
2025-07-19T11:06	10	54	0.3	53	54	430	0.8	429	432	22.5	64.7
2025-07-19T11:07	10	53	0.4	52	53	429	0.3	429	430	22.5	64.8
2025-07-19T11:08	10	51	0.3	51	52	430	0.3	429	430	22.4	64.8
2025-07-19T11:09	10	52	0.4	51	52	429	0.4	429	430	22.4	64.7
2025-07-19T11:10	10	53	0.2	52	53	430	0.4	429	431	22.4	65.1
2025-07-19T11:11	10	53	0.2	53	54	430	0.4	429	431	22.4	65.7
2025-07-19T11:12	10	54	0.4	53	55	431	0.3	430	431	22.4	66.1
2025-07-19T11:13	10	56	0.7	55	57	431	0.4	430	432	22.4	66.5
2025-07-19T11:14	10	57	0.4	57	58	432	0.6	430	433	22.3	66.8
2025-07-19T11:15	10	58	0.4	57	59	431	0.5	430	432	22.3	67.3
2025-07-19T11:16	10	56	0.5	56	57	432	0.5	431	433	22.3	67.3
2025-07-19T11:17	10	55	0.3	55	56	431	0.3	430	432	22.2	67.1
2025-07-19T11:18	10	52	1.5	50	55	431	0.5	430	432	22.2	67.0
2025-07-19T11:19	10	47	1.8	43	50	431	0.6	430	432	22.2	66.6
2025-07-19T11:20	10	40	1.7	37	43	430	0.6	428	431	22.2	67.3
2025-07-19T11:21	10	36	1.1	34	38	429	0.5	428	430	22.2	67.8
2025-07-19T11:22	10	33	0.4	33	34	428	0.4	427	429	22.2	67.5
2025-07-19T11:23	10	33	0.1	32	33	427	0.3	427	428	22.1	67.6
2025-07-19T11:24	10	33	0.2	32	33	427	0.4	426	427	22.1	67.3
2025-07-19T11:25	10	33	0.4	33	34	427	0.4	426	427	22.1	67.0
2025-07-19T11:26	10	35	0.6	34	36	426	0.4	425	427	22.1	66.5
2025-07-19T11:27	10	37	0.7	36	39	427	1.0	425	429	22.1	66.7
2025-07-19T11:28	10	40	0.7	39	41	428	0.6	427	429	22.1	66.9
2025-07-19T11:29	10	41	0.2	40	41	428	0.4	427	429	22.1	66.7
2025-07-19T11:30	10	41	0.2	40	41	428	1.1	427	430	22.0	66.9
2025-07-19T11:31	10	40	0.4	39	40	429	0.8	427	430	22.1	66.8
2025-07-19T11:32	10	38	0.5	37	39	428	0.4	427	429	22.0	66.6
2025-07-19T11:33	10	37	0.4	36	37	428	0.3	427	428	22.1	66.3
2025-07-19T11:34	10	35	0.5	34	36	427	0.6	426	428	22.0	66.4
2025-07-19T11:35	10	33	0.6	32	34	426	0.4	425	427	22.0	66.6
2025-07-19T11:36	10	31	0.6	30	32	426	0.6	425	427	21.9	66.6
2025-07-19T11:37	10	29	0.6	28	30	425	0.2	424	425	21.9	66.9
2025-07-19T11:38	10	27	0.6	26	28	425	0.6	424	425	21.9	67.2
2025-07-19T11:39	10	26	0.5	25	26	424	0.3	423	424	21.8	67.9
2025-07-19T11:40	10	24	0.6	22	25	422	0.9	421	424	21.7	68.3
2025-07-19T11:41	10	22	0.6	21	23	421	0.5	420	422	21.7	69.4
2025-07-19T11:42	10	20	0.6	19	21	419	0.3	419	420	21.6	69.9
2025-07-19T11:43	10	18	0.6	17	19	419	0.2	419	420	21.5	70.8
2025-07-19T11:44	10	16	0.6	15	17	418	0.4	417	419	21.3	71.3
2025-07-19T11:45	10	14	0.4	13	15	417	0.3	416	417	21.3	71.3
2025-07-19T11:46	10	13	0.2	13	14	415	0.3	415	416	20.9	73.3
2025-07-19T11:47	10	13	0.2	13	14	415	0.3	414	416	20.7	75.4
2025-07-19T11:48	10	14	0.1	13	14	414	0.2	413	414	20.6	74.4
2025-07-19T11:49	10	13	0.1	13	14	413	0.3	413	414	20.5	77.1
2025-07-19T11:50	10	13	0.1	13	14	414	0.3	413	414	20.4	77.6
2025-07-19T11:51	10	13	0.3	13	14	413	0.4	412	414	20.3	77.8
2025-07-19T11:52	10	12	0.5	11	13	412	0.5	410	413	20.2	76.4
2025-07-19T11:53	10	10	0.5	9	11	411	0.4	410	412	20.2	77.5
2025-07-19T11:54	10	9	0.3	8	9	411	0.2	410	411	20.0	79.1
2025-07-19T11:55	10	8	0.1	8	9	410	0.3	409	410	19.9	78.7
2025-07-19T11:56	10	8	0.1	8	9	409	0.3	408	410	19.7	79.9
2025-07-19T11:57	10	8	0.1	8	8	408	0.6	407	410	19.5	80.3
2025-07-19T11:58	10	8	0.1	7	8	408	0.2	407	409	19.6	78.9
2025-07-19T11:59	10	7	0.1	7	8	408	0.4	407	409	19.6	79.8
2025-07-19T12:00	10	7	0.2	6	7	408	0.4	407	409	19.5	80.7
2025-07-19T12:01	10	6	0.1	6	7	408	0.3	407	408	19.4	81.7
2025-07-19T12:02	10	6	0.2	6	6	407	0.2	407	408	19.3	82.2
2025-07-19T12:03	10	5	0.2	5	6	407	0.2	407	408	19.0	84.4
2025-07-19T12:04	10	5	0.2	4	5	407	0.3	406	407	18.9	84.6
2025-07-19T12:05	10	4	0.1	4	5	406	0.3	406	407	18.8	85.5
2025-07-19T12:06	10	4	0.1	4	5	406	0.3	405	406	18.7	86.9
2025-07-19T12:07	10	4	0.1	4	4	405	0.2	405	406	18.6	88.1
2025-07-19T12:08	10	4	0.1	4	4	405	0.3	405	406	18.6	89.2
2025-07-19T12:09	10	4	0.1	4	5	405	0.3	405	406	18.6	88.9
2025-07-19T12:10	10	5	0.1	4	5	405	0.2	405	406	18.7	87.2
2025-07-19T12:11	10	5	0.1	5	5	405	0.2	404	405	18.6	87.9
2025-07-19T12:12	10	5	0.1	5	5	405	0.3	404	406	18.5	89.4
2025-07-19T12:13	10	5	0.1	5	5	405	0.4	404	406	18.5	89.1
2025-07-19T12:14	10	5	0.1	5	5	405	0.4	404	406	18.5	89.3
2025-07-19T12:15	10	5	0.1	5	6	405	0.2	404	405	18.5	89.1
2025-07-19T12:16	10	5	0.2	5	6	404	0.2	404	405	18.5	88.4
2025-07-19T12:17	10	5	0.2	5	6	404	0.5	403	405	18.4	89.6
2025-07-19T12:18	10	5	0.2	5	6	404	0.3	404	405	18.4	89.0
2025-07-19T12:19	10	6	0.2	5	6	404	0.2	404	405	18.4	89.9
2025-07-19T12:20	10	6	0.2	5	6	404	0.3	404	405	18.3	89.6
2025-07-19T12:21	10	6	0.2	5	6	404	0.4	403	405	18.3	89.9
2025-07-19T12:22	10	6	0.2	5	6	404	0.3	404	405	18.4	90.0
2025-07-19T12:23	10	6	0.2	5	6	404	0.2	404	405	18.3	90.6
2025-07-19T12:24	10	6	0.1	6	6	404	0.2	404	405	18.3	89.8
2025-07-19T12:25	10	6	0.1	6	6	404	0.3	404	405	18.3	91.0
2025-07-19T12:26	10	6	0.1	6	7	404	0.2	404	405	18.3	90.7
2025-07-19T12:27	10	7	0.1	6	7	404	0.3	404	405	18.3	90.3
2025-07-19T12:28	10	7	0.1	7	7	404	0.3	404	405	18.3	89.7
2025-07-19T12:29	10	7	0.1	7	7	404	0.4	403	405	18.2	90.0
2025-07-19T12:30	10	7	0.1	7	8	404	0.2	403	404	18.1	90.8
2025-07-19T12:31	10	8	0.1	7	8	404	0.3	403	405	18.1	91.2
2025-07-19T12:32	10	8	0.1	8	8	404	0.5	403	405	18.1	91.8
2025-07-19T12:33	10	8	0.1	8	8	405	0.3	404	405	18.0	92.5
2025-07-19T12:34	10	8	0.1	8	8	405	0.2	404	405	18.0	92.5
2025-07-19T12:35	10	8	0.1	8	9	405	0.3	404	405	18.0	92.3
2025-07-19T12:36	10	9	0.1	8	9	405	0.3	404	405	18.0	91.7
2025-07-19T12:37	10	9	0.1	9	9	404	0.3	404	405	18.0	91.1
2025-07-19T12:38	10	9	0.1	9	9	404	0.3	404	405	18.0	90.4
2025-07-19T12:39	10	9	0.1	9	10	405	0.3	404	405	18.0	91.0
2025-07-19T12:40	10	9	0.1	9	10	404	0.3	404	405	18.0	91.3
2025-07-19T12:41	10	10	0.2	9	10	404	0.3	404	405	18.0	90.5
2025-07-19T12:42	10	10	0.2	10	11	404	0.2	404	405	18.0	90.8
2025-07-19T12:43	10	11	0.2	10	11	404	0.4	403	405	18.0	91.4
2025-07-19T12:44	10	12	0.2	11	12	405	0.4	404	406	17.9	91.4
2025-07-19T12:45	10	12	0.2	12	13	405	0.4	404	406	17.9	92.5
2025-07-19T12:46	10	13	0.2	13	13	406	0.2	405	406	17.9	92.9
2025-07-19T12:47	10	14	0.1	13	14	406	0.3	405	407	17.9	92.6
2025-07-19T12:48	10	14	0.2	14	14	406	0.2	406	407	17.9	92.4
2025-07-19T12:49	10	14	0.1	14	15	406	0.2	406	407	17.9	92.5
2025-07-19T12:50	10	15	0.1	14	15	407	0.2	406	407	17.9	92.0
2025-07-19T12:51	10	15	0.1	15	15	407	0.2	406	407	17.9	92.1
2025-07-19T12:52	10	16	0.2	15	16	407	0.2	406	407	17.9	91.6
2025-07-19T12:53	10	16	0.2	16	17	407	0.2	406	407	17.9	92.3
2025-07-19T12:54	10	17	0.3	17	18	407	0.4	406	408	17.9	92.2
2025-07-19T12:55	10	18	0.4	18	19	408	0.3	407	408	17.9	93.2
2025-07-19T12:56	10	20	0.5	19	21	409	0.4	408	410	17.9	93.4
2025-07-19T12:57	10	22	0.6	21	23	410	0.5	409	411	17.9	93.6
2025-07-19T12:58	10	24	0.8	22	25	410	0.4	410	411	17.9	92.1
2025-07-19T12:59	10	26	0.9	25	28	411	0.4	411	412	18.0	92.6
2025-07-19T13:00	10	30	1.0	28	32	412	0.3	412	413	18.0	92.3
2025-07-19T13:01	10	33	1.1	31	35	413	0.4	412	414	18.0	91.9
2025-07-19T13:02	10	37	1.1	35	39	415	0.5	414	416	18.1	91.2
2025-07-19T13:03	10	41	1.0	39	42	416	0.4	415	417	18.2	91.3
2025-07-19T13:04	10	44	0.9	42	46	417	0.2	416	417	18.2	92.0
2025-07-19T13:05	10	47	0.9	46	49	417	0.2	416	417	18.2	92.3
2025-07-19T13:06	10	50	0.8	49	51	417	0.2	416	417	18.1	91.0
2025-07-19T13:07	10	53	0.8	51	54	417	0.3	417	418	18.1	91.0
2025-07-19T13:08	10	56	1.0	54	57	418	0.5	417	419	18.2	90.0
2025-07-19T13:09	10	59	0.9	57	61	419	0.5	418	420	18.2	90.1
2025-07-19T13:10	10	62	1.0	60	64	421	0.6	420	422	18.3	90.6
2025-07-19T13:11	10	66	1.3	64	68	422	0.5	421	423	18.4	89.6
2025-07-19T13:12	10	71	1.4	68	73	424	0.5	423	425	18.5	90.8
2025-07-19T13:13	10	76	1.8	73	79	425	0.5	424	426	18.5	90.2
2025-07-19T13:14	10	83	2.3	79	87	427	0.8	426	429	18.6	91.4
2025-07-19T13:15	10	90	2.0	87	94	429	0.4	429	431	18.7	90.9
2025-07-19T13:16	10	97	2.8	93	102	432	0.6	431	433	18.8	90.5
2025-07-19T13:17	10	104	1.5	101	107	432	0.3	431	432	18.7	88.8
2025-07-19T13:18	10	109	1.6	107	112	432	0.4	432	433	18.7	87.2
2025-07-19T13:19	10	115	2.2	112	119	433	0.5	432	434	18.8	86.5
2025-07-19T13:20	10	119	1.0	118	121	435	0.5	434	436	18.7	86.8
2025-07-19T13:21	10	120	1.7	118	123	436	0.3	436	437	18.7	87.7
2025-07-19T13:22	10	123	3.3	117	128	437	0.7	436	439	18.7	87.9
2025-07-19T13:23	10	116	6.0	106	127	439	0.4	438	440	18.8	88.7
2025-07-19T13:24	10	104	2.7	98	109	437	0.9	435	439	18.9	88.4
2025-07-19T13:25	10	97	1.2	96	100	436	0.4	435	437	18.9	89.2
2025-07-19T13:26	10	101	2.3	96	106	436	0.6	435	437	19.0	89.0
2025-07-19T13:27	10	102	6.0	95	118	437	0.6	435	438	19.1	89.4
2025-07-19T13:28	10	93	1.7	90	95	435	0.3	435	436	19.2	89.0
2025-07-19T13:29	10	88	0.8	87	90	435	0.5	434	436	19.3	89.1
2025-07-19T13:30	10	90	1.9	88	93	434	0.5	433	435	19.1	86.0
2025-07-19T13:31	10	95	0.6	94	96	434	0.4	433	435	19.0	84.4
2025-07-19T13:32	10	99	2.3	95	105	434	0.3	434	435	19.0	82.6
2025-07-19T13:33	10	89	3.1	84	95	434	0.5	433	435	19.0	83.3
2025-07-19T13:34	10	80	2.1	77	84	432	0.8	431	434	19.0	83.4
2025-07-19T13:35	10	75	0.4	75	77	430	1.0	429	432	19.2	85.1
2025-07-19T13:36	10	74	0.8	73	75	429	0.4	428	430	19.1	82.7
2025-07-19T13:37	10	74	0.4	73	74	430	0.5	428	431	19.0	83.2
2025-07-19T13:38	10	75	0.2	74	75	431	0.4	430	432	19.1	86.4
2025-07-19T13:39	10	74	0.3	73	74	430	0.6	429	431	19.1	84.7
2025-07-19T13:40	10	77	3.1	74	82	429	0.4	428	430	19.1	83.8
2025-07-19T13:41	10	82	1.6	79	85	428	0.2	428	429	19.1	83.7
2025-07-19T13:42	10	79	0.3	78	79	429	0.2	428	429	19.1	84.5
2025-07-19T13:43	10	80	0.7	79	81	429	0.3	429	430	19.2	84.5
2025-07-19T13:44	10	80	1.2	78	82	430	0.3	429	430	19.2	83.5
2025-07-19T13:45	10	78	0.5	77	79	429	0.5	429	430	19.1	83.8
2025-07-19T13:46	10	79	0.4	78	80	431	0.4	430	432	19.3	84.9
2025-07-19T13:47	10	79	0.7	78	80	431	0.4	431	432	19.5	85.9
2025-07-19T13:48	10	80	1.5	79	84	431	0.2	431	432	19.5	85.5
2025-07-19T13:49	10	99	9.1	85	114	433	1.3	431	435	19.5	84.2
2025-07-19T13:50	10	125	6.6	114	134	438	2.4	434	442	19.5	84.6
2025-07-19T13:51	10	139	9.6	123	156	442	1.0	441	444	19.8	85.4
2025-07-19T13:52	10	150	7.4	135	160	446	1.6	443	447	19.8	82.8
2025-07-19T13:53	10	169	22.0	137	201	448	2.8	445	454	19.8	81.7
2025-07-19T13:54	10	131	15.3	108	172	448	2.2	445	453	19.9	83.7
2025-07-19T13:55	10	112	4.4	104	120	446	1.3	443	447	20.2	85.0
2025-07-19T13:56	10	114	4.5	109	123	443	0.6	442	444	20.1	83.8
2025-07-19T13:57	10	116	13.5	103	149	444	1.2	442	445	20.0	81.5
2025-07-19T13:58	10	104	1.4	102	106	443	1.2	440	444	20.1	84.2
2025-07-19T13:59	10	103	1.9	100	106	440	0.9	439	442	20.0	82.7
2025-07-19T14:00	10	104	4.5	100	114	440	0.6	440	442	19.8	81.7
2025-07-19T14:01	10	133	16.0	116	170	444	1.6	441	448	20.0	80.9
2025-07-19T14:02	10	150	6.7	139	166	449	1.5	447	451	20.2	81.7
2025-07-19T14:03	10	150	14.9	130	174	451	0.8	450	453	20.3	82.3
2025-07-19T14:04	10	143	10.6	129	166	451	0.8	449	452	20.3	81.8
2025-07-19T14:05	10	190	8.3	167	204	456	2.3	450	459	20.3	81.8
2025-07-19T14:06	10	189	4.3	182	197	457	0.9	455	458	20.0	80.9
2025-07-19T14:07	10	177	8.7	159	186	456	0.5	454	456	19.8	81.1
2025-07-19T14:08	10	189	6.6	172	195	458	1.0	456	459	20.0	81.6
2025-07-19T14:09	10	190	1.2	187	191	459	0.3	458	460	20.0	80.6
2025-07-19T14:10	10	185	1.6	182	188	459	0.3	459	460	20.2	80.6
2025-07-19T14:11	10	183	1.1	181	186	458	0.7	458	461	20.3	79.3
2025-07-19T14:12	10	113	33.5	81	187	453	5.1	446	461	20.3	79.5
2025-07-19T14:13	10	90	5.6	82	99	447	1.0	445	449	20.3	79.7
2025-07-19T14:14	10	86	0.9	84	88	445	0.6	444	446	20.4	80.2
2025-07-19T14:15	10	87	2.3	84	92	443	0.8	442	445	20.3	80.1
2025-07-19T14:16	10	97	5.6	91	110	441	0.6	440	443	20.0	80.4
2025-07-19T14:17	10	131	16.5	110	170	445	2.1	442	450	20.0	81.0
2025-07-19T14:18	10	171	3.2	164	175	454	2.5	448	457	20.2	81.3
2025-07-19T14:19	10	162	0.9	160	164	457	0.3	456	458	20.5	80.0
2025-07-19T14:20	10	157	2.9	152	161	457	0.4	457	458	20.5	78.6
2025-07-19T14:21	10	153	1.8	150	156	457	0.4	456	458	20.6	79.1
2025-07-19T14:22	10	153	1.4	151	155	455	0.3	455	456	20.4	79.2
2025-07-19T14:23	10	150	1.6	147	152	454	0.9	453	456	20.5	79.0
2025-07-19T14:24	10	153	3.0	149	157	456	0.8	454	457	20.5	79.1
2025-07-19T14:25	10	155	2.7	147	157	457	0.3	456	458	20.4	79.1
2025-07-19T14:26	10	154	2.1	147	155	457	0.3	456	458	20.9	79.9
2025-07-19T14:27	10	154	0.7	153	155	458	0.3	457	458	20.9	76.9
2025-07-19T14:28	10	149	4.9	139	155	459	0.5	457	460	21.0	77.8
2025-07-19T14:29	10	117	11.8	97	139	454	2.5	450	458	21.4	79.7
2025-07-19T14:30	10	91	10.3	71	104	449	1.7	447	452	21.5	77.4
2025-07-19T14:31	10	92	9.3	77	107	448	1.2	445	449	21.2	77.0
2025-07-19T14:32	10	91	12.5	79	113	446	0.8	445	448	21.1	77.4
2025-07-19T14:33	10	96	6.5	85	109	447	0.8	445	448	20.7	77.9
2025-07-19T14:34	10	115	8.3	101	133	447	1.0	446	450	20.6	78.5
2025-07-19T14:35	10	112	13.6	97	134	450	1.7	446	452	20.8	78.6
2025-07-19T14:36	10	110	8.7	97	125	446	0.5	445	447	20.5	77.8
2025-07-19T14:37	10	121	2.9	116	126	448	0.6	446	449	20.5	78.1
2025-07-19T14:38	10	106	7.5	94	121	448	0.7	447	449	20.6	78.0
2025-07-19T14:39	10	113	3.7	105	118	448	0.7	447	450	20.7	77.7
2025-07-19T14:40	10	106	7.0	93	115	449	0.6	448	450	20.9	77.2
2025-07-19T14:41	10	93	2.8	89	99	448	0.8	446	449	21.0	77.4
2025-07-19T14:42	10	90	9.3	69	100	446	0.6	444	446	20.8	79.1
2025-07-19T14:43	10	58	4.3	53	69	442	1.6	440	445	20.9	80.6
2025-07-19T14:44	10	55	3.6	52	65	438	1.6	436	441	20.9	79.4
2025-07-19T14:45	10	87	18.9	65	121	439	2.5	436	444	20.7	79.7
2025-07-19T14:46	10	119	5.2	111	127	446	1.6	443	449	20.8	79.9
2025-07-19T14:47	10	128	2.8	117	131	449	0.6	448	450	21.0	79.3
2025-07-19T14:48	10	101	5.6	91	113	446	1.2	445	450	20.9	78.4
2025-07-19T14:49	10	95	3.3	83	98	445	0.8	443	447	20.8	78.7
2025-07-19T14:50	10	71	3.4	66	82	442	0.9	441	444	20.7	79.1
2025-07-19T14:51	10	71	8.1	54	82	440	1.2	437	441	20.8	78.8
2025-07-19T14:52	10	51	0.8	51	54	436	0.8	435	438	20.6	78.8
2025-07-19T14:53	10	51	2.1	50	57	436	0.4	435	436	20.6	79.6
2025-07-19T14:54	10	60	1.9	58	64	435	0.5	434	436	20.7	79.0
2025-07-19T14:55	10	82	12.1	64	99	437	2.6	434	441	20.6	78.7
2025-07-19T14:56	10	69	7.8	62	91	438	1.3	436	441	20.8	78.4
2025-07-19T14:57	10	114	25.0	72	153	441	3.7	436	446	20.7	77.6
2025-07-19T14:58	10	96	10.9	80	115	443	0.7	442	444	20.8	77.7
2025-07-19T14:59	10	75	3.0	69	79	441	0.4	441	442	20.8	77.9
2025-07-19T15:00	10	84	9.1	66	99	441	0.7	440	442	20.9	77.9
2025-07-19T15:01	10	57	4.0	53	66	440	0.9	438	441	20.9	79.2
2025-07-19T15:02	10	94	31.0	56	149	439	3.0	436	446	20.9	78.8
2025-07-19T15:03	10	144	14.6	100	156	448	1.8	443	450	20.9	78.6
2025-07-19T15:04	10	106	15.7	86	136	444	1.0	443	446	20.9	78.4
2025-07-19T15:05	10	100	26.8	69	137	444	2.6	440	447	21.0	77.8
2025-07-19T15:06	10	128	20.8	85	150	444	3.0	440	450	20.9	77.3
2025-07-19T15:07	10	149	0.2	148	149	451	1.0	448	452	21.0	77.5
2025-07-19T15:08	10	148	0.4	147	149	451	0.6	450	453	20.9	76.1
2025-07-19T15:09	10	147	0.1	147	148	453	1.0	451	454	21.0	76.6
2025-07-19T15:10	10	147	1.8	141	148	452	0.4	452	454	21.2	76.3
2025-07-19T15:11	10	147	2.0	140	148	454	0.9	452	455	21.1	76.5
2025-07-19T15:12	10	149	1.4	146	151	455	0.5	454	456	21.5	76.2
2025-07-19T15:13	10	152	0.6	151	153	455	0.9	454	457	21.5	75.7
2025-07-19T15:14	10	155	1.0	153	157	454	1.4	453	457	21.4	74.5
2025-07-19T15:15	10	157	1.0	155	158	454	0.4	454	455	21.2	74.3
2025-07-19T15:16	10	130	27.3	79	155	454	1.7	449	455	21.1	74.6
2025-07-19T15:17	10	84	7.3	74	99	449	1.3	447	451	21.3	75.2
2025-07-19T15:18	10	117	8.3	100	129	449	0.9	447	450	21.5	74.9
2025-07-19T15:19	10	126	4.6	116	132	450	1.8	448	453	21.5	74.6
2025-07-19T15:20	10	126	2.7	120	130	452	0.8	450	453	21.4	74.7
2025-07-19T15:21	10	136	5.8	125	147	453	1.5	451	456	21.4	75.2
2025-07-19T15:22	10	112	30.7	55	149	455	2.2	449	457	21.6	75.3
2025-07-19T15:23	10	47	2.8	43	55	443	4.4	437	452	21.6	74.8
2025-07-19T15:24	10	43	0.2	43	44	437	1.2	435	439	21.3	75.1
2025-07-19T15:25	10	45	1.1	44	47	434	0.5	434	436	21.1	75.1
2025-07-19T15:26	10	57	6.9	48	74	436	1.5	434	439	21.1	76.1
2025-07-19T15:27	10	98	6.8	76	111	443	2.2	438	446	21.3	76.2
2025-07-19T15:28	10	118	6.2	109	128	445	1.1	444	448	21.1	74.5
2025-07-19T15:29	10	118	8.6	106	134	448	1.4	446	452	21.2	75.0
2025-07-19T15:30	10	141	5.0	133	146	454	1.8	450	456	21.5	74.2
2025-07-19T15:31	10	147	3.1	142	150	456	1.4	453	458	21.5	73.8
2025-07-19T15:32	10	153	2.4	148	157	459	0.5	457	459	21.7	73.5
2025-07-19T15:33	10	158	1.0	157	160	457	1.1	455	459	21.6	72.3
2025-07-19T15:34	10	159	2.6	153	164	457	0.5	456	458	21.6	72.0
2025-07-19T15:35	10	124	17.2	98	163	456	2.2	452	460	21.8	71.5
2025-07-19T15:36	10	130	15.4	106	158	454	0.8	453	456	21.9	71.0
2025-07-19T15:37	10	157	12.4	126	172	458	1.8	455	461	21.9	70.7
2025-07-19T15:38	10	157	13.9	129	172	462	1.1	460	464	22.2	71.1
2025-07-19T15:39	10	143	19.1	106	170	464	1.0	461	465	22.6	70.4
2025-07-19T15:40	10	149	24.9	95	170	462	2.0	458	466	22.5	69.4
2025-07-19T15:41	10	154	13.8	114	168	464	1.3	461	466	22.5	69.8
2025-07-19T15:42	10	164	2.4	157	166	463	0.8	462	465	22.3	69.2
2025-07-19T15:43	10	142	17.8	103	164	463	1.2	461	464	22.2	69.3
2025-07-19T15:44	10	163	1.5	159	165	462	0.9	460	464	22.3	68.7
2025-07-19T15:45	10	147	13.3	118	162	462	0.7	461	463	22.3	70.0
2025-07-19T15:46	10	158	1.7	156	161	459	2.0	456	462	21.8	71.4
2025-07-19T15:47	10	153	1.7	150	156	457	0.8	456	459	21.6	72.4
2025-07-19T15:48	10	149	0.7	147	150	457	1.0	456	459	21.9	72.0
2025-07-19T15:49	10	145	1.2	143	147	457	0.6	456	458	21.7	72.4
2025-07-19T15:50	10	141	1.4	138	143	456	1.7	453	459	21.8	72.9
2025-07-19T15:51	10	141	0.6	140	142	454	0.6	453	456	21.9	73.1
2025-07-19T15:52	10	140	0.3	139	141	454	0.3	453	455	21.7	72.9
2025-07-19T15:53	10	141	0.8	140	143	456	0.6	455	457	21.6	73.3
2025-07-19T15:54	10	143	0.5	142	144	457	0.8	455	458	21.6	73.1
2025-07-19T15:55	10	127	14.7	90	142	458	0.8	455	459	21.8	73.0
2025-07-19T15:56	10	74	6.8	62	88	451	2.5	448	457	22.0	72.9
2025-07-19T15:57	10	83	13.8	64	125	449	0.8	447	451	22.2	71.9
2025-07-19T15:58	10	58	5.6	51	72	445	1.8	442	448	22.1	71.6
2025-07-19T15:59	10	54	3.8	50	64	442	0.6	441	444	22.1	72.0
2025-07-19T16:00	10	104	24.1	65	140	445	2.7	441	450	21.9	71.6
2025-07-19T16:01	10	134	16.4	99	153	451	1.6	448	455	21.8	71.8
2025-07-19T16:02	10	153	1.1	152	155	457	1.8	453	459	21.9	72.3
2025-07-19T16:03	10	151	8.4	123	156	459	0.8	458	461	22.1	71.5
2025-07-19T16:04	10	107	20.2	71	142	455	2.2	451	458	22.0	71.2
2025-07-19T16:05	10	90	26.6	60	139	452	2.3	447	455	22.0	71.6
2025-07-19T16:06	10	69	15.6	55	113	447	0.9	446	449	22.1	72.0
2025-07-19T16:07	10	51	4.4	46	66	445	1.3	443	448	22.2	71.4
2025-07-19T16:08	10	46	4.2	43	58	441	2.0	439	444	22.2	71.8
2025-07-19T16:09	10	48	9.5	43	75	439	0.6	437	440	21.9	71.6
2025-07-19T16:10	10	44	0.3	43	45	438	0.4	437	439	21.9	71.9
2025-07-19T16:11	10	45	0.8	44	47	436	0.5	435	437	21.8	71.7
2025-07-19T16:12	10	49	1.0	47	51	437	0.5	437	438	21.8	72.6
2025-07-19T16:13	10	76	29.2	51	131	440	2.8	437	445	21.8	71.8
2025-07-19T16:14	10	119	21.2	68	136	448	3.7	442	453	21.9	72.2
2025-07-19T16:15	10	127	7.1	106	134	453	1.6	450	455	22.2	72.1
2025-07-19T16:16	10	111	10.2	93	130	451	0.8	451	454	22.1	70.7
2025-07-19T16:17	10	114	9.3	92	125	454	1.1	451	455	22.3	71.6
2025-07-19T16:18	10	75	21.8	46	103	448	3.2	443	453	22.3	70.3
2025-07-19T16:19	10	40	4.7	36	54	442	1.7	439	445	22.1	70.3
2025-07-19T16:20	10	35	1.4	33	38	439	0.8	437	440	22.0	70.3
2025-07-19T16:21	10	32	0.7	31	34	438	0.4	437	439	22.0	70.8
2025-07-19T16:22	10	31	1.3	30	35	437	0.3	436	437	22.1	71.3
2025-07-19T16:23	10	32	0.6	31	33	436	0.5	435	437	22.1	72.6
2025-07-19T16:24	10	58	18.0	33	80	437	1.8	435	440	22.0	73.5
2025-07-19T16:25	10	68	10.9	50	82	440	0.8	438	441	21.9	73.8
2025-07-19T16:26	10	42	9.6	37	71	438	1.8	436	441	21.9	74.1
2025-07-19T16:27	10	37	0.1	37	37	436	0.4	435	437	21.9	74.4
2025-07-19T16:28	10	38	1.1	37	40	435	0.3	434	436	21.8	74.6
2025-07-19T16:29	10	36	0.3	35	36	434	0.6	433	436	21.8	74.7
2025-07-19T16:30	10	36	0.1	35	36	433	0.3	432	433	21.7	74.2
2025-07-19T16:31	10	40	5.1	36	52	433	0.4	432	434	21.7	74.8
2025-07-19T16:32	10	46	8.3	40	67	434	0.7	432	435	21.8	74.6
2025-07-19T16:33	10	44	3.4	41	57	434	0.4	433	435	21.7	74.4
2025-07-19T16:34	10	60	22.9	41	105	435	1.8	433	439	21.6	74.5
2025-07-19T16:35	10	103	3.1	93	107	441	1.8	437	443	21.7	74.4
2025-07-19T16:36	10	79	25.1	46	109	442	1.3	439	444	21.9	74.4
2025-07-19T16:37	10	59	17.3	47	112	439	1.0	438	442	22.0	74.2
2025-07-19T16:38	10	69	26.8	47	113	442	1.9	438	445	22.1	74.8
2025-07-19T16:39	10	53	7.2	46	69	439	0.8	437	440	22.0	74.3
2025-07-19T16:40	10	47	3.1	43	55	436	0.8	435	438	21.8	73.9
2025-07-19T16:41	10	41	1.0	40	43	435	0.5	434	436	21.8	74.3
2025-07-19T16:42	10	58	24.0	40	103	436	2.2	434	441	21.7	74.8
2025-07-19T16:43	10	40	7.1	35	69	436	2.1	433	440	21.7	74.2
2025-07-19T16:44	10	51	22.5	35	101	434	1.5	432	438	21.6	74.1
2025-07-19T16:45	10	99	0.9	97	101	441	2.2	436	444	21.6	74.1
2025-07-19T16:46	10	95	2.3	91	97	442	0.6	441	443	21.7	74.7
2025-07-19T16:47	10	66	15.2	45	91	439	1.8	436	442	21.7	74.8
2025-07-19T16:48	10	35	5.4	30	46	435	1.4	433	438	21.9	75.6
2025-07-19T16:49	10	30	0.5	29	31	432	0.5	431	433	21.8	74.9
2025-07-19T16:50	10	32	1.0	31	34	431	0.4	431	432	21.7	75.2
2025-07-19T16:51	10	32	1.3	29	34	431	0.4	430	432	21.6	75.3
2025-07-19T16:52	10	33	3.5	28	40	431	0.3	430	432	21.6	75.5
2025-07-19T16:53	10	37	9.6	23	51	431	0.5	430	432	21.5	75.3
2025-07-19T16:54	10	22	0.7	21	23	429	0.5	428	431	21.5	75.5
2025-07-19T16:55	10	20	0.3	20	21	429	0.2	428	429	21.6	75.7
2025-07-19T16:56	10	19	0.3	19	20	428	0.3	428	429	21.6	75.7
2025-07-19T16:57	10	19	0.1	18	19	427	0.2	427	428	21.6	75.4
2025-07-19T16:58	10	20	0.7	19	21	427	0.2	427	428	21.6	75.8
2025-07-19T16:59	10	19	0.7	18	20	426	0.5	425	427	21.6	75.3
2025-07-19T17:00	10	18	0.2	18	18	426	0.3	425	426	21.5	74.9
2025-07-19T17:01	10	17	0.3	17	18	425	0.2	425	426	21.5	75.3
2025-07-19T17:02	10	17	0.4	16	17	425	0.2	425	425	21.5	75.7
2025-07-19T17:03	10	16	0.1	16	16	425	0.2	424	425	21.6	75.3
2025-07-19T17:04	10	16	0.2	16	17	425	0.3	424	425	21.5	75.0
2025-07-19T17:05	10	27	12.6	17	60	425	1.1	424	429	21.6	75.6
2025-07-19T17:06	10	71	2.7	61	74	431	2.0	427	434	21.6	75.7
2025-07-19T17:07	10	75	1.5	68	76	435	1.0	432	436	21.6	75.1
2025-07-19T17:08	10	51	11.6	32	66	433	0.7	432	436	21.7	74.9
2025-07-19T17:09	10	37	21.6	21	76	433	1.9	430	435	21.7	74.7
2025-07-19T17:10	10	43	19.1	22	75	431	1.1	430	434	21.8	75.0
2025-07-19T17:11	10	75	4.5	56	77	435	1.3	433	437	21.8	75.0
2025-07-19T17:12	10	29	7.4	23	53	432	2.2	429	437	21.7	74.3
2025-07-19T17:13	10	25	5.0	21	37	430	0.9	428	431	21.7	74.7
2025-07-19T17:14	10	44	7.8	24	52	430	1.0	428	431	21.7	74.9
2025-07-19T17:15	10	43	12.4	28	66	430	0.6	429	432	21.7	74.7
2025-07-19T17:16	10	69	0.7	67	70	433	1.0	430	435	21.7	74.6
2025-07-19T17:17	10	69	0.6	67	70	435	0.5	434	436	21.8	74.9
2025-07-19T17:18	10	68	0.3	68	69	435	0.4	434	437	21.8	74.7
2025-07-19T17:19	10	64	5.0	48	68	436	0.3	435	436	21.9	74.6
2025-07-19T17:20	10	61	8.4	28	67	435	0.5	434	436	21.9	74.6
2025-07-19T17:21	10	20	2.3	18	25	431	1.7	429	435	21.9	74.6
2025-07-19T17:22	10	26	9.5	18	49	430	0.7	428	431	21.9	74.5
2025-07-19T17:23	10	18	0.3	18	19	428	0.4	428	429	21.8	74.7
2025-07-19T17:24	10	19	3.4	17	28	428	0.3	427	429	21.8	74.6
2025-07-19T17:25	10	28	13.1	16	54	428	0.7	426	430	21.8	74.5
2025-07-19T17:26	10	52	5.5	36	57	430	0.9	429	432	21.9	74.0
2025-07-19T17:27	10	38	8.3	27	55	431	0.5	430	432	21.9	74.0
2025-07-19T17:28	10	17	1.3	17	25	429	1.0	428	431	21.9	74.5
2025-07-19T17:29	10	18	1.1	17	21	427	0.4	426	428	22.0	73.8
2025-07-19T17:30	10	41	14.0	17	56	428	1.5	426	431	22.0	73.4
2025-07-19T17:31	10	52	2.8	46	56	431	0.6	430	432	22.0	73.5
2025-07-19T17:32	10	29	15.0	17	56	430	1.6	428	432	22.0	73.4
2025-07-19T17:33	10	47	8.3	31	55	430	1.1	428	432	22.0	74.1
2025-07-19T17:34	10	35	13.3	19	56	431	0.9	429	432	22.0	73.8
2025-07-19T17:35	10	26	7.1	19	39	429	0.3	429	430	22.0	73.9
2025-07-19T17:36	10	20	1.3	19	24	428	0.3	428	429	22.1	73.8
2025-07-19T17:37	10	22	1.3	19	24	428	0.2	428	429	22.1	72.5
2025-07-19T17:38	10	33	11.7	22	55	428	0.6	427	430	22.1	72.8
2025-07-19T17:39	10	48	8.2	33	56	430	0.5	429	431	22.1	73.0
2025-07-19T17:40	10	34	12.0	22	54	431	0.7	430	432	22.2	73.3
2025-07-19T17:41	10	33	5.0	23	44	430	0.3	430	431	22.1	72.8
2025-07-19T17:42	10	41	5.2	32	49	431	0.3	430	431	22.0	72.9
2025-07-19T17:43	10	27	7.5	19	41	430	1.1	428	432	22.0	73.3
2025-07-19T17:44	10	18	1.1	17	20	428	0.5	427	429	22.0	73.2
2025-07-19T17:45	10	17	0.7	15	18	427	0.3	426	428	22.2	72.3
2025-07-19T17:46	10	26	8.2	16	36	427	0.7	426	429	22.2	72.4
2025-07-19T17:47	10	36	7.5	27	45	429	0.7	428	430	22.2	72.8
2025-07-19T17:48	10	25	11.0	14	45	429	0.9	428	431	22.1	73.4
2025-07-19T17:49	10	13	1.2	12	17	428	0.6	427	429	22.1	73.2
2025-07-19T17:50	10	12	0.3	11	12	427	0.5	425	427	22.0	72.9
2025-07-19T17:51	10	11	0.1	11	11	426	0.4	425	427	22.0	73.1
2025-07-19T17:52	10	11	0.1	11	11	425	0.2	425	426	22.0	73.3
2025-07-19T17:53	10	12	3.1	10	24	426	0.2	425	426	22.1	73.2
2025-07-19T17:54	10	16	5.3	12	27	426	0.3	425	426	22.1	73.1
2025-07-19T17:55	10	13	0.3	12	14	426	0.2	425	426	22.1	72.7
2025-07-19T17:56	10	15	0.7	13	16	426	0.3	425	426	22.1	72.9
2025-07-19T17:57	10	17	0.8	16	18	426	0.3	426	427	22.1	72.9
2025-07-19T17:58	10	19	0.7	18	21	426	0.2	426	427	22.1	72.7
2025-07-19T17:59	10	25	4.4	20	35	427	0.5	426	428	22.0	72.7
2025-07-19T18:00	10	22	4.9	18	35	428	0.4	427	428	22.1	72.5
2025-07-19T18:01	10	18	0.5	17	19	427	0.3	427	428	22.1	72.8
2025-07-19T18:02	10	17	0.1	17	17	426	0.6	425	427	22.0	74.2
2025-07-19T18:03	10	16	0.3	16	17	425	0.2	424	425	21.8	74.9
2025-07-19T18:04	10	15	0.3	15	16	425	0.3	424	425	21.7	75.4
2025-07-19T18:05	10	15	0.8	13	16	424	0.3	423	424	21.5	76.4
2025-07-19T18:06	10	13	0.6	12	14	423	0.3	423	424	21.4	77.0
2025-07-19T18:07	10	11	0.8	10	12	423	0.2	423	424	21.5	76.7
2025-07-19T18:08	10	9	0.5	8	10	423	0.2	422	423	21.5	76.6
2025-07-19T18:09	10	7	0.4	6	8	423	0.2	422	423	21.5	76.1
2025-07-19T18:10	10	6	0.2	6	7	422	0.2	422	423	21.5	75.8
2025-07-19T18:11	10	6	0.1	5	6	422	0.2	421	422	21.5	75.7
2025-07-19T18:12	10	5	0.1	5	6	422	0.2	421	422	21.5	75.4
2025-07-19T18:13	10	5	0.1	5	6	422	0.2	422	423	21.6	75.7
2025-07-19T18:14	10	5	0.1	5	6	422	0.2	422	423	21.6	76.2
2025-07-19T18:15	10	6	0.1	5	6	421	0.3	421	422	21.5	76.3
2025-07-19T18:16	10	6	0.1	6	6	421	0.2	420	421	21.2	76.8
2025-07-19T18:17	10	6	0.1	5	6	421	0.2	420	421	21.2	77.1
2025-07-19T18:18	10	6	0.1	6	6	420	0.2	420	421	21.2	77.0
2025-07-19T18:19	10	6	0.1	6	6	420	0.2	419	420	21.1	77.0
2025-07-19T18:20	10	6	0.1	6	6	420	0.3	419	420	21.0	77.0
2025-07-19T18:21	10	6	0.2	6	7	420	0.2	419	420	21.1	77.1
2025-07-19T18:22	10	7	0.6	7	9	420	0.3	419	420	21.1	77.0
2025-07-19T18:23	10	9	0.7	8	11	420	0.3	419	420	21.1	76.6
2025-07-19T18:24	10	19	3.5	11	25	420	0.8	419	422	21.1	76.6
2025-07-19T18:25	10	23	1.5	21	25	421	0.4	420	422	21.2	76.3
2025-07-19T18:26	10	26	1.1	22	27	423	0.5	421	423	21.3	76.0
2025-07-19T18:27	10	18	4.6	12	26	423	0.3	422	423	21.3	75.8
2025-07-19T18:28	10	25	0.1	25	26	423	0.4	422	424	21.4	75.8
2025-07-19T18:29	10	24	0.6	22	25	424	0.3	423	425	21.4	75.7
2025-07-19T18:30	10	19	2.4	15	22	424	0.3	423	425	21.5	75.0
2025-07-19T18:31	10	17	1.8	14	20	424	0.3	423	425	21.6	74.6
2025-07-19T18:32	10	13	0.9	12	15	423	0.2	422	424	21.6	74.7
2025-07-19T18:33	10	13	0.4	12	13	423	0.2	422	423	21.6	74.8
2025-07-19T18:34	10	12	0.1	12	13	423	0.2	422	424	21.5	75.4
2025-07-19T18:35	10	13	0.2	12	13	422	0.4	421	423	21.4	75.9
2025-07-19T18:36	10	13	0.2	13	14	422	0.3	421	423	21.3	76.4
2025-07-19T18:37	10	14	0.1	14	14	421	0.2	421	422	21.2	76.7
2025-07-19T18:38	10	14	0.1	14	14	421	0.2	421	422	21.2	77.7
2025-07-19T18:39	10	14	0.2	14	15	421	0.3	421	422	21.1	79.1
2025-07-19T18:40	10	17	1.9	15	21	421	0.3	421	422	21.1	79.1
2025-07-19T18:41	10	21	0.2	20	21	422	0.2	421	422	21.1	78.9
2025-07-19T18:42	10	20	0.7	19	21	421	0.3	420	422	21.1	79.1
2025-07-19T18:43	10	19	0.6	18	19	420	0.4	420	421	21.0	79.6
2025-07-19T18:44	10	17	0.2	17	18	420	0.4	419	420	21.0	79.5
2025-07-19T18:45	10	16	0.3	16	17	419	0.2	419	420	20.9	79.8
2025-07-19T18:46	10	14	0.8	13	16	418	0.3	418	419	20.9	79.7
2025-07-19T18:47	10	12	0.4	12	13	418	0.2	417	418	20.9	79.6
2025-07-19T18:48	10	11	0.4	11	12	417	0.2	417	418	20.8	79.6
2025-07-19T18:49	10	10	0.2	10	11	417	0.2	417	417	20.8	80.1
2025-07-19T18:50	10	10	0.1	10	10	417	0.2	417	417	20.8	80.5
2025-07-19T18:51	10	10	0.1	10	10	417	0.2	416	417	20.7	80.7
2025-07-19T18:52	10	10	0.2	10	10	417	0.2	416	417	20.7	80.6
2025-07-19T18:53	10	10	0.2	9	10	417	0.2	416	417	20.7	80.8
2025-07-19T18:54	10	9	0.3	8	9	417	0.3	416	417	20.7	81.1
2025-07-19T18:55	10	8	0.3	7	8	417	0.2	416	417	20.7	81.3
2025-07-19T18:56	10	7	0.3	6	7	416	0.2	416	417	20.6	81.4
2025-07-19T18:57	10	6	0.4	5	6	416	0.2	416	417	20.6	81.6
2025-07-19T18:58	10	5	0.1	5	5	416	0.2	415	416	20.6	81.7
2025-07-19T18:59	10	4	0.2	4	5	415	0.2	415	416	20.5	82.0
2025-07-19T19:00	10	4	0.1	4	4	415	0.2	415	416	20.5	81.9
2025-07-19T19:01	10	4	0.1	4	4	415	0.2	415	415	20.5	81.6
2025-07-19T19:02	10	4	0.1	4	4	415	0.2	414	415	20.5	81.3
2025-07-19T19:03	10	4	0.1	4	5	414	0.2	414	415	20.5	80.8
2025-07-19T19:04	10	4	0.1	4	4	414	0.2	414	414	20.5	80.9
2025-07-19T19:05	10	4	0.1	4	4	414	0.2	413	414	20.5	81.0
2025-07-19T19:06	10	4	0.2	4	4	413	0.3	413	414	20.5	81.1
2025-07-19T19:07	10	4	0.1	4	4	413	0.3	412	413	20.4	81.2
2025-07-19T19:08	10	4	0.2	3	4	412	0.3	412	413	20.4	81.2
2025-07-19T19:09	10	4	0.2	3	4	412	0.3	411	413	20.4	81.4
2025-07-19T19:10	10	3	0.2	3	4	412	0.2	411	412	20.4	81.5
2025-07-19T19:11	10	3	0.2	2	4	411	0.3	410	412	20.5	81.5
2025-07-19T19:12	10	3	0.3	2	3	411	0.2	410	411	20.4	81.7
2025-07-19T19:13	10	2	0.2	2	3	410	0.3	410	411	20.4	81.7
2025-07-19T19:14	10	2	0.1	1	2	410	0.3	409	410	20.5	81.4
2025-07-19T19:15	10	1	0.1	1	2	410	0.2	409	410	20.5	81.5
2025-07-19T19:16	10	1	0.2	1	2	409	0.2	409	410	20.5	81.4
2025-07-19T19:17	10	1	0.1	1	1	409	0.2	409	410	20.5	81.7
2025-07-19T19:18	10	1	0.1	1	1	409	0.2	408	409	20.4	81.8
2025-07-19T19:19	10	1	0.1	1	1	409	0.2	408	409	20.5	81.8
2025-07-19T19:20	10	1	0.1	1	1	409	0.2	408	409	20.5	81.9
2025-07-19T19:21	10	1	0.1	0	1	409	0.2	408	409	20.5	82.0
2025-07-19T19:22	10	1	0.1	0	1	409	0.2	408	409	20.5	82.1
2025-07-19T19:23	10	1	0.1	0	1	408	0.2	408	409	20.5	82.2
2025-07-19T19:24	10	1	0.1	0	1	408	0.2	408	409	20.5	82.3
2025-07-19T19:25	10	0	0.1	0	1	408	0.3	407	408	20.5	82.5
2025-07-19T19:26	10	0	0.1	0	1	407	0.3	406	408	20.5	82.7
2025-07-19T19:27	10	0	0.1	0	1	406	0.2	406	407	20.4	82.9
2025-07-19T19:28	10	0	0.1	0	1	406	0.3	405	406	20.3	83.3
2025-07-19T19:29	10	0	0.1	0	0	405	0.2	405	406	20.3	83.5
2025-07-19T19:30	10	0	0.1	0	0	405	0.2	405	406	20.3	83.8
2025-07-19T19:31	10	0	0.1	0	0	405	0.3	405	406	20.2	84.2
2025-07-19T19:32	10	0	0.1	0	1	405	0.2	405	406	20.1	84.8
2025-07-19T19:33	10	0	0.1	0	0	405	0.2	404	406	20.0	84.8
2025-07-19T19:34	10	0	0.1	0	0	405	0.2	404	405	20.1	84.8
2025-07-19T19:35	10	0	0.1	0	0	404	0.3	404	405	20.1	84.9
2025-07-19T19:36	10	0	0.1	0	0	404	0.2	403	404	20.0	84.9
2025-07-19T19:37	10	0	0.1	0	0	404	0.3	403	404	20.0	84.9
2025-07-19T19:38	10	0	0.1	0	0	403	0.2	403	404	20.0	84.9
2025-07-19T19:39	10	0	0.1	0	0	403	0.2	402	404	20.0	85.2
2025-07-19T19:40	10	0	0.1	0	1	403	0.3	402	404	19.9	85.7
2025-07-19T19:41	10	0	0.0	0	0	402	0.3	402	403	19.9	85.9
2025-07-19T19:42	10	0	0.1	0	0	402	0.2	402	403	19.8	86.4
2025-07-19T19:43	10	0	0.1	0	1	402	0.2	401	402	19.8	86.6
2025-07-19T19:44	10	0	0.1	0	0	402	0.2	401	402	19.8	86.8
2025-07-19T19:45	10	0	0.1	0	0	402	0.3	401	403	19.8	87.0
2025-07-19T19:46	10	0	0.1	0	0	402	0.3	402	403	19.7	87.1
2025-07-19T19:47	10	0	0.1	0	0	402	0.2	401	402	19.7	87.3
2025-07-19T19:48	10	0	0.1	0	0	401	0.3	401	402	19.6	87.5
2025-07-19T19:49	10	0	0.0	0	0	401	0.2	401	402	19.6	87.8
2025-07-19T19:50	10	0	0.1	0	0	401	0.2	400	401	19.6	87.6
2025-07-19T19:51	10	0	0.0	0	0	400	0.3	399	401	19.6	87.6
2025-07-19T19:52	10	0	0.1	0	0	400	0.3	399	401	19.6	87.8
2025-07-19T19:53	10	0	0.0	0	0	400	0.3	399	401	19.5	88.0
2025-07-19T19:54	10	0	0.1	0	0	400	0.2	399	400	19.6	88.1
2025-07-19T19:55	10	0	0.0	0	0	400	0.2	399	400	19.6	88.2
2025-07-19T19:56	10	0	0.0	0	0	399	0.2	399	400	19.6	88.3
2025-07-19T19:57	10	0	0.0	0	0	399	0.2	399	400	19.6	88.2
2025-07-19T19:58	10	0	0.0	0	0	399	0.2	399	400	19.6	88.2
2025-07-19T19:59	10	0	0.1	0	0	399	0.2	399	400	19.6	88.3
2025-07-19T20:00	10	0	0.0	0	0	400	0.3	399	401	19.6	88.4
2025-07-19T20:01	10	0	0.0	0	0	399	0.3	399	400	19.5	88.8
2025-07-19T20:02	10	0	0.0	0	0	399	0.3	398	399	19.4	89.3
2025-07-19T20:03	10	0	0.1	0	0	399	0.2	398	399	19.3	89.7
2025-07-19T20:04	10	0	0.1	0	1	398	0.2	397	398	19.2	90.0
2025-07-19T20:05	10	0	0.2	0	1	398	0.2	397	398	19.2	90.3
2025-07-19T20:06	10	0	0.1	0	1	398	0.2	397	398	19.2	90.2
2025-07-19T20:07	10	0	0.2	0	1	398	0.2	397	398	19.1	90.4
2025-07-19T20:08	10	0	0.1	0	1	398	0.4	397	399	19.1	90.5
2025-07-19T20:09	10	0	0.2	0	1	399	0.2	398	399	19.1	90.7
2025-07-19T20:10	10	0	0.1	0	1	399	0.3	398	400	19.1	90.8
2025-07-19T20:11	10	0	0.2	0	1	399	0.2	398	399	19.1	90.8
2025-07-19T20:12	10	0	0.1	0	0	399	0.2	398	399	19.2	90.7
2025-07-19T20:13	10	0	0.2	0	1	398	0.2	398	399	19.1	90.7
2025-07-19T20:14	10	0	0.1	0	1	398	0.2	398	399	19.1	90.8
2025-07-19T20:15	10	0	0.2	0	1	398	0.2	398	398	19.1	90.8
2025-07-19T20:16	10	0	0.2	0	1	398	0.2	398	399	19.1	90.8
2025-07-19T20:17	10	0	0.1	0	0	398	0.2	398	399	19.2	90.5
2025-07-19T20:18	10	0	0.1	0	1	398	0.3	398	399	19.2	90.4
2025-07-19T20:19	10	0	0.1	0	0	399	0.2	398	399	19.3	90.2
2025-07-19T20:20	10	0	0.1	0	0	398	0.3	398	399	19.3	90.3
2025-07-19T20:21	10	0	0.1	0	0	398	0.2	397	398	19.2	90.4
2025-07-19T20:22	10	0	0.1	0	1	398	0.2	397	398	19.3	90.3
2025-07-19T20:23	10	0	0.1	0	1	398	0.2	397	398	19.2	90.4
2025-07-19T20:24	10	0	0.1	0	0	398	0.4	397	399	19.2	90.7
2025-07-19T20:25	10	0	0.1	0	0	399	0.3	398	400	19.1	90.9
2025-07-19T20:26	10	0	0.0	0	0	398	0.4	397	398	19.2	90.7
2025-07-19T20:27	10	0	0.1	0	0	398	0.2	397	398	19.0	91.3
2025-07-19T20:28	10	0	0.0	0	0	397	0.2	397	398	19.0	91.5
2025-07-19T20:29	10	0	0.0	0	0	397	0.2	396	397	19.1	91.3
2025-07-19T20:30	10	0	0.1	0	0	397	0.2	396	397	19.0	91.7
2025-07-19T20:31	10	0	0.1	0	0	397	0.3	396	397	19.0	91.7
2025-07-19T20:32	10	0	0.0	0	0	396	0.2	396	396	19.0	92.3
2025-07-19T20:33	10	0	0.1	0	0	396	0.3	395	396	18.8	92.8
2025-07-19T20:34	10	0	0.1	0	0	395	0.2	395	396	18.5	93.6
2025-07-19T20:35	10	0	0.1	0	0	396	0.2	395	396	18.5	94.2
2025-07-19T20:36	10	0	0.1	0	0	395	0.2	395	396	18.4	94.4
2025-07-19T20:37	10	0	0.0	0	0	396	0.3	395	396	18.5	94.3
2025-07-19T20:38	10	0	0.0	0	0	395	0.2	395	396	18.5	94.2
2025-07-19T20:39	10	0	0.1	0	0	395	0.2	395	396	18.5	94.2
2025-07-19T20:40	10	0	0.0	0	0	396	0.2	395	396	18.5	94.0
2025-07-19T20:41	10	0	0.1	0	0	396	0.3	395	396	18.6	93.9
2025-07-19T20:42	10	0	0.1	0	0	396	0.3	395	397	18.6	93.6
2025-07-19T20:43	10	0	0.1	0	0	396	0.3	396	397	18.6	93.6
2025-07-19T20:44	10	0	0.1	0	0	397	0.3	396	397	18.6	93.3
2025-07-19T20:45	10	0	0.1	0	0	397	0.3	397	398	18.7	92.8
2025-07-19T20:46	10	0	0.1	0	0	397	0.2	397	398	18.7	92.7
2025-07-19T20:47	10	0	0.1	0	0	398	0.5	396	398	18.6	92.7
2025-07-19T20:48	10	0	0.1	0	0	398	0.3	398	399	18.5	93.1
2025-07-19T20:49	10	0	0.1	0	0	399	0.3	398	399	18.5	93.3
2025-07-19T20:50	10	0	0.1	0	1	399	0.3	398	400	18.5	93.5
2025-07-19T20:51	10	0	0.1	0	1	399	0.3	398	399	18.5	93.6
2025-07-19T20:52	10	0	0.1	0	0	399	0.2	398	399	18.5	93.7
2025-07-19T20:53	10	0	0.1	0	0	399	0.2	398	399	18.3	94.0
2025-07-19T20:54	10	0	0.1	0	1	399	0.3	398	400	18.3	94.3
2025-07-19T20:55	10	0	0.1	0	1	399	0.3	399	400	18.3	94.4
2025-07-19T20:56	10	0	0.1	0	1	399	0.2	399	400	18.3	94.3
2025-07-19T20:57	10	0	0.1	0	0	400	0.2	399	400	18.3	94.4
2025-07-19T20:58	10	0	0.1	0	0	399	0.3	399	400	18.4	94.4
2025-07-19T20:59	10	0	0.1	0	0	399	0.2	399	400	18.3	94.3
2025-07-19T21:00	10	0	0.1	0	0	400	0.3	399	400	18.3	94.4
2025-07-19T21:01	10	0	0.1	0	0	399	0.3	399	400	18.3	94.5
2025-07-19T21:02	10	0	0.1	0	0	399	0.2	399	400	18.3	94.5
2025-07-19T21:03	10	0	0.1	0	0	399	0.3	398	399	18.4	94.4
2025-07-19T21:04	10	0	0.1	0	0	398	0.2	398	399	18.4	94.5
2025-07-19T21:05	10	0	0.1	0	0	397	0.3	397	398	18.4	94.5
2025-07-19T21:06	10	0	0.1	0	0	397	0.3	397	398	18.4	94.6
2025-07-19T21:07	10	0	0.0	0	0	397	0.3	396	397	18.3	94.6
2025-07-19T21:08	10	0	0.1	0	0	396	0.2	396	397	18.3	94.8
2025-07-19T21:09	10	0	0.1	0	0	396	0.4	395	397	18.2	94.8
2025-07-19T21:10	10	0	0.1	0	0	396	0.2	395	396	18.2	94.9
2025-07-19T21:11	10	0	0.1	0	0	396	0.2	395	396	18.3	95.0
2025-07-19T21:12	10	0	0.1	0	0	395	0.3	395	396	18.3	94.8
2025-07-19T21:13	10	0	0.1	0	0	395	0.2	395	396	18.3	94.3
2025-07-19T21:14	10	0	0.1	0	0	395	0.2	394	395	18.4	94.0
2025-07-19T21:15	10	0	0.1	0	0	395	0.3	394	395	18.5	93.6
2025-07-19T21:16	10	0	0.1	0	0	395	0.2	394	395	18.5	93.5
2025-07-19T21:17	10	0	0.1	0	0	395	0.2	394	395	18.6	93.4
2025-07-19T21:18	10	0	0.1	0	0	395	0.2	395	396	18.6	93.2
2025-07-19T21:19	10	0	0.1	0	0	395	0.3	395	396	18.6	93.2
2025-07-19T21:20	10	0	0.1	0	0	396	0.2	395	396	18.6	93.1
2025-07-19T21:21	10	0	0.1	0	0	395	0.2	395	396	18.6	93.1
2025-07-19T21:22	10	0	0.1	0	0	395	0.2	395	396	18.6	93.1
2025-07-19T21:23	10	0	0.1	0	0	395	0.2	395	396	18.6	93.0
2025-07-19T21:24	10	0	0.1	0	0	395	0.2	395	396	18.6	93.1
2025-07-19T21:25	10	0	0.1	0	0	395	0.3	395	396	18.6	93.2
2025-07-19T21:26	10	0	0.1	0	0	396	0.2	395	396	18.5	93.3
2025-07-19T21:27	10	0	0.1	0	0	396	0.2	395	396	18.4	93.4
2025-07-19T21:28	10	0	0.1	0	0	396	0.3	395	396	18.3	93.8
2025-07-19T21:29	10	0	0.1	0	0	395	0.3	395	396	18.2	94.3
2025-07-19T21:30	10	0	0.1	0	0	395	0.2	395	396	18.2	94.7
2025-07-19T21:31	10	0	0.0	0	0	395	0.2	395	396	18.1	95.0
2025-07-19T21:32	10	0	0.1	0	0	395	0.3	395	396	18.1	95.2
2025-07-19T21:33	10	0	0.1	0	0	396	0.2	395	396	18.1	95.1
2025-07-19T21:34	10	0	0.1	0	0	396	0.2	395	396	18.1	95.2
2025-07-19T21:35	10	0	0.1	0	0	396	0.2	395	396	18.1	95.2
2025-07-19T21:36	10	0	0.1	0	0	396	0.2	395	396	18.1	95.3
2025-07-19T21:37	10	0	0.1	0	0	396	0.3	395	396	18.1	95.4
2025-07-19T21:38	10	0	0.1	0	0	396	0.2	395	396	18.1	95.4
2025-07-19T21:39	10	0	0.1	0	0	397	0.2	396	397	18.1	95.6
2025-07-19T21:40	10	0	0.1	0	0	397	0.3	396	397	18.0	95.7
2025-07-19T21:41	10	0	0.2	0	1	397	0.2	396	397	18.0	95.8
2025-07-19T21:42	10	0	0.1	0	0	397	0.2	396	397	18.1	95.8
2025-07-19T21:43	10	0	0.1	0	1	397	0.1	396	397	18.1	95.7
2025-07-19T21:44	10	0	0.1	0	0	397	0.2	396	397	18.2	95.6
2025-07-19T21:45	10	0	0.1	0	0	397	0.2	396	397	18.2	95.3
2025-07-19T21:46	10	0	0.1	0	0	397	0.2	396	397	18.2	95.3
2025-07-19T21:47	10	0	0.1	0	0	396	0.2	396	397	18.2	95.3
2025-07-19T21:48	10	0	0.1	0	1	396	0.2	396	397	18.2	95.3
2025-07-19T21:49	10	0	0.1	0	1	396	0.2	396	397	18.2	95.3
2025-07-19T21:50	10	0	0.2	0	1	397	0.2	396	397	18.2	95.3
2025-07-19T21:51	10	0	0.1	0	1	397	0.3	396	398	18.1	95.4
2025-07-19T21:52	10	0	0.2	0	1	397	0.3	397	398	18.2	95.4
2025-07-19T21:53	10	0	0.1	0	1	398	0.2	397	398	18.2	95.4
2025-07-19T21:54	10	0	0.1	0	1	398	0.3	397	399	18.1	95.6
2025-07-19T21:55	10	0	0.1	0	0	398	0.3	398	399	18.1	95.7
2025-07-19T21:56	10	0	0.2	0	1	399	0.3	398	399	18.1	95.7
2025-07-19T21:57	10	0	0.2	0	1	399	0.3	398	399	18.1	95.7
2025-07-19T21:58	10	0	0.2	0	1	399	0.3	399	400	18.1	95.6
2025-07-19T21:59	10	0	0.2	0	1	399	0.2	398	400	18.1	95.7
2025-07-19T22:00	10	0	0.2	0	0	399	0.2	399	400	18.1	95.6
2025-07-19T22:01	10	0	0.2	0	1	400	0.3	399	401	18.1	95.7
2025-07-19T22:02	10	0	0.2	0	1	400	0.2	399	400	18.2	95.6
2025-07-19T22:03	10	0	0.2	0	1	399	0.3	399	400	18.2	95.6
2025-07-19T22:04	10	0	0.2	0	1	399	0.2	399	400	18.1	92.4
2025-07-19T22:05	10	0	0.2	0	1	399	0.2	399	400	18.2	95.6
2025-07-19T22:06	10	0	0.1	0	0	400	0.3	399	400	18.2	91.3
2025-07-19T22:07	10	0	0.1	0	0	400	0.2	399	400	18.2	95.6
2025-07-19T22:08	10	0	0.1	0	0	400	0.3	400	401	18.2	95.6
2025-07-19T22:09	10	0	0.2	0	1	400	0.2	400	401	18.2	95.6
2025-07-19T22:10	10	0	0.1	0	0	400	0.2	400	401	18.2	95.0
2025-07-19T22:11	10	0	0.1	0	1	401	0.2	400	401	18.2	94.4
2025-07-19T22:12	10	0	0.1	0	1	401	0.2	400	401	18.2	94.8
2025-07-19T22:13	10	0	0.1	0	0	401	0.2	400	401	18.3	94.7
2025-07-19T22:14	10	0	0.1	0	0	401	0.2	400	401	18.3	94.5
2025-07-19T22:15	10	0	0.2	0	1	401	0.2	400	402	18.3	94.5
2025-07-19T22:16	10	0	0.1	0	0	401	0.3	400	401	18.4	94.2
2025-07-19T22:17	10	0	0.1	0	1	401	0.2	400	401	18.3	94.6
2025-07-19T22:18	10	0	0.1	0	0	401	0.5	400	401	18.3	94.8
2025-07-19T22:19	10	0	0.2	0	1	400	0.2	400	401	18.1	95.4
2025-07-19T22:20	10	0	0.1	0	1	400	0.4	399	401	18.0	96.0
2025-07-19T22:21	10	0	0.2	0	1	400	0.3	399	401	17.9	96.1
2025-07-19T22:22	10	0	0.1	0	1	400	0.2	399	400	18.0	96.3
2025-07-19T22:23	10	0	0.1	0	0	399	0.2	399	400	17.9	96.4
2025-07-19T22:24	10	0	0.1	0	1	399	0.2	398	399	17.9	96.4
2025-07-19T22:25	10	0	0.1	0	0	398	0.3	397	399	17.8	96.4
2025-07-19T22:26	10	0	0.1	0	1	398	0.2	397	398	17.9	96.5
2025-07-19T22:27	10	0	0.2	0	1	397	0.3	396	398	17.9	96.5
2025-07-19T22:28	10	0	0.1	0	1	396	0.3	396	397	17.9	96.3
2025-07-19T22:29	10	0	0.1	0	0	396	0.2	395	396	17.9	96.1
2025-07-19T22:30	10	0	0.1	0	0	395	0.3	394	396	17.9	96.1
2025-07-19T22:31	10	0	0.1	0	0	395	0.2	394	395	17.9	95.9
2025-07-19T22:32	10	0	0.1	0	0	394	0.3	393	395	17.9	95.9
2025-07-19T22:33	10	0	0.0	0	0	394	0.2	393	394	17.9	96.1
2025-07-19T22:34	10	0	0.1	0	1	394	0.2	394	394	17.9	96.2
2025-07-19T22:35	10	0	0.1	0	0	394	0.3	394	395	17.9	96.2
2025-07-19T22:36	10	0	0.1	0	0	395	0.2	394	395	17.9	95.8
2025-07-19T22:37	10	0	0.1	0	0	395	0.2	394	395	17.9	95.6
2025-07-19T22:38	10	0	0.1	0	1	394	0.2	394	395	17.9	95.6
2025-07-19T22:39	10	0	0.1	0	0	394	0.2	393	394	17.8	95.9
2025-07-19T22:40	10	0	0.1	0	0	393	0.3	393	394	17.7	96.3
2025-07-19T22:41	10	0	0.0	0	0	393	0.3	392	393	17.7	96.6
2025-07-19T22:42	10	0	0.0	0	0	393	0.2	392	393	17.7	96.8
2025-07-19T22:43	10	0	0.1	0	0	392	0.2	392	393	17.6	96.7
2025-07-19T22:44	10	0	0.1	0	0	392	0.2	392	392	17.6	96.8
2025-07-19T22:45	10	0	0.0	0	0	392	0.2	392	392	17.6	96.9
2025-07-19T22:46	10	0	0.0	0	0	392	0.3	391	393	17.6	97.0
2025-07-19T22:47	10	0	0.0	0	0	392	0.2	392	393	17.6	96.9
2025-07-19T22:48	10	0	0.1	0	0	393	0.2	392	393	17.6	96.7
2025-07-19T22:49	10	0	0.1	0	0	393	0.2	392	393	17.7	96.6
2025-07-19T22:50	10	0	0.1	0	0	393	0.2	392	393	17.7	96.5
2025-07-19T22:51	10	0	0.1	0	0	393	0.3	392	393	17.8	96.4
2025-07-19T22:52	10	0	0.1	0	0	393	0.3	392	393	17.7	96.4
2025-07-19T22:53	10	0	0.1	0	0	393	0.2	392	393	17.6	96.4
2025-07-19T22:54	10	0	0.1	0	0	393	0.2	392	393	17.5	96.5
2025-07-19T22:55	10	0	0.1	0	0	393	0.2	393	394	17.5	96.7
2025-07-19T22:56	10	0	0.1	0	0	393	0.3	393	394	17.5	97.0
2025-07-19T22:57	10	0	0.1	0	0	393	0.2	393	394	17.5	97.0
2025-07-19T22:58	10	0	0.1	0	0	394	0.3	393	395	17.6	97.1
2025-07-19T22:59	10	0	0.1	0	0	394	0.3	393	395	17.5	97.3
2025-07-19T23:00	10	0	0.1	0	0	394	0.2	394	395	17.5	97.3
2025-07-19T23:01	10	0	0.1	0	0	394	0.2	394	395	17.5	97.3
2025-07-19T23:02	10	0	0.1	0	0	394	0.2	394	395	17.4	97.2
2025-07-19T23:03	10	0	0.1	0	0	394	0.2	394	395	17.4	97.3
2025-07-19T23:04	10	0	0.1	0	0	395	0.2	394	395	17.4	97.4
2025-07-19T23:05	10	0	0.1	0	0	395	0.2	394	395	17.5	97.6
2025-07-19T23:06	10	0	0.1	0	0	395	0.2	394	395	17.5	97.5
2025-07-19T23:07	10	0	0.1	0	0	395	0.2	395	396	17.5	97.5
2025-07-19T23:08	10	0	0.1	0	0	395	0.2	395	396	17.5	97.7
2025-07-19T23:09	10	0	0.1	0	0	396	0.2	395	396	17.5	97.6
2025-07-19T23:10	10	0	0.1	0	0	395	0.2	395	396	17.6	97.7
2025-07-19T23:11	10	0	0.1	0	0	395	0.2	395	396	17.6	97.8
2025-07-19T23:12	10	0	0.1	0	0	395	0.2	395	396	17.6	97.9
2025-07-19T23:13	10	0	0.1	0	0	395	0.2	395	396	17.5	97.8
2025-07-19T23:14	10	0	0.1	0	0	396	0.2	395	396	17.5	97.6
2025-07-19T23:15	10	0	0.1	0	0	396	0.2	395	396	17.5	97.5
2025-07-19T23:16	10	0	0.1	0	0	396	0.3	396	397	17.5	97.4
2025-07-19T23:17	10	0	0.1	0	0	396	0.2	396	397	17.5	97.3
2025-07-19T23:18	10	0	0.1	0	0	396	0.2	396	397	17.6	97.2
2025-07-19T23:19	10	0	0.1	0	0	397	0.2	396	397	17.6	97.2
2025-07-19T23:20	10	0	0.1	0	0	397	0.2	396	397	17.6	97.1
2025-07-19T23:21	10	0	0.1	0	0	397	0.2	397	398	17.6	97.1
2025-07-19T23:22	10	0	0.1	0	0	398	0.3	397	398	17.6	97.0
2025-07-19T23:23	10	0	0.1	0	0	398	0.3	397	399	17.5	97.1
2025-07-19T23:24	10	0	0.1	0	0	398	0.2	398	399	17.5	97.1
2025-07-19T23:25	10	0	0.1	0	0	399	0.3	398	399	17.5	97.1
2025-07-19T23:26	10	0	0.1	0	0	399	0.3	398	399	17.5	97.1
2025-07-19T23:27	10	0	0.1	0	0	399	0.2	399	399	17.5	97.2
2025-07-19T23:28	10	0	0.1	0	0	399	0.2	399	400	17.5	97.2
2025-07-19T23:29	10	0	0.1	0	0	399	0.2	399	399	17.5	97.1
2025-07-19T23:30	10	0	0.1	0	0	399	0.2	399	400	17.5	97.0
2025-07-19T23:31	10	0	0.1	0	0	399	0.2	398	399	17.5	96.9
2025-07-19T23:32	10	0	0.1	0	0	399	0.2	399	400	17.5	97.0
2025-07-19T23:33	10	0	0.1	0	0	399	0.2	398	399	17.5	97.1
2025-07-19T23:34	10	0	0.1	0	0	399	0.2	398	399	17.5	97.2
2025-07-19T23:35	10	0	0.1	0	0	399	0.2	398	399	17.5	97.3
2025-07-19T23:36	10	0	0.1	0	0	399	0.2	398	399	17.5	97.2
2025-07-19T23:37	10	0	0.1	0	0	399	0.2	398	399	17.5	97.4
2025-07-19T23:38	10	0	0.1	0	0	398	0.2	398	399	17.5	97.4
2025-07-19T23:39	10	0	0.1	0	0	398	0.3	397	398	17.5	97.4
2025-07-19T23:40	10	0	0.1	0	0	398	0.2	398	399	17.5	97.4
2025-07-19T23:41	10	0	0.1	0	0	398	0.2	397	398	17.5	97.6
2025-07-19T23:42	10	0	0.1	0	0	398	0.2	397	398	17.4	97.6
2025-07-19T23:43	10	0	0.1	0	0	398	0.2	397	398	17.4	97.7
2025-07-19T23:44	10	0	0.1	0	0	397	0.3	397	398	17.5	97.8
2025-07-19T23:45	10	0	0.1	0	0	397	0.3	397	398	17.4	97.8
2025-07-19T23:46	10	0	0.1	0	0	397	0.2	397	398	17.4	97.6
2025-07-19T23:47	10	0	0.1	0	0	397	0.2	397	398	17.4	97.6
2025-07-19T23:48	10	0	0.1	0	0	397	0.2	397	397	17.4	97.5
2025-07-19T23:49	10	0	0.1	0	0	397	0.2	396	397	17.4	97.3
2025-07-19T23:50	10	0	0.1	0	0	397	0.3	396	397	17.5	97.3
2025-07-19T23:51	10	0	0.1	0	0	397	0.2	396	397	17.5	97.3
2025-07-19T23:52	10	0	0.1	0	0	396	0.2	396	397	17.5	97.2
2025-07-19T23:53	10	0	0.1	0	0	396	0.2	395	396	17.5	96.9
2025-07-19T23:54	10	0	0.1	0	0	396	0.2	396	397	17.5	96.8
2025-07-19T23:55	10	0	0.1	0	0	396	0.3	395	397	17.5	96.8
2025-07-19T23:56	10	0	0.1	0	0	396	0.2	395	396	17.5	96.8
2025-07-19T23:57	10	0	0.1	0	0	396	0.2	395	396	17.5	96.7
2025-07-19T23:58	10	0	0.1	0	0	396	0.2	395	397	17.6	96.6
2025-07-19T23:59	10	0	0.1	0	0	396	0.2	396	397	17.6	96.6
2025-07-20T00:00	10	0	0.1	0	0	396	0.3	395	397	17.6	96.5
2025-07-20T00:01	10	0	0.1	0	0	396	0.2	396	397	17.6	96.4
2025-07-20T00:02	10	0	0.1	0	0	396	0.2	396	397	17.6	96.3
2025-07-20T00:03	10	0	0.1	0	0	397	0.2	396	397	17.6	96.3
2025-07-20T00:04	10	0	0.1	0	0	397	0.2	396	397	17.6	96.4
2025-07-20T00:05	10	0	0.1	0	0	397	0.3	397	398	17.6	96.4
2025-07-20T00:06	10	0	0.1	0	0	398	0.4	397	398	17.6	96.4
2025-07-20T00:07	10	0	0.1	0	0	398	0.3	397	398	17.6	96.3
2025-07-20T00:08	10	0	0.1	0	0	398	0.2	398	399	17.6	96.3
2025-07-20T00:09	10	0	0.1	0	0	398	0.2	398	399	17.6	96.3
2025-07-20T00:10	10	0	0.1	0	0	398	0.3	398	399	17.6	96.2
2025-07-20T00:11	10	0	0.1	0	0	398	0.2	398	399	17.6	96.2
2025-07-20T00:12	10	0	0.1	0	0	398	0.2	398	399	17.5	96.2
2025-07-20T00:13	10	0	0.1	0	0	398	0.2	398	399	17.5	96.2
2025-07-20T00:14	10	0	0.1	0	0	398	0.2	398	399	17.4	96.4
2025-07-20T00:15	10	0	0.1	0	0	398	0.2	397	398	17.3	96.7
2025-07-20T00:16	10	0	0.1	0	0	398	0.2	398	399	17.3	96.9
2025-07-20T00:17	10	0	0.1	0	0	398	0.3	397	398	17.3	97.1
2025-07-20T00:18	10	0	0.1	0	0	397	0.2	397	398	17.2	97.3
2025-07-20T00:19	10	0	0.1	0	0	398	0.3	397	398	17.2	97.4
2025-07-20T00:20	10	0	0.1	0	0	397	0.2	397	398	17.3	97.4
2025-07-20T00:21	10	0	0.1	0	0	397	0.2	397	398	17.3	97.4
2025-07-20T00:22	10	0	0.1	0	0	397	0.2	397	398	17.3	97.4
2025-07-20T00:23	10	0	0.1	0	0	397	0.2	396	397	17.3	97.3
2025-07-20T00:24	10	0	0.1	0	0	397	0.2	396	397	17.4	97.4
2025-07-20T00:25	10	0	0.1	0	0	397	0.2	396	397	17.4	97.4
2025-07-20T00:26	10	0	0.1	0	0	396	0.3	396	397	17.4	97.4
2025-07-20T00:27	10	0	0.1	0	0	396	0.3	396	397	17.4	97.5
2025-07-20T00:28	10	0	0.1	0	0	396	0.2	395	396	17.5	97.4
2025-07-20T00:29	10	0	0.1	0	0	396	0.2	395	396	17.5	97.5
2025-07-20T00:30	10	0	0.1	0	0	396	0.2	395	396	17.5	97.2
2025-07-20T00:31	10	0	0.1	0	0	395	0.3	394	396	17.5	96.9
2025-07-20T00:32	10	0	0.1	0	0	395	0.2	394	395	17.5	96.6
2025-07-20T00:33	10	0	0.1	0	0	395	0.2	394	395	17.5	96.5
2025-07-20T00:34	10	0	0.1	0	0	395	0.2	394	395	17.6	96.3
2025-07-20T00:35	10	0	0.1	0	0	394	0.2	394	395	17.6	96.3
2025-07-20T00:36	10	0	0.1	0	0	394	0.2	394	395	17.6	96.3
2025-07-20T00:37	10	0	0.1	0	0	394	0.4	393	395	17.5	96.3
2025-07-20T00:38	10	0	0.1	0	0	394	0.3	393	394	17.5	96.2
2025-07-20T00:39	10	0	0.1	0	0	394	0.3	393	394	17.5	96.0
2025-07-20T00:40	10	0	0.1	0	0	394	0.3	393	394	17.4	96.2
2025-07-20T00:41	10	0	0.1	0	0	394	0.2	394	395	17.4	96.4
2025-07-20T00:42	10	0	0.1	0	0	395	0.2	394	395	17.4	96.5
2025-07-20T00:43	10	0	0.1	0	0	395	0.3	394	395	17.4	96.5
2025-07-20T00:44	10	0	0.1	0	0	395	0.3	394	396	17.4	96.7
2025-07-20T00:45	10	0	0.1	0	0	395	0.3	395	396	17.4	96.8
2025-07-20T00:46	10	0	0.1	0	0	395	0.3	394	395	17.4	96.7
2025-07-20T00:47	10	0	0.1	0	0	395	0.3	394	395	17.4	96.8
2025-07-20T00:48	10	0	0.1	0	0	395	0.2	394	395	17.3	96.8
2025-07-20T00:49	10	0	0.1	0	0	395	0.2	394	395	17.3	97.0
2025-07-20T00:50	10	0	0.1	0	0	395	0.2	394	395	17.2	97.3
2025-07-20T00:51	10	0	0.1	0	0	395	0.2	394	395	17.1	97.5
2025-07-20T00:52	10	0	0.1	0	0	395	0.2	394	395	17.1	97.7
2025-07-20T00:53	10	0	0.1	0	0	395	0.2	394	395	17.0	97.9
2025-07-20T00:54	10	0	0.1	0	0	395	0.2	394	395	17.0	98.0
2025-07-20T00:55	10	0	0.1	0	0	395	0.2	394	395	17.0	98.0
2025-07-20T00:56	10	0	0.1	0	0	394	0.2	394	395	17.0	97.9
2025-07-20T00:57	10	0	0.1	0	0	394	0.2	394	395	17.0	98.0
2025-07-20T00:58	10	0	0.1	0	0	394	0.2	394	395	17.0	98.0
2025-07-20T00:59	10	0	0.1	0	0	394	0.3	393	395	17.0	98.3
2025-07-20T01:00	10	0	0.1	0	0	394	0.3	393	394	16.9	98.5
2025-07-20T01:01	10	0	0.1	0	0	394	0.3	393	395	16.9	98.4
2025-07-20T01:02	10	0	0.1	0	0	394	0.3	394	395	17.0	98.2
2025-07-20T01:03	10	0	0.1	0	0	394	0.2	394	394	16.9	98.1
2025-07-20T01:04	10	0	0.1	0	0	394	0.3	394	395	17.0	98.1
2025-07-20T01:05	10	0	0.1	0	0	395	0.2	394	395	17.0	98.1
2025-07-20T01:06	10	0	0.1	0	0	394	0.2	394	395	17.0	98.1
2025-07-20T01:07	10	0	0.1	0	0	394	0.2	394	395	17.0	98.0
2025-07-20T01:08	10	0	0.1	0	0	395	0.2	394	395	17.0	97.9
2025-07-20T01:09	10	0	0.1	0	0	394	0.2	394	395	17.0	97.8
2025-07-20T01:10	10	0	0.1	0	0	394	0.2	394	395	17.0	97.7
2025-07-20T01:11	10	0	0.1	0	0	394	0.2	394	395	17.0	97.7
2025-07-20T01:12	10	0	0.1	0	0	394	0.3	393	394	17.0	97.6
2025-07-20T01:13	10	0	0.1	0	0	394	0.2	393	395	17.0	97.7
2025-07-20T01:14	10	0	0.1	0	0	394	0.2	393	394	17.0	97.7
2025-07-20T01:15	10	0	0.1	0	0	394	0.2	393	394	17.0	97.8
2025-07-20T01:16	10	0	0.1	0	0	393	0.2	393	394	17.0	97.8
2025-07-20T01:17	10	0	0.1	0	0	393	0.2	392	393	17.0	97.9
2025-07-20T01:18	10	0	0.1	0	0	393	0.3	392	393	17.0	97.9
2025-07-20T01:19	10	0	0.1	0	0	392	0.3	392	393	17.0	97.9
2025-07-20T01:20	10	0	0.1	0	0	391	0.3	391	392	17.0	97.9
2025-07-20T01:21	10	0	0.1	0	0	391	0.2	391	392	17.0	97.8
2025-07-20T01:22	10	0	0.1	0	0	391	0.2	390	391	17.0	97.8
2025-07-20T01:23	10	0	0.1	0	0	391	0.2	390	391	17.0	97.8
2025-07-20T01:24	10	0	0.1	0	0	390	0.2	390	391	16.9	97.8
2025-07-20T01:25	10	0	0.1	0	0	391	0.2	390	391	16.9	97.8
2025-07-20T01:26	10	0	0.1	0	0	390	0.2	390	391	16.9	97.9
2025-07-20T01:27	10	0	0.1	0	0	390	0.2	390	391	17.0	97.8
2025-07-20T01:28	10	0	0.1	0	0	390	0.3	389	391	17.0	97.7
2025-07-20T01:29	10	0	0.1	0	0	390	0.2	389	390	17.0	97.7
2025-07-20T01:30	10	0	0.1	0	0	390	0.3	389	390	17.0	97.7
2025-07-20T01:31	10	0	0.1	0	0	390	0.2	389	390	17.0	97.7
2025-07-20T01:32	10	0	0.1	0	0	390	0.2	389	390	17.0	97.6
2025-07-20T01:33	10	0	0.1	0	0	391	0.4	390	391	17.0	97.5
2025-07-20T01:34	10	0	0.1	0	0	391	0.2	390	391	17.0	97.5
2025-07-20T01:35	10	0	0.1	0	0	391	0.2	391	392	17.0	97.4
2025-07-20T01:36	10	0	0.1	0	0	392	0.3	392	393	17.1	97.3
2025-07-20T01:37	10	0	0.1	0	0	392	0.2	392	393	17.1	97.1
2025-07-20T01:38	10	0	0.1	0	0	393	0.3	392	394	17.1	96.7
2025-07-20T01:39	10	0	0.1	0	0	393	0.3	393	394	17.1	96.3
2025-07-20T01:40	10	0	0.1	0	0	393	0.2	393	394	17.2	96.0
2025-07-20T01:41	10	0	0.1	0	0	394	0.2	393	394	17.2	95.7
2025-07-20T01:42	10	0	0.1	0	0	394	0.2	393	394	17.2	95.6
2025-07-20T01:43	10	0	0.1	0	0	394	0.3	394	394	17.1	95.7
2025-07-20T01:44	10	0	0.1	0	0	394	0.2	393	394	17.1	95.9
2025-07-20T01:45	10	0	0.1	0	0	394	0.2	393	394	17.0	96.1
2025-07-20T01:46	10	0	0.1	0	0	394	0.2	393	394	17.0	96.2
2025-07-20T01:47	10	0	0.1	0	0	394	0.3	393	394	17.0	96.3
2025-07-20T01:48	10	0	0.1	0	0	393	0.3	392	394	17.0	96.6
2025-07-20T01:49	10	0	0.1	0	0	392	0.3	392	393	16.9	96.7
2025-07-20T01:50	10	0	0.1	0	0	392	0.4	391	392	16.9	96.8
2025-07-20T01:51	10	0	0.1	0	0	391	0.3	390	392	16.8	97.0
2025-07-20T01:52	10	0	0.1	0	0	390	0.2	390	391	16.7	97.3
2025-07-20T01:53	10	0	0.1	0	0	390	0.2	390	391	16.7	97.6
2025-07-20T01:54	10	0	0.1	0	0	390	0.2	389	390	16.7	97.7
2025-07-20T01:55	10	0	0.1	0	0	390	0.3	389	391	16.7	97.9
2025-07-20T01:56	10	0	0.0	0	0	389	0.2	389	390	16.7	97.9
2025-07-20T01:57	10	0	0.1	0	0	389	0.3	388	390	16.7	97.9
2025-07-20T01:58	10	0	0.1	0	0	389	0.2	388	389	16.7	97.8
2025-07-20T01:59	10	0	0.0	0	0	388	0.2	388	389	16.7	98.0
2025-07-20T02:00	10	0	0.1	0	0	389	0.2	388	389	16.7	98.0
2025-07-20T02:01	10	0	0.1	0	0	389	0.4	388	390	16.7	98.0
2025-07-20T02:02	10	0	0.1	0	0	390	0.3	389	390	16.8	98.1
2025-07-20T02:03	10	0	0.1	0	0	391	0.3	390	391	16.7	98.2
2025-07-20T02:04	10	0	0.0	0	0	391	0.3	390	392	16.7	98.0
2025-07-20T02:05	10	0	0.1	0	0	391	0.2	391	392	16.6	97.9
2025-07-20T02:06	10	0	0.1	0	0	391	0.2	391	392	16.6	97.9
2025-07-20T02:07	10	0	0.1	0	0	391	0.2	391	392	16.6	98.0
2025-07-20T02:08	10	0	0.1	0	0	391	0.1	391	392	16.6	98.0
2025-07-20T02:09	10	0	0.1	0	0	391	0.2	391	392	16.6	98.1
2025-07-20T02:10	10	0	0.1	0	0	391	0.2	390	391	16.6	98.3
2025-07-20T02:11	10	0	0.1	0	0	391	0.2	390	391	16.6	98.3
2025-07-20T02:12	10	0	0.1	0	0	390	0.3	390	391	16.6	98.5
2025-07-20T02:13	10	0	0.1	0	0	390	0.2	390	391	16.6	98.6
2025-07-20T02:14	10	0	0.1	0	0	390	0.3	390	391	16.5	98.6
2025-07-20T02:15	10	0	0.1	0	0	390	0.2	390	391	16.5	98.7
2025-07-20T02:16	10	0	0.1	0	0	391	0.2	390	391	16.5	98.6
2025-07-20T02:17	10	0	0.1	0	0	390	0.3	390	391	16.5	98.7
2025-07-20T02:18	10	0	0.0	0	0	390	0.2	390	391	16.4	98.9
2025-07-20T02:19	10	0	0.1	0	0	390	0.2	390	391	16.3	98.7
2025-07-20T02:20	10	0	0.1	0	0	390	0.2	390	390	16.4	98.6
2025-07-20T02:21	10	0	0.1	0	0	390	0.2	390	391	16.5	98.8
2025-07-20T02:22	10	0	0.1	0	0	390	0.3	390	391	16.5	98.7
2025-07-20T02:23	10	0	0.1	0	0	390	0.2	389	390	16.5	98.8
2025-07-20T02:24	10	0	0.1	0	0	389	0.3	389	390	16.5	98.9
2025-07-20T02:25	10	0	0.1	0	0	389	0.3	388	390	16.6	98.9
2025-07-20T02:26	10	0	0.1	0	0	389	0.2	388	389	16.5	99.1
2025-07-20T02:27	10	0	0.1	0	0	389	0.3	388	389	16.5	99.0
2025-07-20T02:28	10	0	0.1	0	0	389	0.2	388	389	16.5	98.9
2025-07-20T02:29	10	0	0.1	0	0	389	0.2	389	390	16.6	98.6
2025-07-20T02:30	10	0	0.1	0	0	389	0.2	388	390	16.7	98.7
2025-07-20T02:31	10	0	0.1	0	0	389	0.2	388	389	16.7	98.8
2025-07-20T02:32	10	0	0.1	0	1	389	0.2	388	389	16.7	98.7
2025-07-20T02:33	10	0	0.1	0	0	389	0.2	388	389	16.6	98.7
2025-07-20T02:34	10	0	0.1	0	1	389	0.2	388	389	16.6	98.5
2025-07-20T02:35	10	0	0.1	0	0	389	0.2	388	389	16.6	98.4
2025-07-20T02:36	10	0	0.1	0	0	389	0.3	388	389	16.6	98.5
2025-07-20T02:37	10	0	0.1	0	0	389	0.2	388	389	16.6	98.4
2025-07-20T02:38	10	0	0.1	0	0	389	0.2	388	389	16.6	98.5
2025-07-20T02:39	10	0	0.1	0	1	388	0.3	388	389	16.6	98.6
2025-07-20T02:40	10	0	0.1	0	1	388	0.2	387	388	16.6	98.6
2025-07-20T02:41	10	0	0.1	0	0	387	0.2	387	388	16.7	98.4
2025-07-20T02:42	10	0	0.1	0	0	387	0.2	387	388	16.7	98.5
2025-07-20T02:43	10	0	0.1	0	0	387	0.2	386	387	16.7	98.4
2025-07-20T02:44	10	0	0.1	0	0	387	0.3	386	387	16.7	98.4
2025-07-20T02:45	10	0	0.1	0	0	386	0.3	386	387	16.6	98.4
2025-07-20T02:46	10	0	0.1	0	1	386	0.3	386	387	16.6	98.4
2025-07-20T02:47	10	0	0.1	0	0	386	0.3	385	386	16.6	98.4
2025-07-20T02:48	10	0	0.1	0	0	385	0.3	384	386	16.6	98.4
2025-07-20T02:49	10	0	0.1	0	0	385	0.2	385	386	16.6	98.4
2025-07-20T02:50	10	0	0.1	0	0	385	0.2	385	386	16.6	98.4
2025-07-20T02:51	10	0	0.2	0	0	385	0.3	384	386	16.6	98.3
2025-07-20T02:52	10	0	0.2	0	1	385	0.3	384	386	16.6	98.3
2025-07-20T02:53	10	0	0.1	0	0	385	0.2	384	385	16.6	98.4
2025-07-20T02:54	10	0	0.1	0	0	385	0.2	384	386	16.5	98.5
2025-07-20T02:55	10	0	0.1	0	0	385	0.2	384	385	16.5	98.6
2025-07-20T02:56	10	0	0.1	0	1	385	0.3	384	385	16.5	98.7
2025-07-20T02:57	10	0	0.1	0	0	385	0.2	384	385	16.4	98.7
2025-07-20T02:58	10	0	0.1	0	1	385	0.2	384	385	16.4	98.8
2025-07-20T02:59	10	0	0.2	0	1	385	0.2	384	385	16.4	98.8
2025-07-20T03:00	10	0	0.1	0	1	384	0.2	384	385	16.3	98.8
2025-07-20T03:01	10	0	0.1	0	0	384	0.3	384	385	16.3	98.8
2025-07-20T03:02	10	0	0.1	0	0	384	0.2	384	385	16.3	98.9
2025-07-20T03:03	10	0	0.1	0	0	384	0.3	383	384	16.2	99.0
2025-07-20T03:04	10	0	0.1	0	0	384	0.2	383	384	16.2	99.2
2025-07-20T03:05	10	0	0.1	0	1	383	0.2	383	384	16.2	99.0
2025-07-20T03:06	10	0	0.2	0	0	383	0.2	383	384	16.2	99.0
2025-07-20T03:07	10	0	0.1	0	0	383	0.2	383	384	16.2	99.0
2025-07-20T03:08	10	0	0.1	0	1	383	0.3	382	384	16.1	98.9
2025-07-20T03:09	10	0	0.1	0	0	383	0.2	382	383	16.1	98.9
2025-07-20T03:10	10	0	0.1	0	0	383	0.2	382	383	16.2	98.8
2025-07-20T03:11	10	0	0.1	0	0	383	0.2	382	384	16.2	98.8
2025-07-20T03:12	10	0	0.1	0	1	383	0.2	382	384	16.3	98.7
2025-07-20T03:13	10	0	0.2	0	0	383	0.3	382	384	16.3	98.5
2025-07-20T03:14	10	0	0.1	0	0	383	0.2	383	384	16.3	98.3
2025-07-20T03:15	10	0	0.2	0	1	384	0.4	383	384	16.3	97.9
2025-07-20T03:16	10	0	0.1	0	0	384	0.2	384	385	16.2	97.9
2025-07-20T03:17	10	0	0.1	0	0	385	0.4	384	385	16.2	97.9
2025-07-20T03:18	10	0	0.1	0	0	385	0.3	385	386	16.1	98.2
2025-07-20T03:19	10	0	0.1	0	0	385	0.3	385	386	16.1	98.4
2025-07-20T03:20	10	0	0.1	0	0	385	0.2	385	386	16.2	98.6
2025-07-20T03:21	10	0	0.2	0	1	385	0.2	384	386	16.2	98.8
2025-07-20T03:22	10	0	0.1	0	0	385	0.2	385	385	16.1	98.7
2025-07-20T03:23	10	0	0.1	0	0	385	0.3	384	385	16.1	98.7
2025-07-20T03:24	10	0	0.1	0	1	385	0.3	384	385	16.1	98.9
2025-07-20T03:25	10	0	0.1	0	0	385	0.2	384	385	16.1	98.9
2025-07-20T03:26	10	0	0.1	0	0	385	0.3	384	385	16.0	99.0
2025-07-20T03:27	10	0	0.1	0	0	385	0.2	384	386	16.0	99.1
2025-07-20T03:28	10	0	0.0	0	0	385	0.3	385	386	15.9	99.2
2025-07-20T03:29	10	0	0.1	0	0	386	0.4	385	386	15.9	99.1
2025-07-20T03:30	10	0	0.1	0	0	386	0.3	385	387	15.9	99.2
2025-07-20T03:31	10	0	0.1	0	0	387	0.3	386	388	16.0	99.1
2025-07-20T03:32	10	0	0.1	0	0	387	0.3	387	388	16.2	99.1
2025-07-20T03:33	10	0	0.1	0	0	387	0.3	387	388	16.1	99.3
2025-07-20T03:34	10	0	0.1	0	0	388	0.2	387	388	16.1	99.4
2025-07-20T03:35	10	0	0.1	0	0	388	0.3	387	388	16.1	99.2
2025-07-20T03:36	10	0	0.1	0	0	388	0.2	388	389	16.1	99.1
2025-07-20T03:37	10	0	0.1	0	0	388	0.2	388	389	16.1	99.1
2025-07-20T03:38	10	0	0.1	0	0	389	0.3	388	389	16.1	99.0
2025-07-20T03:39	10	0	0.1	0	1	389	0.2	388	389	16.1	99.0
2025-07-20T03:40	10	0	0.1	0	1	389	0.3	388	389	16.1	99.1
2025-07-20T03:41	10	0	0.1	0	0	389	0.3	388	389	16.0	99.2
2025-07-20T03:42	10	0	0.1	0	0	388	0.3	387	389	16.0	99.1
2025-07-20T03:43	10	0	0.1	0	0	388	0.2	388	389	16.0	99.1
2025-07-20T03:44	10	0	0.1	0	0	388	0.2	388	389	16.0	99.2
2025-07-20T03:45	10	0	0.1	0	0	388	0.2	388	389	16.0	99.2
2025-07-20T03:46	10	0	0.1	0	0	389	0.2	388	389	16.1	99.1
2025-07-20T03:47	10	0	0.1	0	0	389	0.2	388	389	16.0	99.2
2025-07-20T03:48	10	0	0.1	0	0	388	0.2	388	389	16.0	99.2
2025-07-20T03:49	10	0	0.1	0	0	388	0.2	388	389	16.0	99.4
2025-07-20T03:50	10	0	0.1	0	0	388	0.2	387	388	16.0	99.5
2025-07-20T03:51	10	0	0.1	0	0	388	0.2	387	388	16.0	99.3
2025-07-20T03:52	10	0	0.1	0	1	388	0.2	387	388	16.0	98.9
2025-07-20T03:53	10	0	0.1	0	1	388	0.3	388	389	16.0	98.7
2025-07-20T03:54	10	0	0.1	0	1	388	0.2	388	389	16.1	98.7
2025-07-20T03:55	10	0	0.1	0	1	388	0.3	388	389	16.1	98.8
2025-07-20T03:56	10	1	0.1	0	1	388	0.2	388	389	16.1	98.8
2025-07-20T03:57	10	1	0.1	0	1	388	0.3	387	389	16.1	98.8
2025-07-20T03:58	10	1	0.1	1	1	388	0.2	388	389	16.1	99.0
2025-07-20T03:59	10	1	0.1	1	1	388	0.3	388	389	16.1	99.0
2025-07-20T04:00	10	1	0.1	1	1	388	0.2	387	388	16.1	98.9
2025-07-20T04:01	10	1	0.1	1	1	388	0.2	387	388	16.1	98.9
2025-07-20T04:02	10	1	0.1	1	1	388	0.2	387	388	16.0	99.0
2025-07-20T04:03	10	1	0.1	1	1	388	0.2	387	389	16.1	99.0
2025-07-20T04:04	10	1	0.1	1	1	388	0.3	387	389	16.1	99.0
2025-07-20T04:05	10	1	0.1	1	1	388	0.2	388	389	16.1	99.0
2025-07-20T04:06	10	1	0.0	1	1	388	0.2	388	389	16.1	99.1
2025-07-20T04:07	10	1	0.1	1	1	389	0.2	388	389	16.1	99.4
2025-07-20T04:08	10	1	0.1	1	1	388	0.2	388	389	16.1	99.5
2025-07-20T04:09	10	1	0.1	1	1	388	0.2	388	389	16.0	99.0
2025-07-20T04:10	10	1	0.1	1	2	388	0.3	387	389	16.0	99.1
2025-07-20T04:11	10	1	0.1	1	2	388	0.2	388	389	16.0	99.3
2025-07-20T04:12	10	1	0.1	1	2	388	0.2	388	389	16.0	99.5
2025-07-20T04:13	10	2	0.1	1	2	388	0.3	388	389	16.1	99.1
2025-07-20T04:14	10	2	0.1	2	2	388	0.2	387	388	16.1	98.8
2025-07-20T04:15	10	2	0.1	2	2	387	0.2	387	388	16.1	98.7
2025-07-20T04:16	10	2	0.1	2	2	387	0.2	386	388	16.1	98.6
2025-07-20T04:17	10	2	0.1	2	2	387	0.2	387	387	16.1	98.6
2025-07-20T04:18	10	2	0.1	2	3	387	0.3	386	387	16.0	98.4
2025-07-20T04:19	10	3	0.1	2	3	386	0.2	386	387	16.1	98.4
2025-07-20T04:20	10	3	0.2	3	4	386	0.3	386	387	16.0	98.4
2025-07-20T04:21	10	4	0.2	3	4	386	0.2	386	386	16.0	98.4
2025-07-20T04:22	10	4	0.1	4	4	387	0.2	386	387	16.0	98.6
2025-07-20T04:23	10	5	0.2	4	5	386	0.2	386	387	16.0	98.6
2025-07-20T04:24	10	5	0.2	5	5	387	0.2	386	387	16.0	98.6
2025-07-20T04:25	10	6	0.2	5	6	387	0.2	386	387	16.0	98.7
2025-07-20T04:26	10	6	0.2	6	7	387	0.2	386	387	16.0	98.7
2025-07-20T04:27	10	7	0.2	6	7	387	0.3	386	387	16.0	98.9
2025-07-20T04:28	10	7	0.1	7	7	387	0.2	386	387	16.0	99.2
2025-07-20T04:29	10	7	0.2	6	7	387	0.2	386	387	16.0	99.2
2025-07-20T04:30	10	6	0.1	6	7	387	0.2	386	387	16.0	99.1
2025-07-20T04:31	10	7	0.1	6	7	387	0.2	386	387	16.0	99.4
2025-07-20T04:32	10	7	0.1	7	7	387	0.2	386	387	16.0	99.2
2025-07-20T04:33	10	7	0.1	6	7	387	0.2	386	388	16.0	98.1
2025-07-20T04:34	10	7	0.1	6	7	387	0.2	387	388	16.0	97.9
2025-07-20T04:35	10	7	0.1	6	7	387	0.2	387	388	16.1	98.0
2025-07-20T04:36	10	7	0.1	7	7	388	0.2	387	388	16.1	98.1
2025-07-20T04:37	10	7	0.1	7	7	388	0.3	387	388	16.1	98.2
2025-07-20T04:38	10	8	0.6	7	9	388	0.2	387	388	16.1	98.1
2025-07-20T04:39	10	10	0.2	9	10	388	0.2	388	389	16.1	98.1
2025-07-20T04:40	10	9	0.4	8	10	389	0.2	388	389	16.0	98.1
2025-07-20T04:41	10	8	0.1	8	9	389	0.2	388	389	16.0	98.2
2025-07-20T04:42	10	8	0.2	8	9	389	0.2	389	390	16.0	98.2
2025-07-20T04:43	10	9	0.2	8	9	390	0.2	389	390	16.0	98.2
2025-07-20T04:44	10	10	0.2	9	10	390	0.2	389	390	16.0	98.3
2025-07-20T04:45	10	10	0.2	10	10	390	0.3	389	391	16.0	98.4
2025-07-20T04:46	10	10	0.1	10	11	391	0.3	390	391	16.1	98.4
2025-07-20T04:47	10	11	0.2	10	11	391	0.2	390	391	16.1	98.5
2025-07-20T04:48	10	12	0.3	11	12	391	0.2	391	392	16.1	98.3
2025-07-20T04:49	10	13	0.5	12	14	392	0.3	391	392	16.1	97.9
2025-07-20T04:50	10	15	1.0	14	17	392	0.4	391	393	16.1	97.9
2025-07-20T04:51	10	19	1.0	17	20	393	0.4	392	394	16.2	97.9
2025-07-20T04:52	10	21	0.6	20	22	394	0.5	393	395	16.3	97.9
2025-07-20T04:53	10	23	0.4	22	23	395	0.4	394	396	16.3	97.8
2025-07-20T04:54	10	23	0.4	22	24	395	0.3	395	396	16.4	97.6
2025-07-20T04:55	10	21	0.7	20	22	396	0.2	395	396	16.4	97.6
2025-07-20T04:56	10	22	1.4	20	24	397	0.2	396	397	16.5	97.5
2025-07-20T04:57	10	24	0.2	24	25	397	0.2	396	397	16.5	97.5
2025-07-20T04:58	10	24	0.1	24	24	398	0.2	397	398	16.5	97.4
2025-07-20T04:59	10	23	0.4	22	24	398	0.2	397	398	16.5	97.2
2025-07-20T05:00	10	22	0.4	21	23	398	0.2	397	398	16.6	97.0
2025-07-20T05:01	10	21	0.1	21	21	398	0.2	398	399	16.6	96.9
2025-07-20T05:02	10	21	0.2	21	21	398	0.2	398	399	16.6	96.8
2025-07-20T05:03	10	22	0.5	21	22	399	0.2	398	399	16.6	96.9
2025-07-20T05:04	10	22	0.3	22	23	398	0.2	398	399	16.6	97.1
2025-07-20T05:05	10	22	0.5	21	23	399	0.2	399	399	16.6	97.0
2025-07-20T05:06	10	27	2.2	23	30	399	0.4	399	400	16.7	96.9
2025-07-20T05:07	10	30	0.3	29	31	401	0.2	400	401	16.8	96.9
2025-07-20T05:08	10	29	0.5	28	29	401	0.2	401	401	16.8	96.5
2025-07-20T05:09	10	28	0.4	27	28	401	0.3	401	402	16.8	96.3
2025-07-20T05:10	10	25	0.7	24	27	401	0.2	401	402	16.8	95.8
2025-07-20T05:11	10	24	0.5	22	24	402	0.2	401	402	16.8	95.8
2025-07-20T05:12	10	21	0.7	20	22	402	0.3	401	402	16.8	95.9
2025-07-20T05:13	10	20	0.4	19	20	401	0.4	401	402	16.9	95.9
2025-07-20T05:14	10	18	0.3	18	19	401	0.3	400	402	16.8	95.5
2025-07-20T05:15	10	18	0.3	17	18	400	0.3	400	401	16.8	95.1
2025-07-20T05:16	10	17	0.4	16	18	399	0.5	399	400	16.8	94.9
2025-07-20T05:17	10	17	0.2	16	17	399	0.2	399	400	16.8	95.2
2025-07-20T05:18	10	17	0.2	17	17	399	0.3	399	400	16.8	95.7
2025-07-20T05:19	10	16	0.5	15	17	399	0.2	398	399	16.8	95.7
2025-07-20T05:20	10	15	0.3	15	16	398	0.3	398	399	16.7	95.8
2025-07-20T05:21	10	15	0.2	14	15	398	0.3	397	399	16.6	95.8
2025-07-20T05:22	10	15	0.1	14	15	398	0.3	397	398	16.6	95.9
2025-07-20T05:23	10	15	0.2	14	15	397	0.2	397	398	16.5	95.9
2025-07-20T05:24	10	15	0.2	15	16	397	0.2	397	398	16.5	95.9
2025-07-20T05:25	10	16	0.4	15	17	397	0.2	397	398	16.5	95.8
2025-07-20T05:26	10	17	0.3	16	18	397	0.3	397	398	16.5	95.8
2025-07-20T05:27	10	18	0.2	17	18	398	0.3	397	399	16.5	95.8
2025-07-20T05:28	10	18	0.2	18	18	398	0.4	397	399	16.5	95.8
2025-07-20T05:29	10	18	0.2	18	19	399	0.2	398	399	16.5	96.1
2025-07-20T05:30	10	19	0.3	19	20	399	0.2	398	399	16.5	96.0
2025-07-20T05:31	10	20	0.3	20	21	399	0.2	399	400	16.5	96.0
2025-07-20T05:32	10	21	0.4	21	22	400	0.3	399	401	16.6	96.2
2025-07-20T05:33	10	23	0.7	22	25	401	0.3	400	401	16.6	96.1
2025-07-20T05:34	10	25	0.6	25	26	401	0.2	400	401	16.5	96.0
2025-07-20T05:35	10	27	0.7	26	29	401	0.3	401	402	16.5	95.9
2025-07-20T05:36	10	30	1.0	29	33	402	0.2	401	402	16.6	95.9
2025-07-20T05:37	10	35	1.0	33	36	402	0.4	401	403	16.6	95.9
2025-07-20T05:38	10	37	0.4	36	37	403	0.2	402	403	16.6	95.9
2025-07-20T05:39	10	36	0.5	36	37	403	0.3	402	403	16.7	95.7
2025-07-20T05:40	10	39	2.3	36	42	403	0.3	402	404	16.8	96.0
2025-07-20T05:41	10	41	1.0	39	43	404	0.2	403	404	16.8	96.2
2025-07-20T05:42	10	37	1.2	34	39	403	0.2	403	404	16.8	96.1
2025-07-20T05:43	10	32	0.7	31	34	403	0.2	403	404	16.8	96.1
2025-07-20T05:44	10	29	1.4	27	31	404	0.2	403	404	16.9	96.1
2025-07-20T05:45	10	27	0.2	26	27	403	0.3	403	404	17.0	96.3
2025-07-20T05:46	10	27	0.1	27	27	403	0.2	403	404	16.9	96.0
2025-07-20T05:47	10	27	0.1	27	27	404	0.3	403	404	17.0	95.7
2025-07-20T05:48	10	26	0.2	26	27	404	0.2	404	405	17.1	95.7
2025-07-20T05:49	10	26	0.1	26	26	404	0.2	404	405	17.1	95.6
2025-07-20T05:50	10	27	0.4	26	27	404	0.2	404	404	17.1	95.2
2025-07-20T05:51	10	29	1.3	27	32	405	0.4	404	405	17.2	95.2
2025-07-20T05:52	10	33	0.4	32	33	405	0.3	405	406	17.3	95.0
2025-07-20T05:53	10	32	0.3	32	33	406	0.2	405	406	17.3	94.0
2025-07-20T05:54	10	32	0.2	31	32	406	0.3	405	406	17.3	93.7
2025-07-20T05:55	10	32	0.2	31	32	406	0.2	405	406	17.3	93.0
2025-07-20T05:56	10	32	0.2	32	33	406	0.2	405	406	17.4	92.7
2025-07-20T05:57	10	32	0.2	32	33	406	0.3	406	407	17.5	93.3
2025-07-20T05:58	10	33	0.5	32	33	406	0.2	406	407	17.5	93.0
2025-07-20T05:59	10	33	0.2	33	33	407	0.2	406	407	17.5	92.9
2025-07-20T06:00	10	34	0.3	33	34	407	0.2	406	407	17.5	92.7
2025-07-20T06:01	10	35	0.5	34	35	408	0.3	407	408	17.5	93.3
2025-07-20T06:02	10	33	0.8	32	34	407	0.2	407	408	17.5	93.3
2025-07-20T06:03	10	33	0.4	32	34	407	0.2	407	408	17.6	93.4
2025-07-20T06:04	10	34	0.3	34	35	408	0.3	407	408	17.6	92.7
2025-07-20T06:05	10	36	0.3	35	36	408	0.3	407	408	17.6	92.6
2025-07-20T06:06	10	35	0.1	35	35	408	0.3	407	408	17.7	92.6
2025-07-20T06:07	10	34	0.4	33	35	407	0.3	406	408	17.6	92.2
2025-07-20T06:08	10	35	0.5	34	36	407	0.2	407	408	17.6	92.7
2025-07-20T06:09	10	36	0.6	36	38	407	0.2	407	408	17.6	92.6
2025-07-20T06:10	10	41	0.8	39	42	408	0.3	408	409	17.6	92.3
2025-07-20T06:11	10	40	0.3	39	41	409	0.2	408	409	17.6	92.6
2025-07-20T06:12	10	41	0.7	40	42	409	0.3	408	409	17.7	92.8
2025-07-20T06:13	10	40	1.4	37	42	409	0.3	408	409	17.6	92.5
2025-07-20T06:14	10	38	1.0	37	40	408	0.2	408	409	17.7	92.5
2025-07-20T06:15	10	34	1.0	33	37	408	0.4	408	409	17.7	93.2
2025-07-20T06:16	10	34	0.6	33	34	409	0.2	408	409	17.7	93.1
2025-07-20T06:17	10	34	0.1	33	34	409	0.3	408	409	17.8	93.2
2025-07-20T06:18	10	35	1.9	33	38	409	0.3	409	410	17.8	93.9
2025-07-20T06:19	10	42	2.3	38	45	410	0.6	409	412	17.8	93.8
2025-07-20T06:20	10	49	1.8	45	51	412	0.5	411	413	17.8	93.6
2025-07-20T06:21	10	52	1.3	50	54	412	0.2	412	413	17.9	93.3
2025-07-20T06:22	10	42	2.9	38	50	413	0.4	412	413	17.8	92.7
2025-07-20T06:23	10	36	1.0	34	38	412	0.4	411	413	17.8	92.7
2025-07-20T06:24	10	38	0.7	36	39	411	0.3	410	412	17.7	92.6
2025-07-20T06:25	10	36	1.7	32	38	411	0.5	410	412	17.7	92.4
2025-07-20T06:26	10	30	1.3	28	32	410	0.5	409	410	17.7	92.0
2025-07-20T06:27	10	24	1.9	22	28	409	0.2	409	410	17.7	92.3
2025-07-20T06:28	10	25	0.4	24	25	409	0.2	409	410	17.8	92.8
2025-07-20T06:29	10	23	0.6	22	24	409	0.3	408	410	17.7	93.1
2025-07-20T06:30	10	22	0.3	21	23	409	0.3	408	409	17.6	93.1
2025-07-20T06:31	10	22	0.9	21	23	409	0.2	409	409	17.6	93.3
2025-07-20T06:32	10	23	0.2	23	24	410	0.3	409	410	17.7	93.3
2025-07-20T06:33	10	24	0.3	23	25	411	0.3	410	411	17.7	93.0
2025-07-20T06:34	10	23	0.5	23	24	410	0.2	410	411	17.8	93.0
2025-07-20T06:35	10	25	0.6	24	26	410	0.3	410	411	17.8	92.6
2025-07-20T06:36	10	26	0.3	26	27	411	0.3	410	411	17.8	92.5
2025-07-20T06:37	10	27	0.2	27	28	411	0.4	411	412	17.8	92.4
2025-07-20T06:38	10	27	0.3	26	27	412	0.2	412	413	17.9	92.6
2025-07-20T06:39	10	27	0.8	26	29	412	0.3	411	413	17.9	92.5
2025-07-20T06:40	10	29	0.8	29	31	412	0.3	412	413	17.8	92.3
2025-07-20T06:41	10	30	0.4	30	31	413	0.3	412	413	17.8	92.3
2025-07-20T06:42	10	30	0.6	29	30	413	0.3	412	413	17.9	92.5
2025-07-20T06:43	10	31	0.6	30	32	413	0.2	413	414	17.9	92.5
2025-07-20T06:44	10	33	0.5	31	33	414	0.2	413	414	18.0	92.3
2025-07-20T06:45	10	35	1.4	33	37	414	0.4	413	415	17.9	92.1
2025-07-20T06:46	10	37	0.3	37	38	415	0.2	414	415	18.0	92.2
2025-07-20T06:47	10	37	0.4	36	37	415	0.2	414	416	18.0	92.2
2025-07-20T06:48	10	37	0.6	36	38	415	0.3	414	416	18.1	91.9
2025-07-20T06:49	10	40	0.6	38	41	416	0.3	415	417	18.1	91.4
2025-07-20T06:50	10	41	0.6	40	42	417	0.3	416	417	18.2	91.4
2025-07-20T06:51	10	39	0.2	39	40	417	0.2	416	417	18.3	91.4
2025-07-20T06:52	10	40	0.8	39	43	417	0.5	416	418	18.4	91.8
2025-07-20T06:53	10	45	1.2	43	47	417	0.2	416	417	18.1	91.8
2025-07-20T06:54	10	46	0.2	46	47	417	0.2	417	418	18.0	91.9
2025-07-20T06:55	10	48	0.6	47	49	418	0.4	417	418	18.1	92.1
2025-07-20T06:56	10	44	2.0	41	47	418	0.3	418	419	18.2	92.0
2025-07-20T06:57	10	45	1.5	43	47	418	0.3	418	419	18.3	91.6
2025-07-20T06:58	10	47	0.1	47	47	419	0.2	418	419	18.3	92.0
2025-07-20T06:59	10	49	1.2	47	51	419	0.3	418	420	18.4	91.7
2025-07-20T07:00	10	52	0.5	51	53	420	0.2	420	421	18.5	92.0
2025-07-20T07:01	10	55	0.9	53	56	421	0.5	420	421	18.5	91.0
2025-07-20T07:02	10	57	0.4	56	57	422	0.4	421	422	18.6	90.8
2025-07-20T07:03	10	57	0.4	56	58	422	0.2	422	423	18.7	90.5
2025-07-20T07:04	10	59	0.6	58	60	423	0.3	422	424	18.8	91.0
2025-07-20T07:05	10	59	0.3	58	59	423	0.2	422	424	18.7	91.0
2025-07-20T07:06	10	58	0.8	57	60	423	0.3	422	423	18.7	90.3
2025-07-20T07:07	10	58	0.4	57	58	423	0.3	422	423	18.8	89.4
2025-07-20T07:08	10	60	2.0	57	63	423	0.3	422	424	18.9	88.7
2025-07-20T07:09	10	65	0.7	63	66	424	0.5	424	425	18.9	89.5
2025-07-20T07:10	10	63	1.0	62	65	425	0.3	425	426	18.9	90.4
2025-07-20T07:11	10	63	2.7	59	66	425	0.4	424	426	18.6	90.3
2025-07-20T07:12	10	65	1.8	60	66	424	0.1	424	425	18.5	90.7
2025-07-20T07:13	10	61	1.9	58	64	425	0.2	425	425	18.5	91.2
2025-07-20T07:14	10	53	2.7	49	57	424	0.5	423	425	18.6	91.0
2025-07-20T07:15	10	49	0.4	48	50	423	0.5	422	424	18.6	91.0
2025-07-20T07:16	10	50	1.2	48	52	422	0.3	422	423	18.6	90.4
2025-07-20T07:17	10	50	1.3	48	52	423	0.2	422	423	18.6	90.8
2025-07-20T07:18	10	55	2.4	52	59	423	0.2	423	424	18.6	90.8
2025-07-20T07:19	10	60	0.6	59	61	425	0.4	424	425	18.6	90.7
2025-07-20T07:20	10	60	1.2	56	61	425	0.2	425	426	18.7	90.6
2025-07-20T07:21	10	56	1.1	54	58	425	0.4	424	426	18.7	90.3
2025-07-20T07:22	10	61	1.6	58	63	424	0.3	424	425	18.7	90.1
2025-07-20T07:23	10	64	0.6	63	65	426	0.6	424	427	18.8	90.3
2025-07-20T07:24	10	65	0.6	64	65	427	0.4	426	427	18.9	90.4
2025-07-20T07:25	10	64	0.2	63	64	427	0.2	427	428	18.9	89.9
2025-07-20T07:26	10	65	1.0	63	66	428	0.2	427	428	19.0	89.4
2025-07-20T07:27	10	65	1.0	64	67	428	0.3	428	429	19.2	90.3
2025-07-20T07:28	10	82	14.1	66	109	429	0.8	428	431	19.3	90.2
2025-07-20T07:29	10	109	1.6	105	111	433	1.1	431	435	19.3	88.6
2025-07-20T07:30	10	86	9.8	73	104	433	1.9	430	436	19.2	87.7
2025-07-20T07:31	10	69	3.0	63	73	428	1.3	426	431	18.9	87.8
2025-07-20T07:32	10	60	1.2	58	63	427	0.4	426	428	18.9	88.3
2025-07-20T07:33	10	56	1.0	55	58	427	0.3	426	427	19.0	87.9
2025-07-20T07:34	10	54	0.8	53	55	426	0.2	426	427	19.0	87.7
2025-07-20T07:35	10	55	1.4	52	57	427	0.4	426	428	19.1	88.1
2025-07-20T07:36	10	53	1.1	50	54	425	0.6	424	427	19.0	87.8
2025-07-20T07:37	10	48	1.4	45	50	425	0.3	424	425	19.0	87.9
2025-07-20T07:38	10	46	0.3	45	47	425	0.3	425	426	19.0	88.3
2025-07-20T07:39	10	48	1.0	46	50	426	0.4	425	427	19.2	88.1
2025-07-20T07:40	10	51	0.8	49	52	426	0.3	426	427	19.2	87.6
2025-07-20T07:41	10	53	0.6	52	54	426	0.3	425	426	19.0	87.4
2025-07-20T07:42	10	51	0.8	50	53	426	0.2	426	427	19.1	88.0
2025-07-20T07:43	10	48	0.8	47	50	426	0.3	425	426	19.1	88.3
2025-07-20T07:44	10	46	0.6	45	47	425	0.3	424	426	19.0	88.2
2025-07-20T07:45	10	44	0.8	43	45	425	0.7	424	426	19.1	88.2
2025-07-20T07:46	10	46	1.4	43	47	425	0.7	424	427	19.1	88.1
2025-07-20T07:47	10	48	0.6	47	49	426	0.2	425	426	19.3	88.0
2025-07-20T07:48	10	49	0.3	49	50	426	0.4	425	427	19.3	88.5
2025-07-20T07:49	10	51	2.3	47	54	426	0.4	425	426	19.3	88.0
2025-07-20T07:50	10	47	0.7	46	48	425	0.2	425	426	19.2	88.4
2025-07-20T07:51	10	49	1.5	48	52	426	0.4	425	426	19.3	88.3
2025-07-20T07:52	10	55	1.1	53	57	425	0.3	425	426	19.1	88.2
2025-07-20T07:53	10	56	1.0	54	57	425	0.2	425	426	19.1	88.6
2025-07-20T07:54	10	56	0.4	55	57	425	0.4	424	426	19.1	88.3
2025-07-20T07:55	10	57	1.0	55	58	425	0.6	424	427	19.1	88.2
2025-07-20T07:56	10	57	1.2	54	58	427	0.4	426	428	19.3	88.3
2025-07-20T07:57	10	51	1.6	49	55	425	0.6	424	427	19.3	87.7
2025-07-20T07:58	10	47	0.8	45	48	425	0.3	424	425	19.2	87.6
2025-07-20T07:59	10	42	1.5	40	45	424	0.9	422	425	19.2	88.0
2025-07-20T08:00	10	41	0.8	40	42	422	0.3	422	423	19.1	88.4
2025-07-20T08:01	10	45	2.0	42	49	423	0.6	422	424	19.2	88.2
2025-07-20T08:02	10	51	1.9	49	55	424	0.3	423	425	19.2	88.1
2025-07-20T08:03	10	59	1.9	55	62	425	0.3	424	425	19.2	88.2
2025-07-20T08:04	10	60	1.5	58	62	426	0.3	425	426	19.2	88.0
2025-07-20T08:05	10	57	0.9	54	58	426	0.3	425	426	19.2	88.1
2025-07-20T08:06	10	50	2.2	46	54	426	0.4	425	427	19.3	87.9
2025-07-20T08:07	10	43	1.5	42	47	425	0.4	424	426	19.2	87.9
2025-07-20T08:08	10	50	5.9	44	65	425	0.9	424	427	19.3	87.8
2025-07-20T08:09	10	90	13.5	66	106	431	3.1	426	436	19.5	87.9
2025-07-20T08:10	10	110	4.3	99	115	437	1.1	434	438	19.7	87.2
2025-07-20T08:11	10	115	8.9	103	131	436	0.9	435	439	19.4	86.9
2025-07-20T08:12	10	118	4.3	113	129	438	0.4	438	439	19.5	86.9
2025-07-20T08:13	10	114	2.0	112	119	440	0.3	439	441	19.6	86.5
2025-07-20T08:14	10	124	4.2	117	130	442	0.7	440	443	19.5	86.6
2025-07-20T08:15	10	133	3.7	125	139	443	0.4	442	444	19.6	86.9
2025-07-20T08:16	10	139	5.3	130	148	444	0.4	443	445	19.8	85.0
2025-07-20T08:17	10	153	3.8	148	158	447	1.0	445	449	20.0	84.6
2025-07-20T08:18	10	155	5.2	142	160	447	0.2	447	448	19.7	85.6
2025-07-20T08:19	10	139	6.7	130	151	447	0.7	446	448	19.8	85.8
2025-07-20T08:20	10	131	8.4	119	148	446	1.0	444	448	19.9	85.4
2025-07-20T08:21	10	124	10.2	110	145	446	1.1	444	449	20.0	85.6
2025-07-20T08:22	10	139	11.3	113	154	448	0.8	447	449	20.5	84.6
2025-07-20T08:23	10	154	6.4	142	167	448	1.2	447	450	20.2	84.6
2025-07-20T08:24	10	139	11.2	120	156	449	1.0	447	451	20.0	85.1
2025-07-20T08:25	10	146	7.3	123	155	449	0.7	448	450	19.8	85.3
2025-07-20T08:26	10	131	22.9	91	156	448	2.2	443	451	19.8	85.7
2025-07-20T08:27	10	77	9.4	63	94	442	2.2	438	445	19.8	85.1
2025-07-20T08:28	10	56	3.7	49	63	436	2.0	433	440	19.9	84.3
2025-07-20T08:29	10	48	0.9	46	49	431	1.3	429	434	19.8	84.6
2025-07-20T08:30	10	52	2.5	49	58	431	0.4	430	431	19.8	84.9
2025-07-20T08:31	10	69	9.4	58	88	433	1.4	431	435	20.0	84.8
2025-07-20T08:32	10	79	17.7	59	111	435	1.4	433	437	20.2	84.2
2025-07-20T08:33	10	99	24.9	57	136	438	2.4	434	441	20.1	83.2
2025-07-20T08:34	10	141	11.1	85	146	444	3.1	436	447	20.2	82.8
2025-07-20T08:35	10	140	4.0	131	143	449	1.4	446	451	20.5	82.6
2025-07-20T08:36	10	132	8.1	116	143	449	0.6	448	450	20.6	82.1
2025-07-20T08:37	10	122	13.8	99	142	450	1.1	448	451	20.8	81.8
2025-07-20T08:38	10	145	1.0	143	147	450	0.2	450	451	20.4	82.1
2025-07-20T08:39	10	139	8.0	116	146	450	0.7	448	451	20.2	82.8
2025-07-20T08:40	10	137	10.8	117	146	450	0.9	448	451	20.3	82.5
2025-07-20T08:41	10	148	2.0	144	151	452	1.0	450	453	20.6	82.1
2025-07-20T08:42	10	144	5.0	128	149	454	0.7	453	456	20.8	81.7
2025-07-20T08:43	10	139	2.8	134	144	455	0.5	454	456	20.9	80.3
2025-07-20T08:44	10	124	6.2	114	134	453	2.0	449	456	20.7	80.2
2025-07-20T08:45	10	136	7.9	117	145	450	0.8	449	452	20.3	81.5
2025-07-20T08:46	10	146	0.3	145	147	453	0.8	452	455	20.3	82.3
2025-07-20T08:47	10	145	1.9	141	147	455	0.9	453	456	20.5	81.2
2025-07-20T08:48	10	142	1.1	139	145	453	0.5	452	454	20.5	80.9
2025-07-20T08:49	10	143	2.8	136	147	454	0.9	453	456	20.6	80.6
2025-07-20T08:50	10	143	3.4	138	148	455	0.8	454	457	20.6	80.0
2025-07-20T08:51	10	148	1.0	145	150	458	1.2	456	460	21.0	79.6
2025-07-20T08:52	10	149	1.3	146	151	457	1.0	456	459	21.0	78.2
2025-07-20T08:53	10	152	4.9	146	159	458	1.1	456	460	20.9	78.9
2025-07-20T08:54	10	158	2.6	148	159	459	0.4	459	460	21.0	77.9
2025-07-20T08:55	10	153	1.5	148	155	460	0.4	459	461	21.2	76.0
2025-07-20T08:56	10	150	0.6	149	151	461	0.9	460	463	21.3	77.5
2025-07-20T08:57	10	151	0.8	149	152	462	1.0	460	464	21.3	76.7
2025-07-20T08:58	10	141	8.6	124	149	460	1.0	458	462	21.2	76.6
2025-07-20T08:59	10	129	9.7	111	141	457	1.6	454	459	21.3	76.4
2025-07-20T09:00	10	135	5.8	119	142	456	0.8	454	457	21.2	75.2
2025-07-20T09:01	10	123	7.1	113	134	457	0.5	456	458	21.4	74.9
2025-07-20T09:02	10	115	11.9	88	129	454	1.4	452	457	21.4	74.6
2025-07-20T09:03	10	110	10.1	96	127	454	1.7	451	456	21.4	74.7
2025-07-20T09:04	10	108	7.3	98	119	452	0.7	451	454	21.4	74.5
2025-07-20T09:05	10	120	3.6	114	126	455	1.0	453	457	21.6	74.5
2025-07-20T09:06	10	127	2.5	119	130	456	0.4	455	457	21.7	74.9
2025-07-20T09:07	10	137	9.3	119	150	457	1.2	456	460	21.5	73.9
2025-07-20T09:08	10	142	12.4	117	155	461	1.0	458	462	21.6	74.8
2025-07-20T09:09	10	153	13.8	117	166	461	2.1	457	464	21.6	74.1
2025-07-20T09:10	10	151	13.5	120	167	464	1.4	462	466	21.8	74.0
2025-07-20T09:11	10	165	1.7	161	169	466	1.3	463	468	22.0	72.9
2025-07-20T09:12	10	167	1.6	164	169	468	0.4	467	469	22.1	72.2
2025-07-20T09:13	10	172	2.1	166	174	469	0.5	468	470	22.2	72.1
2025-07-20T09:14	10	158	18.7	112	176	469	2.0	465	470	22.4	71.2
2025-07-20T09:15	10	100	13.1	84	131	460	3.6	455	467	22.5	71.0
2025-07-20T09:16	10	96	11.4	84	126	457	1.1	455	459	22.2	72.4
2025-07-20T09:17	10	102	31.1	75	181	457	2.0	455	462	22.4	72.6
2025-07-20T09:18	10	105	39.9	73	182	456	3.2	454	463	22.3	72.4
2025-07-20T09:19	10	136	23.2	110	180	463	2.1	460	467	22.2	73.3
2025-07-20T09:20	10	93	36.7	59	173	458	3.8	452	466	22.4	72.3
2025-07-20T09:21	10	122	41.7	59	177	458	4.7	452	467	22.0	72.2
2025-07-20T09:22	10	168	7.1	152	174	468	1.6	464	471	22.3	72.1
2025-07-20T09:23	10	163	7.4	141	170	470	0.5	468	471	22.3	71.7
2025-07-20T09:24	10	155	25.2	83	171	471	1.8	466	473	22.3	71.8
2025-07-20T09:25	10	164	8.0	131	173	471	1.8	466	474	22.6	71.5
2025-07-20T09:26	10	150	20.8	97	170	469	2.1	466	473	22.4	69.0
2025-07-20T09:27	10	157	13.0	120	168	469	1.5	466	471	22.3	69.8
2025-07-20T09:28	10	133	31.9	53	157	469	2.5	461	471	22.5	70.4
2025-07-20T09:29	10	131	38.1	53	162	465	3.9	459	470	22.5	70.8
2025-07-20T09:30	10	155	13.9	121	172	470	1.1	468	472	22.6	68.4
2025-07-20T09:31	10	166	1.6	164	170	474	1.0	471	475	22.7	68.9
2025-07-20T09:32	10	165	1.6	159	167	473	0.9	471	474	23.0	69.0
2025-07-20T09:33	10	149	16.8	117	169	470	3.0	466	475	22.8	68.2
2025-07-20T09:34	10	133	16.0	104	163	466	1.2	464	468	22.4	66.7
2025-07-20T09:35	10	161	8.9	138	170	470	1.7	466	472	22.6	66.6
2025-07-20T09:36	10	167	3.3	149	169	474	1.2	470	476	23.0	68.3
2025-07-20T09:37	10	163	8.5	138	173	474	0.5	473	475	23.3	66.4
2025-07-20T09:38	10	175	1.1	173	176	477	1.2	474	478	23.0	66.0
2025-07-20T09:39	10	175	2.7	171	179	478	0.4	477	479	23.2	67.4
2025-07-20T09:40	10	171	17.5	121	184	478	1.2	476	480	23.0	67.3
2025-07-20T09:41	10	143	14.3	117	164	473	2.7	468	477	23.0	67.6
2025-07-20T09:42	10	101	24.9	77	155	465	3.7	459	471	22.9	67.3
2025-07-20T09:43	10	142	18.1	98	166	466	2.3	460	469	22.9	68.0
2025-07-20T09:44	10	141	39.9	87	208	468	3.3	464	476	23.0	67.8
2025-07-20T09:45	10	138	38.7	93	206	473	3.7	468	478	23.2	69.0
2025-07-20T09:46	10	130	14.7	95	154	471	1.2	468	473	23.4	68.5
2025-07-20T09:47	10	83	8.2	72	115	463	4.2	457	472	23.1	66.6
2025-07-20T09:48	10	131	34.0	87	184	460	3.3	457	467	22.7	67.2
2025-07-20T09:49	10	187	11.9	149	196	473	4.4	465	479	22.8	67.5
2025-07-20T09:50	10	178	31.6	99	201	476	2.5	471	480	22.8	66.6
2025-07-20T09:51	10	163	34.4	105	197	473	3.7	468	477	22.6	66.1
2025-07-20T09:52	10	106	31.9	60	152	467	3.8	460	471	22.6	67.1
2025-07-20T09:53	10	140	30.3	64	161	468	4.9	460	475	23.1	65.6
2025-07-20T09:54	10	154	6.4	136	162	472	1.7	468	474	23.1	64.7
2025-07-20T09:55	10	157	3.4	149	161	470	1.1	468	471	22.9	65.0
2025-07-20T09:56	10	157	8.9	138	166	472	0.9	470	473	22.8	65.4
2025-07-20T09:57	10	149	7.5	134	159	471	0.4	471	473	22.8	65.2
2025-07-20T09:58	10	167	8.8	148	177	475	2.0	471	478	23.0	64.5
2025-07-20T09:59	10	179	9.1	162	191	479	1.5	477	482	23.1	64.9
2025-07-20T10:00	10	178	19.0	126	199	482	1.2	479	485	23.5	65.1
2025-07-20T10:01	10	138	51.5	71	202	478	5.8	470	487	23.8	62.4
2025-07-20T10:02	10	175	24.9	113	203	480	1.5	476	483	23.8	63.5
2025-07-20T10:03	10	138	30.8	89	189	476	2.9	470	480	23.6	60.3
2025-07-20T10:04	10	112	9.5	95	129	470	1.5	468	473	23.8	61.4
2025-07-20T10:05	10	90	8.2	83	119	467	2.4	463	471	23.8	64.6
2025-07-20T10:06	10	90	6.6	84	109	463	0.8	461	464	23.8	64.6
2025-07-20T10:07	10	140	17.8	111	177	470	2.7	463	473	23.8	64.6
2025-07-20T10:08	10	130	20.1	107	174	470	1.7	468	474	23.8	64.6
2025-07-20T10:09	10	141	20.8	116	174	473	2.4	470	476	23.5	64.2
2025-07-20T10:10	10	138	10.4	124	159	472	1.8	470	475	23.4	63.8
2025-07-20T10:11	10	146	34.2	94	212	475	3.5	471	482	23.6	63.7
2025-07-20T10:12	10	111	37.6	89	223	470	2.7	467	476	23.8	63.8
2025-07-20T10:13	10	117	46.7	80	225	473	5.7	464	481	23.8	63.8
2025-07-20T10:14	10	79	0.7	78	81	463	1.7	460	466	23.7	64.0
2025-07-20T10:15	10	85	11.2	79	126	462	0.7	461	464	23.7	64.6
2025-07-20T10:16	10	109	19.0	85	155	464	1.5	462	467	23.6	65.7
2025-07-20T10:17	10	91	5.5	85	102	461	0.9	459	463	23.2	66.5
2025-07-20T10:18	10	101	30.0	75	171	463	2.2	460	468	23.3	67.0
2025-07-20T10:19	10	73	1.1	71	75	458	1.4	456	461	23.3	67.3
2025-07-20T10:20	10	71	0.2	71	72	455	1.2	453	457	23.3	66.9
2025-07-20T10:21	10	72	0.5	71	73	454	0.5	453	455	23.2	67.1
2025-07-20T10:22	10	71	0.2	71	72	456	1.0	454	458	23.5	67.9
2025-07-20T10:23	10	71	0.3	71	72	455	0.9	454	457	23.6	65.3
2025-07-20T10:24	10	78	10.1	72	110	454	0.9	453	456	23.5	66.9
2025-07-20T10:25	10	74	2.2	73	85	456	0.4	455	456	23.6	67.0
2025-07-20T10:26	10	77	0.7	75	78	455	0.4	454	455	23.4	65.7
2025-07-20T10:27	10	80	4.6	76	95	454	0.4	453	455	23.2	65.8
2025-07-20T10:28	10	76	0.3	75	77	454	1.0	452	456	23.1	66.4
2025-07-20T10:29	10	76	3.4	75	89	451	0.5	450	452	22.9	66.6
2025-07-20T10:30	10	77	4.6	71	92	453	0.3	452	454	23.1	66.6
2025-07-20T10:31	10	71	0.4	71	72	453	0.2	452	453	23.2	66.4
2025-07-20T10:32	10	77	3.6	72	85	454	0.8	453	455	23.2	66.4
2025-07-20T10:33	10	98	14.5	82	128	458	1.8	454	460	23.3	66.6
2025-07-20T10:34	10	82	0.9	81	85	457	0.2	457	458	23.4	66.0
2025-07-20T10:35	10	91	7.2	84	112	459	1.5	456	461	23.5	66.2
2025-07-20T10:36	10	89	2.9	86	99	460	0.5	459	461	23.8	66.5
2025-07-20T10:37	10	95	8.1	86	120	459	0.7	458	461	23.7	65.4
2025-07-20T10:38	10	103	16.6	93	165	462	0.9	460	464	23.6	65.3
2025-07-20T10:39	10	134	38.1	97	199	465	3.1	461	472	23.6	65.2
2025-07-20T10:40	10	183	19.5	132	206	476	2.0	470	478	23.7	65.2
2025-07-20T10:41	10	191	19.3	158	210	481	1.2	478	482	23.6	64.7
2025-07-20T10:42	10	110	25.8	88	163	473	5.5	465	482	23.7	64.8
2025-07-20T10:43	10	101	31.2	76	155	467	3.2	461	472	23.6	64.4
2025-07-20T10:44	10	74	1.0	73	76	461	1.5	459	464	23.5	65.3
2025-07-20T10:45	10	72	0.7	71	73	458	0.9	456	459	23.6	66.1
2025-07-20T10:46	10	71	0.1	71	71	456	0.8	454	457	23.6	65.6
2025-07-20T10:47	10	72	0.5	71	73	455	0.3	454	456	23.5	64.9
2025-07-20T10:48	10	75	1.7	73	79	456	0.3	455	456	23.5	65.3
2025-07-20T10:49	10	77	1.2	75	79	456	0.4	455	456	23.4	65.4
2025-07-20T10:50	10	77	0.6	77	78	457	0.4	456	458	23.7	66.7
2025-07-20T10:51	10	79	0.2	78	79	456	0.5	455	457	23.7	65.1
2025-07-20T10:52	10	78	0.6	77	79	456	0.4	455	457	23.6	64.9
2025-07-20T10:53	10	78	1.3	75	81	456	0.7	455	457	23.8	67.3
2025-07-20T10:54	10	72	3.7	67	79	456	0.5	455	457	23.6	69.1
2025-07-20T10:55	10	63	2.0	60	67	452	2.1	448	455	23.5	69.6
2025-07-20T10:56	10	58	1.4	56	60	448	0.3	448	449	23.2	70.5
2025-07-20T10:57	10	54	0.8	53	56	448	0.6	447	449	23.2	71.0
2025-07-20T10:58	10	53	0.2	53	53	448	0.3	447	448	23.2	71.1
2025-07-20T10:59	10	54	0.5	53	55	446	0.4	446	447	23.3	70.6
2025-07-20T11:00	10	56	0.9	55	58	448	1.0	446	449	23.4	70.4
2025-07-20T11:01	10	59	1.1	58	61	449	0.4	448	450	23.5	70.0
2025-07-20T11:02	10	64	1.4	61	66	449	0.3	448	449	23.4	69.8
2025-07-20T11:03	10	70	1.9	66	73	448	0.4	447	448	23.2	70.1
2025-07-20T11:04	10	75	1.3	73	78	450	1.6	448	453	23.2	70.5
2025-07-20T11:05	10	79	1.0	77	80	453	0.8	452	455	23.4	70.6
2025-07-20T11:06	10	83	1.8	80	86	454	0.6	453	455	23.6	69.5
2025-07-20T11:07	10	87	0.6	87	88	454	0.4	453	455	23.4	69.7
2025-07-20T11:08	10	90	1.4	88	93	454	0.4	454	456	23.4	69.9
2025-07-20T11:09	10	89	4.0	84	96	456	0.5	455	457	23.4	69.9
2025-07-20T11:10	10	82	1.1	80	84	455	1.1	454	457	23.5	69.4
2025-07-20T11:11	10	80	0.2	79	80	454	0.3	453	454	23.3	69.8
2025-07-20T11:12	10	81	1.0	80	83	454	0.5	453	455	23.3	69.6
2025-07-20T11:13	10	84	0.7	83	85	456	0.6	455	457	23.5	69.4
2025-07-20T11:14	10	82	0.4	82	83	455	1.7	452	457	23.4	69.9
2025-07-20T11:15	10	81	0.2	81	82	452	0.5	451	453	23.2	70.8
2025-07-20T11:16	10	85	1.9	82	88	453	1.2	451	455	23.2	70.9
2025-07-20T11:17	10	90	0.9	88	91	456	0.8	454	458	23.5	70.4
2025-07-20T11:18	10	87	1.8	84	90	456	1.3	454	458	23.4	69.9
2025-07-20T11:19	10	86	1.0	84	87	456	0.8	454	457	23.2	70.2
2025-07-20T11:20	10	85	0.5	84	86	457	0.8	456	459	23.3	70.1
2025-07-20T11:21	10	84	0.6	83	86	456	1.0	455	458	23.6	69.2
2025-07-20T11:22	10	81	1.4	79	84	456	0.3	455	457	23.5	69.4
2025-07-20T11:23	10	78	0.7	77	80	455	0.6	454	457	23.4	69.6
2025-07-20T11:24	10	76	0.7	75	77	455	1.2	453	457	23.6	69.4
2025-07-20T11:25	10	75	0.9	74	78	452	0.3	452	453	23.3	69.5
2025-07-20T11:26	10	125	29.8	78	158	459	5.8	452	468	23.5	69.3
2025-07-20T11:27	10	141	11.3	127	167	468	1.7	465	470	23.7	68.5
2025-07-20T11:28	10	182	29.1	135	221	473	4.5	468	481	23.7	68.0
2025-07-20T11:29	10	188	29.1	118	225	482	2.4	477	486	23.7	68.1
2025-07-20T11:30	10	94	17.7	81	147	469	5.4	462	480	23.4	68.4
2025-07-20T11:31	10	79	1.3	76	81	463	1.6	459	465	23.6	68.4
2025-07-20T11:32	10	76	0.4	76	77	459	0.5	458	460	23.6	68.0
2025-07-20T11:33	10	87	7.0	77	103	461	1.6	459	464	23.7	68.5
2025-07-20T11:34	10	89	4.2	83	96	463	0.6	462	464	23.9	68.0
2025-07-20T11:35	10	144	49.6	85	223	468	5.4	462	479	23.9	68.5
2025-07-20T11:36	10	214	6.2	194	220	483	3.3	476	488	23.8	67.9
2025-07-20T11:37	10	206	5.9	191	211	490	2.4	486	493	24.2	69.8
2025-07-20T11:38	10	208	0.6	207	209	491	0.6	490	493	24.5	66.8
2025-07-20T11:39	10	203	4.6	193	207	493	0.7	492	495	24.5	67.6
2025-07-20T11:40	10	205	0.8	203	206	495	0.6	494	496	24.8	67.2
2025-07-20T11:41	10	205	1.1	202	206	495	1.7	492	498	24.9	64.9
2025-07-20T11:42	10	200	2.2	196	205	495	0.9	493	496	24.8	65.0
2025-07-20T11:43	10	186	32.8	119	209	494	3.7	485	497	24.9	65.0
2025-07-20T11:44	10	148	47.0	79	216	487	3.7	479	492	24.6	66.8
2025-07-20T11:45	10	93	19.3	77	139	474	3.3	470	483	24.6	65.8
2025-07-20T11:46	10	159	41.0	96	217	476	4.9	470	485	24.2	66.6
2025-07-20T11:47	10	136	31.7	105	209	480	4.4	475	486	24.1	66.7
2025-07-20T11:48	10	175	37.2	105	209	481	4.6	474	488	24.1	66.4
2025-07-20T11:49	10	207	3.4	198	211	489	1.3	486	491	24.2	66.5
2025-07-20T11:50	10	187	26.3	116	207	489	1.4	487	491	24.3	66.2
2025-07-20T11:51	10	156	54.1	76	212	487	5.9	475	493	24.7	65.4
2025-07-20T11:52	10	75	2.5	72	82	470	3.2	467	478	24.4	65.4
2025-07-20T11:53	10	99	20.3	79	148	471	1.9	467	474	24.3	66.1
2025-07-20T11:54	10	131	49.4	78	213	471	5.3	464	479	24.2	66.1
2025-07-20T11:55	10	119	43.9	84	213	472	4.1	469	483	24.2	66.3
2025-07-20T11:56	10	201	17.2	163	216	485	2.5	481	489	24.3	65.5
2025-07-20T11:57	10	210	0.7	209	212	490	2.4	486	494	24.1	65.4
2025-07-20T11:58	10	205	7.1	178	211	495	0.8	494	497	24.3	65.0
2025-07-20T11:59	10	208	1.0	206	210	499	1.2	496	501	24.6	65.2
2025-07-20T12:00	10	193	25.3	135	213	497	2.0	492	499	25.0	64.0
2025-07-20T12:01	10	172	38.6	101	216	491	3.2	485	497	25.0	63.4
2025-07-20T12:02	10	209	1.9	207	214	497	0.8	496	498	24.9	63.1
2025-07-20T12:03	10	206	0.2	206	207	500	1.0	498	502	25.1	62.5
2025-07-20T12:04	10	207	0.3	207	208	499	1.6	497	502	25.0	63.2
2025-07-20T12:05	10	207	0.2	207	208	499	0.6	497	500	25.0	62.5
2025-07-20T12:06	10	205	0.8	204	207	502	0.9	500	504	25.1	63.3
2025-07-20T12:07	10	203	1.2	200	204	502	0.4	501	503	25.1	62.5
2025-07-20T12:08	10	202	0.7	201	203	502	1.3	500	504	25.4	61.8
2025-07-20T12:09	10	179	15.0	161	202	498	2.6	494	502	25.3	61.1
2025-07-20T12:10	10	137	29.2	74	168	491	4.3	481	496	25.3	61.3
2025-07-20T12:11	10	95	22.0	73	146	479	2.0	476	484	25.1	61.9
2025-07-20T12:12	10	181	11.3	148	193	488	3.5	482	494	25.3	62.1
2025-07-20T12:13	10	171	4.8	164	184	492	1.0	491	494	25.4	61.5
2025-07-20T12:14	10	171	6.9	162	181	491	1.1	489	493	25.5	60.7
2025-07-20T12:15	10	191	2.3	182	194	496	1.8	492	498	25.5	62.1
2025-07-20T12:16	10	192	1.9	188	194	499	0.7	497	500	25.8	60.1
2025-07-20T12:17	10	188	1.0	186	190	500	0.4	500	501	26.0	59.8
2025-07-20T12:18	10	186	1.1	184	188	500	0.5	499	501	26.0	58.4
2025-07-20T12:19	10	185	0.7	183	186	501	0.5	500	502	26.0	58.3
2025-07-20T12:20	10	182	1.5	180	186	498	1.2	496	501	26.0	56.9
2025-07-20T12:21	10	185	1.6	182	188	501	1.6	497	503	26.3	57.6
2025-07-20T12:22	10	185	1.1	182	187	496	1.3	493	499	26.0	57.2
2025-07-20T12:23	10	184	1.8	181	186	498	1.9	494	500	26.1	57.7
2025-07-20T12:24	10	174	13.5	145	187	494	0.8	492	496	26.6	56.0
2025-07-20T12:25	10	184	5.2	171	189	497	2.3	494	501	26.9	55.0
2025-07-20T12:26	10	183	2.4	175	185	500	1.8	496	502	27.0	54.5
2025-07-20T12:27	10	187	1.2	185	189	498	1.9	495	502	26.7	54.8
2025-07-20T12:28	10	186	2.0	182	190	500	2.7	496	504	26.7	55.2
2025-07-20T12:29	10	186	1.2	184	188	500	1.2	498	502	26.4	55.8
2025-07-20T12:30	10	185	0.6	184	186	500	1.7	498	502	26.5	54.6
2025-07-20T12:31	10	183	1.1	182	185	500	0.9	498	502	26.3	54.8
2025-07-20T12:32	10	183	0.7	182	185	503	0.5	502	504	27.2	54.2
2025-07-20T12:33	10	184	0.6	184	185	501	1.7	498	503	27.4	51.5
2025-07-20T12:34	10	157	26.7	108	186	495	6.0	483	501	26.8	51.8
2025-07-20T12:35	10	104	8.1	91	119	483	1.7	480	487	26.6	52.3
2025-07-20T12:36	10	108	24.7	69	157	482	2.0	476	483	26.8	52.5
2025-07-20T12:37	10	74	6.9	63	88	473	2.4	469	478	26.6	53.0
2025-07-20T12:38	10	100	17.2	76	132	472	3.3	468	477	26.4	51.4
2025-07-20T12:39	10	67	2.4	64	75	468	2.1	465	474	26.5	48.5
2025-07-20T12:40	10	74	5.4	65	85	468	1.4	466	470	26.5	48.6
2025-07-20T12:41	10	90	12.3	71	109	470	1.4	467	472	26.8	50.2
2025-07-20T12:42	10	87	4.7	80	95	470	1.6	468	474	26.8	51.5
2025-07-20T12:43	10	133	13.8	96	147	480	4.4	472	486	27.0	51.4
2025-07-20T12:44	10	129	10.2	113	144	483	1.5	480	485	27.4	48.7
2025-07-20T12:45	10	111	4.1	99	115	479	0.7	478	481	27.3	47.8
2025-07-20T12:46	10	87	4.7	80	98	474	4.2	468	479	27.3	47.0
2025-07-20T12:47	10	85	3.1	80	90	468	0.4	467	469	27.0	46.4
2025-07-20T12:48	10	105	12.4	89	132	468	1.6	467	473	27.0	46.0
2025-07-20T12:49	10	136	4.7	129	145	474	0.8	472	475	26.9	46.6
2025-07-20T12:50	10	152	4.9	138	158	477	1.7	473	480	26.9	46.6
2025-07-20T12:51	10	120	13.0	100	153	478	2.3	474	481	26.9	45.6
2025-07-20T12:52	10	111	11.3	96	132	476	1.4	475	480	27.0	46.2
2025-07-20T12:53	10	135	10.6	112	153	480	1.3	478	483	27.1	45.7
2025-07-20T12:54	10	118	7.2	107	130	476	1.3	474	479	27.1	45.5
2025-07-20T12:55	10	154	13.2	126	170	481	2.6	476	484	27.3	44.2
2025-07-20T12:56	10	127	12.9	102	143	479	1.2	477	483	27.3	44.3
2025-07-20T12:57	10	158	13.5	121	180	479	1.3	478	482	27.2	43.5
2025-07-20T12:58	10	177	2.7	170	180	488	3.8	480	493	27.1	44.0
2025-07-20T12:59	10	182	3.6	178	188	490	1.3	488	492	27.4	44.1
2025-07-20T13:00	10	175	6.1	164	183	491	1.4	488	493	27.6	44.1
2025-07-20T13:01	10	163	2.5	159	168	490	0.8	488	492	27.6	44.2
2025-07-20T13:02	10	177	15.1	155	194	491	0.9	488	492	27.8	43.6
2025-07-20T13:03	10	147	11.5	122	167	485	1.8	483	489	27.3	43.1
2025-07-20T13:04	10	144	3.6	137	152	480	2.1	477	484	27.4	42.7
2025-07-20T13:05	10	160	8.9	141	173	481	1.6	478	485	27.2	42.6
2025-07-20T13:06	10	155	7.0	141	166	485	1.0	483	487	27.4	42.4
2025-07-20T13:07	10	137	11.2	117	150	483	1.5	479	486	27.5	42.2
2025-07-20T13:08	10	128	7.8	110	137	477	1.1	476	481	27.4	42.0
2025-07-20T13:09	10	145	4.3	131	152	478	1.6	476	481	27.3	42.8
2025-07-20T13:10	10	155	3.7	149	163	483	2.4	479	486	27.5	43.0
2025-07-20T13:11	10	161	3.3	156	168	487	1.9	484	490	27.8	42.1
2025-07-20T13:12	10	167	2.6	161	172	488	2.2	485	492	27.8	42.2
2025-07-20T13:13	10	168	2.5	162	171	490	1.9	486	493	28.0	41.9
2025-07-20T13:14	10	173	1.8	169	176	488	2.2	485	492	27.9	41.5
2025-07-20T13:15	10	176	0.8	174	177	489	0.9	488	491	28.1	41.2
2025-07-20T13:16	10	177	1.9	174	180	492	1.2	490	494	28.0	40.9
2025-07-20T13:17	10	178	1.7	173	181	492	1.2	490	494	28.0	40.6
2025-07-20T13:18	10	166	1.5	163	171	496	1.9	493	500	28.5	41.2
2025-07-20T13:19	10	171	1.9	167	173	498	0.6	497	499	28.7	40.0
2025-07-20T13:20	10	170	1.0	169	172	493	3.7	489	498	28.4	40.3
2025-07-20T13:21	10	173	1.8	169	175	488	2.7	484	492	28.0	40.8
2025-07-20T13:22	10	169	1.3	166	172	488	1.8	486	491	28.0	40.5
2025-07-20T13:23	10	167	1.4	164	169	489	1.2	488	491	28.1	39.5
2025-07-20T13:24	10	170	0.3	169	171	489	0.8	487	490	28.2	39.0
2025-07-20T13:25	10	170	0.4	169	171	489	0.5	489	491	28.1	39.3
2025-07-20T13:26	10	171	0.8	170	172	491	0.4	490	492	28.1	39.6
2025-07-20T13:27	10	165	6.8	150	172	493	1.1	491	496	28.3	40.2
2025-07-20T13:28	10	133	5.4	126	149	488	2.9	484	493	28.4	39.7
2025-07-20T13:29	10	117	7.7	98	126	483	2.4	478	486	28.3	40.0
2025-07-20T13:30	10	88	5.4	79	98	474	2.8	472	480	28.0	40.1
2025-07-20T13:31	10	65	5.1	59	78	470	2.6	466	474	28.1	40.1
2025-07-20T13:32	10	62	1.5	58	65	465	1.6	462	468	28.0	40.1
2025-07-20T13:33	10	70	7.2	61	83	464	1.6	462	468	27.8	40.2
2025-07-20T13:34	10	86	10.7	71	102	469	2.3	466	473	28.0	39.5
2025-07-20T13:35	10	123	14.8	73	134	474	3.7	468	480	28.0	38.7
2025-07-20T13:36	10	155	14.5	134	177	483	4.7	476	490	28.2	38.7
2025-07-20T13:37	10	177	4.2	166	181	492	3.4	486	496	28.4	38.5
2025-07-20T13:38	10	143	20.3	101	166	492	3.8	484	496	28.6	37.9
2025-07-20T13:39	10	122	12.9	105	140	487	1.5	485	490	28.8	38.2
2025-07-20T13:40	10	143	8.8	128	158	489	0.5	488	490	28.9	37.6
2025-07-20T13:41	10	153	2.7	149	159	488	0.7	487	489	28.7	37.3
2025-07-20T13:42	10	167	6.3	153	175	489	1.3	487	491	28.7	36.6
2025-07-20T13:43	10	178	2.4	174	182	492	1.7	490	496	28.7	34.4
2025-07-20T13:44	10	183	1.1	179	184	497	0.7	495	498	28.8	34.3
2025-07-20T13:45	10	174	15.4	120	184	494	3.4	488	499	28.8	33.8
2025-07-20T13:46	10	180	3.3	170	184	491	1.5	490	494	28.5	34.4
2025-07-20T13:47	10	132	22.3	104	179	492	3.8	486	498	28.9	34.7
2025-07-20T13:48	10	163	22.6	98	180	493	2.9	487	496	28.9	35.3
2025-07-20T13:49	10	174	3.5	167	179	491	2.1	487	494	28.5	34.4
2025-07-20T13:50	10	171	8.4	149	179	491	1.2	488	492	28.6	34.5
2025-07-20T13:51	10	172	3.0	167	177	489	0.9	488	491	28.2	33.8
2025-07-20T13:52	10	168	1.9	165	172	491	1.3	489	493	28.4	34.7
2025-07-20T13:53	10	161	1.5	158	165	489	1.3	487	490	28.4	34.2
2025-07-20T13:54	10	158	1.6	156	161	487	0.4	486	488	28.3	33.7
2025-07-20T13:55	10	155	0.9	154	157	487	0.7	486	489	28.4	34.0
2025-07-20T13:56	10	153	1.0	152	156	487	0.7	486	488	28.6	33.0
2025-07-20T13:57	10	157	0.6	155	158	489	2.2	486	493	28.8	32.8
2025-07-20T13:58	10	157	0.2	156	157	491	2.1	486	493	28.9	32.8
2025-07-20T13:59	10	157	0.4	156	158	488	0.7	487	489	28.5	33.1
2025-07-20T14:00	10	157	0.3	156	158	489	1.0	487	490	28.6	33.4
2025-07-20T14:01	10	156	0.3	155	156	488	1.3	486	490	28.5	33.9
2025-07-20T14:02	10	157	0.5	156	158	491	1.0	489	493	28.7	34.3
2025-07-20T14:03	10	160	1.3	157	162	495	1.3	491	497	28.9	34.6
2025-07-20T14:04	10	163	1.0	162	165	493	0.9	491	494	29.0	34.3
2025-07-20T14:05	10	148	16.2	106	165	490	1.6	487	492	28.5	34.5
2025-07-20T14:06	10	128	32.2	77	161	484	2.4	480	488	28.6	34.8
2025-07-20T14:07	10	160	0.4	160	161	489	0.9	487	490	28.5	34.9
2025-07-20T14:08	10	159	0.6	158	160	493	2.0	490	496	28.7	35.4
2025-07-20T14:09	10	155	4.0	148	162	491	0.8	489	492	28.7	34.8
2025-07-20T14:10	10	138	26.4	82	162	490	2.5	485	494	28.7	34.5
2025-07-20T14:11	10	154	5.0	142	160	492	1.9	488	495	28.8	34.8
2025-07-20T14:12	10	156	0.6	155	157	495	1.2	493	497	29.0	34.6
2025-07-20T14:13	10	145	13.8	98	156	492	3.3	486	498	29.1	33.8
2025-07-20T14:14	10	65	17.8	40	97	478	4.9	473	489	28.7	34.2
2025-07-20T14:15	10	136	23.3	92	163	481	4.3	474	487	28.6	34.7
2025-07-20T14:16	10	116	31.7	51	157	480	2.2	477	485	28.5	33.9
2025-07-20T14:17	10	151	5.9	132	157	486	1.6	483	488	28.6	33.8
2025-07-20T14:18	10	155	3.0	149	157	488	2.7	485	492	28.6	34.7
2025-07-20T14:19	10	154	1.6	152	157	488	0.9	487	491	28.7	35.2
2025-07-20T14:20	10	149	3.7	141	153	487	1.0	485	489	28.6	35.0
2025-07-20T14:21	10	135	6.7	112	142	484	0.8	483	486	28.6	34.0
2025-07-20T14:22	10	136	8.8	112	145	484	0.8	483	485	28.8	33.2
2025-07-20T14:23	10	115	24.1	85	148	482	2.3	479	485	28.6	33.1
2025-07-20T14:24	10	57	29.3	36	120	473	5.7	465	481	28.7	32.3
2025-07-20T14:25	10	38	0.8	37	40	465	1.8	462	468	28.7	32.8
2025-07-20T14:26	10	47	4.3	40	53	462	0.3	462	463	28.5	33.3
2025-07-20T14:27	10	50	0.3	49	51	462	0.3	461	463	28.4	34.1
2025-07-20T14:28	10	52	2.5	49	57	462	0.3	461	462	28.5	34.0
2025-07-20T14:29	10	58	1.7	55	61	462	0.7	461	464	28.4	34.1
2025-07-20T14:30	10	70	7.9	58	84	465	1.8	462	467	28.4	34.2
2025-07-20T14:31	10	54	0.8	54	57	466	0.3	465	467	28.5	34.7
2025-07-20T14:32	10	59	5.9	55	79	465	0.3	465	466	28.6	34.0
2025-07-20T14:33	10	142	40.8	77	179	474	8.2	463	488	28.6	34.1
2025-07-20T14:34	10	141	16.9	122	174	487	0.9	485	488	28.8	34.0
2025-07-20T14:35	10	81	14.0	58	120	477	4.8	472	487	28.8	33.8
2025-07-20T14:36	10	67	7.6	54	77	471	1.9	467	474	28.8	33.8
2025-07-20T14:37	10	64	7.6	54	78	467	0.8	465	468	28.8	32.1
2025-07-20T14:38	10	63	8.8	55	83	466	0.8	465	468	28.6	32.3
2025-07-20T14:39	10	102	13.6	80	124	472	3.3	467	475	28.7	31.8
2025-07-20T14:40	10	88	21.9	61	128	471	2.0	467	473	28.6	31.7
2025-07-20T14:41	10	63	3.5	60	73	466	1.1	465	469	28.5	31.6
2025-07-20T14:42	10	59	2.1	56	63	465	1.0	463	466	28.4	32.0
2025-07-20T14:43	10	54	1.1	52	56	462	0.4	462	463	28.3	33.0
2025-07-20T14:44	10	51	0.5	50	52	462	0.3	461	463	28.5	32.7
2025-07-20T14:45	10	50	0.4	49	50	462	0.3	461	463	28.5	32.6
2025-07-20T14:46	10	49	0.1	49	49	461	0.4	460	462	28.5	32.2
2025-07-20T14:47	10	49	0.2	49	49	461	0.3	460	462	28.6	32.8
2025-07-20T14:48	10	50	0.3	49	50	460	0.5	459	461	28.5	32.6
2025-07-20T14:49	10	51	0.5	50	52	459	0.3	459	460	28.5	31.1
2025-07-20T14:50	10	53	0.3	52	53	460	0.8	458	461	28.4	30.0
2025-07-20T14:51	10	54	0.6	53	55	460	0.3	459	460	28.4	30.8
2025-07-20T14:52	10	56	0.7	55	58	460	0.7	459	462	28.4	31.5
2025-07-20T14:53	10	59	0.7	57	60	462	0.9	460	464	28.5	32.0
2025-07-20T14:54	10	68	14.0	60	108	466	2.0	464	471	28.5	32.7
2025-07-20T14:55	10	72	12.5	65	121	467	0.7	466	469	28.2	43.2
2025-07-20T14:56	10	94	24.0	64	136	470	1.1	467	471	27.4	49.5
2025-07-20T14:57	10	86	19.5	64	125	470	2.6	467	475	27.5	48.9
2025-07-20T14:58	10	86	18.5	70	130	473	1.7	471	477	27.6	49.2
2025-07-20T14:59	10	77	7.2	70	96	470	0.6	469	472	27.4	49.8
2025-07-20T15:00	10	133	20.0	98	162	473	3.8	468	480	27.3	49.3
2025-07-20T15:01	10	115	20.2	80	142	476	2.0	473	480	27.3	49.9
2025-07-20T15:02	10	137	4.7	127	143	481	1.3	478	483	27.4	50.0
2025-07-20T15:03	10	103	10.6	82	125	476	3.6	471	483	27.1	50.6
2025-07-20T15:04	10	80	6.2	72	93	470	1.2	468	473	27.1	51.0
2025-07-20T15:05	10	95	13.7	72	126	471	0.5	469	472	27.1	51.3
2025-07-20T15:06	10	73	1.6	71	76	466	1.6	465	470	27.0	51.1
2025-07-20T15:07	10	72	2.8	67	77	464	0.6	463	466	26.9	50.9
2025-07-20T15:08	10	61	2.7	57	67	462	0.9	460	463	26.7	51.4
2025-07-20T15:09	10	55	1.2	54	58	460	0.3	460	461	26.8	51.0
2025-07-20T15:10	10	53	0.3	52	54	460	0.6	459	461	27.0	50.6
2025-07-20T15:11	10	52	0.4	51	53	458	0.4	457	459	26.9	50.4
2025-07-20T15:12	10	50	0.7	49	51	457	0.5	456	458	26.9	50.7
2025-07-20T15:13	10	47	1.2	44	49	457	0.7	456	458	26.9	50.6
2025-07-20T15:14	10	42	1.3	40	44	455	0.9	453	456	26.9	51.0
2025-07-20T15:15	10	38	0.9	37	40	454	0.2	453	454	26.7	51.5
2025-07-20T15:16	10	36	0.4	35	37	453	0.4	452	454	26.7	51.8
2025-07-20T15:17	10	36	0.2	35	36	454	0.8	453	456	26.8	52.0
2025-07-20T15:18	10	36	0.2	36	37	454	0.3	453	455	26.7	51.8
2025-07-20T15:19	10	37	0.1	37	37	454	0.2	453	455	26.7	52.1
2025-07-20T15:20	10	37	0.2	36	37	455	0.3	454	455	26.7	51.8
2025-07-20T15:21	10	36	0.3	35	36	453	0.3	453	454	26.7	51.4
2025-07-20T15:22	10	34	0.3	34	35	454	0.3	453	454	26.8	51.9
2025-07-20T15:23	10	34	0.1	34	34	453	0.5	452	454	26.7	52.0
2025-07-20T15:24	10	34	0.2	34	34	452	0.3	451	452	26.5	52.9
2025-07-20T15:25	10	33	0.5	32	34	452	0.2	451	452	26.6	52.9
2025-07-20T15:26	10	32	0.4	31	32	452	0.2	451	452	26.5	53.0
2025-07-20T15:27	10	30	0.2	30	31	451	0.3	451	452	26.5	52.8
2025-07-20T15:28	10	30	0.1	30	31	451	0.3	451	452	26.6	52.8
2025-07-20T15:29	10	30	0.1	30	31	452	0.3	451	452	26.7	52.9
2025-07-20T15:30	10	30	0.1	30	31	452	0.3	451	452	26.7	52.8
2025-07-20T15:31	10	30	0.1	30	31	451	0.3	450	452	26.5	52.5
2025-07-20T15:32	10	31	0.1	30	31	451	0.3	451	452	26.5	52.7
2025-07-20T15:33	10	30	0.1	30	31	451	0.3	450	451	26.5	52.4
2025-07-20T15:34	10	30	0.2	29	30	450	0.3	450	451	26.5	52.3
2025-07-20T15:35	10	29	0.2	29	29	451	0.3	450	451	26.5	52.9
2025-07-20T15:36	10	28	0.2	28	29	450	0.2	450	451	26.5	53.0
2025-07-20T15:37	10	28	0.1	28	28	450	0.2	450	451	26.5	53.5
2025-07-20T15:38	10	27	0.2	27	28	450	0.2	450	451	26.5	53.0
2025-07-20T15:39	10	27	0.1	27	27	450	0.3	449	450	26.5	53.0
2025-07-20T15:40	10	27	0.1	27	27	450	0.3	449	450	26.5	53.0
2025-07-20T15:41	10	27	0.1	27	27	450	0.2	449	450	26.6	53.2
2025-07-20T15:42	10	27	0.1	27	27	449	0.3	449	450	26.5	52.7
2025-07-20T15:43	10	27	0.1	27	27	449	0.2	449	449	26.4	52.6
2025-07-20T15:44	10	27	0.1	27	27	449	0.2	448	449	26.4	52.8
2025-07-20T15:45	10	27	0.1	26	27	449	0.3	448	449	26.4	52.1
2025-07-20T15:46	10	26	0.2	26	27	449	0.2	449	449	26.5	52.6
2025-07-20T15:47	10	25	0.2	25	26	449	0.2	448	449	26.5	52.4
2025-07-20T15:48	10	25	0.2	24	25	448	0.2	448	449	26.4	52.5
2025-07-20T15:49	10	24	0.2	24	24	448	0.2	448	448	26.4	52.3
2025-07-20T15:50	10	24	0.1	23	24	448	0.2	447	448	26.4	52.5
2025-07-20T15:51	10	23	0.2	23	23	448	0.2	447	448	26.4	52.3
2025-07-20T15:52	10	22	0.3	22	23	447	0.2	447	448	26.4	52.8
2025-07-20T15:53	10	22	0.3	21	22	448	0.2	447	448	26.4	52.9
2025-07-20T15:54	10	21	0.1	21	21	448	0.2	447	448	26.5	52.6
2025-07-20T15:55	10	21	0.2	20	21	447	0.2	447	448	26.5	52.6
2025-07-20T15:56	10	21	0.2	21	22	448	0.3	447	448	26.5	50.2
2025-07-20T15:57	10	22	0.2	21	22	447	0.3	447	448	26.5	51.8
2025-07-20T15:58	10	22	0.2	21	22	448	0.3	447	449	26.5	52.0
2025-07-20T15:59	10	21	0.2	21	22	448	0.4	447	449	26.6	52.1
2025-07-20T16:00	10	21	0.2	20	21	447	0.4	447	448	26.5	51.7
2025-07-20T16:01	10	21	0.2	20	21	447	0.3	446	448	26.5	52.0
2025-07-20T16:02	10	21	0.2	20	22	447	0.2	446	447	26.5	52.1
2025-07-20T16:03	10	21	0.3	21	22	447	0.3	446	448	26.5	52.5
2025-07-20T16:04	10	22	0.2	21	22	447	0.4	446	447	26.5	52.3
2025-07-20T16:05	10	22	0.2	21	22	447	0.3	446	447	26.4	52.7
2025-07-20T16:06	10	22	0.1	21	22	445	1.6	442	447	26.1	53.6
2025-07-20T16:07	10	21	0.3	21	22	441	1.4	439	443	25.0	56.1
2025-07-20T16:08	10	21	0.5	20	22	438	1.3	436	441	24.3	57.3
2025-07-20T16:09	10	19	0.4	19	20	437	0.6	435	438	24.1	58.3
2025-07-20T16:10	10	18	0.2	18	19	435	0.4	434	436	23.8	59.0
2025-07-20T16:11	10	18	0.1	18	18	434	0.6	433	435	23.6	59.3
2025-07-20T16:12	10	19	0.3	18	19	434	0.5	432	435	23.5	59.6
2025-07-20T16:13	10	20	0.6	19	21	433	0.8	432	435	23.4	59.7
2025-07-20T16:14	10	22	0.6	21	23	433	0.3	432	434	23.3	59.8
2025-07-20T16:15	10	24	0.5	23	25	433	0.8	432	434	23.3	59.9
2025-07-20T16:16	10	25	0.4	25	26	433	0.6	432	434	23.2	59.9
2025-07-20T16:17	10	26	0.4	26	27	434	0.6	433	435	23.2	59.8
2025-07-20T16:18	10	28	0.4	27	28	434	0.5	433	435	23.2	59.8
2025-07-20T16:19	10	29	0.6	28	31	433	0.6	431	434	23.1	59.4
2025-07-20T16:20	10	31	0.3	30	31	433	0.6	432	434	23.1	59.6
2025-07-20T16:21	10	32	0.2	31	32	433	0.4	432	434	23.0	59.7
2025-07-20T16:22	10	32	0.3	32	33	433	0.5	432	434	23.1	59.6
2025-07-20T16:23	10	33	0.2	32	33	434	0.4	433	434	23.1	59.5
2025-07-20T16:24	10	33	0.1	33	34	434	0.4	433	434	23.1	59.3
2025-07-20T16:25	10	33	0.1	33	33	434	0.5	433	435	23.2	59.6
2025-07-20T16:26	10	33	0.1	32	33	434	0.3	434	435	23.2	59.6
2025-07-20T16:27	10	32	0.1	32	32	433	0.2	433	434	23.1	59.6
2025-07-20T16:28	10	32	0.1	32	33	434	0.4	433	434	23.1	59.4
2025-07-20T16:29	10	33	0.2	32	33	434	0.3	433	434	23.1	59.4
2025-07-20T16:30	10	33	0.2	33	34	434	0.4	433	435	23.1	59.5
2025-07-20T16:31	10	34	0.1	33	34	433	0.3	432	433	22.9	60.0
2025-07-20T16:32	10	34	0.3	34	35	433	0.3	432	433	23.0	60.1
2025-07-20T16:33	10	35	0.2	34	35	433	0.3	432	434	22.9	60.1
2025-07-20T16:34	10	35	0.3	35	36	433	0.3	432	434	22.9	60.3
2025-07-20T16:35	10	36	0.2	36	37	433	0.3	432	434	22.9	60.6
2025-07-20T16:36	10	36	0.1	36	37	434	0.5	433	435	23.0	60.6
2025-07-20T16:37	10	36	0.1	36	36	434	0.4	433	435	23.0	60.5
2025-07-20T16:38	10	36	0.1	36	36	434	0.4	433	435	23.0	60.7
2025-07-20T16:39	10	37	0.5	36	37	435	0.4	434	436	23.1	60.6
2025-07-20T16:40	10	38	0.6	37	39	433	0.4	433	434	22.9	60.2
2025-07-20T16:41	10	36	0.9	35	38	433	0.3	432	433	22.8	60.2
2025-07-20T16:42	10	35	0.1	34	35	433	0.4	432	434	22.9	60.3
2025-07-20T16:43	10	33	0.9	31	35	433	0.2	433	434	23.0	59.7
2025-07-20T16:44	10	31	0.2	31	31	433	0.5	432	433	23.0	59.3
2025-07-20T16:45	10	31	0.7	31	33	433	0.4	432	434	23.0	59.2
2025-07-20T16:46	10	35	1.1	33	37	433	0.2	433	434	23.0	59.0
2025-07-20T16:47	10	32	0.4	31	33	433	0.6	431	434	23.0	58.6
2025-07-20T16:48	10	32	0.7	31	33	431	0.2	430	431	22.6	58.8
2025-07-20T16:49	10	31	0.2	31	32	431	0.3	430	431	22.7	59.1
2025-07-20T16:50	10	32	0.4	32	33	431	0.2	431	432	22.6	59.0
2025-07-20T16:51	10	34	0.7	32	35	431	0.3	430	432	22.5	59.4
2025-07-20T16:52	10	38	1.6	35	40	432	0.4	431	433	22.5	59.7
2025-07-20T16:53	10	39	1.1	36	40	434	0.5	433	435	22.6	60.1
2025-07-20T16:54	10	35	0.4	34	36	434	0.4	433	435	22.7	59.5
2025-07-20T16:55	10	35	0.5	34	35	434	0.4	433	435	22.6	59.7
2025-07-20T16:56	10	32	0.6	31	34	433	0.4	432	434	22.4	60.4
2025-07-20T16:57	10	31	0.2	31	31	433	0.3	432	434	22.5	60.5
2025-07-20T16:58	10	31	0.1	30	31	433	0.3	432	434	22.5	60.3
2025-07-20T16:59	10	30	0.2	30	31	433	0.4	433	434	22.5	60.1
2025-07-20T17:00	10	29	0.3	29	30	433	0.3	432	433	22.6	59.7
2025-07-20T17:01	10	28	0.5	27	29	432	0.3	431	433	22.6	59.7
2025-07-20T17:02	10	26	0.6	25	27	432	0.3	431	433	22.6	59.8
2025-07-20T17:03	10	25	0.4	24	26	431	0.4	430	432	22.6	59.9
2025-07-20T17:04	10	24	0.2	23	24	431	0.2	430	431	22.6	60.0
2025-07-20T17:05	10	23	0.3	22	23	430	0.3	429	431	22.6	59.9
2025-07-20T17:06	10	22	0.3	21	22	430	0.4	429	430	22.6	59.6
2025-07-20T17:07	10	21	0.2	21	21	429	0.2	429	430	22.5	59.5
2025-07-20T17:08	10	21	0.1	20	21	430	0.3	429	430	22.6	59.6
2025-07-20T17:09	10	21	0.1	21	21	430	0.2	429	430	22.6	59.0
2025-07-20T17:10	10	21	0.1	21	21	430	0.3	429	431	22.7	59.0
2025-07-20T17:11	10	21	0.1	21	21	430	0.2	430	431	22.6	59.5
2025-07-20T17:12	10	21	0.1	21	21	430	0.2	430	431	22.7	59.6
2025-07-20T17:13	10	21	0.1	20	21	431	0.2	430	431	22.7	59.5
2025-07-20T17:14	10	20	0.1	20	21	431	0.3	430	431	22.8	59.3
2025-07-20T17:15	10	20	0.2	19	20	431	0.3	430	431	22.9	59.1
2025-07-20T17:16	10	19	0.2	19	19	430	0.4	429	431	22.9	58.8
2025-07-20T17:17	10	18	0.2	18	19	430	0.3	429	430	22.9	59.0
2025-07-20T17:18	10	18	0.2	17	18	429	0.2	429	430	22.9	59.1
2025-07-20T17:19	10	17	0.2	17	17	430	0.2	430	431	22.9	59.2
2025-07-20T17:20	10	16	0.3	16	17	430	0.3	429	430	22.9	59.4
2025-07-20T17:21	10	15	0.3	15	16	429	0.3	428	430	22.8	59.5
2025-07-20T17:22	10	14	0.4	13	15	429	0.3	428	429	22.8	59.7
2025-07-20T17:23	10	13	0.2	13	14	428	0.2	428	429	22.8	59.7
2025-07-20T17:24	10	13	0.2	12	13	428	0.2	428	429	22.8	60.0
2025-07-20T17:25	10	12	0.1	12	12	428	0.2	428	428	22.8	59.9
2025-07-20T17:26	10	12	0.1	11	12	428	0.2	428	429	22.8	60.2
2025-07-20T17:27	10	12	0.1	11	12	428	0.3	427	428	22.8	60.1
2025-07-20T17:28	10	11	0.1	11	12	428	0.3	428	429	22.8	60.1
2025-07-20T17:29	10	11	0.1	11	11	428	0.3	427	428	22.8	60.2
2025-07-20T17:30	10	11	0.1	11	11	427	0.2	427	428	22.8	59.7
2025-07-20T17:31	10	11	0.1	10	11	428	0.2	427	428	22.8	59.8
2025-07-20T17:32	10	11	0.1	10	11	428	0.2	427	428	22.8	59.1
2025-07-20T17:33	10	11	0.2	11	11	428	0.3	427	428	22.8	59.6
2025-07-20T17:34	10	12	0.3	11	13	426	0.5	425	427	22.5	59.8
2025-07-20T17:35	10	13	0.4	12	14	426	0.3	425	426	22.5	60.1
2025-07-20T17:36	10	14	0.3	14	15	426	0.3	426	427	22.5	60.3
2025-07-20T17:37	10	15	0.3	15	16	427	0.3	426	427	22.5	60.1
2025-07-20T17:38	10	16	0.2	16	17	426	0.3	425	427	22.4	60.0
2025-07-20T17:39	10	16	0.2	16	17	426	0.4	425	427	22.4	60.1
2025-07-20T17:40	10	16	0.3	15	16	425	0.3	425	426	22.3	59.8
2025-07-20T17:41	10	15	0.4	14	15	425	0.3	424	426	22.3	59.9
2025-07-20T17:42	10	13	0.5	12	15	425	0.3	424	426	22.3	59.8
2025-07-20T17:43	10	12	0.6	11	13	425	0.4	425	426	22.4	59.7
2025-07-20T17:44	10	10	0.4	9	11	425	0.3	425	426	22.4	59.7
2025-07-20T17:45	10	9	0.4	8	10	425	0.3	424	426	22.4	59.8
2025-07-20T17:46	10	7	0.4	7	9	424	0.3	424	425	22.4	59.5
2025-07-20T17:47	10	6	0.4	6	7	423	0.4	423	424	22.3	59.5
2025-07-20T17:48	10	6	0.3	5	6	423	0.3	422	424	22.2	59.9
2025-07-20T17:49	10	5	0.2	5	6	423	0.2	422	423	22.2	59.5
2025-07-20T17:50	10	5	0.2	5	6	423	0.3	422	423	22.2	59.7
2025-07-20T17:51	10	6	0.2	5	7	422	0.3	421	423	22.2	59.8
2025-07-20T17:52	10	7	0.2	6	7	421	0.7	419	422	22.2	60.1
2025-07-20T17:53	10	7	0.2	7	8	419	0.4	419	420	22.2	60.2
2025-07-20T17:54	10	8	0.1	7	8	419	0.2	418	419	22.2	60.5
2025-07-20T17:55	10	7	0.3	7	8	419	0.2	418	419	22.0	61.3
2025-07-20T17:56	10	6	0.3	6	7	419	0.3	418	419	22.1	61.0
2025-07-20T17:57	10	5	0.2	5	6	419	0.4	418	420	22.1	61.4
2025-07-20T17:58	10	5	0.1	5	5	420	0.5	418	420	22.0	62.3
2025-07-20T17:59	10	4	0.1	4	5	420	0.5	419	421	22.0	62.8
2025-07-20T18:00	10	4	0.1	4	4	420	0.3	420	421	22.1	61.9
2025-07-20T18:01	10	4	0.1	4	4	420	0.2	420	421	22.1	61.1
2025-07-20T18:02	10	4	0.1	4	4	420	0.3	420	421	22.1	62.1
2025-07-20T18:03	10	4	0.1	4	4	421	0.3	420	421	22.0	63.7
2025-07-20T18:04	10	4	0.1	4	4	421	0.3	420	421	22.0	63.4
2025-07-20T18:05	10	4	0.1	4	4	419	0.3	419	420	21.9	63.6
2025-07-20T18:06	10	3	0.2	3	4	419	0.2	419	419	21.8	64.4
2025-07-20T18:07	10	3	0.2	2	3	418	0.4	417	419	21.7	65.4
2025-07-20T18:08	10	2	0.2	2	2	417	0.8	415	418	21.6	65.6
2025-07-20T18:09	10	2	0.1	2	2	415	0.5	414	416	21.5	66.2
2025-07-20T18:10	10	2	0.2	1	2	414	0.3	413	414	21.3	67.1
2025-07-20T18:11	10	1	0.1	1	2	413	0.3	413	414	21.1	68.9
2025-07-20T18:12	10	1	0.1	1	1	413	0.3	413	414	21.0	68.6
2025-07-20T18:13	10	1	0.1	1	1	412	0.2	412	413	20.9	69.6
2025-07-20T18:14	10	1	0.1	1	1	411	0.2	411	412	20.8	69.0
2025-07-20T18:15	10	1	0.1	1	1	411	0.2	410	411	20.7	68.6
2025-07-20T18:16	10	1	0.1	1	1	409	0.3	409	410	20.7	66.7
2025-07-20T18:17	10	1	0.1	1	1	409	0.2	408	410	20.5	69.2
2025-07-20T18:18	10	1	0.1	1	1	409	0.5	408	410	20.4	69.2
2025-07-20T18:19	10	1	0.1	1	1	409	0.3	409	410	20.5	67.6
2025-07-20T18:20	10	1	0.1	1	1	409	0.4	408	410	20.4	69.0
2025-07-20T18:21	10	1	0.1	1	1	410	0.5	409	411	20.5	70.3
2025-07-20T18:22	10	1	0.1	1	1	410	0.4	410	411	20.5	70.3
2025-07-20T18:23	10	1	0.1	1	2	411	0.4	410	412	20.5	70.3
2025-07-20T18:24	10	1	0.1	1	1	411	0.3	410	412	20.5	71.3
2025-07-20T18:25	10	1	0.1	1	1	411	0.3	411	412	20.4	71.8
2025-07-20T18:26	10	1	0.1	1	1	411	0.2	411	412	20.4	72.0
2025-07-20T18:27	10	1	0.1	1	1	411	0.2	411	412	20.3	73.3
2025-07-20T18:28	10	1	0.1	1	1	411	0.2	411	412	20.2	75.3
2025-07-20T18:29	10	1	0.1	1	1	411	0.2	410	411	20.1	76.0
2025-07-20T18:30	10	1	0.1	1	1	411	0.3	410	412	20.0	76.5
2025-07-20T18:31	10	1	0.1	1	1	411	0.2	411	412	20.1	75.6
2025-07-20T18:32	10	1	0.1	1	1	411	0.2	410	411	20.2	75.8
2025-07-20T18:33	10	1	0.1	1	1	411	0.2	410	411	20.2	75.8
2025-07-20T18:34	10	1	0.1	1	1	411	0.2	410	411	20.1	75.6
2025-07-20T18:35	10	1	0.1	1	1	410	0.2	410	410	20.1	76.2
2025-07-20T18:36	10	1	0.1	1	1	410	0.3	409	410	20.0	77.6
2025-07-20T18:37	10	1	0.1	1	1	409	0.2	409	410	19.8	80.1
2025-07-20T18:38	10	1	0.1	1	1	409	0.4	408	410	19.8	78.5
2025-07-20T18:39	10	1	0.1	0	1	408	0.4	408	409	19.8	77.4
2025-07-20T18:40	10	1	0.1	0	1	408	0.2	407	408	19.7	79.6
2025-07-20T18:41	10	1	0.2	0	1	407	0.2	407	408	19.5	80.3
2025-07-20T18:42	10	1	0.1	0	1	407	0.3	406	407	19.4	80.6
2025-07-20T18:43	10	1	0.2	0	1	406	0.3	406	407	19.3	81.2
2025-07-20T18:44	10	1	0.1	0	1	406	0.3	405	407	19.2	81.1
2025-07-20T18:45	10	1	0.2	0	1	406	0.2	405	406	19.1	82.7
2025-07-20T18:46	10	1	0.2	1	1	406	0.4	405	407	19.0	84.2
2025-07-20T18:47	10	1	0.2	0	2	406	0.3	405	406	18.9	84.3
2025-07-20T18:48	10	1	0.1	1	1	406	0.3	405	406	18.9	84.8
2025-07-20T18:49	10	1	0.1	1	1	406	0.2	405	406	18.9	84.1
2025-07-20T18:50	10	1	0.1	1	1	405	0.2	405	406	18.9	84.0
2025-07-20T18:51	10	1	0.1	1	1	405	0.2	405	406	18.8	84.3
2025-07-20T18:52	10	1	0.1	1	1	405	0.2	405	406	18.8	84.8
2025-07-20T18:53	10	1	0.1	1	1	405	0.3	405	406	18.7	85.0
2025-07-20T18:54	10	1	0.1	1	2	405	0.3	405	406	18.7	85.5
2025-07-20T18:55	10	1	0.1	1	1	405	0.2	405	406	18.7	87.1
2025-07-20T18:56	10	1	0.1	1	1	406	0.2	405	406	18.6	87.9
2025-07-20T18:57	10	1	0.1	1	1	405	0.2	405	406	18.6	87.2
2025-07-20T18:58	10	1	0.1	1	1	405	0.2	405	405	18.6	87.5
2025-07-20T18:59	10	1	0.1	1	1	405	0.2	404	405	18.5	88.2
2025-07-20T19:00	10	1	0.1	1	1	405	0.2	404	405	18.5	88.1
2025-07-20T19:01	10	1	0.1	1	1	404	0.3	404	405	18.5	88.3
2025-07-20T19:02	10	1	0.1	1	1	405	0.3	404	405	18.4	89.4
2025-07-20T19:03	10	1	0.1	1	1	405	0.2	404	405	18.4	88.7
2025-07-20T19:04	10	1	0.1	1	1	404	0.2	404	405	18.4	89.7
2025-07-20T19:05	10	1	0.1	1	1	404	0.2	404	405	18.3	90.8
2025-07-20T19:06	10	1	0.1	1	1	404	0.2	404	405	18.3	90.7
2025-07-20T19:07	10	1	0.1	1	1	404	0.2	404	405	18.3	90.8
2025-07-20T19:08	10	1	0.1	1	1	404	0.2	404	405	18.3	90.6
2025-07-20T19:09	10	1	0.1	1	1	404	0.2	403	405	18.3	89.7
2025-07-20T19:10	10	1	0.1	0	1	404	0.3	403	405	18.3	89.6
2025-07-20T19:11	10	1	0.1	0	1	404	0.2	403	404	18.3	89.3
2025-07-20T19:12	10	1	0.1	0	1	404	0.2	403	404	18.3	89.3
2025-07-20T19:13	10	1	0.1	0	1	404	0.3	403	404	18.3	88.9
2025-07-20T19:14	10	1	0.1	0	1	403	0.2	403	404	18.2	89.8
2025-07-20T19:15	10	0	0.1	0	1	403	0.2	403	404	18.2	90.3
2025-07-20T19:16	10	0	0.1	0	1	404	0.3	403	404	18.2	89.4
2025-07-20T19:17	10	0	0.1	0	1	403	0.2	403	404	18.2	89.0
2025-07-20T19:18	10	1	0.1	0	1	404	0.2	403	404	18.3	88.5
2025-07-20T19:19	10	0	0.1	0	1	403	0.3	403	404	18.3	88.8
2025-07-20T19:20	10	1	0.1	0	1	404	0.3	403	404	18.3	88.1
2025-07-20T19:21	10	0	0.1	0	1	403	0.2	403	404	18.2	88.7
2025-07-20T19:22	10	0	0.1	0	1	403	0.2	403	403	18.2	88.0
2025-07-20T19:23	10	0	0.1	0	1	403	0.2	403	403	18.2	88.0
2025-07-20T19:24	10	0	0.1	0	1	403	0.2	403	404	18.2	88.9
2025-07-20T19:25	10	0	0.1	0	1	403	0.2	403	403	18.2	89.0
2025-07-20T19:26	10	0	0.1	0	1	403	0.2	402	403	18.2	88.7
2025-07-20T19:27	10	0	0.1	0	1	403	0.2	402	404	18.2	89.5
2025-07-20T19:28	10	0	0.1	0	1	403	0.3	403	404	18.1	90.1
2025-07-20T19:29	10	0	0.1	0	1	403	0.2	403	404	18.1	90.0
2025-07-20T19:30	10	0	0.1	0	0	403	0.2	403	403	18.1	90.5
2025-07-20T19:31	10	0	0.1	0	0	403	0.3	402	404	18.1	89.9
2025-07-20T19:32	10	0	0.1	0	0	403	0.3	402	404	18.1	89.6
2025-07-20T19:33	10	0	0.1	0	0	403	0.3	402	404	18.1	89.7
2025-07-20T19:34	10	0	0.1	0	1	403	0.2	402	403	18.1	88.9
2025-07-20T19:35	10	0	0.1	0	1	403	0.3	402	404	18.2	88.7
2025-07-20T19:36	10	0	0.1	0	1	403	0.2	402	403	18.1	88.8
2025-07-20T19:37	10	0	0.1	0	1	403	0.3	402	403	18.2	87.7
2025-07-20T19:38	10	0	0.1	0	0	403	0.2	402	403	18.2	88.2
2025-07-20T19:39	10	0	0.1	0	0	403	0.2	402	403	18.1	88.8
2025-07-20T19:40	10	0	0.1	0	0	402	0.2	402	403	18.1	89.5
2025-07-20T19:41	10	0	0.1	0	1	402	0.2	402	403	18.1	89.5
2025-07-20T19:42	10	0	0.1	0	1	403	0.2	402	403	18.1	90.0
2025-07-20T19:43	10	0	0.1	0	0	403	0.2	402	403	18.1	89.4
2025-07-20T19:44	10	0	0.1	0	0	403	0.3	402	403	18.1	89.1
2025-07-20T19:45	10	0	0.1	0	0	403	0.2	402	403	18.1	89.4
2025-07-20T19:46	10	0	0.1	0	1	403	0.3	402	403	18.1	89.8
2025-07-20T19:47	10	0	0.2	0	1	403	0.2	402	403	18.1	89.7
2025-07-20T19:48	10	0	0.1	0	1	403	0.2	402	403	18.2	88.5
2025-07-20T19:49	10	0	0.2	0	1	403	0.2	402	403	18.2	88.7
2025-07-20T19:50	10	0	0.2	0	1	403	0.2	402	403	18.1	88.4
2025-07-20T19:51	10	0	0.2	0	1	403	0.3	402	404	18.2	86.7
2025-07-20T19:52	10	0	0.2	0	1	403	0.3	402	404	18.3	86.4
2025-07-20T19:53	10	0	0.2	0	1	403	0.3	402	404	18.2	86.7
2025-07-20T19:54	10	0	0.2	0	1	402	0.2	402	403	18.2	86.8
2025-07-20T19:55	10	0	0.2	0	1	403	0.2	402	403	18.2	86.7
2025-07-20T19:56	10	0	0.2	0	1	402	0.3	402	403	18.2	86.1
2025-07-20T19:57	10	0	0.2	0	1	402	0.2	402	403	18.2	85.7
2025-07-20T19:58	10	0	0.2	0	1	402	0.2	401	402	18.2	87.1
2025-07-20T19:59	10	0	0.1	0	1	402	0.2	402	402	18.0	88.6
2025-07-20T20:00	10	0	0.1	0	0	402	0.3	401	403	18.0	89.9
2025-07-20T20:01	10	0	0.1	0	1	402	0.3	401	402	18.0	90.1
2025-07-20T20:02	10	0	0.1	0	0	402	0.2	401	402	17.9	90.6
2025-07-20T20:03	10	0	0.1	0	1	402	0.2	401	402	17.9	90.4
2025-07-20T20:04	10	0	0.1	0	1	401	0.2	401	402	17.9	90.7
2025-07-20T20:05	10	0	0.1	0	1	402	0.2	401	402	17.9	91.1
2025-07-20T20:06	10	0	0.1	0	0	402	0.2	401	402	17.9	90.8
2025-07-20T20:07	10	0	0.1	0	0	401	0.2	401	402	17.9	90.7
2025-07-20T20:08	10	0	0.1	0	0	401	0.2	401	402	17.8	91.1
2025-07-20T20:09	10	0	0.1	0	1	401	0.1	401	402	17.8	90.6
2025-07-20T20:10	10	0	0.1	0	0	401	0.2	401	402	17.8	89.9
2025-07-20T20:11	10	0	0.1	0	0	401	0.2	401	402	17.9	89.8
2025-07-20T20:12	10	0	0.1	0	0	401	0.2	401	402	17.9	89.8
2025-07-20T20:13	10	0	0.1	0	0	401	0.2	401	402	17.8	90.8
2025-07-20T20:14	10	0	0.1	0	0	401	0.3	400	402	17.8	92.3
2025-07-20T20:15	10	0	0.1	0	0	401	0.2	400	401	17.7	93.9
2025-07-20T20:16	10	0	0.1	0	0	401	0.2	400	401	17.6	95.0
2025-07-20T20:17	10	0	0.1	0	0	401	0.2	400	401	17.5	95.3
2025-07-20T20:18	10	0	0.1	0	0	401	0.2	401	402	17.5	95.3
2025-07-20T20:19	10	0	0.1	0	1	401	0.2	401	401	17.5	95.3
2025-07-20T20:20	10	0	0.1	0	0	401	0.3	401	402	17.5	93.3
2025-07-20T20:21	10	0	0.1	0	0	401	0.2	400	401	17.6	92.1
2025-07-20T20:22	10	0	0.1	0	0	401	0.2	401	402	17.6	91.4
2025-07-20T20:23	10	0	0.1	0	0	401	0.2	401	402	17.7	91.2
2025-07-20T20:24	10	0	0.1	0	0	401	0.2	400	402	17.7	91.1
2025-07-20T20:25	10	0	0.1	0	0	401	0.2	401	401	17.7	91.0
2025-07-20T20:26	10	0	0.1	0	0	401	0.2	401	401	17.7	90.7
2025-07-20T20:27	10	0	0.1	0	1	401	0.2	401	402	17.7	91.2
2025-07-20T20:28	10	0	0.1	0	0	401	0.2	401	401	17.7	91.9
2025-07-20T20:29	10	0	0.1	0	0	401	0.3	401	402	17.7	92.2
2025-07-20T20:30	10	0	0.1	0	0	402	0.2	401	402	17.7	92.8
2025-07-20T20:31	10	0	0.1	0	0	402	0.2	401	402	17.7	92.6
2025-07-20T20:32	10	0	0.1	0	0	402	0.3	401	402	17.7	93.1
2025-07-20T20:33	10	0	0.1	0	0	402	0.2	402	402	17.6	93.2
2025-07-20T20:34	10	0	0.1	0	0	402	0.2	402	402	17.6	93.2
2025-07-20T20:35	10	0	0.1	0	0	402	0.2	401	402	17.6	93.3
2025-07-20T20:36	10	0	0.1	0	0	402	0.2	401	402	17.6	93.4
2025-07-20T20:37	10	0	0.1	0	0	402	0.2	402	403	17.6	93.6
2025-07-20T20:38	10	0	0.0	0	0	402	0.2	401	402	17.5	93.7
2025-07-20T20:39	10	0	0.1	0	0	402	0.2	402	403	17.5	93.9
2025-07-20T20:40	10	0	0.1	0	0	402	0.2	402	402	17.5	93.9
2025-07-20T20:41	10	0	0.1	0	0	402	0.2	402	403	17.5	93.8
2025-07-20T20:42	10	0	0.1	0	0	402	0.3	401	403	17.6	93.4
2025-07-20T20:43	10	0	0.1	0	0	402	0.2	402	403	17.5	93.2
2025-07-20T20:44	10	0	0.1	0	0	402	0.2	401	402	17.5	93.1
2025-07-20T20:45	10	0	0.0	0	0	402	0.3	401	402	17.5	93.4
2025-07-20T20:46	10	0	0.1	0	0	402	0.2	401	402	17.5	93.8
2025-07-20T20:47	10	0	0.1	0	0	402	0.2	402	403	17.5	94.4
2025-07-20T20:48	10	0	0.1	0	0	402	0.2	401	402	17.5	94.4
2025-07-20T20:49	10	0	0.1	0	0	402	0.2	402	402	17.5	93.9
2025-07-20T20:50	10	0	0.1	0	0	402	0.2	402	403	17.5	93.1
2025-07-20T20:51	10	0	0.1	0	0	402	0.3	401	403	17.6	92.8
2025-07-20T20:52	10	0	0.1	0	0	402	0.2	402	403	17.6	93.3
2025-07-20T20:53	10	0	0.1	0	0	402	0.2	401	403	17.6	93.6
2025-07-20T20:54	10	0	0.1	0	0	402	0.3	401	403	17.6	94.2
2025-07-20T20:55	10	0	0.1	0	0	402	0.2	401	402	17.5	94.1
2025-07-20T20:56	10	0	0.1	0	0	402	0.2	402	403	17.5	94.4
2025-07-20T20:57	10	0	0.1	0	0	402	0.3	401	403	17.5	94.6
2025-07-20T20:58	10	0	0.1	0	0	402	0.2	402	403	17.5	94.8
2025-07-20T20:59	10	0	0.1	0	0	402	0.3	402	403	17.5	93.8
2025-07-20T21:00	10	0	0.1	0	0	402	0.2	402	402	17.6	93.0
2025-07-20T21:01	10	0	0.1	0	0	402	0.2	401	402	17.6	93.7
2025-07-20T21:02	10	0	0.1	0	0	402	0.2	401	402	17.6	92.9
2025-07-20T21:03	10	0	0.1	0	0	402	0.2	401	402	17.6	93.4
2025-07-20T21:04	10	0	0.1	0	0	402	0.3	401	402	17.6	93.9
2025-07-20T21:05	10	0	0.1	0	0	402	0.2	401	402	17.6	93.5
2025-07-20T21:06	10	0	0.1	0	0	402	0.3	401	402	17.6	93.1
2025-07-20T21:07	10	0	0.1	0	0	402	0.2	401	402	17.6	92.9
2025-07-20T21:08	10	0	0.1	0	0	402	0.2	401	402	17.6	92.3
2025-07-20T21:09	10	0	0.1	0	0	402	0.2	401	402	17.7	92.6
2025-07-20T21:10	10	0	0.1	0	0	402	0.2	401	402	17.6	91.9
2025-07-20T21:11	10	0	0.1	0	0	402	0.3	401	402	17.7	92.2
2025-07-20T21:12	10	0	0.1	0	0	402	0.2	401	402	17.7	92.3
2025-07-20T21:13	10	0	0.1	0	0	402	0.2	401	402	17.7	91.8
2025-07-20T21:14	10	0	0.1	0	0	402	0.2	402	402	17.7	91.2
2025-07-20T21:15	10	0	0.1	0	0	402	0.2	401	402	17.7	91.4
2025-07-20T21:16	10	0	0.1	0	0	402	0.3	401	402	17.7	91.9
2025-07-20T21:17	10	0	0.1	0	0	402	0.2	401	402	17.7	91.5
2025-07-20T21:18	10	0	0.1	0	0	402	0.2	401	402	17.7	90.7
2025-07-20T21:19	10	0	0.1	0	0	402	0.3	401	402	17.7	90.9
2025-07-20T21:20	10	0	0.1	0	0	401	0.2	401	402	17.7	91.7
2025-07-20T21:21	10	0	0.1	0	0	402	0.2	401	402	17.7	92.3
2025-07-20T21:22	10	0	0.1	0	0	402	0.2	401	402	17.6	92.0
2025-07-20T21:23	10	0	0.1	0	0	402	0.2	401	402	17.6	92.2
2025-07-20T21:24	10	0	0.1	0	0	401	0.2	401	402	17.6	92.3
2025-07-20T21:25	10	0	0.1	0	0	401	0.2	401	402	17.6	92.4
2025-07-20T21:26	10	0	0.1	0	0	401	0.2	401	402	17.5	92.7
2025-07-20T21:27	10	0	0.1	0	0	401	0.2	400	401	17.5	92.7
2025-07-20T21:28	10	0	0.1	0	0	401	0.3	400	401	17.5	92.7
2025-07-20T21:29	10	0	0.1	0	0	401	0.2	400	401	17.5	93.0
2025-07-20T21:30	10	0	0.1	0	0	401	0.2	400	401	17.5	93.2
2025-07-20T21:31	10	0	0.1	0	1	401	0.2	400	401	17.5	93.0
2025-07-20T21:32	10	0	0.1	0	0	401	0.2	400	401	17.5	93.2
2025-07-20T21:33	10	0	0.1	0	0	401	0.2	400	401	17.5	92.8
2025-07-20T21:34	10	0	0.1	0	0	401	0.2	400	401	17.5	93.0
2025-07-20T21:35	10	0	0.1	0	0	401	0.2	400	401	17.5	93.3
2025-07-20T21:36	10	0	0.1	0	1	401	0.2	400	401	17.5	93.6
2025-07-20T21:37	10	0	0.1	0	0	401	0.3	400	401	17.5	94.3
2025-07-20T21:38	10	0	0.1	0	0	400	0.3	400	401	17.4	94.8
2025-07-20T21:39	10	0	0.1	0	0	401	0.2	400	401	17.4	94.8
2025-07-20T21:40	10	0	0.1	0	0	400	0.2	400	401	17.4	95.0
2025-07-20T21:41	10	0	0.1	0	0	400	0.2	400	401	17.4	95.2
2025-07-20T21:42	10	0	0.1	0	0	401	0.3	400	401	17.4	94.9
2025-07-20T21:43	10	0	0.1	0	0	401	0.2	400	401	17.4	95.1
2025-07-20T21:44	10	0	0.1	0	0	400	0.2	400	401	17.4	95.2
2025-07-20T21:45	10	0	0.1	0	0	400	0.2	400	401	17.3	95.0
2025-07-20T21:46	10	0	0.1	0	0	400	0.2	400	401	17.3	95.0
2025-07-20T21:47	10	0	0.1	0	0	400	0.3	400	401	17.3	95.3
2025-07-20T21:48	10	0	0.1	0	0	400	0.2	400	401	17.3	95.7
2025-07-20T21:49	10	0	0.1	0	0	400	0.3	399	401	17.3	95.8
2025-07-20T21:50	10	0	0.1	0	0	400	0.2	399	400	17.3	96.1
2025-07-20T21:51	10	0	0.1	0	0	400	0.2	400	400	17.2	96.2
2025-07-20T21:52	10	0	0.1	0	0	400	0.2	400	401	17.2	96.0
2025-07-20T21:53	10	0	0.1	0	0	400	0.2	400	401	17.2	95.8
2025-07-20T21:54	10	0	0.1	0	0	400	0.3	399	400	17.3	95.7
2025-07-20T21:55	10	0	0.1	0	0	400	0.3	399	400	17.3	96.1
2025-07-20T21:56	10	0	0.1	0	0	400	0.2	400	401	17.3	95.7
2025-07-20T21:57	10	0	0.1	0	0	400	0.2	399	400	17.3	95.5
2025-07-20T21:58	10	0	0.1	0	0	400	0.2	399	400	17.3	95.5
2025-07-20T21:59	10	0	0.1	0	0	400	0.2	399	400	17.3	95.6
2025-07-20T22:00	10	0	0.1	0	0	400	0.3	399	400	17.3	92.6
2025-07-20T22:01	10	0	0.1	0	0	400	0.2	399	400	17.3	95.8
2025-07-20T22:02	10	0	0.1	0	0	400	0.2	400	401	17.3	92.6
2025-07-20T22:03	10	0	0.1	0	0	400	0.2	399	400	17.3	95.8
2025-07-20T22:04	10	0	0.1	0	0	400	0.2	399	400	17.3	95.8
2025-07-20T22:05	10	0	0.1	0	0	400	0.2	399	400	17.3	95.8
2025-07-20T22:06	10	0	0.1	0	0	400	0.2	400	400	17.3	95.8
2025-07-20T22:07	10	0	0.1	0	0	400	0.2	399	400	17.3	95.8
2025-07-20T22:08	10	0	0.1	0	0	400	0.3	399	401	17.3	94.6
2025-07-20T22:09	10	0	0.1	0	1	400	0.2	399	400	17.3	94.7
2025-07-20T22:10	10	0	0.1	0	0	400	0.2	399	400	17.3	95.1
2025-07-20T22:11	10	0	0.1	0	0	400	0.2	399	400	17.3	95.5
2025-07-20T22:12	10	0	0.1	0	0	400	0.2	399	400	17.3	95.2
2025-07-20T22:13	10	0	0.1	0	0	400	0.2	399	400	17.3	95.7
2025-07-20T22:14	10	0	0.1	0	0	400	0.2	399	400	17.3	96.3
2025-07-20T22:15	10	0	0.1	0	0	400	0.2	399	400	17.3	96.3
2025-07-20T22:16	10	0	0.1	0	0	399	0.3	399	400	17.3	96.5
2025-07-20T22:17	10	0	0.1	0	0	400	0.3	399	400	17.3	96.3
2025-07-20T22:18	10	0	0.1	0	0	399	0.2	399	400	17.3	96.6
2025-07-20T22:19	10	0	0.1	0	0	399	0.2	399	400	17.3	96.8
2025-07-20T22:20	10	0	0.1	0	0	399	0.2	399	400	17.3	96.8
2025-07-20T22:21	10	0	0.1	0	0	400	0.2	399	400	17.3	96.7
2025-07-20T22:22	10	0	0.1	0	0	399	0.2	399	400	17.3	96.6
2025-07-20T22:23	10	0	0.1	0	0	399	0.3	399	400	17.3	96.7
2025-07-20T22:24	10	0	0.1	0	0	400	0.3	399	400	17.3	96.7
2025-07-20T22:25	10	0	0.1	0	0	400	0.2	399	400	17.3	96.8
2025-07-20T22:26	10	0	0.1	0	0	400	0.3	399	400	17.3	96.8
2025-07-20T22:27	10	0	0.1	0	0	400	0.2	399	400	17.3	97.0
2025-07-20T22:28	10	0	0.1	0	0	400	0.2	399	400	17.3	97.1
2025-07-20T22:29	10	0	0.1	0	0	400	0.3	399	400	17.3	96.8
2025-07-20T22:30	10	0	0.1	0	0	400	0.2	399	400	17.3	96.8
2025-07-20T22:31	10	0	0.1	0	0	400	0.2	399	400	17.3	96.7
2025-07-20T22:32	10	0	0.1	0	0	399	0.2	399	400	17.3	96.8
2025-07-20T22:33	10	0	0.1	0	0	399	0.2	399	400	17.3	96.7
2025-07-20T22:34	10	0	0.1	0	0	399	0.2	399	400	17.3	96.8
2025-07-20T22:35	10	0	0.1	0	0	399	0.2	399	400	17.3	96.5
2025-07-20T22:36	10	0	0.1	0	0	399	0.2	399	400	17.3	96.7
2025-07-20T22:37	10	0	0.1	0	0	399	0.2	398	400	17.3	97.0
2025-07-20T22:38	10	0	0.1	0	0	399	0.2	399	400	17.3	96.9
2025-07-20T22:39	10	0	0.1	0	0	399	0.2	399	400	17.3	97.1
2025-07-20T22:40	10	0	0.1	0	0	399	0.3	399	400	17.3	97.0
2025-07-20T22:41	10	0	0.1	0	0	399	0.2	399	400	17.3	96.6
2025-07-20T22:42	10	0	0.1	0	0	399	0.2	399	400	17.3	96.9
2025-07-20T22:43	10	0	0.1	0	0	399	0.2	399	400	17.3	96.9
2025-07-20T22:44	10	0	0.1	0	0	400	0.2	399	400	17.3	96.9
2025-07-20T22:45	10	0	0.1	0	0	400	0.2	399	400	17.3	96.5
2025-07-20T22:46	10	0	0.1	0	0	400	0.2	399	400	17.3	96.7
2025-07-20T22:47	10	0	0.1	0	0	400	0.2	399	400	17.3	96.4
2025-07-20T22:48	10	0	0.1	0	0	400	0.3	399	400	17.3	96.5
2025-07-20T22:49	10	0	0.1	0	0	400	0.2	399	400	17.3	96.6
2025-07-20T22:50	10	0	0.0	0	0	400	0.2	399	400	17.3	95.5
2025-07-20T22:51	10	0	0.1	0	0	400	0.2	399	400	17.3	95.3
2025-07-20T22:52	10	0	0.1	0	0	400	0.2	399	401	17.3	94.7
2025-07-20T22:53	10	0	0.1	0	0	400	0.2	399	400	17.3	92.8
2025-07-20T22:54	10	0	0.1	0	0	400	0.3	399	401	17.4	91.2
2025-07-20T22:55	10	0	0.1	0	0	400	0.3	399	400	17.4	91.0
2025-07-20T22:56	10	0	0.1	0	0	400	0.2	399	400	17.4	90.2
2025-07-20T22:57	10	0	0.1	0	0	400	0.2	399	400	17.4	88.5
2025-07-20T22:58	10	0	0.1	0	0	399	0.2	399	400	17.4	88.2
2025-07-20T22:59	10	0	0.1	0	0	399	0.2	399	400	17.4	89.0
2025-07-20T23:00	10	0	0.1	0	0	399	0.3	398	400	17.4	90.5
2025-07-20T23:01	10	0	0.1	0	0	399	0.2	399	400	17.3	90.8
2025-07-20T23:02	10	0	0.1	0	0	399	0.3	398	400	17.3	91.6
2025-07-20T23:03	10	0	0.1	0	0	399	0.2	399	400	17.3	91.8
2025-07-20T23:04	10	0	0.1	0	0	399	0.3	398	400	17.2	92.2
2025-07-20T23:05	10	0	0.1	0	0	399	0.4	398	400	17.2	92.0
2025-07-20T23:06	10	0	0.1	0	0	398	0.3	397	399	17.1	91.2
2025-07-20T23:07	10	0	0.1	0	0	398	0.3	397	398	17.1	92.0
2025-07-20T23:08	10	0	0.1	0	0	397	0.3	397	398	17.1	92.5
2025-07-20T23:09	10	0	0.1	0	0	397	0.2	397	397	17.0	93.1
2025-07-20T23:10	10	0	0.1	0	0	397	0.2	396	397	17.0	94.2
2025-07-20T23:11	10	0	0.1	0	0	397	0.3	396	397	17.0	94.8
2025-07-20T23:12	10	0	0.1	0	0	397	0.3	397	398	17.0	94.0
2025-07-20T23:13	10	0	0.1	0	0	397	0.2	396	397	17.0	93.9
2025-07-20T23:14	10	0	0.1	0	0	397	0.2	397	398	17.0	94.2
2025-07-20T23:15	10	0	0.1	0	0	397	0.2	396	397	17.0	94.4
2025-07-20T23:16	10	0	0.1	0	0	397	0.2	397	398	16.9	94.4
2025-07-20T23:17	10	0	0.1	0	0	397	0.2	397	398	16.9	94.0
2025-07-20T23:18	10	0	0.1	0	0	397	0.2	396	397	17.0	94.2
2025-07-20T23:19	10	0	0.1	0	0	397	0.2	396	397	16.9	94.2
2025-07-20T23:20	10	0	0.0	0	0	397	0.2	396	397	16.9	94.3
2025-07-20T23:21	10	0	0.1	0	0	397	0.2	396	397	16.9	94.6
2025-07-20T23:22	10	0	0.1	0	0	397	0.2	396	397	16.9	94.8
2025-07-20T23:23	10	0	0.1	0	0	397	0.2	396	397	16.9	94.8
2025-07-20T23:24	10	0	0.1	0	0	397	0.2	396	397	17.0	95.0
2025-07-20T23:25	10	0	0.1	0	0	397	0.2	396	397	16.9	95.4
2025-07-20T23:26	10	0	0.1	0	0	397	0.2	397	397	16.9	95.2
2025-07-20T23:27	10	0	0.1	0	0	397	0.2	397	398	16.9	94.9
2025-07-20T23:28	10	0	0.1	0	0	397	0.2	396	397	16.9	95.2
2025-07-20T23:29	10	0	0.1	0	0	397	0.2	396	397	16.9	95.7
2025-07-20T23:30	10	0	0.1	0	0	397	0.2	396	397	16.9	95.7
2025-07-20T23:31	10	0	0.1	0	0	397	0.2	396	397	16.9	96.1
2025-07-20T23:32	10	0	0.1	0	0	397	0.2	396	397	16.9	96.6
2025-07-20T23:33	10	0	0.1	0	0	397	0.2	396	397	16.8	96.9
2025-07-20T23:34	10	0	0.1	0	0	397	0.2	397	398	16.8	96.6
2025-07-20T23:35	10	0	0.0	0	0	397	0.2	397	398	16.9	96.7
2025-07-20T23:36	10	0	0.1	0	0	397	0.2	397	398	16.9	96.9
2025-07-20T23:37	10	0	0.1	0	0	397	0.2	396	397	16.9	97.1
2025-07-20T23:38	10	0	0.1	0	1	397	0.2	397	398	16.9	97.5
2025-07-20T23:39	10	0	0.1	0	0	397	0.2	397	397	16.9	97.7
2025-07-20T23:40	10	0	0.1	0	0	397	0.2	397	397	16.8	97.8
2025-07-20T23:41	10	0	0.1	0	0	397	0.2	397	398	16.8	97.9
2025-07-20T23:42	10	0	0.1	0	0	397	0.2	396	397	16.8	98.1
2025-07-20T23:43	10	0	0.1	0	0	397	0.2	397	398	16.8	98.2
2025-07-20T23:44	10	0	0.1	0	0	397	0.2	397	398	16.8	98.1
2025-07-20T23:45	10	0	0.1	0	0	397	0.2	397	397	16.8	98.0
2025-07-20T23:46	10	0	0.1	0	0	397	0.2	397	398	16.9	98.4
2025-07-20T23:47	10	0	0.1	0	0	397	0.2	397	398	16.9	98.6
2025-07-20T23:48	10	0	0.1	0	0	397	0.2	397	398	16.8	98.6
2025-07-20T23:49	10	0	0.1	0	0	397	0.2	397	398	16.8	98.5
2025-07-20T23:50	10	0	0.1	0	0	397	0.2	397	398	16.8	98.6
2025-07-20T23:51	10	0	0.1	0	0	397	0.2	397	398	16.8	98.5
2025-07-20T23:52	10	0	0.1	0	0	397	0.2	397	397	16.8	98.7
2025-07-20T23:53	10	0	0.1	0	0	397	0.2	397	397	16.8	98.8
2025-07-20T23:54	10	0	0.1	0	0	397	0.2	397	398	16.8	98.9
2025-07-20T23:55	10	0	0.1	0	1	397	0.2	397	398	16.8	98.9
2025-07-20T23:56	10	0	0.1	0	0	397	0.2	397	398	16.9	99.0
2025-07-20T23:57	10	0	0.1	0	0	398	0.2	397	398	16.9	99.0
2025-07-20T23:58	10	0	0.1	0	0	397	0.3	397	398	16.9	99.1
2025-07-20T23:59	10	0	0.1	0	0	397	0.2	397	398	16.8	99.0
2025-07-21T00:00	10	0	0.1	0	0	397	0.2	397	398	16.8	99.2
2025-07-21T00:01	10	0	0.1	0	0	397	0.2	397	398	16.8	99.2
2025-07-21T00:02	10	0	0.1	0	0	397	0.2	397	398	16.8	99.3
2025-07-21T00:03	10	0	0.1	0	0	397	0.2	397	398	16.8	99.3
2025-07-21T00:04	10	0	0.1	0	0	397	0.2	397	398	16.8	99.2
2025-07-21T00:05	10	0	0.1	0	0	397	0.2	397	398	16.8	99.2
2025-07-21T00:06	10	0	0.1	0	0	398	0.2	397	398	16.9	99.2
2025-07-21T00:07	10	0	0.1	0	0	397	0.2	397	398	16.9	99.0
2025-07-21T00:08	10	0	0.1	0	0	398	0.2	397	398	16.9	99.1
2025-07-21T00:09	10	0	0.1	0	0	398	0.2	397	398	16.9	99.1
2025-07-21T00:10	10	0	0.1	0	0	398	0.2	397	398	16.9	99.1
2025-07-21T00:11	10	0	0.1	0	0	398	0.2	398	398	17.0	99.0
2025-07-21T00:12	10	0	0.1	0	0	398	0.2	398	399	17.0	98.9
2025-07-21T00:13	10	0	0.1	0	0	398	0.2	398	399	17.0	99.0
2025-07-21T00:14	10	0	0.1	0	0	398	0.3	398	399	17.0	99.0
2025-07-21T00:15	10	0	0.1	0	0	398	0.2	398	399	17.0	99.0
2025-07-21T00:16	10	0	0.1	0	0	398	0.2	398	399	17.1	99.0
2025-07-21T00:17	10	0	0.1	0	0	398	0.2	398	399	17.1	98.9
2025-07-21T00:18	10	0	0.1	0	0	398	0.2	398	399	17.1	99.0
2025-07-21T00:19	10	0	0.1	0	0	398	0.2	398	399	17.0	99.1
2025-07-21T00:20	10	0	0.1	0	0	399	0.2	398	399	17.0	99.1
2025-07-21T00:21	10	0	0.1	0	0	398	0.1	398	399	17.0	99.1
2025-07-21T00:22	10	0	0.1	0	0	399	0.2	398	399	17.0	99.2
2025-07-21T00:23	10	0	0.1	0	0	398	0.2	398	399	17.0	99.2
2025-07-21T00:24	10	0	0.1	0	0	399	0.1	398	399	17.0	99.4
2025-07-21T00:25	10	0	0.1	0	0	399	0.2	398	399	17.0	99.3
2025-07-21T00:26	10	0	0.1	0	0	398	0.2	398	399	17.0	99.5
2025-07-21T00:27	10	0	0.1	0	0	398	0.2	398	399	17.0	99.4
2025-07-21T00:28	10	0	0.1	0	0	398	0.3	398	399	17.0	99.4
2025-07-21T00:29	10	0	0.1	0	0	398	0.3	398	399	17.0	99.6
2025-07-21T00:30	10	0	0.1	0	1	398	0.2	398	399	17.0	99.4
2025-07-21T00:31	10	0	0.1	0	0	398	0.3	398	399	17.1	99.3
2025-07-21T00:32	10	0	0.1	0	0	398	0.2	398	399	17.0	99.4
2025-07-21T00:33	10	0	0.1	0	0	398	0.3	398	399	17.0	99.3
2025-07-21T00:34	10	0	0.1	0	0	398	0.3	398	399	17.0	99.1
2025-07-21T00:35	10	0	0.1	0	0	398	0.2	398	399	17.0	98.6
2025-07-21T00:36	10	0	0.1	0	0	398	0.1	398	398	17.0	98.2
2025-07-21T00:37	10	0	0.1	0	0	398	0.2	398	399	17.0	97.7
2025-07-21T00:38	10	0	0.1	0	0	398	0.2	397	398	17.0	97.7
2025-07-21T00:39	10	0	0.1	0	0	398	0.3	397	399	17.0	96.8
2025-07-21T00:40	10	0	0.1	0	1	398	0.3	397	398	17.1	94.2
2025-07-21T00:41	10	0	0.1	0	1	397	0.3	396	398	17.2	93.4
2025-07-21T00:42	10	0	0.1	0	0	397	0.2	397	398	17.2	93.3
2025-07-21T00:43	10	0	0.1	0	0	397	0.2	396	397	17.1	93.6
2025-07-21T00:44	10	0	0.1	0	0	397	0.2	396	397	17.1	93.0
2025-07-21T00:45	10	0	0.1	0	0	397	0.3	396	397	17.1	92.0
2025-07-21T00:46	10	0	0.1	0	0	396	0.2	396	397	17.1	91.4
2025-07-21T00:47	10	0	0.1	0	0	396	0.2	395	396	17.1	91.5
2025-07-21T00:48	10	0	0.1	0	0	396	0.3	395	396	17.0	92.2
2025-07-21T00:49	10	0	0.1	0	0	396	0.2	395	396	17.0	92.6
2025-07-21T00:50	10	0	0.1	0	0	396	0.2	395	396	16.9	92.7
2025-07-21T00:51	10	0	0.1	0	1	395	0.2	395	396	16.9	93.4
2025-07-21T00:52	10	0	0.1	0	0	395	0.2	395	396	16.9	92.2
2025-07-21T00:53	10	0	0.1	0	1	395	0.2	395	396	16.9	91.7
2025-07-21T00:54	10	0	0.1	0	0	395	0.2	395	396	16.9	91.7
2025-07-21T00:55	10	0	0.1	0	0	395	0.2	395	396	16.8	91.1
2025-07-21T00:56	10	0	0.1	0	0	395	0.2	395	396	16.9	91.1
2025-07-21T00:57	10	0	0.2	0	1	395	0.2	394	395	16.8	90.4
2025-07-21T00:58	10	0	0.2	0	1	395	0.2	395	395	16.9	88.8
2025-07-21T00:59	10	0	0.2	0	1	395	0.2	394	395	16.9	89.0
2025-07-21T01:00	10	0	0.1	0	1	394	0.2	394	395	16.8	89.1
2025-07-21T01:01	10	0	0.1	0	0	395	0.3	394	395	16.8	89.2
2025-07-21T01:02	10	0	0.1	0	0	394	0.2	394	395	16.8	89.7
2025-07-21T01:03	10	0	0.1	0	0	395	0.2	394	395	16.8	90.4
2025-07-21T01:04	10	0	0.1	0	0	395	0.3	394	395	16.7	90.6
2025-07-21T01:05	10	0	0.1	0	0	394	0.3	394	395	16.7	90.8
2025-07-21T01:06	10	0	0.1	0	0	394	0.3	394	395	16.7	89.4
2025-07-21T01:07	10	0	0.2	0	1	394	0.3	393	395	16.7	89.3
2025-07-21T01:08	10	0	0.1	0	0	394	0.2	394	395	16.7	89.6
2025-07-21T01:09	10	0	0.1	0	0	394	0.3	393	395	16.6	89.7
2025-07-21T01:10	10	0	0.2	0	1	394	0.2	394	394	16.6	90.3
2025-07-21T01:11	10	0	0.1	0	0	394	0.2	394	394	16.6	90.5
2025-07-21T01:12	10	0	0.1	0	0	394	0.3	393	395	16.6	90.4
2025-07-21T01:13	10	0	0.1	0	0	394	0.2	393	394	16.5	90.5
2025-07-21T01:14	10	0	0.1	0	1	394	0.3	393	395	16.5	91.3
2025-07-21T01:15	10	0	0.2	0	0	394	0.2	393	394	16.4	91.5
2025-07-21T01:16	10	0	0.2	0	1	394	0.3	393	394	16.4	91.6
2025-07-21T01:17	10	0	0.1	0	1	394	0.2	393	394	16.4	91.8
2025-07-21T01:18	10	0	0.2	0	1	393	0.2	393	394	16.4	92.1
2025-07-21T01:19	10	0	0.2	0	1	394	0.2	393	394	16.3	92.2
2025-07-21T01:20	10	0	0.2	0	1	393	0.2	393	394	16.3	92.9
2025-07-21T01:21	10	0	0.2	0	1	393	0.3	393	394	16.3	93.9
2025-07-21T01:22	10	0	0.2	0	0	393	0.2	393	394	16.2	93.9
2025-07-21T01:23	10	0	0.1	0	1	393	0.2	393	394	16.2	93.9
2025-07-21T01:24	10	0	0.1	0	1	393	0.2	393	393	16.1	93.8
2025-07-21T01:25	10	0	0.1	0	0	393	0.2	392	393	16.2	93.1
2025-07-21T01:26	10	0	0.2	0	1	393	0.3	392	393	16.1	93.3
2025-07-21T01:27	10	0	0.1	0	0	393	0.3	392	393	16.1	93.3
2025-07-21T01:28	10	0	0.1	0	1	393	0.3	392	393	16.1	92.4
2025-07-21T01:29	10	0	0.1	0	1	392	0.2	392	393	16.2	91.7
2025-07-21T01:30	10	0	0.1	0	1	392	0.3	392	393	16.2	91.4
2025-07-21T01:31	10	0	0.1	0	1	392	0.3	392	393	16.3	90.6
2025-07-21T01:32	10	0	0.1	0	0	392	0.2	392	393	16.5	89.1
2025-07-21T01:33	10	0	0.2	0	1	393	0.3	392	393	16.5	88.7
2025-07-21T01:34	10	0	0.2	0	1	393	0.2	392	393	16.6	87.6
2025-07-21T01:35	10	0	0.1	0	1	393	0.3	392	393	16.7	85.8
2025-07-21T01:36	10	0	0.2	0	1	393	0.3	392	393	16.7	85.9
2025-07-21T01:37	10	0	0.1	0	1	393	0.2	392	393	16.7	85.7
2025-07-21T01:38	10	0	0.1	0	1	392	0.3	392	393	16.8	85.6
2025-07-21T01:39	10	0	0.1	0	1	392	0.2	391	393	16.6	87.4
2025-07-21T01:40	10	0	0.1	0	1	392	0.2	392	393	16.5	87.3
2025-07-21T01:41	10	0	0.1	0	1	392	0.3	391	393	16.5	87.2
2025-07-21T01:42	10	0	0.1	0	1	391	0.3	391	392	16.5	88.2
2025-07-21T01:43	10	0	0.1	0	1	392	0.2	391	392	16.4	89.0
2025-07-21T01:44	10	0	0.1	0	1	392	0.2	391	392	16.4	87.9
2025-07-21T01:45	10	0	0.1	0	1	392	0.2	392	393	16.5	86.7
2025-07-21T01:46	10	0	0.1	0	1	392	0.2	391	392	16.5	88.0
2025-07-21T01:47	10	0	0.1	0	0	391	0.2	391	392	16.4	88.4
2025-07-21T01:48	10	0	0.1	0	0	391	0.2	391	392	16.4	87.7
2025-07-21T01:49	10	0	0.1	0	0	391	0.2	391	392	16.3	88.9
2025-07-21T01:50	10	0	0.1	0	0	391	0.2	391	392	16.3	89.3
2025-07-21T01:51	10	0	0.1	0	0	391	0.2	391	392	16.3	91.6
2025-07-21T01:52	10	0	0.0	0	0	391	0.2	390	392	16.2	93.1
2025-07-21T01:53	10	0	0.1	0	0	391	0.2	391	392	16.1	93.8
2025-07-21T01:54	10	0	0.1	0	0	391	0.3	390	392	16.0	94.6
2025-07-21T01:55	10	0	0.1	0	0	391	0.2	391	392	16.0	94.4
2025-07-21T01:56	10	0	0.1	0	0	392	0.3	391	392	16.1	93.7
2025-07-21T01:57	10	0	0.1	0	0	391	0.2	391	392	16.1	93.5
2025-07-21T01:58	10	0	0.1	0	0	391	0.2	391	392	16.1	93.5
2025-07-21T01:59	10	0	0.1	0	0	392	0.2	391	392	16.2	92.4
2025-07-21T02:00	10	0	0.1	0	0	392	0.2	391	392	16.2	93.0
2025-07-21T02:01	10	0	0.1	0	0	391	0.2	391	392	16.2	93.7
2025-07-21T02:02	10	0	0.0	0	0	391	0.3	391	392	16.1	94.1
2025-07-21T02:03	10	0	0.1	0	0	391	0.3	391	392	16.1	93.3
2025-07-21T02:04	10	0	0.1	0	0	391	0.2	391	392	16.2	92.9
2025-07-21T02:05	10	0	0.1	0	0	392	0.2	391	392	16.2	92.9
2025-07-21T02:06	10	0	0.1	0	0	391	0.2	391	392	16.2	93.5
2025-07-21T02:07	10	0	0.1	0	0	391	0.2	391	392	16.2	93.4
2025-07-21T02:08	10	0	0.1	0	0	391	0.2	391	392	16.2	93.2
2025-07-21T02:09	10	0	0.1	0	0	391	0.2	390	392	16.1	93.6
2025-07-21T02:10	10	0	0.1	0	0	391	0.3	390	392	16.1	94.3
2025-07-21T02:11	10	0	0.1	0	0	391	0.3	390	392	16.0	94.7
2025-07-21T02:12	10	0	0.1	0	0	391	0.2	390	391	16.0	94.8
2025-07-21T02:13	10	0	0.1	0	0	391	0.2	390	391	16.0	94.9
2025-07-21T02:14	10	0	0.1	0	0	391	0.2	390	391	16.0	95.1
2025-07-21T02:15	10	0	0.1	0	0	391	0.2	390	391	15.9	95.3
2025-07-21T02:16	10	0	0.1	0	0	391	0.2	390	391	15.9	95.6
2025-07-21T02:17	10	0	0.1	0	0	391	0.2	390	391	15.9	95.8
2025-07-21T02:18	10	0	0.1	0	0	391	0.2	390	391	15.9	95.7
2025-07-21T02:19	10	0	0.1	0	0	390	0.2	390	391	15.9	95.9
2025-07-21T02:20	10	0	0.1	0	0	391	0.2	390	391	15.8	95.8
2025-07-21T02:21	10	0	0.1	0	0	390	0.2	390	391	15.8	95.9
2025-07-21T02:22	10	0	0.1	0	0	390	0.2	390	391	15.8	95.8
2025-07-21T02:23	10	0	0.1	0	0	391	0.3	390	391	15.8	95.7
2025-07-21T02:24	10	0	0.0	0	0	390	0.2	390	391	15.9	95.5
2025-07-21T02:25	10	0	0.1	0	0	390	0.3	390	391	15.8	95.9
2025-07-21T02:26	10	0	0.1	0	0	391	0.2	390	391	15.8	95.6
2025-07-21T02:27	10	0	0.1	0	0	391	0.2	390	391	15.9	95.4
2025-07-21T02:28	10	0	0.1	0	0	391	0.2	390	391	15.9	95.3
2025-07-21T02:29	10	0	0.1	0	0	391	0.2	390	391	15.9	94.8
2025-07-21T02:30	10	0	0.1	0	0	391	0.3	390	391	15.9	94.5
2025-07-21T02:31	10	0	0.1	0	0	391	0.2	390	391	15.9	94.3
2025-07-21T02:32	10	0	0.1	0	0	391	0.2	390	391	15.9	94.2
2025-07-21T02:33	10	0	0.1	0	0	390	0.2	390	391	16.0	94.0
2025-07-21T02:34	10	0	0.1	0	0	390	0.2	390	391	16.0	94.4
2025-07-21T02:35	10	0	0.1	0	0	390	0.2	390	391	15.9	94.7
2025-07-21T02:36	10	0	0.9	0	6	391	0.2	390	391	15.9	95.0
2025-07-21T02:37	10	0	0.1	0	0	390	0.3	390	391	15.9	95.2
2025-07-21T02:38	10	0	0.1	0	0	390	0.1	390	391	15.9	95.3
2025-07-21T02:39	10	0	0.1	0	0	390	0.2	390	391	15.9	95.3
2025-07-21T02:40	10	0	0.1	0	0	390	0.3	390	391	15.9	95.4
2025-07-21T02:41	10	0	0.1	0	0	390	0.2	390	391	15.8	95.7
2025-07-21T02:42	10	0	0.1	0	0	390	0.2	389	391	15.8	95.6
2025-07-21T02:43	10	0	0.1	0	0	390	0.3	389	391	15.8	95.7
2025-07-21T02:44	10	0	0.1	0	0	390	0.2	390	391	15.8	95.5
2025-07-21T02:45	10	0	0.1	0	0	390	0.2	390	390	15.8	95.8
2025-07-21T02:46	10	0	0.1	0	0	390	0.2	389	390	15.8	95.9
2025-07-21T02:47	10	0	0.1	0	0	390	0.2	389	390	15.8	95.9
2025-07-21T02:48	10	0	0.1	0	0	390	0.2	389	390	15.8	95.8
2025-07-21T02:49	10	0	0.1	0	0	389	0.3	389	390	15.8	95.6
2025-07-21T02:50	10	0	0.1	0	0	389	0.3	389	390	15.8	95.8
2025-07-21T02:51	10	0	0.1	0	0	389	0.2	389	390	15.8	95.9
2025-07-21T02:52	10	0	0.1	0	0	390	0.3	389	390	15.8	95.8
2025-07-21T02:53	10	0	0.1	0	0	390	0.2	390	391	15.8	95.9
2025-07-21T02:54	10	0	0.1	0	0	390	0.3	389	391	15.9	96.2
2025-07-21T02:55	10	0	0.1	0	0	390	0.2	389	390	15.9	96.3
2025-07-21T02:56	10	0	0.1	0	0	390	0.2	389	390	15.9	96.2
2025-07-21T02:57	10	0	0.1	0	0	390	0.2	389	390	15.9	96.2
2025-07-21T02:58	10	0	0.1	0	0	389	0.2	389	390	15.9	96.2
2025-07-21T02:59	10	0	0.1	0	0	389	0.3	389	390	15.9	96.1
2025-07-21T03:00	10	0	0.1	0	0	389	0.2	389	390	15.9	96.3
2025-07-21T03:01	10	0	0.1	0	0	389	0.2	389	390	15.9	96.3
2025-07-21T03:02	10	0	0.1	0	0	389	0.3	388	390	15.9	95.7
2025-07-21T03:03	10	0	0.1	0	0	389	0.3	388	390	15.9	96.0
2025-07-21T03:04	10	0	0.1	0	0	389	0.2	389	390	15.9	96.4
2025-07-21T03:05	10	0	0.1	0	0	389	0.2	389	390	15.9	96.4
2025-07-21T03:06	10	0	0.1	0	0	390	0.2	389	390	15.8	96.2
2025-07-21T03:07	10	0	0.1	0	0	389	0.2	389	390	15.8	96.3
2025-07-21T03:08	10	0	0.0	0	0	389	0.2	388	389	15.7	97.0
2025-07-21T03:09	10	0	0.1	0	0	389	0.2	388	389	15.6	97.3
2025-07-21T03:10	10	0	0.1	0	0	389	0.2	389	389	15.6	97.4
2025-07-21T03:11	10	0	0.1	0	0	389	0.2	389	389	15.6	97.2
2025-07-21T03:12	10	0	0.1	0	0	389	0.2	388	389	15.6	97.2
2025-07-21T03:13	10	0	0.1	0	0	389	0.2	388	389	15.6	97.4
2025-07-21T03:14	10	0	0.1	0	0	389	0.2	389	389	15.6	96.9
2025-07-21T03:15	10	0	0.1	0	0	389	0.2	389	389	15.6	96.5
2025-07-21T03:16	10	0	0.1	0	0	389	0.3	388	389	15.6	96.2
2025-07-21T03:17	10	0	0.1	0	0	389	0.3	388	390	15.7	95.4
2025-07-21T03:18	10	0	0.1	0	0	389	0.2	388	389	15.7	95.2
2025-07-21T03:19	10	0	0.1	0	0	389	0.2	388	389	15.7	95.0
2025-07-21T03:20	10	0	0.1	0	0	389	0.2	388	389	15.7	94.3
2025-07-21T03:21	10	0	0.1	0	0	388	0.3	388	389	15.8	94.1
2025-07-21T03:22	10	0	0.1	0	0	388	0.2	388	389	15.8	94.2
2025-07-21T03:23	10	0	0.1	0	0	388	0.3	387	389	15.8	94.3
2025-07-21T03:24	10	0	0.1	0	0	388	0.3	387	389	15.8	94.1
2025-07-21T03:25	10	0	0.1	0	0	388	0.2	387	389	15.8	94.1
2025-07-21T03:26	10	0	0.1	0	0	388	0.2	388	389	15.8	93.9
2025-07-21T03:27	10	0	0.1	0	0	388	0.2	388	389	15.8	94.0
2025-07-21T03:28	10	0	0.1	0	0	388	0.2	388	389	15.8	93.8
2025-07-21T03:29	10	0	0.1	0	0	388	0.2	388	389	15.7	94.3
2025-07-21T03:30	10	0	0.1	0	0	388	0.2	388	388	15.7	95.0
2025-07-21T03:31	10	0	0.1	0	0	388	0.2	388	389	15.6	95.6
2025-07-21T03:32	10	0	0.1	0	0	388	0.2	387	388	15.6	95.8
2025-07-21T03:33	10	0	0.1	0	0	388	0.2	387	389	15.6	95.2
2025-07-21T03:34	10	0	0.1	0	0	388	0.2	388	388	15.6	95.3
2025-07-21T03:35	10	0	0.1	0	0	388	0.2	387	389	15.6	95.4
2025-07-21T03:36	10	0	0.1	0	0	388	0.2	387	388	15.6	95.2
2025-07-21T03:37	10	0	0.1	0	0	388	0.2	388	389	15.6	95.3
2025-07-21T03:38	10	0	0.1	0	0	388	0.2	388	389	15.7	94.6
2025-07-21T03:39	10	0	0.1	0	0	389	0.3	388	389	15.8	93.7
2025-07-21T03:40	10	0	0.1	0	0	388	0.3	387	389	15.8	93.1
2025-07-21T03:41	10	0	0.1	0	0	388	0.3	387	389	15.8	93.3
2025-07-21T03:42	10	0	0.1	0	0	388	0.3	388	389	15.8	93.1
2025-07-21T03:43	10	0	0.1	0	0	388	0.2	388	389	15.9	92.6
2025-07-21T03:44	10	0	0.1	0	0	388	0.2	388	389	15.8	93.2
2025-07-21T03:45	10	0	0.1	0	0	388	0.3	387	389	15.8	93.2
2025-07-21T03:46	10	0	0.1	0	0	389	0.3	388	389	15.8	92.9
2025-07-21T03:47	10	0	0.1	0	0	389	0.2	388	389	15.8	93.2
2025-07-21T03:48	10	0	0.1	0	1	388	0.2	388	389	15.8	93.0
2025-07-21T03:49	10	0	0.1	0	0	388	0.2	388	389	15.8	93.6
2025-07-21T03:50	10	0	0.1	0	0	388	0.2	388	389	15.8	93.3
2025-07-21T03:51	10	0	0.1	0	0	388	0.3	388	389	15.8	93.3
2025-07-21T03:52	10	0	0.1	0	0	388	0.2	388	389	15.9	92.6
2025-07-21T03:53	10	0	0.1	0	0	388	0.2	388	389	15.9	92.7
2025-07-21T03:54	10	0	0.1	0	0	389	0.2	388	389	15.9	92.5
2025-07-21T03:55	10	0	0.1	0	0	389	0.2	388	389	15.9	92.5
2025-07-21T03:56	10	0	0.1	0	0	389	0.2	388	389	15.9	92.7
2025-07-21T03:57	10	0	0.1	0	0	389	0.3	388	389	15.9	93.0
2025-07-21T03:58	10	0	0.1	0	0	389	0.2	388	389	15.8	93.6
2025-07-21T03:59	10	0	0.1	0	0	389	0.3	388	389	15.8	93.9
2025-07-21T04:00	10	0	0.1	0	0	388	0.2	388	389	15.7	94.4
2025-07-21T04:01	10	0	0.1	0	0	388	0.2	388	389	15.7	94.3
2025-07-21T04:02	10	0	0.1	0	0	388	0.2	388	389	15.7	94.8
2025-07-21T04:03	10	0	0.1	0	0	388	0.2	388	389	15.6	95.2
2025-07-21T04:04	10	0	0.1	0	0	389	0.2	388	389	15.6	95.4
2025-07-21T04:05	10	0	0.1	0	0	388	0.3	387	389	15.6	95.8
2025-07-21T04:06	10	0	0.1	0	0	388	0.3	388	389	15.5	96.1
2025-07-21T04:07	10	0	0.1	0	0	388	0.2	388	389	15.5	96.2
2025-07-21T04:08	10	0	0.1	0	0	388	0.2	388	389	15.5	96.0
2025-07-21T04:09	10	0	0.1	0	0	388	0.2	388	389	15.6	95.8
2025-07-21T04:10	10	0	0.1	0	0	388	0.3	388	389	15.6	95.7
2025-07-21T04:11	10	0	0.1	0	0	388	0.3	388	389	15.6	95.5
2025-07-21T04:12	10	0	0.1	0	0	388	0.2	388	389	15.6	95.3
2025-07-21T04:13	10	0	0.1	0	1	388	0.2	388	389	15.6	95.0
2025-07-21T04:14	10	0	0.1	0	1	388	0.3	388	389	15.7	94.8
2025-07-21T04:15	10	0	0.1	0	0	388	0.2	388	389	15.6	94.9
2025-07-21T04:16	10	0	0.1	0	1	388	0.2	388	389	15.6	94.8
2025-07-21T04:17	10	0	0.1	0	1	388	0.2	388	389	15.6	94.9
2025-07-21T04:18	10	0	0.1	0	1	389	0.3	388	389	15.6	94.9
2025-07-21T04:19	10	0	0.1	0	1	388	0.2	388	389	15.7	94.7
2025-07-21T04:20	10	1	0.1	0	1	388	0.2	388	389	15.6	95.0
2025-07-21T04:21	10	1	0.1	0	1	388	0.2	388	389	15.7	94.9
2025-07-21T04:22	10	1	0.1	0	1	389	0.3	388	389	15.7	94.6
2025-07-21T04:23	10	1	0.1	0	1	388	0.2	388	389	15.7	94.5
2025-07-21T04:24	10	1	0.1	0	1	388	0.2	388	389	15.7	94.5
2025-07-21T04:25	10	1	0.1	0	1	389	0.2	388	389	15.8	93.6
2025-07-21T04:26	10	1	0.1	0	1	389	0.2	388	389	15.8	93.6
2025-07-21T04:27	10	1	0.1	1	1	389	0.2	388	389	15.8	93.3
2025-07-21T04:28	10	1	0.1	1	1	389	0.2	388	389	15.9	92.2
2025-07-21T04:29	10	1	0.1	1	1	389	0.2	388	389	15.9	91.9
2025-07-21T04:30	10	1	0.1	1	1	389	0.3	388	389	16.0	91.6
2025-07-21T04:31	10	1	0.1	1	1	389	0.2	388	389	16.0	91.6
2025-07-21T04:32	10	1	0.1	1	1	389	0.2	389	390	16.0	90.9
2025-07-21T04:33	10	1	0.1	1	1	389	0.3	389	390	16.0	91.1
2025-07-21T04:34	10	1	0.1	1	1	390	0.2	389	390	16.0	90.7
2025-07-21T04:35	10	1	0.1	1	1	390	0.2	389	391	15.9	90.9
2025-07-21T04:36	10	1	0.1	1	1	390	0.2	390	391	15.9	90.8
2025-07-21T04:37	10	1	0.1	1	1	391	0.2	390	391	15.9	90.9
2025-07-21T04:38	10	1	0.1	1	1	391	0.2	390	391	15.9	91.1
2025-07-21T04:39	10	1	0.1	1	1	391	0.2	390	391	15.9	91.4
2025-07-21T04:40	10	1	0.1	1	1	391	0.2	390	391	15.9	91.5
2025-07-21T04:41	10	1	0.1	1	2	391	0.2	390	391	15.9	91.3
2025-07-21T04:42	10	2	0.1	1	2	391	0.2	390	391	15.9	91.3
2025-07-21T04:43	10	2	0.1	2	2	391	0.2	390	391	15.9	90.9
2025-07-21T04:44	10	2	0.1	2	2	391	0.3	390	391	16.0	90.4
2025-07-21T04:45	10	2	0.1	2	2	391	0.2	390	391	16.0	90.5
2025-07-21T04:46	10	2	0.1	2	2	391	0.2	391	392	16.0	91.0
2025-07-21T04:47	10	2	0.1	2	3	391	0.3	390	392	16.0	91.6
2025-07-21T04:48	10	2	0.1	2	2	391	0.2	390	391	15.9	92.4
2025-07-21T04:49	10	2	0.1	2	2	391	0.2	391	392	15.9	92.5
2025-07-21T04:50	10	2	0.1	1	2	392	0.2	391	392	15.9	92.9
2025-07-21T04:51	10	1	0.1	1	2	392	0.2	391	392	15.9	92.8
2025-07-21T04:52	10	1	0.1	1	2	392	0.2	392	392	15.9	93.7
2025-07-21T04:53	10	1	0.1	1	2	392	0.2	392	393	15.8	94.1
2025-07-21T04:54	10	1	0.1	1	2	392	0.2	391	392	15.8	94.6
2025-07-21T04:55	10	2	0.1	1	2	392	0.2	391	392	15.7	95.2
2025-07-21T04:56	10	2	0.1	1	2	392	0.2	391	392	15.7	95.5
2025-07-21T04:57	10	2	0.1	1	2	392	0.3	391	392	15.6	95.8
2025-07-21T04:58	10	2	0.1	1	2	391	0.3	391	392	15.6	96.1
2025-07-21T04:59	10	2	0.1	1	2	391	0.2	391	391	15.6	96.2
2025-07-21T05:00	10	2	0.1	1	2	391	0.2	391	392	15.6	96.3
2025-07-21T05:01	10	2	0.1	2	2	391	0.3	391	392	15.6	95.1
2025-07-21T05:02	10	2	0.1	1	2	392	0.2	391	392	15.7	94.5
2025-07-21T05:03	10	2	0.1	2	2	392	0.2	391	392	15.7	93.9
2025-07-21T05:04	10	2	0.1	2	2	392	0.2	391	392	15.8	93.4
2025-07-21T05:05	10	2	0.1	2	2	392	0.2	391	392	15.9	92.6
2025-07-21T05:06	10	2	0.1	2	3	392	0.2	391	392	15.9	92.9
2025-07-21T05:07	10	2	0.1	2	2	392	0.2	392	393	15.9	92.4
2025-07-21T05:08	10	2	0.1	2	2	392	0.2	392	393	15.9	92.6
2025-07-21T05:09	10	2	0.1	2	2	392	0.3	392	393	15.9	93.4
2025-07-21T05:10	10	2	0.1	1	2	393	0.2	392	393	15.9	93.0
2025-07-21T05:11	10	2	0.1	1	2	393	0.2	393	393	16.0	92.0
2025-07-21T05:12	10	2	0.1	1	2	393	0.3	392	393	16.0	91.9
2025-07-21T05:13	10	2	0.1	2	2	393	0.2	393	394	16.0	91.6
2025-07-21T05:14	10	2	0.2	2	3	393	0.3	392	394	16.0	92.0
2025-07-21T05:15	10	3	0.2	2	3	393	0.2	393	393	16.0	92.6
2025-07-21T05:16	10	3	0.1	3	4	393	0.2	392	393	16.0	92.8
2025-07-21T05:17	10	4	0.1	3	4	393	0.2	392	394	15.9	92.9
2025-07-21T05:18	10	4	0.1	4	4	393	0.2	393	394	15.9	93.6
2025-07-21T05:19	10	4	0.3	4	5	393	0.2	393	393	15.9	94.3
2025-07-21T05:20	10	5	0.3	5	6	393	0.2	393	394	15.9	94.7
2025-07-21T05:21	10	6	0.2	6	7	393	0.2	392	394	15.8	94.8
2025-07-21T05:22	10	7	0.2	6	7	393	0.2	392	394	15.8	95.3
2025-07-21T05:23	10	8	0.3	7	8	393	0.2	393	394	15.8	95.8
2025-07-21T05:24	10	8	0.2	8	9	393	0.3	393	394	15.8	95.9
2025-07-21T05:25	10	9	0.2	9	9	393	0.2	393	394	15.8	95.5
2025-07-21T05:26	10	9	0.1	9	10	393	0.2	393	394	15.8	95.2
2025-07-21T05:27	10	9	0.1	9	10	394	0.3	393	395	15.8	95.4
2025-07-21T05:28	10	9	0.2	8	9	394	0.3	393	394	15.8	95.2
2025-07-21T05:29	10	8	0.1	8	8	394	0.3	394	395	15.8	95.3
2025-07-21T05:30	10	8	0.1	7	8	394	0.2	394	395	15.8	94.9
2025-07-21T05:31	10	7	0.2	7	7	395	0.2	394	395	15.9	94.4
2025-07-21T05:32	10	6	0.2	6	7	395	0.2	394	396	15.9	94.3
2025-07-21T05:33	10	6	0.1	6	6	395	0.3	394	396	16.0	93.9
2025-07-21T05:34	10	6	0.2	6	6	395	0.3	394	396	16.0	94.2
2025-07-21T05:35	10	7	0.4	6	8	395	0.2	395	396	16.0	94.0
2025-07-21T05:36	10	8	0.4	7	9	396	0.2	395	396	16.0	93.9
2025-07-21T05:37	10	9	0.2	9	9	396	0.2	395	396	16.1	94.5
2025-07-21T05:38	10	9	0.1	9	10	396	0.3	395	397	16.0	94.2
2025-07-21T05:39	10	9	0.1	9	9	396	0.3	395	397	16.1	93.1
2025-07-21T05:40	10	9	0.2	8	9	396	0.2	395	396	16.1	93.3
2025-07-21T05:41	10	8	0.1	8	9	396	0.2	395	396	16.1	93.3
2025-07-21T05:42	10	8	0.1	8	8	396	0.2	395	396	16.1	93.0
2025-07-21T05:43	10	8	0.2	8	9	396	0.2	395	396	16.1	93.1
2025-07-21T05:44	10	9	0.3	9	10	396	0.2	395	396	16.1	93.1
2025-07-21T05:45	10	10	0.3	10	11	396	0.2	395	396	16.2	93.1
2025-07-21T05:46	10	11	0.2	10	11	396	0.3	395	397	16.2	92.9
2025-07-21T05:47	10	11	0.1	11	12	396	0.2	395	396	16.2	92.9
2025-07-21T05:48	10	12	0.1	11	12	396	0.3	395	397	16.3	92.9
2025-07-21T05:49	10	12	0.1	11	12	396	0.2	396	397	16.2	92.7
2025-07-21T05:50	10	11	0.2	11	12	396	0.2	396	396	16.3	92.8
2025-07-21T05:51	10	11	0.2	11	11	396	0.3	396	397	16.3	93.1
2025-07-21T05:52	10	10	0.2	10	11	396	0.3	395	396	16.3	93.4
2025-07-21T05:53	10	10	0.1	10	10	396	0.2	395	396	16.3	93.6
2025-07-21T05:54	10	9	0.1	9	10	396	0.2	395	396	16.3	92.8
2025-07-21T05:55	10	9	0.1	9	10	396	0.2	395	396	16.3	92.9
2025-07-21T05:56	10	10	0.1	9	10	395	0.2	395	396	16.3	92.8
2025-07-21T05:57	10	10	0.1	10	10	396	0.2	395	396	16.3	92.5
2025-07-21T05:58	10	10	0.1	10	10	396	0.2	395	396	16.4	92.3
2025-07-21T05:59	10	11	0.1	10	11	396	0.2	395	396	16.4	92.3
2025-07-21T06:00	10	11	0.1	11	11	396	0.3	395	397	16.4	92.3
2025-07-21T06:01	10	11	0.1	11	11	396	0.2	396	397	16.4	90.9
2025-07-21T06:02	10	11	0.1	11	11	396	0.2	396	397	16.5	90.6
2025-07-21T06:03	10	11	0.1	11	11	397	0.3	396	397	16.5	91.2
2025-07-21T06:04	10	11	0.1	10	11	397	0.2	396	397	16.5	91.4
2025-07-21T06:05	10	10	0.1	10	11	397	0.2	396	397	16.5	90.9
2025-07-21T06:06	10	10	0.1	10	10	397	0.2	397	397	16.5	90.4
2025-07-21T06:07	10	10	0.1	10	10	397	0.2	396	397	16.6	90.5
2025-07-21T06:08	10	10	0.1	10	10	397	0.3	396	398	16.6	90.8
2025-07-21T06:09	10	10	0.1	10	10	397	0.2	397	397	16.6	90.6
2025-07-21T06:10	10	10	0.1	9	10	397	0.2	397	398	16.6	91.2
2025-07-21T06:11	10	9	0.1	9	10	397	0.2	397	398	16.6	91.0
2025-07-21T06:12	10	9	0.1	9	9	397	0.2	397	398	16.6	91.3
2025-07-21T06:13	10	9	0.1	9	9	397	0.2	397	398	16.7	90.5
2025-07-21T06:14	10	9	0.1	9	9	398	0.2	397	398	16.6	90.2
2025-07-21T06:15	10	9	0.1	9	9	398	0.2	397	398	16.6	90.2
2025-07-21T06:16	10	9	0.1	9	9	398	0.2	397	398	16.6	90.6
2025-07-21T06:17	10	9	0.1	9	10	398	0.2	397	398	16.6	90.5
2025-07-21T06:18	10	9	0.1	9	9	398	0.2	397	398	16.6	90.3
2025-07-21T06:19	10	9	0.1	9	10	398	0.2	398	399	16.7	89.8
2025-07-21T06:20	10	9	0.1	9	10	398	0.2	397	398	16.7	91.6
2025-07-21T06:21	10	10	0.2	10	10	398	0.2	397	398	16.7	92.3
2025-07-21T06:22	10	11	0.2	10	11	398	0.3	398	399	16.7	92.8
2025-07-21T06:23	10	11	0.2	11	12	398	0.2	398	399	16.6	92.8
2025-07-21T06:24	10	12	0.2	12	13	398	0.2	397	398	16.6	92.7
2025-07-21T06:25	10	13	0.1	12	13	398	0.2	397	398	16.6	93.7
2025-07-21T06:26	10	13	0.1	13	13	398	0.2	398	399	16.5	93.5
2025-07-21T06:27	10	14	0.1	13	14	399	0.3	398	399	16.6	92.7
2025-07-21T06:28	10	14	0.2	14	14	399	0.3	399	400	16.6	91.9
2025-07-21T06:29	10	14	0.1	14	15	399	0.2	399	400	16.6	92.9
2025-07-21T06:30	10	15	0.1	14	15	400	0.2	399	400	16.6	93.8
2025-07-21T06:31	10	15	0.1	15	15	400	0.2	399	400	16.6	93.4
2025-07-21T06:32	10	15	0.1	15	15	400	0.2	400	401	16.6	92.1
2025-07-21T06:33	10	15	0.1	15	16	400	0.2	400	401	16.7	92.4
2025-07-21T06:34	10	16	0.1	15	16	400	0.2	400	401	16.7	91.7
2025-07-21T06:35	10	16	0.1	16	16	400	0.2	400	401	16.7	93.0
2025-07-21T06:36	10	16	0.1	16	16	400	0.3	399	400	16.6	93.4
2025-07-21T06:37	10	16	0.1	16	16	399	0.3	399	400	16.6	93.1
2025-07-21T06:38	10	16	0.1	16	16	400	0.2	399	400	16.6	93.9
2025-07-21T06:39	10	16	0.1	16	16	400	0.2	399	400	16.6	94.2
2025-07-21T06:40	10	16	0.1	16	17	400	0.2	399	400	16.5	94.1
2025-07-21T06:41	10	16	0.1	16	17	400	0.2	399	400	16.5	93.4
2025-07-21T06:42	10	17	0.1	16	17	400	0.3	400	401	16.5	93.3
2025-07-21T06:43	10	17	0.2	16	17	401	0.2	400	401	16.6	93.4
2025-07-21T06:44	10	17	0.2	17	18	400	0.2	400	401	16.6	93.6
2025-07-21T06:45	10	18	0.2	18	18	401	0.2	400	401	16.6	94.2
2025-07-21T06:46	10	18	0.1	18	18	401	0.2	401	402	16.6	94.3
2025-07-21T06:47	10	18	0.1	18	18	401	0.3	401	402	16.6	94.4
2025-07-21T06:48	10	18	0.2	17	18	402	0.3	401	402	16.6	94.8
2025-07-21T06:49	10	17	0.1	17	18	402	0.3	401	402	16.6	95.0
2025-07-21T06:50	10	17	0.1	17	18	402	0.2	402	403	16.6	94.7
2025-07-21T06:51	10	17	0.1	17	17	402	0.2	401	402	16.6	94.8
2025-07-21T06:52	10	17	0.1	17	17	402	0.2	401	402	16.7	94.9
2025-07-21T06:53	10	17	0.1	17	17	402	0.2	401	402	16.6	94.8
2025-07-21T06:54	10	17	0.1	17	17	402	0.3	401	402	16.6	94.3
2025-07-21T06:55	10	17	0.2	16	17	402	0.3	401	402	16.7	94.0
2025-07-21T06:56	10	17	0.1	16	17	402	0.2	401	402	16.7	94.0
2025-07-21T06:57	10	17	0.2	16	17	402	0.3	401	402	16.7	93.9
2025-07-21T06:58	10	17	0.2	16	17	402	0.3	401	402	16.7	93.8
2025-07-21T06:59	10	17	0.2	16	18	402	0.2	401	402	16.7	94.2
2025-07-21T07:00	10	17	0.2	16	17	402	0.2	401	402	16.7	94.1
2025-07-21T07:01	10	17	0.1	17	17	402	0.2	401	402	16.7	93.9
2025-07-21T07:02	10	17	0.2	17	18	402	0.2	401	402	16.7	93.9
2025-07-21T07:03	10	17	0.2	17	17	401	0.3	401	402	16.7	93.6
2025-07-21T07:04	10	17	0.2	16	18	401	0.2	401	402	16.7	93.6
2025-07-21T07:05	10	16	0.1	16	17	402	0.2	401	402	16.8	93.4
2025-07-21T07:06	10	16	0.1	16	17	402	0.3	401	402	16.8	93.5
2025-07-21T07:07	10	16	0.1	16	16	401	0.3	401	402	16.8	93.4
2025-07-21T07:08	10	16	0.1	16	16	402	0.2	401	402	16.8	93.5
2025-07-21T07:09	10	16	0.1	16	16	402	0.2	402	402	16.8	93.3
2025-07-21T07:10	10	16	0.1	15	16	402	0.2	401	402	16.8	93.2
2025-07-21T07:11	10	16	0.1	15	16	402	0.2	401	402	16.7	93.1
2025-07-21T07:12	10	15	0.1	15	16	402	0.3	401	402	16.8	93.4
2025-07-21T07:13	10	15	0.2	15	16	401	0.3	401	402	16.8	93.9
2025-07-21T07:14	10	15	0.1	15	15	401	0.2	401	402	16.8	93.0
2025-07-21T07:15	10	15	0.1	15	15	401	0.2	401	402	16.8	92.9
2025-07-21T07:16	10	15	0.1	15	15	401	0.3	401	402	16.8	93.2
2025-07-21T07:17	10	15	0.1	15	15	401	0.2	401	402	16.8	92.7
2025-07-21T07:18	10	15	0.1	15	16	401	0.2	401	402	16.8	92.9
2025-07-21T07:19	10	16	0.2	15	16	401	0.2	401	402	16.8	93.4
2025-07-21T07:20	10	17	0.2	16	17	402	0.2	401	402	16.8	93.4
2025-07-21T07:21	10	17	0.3	17	18	402	0.3	401	402	16.9	93.8
2025-07-21T07:22	10	18	0.3	18	19	402	0.3	402	403	16.8	94.4
2025-07-21T07:23	10	20	0.4	19	20	403	0.2	402	403	16.8	93.9
2025-07-21T07:24	10	21	0.4	20	22	404	0.2	403	404	16.9	94.3
2025-07-21T07:25	10	22	0.4	22	23	404	0.2	403	404	16.9	93.4
2025-07-21T07:26	10	23	0.4	23	24	404	0.2	403	405	16.9	92.1
2025-07-21T07:27	10	25	0.4	24	25	404	0.2	404	405	16.9	92.0
2025-07-21T07:28	10	26	0.4	25	27	405	0.3	404	405	16.9	91.8
2025-07-21T07:29	10	27	0.4	27	28	405	0.3	405	406	17.0	91.6
2025-07-21T07:30	10	28	0.4	28	29	406	0.4	405	407	17.1	92.3
2025-07-21T07:31	10	29	0.3	29	30	407	0.3	406	408	17.1	92.0
2025-07-21T07:32	10	30	0.2	30	30	407	0.2	406	408	17.1	91.1
2025-07-21T07:33	10	31	0.2	30	31	407	0.2	406	407	17.1	91.0
2025-07-21T07:34	10	31	0.3	31	32	406	0.5	405	407	17.0	92.2
2025-07-21T07:35	10	33	0.4	32	33	405	0.2	405	406	17.0	92.7
2025-07-21T07:36	10	34	0.6	33	35	405	0.3	405	406	16.9	92.9
2025-07-21T07:37	10	36	0.7	35	37	406	0.4	405	406	16.9	93.3
2025-07-21T07:38	10	38	0.3	37	39	406	0.3	405	407	16.9	92.7
2025-07-21T07:39	10	39	0.3	38	40	407	0.3	406	407	16.9	92.8
2025-07-21T07:40	10	38	0.2	38	38	407	0.3	407	408	16.9	92.8
2025-07-21T07:41	10	37	0.3	37	38	408	0.3	407	408	16.9	92.4
2025-07-21T07:42	10	36	0.3	36	37	407	0.3	407	408	16.9	92.2
2025-07-21T07:43	10	35	0.4	34	36	407	0.3	406	408	16.9	92.0
2025-07-21T07:44	10	33	0.7	32	34	407	0.2	406	407	16.9	91.7
2025-07-21T07:45	10	31	0.3	31	32	407	0.3	406	408	17.0	92.3
2025-07-21T07:46	10	31	0.8	30	33	407	0.3	407	408	17.0	92.8
2025-07-21T07:47	10	30	0.4	30	31	407	0.4	407	408	17.0	92.7
2025-07-21T07:48	10	33	1.1	31	35	408	0.4	407	409	17.0	92.7
2025-07-21T07:49	10	37	1.0	35	38	408	0.3	408	409	17.0	92.7
2025-07-21T07:50	10	40	0.7	38	41	409	0.2	409	410	17.0	92.3
2025-07-21T07:51	10	44	1.3	41	45	410	0.4	409	411	17.0	92.2
2025-07-21T07:52	10	48	3.7	45	56	411	0.5	410	412	17.0	91.3
2025-07-21T07:53	10	53	3.0	50	59	412	0.4	411	413	17.1	91.3
2025-07-21T07:54	10	50	0.7	49	51	413	0.2	412	413	17.1	91.2
2025-07-21T07:55	10	48	1.0	47	50	413	0.2	412	413	17.1	91.2
2025-07-21T07:56	10	46	2.7	43	50	413	0.3	413	414	17.1	92.1
2025-07-21T07:57	10	41	0.7	40	43	413	0.6	412	414	17.3	93.0
2025-07-21T07:58	10	39	0.5	38	40	411	0.6	410	412	17.3	92.6
2025-07-21T07:59	10	38	0.3	37	38	410	0.4	410	411	17.2	90.4
2025-07-21T08:00	10	37	0.2	37	37	410	0.3	409	410	17.2	90.5
2025-07-21T08:01	10	37	0.1	37	37	410	0.4	409	410	17.3	91.3
2025-07-21T08:02	10	38	0.5	37	39	409	0.2	409	410	17.2	90.4
2025-07-21T08:03	10	39	0.3	38	40	409	0.3	408	410	17.2	90.2
2025-07-21T08:04	10	37	0.9	36	40	409	0.2	408	409	17.2	90.4
2025-07-21T08:05	10	37	0.2	36	37	408	0.3	408	409	17.3	90.9
2025-07-21T08:06	10	36	1.0	35	38	408	0.3	408	409	17.3	90.8
2025-07-21T08:07	10	37	0.8	36	38	408	0.3	408	409	17.3	90.1
2025-07-21T08:08	10	38	2.5	36	43	408	0.3	408	409	17.3	90.2
2025-07-21T08:09	10	51	9.0	44	81	409	0.4	408	410	17.3	89.4
2025-07-21T08:10	10	97	13.7	72	115	414	2.3	408	416	17.3	88.4
2025-07-21T08:11	10	106	12.0	89	128	418	1.9	416	422	17.4	88.4
2025-07-21T08:12	10	128	3.7	113	132	423	1.1	421	425	17.5	88.5
2025-07-21T08:13	10	81	32.5	32	129	422	2.6	417	425	17.7	88.6
2025-07-21T08:14	10	39	9.4	30	56	415	1.7	412	419	17.6	88.2
2025-07-21T08:15	10	35	8.3	26	55	412	1.1	410	414	17.5	88.4
2025-07-21T08:16	10	51	39.2	24	126	410	2.0	409	416	17.6	89.1
2025-07-21T08:17	10	127	0.6	125	128	421	3.0	414	424	17.6	89.3
2025-07-21T08:18	10	127	0.1	126	127	425	0.9	423	427	17.6	89.2
2025-07-21T08:19	10	127	0.1	127	127	428	0.4	426	429	17.6	88.5
2025-07-21T08:20	10	127	0.2	126	127	429	0.3	428	429	17.8	87.2
2025-07-21T08:21	10	127	0.3	126	127	430	0.5	429	431	17.9	87.9
2025-07-21T08:22	10	128	0.4	127	129	431	0.3	430	432	18.1	87.7
2025-07-21T08:23	10	114	14.1	85	129	431	0.7	430	432	18.2	88.6
2025-07-21T08:24	10	130	0.4	129	131	431	0.5	430	433	18.2	86.7
2025-07-21T08:25	10	130	0.1	129	130	431	0.4	430	432	18.3	86.7
2025-07-21T08:26	10	130	0.1	130	130	431	0.8	429	433	18.4	85.1
2025-07-21T08:27	10	130	0.4	129	130	430	0.7	429	431	18.2	83.2
2025-07-21T08:28	10	130	0.3	129	130	430	0.6	428	431	18.2	84.4
2025-07-21T08:29	10	130	0.1	130	130	431	0.7	429	432	18.3	84.2
2025-07-21T08:30	10	130	0.3	129	131	431	1.0	429	433	18.4	83.5
2025-07-21T08:31	10	131	0.1	130	131	430	0.6	429	432	18.3	81.8
2025-07-21T08:32	10	131	0.1	130	131	431	0.5	430	432	18.6	81.1
2025-07-21T08:33	10	131	0.2	131	131	431	1.8	428	433	18.6	80.6
2025-07-21T08:34	10	132	0.1	131	132	431	1.3	428	433	18.3	81.8
2025-07-21T08:35	10	132	0.5	131	133	433	1.3	430	435	18.5	82.0
2025-07-21T08:36	10	133	0.1	133	133	432	0.6	431	433	18.5	80.2
2025-07-21T08:37	10	134	0.3	133	134	432	0.4	431	432	18.5	79.9
2025-07-21T08:38	10	134	0.2	134	135	433	0.7	432	434	18.5	79.6
2025-07-21T08:39	10	136	0.2	135	136	433	0.4	432	434	18.6	79.1
2025-07-21T08:40	10	137	0.3	136	137	435	0.9	433	436	18.6	80.2
2025-07-21T08:41	10	138	0.3	137	138	434	1.1	433	436	18.7	78.8
2025-07-21T08:42	10	139	0.5	138	139	434	0.4	433	435	18.6	79.6
2025-07-21T08:43	10	140	0.1	139	140	435	0.8	434	437	18.6	78.8
2025-07-21T08:44	10	140	0.3	140	140	436	0.5	435	437	18.7	77.3
2025-07-21T08:45	10	140	3.3	129	143	435	0.8	434	437	18.7	79.1
2025-07-21T08:46	10	146	1.5	143	148	439	0.7	437	440	18.8	79.9
2025-07-21T08:47	10	150	2.1	148	155	437	1.5	436	441	19.0	77.7
2025-07-21T08:48	10	144	15.1	103	159	440	1.3	437	442	19.0	78.3
2025-07-21T08:49	10	52	12.3	44	98	430	4.5	425	440	19.0	79.1
2025-07-21T08:50	10	50	12.4	34	75	426	1.6	422	428	18.9	79.5
2025-07-21T08:51	10	54	29.8	31	120	424	2.0	421	427	19.0	79.4
2025-07-21T08:52	10	30	0.4	29	31	420	2.0	416	424	18.9	80.0
2025-07-21T08:53	10	55	43.3	30	162	417	2.1	415	424	18.8	79.2
2025-07-21T08:54	10	163	2.6	151	168	432	4.9	421	439	18.8	79.3
2025-07-21T08:55	10	164	8.8	143	173	440	1.8	437	442	19.1	77.9
2025-07-21T08:56	10	79	32.7	48	164	436	5.3	428	444	19.2	76.4
2025-07-21T08:57	10	53	6.2	48	72	427	1.6	423	430	19.3	75.7
2025-07-21T08:58	10	52	0.4	52	54	423	0.4	423	425	19.1	74.0
2025-07-21T08:59	10	56	2.0	52	60	423	1.0	421	425	19.1	75.0
2025-07-21T09:00	10	48	1.7	45	52	421	0.5	420	421	18.9	75.2
2025-07-21T09:01	10	43	1.6	40	45	421	0.2	420	421	19.0	75.5
2025-07-21T09:02	10	36	2.2	33	40	420	0.8	419	421	19.0	76.5
2025-07-21T09:03	10	30	1.2	28	33	418	0.5	418	420	19.0	76.1
2025-07-21T09:04	10	27	0.3	27	28	418	0.4	417	419	19.0	76.5
2025-07-21T09:05	10	27	0.2	27	28	417	0.4	416	418	19.0	76.9
2025-07-21T09:06	10	25	1.5	22	27	415	0.5	414	416	18.9	76.1
2025-07-21T09:07	10	20	1.0	19	22	414	0.7	412	415	18.9	76.6
2025-07-21T09:08	10	18	0.6	17	19	412	0.6	411	413	18.9	76.9
2025-07-21T09:09	10	16	0.6	15	17	411	0.3	411	412	18.9	76.9
2025-07-21T09:10	10	14	0.5	13	15	411	0.2	410	411	18.9	76.1
2025-07-21T09:11	10	13	0.3	12	13	410	0.2	409	410	18.9	77.9
2025-07-21T09:12	10	12	0.1	12	12	409	0.2	409	410	18.8	78.9
2025-07-21T09:13	10	12	0.1	12	12	409	0.2	409	410	18.8	78.6
2025-07-21T09:14	10	12	0.3	12	13	409	0.3	408	410	18.7	79.0
2025-07-21T09:15	10	13	0.2	13	14	408	0.2	408	409	18.7	79.1
2025-07-21T09:16	10	14	0.1	13	14	407	0.4	407	408	18.7	78.0
2025-07-21T09:17	10	15	0.6	14	16	407	0.3	407	408	18.7	78.9
2025-07-21T09:18	10	19	2.2	16	24	408	0.5	407	409	18.7	79.0
2025-07-21T09:19	10	26	2.2	24	31	410	0.6	408	411	18.7	78.6
2025-07-21T09:20	10	34	11.6	25	78	412	1.4	410	413	18.7	78.9
2025-07-21T09:21	10	34	1.6	31	36	413	0.7	412	415	18.7	79.1
2025-07-21T09:22	10	50	17.6	36	91	415	1.6	414	420	18.8	78.4
2025-07-21T09:23	10	109	40.9	46	164	424	3.4	418	431	18.9	78.6
2025-07-21T09:24	10	156	2.8	152	161	434	2.8	429	439	19.0	78.4
2025-07-21T09:25	10	151	0.5	150	152	440	1.3	437	442	19.1	77.5
2025-07-21T09:26	10	150	0.1	150	151	441	0.3	440	441	19.4	74.9
2025-07-21T09:27	10	151	0.2	151	151	442	0.6	441	443	19.7	72.3
2025-07-21T09:28	10	151	0.1	151	152	440	0.5	439	441	19.6	71.1
2025-07-21T09:29	10	151	0.2	151	152	442	0.7	441	444	19.8	72.8
2025-07-21T09:30	10	151	0.1	151	151	444	0.5	443	445	19.9	70.7
2025-07-21T09:31	10	152	0.1	151	152	445	0.8	443	447	19.9	72.0
2025-07-21T09:32	10	152	0.1	151	152	447	0.5	446	448	20.2	72.9
2025-07-21T09:33	10	152	0.1	152	152	444	1.4	442	447	20.0	70.1
2025-07-21T09:34	10	153	0.3	152	153	445	0.7	444	446	19.9	71.4
2025-07-21T09:35	10	154	0.4	153	155	445	0.6	443	446	19.8	69.9
2025-07-21T09:36	10	156	0.9	155	158	446	0.5	445	447	19.9	70.6
2025-07-21T09:37	10	158	3.4	144	160	447	0.4	446	448	19.9	71.2
2025-07-21T09:38	10	155	6.7	132	159	449	1.1	447	451	20.2	71.5
2025-07-21T09:39	10	156	0.3	155	156	451	1.5	448	453	20.5	70.5
2025-07-21T09:40	10	155	0.2	155	156	448	1.2	446	450	20.4	69.9
2025-07-21T09:41	10	156	0.2	156	156	447	0.4	446	448	20.2	68.5
2025-07-21T09:42	10	156	0.2	155	156	447	1.9	444	449	20.3	64.9
2025-07-21T09:43	10	156	0.3	155	157	448	1.9	444	451	20.5	64.7
2025-07-21T09:44	10	157	0.3	156	158	450	0.4	450	451	20.7	65.6
2025-07-21T09:45	10	157	0.1	157	158	450	0.7	449	451	20.9	64.6
2025-07-21T09:46	10	158	0.3	158	159	448	0.9	446	450	20.5	64.3
2025-07-21T09:47	10	159	0.2	158	159	451	0.8	449	452	20.5	65.4
2025-07-21T09:48	10	161	1.0	159	163	453	1.3	451	455	20.9	66.0
2025-07-21T09:49	10	164	1.2	163	166	455	0.6	454	457	21.0	64.9
2025-07-21T09:50	10	168	0.6	166	168	454	2.3	450	457	21.0	65.3
2025-07-21T09:51	10	167	0.5	166	168	452	0.7	451	454	20.6	64.3
2025-07-21T09:52	10	167	0.2	166	167	453	2.2	450	456	20.8	64.7
2025-07-21T09:53	10	168	0.6	167	169	452	1.0	451	454	20.8	62.2
2025-07-21T09:54	10	167	0.7	166	168	451	1.7	448	454	20.8	61.9
2025-07-21T09:55	10	165	0.6	164	166	450	1.2	448	452	20.8	61.6
2025-07-21T09:56	10	163	0.5	162	164	450	2.1	447	453	20.8	60.6
2025-07-21T09:57	10	162	0.2	162	163	453	0.7	452	454	21.0	59.7
2025-07-21T09:58	10	164	0.6	163	165	454	0.6	453	455	20.8	60.7
2025-07-21T09:59	10	164	4.6	149	167	457	1.5	455	459	21.1	60.8
2025-07-21T10:00	10	170	1.8	167	173	458	0.8	456	459	21.1	58.7
2025-07-21T10:01	10	179	2.7	174	183	454	1.5	451	457	21.1	60.7
2025-07-21T10:02	10	170	28.2	87	188	455	3.3	447	458	21.1	60.7
2025-07-21T10:03	10	103	45.0	51	191	446	3.5	437	452	20.8	58.6
2025-07-21T10:04	10	71	33.5	52	147	434	2.4	431	440	21.1	60.7
2025-07-21T10:05	10	172	14.8	121	184	443	4.2	435	448	21.1	60.7
2025-07-21T10:06	10	167	2.0	164	171	447	0.5	446	448	21.1	60.7
2025-07-21T10:07	10	164	0.2	163	164	447	0.5	446	448	21.1	59.3
2025-07-21T10:08	10	165	0.7	164	166	450	2.1	447	454	21.1	59.6
2025-07-21T10:09	10	166	0.4	165	167	454	0.8	453	456	21.6	61.2
2025-07-21T10:10	10	166	0.2	166	167	453	1.0	451	455	21.4	54.8
2025-07-21T10:11	10	166	0.5	165	166	455	1.5	453	458	21.2	54.6
2025-07-21T10:12	10	164	0.9	160	165	458	0.8	456	460	21.6	57.5
2025-07-21T10:13	10	167	1.1	165	168	454	2.2	452	459	21.6	57.3
2025-07-21T10:14	10	168	0.2	167	168	455	1.6	452	457	21.5	56.5
2025-07-21T10:15	10	166	0.8	165	167	454	1.7	451	457	21.6	55.9
2025-07-21T10:16	10	164	0.4	163	165	450	1.5	448	453	21.5	53.9
2025-07-21T10:17	10	166	1.6	162	169	451	1.9	448	454	21.6	53.8
2025-07-21T10:18	10	155	18.2	83	167	454	1.1	450	455	22.0	55.1
2025-07-21T10:19	10	156	17.1	83	164	450	1.6	447	453	21.8	53.4
2025-07-21T10:20	10	160	0.1	160	161	449	1.5	447	452	21.5	53.1
2025-07-21T10:21	10	162	0.5	161	162	451	0.5	450	452	21.7	53.5
2025-07-21T10:22	10	163	0.1	162	163	452	0.8	450	453	21.9	53.9
2025-07-21T10:23	10	163	0.1	162	163	454	2.7	450	459	22.0	53.9
2025-07-21T10:24	10	162	0.2	162	162	456	1.0	454	459	22.0	53.3
2025-07-21T10:25	10	162	0.2	161	162	454	0.4	453	455	21.7	52.4
2025-07-21T10:26	10	162	0.1	162	162	452	1.7	449	454	21.8	51.9
2025-07-21T10:27	10	162	0.1	162	162	450	0.8	449	453	21.9	51.0
2025-07-21T10:28	10	162	0.2	162	163	453	0.9	451	454	22.1	51.7
2025-07-21T10:29	10	163	0.3	162	163	452	1.1	450	454	22.0	50.7
2025-07-21T10:30	10	163	0.1	163	164	452	0.7	451	454	22.0	51.7
2025-07-21T10:31	10	163	0.2	163	164	450	1.5	448	453	21.8	50.7
2025-07-21T10:32	10	163	0.2	163	163	450	0.9	448	452	21.6	50.6
2025-07-21T10:33	10	164	0.5	163	164	451	2.5	446	454	21.8	50.5
2025-07-21T10:34	10	165	0.2	164	165	448	0.6	447	449	21.7	49.2
2025-07-21T10:35	10	164	0.3	164	165	449	1.8	447	453	21.7	50.3
2025-07-21T10:36	10	164	0.2	164	165	452	0.8	450	453	21.9	50.5
2025-07-21T10:37	10	164	0.2	163	164	450	1.1	449	452	21.8	50.1
2025-07-21T10:38	10	164	0.1	164	164	454	1.2	452	456	22.0	50.7
2025-07-21T10:39	10	164	0.2	164	165	455	0.7	454	456	22.3	51.0
2025-07-21T10:40	10	164	0.2	164	165	458	1.5	456	460	22.3	51.3
2025-07-21T10:41	10	165	0.2	164	165	455	2.5	451	459	22.4	49.9
2025-07-21T10:42	10	165	0.2	165	166	453	1.2	451	455	22.1	49.6
2025-07-21T10:43	10	166	0.5	165	167	454	1.5	452	457	22.5	49.3
2025-07-21T10:44	10	168	0.4	167	169	457	1.9	454	460	22.5	48.7
2025-07-21T10:45	10	159	20.1	109	171	452	2.8	447	455	22.2	47.7
2025-07-21T10:46	10	167	0.9	165	169	453	1.2	451	455	22.1	48.3
2025-07-21T10:47	10	165	0.3	164	166	456	0.7	454	457	22.2	48.2
2025-07-21T10:48	10	165	0.2	164	165	455	0.6	454	456	22.2	48.3
2025-07-21T10:49	10	165	0.4	164	166	456	1.0	454	458	22.4	49.0
2025-07-21T10:50	10	165	0.3	165	166	456	1.1	454	458	22.4	49.6
2025-07-21T10:51	10	166	0.3	165	166	456	1.2	454	458	22.4	49.4
2025-07-21T10:52	10	166	0.4	166	167	458	1.5	455	461	22.6	49.6
2025-07-21T10:53	10	138	41.6	61	170	456	5.9	444	463	22.5	48.7
2025-07-21T10:54	10	163	16.9	105	171	453	3.9	446	457	22.2	49.4
2025-07-21T10:55	10	173	1.1	171	174	456	1.1	455	458	22.1	48.1
2025-07-21T10:56	10	173	0.5	172	174	456	0.7	455	458	22.1	48.4
2025-07-21T10:57	10	171	0.4	170	172	460	2.3	456	463	22.3	49.4
2025-07-21T10:58	10	170	0.2	169	170	464	1.3	462	466	22.7	50.0
2025-07-21T10:59	10	170	0.5	169	171	462	1.6	459	466	22.8	48.5
2025-07-21T11:00	10	172	0.4	171	173	457	2.1	455	461	22.5	48.2
2025-07-21T11:01	10	173	0.4	172	174	460	1.3	458	464	22.8	50.0
2025-07-21T11:02	10	170	1.7	166	173	460	1.9	458	464	22.9	49.0
2025-07-21T11:03	10	164	1.6	161	168	459	0.8	458	461	22.6	48.3
2025-07-21T11:04	10	158	3.4	152	163	464	1.9	461	467	22.7	49.8
2025-07-21T11:05	10	110	23.5	75	161	456	7.7	445	469	22.9	49.0
2025-07-21T11:06	10	116	15.6	85	142	448	1.1	446	450	22.6	47.0
2025-07-21T11:07	10	135	23.9	100	172	449	2.8	446	455	22.7	48.2
2025-07-21T11:08	10	133	26.0	92	167	450	4.0	442	454	22.7	46.8
2025-07-21T11:09	10	106	25.9	73	147	441	1.9	438	444	22.3	44.8
2025-07-21T11:10	10	141	21.6	103	175	447	1.2	443	449	22.2	45.4
2025-07-21T11:11	10	132	29.6	53	169	449	1.7	443	451	22.4	46.1
2025-07-21T11:12	10	50	3.0	47	59	438	3.1	434	445	22.3	46.3
2025-07-21T11:13	10	147	54.4	61	207	444	8.6	433	459	22.3	47.2
2025-07-21T11:14	10	152	48.5	81	213	455	5.2	446	461	22.3	47.0
2025-07-21T11:15	10	129	9.1	105	148	450	1.6	447	453	22.5	47.9
2025-07-21T11:16	10	80	9.8	69	103	444	2.5	442	450	22.5	48.3
2025-07-21T11:17	10	81	26.8	66	176	440	1.7	438	446	22.5	49.6
2025-07-21T11:18	10	183	14.3	147	204	453	4.8	443	460	22.4	50.3
2025-07-21T11:19	10	147	38.0	88	200	455	2.9	449	458	22.3	48.9
2025-07-21T11:20	10	78	8.2	69	96	443	3.9	438	451	22.4	49.7
2025-07-21T11:21	10	125	18.9	90	149	444	3.7	439	450	22.2	50.9
2025-07-21T11:22	10	135	6.5	120	145	448	1.1	445	450	22.2	51.0
2025-07-21T11:23	10	139	8.9	125	157	449	2.1	446	454	22.3	52.0
2025-07-21T11:24	10	150	6.5	139	164	456	1.0	453	457	22.5	52.3
2025-07-21T11:25	10	166	7.7	149	174	456	1.7	453	458	22.5	50.6
2025-07-21T11:26	10	123	31.0	95	188	449	5.3	443	459	22.2	49.6
2025-07-21T11:27	10	202	4.3	190	208	453	3.3	446	459	22.1	50.4
2025-07-21T11:28	10	168	18.6	139	204	460	1.3	457	462	22.5	51.0
2025-07-21T11:29	10	89	21.5	70	140	448	6.2	439	461	22.4	49.2
2025-07-21T11:30	10	86	14.8	70	110	440	1.0	439	442	22.4	50.4
2025-07-21T11:31	10	156	39.3	91	200	447	6.1	439	458	22.3	50.1
2025-07-21T11:32	10	149	25.7	83	183	452	2.8	445	456	22.5	50.0
2025-07-21T11:33	10	121	22.3	80	152	446	1.8	443	450	22.5	49.9
2025-07-21T11:34	10	108	18.6	89	146	444	3.6	439	450	22.3	49.1
2025-07-21T11:35	10	128	17.1	96	149	440	1.5	437	443	22.2	49.3
2025-07-21T11:36	10	95	18.5	74	140	438	2.2	435	442	22.1	49.6
2025-07-21T11:37	10	189	26.3	146	216	447	6.3	437	457	21.9	49.7
2025-07-21T11:38	10	198	41.3	121	235	456	4.3	449	462	22.0	50.2
2025-07-21T11:39	10	163	37.0	97	212	452	1.7	447	454	22.0	50.1
2025-07-21T11:40	10	90	2.2	87	97	443	2.3	439	449	22.0	50.9
2025-07-21T11:41	10	103	18.5	88	167	440	2.3	438	446	21.9	51.4
2025-07-21T11:42	10	188	21.5	153	224	453	3.6	443	459	21.9	52.1
2025-07-21T11:43	10	202	18.2	154	230	462	2.5	456	465	22.3	52.6
2025-07-21T11:44	10	192	7.0	158	195	460	0.7	458	461	22.2	51.7
2025-07-21T11:45	10	178	6.8	165	192	457	1.4	455	460	21.9	52.2
2025-07-21T11:46	10	182	6.8	162	193	458	1.3	456	460	22.0	52.5
2025-07-21T11:47	10	158	4.8	142	165	453	1.1	452	457	22.1	52.8
2025-07-21T11:48	10	139	13.3	118	160	451	1.2	448	452	22.0	52.8
2025-07-21T11:49	10	124	20.1	89	161	449	1.5	446	451	22.1	53.6
2025-07-21T11:50	10	197	13.8	160	208	457	5.4	449	466	22.1	53.5
2025-07-21T11:51	10	184	24.3	134	209	462	3.5	456	467	22.3	53.9
2025-07-21T11:52	10	122	12.1	94	150	453	2.1	450	457	22.2	53.5
2025-07-21T11:53	10	79	5.3	73	91	447	2.6	442	451	22.3	54.0
2025-07-21T11:54	10	102	9.5	88	116	446	2.1	443	449	22.2	54.2
2025-07-21T11:55	10	78	10.5	68	96	444	1.8	441	446	22.1	54.5
2025-07-21T11:56	10	67	3.1	62	73	438	1.6	436	442	22.0	53.7
2025-07-21T11:57	10	61	1.1	59	63	434	1.2	432	436	21.8	53.9
2025-07-21T11:58	10	58	0.9	56	59	432	0.9	431	434	21.7	54.2
2025-07-21T11:59	10	55	0.7	53	56	431	0.5	430	432	21.6	54.2
2025-07-21T12:00	10	53	0.6	52	54	429	0.7	428	430	21.4	54.7
2025-07-21T12:01	10	52	0.3	52	52	428	0.5	427	429	21.3	55.3
2025-07-21T12:02	10	54	0.6	53	55	427	0.4	426	428	21.3	55.8
2025-07-21T12:03	10	52	0.5	51	53	426	0.6	425	428	21.3	55.7
2025-07-21T12:04	10	50	0.8	48	51	426	0.5	425	427	21.2	55.1
2025-07-21T12:05	10	47	1.0	45	48	425	0.4	425	426	21.2	55.3
2025-07-21T12:06	10	44	0.9	42	45	425	0.3	425	426	21.2	55.3
2025-07-21T12:07	10	41	0.7	40	42	425	0.2	424	425	21.2	55.0
2025-07-21T12:08	10	38	0.7	37	40	424	0.5	423	425	21.2	55.2
2025-07-21T12:09	10	36	0.7	35	37	424	0.5	423	425	21.2	54.9
2025-07-21T12:10	10	34	0.8	33	35	423	0.3	422	424	21.2	54.7
2025-07-21T12:11	10	31	0.8	30	33	423	0.4	422	424	21.2	55.5
2025-07-21T12:12	10	29	0.5	28	30	422	0.6	421	423	21.2	55.3
2025-07-21T12:13	10	27	0.2	27	28	421	0.2	420	421	21.2	55.5
2025-07-21T12:14	10	27	0.1	27	27	420	0.2	420	421	21.3	55.1
2025-07-21T12:15	10	27	0.2	26	27	420	0.2	419	420	21.3	55.4
2025-07-21T12:16	10	26	0.2	25	26	419	0.7	417	420	21.2	55.6
2025-07-21T12:17	10	25	0.3	24	25	418	0.2	417	418	21.2	55.8
2025-07-21T12:18	10	24	0.2	23	24	418	0.2	417	418	21.1	56.2
2025-07-21T12:19	10	23	0.2	23	23	417	0.3	416	418	21.1	56.7
2025-07-21T12:20	10	23	0.1	23	23	416	0.3	416	417	21.0	57.1
2025-07-21T12:21	10	23	0.1	23	23	416	0.3	416	417	21.0	57.4
2025-07-21T12:22	10	23	0.1	23	23	416	0.3	415	417	20.9	57.1
2025-07-21T12:23	10	23	0.2	23	24	416	0.3	415	416	20.8	57.8
2025-07-21T12:24	10	24	0.4	23	25	415	0.2	415	416	20.7	58.3
2025-07-21T12:25	10	26	0.7	25	28	415	0.3	414	416	20.6	58.5
2025-07-21T12:26	10	30	1.5	28	33	415	0.4	415	416	20.5	60.0
2025-07-21T12:27	10	37	2.9	33	43	416	0.8	415	418	20.4	61.2
2025-07-21T12:28	10	53	4.9	43	63	419	1.2	416	420	20.4	61.5
2025-07-21T12:29	10	120	52.6	60	205	429	5.5	417	436	20.4	60.9
2025-07-21T12:30	10	55	2.6	51	60	424	1.8	421	427	20.5	59.9
2025-07-21T12:31	10	49	1.3	47	51	421	0.4	420	422	20.4	61.1
2025-07-21T12:32	10	47	0.2	47	47	420	0.4	419	421	20.4	61.2
2025-07-21T12:33	10	60	19.0	47	120	419	1.2	418	422	20.4	61.9
2025-07-21T12:34	10	56	0.6	55	57	420	0.8	418	421	20.3	61.9
2025-07-21T12:35	10	57	0.4	56	58	419	0.6	417	420	20.2	61.8
2025-07-21T12:36	10	60	1.7	58	63	420	0.8	419	421	20.3	61.1
2025-07-21T12:37	10	68	2.9	63	74	421	0.8	420	423	20.4	60.4
2025-07-21T12:38	10	91	17.1	74	127	425	2.8	422	431	20.5	60.5
2025-07-21T12:39	10	176	42.5	90	209	435	4.9	427	443	20.6	60.1
2025-07-21T12:40	10	195	37.0	106	224	445	2.2	441	449	20.9	60.3
2025-07-21T12:41	10	214	2.2	211	220	452	1.9	447	455	21.1	59.6
2025-07-21T12:42	10	210	1.0	208	212	454	1.1	452	456	21.5	58.8
2025-07-21T12:43	10	206	4.8	189	209	456	1.2	454	458	21.6	58.1
2025-07-21T12:44	10	176	36.8	99	215	454	3.6	448	458	21.5	57.3
2025-07-21T12:45	10	193	20.3	138	214	453	1.6	450	456	21.6	57.4
2025-07-21T12:46	10	205	8.8	179	210	453	1.5	451	455	21.7	56.7
2025-07-21T12:47	10	174	51.3	73	214	457	4.0	448	461	22.1	56.8
2025-07-21T12:48	10	119	30.5	82	181	445	3.2	441	452	21.8	55.7
2025-07-21T12:49	10	154	50.2	88	228	447	5.4	441	456	22.0	56.6
2025-07-21T12:50	10	180	44.3	105	227	451	3.2	446	457	22.0	56.4
2025-07-21T12:51	10	192	31.6	118	224	453	1.7	450	456	21.8	56.6
2025-07-21T12:52	10	160	39.3	95	218	451	3.1	446	457	21.8	56.4
2025-07-21T12:53	10	181	39.9	115	224	455	2.8	450	459	21.9	55.2
2025-07-21T12:54	10	128	53.1	80	220	447	3.8	442	453	21.9	55.9
2025-07-21T12:55	10	188	32.9	95	217	454	1.5	452	457	22.0	54.7
2025-07-21T12:56	10	207	3.5	201	214	461	2.9	454	465	22.2	54.6
2025-07-21T12:57	10	200	1.9	195	202	464	1.5	462	466	22.6	54.6
2025-07-21T12:58	10	192	2.5	187	196	466	1.7	463	469	22.8	53.7
2025-07-21T12:59	10	179	8.8	163	192	458	2.6	453	464	22.4	51.6
2025-07-21T13:00	10	173	5.8	160	181	454	1.1	452	456	22.4	51.1
2025-07-21T13:01	10	167	9.0	153	180	453	1.4	451	455	22.4	51.8
2025-07-21T13:02	10	155	13.5	127	169	451	0.9	450	453	22.2	52.5
2025-07-21T13:03	10	91	20.3	61	126	446	3.3	440	453	22.5	52.5
2025-07-21T13:04	10	57	1.7	55	62	439	1.8	436	443	22.5	52.4
2025-07-21T13:05	10	54	0.7	53	56	434	1.5	432	437	22.3	52.3
2025-07-21T13:06	10	53	0.2	52	53	433	0.4	432	434	22.4	53.5
2025-07-21T13:07	10	52	0.2	52	53	433	0.9	431	434	22.4	53.5
2025-07-21T13:08	10	51	0.4	51	52	430	0.7	428	431	22.3	51.4
2025-07-21T13:09	10	50	0.6	49	51	428	0.4	428	429	22.1	50.7
2025-07-21T13:10	10	49	0.2	48	49	428	0.4	427	429	22.1	50.8
2025-07-21T13:11	10	49	0.4	49	50	427	0.4	426	428	22.0	50.9
2025-07-21T13:12	10	51	1.4	49	54	427	0.4	426	428	22.0	51.3
2025-07-21T13:13	10	62	4.8	54	70	429	1.0	427	430	22.0	52.4
2025-07-21T13:14	10	72	4.0	65	81	430	0.6	429	431	22.1	51.3
2025-07-21T13:15	10	102	14.4	73	123	434	3.0	429	438	22.2	49.4
2025-07-21T13:16	10	136	26.8	83	177	439	2.7	435	444	22.4	49.3
2025-07-21T13:17	10	145	37.2	85	179	447	2.7	443	452	22.6	49.2
2025-07-21T13:18	10	93	37.8	64	170	442	4.3	436	449	22.8	48.0
2025-07-21T13:19	10	63	1.6	62	67	435	1.2	433	438	22.7	49.2
2025-07-21T13:20	10	73	4.7	68	87	434	0.6	432	435	22.7	47.8
2025-07-21T13:21	10	171	49.6	88	220	445	8.3	433	456	22.7	47.8
2025-07-21T13:22	10	185	31.0	111	219	454	3.2	449	462	22.8	46.3
2025-07-21T13:23	10	171	31.5	106	216	458	3.7	453	463	23.2	46.5
2025-07-21T13:24	10	203	18.7	165	217	458	1.7	454	461	23.1	46.2
2025-07-21T13:25	10	207	2.8	193	211	461	1.5	457	463	23.4	46.1
2025-07-21T13:26	10	205	0.4	204	205	464	1.1	462	466	23.6	45.9
2025-07-21T13:27	10	166	48.4	77	205	463	4.0	452	466	23.8	45.9
2025-07-21T13:28	10	129	32.2	76	174	455	2.6	450	460	23.9	46.2
2025-07-21T13:29	10	179	17.2	141	202	462	0.9	460	463	24.0	46.2
2025-07-21T13:30	10	181	38.8	55	199	463	2.4	455	466	23.9	45.5
2025-07-21T13:31	10	95	51.5	54	200	450	3.4	447	459	23.7	45.2
2025-07-21T13:32	10	195	3.1	189	201	461	2.7	456	464	23.7	45.2
2025-07-21T13:33	10	185	1.4	184	189	460	2.4	457	464	23.6	45.2
2025-07-21T13:34	10	184	0.3	183	184	459	0.4	458	459	23.4	44.6
2025-07-21T13:35	10	165	33.5	86	192	464	3.8	456	470	23.6	45.2
2025-07-21T13:36	10	134	50.1	70	199	452	3.2	448	458	23.5	44.1
2025-07-21T13:37	10	158	40.4	88	198	457	2.2	452	460	23.4	44.3
2025-07-21T13:38	10	87	15.2	64	120	452	1.5	448	454	23.8	45.4
2025-07-21T13:39	10	56	2.5	54	63	444	4.0	436	449	23.9	44.1
2025-07-21T13:40	10	64	6.0	56	74	436	1.5	435	439	23.4	42.6
2025-07-21T13:41	10	75	2.5	71	80	437	0.5	436	438	23.2	42.7
2025-07-21T13:42	10	189	33.8	81	212	447	6.6	434	456	23.2	41.7
2025-07-21T13:43	10	202	2.6	198	207	457	2.6	453	460	23.4	42.3
2025-07-21T13:44	10	193	4.0	175	198	460	2.2	457	464	23.6	42.4
2025-07-21T13:45	10	181	6.0	148	186	460	3.3	453	464	23.8	42.3
2025-07-21T13:46	10	163	34.1	74	185	453	1.8	449	456	23.4	42.8
2025-07-21T13:47	10	170	17.9	108	183	457	1.3	454	459	23.5	43.1
2025-07-21T13:48	10	171	1.7	168	174	457	1.5	454	459	23.5	42.2
2025-07-21T13:49	10	167	0.6	166	169	455	0.5	455	457	23.6	42.0
2025-07-21T13:50	10	166	0.3	165	166	456	0.8	454	457	23.7	42.1
2025-07-21T13:51	10	165	0.3	164	166	458	1.4	455	459	23.7	42.1
2025-07-21T13:52	10	165	0.5	164	166	456	1.9	454	459	23.8	42.6
2025-07-21T13:53	10	166	0.3	166	167	456	0.6	454	456	23.8	43.5
2025-07-21T13:54	10	164	2.0	159	167	458	2.7	455	462	23.9	43.4
2025-07-21T13:55	10	158	1.5	156	160	455	2.5	451	462	23.8	41.5
2025-07-21T13:56	10	160	1.8	156	163	454	0.8	452	455	23.6	42.4
2025-07-21T13:57	10	162	1.2	159	163	454	0.8	453	455	23.6	42.6
2025-07-21T13:58	10	160	1.8	158	164	455	1.4	452	456	23.6	43.3
2025-07-21T13:59	10	123	38.4	60	160	453	3.8	444	457	23.6	43.5
2025-07-21T14:00	10	66	3.1	61	77	441	2.6	438	447	23.4	43.0
2025-07-21T14:01	10	122	22.9	79	157	444	3.1	438	449	23.3	43.7
2025-07-21T14:02	10	121	23.2	86	154	448	0.6	447	450	23.4	44.3
2025-07-21T14:03	10	61	4.8	58	82	443	2.3	440	448	23.6	44.2
2025-07-21T14:04	10	68	9.6	59	87	439	0.4	439	440	23.4	44.5
2025-07-21T14:05	10	66	9.3	58	90	439	1.5	436	441	23.3	44.7
2025-07-21T14:06	10	57	0.7	56	58	436	0.7	435	437	23.1	44.5
2025-07-21T14:07	10	55	0.2	55	56	435	0.9	433	436	23.1	44.7
2025-07-21T14:08	10	57	0.5	55	57	435	0.6	434	436	23.1	44.5
2025-07-21T14:09	10	58	0.7	57	59	435	0.3	435	436	23.1	44.5
2025-07-21T14:10	10	60	0.4	59	61	435	0.6	434	436	23.1	45.1
2025-07-21T14:11	10	64	1.3	61	66	435	0.5	434	436	23.1	44.4
2025-07-21T14:12	10	65	1.2	64	68	435	0.6	434	437	23.2	43.9
2025-07-21T14:13	10	90	13.9	68	116	438	1.8	435	440	23.2	44.0
2025-07-21T14:14	10	82	19.4	69	130	440	1.8	438	444	23.3	44.3
2025-07-21T14:15	10	68	1.2	67	71	437	1.1	436	440	23.3	43.9
2025-07-21T14:16	10	62	3.2	56	67	434	1.2	432	437	23.2	43.6
2025-07-21T14:17	10	52	2.2	49	56	432	0.5	431	433	23.2	43.2
2025-07-21T14:18	10	44	2.4	40	50	431	0.5	430	432	23.2	43.2
2025-07-21T14:19	10	38	1.2	36	40	429	0.6	428	430	23.2	42.6
2025-07-21T14:20	10	35	0.8	34	36	428	0.4	427	429	23.1	42.9
2025-07-21T14:21	10	33	0.5	32	34	427	0.2	426	427	23.1	42.1
2025-07-21T14:22	10	31	0.3	31	32	426	0.2	426	427	23.1	42.3
2025-07-21T14:23	10	32	0.3	31	32	426	0.3	426	427	23.1	42.0
2025-07-21T14:24	10	33	0.3	32	33	427	0.3	426	427	23.1	41.9
2025-07-21T14:25	10	33	0.1	33	33	427	0.3	426	427	23.1	42.1
2025-07-21T14:26	10	34	0.2	33	34	427	0.4	427	428	23.0	43.1
2025-07-21T14:27	10	34	0.2	34	35	427	0.2	427	428	23.0	42.8
2025-07-21T14:28	10	36	0.5	35	37	428	0.3	427	428	23.0	42.5
2025-07-21T14:29	10	37	0.3	36	38	428	0.2	427	428	23.1	42.1
2025-07-21T14:30	10	38	0.2	37	38	427	0.3	427	428	23.0	41.9
2025-07-21T14:31	10	38	0.2	37	38	428	0.2	428	428	23.0	42.1
2025-07-21T14:32	10	37	0.4	36	37	428	0.3	427	428	23.1	42.2
2025-07-21T14:33	10	35	0.5	34	36	427	0.3	426	428	23.0	42.3
2025-07-21T14:34	10	34	0.2	33	34	426	0.3	426	427	23.0	42.3
2025-07-21T14:35	10	33	0.1	33	33	426	0.4	425	427	23.0	43.0
2025-07-21T14:36	10	33	0.2	33	33	427	0.3	426	427	23.0	43.4
2025-07-21T14:37	10	34	0.6	33	36	427	0.3	426	428	23.0	43.9
2025-07-21T14:38	10	38	1.9	36	43	427	0.7	426	429	23.0	44.5
2025-07-21T14:39	10	51	3.1	43	56	429	1.0	427	431	23.0	44.9
2025-07-21T14:40	10	71	8.0	56	92	433	1.8	430	436	23.0	44.9
2025-07-21T14:41	10	164	43.2	87	207	445	6.5	432	453	23.0	44.5
2025-07-21T14:42	10	181	29.8	113	202	453	3.7	446	458	23.3	44.2
2025-07-21T14:43	10	194	1.6	190	196	459	2.3	456	463	23.6	43.7
2025-07-21T14:44	10	186	2.3	181	190	463	0.5	462	464	23.9	43.4
2025-07-21T14:45	10	177	4.5	170	185	461	1.1	459	464	23.9	43.4
2025-07-21T14:46	10	126	37.0	78	184	456	5.4	450	464	24.0	43.2
2025-07-21T14:47	10	131	32.3	78	177	455	2.2	452	459	24.1	43.2
2025-07-21T14:48	10	69	3.0	67	77	448	3.2	442	455	24.2	43.1
2025-07-21T14:49	10	133	42.3	68	184	449	6.0	442	458	24.0	42.6
2025-07-21T14:50	10	182	10.2	156	190	459	1.5	457	462	24.1	42.8
2025-07-21T14:51	10	171	17.4	134	198	455	2.8	453	462	23.9	42.1
2025-07-21T14:52	10	193	11.1	160	200	454	1.2	453	457	23.6	42.2
2025-07-21T14:53	10	176	18.1	138	198	457	2.0	452	459	23.8	42.6
2025-07-21T14:54	10	125	41.3	82	197	449	5.3	443	457	23.6	42.4
2025-07-21T14:55	10	160	28.2	107	194	449	2.0	444	452	23.5	42.8
2025-07-21T14:56	10	168	20.7	107	187	452	1.3	449	454	23.4	43.2
2025-07-21T14:57	10	136	31.5	82	177	450	2.9	445	454	23.4	43.1
2025-07-21T14:58	10	169	1.5	162	171	455	2.6	449	458	23.6	43.7
2025-07-21T14:59	10	150	19.6	104	168	455	2.0	451	459	23.5	43.8
2025-07-21T15:00	10	163	1.7	161	167	457	1.5	455	459	23.6	44.4
2025-07-21T15:01	10	159	0.8	158	161	456	0.7	454	457	23.6	44.7
2025-07-21T15:02	10	157	1.3	154	158	455	1.1	454	457	23.7	44.4
2025-07-21T15:03	10	153	0.7	152	154	454	1.3	451	456	23.6	44.9
2025-07-21T15:04	10	141	18.6	96	152	454	2.9	449	457	23.6	45.3
2025-07-21T15:05	10	150	0.5	149	150	451	0.6	450	453	23.5	44.9
2025-07-21T15:06	10	148	0.4	147	149	453	1.4	450	455	23.5	45.3
2025-07-21T15:07	10	145	1.2	143	147	453	1.6	451	456	23.5	45.5
2025-07-21T15:08	10	139	2.5	136	143	455	1.8	451	457	23.8	45.7
2025-07-21T15:09	10	136	0.3	135	137	451	1.9	448	454	23.7	45.1
2025-07-21T15:10	10	137	0.6	136	138	450	0.9	447	451	23.5	45.1
2025-07-21T15:11	10	135	0.8	134	137	449	0.4	447	449	23.3	45.4
2025-07-21T15:12	10	133	0.8	132	135	450	1.2	448	452	23.5	45.6
2025-07-21T15:13	10	132	0.3	131	132	449	1.2	448	452	23.6	45.7
2025-07-21T15:14	10	127	6.9	108	132	451	0.8	449	452	23.7	45.6
2025-07-21T15:15	10	123	15.4	80	132	451	0.7	450	452	23.6	45.3
2025-07-21T15:16	10	122	17.4	77	132	450	1.7	447	453	23.9	45.3
2025-07-21T15:17	10	130	0.2	130	131	452	0.8	450	453	23.9	45.0
2025-07-21T15:18	10	130	0.2	130	131	452	1.0	450	454	23.9	44.6
2025-07-21T15:19	10	130	0.3	129	131	453	0.8	451	454	23.9	44.9
2025-07-21T15:20	10	129	0.2	129	130	449	2.3	447	454	23.7	44.7
2025-07-21T15:21	10	129	0.3	129	130	449	0.5	448	450	23.7	45.1
2025-07-21T15:22	10	131	1.0	130	133	452	0.9	450	453	23.9	44.6
2025-07-21T15:23	10	135	1.3	133	138	448	0.9	447	451	23.6	44.1
2025-07-21T15:24	10	139	0.8	137	140	450	0.9	448	452	23.8	44.7
2025-07-21T15:25	10	140	0.3	140	141	448	0.5	447	450	23.6	43.9
2025-07-21T15:26	10	142	1.0	141	144	453	1.9	449	456	23.8	44.6
2025-07-21T15:27	10	145	0.5	144	146	451	2.1	448	455	23.7	44.5
2025-07-21T15:28	10	146	0.2	145	146	452	0.5	450	452	23.7	44.7
2025-07-21T15:29	10	146	4.7	126	148	453	0.8	451	455	23.8	44.7
2025-07-21T15:30	10	47	27.5	27	125	440	7.3	431	454	23.5	43.3
2025-07-21T15:31	10	24	1.5	22	27	431	1.4	429	434	23.3	44.2
2025-07-21T15:32	10	22	0.4	21	22	428	0.9	426	430	23.1	44.2
2025-07-21T15:33	10	21	0.1	21	22	426	0.5	425	427	23.0	43.8
2025-07-21T15:34	10	22	0.3	21	23	425	0.2	425	426	22.9	43.6
2025-07-21T15:35	10	24	0.9	23	26	425	0.2	425	425	22.9	43.8
2025-07-21T15:36	10	27	1.0	26	29	425	0.3	424	425	22.8	42.9
2025-07-21T15:37	10	32	1.6	29	35	426	0.7	425	427	22.8	43.4
2025-07-21T15:38	10	38	2.2	35	42	427	0.9	425	428	22.8	43.9
2025-07-21T15:39	10	50	5.7	42	61	428	1.0	427	431	22.8	44.2
2025-07-21T15:40	10	98	30.5	63	156	434	4.6	428	444	22.9	44.3
2025-07-21T15:41	10	140	24.9	89	168	443	1.5	440	446	22.9	43.4
2025-07-21T15:42	10	152	11.5	131	163	447	1.9	441	449	23.1	43.2
2025-07-21T15:43	10	153	7.9	134	159	451	1.9	448	453	23.3	43.5
2025-07-21T15:44	10	155	0.6	154	156	449	0.6	449	451	23.3	42.6
2025-07-21T15:45	10	122	29.8	80	155	447	2.9	443	450	23.5	42.3
2025-07-21T15:46	10	98	21.4	74	136	444	2.2	440	448	23.5	42.4
2025-07-21T15:47	10	66	33.3	41	139	440	4.6	433	447	23.4	42.7
2025-07-21T15:48	10	41	1.2	40	44	432	1.4	430	435	23.2	43.0
2025-07-21T15:49	10	38	0.6	38	40	430	0.7	429	431	23.1	43.3
2025-07-21T15:50	10	39	0.5	38	40	429	0.3	428	430	23.1	43.8
2025-07-21T15:51	10	59	22.4	40	100	430	2.0	428	434	23.0	43.9
2025-07-21T15:52	10	118	18.4	74	142	437	3.5	432	443	23.0	43.7
2025-07-21T15:53	10	146	2.0	142	149	445	1.9	440	447	23.1	44.1
2025-07-21T15:54	10	150	0.9	149	152	449	1.9	445	451	23.3	44.1
2025-07-21T15:55	10	153	0.7	151	154	452	1.6	449	454	23.5	43.8
2025-07-21T15:56	10	154	0.6	153	155	454	0.7	452	455	23.7	43.9
2025-07-21T15:57	10	156	0.3	155	156	456	1.1	454	458	23.8	43.7
2025-07-21T15:58	10	149	10.8	127	158	454	1.2	452	456	23.8	43.4
2025-07-21T15:59	10	159	0.2	158	159	451	1.5	449	454	23.7	42.3
2025-07-21T16:00	10	125	30.4	77	159	448	2.5	444	452	23.6	42.3
2025-07-21T16:01	10	124	32.8	82	163	448	3.5	442	452	23.6	42.3
2025-07-21T16:02	10	128	26.9	94	162	446	1.6	444	450	23.6	42.4
2025-07-21T16:03	10	118	19.7	87	161	447	1.7	445	451	23.6	42.8
2025-07-21T16:04	10	86	14.3	71	118	444	2.2	441	448	23.8	43.0
2025-07-21T16:05	10	84	12.4	69	112	443	1.6	439	445	23.6	43.4
2025-07-21T16:06	10	67	3.2	59	73	437	1.1	436	441	23.4	43.0
2025-07-21T16:07	10	63	3.7	58	70	435	0.9	434	437	23.3	43.3
2025-07-21T16:08	10	58	1.6	54	64	434	0.3	434	435	23.3	43.2
2025-07-21T16:09	10	52	0.7	52	54	433	0.5	432	434	23.3	43.3
2025-07-21T16:10	10	54	1.2	52	55	433	0.4	432	434	23.3	43.3
2025-07-21T16:11	10	63	6.8	55	84	434	0.6	433	436	23.3	43.5
2025-07-21T16:12	10	120	24.7	85	150	440	4.3	434	447	23.3	43.5
2025-07-21T16:13	10	141	5.5	129	146	446	0.8	445	448	23.5	43.5
2025-07-21T16:14	10	145	0.8	144	147	449	2.0	446	452	23.7	43.4
2025-07-21T16:15	10	85	29.7	58	147	444	4.6	436	451	23.6	42.8
2025-07-21T16:16	10	58	0.2	58	59	437	0.7	436	439	23.5	43.4
2025-07-21T16:17	10	59	0.8	58	60	437	0.4	436	437	23.5	44.3
2025-07-21T16:18	10	99	24.7	60	142	442	3.9	436	447	23.7	44.5
2025-07-21T16:19	10	105	11.2	79	123	444	0.6	443	445	23.6	44.0
2025-07-21T16:20	10	78	14.1	59	109	440	2.4	437	444	23.5	43.8
2025-07-21T16:21	10	75	6.8	59	88	438	1.2	436	440	23.5	44.1
2025-07-21T16:22	10	83	17.0	59	113	437	1.5	435	441	23.4	44.5
2025-07-21T16:23	10	68	14.2	50	102	437	1.5	436	441	23.4	44.7
2025-07-21T16:24	10	62	8.2	49	74	437	1.0	435	438	23.6	45.1
2025-07-21T16:25	10	43	5.8	37	62	435	1.8	432	438	23.5	45.3
2025-07-21T16:26	10	33	1.9	30	37	431	1.1	428	433	23.3	45.2
2025-07-21T16:27	10	28	1.0	27	30	429	0.6	428	430	23.1	45.6
2025-07-21T16:28	10	25	0.8	24	27	428	0.6	427	429	23.1	45.8
2025-07-21T16:29	10	23	0.6	22	24	427	0.2	426	427	23.0	46.2
2025-07-21T16:30	10	21	0.6	20	22	427	0.2	426	427	23.0	46.7
2025-07-21T16:31	10	19	0.6	18	20	426	0.2	426	427	23.0	47.0
2025-07-21T16:32	10	17	0.6	16	18	425	0.4	425	426	23.0	47.0
2025-07-21T16:33	10	15	0.5	14	16	425	0.4	424	425	22.9	47.1
2025-07-21T16:34	10	14	0.4	13	15	424	0.4	423	425	22.8	47.7
2025-07-21T16:35	10	12	0.4	12	13	423	0.4	423	424	22.7	47.3
2025-07-21T16:36	10	11	0.4	10	12	422	0.5	421	423	22.5	47.7
2025-07-21T16:37	10	10	0.3	10	11	422	0.2	421	422	22.3	48.2
2025-07-21T16:38	10	9	0.3	9	10	421	0.2	421	422	22.3	47.3
2025-07-21T16:39	10	8	0.2	8	9	420	0.4	419	421	22.1	47.8
2025-07-21T16:40	10	8	0.2	7	8	419	0.4	419	420	22.0	48.5
2025-07-21T16:41	10	7	0.2	7	8	418	0.5	417	419	21.8	47.4
2025-07-21T16:42	10	7	0.3	6	7	415	1.0	413	417	21.4	48.4
2025-07-21T16:43	10	6	0.3	5	6	412	0.5	411	414	21.0	50.6
2025-07-21T16:44	10	6	0.1	5	6	411	0.3	411	412	20.8	52.4
2025-07-21T16:45	10	6	0.2	6	7	412	0.7	411	413	20.7	53.9
2025-07-21T16:46	10	7	0.3	6	7	412	0.6	411	414	20.7	54.8
2025-07-21T16:47	10	8	0.3	7	8	412	0.4	412	413	20.6	56.0
2025-07-21T16:48	10	8	0.1	8	8	410	0.4	410	411	20.4	58.5
2025-07-21T16:49	10	8	0.4	7	9	410	0.2	409	410	20.3	59.6
2025-07-21T16:50	10	7	0.3	6	8	409	0.3	408	410	20.2	60.3
2025-07-21T16:51	10	6	0.3	5	7	409	0.4	408	409	20.0	61.3
2025-07-21T16:52	10	6	0.2	5	6	408	0.5	407	409	20.0	59.7
2025-07-21T16:53	10	6	0.1	5	6	408	0.3	407	408	19.8	58.6
2025-07-21T16:54	10	6	0.2	5	6	407	0.3	407	408	19.7	58.8
2025-07-21T16:55	10	6	0.1	6	6	407	0.3	407	408	19.6	57.4
2025-07-21T16:56	10	6	0.1	6	6	407	0.3	407	408	19.6	56.4
2025-07-21T16:57	10	6	0.2	6	7	407	0.3	407	408	19.6	56.7
2025-07-21T16:58	10	7	0.2	7	7	407	0.3	407	408	19.5	57.0
2025-07-21T16:59	10	8	0.2	7	8	407	0.3	406	408	19.5	57.1
2025-07-21T17:00	10	8	0.2	8	9	407	0.3	406	408	19.4	56.7
2025-07-21T17:01	10	9	0.2	8	9	407	0.3	406	408	19.4	57.7
2025-07-21T17:02	10	9	0.2	9	10	407	0.3	407	408	19.3	58.1
2025-07-21T17:03	10	10	0.2	10	11	407	0.3	407	408	19.3	57.7
2025-07-21T17:04	10	11	0.2	10	11	408	0.4	407	408	19.4	57.4
2025-07-21T17:05	10	12	0.2	11	12	408	0.4	407	409	19.4	57.6
2025-07-21T17:06	10	12	0.1	12	12	408	0.4	408	409	19.4	56.6
2025-07-21T17:07	10	12	0.1	12	13	409	0.4	408	410	19.5	55.0
2025-07-21T17:08	10	12	0.2	12	13	409	0.3	409	410	19.6	53.9
2025-07-21T17:09	10	11	0.3	11	12	409	0.2	408	409	19.7	53.9
2025-07-21T17:10	10	10	0.6	9	11	409	0.2	408	409	19.7	53.2
2025-07-21T17:11	10	8	0.7	6	9	408	0.2	408	409	19.6	54.4
2025-07-21T17:12	10	5	0.6	4	6	408	0.2	408	409	19.6	54.8
2025-07-21T17:13	10	4	0.3	3	4	408	0.2	407	408	19.7	54.6
2025-07-21T17:14	10	3	0.2	3	3	407	0.4	406	408	19.7	55.2
2025-07-21T17:15	10	3	0.2	2	3	402	2.1	399	406	19.4	58.4
2025-07-21T17:16	10	3	0.1	2	3	399	1.0	398	401	19.0	59.9
2025-07-21T17:17	10	3	0.1	2	3	397	0.9	396	399	18.8	60.4
2025-07-21T17:18	10	3	0.1	2	3	396	0.6	394	397	18.1	65.8
2025-07-21T17:19	10	2	0.1	2	3	395	0.3	394	395	17.2	71.6
2025-07-21T17:20	10	3	0.2	2	3	395	0.5	394	396	17.5	71.2
2025-07-21T17:21	10	3	0.2	3	4	395	0.6	394	396	17.6	71.9
2025-07-21T17:22	10	4	0.3	4	5	396	0.6	395	397	17.5	73.2
2025-07-21T17:23	10	5	0.3	4	5	396	0.4	395	396	17.6	74.0
2025-07-21T17:24	10	6	0.3	5	6	396	0.6	395	397	17.4	75.2
2025-07-21T17:25	10	7	0.2	6	7	396	0.4	395	397	17.4	76.0
2025-07-21T17:26	10	7	0.2	7	7	396	0.5	395	397	17.3	77.1
2025-07-21T17:27	10	7	0.2	7	8	397	0.4	396	398	17.1	77.9
2025-07-21T17:28	10	7	0.2	7	8	397	0.4	396	397	17.1	77.4
2025-07-21T17:29	10	8	0.2	7	8	397	0.5	396	398	17.1	77.9
2025-07-21T17:30	10	8	0.2	8	9	396	0.2	396	397	17.1	78.1
2025-07-21T17:31	10	9	0.5	8	10	397	0.3	396	397	17.2	77.6
2025-07-21T17:32	10	13	1.6	10	16	397	0.5	396	398	17.1	79.0
2025-07-21T17:33	10	22	5.1	17	31	398	0.8	397	400	17.1	78.8
2025-07-21T17:34	10	27	3.2	23	36	399	0.5	398	400	17.1	78.8
2025-07-21T17:35	10	42	4.5	36	53	400	0.9	398	402	17.1	79.7
2025-07-21T17:36	10	45	6.1	30	54	401	0.3	400	402	17.1	78.6
2025-07-21T17:37	10	24	2.3	21	30	400	0.4	399	401	17.2	78.1
2025-07-21T17:38	10	40	15.5	22	61	400	1.2	399	403	17.2	78.8
2025-07-21T17:39	10	57	4.3	53	65	402	0.6	401	404	17.2	78.8
2025-07-21T17:40	10	62	1.1	60	64	404	0.5	402	405	17.3	78.4
2025-07-21T17:41	10	59	2.8	54	63	404	0.3	404	405	17.3	78.8
2025-07-21T17:42	10	61	0.5	60	62	405	0.3	404	405	17.5	78.1
2025-07-21T17:43	10	57	6.4	38	62	405	0.4	404	406	17.5	78.4
2025-07-21T17:44	10	56	10.2	37	69	405	0.9	404	407	17.5	78.4
2025-07-21T17:45	10	71	1.0	69	72	407	0.5	406	408	17.8	76.1
2025-07-21T17:46	10	68	0.9	66	69	406	0.8	405	407	17.9	75.2
2025-07-21T17:47	10	66	0.6	65	66	406	0.5	405	407	17.8	77.5
2025-07-21T17:48	10	67	1.1	65	69	407	0.2	406	407	17.8	77.6
2025-07-21T17:49	10	71	0.6	69	71	408	0.6	407	409	17.8	79.7
2025-07-21T17:50	10	71	0.1	71	72	408	0.3	408	409	17.8	78.3
2025-07-21T17:51	10	71	0.2	70	71	409	0.4	408	410	17.9	78.8
2025-07-21T17:52	10	70	0.4	69	70	409	0.3	408	410	17.9	79.2
2025-07-21T17:53	10	69	0.2	68	69	409	0.2	409	410	18.0	77.6
2025-07-21T17:54	10	68	0.5	67	69	409	0.4	408	410	18.2	76.4
2025-07-21T17:55	10	66	0.7	64	67	409	0.3	408	410	18.3	75.6
2025-07-21T17:56	10	64	0.5	63	65	409	0.2	408	409	18.4	75.4
2025-07-21T17:57	10	62	0.7	60	63	409	0.2	408	409	18.4	76.0
2025-07-21T17:58	10	60	0.5	59	61	410	0.3	409	410	18.4	77.2
2025-07-21T17:59	10	58	0.8	56	59	409	1.1	407	411	18.4	76.5
2025-07-21T18:00	10	50	7.6	33	57	407	0.6	406	408	18.4	76.8
2025-07-21T18:01	10	22	4.2	17	32	405	1.2	403	407	18.3	76.2
2025-07-21T18:02	10	16	0.8	15	18	403	0.4	402	404	18.3	77.5
2025-07-21T18:03	10	14	0.6	13	16	403	0.4	402	403	18.2	77.5
2025-07-21T18:04	10	13	0.5	12	13	402	0.6	401	403	18.2	76.9
2025-07-21T18:05	10	11	0.3	11	12	401	0.3	400	401	18.2	77.2
2025-07-21T18:06	10	10	0.3	10	11	400	0.4	399	401	18.2	76.9
2025-07-21T18:07	10	9	0.3	9	10	400	0.3	399	400	18.1	78.4
2025-07-21T18:08	10	8	0.3	8	9	400	0.2	399	400	18.1	77.8
2025-07-21T18:09	10	7	0.3	7	8	399	0.3	398	400	18.1	77.6
2025-07-21T18:10	10	7	0.1	7	7	399	0.2	398	399	18.0	78.5
2025-07-21T18:11	10	7	0.1	7	7	398	0.3	398	399	17.9	79.4
2025-07-21T18:12	10	7	0.1	6	7	399	0.3	398	399	17.9	78.8
2025-07-21T18:13	10	6	0.2	6	7	398	0.2	398	399	17.9	79.2
2025-07-21T18:14	10	6	0.2	5	6	398	0.3	397	399	17.9	80.0
2025-07-21T18:15	10	5	0.2	5	5	398	0.2	398	399	17.8	80.7
2025-07-21T18:16	10	5	0.1	4	5	398	0.2	398	398	17.8	80.4
2025-07-21T18:17	10	5	0.1	4	5	398	0.2	398	399	17.8	80.0
2025-07-21T18:18	10	5	0.2	5	5	398	0.3	398	399	17.8	80.7
2025-07-21T18:19	10	5	0.2	5	6	399	0.3	398	399	17.7	81.0
2025-07-21T18:20	10	6	0.1	6	6	399	0.4	398	400	17.7	81.8
2025-07-21T18:21	10	6	0.1	6	6	399	0.2	399	400	17.7	81.4
2025-07-21T18:22	10	6	0.2	5	6	399	0.3	399	400	17.7	82.0
2025-07-21T18:23	10	5	0.2	5	6	399	0.3	398	400	17.6	82.1
2025-07-21T18:24	10	5	0.1	5	5	399	0.3	398	399	17.7	81.0
2025-07-21T18:25	10	5	0.1	4	5	398	0.3	397	399	17.7	81.2
2025-07-21T18:26	10	4	0.1	4	4	398	0.2	397	398	17.8	79.9
2025-07-21T18:27	10	4	0.1	4	4	397	0.2	397	398	17.7	80.2
2025-07-21T18:28	10	4	0.1	3	4	397	0.3	397	398	17.8	79.7
2025-07-21T18:29	10	4	0.1	3	4	397	0.2	397	398	17.8	80.1
2025-07-21T18:30	10	4	0.1	3	4	398	0.3	397	398	17.8	80.2
2025-07-21T18:31	10	3	0.1	3	4	397	0.3	397	399	17.7	80.4
2025-07-21T18:32	10	3	0.1	3	4	398	0.2	397	398	17.7	80.4
2025-07-21T18:33	10	3	0.1	3	3	398	0.3	397	398	17.7	81.4
2025-07-21T18:34	10	3	0.1	3	3	398	0.3	398	399	17.6	81.5
2025-07-21T18:35	10	3	0.1	3	3	398	0.2	397	398	17.6	82.2
2025-07-21T18:36	10	3	0.1	3	3	398	0.2	398	399	17.5	82.7
2025-07-21T18:37	10	3	0.1	3	3	398	0.2	398	399	17.6	82.4
2025-07-21T18:38	10	3	0.1	2	3	398	0.3	398	399	17.6	82.5
2025-07-21T18:39	10	2	0.1	2	3	399	0.2	398	399	17.6	82.3
2025-07-21T18:40	10	2	0.1	2	3	399	0.2	398	399	17.6	82.4
2025-07-21T18:41	10	3	0.1	2	3	399	0.3	398	399	17.6	82.4
2025-07-21T18:42	10	3	0.1	2	3	398	0.2	398	399	17.6	82.0
2025-07-21T18:43	10	3	0.1	2	3	398	0.2	398	399	17.6	81.8
2025-07-21T18:44	10	2	0.1	2	3	399	0.3	398	399	17.6	82.2
2025-07-21T18:45	10	2	0.1	2	3	399	0.3	398	399	17.6	81.3
2025-07-21T18:46	10	2	0.1	2	2	399	0.2	398	399	17.7	80.8
2025-07-21T18:47	10	2	0.1	2	2	399	0.3	398	399	17.8	80.5
2025-07-21T18:48	10	2	0.1	1	2	399	0.2	398	399	17.8	79.9
2025-07-21T18:49	10	1	0.1	1	2	399	0.2	398	399	17.8	80.2
2025-07-21T18:50	10	1	0.1	1	2	399	0.3	398	399	17.8	80.2
2025-07-21T18:51	10	1	0.1	1	1	399	0.3	398	399	17.9	79.7
2025-07-21T18:52	10	1	0.2	1	1	399	0.2	398	399	17.9	79.6
2025-07-21T18:53	10	1	0.1	1	1	398	0.3	398	399	17.8	80.2
2025-07-21T18:54	10	1	0.2	1	1	399	0.3	398	400	17.8	79.9
2025-07-21T18:55	10	1	0.2	0	1	398	0.3	398	399	17.8	80.7
2025-07-21T18:56	10	1	0.1	1	1	399	0.2	398	399	17.8	80.5
2025-07-21T18:57	10	1	0.1	1	1	398	0.2	398	399	17.8	80.9
2025-07-21T18:58	10	1	0.2	0	1	398	0.3	398	399	17.7	80.9
2025-07-21T18:59	10	1	0.2	0	1	399	0.3	398	399	17.8	80.2
2025-07-21T19:00	10	1	0.2	0	1	399	0.3	398	400	17.8	80.4
2025-07-21T19:01	10	1	0.2	0	1	399	0.2	398	399	17.8	80.3
2025-07-21T19:02	10	0	0.2	0	1	399	0.3	398	400	17.8	80.1
2025-07-21T19:03	10	1	0.2	0	1	398	0.2	398	399	17.8	80.4
2025-07-21T19:04	10	0	0.1	0	1	398	0.3	398	399	17.8	80.6
2025-07-21T19:05	10	0	0.1	0	1	398	0.2	398	399	17.7	81.1
2025-07-21T19:06	10	0	0.1	0	0	398	0.3	398	399	17.7	81.5
2025-07-21T19:07	10	0	0.1	0	0	398	0.2	398	399	17.8	80.8
2025-07-21T19:08	10	0	0.1	0	1	398	0.2	398	399	17.7	81.4
2025-07-21T19:09	10	0	0.1	0	0	398	0.3	398	399	17.7	81.9
2025-07-21T19:10	10	0	0.1	0	0	398	0.3	398	399	17.6	82.5
2025-07-21T19:11	10	0	0.0	0	0	398	0.2	398	398	17.6	82.8
2025-07-21T19:12	10	0	0.1	0	0	398	0.2	398	399	17.7	82.3
2025-07-21T19:13	10	0	0.1	0	0	398	0.2	398	399	17.6	82.8
2025-07-21T19:14	10	0	0.0	0	0	398	0.3	398	399	17.6	82.6
2025-07-21T19:15	10	0	0.1	0	0	399	0.2	398	399	17.7	82.1
2025-07-21T19:16	10	0	0.1	0	0	398	0.2	398	399	17.7	82.3
2025-07-21T19:17	10	0	0.1	0	0	398	0.2	398	399	17.7	82.3
2025-07-21T19:18	10	0	0.1	0	0	398	0.2	398	399	17.7	82.1
2025-07-21T19:19	10	0	0.1	0	0	398	0.2	398	399	17.7	82.4
2025-07-21T19:20	10	0	0.0	0	0	398	0.3	398	399	17.7	82.5
2025-07-21T19:21	10	0	0.1	0	0	398	0.3	398	398	17.6	83.2
2025-07-21T19:22	10	0	0.1	0	0	398	0.2	397	398	17.6	83.7
2025-07-21T19:23	10	0	0.1	0	0	398	0.3	397	399	17.7	82.8
2025-07-21T19:24	10	0	0.1	0	0	398	0.2	397	399	17.7	83.2
2025-07-21T19:25	10	0	0.1	0	0	398	0.2	397	398	17.6	83.8
2025-07-21T19:26	10	0	0.1	0	0	398	0.2	397	399	17.7	82.6
2025-07-21T19:27	10	0	0.1	0	0	398	0.2	398	399	17.7	82.3
2025-07-21T19:28	10	0	0.1	0	0	398	0.3	398	399	17.8	81.6
2025-07-21T19:29	10	0	0.1	0	0	399	0.3	398	399	17.9	79.3
2025-07-21T19:30	10	0	0.1	0	0	398	0.2	398	399	18.0	78.5
2025-07-21T19:31	10	0	0.1	0	0	398	0.4	397	399	17.9	80.0
2025-07-21T19:32	10	0	0.1	0	0	398	0.3	398	399	17.9	79.8
2025-07-21T19:33	10	0	0.1	0	0	398	0.2	398	399	18.0	78.4
2025-07-21T19:34	10	0	0.1	0	0	398	0.3	398	399	18.0	78.8
2025-07-21T19:35	10	0	0.1	0	0	398	0.2	398	398	18.0	78.7
2025-07-21T19:36	10	0	0.1	0	0	398	0.2	398	398	17.9	79.0
2025-07-21T19:37	10	0	0.1	0	0	398	0.2	397	398	17.9	80.0
2025-07-21T19:38	10	0	0.1	0	0	398	0.2	397	398	17.8	80.4
2025-07-21T19:39	10	0	0.1	0	0	398	0.2	397	399	18.0	78.0
2025-07-21T19:40	10	0	0.1	0	0	398	0.2	398	398	17.9	78.8
2025-07-21T19:41	10	0	0.1	0	0	398	0.2	397	398	17.9	78.8
2025-07-21T19:42	10	0	0.1	0	0	398	0.3	397	399	17.9	79.1
2025-07-21T19:43	10	0	0.1	0	0	398	0.2	397	398	17.9	79.1
2025-07-21T19:44	10	0	0.1	0	0	398	0.3	397	398	17.9	78.8
2025-07-21T19:45	10	0	0.1	0	0	398	0.2	397	398	17.9	78.8
2025-07-21T19:46	10	0	0.1	0	0	398	0.3	397	398	17.9	79.0
2025-07-21T19:47	10	0	0.1	0	0	397	0.3	397	398	17.8	79.4
2025-07-21T19:48	10	0	0.1	0	0	398	0.3	397	398	17.8	78.6
2025-07-21T19:49	10	0	0.1	0	0	398	0.3	397	398	18.0	77.1
2025-07-21T19:50	10	0	0.1	0	0	398	0.2	397	398	18.1	75.3
2025-07-21T19:51	10	0	0.1	0	0	398	0.3	397	398	18.1	76.6
2025-07-21T19:52	10	0	0.1	0	0	398	0.2	397	398	18.1	75.0
2025-07-21T19:53	10	0	0.1	0	0	398	0.3	397	398	18.2	74.3
2025-07-21T19:54	10	0	0.1	0	1	398	0.3	397	398	18.2	73.8
2025-07-21T19:55	10	0	0.1	0	1	398	0.3	397	398	18.0	76.0
2025-07-21T19:56	10	0	0.1	0	1	398	0.2	397	398	18.1	75.1
2025-07-21T19:57	10	0	0.1	0	1	397	0.4	396	398	18.0	76.0
2025-07-21T19:58	10	0	0.1	0	1	397	0.3	397	398	18.0	76.2
2025-07-21T19:59	10	0	0.1	0	1	397	0.3	397	398	18.1	74.9
2025-07-21T20:00	10	0	0.1	0	1	398	0.2	397	398	18.1	74.8
2025-07-21T20:01	10	0	0.1	0	1	397	0.3	397	398	18.1	74.7
2025-07-21T20:02	10	0	0.1	0	0	397	0.3	397	398	18.1	75.1
2025-07-21T20:03	10	0	0.1	0	0	397	0.2	397	398	18.1	74.3
2025-07-21T20:04	10	0	0.1	0	0	397	0.3	397	398	18.3	72.7
2025-07-21T20:05	10	0	0.1	0	1	397	0.3	397	398	18.3	72.3
2025-07-21T20:06	10	0	0.1	0	0	398	0.3	397	398	18.5	70.4
2025-07-21T20:07	10	0	0.1	0	1	397	0.2	396	397	18.4	72.3
2025-07-21T20:08	10	0	0.1	0	1	397	0.3	396	398	18.3	72.0
2025-07-21T20:09	10	0	0.1	0	1	397	0.2	397	397	18.3	72.5
2025-07-21T20:10	10	0	0.1	0	1	397	0.3	396	398	18.3	71.6
2025-07-21T20:11	10	0	0.1	0	0	396	0.3	396	397	18.2	73.1
2025-07-21T20:12	10	0	0.1	0	0	397	0.3	396	397	18.1	73.5
2025-07-21T20:13	10	0	0.1	0	0	396	0.2	396	397	18.1	73.7
2025-07-21T20:14	10	0	0.1	0	0	397	0.3	396	397	18.1	73.4
2025-07-21T20:15	10	0	0.1	0	0	396	0.3	396	397	18.1	73.7
2025-07-21T20:16	10	0	0.1	0	0	396	0.2	396	397	18.1	73.8
2025-07-21T20:17	10	0	0.1	0	0	396	0.3	395	397	18.1	73.8
2025-07-21T20:18	10	0	0.1	0	0	396	0.2	396	396	18.0	74.5
2025-07-21T20:19	10	0	0.1	0	0	396	0.2	395	396	17.9	75.4
2025-07-21T20:20	10	0	0.1	0	0	395	0.2	395	396	17.9	75.1
2025-07-21T20:21	10	0	0.1	0	0	395	0.3	395	396	17.9	75.2
2025-07-21T20:22	10	0	0.1	0	0	395	0.2	394	396	17.9	75.3
2025-07-21T20:23	10	0	0.1	0	0	395	0.3	394	396	17.8	75.8
2025-07-21T20:24	10	0	0.0	0	0	395	0.3	394	395	17.8	76.4
2025-07-21T20:25	10	0	0.1	0	0	395	0.2	394	395	17.8	76.4
2025-07-21T20:26	10	0	0.1	0	0	395	0.2	394	395	17.8	76.4
2025-07-21T20:27	10	0	0.0	0	0	395	0.2	394	395	17.7	77.0
2025-07-21T20:28	10	0	0.1	0	0	395	0.2	394	395	17.6	77.7
2025-07-21T20:29	10	0	0.1	0	0	395	0.2	394	395	17.6	77.9
2025-07-21T20:30	10	0	0.1	0	1	395	0.2	394	395	17.6	78.2
2025-07-21T20:31	10	0	0.1	0	0	394	0.2	394	395	17.5	78.9
2025-07-21T20:32	10	0	0.1	0	0	395	0.2	394	395	17.5	78.7
2025-07-21T20:33	10	0	0.1	0	0	395	0.3	394	396	17.5	79.7
2025-07-21T20:34	10	0	0.1	0	0	395	0.3	394	395	17.5	79.8
2025-07-21T20:35	10	0	0.1	0	0	395	0.2	394	396	17.4	80.1
2025-07-21T20:36	10	0	0.1	0	0	395	0.2	395	396	17.4	80.3
2025-07-21T20:37	10	0	0.1	0	0	395	0.3	395	396	17.4	80.0
2025-07-21T20:38	10	0	0.1	0	0	396	0.3	395	396	17.4	79.8
2025-07-21T20:39	10	0	0.1	0	0	395	0.2	395	396	17.4	79.6
2025-07-21T20:40	10	0	0.1	0	0	395	0.2	395	396	17.4	79.4
2025-07-21T20:41	10	0	0.1	0	0	396	0.3	395	396	17.5	78.0
2025-07-21T20:42	10	0	0.1	0	0	396	0.2	395	396	17.5	78.3
2025-07-21T20:43	10	0	0.1	0	0	396	0.2	395	397	17.6	77.5
2025-07-21T20:44	10	0	0.1	0	0	396	0.2	395	396	17.6	77.4
2025-07-21T20:45	10	0	0.1	0	0	396	0.2	395	396	17.6	77.1
2025-07-21T20:46	10	0	0.1	0	0	396	0.3	395	396	17.6	77.2
2025-07-21T20:47	10	0	0.1	0	0	396	0.2	396	397	17.6	77.1
2025-07-21T20:48	10	0	0.1	0	0	396	0.2	395	396	17.6	77.5
2025-07-21T20:49	10	0	0.1	0	0	396	0.2	395	396	17.6	77.6
2025-07-21T20:50	10	0	0.1	0	0	396	0.2	395	396	17.6	77.7
2025-07-21T20:51	10	0	0.1	0	0	396	0.2	395	396	17.6	77.7
2025-07-21T20:52	10	0	0.1	0	0	396	0.2	395	396	17.6	77.3
2025-07-21T20:53	10	0	0.1	0	0	396	0.2	395	396	17.6	77.2
2025-07-21T20:54	10	0	0.1	0	0	396	0.2	395	396	17.6	76.8
2025-07-21T20:55	10	0	0.1	0	0	396	0.3	395	396	17.6	76.5
2025-07-21T20:56	10	0	0.1	0	0	396	0.2	395	396	17.6	76.2
2025-07-21T20:57	10	0	0.1	0	0	396	0.2	395	396	17.6	76.6
2025-07-21T20:58	10	0	0.1	0	0	396	0.2	395	396	17.6	77.5
2025-07-21T20:59	10	0	0.1	0	0	395	0.2	395	396	17.5	77.9
2025-07-21T21:00	10	0	0.1	0	0	396	0.2	395	396	17.5	77.6
2025-07-21T21:01	10	0	0.1	0	0	396	0.2	395	396	17.5	77.7
2025-07-21T21:02	10	0	0.1	0	0	395	0.2	395	396	17.5	77.7
2025-07-21T21:03	10	0	0.1	0	0	395	0.2	395	396	17.6	76.6
2025-07-21T21:04	10	0	0.1	0	0	396	0.2	395	396	17.6	76.9
2025-07-21T21:05	10	0	0.1	0	0	395	0.2	395	396	17.6	76.7
2025-07-21T21:06	10	0	0.1	0	0	396	0.2	395	396	17.6	76.3
2025-07-21T21:07	10	0	0.1	0	0	395	0.3	395	396	17.6	76.1
2025-07-21T21:08	10	0	0.1	0	0	396	0.3	395	396	17.7	75.6
2025-07-21T21:09	10	0	0.1	0	0	396	0.3	396	397	17.9	73.9
2025-07-21T21:10	10	0	0.1	0	0	396	0.3	395	397	18.0	73.5
2025-07-21T21:11	10	0	0.1	0	0	396	0.3	395	397	17.9	74.0
2025-07-21T21:12	10	0	0.1	0	0	396	0.2	396	397	17.9	73.6
2025-07-21T21:13	10	0	0.1	0	0	396	0.3	396	397	18.0	72.7
2025-07-21T21:14	10	0	0.1	0	0	397	0.2	396	397	18.0	73.0
2025-07-21T21:15	10	0	0.1	0	0	397	0.3	396	397	18.0	72.9
2025-07-21T21:16	10	0	0.1	0	0	397	0.2	396	397	18.0	72.7
2025-07-21T21:17	10	0	0.1	0	0	397	0.3	396	397	18.1	72.2
2025-07-21T21:18	10	0	0.1	0	0	397	0.3	396	397	18.1	72.0
2025-07-21T21:19	10	0	0.1	0	0	396	0.3	396	397	18.1	72.2
2025-07-21T21:20	10	0	0.1	0	0	397	0.3	396	398	18.1	71.7
2025-07-21T21:21	10	0	0.1	0	0	396	0.3	396	397	18.1	71.7
2025-07-21T21:22	10	0	0.1	0	0	397	0.3	396	397	18.2	70.2
2025-07-21T21:23	10	0	0.1	0	0	397	0.2	396	397	18.3	69.9
2025-07-21T21:24	10	0	0.1	0	0	397	0.2	396	397	18.3	69.8
2025-07-21T21:25	10	0	0.1	0	0	397	0.3	396	397	18.3	69.2
2025-07-21T21:26	10	0	0.1	0	0	397	0.3	396	398	18.4	68.1
2025-07-21T21:27	10	0	0.1	0	0	397	0.4	396	398	18.5	66.8
2025-07-21T21:28	10	0	0.1	0	0	397	0.3	396	398	18.8	64.5
2025-07-21T21:29	10	0	0.1	0	0	397	0.3	397	398	18.7	64.7
2025-07-21T21:30	10	0	0.1	0	0	398	0.2	397	398	18.8	63.4
2025-07-21T21:31	10	0	0.1	0	0	398	0.2	398	399	18.9	62.3
2025-07-21T21:32	10	0	0.1	0	1	398	0.2	398	399	19.1	60.3
2025-07-21T21:33	10	0	0.1	0	0	398	0.3	398	399	19.2	60.3
2025-07-21T21:34	10	0	0.1	0	1	399	0.3	398	399	19.2	59.8
2025-07-21T21:35	10	0	0.1	0	0	398	0.3	398	399	19.2	59.8
2025-07-21T21:36	10	0	0.1	0	1	399	0.3	398	399	19.3	59.0
2025-07-21T21:37	10	0	0.1	0	1	399	0.5	398	400	19.3	58.6
2025-07-21T21:38	10	0	0.1	0	1	398	0.2	398	399	19.3	59.2
2025-07-21T21:39	10	0	0.1	0	1	398	0.4	397	399	19.4	58.3
2025-07-21T21:40	10	0	0.0	0	0	399	0.3	398	399	19.4	58.1
2025-07-21T21:41	10	0	0.1	0	0	399	0.3	398	399	19.4	57.4
2025-07-21T21:42	10	0	0.1	0	0	398	0.4	397	399	19.4	58.1
2025-07-21T21:43	10	0	0.1	0	1	398	0.2	398	398	19.3	58.3
2025-07-21T21:44	10	0	0.1	0	1	398	0.2	398	399	19.4	57.6
2025-07-21T21:45	10	0	0.1	0	1	398	0.2	397	398	19.3	58.0
2025-07-21T21:46	10	0	0.1	0	0	398	0.4	397	399	19.3	57.9
2025-07-21T21:47	10	0	0.1	0	0	398	0.2	397	398	19.3	58.6
2025-07-21T21:48	10	0	0.1	0	0	398	0.4	397	399	19.3	57.9
2025-07-21T21:49	10	0	0.1	0	0	398	0.3	397	398	19.3	58.1
2025-07-21T21:50	10	0	0.1	0	0	398	0.2	398	399	19.2	58.9
2025-07-21T21:51	10	0	0.1	0	0	398	0.3	397	398	19.1	59.3
2025-07-21T21:52	10	0	0.1	0	0	398	0.3	397	398	19.1	59.8
2025-07-21T21:53	10	0	0.1	0	0	398	0.3	397	398	19.0	60.1
2025-07-21T21:54	10	0	0.1	0	0	398	0.2	397	398	19.1	59.5
2025-07-21T21:55	10	0	0.0	0	0	398	0.3	398	399	19.1	59.5
2025-07-21T21:56	10	0	0.0	0	0	398	0.2	397	398	19.3	58.2
2025-07-21T21:57	10	0	0.1	0	0	397	0.3	397	398	19.2	59.0
2025-07-21T21:58	10	0	0.1	0	0	397	0.2	397	398	19.1	59.4
2025-07-21T21:59	10	0	0.0	0	0	397	0.3	396	397	19.1	57.4
2025-07-21T22:00	10	0	0.1	0	0	397	0.2	396	397	19.1	57.4
2025-07-21T22:01	10	0	0.1	0	0	396	0.4	395	397	19.1	59.4
2025-07-21T22:02	10	0	0.0	0	0	397	0.2	396	397	19.1	59.4
2025-07-21T22:03	10	0	0.0	0	0	396	0.2	396	397	19.1	59.4
2025-07-21T22:04	10	0	0.1	0	0	396	0.4	395	396	19.1	59.4
2025-07-21T22:05	10	0	0.1	0	0	396	0.2	395	396	19.1	59.4
2025-07-21T22:06	10	0	0.1	0	0	396	0.3	395	396	18.8	60.9
2025-07-21T22:07	10	0	0.0	0	0	396	0.2	395	396	18.8	61.5
2025-07-21T22:08	10	0	0.0	0	0	395	0.2	395	396	18.8	61.7
2025-07-21T22:09	10	0	0.0	0	0	396	0.4	395	396	18.7	61.9
2025-07-21T22:10	10	0	0.1	0	0	395	0.3	395	396	18.7	62.1
2025-07-21T22:11	10	0	0.1	0	0	396	0.3	395	396	18.7	61.7
2025-07-21T22:12	10	0	0.1	0	0	396	0.3	395	396	18.7	61.8
2025-07-21T22:13	10	0	0.1	0	0	396	0.3	395	397	18.6	62.1
2025-07-21T22:14	10	0	0.1	0	0	396	0.3	395	396	18.5	62.7
2025-07-21T22:15	10	0	0.1	0	0	395	0.3	395	396	18.5	63.0
2025-07-21T22:16	10	0	0.1	0	0	395	0.3	395	396	18.5	63.6
2025-07-21T22:17	10	0	0.1	0	0	395	0.2	394	395	18.4	63.9
2025-07-21T22:18	10	0	0.1	0	0	395	0.2	395	395	18.4	64.4
2025-07-21T22:19	10	0	0.1	0	0	395	0.3	394	395	18.3	65.0
2025-07-21T22:20	10	0	0.1	0	0	395	0.3	395	396	18.3	65.6
2025-07-21T22:21	10	0	0.1	0	0	395	0.2	395	396	18.3	66.7
2025-07-21T22:22	10	0	0.1	0	0	395	0.2	395	396	18.3	67.1
2025-07-21T22:23	10	0	0.1	0	0	395	0.2	394	395	18.1	68.0
2025-07-21T22:24	10	0	0.1	0	0	395	0.3	394	396	18.2	68.3
2025-07-21T22:25	10	0	0.1	0	0	395	0.3	394	395	18.1	68.9
2025-07-21T22:26	10	0	0.1	0	0	395	0.3	394	395	18.0	69.6
2025-07-21T22:27	10	0	0.1	0	0	394	0.2	394	395	18.0	70.7
2025-07-21T22:28	10	0	0.1	0	0	394	0.2	394	395	17.9	71.4
2025-07-21T22:29	10	0	0.1	0	0	394	0.2	394	395	17.9	72.1
2025-07-21T22:30	10	0	0.1	0	0	395	0.4	394	396	18.0	71.8
2025-07-21T22:31	10	0	0.1	0	0	395	0.3	395	396	18.1	71.3
2025-07-21T22:32	10	0	0.1	0	0	395	0.2	395	395	18.0	71.8
2025-07-21T22:33	10	0	0.1	0	0	394	0.3	394	395	17.9	72.4
2025-07-21T22:34	10	0	0.1	0	0	394	0.4	394	395	17.9	72.6
2025-07-21T22:35	10	0	0.1	0	0	394	0.3	393	395	17.9	72.7
2025-07-21T22:36	10	0	0.1	0	0	394	0.2	393	394	17.8	73.5
2025-07-21T22:37	10	0	0.1	0	0	394	0.5	393	395	17.9	72.6
2025-07-21T22:38	10	0	0.1	0	0	394	0.3	393	395	17.9	72.3
2025-07-21T22:39	10	0	0.1	0	0	394	0.2	394	394	17.8	73.1
2025-07-21T22:40	10	0	0.1	0	0	393	0.2	393	394	17.7	74.0
2025-07-21T22:41	10	0	0.1	0	0	394	0.3	393	394	17.7	73.7
2025-07-21T22:42	10	0	0.1	0	0	394	0.3	393	394	17.7	74.1
2025-07-21T22:43	10	0	0.1	0	0	394	0.3	393	395	17.8	73.6
2025-07-21T22:44	10	0	0.1	0	0	395	0.2	394	395	17.8	73.6
2025-07-21T22:45	10	0	0.1	0	0	394	0.3	394	395	17.8	73.7
2025-07-21T22:46	10	0	0.1	0	0	395	0.2	394	395	17.7	73.9
2025-07-21T22:47	10	0	0.1	0	0	394	0.3	393	394	17.8	73.8
2025-07-21T22:48	10	0	0.1	0	0	393	0.4	393	394	17.7	74.5
2025-07-21T22:49	10	0	0.1	0	0	393	0.3	392	393	17.6	74.9
2025-07-21T22:50	10	0	0.1	0	0	393	0.3	392	393	17.6	74.4
2025-07-21T22:51	10	0	0.1	0	0	392	0.3	392	393	17.6	74.3
2025-07-21T22:52	10	0	0.1	0	0	392	0.3	392	393	17.6	74.8
2025-07-21T22:53	10	0	0.1	0	0	392	0.2	392	393	17.5	75.1
2025-07-21T22:54	10	0	0.1	0	0	392	0.2	392	393	17.5	75.0
2025-07-21T22:55	10	0	0.1	0	0	392	0.3	392	393	17.4	75.8
2025-07-21T22:56	10	0	0.1	0	0	393	0.4	392	393	17.4	75.3
2025-07-21T22:57	10	0	0.1	0	0	393	0.3	392	393	17.5	75.1
2025-07-21T22:58	10	0	0.1	0	0	393	0.3	392	393	17.4	75.5
2025-07-21T22:59	10	0	0.0	0	0	393	0.2	392	393	17.4	75.3
2025-07-21T23:00	10	0	0.1	0	0	393	0.2	392	393	17.4	75.5
2025-07-21T23:01	10	0	0.1	0	0	393	0.3	393	394	17.5	74.8
2025-07-21T23:02	10	0	0.0	0	0	393	0.3	392	393	17.5	74.8
2025-07-21T23:03	10	0	0.1	0	0	393	0.2	392	393	17.5	74.6
2025-07-21T23:04	10	0	0.1	0	0	392	0.2	392	393	17.4	75.3
2025-07-21T23:05	10	0	0.1	0	0	393	0.2	392	393	17.4	75.2
2025-07-21T23:06	10	0	0.1	0	0	392	0.2	392	393	17.4	75.3
2025-07-21T23:07	10	0	0.1	0	0	393	0.3	392	393	17.4	75.2
2025-07-21T23:08	10	0	0.1	0	0	393	0.4	393	394	17.4	75.1
2025-07-21T23:09	10	0	0.1	0	0	394	0.2	393	394	17.5	75.0
2025-07-21T23:10	10	0	0.1	0	0	394	0.3	393	394	17.5	74.6
2025-07-21T23:11	10	0	0.1	0	0	394	0.2	393	394	17.5	74.5
2025-07-21T23:12	10	0	0.1	0	0	394	0.3	393	394	17.5	74.7
2025-07-21T23:13	10	0	0.1	0	0	394	0.3	393	394	17.5	74.9
2025-07-21T23:14	10	0	0.1	0	0	393	0.3	393	394	17.4	75.2
2025-07-21T23:15	10	0	0.1	0	0	393	0.2	392	393	17.5	74.7
2025-07-21T23:16	10	0	0.1	0	0	393	0.2	393	394	17.4	75.4
2025-07-21T23:17	10	0	0.1	0	0	393	0.3	392	394	17.3	75.5
2025-07-21T23:18	10	0	0.0	0	0	393	0.2	392	393	17.3	75.6
2025-07-21T23:19	10	0	0.1	0	0	393	0.2	393	394	17.4	75.1
2025-07-21T23:20	10	0	0.0	0	0	393	0.2	393	393	17.4	75.1
2025-07-21T23:21	10	0	0.1	0	0	393	0.3	392	393	17.3	75.5
2025-07-21T23:22	10	0	0.1	0	0	392	0.2	392	393	17.3	75.4
2025-07-21T23:23	10	0	0.1	0	0	392	0.2	392	392	17.3	76.0
2025-07-21T23:24	10	0	0.1	0	0	392	0.4	392	393	17.3	75.3
2025-07-21T23:25	10	0	0.1	0	0	392	0.2	392	393	17.3	75.3
2025-07-21T23:26	10	0	0.1	0	0	393	0.3	392	393	17.3	75.6
2025-07-21T23:27	10	0	0.1	0	0	393	0.2	392	393	17.3	75.5
2025-07-21T23:28	10	0	0.1	0	0	393	0.3	393	394	17.3	75.3
2025-07-21T23:29	10	0	0.1	0	0	393	0.3	393	394	17.3	75.6
2025-07-21T23:30	10	0	0.1	0	0	394	0.3	393	394	17.3	75.6
2025-07-21T23:31	10	0	0.1	0	0	394	0.2	393	394	17.3	75.6
2025-07-21T23:32	10	0	0.1	0	0	394	0.3	393	394	17.3	75.7
2025-07-21T23:33	10	0	0.1	0	0	394	0.2	394	395	17.4	74.9
2025-07-21T23:34	10	0	0.1	0	0	394	0.2	394	395	17.4	74.9
2025-07-21T23:35	10	0	0.1	0	0	394	0.2	394	395	17.4	74.8
2025-07-21T23:36	10	0	0.1	0	0	394	0.3	394	395	17.4	75.1
2025-07-21T23:37	10	0	0.1	0	0	395	0.3	394	395	17.4	75.1
2025-07-21T23:38	10	0	0.1	0	0	394	0.3	394	395	17.4	75.4
2025-07-21T23:39	10	0	0.1	0	0	394	0.2	393	395	17.3	75.6
2025-07-21T23:40	10	0	0.1	0	0	394	0.2	394	395	17.3	75.9
2025-07-21T23:41	10	0	0.1	0	0	395	0.3	394	395	17.4	74.8
2025-07-21T23:42	10	0	0.1	0	0	394	0.2	394	395	17.4	75.2
2025-07-21T23:43	10	0	0.0	0	0	394	0.2	394	395	17.4	74.9
2025-07-21T23:44	10	0	0.1	0	0	394	0.2	394	395	17.4	75.0
2025-07-21T23:45	10	0	0.1	0	0	395	0.2	394	395	17.4	75.2
2025-07-21T23:46	10	0	0.1	0	0	394	0.3	394	395	17.4	75.3
2025-07-21T23:47	10	0	0.1	0	0	395	0.3	394	395	17.4	75.3
2025-07-21T23:48	10	0	0.1	0	0	395	0.2	394	395	17.4	75.4
2025-07-21T23:49	10	0	0.1	0	0	395	0.2	394	395	17.4	75.5
2025-07-21T23:50	10	0	0.1	0	0	395	0.3	394	395	17.4	75.5
2025-07-21T23:51	10	0	0.1	0	0	395	0.2	394	395	17.4	75.5
2025-07-21T23:52	10	0	0.0	0	0	395	0.2	395	396	17.4	75.5
2025-07-21T23:53	10	0	0.1	0	0	395	0.2	395	396	17.3	76.0
2025-07-21T23:54	10	0	0.1	0	0	396	0.2	395	396	17.5	74.7
2025-07-21T23:55	10	0	0.1	0	0	395	0.2	395	396	17.5	75.2
2025-07-21T23:56	10	0	0.1	0	0	395	0.3	394	396	17.5	75.2
2025-07-21T23:57	10	0	0.1	0	0	395	0.4	394	396	17.5	75.6
2025-07-21T23:58	10	0	0.1	0	0	394	0.4	393	395	17.3	76.9
2025-07-21T23:59	10	0	0.1	0	0	394	0.2	393	394	17.2	77.2
2025-07-22T00:00	10	0	0.1	0	1	393	0.3	392	394	17.1	78.9
2025-07-22T00:01	10	0	0.1	0	0	393	0.2	392	393	16.9	80.5
2025-07-22T00:02	10	0	0.1	0	0	393	0.2	392	393	16.8	80.6
2025-07-22T00:03	10	0	0.0	0	0	392	0.2	392	393	16.8	80.7
2025-07-22T00:04	10	0	0.1	0	0	392	0.2	392	393	16.7	82.5
2025-07-22T00:05	10	0	0.1	0	0	392	0.3	391	393	16.6	83.1
2025-07-22T00:06	10	0	0.1	0	0	392	0.3	391	393	16.6	83.1
2025-07-22T00:07	10	0	0.1	0	0	392	0.3	391	392	16.5	83.8
2025-07-22T00:08	10	0	0.1	0	0	391	0.2	391	391	16.4	84.9
2025-07-22T00:09	10	0	0.1	0	0	391	0.3	390	391	16.3	85.9
2025-07-22T00:10	10	0	0.1	-1	0	390	0.2	390	391	16.3	85.1
2025-07-22T00:11	10	-1	0.1	-1	0	390	0.2	389	390	16.2	86.6
2025-07-22T00:12	10	-1	0.1	-1	-1	390	0.3	389	391	16.1	87.2
2025-07-22T00:13	10	-1	0.1	-1	0	390	0.4	389	391	16.1	86.5
2025-07-22T00:14	10	-1	0.1	-1	0	390	0.2	390	391	16.1	86.4
2025-07-22T00:15	10	-1	0.1	-1	0	390	0.3	389	390	16.2	85.6
2025-07-22T00:16	10	-1	0.1	-1	0	390	0.2	389	390	16.1	86.4
2025-07-22T00:17	10	-1	0.1	-1	0	390	0.3	389	390	16.1	85.9
2025-07-22T00:18	10	-1	0.1	-1	0	390	0.3	389	390	16.1	85.2
2025-07-22T00:19	10	-1	0.1	-1	0	390	0.3	389	390	16.2	84.8
2025-07-22T00:20	10	-1	0.1	-1	0	390	0.3	389	390	16.2	84.0
2025-07-22T00:21	10	0	0.2	-1	0	390	0.3	389	390	16.2	84.8
2025-07-22T00:22	10	-1	0.1	-1	0	390	0.3	389	390	16.1	85.3
2025-07-22T00:23	10	0	0.1	-1	0	390	0.2	389	390	16.1	85.3
2025-07-22T00:24	10	0	0.1	0	0	389	0.3	389	390	16.0	86.1
2025-07-22T00:25	10	0	0.2	-1	0	390	0.3	388	390	16.0	85.3
2025-07-22T00:26	10	0	0.1	0	0	390	0.3	389	391	16.0	85.1
2025-07-22T00:27	10	0	0.2	0	1	390	0.2	389	390	16.0	86.1
2025-07-22T00:28	10	0	0.1	0	0	390	0.2	389	390	16.0	85.1
2025-07-22T00:29	10	0	0.1	0	1	389	0.2	389	390	16.0	86.0
2025-07-22T00:30	10	0	0.1	0	0	389	0.3	389	390	15.9	86.2
2025-07-22T00:31	10	0	0.2	0	1	389	0.3	389	390	15.9	86.4
2025-07-22T00:32	10	0	0.1	0	1	389	0.3	389	390	15.8	88.3
2025-07-22T00:33	10	0	0.1	0	0	389	0.2	389	390	15.8	87.2
2025-07-22T00:34	10	0	0.1	0	0	389	0.2	389	390	15.8	87.7
2025-07-22T00:35	10	0	0.1	0	0	389	0.2	389	390	15.8	87.8
2025-07-22T00:36	10	0	0.1	0	0	390	0.2	389	390	15.9	86.8
2025-07-22T00:37	10	0	0.1	0	0	390	0.3	389	390	15.9	87.3
2025-07-22T00:38	10	0	0.1	0	0	390	0.3	389	391	15.9	87.4
2025-07-22T00:39	10	0	0.1	0	0	390	0.3	389	391	15.9	87.1
2025-07-22T00:40	10	0	0.1	0	0	390	0.3	389	391	16.0	86.2
2025-07-22T00:41	10	0	0.1	0	0	390	0.2	390	390	16.0	86.1
2025-07-22T00:42	10	0	0.1	0	0	390	0.2	390	391	16.0	86.6
2025-07-22T00:43	10	0	0.1	0	0	390	0.2	390	390	15.9	87.2
2025-07-22T00:44	10	0	0.1	0	0	390	0.2	390	391	15.9	86.6
2025-07-22T00:45	10	0	0.1	0	0	390	0.3	389	391	16.0	85.7
2025-07-22T00:46	10	0	0.1	0	0	390	0.2	390	390	16.0	86.5
2025-07-22T00:47	10	0	0.1	0	0	390	0.2	390	390	16.0	85.6
2025-07-22T00:48	10	0	0.1	0	0	390	0.3	390	391	16.0	85.1
2025-07-22T00:49	10	0	0.1	0	0	390	0.2	390	391	16.0	86.1
2025-07-22T00:50	10	0	0.1	0	0	390	0.3	390	391	16.1	84.8
2025-07-22T00:51	10	0	0.1	0	0	390	0.2	390	391	16.1	85.0
2025-07-22T00:52	10	0	0.1	0	0	390	0.2	390	391	16.0	85.2
2025-07-22T00:53	10	0	0.1	0	0	390	0.2	390	391	16.0	85.8
2025-07-22T00:54	10	0	0.1	0	0	390	0.2	390	391	16.1	84.8
2025-07-22T00:55	10	0	0.1	0	0	390	0.2	390	391	16.0	85.1
2025-07-22T00:56	10	0	0.1	0	0	391	0.4	390	392	16.0	85.2
2025-07-22T00:57	10	0	0.1	0	0	391	0.3	390	392	16.1	84.1
2025-07-22T00:58	10	0	0.1	0	0	391	0.2	391	392	16.2	83.1
2025-07-22T00:59	10	0	0.1	0	0	391	0.3	391	392	16.3	81.9
2025-07-22T01:00	10	0	0.1	0	0	391	0.2	390	391	16.3	82.3
2025-07-22T01:01	10	0	0.1	0	0	391	0.2	390	391	16.3	82.3
2025-07-22T01:02	10	0	0.1	0	0	391	0.2	390	391	16.2	82.9
2025-07-22T01:03	10	0	0.1	0	0	391	0.2	390	391	16.2	82.8
2025-07-22T01:04	10	0	0.1	0	0	391	0.2	391	391	16.2	83.5
2025-07-22T01:05	10	0	0.1	0	0	391	0.2	390	391	16.1	83.5
2025-07-22T01:06	10	0	0.1	0	0	391	0.3	390	391	16.1	84.0
2025-07-22T01:07	10	0	0.1	0	0	391	0.2	390	392	16.0	85.2
2025-07-22T01:08	10	0	0.1	0	0	391	0.2	391	391	16.1	83.3
2025-07-22T01:09	10	0	0.1	0	0	391	0.2	390	392	16.2	82.8
2025-07-22T01:10	10	0	0.1	0	0	391	0.2	390	391	16.2	83.0
2025-07-22T01:11	10	0	0.0	0	0	391	0.2	390	391	16.2	82.8
2025-07-22T01:12	10	0	0.1	0	0	391	0.4	390	391	16.2	82.9
2025-07-22T01:13	10	0	0.1	0	0	391	0.2	390	391	16.2	83.6
2025-07-22T01:14	10	0	0.1	0	0	391	0.2	390	391	16.2	84.0
2025-07-22T01:15	10	0	0.1	0	0	391	0.2	390	391	16.2	84.1
2025-07-22T01:16	10	0	0.1	0	0	391	0.2	390	391	16.1	84.7
2025-07-22T01:17	10	0	0.1	0	0	391	0.2	390	391	16.1	85.3
2025-07-22T01:18	10	0	0.1	0	0	391	0.2	390	391	16.0	85.5
2025-07-22T01:19	10	0	0.1	0	0	391	0.2	390	391	16.0	85.0
2025-07-22T01:20	10	0	0.1	0	0	391	0.2	390	391	16.0	85.8
2025-07-22T01:21	10	0	0.1	0	0	391	0.3	391	392	16.0	85.0
2025-07-22T01:22	10	0	0.1	0	0	391	0.2	391	392	16.1	85.0
2025-07-22T01:23	10	0	0.1	0	0	391	0.2	391	392	16.1	85.1
2025-07-22T01:24	10	0	0.1	0	0	391	0.3	391	392	16.0	85.6
2025-07-22T01:25	10	0	0.1	0	0	391	0.2	391	392	16.0	85.8
2025-07-22T01:26	10	0	0.1	0	0	391	0.3	391	392	16.0	85.6
2025-07-22T01:27	10	0	0.1	0	0	392	0.2	391	392	16.0	85.7
2025-07-22T01:28	10	0	0.0	0	0	392	0.2	391	392	16.0	85.9
2025-07-22T01:29	10	0	0.1	0	0	391	0.2	391	392	16.1	84.6
2025-07-22T01:30	10	0	0.1	0	0	391	0.2	391	392	16.1	84.9
2025-07-22T01:31	10	0	0.1	0	0	392	0.4	391	392	16.3	82.4
2025-07-22T01:32	10	0	0.1	0	0	392	0.5	390	393	16.4	82.3
2025-07-22T01:33	10	0	0.1	0	0	392	0.2	391	392	16.7	79.6
2025-07-22T01:34	10	0	0.1	0	0	391	0.3	391	392	16.7	79.6
2025-07-22T01:35	10	0	0.1	0	0	391	0.3	391	392	16.6	80.4
2025-07-22T01:36	10	0	0.1	0	0	391	0.3	390	391	16.5	81.5
2025-07-22T01:37	10	0	0.1	0	0	391	0.3	390	391	16.5	81.6
2025-07-22T01:38	10	0	0.1	0	0	391	0.2	390	391	16.4	82.8
2025-07-22T01:39	10	0	0.1	0	0	391	0.2	390	391	16.3	83.3
2025-07-22T01:40	10	0	0.1	0	0	390	0.2	390	391	16.2	84.0
2025-07-22T01:41	10	0	0.1	0	0	391	0.2	390	391	16.2	83.9
2025-07-22T01:42	10	0	0.1	0	0	390	0.3	390	391	16.1	85.0
2025-07-22T01:43	10	0	0.0	0	0	390	0.3	390	391	16.1	85.1
2025-07-22T01:44	10	0	0.1	0	0	390	0.3	390	391	16.0	85.9
2025-07-22T01:45	10	0	0.1	0	0	390	0.2	390	391	16.0	85.5
2025-07-22T01:46	10	0	0.1	0	0	390	0.3	390	391	16.0	85.7
2025-07-22T01:47	10	0	0.1	0	0	390	0.2	389	390	16.0	86.2
2025-07-22T01:48	10	0	0.1	0	0	390	0.2	390	390	15.9	85.9
2025-07-22T01:49	10	0	0.1	0	0	390	0.3	389	390	16.0	85.4
2025-07-22T01:50	10	0	0.1	0	0	390	0.2	389	390	15.9	85.9
2025-07-22T01:51	10	0	0.1	0	0	390	0.2	389	390	15.9	85.9
2025-07-22T01:52	10	0	0.1	0	0	390	0.2	389	390	15.9	85.8
2025-07-22T01:53	10	0	0.1	0	0	390	0.3	389	391	16.0	86.0
2025-07-22T01:54	10	0	0.1	0	0	390	0.2	389	390	16.0	85.7
2025-07-22T01:55	10	0	0.1	0	0	390	0.3	389	391	16.0	85.4
2025-07-22T01:56	10	0	0.1	0	0	390	0.4	389	391	16.0	85.9
2025-07-22T01:57	10	0	0.1	0	0	390	0.2	390	391	16.0	85.4
2025-07-22T01:58	10	0	0.1	0	0	390	0.2	390	391	16.0	85.3
2025-07-22T01:59	10	0	0.1	0	0	390	0.2	390	391	16.0	85.3
2025-07-22T02:00	10	0	0.1	0	0	390	0.3	390	391	16.0	85.5
2025-07-22T02:01	10	0	0.1	0	0	390	0.3	389	391	15.9	87.0
2025-07-22T02:02	10	0	0.1	0	0	390	0.3	389	391	15.8	88.3
2025-07-22T02:03	10	0	0.0	0	0	390	0.2	389	390	15.8	87.3
2025-07-22T02:04	10	0	0.1	0	0	390	0.2	390	390	15.8	87.7
2025-07-22T02:05	10	0	0.1	0	0	390	0.3	390	391	15.8	87.4
2025-07-22T02:06	10	0	0.1	0	0	390	0.2	390	391	15.8	87.1
2025-07-22T02:07	10	0	0.1	0	0	390	0.2	390	391	15.9	86.3
2025-07-22T02:08	10	0	0.1	0	0	390	0.2	390	391	16.0	86.1
2025-07-22T02:09	10	0	0.1	0	0	391	0.3	390	392	16.1	84.8
2025-07-22T02:10	10	0	0.1	0	0	391	0.3	390	392	16.3	83.2
2025-07-22T02:11	10	0	0.1	0	0	391	0.3	390	392	16.2	84.1
2025-07-22T02:12	10	0	0.1	0	0	391	0.3	391	392	16.3	82.9
2025-07-22T02:13	10	0	0.1	0	0	391	0.4	391	392	16.5	81.7
2025-07-22T02:14	10	0	0.1	0	0	392	0.3	391	393	16.6	80.1
2025-07-22T02:15	10	0	0.1	0	0	392	0.3	391	393	17.0	76.9
2025-07-22T02:16	10	0	0.1	0	0	392	0.5	391	393	16.9	78.6
2025-07-22T02:17	10	0	0.1	0	0	392	0.2	391	392	16.8	79.2
2025-07-22T02:18	10	0	0.1	0	0	392	0.2	392	392	16.8	78.7
2025-07-22T02:19	10	0	0.1	0	0	392	0.2	392	393	17.0	77.3
2025-07-22T02:20	10	0	0.1	0	0	392	0.3	392	393	17.0	77.5
2025-07-22T02:21	10	0	0.1	0	0	392	0.3	392	393	16.9	78.6
2025-07-22T02:22	10	0	0.1	0	0	392	0.3	391	392	16.7	80.3
2025-07-22T02:23	10	0	0.1	0	0	391	0.3	391	392	16.5	82.1
2025-07-22T02:24	10	0	0.1	0	0	391	0.3	390	392	16.3	84.1
2025-07-22T02:25	10	0	0.1	0	1	391	0.3	390	392	16.1	85.8
2025-07-22T02:26	10	0	0.1	0	0	391	0.2	390	391	16.0	86.3
2025-07-22T02:27	10	0	0.1	0	0	391	0.2	390	391	16.0	86.2
2025-07-22T02:28	10	0	0.1	0	0	391	0.3	390	391	16.0	86.7
2025-07-22T02:29	10	0	0.1	0	0	391	0.2	390	391	15.9	87.0
2025-07-22T02:30	10	0	0.1	0	0	391	0.2	391	392	15.9	86.7
2025-07-22T02:31	10	0	0.1	0	0	391	0.2	391	392	16.0	86.7
2025-07-22T02:32	10	0	0.0	0	0	391	0.2	390	391	16.0	86.7
2025-07-22T02:33	10	0	0.1	0	0	391	0.3	390	392	15.9	88.0
2025-07-22T02:34	10	0	0.0	0	0	391	0.2	391	392	15.9	87.9
2025-07-22T02:35	10	0	0.0	0	0	391	0.2	390	391	15.9	87.9
2025-07-22T02:36	10	0	0.0	0	0	391	0.2	390	391	15.9	88.3
2025-07-22T02:37	10	0	0.0	0	0	391	0.2	390	391	15.9	88.9
2025-07-22T02:38	10	0	0.1	0	0	391	0.2	390	391	15.9	88.8
2025-07-22T02:39	10	0	0.1	0	0	391	0.2	390	391	15.9	89.0
2025-07-22T02:40	10	0	0.1	0	0	391	0.2	390	391	15.8	88.9
2025-07-22T02:41	10	0	0.0	0	0	391	0.2	390	391	15.8	88.6
2025-07-22T02:42	10	0	0.1	0	0	391	0.2	390	391	15.8	88.8
2025-07-22T02:43	10	0	0.1	0	0	391	0.4	390	391	15.8	88.2
2025-07-22T02:44	10	0	0.1	0	0	391	0.3	390	391	15.9	88.1
2025-07-22T02:45	10	0	0.1	0	0	391	0.3	390	391	15.9	87.9
2025-07-22T02:46	10	0	0.1	0	0	391	0.2	390	391	15.9	87.0
2025-07-22T02:47	10	0	0.1	0	0	391	0.3	390	391	15.9	86.8
2025-07-22T02:48	10	0	0.1	0	0	391	0.3	390	392	15.9	86.1
2025-07-22T02:49	10	0	0.1	0	0	391	0.2	391	391	16.0	85.4
2025-07-22T02:50	10	0	0.1	0	0	391	0.2	390	391	16.0	85.2
2025-07-22T02:51	10	0	0.1	0	0	391	0.2	390	391	16.0	85.9
2025-07-22T02:52	10	0	0.0	0	0	391	0.3	390	391	16.1	84.2
2025-07-22T02:53	10	0	0.1	0	0	390	0.3	390	391	16.1	83.5
2025-07-22T02:54	10	0	0.1	0	0	391	0.2	390	391	16.1	84.4
2025-07-22T02:55	10	0	0.1	0	0	391	0.3	390	391	16.2	83.2
2025-07-22T02:56	10	0	0.1	0	0	391	0.2	390	391	16.2	84.0
2025-07-22T02:57	10	0	0.1	0	0	391	0.2	390	391	16.1	85.0
2025-07-22T02:58	10	0	0.1	0	0	391	0.4	390	391	16.2	84.0
2025-07-22T02:59	10	0	0.1	0	0	390	0.2	390	391	16.1	85.3
2025-07-22T03:00	10	0	0.1	0	0	390	0.3	389	391	16.0	85.9
2025-07-22T03:01	10	0	0.1	0	0	391	0.2	390	391	16.1	85.3
2025-07-22T03:02	10	0	0.1	0	0	391	0.3	390	391	16.0	85.9
2025-07-22T03:03	10	0	0.1	0	0	391	0.2	390	391	16.0	85.4
2025-07-22T03:04	10	0	0.1	0	0	390	0.3	390	391	16.0	86.8
2025-07-22T03:05	10	0	0.1	0	0	391	0.3	390	391	16.0	85.9
2025-07-22T03:06	10	0	0.1	0	0	391	0.3	390	391	16.0	85.7
2025-07-22T03:07	10	0	0.1	0	0	391	0.2	390	391	16.0	86.0
2025-07-22T03:08	10	0	0.1	0	0	391	0.2	390	391	16.0	85.9
2025-07-22T03:09	10	0	0.1	0	0	391	0.2	390	391	16.0	86.7
2025-07-22T03:10	10	0	0.1	0	0	390	0.3	390	391	15.9	87.6
2025-07-22T03:11	10	0	0.1	0	0	390	0.2	390	391	15.9	88.7
2025-07-22T03:12	10	0	0.1	0	0	390	0.2	390	391	15.8	88.6
2025-07-22T03:13	10	0	0.1	0	0	391	0.2	390	391	15.9	88.2
2025-07-22T03:14	10	0	0.1	0	0	391	0.2	390	391	15.9	86.7
2025-07-22T03:15	10	0	0.1	0	0	391	0.2	390	391	16.0	86.2
2025-07-22T03:16	10	0	0.1	0	0	391	0.2	390	391	16.0	86.1
2025-07-22T03:17	10	0	0.1	0	0	391	0.2	390	391	16.0	86.1
2025-07-22T03:18	10	0	0.1	0	0	391	0.2	390	391	16.0	86.1
2025-07-22T03:19	10	0	0.1	0	0	391	0.2	390	391	16.0	86.9
2025-07-22T03:20	10	0	0.1	0	0	390	0.2	390	391	15.9	87.8
2025-07-22T03:21	10	0	0.1	0	0	390	0.2	390	391	15.9	88.1
2025-07-22T03:22	10	0	0.1	0	0	390	0.2	390	391	15.9	88.3
2025-07-22T03:23	10	0	0.1	0	0	390	0.2	390	391	15.9	89.3
2025-07-22T03:24	10	0	0.1	0	0	390	0.2	390	391	15.9	88.5
2025-07-22T03:25	10	0	0.1	0	0	390	0.2	390	391	15.8	90.1
2025-07-22T03:26	10	0	0.1	0	0	390	0.2	389	390	15.8	90.8
2025-07-22T03:27	10	0	0.1	0	0	390	0.3	389	390	15.8	88.7
2025-07-22T03:28	10	0	0.1	0	0	390	0.4	389	391	15.9	87.4
2025-07-22T03:29	10	0	0.1	0	0	390	0.2	390	391	16.1	84.3
2025-07-22T03:30	10	0	0.1	0	0	390	0.2	389	390	16.2	83.3
2025-07-22T03:31	10	0	0.1	0	0	390	0.2	389	390	16.2	83.5
2025-07-22T03:32	10	0	0.1	0	0	390	0.4	389	391	16.3	82.9
2025-07-22T03:33	10	0	0.1	0	0	390	0.3	389	390	16.2	84.3
2025-07-22T03:34	10	0	0.1	0	0	390	0.2	390	390	16.1	84.4
2025-07-22T03:35	10	0	0.1	0	0	390	0.2	389	390	16.2	83.7
2025-07-22T03:36	10	0	0.1	0	0	390	0.3	389	391	16.2	83.9
2025-07-22T03:37	10	0	0.1	0	0	390	0.2	389	390	16.1	85.5
2025-07-22T03:38	10	0	0.1	0	0	389	0.2	389	390	16.0	86.6
2025-07-22T03:39	10	0	0.1	0	0	389	0.2	389	390	15.9	87.9
2025-07-22T03:40	10	0	0.1	0	0	390	0.3	389	390	16.0	84.8
2025-07-22T03:41	10	0	0.1	0	0	390	0.3	389	390	16.3	80.5
2025-07-22T03:42	10	0	0.1	0	0	390	0.4	389	390	16.4	80.4
2025-07-22T03:43	10	0	0.1	0	0	389	0.2	389	390	16.2	83.7
2025-07-22T03:44	10	0	0.1	0	0	390	0.3	389	390	16.1	84.1
2025-07-22T03:45	10	0	0.1	0	0	390	0.2	389	390	16.1	83.6
2025-07-22T03:46	10	0	0.1	0	0	389	0.3	389	390	16.1	83.3
2025-07-22T03:47	10	0	0.1	0	0	389	0.3	389	390	16.0	83.9
2025-07-22T03:48	10	0	0.1	0	0	389	0.2	389	390	16.0	83.5
2025-07-22T03:49	10	0	0.1	0	0	389	0.2	389	389	16.0	83.6
2025-07-22T03:50	10	0	0.1	0	0	389	0.2	388	389	16.0	84.2
2025-07-22T03:51	10	0	0.1	0	0	389	0.2	388	389	15.9	85.0
2025-07-22T03:52	10	0	0.1	0	0	389	0.2	389	390	16.0	83.4
2025-07-22T03:53	10	0	0.1	0	0	389	0.2	388	389	16.0	83.1
2025-07-22T03:54	10	0	0.1	0	0	389	0.2	388	389	16.1	82.8
2025-07-22T03:55	10	0	0.1	0	0	389	0.2	388	389	16.0	83.3
2025-07-22T03:56	10	0	0.1	0	0	389	0.2	388	389	16.0	83.6
2025-07-22T03:57	10	0	0.1	0	0	389	0.3	388	389	15.9	84.5
2025-07-22T03:58	10	0	0.1	0	0	389	0.2	388	389	15.9	84.9
2025-07-22T03:59	10	0	0.1	0	0	389	0.2	388	389	15.9	84.9
2025-07-22T04:00	10	0	0.1	0	0	389	0.2	388	389	16.0	83.7
2025-07-22T04:01	10	0	0.1	0	1	389	0.2	388	389	16.0	83.8
2025-07-22T04:02	10	0	0.1	0	1	388	0.3	388	389	15.9	84.4
2025-07-22T04:03	10	0	0.1	0	1	389	0.2	388	389	15.9	84.1
2025-07-22T04:04	10	0	0.1	0	1	389	0.2	388	389	16.0	83.7
2025-07-22T04:05	10	1	0.1	0	1	388	0.2	388	389	16.0	84.0
2025-07-22T04:06	10	1	0.1	0	1	388	0.2	388	389	16.0	84.0
2025-07-22T04:07	10	1	0.1	0	1	388	0.3	387	389	15.9	84.1
2025-07-22T04:08	10	1	0.1	0	1	388	0.3	387	389	15.9	84.7
2025-07-22T04:09	10	1	0.1	0	1	388	0.3	387	389	15.9	84.9
2025-07-22T04:10	10	1	0.1	1	1	388	0.2	387	388	15.9	84.7
2025-07-22T04:11	10	1	0.1	1	1	388	0.2	388	389	15.9	84.3
2025-07-22T04:12	10	1	0.1	1	1	388	0.3	388	389	15.9	84.0
2025-07-22T04:13	10	1	0.1	1	1	388	0.3	388	389	15.9	84.5
2025-07-22T04:14	10	1	0.1	1	1	388	0.3	388	389	16.0	83.8
2025-07-22T04:15	10	1	0.1	1	1	388	0.3	388	389	16.0	83.8
2025-07-22T04:16	10	1	0.1	1	1	389	0.2	388	389	16.0	83.8
2025-07-22T04:17	10	1	0.1	1	1	389	0.3	388	389	16.0	83.9
2025-07-22T04:18	10	1	0.1	1	1	389	0.2	388	389	16.0	84.3
2025-07-22T04:19	10	1	0.1	1	2	389	0.2	388	389	16.0	84.5
2025-07-22T04:20	10	1	0.1	1	2	389	0.2	388	389	16.0	84.3
2025-07-22T04:21	10	1	0.1	1	2	389	0.2	388	389	16.0	83.6
2025-07-22T04:22	10	2	0.1	1	2	389	0.2	388	389	16.0	84.4
2025-07-22T04:23	10	2	0.1	1	2	389	0.2	389	389	16.0	84.0
2025-07-22T04:24	10	2	0.1	2	2	389	0.2	388	390	16.0	84.0
2025-07-22T04:25	10	2	0.1	2	2	389	0.2	389	390	16.0	83.8
2025-07-22T04:26	10	2	0.1	2	2	389	0.3	389	390	16.1	83.3
2025-07-22T04:27	10	2	0.1	2	2	389	0.2	389	390	16.1	83.1
2025-07-22T04:28	10	2	0.1	2	3	389	0.3	389	390	16.1	83.4
2025-07-22T04:29	10	2	0.1	2	3	390	0.2	389	390	16.1	83.5
2025-07-22T04:30	10	2	0.1	2	3	390	0.2	389	390	16.2	82.9
2025-07-22T04:31	10	3	0.1	2	3	390	0.2	389	390	16.2	82.9
2025-07-22T04:32	10	3	0.1	3	3	390	0.3	389	390	16.1	84.3
2025-07-22T04:33	10	3	0.1	3	3	390	0.2	389	390	16.1	83.8
2025-07-22T04:34	10	3	0.1	3	3	390	0.3	389	390	16.1	84.3
2025-07-22T04:35	10	3	0.1	3	3	390	0.3	389	390	16.0	84.7
2025-07-22T04:36	10	3	0.1	3	3	390	0.3	389	390	16.0	85.1
2025-07-22T04:37	10	3	0.1	3	3	390	0.3	389	390	16.0	85.3
2025-07-22T04:38	10	3	0.1	3	3	390	0.3	389	390	16.0	85.6
2025-07-22T04:39	10	3	0.1	3	4	390	0.2	390	391	16.0	85.5
2025-07-22T04:40	10	4	0.1	4	4	390	0.2	389	390	15.9	85.9
2025-07-22T04:41	10	4	0.1	4	4	390	0.2	389	390	16.0	85.8
2025-07-22T04:42	10	4	0.1	4	4	390	0.2	390	391	16.0	85.7
2025-07-22T04:43	10	4	0.1	4	5	390	0.2	389	390	16.0	85.6
2025-07-22T04:44	10	4	0.1	4	5	390	0.2	389	390	16.0	85.7
2025-07-22T04:45	10	4	0.1	4	5	390	0.2	389	390	15.9	86.2
2025-07-22T04:46	10	4	0.1	4	4	389	0.2	389	390	16.0	85.5
2025-07-22T04:47	10	4	0.1	4	4	389	0.2	389	390	16.0	86.1
2025-07-22T04:48	10	4	0.1	4	4	389	0.3	388	390	16.0	85.9
2025-07-22T04:49	10	4	0.1	4	5	389	0.2	388	390	16.0	86.1
2025-07-22T04:50	10	5	0.1	4	5	389	0.2	388	390	15.9	86.7
2025-07-22T04:51	10	5	0.1	4	5	389	0.2	389	390	15.9	86.8
2025-07-22T04:52	10	4	0.1	4	5	389	0.2	389	390	15.8	87.4
2025-07-22T04:53	10	4	0.1	4	4	389	0.2	388	389	15.8	87.3
2025-07-22T04:54	10	4	0.1	4	4	389	0.2	389	389	15.8	87.4
2025-07-22T04:55	10	4	0.1	4	4	389	0.2	389	389	15.8	87.8
2025-07-22T04:56	10	4	0.1	4	4	389	0.2	389	390	15.8	87.9
2025-07-22T04:57	10	4	0.1	4	4	389	0.2	388	390	15.8	88.3
2025-07-22T04:58	10	4	0.1	4	5	389	0.3	388	390	15.8	88.2
2025-07-22T04:59	10	5	0.1	4	5	389	0.3	389	390	15.8	87.2
2025-07-22T05:00	10	5	0.5	5	9	389	0.2	389	390	15.8	87.5
2025-07-22T05:01	10	5	0.2	5	6	389	0.2	388	390	15.9	87.4
2025-07-22T05:02	10	6	0.3	6	7	389	0.2	389	390	15.9	86.5
2025-07-22T05:03	10	8	0.4	7	8	389	0.3	389	390	15.9	86.8
2025-07-22T05:04	10	9	0.4	8	10	390	0.3	389	390	16.0	86.3
2025-07-22T05:05	10	10	0.2	10	10	390	0.3	389	391	16.0	86.5
2025-07-22T05:06	10	10	0.1	10	11	391	0.3	390	391	16.0	86.1
2025-07-22T05:07	10	10	0.1	10	10	391	0.3	390	391	16.0	86.4
2025-07-22T05:08	10	10	0.1	10	10	391	0.2	390	391	16.0	86.2
2025-07-22T05:09	10	10	0.4	10	12	391	0.3	390	391	16.0	86.0
2025-07-22T05:10	10	11	0.9	11	13	391	0.3	391	392	16.1	85.9
2025-07-22T05:11	10	10	0.3	10	11	391	0.2	391	392	16.1	86.0
2025-07-22T05:12	10	10	0.1	9	10	391	0.2	391	392	16.1	85.5
2025-07-22T05:13	10	9	0.2	9	10	392	0.2	391	392	16.1	85.2
2025-07-22T05:14	10	9	0.1	9	9	392	0.2	391	392	16.2	84.7
2025-07-22T05:15	10	9	0.1	9	9	392	0.3	392	393	16.3	84.5
2025-07-22T05:16	10	9	0.1	9	9	392	0.2	392	393	16.3	84.3
2025-07-22T05:17	10	9	0.3	9	10	392	0.2	391	392	16.3	84.3
2025-07-22T05:18	10	11	0.5	10	12	392	0.3	391	392	16.3	84.5
2025-07-22T05:19	10	13	0.7	12	14	392	0.3	391	393	16.3	84.7
2025-07-22T05:20	10	15	0.4	14	15	392	0.2	392	393	16.3	84.9
2025-07-22T05:21	10	16	0.4	15	16	393	0.2	392	393	16.3	85.0
2025-07-22T05:22	10	16	0.1	16	17	393	0.2	392	393	16.3	84.6
2025-07-22T05:23	10	20	3.4	17	26	393	0.4	392	394	16.3	84.4
2025-07-22T05:24	10	21	2.8	18	25	393	0.3	393	394	16.4	83.5
2025-07-22T05:25	10	18	0.1	18	18	393	0.2	393	394	16.4	83.2
2025-07-22T05:26	10	17	0.2	17	18	394	0.2	393	394	16.4	83.1
2025-07-22T05:27	10	17	0.2	17	17	393	0.2	393	394	16.4	84.0
2025-07-22T05:28	10	17	0.1	17	17	393	0.2	393	394	16.4	83.8
2025-07-22T05:29	10	17	0.2	17	18	393	0.2	393	394	16.4	84.2
2025-07-22T05:30	10	18	0.5	18	19	394	0.2	393	394	16.4	84.2
2025-07-22T05:31	10	38	13.4	19	51	395	1.5	393	398	16.4	84.3
2025-07-22T05:32	10	27	7.2	19	44	396	0.7	395	398	16.4	83.6
2025-07-22T05:33	10	18	0.6	17	19	395	0.4	394	396	16.5	83.2
2025-07-22T05:34	10	16	0.3	16	17	395	0.3	394	396	16.5	82.7
2025-07-22T05:35	10	16	0.1	16	16	395	0.2	394	395	16.5	83.0
2025-07-22T05:36	10	16	0.1	16	16	395	0.2	394	395	16.6	82.6
2025-07-22T05:37	10	17	0.3	16	17	395	0.2	394	395	16.6	81.8
2025-07-22T05:38	10	18	0.3	17	18	395	0.3	394	395	16.6	81.8
2025-07-22T05:39	10	18	0.3	18	19	395	0.2	395	395	16.7	81.0
2025-07-22T05:40	10	17	0.3	17	18	395	0.4	394	395	16.7	80.7
2025-07-22T05:41	10	16	0.2	16	17	394	0.2	393	395	16.7	80.3
2025-07-22T05:42	10	16	0.1	16	16	394	0.2	393	394	16.7	80.2
2025-07-22T05:43	10	16	0.1	16	16	393	0.3	393	394	16.7	80.3
2025-07-22T05:44	10	16	0.1	16	16	393	0.2	393	394	16.7	80.8
2025-07-22T05:45	10	16	0.1	16	16	393	0.2	393	394	16.7	80.8
2025-07-22T05:46	10	16	0.1	16	16	393	0.2	393	394	16.7	81.2
2025-07-22T05:47	10	16	0.1	16	16	393	0.2	393	394	16.7	80.7
2025-07-22T05:48	10	16	0.1	16	16	393	0.3	393	394	16.7	80.5
2025-07-22T05:49	10	16	0.1	15	16	393	0.2	393	394	16.7	80.7
2025-07-22T05:50	10	15	0.1	15	15	393	0.2	393	394	16.7	80.4
2025-07-22T05:51	10	15	0.1	15	16	393	0.3	392	394	16.7	80.2
2025-07-22T05:52	10	16	0.1	15	16	393	0.2	392	393	16.7	80.7
2025-07-22T05:53	10	16	0.2	16	17	393	0.2	393	393	16.7	80.1
2025-07-22T05:54	10	20	2.0	17	22	393	0.4	392	394	16.7	80.5
2025-07-22T05:55	10	25	9.1	18	47	393	0.4	393	394	16.7	79.8
2025-07-22T05:56	10	60	4.0	48	62	396	1.4	393	398	16.8	79.0
2025-07-22T05:57	10	62	0.3	61	62	399	0.7	397	400	16.8	79.0
2025-07-22T05:58	10	62	0.3	62	63	400	0.3	399	400	16.9	77.5
2025-07-22T05:59	10	64	0.7	62	65	400	0.3	399	400	17.0	78.0
2025-07-22T06:00	10	27	14.9	16	62	398	1.8	396	401	17.0	77.7
2025-07-22T06:01	10	21	2.1	18	25	395	0.5	394	397	17.0	76.3
2025-07-22T06:02	10	27	3.6	24	36	395	0.3	395	396	17.0	76.9
2025-07-22T06:03	10	28	9.9	21	50	396	0.6	395	397	17.0	77.2
2025-07-22T06:04	10	22	0.7	21	24	395	0.4	394	396	17.0	75.4
2025-07-22T06:05	10	26	1.7	24	30	395	0.4	394	396	17.0	75.1
2025-07-22T06:06	10	24	0.1	24	25	395	0.2	395	396	16.9	76.0
2025-07-22T06:07	10	25	0.6	24	27	395	0.2	395	396	16.9	74.8
2025-07-22T06:08	10	25	0.5	25	27	395	0.2	395	396	16.9	74.6
2025-07-22T06:09	10	24	0.2	24	25	395	0.6	394	396	16.9	73.3
2025-07-22T06:10	10	24	0.3	24	25	394	0.3	393	395	17.0	73.5
2025-07-22T06:11	10	31	6.1	25	49	395	0.5	394	395	17.0	72.5
2025-07-22T06:12	10	25	3.3	23	34	394	0.4	394	395	17.0	73.1
2025-07-22T06:13	10	23	0.2	23	23	394	0.2	394	395	17.0	73.9
2025-07-22T06:14	10	24	0.2	23	24	395	0.3	394	395	17.0	74.6
2025-07-22T06:15	10	25	0.4	24	25	395	0.3	394	395	17.0	73.4
2025-07-22T06:16	10	41	20.5	26	89	396	1.3	395	400	17.0	73.6
2025-07-22T06:17	10	55	19.8	33	89	400	0.9	398	401	17.1	72.9
2025-07-22T06:18	10	41	11.1	30	63	398	0.9	397	400	17.1	71.8
2025-07-22T06:19	10	80	14.4	40	90	402	1.8	398	403	17.2	71.8
2025-07-22T06:20	10	65	11.2	43	86	402	0.9	401	404	17.2	71.3
2025-07-22T06:21	10	89	9.9	54	95	404	1.8	401	407	17.3	71.5
2025-07-22T06:22	10	80	10.6	63	96	406	0.5	405	407	17.4	71.2
2025-07-22T06:23	10	96	0.2	96	96	406	0.6	405	407	17.4	67.8
2025-07-22T06:24	10	95	0.9	93	96	406	0.6	405	407	17.5	66.2
2025-07-22T06:25	10	93	0.2	92	93	405	0.6	404	406	17.5	65.4
2025-07-22T06:26	10	92	0.4	91	92	404	0.5	403	405	17.5	64.1
2025-07-22T06:27	10	90	0.4	89	91	404	0.3	403	405	17.5	64.0
2025-07-22T06:28	10	89	0.2	89	90	405	0.5	404	406	17.5	64.0
2025-07-22T06:29	10	90	0.5	90	91	406	0.8	405	408	17.5	64.8
2025-07-22T06:30	10	92	0.6	91	93	408	0.2	407	408	17.7	65.4
2025-07-22T06:31	10	94	0.5	93	95	407	0.6	406	408	17.7	64.8
2025-07-22T06:32	10	95	0.2	95	96	409	0.9	408	411	17.7	65.5
2025-07-22T06:33	10	95	0.1	95	95	410	0.4	409	411	17.8	66.0
2025-07-22T06:34	10	94	0.3	94	95	409	0.3	408	410	17.7	64.5
2025-07-22T06:35	10	93	0.4	92	94	409	0.4	408	410	17.8	64.3
2025-07-22T06:36	10	92	0.2	92	93	409	0.5	408	410	17.8	64.6
2025-07-22T06:37	10	91	4.0	77	93	409	0.7	407	410	17.8	65.2
2025-07-22T06:38	10	92	0.4	91	92	407	1.4	405	410	17.7	64.1
2025-07-22T06:39	10	90	2.2	84	92	406	0.7	405	407	17.7	63.4
2025-07-22T06:40	10	92	1.0	89	93	406	0.3	405	407	17.7	63.4
2025-07-22T06:41	10	92	0.3	91	93	407	0.4	406	408	17.7	64.0
2025-07-22T06:42	10	92	0.3	92	93	409	0.5	407	410	17.8	65.0
2025-07-22T06:43	10	92	1.9	86	93	410	0.9	408	411	17.8	64.2
2025-07-22T06:44	10	92	0.3	91	92	412	0.8	410	413	18.0	65.0
2025-07-22T06:45	10	92	0.1	91	92	411	0.6	409	412	17.9	63.7
2025-07-22T06:46	10	91	0.5	90	92	411	0.6	409	412	17.9	64.5
2025-07-22T06:47	10	92	0.1	92	92	411	0.3	410	411	17.9	64.0
2025-07-22T06:48	10	93	1.3	92	101	409	0.4	409	411	18.0	63.7
2025-07-22T06:49	10	92	0.1	92	92	411	0.4	410	411	18.1	63.5
2025-07-22T06:50	10	92	0.1	92	93	411	0.4	410	412	18.1	63.3
2025-07-22T06:51	10	92	0.2	92	92	411	1.2	409	413	18.1	62.9
2025-07-22T06:52	10	92	0.4	91	93	410	0.2	409	410	17.9	62.6
2025-07-22T06:53	10	92	0.2	92	93	411	0.7	410	412	17.9	62.0
2025-07-22T06:54	10	92	0.3	91	92	411	0.5	410	412	18.0	62.8
2025-07-22T06:55	10	93	0.3	92	93	413	0.3	412	413	18.1	62.5
2025-07-22T06:56	10	94	0.3	93	94	412	0.8	410	413	18.1	61.5
2025-07-22T06:57	10	94	0.2	94	95	411	0.9	410	413	18.1	62.1
2025-07-22T06:58	10	95	0.2	95	95	411	0.6	410	412	18.1	61.8
2025-07-22T06:59	10	96	0.4	96	97	411	0.3	410	411	18.0	62.3
2025-07-22T07:00	10	98	0.2	97	98	410	0.4	409	411	18.0	61.3
2025-07-22T07:01	10	98	0.2	98	99	410	0.8	409	411	18.0	61.8
2025-07-22T07:02	10	98	0.1	98	98	412	0.5	411	413	18.1	62.3
2025-07-22T07:03	10	98	0.1	98	98	412	0.3	411	412	18.1	61.7
2025-07-22T07:04	10	99	0.3	98	99	412	0.5	411	413	18.1	61.6
2025-07-22T07:05	10	100	0.4	99	101	412	0.4	411	413	18.1	61.9
2025-07-22T07:06	10	101	0.3	101	102	411	0.3	411	412	18.0	62.6
2025-07-22T07:07	10	103	0.5	102	103	413	1.0	411	414	18.2	63.2
2025-07-22T07:08	10	104	0.2	103	104	412	1.6	410	414	18.2	61.3
2025-07-22T07:09	10	105	0.3	104	105	411	1.1	410	413	18.0	60.3
2025-07-22T07:10	10	106	0.4	105	106	413	0.6	412	415	18.2	61.5
2025-07-22T07:11	10	108	0.8	106	109	413	1.3	411	415	18.1	61.2
2025-07-22T07:12	10	111	0.9	109	112	416	0.9	415	418	18.3	61.5
2025-07-22T07:13	10	113	0.5	112	114	415	0.6	414	416	18.2	61.3
2025-07-22T07:14	10	82	35.1	30	115	413	2.4	407	415	18.1	61.3
2025-07-22T07:15	10	110	15.1	43	116	413	3.0	407	418	18.1	61.7
2025-07-22T07:16	10	113	0.2	112	113	418	0.6	417	419	18.3	61.9
2025-07-22T07:17	10	113	0.4	112	114	418	0.6	417	419	18.3	60.6
2025-07-22T07:18	10	114	0.7	113	115	419	0.6	418	421	18.3	61.2
2025-07-22T07:19	10	117	1.2	115	119	421	0.4	420	422	18.5	61.7
2025-07-22T07:20	10	112	13.3	70	121	420	0.9	418	422	18.5	61.3
2025-07-22T07:21	10	97	32.0	41	128	417	3.0	412	422	18.2	60.7
2025-07-22T07:22	10	131	1.4	128	133	419	1.4	417	421	18.1	60.7
2025-07-22T07:23	10	135	1.2	133	137	420	0.8	419	421	18.1	60.5
2025-07-22T07:24	10	138	0.6	137	139	418	0.7	417	420	18.0	59.8
2025-07-22T07:25	10	139	0.2	139	140	422	1.4	418	424	18.0	60.6
2025-07-22T07:26	10	139	0.2	138	139	426	1.9	423	429	18.3	61.0
2025-07-22T07:27	10	140	0.8	139	142	425	1.6	423	428	18.4	60.1
2025-07-22T07:28	10	144	1.0	142	145	424	0.4	423	425	18.4	59.9
2025-07-22T07:29	10	143	1.1	140	145	423	1.4	421	426	18.3	59.7
2025-07-22T07:30	10	135	9.7	107	142	421	0.9	419	422	18.2	59.9
2025-07-22T07:31	10	120	26.0	58	137	419	1.6	415	421	18.2	60.3
2025-07-22T07:32	10	95	39.8	32	135	417	4.0	408	422	18.1	59.9
2025-07-22T07:33	10	28	1.8	27	33	406	2.9	402	412	18.0	60.3
2025-07-22T07:34	10	47	18.3	28	78	404	1.7	402	408	17.9	60.8
2025-07-22T07:35	10	66	34.8	41	139	407	2.2	406	415	18.0	61.3
2025-07-22T07:36	10	131	8.2	108	141	417	2.8	412	422	18.1	61.6
2025-07-22T07:37	10	64	30.4	39	134	416	4.0	410	422	18.2	61.1
2025-07-22T07:38	10	41	1.0	39	43	410	1.1	408	412	18.3	61.0
2025-07-22T07:39	10	79	30.9	43	121	411	3.1	408	417	18.3	62.0
2025-07-22T07:40	10	111	14.3	79	135	419	1.5	416	421	18.4	61.7
2025-07-22T07:41	10	60	6.9	52	83	414	2.7	410	420	18.2	60.1
2025-07-22T07:42	10	55	1.7	52	61	410	0.6	409	411	18.2	60.4
2025-07-22T07:43	10	70	5.8	62	85	411	1.1	409	413	18.2	60.9
2025-07-22T07:44	10	66	13.8	47	102	412	1.1	409	414	18.2	60.3
2025-07-22T07:45	10	49	4.7	40	57	409	0.8	407	410	18.1	60.4
2025-07-22T07:46	10	39	0.9	38	42	405	1.2	403	407	18.1	60.4
2025-07-22T07:47	10	84	26.9	42	119	408	3.8	403	414	18.0	60.2
2025-07-22T07:48	10	73	22.6	44	102	410	1.5	407	412	18.1	60.2
2025-07-22T07:49	10	113	25.2	64	142	415	2.5	411	420	18.2	60.5
2025-07-22T07:50	10	100	45.8	32	140	420	3.0	412	423	18.3	60.0
2025-07-22T07:51	10	42	19.9	31	125	412	1.1	410	414	18.4	60.5
2025-07-22T07:52	10	95	42.6	38	142	417	3.3	412	422	18.5	59.6
2025-07-22T07:53	10	37	15.7	29	89	410	2.2	406	413	18.5	59.2
2025-07-22T07:54	10	87	51.1	30	141	409	4.2	404	416	18.4	58.0
2025-07-22T07:55	10	115	40.5	36	141	418	1.8	413	420	18.2	58.0
2025-07-22T07:56	10	77	39.6	36	142	414	2.4	411	419	18.4	58.7
2025-07-22T07:57	10	108	38.1	50	146	414	3.9	409	420	18.4	57.1
2025-07-22T07:58	10	87	33.6	46	138	416	2.7	412	420	18.4	57.4
2025-07-22T07:59	10	105	35.6	52	148	415	2.3	411	419	18.4	57.3
2025-07-22T08:00	10	135	13.0	95	148	419	1.0	418	422	18.4	57.4
2025-07-22T08:01	10	108	36.1	47	148	418	1.7	414	420	18.5	57.2
2025-07-22T08:02	10	71	8.3	52	85	415	1.7	412	417	18.5	56.8
2025-07-22T08:03	10	109	34.0	63	155	416	3.6	413	423	18.4	57.3
2025-07-22T08:04	10	65	24.5	44	133	417	3.0	414	423	18.5	57.5
2025-07-22T08:05	10	62	23.8	42	121	414	2.4	411	418	18.7	58.3
2025-07-22T08:06	10	45	6.3	39	61	411	0.8	409	412	18.7	57.9
2025-07-22T08:07	10	103	40.0	44	157	412	2.8	408	418	18.4	56.9
2025-07-22T08:08	10	113	37.6	52	156	419	1.5	416	421	18.3	57.3
2025-07-22T08:09	10	94	30.8	53	152	417	2.3	413	421	18.5	57.0
2025-07-22T08:10	10	144	13.2	106	157	422	3.7	415	427	18.5	57.2
2025-07-22T08:11	10	51	18.5	41	113	418	4.8	412	427	18.7	57.3
2025-07-22T08:12	10	59	19.3	47	145	412	0.9	411	415	18.6	57.4
2025-07-22T08:13	10	82	26.7	65	156	416	0.8	415	418	18.6	58.1
2025-07-22T08:14	10	108	32.0	75	178	420	2.1	415	423	18.6	57.0
2025-07-22T08:15	10	97	28.4	71	156	422	1.9	420	427	18.6	57.3
2025-07-22T08:16	10	106	15.5	83	140	426	0.7	425	427	18.8	57.5
2025-07-22T08:17	10	106	38.0	59	169	426	3.3	420	430	18.9	57.0
2025-07-22T08:18	10	56	1.0	55	59	417	2.6	413	422	18.8	57.4
2025-07-22T08:19	10	59	2.0	56	64	413	0.7	411	415	18.5	57.4
2025-07-22T08:20	10	79	14.0	64	115	414	1.1	413	417	18.5	58.0
2025-07-22T08:21	10	81	24.2	58	142	416	2.0	413	420	18.5	57.1
2025-07-22T08:22	10	53	2.7	50	58	412	1.2	410	414	18.4	57.4
2025-07-22T08:23	10	49	0.7	47	50	410	0.8	408	411	18.5	57.6
2025-07-22T08:24	10	46	0.7	45	48	408	0.7	407	409	18.3	57.0
2025-07-22T08:25	10	47	2.4	45	57	407	0.5	406	408	18.2	57.0
2025-07-22T08:26	10	48	7.1	42	62	407	0.7	405	408	18.1	57.0
2025-07-22T08:27	10	43	1.1	42	45	406	0.2	405	406	18.2	56.9
2025-07-22T08:28	10	50	3.2	45	56	406	0.9	405	408	18.2	57.4
2025-07-22T08:29	10	60	1.7	56	63	410	1.6	407	412	18.3	58.0
2025-07-22T08:30	10	70	23.2	53	134	415	1.9	411	418	18.4	57.9
2025-07-22T08:31	10	53	0.2	52	53	413	0.5	412	414	18.4	57.8
2025-07-22T08:32	10	52	0.4	52	53	411	0.4	411	412	18.4	56.9
2025-07-22T08:33	10	51	0.2	51	52	410	1.1	408	411	18.4	57.0
2025-07-22T08:34	10	53	0.7	51	54	409	0.7	408	411	18.3	56.8
2025-07-22T08:35	10	56	1.1	54	57	410	0.4	409	411	18.3	56.7
2025-07-22T08:36	10	59	2.7	57	71	411	1.4	409	414	18.4	57.1
2025-07-22T08:37	10	86	27.8	57	139	417	1.9	413	419	18.5	57.0
2025-07-22T08:38	10	71	27.4	53	142	415	1.3	413	418	18.5	56.8
2025-07-22T08:39	10	52	0.7	50	53	412	0.8	411	414	18.6	57.0
2025-07-22T08:40	10	50	0.7	48	51	410	1.1	409	413	18.5	56.5
2025-07-22T08:41	10	48	0.3	48	49	410	0.6	409	411	18.5	56.7
2025-07-22T08:42	10	50	1.6	48	55	411	0.6	410	412	18.6	56.8
2025-07-22T08:43	10	51	0.6	50	52	411	0.8	410	413	18.6	56.8
2025-07-22T08:44	10	53	0.4	52	54	412	0.7	410	413	18.6	57.3
2025-07-22T08:45	10	54	0.5	53	55	410	0.8	409	411	18.5	56.9
2025-07-22T08:46	10	57	1.3	55	59	410	0.4	409	411	18.5	57.0
2025-07-22T08:47	10	65	4.6	59	75	411	0.7	409	413	18.4	56.6
2025-07-22T08:48	10	68	2.2	66	75	412	0.5	411	413	18.4	56.1
2025-07-22T08:49	10	67	1.3	65	71	411	0.3	411	412	18.4	55.4
2025-07-22T08:50	10	65	0.3	65	66	413	0.8	411	415	18.4	56.2
2025-07-22T08:51	10	66	0.5	65	67	414	0.3	413	415	18.5	55.9
2025-07-22T08:52	10	67	0.2	66	67	413	0.5	412	415	18.5	55.3
2025-07-22T08:53	10	68	0.9	66	70	415	0.4	414	416	18.5	55.4
2025-07-22T08:54	10	72	3.4	70	87	416	0.8	415	417	18.7	56.1
2025-07-22T08:55	10	87	8.4	78	106	419	0.8	417	421	18.8	56.3
2025-07-22T08:56	10	75	1.1	74	79	418	1.0	416	420	18.8	55.3
2025-07-22T08:57	10	75	0.6	74	76	417	0.3	416	418	18.7	55.1
2025-07-22T08:58	10	75	1.1	74	77	416	0.6	415	417	18.7	54.6
2025-07-22T08:59	10	71	1.6	68	74	415	1.5	413	417	18.6	54.7
2025-07-22T09:00	10	67	1.1	65	69	413	0.4	412	414	18.5	54.7
2025-07-22T09:01	10	64	0.5	63	65	414	0.7	413	416	18.7	55.6
2025-07-22T09:02	10	65	1.0	63	67	415	0.5	414	416	18.8	55.4
2025-07-22T09:03	10	68	1.2	67	72	415	0.6	414	416	18.8	54.8
2025-07-22T09:04	10	76	8.2	66	97	417	1.0	415	419	18.7	54.4
2025-07-22T09:05	10	64	0.5	63	66	415	0.3	414	416	18.8	54.9
2025-07-22T09:06	10	66	1.0	64	68	415	0.5	414	416	18.8	54.8
2025-07-22T09:07	10	69	1.1	68	71	415	0.8	414	417	18.8	53.4
2025-07-22T09:08	10	72	0.5	71	73	417	0.5	416	418	18.8	53.9
2025-07-22T09:09	10	68	1.5	66	70	416	0.9	415	418	18.9	54.3
2025-07-22T09:10	10	65	0.2	65	66	416	0.6	415	418	18.9	54.5
2025-07-22T09:11	10	65	0.3	64	65	418	0.5	417	419	19.0	54.6
2025-07-22T09:12	10	63	0.5	62	64	419	0.4	418	420	19.1	54.8
2025-07-22T09:13	10	62	0.4	61	62	418	1.1	416	419	19.0	53.8
2025-07-22T09:14	10	60	0.4	60	61	415	0.5	414	416	18.9	52.7
2025-07-22T09:15	10	60	0.2	59	60	415	0.5	414	416	18.9	53.8
2025-07-22T09:16	10	61	0.6	60	62	416	0.6	415	417	18.9	53.6
2025-07-22T09:17	10	62	0.9	61	63	416	1.0	415	417	18.9	53.9
2025-07-22T09:18	10	66	1.5	64	69	415	0.5	414	416	18.9	53.4
2025-07-22T09:19	10	70	1.0	68	73	416	0.6	415	417	19.0	53.6
2025-07-22T09:20	10	71	1.4	69	73	417	0.4	416	418	18.9	52.8
2025-07-22T09:21	10	70	1.0	69	72	418	0.8	417	420	19.0	53.7
2025-07-22T09:22	10	78	3.9	72	83	418	0.6	417	420	19.0	52.5
2025-07-22T09:23	10	84	2.7	79	89	419	0.3	418	419	18.9	52.7
2025-07-22T09:24	10	75	1.8	72	79	419	0.5	418	420	19.0	52.9
2025-07-22T09:25	10	71	0.5	70	72	417	0.7	416	418	19.0	51.5
2025-07-22T09:26	10	70	0.3	70	71	419	1.1	417	420	19.0	52.8
2025-07-22T09:27	10	73	1.0	71	74	419	1.0	417	421	19.2	52.2
2025-07-22T09:28	10	82	4.6	74	89	420	1.0	419	422	19.2	52.7
2025-07-22T09:29	10	74	2.7	72	85	421	0.7	420	422	19.3	53.0
2025-07-22T09:30	10	71	3.4	67	79	421	0.3	420	421	19.5	53.0
2025-07-22T09:31	10	65	1.0	64	67	421	0.3	420	421	19.4	51.9
2025-07-22T09:32	10	63	0.4	63	64	420	1.2	418	422	19.3	52.1
2025-07-22T09:33	10	63	0.1	63	63	418	0.6	416	419	19.2	51.7
2025-07-22T09:34	10	66	2.5	63	71	418	0.3	417	418	19.1	52.1
2025-07-22T09:35	10	71	3.7	67	79	418	0.6	417	419	19.2	51.8
2025-07-22T09:36	10	66	0.6	65	67	418	0.3	418	419	19.2	51.8
2025-07-22T09:37	10	64	0.1	64	65	419	0.6	418	420	19.2	52.0
2025-07-22T09:38	10	65	0.5	64	66	421	0.6	419	422	19.4	52.5
2025-07-22T09:39	10	68	2.5	66	77	421	0.3	421	422	19.4	52.7
2025-07-22T09:40	10	91	23.2	75	163	424	2.0	421	428	19.4	52.2
2025-07-22T09:41	10	72	3.0	66	77	422	0.9	420	424	19.3	51.7
2025-07-22T09:42	10	65	0.7	63	66	420	0.2	420	421	19.3	51.9
2025-07-22T09:43	10	62	1.1	60	64	421	0.4	419	421	19.4	53.3
2025-07-22T09:44	10	58	0.8	57	60	417	1.7	413	419	19.3	52.2
2025-07-22T09:45	10	57	0.3	56	57	414	0.3	413	415	19.1	52.8
2025-07-22T09:46	10	57	0.4	56	58	413	0.5	412	414	19.1	52.9
2025-07-22T09:47	10	59	1.0	58	61	412	0.3	412	413	19.1	52.8
2025-07-22T09:48	10	65	1.7	61	68	414	0.7	413	415	19.1	53.4
2025-07-22T09:49	10	69	1.7	67	73	416	0.7	415	417	19.2	53.5
2025-07-22T09:50	10	72	4.7	68	87	415	0.8	414	417	19.0	51.9
2025-07-22T09:51	10	191	30.3	94	227	433	8.1	414	443	19.1	52.7
2025-07-22T09:52	10	129	19.3	106	173	434	2.6	430	440	19.3	52.3
2025-07-22T09:53	10	157	51.1	94	233	436	4.2	429	444	19.4	51.9
2025-07-22T09:54	10	94	19.0	79	146	429	2.5	426	433	19.4	52.1
2025-07-22T09:55	10	77	1.0	76	79	424	1.8	422	427	19.5	51.4
2025-07-22T09:56	10	174	59.2	77	225	434	10.1	420	447	19.5	52.4
2025-07-22T09:57	10	206	29.6	125	227	445	1.7	441	448	19.6	50.0
2025-07-22T09:58	10	211	18.1	163	227	448	1.2	445	449	19.4	49.8
2025-07-22T09:59	10	96	36.5	72	212	436	8.4	426	452	19.6	50.7
2025-07-22T10:00	10	71	0.4	71	73	425	2.9	422	430	19.6	50.7
2025-07-22T10:01	10	90	29.8	71	158	424	2.2	421	429	19.4	49.8
2025-07-22T10:02	10	71	0.5	71	72	421	0.8	420	423	19.6	50.7
2025-07-22T10:03	10	75	1.6	72	78	422	0.3	421	423	19.6	50.7
2025-07-22T10:04	10	84	3.5	78	90	423	0.8	421	424	19.6	50.7
2025-07-22T10:05	10	88	3.2	86	97	423	0.8	422	424	19.5	51.7
2025-07-22T10:06	10	81	3.3	77	87	423	1.0	421	424	19.4	52.1
2025-07-22T10:07	10	77	0.6	77	79	421	0.5	420	422	19.4	51.4
2025-07-22T10:08	10	80	0.3	79	80	421	0.4	420	422	19.3	52.1
2025-07-22T10:09	10	81	1.0	80	83	424	1.7	421	427	19.5	52.7
2025-07-22T10:10	10	92	5.9	83	102	426	0.7	425	427	19.7	52.8
2025-07-22T10:11	10	142	37.8	95	204	431	3.1	426	435	19.7	51.7
2025-07-22T10:12	10	99	17.2	82	144	429	2.1	426	433	19.7	51.9
2025-07-22T10:13	10	83	11.4	75	122	426	1.9	423	429	19.6	51.8
2025-07-22T10:14	10	76	0.7	75	77	421	0.8	420	424	19.4	51.3
2025-07-22T10:15	10	77	0.7	76	78	421	0.6	420	423	19.4	52.0
2025-07-22T10:16	10	74	0.8	73	76	422	0.6	421	423	19.4	51.7
2025-07-22T10:17	10	74	0.6	73	75	422	0.7	420	423	19.4	52.4
2025-07-22T10:18	10	73	2.0	71	77	421	0.4	420	422	19.4	52.1
2025-07-22T10:19	10	70	0.5	69	71	421	0.6	420	422	19.5	52.3
2025-07-22T10:20	10	88	17.3	71	123	423	2.5	419	427	19.6	52.6
2025-07-22T10:21	10	69	1.3	68	73	422	1.0	421	424	19.6	52.6
2025-07-22T10:22	10	69	0.7	68	71	420	0.8	418	421	19.4	51.7
2025-07-22T10:23	10	79	7.2	71	92	421	1.8	419	424	19.5	52.6
2025-07-22T10:24	10	79	1.1	77	83	422	0.5	422	424	19.6	51.9
2025-07-22T10:25	10	74	1.2	73	77	421	0.6	420	422	19.5	51.3
2025-07-22T10:26	10	73	0.4	73	74	421	0.5	420	422	19.5	51.4
2025-07-22T10:27	10	77	1.9	74	81	421	0.6	420	422	19.5	51.4
2025-07-22T10:28	10	91	8.3	81	111	424	1.5	422	427	19.5	51.6
2025-07-22T10:29	10	111	14.4	92	138	428	1.3	426	430	19.6	51.2
2025-07-22T10:30	10	83	4.1	77	91	425	1.1	423	427	19.5	51.3
2025-07-22T10:31	10	77	1.9	76	89	423	0.3	423	424	19.5	51.5
2025-07-22T10:32	10	83	2.3	79	87	423	0.8	422	425	19.6	51.7
2025-07-22T10:33	10	96	5.3	88	107	425	0.3	424	426	19.5	52.0
2025-07-22T10:34	10	93	1.8	91	97	426	0.7	425	428	19.5	52.3
2025-07-22T10:35	10	148	40.7	96	239	433	4.8	426	442	19.6	52.7
2025-07-22T10:36	10	158	48.4	106	245	442	2.6	438	447	19.8	52.5
2025-07-22T10:37	10	182	45.6	112	244	447	4.1	441	454	19.9	52.3
2025-07-22T10:38	10	105	13.1	97	156	435	6.2	428	446	19.7	51.3
2025-07-22T10:39	10	187	48.2	104	244	438	6.6	428	447	19.6	51.5
2025-07-22T10:40	10	204	20.3	173	239	447	1.6	445	451	19.7	51.4
2025-07-22T10:41	10	163	47.9	90	239	449	5.9	438	456	20.1	51.5
2025-07-22T10:42	10	86	2.3	84	92	434	3.1	431	441	19.9	50.6
2025-07-22T10:43	10	95	2.8	91	103	431	0.6	430	433	19.8	50.2
2025-07-22T10:44	10	89	0.7	88	91	429	1.0	428	431	19.6	50.1
2025-07-22T10:45	10	115	32.4	90	181	429	2.7	427	436	19.5	50.7
2025-07-22T10:46	10	119	48.8	82	224	434	5.1	427	442	19.6	50.9
2025-07-22T10:47	10	82	0.4	82	84	427	1.1	425	429	19.6	50.5
2025-07-22T10:48	10	97	14.1	84	137	428	1.9	426	432	19.7	50.7
2025-07-22T10:49	10	108	15.3	92	142	430	1.3	428	433	19.6	49.9
2025-07-22T10:50	10	134	31.5	92	213	433	2.8	428	440	19.5	49.8
2025-07-22T10:51	10	82	10.8	77	140	433	2.8	429	439	19.6	50.5
2025-07-22T10:52	10	110	30.3	78	162	431	3.2	427	436	19.7	50.6
2025-07-22T10:53	10	89	11.8	80	123	431	2.4	427	435	19.9	51.0
2025-07-22T10:54	10	82	2.3	80	90	425	1.4	423	428	19.6	49.4
2025-07-22T10:55	10	81	0.5	79	81	424	0.4	423	425	19.5	49.7
2025-07-22T10:56	10	78	0.8	76	79	425	0.3	424	425	19.5	50.0
2025-07-22T10:57	10	75	0.8	74	76	424	0.6	423	425	19.5	49.6
2025-07-22T10:58	10	73	0.4	73	74	423	0.2	422	424	19.5	49.8
2025-07-22T10:59	10	73	0.2	72	73	426	1.4	423	427	19.6	50.5
2025-07-22T11:00	10	75	1.2	73	77	426	0.4	425	427	19.7	49.7
2025-07-22T11:01	10	80	1.6	77	82	426	0.6	425	427	19.6	49.9
2025-07-22T11:02	10	83	0.7	82	84	429	1.1	426	430	19.8	50.3
2025-07-22T11:03	10	113	40.4	82	189	430	4.1	427	441	19.7	49.7
2025-07-22T11:04	10	120	31.3	94	185	439	2.3	435	444	19.8	49.6
2025-07-22T11:05	10	90	2.1	88	94	434	1.7	432	437	20.0	49.7
2025-07-22T11:06	10	89	0.6	88	91	431	1.5	428	433	20.0	48.8
2025-07-22T11:07	10	124	38.8	91	214	433	5.7	428	442	19.8	49.1
2025-07-22T11:08	10	105	5.4	99	123	436	1.2	435	440	19.9	49.4
2025-07-22T11:09	10	87	5.3	81	101	433	1.2	431	436	19.9	49.3
2025-07-22T11:10	10	82	2.1	81	89	431	0.5	430	432	20.1	49.9
2025-07-22T11:11	10	83	1.6	82	89	430	0.5	429	431	20.1	49.3
2025-07-22T11:12	10	98	17.2	83	135	434	2.0	431	437	20.2	49.8
2025-07-22T11:13	10	145	36.4	109	213	440	2.5	435	444	20.2	49.2
2025-07-22T11:14	10	129	35.7	96	211	441	3.9	435	446	20.2	48.8
2025-07-22T11:15	10	118	27.4	96	182	436	1.3	434	440	20.2	49.6
2025-07-22T11:16	10	132	36.1	95	215	442	3.2	437	446	20.2	49.8
2025-07-22T11:17	10	101	14.6	85	138	437	4.3	431	443	20.2	49.6
2025-07-22T11:18	10	92	7.9	85	119	433	0.4	432	434	20.1	50.0
2025-07-22T11:19	10	101	3.9	93	106	433	1.5	430	434	20.1	49.6
2025-07-22T11:20	10	91	4.7	84	99	430	1.0	428	432	19.8	49.4
2025-07-22T11:21	10	82	1.0	81	84	427	1.1	425	429	19.8	49.7
2025-07-22T11:22	10	89	12.6	81	134	427	1.4	425	431	19.9	49.4
2025-07-22T11:23	10	91	6.8	88	124	429	0.4	428	430	19.9	49.4
2025-07-22T11:24	10	87	0.7	86	88	427	1.0	425	429	19.8	49.2
2025-07-22T11:25	10	97	9.1	87	119	428	2.2	425	432	20.0	49.4
2025-07-22T11:26	10	168	45.6	108	233	438	6.1	429	446	19.9	48.7
2025-07-22T11:27	10	98	21.0	85	153	434	3.8	429	441	19.9	49.0
2025-07-22T11:28	10	89	2.7	85	93	428	1.9	425	431	19.9	48.9
2025-07-22T11:29	10	96	4.5	92	108	427	0.8	425	428	19.8	49.2
2025-07-22T11:30	10	101	13.3	87	124	429	0.9	428	432	19.8	49.0
2025-07-22T11:31	10	85	0.6	84	87	428	0.4	428	429	20.0	49.1
2025-07-22T11:32	10	95	5.6	86	103	429	1.2	427	431	19.9	49.0
2025-07-22T11:33	10	155	49.2	99	249	437	6.4	428	447	20.0	49.3
2025-07-22T11:34	10	191	44.9	117	243	444	6.3	436	456	20.2	48.8
2025-07-22T11:35	10	124	47.8	86	233	445	7.2	434	456	20.2	48.7
2025-07-22T11:36	10	123	42.0	87	213	438	3.4	435	444	20.4	48.9
2025-07-22T11:37	10	138	17.8	110	167	442	3.2	437	446	20.2	47.9
2025-07-22T11:38	10	129	34.0	104	219	438	2.1	436	443	20.2	47.9
2025-07-22T11:39	10	166	55.6	103	246	446	7.7	436	456	20.2	47.7
2025-07-22T11:40	10	103	8.9	91	126	444	1.5	443	450	20.3	48.7
2025-07-22T11:41	10	154	39.9	108	235	448	4.9	441	455	20.6	48.2
2025-07-22T11:42	10	146	57.7	87	242	449	4.7	442	458	20.8	48.0
2025-07-22T11:43	10	95	5.9	87	115	438	2.3	435	444	20.8	47.6
2025-07-22T11:44	10	123	32.0	89	192	440	3.3	435	446	20.7	47.4
2025-07-22T11:45	10	123	46.3	89	230	435	2.5	432	442	20.6	47.0
2025-07-22T11:46	10	219	16.8	134	230	450	4.7	440	456	20.7	47.3
2025-07-22T11:47	10	120	41.4	74	185	442	4.0	438	455	20.8	46.4
2025-07-22T11:48	10	170	32.4	120	218	446	1.9	443	450	20.7	46.8
2025-07-22T11:49	10	210	1.8	204	212	453	2.6	447	457	20.8	46.3
2025-07-22T11:50	10	205	0.9	203	207	453	0.7	452	456	20.8	46.0
2025-07-22T11:51	10	201	7.5	179	207	457	1.9	454	461	21.0	46.3
2025-07-22T11:52	10	202	12.7	174	212	457	1.0	455	459	21.0	45.9
2025-07-22T11:53	10	170	46.8	79	209	453	2.8	448	459	21.0	46.2
2025-07-22T11:54	10	191	23.4	142	212	457	2.2	452	460	20.8	46.1
2025-07-22T11:55	10	178	28.7	136	212	456	2.1	452	460	20.8	46.6
2025-07-22T11:56	10	199	14.9	153	207	457	1.7	455	461	20.8	46.2
2025-07-22T11:57	10	166	51.7	79	212	457	6.0	443	463	20.7	46.2
2025-07-22T11:58	10	70	8.1	63	90	438	4.7	432	448	20.6	46.3
2025-07-22T11:59	10	135	70.1	64	224	438	7.2	431	452	20.7	46.6
2025-07-22T12:00	10	181	39.7	115	220	453	3.6	446	458	20.7	46.4
2025-07-22T12:01	10	166	30.2	119	219	454	3.3	447	459	20.9	46.9
2025-07-22T12:02	10	72	16.8	56	117	442	5.1	435	451	21.1	46.4
2025-07-22T12:03	10	161	59.1	58	212	446	9.1	434	457	21.1	46.1
2025-07-22T12:04	10	201	1.7	199	204	456	0.9	454	459	20.9	45.7
2025-07-22T12:05	10	198	2.8	190	201	457	0.6	456	458	21.0	45.8
2025-07-22T12:06	10	185	20.8	133	200	459	1.9	456	462	20.8	45.7
2025-07-22T12:07	10	194	0.3	194	195	462	0.6	460	463	21.3	45.7
2025-07-22T12:08	10	195	1.4	191	197	466	2.1	461	469	21.2	45.8
2025-07-22T12:09	10	201	5.2	192	210	466	1.0	464	468	21.6	46.6
2025-07-22T12:10	10	156	51.9	78	223	463	4.7	456	470	21.7	46.3
2025-07-22T12:11	10	106	29.8	73	165	453	4.9	448	464	21.8	46.1
2025-07-22T12:12	10	77	11.0	66	113	445	5.1	436	455	21.6	45.9
2025-07-22T12:13	10	115	62.6	66	222	438	5.1	433	451	20.7	45.5
2025-07-22T12:14	10	197	19.8	143	217	457	4.4	448	462	20.8	46.1
2025-07-22T12:15	10	105	48.6	63	219	455	7.1	444	466	21.2	46.0
2025-07-22T12:16	10	76	24.0	62	142	442	2.0	439	446	21.3	45.9
2025-07-22T12:17	10	135	37.4	94	209	446	2.4	443	450	21.5	46.2
2025-07-22T12:18	10	178	40.2	113	236	451	4.0	445	458	21.2	45.4
2025-07-22T12:19	10	161	45.8	90	234	454	4.1	447	460	21.2	45.4
2025-07-22T12:20	10	177	28.9	93	220	455	1.8	452	458	20.9	45.6
2025-07-22T12:21	10	69	4.9	67	90	444	4.8	437	454	21.0	46.2
2025-07-22T12:22	10	70	0.8	69	72	435	2.5	432	439	21.0	46.0
2025-07-22T12:23	10	76	1.6	72	78	432	0.4	431	433	20.6	46.2
2025-07-22T12:24	10	73	0.5	73	75	432	0.8	431	434	20.7	46.8
2025-07-22T12:25	10	90	19.5	73	157	435	1.9	433	440	20.8	46.6
2025-07-22T12:26	10	134	54.5	80	233	445	3.8	438	450	20.8	46.6
2025-07-22T12:27	10	106	35.3	79	187	440	4.0	437	448	20.8	46.6
2025-07-22T12:28	10	135	40.8	85	234	445	2.3	442	451	21.1	47.2
2025-07-22T12:29	10	219	21.6	169	235	456	3.0	448	460	20.9	46.7
2025-07-22T12:30	10	194	26.0	137	227	459	1.6	454	461	20.8	46.8
2025-07-22T12:31	10	83	26.6	68	153	445	6.4	438	457	21.0	46.7
2025-07-22T12:32	10	159	53.8	70	216	447	7.1	437	458	21.0	46.6
2025-07-22T12:33	10	136	39.2	85	199	452	5.2	442	458	20.8	46.6
2025-07-22T12:34	10	124	50.4	72	215	447	4.2	442	455	21.0	46.8
2025-07-22T12:35	10	138	48.8	78	209	448	4.5	440	455	21.2	46.3
2025-07-22T12:36	10	84	8.0	77	105	439	2.2	435	444	21.2	46.2
2025-07-22T12:37	10	169	49.8	79	218	445	7.6	433	457	21.1	45.9
2025-07-22T12:38	10	207	2.9	202	212	458	2.1	454	462	21.0	45.8
2025-07-22T12:39	10	200	1.4	196	202	462	0.9	460	464	21.4	45.2
2025-07-22T12:40	10	190	10.5	159	200	467	2.0	463	470	21.6	45.8
2025-07-22T12:41	10	165	34.5	90	202	463	4.6	457	472	22.2	45.7
2025-07-22T12:42	10	184	22.3	127	202	460	1.9	456	463	21.6	44.9
2025-07-22T12:43	10	190	20.1	144	211	462	2.5	458	466	21.5	44.8
2025-07-22T12:44	10	177	20.5	137	210	466	1.3	463	468	21.7	45.1
2025-07-22T12:45	10	119	29.7	80	175	459	6.4	448	466	22.0	45.1
2025-07-22T12:46	10	117	27.8	93	185	449	2.5	445	453	21.8	45.1
2025-07-22T12:47	10	82	21.7	63	136	443	3.9	436	448	21.3	45.2
2025-07-22T12:48	10	85	40.4	63	212	438	1.9	437	446	21.5	45.9
2025-07-22T12:49	10	214	1.5	208	216	456	5.7	443	465	21.5	45.5
2025-07-22T12:50	10	131	62.4	65	216	456	10.2	439	467	21.8	44.9
2025-07-22T12:51	10	76	10.0	66	104	439	1.5	437	443	21.4	45.5
2025-07-22T12:52	10	96	26.1	74	164	438	1.9	435	443	21.5	45.5
2025-07-22T12:53	10	171	54.0	84	225	452	5.4	440	459	21.6	45.3
2025-07-22T12:54	10	135	57.7	80	220	447	4.5	442	455	21.6	44.9
2025-07-22T12:55	10	127	39.2	77	193	448	2.9	443	453	21.4	44.6
2025-07-22T12:56	10	101	40.9	68	193	445	4.8	438	453	21.5	44.7
2025-07-22T12:57	10	127	54.8	68	206	441	5.1	436	453	21.4	44.5
2025-07-22T12:58	10	198	2.6	191	203	456	3.1	450	461	21.3	44.3
2025-07-22T12:59	10	192	1.6	188	195	460	0.8	459	462	21.5	44.4
2025-07-22T13:00	10	188	0.5	187	188	461	1.8	458	464	21.4	44.3
2025-07-22T13:01	10	186	0.3	186	187	465	1.2	463	467	21.6	44.7
2025-07-22T13:02	10	184	2.3	177	186	464	1.6	461	468	21.7	44.3
2025-07-22T13:03	10	168	13.4	132	185	459	1.1	457	462	21.6	44.6
2025-07-22T13:04	10	175	3.6	164	178	459	0.9	458	461	21.8	44.3
2025-07-22T13:05	10	179	0.5	177	179	458	2.2	455	462	21.9	44.2
2025-07-22T13:06	10	178	8.1	150	184	455	1.2	454	458	21.5	43.5
2025-07-22T13:07	10	71	45.7	39	175	449	8.3	437	462	21.3	43.9
2025-07-22T13:08	10	91	53.6	43	183	441	4.5	437	452	21.6	44.3
2025-07-22T13:09	10	176	2.8	172	182	456	3.2	449	459	21.7	44.0
2025-07-22T13:10	10	171	1.1	165	172	458	1.2	456	461	21.6	44.0
2025-07-22T13:11	10	165	3.7	153	168	458	0.8	457	460	21.7	43.7
2025-07-22T13:12	10	167	0.1	167	167	459	1.4	457	462	21.6	43.8
2025-07-22T13:13	10	166	0.7	165	167	458	0.7	457	459	21.5	43.9
2025-07-22T13:14	10	166	1.0	164	168	460	1.2	458	462	21.7	43.8
2025-07-22T13:15	10	168	0.8	167	170	461	0.9	460	463	21.9	43.4
2025-07-22T13:16	10	171	0.6	170	172	459	0.9	457	460	22.1	43.2
2025-07-22T13:17	10	173	0.8	172	175	458	0.8	456	459	21.8	43.1
2025-07-22T13:18	10	177	2.4	169	180	457	1.1	455	459	21.7	42.8
2025-07-22T13:19	10	152	30.8	90	182	459	2.9	454	463	21.8	43.2
2025-07-22T13:20	10	177	5.8	163	183	463	3.2	458	469	21.9	43.0
2025-07-22T13:21	10	145	59.4	41	186	468	6.6	449	474	22.5	43.7
2025-07-22T13:22	10	52	12.6	42	94	441	5.2	436	454	22.1	42.3
2025-07-22T13:23	10	180	20.8	101	192	450	6.1	437	459	21.8	42.5
2025-07-22T13:24	10	177	10.6	151	187	460	1.0	457	462	21.8	42.9
2025-07-22T13:25	10	179	4.8	166	184	459	1.2	457	461	21.7	42.2
2025-07-22T13:26	10	170	18.7	108	184	461	2.2	457	464	21.8	42.6
2025-07-22T13:27	10	168	21.5	106	183	463	3.3	458	467	22.1	42.8
2025-07-22T13:28	10	135	29.4	74	182	461	3.5	455	466	22.1	42.2
2025-07-22T13:29	10	118	36.8	78	184	451	3.0	446	457	22.0	41.8
2025-07-22T13:30	10	63	38.7	36	175	445	7.8	434	456	21.6	42.3
2025-07-22T13:31	10	71	8.9	54	84	437	0.6	436	439	21.6	42.5
2025-07-22T13:32	10	77	11.2	65	105	440	1.2	438	442	21.6	42.9
2025-07-22T13:33	10	116	56.2	60	194	444	6.5	438	457	21.9	43.1
2025-07-22T13:34	10	163	32.8	97	192	458	3.1	453	463	22.2	42.8
2025-07-22T13:35	10	156	29.8	106	191	458	3.5	452	464	22.2	41.9
2025-07-22T13:36	10	174	8.6	133	181	458	2.7	452	461	22.1	42.2
2025-07-22T13:37	10	161	22.2	75	172	460	1.9	452	461	22.1	42.1
2025-07-22T13:38	10	148	28.5	73	167	453	2.9	449	458	21.7	41.8
2025-07-22T13:39	10	165	0.7	164	166	458	1.1	456	460	22.0	42.1
2025-07-22T13:40	10	163	0.4	162	164	458	0.8	457	460	22.0	41.8
2025-07-22T13:41	10	163	0.2	162	163	458	0.6	456	459	21.9	42.0
2025-07-22T13:42	10	165	0.9	163	167	459	0.6	458	460	22.1	42.1
2025-07-22T13:43	10	168	0.6	167	169	457	1.1	455	459	21.8	41.4
2025-07-22T13:44	10	169	0.2	169	169	458	2.1	455	461	22.0	42.5
2025-07-22T13:45	10	169	1.5	160	170	460	0.7	459	461	22.3	41.5
2025-07-22T13:46	10	156	11.1	126	171	456	1.4	454	459	22.1	41.3
2025-07-22T13:47	10	171	0.9	168	172	458	1.9	455	461	21.6	41.4
2025-07-22T13:48	10	172	1.4	169	174	464	2.5	460	468	22.4	42.3
2025-07-22T13:49	10	173	2.1	165	174	465	1.6	463	468	22.8	41.6
2025-07-22T13:50	10	176	1.3	171	178	461	1.3	460	464	22.4	41.1
2025-07-22T13:51	10	178	0.3	178	179	460	1.4	457	462	22.5	41.1
2025-07-22T13:52	10	177	4.3	161	179	459	1.2	457	461	22.0	41.2
2025-07-22T13:53	10	175	1.6	167	176	461	1.0	459	463	22.3	41.4
2025-07-22T13:54	10	171	1.2	169	173	459	1.1	458	462	22.1	41.0
2025-07-22T13:55	10	168	0.5	167	169	463	0.6	461	464	22.3	41.3
2025-07-22T13:56	10	167	1.2	162	168	460	1.7	458	463	22.2	40.6
2025-07-22T13:57	10	163	8.6	143	170	461	1.3	458	463	22.2	41.3
2025-07-22T13:58	10	130	36.2	47	176	456	2.7	447	459	22.3	41.0
2025-07-22T13:59	10	127	45.3	47	179	450	3.4	445	455	22.2	41.1
2025-07-22T14:00	10	173	2.9	159	177	458	3.0	452	461	22.2	41.4
2025-07-22T14:01	10	112	21.6	89	174	453	4.2	448	462	22.1	41.0
2025-07-22T14:02	10	51	10.4	42	85	443	4.9	436	451	22.0	41.7
2025-07-22T14:03	10	45	1.8	43	48	435	1.7	432	437	22.0	41.5
2025-07-22T14:04	10	46	0.8	44	47	431	0.7	430	433	21.6	41.2
2025-07-22T14:05	10	47	1.3	45	48	431	0.9	429	433	21.6	41.8
2025-07-22T14:06	10	89	55.3	47	189	435	6.1	430	451	21.8	42.8
2025-07-22T14:07	10	182	3.0	177	188	452	3.0	446	457	21.9	41.9
2025-07-22T14:08	10	176	1.8	173	179	458	2.0	455	461	22.1	42.2
2025-07-22T14:09	10	155	27.4	89	173	458	2.6	450	461	22.2	41.7
2025-07-22T14:10	10	151	18.2	93	161	452	1.0	450	454	22.1	41.8
2025-07-22T14:11	10	156	2.0	151	159	453	1.1	451	455	22.3	42.2
2025-07-22T14:12	10	154	0.2	154	154	453	1.0	451	454	22.4	42.1
2025-07-22T14:13	10	153	0.3	153	154	453	0.7	451	454	22.1	41.3
2025-07-22T14:14	10	153	0.1	153	153	453	0.8	451	454	21.8	42.0
2025-07-22T14:15	10	153	0.3	152	153	455	0.6	454	456	22.1	42.4
2025-07-22T14:16	10	152	0.1	152	153	453	0.4	453	455	22.4	42.2
2025-07-22T14:17	10	152	0.2	152	152	452	0.9	450	453	22.1	41.8
2025-07-22T14:18	10	152	0.2	151	152	451	0.8	450	453	21.9	41.8
2025-07-22T14:19	10	152	1.0	148	152	451	0.9	450	454	21.8	42.0
2025-07-22T14:20	10	153	0.7	152	155	452	1.0	451	454	22.0	41.7
2025-07-22T14:21	10	153	3.2	143	155	453	0.6	451	454	22.0	42.0
2025-07-22T14:22	10	117	33.5	67	156	450	3.5	444	455	22.0	42.4
2025-07-22T14:23	10	150	1.6	145	153	450	2.2	446	454	22.1	42.6
2025-07-22T14:24	10	148	0.2	147	148	454	1.6	452	456	22.3	42.4
2025-07-22T14:25	10	148	0.1	147	148	456	0.5	455	457	22.3	42.1
2025-07-22T14:26	10	147	0.2	147	148	454	0.6	453	455	22.2	42.0
2025-07-22T14:27	10	146	0.3	146	147	455	0.8	453	457	22.1	42.1
2025-07-22T14:28	10	146	0.5	145	147	455	0.9	453	456	22.2	42.1
2025-07-22T14:29	10	144	0.1	144	145	456	0.5	454	457	22.3	42.5
2025-07-22T14:30	10	144	0.1	144	144	454	0.9	452	456	22.4	42.1
2025-07-22T14:31	10	144	0.2	143	144	454	1.6	452	456	22.3	41.5
2025-07-22T14:32	10	143	0.1	143	143	454	0.7	452	455	22.1	42.4
2025-07-22T14:33	10	143	0.1	143	143	457	1.3	454	459	22.5	42.5
2025-07-22T14:34	10	143	0.2	142	143	453	0.7	452	454	22.6	42.0
2025-07-22T14:35	10	142	0.1	142	143	453	1.7	449	455	22.7	42.1
2025-07-22T14:36	10	142	0.3	141	142	452	1.4	450	454	22.3	41.8
2025-07-22T14:37	10	141	0.2	141	141	452	1.1	450	454	22.4	42.2
2025-07-22T14:38	10	140	0.1	140	141	455	1.2	453	457	22.5	41.8
2025-07-22T14:39	10	141	0.1	141	141	452	2.0	449	456	22.2	41.8
2025-07-22T14:40	10	141	0.2	140	141	451	0.8	450	453	22.3	42.1
2025-07-22T14:41	10	140	0.2	140	141	451	0.8	450	453	22.4	42.0
2025-07-22T14:42	10	140	0.2	139	140	452	0.6	450	453	22.4	42.2
2025-07-22T14:43	10	139	0.1	139	139	452	0.7	451	454	22.3	42.0
2025-07-22T14:44	10	139	0.2	139	139	452	0.9	450	453	22.4	41.8
2025-07-22T14:45	10	138	0.1	138	139	449	0.9	448	451	22.4	41.6
2025-07-22T14:46	10	138	0.1	138	138	450	1.3	449	454	22.4	42.0
2025-07-22T14:47	10	138	0.1	137	138	454	0.6	453	455	22.5	42.2
2025-07-22T14:48	10	138	0.1	137	138	453	1.1	451	455	22.6	42.1
2025-07-22T14:49	10	138	0.1	137	138	451	0.9	449	452	22.6	42.0
2025-07-22T14:50	10	137	0.2	137	138	452	1.3	449	453	22.4	41.6
2025-07-22T14:51	10	137	0.3	136	137	450	1.1	449	453	22.4	42.3
2025-07-22T14:52	10	136	0.2	136	136	452	1.4	450	455	22.5	42.2
2025-07-22T14:53	10	136	0.1	135	136	452	2.5	449	455	22.8	42.2
2025-07-22T14:54	10	135	0.2	135	136	451	0.5	450	451	22.6	42.5
2025-07-22T14:55	10	135	0.1	135	136	449	0.9	447	450	22.2	42.2
2025-07-22T14:56	10	135	0.3	134	135	451	2.2	447	454	22.3	42.9
2025-07-22T14:57	10	134	0.1	134	135	452	0.7	450	453	22.6	42.5
2025-07-22T14:58	10	134	0.2	134	135	452	1.1	450	454	22.5	42.1
2025-07-22T14:59	10	134	0.2	134	134	454	1.7	451	457	22.7	42.4
2025-07-22T15:00	10	134	0.4	133	135	452	0.6	450	453	22.5	41.9
2025-07-22T15:01	10	133	0.2	133	134	448	0.6	447	450	22.0	41.8
2025-07-22T15:02	10	133	0.2	133	134	448	0.7	447	450	22.1	42.2
2025-07-22T15:03	10	132	0.3	132	133	446	0.7	445	447	22.0	42.0
2025-07-22T15:04	10	132	0.2	131	132	446	0.5	445	447	21.9	42.0
2025-07-22T15:05	10	132	0.2	131	132	448	0.7	446	449	22.1	42.2
2025-07-22T15:06	10	131	0.3	131	132	450	1.8	447	453	22.4	42.5
2025-07-22T15:07	10	131	0.2	131	132	450	0.5	449	451	22.4	41.7
2025-07-22T15:08	10	131	0.2	130	131	449	0.8	447	451	22.4	42.2
2025-07-22T15:09	10	130	0.2	130	131	448	0.8	446	450	22.3	42.2
2025-07-22T15:10	10	130	0.2	130	131	450	1.0	447	452	22.3	42.2
2025-07-22T15:11	10	130	0.2	129	130	446	0.6	445	447	22.0	42.0
2025-07-22T15:12	10	129	0.2	129	130	446	0.6	445	447	22.1	42.3
2025-07-22T15:13	10	129	0.2	128	129	448	1.1	446	450	22.1	42.2
2025-07-22T15:14	10	129	0.2	128	129	446	0.6	444	446	22.0	42.3
2025-07-22T15:15	10	128	0.2	128	129	446	0.8	445	448	22.1	42.0
2025-07-22T15:16	10	128	0.2	127	128	449	1.4	446	452	22.3	42.5
2025-07-22T15:17	10	127	0.2	127	128	449	0.8	448	451	22.3	41.9
2025-07-22T15:18	10	127	0.2	127	128	447	0.5	446	448	22.2	42.0
2025-07-22T15:19	10	127	0.3	127	128	445	0.9	443	447	21.9	41.7
2025-07-22T15:20	10	126	0.3	126	127	444	0.4	443	445	21.9	41.9
2025-07-22T15:21	10	126	0.2	125	126	446	1.0	444	448	21.9	41.9
2025-07-22T15:22	10	126	0.2	125	126	450	1.1	448	452	22.4	42.6
2025-07-22T15:23	10	125	0.3	125	126	449	0.9	448	451	22.5	41.7
2025-07-22T15:24	10	125	0.2	125	126	448	1.2	446	450	22.5	41.9
2025-07-22T15:25	10	125	0.2	124	125	448	0.4	447	449	22.4	41.5
2025-07-22T15:26	10	124	0.3	124	125	446	0.8	445	448	22.4	41.7
2025-07-22T15:27	10	124	0.2	123	124	446	0.9	445	448	22.4	41.2
2025-07-22T15:28	10	123	0.2	123	123	444	0.8	443	446	22.1	41.5
2025-07-22T15:29	10	123	0.2	122	123	443	0.3	443	444	21.8	41.7
2025-07-22T15:30	10	122	0.1	122	122	444	0.5	443	445	22.0	42.1
2025-07-22T15:31	10	122	0.2	121	122	445	0.4	444	446	22.1	42.2
2025-07-22T15:32	10	121	0.3	121	122	443	0.6	442	445	21.9	42.0
2025-07-22T15:33	10	121	0.2	120	121	444	0.3	443	444	21.9	42.3
2025-07-22T15:34	10	121	0.2	120	121	444	0.9	443	446	22.1	42.6
2025-07-22T15:35	10	120	0.2	120	121	445	0.7	443	446	22.4	42.3
2025-07-22T15:36	10	120	0.2	120	120	444	0.7	443	446	22.3	42.2
2025-07-22T15:37	10	120	0.2	119	120	445	0.7	444	446	22.4	42.4
2025-07-22T15:38	10	119	0.3	119	120	443	0.7	442	444	22.2	41.9
2025-07-22T15:39	10	119	0.2	118	119	444	1.1	442	445	22.2	42.3
2025-07-22T15:40	10	118	0.3	117	118	443	0.5	442	444	22.0	41.7
2025-07-22T15:41	10	117	0.2	117	118	443	0.4	442	444	21.9	42.0
2025-07-22T15:42	10	117	0.2	116	117	443	1.0	441	445	22.2	42.3
2025-07-22T15:43	10	117	0.2	116	117	443	0.7	442	444	22.0	41.8
2025-07-22T15:44	10	116	0.2	116	117	446	1.1	444	448	22.0	42.8
2025-07-22T15:45	10	116	0.2	115	116	448	0.4	447	449	22.3	42.2
2025-07-22T15:46	10	116	0.1	115	116	445	0.7	444	447	22.2	41.8
2025-07-22T15:47	10	115	0.2	115	116	445	0.9	443	446	22.3	42.2
2025-07-22T15:48	10	115	0.2	114	116	444	0.6	443	445	22.4	42.5
2025-07-22T15:49	10	115	0.2	114	115	443	0.5	442	443	22.1	41.4
2025-07-22T15:50	10	114	0.2	114	114	443	0.7	441	444	21.9	41.9
2025-07-22T15:51	10	114	0.2	113	114	443	0.5	442	445	22.0	42.2
2025-07-22T15:52	10	113	0.1	113	113	444	0.5	443	445	22.2	42.7
2025-07-22T15:53	10	113	0.2	113	113	441	0.8	440	444	22.2	41.5
2025-07-22T15:54	10	112	0.2	112	113	441	0.5	440	442	22.1	41.8
2025-07-22T15:55	10	112	0.1	111	112	442	0.7	441	443	22.2	41.9
2025-07-22T15:56	10	111	0.1	111	112	442	0.6	441	443	22.0	41.4
2025-07-22T15:57	10	111	0.2	111	111	442	0.6	440	443	21.9	41.5
2025-07-22T15:58	10	111	0.1	110	111	441	0.4	440	442	22.1	41.3
2025-07-22T15:59	10	110	0.1	110	110	443	1.4	441	445	22.1	41.9
2025-07-22T16:00	10	110	0.2	110	110	440	1.5	438	443	22.0	41.1
2025-07-22T16:01	10	110	0.2	109	110	439	0.3	439	440	22.0	41.4
2025-07-22T16:02	10	109	0.1	109	109	441	1.1	440	443	21.9	41.2
2025-07-22T16:03	10	109	0.1	109	109	441	0.5	441	443	22.1	41.7
2025-07-22T16:04	10	108	0.2	108	109	441	0.7	440	443	22.3	41.9
2025-07-22T16:05	10	108	0.2	107	108	441	1.9	438	444	22.2	41.3
2025-07-22T16:06	10	107	0.3	106	108	440	0.5	439	441	22.1	41.7
2025-07-22T16:07	10	106	0.4	106	107	441	0.6	440	443	22.1	41.5
2025-07-22T16:08	10	105	0.2	105	106	440	0.7	439	441	21.9	41.3
2025-07-22T16:09	10	105	0.2	105	105	438	0.7	437	439	21.8	41.8
2025-07-22T16:10	10	104	0.1	104	105	439	0.6	438	441	22.0	41.9
2025-07-22T16:11	10	104	0.1	104	105	441	0.9	439	443	22.4	42.0
2025-07-22T16:12	10	104	0.1	104	104	439	0.5	438	440	22.3	41.5
2025-07-22T16:13	10	104	0.2	103	104	438	0.8	437	440	22.0	41.0
2025-07-22T16:14	10	103	0.2	103	103	439	0.4	438	439	21.9	41.3
2025-07-22T16:15	10	103	0.2	102	103	437	0.5	437	439	22.0	41.2
2025-07-22T16:16	10	102	0.2	102	102	438	0.6	436	439	21.9	41.3
2025-07-22T16:17	10	102	0.1	101	102	437	0.4	436	438	22.0	41.8
2025-07-22T16:18	10	101	0.1	101	101	438	0.3	437	438	21.8	41.2
2025-07-22T16:19	10	101	0.1	101	101	438	0.3	437	439	21.8	41.6
2025-07-22T16:20	10	100	0.1	100	101	440	0.4	439	441	22.0	42.0
2025-07-22T16:21	10	100	0.2	100	100	439	0.6	438	440	22.0	41.1
2025-07-22T16:22	10	100	0.2	99	100	437	0.5	436	438	22.0	41.2
2025-07-22T16:23	10	99	0.2	98	99	436	0.5	435	437	21.9	41.2
2025-07-22T16:24	10	98	0.2	98	99	436	0.4	435	436	21.9	41.1
2025-07-22T16:25	10	97	0.3	97	98	436	0.5	434	437	21.9	41.2
2025-07-22T16:26	10	97	0.2	97	98	434	0.8	433	436	21.9	41.3
2025-07-22T16:27	10	97	0.2	97	97	436	0.5	435	437	22.0	41.3
2025-07-22T16:28	10	96	0.1	96	97	435	0.6	434	436	21.8	41.0
2025-07-22T16:29	10	96	0.2	95	96	434	0.6	432	435	21.8	41.1
2025-07-22T16:30	10	95	0.2	95	95	434	0.7	433	436	22.0	41.4
2025-07-22T16:31	10	94	0.1	94	95	437	0.8	435	438	22.0	41.2
2025-07-22T16:32	10	94	0.1	94	94	436	0.8	435	438	22.0	41.4
2025-07-22T16:33	10	94	0.2	94	94	435	0.4	434	436	21.8	40.9
2025-07-22T16:34	10	93	0.1	93	94	436	1.0	435	438	21.8	41.3
2025-07-22T16:35	10	93	0.2	93	93	436	0.8	435	438	22.0	41.2
2025-07-22T16:36	10	93	0.2	92	93	435	0.8	433	436	22.0	41.0
2025-07-22T16:37	10	92	0.2	92	92	435	0.9	434	436	22.1	41.4
2025-07-22T16:38	10	91	0.3	91	92	433	0.5	432	434	21.8	41.1
2025-07-22T16:39	10	91	0.2	90	91	433	0.5	432	434	21.9	41.6
2025-07-22T16:40	10	90	0.1	90	91	434	0.9	432	435	22.0	41.3
2025-07-22T16:41	10	90	0.2	90	90	432	0.6	431	433	21.8	41.1
2025-07-22T16:42	10	90	0.2	89	90	432	0.5	431	433	21.8	41.2
2025-07-22T16:43	10	89	0.2	88	89	432	0.5	430	432	21.7	41.2
2025-07-22T16:44	10	88	0.1	88	89	432	0.7	431	433	21.8	41.5
2025-07-22T16:45	10	88	0.2	87	88	431	0.3	430	431	21.7	40.8
2025-07-22T16:46	10	87	0.1	87	87	432	0.5	431	433	21.7	40.9
2025-07-22T16:47	10	87	0.2	86	87	431	0.2	430	431	21.6	40.6
2025-07-22T16:48	10	86	0.2	86	87	431	0.9	429	432	21.7	40.5
2025-07-22T16:49	10	86	0.2	85	86	430	0.6	429	431	21.6	40.3
2025-07-22T16:50	10	85	0.1	85	85	430	0.3	430	431	21.6	40.4
2025-07-22T16:51	10	84	0.2	84	85	431	0.3	431	432	21.8	40.7
2025-07-22T16:52	10	84	0.1	84	84	431	0.4	430	432	21.9	41.2
2025-07-22T16:53	10	83	0.2	83	84	430	1.0	428	432	21.8	40.5
2025-07-22T16:54	10	83	0.2	82	83	429	0.4	428	430	21.7	40.8
2025-07-22T16:55	10	82	0.2	82	82	430	0.5	429	431	21.8	41.1
2025-07-22T16:56	10	82	0.2	81	82	432	0.6	430	432	21.9	40.9
2025-07-22T16:57	10	81	0.2	80	81	431	0.3	430	431	21.9	40.9
2025-07-22T16:58	10	80	0.2	80	81	430	0.3	430	431	21.9	41.2
2025-07-22T16:59	10	79	0.2	79	80	430	0.3	430	431	21.9	41.5
2025-07-22T17:00	10	79	0.2	79	79	429	0.6	428	430	21.8	41.0
2025-07-22T17:01	10	78	0.2	78	79	430	0.5	429	431	21.9	41.7
2025-07-22T17:02	10	78	0.2	78	78	428	0.9	427	430	21.9	41.5
2025-07-22T17:03	10	78	0.2	77	78	429	0.5	428	430	21.9	41.7
2025-07-22T17:04	10	77	0.2	77	77	428	0.6	427	429	21.9	41.6
2025-07-22T17:05	10	76	0.2	76	77	426	0.7	425	428	21.7	41.2
2025-07-22T17:06	10	76	0.2	75	76	426	0.4	425	427	21.6	41.5
2025-07-22T17:07	10	75	0.2	75	75	426	0.4	425	426	21.5	41.3
2025-07-22T17:08	10	74	0.2	74	75	426	0.5	425	427	21.6	41.5
2025-07-22T17:09	10	74	0.2	74	74	426	0.4	425	427	21.5	41.5
2025-07-22T17:10	10	73	0.1	73	74	427	0.7	425	428	21.7	41.8
2025-07-22T17:11	10	73	0.1	72	73	427	0.3	426	428	21.8	41.8
2025-07-22T17:12	10	72	0.2	72	73	428	0.4	426	429	21.9	42.0
2025-07-22T17:13	10	72	0.2	72	72	427	0.9	425	428	21.7	41.5
2025-07-22T17:14	10	71	0.2	71	72	425	0.6	424	426	21.7	41.7
2025-07-22T17:15	10	71	0.2	70	71	425	0.3	424	425	21.7	41.4
2025-07-22T17:16	10	70	0.2	70	70	425	0.4	424	426	21.7	41.4
2025-07-22T17:17	10	69	0.2	69	70	426	0.4	425	427	21.8	41.4
2025-07-22T17:18	10	69	0.2	69	69	425	0.5	424	426	21.7	41.3
2025-07-22T17:19	10	68	0.1	68	69	425	0.4	424	426	21.7	41.4
2025-07-22T17:20	10	68	0.2	68	68	426	0.4	425	426	21.7	41.6
2025-07-22T17:21	10	67	0.2	67	68	425	0.3	425	426	21.8	41.7
2025-07-22T17:22	10	67	0.2	66	67	425	0.6	424	426	21.8	41.6
2025-07-22T17:23	10	66	0.2	66	67	424	0.3	423	425	21.7	42.0
2025-07-22T17:24	10	65	0.2	65	66	425	0.5	424	426	21.8	41.9
2025-07-22T17:25	10	65	0.2	65	65	425	0.3	424	425	21.8	42.4
2025-07-22T17:26	10	64	0.2	64	65	424	0.5	423	425	21.9	41.6
2025-07-22T17:27	10	64	0.2	63	64	424	0.3	423	425	21.7	41.8
2025-07-22T17:28	10	63	0.2	63	63	424	0.3	423	424	21.7	42.2
2025-07-22T17:29	10	62	0.2	62	63	423	0.6	422	424	21.8	42.3
2025-07-22T17:30	10	62	0.2	61	62	423	0.4	422	424	21.7	42.2
2025-07-22T17:31	10	61	0.2	61	61	422	0.5	421	423	21.7	42.5
2025-07-22T17:32	10	61	0.2	60	61	422	0.3	421	422	21.7	42.2
2025-07-22T17:33	10	60	0.3	59	60	422	0.3	421	422	21.6	41.9
2025-07-22T17:34	10	59	0.2	59	60	422	0.3	421	423	21.7	42.1
2025-07-22T17:35	10	59	0.2	58	59	421	0.3	421	422	21.7	42.0
2025-07-22T17:36	10	58	0.2	58	59	421	0.6	419	422	21.6	41.7
2025-07-22T17:37	10	58	0.2	57	58	421	0.5	420	422	21.6	41.9
2025-07-22T17:38	10	57	0.2	57	57	421	0.3	420	421	21.6	41.7
2025-07-22T17:39	10	56	0.2	56	57	421	0.3	420	422	21.7	42.0
2025-07-22T17:40	10	56	0.2	56	56	421	0.2	420	421	21.7	42.0
2025-07-22T17:41	10	55	0.2	55	56	420	0.6	419	421	21.6	43.1
2025-07-22T17:42	10	55	0.2	54	55	419	0.6	418	420	21.1	45.8
2025-07-22T17:43	10	54	0.2	53	54	419	0.3	418	419	21.0	46.5
2025-07-22T17:44	10	53	0.2	53	54	418	0.4	417	419	21.0	46.7
2025-07-22T17:45	10	53	0.2	52	53	418	0.3	417	419	21.0	47.1
2025-07-22T17:46	10	51	0.2	51	52	418	0.3	418	419	21.2	47.2
2025-07-22T17:47	10	51	0.3	50	51	418	0.3	417	419	21.3	46.8
2025-07-22T17:48	10	50	0.2	50	51	417	0.3	417	418	21.1	46.8
2025-07-22T17:49	10	50	0.2	49	50	418	0.3	417	418	21.3	47.0
2025-07-22T17:50	10	49	0.2	49	50	417	0.2	417	418	21.3	46.8
2025-07-22T17:51	10	49	0.2	48	49	417	0.2	416	417	21.2	46.9
2025-07-22T17:52	10	48	0.2	47	48	416	0.3	415	417	21.2	46.9
2025-07-22T17:53	10	47	0.2	47	48	415	0.3	414	416	21.0	47.0
2025-07-22T17:54	10	47	0.2	46	47	414	0.3	414	415	20.9	47.3
2025-07-22T17:55	10	46	0.1	46	46	415	0.3	414	415	20.9	47.3
2025-07-22T17:56	10	46	0.4	45	46	415	0.2	414	416	21.0	47.2
2025-07-22T17:57	10	43	1.7	40	45	415	0.3	414	415	21.1	47.2
2025-07-22T17:58	10	43	0.8	41	44	414	0.3	414	415	21.1	47.8
2025-07-22T17:59	10	43	0.1	42	43	414	0.4	413	414	21.0	47.7
2025-07-22T18:00	10	43	0.1	42	43	413	0.3	413	414	20.9	47.8
2025-07-22T18:01	10	42	0.3	42	43	413	0.2	413	414	20.9	48.0
2025-07-22T18:02	10	41	0.2	41	42	413	0.3	412	413	20.9	48.4
2025-07-22T18:03	10	41	0.2	40	41	413	0.3	412	413	21.0	48.3
2025-07-22T18:04	10	40	0.2	40	40	413	0.3	412	413	20.9	47.7
2025-07-22T18:05	10	39	0.3	39	40	412	0.3	411	413	20.8	47.8
2025-07-22T18:06	10	39	0.2	38	39	411	0.2	411	412	20.8	48.0
2025-07-22T18:07	10	38	0.2	38	39	411	0.3	410	412	20.8	48.1
2025-07-22T18:08	10	37	0.2	37	38	411	0.2	411	412	20.8	48.3
2025-07-22T18:09	10	37	0.2	36	37	411	0.3	411	412	20.8	48.2
2025-07-22T18:10	10	36	0.1	36	37	411	0.3	410	411	20.7	48.2
2025-07-22T18:11	10	36	0.2	35	36	410	0.2	410	411	20.7	48.5
2025-07-22T18:12	10	35	0.2	35	35	410	0.2	410	411	20.8	48.7
2025-07-22T18:13	10	34	0.2	34	35	410	0.3	409	410	20.7	48.5
2025-07-22T18:14	10	34	0.3	33	34	410	0.3	409	410	20.7	48.8
2025-07-22T18:15	10	33	0.2	33	34	410	0.2	409	410	20.7	48.3
2025-07-22T18:16	10	32	0.2	32	33	409	0.2	409	410	20.7	48.5
2025-07-22T18:17	10	32	0.2	32	32	409	0.2	408	409	20.7	48.7
2025-07-22T18:18	10	31	0.3	31	32	409	0.2	408	409	20.7	48.9
2025-07-22T18:19	10	30	0.1	30	31	408	0.3	408	409	20.6	48.9
2025-07-22T18:20	10	30	0.2	30	30	408	0.3	407	409	20.5	49.0
2025-07-22T18:21	10	29	0.2	29	30	408	0.2	407	408	20.6	49.3
2025-07-22T18:22	10	29	0.2	29	29	407	0.2	407	408	20.6	49.2
2025-07-22T18:23	10	28	0.2	28	29	407	0.2	407	408	20.6	49.0
2025-07-22T18:24	10	27	0.3	27	28	407	0.3	407	408	20.6	49.2
2025-07-22T18:25	10	27	0.2	26	27	407	0.2	406	407	20.6	49.0
2025-07-22T18:26	10	26	0.3	25	26	406	0.3	406	407	20.6	49.0
2025-07-22T18:27	10	24	0.4	24	25	406	0.2	405	406	20.6	49.1
2025-07-22T18:28	10	23	0.2	23	24	406	0.3	405	407	20.5	49.2
2025-07-22T18:29	10	22	0.3	22	23	406	0.3	405	406	20.5	49.6
2025-07-22T18:30	10	22	0.1	22	23	405	0.2	405	406	20.5	49.8
2025-07-22T18:31	10	22	0.2	22	22	405	0.2	405	406	20.5	49.8
2025-07-22T18:32	10	22	0.1	22	22	405	0.2	405	406	20.5	49.9
2025-07-22T18:33	10	21	0.2	21	22	405	0.3	404	405	20.5	50.3
2025-07-22T18:34	10	21	0.2	20	21	404	0.2	404	405	20.4	50.3
2025-07-22T18:35	10	20	0.2	20	20	404	0.3	403	404	20.4	50.5
2025-07-22T18:36	10	19	0.4	18	20	403	0.2	403	404	20.4	50.4
2025-07-22T18:37	10	18	0.4	17	18	403	0.2	403	404	20.3	50.3
2025-07-22T18:38	10	17	0.2	16	17	403	0.3	403	404	20.3	50.6
2025-07-22T18:39	10	16	0.1	16	16	403	0.3	402	403	20.3	51.0
2025-07-22T18:40	10	17	0.1	16	17	402	0.2	402	403	20.3	50.7
2025-07-22T18:41	10	16	0.2	16	17	402	0.3	401	402	20.3	51.2
2025-07-22T18:42	10	16	0.3	15	16	401	0.2	401	402	20.3	51.1
2025-07-22T18:43	10	15	0.2	15	15	401	0.2	401	402	20.3	51.1
2025-07-22T18:44	10	14	0.2	14	15	401	0.2	400	401	20.2	51.6
2025-07-22T18:45	10	13	0.3	13	14	401	0.3	400	401	20.2	51.3
2025-07-22T18:46	10	12	0.3	12	13	400	0.3	400	401	20.2	51.7
2025-07-22T18:47	10	11	0.3	11	12	400	0.2	399	400	20.2	51.3
2025-07-22T18:48	10	10	0.3	10	11	399	0.2	399	400	20.1	52.0
2025-07-22T18:49	10	9	0.4	9	10	399	0.3	398	399	20.1	52.0
2025-07-22T18:50	10	8	0.3	8	9	398	0.2	398	399	20.1	51.8
2025-07-22T18:51	10	8	0.2	7	8	398	0.2	398	399	20.1	51.8
2025-07-22T18:52	10	7	0.3	6	8	398	0.2	397	399	20.1	51.8
2025-07-22T18:53	10	7	0.2	6	7	398	0.3	398	399	20.1	51.7
2025-07-22T18:54	10	6	0.2	6	7	398	0.3	397	398	20.0	52.0
2025-07-22T18:55	10	6	0.3	5	6	399	0.3	398	399	20.0	51.6
2025-07-22T18:56	10	5	0.2	4	5	399	0.3	399	400	20.0	52.1
2025-07-22T18:57	10	4	0.3	4	5	399	0.3	398	400	19.9	52.3
2025-07-22T18:58	10	4	0.3	3	4	399	0.4	398	400	19.8	53.1
2025-07-22T18:59	10	3	0.2	3	3	398	0.3	398	399	19.8	53.2
2025-07-22T19:00	10	3	0.1	2	3	398	0.2	398	399	19.8	52.8
2025-07-22T19:01	10	3	0.1	2	3	398	0.2	398	399	19.8	53.0
2025-07-22T19:02	10	3	0.1	2	3	398	0.3	397	399	19.8	52.7
2025-07-22T19:03	10	3	0.1	2	3	398	0.3	397	398	19.7	52.6
2025-07-22T19:04	10	2	0.1	2	3	397	0.2	397	398	19.7	52.8
2025-07-22T19:05	10	2	0.1	2	3	397	0.4	396	398	19.6	53.5
2025-07-22T19:06	10	2	0.1	2	2	397	0.3	396	397	19.6	53.4
2025-07-22T19:07	10	2	0.1	2	2	396	0.2	396	397	19.6	53.6
2025-07-22T19:08	10	2	0.1	2	2	396	0.3	395	396	19.5	53.5
2025-07-22T19:09	10	2	0.1	2	2	395	0.2	395	396	19.5	53.5
2025-07-22T19:10	10	2	0.1	1	2	395	0.2	395	395	19.5	53.8
2025-07-22T19:11	10	1	0.1	1	1	395	0.2	394	395	19.5	53.7
2025-07-22T19:12	10	1	0.1	1	1	394	0.3	394	395	19.5	54.2
2025-07-22T19:13	10	1	0.1	1	1	394	0.3	393	395	19.4	54.1
2025-07-22T19:14	10	1	0.1	1	1	394	0.3	393	395	19.5	53.9
2025-07-22T19:15	10	1	0.1	1	1	393	0.2	393	394	19.4	54.1
2025-07-22T19:16	10	1	0.1	1	1	393	0.2	393	394	19.4	54.7
2025-07-22T19:17	10	1	0.1	1	1	393	0.3	392	393	19.4	54.5
2025-07-22T19:18	10	1	0.1	1	1	393	0.4	392	394	19.3	54.9
2025-07-22T19:19	10	1	0.1	0	1	393	0.3	393	394	19.3	54.7
2025-07-22T19:20	10	1	0.1	0	1	393	0.3	392	393	19.3	55.0
2025-07-22T19:21	10	1	0.1	0	1	392	0.3	391	393	19.3	55.2
2025-07-22T19:22	10	1	0.1	0	1	392	0.4	391	393	19.3	55.0
2025-07-22T19:23	10	0	0.1	0	1	392	0.3	392	393	19.3	55.2
2025-07-22T19:24	10	0	0.1	0	1	391	0.3	391	392	19.2	55.6
2025-07-22T19:25	10	0	0.1	0	1	391	0.3	390	391	19.2	55.5
2025-07-22T19:26	10	0	0.1	0	0	390	0.2	390	391	19.2	55.9
2025-07-22T19:27	10	0	0.1	0	0	391	0.2	390	391	19.2	55.5
2025-07-22T19:28	10	0	0.1	0	0	391	0.2	390	391	19.2	55.6
2025-07-22T19:29	10	0	0.1	0	0	391	0.2	390	391	19.2	55.5
2025-07-22T19:30	10	0	0.1	0	0	392	0.6	390	393	19.3	54.6
2025-07-22T19:31	10	0	0.0	0	0	392	0.2	392	393	19.3	54.6
2025-07-22T19:32	10	0	0.1	0	0	392	0.3	392	393	19.2	55.3
2025-07-22T19:33	10	0	0.1	0	0	392	0.3	391	393	19.2	55.1
2025-07-22T19:34	10	0	0.0	0	0	392	0.2	392	393	19.2	54.7
2025-07-22T19:35	10	0	0.1	0	0	393	0.3	392	394	19.3	54.1
2025-07-22T19:36	10	0	0.1	0	0	392	0.4	392	393	19.3	54.8
2025-07-22T19:37	10	1	1.9	0	13	392	0.2	391	392	19.1	55.2
2025-07-22T19:38	10	0	0.0	0	0	391	0.3	390	392	19.1	55.2
2025-07-22T19:39	10	0	0.0	0	0	390	0.4	390	391	19.1	55.7
2025-07-22T19:40	10	0	0.0	0	0	390	0.2	389	390	19.0	55.8
2025-07-22T19:41	10	0	0.1	0	1	389	0.2	389	390	19.0	55.8
2025-07-22T19:42	10	0	0.2	0	1	389	0.3	388	389	19.1	55.5
2025-07-22T19:43	10	0	0.1	0	1	388	0.2	388	389	19.0	55.7
2025-07-22T19:44	10	0	0.2	0	1	388	0.3	387	389	19.0	56.2
2025-07-22T19:45	10	0	0.1	0	1	388	0.3	387	388	18.9	56.5
2025-07-22T19:46	10	0	0.1	0	0	387	0.2	387	388	18.9	56.6
2025-07-22T19:47	10	0	0.2	0	0	388	0.2	387	388	18.8	57.2
2025-07-22T19:48	10	0	0.2	0	0	387	0.3	387	388	18.7	57.4
2025-07-22T19:49	10	0	0.2	0	1	387	0.3	387	388	18.7	57.6
2025-07-22T19:50	10	0	0.1	0	0	387	0.3	386	388	18.6	58.1
2025-07-22T19:51	10	0	0.1	0	0	387	0.2	387	387	18.5	58.2
2025-07-22T19:52	10	0	0.1	0	0	387	0.2	386	387	18.5	58.5
2025-07-22T19:53	10	0	0.1	0	0	387	0.2	386	387	18.5	58.6
2025-07-22T19:54	10	0	0.1	0	0	387	0.3	386	388	18.4	58.7
2025-07-22T19:55	10	0	0.1	0	1	388	0.2	387	388	18.5	58.2
2025-07-22T19:56	10	0	0.1	0	0	387	0.2	387	388	18.5	58.2
2025-07-22T19:57	10	0	0.1	0	0	388	0.3	387	389	18.5	58.1
2025-07-22T19:58	10	0	0.0	0	0	388	0.3	388	389	18.5	58.0
2025-07-22T19:59	10	0	0.1	0	0	389	0.2	388	389	18.5	57.9
2025-07-22T20:00	10	0	0.1	0	0	389	0.3	389	390	18.4	58.9
2025-07-22T20:01	10	0	0.1	0	0	390	0.4	390	391	18.4	59.0
2025-07-22T20:02	10	0	0.1	0	0	391	0.3	390	392	18.4	59.5
2025-07-22T20:03	10	0	0.0	0	0	392	0.3	391	392	18.2	61.0
2025-07-22T20:04	10	0	0.1	0	0	392	0.2	392	393	18.0	63.3
2025-07-22T20:05	10	0	0.0	0	0	392	0.2	392	393	17.8	64.5
2025-07-22T20:06	10	0	0.1	0	0	393	0.3	392	393	17.7	65.0
2025-07-22T20:07	10	0	0.1	0	0	393	0.3	393	394	17.7	64.6
2025-07-22T20:08	10	0	0.1	0	0	393	0.3	393	394	17.7	64.7
2025-07-22T20:09	10	0	0.1	0	0	394	0.3	393	395	17.7	64.8
2025-07-22T20:10	10	0	0.1	0	0	394	0.4	393	395	17.7	64.1
2025-07-22T20:11	10	0	0.1	0	0	395	0.4	394	395	17.8	63.8
2025-07-22T20:12	10	0	0.1	0	1	395	0.4	394	396	17.8	63.4
2025-07-22T20:13	10	0	0.1	0	0	395	0.4	394	396	17.8	64.0
2025-07-22T20:14	10	0	0.1	0	0	395	0.4	394	396	18.0	61.7
2025-07-22T20:15	10	0	0.1	0	0	395	0.2	395	396	18.0	63.1
2025-07-22T20:16	10	0	0.1	0	0	396	0.3	395	396	18.0	62.0
2025-07-22T20:17	10	0	0.1	0	0	395	0.2	395	396	17.9	63.1
2025-07-22T20:18	10	0	0.1	0	0	395	0.3	395	396	17.9	63.4
2025-07-22T20:19	10	0	0.1	0	0	395	0.3	395	396	17.8	63.0
2025-07-22T20:20	10	0	0.1	0	0	395	0.3	394	396	18.0	62.1
2025-07-22T20:21	10	0	0.1	0	0	395	0.3	395	396	17.9	63.5
2025-07-22T20:22	10	0	0.1	0	0	395	0.2	395	396	17.9	62.7
2025-07-22T20:23	10	0	0.1	0	0	395	0.3	394	396	17.9	63.6
2025-07-22T20:24	10	0	0.1	0	0	394	0.4	393	395	17.6	67.3
2025-07-22T20:25	10	0	0.1	0	0	394	0.2	394	394	17.4	70.2
2025-07-22T20:26	10	0	0.1	0	0	394	0.2	393	394	17.3	70.2
2025-07-22T20:27	10	0	0.0	0	0	394	0.2	393	394	17.3	70.2
2025-07-22T20:28	10	0	0.0	0	0	393	0.3	392	394	17.3	67.5
2025-07-22T20:29	10	0	0.1	0	0	392	0.2	392	393	17.3	66.5
2025-07-22T20:30	10	0	0.1	0	0	392	0.3	391	393	17.4	66.9
2025-07-22T20:31	10	0	0.1	0	0	392	0.2	391	392	17.6	64.7
2025-07-22T20:32	10	0	0.0	0	0	391	0.2	391	392	17.6	64.7
2025-07-22T20:33	10	0	0.1	0	0	391	0.2	390	391	17.7	64.1
2025-07-22T20:34	10	0	0.1	0	0	390	0.2	390	391	17.8	64.1
2025-07-22T20:35	10	0	0.0	0	0	390	0.2	390	391	17.8	64.5
2025-07-22T20:36	10	0	0.1	0	0	389	0.3	388	390	17.8	64.7
2025-07-22T20:37	10	0	0.1	0	0	389	0.3	389	390	17.7	65.4
2025-07-22T20:38	10	0	0.1	0	0	389	0.2	388	389	17.8	64.2
2025-07-22T20:39	10	0	0.1	0	0	388	0.3	388	389	17.9	64.5
2025-07-22T20:40	10	0	0.1	0	0	388	0.2	387	388	17.9	65.0
2025-07-22T20:41	10	0	0.1	0	0	387	0.2	387	388	17.9	63.8
2025-07-22T20:42	10	0	0.1	0	0	387	0.3	386	387	17.9	64.6
2025-07-22T20:43	10	0	0.0	0	0	386	0.4	385	386	17.8	66.4
2025-07-22T20:44	10	0	0.1	0	0	385	0.3	384	386	17.7	66.7
2025-07-22T20:45	10	0	0.0	0	0	385	0.3	384	386	17.6	66.9
2025-07-22T20:46	10	0	0.1	0	0	385	0.2	384	385	17.6	65.4
2025-07-22T20:47	10	0	0.1	0	0	385	0.3	384	385	17.7	64.0
2025-07-22T20:48	10	0	0.1	0	0	385	0.2	384	385	17.8	63.3
2025-07-22T20:49	10	0	0.1	0	0	385	0.2	384	385	17.8	63.1
2025-07-22T20:50	10	0	0.1	0	0	385	0.2	384	385	17.8	63.7
2025-07-22T20:51	10	0	0.1	0	1	385	0.3	384	386	17.7	64.5
2025-07-22T20:52	10	0	0.1	0	1	385	0.3	384	385	17.4	68.8
2025-07-22T20:53	10	0	0.2	0	1	385	0.4	384	386	17.1	70.0
2025-07-22T20:54	10	0	0.2	0	1	386	0.4	385	387	17.0	70.8
2025-07-22T20:55	10	0	0.1	0	1	387	0.2	386	387	17.0	70.2
2025-07-22T20:56	10	0	0.1	0	0	387	0.4	386	388	17.0	70.0
2025-07-22T20:57	10	0	0.2	0	1	387	0.3	387	387	17.0	70.4
2025-07-22T20:58	10	0	0.1	0	0	387	0.3	387	388	17.0	70.3
2025-07-22T20:59	10	0	0.1	0	0	387	0.2	387	388	17.0	70.4
2025-07-22T21:00	10	0	0.1	0	0	387	0.3	387	388	17.0	70.6
2025-07-22T21:01	10	0	0.1	0	1	388	0.2	387	388	17.0	70.5
2025-07-22T21:02	10	0	0.1	0	0	388	0.2	387	388	17.0	70.1
2025-07-22T21:03	10	0	0.1	0	0	388	0.3	387	388	17.1	68.1
2025-07-22T21:04	10	0	0.1	0	1	388	0.3	387	389	17.2	67.8
2025-07-22T21:05	10	0	0.1	0	0	388	0.3	387	389	17.3	65.4
2025-07-22T21:06	10	0	0.1	0	0	388	0.2	388	388	17.5	64.5
2025-07-22T21:07	10	0	0.1	0	0	388	0.2	388	389	17.7	62.0
2025-07-22T21:08	10	0	0.1	0	0	388	0.3	387	389	17.9	61.5
2025-07-22T21:09	10	0	0.1	0	0	388	0.5	387	389	17.8	65.1
2025-07-22T21:10	10	0	0.1	0	0	388	0.3	387	388	17.6	64.6
2025-07-22T21:11	10	0	0.1	0	0	388	0.3	387	388	17.6	64.5
2025-07-22T21:12	10	0	0.1	0	0	387	0.3	387	388	17.8	63.0
2025-07-22T21:13	10	0	0.1	0	0	388	0.3	387	388	17.8	63.0
2025-07-22T21:14	10	0	0.1	0	0	387	0.2	387	388	17.8	62.8
2025-07-22T21:15	10	0	0.1	0	0	387	0.6	385	387	18.1	60.4
2025-07-22T21:16	10	0	0.1	0	1	385	0.4	384	386	17.7	65.7
2025-07-22T21:17	10	0	0.1	0	0	385	0.4	384	386	17.7	63.3
2025-07-22T21:18	10	0	0.0	0	0	385	0.3	384	385	17.5	65.8
2025-07-22T21:19	10	0	0.1	0	0	385	0.3	384	385	17.5	64.7
2025-07-22T21:20	10	0	0.1	0	0	385	0.3	384	385	17.6	64.8
2025-07-22T21:21	10	0	0.1	0	0	385	0.3	384	385	17.5	66.0
2025-07-22T21:22	10	0	0.1	0	0	385	0.4	384	386	17.4	66.6
2025-07-22T21:23	10	0	0.1	0	0	387	0.4	386	388	17.6	64.3
2025-07-22T21:24	10	0	0.1	0	0	387	0.2	387	388	17.9	62.2
2025-07-22T21:25	10	0	0.1	0	0	387	0.2	386	388	18.0	62.1
2025-07-22T21:26	10	0	0.1	0	0	387	0.3	386	388	17.7	64.5
2025-07-22T21:27	10	0	0.1	0	0	386	0.3	386	387	17.5	66.3
2025-07-22T21:28	10	0	0.1	0	0	387	0.3	386	387	17.4	66.4
2025-07-22T21:29	10	0	0.1	0	0	387	0.2	386	387	17.5	65.6
2025-07-22T21:30	10	0	0.1	0	0	386	0.3	386	387	17.5	65.8
2025-07-22T21:31	10	0	0.1	0	0	385	0.2	385	386	17.4	66.4
2025-07-22T21:32	10	0	0.1	0	0	385	0.3	385	386	17.4	66.5
2025-07-22T21:33	10	0	0.1	0	0	384	0.3	383	385	17.4	66.1
2025-07-22T21:34	10	0	0.1	0	0	384	0.2	383	384	17.4	66.5
2025-07-22T21:35	10	0	0.1	0	0	383	0.2	382	383	17.3	66.7
2025-07-22T21:36	10	0	0.1	0	0	382	0.3	382	383	17.3	67.2
2025-07-22T21:37	10	0	0.1	0	0	381	0.3	381	382	17.2	67.6
2025-07-22T21:38	10	0	0.1	0	0	380	0.4	380	381	17.1	69.3
2025-07-22T21:39	10	0	0.1	0	0	380	0.3	379	380	16.9	71.1
2025-07-22T21:40	10	0	0.1	0	0	379	0.2	379	380	16.7	71.8
2025-07-22T21:41	10	0	0.1	0	0	379	0.3	378	380	16.6	72.1
2025-07-22T21:42	10	0	0.1	0	0	379	0.2	378	379	16.6	71.9
2025-07-22T21:43	10	0	0.1	0	0	378	0.2	378	379	16.5	72.3
2025-07-22T21:44	10	0	0.1	0	0	378	0.3	377	379	16.5	72.5
2025-07-22T21:45	10	0	0.1	0	0	378	0.3	377	378	16.5	73.5
2025-07-22T21:46	10	0	0.1	0	0	377	0.3	377	378	16.4	74.3
2025-07-22T21:47	10	0	0.1	0	0	377	0.3	376	378	16.4	74.7
2025-07-22T21:48	10	0	0.1	0	0	377	0.3	376	377	16.4	74.5
2025-07-22T21:49	10	0	0.1	0	0	377	0.2	376	377	16.4	74.4
2025-07-22T21:50	10	0	0.1	0	0	377	0.2	376	377	16.4	75.4
2025-07-22T21:51	10	0	0.1	0	0	377	0.3	376	377	16.4	75.1
2025-07-22T21:52	10	0	0.1	0	0	377	0.3	376	377	16.4	74.3
2025-07-22T21:53	10	0	0.1	0	0	377	0.2	377	378	16.3	74.8
2025-07-22T21:54	10	0	0.1	0	0	377	0.2	376	377	16.3	74.8
2025-07-22T21:55	10	0	0.1	0	0	376	0.2	376	377	16.3	75.3
2025-07-22T21:56	10	0	0.1	0	0	376	0.3	375	377	16.2	75.7
2025-07-22T21:57	10	0	0.1	0	0	376	0.2	375	376	16.2	75.7
2025-07-22T21:58	10	0	0.1	0	0	375	0.3	375	376	16.2	75.7
2025-07-22T21:59	10	0	0.1	0	0	375	0.2	374	376	16.2	71.9
2025-07-22T22:00	10	0	0.1	0	0	375	0.3	375	376	16.2	75.7
2025-07-22T22:01	10	0	0.1	0	0	375	0.3	375	376	16.2	75.7
2025-07-22T22:02	10	0	0.1	0	0	376	0.3	375	376	16.2	75.7
2025-07-22T22:03	10	0	0.0	0	0	376	0.4	375	377	16.2	75.7
2025-07-22T22:04	10	0	0.1	0	0	376	0.3	375	376	16.4	71.9
2025-07-22T22:05	10	0	0.0	0	0	376	0.2	375	377	16.5	69.4
2025-07-22T22:06	10	0	0.1	0	0	375	0.3	375	376	16.6	70.1
2025-07-22T22:07	10	0	0.1	0	0	376	0.3	375	376	16.4	71.5
2025-07-22T22:08	10	0	0.1	0	0	376	0.3	375	377	16.4	70.9
2025-07-22T22:09	10	0	0.1	0	0	376	0.3	375	376	16.4	71.4
2025-07-22T22:10	10	0	0.0	0	0	376	0.4	375	376	16.5	70.8
2025-07-22T22:11	10	0	0.1	0	0	376	0.2	375	376	16.4	71.4
2025-07-22T22:12	10	0	0.0	0	0	376	0.3	375	376	16.3	71.5
2025-07-22T22:13	10	0	0.0	0	0	376	0.2	376	377	16.3	72.4
2025-07-22T22:14	10	0	0.0	0	0	376	0.2	376	377	16.1	72.9
2025-07-22T22:15	10	0	0.0	0	0	377	0.2	376	377	16.2	72.9
2025-07-22T22:16	10	0	0.0	0	0	377	0.3	376	377	16.0	74.1
2025-07-22T22:17	10	0	0.0	0	0	377	0.2	377	378	16.0	73.9
2025-07-22T22:18	10	0	0.0	0	0	378	0.3	377	378	15.9	74.3
2025-07-22T22:19	10	0	0.0	0	0	378	0.3	377	378	15.9	73.9
2025-07-22T22:20	10	0	0.0	0	0	378	0.3	377	378	15.9	74.2
2025-07-22T22:21	10	0	0.0	0	0	378	0.2	378	379	15.9	73.5
2025-07-22T22:22	10	0	0.0	0	0	378	0.2	378	379	15.9	73.4
2025-07-22T22:23	10	0	0.0	0	0	378	0.2	378	378	16.0	73.0
2025-07-22T22:24	10	0	0.0	0	0	378	0.3	377	378	15.9	73.5
2025-07-22T22:25	10	0	0.1	0	0	377	0.2	377	377	15.8	74.8
2025-07-22T22:26	10	0	0.0	0	0	377	0.2	376	377	15.8	74.5
2025-07-22T22:27	10	0	0.0	0	0	376	0.3	376	377	15.7	75.2
2025-07-22T22:28	10	0	0.0	0	0	376	0.2	376	377	15.6	76.0
2025-07-22T22:29	10	0	0.0	0	0	376	0.3	375	376	15.6	75.4
2025-07-22T22:30	10	0	0.0	0	0	375	0.3	375	376	15.6	74.8
2025-07-22T22:31	10	0	0.1	0	0	375	0.3	375	376	15.6	75.2
2025-07-22T22:32	10	0	0.1	0	0	375	0.3	374	375	15.5	75.9
2025-07-22T22:33	10	0	0.1	0	0	375	0.2	374	375	15.4	76.0
2025-07-22T22:34	10	0	0.1	0	1	375	0.2	374	375	15.4	75.8
2025-07-22T22:35	10	0	0.1	0	0	375	0.3	374	375	15.4	76.3
2025-07-22T22:36	10	0	0.1	0	0	375	0.3	375	376	15.4	76.1
2025-07-22T22:37	10	0	0.1	0	0	375	0.3	375	376	15.4	76.2
2025-07-22T22:38	10	0	0.2	0	0	376	0.3	375	376	15.4	75.8
2025-07-22T22:39	10	0	0.2	0	1	376	0.3	375	377	15.4	76.1
2025-07-22T22:40	10	0	0.1	0	0	376	0.3	376	377	15.4	76.0
2025-07-22T22:41	10	0	0.1	0	0	377	0.2	376	377	15.4	76.2
2025-07-22T22:42	10	0	0.1	0	0	377	0.3	377	378	15.3	76.6
2025-07-22T22:43	10	0	0.1	0	0	378	0.4	377	379	15.4	76.3
2025-07-22T22:44	10	0	0.1	0	0	378	0.3	378	379	15.4	75.5
2025-07-22T22:45	10	0	0.2	0	1	379	0.2	379	379	15.5	74.7
2025-07-22T22:46	10	0	0.2	0	1	379	0.2	378	379	15.5	74.9
2025-07-22T22:47	10	0	0.1	0	0	379	0.3	379	380	15.5	74.5
2025-07-22T22:48	10	0	0.1	0	0	379	0.3	378	379	15.5	74.9
2025-07-22T22:49	10	0	0.1	0	0	379	0.2	378	379	15.4	74.9
2025-07-22T22:50	10	0	0.1	0	0	379	0.3	378	380	15.4	74.9
2025-07-22T22:51	10	0	0.1	0	1	379	0.3	378	379	15.4	75.1
2025-07-22T22:52	10	0	0.2	0	1	379	0.3	378	380	15.4	75.0
2025-07-22T22:53	10	0	0.1	0	0	379	0.2	378	379	15.4	75.2
2025-07-22T22:54	10	0	0.1	0	0	379	0.3	378	379	15.4	75.0
2025-07-22T22:55	10	0	0.1	0	0	379	0.4	379	380	15.5	74.1
2025-07-22T22:56	10	0	0.1	0	1	379	0.3	378	379	15.5	74.8
2025-07-22T22:57	10	0	0.1	0	0	379	0.5	378	380	15.4	75.3
2025-07-22T22:58	10	0	0.1	0	1	378	0.6	377	379	15.6	74.1
2025-07-22T22:59	10	0	0.1	0	0	377	0.3	376	378	15.2	78.2
2025-07-22T23:00	10	0	0.1	0	0	377	0.3	376	377	15.1	77.2
2025-07-22T23:01	10	0	0.1	0	0	376	0.5	375	377	15.2	76.9
2025-07-22T23:02	10	0	0.1	0	0	375	0.2	375	375	15.0	78.9
2025-07-22T23:03	10	0	0.1	0	0	375	0.4	374	376	15.0	78.2
2025-07-22T23:04	10	0	0.1	0	1	375	0.3	375	376	15.2	76.9
2025-07-22T23:05	10	0	0.1	0	0	375	0.3	375	376	15.3	75.8
2025-07-22T23:06	10	0	0.1	0	0	375	0.2	375	376	15.4	75.7
2025-07-22T23:07	10	0	0.1	0	0	375	0.2	375	376	15.4	75.1
2025-07-22T23:08	10	0	0.1	0	0	375	0.2	374	376	15.4	75.7
2025-07-22T23:09	10	0	0.1	0	0	374	0.2	374	375	15.4	75.3
2025-07-22T23:10	10	0	0.1	0	0	374	0.4	373	375	15.4	74.5
2025-07-22T23:11	10	0	0.0	0	0	373	0.2	373	374	15.5	74.3
2025-07-22T23:12	10	0	0.1	0	0	373	0.3	372	373	15.5	73.8
2025-07-22T23:13	10	0	0.0	0	0	373	0.2	372	373	15.4	74.4
2025-07-22T23:14	10	0	0.1	0	0	372	0.3	372	373	15.3	75.4
2025-07-22T23:15	10	0	0.0	0	0	373	0.3	372	373	15.1	76.7
2025-07-22T23:16	10	0	0.0	0	0	373	0.3	372	374	15.2	75.8
2025-07-22T23:17	10	0	0.0	0	0	373	0.3	372	374	14.9	78.2
2025-07-22T23:18	10	0	0.0	0	0	372	0.3	371	373	14.8	79.2
2025-07-22T23:19	10	0	0.1	0	0	372	0.3	371	372	14.7	79.8
2025-07-22T23:20	10	0	0.0	0	0	371	0.4	370	372	14.7	79.3
2025-07-22T23:21	10	0	0.1	0	0	371	0.2	370	371	14.7	79.0
2025-07-22T23:22	10	0	0.1	0	0	371	0.3	370	371	14.6	79.5
2025-07-22T23:23	10	0	0.1	0	0	371	0.4	370	371	14.7	78.8
2025-07-22T23:24	10	0	0.1	0	0	371	0.4	370	372	14.9	77.5
2025-07-22T23:25	10	0	0.1	0	0	372	0.5	371	373	15.1	76.4
2025-07-22T23:26	10	0	0.1	0	0	373	0.5	372	374	15.2	75.7
2025-07-22T23:27	10	0	0.0	0	0	374	0.3	373	374	15.2	76.6
2025-07-22T23:28	10	0	0.0	0	0	374	0.2	374	375	15.1	77.0
2025-07-22T23:29	10	0	0.1	0	0	374	0.3	374	375	15.1	77.0
2025-07-22T23:30	10	0	0.1	0	0	373	0.6	372	374	15.0	77.6
2025-07-22T23:31	10	0	0.1	0	0	372	0.4	372	373	14.8	79.0
2025-07-22T23:32	10	0	0.1	0	0	372	0.3	371	373	14.7	78.8
2025-07-22T23:33	10	0	0.0	0	0	371	0.3	371	372	14.8	78.6
2025-07-22T23:34	10	0	0.0	0	0	370	0.3	370	371	14.7	78.8
2025-07-22T23:35	10	0	0.0	0	0	370	0.4	370	372	14.7	78.9
2025-07-22T23:36	10	0	0.1	0	0	371	0.3	370	372	14.8	78.5
2025-07-22T23:37	10	0	0.1	0	0	371	0.3	371	372	14.9	78.1
2025-07-22T23:38	10	0	0.1	0	0	371	0.2	371	372	14.8	78.6
2025-07-22T23:39	10	0	0.1	0	0	372	0.2	371	372	14.7	79.0
2025-07-22T23:40	10	0	0.1	0	0	372	0.3	371	373	14.7	78.9
2025-07-22T23:41	10	0	0.1	0	0	372	0.2	372	373	14.7	79.3
2025-07-22T23:42	10	0	0.1	0	0	372	0.2	372	373	14.4	80.8
2025-07-22T23:43	10	0	0.1	0	0	373	0.2	372	373	14.4	81.0
2025-07-22T23:44	10	0	0.1	0	0	373	0.3	373	374	14.5	80.9
2025-07-22T23:45	10	0	0.0	0	0	374	0.3	373	374	14.5	80.8
2025-07-22T23:46	10	0	0.1	0	0	374	0.3	374	375	14.5	80.8
2025-07-22T23:47	10	0	0.1	0	0	374	0.3	374	375	14.5	80.6
2025-07-22T23:48	10	0	0.1	0	0	374	0.2	374	375	14.6	80.3
2025-07-22T23:49	10	0	0.1	0	0	374	0.3	373	374	14.6	79.9
2025-07-22T23:50	10	0	0.1	0	0	374	0.2	373	374	14.6	80.4
2025-07-22T23:51	10	0	0.1	0	0	374	0.3	373	374	14.6	79.9
2025-07-22T23:52	10	0	0.1	0	0	374	0.4	373	375	14.5	81.0
2025-07-22T23:53	10	0	0.1	0	1	374	0.2	373	374	14.3	82.1
2025-07-22T23:54	10	0	0.1	0	0	375	0.4	374	375	14.4	81.6
2025-07-22T23:55	10	0	0.1	0	0	374	0.3	374	375	14.4	81.6
2025-07-22T23:56	10	0	0.1	0	0	374	0.3	374	375	14.4	81.3
2025-07-22T23:57	10	0	0.1	0	0	374	0.2	373	375	14.4	81.3
2025-07-22T23:58	10	0	0.1	0	0	374	0.2	373	374	14.4	81.5
2025-07-22T23:59	10	0	0.1	0	0	374	0.3	373	374	14.3	82.2
2025-07-23T00:00	10	0	0.1	0	0	374	0.2	373	374	14.3	82.4
2025-07-23T00:01	10	0	0.1	0	0	374	0.2	373	374	14.3	82.1
2025-07-23T00:02	10	0	0.1	0	0	374	0.3	373	374	14.4	81.6
2025-07-23T00:03	10	0	0.1	0	0	373	0.2	373	374	14.4	81.7
2025-07-23T00:04	10	0	0.1	0	0	373	0.2	373	373	14.3	81.8
2025-07-23T00:05	10	0	0.1	0	0	373	0.2	373	374	14.4	81.5
2025-07-23T00:06	10	0	0.1	0	0	373	0.2	372	373	14.4	81.6
2025-07-23T00:07	10	0	0.1	0	0	374	0.2	373	374	14.3	81.9
2025-07-23T00:08	10	0	0.1	0	0	374	0.2	373	374	14.3	81.8
2025-07-23T00:09	10	0	0.1	0	0	374	0.2	373	375	14.3	82.1
2025-07-23T00:10	10	0	0.1	0	0	374	0.2	373	374	14.3	82.1
2025-07-23T00:11	10	0	0.1	0	0	374	0.3	374	375	14.3	81.7
2025-07-23T00:12	10	0	0.1	0	0	374	0.2	374	375	14.3	81.8
2025-07-23T00:13	10	0	0.0	0	0	374	0.3	373	374	14.3	81.7
2025-07-23T00:14	10	0	0.1	0	0	373	0.3	373	374	14.3	82.0
2025-07-23T00:15	10	0	0.1	0	0	372	0.2	372	373	14.2	82.3
2025-07-23T00:16	10	0	0.0	0	0	372	0.3	371	372	14.3	81.6
2025-07-23T00:17	10	0	0.1	0	0	371	0.2	370	372	14.2	82.3
2025-07-23T00:18	10	0	0.0	0	0	371	0.2	370	371	14.1	82.6
2025-07-23T00:19	10	0	0.1	0	0	371	0.2	370	371	14.2	82.1
2025-07-23T00:20	10	0	0.1	0	0	370	0.2	370	371	14.2	82.2
2025-07-23T00:21	10	0	0.0	0	0	371	0.2	370	371	14.2	81.9
2025-07-23T00:22	10	0	0.1	0	0	371	0.3	370	371	14.2	81.6
2025-07-23T00:23	10	0	0.1	0	0	371	0.2	370	371	14.2	81.7
2025-07-23T00:24	10	0	0.1	0	0	371	0.3	370	371	14.2	81.5
2025-07-23T00:25	10	0	0.0	0	0	371	0.2	370	371	14.2	81.4
2025-07-23T00:26	10	0	0.1	0	0	370	0.3	370	371	14.2	81.5
2025-07-23T00:27	10	0	0.0	0	0	370	0.2	370	371	14.2	81.1
2025-07-23T00:28	10	0	0.0	0	0	370	0.3	369	370	14.3	81.1
2025-07-23T00:29	10	0	0.1	0	0	369	0.3	369	370	14.2	81.1
2025-07-23T00:30	10	0	0.1	0	0	369	0.3	368	369	14.2	81.3
2025-07-23T00:31	10	0	0.0	0	0	368	0.2	368	369	14.2	81.3
2025-07-23T00:32	10	0	0.0	0	0	368	0.4	368	369	14.3	80.6
2025-07-23T00:33	10	0	0.0	0	0	368	0.2	367	368	14.4	79.5
2025-07-23T00:34	10	0	0.1	0	0	367	0.2	367	368	14.5	78.7
2025-07-23T00:35	10	0	0.0	0	0	367	0.3	366	368	14.5	79.2
2025-07-23T00:36	10	0	0.0	0	0	367	0.3	366	367	14.4	79.7
2025-07-23T00:37	10	0	0.0	0	0	367	0.2	366	368	14.3	80.1
2025-07-23T00:38	10	0	0.0	0	0	367	0.2	367	368	14.3	79.9
2025-07-23T00:39	10	0	0.0	0	0	368	0.3	367	368	14.3	79.7
2025-07-23T00:40	10	0	0.1	0	0	367	0.2	366	367	14.3	79.8
2025-07-23T00:41	10	0	0.1	0	0	367	0.2	367	368	14.3	79.9
2025-07-23T00:42	10	0	0.1	0	0	367	0.4	366	368	14.2	80.5
2025-07-23T00:43	10	0	0.0	0	0	367	0.3	366	368	14.1	81.3
2025-07-23T00:44	10	0	0.1	0	0	367	0.4	367	368	14.2	80.9
2025-07-23T00:45	10	0	0.1	0	0	367	0.2	367	368	14.2	80.8
2025-07-23T00:46	10	0	0.1	0	0	367	0.2	366	367	14.2	80.9
2025-07-23T00:47	10	0	0.1	0	0	366	0.3	366	367	14.1	81.6
2025-07-23T00:48	10	0	0.1	0	0	366	0.2	365	366	14.0	82.1
2025-07-23T00:49	10	0	0.1	0	0	366	0.2	365	366	14.0	82.6
2025-07-23T00:50	10	0	0.1	0	0	366	0.2	365	366	13.9	83.3
2025-07-23T00:51	10	0	0.1	0	1	365	0.3	364	366	13.7	84.3
2025-07-23T00:52	10	0	0.1	0	0	365	0.2	364	365	13.6	84.6
2025-07-23T00:53	10	0	0.1	0	0	364	0.3	364	365	13.5	85.5
2025-07-23T00:54	10	0	0.1	0	0	364	0.2	364	365	13.4	86.5
2025-07-23T00:55	10	0	0.1	0	0	364	0.3	363	364	13.2	87.1
2025-07-23T00:56	10	0	0.7	0	5	363	0.2	363	364	13.1	87.8
2025-07-23T00:57	10	0	0.1	0	0	364	0.3	363	364	13.1	88.2
2025-07-23T00:58	10	0	0.1	0	0	364	0.2	363	364	13.1	88.3
2025-07-23T00:59	10	0	0.1	0	0	364	0.2	363	364	13.0	88.6
2025-07-23T01:00	10	0	0.1	0	0	364	0.2	363	364	13.1	88.1
2025-07-23T01:01	10	0	0.1	0	0	364	0.3	363	364	13.1	87.4
2025-07-23T01:02	10	0	0.1	0	0	364	0.3	363	364	13.2	86.9
2025-07-23T01:03	10	0	0.1	0	0	363	0.3	363	364	13.3	86.3
2025-07-23T01:04	10	0	0.1	0	0	363	0.3	363	364	13.2	86.8
2025-07-23T01:05	10	0	0.1	0	0	364	0.4	363	365	13.2	86.7
2025-07-23T01:06	10	0	0.1	0	0	365	0.4	364	366	13.2	86.7
2025-07-23T01:07	10	0	0.1	0	0	365	0.3	364	366	13.3	86.4
2025-07-23T01:08	10	0	0.1	0	0	365	0.2	365	366	13.3	86.4
2025-07-23T01:09	10	0	0.1	0	0	365	0.2	365	366	13.4	86.3
2025-07-23T01:10	10	0	0.1	0	0	365	0.3	364	366	13.4	86.0
2025-07-23T01:11	10	0	0.1	0	0	365	0.3	365	366	13.4	85.7
2025-07-23T01:12	10	0	0.2	0	0	366	0.2	365	366	13.4	85.5
2025-07-23T01:13	10	0	0.2	0	0	365	0.3	364	366	13.3	86.2
2025-07-23T01:14	10	0	0.1	0	0	364	0.4	363	365	13.2	86.8
2025-07-23T01:15	10	0	0.2	0	0	364	0.3	363	365	13.2	86.7
2025-07-23T01:16	10	0	0.1	0	0	364	0.2	363	364	13.1	86.8
2025-07-23T01:17	10	0	0.1	0	0	363	0.2	363	364	13.1	86.7
2025-07-23T01:18	10	0	0.1	0	0	363	0.3	363	364	13.1	86.8
2025-07-23T01:19	10	0	0.2	0	0	363	0.3	362	364	13.1	86.7
2025-07-23T01:20	10	0	0.1	0	0	363	0.4	363	364	13.2	86.3
2025-07-23T01:21	10	0	0.1	0	0	364	0.3	363	365	13.3	85.9
2025-07-23T01:22	10	0	0.2	0	0	364	0.3	363	364	13.4	85.2
2025-07-23T01:23	10	0	0.2	0	0	364	0.2	363	364	13.4	84.7
2025-07-23T01:24	10	0	0.1	0	0	363	0.3	363	364	13.4	85.0
2025-07-23T01:25	10	0	0.2	0	0	363	0.3	362	364	13.3	85.9
2025-07-23T01:26	10	0	0.1	0	0	363	0.3	363	364	13.2	86.2
2025-07-23T01:27	10	0	0.1	0	0	364	0.3	363	364	13.2	86.3
2025-07-23T01:28	10	0	0.1	0	0	364	0.3	363	365	13.2	86.1
2025-07-23T01:29	10	0	0.1	0	0	364	0.3	363	365	13.2	86.1
2025-07-23T01:30	10	0	0.1	0	0	364	0.3	363	365	13.1	86.6
2025-07-23T01:31	10	0	0.1	0	0	364	0.3	363	365	13.1	86.6
2025-07-23T01:32	10	0	0.1	0	0	364	0.2	363	364	13.0	87.0
2025-07-23T01:33	10	0	0.1	0	0	364	0.3	363	364	13.0	87.2
2025-07-23T01:34	10	0	0.1	0	0	364	0.3	363	364	13.0	86.9
2025-07-23T01:35	10	0	0.1	0	0	364	0.3	363	364	13.0	87.1
2025-07-23T01:36	10	0	0.1	0	0	364	0.2	364	365	12.9	87.6
2025-07-23T01:37	10	0	0.1	0	0	364	0.2	364	365	12.9	87.9
2025-07-23T01:38	10	0	0.1	0	0	364	0.3	364	365	12.8	88.3
2025-07-23T01:39	10	0	0.0	0	0	365	0.3	364	365	12.9	87.9
2025-07-23T01:40	10	0	0.1	0	0	365	0.2	364	365	12.8	88.1
2025-07-23T01:41	10	0	0.1	0	0	365	0.3	364	365	12.8	88.3
2025-07-23T01:42	10	0	0.1	0	0	365	0.3	364	365	12.9	88.3
2025-07-23T01:43	10	0	0.1	0	0	365	0.2	364	365	13.1	87.3
2025-07-23T01:44	10	0	0.1	0	0	364	0.3	364	365	12.9	87.9
2025-07-23T01:45	10	0	0.1	0	0	364	0.2	363	364	12.7	89.0
2025-07-23T01:46	10	0	0.1	0	0	363	0.2	363	364	12.6	89.6
2025-07-23T01:47	10	0	0.1	0	0	363	0.2	362	363	12.6	89.7
2025-07-23T01:48	10	0	0.1	0	0	363	0.2	362	363	12.7	89.3
2025-07-23T01:49	10	0	0.1	0	0	362	0.2	362	363	13.0	87.5
2025-07-23T01:50	10	0	0.1	0	0	362	0.3	362	363	12.9	87.9
2025-07-23T01:51	10	0	0.1	0	0	363	0.2	362	363	13.0	87.5
2025-07-23T01:52	10	0	0.1	0	0	362	0.3	362	363	13.1	86.6
2025-07-23T01:53	10	0	0.0	0	0	362	0.3	361	362	13.1	86.6
2025-07-23T01:54	10	0	0.1	0	0	361	0.2	361	362	13.0	87.0
2025-07-23T01:55	10	0	0.1	0	0	361	0.2	361	362	12.8	88.1
2025-07-23T01:56	10	0	0.4	0	2	361	0.2	361	362	12.8	88.5
2025-07-23T01:57	10	0	0.1	0	0	361	0.3	360	361	12.8	88.5
2025-07-23T01:58	10	0	0.1	0	0	360	0.4	359	361	12.7	88.5
2025-07-23T01:59	10	0	0.1	0	0	360	0.2	359	361	12.6	88.9
2025-07-23T02:00	10	0	0.1	0	0	360	0.2	359	360	12.6	89.0
2025-07-23T02:01	10	0	0.1	0	0	360	0.3	359	361	12.5	89.4
2025-07-23T02:02	10	0	0.1	0	0	361	0.3	360	361	12.4	90.0
2025-07-23T02:03	10	0	0.1	0	0	362	0.3	361	362	12.3	90.7
2025-07-23T02:04	10	0	0.1	0	0	362	0.5	362	363	12.2	91.0
2025-07-23T02:05	10	0	0.1	0	0	363	0.3	362	364	12.2	91.1
2025-07-23T02:06	10	0	0.1	0	0	363	0.2	363	364	12.2	91.0
2025-07-23T02:07	10	0	0.1	0	0	363	0.3	362	363	12.2	91.1
2025-07-23T02:08	10	0	0.1	0	0	363	0.2	362	363	12.1	91.2
2025-07-23T02:09	10	0	0.1	0	0	363	0.2	362	363	12.2	91.0
2025-07-23T02:10	10	0	0.1	0	0	363	0.2	362	363	12.3	90.6
2025-07-23T02:11	10	0	0.1	0	0	363	0.2	362	363	12.5	90.0
2025-07-23T02:12	10	0	0.1	0	0	363	0.2	362	363	12.4	89.8
2025-07-23T02:13	10	0	0.1	0	0	362	0.2	362	363	12.4	90.1
2025-07-23T02:14	10	0	0.1	0	0	362	0.3	361	362	12.3	90.2
2025-07-23T02:15	10	0	0.1	0	0	362	0.2	361	362	12.4	89.9
2025-07-23T02:16	10	0	0.1	0	0	362	0.3	361	362	12.4	89.6
2025-07-23T02:17	10	0	0.1	0	0	361	0.2	361	362	12.4	89.5
2025-07-23T02:18	10	0	0.1	0	0	361	0.2	361	362	12.4	89.8
2025-07-23T02:19	10	0	0.1	0	0	361	0.2	360	361	12.4	89.8
2025-07-23T02:20	10	0	0.1	0	0	361	0.2	360	361	12.3	89.9
2025-07-23T02:21	10	0	0.1	0	0	361	0.3	360	362	12.4	89.8
2025-07-23T02:22	10	0	0.1	0	0	361	0.3	360	361	12.4	89.7
2025-07-23T02:23	10	0	0.1	0	0	360	0.2	360	361	12.4	89.6
2025-07-23T02:24	10	0	0.1	0	0	360	0.3	360	361	12.4	89.6
2025-07-23T02:25	10	0	0.1	0	0	360	0.2	359	361	12.3	89.8
2025-07-23T02:26	10	0	0.1	0	0	360	0.3	359	360	12.3	90.1
2025-07-23T02:27	10	0	0.1	0	0	359	0.2	359	360	12.2	90.4
2025-07-23T02:28	10	0	0.1	0	0	360	0.3	359	360	12.1	90.7
2025-07-23T02:29	10	0	0.1	0	0	360	0.3	359	360	12.1	90.9
2025-07-23T02:30	10	0	0.1	0	0	360	0.3	359	360	12.2	90.8
2025-07-23T02:31	10	0	0.1	0	0	360	0.2	359	360	12.2	90.8
2025-07-23T02:32	10	0	0.1	0	0	360	0.2	360	360	12.2	90.7
2025-07-23T02:33	10	0	0.1	0	0	360	0.3	359	361	12.1	90.9
2025-07-23T02:34	10	0	0.1	0	0	360	0.3	359	360	12.1	91.1
2025-07-23T02:35	10	0	0.1	0	0	359	0.3	358	360	12.1	91.1
2025-07-23T02:36	10	0	0.1	0	0	359	0.3	358	360	12.2	90.6
2025-07-23T02:37	10	0	0.1	0	0	359	0.2	358	359	12.1	90.6
2025-07-23T02:38	10	0	0.1	0	0	360	0.3	359	360	12.1	90.7
2025-07-23T02:39	10	0	0.1	0	0	359	0.2	359	360	12.0	90.9
2025-07-23T02:40	10	0	0.1	0	0	360	0.2	359	360	12.0	90.9
2025-07-23T02:41	10	0	0.1	0	0	360	0.2	359	360	12.1	90.9
2025-07-23T02:42	10	0	0.1	0	0	359	0.3	359	360	12.1	91.0
2025-07-23T02:43	10	0	0.1	0	0	359	0.3	359	360	12.1	91.1
2025-07-23T02:44	10	0	0.1	0	0	359	0.2	358	359	12.1	91.0
2025-07-23T02:45	10	0	0.1	0	0	359	0.2	358	360	12.1	90.9
2025-07-23T02:46	10	0	0.1	0	0	359	0.3	358	360	12.2	90.7
2025-07-23T02:47	10	0	0.1	0	0	359	0.2	359	359	12.2	90.6
2025-07-23T02:48	10	0	0.1	0	0	359	0.2	358	359	12.1	90.5
2025-07-23T02:49	10	0	0.1	0	0	358	0.3	358	359	12.1	90.6
2025-07-23T02:50	10	0	0.1	0	0	358	0.2	358	359	12.1	90.8
2025-07-23T02:51	10	0	0.1	0	0	358	0.3	357	359	12.1	90.6
2025-07-23T02:52	10	0	0.1	0	0	358	0.2	358	358	12.2	90.0
2025-07-23T02:53	10	0	0.1	0	0	358	0.3	357	359	12.3	89.5
2025-07-23T02:54	10	0	0.1	0	0	358	0.2	357	358	12.3	89.2
2025-07-23T02:55	10	0	0.1	0	0	358	0.4	357	358	12.3	89.1
2025-07-23T02:56	10	0	0.1	0	0	357	0.3	356	358	12.3	89.0
2025-07-23T02:57	10	0	0.1	0	0	357	0.2	357	358	12.2	89.0
2025-07-23T02:58	10	0	0.1	0	0	357	0.2	356	357	12.2	89.4
2025-07-23T02:59	10	0	0.1	0	0	357	0.2	356	357	12.2	89.5
2025-07-23T03:00	10	0	0.1	0	0	357	0.2	356	357	12.2	89.4
2025-07-23T03:01	10	0	0.1	0	0	357	0.3	356	357	12.1	89.3
2025-07-23T03:02	10	0	0.1	0	0	357	0.2	356	357	12.1	89.5
2025-07-23T03:03	10	0	0.1	0	0	357	0.2	356	357	12.1	89.7
2025-07-23T03:04	10	0	0.1	0	0	357	0.2	356	357	12.1	89.8
2025-07-23T03:05	10	0	0.1	0	0	357	0.2	356	357	12.0	90.0
2025-07-23T03:06	10	0	0.1	0	0	357	0.2	356	357	12.0	90.0
2025-07-23T03:07	10	0	0.1	0	0	356	0.2	356	357	12.1	89.9
2025-07-23T03:08	10	0	0.1	0	0	356	0.3	355	357	12.1	89.4
2025-07-23T03:09	10	0	0.1	0	0	356	0.2	356	356	12.2	89.3
2025-07-23T03:10	10	0	0.1	0	0	356	0.3	355	356	12.2	89.4
2025-07-23T03:11	10	0	0.1	0	0	356	0.2	355	356	12.1	89.6
2025-07-23T03:12	10	0	0.1	0	0	355	0.3	355	356	12.1	89.8
2025-07-23T03:13	10	0	0.1	0	0	356	0.3	355	356	12.1	90.0
2025-07-23T03:14	10	0	0.1	0	0	356	0.3	355	357	12.0	90.2
2025-07-23T03:15	10	0	0.1	0	0	357	0.2	356	357	12.0	90.5
2025-07-23T03:16	10	0	0.1	0	0	357	0.2	356	357	11.9	91.1
2025-07-23T03:17	10	0	0.1	0	0	357	0.2	357	358	11.8	91.6
2025-07-23T03:18	10	0	0.1	0	0	357	0.3	357	358	11.7	91.8
2025-07-23T03:19	10	0	0.1	0	0	357	0.2	357	358	11.7	91.9
2025-07-23T03:20	10	0	0.1	0	0	357	0.3	357	358	11.6	92.3
2025-07-23T03:21	10	0	0.0	0	0	358	0.2	357	358	11.5	92.7
2025-07-23T03:22	10	0	0.1	0	0	358	0.3	357	359	11.4	93.1
2025-07-23T03:23	10	0	0.1	0	0	358	0.2	357	358	11.4	93.1
2025-07-23T03:24	10	0	0.1	0	0	358	0.2	357	358	11.4	93.2
2025-07-23T03:25	10	0	0.1	0	0	358	0.3	357	358	11.5	92.9
2025-07-23T03:26	10	0	0.1	0	0	357	0.4	356	358	11.9	91.3
2025-07-23T03:27	10	0	0.1	0	0	356	0.3	356	357	11.7	91.6
2025-07-23T03:28	10	0	0.1	0	0	356	0.2	356	356	11.7	91.7
2025-07-23T03:29	10	0	0.1	0	0	356	0.3	355	356	11.6	92.0
2025-07-23T03:30	10	0	0.1	0	0	356	0.2	355	356	11.6	92.2
2025-07-23T03:31	10	0	0.0	0	0	356	0.2	355	356	11.7	92.4
2025-07-23T03:32	10	0	0.1	0	0	356	0.4	355	357	11.7	92.5
2025-07-23T03:33	10	0	0.1	0	0	357	0.3	356	357	11.8	92.1
2025-07-23T03:34	10	0	0.1	0	0	357	0.2	356	357	11.9	91.3
2025-07-23T03:35	10	0	0.1	0	0	356	0.3	356	357	11.8	92.0
2025-07-23T03:36	10	0	0.1	0	0	356	0.2	356	357	11.6	92.0
2025-07-23T03:37	10	0	0.1	0	0	356	0.2	355	357	11.6	91.9
2025-07-23T03:38	10	0	0.1	0	0	356	0.3	355	356	11.5	92.4
2025-07-23T03:39	10	0	0.1	0	0	356	0.2	356	357	11.5	92.8
2025-07-23T03:40	10	0	0.1	0	0	357	0.3	357	358	11.6	92.4
2025-07-23T03:41	10	0	0.0	0	0	358	0.4	357	359	11.8	91.5
2025-07-23T03:42	10	0	0.1	0	0	358	0.4	357	359	12.0	89.9
2025-07-23T03:43	10	0	0.1	0	0	357	0.3	357	358	12.0	90.0
2025-07-23T03:44	10	0	0.1	0	0	357	0.2	357	357	11.9	90.3
2025-07-23T03:45	10	0	0.1	0	0	357	0.2	357	358	11.9	90.3
2025-07-23T03:46	10	0	0.1	0	0	358	0.2	357	358	11.9	89.1
2025-07-23T03:47	10	0	0.1	0	0	358	0.3	357	358	12.0	88.6
2025-07-23T03:48	10	0	0.1	0	0	358	0.4	357	358	12.0	88.4
2025-07-23T03:49	10	0	0.1	0	0	357	0.3	356	358	12.0	88.3
2025-07-23T03:50	10	0	0.1	0	0	357	0.2	356	357	12.1	87.9
2025-07-23T03:51	10	0	0.1	0	1	357	0.3	356	357	12.0	88.1
2025-07-23T03:52	10	0	0.1	0	0	357	0.3	356	357	12.0	88.2
2025-07-23T03:53	10	0	0.1	0	1	356	0.3	356	357	12.0	88.2
2025-07-23T03:54	10	0	0.1	0	0	356	0.3	355	357	11.9	88.5
2025-07-23T03:55	10	0	0.1	0	0	356	0.3	355	356	11.9	88.6
2025-07-23T03:56	10	0	0.1	0	1	356	0.3	356	357	11.9	88.8
2025-07-23T03:57	10	0	0.1	0	1	356	0.2	356	357	11.9	88.5
2025-07-23T03:58	10	0	0.1	0	1	356	0.2	356	357	12.0	88.3
2025-07-23T03:59	10	0	0.1	0	1	356	0.3	355	357	11.9	88.3
2025-07-23T04:00	10	0	0.1	0	1	356	0.3	356	357	11.9	88.3
2025-07-23T04:01	10	0	0.1	0	1	356	0.3	355	357	12.0	88.1
2025-07-23T04:02	10	0	0.2	0	1	356	0.3	355	357	12.0	87.8
2025-07-23T04:03	10	0	0.2	0	1	356	0.2	355	356	12.0	87.7
2025-07-23T04:04	10	1	0.1	0	1	356	0.3	355	356	12.0	87.7
2025-07-23T04:05	10	1	0.2	0	1	356	0.3	355	356	12.0	87.9
2025-07-23T04:06	10	1	0.2	0	1	355	0.2	355	356	11.9	88.4
2025-07-23T04:07	10	1	0.2	1	2	356	0.2	355	356	11.9	88.4
2025-07-23T04:08	10	1	0.1	1	1	356	0.2	355	356	11.9	88.3
2025-07-23T04:09	10	1	0.1	1	1	356	0.3	355	356	11.9	88.6
2025-07-23T04:10	10	1	0.2	1	2	356	0.3	355	357	11.8	89.0
2025-07-23T04:11	10	1	0.2	1	2	355	0.3	355	356	11.8	89.2
2025-07-23T04:12	10	2	0.1	1	2	356	0.2	355	356	11.8	89.3
2025-07-23T04:13	10	2	0.1	1	2	356	0.2	356	357	11.7	89.4
2025-07-23T04:14	10	2	0.2	1	2	356	0.3	356	357	11.6	90.1
2025-07-23T04:15	10	2	0.1	2	2	356	0.3	356	357	11.4	91.0
2025-07-23T04:16	10	2	0.2	2	2	356	0.3	356	357	11.3	91.6
2025-07-23T04:17	10	3	0.3	2	3	357	0.4	356	358	11.2	92.0
2025-07-23T04:18	10	3	0.1	2	3	357	0.3	356	358	11.3	91.7
2025-07-23T04:19	10	2	0.2	2	3	357	0.3	356	357	11.4	91.0
2025-07-23T04:20	10	2	0.1	2	2	357	0.3	356	358	11.4	90.8
2025-07-23T04:21	10	2	0.2	2	2	357	0.3	357	358	11.7	89.1
2025-07-23T04:22	10	2	0.2	2	3	357	0.2	357	358	11.7	88.9
2025-07-23T04:23	10	2	0.1	2	3	357	0.2	357	358	11.8	88.1
2025-07-23T04:24	10	3	0.2	2	3	357	0.3	357	358	11.9	87.7
2025-07-23T04:25	10	3	0.3	3	4	357	0.3	357	358	11.8	88.1
2025-07-23T04:26	10	4	0.4	3	5	358	0.4	357	358	11.6	89.0
2025-07-23T04:27	10	5	0.5	5	6	358	0.4	358	359	11.6	89.6
2025-07-23T04:28	10	7	0.4	6	7	358	0.3	358	359	11.6	89.9
2025-07-23T04:29	10	7	0.2	7	8	359	0.2	358	359	11.6	89.7
2025-07-23T04:30	10	7	0.2	7	8	359	0.2	358	359	11.5	90.1
2025-07-23T04:31	10	8	0.2	7	8	359	0.2	358	359	11.5	90.3
2025-07-23T04:32	10	8	0.2	8	9	359	0.2	358	359	11.4	90.7
2025-07-23T04:33	10	8	0.2	7	8	359	0.2	358	359	11.4	90.9
2025-07-23T04:34	10	8	0.2	8	9	359	0.2	358	359	11.4	91.2
2025-07-23T04:35	10	8	0.3	8	9	359	0.3	359	360	11.4	91.5
2025-07-23T04:36	10	10	0.4	9	10	359	0.2	359	360	11.4	91.4
2025-07-23T04:37	10	11	0.4	10	11	360	0.2	359	360	11.4	91.4
2025-07-23T04:38	10	11	0.3	11	12	360	0.3	359	361	11.4	91.7
2025-07-23T04:39	10	12	0.2	11	12	360	0.4	360	361	11.4	91.5
2025-07-23T04:40	10	11	0.9	9	12	361	0.2	360	361	11.4	90.9
2025-07-23T04:41	10	8	0.3	7	9	361	0.3	360	361	11.4	90.8
2025-07-23T04:42	10	11	1.6	9	13	361	0.2	360	361	11.4	91.0
2025-07-23T04:43	10	14	0.3	13	14	361	0.4	360	362	11.4	91.4
2025-07-23T04:44	10	11	1.4	9	13	361	0.3	361	362	11.4	90.9
2025-07-23T04:45	10	6	1.3	4	9	361	0.3	360	362	11.5	90.5
2025-07-23T04:46	10	4	0.3	3	4	361	0.3	360	362	11.5	90.5
2025-07-23T04:47	10	3	0.2	3	3	361	0.3	360	362	11.5	90.2
2025-07-23T04:48	10	3	0.1	2	3	361	0.2	360	361	11.6	89.9
2025-07-23T04:49	10	3	0.1	3	3	361	0.3	360	361	11.6	89.6
2025-07-23T04:50	10	3	0.2	3	4	360	0.3	360	361	11.6	89.6
2025-07-23T04:51	10	3	0.1	3	4	360	0.2	359	361	11.6	89.7
2025-07-23T04:52	10	4	0.3	3	4	360	0.3	359	361	11.6	89.8
2025-07-23T04:53	10	4	0.3	4	5	360	0.3	360	361	11.6	89.4
2025-07-23T04:54	10	5	0.2	5	6	362	0.3	361	362	11.6	89.9
2025-07-23T04:55	10	5	0.5	5	6	362	0.3	361	363	11.5	90.6
2025-07-23T04:56	10	12	3.9	7	19	363	0.5	362	364	11.5	90.7
2025-07-23T04:57	10	21	1.0	19	23	364	0.5	363	365	11.5	90.7
2025-07-23T04:58	10	23	0.4	22	24	365	0.4	364	366	11.5	90.7
2025-07-23T04:59	10	24	0.1	23	24	366	0.4	365	366	11.5	91.1
2025-07-23T05:00	10	24	0.3	24	25	366	0.4	366	367	11.5	91.8
2025-07-23T05:01	10	25	0.2	25	26	367	0.3	366	368	11.5	91.9
2025-07-23T05:02	10	26	0.2	25	26	367	0.3	367	368	11.6	91.6
2025-07-23T05:03	10	26	0.2	26	27	368	0.3	367	369	11.7	90.7
2025-07-23T05:04	10	27	0.2	26	27	369	0.2	368	369	11.8	90.5
2025-07-23T05:05	10	27	0.2	27	28	369	0.2	368	370	11.8	90.1
2025-07-23T05:06	10	28	0.2	28	29	369	0.2	369	370	11.9	89.4
2025-07-23T05:07	10	29	0.2	28	29	369	0.2	369	370	11.9	89.8
2025-07-23T05:08	10	29	0.2	29	30	370	0.2	369	370	11.9	90.5
2025-07-23T05:09	10	30	0.2	29	30	370	0.2	370	371	11.9	90.1
2025-07-23T05:10	10	30	0.2	30	31	370	0.2	370	371	11.9	89.7
2025-07-23T05:11	10	31	0.2	31	31	371	0.2	370	371	12.0	89.2
2025-07-23T05:12	10	32	0.2	31	32	371	0.2	371	371	12.1	88.6
2025-07-23T05:13	10	32	0.2	32	33	371	0.2	371	372	12.1	88.4
2025-07-23T05:14	10	33	0.2	32	33	372	0.4	371	373	12.2	87.6
2025-07-23T05:15	10	33	0.2	33	34	372	0.2	372	373	12.4	86.8
2025-07-23T05:16	10	34	0.2	34	34	373	0.2	372	373	12.4	86.7
2025-07-23T05:17	10	35	0.2	34	35	373	0.3	373	374	12.4	86.5
2025-07-23T05:18	10	35	0.2	35	35	374	0.2	374	375	12.6	86.2
2025-07-23T05:19	10	35	0.1	35	36	374	0.2	374	375	12.8	85.5
2025-07-23T05:20	10	36	0.1	36	36	375	0.4	374	376	12.9	85.7
2025-07-23T05:21	10	36	0.2	36	36	376	0.3	375	376	13.1	83.6
2025-07-23T05:22	10	37	0.1	36	37	376	0.2	376	377	13.3	82.7
2025-07-23T05:23	10	37	0.2	37	37	377	0.3	376	378	13.2	84.3
2025-07-23T05:24	10	38	0.2	37	38	377	0.2	377	378	13.3	84.5
2025-07-23T05:25	10	38	0.1	38	38	378	0.2	377	378	13.3	85.3
2025-07-23T05:26	10	39	0.2	38	39	378	0.2	378	379	13.4	85.8
2025-07-23T05:27	10	39	0.1	39	39	379	0.2	379	379	13.6	84.2
2025-07-23T05:28	10	39	0.2	39	40	379	0.3	379	380	13.7	82.7
2025-07-23T05:29	10	40	0.2	40	40	380	0.3	379	380	13.8	82.7
2025-07-23T05:30	10	41	0.2	40	41	381	0.2	380	381	13.8	84.3
2025-07-23T05:31	10	41	0.2	41	42	381	0.2	380	381	13.8	84.7
2025-07-23T05:32	10	42	0.2	42	42	381	0.2	381	382	13.7	84.0
2025-07-23T05:33	10	43	0.2	42	43	382	0.3	381	382	13.8	84.2
2025-07-23T05:34	10	43	0.2	43	44	382	0.2	382	383	13.7	84.0
2025-07-23T05:35	10	44	0.2	44	44	382	0.3	381	383	13.8	81.3
2025-07-23T05:36	10	45	0.2	44	45	382	0.3	382	383	13.9	82.3
2025-07-23T05:37	10	45	0.2	45	46	382	0.3	381	383	13.8	81.0
2025-07-23T05:38	10	46	0.2	46	46	382	0.3	381	383	13.8	82.8
2025-07-23T05:39	10	46	0.2	46	47	382	0.2	382	383	13.8	84.9
2025-07-23T05:40	10	47	0.2	47	47	383	0.3	383	384	13.8	88.3
2025-07-23T05:41	10	48	0.2	47	48	384	0.2	383	384	13.7	88.3
2025-07-23T05:42	10	46	0.6	45	48	384	0.2	384	385	13.7	88.3
2025-07-23T05:43	10	49	0.3	48	49	384	0.3	384	385	13.7	87.2
2025-07-23T05:44	10	50	0.1	49	50	385	0.2	384	385	13.7	87.8
2025-07-23T05:45	10	49	0.9	48	51	385	0.3	384	385	13.7	87.3
2025-07-23T05:46	10	51	0.2	51	51	385	0.3	384	385	13.7	84.1
2025-07-23T05:47	10	52	0.2	51	52	385	0.3	384	386	13.8	81.3
2025-07-23T05:48	10	52	0.2	52	52	386	0.2	385	386	13.9	84.6
2025-07-23T05:49	10	53	0.2	52	53	386	0.2	386	387	13.9	82.1
2025-07-23T05:50	10	54	0.2	53	54	386	0.2	386	387	13.9	82.0
2025-07-23T05:51	10	54	0.2	54	55	387	0.3	386	387	14.0	79.8
2025-07-23T05:52	10	55	0.2	55	55	387	0.2	386	388	14.0	79.1
2025-07-23T05:53	10	55	0.2	55	56	387	0.3	387	388	14.1	79.7
2025-07-23T05:54	10	56	0.3	56	57	388	0.2	387	388	14.1	80.7
2025-07-23T05:55	10	57	0.2	57	57	388	0.3	388	389	14.2	81.0
2025-07-23T05:56	10	58	0.2	57	58	389	0.2	388	390	14.2	81.1
2025-07-23T05:57	10	58	0.2	58	59	389	0.2	389	390	14.2	80.6
2025-07-23T05:58	10	59	0.2	58	59	389	0.2	389	390	14.3	79.6
2025-07-23T05:59	10	59	0.3	59	60	390	0.3	389	390	14.3	79.8
2025-07-23T06:00	10	60	0.4	60	61	391	0.2	390	391	14.4	80.3
2025-07-23T06:01	10	59	1.8	56	61	391	0.2	391	392	14.4	78.8
2025-07-23T06:02	10	61	1.3	59	63	392	0.2	391	392	14.5	79.8
2025-07-23T06:03	10	61	1.1	59	63	392	0.3	392	393	14.7	81.1
2025-07-23T06:04	10	63	0.8	62	64	392	0.4	392	393	14.7	79.5
2025-07-23T06:05	10	64	0.2	64	65	392	0.2	392	393	14.7	79.6
2025-07-23T06:06	10	65	0.3	65	66	393	0.3	392	393	14.7	79.8
2025-07-23T06:07	10	66	0.2	66	66	393	0.2	392	393	14.8	79.5
2025-07-23T06:08	10	67	0.2	66	67	394	0.3	393	394	14.8	80.7
2025-07-23T06:09	10	67	0.2	67	68	394	0.2	394	394	14.7	80.2
2025-07-23T06:10	10	68	0.2	68	68	395	0.2	394	395	14.8	79.3
2025-07-23T06:11	10	69	0.2	68	69	395	0.3	395	396	14.8	78.3
2025-07-23T06:12	10	69	0.2	69	69	396	0.3	395	396	14.9	79.3
2025-07-23T06:13	10	70	0.2	69	70	396	0.2	395	396	14.9	78.5
2025-07-23T06:14	10	70	0.2	70	71	397	0.3	396	397	15.1	79.5
2025-07-23T06:15	10	71	0.2	71	71	396	0.2	396	397	15.1	78.2
2025-07-23T06:16	10	67	2.8	63	72	397	0.3	396	398	15.1	77.4
2025-07-23T06:17	10	72	0.2	72	72	398	0.3	397	398	15.2	77.5
2025-07-23T06:18	10	73	0.2	72	73	398	0.3	397	398	15.1	77.1
2025-07-23T06:19	10	73	0.2	73	74	398	0.3	397	399	15.1	76.4
2025-07-23T06:20	10	74	0.2	74	74	397	0.4	396	398	15.1	76.2
2025-07-23T06:21	10	75	0.2	74	75	397	0.2	396	397	15.1	76.6
2025-07-23T06:22	10	75	0.2	75	75	397	0.3	396	398	15.1	76.2
2025-07-23T06:23	10	76	0.2	75	76	397	0.2	396	397	15.1	76.0
2025-07-23T06:24	10	76	0.2	76	77	397	0.4	396	398	15.0	75.3
2025-07-23T06:25	10	77	0.2	76	77	398	0.3	398	399	15.0	76.5
2025-07-23T06:26	10	78	0.3	77	78	399	0.3	398	399	15.1	77.2
2025-07-23T06:27	10	74	4.9	66	78	399	0.2	398	399	15.3	77.2
2025-07-23T06:28	10	69	2.2	66	73	398	0.5	397	399	15.2	76.5
2025-07-23T06:29	10	77	1.9	73	80	399	0.6	398	400	15.1	76.7
2025-07-23T06:30	10	80	0.2	79	80	400	0.2	399	400	15.1	76.1
2025-07-23T06:31	10	80	0.1	80	81	401	0.4	400	401	15.3	76.0
2025-07-23T06:32	10	81	0.2	81	81	401	0.3	400	402	15.4	75.4
2025-07-23T06:33	10	82	0.2	81	82	401	0.3	401	402	15.4	74.4
2025-07-23T06:34	10	82	0.3	82	83	402	0.2	401	402	15.5	74.9
2025-07-23T06:35	10	83	0.2	82	83	402	0.2	402	403	15.5	74.5
2025-07-23T06:36	10	83	0.2	83	84	403	0.3	402	403	15.6	75.2
2025-07-23T06:37	10	84	0.3	84	85	403	0.3	403	404	15.6	74.6
2025-07-23T06:38	10	85	0.2	84	85	404	0.3	403	405	15.6	75.0
2025-07-23T06:39	10	85	0.3	85	86	404	0.3	404	405	15.7	75.9
2025-07-23T06:40	10	86	0.3	85	86	405	0.4	405	406	15.8	76.4
2025-07-23T06:41	10	86	0.2	86	87	406	0.5	405	407	16.0	77.0
2025-07-23T06:42	10	83	2.5	79	87	404	0.4	404	405	16.0	74.4
2025-07-23T06:43	10	83	1.8	80	86	405	0.3	404	405	16.0	74.1
2025-07-23T06:44	10	76	5.1	66	81	404	0.5	403	405	16.1	74.9
2025-07-23T06:45	10	66	8.9	51	76	404	1.1	402	405	16.1	75.1
2025-07-23T06:46	10	84	12.6	56	92	404	1.5	401	406	16.1	73.3
2025-07-23T06:47	10	89	1.9	85	91	406	0.6	405	407	16.2	73.3
2025-07-23T06:48	10	83	2.3	79	86	407	0.3	406	407	16.3	75.9
2025-07-23T06:49	10	87	1.8	82	89	408	0.3	407	408	16.4	74.3
2025-07-23T06:50	10	83	0.8	82	85	408	0.2	407	408	16.5	72.9
2025-07-23T06:51	10	81	1.6	78	83	408	0.4	407	409	16.5	74.0
2025-07-23T06:52	10	75	2.4	72	81	407	0.5	406	408	16.5	73.6
2025-07-23T06:53	10	88	2.7	81	92	408	0.5	407	409	16.6	73.7
2025-07-23T06:54	10	85	5.2	78	92	408	0.5	407	409	16.6	74.0
2025-07-23T06:55	10	84	4.0	78	90	408	0.5	407	409	16.7	73.2
2025-07-23T06:56	10	73	13.9	56	91	409	1.5	406	411	16.8	74.0
2025-07-23T06:57	10	81	8.0	62	88	409	1.6	406	411	16.8	73.7
2025-07-23T06:58	10	85	1.5	83	88	411	0.5	410	412	16.9	74.7
2025-07-23T06:59	10	91	3.8	85	97	412	0.3	411	413	16.9	74.8
2025-07-23T07:00	10	68	14.1	48	89	410	1.7	407	413	16.9	73.8
2025-07-23T07:01	10	92	15.3	54	104	411	2.1	407	414	16.8	73.4
2025-07-23T07:02	10	100	1.7	97	103	414	0.3	413	414	16.8	73.7
2025-07-23T07:03	10	98	0.2	97	98	414	0.2	414	415	16.8	74.1
2025-07-23T07:04	10	98	0.2	97	98	414	0.3	414	415	16.8	73.3
2025-07-23T07:05	10	96	0.6	95	97	415	0.3	414	415	16.9	73.9
2025-07-23T07:06	10	98	1.5	95	100	416	0.4	415	417	17.0	73.4
2025-07-23T07:07	10	93	5.6	86	101	416	0.7	415	417	17.1	72.6
2025-07-23T07:08	10	95	7.3	82	103	415	0.8	414	417	17.3	71.8
2025-07-23T07:09	10	94	6.9	76	101	417	0.4	415	417	17.4	69.7
2025-07-23T07:10	10	96	3.6	82	101	416	0.4	416	417	17.5	69.8
2025-07-23T07:11	10	97	1.8	94	102	418	0.3	417	419	17.7	70.3
2025-07-23T07:12	10	99	2.3	92	102	419	0.6	418	420	17.7	71.0
2025-07-23T07:13	10	82	2.9	79	91	416	1.1	415	418	17.5	69.8
2025-07-23T07:14	10	107	7.0	89	112	418	1.6	415	420	17.4	71.4
2025-07-23T07:15	10	111	0.3	110	112	420	0.3	420	421	17.5	72.0
2025-07-23T07:16	10	95	9.9	79	112	420	1.2	418	422	17.6	70.9
2025-07-23T07:17	10	60	5.2	54	77	416	2.4	412	420	17.6	70.5
2025-07-23T07:18	10	69	7.8	59	85	414	0.4	413	415	17.5	70.9
2025-07-23T07:19	10	105	8.5	80	111	417	1.8	414	420	17.4	70.2
2025-07-23T07:20	10	107	0.4	106	108	420	0.3	419	420	17.8	71.0
2025-07-23T07:21	10	106	0.2	106	107	420	0.8	419	422	17.9	68.9
2025-07-23T07:22	10	106	0.2	106	107	421	0.3	420	422	17.8	68.7
2025-07-23T07:23	10	106	0.2	106	107	421	0.7	420	422	17.7	68.5
2025-07-23T07:24	10	105	1.0	103	106	421	0.5	420	422	17.8	69.0
2025-07-23T07:25	10	107	0.2	106	107	422	0.4	421	423	17.8	68.6
2025-07-23T07:26	10	107	0.1	107	107	422	0.4	422	423	17.8	68.5
2025-07-23T07:27	10	105	1.8	102	107	423	0.5	422	424	17.8	68.6
2025-07-23T07:28	10	106	3.0	100	109	423	0.5	422	424	18.0	69.0
2025-07-23T07:29	10	101	7.1	90	110	422	0.4	421	423	17.8	68.2
2025-07-23T07:30	10	107	1.5	102	109	422	0.3	422	423	17.8	68.3
2025-07-23T07:31	10	100	4.7	92	108	422	0.7	421	423	17.8	68.2
2025-07-23T07:32	10	98	5.4	88	107	422	0.5	421	423	17.9	68.9
2025-07-23T07:33	10	110	0.8	106	111	423	0.7	421	425	18.0	67.9
2025-07-23T07:34	10	111	0.2	111	111	424	0.4	423	425	18.0	67.7
2025-07-23T07:35	10	111	0.1	111	111	424	0.3	423	425	17.9	67.4
2025-07-23T07:36	10	111	0.3	111	112	423	0.3	423	424	17.9	67.4
2025-07-23T07:37	10	112	0.2	112	113	424	0.7	423	426	17.9	67.4
2025-07-23T07:38	10	113	0.2	112	113	425	0.8	424	426	18.0	67.1
2025-07-23T07:39	10	113	0.1	113	114	424	0.5	423	425	18.0	66.5
2025-07-23T07:40	10	113	0.1	113	114	427	0.5	426	428	18.2	66.9
2025-07-23T07:41	10	114	0.1	114	114	426	0.4	425	427	18.3	67.0
2025-07-23T07:42	10	114	0.2	114	115	425	0.8	424	427	18.1	65.8
2025-07-23T07:43	10	115	0.2	115	115	425	0.9	424	427	18.0	66.1
2025-07-23T07:44	10	115	0.2	115	116	428	0.6	426	429	18.2	66.0
2025-07-23T07:45	10	116	0.2	115	116	429	0.8	427	430	18.2	65.9
2025-07-23T07:46	10	116	0.1	116	116	429	0.6	428	430	18.5	66.3
2025-07-23T07:47	10	116	0.1	116	116	429	0.7	428	430	18.4	64.9
2025-07-23T07:48	10	116	0.2	116	117	428	0.8	427	430	18.2	65.1
2025-07-23T07:49	10	117	0.2	116	117	429	0.6	428	430	18.3	65.2
2025-07-23T07:50	10	117	0.2	117	118	430	0.5	429	431	18.6	65.3
2025-07-23T07:51	10	118	0.1	117	118	429	0.7	428	430	18.6	64.8
2025-07-23T07:52	10	118	0.2	118	119	428	1.2	426	430	18.4	65.7
2025-07-23T07:53	10	119	0.2	118	119	427	0.4	426	428	18.3	66.4
2025-07-23T07:54	10	119	0.1	119	119	429	0.5	428	430	18.7	66.9
2025-07-23T07:55	10	119	0.2	119	120	430	0.7	429	431	18.6	65.8
2025-07-23T07:56	10	120	0.1	120	120	430	0.6	429	432	18.4	66.6
2025-07-23T07:57	10	120	0.8	118	121	431	0.5	430	431	18.6	65.6
2025-07-23T07:58	10	121	0.2	120	121	433	0.6	432	434	18.9	66.8
2025-07-23T07:59	10	121	0.1	121	122	432	0.3	431	433	18.8	65.8
2025-07-23T08:00	10	122	0.2	122	122	433	0.3	432	434	18.9	65.8
2025-07-23T08:01	10	123	0.2	122	123	434	0.7	433	436	19.0	66.0
2025-07-23T08:02	10	123	0.2	123	123	434	0.3	433	435	18.9	67.3
2025-07-23T08:03	10	123	0.1	123	124	434	0.4	433	434	18.8	67.2
2025-07-23T08:04	10	124	0.2	124	124	431	1.7	429	435	18.7	67.7
2025-07-23T08:05	10	125	0.1	124	125	430	0.3	429	431	18.4	68.2
2025-07-23T08:06	10	125	0.2	125	126	432	1.0	430	434	18.8	68.3
2025-07-23T08:07	10	126	0.3	125	126	433	0.5	432	434	18.8	66.2
2025-07-23T08:08	10	127	0.2	126	127	436	1.4	433	438	19.0	67.5
2025-07-23T08:09	10	127	0.2	127	128	436	1.5	432	438	19.0	67.1
2025-07-23T08:10	10	127	0.6	126	128	433	0.4	432	434	18.5	67.6
2025-07-23T08:11	10	125	0.4	124	126	434	0.7	432	435	18.5	67.8
2025-07-23T08:12	10	126	0.6	125	127	435	0.3	434	435	18.7	67.8
2025-07-23T08:13	10	127	0.5	126	128	436	0.6	435	437	19.0	66.7
2025-07-23T08:14	10	129	0.5	128	129	436	0.4	435	437	18.9	66.8
2025-07-23T08:15	10	129	0.5	127	129	436	0.2	435	436	18.8	66.9
2025-07-23T08:16	10	127	1.9	123	129	435	1.1	434	437	18.7	67.4
2025-07-23T08:17	10	124	1.8	122	128	434	0.7	433	435	18.7	67.3
2025-07-23T08:18	10	127	1.7	124	129	434	1.0	432	435	18.7	67.4
2025-07-23T08:19	10	130	1.2	127	132	435	1.0	433	437	18.8	66.9
2025-07-23T08:20	10	129	1.3	128	132	434	0.6	433	435	18.6	67.0
2025-07-23T08:21	10	130	1.4	128	133	435	0.6	434	436	18.8	66.6
2025-07-23T08:22	10	132	0.6	131	133	437	0.9	435	438	19.1	65.6
2025-07-23T08:23	10	129	1.5	127	132	437	0.6	436	438	19.0	65.5
2025-07-23T08:24	10	134	3.3	128	138	438	1.5	436	440	19.1	65.4
2025-07-23T08:25	10	133	3.8	125	137	439	0.6	438	440	19.1	64.9
2025-07-23T08:26	10	123	2.1	121	128	438	1.3	435	440	19.3	64.9
2025-07-23T08:27	10	133	2.5	129	136	436	0.5	435	437	19.0	65.5
2025-07-23T08:28	10	133	4.6	120	136	440	1.0	437	441	19.1	65.6
2025-07-23T08:29	10	122	1.9	119	125	437	1.5	435	440	19.2	64.5
2025-07-23T08:30	10	129	2.4	123	132	438	1.4	435	440	19.0	64.8
2025-07-23T08:31	10	128	4.7	121	133	438	0.6	436	439	19.1	64.1
2025-07-23T08:32	10	125	2.4	120	128	438	0.8	437	440	19.2	63.5
2025-07-23T08:33	10	131	1.8	125	133	439	0.9	438	441	19.1	62.1
2025-07-23T08:34	10	123	1.7	121	127	441	0.4	440	441	19.2	61.8
2025-07-23T08:35	10	130	1.7	127	133	442	0.8	441	443	19.3	62.3
2025-07-23T08:36	10	132	1.0	129	133	441	0.4	441	443	19.2	63.4
2025-07-23T08:37	10	132	1.4	129	133	443	0.5	442	444	19.3	63.8
2025-07-23T08:38	10	126	2.3	121	129	441	0.9	439	442	19.2	63.1
2025-07-23T08:39	10	124	1.6	121	126	441	0.7	440	442	19.3	63.5
2025-07-23T08:40	10	126	1.4	124	129	441	0.5	441	443	19.4	63.4
2025-07-23T08:41	10	129	2.3	124	132	443	0.7	442	444	19.7	62.6
2025-07-23T08:42	10	132	1.5	129	134	442	0.8	441	443	19.4	62.5
2025-07-23T08:43	10	128	2.1	124	132	444	0.7	441	445	19.6	62.6
2025-07-23T08:44	10	126	4.2	119	132	441	0.7	439	442	19.4	61.7
2025-07-23T08:45	10	122	2.7	117	126	441	0.5	440	442	19.4	61.7
2025-07-23T08:46	10	127	1.1	125	130	444	0.8	442	445	19.6	62.0
2025-07-23T08:47	10	139	2.1	131	143	446	0.9	444	448	19.9	61.6
2025-07-23T08:48	10	138	3.8	132	143	446	0.6	445	448	19.8	60.7
2025-07-23T08:49	10	139	2.2	134	142	444	1.0	443	446	19.6	60.7
2025-07-23T08:50	10	138	3.6	130	141	445	0.9	443	446	19.6	61.3
2025-07-23T08:51	10	128	3.6	121	133	444	0.5	443	444	19.7	61.1
2025-07-23T08:52	10	129	1.0	127	131	443	0.8	442	444	19.7	60.1
2025-07-23T08:53	10	132	4.5	125	137	445	1.2	443	447	19.9	60.6
2025-07-23T08:54	10	134	2.4	131	138	446	1.8	443	448	19.9	59.6
2025-07-23T08:55	10	137	4.2	132	143	445	1.5	444	448	19.8	59.6
2025-07-23T08:56	10	143	1.3	140	146	448	1.0	446	449	19.8	60.6
2025-07-23T08:57	10	144	1.9	141	148	446	0.8	445	447	19.8	61.2
2025-07-23T08:58	10	147	0.4	146	148	448	0.6	447	449	19.7	59.9
2025-07-23T08:59	10	147	1.2	143	148	450	0.9	448	452	19.7	60.7
2025-07-23T09:00	10	148	0.2	147	148	451	1.2	449	453	19.9	60.3
2025-07-23T09:01	10	149	0.5	147	149	449	0.5	449	450	19.8	60.1
2025-07-23T09:02	10	147	1.4	144	149	450	0.4	449	451	19.8	60.0
2025-07-23T09:03	10	146	1.1	143	147	451	0.5	450	452	19.7	59.9
2025-07-23T09:04	10	144	1.8	141	148	453	0.3	452	453	19.9	59.6
2025-07-23T09:05	10	147	1.3	145	150	452	0.6	450	453	20.3	59.3
2025-07-23T09:06	10	149	1.1	147	151	452	0.6	451	453	20.0	59.4
2025-07-23T09:07	10	152	1.0	150	154	453	0.7	452	455	19.9	59.2
2025-07-23T09:08	10	155	1.0	153	157	455	0.7	453	456	20.0	59.1
2025-07-23T09:09	10	157	0.7	157	159	455	0.9	453	457	19.9	58.8
2025-07-23T09:10	10	160	0.9	159	162	458	0.4	457	459	20.0	58.6
2025-07-23T09:11	10	164	2.3	162	169	459	0.9	458	461	20.4	59.1
2025-07-23T09:12	10	75	21.6	55	158	448	6.7	441	462	20.6	55.6
2025-07-23T09:13	10	73	6.1	66	89	442	1.4	440	444	20.5	55.4
2025-07-23T09:14	10	77	5.0	70	87	440	0.4	440	441	20.5	55.7
2025-07-23T09:15	10	76	12.7	65	114	439	0.9	438	441	20.5	55.4
2025-07-23T09:16	10	147	10.1	118	165	448	3.8	439	453	20.4	55.0
2025-07-23T09:17	10	160	3.0	154	165	455	1.9	452	458	20.5	54.7
2025-07-23T09:18	10	150	14.3	125	168	457	1.6	454	459	21.0	53.4
2025-07-23T09:19	10	163	2.7	154	165	457	0.7	455	458	20.5	53.0
2025-07-23T09:20	10	152	6.0	136	159	456	1.0	454	458	20.3	52.9
2025-07-23T09:21	10	153	7.6	139	164	456	0.8	455	457	20.3	53.2
2025-07-23T09:22	10	121	9.3	99	137	453	1.4	450	457	20.7	53.6
2025-07-23T09:23	10	112	14.8	89	135	448	1.4	445	451	20.6	52.3
2025-07-23T09:24	10	90	5.0	82	98	445	1.2	442	446	20.6	52.7
2025-07-23T09:25	10	119	14.3	94	137	446	1.9	443	448	20.6	53.8
2025-07-23T09:26	10	143	12.5	124	164	449	2.0	446	453	20.5	52.1
2025-07-23T09:27	10	141	18.3	112	168	454	0.9	453	456	20.5	52.3
2025-07-23T09:28	10	146	15.6	119	165	454	2.0	452	458	20.8	53.1
2025-07-23T09:29	10	169	3.3	165	175	460	1.2	457	462	20.8	51.2
2025-07-23T09:30	10	163	15.7	133	177	460	1.5	457	462	20.7	51.9
2025-07-23T09:31	10	164	13.6	139	177	460	2.1	457	463	20.6	51.3
2025-07-23T09:32	10	143	22.3	98	173	461	1.9	457	463	20.8	51.7
2025-07-23T09:33	10	126	32.8	79	173	457	3.3	450	462	20.9	52.2
2025-07-23T09:34	10	98	43.3	55	169	449	4.0	443	455	20.9	51.4
2025-07-23T09:35	10	113	34.4	52	163	453	2.3	447	456	21.0	51.2
2025-07-23T09:36	10	89	37.1	51	154	446	2.9	443	452	21.1	52.2
2025-07-23T09:37	10	84	23.3	56	147	445	2.2	442	450	20.9	51.8
2025-07-23T09:38	10	140	28.4	70	166	452	3.7	446	458	21.0	49.7
2025-07-23T09:39	10	145	18.8	102	168	457	1.9	454	460	21.2	50.3
2025-07-23T09:40	10	123	33.8	75	169	454	2.5	449	457	21.2	49.5
2025-07-23T09:41	10	172	2.1	165	175	460	1.3	456	461	21.2	47.4
2025-07-23T09:42	10	120	25.9	68	171	453	4.0	449	462	21.1	46.8
2025-07-23T09:43	10	164	9.8	142	174	455	1.9	450	457	20.9	48.0
2025-07-23T09:44	10	163	7.4	142	171	457	1.4	454	459	20.9	49.5
2025-07-23T09:45	10	162	1.5	159	164	462	1.1	459	463	20.9	48.7
2025-07-23T09:46	10	159	1.2	157	162	464	0.8	462	466	21.2	48.7
2025-07-23T09:47	10	165	1.2	162	168	462	0.8	460	463	21.2	46.2
2025-07-23T09:48	10	140	22.6	88	168	460	1.9	456	463	21.1	47.7
2025-07-23T09:49	10	165	4.4	141	168	462	2.7	457	466	21.1	47.1
2025-07-23T09:50	10	164	1.1	162	166	466	1.0	464	467	21.6	48.2
2025-07-23T09:51	10	157	3.2	153	162	464	0.7	463	466	21.3	45.3
2025-07-23T09:52	10	153	3.7	141	157	464	0.4	463	465	21.1	44.2
2025-07-23T09:53	10	163	5.8	146	170	466	1.3	464	468	21.4	45.9
2025-07-23T09:54	10	113	15.9	89	154	459	4.5	452	468	21.4	46.1
2025-07-23T09:55	10	84	14.7	59	108	452	2.8	446	455	21.3	46.3
2025-07-23T09:56	10	123	28.1	75	169	451	1.6	448	454	21.3	46.4
2025-07-23T09:57	10	169	3.1	162	174	458	3.6	450	462	21.3	46.4
2025-07-23T09:58	10	161	6.5	147	168	461	0.7	460	463	21.3	46.4
2025-07-23T09:59	10	149	18.0	109	166	461	1.5	458	463	21.3	46.4
2025-07-23T10:00	10	150	32.7	68	174	462	2.3	457	465	21.3	46.4
2025-07-23T10:01	10	160	10.9	124	167	464	1.4	462	467	21.3	46.4
2025-07-23T10:02	10	150	20.8	92	167	465	1.7	462	468	21.3	46.4
2025-07-23T10:03	10	166	1.6	162	169	467	0.8	465	468	21.4	49.0
2025-07-23T10:04	10	153	15.5	109	166	463	1.3	462	467	21.2	49.1
2025-07-23T10:05	10	165	1.4	163	168	465	1.1	463	467	21.0	49.3
2025-07-23T10:06	10	169	1.3	168	172	464	0.7	463	466	21.0	49.5
2025-07-23T10:07	10	165	10.2	144	173	466	0.8	465	468	20.9	49.4
2025-07-23T10:08	10	145	40.7	59	176	468	3.2	460	471	21.2	49.9
2025-07-23T10:09	10	105	31.4	62	162	460	2.2	455	464	21.6	50.5
2025-07-23T10:10	10	134	32.9	78	176	457	2.5	453	461	21.7	50.9
2025-07-23T10:11	10	151	25.6	90	174	458	2.4	454	461	21.2	49.9
2025-07-23T10:12	10	164	8.6	142	174	463	0.8	461	464	21.0	50.1
2025-07-23T10:13	10	153	14.8	120	166	461	1.3	458	464	21.3	50.9
2025-07-23T10:14	10	166	1.6	163	167	463	1.1	461	464	21.4	50.8
2025-07-23T10:15	10	164	2.1	160	166	466	0.8	464	468	21.3	50.4
2025-07-23T10:16	10	162	1.1	159	163	463	1.3	461	465	21.3	48.9
2025-07-23T10:17	10	162	0.5	161	163	464	0.9	462	465	21.3	50.3
2025-07-23T10:18	10	157	2.7	153	162	466	0.6	464	467	21.6	49.9
2025-07-23T10:19	10	155	3.6	143	158	467	0.4	466	468	21.5	48.3
2025-07-23T10:20	10	156	2.1	144	158	465	1.0	463	466	21.2	48.9
2025-07-23T10:21	10	152	3.1	143	157	465	0.6	464	466	21.5	48.3
2025-07-23T10:22	10	155	1.3	151	157	466	0.5	465	467	21.3	48.1
2025-07-23T10:23	10	157	0.8	155	158	468	0.6	467	469	21.4	48.2
2025-07-23T10:24	10	156	1.2	155	159	466	1.7	463	469	21.5	47.9
2025-07-23T10:25	10	155	1.8	153	159	463	1.8	461	466	21.3	47.8
2025-07-23T10:26	10	165	4.3	154	169	464	1.5	461	466	21.3	48.0
2025-07-23T10:27	10	169	2.3	163	173	467	1.1	466	470	21.4	48.0
2025-07-23T10:28	10	166	4.9	156	173	468	1.9	465	471	21.5	48.0
2025-07-23T10:29	10	168	4.5	160	174	466	1.0	465	468	21.5	47.9
2025-07-23T10:30	10	166	2.5	161	171	467	1.3	465	469	21.4	47.8
2025-07-23T10:31	10	164	3.3	156	169	465	0.9	463	467	21.2	48.0
2025-07-23T10:32	10	166	1.1	163	168	466	1.1	464	468	21.5	47.8
2025-07-23T10:33	10	168	0.9	166	170	467	0.7	466	468	21.4	47.7
2025-07-23T10:34	10	172	1.4	169	174	468	0.5	467	469	21.3	47.7
2025-07-23T10:35	10	170	2.9	162	174	469	0.4	469	470	21.3	47.6
2025-07-23T10:36	10	166	4.9	160	175	471	0.8	470	473	21.7	47.8
2025-07-23T10:37	10	175	1.3	172	177	474	1.2	472	477	21.9	47.3
2025-07-23T10:38	10	175	1.2	173	177	475	0.5	474	476	21.9	46.5
2025-07-23T10:39	10	174	1.8	169	176	474	0.8	473	476	22.0	46.8
2025-07-23T10:40	10	173	1.5	171	175	474	0.8	472	475	21.9	46.2
2025-07-23T10:41	10	175	0.8	173	176	474	0.6	473	475	22.0	46.0
2025-07-23T10:42	10	175	1.5	172	177	475	1.1	473	477	21.9	46.2
2025-07-23T10:43	10	175	0.6	173	176	472	1.5	470	475	21.6	45.5
2025-07-23T10:44	10	177	0.7	176	178	472	0.5	471	473	21.4	46.0
2025-07-23T10:45	10	176	1.4	175	179	473	0.6	472	474	21.5	45.6
2025-07-23T10:46	10	177	0.9	175	178	474	0.7	472	475	21.6	45.2
2025-07-23T10:47	10	177	1.1	175	178	475	0.2	475	475	21.9	44.6
2025-07-23T10:48	10	174	3.8	165	180	476	0.4	475	477	22.0	44.1
2025-07-23T10:49	10	172	4.5	164	180	477	0.5	476	478	22.0	44.4
2025-07-23T10:50	10	177	2.4	170	180	478	0.5	476	479	22.1	45.1
2025-07-23T10:51	10	173	1.4	171	176	478	0.3	476	478	22.1	45.0
2025-07-23T10:52	10	176	0.9	175	178	475	0.6	474	477	21.9	44.8
2025-07-23T10:53	10	142	14.9	124	177	472	3.8	465	477	21.9	45.1
2025-07-23T10:54	10	151	14.4	126	168	468	1.5	466	471	21.8	44.9
2025-07-23T10:55	10	106	50.4	53	167	464	7.2	452	472	21.6	44.6
2025-07-23T10:56	10	84	36.8	52	148	453	3.3	449	461	22.0	46.3
2025-07-23T10:57	10	157	2.1	149	160	463	1.4	459	465	21.9	44.7
2025-07-23T10:58	10	156	1.7	153	158	466	1.3	464	468	21.8	44.5
2025-07-23T10:59	10	152	2.5	148	157	469	0.6	468	471	21.9	45.3
2025-07-23T11:00	10	146	2.6	142	151	470	0.3	470	471	22.0	44.2
2025-07-23T11:01	10	146	3.3	141	150	471	0.5	469	472	22.1	45.2
2025-07-23T11:02	10	142	2.2	139	146	468	0.7	467	470	22.1	44.0
2025-07-23T11:03	10	140	2.1	134	142	468	0.5	467	469	22.1	45.0
2025-07-23T11:04	10	138	1.7	135	142	467	0.6	465	468	22.0	44.1
2025-07-23T11:05	10	135	2.0	131	138	466	0.5	465	467	22.2	44.2
2025-07-23T11:06	10	142	5.8	131	149	467	1.0	465	469	22.2	43.5
2025-07-23T11:07	10	143	3.8	135	147	465	0.5	464	466	22.1	43.5
2025-07-23T11:08	10	137	4.0	131	146	464	1.3	462	466	22.1	44.0
2025-07-23T11:09	10	130	3.8	122	139	463	1.1	462	465	21.9	44.4
2025-07-23T11:10	10	132	3.2	127	139	463	0.8	461	465	22.1	44.6
2025-07-23T11:11	10	137	5.4	127	145	460	1.0	458	462	21.8	44.1
2025-07-23T11:12	10	142	5.9	130	150	461	1.0	460	463	21.9	44.1
2025-07-23T11:13	10	155	3.2	147	161	467	2.1	462	470	22.0	44.7
2025-07-23T11:14	10	159	2.0	153	163	468	1.0	467	470	22.1	43.7
2025-07-23T11:15	10	167	2.0	163	171	471	0.6	469	472	22.0	44.2
2025-07-23T11:16	10	172	1.3	169	175	474	0.9	472	475	22.2	45.0
2025-07-23T11:17	10	168	1.8	166	172	473	0.7	472	475	22.5	44.4
2025-07-23T11:18	10	165	3.1	156	169	474	0.4	473	475	22.2	43.2
2025-07-23T11:19	10	153	9.9	144	170	474	1.5	471	476	22.4	44.9
2025-07-23T11:20	10	153	7.2	134	161	473	0.8	471	474	22.4	44.3
2025-07-23T11:21	10	160	3.0	153	163	474	0.4	473	475	22.5	42.8
2025-07-23T11:22	10	163	1.6	161	168	475	0.4	474	476	22.4	42.3
2025-07-23T11:23	10	107	33.7	80	169	466	8.1	454	477	22.5	42.0
2025-07-23T11:24	10	81	2.9	76	88	454	1.8	451	457	22.5	42.1
2025-07-23T11:25	10	73	1.1	73	76	450	0.6	449	452	22.3	42.4
2025-07-23T11:26	10	77	3.3	73	89	447	0.9	446	450	22.3	42.2
2025-07-23T11:27	10	101	16.8	83	131	450	2.1	446	453	22.1	42.7
2025-07-23T11:28	10	84	1.2	82	88	447	0.8	445	448	22.2	43.1
2025-07-23T11:29	10	92	1.4	89	96	446	1.0	445	449	22.1	42.9
2025-07-23T11:30	10	132	18.5	95	151	454	4.5	447	460	22.1	43.1
2025-07-23T11:31	10	119	4.8	113	127	459	0.6	458	460	22.2	43.7
2025-07-23T11:32	10	119	3.1	114	123	458	0.4	457	459	22.3	43.4
2025-07-23T11:33	10	122	1.6	120	125	460	1.1	458	462	22.5	43.6
2025-07-23T11:34	10	124	1.6	121	126	457	0.8	456	459	22.5	42.8
2025-07-23T11:35	10	125	0.9	124	127	457	0.4	456	458	22.7	43.4
2025-07-23T11:36	10	126	1.2	124	129	458	0.5	457	459	22.7	43.8
2025-07-23T11:37	10	131	1.2	129	132	459	0.8	458	461	22.9	44.0
2025-07-23T11:38	10	127	1.7	124	132	459	0.5	458	460	22.6	43.3
2025-07-23T11:39	10	124	0.5	123	126	458	0.3	458	459	22.3	43.8
2025-07-23T11:40	10	125	2.3	116	127	460	0.5	459	461	22.7	45.6
2025-07-23T11:41	10	93	5.0	89	114	455	3.5	450	461	22.6	43.8
2025-07-23T11:42	10	89	0.2	89	89	451	0.8	450	453	22.4	42.9
2025-07-23T11:43	10	91	1.8	89	96	452	0.4	451	453	22.4	43.7
2025-07-23T11:44	10	113	6.8	97	120	455	1.2	452	456	22.5	44.1
2025-07-23T11:45	10	109	6.1	99	117	452	0.9	451	454	22.4	43.1
2025-07-23T11:46	10	111	3.1	107	117	455	0.7	454	457	22.4	43.6
2025-07-23T11:47	10	106	0.8	104	107	456	0.5	456	457	22.4	44.4
2025-07-23T11:48	10	103	0.6	102	104	456	0.4	455	457	22.6	43.8
2025-07-23T11:49	10	102	0.4	102	103	453	1.5	450	456	22.6	43.3
2025-07-23T11:50	10	103	1.1	101	104	448	1.8	445	451	22.4	43.2
2025-07-23T11:51	10	102	0.9	101	104	448	0.9	446	449	22.0	43.5
2025-07-23T11:52	10	104	0.6	103	105	450	0.4	449	451	22.1	43.5
2025-07-23T11:53	10	107	1.8	104	110	450	0.6	448	451	22.2	43.8
2025-07-23T11:54	10	110	1.7	106	113	451	0.3	450	452	22.3	43.7
2025-07-23T11:55	10	108	4.5	99	113	452	1.2	450	454	22.2	43.0
2025-07-23T11:56	10	109	0.6	108	110	452	0.5	451	453	22.3	43.7
2025-07-23T11:57	10	111	1.8	108	113	453	0.8	452	455	22.2	43.0
2025-07-23T11:58	10	113	1.1	112	116	456	1.2	453	458	22.3	42.7
2025-07-23T11:59	10	117	1.4	114	119	456	1.2	455	459	22.4	42.8
2025-07-23T12:00	10	121	1.0	119	122	457	1.1	455	459	22.4	43.7
2025-07-23T12:01	10	121	1.8	119	125	460	0.9	458	461	22.6	45.3
2025-07-23T12:02	10	128	2.0	125	132	462	1.3	460	465	22.7	45.0
2025-07-23T12:03	10	133	0.9	132	135	465	0.4	464	465	22.8	43.6
2025-07-23T12:04	10	136	1.6	132	138	464	0.5	463	465	22.5	43.2
2025-07-23T12:05	10	138	1.0	136	139	463	1.2	461	465	22.4	43.8
2025-07-23T12:06	10	139	0.8	138	141	464	1.1	462	466	22.3	44.1
2025-07-23T12:07	10	144	1.9	141	147	467	0.4	466	468	22.6	43.8
2025-07-23T12:08	10	147	1.2	145	148	468	0.8	467	470	22.8	44.4
2025-07-23T12:09	10	147	1.0	144	148	470	0.5	469	471	23.3	45.1
2025-07-23T12:10	10	154	5.6	148	164	468	1.1	466	470	22.9	43.3
2025-07-23T12:11	10	162	1.7	160	165	471	1.5	468	473	23.1	44.1
2025-07-23T12:12	10	167	2.7	162	171	467	1.3	465	470	22.6	43.7
2025-07-23T12:13	10	173	2.8	168	177	469	0.8	468	470	22.5	44.3
2025-07-23T12:14	10	175	1.1	173	177	469	1.3	467	471	22.5	44.5
2025-07-23T12:15	10	176	1.3	174	178	472	1.1	470	474	22.6	44.3
2025-07-23T12:16	10	176	0.9	174	177	475	1.2	473	477	22.5	44.1
2025-07-23T12:17	10	177	1.4	174	179	477	1.1	475	480	22.5	44.4
2025-07-23T12:18	10	175	1.8	170	178	477	1.0	476	479	22.6	43.8
2025-07-23T12:19	10	171	1.3	168	173	476	1.0	474	477	22.7	44.7
2025-07-23T12:20	10	171	0.6	169	172	474	0.6	473	475	22.7	44.8
2025-07-23T12:21	10	169	1.1	167	171	475	1.0	473	477	22.6	45.5
2025-07-23T12:22	10	166	0.7	165	167	475	1.6	471	477	22.9	45.2
2025-07-23T12:23	10	166	1.8	161	167	472	0.6	471	474	22.9	45.8
2025-07-23T12:24	10	161	1.0	160	163	472	1.1	470	474	22.9	44.4
2025-07-23T12:25	10	162	0.7	160	163	472	1.0	470	473	22.7	44.8
2025-07-23T12:26	10	154	4.6	145	160	468	0.9	467	471	22.9	45.3
2025-07-23T12:27	10	147	2.2	143	151	468	1.1	467	470	23.0	45.0
2025-07-23T12:28	10	147	1.4	145	150	466	1.1	465	468	23.0	44.9
2025-07-23T12:29	10	139	1.9	137	145	468	1.2	466	470	23.5	45.4
2025-07-23T12:30	10	141	1.5	139	143	469	0.8	468	470	23.4	44.8
2025-07-23T12:31	10	141	1.0	139	143	467	2.1	464	470	23.2	44.4
2025-07-23T12:32	10	138	4.0	130	142	464	1.6	461	466	22.7	44.8
2025-07-23T12:33	10	130	1.9	127	132	462	1.5	459	464	22.8	45.5
2025-07-23T12:34	10	128	2.3	124	130	459	0.5	458	460	22.9	45.2
2025-07-23T12:35	10	126	2.0	123	129	459	0.6	458	461	22.7	45.0
2025-07-23T12:36	10	128	1.4	124	130	460	0.7	459	462	22.6	45.2
2025-07-23T12:37	10	127	2.5	124	130	462	0.9	461	464	22.4	45.2
2025-07-23T12:38	10	130	0.6	129	132	464	0.8	462	465	22.7	45.5
2025-07-23T12:39	10	132	0.3	131	133	463	0.7	461	464	22.8	45.1
2025-07-23T12:40	10	131	0.3	130	132	465	0.9	464	467	23.3	45.1
2025-07-23T12:41	10	128	1.8	125	130	464	1.2	461	467	22.8	44.6
2025-07-23T12:42	10	123	1.3	121	126	460	0.9	458	462	22.5	45.0
2025-07-23T12:43	10	123	1.0	122	125	460	0.9	458	462	22.7	45.1
2025-07-23T12:44	10	122	1.9	118	124	461	0.6	460	462	22.8	44.8
2025-07-23T12:45	10	113	1.9	111	120	460	1.6	456	462	23.0	44.9
2025-07-23T12:46	10	115	1.2	112	116	457	1.0	456	459	22.6	45.2
2025-07-23T12:47	10	115	0.9	113	117	459	0.4	458	459	22.9	44.9
2025-07-23T12:48	10	113	1.9	103	114	455	1.2	453	457	22.5	44.8
2025-07-23T12:49	10	106	5.7	95	112	455	0.7	454	457	22.4	45.2
2025-07-23T12:50	10	111	0.4	110	112	457	0.6	456	458	22.6	45.3
2025-07-23T12:51	10	111	0.3	111	112	456	0.5	455	457	22.5	44.9
2025-07-23T12:52	10	110	1.8	108	117	456	0.5	454	457	22.6	45.5
2025-07-23T12:53	10	103	5.8	91	109	455	0.6	454	457	22.8	45.3
2025-07-23T12:54	10	99	6.0	92	108	455	1.0	454	457	22.8	45.8
2025-07-23T12:55	10	109	0.7	108	109	459	1.0	457	460	22.9	45.2
2025-07-23T12:56	10	107	0.9	105	109	458	2.0	455	461	23.0	44.8
2025-07-23T12:57	10	108	0.9	106	109	457	0.5	456	458	22.8	45.3
2025-07-23T12:58	10	108	1.1	106	110	455	0.9	454	457	22.8	44.4
2025-07-23T12:59	10	104	1.9	100	107	453	1.1	452	456	22.7	44.4
2025-07-23T13:00	10	99	1.5	95	100	451	0.7	451	453	22.6	44.7
2025-07-23T13:01	10	92	1.1	90	95	450	0.6	449	451	22.8	44.6
2025-07-23T13:02	10	85	2.0	83	90	449	0.5	448	450	22.5	44.6
2025-07-23T13:03	10	83	0.7	83	85	448	0.7	447	450	22.7	44.8
2025-07-23T13:04	10	89	2.1	85	92	449	0.6	448	450	22.8	44.7
2025-07-23T13:05	10	86	3.6	82	92	450	0.3	450	451	22.8	44.7
2025-07-23T13:06	10	82	0.5	81	82	450	0.3	450	451	22.9	44.8
2025-07-23T13:07	10	80	0.2	80	81	449	0.6	448	451	22.9	44.2
2025-07-23T13:08	10	84	2.4	80	87	449	0.8	447	450	22.9	44.5
2025-07-23T13:09	10	84	1.8	81	86	448	0.8	447	450	23.0	43.2
2025-07-23T13:10	10	85	1.0	83	86	449	0.4	448	450	23.1	44.3
2025-07-23T13:11	10	80	1.5	77	83	448	1.2	446	449	22.9	43.0
2025-07-23T13:12	10	74	1.2	72	77	447	0.3	447	448	22.6	43.8
2025-07-23T13:13	10	71	0.7	70	72	447	0.3	447	448	22.8	44.2
2025-07-23T13:14	10	73	0.9	70	73	446	0.5	445	447	22.9	43.7
2025-07-23T13:15	10	71	1.0	69	73	447	0.5	446	448	22.9	44.5
2025-07-23T13:16	10	70	0.6	69	71	447	0.3	446	447	23.1	43.9
2025-07-23T13:17	10	69	0.9	68	71	447	0.8	445	448	23.0	43.9
2025-07-23T13:18	10	69	1.2	68	73	444	0.3	443	445	23.0	44.2
2025-07-23T13:19	10	76	1.2	73	78	443	0.5	442	444	22.7	43.4
2025-07-23T13:20	10	77	0.8	75	78	443	0.4	442	444	22.6	43.8
2025-07-23T13:21	10	74	0.3	74	75	442	0.4	442	443	22.7	43.6
2025-07-23T13:22	10	79	1.9	75	81	443	0.8	441	444	22.7	43.0
2025-07-23T13:23	10	82	0.5	81	82	443	0.3	443	444	22.6	42.3
2025-07-23T13:24	10	81	1.0	80	83	442	0.5	441	443	22.5	42.0
2025-07-23T13:25	10	83	0.7	82	85	443	1.2	441	445	22.6	42.5
2025-07-23T13:26	10	85	0.2	84	85	445	0.4	444	445	22.7	41.5
2025-07-23T13:27	10	83	2.8	77	85	445	0.4	444	446	22.6	41.3
2025-07-23T13:28	10	76	0.5	75	77	447	0.8	446	449	22.7	42.4
2025-07-23T13:29	10	75	0.8	73	76	446	1.0	444	448	22.9	41.1
2025-07-23T13:30	10	73	0.5	72	74	445	0.9	443	446	22.8	41.6
2025-07-23T13:31	10	72	0.1	72	72	443	0.8	442	444	22.9	41.1
2025-07-23T13:32	10	72	0.2	72	72	443	0.6	442	444	22.7	41.3
2025-07-23T13:33	10	76	2.7	72	80	443	0.5	441	443	22.8	41.3
2025-07-23T13:34	10	78	0.8	78	80	443	0.8	442	445	22.6	41.8
2025-07-23T13:35	10	79	1.7	77	81	445	0.7	444	447	22.7	41.9
2025-07-23T13:36	10	81	0.4	80	81	447	0.3	446	447	22.7	42.1
2025-07-23T13:37	10	82	0.4	81	83	445	0.4	444	446	22.7	41.5
2025-07-23T13:38	10	82	0.3	82	83	446	0.5	445	447	22.9	41.9
2025-07-23T13:39	10	83	0.2	82	83	447	0.8	445	448	22.8	41.8
2025-07-23T13:40	10	82	0.2	82	83	446	0.5	445	447	22.7	41.5
2025-07-23T13:41	10	82	0.4	81	83	447	0.4	446	448	22.9	42.1
2025-07-23T13:42	10	81	0.7	80	82	447	0.5	446	447	22.9	41.3
2025-07-23T13:43	10	80	0.4	80	81	448	0.7	446	449	22.8	41.4
2025-07-23T13:44	10	82	1.1	81	84	449	0.5	449	450	23.0	42.3
2025-07-23T13:45	10	86	2.4	81	89	450	0.6	448	451	23.0	41.3
2025-07-23T13:46	10	94	6.2	86	104	451	0.3	450	451	23.1	42.0
2025-07-23T13:47	10	109	2.9	104	116	453	1.3	451	456	23.0	41.4
2025-07-23T13:48	10	128	5.9	117	140	456	1.2	455	459	23.0	41.1
2025-07-23T13:49	10	149	5.9	139	156	463	2.3	459	467	23.0	41.5
2025-07-23T13:50	10	169	4.2	157	174	470	2.3	466	474	23.3	42.8
2025-07-23T13:51	10	177	3.9	170	185	473	0.4	472	474	23.4	40.5
2025-07-23T13:52	10	180	9.0	159	189	474	0.7	473	476	23.2	40.7
2025-07-23T13:53	10	182	4.8	171	190	475	0.7	474	477	23.3	40.6
2025-07-23T13:54	10	129	17.0	107	170	470	4.9	463	478	23.3	41.1
2025-07-23T13:55	10	127	18.0	110	164	464	1.5	462	468	23.2	41.4
2025-07-23T13:56	10	185	7.7	164	192	474	3.5	467	478	23.1	41.3
2025-07-23T13:57	10	191	0.4	189	191	479	1.1	477	481	23.1	40.8
2025-07-23T13:58	10	189	0.4	189	190	481	0.8	479	482	23.3	40.9
2025-07-23T13:59	10	193	2.0	190	198	478	1.2	477	481	23.2	40.8
2025-07-23T14:00	10	159	44.5	82	208	472	5.0	465	480	23.1	40.6
2025-07-23T14:01	10	145	22.8	104	201	472	3.2	466	476	23.0	41.0
2025-07-23T14:02	10	93	23.7	78	160	462	5.3	456	472	23.0	41.2
2025-07-23T14:03	10	91	10.0	82	121	458	1.4	457	461	23.2	41.4
2025-07-23T14:04	10	97	10.3	88	143	457	0.7	456	459	23.5	41.5
2025-07-23T14:05	10	140	36.4	89	192	464	2.7	458	469	23.4	41.1
2025-07-23T14:06	10	112	33.9	69	179	461	3.4	454	467	23.1	41.3
2025-07-23T14:07	10	62	3.7	57	70	450	3.3	445	457	23.0	41.6
2025-07-23T14:08	10	54	1.6	51	57	444	1.1	443	447	22.8	41.7
2025-07-23T14:09	10	52	0.3	51	52	443	0.5	443	444	22.9	42.0
2025-07-23T14:10	10	53	0.7	52	55	443	0.3	442	444	22.9	42.0
2025-07-23T14:11	10	56	0.8	55	58	444	0.9	442	446	23.0	42.2
2025-07-23T14:12	10	67	12.6	58	99	446	1.5	444	450	23.1	42.3
2025-07-23T14:13	10	95	34.5	53	139	453	3.7	445	458	23.3	43.6
2025-07-23T14:14	10	50	1.6	47	53	444	1.1	443	446	23.0	41.5
2025-07-23T14:15	10	47	0.4	46	47	443	0.7	441	444	23.1	42.2
2025-07-23T14:16	10	66	14.9	46	86	443	2.5	440	448	23.1	41.8
2025-07-23T14:17	10	75	16.2	49	92	448	1.2	446	450	23.1	42.1
2025-07-23T14:18	10	49	0.2	49	50	444	1.0	443	446	23.1	42.5
2025-07-23T14:19	10	53	4.1	49	62	442	0.5	442	444	23.1	42.8
2025-07-23T14:20	10	51	0.4	50	52	443	0.3	443	444	23.1	41.9
2025-07-23T14:21	10	50	0.3	50	51	443	0.3	443	444	23.1	43.1
2025-07-23T14:22	10	54	3.1	50	59	443	0.7	442	445	23.1	42.1
2025-07-23T14:23	10	54	1.2	52	57	444	0.3	443	445	23.1	42.8
2025-07-23T14:24	10	53	3.2	49	58	444	0.3	444	445	23.1	42.4
2025-07-23T14:25	10	47	1.2	45	48	443	0.4	442	444	23.1	42.0
2025-07-23T14:26	10	43	0.9	42	45	442	0.2	442	443	23.2	42.0
2025-07-23T14:27	10	41	0.8	39	42	442	0.4	441	443	23.2	42.1
2025-07-23T14:28	10	38	0.4	38	39	441	0.3	440	441	23.1	42.2
2025-07-23T14:29	10	38	0.2	37	38	440	0.3	440	441	23.2	42.5
2025-07-23T14:30	10	37	0.2	37	38	440	0.2	440	440	23.2	43.7
2025-07-23T14:31	10	37	0.3	37	38	439	0.5	438	440	23.2	44.2
2025-07-23T14:32	10	39	0.6	38	40	438	0.3	437	439	23.1	42.1
2025-07-23T14:33	10	41	1.0	40	43	438	0.3	438	439	23.1	42.3
2025-07-23T14:34	10	45	1.2	43	47	438	0.3	438	439	23.1	42.0
2025-07-23T14:35	10	49	0.7	47	50	439	0.7	438	441	23.1	42.2
2025-07-23T14:36	10	51	0.6	50	52	440	0.4	439	440	23.2	42.1
2025-07-23T14:37	10	53	0.6	52	54	441	0.5	440	442	23.2	42.4
2025-07-23T14:38	10	55	0.4	54	55	441	0.2	441	442	23.1	44.2
2025-07-23T14:39	10	56	0.4	55	57	441	0.4	440	442	23.1	42.4
2025-07-23T14:40	10	57	0.4	56	58	442	0.3	442	443	23.1	42.5
2025-07-23T14:41	10	59	0.6	57	60	442	0.2	441	442	23.2	42.1
2025-07-23T14:42	10	61	0.9	60	62	442	0.4	442	443	23.2	42.3
2025-07-23T14:43	10	62	0.2	61	62	442	0.3	442	443	23.2	42.3
2025-07-23T14:44	10	62	0.2	62	62	442	0.4	441	443	23.2	42.0
2025-07-23T14:45	10	62	0.1	62	62	443	0.4	442	444	23.2	42.7
2025-07-23T14:46	10	62	0.1	62	62	442	0.3	442	443	23.2	42.5
2025-07-23T14:47	10	62	0.1	62	62	443	0.4	442	443	23.1	42.7
2025-07-23T14:48	10	64	1.5	62	67	444	0.3	443	444	23.1	42.4
2025-07-23T14:49	10	69	1.8	66	72	445	0.6	443	446	23.2	42.3
2025-07-23T14:50	10	66	2.2	64	72	445	0.3	445	446	23.2	42.3
2025-07-23T14:51	10	77	2.3	72	80	447	0.9	445	448	23.4	43.0
2025-07-23T14:52	10	71	2.4	66	75	448	0.3	447	449	23.2	42.8
2025-07-23T14:53	10	66	0.5	65	67	446	0.8	445	448	23.3	44.3
2025-07-23T14:54	10	67	0.5	66	68	445	0.3	445	446	23.2	42.7
2025-07-23T14:55	10	69	1.4	67	71	446	0.4	445	447	23.2	43.4
2025-07-23T14:56	10	82	6.9	69	89	447	1.7	445	450	23.3	42.4
2025-07-23T14:57	10	87	3.1	81	94	451	0.6	450	452	23.4	42.3
2025-07-23T14:58	10	84	9.9	74	96	450	1.3	448	452	23.4	42.2
2025-07-23T14:59	10	76	1.6	74	81	449	0.4	448	449	23.4	41.8
2025-07-23T15:00	10	87	7.2	76	95	451	1.2	449	453	23.4	42.1
2025-07-23T15:01	10	88	6.6	81	103	452	0.5	451	454	23.4	41.6
2025-07-23T15:02	10	103	6.1	94	113	455	1.0	453	457	23.5	42.3
2025-07-23T15:03	10	109	8.5	83	113	457	1.0	453	458	23.5	43.1
2025-07-23T15:04	10	79	1.3	77	82	450	2.1	447	454	23.3	42.3
2025-07-23T15:05	10	91	16.1	77	121	450	2.2	448	454	23.4	42.2
2025-07-23T15:06	10	121	5.8	107	126	458	1.7	453	460	23.5	42.2
2025-07-23T15:07	10	114	7.2	103	124	458	0.8	457	460	23.6	43.1
2025-07-23T15:08	10	123	3.1	115	126	459	0.9	457	460	23.7	41.8
2025-07-23T15:09	10	126	3.3	122	132	461	0.4	460	462	23.8	41.2
2025-07-23T15:10	10	105	22.1	72	138	460	2.7	455	464	23.8	41.6
2025-07-23T15:11	10	71	0.9	70	74	453	1.8	451	457	23.8	42.1
2025-07-23T15:12	10	78	11.7	71	124	451	0.8	449	453	23.6	42.1
2025-07-23T15:13	10	142	15.7	100	152	460	3.9	451	465	23.6	42.1
2025-07-23T15:14	10	84	9.8	77	109	457	3.2	453	463	23.6	42.7
2025-07-23T15:15	10	83	8.0	74	100	454	0.8	452	455	23.5	42.3
2025-07-23T15:16	10	74	2.3	72	80	451	0.5	450	453	23.4	42.3
2025-07-23T15:17	10	95	21.0	73	139	453	1.7	451	456	23.5	42.9
2025-07-23T15:18	10	75	4.4	70	86	451	1.1	449	453	23.4	43.5
2025-07-23T15:19	10	134	12.3	88	143	458	3.8	450	462	23.4	42.7
2025-07-23T15:20	10	138	3.8	127	142	461	0.5	460	462	23.5	42.7
2025-07-23T15:21	10	132	2.6	127	138	461	0.5	461	462	23.5	42.8
2025-07-23T15:22	10	132	4.3	123	141	462	0.6	461	463	23.5	42.6
2025-07-23T15:23	10	127	8.2	112	139	461	0.9	459	463	23.5	42.8
2025-07-23T15:24	10	104	18.7	75	139	456	2.7	452	461	23.5	42.7
2025-07-23T15:25	10	141	1.4	137	143	458	1.5	455	460	23.4	42.8
2025-07-23T15:26	10	142	2.5	137	144	460	0.7	459	461	23.4	42.9
2025-07-23T15:27	10	134	8.7	116	143	462	0.7	460	463	23.5	42.8
2025-07-23T15:28	10	124	16.1	98	147	460	1.6	459	464	23.7	42.7
2025-07-23T15:29	10	141	3.3	133	146	466	1.1	464	467	24.1	43.0
2025-07-23T15:30	10	111	36.0	48	142	462	3.6	452	466	24.3	42.0
2025-07-23T15:31	10	47	1.6	45	51	448	3.5	444	455	23.6	41.9
2025-07-23T15:32	10	71	25.2	47	114	446	2.0	443	450	23.5	42.6
2025-07-23T15:33	10	46	1.6	43	49	443	1.6	441	447	23.5	42.9
2025-07-23T15:34	10	42	0.5	41	43	440	0.4	439	441	23.4	43.0
2025-07-23T15:35	10	42	0.5	41	43	437	1.1	436	439	23.4	43.2
2025-07-23T15:36	10	41	0.7	41	43	436	0.2	435	437	23.2	43.4
2025-07-23T15:37	10	41	0.3	40	42	436	0.3	436	437	23.3	43.3
2025-07-23T15:38	10	55	24.1	42	120	437	1.8	435	443	23.3	43.4
2025-07-23T15:39	10	120	1.8	115	122	448	3.7	440	453	23.3	43.3
2025-07-23T15:40	10	116	5.3	100	120	453	1.3	450	455	23.4	43.2
2025-07-23T15:41	10	118	1.3	116	121	456	0.6	455	458	23.4	43.1
2025-07-23T15:42	10	121	2.4	117	124	458	1.4	456	460	23.5	43.1
2025-07-23T15:43	10	77	21.9	52	122	455	3.5	451	461	23.7	42.9
2025-07-23T15:44	10	61	15.1	44	90	449	1.8	447	453	23.8	42.8
2025-07-23T15:45	10	76	17.0	54	108	450	1.8	447	453	23.8	42.8
2025-07-23T15:46	10	69	11.3	48	84	447	0.6	445	448	23.7	42.7
2025-07-23T15:47	10	58	8.1	48	77	444	0.9	442	445	23.7	43.2
2025-07-23T15:48	10	66	7.6	52	87	443	0.5	441	444	23.8	42.6
2025-07-23T15:49	10	78	11.4	62	98	445	0.8	442	447	23.6	42.7
2025-07-23T15:50	10	78	19.4	47	99	449	1.5	447	451	23.7	43.2
2025-07-23T15:51	10	87	15.5	52	106	450	2.5	446	454	23.8	43.1
2025-07-23T15:52	10	74	18.4	51	103	449	1.2	447	452	23.8	42.5
2025-07-23T15:53	10	75	21.7	45	109	450	1.9	448	453	23.8	42.6
2025-07-23T15:54	10	40	1.1	39	44	445	2.4	441	449	23.8	42.5
2025-07-23T15:55	10	40	0.7	39	42	441	1.0	440	443	23.6	42.5
2025-07-23T15:56	10	49	6.4	42	71	441	0.7	440	443	23.7	42.9
2025-07-23T15:57	10	67	23.5	48	112	445	1.6	442	448	23.8	42.9
2025-07-23T15:58	10	48	2.6	46	56	443	0.8	442	445	23.8	43.3
2025-07-23T15:59	10	50	5.3	43	58	441	0.4	441	442	23.7	42.4
2025-07-23T16:00	10	40	1.2	39	43	441	0.5	440	442	23.7	42.8
2025-07-23T16:01	10	38	0.4	38	39	440	0.3	439	440	23.7	43.5
2025-07-23T16:02	10	37	0.2	37	38	438	0.5	437	439	23.6	43.2
2025-07-23T16:03	10	37	0.2	37	38	438	0.3	437	438	23.6	43.0
2025-07-23T16:04	10	38	0.7	37	40	437	0.8	435	438	23.6	43.9
2025-07-23T16:05	10	38	0.6	38	40	435	0.7	434	436	23.5	43.9
2025-07-23T16:06	10	38	0.2	38	39	433	0.7	432	435	23.4	43.7
2025-07-23T16:07	10	39	0.6	39	41	433	0.3	432	434	23.4	44.0
2025-07-23T16:08	10	46	2.4	41	48	434	0.8	433	435	23.4	44.2
2025-07-23T16:09	10	46	1.0	44	47	435	0.5	434	436	23.4	44.3
2025-07-23T16:10	10	42	2.5	38	45	436	0.4	435	437	23.5	44.5
2025-07-23T16:11	10	37	0.7	36	38	434	0.7	433	436	23.5	44.0
2025-07-23T16:12	10	35	0.3	35	36	433	0.3	432	433	23.5	43.1
2025-07-23T16:13	10	35	0.1	34	35	432	0.2	432	433	23.4	43.4
2025-07-23T16:14	10	34	0.3	34	35	432	0.3	432	433	23.5	44.2
2025-07-23T16:15	10	33	0.3	33	34	431	0.3	431	432	23.5	44.2
2025-07-23T16:16	10	32	0.3	32	33	430	0.3	430	431	23.5	44.1
2025-07-23T16:17	10	31	0.2	31	32	430	0.3	429	431	23.5	43.6
2025-07-23T16:18	10	31	0.2	30	31	430	0.2	430	431	23.4	44.0
2025-07-23T16:19	10	30	0.1	30	31	429	0.4	428	430	23.4	44.5
2025-07-23T16:20	10	30	0.2	30	31	429	0.2	428	429	23.4	44.5
2025-07-23T16:21	10	31	0.2	31	31	428	0.3	427	429	23.3	43.8
2025-07-23T16:22	10	31	0.2	31	32	427	0.3	427	428	23.3	44.1
2025-07-23T16:23	10	32	0.2	31	32	427	0.2	427	428	23.2	43.8
2025-07-23T16:24	10	32	0.2	32	33	427	0.2	426	427	23.2	43.3
2025-07-23T16:25	10	33	0.2	32	33	427	0.3	427	428	23.2	43.8
2025-07-23T16:26	10	33	0.1	33	33	427	0.2	427	428	23.2	44.0
2025-07-23T16:27	10	33	0.1	33	33	427	0.3	427	428	23.1	44.3
2025-07-23T16:28	10	34	0.2	33	34	427	0.2	427	428	23.1	44.1
2025-07-23T16:29	10	34	0.2	34	34	427	0.2	427	428	23.1	44.5
2025-07-23T16:30	10	35	0.1	34	35	427	0.4	426	428	23.0	44.9
2025-07-23T16:31	10	35	0.2	35	35	428	0.4	427	429	23.0	45.4
2025-07-23T16:32	10	36	0.2	35	36	428	0.4	427	429	23.1	45.8
2025-07-23T16:33	10	36	0.1	35	36	429	0.2	428	429	23.0	45.0
2025-07-23T16:34	10	36	0.1	36	36	428	0.3	428	429	23.0	45.3
2025-07-23T16:35	10	36	0.1	36	36	429	0.4	428	430	23.0	45.6
2025-07-23T16:36	10	36	0.1	36	36	429	0.4	429	430	23.0	46.2
2025-07-23T16:37	10	35	0.1	35	36	429	0.2	429	430	23.0	46.0
2025-07-23T16:38	10	35	0.3	34	35	429	0.3	428	430	23.0	45.2
2025-07-23T16:39	10	34	0.4	33	34	429	0.3	428	429	23.0	46.0
2025-07-23T16:40	10	32	0.4	32	33	429	0.3	428	430	23.0	46.0
2025-07-23T16:41	10	31	0.3	31	32	428	0.4	427	429	23.0	45.7
2025-07-23T16:42	10	30	0.3	30	31	427	0.3	426	428	23.0	45.8
2025-07-23T16:43	10	30	0.2	29	30	426	0.2	426	427	23.0	46.1
2025-07-23T16:44	10	29	0.2	29	29	427	0.3	426	427	23.0	46.8
2025-07-23T16:45	10	29	0.2	28	29	426	0.2	426	427	23.0	46.2
2025-07-23T16:46	10	28	0.2	28	29	426	0.3	426	427	23.0	46.6
2025-07-23T16:47	10	28	0.2	28	28	426	0.3	425	427	23.0	46.9
2025-07-23T16:48	10	28	0.2	28	28	426	0.2	426	427	22.9	47.1
2025-07-23T16:49	10	28	0.2	28	29	426	0.3	425	427	22.9	47.0
2025-07-23T16:50	10	28	0.1	28	29	425	0.2	425	426	22.8	46.6
2025-07-23T16:51	10	28	0.1	28	29	425	0.4	425	426	22.8	46.9
2025-07-23T16:52	10	29	0.1	28	29	426	0.2	426	426	22.8	47.3
2025-07-23T16:53	10	29	0.1	28	29	426	0.3	425	427	22.8	47.0
2025-07-23T16:54	10	29	0.2	29	29	427	0.3	425	428	22.8	47.2
2025-07-23T16:55	10	29	0.1	29	30	427	0.2	427	427	22.8	47.6
2025-07-23T16:56	10	29	0.1	29	29	427	0.2	426	427	22.8	47.2
2025-07-23T16:57	10	29	0.1	29	29	426	0.2	426	427	22.7	47.2
2025-07-23T16:58	10	28	0.2	28	29	426	0.2	425	426	22.7	47.1
2025-07-23T16:59	10	28	0.2	28	28	426	0.2	425	426	22.7	47.6
2025-07-23T17:00	10	27	0.2	27	28	426	0.2	425	426	22.7	47.5
2025-07-23T17:01	10	27	0.2	27	27	425	0.2	425	426	22.7	47.7
2025-07-23T17:02	10	26	0.2	26	27	425	0.2	425	426	22.7	47.2
2025-07-23T17:03	10	26	0.1	26	26	425	0.2	425	426	22.7	47.6
2025-07-23T17:04	10	26	0.1	25	26	425	0.3	425	426	22.8	47.8
2025-07-23T17:05	10	25	0.1	25	25	425	0.4	424	426	22.7	48.0
2025-07-23T17:06	10	25	0.2	24	25	425	0.2	424	425	22.6	48.5
2025-07-23T17:07	10	24	0.2	24	25	424	0.2	424	425	22.5	48.4
2025-07-23T17:08	10	24	0.1	24	25	424	0.2	424	425	22.5	48.5
2025-07-23T17:09	10	24	0.1	23	24	424	0.2	423	424	22.6	48.4
2025-07-23T17:10	10	23	0.2	23	24	424	0.2	423	424	22.6	48.4
2025-07-23T17:11	10	23	0.1	23	23	424	0.3	424	425	22.6	49.0
2025-07-23T17:12	10	23	0.2	22	23	424	0.2	424	425	22.6	48.6
2025-07-23T17:13	10	22	0.1	22	23	424	0.2	424	425	22.6	49.4
2025-07-23T17:14	10	22	0.1	22	22	424	0.2	424	425	22.6	49.0
2025-07-23T17:15	10	22	0.1	21	22	424	0.3	423	424	22.5	48.5
2025-07-23T17:16	10	21	0.2	21	22	424	0.2	423	424	22.5	48.8
2025-07-23T17:17	10	21	0.1	21	21	424	0.2	423	424	22.5	49.0
2025-07-23T17:18	10	21	0.2	20	21	424	0.2	423	425	22.5	49.1
2025-07-23T17:19	10	20	0.1	20	20	424	0.3	424	425	22.5	49.3
2025-07-23T17:20	10	20	0.1	20	20	424	0.3	424	425	22.5	48.7
2025-07-23T17:21	10	19	0.1	19	20	423	0.4	423	424	22.5	47.9
2025-07-23T17:22	10	19	0.1	19	19	423	0.3	423	424	22.5	48.1
2025-07-23T17:23	10	19	0.1	18	19	423	0.2	423	424	22.5	48.6
2025-07-23T17:24	10	18	0.1	18	18	424	0.2	423	424	22.5	48.1
2025-07-23T17:25	10	18	0.1	18	18	423	0.2	423	424	22.5	48.6
2025-07-23T17:26	10	18	0.1	17	18	423	0.3	422	424	22.5	47.3
2025-07-23T17:27	10	17	0.1	17	18	424	0.2	423	424	22.5	47.5
2025-07-23T17:28	10	17	0.2	17	17	424	0.3	423	424	22.5	48.1
2025-07-23T17:29	10	17	0.1	16	17	424	0.2	424	425	22.5	48.6
2025-07-23T17:30	10	16	0.1	16	17	424	0.3	423	425	22.5	47.9
2025-07-23T17:31	10	16	0.1	16	16	423	0.2	423	424	22.5	48.6
2025-07-23T17:32	10	16	0.1	15	16	423	0.4	422	424	22.5	48.0
2025-07-23T17:33	10	15	0.1	15	16	422	0.5	421	423	22.5	48.4
2025-07-23T17:34	10	15	0.1	15	15	422	0.2	421	422	22.4	50.3
2025-07-23T17:35	10	15	0.1	15	15	421	0.2	421	422	22.4	50.4
2025-07-23T17:36	10	15	0.1	14	15	421	0.3	420	422	22.4	50.4
2025-07-23T17:37	10	14	0.1	14	15	421	0.2	421	421	22.3	51.1
2025-07-23T17:38	10	14	0.1	14	15	422	0.2	421	422	22.4	50.7
2025-07-23T17:39	10	14	0.1	14	14	422	0.2	421	422	22.4	50.0
2025-07-23T17:40	10	14	0.1	14	15	422	0.2	421	422	22.4	49.4
2025-07-23T17:41	10	14	0.1	14	15	421	0.2	421	422	22.4	49.0
2025-07-23T17:42	10	14	0.1	14	15	421	0.4	420	421	22.4	49.0
2025-07-23T17:43	10	15	0.1	14	15	420	0.2	420	420	22.4	48.9
2025-07-23T17:44	10	15	0.1	14	15	420	0.2	419	420	22.4	48.8
2025-07-23T17:45	10	14	0.1	14	15	419	0.2	419	420	22.4	49.0
2025-07-23T17:46	10	14	0.1	14	14	419	0.2	419	420	22.4	49.9
2025-07-23T17:47	10	14	0.1	14	14	419	0.2	419	420	22.3	50.3
2025-07-23T17:48	10	14	0.1	13	14	419	0.2	419	420	22.3	50.5
2025-07-23T17:49	10	13	0.1	13	14	419	0.2	418	419	22.3	50.3
2025-07-23T17:50	10	13	0.1	13	13	419	0.2	418	420	22.3	51.3
2025-07-23T17:51	10	12	0.2	12	13	419	0.2	418	419	22.3	51.0
2025-07-23T17:52	10	12	0.2	11	12	418	0.2	418	419	22.2	51.3
2025-07-23T17:53	10	11	0.2	11	12	418	0.3	418	419	22.2	52.0
2025-07-23T17:54	10	11	0.2	10	11	418	0.2	418	418	22.1	52.1
2025-07-23T17:55	10	10	0.3	10	11	418	0.3	417	418	22.1	52.8
2025-07-23T17:56	10	10	0.2	9	10	418	0.3	417	418	22.1	51.5
2025-07-23T17:57	10	9	0.3	8	10	418	0.3	417	419	22.1	52.0
2025-07-23T17:58	10	8	0.2	8	9	418	0.3	417	419	22.1	51.6
2025-07-23T17:59	10	8	0.2	7	8	418	0.3	417	418	22.1	51.4
2025-07-23T18:00	10	7	0.2	7	8	418	0.2	417	418	22.1	52.0
2025-07-23T18:01	10	7	0.2	6	7	418	0.3	417	418	22.1	51.8
2025-07-23T18:02	10	7	0.2	7	7	418	0.2	417	418	22.0	52.1
2025-07-23T18:03	10	7	0.1	6	7	417	0.2	417	418	22.0	52.2
2025-07-23T18:04	10	7	0.1	7	7	417	0.2	417	417	22.0	52.4
2025-07-23T18:05	10	7	0.2	7	8	417	0.3	416	417	22.0	51.8
2025-07-23T18:06	10	8	0.2	7	8	417	0.2	416	417	22.0	52.3
2025-07-23T18:07	10	8	0.1	8	8	417	0.2	416	417	21.9	52.5
2025-07-23T18:08	10	8	0.1	8	8	417	0.2	416	417	21.9	52.5
2025-07-23T18:09	10	8	0.1	8	8	416	0.2	416	417	21.9	52.7
2025-07-23T18:10	10	8	0.1	8	8	416	0.3	415	416	21.9	52.7
2025-07-23T18:11	10	8	0.1	8	8	416	0.2	415	416	21.8	52.7
2025-07-23T18:12	10	8	0.1	7	8	415	0.3	415	416	21.8	52.9
2025-07-23T18:13	10	7	0.1	7	8	415	0.2	414	415	21.8	53.0
2025-07-23T18:14	10	7	0.1	7	8	415	0.3	414	415	21.7	52.9
2025-07-23T18:15	10	7	0.1	7	7	414	0.2	414	415	21.7	52.7
2025-07-23T18:16	10	7	0.1	7	8	414	0.2	413	414	21.7	52.6
2025-07-23T18:17	10	7	0.1	7	7	414	0.3	413	414	21.7	52.5
2025-07-23T18:18	10	7	0.1	7	7	413	0.2	413	414	21.6	52.8
2025-07-23T18:19	10	7	0.1	7	7	413	0.3	412	414	21.6	51.8
2025-07-23T18:20	10	7	0.1	6	7	412	0.2	412	413	21.6	51.9
2025-07-23T18:21	10	6	0.1	6	7	412	0.2	411	412	21.5	52.1
2025-07-23T18:22	10	6	0.1	6	7	412	0.3	411	412	21.5	51.8
2025-07-23T18:23	10	6	0.1	6	6	412	0.2	411	412	21.5	51.9
2025-07-23T18:24	10	6	0.1	6	6	412	0.3	411	412	21.5	51.0
2025-07-23T18:25	10	6	0.1	5	6	412	0.2	411	412	21.6	49.3
2025-07-23T18:26	10	5	0.1	5	6	411	0.3	411	412	21.6	50.2
2025-07-23T18:27	10	5	0.1	5	5	411	0.2	411	412	21.5	50.1
2025-07-23T18:28	10	5	0.1	5	5	411	0.2	410	411	21.5	49.3
2025-07-23T18:29	10	5	0.1	5	5	411	0.2	410	411	21.5	50.0
2025-07-23T18:30	10	4	0.1	4	5	411	0.3	410	411	21.4	50.1
2025-07-23T18:31	10	4	0.1	4	5	411	0.3	410	411	21.4	50.2
2025-07-23T18:32	10	4	0.1	4	4	410	0.2	410	411	21.3	50.5
2025-07-23T18:33	10	4	0.1	4	4	410	0.3	410	411	21.3	50.6
2025-07-23T18:34	10	4	0.1	4	4	410	0.3	409	411	21.3	50.5
2025-07-23T18:35	10	4	0.1	4	4	410	0.2	409	411	21.3	50.3
2025-07-23T18:36	10	4	0.1	4	4	410	0.2	409	410	21.2	51.1
2025-07-23T18:37	10	4	0.1	3	4	410	0.2	409	410	21.2	50.5
2025-07-23T18:38	10	4	0.1	3	4	409	0.2	409	410	21.1	51.2
2025-07-23T18:39	10	4	0.1	4	4	409	0.2	409	410	21.1	51.1
2025-07-23T18:40	10	3	0.2	3	4	409	0.2	409	410	21.1	51.2
2025-07-23T18:41	10	3	0.2	3	4	409	0.3	409	410	21.1	51.2
2025-07-23T18:42	10	4	0.2	3	4	409	0.2	409	410	21.0	51.3
2025-07-23T18:43	10	3	0.1	3	4	409	0.2	409	410	21.1	50.9
2025-07-23T18:44	10	3	0.1	3	3	409	0.2	409	410	21.1	50.8
2025-07-23T18:45	10	3	0.1	3	3	409	0.2	409	410	21.1	51.0
2025-07-23T18:46	10	3	0.2	2	3	409	0.2	409	410	21.0	51.5
2025-07-23T18:47	10	2	0.1	2	3	409	0.2	408	409	21.0	51.6
2025-07-23T18:48	10	2	0.1	2	3	409	0.2	408	409	21.0	51.4
2025-07-23T18:49	10	2	0.1	2	3	408	0.3	408	409	20.9	51.7
2025-07-23T18:50	10	2	0.1	2	2	409	0.3	408	409	20.9	51.8
2025-07-23T18:51	10	2	0.1	2	2	408	0.2	408	409	21.0	51.5
2025-07-23T18:52	10	2	0.1	2	2	408	0.2	408	409	20.9	52.3
2025-07-23T18:53	10	2	0.1	1	2	409	0.2	408	409	21.0	51.1
2025-07-23T18:54	10	1	0.1	1	2	409	0.3	408	409	21.0	51.3
2025-07-23T18:55	10	1	0.1	1	2	408	0.2	408	409	20.9	51.9
2025-07-23T18:56	10	1	0.1	1	1	408	0.2	408	409	20.9	51.9
2025-07-23T18:57	10	1	0.1	1	1	408	0.2	408	409	20.9	51.5
2025-07-23T18:58	10	1	0.1	1	1	408	0.2	408	409	20.9	51.5
2025-07-23T18:59	10	1	0.1	1	1	408	0.3	407	409	20.8	51.8
2025-07-23T19:00	10	1	0.1	1	1	408	0.2	407	408	20.8	51.8
2025-07-23T19:01	10	1	0.1	1	1	408	0.2	408	408	20.8	51.5
2025-07-23T19:02	10	1	0.1	0	1	408	0.2	407	408	20.8	51.7
2025-07-23T19:03	10	1	0.1	0	1	408	0.2	407	408	20.8	51.3
2025-07-23T19:04	10	0	0.1	0	1	408	0.3	407	408	20.8	51.5
2025-07-23T19:05	10	0	0.1	0	1	408	0.2	407	408	20.8	51.5
2025-07-23T19:06	10	0	0.1	0	1	408	0.2	407	408	20.9	50.8
2025-07-23T19:07	10	0	0.1	0	0	408	0.3	407	408	20.8	51.5
2025-07-23T19:08	10	0	0.1	0	1	407	0.3	407	408	20.7	52.3
2025-07-23T19:09	10	0	0.1	0	1	407	0.2	407	408	20.7	51.9
2025-07-23T19:10	10	0	0.1	0	1	408	0.4	407	409	20.9	50.0
2025-07-23T19:11	10	0	0.1	0	1	408	0.3	408	409	21.0	50.0
2025-07-23T19:12	10	0	0.1	0	0	408	0.3	407	408	20.9	50.7
2025-07-23T19:13	10	0	0.1	0	0	407	0.2	407	408	20.8	51.0
2025-07-23T19:14	10	0	0.1	0	0	408	0.2	407	408	20.8	50.8
2025-07-23T19:15	10	0	0.1	0	0	407	0.2	407	408	20.7	51.5
2025-07-23T19:16	10	0	0.1	0	0	407	0.3	406	407	20.8	51.4
2025-07-23T19:17	10	0	0.1	0	0	407	0.3	406	407	20.8	51.3
2025-07-23T19:18	10	0	0.1	0	0	407	0.2	406	407	20.7	52.2
2025-07-23T19:19	10	0	0.1	0	0	406	0.3	405	407	20.6	52.5
2025-07-23T19:20	10	0	0.1	0	1	407	0.3	406	407	20.6	51.7
2025-07-23T19:21	10	0	0.1	0	0	407	0.2	407	407	20.8	50.7
2025-07-23T19:22	10	0	0.1	0	0	407	0.2	407	408	20.8	51.0
2025-07-23T19:23	10	0	0.1	0	0	407	0.2	406	407	20.7	51.2
2025-07-23T19:24	10	0	0.1	0	0	407	0.2	406	407	20.7	50.9
2025-07-23T19:25	10	0	0.1	0	0	407	0.2	406	407	20.7	50.9
2025-07-23T19:26	10	0	0.2	0	1	407	0.2	406	407	20.8	50.4
2025-07-23T19:27	10	0	0.2	0	1	407	0.2	406	407	20.6	51.6
2025-07-23T19:28	10	0	0.2	0	1	407	0.2	406	407	20.7	51.0
2025-07-23T19:29	10	0	0.2	0	1	407	0.3	406	407	20.8	50.6
2025-07-23T19:30	10	0	0.2	0	1	407	0.3	406	408	20.8	50.3
2025-07-23T19:31	10	0	0.2	0	1	406	0.3	406	407	20.7	50.7
2025-07-23T19:32	10	0	0.1	0	0	406	0.3	405	406	20.6	51.7
2025-07-23T19:33	10	0	0.1	0	1	406	0.2	405	406	20.5	51.9
2025-07-23T19:34	10	0	0.1	0	0	405	0.3	405	406	20.5	51.5
2025-07-23T19:35	10	0	0.1	0	0	406	0.2	405	406	20.6	51.0
2025-07-23T19:36	10	0	0.2	0	1	405	0.2	405	406	20.5	51.6
2025-07-23T19:37	10	0	0.1	0	1	405	0.2	405	406	20.5	51.6
2025-07-23T19:38	10	0	0.1	0	0	405	0.4	404	406	20.5	51.4
2025-07-23T19:39	10	0	0.1	0	1	405	0.3	405	406	20.6	51.1
2025-07-23T19:40	10	0	0.2	0	1	406	0.3	405	406	20.7	50.6
2025-07-23T19:41	10	0	0.1	0	0	406	0.3	406	407	20.7	50.5
2025-07-23T19:42	10	0	0.1	0	0	405	0.3	404	406	20.5	51.7
2025-07-23T19:43	10	0	0.1	0	0	405	0.2	405	405	20.5	51.9
2025-07-23T19:44	10	0	0.1	0	0	405	0.3	404	405	20.5	51.9
2025-07-23T19:45	10	0	0.1	0	0	405	0.3	404	405	20.4	52.2
2025-07-23T19:46	10	0	0.1	0	0	405	0.2	404	405	20.4	52.0
2025-07-23T19:47	10	0	0.1	0	0	405	0.3	404	405	20.5	51.9
2025-07-23T19:48	10	0	0.1	0	0	405	0.2	404	405	20.5	52.0
2025-07-23T19:49	10	0	0.1	0	0	405	0.2	404	405	20.4	52.0
2025-07-23T19:50	10	0	0.0	0	0	405	0.2	405	406	20.6	51.1
2025-07-23T19:51	10	0	0.1	0	0	406	0.2	405	406	20.6	51.0
2025-07-23T19:52	10	0	0.1	0	0	405	0.3	405	406	20.6	51.2
2025-07-23T19:53	10	0	0.1	0	0	405	0.4	405	406	20.6	51.0
2025-07-23T19:54	10	0	0.0	0	0	405	0.1	405	406	20.6	51.3
2025-07-23T19:55	10	0	0.1	0	0	405	0.3	405	406	20.5	51.7
2025-07-23T19:56	10	0	0.1	0	0	405	0.2	404	405	20.5	51.7
2025-07-23T19:57	10	0	0.1	0	0	405	0.2	405	406	20.5	51.8
2025-07-23T19:58	10	0	0.1	0	0	405	0.2	405	406	20.5	51.8
2025-07-23T19:59	10	0	0.0	0	0	405	0.2	405	405	20.5	52.1
2025-07-23T20:00	10	0	0.1	0	0	405	0.2	405	405	20.4	52.3
2025-07-23T20:01	10	0	0.1	0	0	405	0.3	404	406	20.5	51.8
2025-07-23T20:02	10	0	0.1	0	0	406	0.3	405	406	20.5	51.9
2025-07-23T20:03	10	0	0.1	0	0	405	0.3	405	406	20.4	52.2
2025-07-23T20:04	10	0	0.1	0	0	406	0.3	406	407	20.5	51.8
2025-07-23T20:05	10	0	0.1	0	0	406	0.3	406	407	20.5	52.0
2025-07-23T20:06	10	0	0.0	0	0	406	0.2	406	407	20.5	52.0
2025-07-23T20:07	10	0	0.0	0	0	406	0.3	406	407	20.4	52.1
2025-07-23T20:08	10	0	0.0	0	0	406	0.3	405	406	20.4	52.4
2025-07-23T20:09	10	0	0.0	0	0	406	0.3	405	407	20.4	52.3
2025-07-23T20:10	10	0	0.1	0	0	406	0.3	406	407	20.4	52.4
2025-07-23T20:11	10	0	0.0	0	0	406	0.2	405	406	20.4	52.4
2025-07-23T20:12	10	0	0.1	0	0	406	0.2	405	406	20.3	52.8
2025-07-23T20:13	10	0	0.1	0	0	405	0.3	405	406	20.2	53.3
2025-07-23T20:14	10	0	0.1	0	0	406	0.3	405	407	20.3	52.8
2025-07-23T20:15	10	0	0.1	0	0	406	0.2	406	407	20.3	53.0
2025-07-23T20:16	10	0	0.0	0	0	406	0.2	406	407	20.2	53.6
2025-07-23T20:17	10	0	0.1	0	0	406	0.2	406	407	20.2	53.3
2025-07-23T20:18	10	0	0.0	0	0	406	0.2	406	406	20.2	53.8
2025-07-23T20:19	10	0	0.1	0	0	406	0.3	406	407	20.2	53.5
2025-07-23T20:20	10	0	0.0	0	0	406	0.2	406	407	20.2	53.6
2025-07-23T20:21	10	0	0.1	0	0	406	0.2	406	407	20.2	53.8
2025-07-23T20:22	10	0	0.1	0	0	406	0.2	406	407	20.2	53.6
2025-07-23T20:23	10	0	0.1	0	0	406	0.3	406	407	20.2	53.5
2025-07-23T20:24	10	0	0.1	0	0	406	0.3	405	407	20.1	54.0
2025-07-23T20:25	10	0	0.0	0	0	406	0.2	405	406	20.1	54.3
2025-07-23T20:26	10	0	0.0	0	0	406	0.2	405	406	20.1	54.0
2025-07-23T20:27	10	0	0.1	0	0	406	0.3	405	406	20.1	54.0
2025-07-23T20:28	10	0	0.1	0	0	406	0.2	405	406	20.1	54.3
2025-07-23T20:29	10	0	0.1	0	0	405	0.2	405	406	20.0	54.9
2025-07-23T20:30	10	0	0.1	0	0	405	0.2	405	406	20.0	54.8
2025-07-23T20:31	10	0	0.0	0	0	405	0.3	405	406	20.0	55.2
2025-07-23T20:32	10	0	0.1	0	0	405	0.2	404	405	20.0	55.5
2025-07-23T20:33	10	0	0.1	0	0	405	0.2	404	405	19.9	55.7
2025-07-23T20:34	10	0	0.1	0	0	405	0.2	404	405	19.9	55.5
2025-07-23T20:35	10	0	0.1	0	0	405	0.3	404	406	20.0	55.0
2025-07-23T20:36	10	0	0.1	0	0	405	0.2	405	405	20.0	55.3
2025-07-23T20:37	10	0	0.1	0	0	405	0.3	404	405	20.0	55.3
2025-07-23T20:38	10	0	0.1	0	0	405	0.2	405	406	20.0	55.0
2025-07-23T20:39	10	0	0.1	0	0	405	0.2	405	406	20.0	55.2
2025-07-23T20:40	10	0	0.0	0	0	405	0.2	405	406	19.9	55.5
2025-07-23T20:41	10	0	0.1	0	0	405	0.2	405	406	19.9	55.3
2025-07-23T20:42	10	0	0.1	0	0	405	0.3	405	406	19.9	55.3
2025-07-23T20:43	10	0	0.1	0	0	405	0.2	405	406	20.0	55.1
2025-07-23T20:44	10	0	0.1	0	0	406	0.2	405	406	20.0	54.7
2025-07-23T20:45	10	0	0.1	0	0	406	0.2	405	406	20.0	54.6
2025-07-23T20:46	10	0	0.1	0	0	405	0.2	405	406	20.0	54.7
2025-07-23T20:47	10	0	0.1	0	0	405	0.3	404	406	20.0	55.0
2025-07-23T20:48	10	0	0.1	0	0	405	0.2	404	406	19.9	55.1
2025-07-23T20:49	10	0	0.1	0	0	405	0.3	404	406	20.0	54.6
2025-07-23T20:50	10	0	0.1	0	0	405	0.3	404	406	19.9	55.1
2025-07-23T20:51	10	0	0.1	0	0	405	0.2	405	406	19.9	54.8
2025-07-23T20:52	10	0	0.1	0	0	405	0.3	405	406	20.0	54.7
2025-07-23T20:53	10	0	0.1	0	0	405	0.3	404	406	20.0	54.7
2025-07-23T20:54	10	0	0.1	0	0	405	0.2	404	405	19.9	55.1
2025-07-23T20:55	10	0	0.1	0	0	405	0.3	404	405	20.0	54.7
2025-07-23T20:56	10	0	0.1	0	0	405	0.2	404	406	20.0	54.7
2025-07-23T20:57	10	0	0.1	0	0	405	0.3	405	406	20.0	54.2
2025-07-23T20:58	10	0	0.1	0	0	405	0.3	405	406	20.0	54.4
2025-07-23T20:59	10	0	0.1	0	0	405	0.2	405	406	20.0	54.5
2025-07-23T21:00	10	0	0.1	0	0	405	0.2	405	405	20.0	54.6
2025-07-23T21:01	10	0	0.1	0	0	405	0.2	404	406	19.9	54.9
2025-07-23T21:02	10	0	0.1	0	0	405	0.2	404	405	19.9	55.0
2025-07-23T21:03	10	0	0.1	0	0	405	0.3	405	406	19.9	55.1
2025-07-23T21:04	10	0	0.1	0	0	405	0.2	404	405	19.9	55.2
2025-07-23T21:05	10	0	0.1	0	0	405	0.3	404	405	19.9	55.1
2025-07-23T21:06	10	0	0.1	0	0	405	0.2	404	405	19.9	55.4
2025-07-23T21:07	10	0	0.1	0	0	405	0.2	404	405	19.9	55.1
2025-07-23T21:08	10	0	0.1	0	0	405	0.3	404	405	19.9	55.2
2025-07-23T21:09	10	0	0.1	0	0	405	0.2	404	405	19.9	55.4
2025-07-23T21:10	10	0	0.1	0	0	405	0.3	404	405	19.8	55.4
2025-07-23T21:11	10	0	0.1	0	0	405	0.3	404	405	19.9	55.4
2025-07-23T21:12	10	0	0.1	0	0	404	0.3	404	405	19.8	55.7
2025-07-23T21:13	10	0	0.1	0	0	404	0.2	404	405	19.8	55.5
2025-07-23T21:14	10	0	0.1	0	0	404	0.3	404	405	19.9	55.2
2025-07-23T21:15	10	0	0.1	0	0	404	0.2	403	404	19.9	55.5
2025-07-23T21:16	10	0	0.1	0	0	404	0.2	404	405	19.8	56.1
2025-07-23T21:17	10	0	0.1	0	0	404	0.3	403	405	19.7	56.4
2025-07-23T21:18	10	0	0.1	0	0	404	0.2	403	404	19.7	55.9
2025-07-23T21:19	10	0	0.1	0	0	404	0.3	403	404	19.7	56.3
2025-07-23T21:20	10	0	0.1	0	0	404	0.2	403	405	19.7	55.9
2025-07-23T21:21	10	0	0.1	0	0	404	0.2	403	404	19.8	55.6
2025-07-23T21:22	10	0	0.1	0	0	403	0.2	403	404	19.8	55.9
2025-07-23T21:23	10	0	0.1	0	0	403	0.2	403	404	19.7	56.5
2025-07-23T21:24	10	0	0.1	0	0	403	0.2	403	403	19.7	56.2
2025-07-23T21:25	10	0	0.1	0	0	403	0.2	402	404	19.6	57.1
2025-07-23T21:26	10	0	0.1	0	0	403	0.3	402	404	19.6	56.8
2025-07-23T21:27	10	0	0.0	0	0	403	0.3	402	404	19.6	56.6
2025-07-23T21:28	10	0	0.1	0	0	403	0.2	402	403	19.6	57.0
2025-07-23T21:29	10	0	0.1	0	0	403	0.2	402	403	19.6	56.9
2025-07-23T21:30	10	0	0.1	0	0	402	0.2	402	403	19.5	57.7
2025-07-23T21:31	10	0	0.1	0	0	402	0.2	402	402	19.4	58.3
2025-07-23T21:32	10	0	0.1	0	0	402	0.2	402	403	19.5	57.6
2025-07-23T21:33	10	0	0.1	0	0	402	0.3	402	403	19.5	57.5
2025-07-23T21:34	10	0	0.1	0	0	402	0.2	402	402	19.5	58.1
2025-07-23T21:35	10	0	0.1	0	0	402	0.2	402	403	19.4	58.5
2025-07-23T21:36	10	0	0.1	0	0	402	0.2	402	402	19.4	58.1
2025-07-23T21:37	10	0	0.0	0	0	402	0.2	402	403	19.4	58.4
2025-07-23T21:38	10	0	0.0	0	0	402	0.2	402	403	19.4	58.0
2025-07-23T21:39	10	0	0.1	0	0	402	0.2	401	403	19.5	58.0
2025-07-23T21:40	10	0	0.1	0	0	402	0.2	402	403	19.5	57.8
2025-07-23T21:41	10	0	0.1	0	0	402	0.3	402	403	19.5	57.8
2025-07-23T21:42	10	0	0.1	0	0	402	0.2	402	403	19.6	56.7
2025-07-23T21:43	10	0	0.1	0	0	402	0.2	402	403	19.5	57.1
2025-07-23T21:44	10	0	0.1	0	0	402	0.2	402	403	19.5	57.8
2025-07-23T21:45	10	0	0.1	0	0	402	0.2	402	403	19.5	57.7
2025-07-23T21:46	10	0	0.1	0	0	402	0.2	402	403	19.5	57.1
2025-07-23T21:47	10	0	0.1	0	0	402	0.2	402	403	19.5	57.5
2025-07-23T21:48	10	0	0.1	0	0	402	0.2	402	403	19.5	57.0
2025-07-23T21:49	10	0	0.1	0	0	402	0.3	402	403	19.5	57.0
2025-07-23T21:50	10	0	0.1	0	0	402	0.2	402	403	19.5	56.9
2025-07-23T21:51	10	0	0.0	0	0	402	0.2	402	403	19.5	57.2
2025-07-23T21:52	10	0	0.1	0	0	402	0.3	402	403	19.5	57.1
2025-07-23T21:53	10	0	0.1	0	0	402	0.3	401	403	19.5	57.4
2025-07-23T21:54	10	0	0.1	0	0	402	0.3	401	403	19.5	57.2
2025-07-23T21:55	10	0	0.1	0	0	402	0.2	401	402	19.5	56.3
2025-07-23T21:56	10	0	0.1	0	0	402	0.3	402	403	19.5	57.2
2025-07-23T21:57	10	0	0.1	0	0	402	0.3	401	403	19.5	57.2
2025-07-23T21:58	10	0	0.1	0	0	402	0.2	402	403	19.5	56.4
2025-07-23T21:59	10	0	0.1	0	0	402	0.3	402	403	19.5	57.2
2025-07-23T22:00	10	0	0.1	0	0	402	0.2	402	403	19.5	57.2
2025-07-23T22:01	10	0	0.1	0	0	402	0.2	402	403	19.5	57.2
2025-07-23T22:02	10	0	0.1	0	0	402	0.2	402	403	19.5	57.0
2025-07-23T22:03	10	0	0.1	0	0	402	0.2	402	403	19.5	57.3
2025-07-23T22:04	10	0	0.1	0	0	402	0.2	402	403	19.4	57.7
2025-07-23T22:05	10	0	0.1	0	0	402	0.2	402	403	19.4	57.8
2025-07-23T22:06	10	0	0.0	0	0	402	0.2	402	403	19.4	57.8
2025-07-23T22:07	10	0	0.1	0	0	402	0.2	402	403	19.4	58.0
2025-07-23T22:08	10	0	0.1	0	0	402	0.2	402	403	19.3	58.7
2025-07-23T22:09	10	0	0.1	0	0	402	0.2	402	403	19.3	58.7
2025-07-23T22:10	10	0	0.1	0	0	402	0.2	402	403	19.3	58.7
2025-07-23T22:11	10	0	0.0	0	0	402	0.2	402	403	19.3	58.9
2025-07-23T22:12	10	0	0.1	0	0	402	0.2	402	402	19.3	59.1
2025-07-23T22:13	10	0	0.1	0	0	402	0.2	402	403	19.2	59.7
2025-07-23T22:14	10	0	0.1	0	0	402	0.2	401	402	19.2	59.9
2025-07-23T22:15	10	0	0.1	0	0	402	0.2	402	402	19.2	59.9
2025-07-23T22:16	10	0	0.0	0	0	402	0.2	401	402	19.2	59.8
2025-07-23T22:17	10	0	0.1	0	1	402	0.2	402	402	19.2	59.6
2025-07-23T22:18	10	0	0.1	0	0	402	0.2	402	402	19.2	59.7
2025-07-23T22:19	10	0	0.1	0	0	402	0.2	402	402	19.2	59.6
2025-07-23T22:20	10	0	0.1	0	0	402	0.1	402	402	19.2	59.9
2025-07-23T22:21	10	0	0.1	0	0	402	0.2	401	402	19.2	59.4
2025-07-23T22:22	10	0	0.1	0	0	402	0.2	402	402	19.2	59.5
2025-07-23T22:23	10	0	0.1	0	0	402	0.3	401	403	19.2	59.9
2025-07-23T22:24	10	0	0.1	0	0	402	0.2	402	403	19.2	59.8
2025-07-23T22:25	10	0	0.1	0	0	402	0.3	401	403	19.3	59.5
2025-07-23T22:26	10	0	0.1	0	0	402	0.2	401	402	19.2	60.0
2025-07-23T22:27	10	0	0.1	0	1	402	0.3	401	403	19.2	60.1
2025-07-23T22:28	10	0	0.1	0	0	402	0.2	402	402	19.2	60.1
2025-07-23T22:29	10	0	0.1	0	0	402	0.3	401	402	19.2	60.4
2025-07-23T22:30	10	0	0.1	0	0	402	0.3	401	402	19.1	60.9
2025-07-23T22:31	10	0	0.1	0	0	401	0.2	401	402	19.1	61.0
2025-07-23T22:32	10	0	0.1	0	0	402	0.2	401	402	19.1	60.9
2025-07-23T22:33	10	0	0.1	0	0	401	0.3	401	402	19.1	61.2
2025-07-23T22:34	10	0	0.1	0	0	401	0.2	401	402	19.1	61.2
2025-07-23T22:35	10	0	0.2	0	1	401	0.2	401	402	19.1	61.0
2025-07-23T22:36	10	0	0.1	0	1	401	0.2	401	402	19.1	61.1
2025-07-23T22:37	10	0	0.1	0	0	401	0.2	401	402	19.1	61.1
2025-07-23T22:38	10	0	0.2	0	1	401	0.3	401	402	19.1	61.1
2025-07-23T22:39	10	0	0.1	0	0	401	0.3	400	402	19.1	61.3
2025-07-23T22:40	10	0	0.1	0	0	401	0.3	400	402	19.1	61.3
2025-07-23T22:41	10	0	0.1	0	0	401	0.3	401	402	19.1	61.0
2025-07-23T22:42	10	0	0.2	0	1	402	0.3	401	402	19.1	60.8
2025-07-23T22:43	10	0	0.2	0	0	401	0.3	401	402	19.1	61.1
2025-07-23T22:44	10	0	0.1	0	0	401	0.3	400	402	19.0	61.4
2025-07-23T22:45	10	0	0.1	0	0	401	0.3	400	402	19.0	61.4
2025-07-23T22:46	10	0	0.1	0	0	401	0.3	400	402	19.0	61.6
2025-07-23T22:47	10	0	0.2	0	1	401	0.2	400	401	19.0	61.7
2025-07-23T22:48	10	0	0.2	0	0	401	0.3	400	401	19.0	61.9
2025-07-23T22:49	10	0	0.1	0	0	401	0.3	400	401	18.9	62.1
2025-07-23T22:50	10	0	0.2	0	1	400	0.2	400	401	18.9	61.9
2025-07-23T22:51	10	0	0.2	0	1	400	0.4	399	401	19.0	61.8
2025-07-23T22:52	10	0	0.1	0	1	400	0.2	400	401	18.9	61.9
2025-07-23T22:53	10	0	0.1	0	0	400	0.2	399	401	19.0	61.7
2025-07-23T22:54	10	0	0.2	0	1	400	0.3	399	401	18.9	61.8
2025-07-23T22:55	10	0	0.1	0	0	400	0.3	399	401	18.9	62.1
2025-07-23T22:56	10	0	0.2	0	1	400	0.3	399	401	19.0	61.5
2025-07-23T22:57	10	0	0.1	0	0	400	0.2	399	401	19.0	60.8
2025-07-23T22:58	10	0	0.2	-1	1	400	0.3	399	401	19.0	60.9
2025-07-23T22:59	10	0	0.1	0	1	399	0.3	398	400	18.9	61.9
2025-07-23T23:00	10	0	0.2	0	1	399	0.2	399	400	18.9	61.6
2025-07-23T23:01	10	0	0.1	0	0	400	0.3	399	400	19.0	61.4
2025-07-23T23:02	10	0	0.2	0	0	399	0.3	399	400	19.0	61.5
2025-07-23T23:03	10	0	0.1	0	1	399	0.2	399	400	18.9	61.7
2025-07-23T23:04	10	0	0.2	0	1	399	0.3	399	400	18.9	61.8
2025-07-23T23:05	10	0	0.1	0	0	399	0.2	398	400	18.9	62.1
2025-07-23T23:06	10	0	0.1	0	1	399	0.2	398	399	18.8	62.3
2025-07-23T23:07	10	0	0.1	0	0	399	0.4	398	400	18.9	61.8
2025-07-23T23:08	10	0	0.1	0	0	399	0.2	398	399	18.9	61.8
2025-07-23T23:09	10	0	0.1	0	0	399	0.2	398	399	18.9	62.1
2025-07-23T23:10	10	0	0.1	0	0	399	0.3	398	400	18.9	62.1
2025-07-23T23:11	10	0	0.1	0	0	399	0.3	398	399	18.9	62.3
2025-07-23T23:12	10	0	0.1	0	1	399	0.2	398	399	18.8	62.4
2025-07-23T23:13	10	0	0.1	0	1	399	0.2	398	399	18.8	62.6
2025-07-23T23:14	10	0	0.1	0	0	399	0.2	399	400	18.8	62.8
2025-07-23T23:15	10	0	0.1	0	0	399	0.3	398	400	18.8	62.9
2025-07-23T23:16	10	0	0.1	0	0	399	0.2	398	399	18.7	63.3
2025-07-23T23:17	10	0	0.2	0	1	399	0.3	398	400	18.8	63.0
2025-07-23T23:18	10	0	0.1	0	0	399	0.2	398	399	18.8	63.0
2025-07-23T23:19	10	0	0.1	0	0	399	0.3	398	400	18.8	62.9
2025-07-23T23:20	10	0	0.1	0	1	399	0.2	398	399	18.8	62.8
2025-07-23T23:21	10	0	0.1	0	0	399	0.2	398	399	18.8	62.9
2025-07-23T23:22	10	0	0.1	0	0	399	0.2	398	399	18.8	63.0
2025-07-23T23:23	10	0	0.1	0	0	399	0.2	398	399	18.8	63.1
2025-07-23T23:24	10	0	0.1	0	0	399	0.3	398	399	18.8	63.3
2025-07-23T23:25	10	0	0.1	0	0	399	0.2	398	399	18.8	63.5
2025-07-23T23:26	10	0	0.2	0	0	398	0.3	398	399	18.7	63.9
2025-07-23T23:27	10	0	0.1	0	0	398	0.2	398	399	18.7	64.0
2025-07-23T23:28	10	0	0.1	0	1	398	0.2	398	399	18.7	63.7
2025-07-23T23:29	10	0	0.1	0	0	398	0.3	397	398	18.7	64.1
2025-07-23T23:30	10	0	0.1	0	0	397	0.4	396	398	18.6	64.2
2025-07-23T23:31	10	0	0.0	0	0	396	0.3	396	397	18.6	64.5
2025-07-23T23:32	10	0	0.1	0	0	395	0.4	395	396	18.6	64.6
2025-07-23T23:33	10	0	0.1	0	0	394	0.4	394	395	18.6	64.6
2025-07-23T23:34	10	0	0.1	0	0	394	0.3	393	394	18.5	65.1
2025-07-23T23:35	10	0	0.0	0	0	393	0.2	393	394	18.5	65.1
2025-07-23T23:36	10	0	0.1	0	0	393	0.3	392	394	18.5	65.4
2025-07-23T23:37	10	0	0.1	0	0	392	0.3	392	393	18.5	65.4
2025-07-23T23:38	10	0	0.0	0	0	392	0.2	392	393	18.4	65.7
2025-07-23T23:39	10	0	0.0	0	0	392	0.2	391	392	18.5	65.4
2025-07-23T23:40	10	0	0.0	0	0	391	0.3	390	392	18.4	65.6
2025-07-23T23:41	10	0	0.1	0	0	391	0.3	391	392	18.4	65.8
2025-07-23T23:42	10	0	0.1	0	0	392	0.3	391	392	18.4	65.9
2025-07-23T23:43	10	0	0.0	0	0	392	0.4	391	393	18.4	66.1
2025-07-23T23:44	10	0	0.1	0	0	393	0.3	392	393	18.4	66.2
2025-07-23T23:45	10	0	0.0	0	0	393	0.2	392	393	18.3	66.5
2025-07-23T23:46	10	0	0.0	0	0	393	0.2	392	393	18.3	66.7
2025-07-23T23:47	10	0	0.0	0	0	393	0.4	393	394	18.3	66.9
2025-07-23T23:48	10	0	0.0	0	0	394	0.3	393	395	18.3	67.2
2025-07-23T23:49	10	0	0.0	0	0	394	0.2	394	395	18.3	67.3
2025-07-23T23:50	10	0	0.1	0	0	395	0.4	394	395	18.3	67.4
2025-07-23T23:51	10	0	0.0	0	0	395	0.3	395	396	18.4	67.2
2025-07-23T23:52	10	0	0.1	0	0	396	0.2	395	396	18.4	67.3
2025-07-23T23:53	10	0	0.1	0	0	396	0.2	395	396	18.4	67.2
2025-07-23T23:54	10	0	0.1	0	0	396	0.2	396	397	18.4	67.4
2025-07-23T23:55	10	0	0.1	0	0	396	0.3	396	397	18.4	67.4
2025-07-23T23:56	10	0	0.1	0	0	397	0.3	396	397	18.4	67.4
2025-07-23T23:57	10	0	0.1	0	0	397	0.2	396	397	18.4	67.4
2025-07-23T23:58	10	0	0.1	0	0	397	0.2	397	398	18.4	67.6
2025-07-23T23:59	10	0	0.1	0	0	398	0.2	397	398	18.5	67.3
2025-07-24T00:00	10	0	0.1	0	0	398	0.3	397	398	18.5	67.5
2025-07-24T00:01	10	0	0.1	0	0	398	0.2	397	398	18.5	67.4
2025-07-24T00:02	10	0	0.1	0	0	398	0.2	397	398	18.4	67.8
2025-07-24T00:03	10	0	0.1	0	0	397	0.3	397	398	18.4	67.8
2025-07-24T00:04	10	0	0.1	0	0	397	0.3	397	398	18.5	67.9
2025-07-24T00:05	10	0	0.1	0	0	397	0.3	396	398	18.4	68.1
2025-07-24T00:06	10	0	0.1	0	0	397	0.2	396	397	18.4	68.3
2025-07-24T00:07	10	0	0.1	0	0	396	0.2	396	397	18.4	68.4
2025-07-24T00:08	10	0	0.1	0	0	396	0.2	396	397	18.4	68.6
2025-07-24T00:09	10	0	0.1	0	0	396	0.2	396	397	18.3	69.0
2025-07-24T00:10	10	0	0.1	0	0	396	0.2	395	396	18.2	69.3
2025-07-24T00:11	10	0	0.1	0	0	396	0.2	396	396	18.2	69.4
2025-07-24T00:12	10	0	0.1	0	0	396	0.2	395	396	18.2	69.6
2025-07-24T00:13	10	0	0.0	0	0	396	0.2	395	396	18.1	69.7
2025-07-24T00:14	10	0	0.1	0	0	395	0.2	395	396	18.1	69.9
2025-07-24T00:15	10	0	0.0	0	0	395	0.2	395	396	18.1	70.2
2025-07-24T00:16	10	0	0.1	0	0	395	0.3	395	396	18.0	70.4
2025-07-24T00:17	10	0	0.0	0	0	396	0.2	395	396	18.0	70.6
2025-07-24T00:18	10	0	0.0	0	0	396	0.2	395	396	18.0	71.2
2025-07-24T00:19	10	0	0.1	0	0	396	0.3	395	396	18.1	70.6
2025-07-24T00:20	10	0	0.1	0	0	396	0.3	395	396	18.1	70.4
2025-07-24T00:21	10	0	0.1	0	0	395	0.2	395	396	18.1	70.5
2025-07-24T00:22	10	0	0.1	0	0	395	0.2	395	396	18.1	71.0
2025-07-24T00:23	10	0	0.0	0	0	395	0.3	394	396	18.1	70.9
2025-07-24T00:24	10	0	0.1	0	0	395	0.2	394	395	18.0	71.3
2025-07-24T00:25	10	0	0.1	0	0	395	0.2	394	395	18.0	71.3
2025-07-24T00:26	10	0	0.1	0	0	395	0.3	395	396	18.1	71.2
2025-07-24T00:27	10	0	0.1	0	0	395	0.2	395	396	18.1	71.0
2025-07-24T00:28	10	0	0.1	0	0	395	0.2	394	395	18.1	71.1
2025-07-24T00:29	10	0	0.1	0	0	395	0.3	394	395	18.1	71.1
2025-07-24T00:30	10	0	0.1	0	0	395	0.2	394	395	18.1	71.1
2025-07-24T00:31	10	0	0.1	0	0	395	0.2	394	395	18.1	71.1
2025-07-24T00:32	10	0	0.1	0	0	394	0.2	394	395	18.1	71.0
2025-07-24T00:33	10	0	0.1	0	0	394	0.3	394	395	18.0	71.3
2025-07-24T00:34	10	0	0.1	0	0	394	0.2	394	395	18.1	71.3
2025-07-24T00:35	10	0	0.1	0	0	394	0.2	394	395	18.0	71.6
2025-07-24T00:36	10	0	0.1	0	0	394	0.3	394	395	18.0	71.8
2025-07-24T00:37	10	0	0.0	0	0	395	0.4	394	396	18.0	71.6
2025-07-24T00:38	10	0	0.1	0	0	395	0.3	395	396	18.0	71.5
2025-07-24T00:39	10	0	0.1	0	0	396	0.3	395	397	18.0	71.6
2025-07-24T00:40	10	0	0.1	0	0	396	0.2	395	396	18.0	71.8
2025-07-24T00:41	10	0	0.1	0	0	396	0.2	395	396	18.1	71.1
2025-07-24T00:42	10	0	0.1	0	0	396	0.2	395	396	18.1	71.1
2025-07-24T00:43	10	0	0.1	0	0	395	0.2	395	396	18.1	71.1
2025-07-24T00:44	10	0	0.1	0	0	395	0.3	394	395	18.1	71.1
2025-07-24T00:45	10	0	0.1	0	0	394	0.2	393	394	18.1	71.2
2025-07-24T00:46	10	0	0.1	0	0	394	0.2	393	394	18.0	71.3
2025-07-24T00:47	10	0	0.1	0	0	394	0.2	393	394	18.0	71.4
2025-07-24T00:48	10	0	0.1	0	0	394	0.2	393	394	18.0	71.3
2025-07-24T00:49	10	0	0.1	0	0	393	0.3	393	394	18.0	71.5
2025-07-24T00:50	10	0	0.1	0	0	393	0.3	393	394	18.0	71.8
2025-07-24T00:51	10	0	0.1	0	0	393	0.3	392	394	17.9	72.1
2025-07-24T00:52	10	0	0.1	0	0	393	0.3	393	394	17.9	71.9
2025-07-24T00:53	10	0	0.1	0	0	393	0.2	393	394	17.9	71.9
2025-07-24T00:54	10	0	0.1	0	0	394	0.4	393	395	18.0	71.7
2025-07-24T00:55	10	0	0.1	0	0	395	0.3	394	395	18.0	71.2
2025-07-24T00:56	10	0	0.1	0	0	395	0.3	394	396	18.1	71.1
2025-07-24T00:57	10	0	0.1	0	0	395	0.3	395	396	18.0	71.2
2025-07-24T00:58	10	0	0.1	0	0	395	0.2	395	396	18.0	71.7
2025-07-24T00:59	10	0	0.1	0	0	396	0.2	395	396	18.0	71.4
2025-07-24T01:00	10	0	0.1	0	0	396	0.3	395	396	18.0	71.7
2025-07-24T01:01	10	0	0.1	0	0	396	0.3	395	397	18.0	71.6
2025-07-24T01:02	10	0	0.1	0	0	396	0.3	395	397	18.0	71.4
2025-07-24T01:03	10	0	0.1	0	0	396	0.3	396	397	18.0	71.8
2025-07-24T01:04	10	0	0.1	0	0	396	0.1	396	397	18.0	71.5
2025-07-24T01:05	10	0	0.1	0	0	397	0.2	396	397	18.0	71.2
2025-07-24T01:06	10	0	0.1	0	0	397	0.3	396	397	18.0	71.0
2025-07-24T01:07	10	0	0.1	0	0	397	0.3	396	398	18.0	71.0
2025-07-24T01:08	10	0	0.1	0	0	397	0.3	396	397	18.1	70.7
2025-07-24T01:09	10	0	0.1	0	0	397	0.2	396	397	18.1	70.6
2025-07-24T01:10	10	0	0.1	0	0	397	0.3	397	397	18.2	70.2
2025-07-24T01:11	10	0	0.1	0	0	397	0.3	396	397	18.2	70.3
2025-07-24T01:12	10	0	0.1	0	0	397	0.2	396	397	18.1	70.7
2025-07-24T01:13	10	0	0.1	0	0	397	0.3	396	397	18.1	70.6
2025-07-24T01:14	10	0	0.1	0	0	397	0.2	396	397	18.1	71.1
2025-07-24T01:15	10	0	0.1	0	0	397	0.2	396	397	18.1	70.7
2025-07-24T01:16	10	0	0.1	0	0	397	0.2	396	397	18.1	70.5
2025-07-24T01:17	10	0	0.1	0	0	397	0.2	396	397	18.1	70.6
2025-07-24T01:18	10	0	0.1	0	0	397	0.3	396	397	18.1	70.6
2025-07-24T01:19	10	0	0.1	0	0	397	0.3	396	397	18.0	71.2
2025-07-24T01:20	10	0	0.1	0	0	397	0.2	396	397	18.0	71.2
2025-07-24T01:21	10	0	0.1	0	0	396	0.3	395	397	18.0	71.2
2025-07-24T01:22	10	0	0.1	0	0	396	0.3	396	397	18.0	71.1
2025-07-24T01:23	10	0	0.1	0	0	396	0.3	396	397	18.1	71.1
2025-07-24T01:24	10	0	0.1	0	0	397	0.3	396	397	18.0	71.2
2025-07-24T01:25	10	0	0.1	0	0	397	0.3	396	397	18.1	70.8
2025-07-24T01:26	10	0	0.1	0	0	397	0.2	396	397	18.1	71.1
2025-07-24T01:27	10	0	0.1	0	0	397	0.2	397	398	18.1	71.0
2025-07-24T01:28	10	0	0.1	0	0	397	0.3	397	398	18.1	70.8
2025-07-24T01:29	10	0	0.1	0	0	397	0.3	397	398	18.1	71.0
2025-07-24T01:30	10	0	0.1	0	0	398	0.2	397	398	18.1	70.8
2025-07-24T01:31	10	0	0.1	0	0	397	0.3	397	398	18.1	71.1
2025-07-24T01:32	10	0	0.1	0	0	397	0.2	397	398	18.1	71.3
2025-07-24T01:33	10	0	0.1	0	0	397	0.3	397	398	18.1	70.8
2025-07-24T01:34	10	0	0.1	0	0	397	0.3	397	398	18.1	70.9
2025-07-24T01:35	10	0	0.1	0	0	397	0.3	397	398	18.1	70.7
2025-07-24T01:36	10	0	0.1	0	0	397	0.2	397	398	18.1	70.4
2025-07-24T01:37	10	0	0.1	0	0	398	0.2	397	398	18.2	70.2
2025-07-24T01:38	10	0	0.1	0	0	397	0.2	397	398	18.1	70.7
2025-07-24T01:39	10	0	0.1	0	0	398	0.2	397	398	18.2	70.3
2025-07-24T01:40	10	0	0.1	0	0	398	0.3	397	398	18.2	69.8
2025-07-24T01:41	10	0	0.1	0	0	397	0.2	397	398	18.2	70.2
2025-07-24T01:42	10	0	0.1	0	0	397	0.3	396	397	18.1	70.3
2025-07-24T01:43	10	0	0.1	0	0	397	0.3	396	397	18.1	70.1
2025-07-24T01:44	10	0	0.1	0	0	396	0.3	396	397	18.1	70.7
2025-07-24T01:45	10	0	0.1	0	0	396	0.3	395	396	18.0	71.6
2025-07-24T01:46	10	0	0.1	0	0	395	0.3	395	396	17.9	71.6
2025-07-24T01:47	10	0	0.1	0	0	395	0.2	395	396	17.9	71.4
2025-07-24T01:48	10	0	0.1	0	0	395	0.3	394	396	18.0	71.1
2025-07-24T01:49	10	0	0.1	0	0	395	0.2	395	396	17.9	71.4
2025-07-24T01:50	10	0	0.1	0	0	395	0.2	395	396	18.0	70.9
2025-07-24T01:51	10	0	0.1	0	0	395	0.3	395	396	18.0	70.8
2025-07-24T01:52	10	0	0.1	0	0	395	0.3	395	396	17.9	71.2
2025-07-24T01:53	10	0	0.1	0	0	395	0.2	395	395	17.9	71.2
2025-07-24T01:54	10	0	0.1	0	0	395	0.2	394	395	17.9	71.2
2025-07-24T01:55	10	0	0.1	0	0	395	0.2	394	395	17.9	70.8
2025-07-24T01:56	10	0	0.1	0	0	395	0.2	394	396	18.0	70.5
2025-07-24T01:57	10	0	0.1	0	0	395	0.2	395	395	17.9	70.9
2025-07-24T01:58	10	0	0.1	0	0	395	0.3	394	396	18.0	70.2
2025-07-24T01:59	10	0	0.1	0	0	395	0.2	395	396	18.0	70.3
2025-07-24T02:00	10	0	0.1	0	0	395	0.2	395	396	18.0	70.1
2025-07-24T02:01	10	0	0.1	0	0	395	0.3	395	396	18.0	70.4
2025-07-24T02:02	10	0	0.1	0	0	395	0.3	395	396	17.9	71.0
2025-07-24T02:03	10	0	0.1	0	0	395	0.2	394	395	17.9	70.8
2025-07-24T02:04	10	0	0.1	0	0	395	0.2	394	396	17.9	70.7
2025-07-24T02:05	10	0	0.1	0	0	394	0.2	394	395	17.9	70.9
2025-07-24T02:06	10	0	0.1	0	0	394	0.3	394	395	17.9	70.8
2025-07-24T02:07	10	0	0.1	0	0	394	0.2	393	394	17.9	70.9
2025-07-24T02:08	10	0	0.1	0	0	393	0.2	393	394	17.8	71.4
2025-07-24T02:09	10	0	0.1	0	0	394	0.2	393	394	17.9	71.2
2025-07-24T02:10	10	0	0.1	0	0	394	0.2	394	395	17.8	71.8
2025-07-24T02:11	10	0	0.1	0	0	395	0.3	394	395	17.8	71.7
2025-07-24T02:12	10	0	0.1	0	0	395	0.2	394	396	17.8	71.4
2025-07-24T02:13	10	0	0.1	0	0	395	0.3	395	396	17.9	71.2
2025-07-24T02:14	10	0	0.1	0	0	396	0.3	395	396	17.9	71.3
2025-07-24T02:15	10	0	0.1	0	0	395	0.2	395	396	17.8	71.7
2025-07-24T02:16	10	0	0.1	0	0	395	0.2	395	396	17.8	72.3
2025-07-24T02:17	10	0	0.1	0	0	395	0.2	395	396	17.7	72.5
2025-07-24T02:18	10	0	0.1	0	0	395	0.2	395	396	17.7	72.5
2025-07-24T02:19	10	0	0.1	0	0	395	0.3	395	396	17.7	72.5
2025-07-24T02:20	10	0	0.1	0	0	395	0.2	395	396	17.7	73.3
2025-07-24T02:21	10	0	0.1	0	0	395	0.2	395	396	17.6	73.8
2025-07-24T02:22	10	0	0.1	0	0	395	0.2	395	396	17.5	74.4
2025-07-24T02:23	10	0	0.1	0	0	395	0.3	395	396	17.5	74.8
2025-07-24T02:24	10	0	0.1	0	0	395	0.2	395	395	17.5	74.9
2025-07-24T02:25	10	0	0.1	0	0	395	0.2	395	396	17.5	74.9
2025-07-24T02:26	10	0	0.1	0	0	395	0.2	395	396	17.5	75.0
2025-07-24T02:27	10	0	0.0	0	0	395	0.2	394	395	17.5	75.1
2025-07-24T02:28	10	0	0.1	0	0	395	0.2	394	395	17.5	74.7
2025-07-24T02:29	10	0	0.1	0	0	395	0.2	394	396	17.5	74.9
2025-07-24T02:30	10	0	0.1	0	0	395	0.2	395	396	17.5	74.7
2025-07-24T02:31	10	0	0.1	0	0	395	0.2	395	396	17.5	74.6
2025-07-24T02:32	10	0	0.1	0	0	395	0.2	394	396	17.5	74.7
2025-07-24T02:33	10	0	0.1	0	0	395	0.2	395	396	17.5	74.7
2025-07-24T02:34	10	0	0.1	0	0	395	0.2	394	395	17.4	74.8
2025-07-24T02:35	10	0	0.1	0	0	395	0.2	395	395	17.5	74.8
2025-07-24T02:36	10	0	0.1	0	0	395	0.2	394	396	17.5	74.3
2025-07-24T02:37	10	0	0.1	0	0	395	0.2	395	396	17.5	74.7
2025-07-24T02:38	10	0	0.1	0	0	395	0.2	394	395	17.5	74.7
2025-07-24T02:39	10	0	0.1	0	0	395	0.2	395	396	17.5	74.9
2025-07-24T02:40	10	0	0.1	0	0	395	0.2	395	396	17.4	75.1
2025-07-24T02:41	10	0	0.1	0	0	395	0.3	395	396	17.4	75.2
2025-07-24T02:42	10	0	0.1	0	0	395	0.2	395	396	17.4	75.1
2025-07-24T02:43	10	0	0.1	0	0	395	0.2	395	396	17.4	75.0
2025-07-24T02:44	10	0	0.1	0	0	395	0.2	395	396	17.4	75.5
2025-07-24T02:45	10	0	0.1	0	0	395	0.2	395	395	17.3	75.6
2025-07-24T02:46	10	0	0.1	0	0	395	0.2	395	395	17.3	75.5
2025-07-24T02:47	10	0	0.1	0	0	395	0.2	395	396	17.3	75.7
2025-07-24T02:48	10	0	0.1	0	0	395	0.2	395	396	17.3	75.5
2025-07-24T02:49	10	0	0.1	0	0	395	0.2	394	396	17.3	75.5
2025-07-24T02:50	10	0	0.1	0	0	395	0.2	394	395	17.3	75.9
2025-07-24T02:51	10	0	0.1	0	0	395	0.2	394	395	17.3	75.9
2025-07-24T02:52	10	0	0.1	0	0	395	0.2	395	395	17.3	75.5
2025-07-24T02:53	10	0	0.1	0	0	395	0.2	394	395	17.4	75.0
2025-07-24T02:54	10	0	0.1	0	0	395	0.2	394	395	17.3	75.7
2025-07-24T02:55	10	0	0.1	0	0	395	0.2	394	395	17.3	76.0
2025-07-24T02:56	10	0	0.1	0	0	395	0.3	394	396	17.2	76.4
2025-07-24T02:57	10	0	0.1	0	0	394	0.2	394	395	17.2	76.5
2025-07-24T02:58	10	0	0.1	0	0	394	0.3	394	395	17.2	77.0
2025-07-24T02:59	10	0	0.1	0	0	394	0.2	394	395	17.2	76.9
2025-07-24T03:00	10	0	0.0	0	0	395	0.2	394	395	17.2	77.0
2025-07-24T03:01	10	0	0.1	0	0	395	0.2	395	396	17.3	75.3
2025-07-24T03:02	10	0	0.0	0	0	395	0.2	395	395	17.4	75.0
2025-07-24T03:03	10	0	0.1	0	0	395	0.3	395	396	17.4	74.8
2025-07-24T03:04	10	0	0.1	0	0	395	0.2	395	396	17.4	75.2
2025-07-24T03:05	10	0	0.1	0	0	395	0.2	395	396	17.4	75.0
2025-07-24T03:06	10	0	0.1	0	0	395	0.2	395	396	17.4	74.7
2025-07-24T03:07	10	0	0.1	0	0	395	0.2	395	396	17.5	74.6
2025-07-24T03:08	10	0	0.1	0	0	395	0.2	395	396	17.5	74.6
2025-07-24T03:09	10	0	0.1	0	0	395	0.3	395	396	17.5	73.8
2025-07-24T03:10	10	0	0.0	0	0	396	0.3	395	396	17.6	73.5
2025-07-24T03:11	10	0	0.1	0	0	396	0.3	395	396	17.6	72.6
2025-07-24T03:12	10	0	0.1	0	0	396	0.2	395	396	17.6	73.0
2025-07-24T03:13	10	0	0.1	0	0	396	0.2	395	396	17.6	73.1
2025-07-24T03:14	10	0	0.1	0	0	396	0.2	395	396	17.6	72.9
2025-07-24T03:15	10	0	0.0	0	0	396	0.2	395	396	17.6	72.9
2025-07-24T03:16	10	0	0.1	0	0	395	0.3	395	396	17.6	73.0
2025-07-24T03:17	10	0	0.1	0	0	395	0.2	395	396	17.6	73.2
2025-07-24T03:18	10	0	0.1	0	0	395	0.2	395	396	17.6	73.1
2025-07-24T03:19	10	0	0.1	0	0	395	0.2	395	396	17.5	73.3
2025-07-24T03:20	10	0	0.1	0	0	395	0.2	394	396	17.5	73.8
2025-07-24T03:21	10	0	0.1	0	0	395	0.2	395	396	17.5	74.1
2025-07-24T03:22	10	0	0.1	0	0	395	0.2	395	396	17.5	74.2
2025-07-24T03:23	10	0	0.1	0	0	395	0.2	394	396	17.5	74.0
2025-07-24T03:24	10	0	0.1	0	0	395	0.2	395	396	17.5	74.2
2025-07-24T03:25	10	0	0.1	0	0	395	0.2	394	395	17.5	74.4
2025-07-24T03:26	10	0	0.1	0	0	395	0.2	394	395	17.5	74.4
2025-07-24T03:27	10	0	0.1	0	0	395	0.3	394	395	17.4	74.5
2025-07-24T03:28	10	0	0.1	0	0	395	0.3	394	395	17.4	74.8
2025-07-24T03:29	10	0	0.1	0	0	395	0.2	394	395	17.4	75.0
2025-07-24T03:30	10	0	0.1	0	0	394	0.3	394	395	17.3	75.4
2025-07-24T03:31	10	0	0.1	0	0	394	0.2	393	394	17.3	75.4
2025-07-24T03:32	10	0	0.1	0	0	394	0.2	394	395	17.3	74.8
2025-07-24T03:33	10	0	0.0	0	0	394	0.2	394	395	17.3	74.6
2025-07-24T03:34	10	0	0.1	0	0	394	0.3	394	395	17.4	73.8
2025-07-24T03:35	10	0	0.1	0	0	394	0.2	393	394	17.4	74.3
2025-07-24T03:36	10	0	0.1	0	0	393	0.3	393	394	17.3	74.6
2025-07-24T03:37	10	0	0.1	0	0	393	0.3	393	394	17.3	74.9
2025-07-24T03:38	10	0	0.1	0	0	393	0.3	392	394	17.3	74.8
2025-07-24T03:39	10	0	0.1	0	0	393	0.2	393	394	17.3	74.9
2025-07-24T03:40	10	0	0.1	0	0	393	0.3	392	394	17.3	74.6
2025-07-24T03:41	10	0	0.0	0	0	393	0.3	392	393	17.3	74.9
2025-07-24T03:42	10	0	0.1	0	0	393	0.3	392	393	17.3	74.5
2025-07-24T03:43	10	0	0.1	0	0	393	0.3	392	393	17.3	74.7
2025-07-24T03:44	10	0	0.1	0	0	392	0.2	392	392	17.2	74.8
2025-07-24T03:45	10	0	0.1	0	0	392	0.2	392	393	17.2	74.8
2025-07-24T03:46	10	0	0.1	0	0	393	0.2	392	393	17.2	74.8
2025-07-24T03:47	10	0	0.1	0	0	393	0.3	392	393	17.2	74.9
2025-07-24T03:48	10	0	0.1	0	0	393	0.2	392	393	17.2	75.2
2025-07-24T03:49	10	0	0.1	0	0	393	0.2	392	393	17.2	74.8
2025-07-24T03:50	10	0	0.1	0	0	393	0.3	392	393	17.2	75.1
2025-07-24T03:51	10	0	0.1	0	0	393	0.2	392	393	17.2	74.4
2025-07-24T03:52	10	0	0.1	0	0	393	0.2	392	393	17.2	74.3
2025-07-24T03:53	10	0	0.1	0	0	393	0.2	392	393	17.2	74.2
2025-07-24T03:54	10	0	0.1	0	0	393	0.2	393	394	17.1	74.2
2025-07-24T03:55	10	0	0.1	0	0	393	0.2	393	394	17.2	73.4
2025-07-24T03:56	10	0	0.1	0	0	393	0.2	393	393	17.2	73.4
2025-07-24T03:57	10	0	0.1	0	0	393	0.3	393	394	17.2	73.2
2025-07-24T03:58	10	0	0.1	0	0	393	0.3	392	393	17.2	73.5
2025-07-24T03:59	10	0	0.1	0	0	393	0.2	392	393	17.1	73.6
2025-07-24T04:00	10	0	0.1	0	0	393	0.3	392	393	17.2	72.8
2025-07-24T04:01	10	0	0.1	0	0	392	0.3	392	393	17.2	72.7
2025-07-24T04:02	10	0	0.1	0	0	392	0.2	391	392	17.2	72.9
2025-07-24T04:03	10	0	0.1	0	0	391	0.3	390	392	17.2	73.1
2025-07-24T04:04	10	0	0.1	0	0	390	0.2	390	391	17.2	72.6
2025-07-24T04:05	10	0	0.1	0	1	389	0.5	388	390	17.2	73.2
2025-07-24T04:06	10	0	0.1	0	1	388	0.3	388	389	17.1	73.9
2025-07-24T04:07	10	0	0.1	0	1	388	0.3	387	388	17.1	73.5
2025-07-24T04:08	10	1	0.1	0	1	387	0.3	386	388	17.1	74.1
2025-07-24T04:09	10	1	0.1	0	1	387	0.2	386	387	17.1	73.8
2025-07-24T04:10	10	1	0.1	0	1	386	0.2	386	387	17.1	73.5
2025-07-24T04:11	10	1	0.1	1	1	386	0.4	385	387	17.0	73.8
2025-07-24T04:12	10	1	0.1	1	1	386	0.3	385	386	17.0	74.1
2025-07-24T04:13	10	1	0.1	1	1	386	0.3	385	386	17.0	74.3
2025-07-24T04:14	10	1	0.1	1	1	385	0.2	385	386	17.0	74.3
2025-07-24T04:15	10	1	0.1	1	1	384	0.2	384	385	16.9	74.7
2025-07-24T04:16	10	1	0.1	1	1	384	0.3	384	385	16.9	74.0
2025-07-24T04:17	10	1	0.1	1	1	384	0.2	384	385	17.0	73.5
2025-07-24T04:18	10	1	0.1	1	1	384	0.2	384	385	17.0	73.8
2025-07-24T04:19	10	1	0.1	1	1	384	0.2	383	384	16.9	74.4
2025-07-24T04:20	10	1	0.1	1	2	383	0.3	383	384	16.8	74.6
2025-07-24T04:21	10	1	0.1	1	1	383	0.3	383	384	16.8	74.6
2025-07-24T04:22	10	1	0.1	1	2	383	0.2	382	383	16.7	75.0
2025-07-24T04:23	10	2	0.0	1	2	382	0.2	382	383	16.7	75.3
2025-07-24T04:24	10	2	0.1	1	2	382	0.4	381	383	16.6	75.7
2025-07-24T04:25	10	1	0.1	1	2	382	0.2	381	382	16.6	74.9
2025-07-24T04:26	10	1	0.1	1	2	382	0.4	381	383	16.7	74.8
2025-07-24T04:27	10	1	0.1	1	2	382	0.3	381	383	16.6	75.2
2025-07-24T04:28	10	1	0.1	1	2	383	0.2	382	383	16.6	74.7
2025-07-24T04:29	10	2	0.1	1	2	382	0.2	382	383	16.5	75.2
2025-07-24T04:30	10	2	0.1	1	2	382	0.3	382	383	16.6	74.7
2025-07-24T04:31	10	2	0.1	1	2	382	0.2	382	382	16.6	74.7
2025-07-24T04:32	10	2	0.1	2	2	382	0.2	381	383	16.6	74.6
2025-07-24T04:33	10	2	0.1	2	2	382	0.3	381	382	16.6	74.0
2025-07-24T04:34	10	2	0.1	2	2	382	0.2	382	383	16.7	73.6
2025-07-24T04:35	10	2	0.1	2	2	383	0.4	382	383	16.6	73.8
2025-07-24T04:36	10	2	0.1	2	2	383	0.3	382	384	16.6	73.7
2025-07-24T04:37	10	2	0.1	2	2	384	0.4	383	385	16.6	73.9
2025-07-24T04:38	10	2	0.1	2	2	385	0.3	384	385	16.6	74.1
2025-07-24T04:39	10	2	0.1	2	2	385	0.2	385	386	16.5	74.3
2025-07-24T04:40	10	2	0.1	2	2	385	0.2	385	386	16.5	74.3
2025-07-24T04:41	10	2	0.1	2	2	385	0.2	385	386	16.5	73.3
2025-07-24T04:42	10	2	0.2	1	2	386	0.2	385	386	16.5	73.3
2025-07-24T04:43	10	2	0.2	2	3	385	0.2	385	386	16.5	73.7
2025-07-24T04:44	10	2	0.2	1	3	385	0.3	384	386	16.5	73.7
2025-07-24T04:45	10	2	0.1	2	2	385	0.3	384	385	16.6	73.4
2025-07-24T04:46	10	2	0.2	2	3	384	0.3	384	385	16.5	73.9
2025-07-24T04:47	10	2	0.1	2	3	384	0.2	383	384	16.5	74.0
2025-07-24T04:48	10	3	0.1	2	3	383	0.2	383	384	16.6	73.6
2025-07-24T04:49	10	3	0.2	2	3	383	0.2	383	384	16.6	73.7
2025-07-24T04:50	10	3	0.2	3	3	383	0.2	383	384	16.6	73.8
2025-07-24T04:51	10	3	0.1	3	3	383	0.2	383	384	16.5	74.2
2025-07-24T04:52	10	3	0.2	3	4	383	0.2	383	383	16.6	73.6
2025-07-24T04:53	10	3	0.2	3	4	383	0.2	383	384	16.5	74.2
2025-07-24T04:54	10	4	0.1	3	4	384	0.2	383	384	16.5	74.3
2025-07-24T04:55	10	4	0.1	3	4	383	0.2	383	384	16.3	75.5
2025-07-24T04:56	10	4	0.2	4	5	384	0.3	383	384	16.4	74.9
2025-07-24T04:57	10	4	0.1	4	4	384	0.2	384	384	16.4	74.6
2025-07-24T04:58	10	4	0.2	3	4	384	0.2	384	385	16.4	74.4
2025-07-24T04:59	10	4	0.2	4	5	384	0.3	383	385	16.4	74.8
2025-07-24T05:00	10	5	0.2	4	5	384	0.2	384	385	16.3	75.1
2025-07-24T05:01	10	5	0.3	5	6	384	0.2	383	385	16.4	74.9
2025-07-24T05:02	10	6	0.2	6	7	384	0.3	384	385	16.3	75.2
2025-07-24T05:03	10	6	0.2	6	7	384	0.3	384	385	16.2	76.3
2025-07-24T05:04	10	6	0.2	6	7	384	0.3	384	385	16.1	76.9
2025-07-24T05:05	10	7	0.2	6	7	384	0.3	384	385	16.1	76.6
2025-07-24T05:06	10	6	0.2	6	7	384	0.2	383	385	16.2	76.2
2025-07-24T05:07	10	6	0.1	6	6	384	0.2	383	384	16.2	75.8
2025-07-24T05:08	10	7	0.2	6	7	384	0.3	383	385	16.2	75.5
2025-07-24T05:09	10	7	0.2	6	7	384	0.3	383	384	16.2	75.4
2025-07-24T05:10	10	7	0.4	6	8	384	0.2	384	385	16.2	75.2
2025-07-24T05:11	10	8	0.2	7	8	384	0.3	384	385	16.3	75.2
2025-07-24T05:12	10	8	0.2	7	8	384	0.2	384	384	16.2	75.4
2025-07-24T05:13	10	8	0.1	7	8	384	0.2	384	385	16.2	75.7
2025-07-24T05:14	10	8	0.2	7	8	384	0.3	383	385	16.2	75.1
2025-07-24T05:15	10	8	0.2	8	8	384	0.2	384	385	16.2	74.8
2025-07-24T05:16	10	8	0.2	8	9	384	0.3	384	385	16.2	75.4
2025-07-24T05:17	10	8	0.2	8	9	384	0.2	384	385	16.2	75.7
2025-07-24T05:18	10	9	0.2	8	9	385	0.2	384	385	16.1	76.3
2025-07-24T05:19	10	10	0.9	9	12	385	0.3	384	386	16.1	75.7
2025-07-24T05:20	10	12	0.6	11	13	385	0.2	385	386	16.2	75.0
2025-07-24T05:21	10	12	0.4	11	13	386	0.3	385	387	16.2	75.1
2025-07-24T05:22	10	13	0.5	12	14	386	0.4	386	387	16.3	74.4
2025-07-24T05:23	10	15	0.5	14	16	387	0.4	387	388	16.3	74.5
2025-07-24T05:24	10	16	0.3	16	17	388	0.3	387	389	16.3	73.7
2025-07-24T05:25	10	17	0.1	16	17	389	0.3	388	389	16.4	73.1
2025-07-24T05:26	10	17	0.3	16	18	389	0.2	389	390	16.4	73.2
2025-07-24T05:27	10	19	1.5	16	21	389	0.2	389	390	16.5	72.3
2025-07-24T05:28	10	16	0.7	15	18	389	0.3	389	390	16.5	71.8
2025-07-24T05:29	10	14	0.6	13	15	389	0.2	389	389	16.5	72.3
2025-07-24T05:30	10	14	0.2	13	14	389	0.2	388	389	16.5	72.0
2025-07-24T05:31	10	14	0.2	14	15	389	0.2	388	389	16.5	72.5
2025-07-24T05:32	10	14	0.2	14	15	389	0.3	388	390	16.5	72.8
2025-07-24T05:33	10	16	0.6	15	16	390	0.2	389	390	16.5	72.1
2025-07-24T05:34	10	17	1.2	16	19	390	0.4	390	391	16.5	73.1
2025-07-24T05:35	10	28	4.7	19	37	392	0.9	390	394	16.5	72.9
2025-07-24T05:36	10	40	2.7	37	45	394	0.9	393	396	16.5	72.8
2025-07-24T05:37	10	48	2.8	43	53	396	0.6	394	397	16.6	72.4
2025-07-24T05:38	10	51	3.0	45	55	398	0.6	397	400	16.6	72.8
2025-07-24T05:39	10	42	6.6	35	51	399	0.7	397	400	16.7	72.1
2025-07-24T05:40	10	39	3.2	35	44	398	0.2	397	398	16.7	71.7
2025-07-24T05:41	10	44	3.2	41	50	399	0.4	398	400	16.8	71.4
2025-07-24T05:42	10	53	3.2	49	58	400	0.4	399	401	16.8	71.9
2025-07-24T05:43	10	41	6.8	32	52	400	0.6	399	401	16.8	71.9
2025-07-24T05:44	10	31	0.8	30	32	399	0.7	398	400	16.9	70.3
2025-07-24T05:45	10	29	0.6	28	30	398	0.5	397	399	16.9	71.0
2025-07-24T05:46	10	25	1.2	24	28	397	0.6	396	398	16.9	70.5
2025-07-24T05:47	10	24	0.5	24	25	396	0.3	396	397	16.9	70.6
2025-07-24T05:48	10	26	0.2	25	26	396	0.2	395	396	16.8	70.3
2025-07-24T05:49	10	26	0.6	25	27	396	0.4	395	396	16.8	70.2
2025-07-24T05:50	10	27	0.2	27	28	396	0.2	395	396	16.8	71.3
2025-07-24T05:51	10	27	0.3	26	27	396	0.2	395	396	16.8	71.6
2025-07-24T05:52	10	26	0.4	25	26	396	0.2	395	396	16.8	71.4
2025-07-24T05:53	10	24	0.2	24	25	396	0.3	395	396	16.8	70.1
2025-07-24T05:54	10	25	0.3	25	26	396	0.3	395	396	16.8	70.6
2025-07-24T05:55	10	26	0.3	26	27	396	0.3	395	397	16.8	70.5
2025-07-24T05:56	10	27	0.2	27	28	396	0.2	396	397	16.8	69.7
2025-07-24T05:57	10	30	1.7	27	33	397	0.3	396	397	16.8	70.5
2025-07-24T05:58	10	35	5.1	32	49	398	0.6	397	399	16.8	70.5
2025-07-24T05:59	10	60	3.7	50	65	401	1.4	398	403	16.8	70.6
2025-07-24T06:00	10	49	9.9	37	62	403	0.5	402	404	16.8	70.9
2025-07-24T06:01	10	53	8.5	40	65	403	0.7	402	404	16.9	71.7
2025-07-24T06:02	10	58	7.8	41	65	404	1.0	402	406	17.0	71.5
2025-07-24T06:03	10	47	6.4	39	60	405	0.8	403	406	17.0	72.0
2025-07-24T06:04	10	48	3.4	43	53	403	0.4	402	404	17.0	70.1
2025-07-24T06:05	10	49	2.2	45	53	403	0.5	402	404	17.0	70.0
2025-07-24T06:06	10	60	6.1	47	66	404	0.8	402	405	17.0	69.7
2025-07-24T06:07	10	58	2.6	54	63	404	0.6	403	405	17.1	70.0
2025-07-24T06:08	10	41	4.0	36	52	402	0.8	401	404	17.1	69.4
2025-07-24T06:09	10	50	5.0	41	60	402	0.3	401	402	17.1	69.2
2025-07-24T06:10	10	37	5.0	27	47	400	0.9	399	402	17.1	69.4
2025-07-24T06:11	10	24	1.1	22	27	398	0.9	396	400	17.1	69.8
2025-07-24T06:12	10	25	1.4	22	28	397	0.5	396	397	17.1	69.2
2025-07-24T06:13	10	30	2.3	27	35	396	0.3	396	397	17.1	68.2
2025-07-24T06:14	10	30	1.7	27	34	397	0.3	396	397	17.1	69.3
2025-07-24T06:15	10	23	3.3	19	30	396	0.4	395	397	17.1	69.7
2025-07-24T06:16	10	18	3.0	15	25	395	0.5	394	396	17.1	69.5
2025-07-24T06:17	10	14	0.3	14	15	394	0.4	393	395	17.0	69.7
2025-07-24T06:18	10	14	0.2	13	14	393	0.3	392	394	17.0	69.2
2025-07-24T06:19	10	13	0.2	13	14	392	0.3	392	393	17.0	69.9
2025-07-24T06:20	10	13	0.2	13	13	392	0.3	391	393	17.0	69.5
2025-07-24T06:21	10	13	0.2	12	14	392	0.2	391	392	17.0	69.0
2025-07-24T06:22	10	13	0.4	12	14	391	0.2	391	392	17.0	69.6
2025-07-24T06:23	10	15	0.7	14	16	391	0.2	391	392	17.0	69.6
2025-07-24T06:24	10	21	3.5	16	29	392	0.5	391	394	16.9	69.5
2025-07-24T06:25	10	35	11.7	22	54	394	1.1	393	397	16.9	69.9
2025-07-24T06:26	10	42	7.0	33	54	397	0.8	396	399	16.9	70.2
2025-07-24T06:27	10	53	6.8	42	63	399	1.0	397	401	17.0	70.1
2025-07-24T06:28	10	53	9.4	38	65	402	0.5	400	402	17.0	69.2
2025-07-24T06:29	10	62	4.6	52	69	403	1.1	401	405	17.1	68.8
2025-07-24T06:30	10	55	6.0	49	70	404	0.3	404	405	17.2	69.4
2025-07-24T06:31	10	52	6.4	43	61	404	0.4	403	405	17.2	69.3
2025-07-24T06:32	10	60	4.8	43	67	405	0.6	404	406	17.3	70.0
2025-07-24T06:33	10	75	4.1	68	80	408	1.0	405	410	17.3	70.6
2025-07-24T06:34	10	82	6.3	67	92	410	1.0	408	412	17.3	70.4
2025-07-24T06:35	10	92	1.9	88	95	413	0.8	411	414	17.4	69.1
2025-07-24T06:36	10	59	17.3	36	88	411	3.0	407	415	17.6	69.1
2025-07-24T06:37	10	52	11.8	37	75	407	1.2	406	410	17.5	67.6
2025-07-24T06:38	10	60	7.3	45	70	407	0.6	406	408	17.5	67.1
2025-07-24T06:39	10	63	9.3	44	74	407	0.6	406	409	17.5	66.7
2025-07-24T06:40	10	74	7.3	58	81	409	0.8	408	411	17.5	67.3
2025-07-24T06:41	10	65	14.2	34	79	410	0.8	408	411	17.5	67.3
2025-07-24T06:42	10	73	18.0	31	85	411	1.9	407	413	17.6	67.4
2025-07-24T06:43	10	87	1.5	85	90	413	0.5	412	415	17.7	66.8
2025-07-24T06:44	10	91	1.6	89	94	415	0.7	414	416	17.7	66.4
2025-07-24T06:45	10	88	2.0	85	91	417	0.5	416	418	17.8	67.4
2025-07-24T06:46	10	84	2.0	81	87	418	0.5	417	418	18.0	68.2
2025-07-24T06:47	10	83	3.2	79	90	416	0.8	414	417	17.9	65.7
2025-07-24T06:48	10	91	8.2	66	101	416	0.6	414	417	17.9	65.4
2025-07-24T06:49	10	49	13.7	34	69	411	2.5	407	415	17.9	65.4
2025-07-24T06:50	10	38	6.3	31	53	408	0.5	407	409	18.0	65.7
2025-07-24T06:51	10	70	16.6	37	93	409	2.0	406	413	18.0	65.3
2025-07-24T06:52	10	86	5.6	76	96	414	1.1	413	417	18.0	66.1
2025-07-24T06:53	10	97	1.9	92	99	418	0.8	416	419	18.0	65.8
2025-07-24T06:54	10	98	0.5	97	99	420	0.6	419	421	18.1	66.3
2025-07-24T06:55	10	93	7.1	75	98	420	0.6	419	421	18.3	64.6
2025-07-24T06:56	10	94	5.4	84	99	419	0.6	418	420	18.1	64.0
2025-07-24T06:57	10	95	6.3	75	99	419	0.4	418	419	18.1	64.2
2025-07-24T06:58	10	87	4.7	75	94	418	0.4	417	419	18.1	64.2
2025-07-24T06:59	10	92	4.9	83	97	418	0.6	418	419	18.1	64.1
2025-07-24T07:00	10	94	1.0	92	95	420	0.5	419	421	18.1	63.8
2025-07-24T07:01	10	96	0.6	94	97	420	0.4	420	422	18.1	64.0
2025-07-24T07:02	10	96	0.5	95	97	421	0.3	420	421	18.1	64.2
2025-07-24T07:03	10	99	0.9	97	101	422	0.3	421	422	18.2	64.5
2025-07-24T07:04	10	102	0.5	101	103	423	0.6	422	425	18.3	64.2
2025-07-24T07:05	10	104	0.8	101	104	424	0.6	423	424	18.3	63.5
2025-07-24T07:06	10	104	0.5	102	104	424	0.6	423	425	18.3	63.4
2025-07-24T07:07	10	101	1.9	96	103	424	0.2	424	425	18.4	62.4
2025-07-24T07:08	10	92	2.7	86	96	424	0.8	422	425	18.5	62.2
2025-07-24T07:09	10	80	4.4	73	87	422	1.3	419	424	18.4	62.1
2025-07-24T07:10	10	80	5.6	74	88	420	0.6	419	421	18.3	61.7
2025-07-24T07:11	10	92	3.7	87	99	422	0.5	421	424	18.2	62.3
2025-07-24T07:12	10	102	3.4	96	106	424	0.7	423	426	18.1	62.6
2025-07-24T07:13	10	104	6.4	78	112	426	0.4	425	427	18.3	62.6
2025-07-24T07:14	10	74	11.7	57	96	423	1.1	421	426	18.3	62.0
2025-07-24T07:15	10	73	12.9	59	100	423	1.4	420	425	18.3	61.8
2025-07-24T07:16	10	59	1.9	58	64	421	0.5	420	422	18.5	61.1
2025-07-24T07:17	10	65	1.6	60	68	421	0.6	420	422	18.5	61.8
2025-07-24T07:18	10	66	8.7	59	85	422	0.9	420	423	18.4	63.4
2025-07-24T07:19	10	61	0.9	59	62	420	0.3	419	421	18.5	62.6
2025-07-24T07:20	10	79	18.3	62	125	421	1.0	419	423	18.3	62.3
2025-07-24T07:21	10	138	13.5	108	151	427	3.8	420	433	18.2	62.4
2025-07-24T07:22	10	125	18.1	99	150	433	1.0	431	435	18.4	62.7
2025-07-24T07:23	10	151	2.0	146	153	437	1.2	434	439	18.6	62.4
2025-07-24T07:24	10	135	10.3	123	153	437	0.9	436	439	18.6	62.1
2025-07-24T07:25	10	148	1.4	144	150	439	1.0	437	441	18.9	60.8
2025-07-24T07:26	10	148	0.6	146	149	441	0.3	440	441	18.8	60.1
2025-07-24T07:27	10	145	0.9	143	146	440	0.3	440	441	18.8	60.2
2025-07-24T07:28	10	142	1.1	140	143	440	0.5	439	441	18.9	61.3
2025-07-24T07:29	10	140	0.6	139	141	440	0.4	439	441	18.8	60.7
2025-07-24T07:30	10	142	0.9	140	143	441	0.2	440	441	18.8	60.7
2025-07-24T07:31	10	145	1.1	143	147	441	0.3	440	441	18.8	60.6
2025-07-24T07:32	10	130	19.0	97	149	441	1.4	438	442	19.0	61.2
2025-07-24T07:33	10	117	16.9	95	142	438	2.8	433	441	18.9	61.3
2025-07-24T07:34	10	91	11.6	71	113	432	1.2	430	435	18.5	61.8
2025-07-24T07:35	10	82	9.0	67	98	430	0.6	429	432	18.6	62.3
2025-07-24T07:36	10	82	12.5	62	108	429	1.1	427	431	19.0	62.5
2025-07-24T07:37	10	85	25.7	49	122	425	1.8	423	429	18.9	61.2
2025-07-24T07:38	10	121	0.4	120	121	431	1.6	428	433	18.9	61.7
2025-07-24T07:39	10	125	1.8	121	127	435	1.1	433	436	19.1	61.0
2025-07-24T07:40	10	115	5.3	108	125	436	0.3	435	437	19.3	60.7
2025-07-24T07:41	10	116	7.6	105	128	435	0.5	434	436	19.1	60.6
2025-07-24T07:42	10	94	22.1	47	125	433	1.5	428	435	19.0	61.7
2025-07-24T07:43	10	71	25.8	40	116	428	1.7	425	431	18.9	61.8
2025-07-24T07:44	10	37	1.0	36	40	422	2.3	418	427	18.9	62.0
2025-07-24T07:45	10	37	0.8	36	39	418	0.6	417	419	18.6	62.4
2025-07-24T07:46	10	41	1.3	39	44	417	0.3	416	418	18.8	62.9
2025-07-24T07:47	10	46	1.1	44	47	417	0.5	416	417	18.8	62.1
2025-07-24T07:48	10	49	0.6	48	50	416	0.3	416	417	18.6	62.1
2025-07-24T07:49	10	51	0.6	50	52	416	0.3	415	417	18.5	62.2
2025-07-24T07:50	10	53	0.8	51	54	418	0.7	417	419	18.6	62.3
2025-07-24T07:51	10	55	1.2	54	61	419	0.7	418	421	18.7	62.4
2025-07-24T07:52	10	62	3.6	58	68	422	1.1	420	424	18.7	62.1
2025-07-24T07:53	10	63	0.9	61	65	423	0.5	422	424	18.8	62.3
2025-07-24T07:54	10	62	0.3	61	62	422	0.5	421	423	18.7	61.8
2025-07-24T07:55	10	62	0.2	62	63	423	0.5	422	424	18.7	62.6
2025-07-24T07:56	10	64	0.5	63	65	422	0.4	422	423	18.7	62.2
2025-07-24T07:57	10	66	1.0	64	68	424	0.7	423	425	18.8	63.4
2025-07-24T07:58	10	70	1.2	68	72	425	0.3	424	425	18.9	62.3
2025-07-24T07:59	10	73	0.4	72	74	425	0.3	424	425	18.7	61.9
2025-07-24T08:00	10	75	0.5	74	75	425	0.3	424	426	18.5	62.2
2025-07-24T08:01	10	77	1.0	75	78	426	0.3	425	426	18.6	62.5
2025-07-24T08:02	10	78	0.5	77	79	426	0.5	426	427	18.6	62.1
2025-07-24T08:03	10	80	0.8	78	82	428	0.4	427	429	18.6	62.3
2025-07-24T08:04	10	83	1.3	81	84	429	0.3	428	430	18.6	62.2
2025-07-24T08:05	10	90	5.4	81	99	431	1.1	429	433	18.6	61.9
2025-07-24T08:06	10	86	4.1	81	95	431	0.7	430	432	18.8	61.4
2025-07-24T08:07	10	85	2.8	81	91	431	1.0	430	433	19.0	62.0
2025-07-24T08:08	10	143	35.6	91	188	439	6.3	431	447	19.2	59.5
2025-07-24T08:09	10	90	9.9	83	120	439	3.3	434	445	19.5	60.5
2025-07-24T08:10	10	86	1.6	83	89	433	0.9	431	435	19.4	59.0
2025-07-24T08:11	10	84	1.6	83	90	431	0.5	430	432	19.2	58.2
2025-07-24T08:12	10	102	17.4	89	148	432	1.1	430	435	19.2	59.3
2025-07-24T08:13	10	126	34.1	86	174	438	2.4	434	442	19.0	58.8
2025-07-24T08:14	10	86	0.4	85	87	433	1.2	431	436	19.0	59.0
2025-07-24T08:15	10	86	0.6	85	88	431	0.4	431	432	19.0	58.9
2025-07-24T08:16	10	121	29.4	87	171	436	4.7	431	444	19.0	59.0
2025-07-24T08:17	10	94	6.4	90	124	437	3.0	433	443	19.1	58.5
2025-07-24T08:18	10	93	4.6	88	101	435	1.0	434	437	19.2	59.1
2025-07-24T08:19	10	95	13.8	87	128	434	1.0	433	437	19.2	57.9
2025-07-24T08:20	10	94	11.0	85	119	435	1.3	433	437	19.1	58.1
2025-07-24T08:21	10	84	0.5	84	86	433	0.6	432	434	19.3	58.1
2025-07-24T08:22	10	93	11.0	86	128	433	0.8	432	435	19.3	57.7
2025-07-24T08:23	10	111	23.8	87	155	436	2.8	433	440	19.3	57.7
2025-07-24T08:24	10	86	2.5	84	95	436	1.4	433	439	19.4	57.8
2025-07-24T08:25	10	101	18.8	84	148	434	0.9	433	436	19.3	56.8
2025-07-24T08:26	10	79	1.9	76	84	432	1.3	429	434	19.1	57.3
2025-07-24T08:27	10	75	0.8	74	77	429	0.4	428	430	19.1	57.4
2025-07-24T08:28	10	73	0.5	72	74	429	0.4	429	430	19.1	57.5
2025-07-24T08:29	10	71	0.5	70	72	430	0.3	429	430	19.2	57.4
2025-07-24T08:30	10	70	0.4	69	70	430	0.4	429	431	19.2	58.3
2025-07-24T08:31	10	69	0.7	67	69	430	0.2	430	431	19.4	58.8
2025-07-24T08:32	10	66	0.5	65	67	430	0.2	430	431	19.5	58.5
2025-07-24T08:33	10	65	0.3	64	65	429	0.8	428	431	19.6	58.4
2025-07-24T08:34	10	64	0.1	64	65	429	0.3	428	429	19.6	57.6
2025-07-24T08:35	10	64	0.1	64	64	427	0.8	425	428	19.6	57.4
2025-07-24T08:36	10	65	0.2	64	65	426	0.5	425	427	19.3	57.9
2025-07-24T08:37	10	65	0.2	65	66	427	0.3	426	427	19.3	58.0
2025-07-24T08:38	10	66	0.2	66	66	426	0.4	425	427	19.2	57.5
2025-07-24T08:39	10	67	0.2	66	67	427	0.9	425	429	19.2	58.0
2025-07-24T08:40	10	67	0.1	67	67	428	0.4	427	429	19.2	57.8
2025-07-24T08:41	10	68	0.1	67	68	427	0.3	427	428	19.3	56.8
2025-07-24T08:42	10	67	0.1	67	68	427	0.2	427	428	19.3	56.5
2025-07-24T08:43	10	67	0.2	67	67	427	0.3	426	428	19.3	57.1
2025-07-24T08:44	10	67	0.1	66	67	428	0.5	427	429	19.2	57.8
2025-07-24T08:45	10	66	0.3	65	66	428	0.4	428	429	19.3	58.0
2025-07-24T08:46	10	65	0.2	65	65	428	0.3	428	429	19.3	58.1
2025-07-24T08:47	10	65	0.1	64	65	427	0.5	426	428	19.4	58.2
2025-07-24T08:48	10	65	0.2	65	65	426	0.7	425	428	19.3	57.4
2025-07-24T08:49	10	66	0.5	66	67	425	0.4	425	426	19.3	56.9
2025-07-24T08:50	10	68	0.7	67	70	427	0.8	425	428	19.2	57.6
2025-07-24T08:51	10	71	0.9	70	73	428	0.5	427	429	19.4	57.6
2025-07-24T08:52	10	75	0.9	73	76	430	0.6	428	431	19.4	56.8
2025-07-24T08:53	10	78	0.8	76	79	429	0.4	429	430	19.4	57.0
2025-07-24T08:54	10	80	0.7	79	81	430	0.6	429	432	19.4	57.2
2025-07-24T08:55	10	82	0.7	81	84	432	0.7	431	433	19.7	58.6
2025-07-24T08:56	10	84	0.4	84	85	433	0.2	432	433	19.7	56.5
2025-07-24T08:57	10	86	0.4	85	87	432	0.7	431	433	19.8	55.5
2025-07-24T08:58	10	87	0.3	86	87	431	0.3	430	432	19.6	54.2
2025-07-24T08:59	10	89	0.6	88	90	431	0.7	430	432	19.5	54.8
2025-07-24T09:00	10	89	0.5	89	90	431	0.6	430	432	19.6	54.9
2025-07-24T09:01	10	93	1.5	90	95	433	0.8	432	434	19.7	55.4
2025-07-24T09:02	10	95	0.6	94	96	435	0.5	434	436	19.7	54.8
2025-07-24T09:03	10	98	1.4	96	101	435	0.3	435	436	19.8	55.5
2025-07-24T09:04	10	102	0.2	102	103	436	0.6	435	438	19.9	54.7
2025-07-24T09:05	10	103	0.8	102	105	435	0.6	434	436	19.7	54.2
2025-07-24T09:06	10	113	6.4	105	129	436	1.2	433	438	19.5	54.8
2025-07-24T09:07	10	105	3.0	103	113	439	0.4	438	440	19.5	55.0
2025-07-24T09:08	10	112	12.4	100	138	440	1.3	438	442	19.5	54.9
2025-07-24T09:09	10	124	28.7	99	190	442	3.8	438	449	19.6	55.0
2025-07-24T09:10	10	107	3.8	104	119	442	1.6	440	446	19.6	54.4
2025-07-24T09:11	10	119	22.2	104	179	442	2.4	440	447	19.5	54.7
2025-07-24T09:12	10	114	8.3	104	129	443	1.1	441	445	19.5	55.1
2025-07-24T09:13	10	107	14.4	97	150	442	2.1	439	446	19.5	55.3
2025-07-24T09:14	10	119	25.8	97	182	444	2.7	440	449	19.6	55.4
2025-07-24T09:15	10	99	2.0	97	105	440	1.5	438	443	19.6	55.4
2025-07-24T09:16	10	105	11.6	95	133	440	1.0	438	442	19.6	55.3
2025-07-24T09:17	10	93	2.1	91	99	438	2.0	435	441	19.7	55.6
2025-07-24T09:18	10	121	38.4	93	205	438	3.5	435	448	19.6	55.4
2025-07-24T09:19	10	122	37.7	95	206	447	3.1	442	452	19.7	55.1
2025-07-24T09:20	10	117	18.2	96	160	444	2.0	441	448	19.9	55.0
2025-07-24T09:21	10	165	10.0	143	176	454	2.3	447	456	20.0	54.7
2025-07-24T09:22	10	157	14.9	133	177	453	3.2	448	457	20.2	55.2
2025-07-24T09:23	10	149	18.2	108	168	452	1.7	448	454	20.0	54.6
2025-07-24T09:24	10	171	6.7	160	185	452	0.8	450	454	19.8	54.7
2025-07-24T09:25	10	178	12.1	148	192	456	1.1	454	459	19.8	54.8
2025-07-24T09:26	10	185	3.9	179	192	460	1.1	458	463	19.9	55.3
2025-07-24T09:27	10	164	30.6	115	192	460	3.2	453	463	19.9	55.2
2025-07-24T09:28	10	103	23.2	74	136	449	4.3	441	455	19.9	55.1
2025-07-24T09:29	10	84	13.1	72	105	441	1.3	439	444	19.8	55.3
2025-07-24T09:30	10	88	13.2	67	105	442	2.0	438	444	20.0	55.6
2025-07-24T09:31	10	81	8.2	68	95	436	1.4	434	440	20.0	53.8
2025-07-24T09:32	10	80	7.9	72	95	435	1.0	433	437	19.9	54.2
2025-07-24T09:33	10	67	2.6	64	75	432	0.8	431	434	19.8	54.2
2025-07-24T09:34	10	69	2.7	64	73	432	0.4	431	433	19.8	55.6
2025-07-24T09:35	10	78	2.3	74	83	433	0.8	432	435	19.9	54.7
2025-07-24T09:36	10	78	1.6	75	81	435	0.6	434	436	19.8	55.4
2025-07-24T09:37	10	85	4.9	78	94	437	1.1	435	438	19.7	55.4
2025-07-24T09:38	10	111	21.2	80	134	441	3.8	437	447	19.8	55.3
2025-07-24T09:39	10	139	12.0	121	164	448	2.5	444	452	19.8	54.6
2025-07-24T09:40	10	169	18.7	121	189	454	3.8	448	460	20.0	55.4
2025-07-24T09:41	10	191	3.5	184	197	463	1.9	459	465	20.1	55.1
2025-07-24T09:42	10	184	4.6	172	189	465	0.4	464	465	20.5	53.8
2025-07-24T09:43	10	158	21.1	108	181	465	1.8	460	467	20.7	55.6
2025-07-24T09:44	10	90	6.2	82	103	452	5.1	446	463	20.7	52.5
2025-07-24T09:45	10	91	18.2	67	129	445	1.5	443	448	20.2	51.7
2025-07-24T09:46	10	64	1.6	61	67	439	2.5	435	445	20.2	52.5
2025-07-24T09:47	10	60	0.6	59	62	434	1.0	433	437	20.0	52.1
2025-07-24T09:48	10	71	8.8	62	102	435	0.8	433	436	20.1	52.7
2025-07-24T09:49	10	115	12.0	94	133	442	2.5	435	445	20.1	53.0
2025-07-24T09:50	10	77	9.0	69	97	440	2.1	437	444	20.1	51.6
2025-07-24T09:51	10	71	1.1	69	73	437	0.7	436	438	20.1	51.3
2025-07-24T09:52	10	96	15.2	73	120	438	1.8	436	442	20.0	51.4
2025-07-24T09:53	10	157	24.9	118	192	448	5.8	440	458	20.0	51.4
2025-07-24T09:54	10	108	28.4	87	189	450	4.8	445	458	20.0	51.4
2025-07-24T09:55	10	119	6.7	107	133	449	1.3	446	450	20.0	51.4
2025-07-24T09:56	10	101	14.2	87	132	448	1.9	445	451	20.0	51.4
2025-07-24T09:57	10	91	5.4	85	100	444	0.7	443	446	20.0	51.4
2025-07-24T09:58	10	146	47.3	94	214	450	6.1	444	462	20.0	51.4
2025-07-24T09:59	10	115	48.6	71	206	454	6.4	444	463	20.0	51.4
2025-07-24T10:00	10	67	1.8	65	71	442	2.4	438	447	20.0	51.4
2025-07-24T10:01	10	63	0.5	63	65	437	1.3	435	440	20.2	52.1
2025-07-24T10:02	10	63	0.3	62	63	436	0.6	434	437	20.1	52.6
2025-07-24T10:03	10	61	0.6	60	62	433	0.7	432	435	20.1	52.7
2025-07-24T10:04	10	60	1.2	58	62	433	0.5	432	434	20.2	53.2
2025-07-24T10:05	10	60	2.9	57	66	431	0.4	431	432	20.2	52.8
2025-07-24T10:06	10	55	1.1	53	57	431	0.9	429	432	20.1	53.3
2025-07-24T10:07	10	51	0.8	50	53	428	0.3	428	429	20.0	52.7
2025-07-24T10:08	10	50	0.3	49	50	428	0.3	428	429	20.1	53.5
2025-07-24T10:09	10	51	1.1	49	53	429	0.2	429	430	20.1	53.1
2025-07-24T10:10	10	57	2.0	53	60	430	0.9	429	432	20.1	53.0
2025-07-24T10:11	10	64	2.4	60	68	432	0.7	431	433	20.1	52.4
2025-07-24T10:12	10	72	3.9	66	80	435	1.1	433	436	20.3	53.3
2025-07-24T10:13	10	64	0.5	64	66	435	0.4	434	436	20.4	52.9
2025-07-24T10:14	10	63	0.7	61	64	434	0.3	433	435	20.4	52.8
2025-07-24T10:15	10	62	0.5	61	63	433	0.4	432	434	20.4	53.1
2025-07-24T10:16	10	71	8.3	63	94	434	1.1	432	437	20.4	53.2
2025-07-24T10:17	10	114	17.4	94	143	443	3.2	435	446	20.5	54.6
2025-07-24T10:18	10	172	48.0	95	214	451	7.5	442	463	20.5	52.7
2025-07-24T10:19	10	212	1.0	211	214	465	2.9	460	470	20.5	52.7
2025-07-24T10:20	10	208	1.4	206	212	471	1.1	469	473	20.6	52.5
2025-07-24T10:21	10	204	0.9	201	207	472	0.5	471	473	20.6	52.5
2025-07-24T10:22	10	204	1.4	200	206	474	1.1	472	475	20.7	53.4
2025-07-24T10:23	10	205	0.2	205	206	475	0.3	474	476	21.0	51.6
2025-07-24T10:24	10	189	30.3	101	205	475	1.8	469	477	21.0	50.9
2025-07-24T10:25	10	181	30.0	100	198	473	3.1	467	477	21.1	52.7
2025-07-24T10:26	10	194	0.8	193	196	475	1.5	470	476	21.2	52.3
2025-07-24T10:27	10	194	0.2	194	194	470	0.5	469	472	20.9	52.3
2025-07-24T10:28	10	194	0.6	193	195	472	0.9	470	473	20.9	52.0
2025-07-24T10:29	10	192	0.6	191	193	475	0.6	473	476	21.0	51.2
2025-07-24T10:30	10	191	0.4	190	191	477	0.5	476	478	21.4	52.5
2025-07-24T10:31	10	183	13.6	155	194	477	1.3	474	479	21.4	51.3
2025-07-24T10:32	10	171	24.8	111	198	473	2.4	468	476	20.9	51.0
2025-07-24T10:33	10	188	4.1	180	194	472	1.3	470	474	20.6	50.8
2025-07-24T10:34	10	180	20.0	141	196	473	2.1	469	476	20.7	51.8
2025-07-24T10:35	10	189	9.4	169	198	477	1.3	474	479	21.2	52.4
2025-07-24T10:36	10	167	31.2	82	196	477	2.8	467	479	21.5	51.1
2025-07-24T10:37	10	53	5.9	50	77	454	7.2	444	471	20.9	49.2
2025-07-24T10:38	10	51	0.2	51	51	443	1.9	440	447	20.6	49.8
2025-07-24T10:39	10	51	0.1	51	51	440	0.8	439	441	20.5	50.3
2025-07-24T10:40	10	51	0.1	51	51	439	0.6	438	440	20.7	50.9
2025-07-24T10:41	10	51	0.2	51	52	437	0.3	436	437	20.7	51.0
2025-07-24T10:42	10	53	1.0	52	55	437	0.5	436	438	20.7	51.0
2025-07-24T10:43	10	89	37.2	55	156	440	3.8	437	449	20.8	51.4
2025-07-24T10:44	10	154	15.9	128	174	455	4.2	446	463	20.8	51.2
2025-07-24T10:45	10					466	3.3	461	470	21.0	51.4
2025-07-24T10:46	10	106	12.9	83	130	460	2.7	455	466	21.2	51.1
2025-07-24T10:47	10	80	1.3	78	83	452	2.3	449	457	21.1	50.2
2025-07-24T10:48	10	75	2.3	71	78	448	1.3	446	450	21.1	50.6
2025-07-24T10:49	10	75	2.2	71	78	446	0.5	445	447	21.1	51.6
2025-07-24T10:50	10	78	1.5	77	82	446	0.7	445	448	21.2	51.4
2025-07-24T10:51	10	72	2.0	71	79	443	2.7	440	448	20.9	48.8
2025-07-24T10:52	10	74	0.6	73	75	440	0.4	439	441	20.7	49.3
2025-07-24T10:53	10	73	0.2	73	74	441	0.9	439	442	20.7	49.4
2025-07-24T10:54	10	73	0.3	73	74	440	0.3	440	441	20.7	48.5
2025-07-24T10:55	10	73	0.5	72	74	441	0.7	440	442	20.7	48.8
2025-07-24T10:56	10	71	0.9	69	72	441	0.2	440	441	20.7	48.2
2025-07-24T10:57	10	67	1.1	66	69	440	0.4	439	441	20.8	48.2
2025-07-24T10:58	10	65	0.2	65	66	439	1.1	436	440	20.8	48.2
2025-07-24T10:59	10	64	0.3	64	65	435	1.1	433	437	20.8	46.3
2025-07-24T11:00	10	65	0.4	64	66	434	0.9	432	435	21.0	45.9
2025-07-24T11:01	10	65	0.1	65	65	434	1.0	432	436	21.0	46.3
2025-07-24T11:02	10	65	0.3	64	66	430	1.1	429	433	20.9	49.2
2025-07-24T11:03	10	65	0.2	65	65	429	0.4	428	430	20.7	51.2
2025-07-24T11:04	10	66	0.7	65	68	428	0.7	427	430	20.4	52.3
2025-07-24T11:05	10	67	0.3	67	68	428	0.4	427	429	20.5	52.4
2025-07-24T11:06	10	68	0.2	68	69	427	1.0	425	429	20.3	52.8
2025-07-24T11:07	10	69	0.3	68	70	427	0.8	426	429	20.6	52.3
2025-07-24T11:08	10	68	0.4	68	70	428	0.6	427	429	20.4	52.0
2025-07-24T11:09	10	67	0.6	66	68	429	0.5	427	430	20.7	52.2
2025-07-24T11:10	10	67	0.9	66	72	428	0.5	427	429	20.6	52.2
2025-07-24T11:11	10	67	0.3	66	68	425	1.1	423	427	20.0	52.7
2025-07-24T11:12	10	65	0.6	64	67	423	0.3	423	424	19.7	53.4
2025-07-24T11:13	10	65	0.5	64	66	424	0.8	422	425	19.8	53.5
2025-07-24T11:14	10	71	3.5	66	77	425	1.0	423	427	19.9	53.3
2025-07-24T11:15	10	105	24.7	77	157	431	3.0	426	438	20.2	52.6
2025-07-24T11:16	10	99	24.3	67	155	435	1.6	432	437	20.2	52.8
2025-07-24T11:17	10	64	0.7	64	66	433	1.3	430	434	20.5	52.4
2025-07-24T11:18	10	71	9.7	64	108	430	1.0	429	434	20.3	52.5
2025-07-24T11:19	10	101	10.3	88	124	437	1.0	432	438	20.6	52.4
2025-07-24T11:20	10	131	25.1	80	180	441	2.3	435	445	20.4	52.0
2025-07-24T11:21	10	73	2.8	70	81	435	1.6	434	440	20.1	52.4
2025-07-24T11:22	10	82	11.2	69	114	437	1.2	434	439	20.5	51.9
2025-07-24T11:23	10	65	1.4	63	69	431	2.2	428	435	20.4	51.0
2025-07-24T11:24	10	62	0.9	60	64	429	0.7	427	430	20.3	51.3
2025-07-24T11:25	10	60	0.4	59	61	427	0.4	426	428	20.4	51.2
2025-07-24T11:26	10	58	0.4	58	59	426	0.8	424	427	20.3	51.1
2025-07-24T11:27	10	57	0.4	57	58	426	0.5	425	427	20.4	50.8
2025-07-24T11:28	10	57	0.2	57	57	426	0.3	426	427	20.5	50.8
2025-07-24T11:29	10	57	0.2	57	57	425	0.3	425	426	20.3	50.9
2025-07-24T11:30	10	57	0.1	57	57	425	0.4	424	426	20.3	50.9
2025-07-24T11:31	10	57	0.1	56	57	425	0.3	424	425	20.3	50.6
2025-07-24T11:32	10	56	0.3	55	57	426	1.0	424	428	20.4	50.8
2025-07-24T11:33	10	55	0.4	54	55	426	0.4	425	427	20.4	50.9
2025-07-24T11:34	10	54	0.2	54	54	426	1.0	424	427	20.5	50.6
2025-07-24T11:35	10	55	0.4	54	56	424	0.3	423	424	20.4	50.9
2025-07-24T11:36	10	58	1.2	56	60	423	0.6	422	425	20.1	50.8
2025-07-24T11:37	10	61	0.6	60	61	424	0.4	423	424	20.2	51.1
2025-07-24T11:38	10	61	0.4	60	61	425	1.0	424	427	20.4	51.1
2025-07-24T11:39	10	59	0.6	58	60	426	0.3	425	427	20.6	50.7
2025-07-24T11:40	10	58	0.2	57	58	425	0.4	424	426	20.3	50.5
2025-07-24T11:41	10	58	0.2	58	58	425	0.4	424	426	20.2	50.7
2025-07-24T11:42	10	60	1.1	58	62	425	0.8	424	427	20.1	50.8
2025-07-24T11:43	10	64	1.4	62	67	427	0.6	425	428	20.4	51.3
2025-07-24T11:44	10	70	2.1	67	74	428	0.5	427	429	20.2	51.5
2025-07-24T11:45	10	80	4.2	74	89	431	1.3	429	433	20.4	51.5
2025-07-24T11:46	10	128	22.5	89	157	436	4.9	430	444	20.4	51.6
2025-07-24T11:47	10	172	23.9	125	213	447	4.4	441	456	20.5	51.5
2025-07-24T11:48	10	222	6.6	208	232	461	3.8	453	466	20.6	51.4
2025-07-24T11:49	10	183	46.2	81	227	464	4.3	452	470	20.7	51.2
2025-07-24T11:50	10	91	13.6	75	121	448	3.0	445	456	21.1	50.7
2025-07-24T11:51	10	79	6.1	63	90	441	3.3	435	447	20.8	51.3
2025-07-24T11:52	10	57	1.8	56	63	434	2.0	431	438	20.6	51.8
2025-07-24T11:53	10	55	0.8	54	57	431	0.5	430	433	20.5	51.8
2025-07-24T11:54	10	54	0.2	54	54	430	0.4	429	431	20.8	51.6
2025-07-24T11:55	10	55	1.0	54	57	429	0.3	428	430	20.7	51.4
2025-07-24T11:56	10	141	63.8	57	210	437	9.8	427	454	20.5	52.7
2025-07-24T11:57	10	204	1.4	203	209	457	3.6	450	462	20.6	53.5
2025-07-24T11:58	10	182	30.1	109	203	457	3.2	451	461	20.5	53.9
2025-07-24T11:59	10	121	45.0	66	201	450	5.2	444	459	20.4	54.2
2025-07-24T12:00	10	184	20.2	119	201	457	6.0	445	464	20.8	53.7
2025-07-24T12:01	10	200	3.2	192	203	465	1.1	462	466	20.9	53.7
2025-07-24T12:02	10	100	39.4	64	191	454	8.0	443	468	21.0	53.7
2025-07-24T12:03	10	78	20.6	61	133	443	1.8	440	447	21.0	53.1
2025-07-24T12:04	10	61	4.1	59	70	437	2.7	433	442	20.5	53.9
2025-07-24T12:05	10	62	2.1	59	68	433	1.0	432	435	20.5	54.3
2025-07-24T12:06	10	153	50.9	69	204	444	9.1	431	458	20.6	54.4
2025-07-24T12:07	10	197	1.9	191	200	458	3.0	453	463	20.8	54.1
2025-07-24T12:08	10	166	22.5	133	196	460	3.4	455	465	20.6	54.5
2025-07-24T12:09	10	195	1.3	190	196	464	2.1	459	468	20.7	54.3
2025-07-24T12:10	10	198	1.5	196	201	468	1.1	466	471	20.8	54.2
2025-07-24T12:11	10	203	0.8	201	204	470	1.0	468	472	21.0	54.0
2025-07-24T12:12	10	201	2.7	190	203	467	1.8	464	470	20.9	53.5
2025-07-24T12:13	10	183	5.5	171	190	465	0.8	463	466	20.5	54.1
2025-07-24T12:14	10	190	2.2	183	192	465	0.9	464	467	20.4	54.3
2025-07-24T12:15	10	169	14.4	136	187	464	2.4	458	467	20.4	54.2
2025-07-24T12:16	10	119	25.4	88	160	457	4.1	449	461	20.9	53.0
2025-07-24T12:17	10	103	22.2	74	134	449	2.6	444	452	20.2	53.6
2025-07-24T12:18	10	96	9.4	77	111	446	1.2	444	448	20.3	53.9
2025-07-24T12:19	10	112	11.3	97	128	450	1.1	447	452	20.2	53.4
2025-07-24T12:20	10	137	17.5	102	162	453	1.9	449	457	20.4	53.7
2025-07-24T12:21	10	201	16.4	163	217	464	4.6	455	471	20.6	52.9
2025-07-24T12:22	10	210	6.4	198	217	474	2.4	469	477	20.5	53.2
2025-07-24T12:23	10	206	1.1	204	208	478	1.1	476	480	20.9	53.2
2025-07-24T12:24	10	169	26.1	120	205	475	3.3	469	480	21.7	52.1
2025-07-24T12:25	10	185	28.0	116	202	469	1.2	467	473	21.2	51.5
2025-07-24T12:26	10	193	1.9	190	197	470	0.9	468	472	20.6	52.1
2025-07-24T12:27	10	189	0.8	187	190	471	1.9	468	474	20.6	52.5
2025-07-24T12:28	10	186	0.5	185	187	473	0.8	471	474	20.9	52.1
2025-07-24T12:29	10	185	0.5	184	185	473	0.5	472	474	21.4	52.0
2025-07-24T12:30	10	183	0.7	181	184	470	2.1	467	475	21.3	52.1
2025-07-24T12:31	10	180	0.9	179	182	470	1.8	468	474	20.7	52.9
2025-07-24T12:32	10	177	0.6	177	179	473	1.1	470	475	21.4	52.1
2025-07-24T12:33	10	176	0.2	176	177	469	0.8	468	471	21.1	51.7
2025-07-24T12:34	10	176	0.2	175	176	470	1.3	467	472	21.0	51.8
2025-07-24T12:35	10	175	0.3	174	176	469	0.3	468	469	20.9	51.6
2025-07-24T12:36	10	174	0.5	173	175	469	0.9	467	470	21.1	50.5
2025-07-24T12:37	10	172	0.5	171	173	468	0.9	466	470	21.0	50.6
2025-07-24T12:38	10	171	0.1	171	171	470	1.7	467	472	21.2	50.9
2025-07-24T12:39	10	171	0.2	171	171	471	1.4	469	473	21.8	50.3
2025-07-24T12:40	10	172	0.2	171	172	471	0.9	469	472	21.7	49.5
2025-07-24T12:41	10	172	0.1	172	172	472	1.1	470	474	21.7	49.8
2025-07-24T12:42	10	172	0.1	172	173	469	1.8	466	471	21.3	49.5
2025-07-24T12:43	10	173	0.2	173	173	470	1.2	468	473	20.9	50.9
2025-07-24T12:44	10	173	0.1	173	173	468	1.5	466	471	21.2	50.3
2025-07-24T12:45	10	173	0.1	172	173	467	0.9	466	470	21.6	48.2
2025-07-24T12:46	10	173	0.1	172	173	466	0.6	465	467	20.7	49.5
2025-07-24T12:47	10	173	0.2	173	173	470	0.8	467	471	21.0	49.5
2025-07-24T12:48	10	174	0.3	173	174	473	1.9	470	476	20.9	50.7
2025-07-24T12:49	10	175	0.2	174	175	471	1.2	470	473	21.1	48.3
2025-07-24T12:50	10	175	0.1	175	175	471	1.4	468	473	21.5	47.6
2025-07-24T12:51	10	175	0.2	175	176	467	1.5	465	471	21.2	48.8
2025-07-24T12:52	10	175	0.1	174	175	465	0.8	463	466	21.2	48.3
2025-07-24T12:53	10	174	0.2	174	175	466	0.6	465	468	20.8	46.9
2025-07-24T12:54	10	174	0.3	173	174	471	1.3	468	473	21.2	50.0
2025-07-24T12:55	10	173	0.2	172	173	469	0.5	468	470	21.2	50.5
2025-07-24T12:56	10	172	0.2	172	173	469	0.9	468	472	21.2	50.5
2025-07-24T12:57	10	172	0.2	171	172	469	0.7	468	470	21.1	49.7
2025-07-24T12:58	10	171	0.2	171	172	468	0.6	466	469	20.9	48.7
2025-07-24T12:59	10	170	0.2	170	171	471	1.6	468	473	21.0	49.3
2025-07-24T13:00	10	170	0.1	170	170	468	1.1	466	472	21.2	51.6
2025-07-24T13:01	10	170	0.1	170	170	467	0.9	464	467	20.9	52.0
2025-07-24T13:02	10	171	0.4	170	172	467	1.3	465	469	20.8	51.9
2025-07-24T13:03	10	172	0.2	172	173	467	1.0	465	469	20.8	51.6
2025-07-24T13:04	10	172	0.2	172	173	469	0.8	468	471	21.5	50.2
2025-07-24T13:05	10	171	0.6	170	172	470	0.8	469	471	21.4	50.4
2025-07-24T13:06	10	169	0.4	168	170	467	0.8	466	469	21.1	49.1
2025-07-24T13:07	10	167	0.5	167	168	470	0.9	467	471	21.1	50.2
2025-07-24T13:08	10	166	0.3	165	167	471	1.3	469	473	21.0	51.6
2025-07-24T13:09	10	165	0.1	165	165	475	1.3	473	477	21.4	52.0
2025-07-24T13:10	10	165	0.1	165	165	475	1.2	472	477	22.1	50.3
2025-07-24T13:11	10	165	0.2	164	165	469	3.0	464	473	21.5	49.4
2025-07-24T13:12	10	165	0.1	164	165	468	1.8	465	470	21.2	50.5
2025-07-24T13:13	10	164	0.1	164	165	468	1.5	466	471	21.6	49.3
2025-07-24T13:14	10	164	0.2	164	165	469	1.0	467	470	21.1	50.2
2025-07-24T13:15	10	165	0.2	165	165	472	2.6	467	475	21.0	50.2
2025-07-24T13:16	10	165	0.2	165	165	473	1.6	471	475	21.1	51.3
2025-07-24T13:17	10	164	0.3	164	165	472	1.3	470	474	20.9	53.2
2025-07-24T13:18	10	163	0.3	163	164	470	1.3	468	472	21.1	52.6
2025-07-24T13:19	10	162	0.2	162	163	469	1.6	465	472	21.4	49.7
2025-07-24T13:20	10	162	0.1	162	162	464	0.8	463	467	20.9	48.1
2025-07-24T13:21	10	162	0.1	162	162	463	0.9	462	465	20.7	50.1
2025-07-24T13:22	10	162	0.1	162	162	467	1.2	465	469	20.8	51.0
2025-07-24T13:23	10	162	0.2	161	162	470	1.0	468	471	20.9	51.5
2025-07-24T13:24	10	162	0.2	162	163	471	1.0	468	472	21.0	51.0
2025-07-24T13:25	10	162	0.1	162	163	473	0.8	471	474	21.5	51.5
2025-07-24T13:26	10	163	0.1	163	163	474	1.2	472	476	21.6	50.0
2025-07-24T13:27	10	163	0.1	163	163	470	1.2	468	473	21.3	49.6
2025-07-24T13:28	10	163	0.2	162	163	470	2.3	465	473	21.3	49.6
2025-07-24T13:29	10	162	0.2	162	163	465	0.5	464	466	20.9	50.1
2025-07-24T13:30	10	162	0.1	162	162	467	0.7	466	469	21.3	49.0
2025-07-24T13:31	10	162	0.1	162	162	468	0.4	467	469	21.2	48.5
2025-07-24T13:32	10	162	0.1	162	162	470	1.0	469	473	21.4	48.3
2025-07-24T13:33	10	162	0.2	162	162	473	0.5	472	474	21.6	47.9
2025-07-24T13:34	10	163	0.4	162	164	476	1.1	473	477	21.6	48.4
2025-07-24T13:35	10	165	1.0	164	167	476	0.5	475	477	21.8	48.1
2025-07-24T13:36	10	164	8.8	138	170	472	2.3	469	476	21.0	48.6
2025-07-24T13:37	10	148	13.9	124	171	471	3.0	466	475	21.2	49.1
2025-07-24T13:38	10	118	10.6	92	141	463	2.7	460	470	21.1	48.6
2025-07-24T13:39	10	125	18.4	99	160	460	1.5	457	463	21.0	48.7
2025-07-24T13:40	10	133	20.8	94	167	462	3.6	457	469	21.5	48.1
2025-07-24T13:41	10	154	38.0	81	195	472	3.1	466	476	21.6	47.5
2025-07-24T13:42	10	68	4.2	64	81	458	4.8	452	468	21.4	46.3
2025-07-24T13:43	10	74	4.1	69	81	453	0.4	452	454	21.3	47.0
2025-07-24T13:44	10	98	15.1	81	125	455	1.8	453	459	21.2	47.1
2025-07-24T13:45	10	147	27.0	117	189	462	4.5	457	470	21.0	47.1
2025-07-24T13:46	10	139	14.7	120	176	468	1.1	466	470	21.1	47.4
2025-07-24T13:47	10	139	23.9	93	171	469	1.7	466	472	21.6	47.8
2025-07-24T13:48	10	175	31.7	89	202	472	2.9	467	477	21.5	46.8
2025-07-24T13:49	10	140	22.2	88	178	465	1.7	462	470	21.6	46.0
2025-07-24T13:50	10	177	16.2	146	197	470	2.2	466	473	21.7	45.5
2025-07-24T13:51	10	146	29.5	107	195	467	2.7	462	471	21.7	44.9
2025-07-24T13:52	10	99	8.2	85	111	459	2.6	456	465	21.5	45.1
2025-07-24T13:53	10	91	27.7	65	138	455	3.5	449	459	21.4	45.1
2025-07-24T13:54	10	66	2.0	63	69	450	0.8	448	451	21.5	45.3
2025-07-24T13:55	10	63	1.1	62	65	444	2.6	441	448	21.5	44.3
2025-07-24T13:56	10	67	1.6	65	71	441	0.3	441	442	21.1	44.7
2025-07-24T13:57	10	66	6.3	61	91	440	0.7	439	442	21.2	44.7
2025-07-24T13:58	10	64	7.2	59	90	441	0.7	440	442	21.4	44.8
2025-07-24T13:59	10	60	1.1	59	63	440	0.5	440	442	21.5	44.2
2025-07-24T14:00	10	67	3.4	63	78	443	1.4	441	445	21.5	44.3
2025-07-24T14:01	10	145	42.9	79	196	453	7.5	443	465	21.7	46.0
2025-07-24T14:02	10	205	4.1	196	211	470	4.3	462	477	21.6	44.9
2025-07-24T14:03	10	168	50.7	82	209	472	5.7	458	477	21.8	44.8
2025-07-24T14:04	10	79	1.1	78	82	455	3.3	451	462	22.3	43.6
2025-07-24T14:05	10	85	8.2	78	107	450	1.0	449	453	22.0	43.4
2025-07-24T14:06	10	134	18.3	108	161	453	2.1	450	457	21.6	43.6
2025-07-24T14:07	10	146	37.4	64	181	459	3.2	453	464	21.4	44.3
2025-07-24T14:08	10	59	2.5	56	64	449	4.2	444	458	21.9	44.4
2025-07-24T14:09	10	52	2.1	49	56	441	2.0	437	445	21.7	44.5
2025-07-24T14:10	10	48	0.6	47	49	436	0.8	435	438	21.3	44.8
2025-07-24T14:11	10	47	0.3	46	48	436	0.3	435	437	21.4	44.9
2025-07-24T14:12	10	46	0.1	46	47	435	0.5	434	436	21.6	44.5
2025-07-24T14:13	10	46	0.1	46	46	434	0.3	433	435	21.9	44.1
2025-07-24T14:14	10	46	0.2	46	46	432	1.0	431	434	21.4	44.4
2025-07-24T14:15	10	45	0.2	45	46	432	0.5	431	434	21.4	44.5
2025-07-24T14:16	10	46	0.3	45	46	433	0.6	432	434	21.3	44.7
2025-07-24T14:17	10	45	0.2	44	45	434	0.4	433	435	21.4	45.5
2025-07-24T14:18	10	44	0.2	44	44	433	0.3	432	434	21.5	45.0
2025-07-24T14:19	10	44	0.1	44	44	431	0.4	430	432	21.3	45.5
2025-07-24T14:20	10	44	0.1	44	45	431	0.3	430	432	21.4	45.7
2025-07-24T14:21	10	45	0.1	44	45	431	0.3	430	431	21.3	45.3
2025-07-24T14:22	10	44	0.3	43	45	432	0.4	431	432	21.3	45.6
2025-07-24T14:23	10	43	0.3	43	44	431	0.4	431	432	21.4	45.8
2025-07-24T14:24	10	43	0.1	42	43	431	0.3	430	431	21.5	45.2
2025-07-24T14:25	10	43	0.2	43	44	431	0.3	430	432	21.4	45.6
2025-07-24T14:26	10	43	0.1	43	43	431	0.5	430	433	21.4	46.2
2025-07-24T14:27	10	43	0.1	43	43	432	0.4	431	432	21.4	46.9
2025-07-24T14:28	10	43	0.1	43	43	431	0.4	431	432	21.6	46.2
2025-07-24T14:29	10	43	0.2	42	43	431	0.4	430	431	21.6	46.1
2025-07-24T14:30	10	42	0.1	42	43	429	0.8	428	431	21.5	46.5
2025-07-24T14:31	10	42	0.1	42	42	429	0.3	428	429	21.2	46.7
2025-07-24T14:32	10	42	0.2	42	42	429	0.2	428	429	21.2	46.6
2025-07-24T14:33	10	42	0.2	42	43	430	0.4	429	431	21.3	46.5
2025-07-24T14:34	10	43	0.3	42	44	431	0.3	430	431	21.2	46.8
2025-07-24T14:35	10	44	0.4	43	45	430	0.4	430	431	21.2	46.7
2025-07-24T14:36	10	45	0.4	44	46	430	0.3	430	431	21.1	46.8
2025-07-24T14:37	10	46	0.4	45	47	431	0.3	430	432	21.2	47.2
2025-07-24T14:38	10	47	0.3	47	48	431	0.3	430	431	21.2	46.6
2025-07-24T14:39	10	48	0.2	47	48	431	0.4	430	432	21.2	46.3
2025-07-24T14:40	10	49	0.6	48	50	431	0.3	430	432	21.2	46.3
2025-07-24T14:41	10	52	0.8	50	53	430	0.5	430	432	21.2	46.5
2025-07-24T14:42	10	55	1.1	53	57	431	0.5	430	432	21.2	46.8
2025-07-24T14:43	10	59	1.4	57	62	434	0.9	432	435	21.1	46.7
2025-07-24T14:44	10	64	0.8	62	65	435	0.7	434	436	21.2	46.9
2025-07-24T14:45	10	71	9.0	64	101	437	0.9	436	440	21.2	46.5
2025-07-24T14:46	10	72	11.3	64	102	441	0.4	440	441	21.3	47.1
2025-07-24T14:47	10	62	0.7	61	64	441	0.4	440	441	21.4	46.9
2025-07-24T14:48	10	61	0.3	61	62	440	0.3	439	440	21.4	47.3
2025-07-24T14:49	10	61	0.3	60	62	439	0.6	438	440	21.4	46.1
2025-07-24T14:50	10	61	0.2	60	61	438	0.4	438	439	21.3	45.8
2025-07-24T14:51	10	102	44.5	60	177	443	5.4	438	455	21.4	46.5
2025-07-24T14:52	10	174	13.3	140	186	460	4.0	452	467	21.6	46.8
2025-07-24T14:53	10	148	45.7	68	185	465	3.5	456	468	21.9	45.5
2025-07-24T14:54	10	60	2.2	57	68	451	4.0	445	459	22.0	46.1
2025-07-24T14:55	10	57	0.3	56	58	444	1.3	442	447	21.7	45.0
2025-07-24T14:56	10	57	0.9	56	59	442	0.5	441	444	21.6	45.3
2025-07-24T14:57	10	65	4.5	59	72	443	0.4	442	444	21.6	46.1
2025-07-24T14:58	10	61	1.5	59	65	442	0.3	441	442	21.7	46.3
2025-07-24T14:59	10	59	0.4	58	60	442	0.4	441	443	21.8	47.0
2025-07-24T15:00	10	60	0.7	59	62	441	0.3	441	442	21.8	45.4
2025-07-24T15:01	10	61	0.2	61	62	442	0.4	441	442	21.8	45.8
2025-07-24T15:02	10	73	19.0	61	138	442	1.2	441	446	21.8	46.4
2025-07-24T15:03	10	75	25.4	63	145	444	2.0	441	448	21.8	47.0
2025-07-24T15:04	10	62	0.2	62	63	441	0.8	439	442	21.8	45.0
2025-07-24T15:05	10	63	3.3	61	73	440	0.6	438	441	21.8	46.2
2025-07-24T15:06	10	63	0.4	62	63	438	0.8	437	440	21.6	45.5
2025-07-24T15:07	10	62	0.4	61	63	438	0.6	437	440	21.4	45.6
2025-07-24T15:08	10	60	1.1	57	62	439	0.5	438	440	21.5	45.3
2025-07-24T15:09	10	56	1.2	53	58	438	0.4	437	439	21.5	45.7
2025-07-24T15:10	10	53	0.9	51	54	438	0.3	437	439	21.7	45.4
2025-07-24T15:11	10	50	1.0	48	52	436	0.6	436	438	21.5	44.9
2025-07-24T15:12	10	46	1.2	44	48	436	0.3	435	436	21.5	45.0
2025-07-24T15:13	10	42	1.3	40	44	435	0.3	435	436	21.7	45.9
2025-07-24T15:14	10	38	1.0	37	40	434	0.8	433	436	21.7	46.9
2025-07-24T15:15	10	35	0.9	33	37	432	0.5	431	433	21.7	47.2
2025-07-24T15:16	10	33	0.3	33	34	429	1.2	427	432	21.6	47.1
2025-07-24T15:17	10	33	0.2	33	34	427	0.3	426	428	21.5	46.5
2025-07-24T15:18	10	35	0.9	34	37	426	0.4	425	427	21.4	45.7
2025-07-24T15:19	10	40	1.5	37	44	427	0.9	425	428	21.4	46.0
2025-07-24T15:20	10	48	3.1	43	52	429	0.7	428	431	21.4	46.5
2025-07-24T15:21	10	56	9.0	48	78	431	1.2	429	433	21.5	47.4
2025-07-24T15:22	10	46	0.8	45	48	431	0.6	429	432	21.5	48.4
2025-07-24T15:23	10	43	1.0	42	45	429	0.2	429	430	21.5	48.7
2025-07-24T15:24	10	41	0.8	39	42	429	0.5	428	430	21.5	48.5
2025-07-24T15:25	10	38	1.1	36	39	429	0.3	428	429	21.4	48.7
2025-07-24T15:26	10	34	1.0	32	36	427	0.7	426	429	21.4	48.9
2025-07-24T15:27	10	31	0.6	30	32	426	0.5	425	427	21.4	49.0
2025-07-24T15:28	10	29	0.3	29	30	425	0.2	424	425	21.3	48.4
2025-07-24T15:29	10	29	0.1	29	29	424	0.3	424	425	21.3	48.3
2025-07-24T15:30	10	29	0.1	29	30	425	0.2	424	425	21.3	48.3
2025-07-24T15:31	10	30	0.5	29	31	424	0.3	424	425	21.3	48.5
2025-07-24T15:32	10	34	3.6	31	46	424	0.7	423	426	21.3	48.8
2025-07-24T15:33	10	40	3.2	36	46	427	0.6	425	428	21.3	48.5
2025-07-24T15:34	10	41	3.4	35	47	428	0.3	427	428	21.4	48.3
2025-07-24T15:35	10	34	0.7	33	35	427	0.2	426	427	21.4	48.0
2025-07-24T15:36	10	32	0.5	31	33	426	0.6	425	427	21.4	47.9
2025-07-24T15:37	10	30	0.6	29	31	425	0.3	425	426	21.3	47.7
2025-07-24T15:38	10	29	0.4	28	30	425	0.4	424	425	21.3	47.4
2025-07-24T15:39	10	28	0.3	27	29	425	0.3	424	425	21.2	47.7
2025-07-24T15:40	10	28	0.2	27	28	425	0.3	424	426	21.3	48.0
2025-07-24T15:41	10	28	0.2	27	28	424	0.4	423	425	21.4	48.7
2025-07-24T15:42	10	28	0.2	27	28	423	0.4	423	424	21.4	48.3
2025-07-24T15:43	10	28	0.3	27	29	422	0.5	421	423	21.3	47.4
2025-07-24T15:44	10	28	0.6	27	29	421	0.4	420	422	21.2	47.2
2025-07-24T15:45	10	26	0.7	25	27	421	0.3	420	421	21.2	47.5
2025-07-24T15:46	10	25	0.2	24	25	420	0.2	420	421	21.2	48.2
2025-07-24T15:47	10	25	0.2	24	25	420	0.4	419	421	21.2	49.7
2025-07-24T15:48	10	24	0.2	24	25	419	0.3	419	420	21.2	50.8
2025-07-24T15:49	10	24	0.2	24	25	418	0.5	417	419	21.2	49.2
2025-07-24T15:50	10	24	0.2	24	25	417	0.3	417	418	21.2	48.7
2025-07-24T15:51	10	24	0.4	23	24	417	0.2	416	417	21.2	48.4
2025-07-24T15:52	10	23	0.2	23	24	417	0.4	416	418	21.1	48.5
2025-07-24T15:53	10	23	0.3	22	23	417	0.2	417	417	21.1	48.2
2025-07-24T15:54	10	22	0.3	21	23	417	0.2	416	417	21.1	47.9
2025-07-24T15:55	10	21	0.2	21	22	417	0.4	416	418	21.0	48.2
2025-07-24T15:56	10	21	0.2	20	21	417	0.4	417	418	21.1	48.8
2025-07-24T15:57	10	20	0.1	20	21	418	0.3	417	419	21.1	48.8
2025-07-24T15:58	10	20	0.2	20	21	418	0.2	418	419	21.1	47.2
2025-07-24T15:59	10	20	0.1	20	21	418	0.2	418	419	21.1	47.5
2025-07-24T16:00	10	21	0.3	21	21	419	0.2	418	419	21.1	47.0
2025-07-24T16:01	10	22	0.1	21	22	419	0.2	419	420	21.2	47.3
2025-07-24T16:02	10	22	0.1	21	22	420	0.2	419	420	21.2	47.7
2025-07-24T16:03	10	22	0.1	21	22	420	0.3	419	420	21.2	48.2
2025-07-24T16:04	10	22	0.2	22	22	421	0.2	420	421	21.3	47.7
2025-07-24T16:05	10	22	0.1	22	22	421	0.3	420	421	21.3	47.0
2025-07-24T16:06	10	22	0.1	22	22	421	0.3	420	421	21.5	47.7
2025-07-24T16:07	10	22	0.1	22	22	420	0.6	419	421	21.3	49.6
2025-07-24T16:08	10	22	0.1	22	22	419	0.4	418	419	21.2	50.5
2025-07-24T16:09	10	21	0.4	20	22	419	0.2	418	419	21.2	51.9
2025-07-24T16:10	10	19	0.6	18	20	418	0.5	418	419	21.1	52.3
2025-07-24T16:11	10	17	0.6	16	18	417	0.6	416	419	20.8	55.5
2025-07-24T16:12	10	16	0.5	15	17	416	0.6	415	417	20.5	56.7
2025-07-24T16:13	10	14	0.4	13	15	415	0.3	414	416	20.4	57.7
2025-07-24T16:14	10	13	0.3	12	14	415	0.2	414	415	20.3	57.9
2025-07-24T16:15	10	12	0.3	11	13	414	0.3	414	415	20.2	58.2
2025-07-24T16:16	10	11	0.2	11	11	414	0.2	413	414	20.2	57.5
2025-07-24T16:17	10	11	0.1	11	11	414	0.2	413	414	20.2	57.6
2025-07-24T16:18	10	11	0.1	10	11	413	0.2	413	414	20.2	57.7
2025-07-24T16:19	10	10	0.1	10	11	413	0.3	412	414	20.2	57.5
2025-07-24T16:20	10	10	0.2	10	10	413	0.2	413	414	20.2	58.0
2025-07-24T16:21	10	9	0.2	9	10	413	0.2	412	413	20.2	58.2
2025-07-24T16:22	10	9	0.2	8	9	413	0.3	412	414	20.2	58.5
2025-07-24T16:23	10	8	0.2	7	8	413	0.3	412	413	20.1	58.9
2025-07-24T16:24	10	7	0.2	7	8	412	0.2	412	413	20.1	59.5
2025-07-24T16:25	10	7	0.2	6	7	412	0.2	412	413	20.1	59.7
2025-07-24T16:26	10	6	0.2	6	7	412	0.2	412	413	20.1	60.2
2025-07-24T16:27	10	6	0.1	6	6	412	0.3	411	413	20.1	59.8
2025-07-24T16:28	10	6	0.1	5	6	411	0.2	411	411	20.0	59.0
2025-07-24T16:29	10	5	0.1	5	6	411	0.3	410	411	20.0	58.8
2025-07-24T16:30	10	5	0.1	5	5	411	0.2	410	411	19.9	58.9
2025-07-24T16:31	10	5	0.2	4	5	410	0.2	410	411	19.9	59.2
2025-07-24T16:32	10	5	0.1	4	5	410	0.3	410	411	19.9	59.6
2025-07-24T16:33	10	4	0.1	4	5	410	0.2	410	411	19.9	60.2
2025-07-24T16:34	10	4	0.1	4	5	410	0.3	409	410	19.8	60.7
2025-07-24T16:35	10	4	0.1	4	5	408	0.7	406	409	19.7	61.7
2025-07-24T16:36	10	5	0.1	5	5	406	0.8	404	407	19.6	62.8
2025-07-24T16:37	10	5	0.1	5	5	403	0.9	402	405	19.4	64.0
2025-07-24T16:38	10	5	0.1	5	6	402	0.3	401	402	19.1	65.9
2025-07-24T16:39	10	5	0.1	5	5	402	0.6	401	403	19.1	66.7
2025-07-24T16:40	10	5	0.1	5	6	402	0.3	401	402	19.2	65.5
2025-07-24T16:41	10	6	0.2	6	6	402	0.6	401	403	19.1	66.6
2025-07-24T16:42	10	7	0.2	6	7	402	0.4	401	403	19.1	66.7
2025-07-24T16:43	10	7	0.1	7	7	402	0.4	401	403	19.0	67.8
2025-07-24T16:44	10	7	0.1	7	7	402	0.4	402	403	18.9	68.1
2025-07-24T16:45	10	6	0.1	6	7	402	0.3	402	403	18.9	67.5
2025-07-24T16:46	10	6	0.2	6	6	402	0.5	401	403	18.9	67.2
2025-07-24T16:47	10	5	0.1	5	6	402	0.4	402	403	18.9	68.0
2025-07-24T16:48	10	5	0.1	5	6	403	0.3	402	404	18.8	70.5
2025-07-24T16:49	10	5	0.1	5	6	404	0.6	402	405	18.7	70.4
2025-07-24T16:50	10	5	0.1	5	6	404	0.3	404	405	18.8	69.5
2025-07-24T16:51	10	6	0.1	5	6	404	0.3	404	405	18.9	68.0
2025-07-24T16:52	10	6	0.2	5	6	404	0.4	403	405	18.9	69.0
2025-07-24T16:53	10	6	0.1	5	6	404	0.3	403	404	18.9	68.2
2025-07-24T16:54	10	6	0.2	5	6	403	0.3	403	404	18.9	67.6
2025-07-24T16:55	10	6	0.2	5	6	404	0.2	403	404	18.9	68.7
2025-07-24T16:56	10	6	0.2	6	7	404	0.3	403	405	18.8	70.4
2025-07-24T16:57	10	6	0.2	6	7	404	0.3	403	405	18.9	68.4
2025-07-24T16:58	10	7	0.2	6	7	403	0.3	403	404	18.9	69.3
2025-07-24T16:59	10	7	0.2	6	7	403	0.2	403	404	18.9	69.3
2025-07-24T17:00	10	7	0.1	7	7	403	0.2	403	404	18.9	69.2
2025-07-24T17:01	10	7	0.1	7	7	404	0.2	403	404	18.8	70.2
2025-07-24T17:02	10	7	0.1	7	7	403	0.2	403	404	18.7	71.5
2025-07-24T17:03	10	7	0.1	6	7	403	0.3	403	404	18.6	72.0
2025-07-24T17:04	10	7	0.1	6	7	402	0.3	402	403	18.6	70.9
2025-07-24T17:05	10	7	0.1	6	7	402	0.2	402	403	18.5	73.5
2025-07-24T17:06	10	7	0.1	6	7	403	0.3	402	404	18.5	72.4
2025-07-24T17:07	10	7	0.1	7	7	403	0.3	402	403	18.6	69.7
2025-07-24T17:08	10	7	0.1	7	7	402	0.2	401	402	18.7	68.6
2025-07-24T17:09	10	8	0.2	7	8	402	0.3	401	402	18.7	68.4
2025-07-24T17:10	10	8	0.2	8	9	402	0.4	401	403	18.7	68.7
2025-07-24T17:11	10	9	0.2	8	9	402	0.4	402	403	18.6	70.9
2025-07-24T17:12	10	9	0.2	9	10	403	0.2	402	403	18.5	70.5
2025-07-24T17:13	10	10	0.1	9	10	403	0.3	402	404	18.5	70.4
2025-07-24T17:14	10	10	0.2	10	10	403	0.3	403	404	18.5	70.7
2025-07-24T17:15	10	10	0.1	10	10	404	0.2	403	404	18.5	70.8
2025-07-24T17:16	10	10	0.1	10	10	404	0.3	403	404	18.4	71.2
2025-07-24T17:17	10	10	0.1	9	10	403	0.3	403	404	18.5	70.0
2025-07-24T17:18	10	9	0.2	9	9	403	0.2	403	403	18.4	71.1
2025-07-24T17:19	10	8	0.2	8	9	402	0.4	402	403	18.4	70.2
2025-07-24T17:20	10	8	0.2	7	8	402	0.3	401	402	18.5	69.2
2025-07-24T17:21	10	7	0.4	6	8	401	0.2	401	402	18.4	70.0
2025-07-24T17:22	10	6	0.2	5	6	401	0.2	401	402	18.4	70.0
2025-07-24T17:23	10	5	0.1	5	5	401	0.2	401	401	18.4	70.0
2025-07-24T17:24	10	5	0.1	5	5	401	0.3	400	401	18.4	71.3
2025-07-24T17:25	10	5	0.1	5	5	401	0.2	401	401	18.4	71.5
2025-07-24T17:26	10	5	0.1	5	5	401	0.3	400	402	18.4	68.8
2025-07-24T17:27	10	5	0.1	5	5	400	0.3	400	401	18.4	70.4
2025-07-24T17:28	10	5	0.1	5	5	401	0.3	400	401	18.3	70.5
2025-07-24T17:29	10	5	0.1	5	6	401	0.2	401	401	18.3	70.6
2025-07-24T17:30	10	6	0.2	6	6	401	0.2	400	401	18.3	70.6
2025-07-24T17:31	10	6	0.2	6	7	401	0.3	401	402	18.3	69.8
2025-07-24T17:32	10	7	0.3	7	8	401	0.2	401	402	18.3	71.2
2025-07-24T17:33	10	8	0.3	8	9	402	0.3	401	403	18.3	71.6
2025-07-24T17:34	10	9	0.3	9	10	402	0.3	402	403	18.2	71.1
2025-07-24T17:35	10	10	0.3	10	11	402	0.2	402	403	18.2	71.2
2025-07-24T17:36	10	11	0.3	11	12	402	0.2	402	403	18.1	71.6
2025-07-24T17:37	10	12	0.2	12	12	403	0.2	402	403	18.1	72.6
2025-07-24T17:38	10	13	0.2	12	13	403	0.2	402	403	18.0	73.3
2025-07-24T17:39	10	13	0.1	13	13	403	0.3	402	403	18.0	72.9
2025-07-24T17:40	10	13	0.1	13	14	403	0.3	402	403	18.0	73.6
2025-07-24T17:41	10	13	0.1	13	14	402	0.2	402	403	17.9	74.0
2025-07-24T17:42	10	13	0.2	12	13	402	0.2	401	402	17.9	74.4
2025-07-24T17:43	10	12	0.1	12	13	401	0.3	401	402	17.9	72.7
2025-07-24T17:44	10	13	0.1	12	13	401	0.2	400	401	17.8	73.7
2025-07-24T17:45	10	13	0.1	13	13	400	0.2	399	401	17.8	73.2
2025-07-24T17:46	10	13	0.1	13	13	400	0.3	400	401	17.7	75.2
2025-07-24T17:47	10	13	0.1	13	13	400	0.3	400	401	17.5	77.4
2025-07-24T17:48	10	13	0.2	12	13	401	0.2	400	401	17.5	77.9
2025-07-24T17:49	10	12	0.2	12	12	401	0.2	400	401	17.4	78.0
2025-07-24T17:50	10	12	0.2	11	12	401	0.2	400	401	17.4	78.7
2025-07-24T17:51	10	11	0.1	11	12	400	0.2	400	401	17.3	78.2
2025-07-24T17:52	10	11	0.2	11	12	400	0.4	400	401	17.3	78.8
2025-07-24T17:53	10	11	0.1	11	12	400	0.3	400	401	17.3	79.7
2025-07-24T17:54	10	11	0.2	11	12	400	0.2	400	401	17.3	78.8
2025-07-24T17:55	10	11	0.2	10	11	399	0.6	398	400	17.3	76.1
2025-07-24T17:56	10	11	0.2	10	11	397	0.3	397	398	17.2	75.8
2025-07-24T17:57	10	10	0.3	9	11	397	0.3	396	398	17.2	76.6
2025-07-24T17:58	10	9	0.2	9	10	397	0.3	396	398	17.1	77.8
2025-07-24T17:59	10	9	0.2	9	9	396	0.2	396	397	17.1	77.5
2025-07-24T18:00	10	8	0.2	8	9	396	0.2	396	396	17.0	77.7
2025-07-24T18:01	10	7	0.3	7	8	396	0.2	395	396	17.0	78.0
2025-07-24T18:02	10	7	0.2	6	7	395	0.2	395	396	16.9	78.0
2025-07-24T18:03	10	6	0.3	5	7	395	0.2	395	396	16.9	78.2
2025-07-24T18:04	10	5	0.2	5	6	395	0.3	394	395	16.9	76.8
2025-07-24T18:05	10	5	0.2	4	6	394	0.3	394	395	16.8	78.8
2025-07-24T18:06	10	4	0.2	4	5	394	0.3	394	395	16.7	78.9
2025-07-24T18:07	10	4	0.2	3	4	394	0.2	394	395	16.7	78.4
2025-07-24T18:08	10	3	0.1	3	4	394	0.2	394	395	16.7	78.8
2025-07-24T18:09	10	3	0.1	3	3	394	0.2	393	394	16.7	80.0
2025-07-24T18:10	10	3	0.1	2	3	394	0.2	394	394	16.6	80.5
2025-07-24T18:11	10	2	0.1	2	3	394	0.2	394	394	16.6	80.2
2025-07-24T18:12	10	2	0.1	2	3	394	0.2	394	394	16.6	80.9
2025-07-24T18:13	10	2	0.1	2	2	394	0.3	393	394	16.5	80.7
2025-07-24T18:14	10	2	0.1	2	2	394	0.3	393	394	16.6	79.1
2025-07-24T18:15	10	2	0.1	2	2	394	0.2	393	394	16.6	77.7
2025-07-24T18:16	10	2	0.1	2	3	393	0.2	393	394	16.5	79.4
2025-07-24T18:17	10	3	0.1	2	3	393	0.2	393	394	16.5	78.3
2025-07-24T18:18	10	3	0.1	3	3	393	0.3	393	394	16.5	78.9
2025-07-24T18:19	10	3	0.1	3	3	393	0.2	393	394	16.5	78.3
2025-07-24T18:20	10	3	0.1	3	3	393	0.2	393	394	16.5	78.6
2025-07-24T18:21	10	3	0.1	3	3	393	0.2	392	393	16.5	78.1
2025-07-24T18:22	10	3	0.1	3	3	393	0.2	392	394	16.5	78.4
2025-07-24T18:23	10	3	0.1	3	3	393	0.2	393	394	16.4	79.2
2025-07-24T18:24	10	3	0.1	3	3	393	0.2	392	394	16.4	79.1
2025-07-24T18:25	10	3	0.1	3	3	393	0.2	392	394	16.4	78.9
2025-07-24T18:26	10	3	0.1	3	3	393	0.3	392	394	16.4	79.3
2025-07-24T18:27	10	3	0.1	3	3	393	0.3	393	394	16.4	79.4
2025-07-24T18:28	10	3	0.1	3	3	393	0.2	393	394	16.4	79.9
2025-07-24T18:29	10	3	0.1	2	3	394	0.2	393	394	16.3	79.9
2025-07-24T18:30	10	3	0.1	2	3	393	0.2	393	394	16.3	80.0
2025-07-24T18:31	10	2	0.1	2	3	393	0.3	393	394	16.3	80.3
2025-07-24T18:32	10	2	0.1	2	3	393	0.2	393	394	16.3	80.6
2025-07-24T18:33	10	2	0.1	2	2	393	0.2	393	394	16.3	80.4
2025-07-24T18:34	10	2	0.1	2	2	393	0.2	393	394	16.3	81.0
2025-07-24T18:35	10	2	0.1	2	2	393	0.2	392	393	16.3	80.8
2025-07-24T18:36	10	2	0.1	2	2	393	0.2	393	393	16.3	80.3
2025-07-24T18:37	10	2	0.1	2	2	393	0.2	392	394	16.3	81.0
2025-07-24T18:38	10	2	0.1	2	2	393	0.3	392	393	16.3	81.8
2025-07-24T18:39	10	2	0.1	2	2	393	0.3	392	394	16.3	81.4
2025-07-24T18:40	10	2	0.1	1	2	392	0.3	391	392	16.2	80.9
2025-07-24T18:41	10	1	0.1	1	2	391	0.3	391	392	16.1	80.6
2025-07-24T18:42	10	1	0.1	1	2	391	0.2	391	392	16.1	80.7
2025-07-24T18:43	10	1	0.1	1	1	391	0.2	391	391	16.1	80.3
2025-07-24T18:44	10	1	0.1	1	1	391	0.2	390	391	16.1	80.5
2025-07-24T18:45	10	1	0.1	1	1	391	0.2	391	391	16.0	80.3
2025-07-24T18:46	10	1	0.1	1	1	391	0.2	390	391	16.0	80.4
2025-07-24T18:47	10	1	0.1	1	1	391	0.2	390	391	16.0	80.3
2025-07-24T18:48	10	1	0.1	0	1	391	0.2	390	391	16.0	79.8
2025-07-24T18:49	10	1	0.1	1	1	391	0.2	390	391	16.0	80.9
2025-07-24T18:50	10	1	0.1	0	1	391	0.2	390	391	16.0	81.2
2025-07-24T18:51	10	1	0.1	0	1	391	0.2	390	391	16.0	80.8
2025-07-24T18:52	10	0	0.1	0	1	391	0.2	390	391	16.0	80.9
2025-07-24T18:53	10	0	0.1	0	0	390	0.2	390	391	16.0	80.3
2025-07-24T18:54	10	0	0.0	0	0	390	0.2	390	391	16.0	80.8
2025-07-24T18:55	10	0	0.1	0	0	390	0.3	390	391	16.0	80.9
2025-07-24T18:56	10	0	0.1	0	0	391	0.2	390	391	16.0	81.6
2025-07-24T18:57	10	0	0.1	0	0	391	0.2	391	392	16.0	81.8
2025-07-24T18:58	10	0	0.1	0	1	391	0.2	391	392	16.0	81.8
2025-07-24T18:59	10	0	0.1	0	0	391	0.2	391	391	16.0	82.5
2025-07-24T19:00	10	0	0.1	0	0	391	0.2	390	391	16.0	82.8
2025-07-24T19:01	10	0	0.1	0	0	391	0.2	390	392	16.0	83.1
2025-07-24T19:02	10	0	0.1	0	0	391	0.2	391	392	16.0	82.9
2025-07-24T19:03	10	0	0.1	0	0	391	0.2	391	392	16.0	83.1
2025-07-24T19:04	10	0	0.2	0	1	391	0.2	391	392	16.1	82.9
2025-07-24T19:05	10	0	0.1	0	0	391	0.2	391	392	16.1	82.4
2025-07-24T19:06	10	0	0.1	0	0	391	0.2	391	392	16.1	82.2
2025-07-24T19:07	10	0	0.1	0	0	391	0.2	391	392	16.1	82.0
2025-07-24T19:08	10	0	0.2	0	0	391	0.3	390	392	16.1	81.8
2025-07-24T19:09	10	0	0.2	0	0	391	0.2	391	392	16.1	82.0
2025-07-24T19:10	10	0	0.1	0	0	391	0.2	391	392	16.1	82.4
2025-07-24T19:11	10	0	0.2	0	0	391	0.3	391	392	16.1	82.0
2025-07-24T19:12	10	0	0.2	0	1	391	0.2	390	392	16.1	82.3
2025-07-24T19:13	10	0	0.2	0	1	391	0.2	391	392	16.1	83.2
2025-07-24T19:14	10	0	0.2	0	1	391	0.2	391	392	16.0	84.3
2025-07-24T19:15	10	0	0.1	0	0	391	0.2	391	392	16.0	83.5
2025-07-24T19:16	10	0	0.1	0	0	391	0.2	390	392	16.0	82.9
2025-07-24T19:17	10	0	0.1	0	0	391	0.3	391	392	16.1	80.9
2025-07-24T19:18	10	0	0.2	0	1	391	0.3	390	392	16.1	81.1
2025-07-24T19:19	10	0	0.2	0	0	391	0.2	390	391	16.0	82.0
2025-07-24T19:20	10	0	0.1	0	0	391	0.2	390	391	16.0	81.3
2025-07-24T19:21	10	0	0.1	0	0	390	0.2	390	391	16.0	81.6
2025-07-24T19:22	10	0	0.1	0	0	391	0.2	390	391	16.0	82.0
2025-07-24T19:23	10	0	0.2	0	0	391	0.2	390	391	16.0	83.0
2025-07-24T19:24	10	0	0.2	0	1	390	0.2	390	391	16.0	83.0
2025-07-24T19:25	10	0	0.1	0	0	390	0.3	390	391	16.0	83.3
2025-07-24T19:26	10	0	0.2	0	0	391	0.3	390	391	16.0	83.8
2025-07-24T19:27	10	0	0.2	0	0	391	0.2	390	391	15.9	84.4
2025-07-24T19:28	10	0	0.1	0	0	390	0.3	390	391	15.9	85.0
2025-07-24T19:29	10	0	0.1	0	0	390	0.2	390	391	15.8	85.5
2025-07-24T19:30	10	0	0.1	0	0	390	0.2	389	391	15.7	85.6
2025-07-24T19:31	10	0	0.1	-1	0	390	0.2	389	390	15.7	85.8
2025-07-24T19:32	10	0	0.1	0	0	390	0.2	389	390	15.7	85.5
2025-07-24T19:33	10	0	0.1	0	0	390	0.2	389	390	15.7	85.7
2025-07-24T19:34	10	0	0.1	0	0	390	0.2	389	390	15.7	85.9
2025-07-24T19:35	10	0	0.1	0	0	390	0.2	389	390	15.7	85.7
2025-07-24T19:36	10	0	0.0	0	0	390	0.2	389	390	15.7	85.7
2025-07-24T19:37	10	0	0.1	0	0	390	0.2	389	390	15.7	85.6
2025-07-24T19:38	10	0	0.1	0	0	390	0.3	389	390	15.7	85.5
2025-07-24T19:39	10	0	0.1	0	0	390	0.2	389	390	15.6	85.3
2025-07-24T19:40	10	0	0.0	0	0	390	0.2	389	390	15.7	85.7
2025-07-24T19:41	10	0	0.1	0	0	390	0.2	389	390	15.6	85.4
2025-07-24T19:42	10	0	0.1	0	0	390	0.2	389	390	15.6	85.3
2025-07-24T19:43	10	0	0.1	0	0	390	0.2	389	390	15.6	85.5
2025-07-24T19:44	10	0	0.1	0	0	390	0.2	389	390	15.6	85.4
2025-07-24T19:45	10	0	0.1	0	0	390	0.2	389	390	15.6	85.8
2025-07-24T19:46	10	0	0.0	0	0	390	0.2	389	390	15.7	85.6
2025-07-24T19:47	10	0	0.1	0	0	390	0.2	389	390	15.7	85.5
2025-07-24T19:48	10	0	0.1	0	1	390	0.2	389	390	15.7	85.5
2025-07-24T19:49	10	0	0.7	0	5	390	0.2	389	390	15.7	85.1
2025-07-24T19:50	10	0	0.1	0	0	390	0.2	389	390	15.7	84.9
2025-07-24T19:51	10	0	0.0	0	0	390	0.2	389	390	15.7	84.7
2025-07-24T19:52	10	0	0.1	0	0	390	0.2	389	390	15.7	84.6
2025-07-24T19:53	10	0	0.1	0	0	390	0.3	389	390	15.7	84.3
2025-07-24T19:54	10	0	0.1	0	0	389	0.2	389	390	15.7	84.1
2025-07-24T19:55	10	0	0.1	0	0	390	0.2	389	390	15.7	84.9
2025-07-24T19:56	10	0	0.1	0	0	390	0.2	389	390	15.7	85.0
2025-07-24T19:57	10	0	0.1	0	0	390	0.2	389	390	15.7	84.7
2025-07-24T19:58	10	0	0.1	0	0	390	0.2	389	390	15.7	84.9
2025-07-24T19:59	10	0	0.1	0	0	389	0.2	389	390	15.7	84.9
2025-07-24T20:00	10	0	0.1	0	0	389	0.2	389	390	15.6	85.7
2025-07-24T20:01	10	0	0.1	0	0	389	0.2	388	389	15.6	86.0
2025-07-24T20:02	10	0	0.1	0	0	389	0.2	389	390	15.6	86.1
2025-07-24T20:03	10	0	0.1	0	0	389	0.2	389	390	15.6	86.2
2025-07-24T20:04	10	0	0.1	0	0	389	0.3	388	389	15.6	85.6
2025-07-24T20:05	10	0	0.1	0	0	389	0.2	388	389	15.5	86.1
2025-07-24T20:06	10	0	0.1	0	0	389	0.2	388	389	15.5	86.3
2025-07-24T20:07	10	0	0.1	0	0	388	0.2	388	389	15.4	87.6
2025-07-24T20:08	10	0	0.1	0	0	388	0.3	388	389	15.4	88.4
2025-07-24T20:09	10	0	0.1	0	0	388	0.2	388	389	15.3	88.3
2025-07-24T20:10	10	0	0.1	0	0	388	0.2	388	389	15.3	89.1
2025-07-24T20:11	10	0	0.1	0	0	388	0.2	388	389	15.3	89.5
2025-07-24T20:12	10	0	0.1	0	0	388	0.2	388	389	15.2	88.7
2025-07-24T20:13	10	0	0.1	0	0	388	0.2	388	388	15.3	88.5
2025-07-24T20:14	10	0	0.1	0	0	388	0.2	387	388	15.3	88.9
2025-07-24T20:15	10	0	0.1	0	0	388	0.2	387	388	15.3	89.6
2025-07-24T20:16	10	0	0.1	0	0	388	0.2	387	388	15.2	89.2
2025-07-24T20:17	10	0	0.1	0	0	388	0.2	387	388	15.2	89.7
2025-07-24T20:18	10	0	0.1	0	0	387	0.2	387	388	15.2	90.8
2025-07-24T20:19	10	0	0.1	0	0	387	0.2	387	388	15.2	90.8
2025-07-24T20:20	10	0	0.1	0	0	387	0.3	386	388	15.1	91.0
2025-07-24T20:21	10	0	0.1	0	0	387	0.2	386	387	15.1	91.3
2025-07-24T20:22	10	0	0.1	0	0	387	0.2	386	387	15.1	90.9
2025-07-24T20:23	10	0	0.1	0	0	387	0.2	386	387	15.1	90.6
2025-07-24T20:24	10	0	0.1	0	0	387	0.3	386	387	15.1	90.9
2025-07-24T20:25	10	0	0.1	0	0	387	0.2	386	387	15.0	91.9
2025-07-24T20:26	10	0	0.1	0	0	387	0.2	386	387	15.0	92.0
2025-07-24T20:27	10	0	0.1	0	0	386	0.3	386	387	15.0	92.3
2025-07-24T20:28	10	0	0.1	0	0	386	0.3	386	387	15.0	92.3
2025-07-24T20:29	10	0	0.1	0	0	387	0.2	386	387	14.9	92.6
2025-07-24T20:30	10	0	0.1	0	0	386	0.3	386	387	14.9	91.0
2025-07-24T20:31	10	0	0.1	0	0	386	0.2	386	387	14.9	91.8
2025-07-24T20:32	10	0	0.1	0	0	386	0.3	385	387	14.9	91.7
2025-07-24T20:33	10	0	0.1	0	0	386	0.2	385	386	14.9	91.3
2025-07-24T20:34	10	0	0.1	0	0	386	0.2	385	386	14.8	91.0
2025-07-24T20:35	10	0	0.1	0	0	386	0.2	385	386	14.8	91.5
2025-07-24T20:36	10	0	0.1	0	0	385	0.3	385	386	14.8	91.4
2025-07-24T20:37	10	0	0.1	0	0	386	0.2	385	386	14.7	91.3
2025-07-24T20:38	10	0	0.1	0	0	385	0.2	385	386	14.7	92.3
2025-07-24T20:39	10	0	0.1	0	0	385	0.2	385	386	14.7	93.0
2025-07-24T20:40	10	0	0.1	0	0	385	0.2	385	386	14.7	93.2
2025-07-24T20:41	10	0	0.1	0	0	386	0.2	385	386	14.6	92.9
2025-07-24T20:42	10	0	0.1	0	0	386	0.2	385	386	14.7	92.5
2025-07-24T20:43	10	0	0.1	0	0	385	0.2	385	386	14.7	92.6
2025-07-24T20:44	10	0	0.1	0	0	385	0.3	385	386	14.7	92.4
2025-07-24T20:45	10	0	0.1	0	0	385	0.2	385	386	14.7	92.3
2025-07-24T20:46	10	0	0.1	0	0	386	0.3	385	386	14.7	92.4
2025-07-24T20:47	10	0	0.1	0	0	385	0.2	385	386	14.7	92.4
2025-07-24T20:48	10	0	0.1	0	0	386	0.2	385	386	14.7	91.9
2025-07-24T20:49	10	0	0.1	0	0	386	0.2	385	386	14.7	91.9
2025-07-24T20:50	10	0	0.1	0	0	386	0.2	385	386	14.8	91.2
2025-07-24T20:51	10	0	0.1	0	0	386	0.2	385	386	14.9	91.3
2025-07-24T20:52	10	0	0.1	0	0	386	0.3	385	386	14.8	94.7
2025-07-24T20:53	10	0	0.1	0	0	386	0.2	385	386	14.6	96.3
2025-07-24T20:54	10	0	0.1	0	0	386	0.3	385	386	14.6	97.3
2025-07-24T20:55	10	0	0.1	0	0	386	0.2	385	386	14.5	97.5
2025-07-24T20:56	10	0	0.1	0	0	386	0.2	385	386	14.5	97.6
2025-07-24T20:57	10	0	0.1	0	0	386	0.2	386	386	14.5	97.5
2025-07-24T20:58	10	0	0.1	0	0	386	0.2	385	386	14.5	97.3
2025-07-24T20:59	10	0	0.1	0	0	386	0.2	385	386	14.5	97.4
2025-07-24T21:00	10	0	0.1	0	0	386	0.2	385	386	14.5	97.6
2025-07-24T21:01	10	0	0.1	0	0	386	0.2	385	386	14.5	96.9
2025-07-24T21:02	10	0	0.1	0	0	386	0.2	385	386	14.6	96.3
2025-07-24T21:03	10	0	0.1	0	0	386	0.2	385	386	14.6	96.3
2025-07-24T21:04	10	0	0.1	0	0	386	0.2	385	386	14.6	96.6
2025-07-24T21:05	10	0	0.1	0	0	386	0.2	385	386	14.6	97.0
2025-07-24T21:06	10	0	0.1	0	0	386	0.2	385	386	14.6	97.3
2025-07-24T21:07	10	0	0.1	0	0	386	0.3	385	387	14.6	97.4
2025-07-24T21:08	10	0	0.1	0	0	386	0.2	385	386	14.6	97.3
2025-07-24T21:09	10	0	0.1	0	0	386	0.2	385	386	14.6	97.3
2025-07-24T21:10	10	0	0.1	0	0	386	0.2	385	386	14.6	97.4
2025-07-24T21:11	10	0	0.1	0	0	385	0.2	385	386	14.5	97.1
2025-07-24T21:12	10	0	0.1	0	0	385	0.2	385	386	14.5	96.8
2025-07-24T21:13	10	0	0.1	0	0	385	0.2	385	386	14.5	96.7
2025-07-24T21:14	10	0	0.1	0	0	385	0.2	385	386	14.6	97.1
2025-07-24T21:15	10	0	0.1	0	0	385	0.2	385	386	14.5	97.1
2025-07-24T21:16	10	0	0.1	0	0	385	0.2	385	386	14.5	97.1
2025-07-24T21:17	10	0	0.1	0	0	385	0.2	385	386	14.5	97.3
2025-07-24T21:18	10	0	0.1	0	0	385	0.2	385	386	14.5	97.0
2025-07-24T21:19	10	0	0.1	0	0	385	0.2	385	386	14.5	97.1
2025-07-24T21:20	10	0	0.1	0	0	385	0.2	385	385	14.4	96.8
2025-07-24T21:21	10	0	0.1	0	0	385	0.3	384	385	14.4	96.3
2025-07-24T21:22	10	0	0.1	0	0	384	0.2	384	385	14.4	96.3
2025-07-24T21:23	10	0	0.1	0	0	384	0.2	384	385	14.4	96.4
2025-07-24T21:24	10	0	0.1	0	0	384	0.2	384	385	14.4	96.4
2025-07-24T21:25	10	0	0.1	0	0	385	0.2	384	385	14.4	96.3
2025-07-24T21:26	10	0	0.0	0	0	385	0.2	384	385	14.4	96.5
2025-07-24T21:27	10	0	0.1	0	0	385	0.2	385	386	14.4	96.4
2025-07-24T21:28	10	0	0.1	0	0	385	0.3	385	386	14.5	96.5
2025-07-24T21:29	10	0	0.1	0	0	385	0.3	384	386	14.4	96.2
2025-07-24T21:30	10	0	0.1	0	0	385	0.2	385	386	14.4	95.6
2025-07-24T21:31	10	0	0.1	0	0	385	0.3	385	386	14.4	95.9
2025-07-24T21:32	10	0	0.1	0	0	386	0.2	385	386	14.5	96.2
2025-07-24T21:33	10	0	0.1	0	0	386	0.2	385	386	14.5	95.8
2025-07-24T21:34	10	0	0.1	0	0	386	0.2	385	386	14.5	96.1
2025-07-24T21:35	10	0	0.0	0	0	386	0.2	385	386	14.5	96.1
2025-07-24T21:36	10	0	0.1	0	0	386	0.2	386	387	14.4	96.0
2025-07-24T21:37	10	0	0.1	0	0	386	0.2	386	386	14.4	94.7
2025-07-24T21:38	10	0	0.1	0	0	386	0.2	386	387	14.5	95.2
2025-07-24T21:39	10	0	0.1	0	0	386	0.2	385	386	14.4	94.5
2025-07-24T21:40	10	0	0.1	0	0	386	0.2	385	386	14.5	94.3
2025-07-24T21:41	10	0	0.1	0	0	385	0.2	385	386	14.5	94.7
2025-07-24T21:42	10	0	0.1	0	0	386	0.2	385	386	14.5	95.0
2025-07-24T21:43	10	0	0.1	0	0	386	0.2	385	386	14.5	94.2
2025-07-24T21:44	10	0	0.1	0	0	385	0.2	385	386	14.5	93.4
2025-07-24T21:45	10	0	0.1	0	0	385	0.2	385	386	14.5	92.7
2025-07-24T21:46	10	0	0.1	0	0	385	0.2	385	386	14.5	92.5
2025-07-24T21:47	10	0	0.1	0	0	385	0.2	385	386	14.5	93.1
2025-07-24T21:48	10	0	0.1	0	0	385	0.2	385	386	14.6	93.2
2025-07-24T21:49	10	0	0.1	0	0	385	0.2	385	386	14.6	92.8
2025-07-24T21:50	10	0	0.1	0	0	385	0.3	385	386	14.6	92.8
2025-07-24T21:51	10	0	0.1	0	0	385	0.2	385	386	14.5	92.6
2025-07-24T21:52	10	0	0.1	0	0	385	0.2	385	386	14.5	92.7
2025-07-24T21:53	10	0	0.1	0	0	385	0.3	385	386	14.5	92.7
2025-07-24T21:54	10	0	0.1	0	0	385	0.2	385	386	14.5	89.6
2025-07-24T21:55	10	0	0.1	0	0	385	0.2	385	386	14.5	92.7
2025-07-24T21:56	10	0	0.1	0	0	385	0.2	385	386	14.5	89.6
2025-07-24T21:57	10	0	0.2	0	1	385	0.2	385	386	14.5	92.7
2025-07-24T21:58	10	0	0.1	0	0	386	0.2	385	386	14.5	92.7
2025-07-24T21:59	10	0	0.1	0	0	386	0.2	385	386	14.5	92.7
2025-07-24T22:00	10	0	0.2	0	0	386	0.3	385	386	14.5	93.2
2025-07-24T22:01	10	0	0.1	0	0	386	0.3	385	387	14.5	92.9
2025-07-24T22:02	10	0	0.2	0	0	386	0.2	385	387	14.5	93.2
2025-07-24T22:03	10	0	0.2	0	1	386	0.3	386	387	14.6	93.7
2025-07-24T22:04	10	0	0.1	0	0	387	0.2	386	387	14.6	94.1
2025-07-24T22:05	10	0	0.2	0	0	387	0.2	386	387	14.6	94.1
2025-07-24T22:06	10	0	0.1	0	0	387	0.3	386	387	14.6	94.0
2025-07-24T22:07	10	0	0.2	0	0	386	0.3	386	387	14.6	94.2
2025-07-24T22:08	10	0	0.2	0	0	386	0.3	385	387	14.6	94.5
2025-07-24T22:09	10	0	0.2	0	0	386	0.3	385	387	14.6	94.8
2025-07-24T22:10	10	0	0.2	0	1	386	0.3	385	387	14.6	95.2
2025-07-24T22:11	10	0	0.1	0	0	386	0.2	386	386	14.6	95.3
2025-07-24T22:12	10	0	0.2	0	0	386	0.3	385	387	14.6	94.9
2025-07-24T22:13	10	0	0.1	0	0	385	0.3	385	386	14.6	94.7
2025-07-24T22:14	10	0	0.2	0	0	386	0.2	385	386	14.7	95.3
2025-07-24T22:15	10	0	0.1	0	0	386	0.3	385	386	14.6	94.8
2025-07-24T22:16	10	0	0.1	0	1	386	0.2	385	386	14.7	94.3
2025-07-24T22:17	10	0	0.1	0	0	386	0.3	385	386	14.7	94.8
2025-07-24T22:18	10	0	0.2	0	1	386	0.3	385	386	14.7	95.0
2025-07-24T22:19	10	0	0.1	0	0	386	0.2	385	386	14.7	95.1
2025-07-24T22:20	10	0	0.2	0	1	386	0.3	385	386	14.7	94.7
2025-07-24T22:21	10	0	0.2	-1	0	385	0.2	385	386	14.7	93.5
2025-07-24T22:22	10	0	0.2	0	0	385	0.3	385	386	14.6	92.7
2025-07-24T22:23	10	0	0.2	-1	0	385	0.3	384	386	14.7	92.8
2025-07-24T22:24	10	0	0.1	0	0	385	0.3	384	386	14.7	94.6
2025-07-24T22:25	10	0	0.2	0	0	385	0.2	385	386	14.6	94.2
2025-07-24T22:26	10	0	0.2	0	0	385	0.2	385	385	14.6	94.4
2025-07-24T22:27	10	0	0.2	0	1	385	0.3	384	386	14.6	94.9
2025-07-24T22:28	10	0	0.2	0	0	385	0.3	384	385	14.5	94.8
2025-07-24T22:29	10	0	0.2	0	1	385	0.2	384	385	14.5	95.2
2025-07-24T22:30	10	0	0.1	0	0	385	0.3	384	386	14.5	95.3
2025-07-24T22:31	10	0	0.1	0	0	385	0.3	384	386	14.5	94.8
2025-07-24T22:32	10	0	0.1	0	0	385	0.2	384	385	14.5	94.6
2025-07-24T22:33	10	0	0.1	0	0	385	0.2	384	385	14.5	94.7
2025-07-24T22:34	10	0	0.1	0	0	385	0.2	384	385	14.5	95.3
2025-07-24T22:35	10	0	0.2	0	0	385	0.2	384	385	14.5	94.7
2025-07-24T22:36	10	0	0.1	0	0	385	0.2	384	385	14.5	95.4
2025-07-24T22:37	10	0	0.2	0	0	385	0.3	384	385	14.5	95.7
2025-07-24T22:38	10	0	0.1	0	0	385	0.3	384	385	14.4	95.9
2025-07-24T22:39	10	0	0.1	0	0	385	0.2	384	385	14.4	96.0
2025-07-24T22:40	10	0	0.2	0	1	385	0.2	384	385	14.5	96.4
2025-07-24T22:41	10	0	0.2	0	1	385	0.3	384	385	14.4	96.2
2025-07-24T22:42	10	0	0.1	0	0	384	0.3	384	385	14.4	96.3
2025-07-24T22:43	10	0	0.2	0	0	384	0.3	384	385	14.4	96.6
2025-07-24T22:44	10	0	0.2	0	0	385	0.3	384	385	14.4	96.4
2025-07-24T22:45	10	0	0.2	0	0	385	0.2	384	385	14.4	95.5
2025-07-24T22:46	10	0	0.1	0	0	385	0.3	384	385	14.5	95.9
2025-07-24T22:47	10	0	0.1	0	0	385	0.3	384	385	14.5	95.7
2025-07-24T22:48	10	0	0.1	0	0	384	0.2	384	385	14.5	95.9
2025-07-24T22:49	10	0	0.2	0	0	384	0.3	384	385	14.5	96.2
2025-07-24T22:50	10	0	0.2	0	0	384	0.4	384	385	14.4	96.1
2025-07-24T22:51	10	0	0.2	0	1	384	0.3	384	385	14.5	95.7
2025-07-24T22:52	10	0	0.2	0	1	384	0.2	384	385	14.4	95.6
2025-07-24T22:53	10	0	0.1	0	0	384	0.3	384	385	14.5	95.5
2025-07-24T22:54	10	0	0.1	0	0	384	0.2	384	385	14.5	95.6
2025-07-24T22:55	10	0	0.1	0	0	384	0.2	384	384	14.5	95.6
2025-07-24T22:56	10	0	0.1	0	0	384	0.2	384	385	14.4	94.7
2025-07-24T22:57	10	0	0.1	0	0	384	0.3	383	384	14.4	94.7
2025-07-24T22:58	10	0	0.1	0	0	384	0.3	383	384	14.4	95.3
2025-07-24T22:59	10	0	0.2	0	0	384	0.2	383	384	14.4	95.6
2025-07-24T23:00	10	0	0.1	0	0	384	0.2	383	384	14.4	95.4
2025-07-24T23:01	10	0	0.1	0	0	384	0.2	383	384	14.4	95.9
2025-07-24T23:02	10	0	0.1	0	0	384	0.2	383	384	14.3	95.8
2025-07-24T23:03	10	0	0.1	0	0	383	0.2	383	384	14.3	96.0
2025-07-24T23:04	10	0	0.1	0	0	383	0.2	383	384	14.3	95.7
2025-07-24T23:05	10	0	0.1	0	0	383	0.2	383	384	14.4	95.2
2025-07-24T23:06	10	0	0.1	0	0	383	0.3	383	384	14.4	95.4
2025-07-24T23:07	10	0	0.1	0	0	383	0.2	382	383	14.4	95.0
2025-07-24T23:08	10	0	0.1	0	0	383	0.2	383	384	14.4	95.3
2025-07-24T23:09	10	0	0.1	0	0	383	0.2	383	384	14.4	95.4
2025-07-24T23:10	10	0	0.1	0	0	383	0.2	382	383	14.4	95.2
2025-07-24T23:11	10	0	0.1	0	0	383	0.3	382	384	14.4	95.0
2025-07-24T23:12	10	0	0.1	0	0	383	0.2	382	384	14.4	95.4
2025-07-24T23:13	10	0	0.1	0	0	383	0.3	382	384	14.4	95.0
2025-07-24T23:14	10	0	0.1	0	0	383	0.2	382	383	14.4	94.9
2025-07-24T23:15	10	0	0.1	0	0	383	0.2	382	383	14.4	94.9
2025-07-24T23:16	10	0	0.1	0	0	383	0.2	383	384	14.4	94.6
2025-07-24T23:17	10	0	0.1	0	0	383	0.2	382	383	14.4	94.8
2025-07-24T23:18	10	0	0.1	0	0	383	0.2	382	383	14.4	95.3
2025-07-24T23:19	10	0	0.1	0	0	383	0.2	383	383	14.4	95.5
2025-07-24T23:20	10	0	0.2	0	0	383	0.2	382	383	14.4	95.6
2025-07-24T23:21	10	0	0.1	0	0	383	0.2	382	383	14.3	95.8
2025-07-24T23:22	10	0	0.1	0	0	383	0.2	382	383	14.3	95.3
2025-07-24T23:23	10	0	0.1	0	0	382	0.2	382	383	14.3	95.3
2025-07-24T23:24	10	0	0.1	0	0	382	0.2	382	383	14.3	95.4
2025-07-24T23:25	10	0	0.1	0	0	382	0.2	382	383	14.3	95.3
2025-07-24T23:26	10	0	0.1	0	0	382	0.2	382	383	14.3	95.3
2025-07-24T23:27	10	0	0.1	0	0	382	0.2	382	383	14.3	95.4
2025-07-24T23:28	10	0	0.1	0	0	382	0.3	381	382	14.3	95.5
2025-07-24T23:29	10	0	0.1	0	0	381	0.2	381	382	14.3	95.5
2025-07-24T23:30	10	0	0.1	0	0	381	0.2	381	382	14.3	95.2
2025-07-24T23:31	10	0	0.2	0	1	381	0.2	380	382	14.3	94.7
2025-07-24T23:32	10	0	0.1	0	0	381	0.2	380	381	14.3	94.8
2025-07-24T23:33	10	0	0.1	0	0	381	0.3	380	381	14.3	94.7
2025-07-24T23:34	10	0	0.1	0	0	380	0.2	380	381	14.3	94.7
2025-07-24T23:35	10	0	0.1	0	0	380	0.2	380	381	14.3	95.1
2025-07-24T23:36	10	0	0.2	0	1	380	0.2	379	380	14.3	95.0
2025-07-24T23:37	10	0	0.1	0	0	380	0.2	379	380	14.3	95.2
2025-07-24T23:38	10	0	0.1	0	1	379	0.3	379	380	14.3	95.4
2025-07-24T23:39	10	0	0.1	0	0	379	0.2	379	380	14.2	94.9
2025-07-24T23:40	10	0	0.2	0	1	379	0.2	379	380	14.3	94.4
2025-07-24T23:41	10	0	0.1	0	0	379	0.2	379	380	14.3	94.9
2025-07-24T23:42	10	0	0.1	0	0	379	0.2	379	379	14.2	95.4
2025-07-24T23:43	10	0	0.1	0	0	379	0.2	378	379	14.2	95.8
2025-07-24T23:44	10	0	0.1	0	0	379	0.2	378	379	14.1	95.1
2025-07-24T23:45	10	0	0.1	0	0	378	0.2	378	379	14.1	95.3
2025-07-24T23:46	10	0	0.1	0	0	378	0.2	378	379	14.1	95.4
2025-07-24T23:47	10	0	0.1	0	0	378	0.3	377	378	14.1	95.7
2025-07-24T23:48	10	0	0.1	0	0	377	0.2	377	378	14.1	96.0
2025-07-24T23:49	10	0	0.1	0	0	377	0.3	376	378	14.1	95.8
2025-07-24T23:50	10	0	0.1	0	0	376	0.3	375	377	14.1	96.1
2025-07-24T23:51	10	0	0.1	0	0	375	0.2	375	376	14.0	96.4
2025-07-24T23:52	10	0	0.1	0	0	375	0.2	374	375	14.0	96.8
2025-07-24T23:53	10	0	0.2	0	1	374	0.2	374	375	14.0	96.9
2025-07-24T23:54	10	0	0.1	0	0	374	0.2	373	375	14.0	96.8
2025-07-24T23:55	10	0	0.1	0	0	374	0.2	373	374	14.0	96.7
2025-07-24T23:56	10	0	0.1	0	0	374	0.2	373	375	14.0	96.6
2025-07-24T23:57	10	0	0.1	0	0	374	0.2	373	374	14.0	96.4
2025-07-24T23:58	10	0	0.0	0	0	373	0.2	373	374	14.0	96.8
2025-07-24T23:59	10	0	0.1	0	0	373	0.1	373	373	14.0	96.8
2025-07-25T00:00	10	0	0.1	0	0	373	0.2	373	374	14.0	96.7
2025-07-25T00:01	10	0	0.0	0	0	373	0.2	372	373	14.0	96.7
2025-07-25T00:02	10	0	0.1	0	0	372	0.2	372	373	13.9	96.9
2025-07-25T00:03	10	0	0.1	0	0	372	0.2	372	373	13.9	96.9
2025-07-25T00:04	10	0	0.0	0	0	372	0.2	371	372	13.9	96.7
2025-07-25T00:05	10	0	0.1	0	0	372	0.2	371	372	13.9	96.6
2025-07-25T00:06	10	0	0.1	0	0	371	0.2	371	372	13.9	96.5
2025-07-25T00:07	10	0	0.1	0	0	371	0.2	371	372	13.9	96.5
2025-07-25T00:08	10	0	0.1	0	0	371	0.2	371	372	13.9	96.5
2025-07-25T00:09	10	0	0.1	0	0	371	0.2	371	371	13.9	96.9
2025-07-25T00:10	10	0	0.1	0	0	371	0.3	371	372	13.9	97.2
2025-07-25T00:11	10	0	0.0	0	0	372	0.2	371	372	13.8	96.9
2025-07-25T00:12	10	0	0.0	0	0	372	0.2	372	373	13.8	97.0
2025-07-25T00:13	10	0	0.0	0	0	373	0.3	372	373	13.7	97.2
2025-07-25T00:14	10	0	0.0	0	0	373	0.2	373	374	13.7	97.3
2025-07-25T00:15	10	0	0.0	0	0	373	0.2	373	374	13.7	97.4
2025-07-25T00:16	10	0	0.0	0	0	373	0.2	373	374	13.7	97.6
2025-07-25T00:17	10	0	0.0	0	0	374	0.2	373	374	13.7	98.1
2025-07-25T00:18	10	0	0.1	0	0	374	0.2	373	374	13.6	98.3
2025-07-25T00:19	10	0	0.1	0	0	374	0.2	373	374	13.6	98.3
2025-07-25T00:20	10	0	0.0	0	0	374	0.2	373	374	13.6	98.3
2025-07-25T00:21	10	0	0.0	0	0	374	0.3	373	374	13.6	98.4
2025-07-25T00:22	10	0	0.0	0	0	373	0.2	373	374	13.6	98.7
2025-07-25T00:23	10	0	0.0	0	0	373	0.2	373	374	13.6	98.8
2025-07-25T00:24	10	0	0.0	0	0	373	0.2	373	374	13.6	98.9
2025-07-25T00:25	10	0	0.0	0	0	374	0.3	373	374	13.6	98.7
2025-07-25T00:26	10	0	0.0	0	0	374	0.3	373	374	13.6	98.5
2025-07-25T00:27	10	0	0.0	0	0	374	0.3	374	375	13.7	98.3
2025-07-25T00:28	10	0	0.0	0	0	375	0.2	374	375	13.8	97.7
2025-07-25T00:29	10	0	0.0	0	0	375	0.3	375	376	13.8	97.1
2025-07-25T00:30	10	0	0.1	0	0	376	0.5	375	377	13.9	96.3
2025-07-25T00:31	10	0	0.0	0	0	378	0.4	377	378	14.0	95.0
2025-07-25T00:32	10	0	0.1	0	0	378	0.3	378	379	14.1	94.3
2025-07-25T00:33	10	0	0.1	0	0	379	0.3	378	379	14.1	94.2
2025-07-25T00:34	10	0	0.0	0	0	380	0.2	379	380	14.1	95.1
2025-07-25T00:35	10	0	0.1	0	0	380	0.2	379	380	14.0	95.8
2025-07-25T00:36	10	0	0.1	0	0	380	0.3	380	381	14.0	96.1
2025-07-25T00:37	10	0	0.0	0	0	380	0.2	380	381	14.0	96.5
2025-07-25T00:38	10	0	0.1	0	0	381	0.2	380	381	13.9	96.9
2025-07-25T00:39	10	0	0.1	0	0	381	0.2	380	381	13.9	96.9
2025-07-25T00:40	10	0	0.1	0	0	381	0.2	380	381	13.9	97.3
2025-07-25T00:41	10	0	0.1	0	0	381	0.2	380	381	13.9	97.5
2025-07-25T00:42	10	0	0.1	0	0	381	0.2	381	381	13.8	97.8
2025-07-25T00:43	10	0	0.1	0	0	381	0.2	380	381	13.8	97.8
2025-07-25T00:44	10	0	0.1	0	0	381	0.2	380	382	13.8	98.1
2025-07-25T00:45	10	0	0.1	0	0	381	0.3	380	381	13.8	98.3
2025-07-25T00:46	10	0	0.1	0	0	381	0.2	380	381	13.8	98.3
2025-07-25T00:47	10	0	0.1	0	0	380	0.2	380	381	13.7	98.5
2025-07-25T00:48	10	0	0.1	0	0	380	0.2	380	381	13.6	98.4
2025-07-25T00:49	10	0	0.1	0	0	380	0.2	379	380	13.6	98.5
2025-07-25T00:50	10	0	0.1	0	0	380	0.2	379	380	13.6	98.6
2025-07-25T00:51	10	0	0.1	0	0	379	0.2	379	380	13.6	98.7
2025-07-25T00:52	10	0	0.1	0	0	379	0.2	378	380	13.6	98.9
2025-07-25T00:53	10	0	0.1	0	0	379	0.2	379	379	13.6	98.9
2025-07-25T00:54	10	0	0.1	0	0	379	0.2	378	379	13.6	99.0
2025-07-25T00:55	10	0	0.1	0	0	379	0.2	378	379	13.6	98.6
2025-07-25T00:56	10	0	0.1	0	0	378	0.2	378	379	13.6	98.6
2025-07-25T00:57	10	0	0.1	0	0	378	0.2	377	378	13.6	98.7
2025-07-25T00:58	10	0	0.1	0	0	378	0.3	377	378	13.6	99.0
2025-07-25T00:59	10	0	0.1	0	0	377	0.2	377	378	13.6	99.3
2025-07-25T01:00	10	0	0.0	0	0	376	0.3	376	377	13.6	99.1
2025-07-25T01:01	10	0	0.1	0	0	375	0.3	375	376	13.6	99.1
2025-07-25T01:02	10	0	0.1	0	0	375	0.3	374	375	13.6	99.0
2025-07-25T01:03	10	0	0.0	0	0	374	0.2	374	375	13.7	98.9
2025-07-25T01:04	10	0	0.0	0	0	374	0.2	373	375	13.7	98.9
2025-07-25T01:05	10	0	0.0	0	0	374	0.2	373	374	13.7	98.8
2025-07-25T01:06	10	0	0.0	0	0	374	0.2	373	374	13.7	98.8
2025-07-25T01:07	10	0	0.0	0	0	374	0.2	373	374	13.7	98.8
2025-07-25T01:08	10	0	0.1	0	0	373	0.2	373	374	13.6	99.0
2025-07-25T01:09	10	0	0.0	0	0	374	0.2	374	374	13.6	99.0
2025-07-25T01:10	10	0	0.0	0	0	374	0.2	374	375	13.6	99.0
2025-07-25T01:11	10	0	0.1	0	0	374	0.2	373	374	13.6	99.1
2025-07-25T01:12	10	0	0.0	0	0	374	0.2	373	374	13.6	99.3
2025-07-25T01:13	10	0	0.0	0	0	373	0.2	372	373	13.6	99.2
2025-07-25T01:14	10	0	0.0	0	0	373	0.2	372	373	13.6	99.0
2025-07-25T01:15	10	0	0.0	0	0	372	0.2	372	373	13.6	98.8
2025-07-25T01:16	10	0	0.0	0	0	372	0.2	371	372	13.6	98.7
2025-07-25T01:17	10	0	0.0	0	0	371	0.2	371	372	13.6	98.6
2025-07-25T01:18	10	0	0.0	0	0	371	0.3	371	372	13.6	98.3
2025-07-25T01:19	10	0	0.0	0	0	371	0.2	371	371	13.6	98.3
2025-07-25T01:20	10	0	0.0	0	0	371	0.2	371	372	13.6	98.2
2025-07-25T01:21	10	0	0.0	0	0	371	0.2	370	371	13.6	98.3
2025-07-25T01:22	10	0	0.0	0	0	371	0.2	371	372	13.5	98.2
2025-07-25T01:23	10	0	0.0	0	0	371	0.2	371	372	13.6	98.3
2025-07-25T01:24	10	0	0.0	0	0	372	0.3	371	372	13.5	98.3
2025-07-25T01:25	10	0	0.1	0	0	372	0.3	372	373	13.6	98.2
2025-07-25T01:26	10	0	0.5	0	3	373	0.2	372	373	13.6	98.1
2025-07-25T01:27	10	0	0.1	0	0	373	0.2	372	373	13.6	98.0
2025-07-25T01:28	10	0	0.1	0	0	373	0.2	372	373	13.6	98.2
2025-07-25T01:29	10	0	0.0	0	0	373	0.2	372	373	13.5	98.5
2025-07-25T01:30	10	0	0.0	0	0	373	0.2	372	373	13.4	98.6
2025-07-25T01:31	10	0	0.1	0	0	373	0.2	373	374	13.4	98.7
2025-07-25T01:32	10	0	0.0	0	0	373	0.2	373	374	13.4	98.8
2025-07-25T01:33	10	0	0.1	0	0	373	0.2	373	374	13.4	98.9
2025-07-25T01:34	10	0	0.0	0	0	373	0.2	373	374	13.4	98.8
2025-07-25T01:35	10	0	0.1	0	0	374	0.2	373	374	13.4	98.6
2025-07-25T01:36	10	0	0.1	0	0	374	0.2	373	374	13.5	98.3
2025-07-25T01:37	10	0	0.1	0	0	374	0.2	374	375	13.5	98.2
2025-07-25T01:38	10	0	0.0	0	0	374	0.3	374	375	13.6	97.9
2025-07-25T01:39	10	0	0.1	0	0	375	0.2	374	375	13.5	97.9
2025-07-25T01:40	10	0	0.1	0	0	375	0.2	374	375	13.6	97.8
2025-07-25T01:41	10	0	0.1	0	0	375	0.2	375	376	13.6	97.7
2025-07-25T01:42	10	0	0.1	0	0	375	0.2	374	375	13.6	97.6
2025-07-25T01:43	10	0	0.1	0	0	375	0.2	375	376	13.6	97.6
2025-07-25T01:44	10	0	0.1	0	0	375	0.3	375	376	13.6	97.5
2025-07-25T01:45	10	0	0.1	0	0	376	0.2	375	376	13.6	97.5
2025-07-25T01:46	10	0	0.1	0	0	376	0.2	375	376	13.6	97.4
2025-07-25T01:47	10	0	0.1	0	0	376	0.2	376	377	13.6	97.5
2025-07-25T01:48	10	0	0.1	0	0	376	0.2	376	377	13.7	97.1
2025-07-25T01:49	10	0	0.1	0	0	377	0.3	376	377	13.8	96.7
2025-07-25T01:50	10	0	0.0	0	0	377	0.2	377	378	13.8	96.5
2025-07-25T01:51	10	0	0.1	0	0	377	0.2	377	378	13.7	96.5
2025-07-25T01:52	10	0	0.1	0	0	377	0.2	377	378	13.7	96.7
2025-07-25T01:53	10	0	0.1	0	0	377	0.2	377	378	13.6	96.8
2025-07-25T01:54	10	0	0.1	0	0	377	0.3	377	378	13.6	96.7
2025-07-25T01:55	10	0	0.1	0	0	377	0.2	377	378	13.6	96.7
2025-07-25T01:56	10	0	0.1	0	0	377	0.2	377	378	13.6	96.8
2025-07-25T01:57	10	0	0.1	0	0	377	0.2	377	378	13.6	96.7
2025-07-25T01:58	10	0	0.1	0	0	378	0.2	377	378	13.7	96.4
2025-07-25T01:59	10	0	0.1	0	0	378	0.2	377	378	13.7	96.3
2025-07-25T02:00	10	0	0.1	0	0	377	0.3	376	378	13.7	96.1
2025-07-25T02:01	10	0	0.1	0	0	377	0.2	377	378	13.8	95.9
2025-07-25T02:02	10	0	0.1	0	0	377	0.2	377	378	13.8	95.8
2025-07-25T02:03	10	0	0.1	0	0	377	0.2	376	378	13.8	95.4
2025-07-25T02:04	10	0	0.1	0	0	377	0.2	377	378	13.8	95.4
2025-07-25T02:05	10	0	0.1	0	0	377	0.2	377	378	13.8	95.7
2025-07-25T02:06	10	0	0.1	0	0	377	0.2	377	377	13.8	95.9
2025-07-25T02:07	10	0	0.1	0	0	377	0.2	377	378	13.9	95.4
2025-07-25T02:08	10	0	0.1	0	0	377	0.2	377	377	13.9	95.6
2025-07-25T02:09	10	0	0.5	0	3	377	0.3	376	377	13.9	95.3
2025-07-25T02:10	10	0	0.0	0	0	377	0.3	376	377	13.9	95.1
2025-07-25T02:11	10	0	0.0	0	0	376	0.2	376	377	13.9	95.2
2025-07-25T02:12	10	0	0.1	0	0	376	0.2	376	376	13.9	95.1
2025-07-25T02:13	10	0	0.1	0	0	376	0.2	375	376	13.9	95.4
2025-07-25T02:14	10	0	0.1	0	0	375	0.2	375	376	13.8	95.6
2025-07-25T02:15	10	0	0.1	0	0	376	0.2	375	376	13.8	95.7
2025-07-25T02:16	10	0	0.1	0	0	375	0.3	375	376	13.8	95.8
2025-07-25T02:17	10	0	0.1	0	0	375	0.2	375	376	13.6	96.4
2025-07-25T02:18	10	0	0.0	0	0	376	0.2	375	376	13.5	97.2
2025-07-25T02:19	10	0	0.1	0	0	376	0.2	375	376	13.5	97.7
2025-07-25T02:20	10	0	0.1	0	0	376	0.2	375	376	13.5	97.9
2025-07-25T02:21	10	0	0.1	0	0	375	0.3	375	376	13.5	98.2
2025-07-25T02:22	10	0	0.1	0	0	375	0.2	374	375	13.4	98.5
2025-07-25T02:23	10	0	0.1	0	0	374	0.2	374	375	13.4	98.7
2025-07-25T02:24	10	0	0.1	0	0	374	0.3	373	375	13.4	98.3
2025-07-25T02:25	10	0	0.1	0	0	374	0.3	374	375	13.4	98.2
2025-07-25T02:26	10	0	0.1	0	0	374	0.2	373	374	13.4	98.2
2025-07-25T02:27	10	0	0.1	0	0	374	0.2	374	375	13.4	98.2
2025-07-25T02:28	10	0	0.1	0	0	374	0.2	374	375	13.4	98.0
2025-07-25T02:29	10	0	0.1	0	0	374	0.2	374	375	13.5	97.9
2025-07-25T02:30	10	0	0.1	0	0	374	0.2	374	375	13.5	97.7
2025-07-25T02:31	10	0	0.1	0	0	375	0.3	374	375	13.5	97.6
2025-07-25T02:32	10	0	0.1	0	0	375	0.2	375	375	13.6	97.6
2025-07-25T02:33	10	0	0.1	0	0	375	0.2	374	375	13.6	97.6
2025-07-25T02:34	10	0	0.0	0	0	375	0.2	374	375	13.6	97.7
2025-07-25T02:35	10	0	0.1	0	0	374	0.2	374	375	13.5	97.9
2025-07-25T02:36	10	0	0.0	0	0	374	0.2	374	375	13.5	98.2
2025-07-25T02:37	10	0	0.1	0	0	374	0.2	374	375	13.5	98.2
2025-07-25T02:38	10	0	0.1	0	0	374	0.2	374	375	13.4	98.4
2025-07-25T02:39	10	0	0.1	0	0	374	0.2	374	375	13.4	98.9
2025-07-25T02:40	10	0	0.1	0	0	374	0.2	374	375	13.4	98.6
2025-07-25T02:41	10	0	0.1	0	0	375	0.2	374	375	13.4	98.4
2025-07-25T02:42	10	0	0.1	0	0	375	0.3	375	376	13.3	98.4
2025-07-25T02:43	10	0	0.1	0	0	376	0.3	375	376	13.3	98.5
2025-07-25T02:44	10	0	0.1	0	0	376	0.2	376	377	13.3	98.8
2025-07-25T02:45	10	0	0.1	0	0	376	0.2	376	377	13.3	98.8
2025-07-25T02:46	10	0	0.1	-1	0	376	0.2	376	377	13.3	98.8
2025-07-25T02:47	10	0	0.0	0	0	376	0.2	376	377	13.3	98.9
2025-07-25T02:48	10	0	0.1	0	0	377	0.2	376	377	13.3	99.0
2025-07-25T02:49	10	0	0.1	0	0	377	0.3	376	377	13.3	99.0
2025-07-25T02:50	10	0	0.1	0	0	377	0.2	376	377	13.3	99.0
2025-07-25T02:51	10	0	0.1	0	0	377	0.2	376	377	13.3	99.0
2025-07-25T02:52	10	0	0.1	-1	0	377	0.2	376	377	13.3	99.0
2025-07-25T02:53	10	0	0.0	0	0	377	0.2	376	377	13.4	99.0
2025-07-25T02:54	10	0	0.1	0	0	377	0.2	376	377	13.4	98.9
2025-07-25T02:55	10	0	0.1	0	0	377	0.2	377	378	13.4	99.0
2025-07-25T02:56	10	0	0.0	0	0	377	0.2	377	378	13.4	98.9
2025-07-25T02:57	10	0	0.1	0	0	377	0.2	377	377	13.4	98.8
2025-07-25T02:58	10	0	0.1	0	0	377	0.2	377	378	13.4	98.7
2025-07-25T02:59	10	0	0.1	0	0	377	0.2	377	378	13.4	98.6
2025-07-25T03:00	10	0	0.0	0	0	377	0.2	377	378	13.4	98.7
2025-07-25T03:01	10	0	0.1	-1	0	377	0.2	377	378	13.4	98.7
2025-07-25T03:02	10	0	0.0	0	0	377	0.2	377	378	13.4	98.8
2025-07-25T03:03	10	0	0.1	0	0	377	0.2	376	378	13.3	98.9
2025-07-25T03:04	10	0	0.1	0	0	377	0.2	377	378	13.3	98.8
2025-07-25T03:05	10	0	0.1	0	0	377	0.2	377	378	13.3	98.7
2025-07-25T03:06	10	0	0.0	0	0	377	0.2	377	378	13.3	98.6
2025-07-25T03:07	10	0	0.1	0	0	377	0.3	377	378	13.2	98.4
2025-07-25T03:08	10	0	0.0	0	0	377	0.2	377	378	13.2	98.6
2025-07-25T03:09	10	0	0.0	0	0	377	0.3	377	378	13.2	98.6
2025-07-25T03:10	10	0	0.0	0	0	377	0.2	377	378	13.2	98.5
2025-07-25T03:11	10	0	0.1	0	0	377	0.2	377	378	13.2	98.6
2025-07-25T03:12	10	0	0.0	0	0	377	0.2	377	378	13.2	98.5
2025-07-25T03:13	10	0	0.0	0	0	377	0.2	377	378	13.2	98.1
2025-07-25T03:14	10	0	0.0	0	0	378	0.3	377	378	13.3	97.9
2025-07-25T03:15	10	0	0.1	0	0	378	0.2	377	378	13.3	97.8
2025-07-25T03:16	10	0	0.1	0	0	378	0.2	377	378	13.4	97.7
2025-07-25T03:17	10	0	0.1	0	0	378	0.2	377	378	13.4	97.7
2025-07-25T03:18	10	0	0.0	0	0	377	0.2	377	378	13.3	97.8
2025-07-25T03:19	10	0	0.1	0	0	378	0.2	377	378	13.3	98.0
2025-07-25T03:20	10	0	0.1	0	0	378	0.2	377	378	13.3	98.2
2025-07-25T03:21	10	0	0.1	0	0	377	0.2	377	378	13.3	98.3
2025-07-25T03:22	10	0	0.1	0	0	377	0.2	377	378	13.3	98.4
2025-07-25T03:23	10	0	0.1	0	0	377	0.2	377	378	13.3	98.6
2025-07-25T03:24	10	0	0.0	0	0	378	0.2	377	378	13.3	98.7
2025-07-25T03:25	10	0	0.1	0	0	378	0.2	377	378	13.3	98.9
2025-07-25T03:26	10	0	0.1	0	0	378	0.2	377	378	13.3	99.0
2025-07-25T03:27	10	0	0.1	0	0	378	0.2	377	378	13.3	98.9
2025-07-25T03:28	10	0	0.1	0	0	378	0.2	377	378	13.3	98.8
2025-07-25T03:29	10	0	0.1	0	0	378	0.2	377	378	13.4	98.7
2025-07-25T03:30	10	0	0.0	0	0	378	0.2	377	378	13.4	98.8
2025-07-25T03:31	10	0	0.1	0	0	378	0.2	377	378	13.4	98.9
2025-07-25T03:32	10	0	0.1	0	0	378	0.2	377	378	13.4	99.0
2025-07-25T03:33	10	0	0.0	0	0	378	0.3	377	378	13.4	99.0
2025-07-25T03:34	10	0	0.1	0	0	378	0.2	377	378	13.4	99.1
2025-07-25T03:35	10	0	0.1	0	0	378	0.2	377	378	13.4	99.1
2025-07-25T03:36	10	0	0.1	0	0	378	0.3	377	378	13.4	99.0
2025-07-25T03:37	10	0	0.1	0	0	378	0.2	377	378	13.4	98.9
2025-07-25T03:38	10	0	0.1	0	0	378	0.2	377	378	13.4	98.8
2025-07-25T03:39	10	0	0.1	0	0	378	0.2	377	378	13.4	98.8
2025-07-25T03:40	10	0	0.1	0	0	378	0.2	378	378	13.4	98.8
2025-07-25T03:41	10	0	0.1	0	0	378	0.2	377	378	13.4	98.7
2025-07-25T03:42	10	0	0.1	0	0	378	0.2	378	379	13.4	98.7
2025-07-25T03:43	10	0	0.1	0	0	378	0.3	377	378	13.4	98.7
2025-07-25T03:44	10	0	0.1	0	0	378	0.2	378	379	13.5	98.7
2025-07-25T03:45	10	0	0.0	0	0	378	0.3	377	379	13.5	98.8
2025-07-25T03:46	10	0	0.1	0	0	378	0.3	377	378	13.5	98.8
2025-07-25T03:47	10	0	0.1	0	0	378	0.2	377	378	13.5	98.7
2025-07-25T03:48	10	0	0.1	0	0	378	0.2	377	378	13.5	98.4
2025-07-25T03:49	10	0	0.1	0	0	378	0.2	378	378	13.5	98.3
2025-07-25T03:50	10	0	0.1	0	0	378	0.2	377	378	13.4	98.3
2025-07-25T03:51	10	0	0.1	0	0	378	0.2	377	378	13.5	98.2
2025-07-25T03:52	10	0	0.1	0	0	378	0.2	377	378	13.5	98.1
2025-07-25T03:53	10	0	0.1	0	0	378	0.2	377	378	13.5	98.0
2025-07-25T03:54	10	0	0.1	0	0	378	0.2	378	378	13.5	98.0
2025-07-25T03:55	10	0	0.1	0	0	378	0.2	377	378	13.5	98.1
2025-07-25T03:56	10	0	0.1	0	0	378	0.3	377	378	13.5	98.0
2025-07-25T03:57	10	0	0.1	0	0	378	0.2	377	378	13.5	97.9
2025-07-25T03:58	10	0	0.1	0	0	378	0.2	377	378	13.5	97.9
2025-07-25T03:59	10	0	0.1	0	0	378	0.2	377	378	13.5	97.9
2025-07-25T04:00	10	0	0.1	0	0	378	0.2	377	378	13.5	97.8
2025-07-25T04:01	10	0	0.1	0	0	378	0.2	378	379	13.5	97.9
2025-07-25T04:02	10	0	0.1	0	0	379	0.2	378	379	13.5	97.9
2025-07-25T04:03	10	0	0.1	0	0	379	0.2	378	379	13.5	97.9
2025-07-25T04:04	10	0	0.1	0	0	379	0.3	378	380	13.6	98.0
2025-07-25T04:05	10	0	0.1	0	0	379	0.2	379	380	13.6	98.2
2025-07-25T04:06	10	0	0.1	0	0	380	0.2	379	380	13.5	98.2
2025-07-25T04:07	10	0	0.1	0	0	380	0.3	379	380	13.5	98.3
2025-07-25T04:08	10	0	0.1	0	0	380	0.2	380	381	13.5	98.4
2025-07-25T04:09	10	0	0.1	0	0	380	0.2	380	381	13.5	98.6
2025-07-25T04:10	10	0	0.1	0	0	380	0.3	380	381	13.5	98.6
2025-07-25T04:11	10	0	0.1	0	0	381	0.2	380	381	13.5	99.0
2025-07-25T04:12	10	0	0.1	0	0	381	0.3	380	382	13.5	99.0
2025-07-25T04:13	10	0	0.1	0	0	381	0.2	380	381	13.5	98.7
2025-07-25T04:14	10	0	0.1	0	0	381	0.2	380	382	13.5	98.4
2025-07-25T04:15	10	0	0.1	0	0	381	0.2	380	381	13.5	98.3
2025-07-25T04:16	10	0	0.1	0	0	381	0.2	381	382	13.5	98.4
2025-07-25T04:17	10	0	0.1	0	0	381	0.2	381	381	13.5	98.4
2025-07-25T04:18	10	0	0.1	0	1	381	0.3	380	381	13.5	98.3
2025-07-25T04:19	10	0	0.1	0	1	381	0.2	380	381	13.5	98.2
2025-07-25T04:20	10	0	0.1	0	1	381	0.3	380	381	13.5	98.3
2025-07-25T04:21	10	0	0.1	0	1	381	0.2	380	381	13.6	98.5
2025-07-25T04:22	10	1	0.1	0	1	381	0.3	380	381	13.6	98.4
2025-07-25T04:23	10	1	0.1	1	1	380	0.2	380	381	13.6	98.5
2025-07-25T04:24	10	1	0.1	1	1	380	0.2	380	381	13.6	98.6
2025-07-25T04:25	10	1	0.1	1	1	381	0.2	380	381	13.6	98.4
2025-07-25T04:26	10	1	0.1	1	2	381	0.2	380	381	13.6	98.3
2025-07-25T04:27	10	2	0.1	1	2	380	0.3	380	381	13.6	98.3
2025-07-25T04:28	10	2	0.1	2	2	381	0.2	380	381	13.6	98.3
2025-07-25T04:29	10	2	0.1	2	2	380	0.2	380	381	13.6	98.2
2025-07-25T04:30	10	2	0.1	2	3	380	0.2	380	381	13.6	98.1
2025-07-25T04:31	10	3	0.1	3	3	381	0.2	380	381	13.6	98.1
2025-07-25T04:32	10	3	0.1	3	4	381	0.2	380	381	13.6	98.2
2025-07-25T04:33	10	4	0.2	3	4	381	0.2	380	381	13.6	98.3
2025-07-25T04:34	10	4	0.2	4	4	381	0.2	380	381	13.6	98.5
2025-07-25T04:35	10	5	0.1	4	5	381	0.2	380	381	13.5	98.6
2025-07-25T04:36	10	5	0.1	5	5	381	0.2	380	381	13.5	98.3
2025-07-25T04:37	10	5	0.1	5	5	381	0.2	380	381	13.4	98.4
2025-07-25T04:38	10	5	0.1	5	5	380	0.2	380	381	13.4	98.4
2025-07-25T04:39	10	5	0.1	5	5	380	0.2	379	381	13.4	98.4
2025-07-25T04:40	10	5	0.1	5	6	381	0.2	380	381	13.5	98.5
2025-07-25T04:41	10	5	0.1	5	6	380	0.2	380	381	13.5	98.3
2025-07-25T04:42	10	6	0.1	5	6	381	0.2	380	381	13.5	98.2
2025-07-25T04:43	10	6	0.1	6	6	380	0.2	380	381	13.5	98.3
2025-07-25T04:44	10	6	0.1	6	7	380	0.2	380	381	13.6	98.6
2025-07-25T04:45	10	7	0.1	7	7	381	0.2	380	381	13.6	98.6
2025-07-25T04:46	10	7	0.2	7	7	381	0.2	380	381	13.5	98.6
2025-07-25T04:47	10	7	0.1	7	8	381	0.3	380	381	13.5	98.6
2025-07-25T04:48	10	8	0.2	8	8	381	0.3	381	382	13.5	98.5
2025-07-25T04:49	10	8	0.2	8	9	381	0.2	381	382	13.6	98.3
2025-07-25T04:50	10	9	0.1	9	9	382	0.2	381	382	13.6	98.2
2025-07-25T04:51	10	10	0.2	9	10	382	0.2	381	382	13.6	98.1
2025-07-25T04:52	10	13	1.4	10	15	382	0.3	382	383	13.6	98.0
2025-07-25T04:53	10	16	0.7	15	17	383	0.3	382	383	13.7	97.6
2025-07-25T04:54	10	17	0.3	17	18	383	0.2	383	384	13.8	97.6
2025-07-25T04:55	10	16	1.4	13	18	383	0.3	383	384	13.8	97.9
2025-07-25T04:56	10	12	0.4	11	13	383	0.2	383	384	13.8	97.7
2025-07-25T04:57	10	13	0.5	12	14	383	0.2	383	384	13.8	97.4
2025-07-25T04:58	10	12	0.5	12	14	383	0.2	383	384	13.9	97.4
2025-07-25T04:59	10	13	0.3	12	13	383	0.2	383	384	13.8	97.3
2025-07-25T05:00	10	18	2.5	13	21	384	0.4	383	385	13.8	97.0
2025-07-25T05:01	10	25	2.5	21	29	384	0.5	384	385	13.9	96.9
2025-07-25T05:02	10	31	0.7	29	32	385	0.4	385	386	14.0	96.9
2025-07-25T05:03	10	32	0.3	32	33	386	0.3	385	387	14.0	96.6
2025-07-25T05:04	10	33	0.2	33	33	387	0.3	386	387	14.1	96.2
2025-07-25T05:05	10	34	0.2	33	34	387	0.3	387	388	14.2	95.9
2025-07-25T05:06	10	34	0.2	34	35	388	0.2	387	388	14.3	95.7
2025-07-25T05:07	10	35	0.2	35	35	388	0.2	388	389	14.3	95.6
2025-07-25T05:08	10	36	0.2	35	36	389	0.2	388	389	14.4	95.1
2025-07-25T05:09	10	36	0.2	36	37	389	0.3	389	390	14.5	95.8
2025-07-25T05:10	10	37	0.1	37	37	389	0.3	389	390	14.5	95.5
2025-07-25T05:11	10	37	0.2	37	38	389	0.3	389	390	14.6	94.9
2025-07-25T05:12	10	38	0.1	38	38	390	0.3	389	390	14.6	92.7
2025-07-25T05:13	10	37	0.9	35	38	390	0.2	389	390	14.6	91.3
2025-07-25T05:14	10	33	1.5	30	35	390	0.4	389	390	14.8	92.4
2025-07-25T05:15	10	27	2.0	23	30	390	0.2	389	390	14.8	93.1
2025-07-25T05:16	10	20	1.4	18	23	389	0.5	388	390	14.9	93.8
2025-07-25T05:17	10	18	0.1	18	19	388	0.4	387	389	14.7	92.7
2025-07-25T05:18	10	19	0.3	18	19	388	0.2	388	389	14.7	92.6
2025-07-25T05:19	10	21	0.8	19	22	388	0.2	387	388	14.8	92.4
2025-07-25T05:20	10	24	1.0	22	25	388	0.2	388	389	14.8	92.3
2025-07-25T05:21	10	28	1.6	25	31	389	0.4	388	389	14.7	91.6
2025-07-25T05:22	10	33	1.3	31	35	389	0.2	389	390	14.8	90.8
2025-07-25T05:23	10	36	0.6	35	37	390	0.3	389	390	14.8	90.3
2025-07-25T05:24	10	37	0.1	37	37	391	0.2	390	391	14.9	89.2
2025-07-25T05:25	10	36	0.5	35	37	391	0.2	391	391	15.0	89.8
2025-07-25T05:26	10	34	0.6	33	35	391	0.2	391	392	15.0	91.1
2025-07-25T05:27	10	33	0.3	32	33	391	0.3	391	392	14.9	89.8
2025-07-25T05:28	10	32	0.2	31	32	391	0.3	390	392	14.9	88.9
2025-07-25T05:29	10	32	0.7	30	33	391	0.3	391	392	14.9	88.7
2025-07-25T05:30	10	30	1.0	28	32	391	0.3	391	392	15.0	88.3
2025-07-25T05:31	10	37	2.8	32	42	392	0.4	391	393	15.0	88.9
2025-07-25T05:32	10	46	1.4	42	48	393	0.5	392	394	15.0	88.5
2025-07-25T05:33	10	44	0.8	43	46	394	0.3	393	394	15.1	88.8
2025-07-25T05:34	10	51	2.6	46	55	394	0.5	394	396	15.2	87.5
2025-07-25T05:35	10	56	0.5	55	57	396	0.4	394	396	15.3	88.8
2025-07-25T05:36	10	57	0.4	56	58	396	0.3	396	397	15.3	87.3
2025-07-25T05:37	10	58	0.3	58	59	397	0.2	396	397	15.4	86.8
2025-07-25T05:38	10	59	0.3	59	60	397	0.2	397	398	15.4	85.7
2025-07-25T05:39	10	60	0.3	60	61	398	0.2	397	399	15.4	86.6
2025-07-25T05:40	10	61	0.3	60	62	399	0.2	398	399	15.4	87.9
2025-07-25T05:41	10	61	0.9	60	62	399	0.3	398	400	15.4	88.1
2025-07-25T05:42	10	62	0.8	60	63	399	0.5	398	400	15.3	87.1
2025-07-25T05:43	10	62	0.5	61	63	398	0.3	398	399	15.4	90.0
2025-07-25T05:44	10	62	1.1	61	64	399	0.2	398	399	15.2	93.1
2025-07-25T05:45	10	66	0.9	64	68	399	0.2	399	400	15.1	92.3
2025-07-25T05:46	10	68	0.2	67	68	400	0.3	399	401	15.1	92.6
2025-07-25T05:47	10	68	0.1	68	68	401	0.3	400	401	15.1	92.0
2025-07-25T05:48	10	66	1.9	64	69	401	0.4	400	402	15.2	92.1
2025-07-25T05:49	10	67	2.2	64	70	401	0.3	400	402	15.3	92.2
2025-07-25T05:50	10	71	0.2	70	71	401	0.2	401	402	15.2	91.3
2025-07-25T05:51	10	71	0.1	71	72	401	0.2	401	402	15.4	89.0
2025-07-25T05:52	10	72	0.2	71	72	401	0.3	400	402	15.5	90.1
2025-07-25T05:53	10	72	0.2	72	73	400	0.2	400	401	15.2	92.8
2025-07-25T05:54	10	73	0.3	73	74	402	0.3	401	402	15.2	93.3
2025-07-25T05:55	10	74	0.2	74	74	402	0.2	401	402	15.1	93.0
2025-07-25T05:56	10	75	0.2	74	75	401	0.3	401	402	15.1	92.8
2025-07-25T05:57	10	75	0.2	75	76	402	0.3	402	403	15.1	93.1
2025-07-25T05:58	10	76	0.2	76	77	402	0.3	402	403	15.1	93.1
2025-07-25T05:59	10	77	0.3	76	77	402	0.2	402	403	15.2	93.2
2025-07-25T06:00	10	78	0.5	77	79	403	0.3	402	403	15.3	93.8
2025-07-25T06:01	10	80	0.7	79	81	403	0.4	402	404	15.2	93.2
2025-07-25T06:02	10	81	0.2	81	82	404	0.3	403	404	15.3	93.7
2025-07-25T06:03	10	83	0.7	82	84	403	0.2	403	404	15.1	93.0
2025-07-25T06:04	10	74	6.7	64	84	403	0.4	402	404	15.1	92.4
2025-07-25T06:05	10	68	3.0	64	73	402	0.3	402	403	15.1	92.2
2025-07-25T06:06	10	69	3.4	62	73	403	0.2	402	403	15.0	92.3
2025-07-25T06:07	10	54	4.4	47	62	401	0.7	400	403	15.1	92.7
2025-07-25T06:08	10	44	1.6	42	47	401	0.4	399	401	15.2	93.0
2025-07-25T06:09	10	44	0.9	42	46	399	0.2	399	400	15.2	92.9
2025-07-25T06:10	10	50	2.8	46	58	400	0.5	399	401	15.3	92.7
2025-07-25T06:11	10	62	5.0	55	72	401	1.0	400	403	15.3	92.5
2025-07-25T06:12	10	81	5.3	72	89	404	1.3	402	406	15.4	92.6
2025-07-25T06:13	10	91	0.7	89	92	406	0.5	405	407	15.6	92.3
2025-07-25T06:14	10	88	0.9	87	90	406	0.3	406	407	15.5	91.0
2025-07-25T06:15	10	83	2.5	78	87	406	0.3	406	407	15.5	91.0
2025-07-25T06:16	10	69	6.5	56	78	405	1.1	403	407	15.5	90.1
2025-07-25T06:17	10	42	7.4	31	56	402	1.6	399	404	15.4	90.2
2025-07-25T06:18	10	28	1.7	25	31	398	0.9	397	400	15.4	89.9
2025-07-25T06:19	10	25	0.1	25	26	397	0.6	396	398	15.4	90.3
2025-07-25T06:20	10	26	0.3	25	27	396	0.3	395	397	15.4	90.6
2025-07-25T06:21	10	27	0.2	26	27	396	0.3	395	396	15.4	91.0
2025-07-25T06:22	10	27	0.1	27	27	395	0.2	395	396	15.4	90.3
2025-07-25T06:23	10	27	0.3	26	27	395	0.2	395	396	15.4	90.7
2025-07-25T06:24	10	26	0.2	26	27	395	0.2	395	396	15.4	90.7
2025-07-25T06:25	10	26	0.3	25	26	395	0.3	394	396	15.4	90.7
2025-07-25T06:26	10	24	0.5	23	25	395	0.2	395	396	15.4	91.1
2025-07-25T06:27	10	23	0.6	22	24	395	0.3	394	396	15.5	91.1
2025-07-25T06:28	10	21	0.5	20	22	394	0.3	393	395	15.4	90.9
2025-07-25T06:29	10	19	0.3	19	20	394	0.2	393	394	15.5	91.2
2025-07-25T06:30	10	18	0.2	18	19	393	0.3	392	394	15.4	91.1
2025-07-25T06:31	10	18	0.1	18	18	393	0.2	393	393	15.5	91.2
2025-07-25T06:32	10	19	0.3	18	19	392	0.2	392	393	15.5	88.9
2025-07-25T06:33	10	20	0.3	19	20	392	0.3	391	392	15.4	88.6
2025-07-25T06:34	10	20	0.1	20	20	392	0.2	391	392	15.4	88.5
2025-07-25T06:35	10	20	0.1	20	21	392	0.2	391	392	15.4	89.0
2025-07-25T06:36	10	20	0.1	20	20	392	0.2	391	392	15.4	89.4
2025-07-25T06:37	10	21	0.3	20	21	392	0.2	391	392	15.4	89.3
2025-07-25T06:38	10	22	0.4	21	23	392	0.3	392	393	15.4	89.5
2025-07-25T06:39	10	23	0.4	22	23	392	0.2	392	393	15.4	89.0
2025-07-25T06:40	10	20	0.7	19	22	392	0.2	392	393	15.4	89.6
2025-07-25T06:41	10	19	0.6	18	20	392	0.2	392	393	15.5	90.3
2025-07-25T06:42	10	16	0.5	16	18	392	0.3	391	392	15.4	89.6
2025-07-25T06:43	10	15	0.2	15	16	391	0.2	391	392	15.4	89.9
2025-07-25T06:44	10	15	0.1	15	15	390	0.3	390	391	15.4	90.0
2025-07-25T06:45	10	15	0.1	15	15	390	0.2	390	391	15.4	89.6
2025-07-25T06:46	10	15	0.2	15	16	390	0.2	390	390	15.3	89.5
2025-07-25T06:47	10	16	0.1	16	16	390	0.2	389	390	15.3	89.9
2025-07-25T06:48	10	17	0.5	16	18	390	0.2	390	390	15.3	90.4
2025-07-25T06:49	10	17	0.3	17	18	390	0.3	389	391	15.3	90.2
2025-07-25T06:50	10	17	0.4	17	18	390	0.2	390	390	15.3	90.8
2025-07-25T06:51	10	22	2.9	18	26	391	0.4	390	392	15.3	90.7
2025-07-25T06:52	10	26	2.0	24	32	391	0.3	391	392	15.3	90.5
2025-07-25T06:53	10	45	5.3	32	52	394	1.3	391	396	15.3	90.5
2025-07-25T06:54	10	39	8.5	23	47	395	0.5	394	396	15.4	90.0
2025-07-25T06:55	10	22	0.6	21	23	393	0.5	392	394	15.4	89.7
2025-07-25T06:56	10	22	0.3	21	22	392	0.2	392	393	15.4	89.8
2025-07-25T06:57	10	22	0.2	22	22	392	0.3	391	393	15.4	90.3
2025-07-25T06:58	10	22	0.3	22	23	392	0.3	391	392	15.3	90.0
2025-07-25T06:59	10	24	0.8	23	25	392	0.2	391	392	15.3	89.7
2025-07-25T07:00	10	27	0.9	25	28	392	0.3	391	393	15.3	90.2
2025-07-25T07:01	10	29	0.6	28	30	392	0.3	392	393	15.3	89.5
2025-07-25T07:02	10	33	2.0	30	37	393	0.4	393	394	15.3	89.3
2025-07-25T07:03	10	38	2.6	35	43	395	0.5	393	395	15.4	90.0
2025-07-25T07:04	10	37	0.7	36	38	395	0.5	394	396	15.4	89.8
2025-07-25T07:05	10	37	0.2	37	37	396	0.3	396	397	15.4	89.8
2025-07-25T07:06	10	36	0.4	36	37	397	0.3	396	397	15.4	90.0
2025-07-25T07:07	10	36	0.2	35	36	397	0.2	397	398	15.5	89.3
2025-07-25T07:08	10	35	0.1	35	36	398	0.2	397	398	15.6	89.4
2025-07-25T07:09	10	36	0.2	35	36	398	0.2	397	398	15.5	88.8
2025-07-25T07:10	10	38	1.2	36	41	398	0.2	397	399	15.5	88.8
2025-07-25T07:11	10	51	7.0	41	63	399	1.3	397	402	15.4	88.9
2025-07-25T07:12	10	78	21.0	51	104	403	2.4	400	407	15.5	89.0
2025-07-25T07:13	10	58	10.0	52	93	404	1.2	402	407	15.5	88.2
2025-07-25T07:14	10	58	7.7	51	76	404	0.4	403	404	15.6	88.2
2025-07-25T07:15	10	73	23.8	52	114	404	1.5	403	408	15.7	87.5
2025-07-25T07:16	10	70	13.9	59	107	406	1.0	405	408	15.6	86.3
2025-07-25T07:17	10	63	1.2	61	66	406	0.2	405	406	15.7	86.7
2025-07-25T07:18	10	67	3.4	62	73	406	0.2	406	406	15.7	88.2
2025-07-25T07:19	10	73	1.8	70	76	407	0.5	406	408	15.7	88.1
2025-07-25T07:20	10	82	5.7	75	93	407	0.3	407	408	15.6	87.7
2025-07-25T07:21	10	98	5.9	89	112	410	1.0	408	411	15.6	88.3
2025-07-25T07:22	10	92	9.2	82	112	411	0.8	410	412	15.7	86.9
2025-07-25T07:23	10	92	14.7	77	119	411	1.1	410	413	15.8	86.9
2025-07-25T07:24	10	92	19.6	69	124	414	1.3	411	415	15.8	87.4
2025-07-25T07:25	10	70	1.1	67	72	411	0.6	410	412	16.0	88.2
2025-07-25T07:26	10	65	0.8	64	67	410	0.5	409	411	15.9	87.5
2025-07-25T07:27	10	64	1.7	62	68	408	0.5	407	409	15.8	86.2
2025-07-25T07:28	10	66	4.1	62	75	409	0.5	408	410	15.9	87.7
2025-07-25T07:29	10	64	1.3	62	67	409	0.5	409	410	15.8	88.0
2025-07-25T07:30	10	67	3.8	62	74	408	0.6	407	409	15.7	88.2
2025-07-25T07:31	10	59	3.4	55	67	408	0.3	407	409	15.8	89.0
2025-07-25T07:32	10	54	0.7	53	55	407	0.5	406	408	15.7	88.1
2025-07-25T07:33	10	52	0.4	52	53	406	0.5	406	408	15.7	87.9
2025-07-25T07:34	10	52	0.1	51	52	406	0.2	406	407	15.8	88.5
2025-07-25T07:35	10	52	0.2	52	52	407	0.2	406	407	15.9	88.8
2025-07-25T07:36	10	52	0.1	52	53	407	0.3	406	407	15.9	87.2
2025-07-25T07:37	10	52	0.3	51	52	407	0.3	406	408	15.9	86.4
2025-07-25T07:38	10	51	0.4	50	51	407	0.2	407	408	16.0	87.2
2025-07-25T07:39	10	49	0.5	48	50	407	0.6	406	408	16.0	85.4
2025-07-25T07:40	10	47	0.6	47	48	407	0.4	406	408	15.9	85.4
2025-07-25T07:41	10	46	0.5	45	46	407	0.2	407	408	16.0	86.1
2025-07-25T07:42	10	44	0.4	44	45	407	0.3	406	408	16.0	86.1
2025-07-25T07:43	10	43	0.3	43	44	406	0.6	405	408	16.1	85.9
2025-07-25T07:44	10	42	0.2	42	43	405	0.4	404	406	16.0	85.5
2025-07-25T07:45	10	42	0.1	41	42	405	0.2	405	406	15.9	85.6
2025-07-25T07:46	10	42	0.1	41	42	405	0.2	404	405	15.9	86.0
2025-07-25T07:47	10	42	0.1	42	42	405	0.2	405	406	16.0	86.0
2025-07-25T07:48	10	42	0.1	42	42	405	0.4	404	406	16.0	85.6
2025-07-25T07:49	10	43	0.1	42	43	404	0.3	403	405	15.9	85.4
2025-07-25T07:50	10	43	0.2	43	43	404	0.3	404	405	15.9	85.9
2025-07-25T07:51	10	44	0.2	43	44	405	0.3	404	405	16.0	85.3
2025-07-25T07:52	10	44	0.2	44	45	404	0.4	403	405	15.9	85.0
2025-07-25T07:53	10	45	0.2	45	46	405	0.3	404	405	16.0	84.5
2025-07-25T07:54	10	46	0.1	46	46	405	0.3	404	406	15.9	83.9
2025-07-25T07:55	10	46	0.1	46	46	405	0.2	404	405	16.0	84.5
2025-07-25T07:56	10	46	0.1	46	46	404	0.5	403	405	16.0	84.4
2025-07-25T07:57	10	46	0.1	45	46	404	0.4	403	405	16.0	84.7
2025-07-25T07:58	10	45	0.1	45	45	405	0.2	404	405	16.1	84.5
2025-07-25T07:59	10	45	0.1	45	45	404	0.3	404	405	16.1	84.1
2025-07-25T08:00	10	45	0.1	45	45	405	0.5	404	406	16.2	84.9
2025-07-25T08:01	10	45	0.1	45	45	406	0.4	405	406	16.4	85.1
2025-07-25T08:02	10	45	0.2	45	45	405	0.4	405	406	16.3	84.6
2025-07-25T08:03	10	46	0.2	45	46	406	0.3	406	407	16.3	84.6
2025-07-25T08:04	10	46	0.2	46	47	407	0.3	406	408	16.4	85.1
2025-07-25T08:05	10	47	0.2	47	47	406	0.7	405	408	16.4	83.9
2025-07-25T08:06	10	48	0.2	47	48	406	0.2	405	406	16.3	83.6
2025-07-25T08:07	10	49	0.3	48	49	406	0.2	406	407	16.2	83.8
2025-07-25T08:08	10	50	0.5	49	51	406	0.4	405	407	16.2	83.6
2025-07-25T08:09	10	51	0.5	51	52	407	0.6	406	408	16.2	83.8
2025-07-25T08:10	10	53	0.5	52	54	409	0.4	408	409	16.4	84.1
2025-07-25T08:11	10	55	0.4	54	56	410	0.3	409	411	16.4	83.6
2025-07-25T08:12	10	56	0.3	55	56	410	0.3	409	410	16.4	84.1
2025-07-25T08:13	10	57	0.1	56	57	410	0.3	409	410	16.4	83.2
2025-07-25T08:14	10	57	0.1	57	57	410	0.3	409	410	16.4	82.9
2025-07-25T08:15	10	58	0.3	57	58	410	0.3	409	411	16.4	83.1
2025-07-25T08:16	10	59	0.7	58	61	411	0.6	410	412	16.6	84.4
2025-07-25T08:17	10	63	1.4	61	65	412	0.5	411	413	16.7	83.7
2025-07-25T08:18	10	68	1.7	66	71	412	0.4	411	413	16.7	83.7
2025-07-25T08:19	10	77	3.8	71	83	414	0.8	412	415	16.6	82.7
2025-07-25T08:20	10	97	10.8	82	119	416	1.8	414	420	16.5	82.1
2025-07-25T08:21	10	103	10.3	94	127	420	0.9	418	422	16.8	83.7
2025-07-25T08:22	10	106	7.3	96	121	422	0.5	421	423	16.8	81.8
2025-07-25T08:23	10	120	19.0	98	153	422	2.2	420	426	16.7	82.2
2025-07-25T08:24	10	87	9.0	80	121	422	1.8	420	427	16.9	82.6
2025-07-25T08:25	10	77	1.5	75	80	420	0.8	418	421	16.9	82.3
2025-07-25T08:26	10	74	0.8	72	75	418	0.6	417	419	17.0	82.6
2025-07-25T08:27	10	72	0.3	71	72	417	0.8	416	419	16.9	81.8
2025-07-25T08:28	10	71	0.2	71	71	417	0.3	417	418	16.8	82.1
2025-07-25T08:29	10	72	0.4	71	72	419	0.4	418	419	17.0	81.5
2025-07-25T08:30	10	73	0.5	72	74	419	0.2	419	419	17.2	82.1
2025-07-25T08:31	10	76	1.2	74	78	418	0.7	416	419	17.2	80.8
2025-07-25T08:32	10	80	1.1	78	82	417	0.5	416	418	17.1	80.0
2025-07-25T08:33	10	93	6.7	82	103	420	1.1	418	421	17.1	79.7
2025-07-25T08:34	10	126	23.1	97	163	425	4.0	420	431	17.2	79.9
2025-07-25T08:35	10	165	8.1	134	172	433	2.3	429	437	17.3	79.0
2025-07-25T08:36	10	176	3.6	169	181	438	0.7	436	439	17.5	78.6
2025-07-25T08:37	10	166	4.9	154	171	437	0.7	436	439	17.4	78.4
2025-07-25T08:38	10	141	8.0	122	154	434	1.5	432	437	17.5	77.5
2025-07-25T08:39	10	106	7.4	93	122	429	3.3	425	435	17.3	77.4
2025-07-25T08:40	10	91	4.1	87	104	426	0.5	425	427	17.3	78.3
2025-07-25T08:41	10	96	9.9	84	113	427	1.0	425	429	17.4	79.2
2025-07-25T08:42	10	107	15.2	86	133	427	0.9	426	429	17.6	79.3
2025-07-25T08:43	10	97	8.4	85	110	426	1.1	424	428	17.6	78.3
2025-07-25T08:44	10	81	1.8	77	85	424	2.3	420	427	17.6	78.6
2025-07-25T08:45	10	75	0.9	74	78	419	0.9	418	421	17.3	76.8
2025-07-25T08:46	10	75	1.1	73	76	419	0.6	418	420	17.3	78.1
2025-07-25T08:47	10	71	0.9	70	73	419	0.3	419	420	17.3	77.5
2025-07-25T08:48	10	69	0.3	69	70	419	0.2	419	420	17.2	78.2
2025-07-25T08:49	10	68	0.3	68	69	420	0.4	419	421	17.4	79.4
2025-07-25T08:50	10	68	0.2	67	68	421	0.4	420	422	17.6	79.1
2025-07-25T08:51	10	68	0.2	67	68	420	0.9	418	421	17.6	78.5
2025-07-25T08:52	10	68	0.1	68	69	418	0.4	418	419	17.4	76.7
2025-07-25T08:53	10	69	0.4	68	70	419	0.4	418	420	17.5	77.2
2025-07-25T08:54	10	71	0.4	70	71	419	0.3	418	419	17.6	77.1
2025-07-25T08:55	10	72	0.4	71	73	420	0.4	419	421	17.6	77.7
2025-07-25T08:56	10	73	0.2	72	73	420	0.5	419	421	17.8	77.9
2025-07-25T08:57	10	74	0.4	73	74	419	0.2	419	420	17.7	76.7
2025-07-25T08:58	10	74	0.2	74	74	419	0.4	418	420	17.6	77.0
2025-07-25T08:59	10	74	0.1	74	74	419	0.3	419	420	17.7	77.2
2025-07-25T09:00	10	78	2.2	74	81	422	0.7	420	423	17.6	77.1
2025-07-25T09:01	10	75	0.2	74	75	423	0.4	422	424	17.8	77.6
2025-07-25T09:02	10	74	0.4	73	75	421	1.0	420	423	17.8	74.7
2025-07-25T09:03	10	72	0.6	71	73	421	0.8	420	422	17.6	75.0
2025-07-25T09:04	10	70	0.7	69	71	420	1.6	417	422	17.7	74.8
2025-07-25T09:05	10	68	0.7	67	69	417	0.6	416	418	17.4	73.6
2025-07-25T09:06	10	66	0.5	65	67	418	0.4	417	419	17.5	75.0
2025-07-25T09:07	10	64	0.4	64	65	417	0.5	417	419	17.4	75.7
2025-07-25T09:08	10	64	0.1	64	64	419	0.6	418	420	17.6	76.0
2025-07-25T09:09	10	64	0.1	64	64	420	0.4	419	421	17.8	77.2
2025-07-25T09:10	10	64	0.1	64	64	420	0.4	419	421	17.8	75.5
2025-07-25T09:11	10	64	0.1	63	64	420	0.3	419	420	17.6	75.4
2025-07-25T09:12	10	63	0.3	62	64	420	0.2	420	421	17.7	76.3
2025-07-25T09:13	10	62	0.4	61	63	419	0.9	417	421	17.8	75.4
2025-07-25T09:14	10	61	0.4	60	61	417	0.3	416	418	17.7	72.1
2025-07-25T09:15	10	59	0.5	58	60	416	0.3	416	417	17.8	72.2
2025-07-25T09:16	10	57	0.5	57	58	416	0.7	415	417	17.7	69.8
2025-07-25T09:17	10	56	0.5	55	57	415	0.5	413	416	17.7	71.0
2025-07-25T09:18	10	54	0.5	53	56	413	0.5	412	414	17.7	71.1
2025-07-25T09:19	10	53	0.6	52	54	413	0.4	412	414	17.6	71.6
2025-07-25T09:20	10	51	0.5	50	52	412	0.6	411	413	17.6	71.6
2025-07-25T09:21	10	49	0.6	48	50	411	0.3	410	411	17.5	72.3
2025-07-25T09:22	10	48	0.5	47	48	409	0.5	409	411	17.5	72.1
2025-07-25T09:23	10	46	0.4	45	47	409	0.3	409	410	17.5	71.3
2025-07-25T09:24	10	45	0.4	44	46	409	0.5	408	410	17.4	72.4
2025-07-25T09:25	10	44	0.3	43	45	410	0.5	409	411	17.5	73.7
2025-07-25T09:26	10	43	0.3	42	44	410	0.5	409	411	17.6	73.9
2025-07-25T09:27	10	42	0.3	41	42	409	0.4	408	410	17.5	72.2
2025-07-25T09:28	10	41	0.3	40	42	409	0.2	408	409	17.5	72.9
2025-07-25T09:29	10	40	0.2	40	41	408	0.4	407	409	17.5	73.1
2025-07-25T09:30	10	40	0.2	39	40	409	0.5	408	410	17.5	74.3
2025-07-25T09:31	10	40	0.2	40	41	410	0.4	409	411	17.5	74.8
2025-07-25T09:32	10	40	0.3	40	41	410	0.4	409	411	17.5	75.3
2025-07-25T09:33	10	41	0.3	41	42	410	0.3	409	411	17.5	74.8
2025-07-25T09:34	10	42	0.3	41	43	409	0.6	408	410	17.4	73.7
2025-07-25T09:35	10	43	0.3	43	44	409	0.3	409	410	17.4	74.1
2025-07-25T09:36	10	44	0.3	43	44	410	0.4	409	411	17.4	74.8
2025-07-25T09:37	10	44	0.3	44	45	410	0.4	409	410	17.3	75.2
2025-07-25T09:38	10	45	0.3	45	46	409	0.3	408	410	17.2	74.8
2025-07-25T09:39	10	46	0.4	45	46	408	0.5	407	409	17.2	74.0
2025-07-25T09:40	10	47	0.5	46	48	408	0.3	407	408	17.2	76.3
2025-07-25T09:41	10	49	0.7	48	50	410	0.8	408	411	17.2	77.8
2025-07-25T09:42	10	51	0.7	50	52	410	0.3	409	411	17.2	78.4
2025-07-25T09:43	10	53	0.6	52	54	410	0.2	409	410	17.1	78.8
2025-07-25T09:44	10	55	0.5	54	56	410	0.8	409	412	17.0	79.9
2025-07-25T09:45	10	56	0.3	56	57	411	0.2	411	412	17.1	80.5
2025-07-25T09:46	10	57	0.2	57	58	412	0.3	411	413	17.2	80.6
2025-07-25T09:47	10	57	0.2	57	58	412	0.3	411	412	17.0	80.2
2025-07-25T09:48	10	57	0.3	56	57	412	0.5	411	413	17.0	81.0
2025-07-25T09:49	10	56	0.3	55	57	413	0.3	412	414	17.1	81.2
2025-07-25T09:50	10	55	0.3	54	55	412	0.5	411	413	17.2	80.8
2025-07-25T09:51	10	54	0.3	53	54	412	0.6	411	413	17.1	80.2
2025-07-25T09:52	10	53	0.2	53	53	412	0.4	411	413	17.1	80.3
2025-07-25T09:53	10	53	0.1	53	53	411	0.4	410	411	17.1	80.3
2025-07-25T09:54	10	53	0.2	53	53	410	0.2	410	411	17.1	76.0
2025-07-25T09:55	10	53	0.2	53	54	411	0.2	410	411	17.1	80.3
2025-07-25T09:56	10	54	0.3	54	55	411	0.7	410	412	17.1	80.3
2025-07-25T09:57	10	56	0.5	55	56	412	0.4	411	413	17.1	80.3
2025-07-25T09:58	10	57	0.5	56	58	411	0.5	410	412	17.1	80.3
2025-07-25T09:59	10	59	0.6	58	60	410	0.4	409	411	16.9	79.2
2025-07-25T10:00	10	61	0.5	60	61	411	0.7	410	412	16.9	80.2
2025-07-25T10:01	10	62	0.4	61	63	412	0.3	411	413	16.9	80.7
2025-07-25T10:02	10	64	0.3	63	64	413	0.3	412	413	16.8	81.0
2025-07-25T10:03	10	65	0.4	64	65	412	0.3	411	412	16.9	81.7
2025-07-25T10:04	10	66	0.4	65	66	413	0.4	412	414	17.0	82.3
2025-07-25T10:05	10	67	0.5	66	68	413	0.2	412	413	17.0	82.8
2025-07-25T10:06	10	69	0.6	68	70	412	0.7	411	414	17.0	82.8
2025-07-25T10:07	10	71	0.5	70	72	412	0.7	411	414	17.0	83.3
2025-07-25T10:08	10	73	0.6	72	74	414	0.9	412	415	17.0	83.7
2025-07-25T10:09	10	74	0.4	74	75	415	0.5	414	416	17.1	84.0
2025-07-25T10:10	10	76	0.2	75	76	414	0.6	413	415	17.1	82.5
2025-07-25T10:11	10	75	0.2	75	76	413	0.4	412	414	17.1	82.5
2025-07-25T10:12	10	75	0.4	74	75	412	0.8	410	413	17.0	81.1
2025-07-25T10:13	10	73	0.5	72	74	411	0.8	410	413	16.9	81.1
2025-07-25T10:14	10	71	0.6	70	72	412	0.3	412	413	16.9	80.9
2025-07-25T10:15	10	69	0.7	68	70	412	0.7	411	414	16.9	81.6
2025-07-25T10:16	10	66	1.0	64	68	412	0.4	411	413	16.9	82.8
2025-07-25T10:17	10	64	0.2	63	64	412	0.3	411	413	17.0	83.7
2025-07-25T10:18	10	62	0.6	61	63	412	0.5	411	413	16.9	85.1
2025-07-25T10:19	10	61	0.4	60	61	413	0.4	412	414	17.0	85.9
2025-07-25T10:20	10	59	0.3	59	60	414	0.4	413	414	17.0	85.5
2025-07-25T10:21	10	59	0.1	58	59	413	0.5	412	414	17.0	86.2
2025-07-25T10:22	10	58	0.4	58	59	412	0.5	410	412	16.9	85.5
2025-07-25T10:23	10	57	0.4	56	58	410	0.4	409	411	16.7	85.5
2025-07-25T10:24	10	55	0.7	54	56	408	0.9	407	410	16.6	85.7
2025-07-25T10:25	10	57	1.1	55	58	409	0.8	407	410	16.8	86.5
2025-07-25T10:26	10	59	0.2	58	59	410	0.5	409	411	16.8	85.9
2025-07-25T10:27	10	58	0.4	57	59	409	0.7	408	410	16.8	85.8
2025-07-25T10:28	10	57	0.6	56	58	409	0.3	408	409	16.7	86.4
2025-07-25T10:29	10	55	0.4	54	56	408	0.8	406	409	16.7	85.3
2025-07-25T10:30	10	54	0.1	54	54	408	0.3	407	408	16.6	85.9
2025-07-25T10:31	10	54	0.1	54	55	408	0.6	407	409	16.6	86.4
2025-07-25T10:32	10	55	0.2	54	55	409	0.4	408	410	16.7	87.3
2025-07-25T10:33	10	55	0.1	55	55	408	0.5	407	409	16.5	85.8
2025-07-25T10:34	10	55	0.3	55	56	407	0.2	406	407	16.4	88.0
2025-07-25T10:35	10	56	0.2	56	57	407	0.8	406	409	16.4	88.4
2025-07-25T10:36	10	56	0.2	56	56	409	0.6	408	410	16.5	88.2
2025-07-25T10:37	10	57	0.3	56	57	409	0.4	408	410	16.5	88.5
2025-07-25T10:38	10	57	0.2	56	57	410	0.5	409	411	16.5	88.9
2025-07-25T10:39	10	56	0.1	56	56	408	0.8	406	409	16.4	88.4
2025-07-25T10:40	10	56	0.1	56	57	406	0.4	406	407	16.2	86.4
2025-07-25T10:41	10	57	0.4	57	58	406	0.5	405	407	16.2	87.1
2025-07-25T10:42	10	59	0.6	58	60	406	0.3	405	407	16.2	87.3
2025-07-25T10:43	10	61	0.8	60	63	408	0.8	406	409	16.2	87.0
2025-07-25T10:44	10	64	1.0	63	66	408	0.4	407	408	16.1	86.6
2025-07-25T10:45	10	68	1.0	66	70	410	0.9	408	411	16.2	87.4
2025-07-25T10:46	10	71	1.0	69	73	411	0.7	410	412	16.3	86.9
2025-07-25T10:47	10	74	1.0	73	76	413	0.9	412	415	16.4	88.5
2025-07-25T10:48	10	78	1.0	76	79	414	0.4	413	415	16.5	88.3
2025-07-25T10:49	10	81	1.1	79	83	414	0.4	413	415	16.6	88.2
2025-07-25T10:50	10	85	1.1	83	87	416	0.8	414	417	16.6	87.3
2025-07-25T10:51	10	89	1.5	87	92	414	0.5	414	416	16.4	86.4
2025-07-25T10:52	10	93	0.9	92	95	417	1.1	415	418	16.5	86.2
2025-07-25T10:53	10	96	0.9	94	98	418	0.9	417	420	16.6	87.3
2025-07-25T10:54	10	102	4.0	97	110	420	0.8	418	421	16.8	88.2
2025-07-25T10:55	10	110	1.5	109	119	420	0.4	419	421	16.6	86.5
2025-07-25T10:56	10	109	1.4	107	111	421	0.8	420	422	16.6	87.1
2025-07-25T10:57	10	108	0.8	106	109	420	0.9	418	422	16.5	86.2
2025-07-25T10:58	10	103	1.3	101	106	419	0.4	418	420	16.5	86.4
2025-07-25T10:59	10	96	2.3	93	101	420	0.8	419	421	16.6	85.9
2025-07-25T11:00	10	91	1.0	90	93	417	0.7	416	419	16.7	85.8
2025-07-25T11:01	10	88	0.8	87	90	416	0.9	415	418	16.6	83.6
2025-07-25T11:02	10	86	0.5	85	87	415	0.5	414	416	16.6	84.4
2025-07-25T11:03	10	85	0.2	85	86	414	0.5	413	415	16.5	82.2
2025-07-25T11:04	10	85	0.1	85	85	413	0.5	412	414	16.4	81.2
2025-07-25T11:05	10	86	0.6	85	88	413	0.6	412	415	16.5	81.5
2025-07-25T11:06	10	89	1.0	88	91	414	0.7	413	416	16.4	82.4
2025-07-25T11:07	10	93	1.1	91	94	414	0.4	413	415	16.4	82.1
2025-07-25T11:08	10	97	1.0	95	98	415	0.6	414	416	16.5	81.1
2025-07-25T11:09	10	100	1.1	98	102	416	1.0	415	418	16.6	80.4
2025-07-25T11:10	10	103	0.8	102	104	417	0.5	416	418	16.7	79.1
2025-07-25T11:11	10	104	0.8	102	104	418	0.6	416	419	16.6	78.5
2025-07-25T11:12	10	100	0.8	98	101	418	0.5	417	419	16.7	79.1
2025-07-25T11:13	10	98	0.3	97	98	418	0.6	416	419	16.6	79.0
2025-07-25T11:14	10	98	0.5	97	99	418	0.8	417	419	16.6	79.3
2025-07-25T11:15	10	103	2.9	99	108	420	1.0	419	422	16.8	79.2
2025-07-25T11:16	10	114	3.1	109	120	424	1.4	421	426	16.9	78.8
2025-07-25T11:17	10	123	5.7	114	131	428	1.4	425	430	17.1	79.3
2025-07-25T11:18	10	126	2.8	122	130	429	0.6	428	431	17.2	79.2
2025-07-25T11:19	10	127	0.8	125	128	428	0.5	427	429	17.1	78.5
2025-07-25T11:20	10	120	3.2	116	126	428	0.6	426	429	17.0	77.6
2025-07-25T11:21	10	116	4.5	110	123	428	0.8	427	430	16.9	77.5
2025-07-25T11:22	10	106	2.3	102	111	426	1.3	423	427	16.9	77.0
2025-07-25T11:23	10	100	1.1	98	102	424	0.5	424	425	16.9	77.5
2025-07-25T11:24	10	96	1.1	95	98	423	0.7	422	425	17.1	77.1
2025-07-25T11:25	10	97	1.9	95	102	422	0.8	420	423	17.2	76.2
2025-07-25T11:26	10	108	2.5	102	112	423	1.1	421	425	17.1	75.6
2025-07-25T11:27	10	106	3.4	102	112	422	0.5	421	423	16.9	76.2
2025-07-25T11:28	10	99	6.6	90	106	422	1.2	420	424	16.9	76.7
2025-07-25T11:29	10	90	2.4	88	96	421	0.8	419	422	16.8	77.2
2025-07-25T11:30	10	150	29.8	96	192	429	5.4	421	435	17.1	78.2
2025-07-25T11:31	10	190	18.4	164	214	435	1.9	432	438	17.2	77.3
2025-07-25T11:32	10	207	11.5	170	217	440	1.9	437	443	17.1	77.3
2025-07-25T11:33	10	138	14.2	121	169	435	2.6	432	440	17.1	77.4
2025-07-25T11:34	10	122	6.0	112	132	434	0.6	433	435	17.3	77.5
2025-07-25T11:35	10	187	32.1	124	223	437	3.7	431	442	17.4	76.8
2025-07-25T11:36	10	176	27.0	134	218	442	3.7	436	446	18.0	78.0
2025-07-25T11:37	10	122	4.1	115	132	436	3.1	431	442	17.7	75.2
2025-07-25T11:38	10	89	9.4	81	115	427	3.9	422	434	17.2	75.3
2025-07-25T11:39	10	84	1.0	82	87	424	0.5	423	426	17.0	75.9
2025-07-25T11:40	10	98	6.8	87	111	428	1.6	426	430	17.3	77.2
2025-07-25T11:41	10	88	2.0	84	92	427	1.6	424	429	17.5	74.3
2025-07-25T11:42	10	84	0.4	84	85	424	0.5	423	425	17.4	75.7
2025-07-25T11:43	10	87	0.7	85	88	424	0.7	423	426	17.5	76.4
2025-07-25T11:44	10	90	1.3	88	92	426	0.5	425	427	17.7	76.6
2025-07-25T11:45	10	93	0.7	92	95	425	0.4	424	426	17.7	76.3
2025-07-25T11:46	10	99	2.7	95	103	427	1.2	426	430	17.8	75.8
2025-07-25T11:47	10	107	2.2	103	111	430	0.8	429	431	17.9	73.9
2025-07-25T11:48	10	110	6.6	101	127	429	0.8	427	430	17.6	74.1
2025-07-25T11:49	10	99	3.4	95	106	428	1.1	426	430	17.6	75.1
2025-07-25T11:50	10	93	1.0	92	96	424	1.1	422	427	17.6	72.0
2025-07-25T11:51	10	91	0.7	90	92	425	1.2	423	427	17.6	74.0
2025-07-25T11:52	10	89	0.7	88	90	427	0.6	426	428	17.8	75.2
2025-07-25T11:53	10	89	0.8	88	90	427	0.5	426	428	18.0	74.8
2025-07-25T11:54	10	93	1.5	90	96	426	0.6	424	427	17.9	72.9
2025-07-25T11:55	10	98	1.2	96	100	426	0.8	424	427	17.8	73.7
2025-07-25T11:56	10	101	3.0	97	106	426	1.1	424	428	17.7	73.5
2025-07-25T11:57	10	94	4.6	87	102	426	0.8	425	428	17.6	74.2
2025-07-25T11:58	10	84	1.4	82	87	426	0.9	424	427	17.8	74.8
2025-07-25T11:59	10	81	0.6	80	82	424	0.5	423	425	17.9	73.4
2025-07-25T12:00	10	79	0.4	79	80	425	0.8	424	426	17.9	73.0
2025-07-25T12:01	10	78	0.3	78	79	425	0.6	424	426	18.0	73.5
2025-07-25T12:02	10	77	0.4	77	78	424	0.6	423	426	18.0	73.9
2025-07-25T12:03	10	76	0.4	75	77	424	0.4	423	425	17.9	74.1
2025-07-25T12:04	10	74	0.7	73	75	424	0.4	424	425	18.0	74.9
2025-07-25T12:05	10	72	0.3	72	73	423	0.7	422	424	17.9	74.9
2025-07-25T12:06	10	72	0.4	71	73	423	0.8	421	425	17.9	75.0
2025-07-25T12:07	10	70	1.1	68	71	422	0.4	421	423	17.6	74.7
2025-07-25T12:08	10	68	0.4	67	69	421	0.7	420	422	17.8	74.3
2025-07-25T12:09	10	69	0.2	68	69	420	1.0	418	421	17.7	74.5
2025-07-25T12:10	10	68	0.3	67	68	419	0.3	418	419	17.8	75.8
2025-07-25T12:11	10	67	0.3	66	67	418	0.5	417	419	17.7	75.9
2025-07-25T12:12	10	66	0.3	65	66	419	0.5	419	421	17.8	77.1
2025-07-25T12:13	10	65	0.4	64	65	421	0.4	420	421	17.8	75.9
2025-07-25T12:14	10	64	0.3	63	64	420	0.4	419	420	17.9	76.4
2025-07-25T12:15	10	63	0.2	62	63	418	0.6	418	420	17.7	75.3
2025-07-25T12:16	10	62	0.2	62	62	418	0.6	417	419	17.6	76.4
2025-07-25T12:17	10	61	0.3	61	62	418	0.2	417	418	17.5	77.0
2025-07-25T12:18	10	60	0.4	59	61	418	0.7	417	419	17.6	78.0
2025-07-25T12:19	10	59	0.3	58	59	418	0.5	417	419	17.6	76.6
2025-07-25T12:20	10	58	0.2	58	59	417	0.5	416	418	17.6	75.8
2025-07-25T12:21	10	58	0.1	58	58	416	0.4	415	417	17.7	75.1
2025-07-25T12:22	10	58	0.1	58	58	415	0.3	415	416	17.7	73.8
2025-07-25T12:23	10	59	0.2	58	59	415	0.7	414	416	17.7	73.3
2025-07-25T12:24	10	59	0.3	59	60	414	0.3	414	415	17.4	72.9
2025-07-25T12:25	10	60	0.3	60	61	414	0.3	414	415	17.5	72.5
2025-07-25T12:26	10	61	0.3	61	62	416	0.7	415	418	17.5	73.0
2025-07-25T12:27	10	62	0.3	62	63	418	0.5	416	418	17.6	73.2
2025-07-25T12:28	10	63	0.1	62	63	418	0.5	417	419	17.7	73.2
2025-07-25T12:29	10	63	0.1	62	63	419	0.3	418	420	17.8	73.3
2025-07-25T12:30	10	63	0.1	62	63	419	0.5	418	420	17.9	73.2
2025-07-25T12:31	10	63	0.2	63	64	419	0.8	418	420	17.9	73.5
2025-07-25T12:32	10	64	0.2	64	64	420	0.5	419	421	17.9	72.9
2025-07-25T12:33	10	65	0.6	64	66	421	0.4	420	421	17.9	73.4
2025-07-25T12:34	10	67	0.8	66	69	422	0.6	421	423	18.1	73.9
2025-07-25T12:35	10	70	1.0	69	72	422	0.3	421	423	18.0	72.8
2025-07-25T12:36	10	74	1.3	72	77	422	0.5	421	423	17.9	71.5
2025-07-25T12:37	10	79	1.0	77	80	422	0.4	421	422	17.8	71.9
2025-07-25T12:38	10	79	0.4	79	80	423	0.3	422	424	17.8	72.5
2025-07-25T12:39	10	79	0.1	78	79	423	0.3	422	424	18.0	72.6
2025-07-25T12:40	10	79	0.4	79	80	424	0.3	423	424	18.1	73.0
2025-07-25T12:41	10	81	0.6	80	82	426	0.8	424	427	18.1	72.3
2025-07-25T12:42	10	84	0.8	82	85	426	0.6	425	427	18.0	71.5
2025-07-25T12:43	10	86	0.7	85	87	426	0.3	425	426	17.8	71.7
2025-07-25T12:44	10	88	0.3	87	89	425	0.6	425	427	17.9	72.9
2025-07-25T12:45	10	88	0.2	88	89	427	0.4	426	427	18.1	72.9
2025-07-25T12:46	10	89	0.4	89	90	427	0.7	426	429	18.1	73.1
2025-07-25T12:47	10	91	0.5	90	92	427	0.4	426	428	18.1	72.0
2025-07-25T12:48	10	93	0.9	91	95	426	0.5	425	427	17.9	70.9
2025-07-25T12:49	10	96	1.2	94	99	428	0.7	426	429	18.1	72.8
2025-07-25T12:50	10	113	12.1	99	132	430	1.7	428	434	18.2	71.9
2025-07-25T12:51	10	140	10.0	125	152	437	2.7	432	441	18.2	72.5
2025-07-25T12:52	10	159	17.0	144	197	439	1.0	438	442	18.3	71.4
2025-07-25T12:53	10	208	4.4	197	213	446	2.5	441	450	18.4	71.8
2025-07-25T12:54	10	196	11.5	171	211	452	1.3	449	454	18.7	71.8
2025-07-25T12:55	10	141	13.9	123	171	446	2.6	441	451	18.4	69.8
2025-07-25T12:56	10	122	1.4	119	124	442	0.6	441	444	18.4	71.4
2025-07-25T12:57	10	117	1.1	114	119	440	1.1	438	443	18.5	70.6
2025-07-25T12:58	10	107	3.7	102	114	439	2.4	435	442	18.8	71.3
2025-07-25T12:59	10	101	1.1	100	103	435	1.0	433	436	18.8	70.5
2025-07-25T13:00	10	96	3.8	90	101	430	1.6	428	434	18.5	70.5
2025-07-25T13:01	10	90	5.6	80	96	429	1.2	426	430	18.3	71.5
2025-07-25T13:02	10	109	19.3	82	139	429	2.2	427	434	18.2	71.8
2025-07-25T13:03	10	132	3.5	120	137	437	2.4	433	440	18.5	72.8
2025-07-25T13:04	10	99	9.3	89	119	435	3.3	430	440	18.7	71.1
2025-07-25T13:05	10	83	2.5	80	89	428	1.0	427	431	18.1	70.9
2025-07-25T13:06	10	86	4.4	80	96	429	0.7	428	430	18.1	72.0
2025-07-25T13:07	10	90	4.1	86	96	430	0.8	428	431	18.4	72.5
2025-07-25T13:08	10	114	15.9	88	135	431	2.8	428	436	18.2	71.9
2025-07-25T13:09	10	131	5.1	123	138	437	1.1	435	439	18.3	73.0
2025-07-25T13:10	10	117	9.5	105	130	438	0.8	436	439	18.5	72.7
2025-07-25T13:11	10	107	6.2	97	117	437	1.6	434	439	18.6	72.0
2025-07-25T13:12	10	125	8.2	115	144	437	0.9	434	438	18.4	71.8
2025-07-25T13:13	10	162	6.0	145	167	442	2.3	437	444	18.4	71.3
2025-07-25T13:14	10	173	2.2	168	176	446	1.7	443	449	18.2	70.3
2025-07-25T13:15	10	164	2.5	161	171	448	0.8	447	450	18.4	71.1
2025-07-25T13:16	10	149	7.2	140	160	447	1.1	446	450	18.5	70.7
2025-07-25T13:17	10	146	2.3	141	149	447	1.3	444	449	18.9	70.6
2025-07-25T13:18	10	145	7.2	125	159	442	1.3	440	445	18.4	68.6
2025-07-25T13:19	10	162	3.2	159	171	442	0.6	440	443	18.4	69.0
2025-07-25T13:20	10	173	0.5	171	174	447	1.4	443	449	18.4	69.1
2025-07-25T13:21	10	172	0.6	171	173	450	1.0	449	452	18.7	70.1
2025-07-25T13:22	10	169	0.4	169	171	451	1.9	449	455	19.1	69.3
2025-07-25T13:23	10	169	0.2	169	170	452	1.0	450	453	19.0	67.9
2025-07-25T13:24	10	169	0.1	169	169	454	1.1	452	456	19.0	68.6
2025-07-25T13:25	10	169	0.1	168	169	452	0.3	452	453	18.9	67.9
2025-07-25T13:26	10	169	0.2	168	169	451	1.8	449	454	19.1	68.7
2025-07-25T13:27	10	169	0.1	168	169	451	0.4	450	452	19.1	68.6
2025-07-25T13:28	10	169	0.1	168	169	452	0.7	450	453	19.1	67.9
2025-07-25T13:29	10	169	0.2	168	169	448	1.2	447	450	19.0	68.3
2025-07-25T13:30	10	170	1.1	169	172	448	0.9	447	451	18.7	68.6
2025-07-25T13:31	10	175	1.8	172	178	454	1.3	451	456	18.9	69.8
2025-07-25T13:32	10	131	37.6	50	180	449	4.8	441	456	19.3	68.0
2025-07-25T13:33	10	37	4.4	29	46	434	4.8	426	445	19.0	68.6
2025-07-25T13:34	10	25	2.0	23	30	424	2.1	421	428	18.9	69.7
2025-07-25T13:35	10	24	5.7	21	58	420	1.2	419	423	19.0	70.5
2025-07-25T13:36	10	157	15.7	75	163	435	7.7	418	446	18.9	69.5
2025-07-25T13:37	10	160	0.2	160	161	445	0.8	443	446	19.2	69.0
2025-07-25T13:38	10	159	0.3	159	160	449	1.9	446	452	19.1	67.1
2025-07-25T13:39	10	158	0.2	158	159	452	0.7	450	453	19.2	68.9
2025-07-25T13:40	10	159	0.3	158	159	452	0.8	451	453	19.3	68.5
2025-07-25T13:41	10	159	0.1	159	160	449	1.3	447	451	19.0	67.8
2025-07-25T13:42	10	159	0.2	159	160	449	0.6	448	450	18.8	67.9
2025-07-25T13:43	10	159	0.1	159	160	450	0.6	449	451	19.0	68.0
2025-07-25T13:44	10	159	0.1	159	159	451	1.9	448	454	19.4	67.6
2025-07-25T13:45	10	159	0.1	159	160	447	0.9	445	448	19.2	67.2
2025-07-25T13:46	10	160	0.2	159	160	448	1.1	446	450	19.4	66.9
2025-07-25T13:47	10	159	0.2	159	160	449	1.1	447	451	19.1	67.1
2025-07-25T13:48	10	159	0.3	158	159	448	0.9	447	450	19.0	66.6
2025-07-25T13:49	10	157	1.1	153	158	449	0.7	448	451	19.2	66.6
2025-07-25T13:50	10	156	0.3	156	157	451	0.7	450	452	19.7	66.1
2025-07-25T13:51	10	155	0.2	155	156	450	0.9	449	452	19.3	65.7
2025-07-25T13:52	10	155	0.2	154	155	453	1.0	452	455	19.9	67.0
2025-07-25T13:53	10	154	0.2	153	154	451	2.3	448	455	19.8	65.1
2025-07-25T13:54	10	153	0.2	153	154	451	1.1	449	453	19.4	66.5
2025-07-25T13:55	10	153	0.1	153	153	454	0.7	452	455	19.5	66.5
2025-07-25T13:56	10	152	0.2	152	153	453	1.5	449	454	19.7	66.7
2025-07-25T13:57	10	152	0.1	152	152	448	0.8	447	450	19.5	65.8
2025-07-25T13:58	10	153	0.4	152	154	448	0.9	447	450	20.0	64.4
2025-07-25T13:59	10	154	0.4	154	155	451	0.8	450	452	20.2	64.9
2025-07-25T14:00	10	156	0.5	155	156	448	1.4	446	451	19.9	64.1
2025-07-25T14:01	10	157	0.1	156	157	450	1.4	447	453	19.5	65.0
2025-07-25T14:02	10	157	0.2	157	157	454	0.5	452	455	19.9	65.3
2025-07-25T14:03	10	155	0.9	153	157	454	0.7	453	456	20.1	65.3
2025-07-25T14:04	10	153	0.3	153	154	448	2.2	446	453	19.6	63.8
2025-07-25T14:05	10	152	0.4	152	153	449	1.2	447	451	19.8	64.6
2025-07-25T14:06	10	151	0.2	151	152	449	0.9	447	450	20.2	64.0
2025-07-25T14:07	10	151	0.1	151	152	448	0.5	447	448	20.1	63.3
2025-07-25T14:08	10	151	0.1	151	152	447	0.8	445	448	20.0	63.9
2025-07-25T14:09	10	152	0.4	152	153	446	0.7	445	448	19.9	63.9
2025-07-25T14:10	10	154	0.6	153	155	447	0.7	445	448	19.8	63.8
2025-07-25T14:11	10	157	1.2	155	159	451	2.0	447	454	19.9	64.3
2025-07-25T14:12	10	161	1.1	159	163	454	0.7	453	455	20.1	64.2
2025-07-25T14:13	10	131	49.8	31	164	452	4.8	439	456	20.1	63.2
2025-07-25T14:14	10	100	59.8	30	159	438	4.1	432	445	20.2	63.0
2025-07-25T14:15	10	155	0.8	154	157	446	1.1	444	448	19.9	63.7
2025-07-25T14:16	10	153	0.4	153	154	448	1.2	446	450	19.7	64.1
2025-07-25T14:17	10	152	0.3	151	153	451	0.3	450	451	20.2	63.3
2025-07-25T14:18	10	151	0.2	151	151	451	1.0	449	453	20.4	62.9
2025-07-25T14:19	10	150	0.2	150	151	451	0.8	450	453	20.7	62.6
2025-07-25T14:20	10	150	0.2	149	150	451	1.3	449	453	20.7	62.3
2025-07-25T14:21	10	149	0.2	149	149	449	1.3	447	451	20.6	61.5
2025-07-25T14:22	10	149	0.2	148	149	447	0.6	446	448	20.2	61.0
2025-07-25T14:23	10	149	0.1	149	149	451	1.7	448	453	20.4	62.6
2025-07-25T14:24	10	149	0.7	149	151	451	0.7	450	453	20.5	62.0
2025-07-25T14:25	10	90	38.9	39	152	443	6.9	434	453	20.3	62.1
2025-07-25T14:26	10	147	2.0	136	150	443	2.8	437	447	20.0	62.4
2025-07-25T14:27	10	146	0.2	146	147	450	2.0	447	453	20.2	63.1
2025-07-25T14:28	10	146	0.3	145	146	450	2.2	447	453	20.4	62.0
2025-07-25T14:29	10	145	0.2	145	146	446	0.6	445	448	20.0	61.3
2025-07-25T14:30	10	145	0.5	144	145	449	2.1	446	452	20.3	61.2
2025-07-25T14:31	10	145	0.3	144	146	454	1.8	451	458	20.8	61.3
2025-07-25T14:32	10	144	0.3	143	145	454	2.5	449	457	21.1	59.2
2025-07-25T14:33	10	144	0.2	143	144	448	0.7	447	450	20.4	58.8
2025-07-25T14:34	10	143	0.2	143	144	449	1.0	447	450	20.3	59.9
2025-07-25T14:35	10	143	0.2	142	143	449	0.8	448	451	20.4	60.3
2025-07-25T14:36	10	143	0.2	142	143	449	1.4	447	451	20.3	60.6
2025-07-25T14:37	10	143	0.2	143	144	452	0.9	451	454	20.6	61.0
2025-07-25T14:38	10	143	0.2	143	144	449	2.1	446	453	20.5	59.5
2025-07-25T14:39	10	142	0.6	141	143	447	1.3	445	450	20.5	59.3
2025-07-25T14:40	10	140	0.3	140	141	447	1.1	445	449	20.7	59.4
2025-07-25T14:41	10	140	0.2	140	141	449	0.3	449	450	20.8	59.0
2025-07-25T14:42	10	140	0.2	139	140	447	0.8	446	449	20.5	58.5
2025-07-25T14:43	10	139	0.2	139	140	447	1.0	445	449	20.2	59.7
2025-07-25T14:44	10	139	0.2	139	140	449	0.3	449	450	20.4	59.4
2025-07-25T14:45	10	139	0.3	138	139	448	0.7	447	449	20.4	58.6
2025-07-25T14:46	10	138	0.1	138	138	448	0.7	447	449	20.6	58.4
2025-07-25T14:47	10	138	0.2	138	139	449	0.6	447	450	21.0	57.9
2025-07-25T14:48	10	138	0.2	137	138	447	0.6	446	449	20.9	57.4
2025-07-25T14:49	10	137	0.4	137	138	446	0.6	445	448	20.4	58.3
2025-07-25T14:50	10	137	0.2	136	137	447	0.6	446	448	20.6	58.7
2025-07-25T14:51	10	136	0.1	136	137	449	0.6	447	450	20.6	59.1
2025-07-25T14:52	10	136	0.2	136	136	448	0.5	447	450	20.6	59.1
2025-07-25T14:53	10	136	0.1	136	136	450	0.8	449	451	20.7	59.3
2025-07-25T14:54	10	135	0.1	135	136	451	1.2	448	452	21.1	58.5
2025-07-25T14:55	10	135	0.1	135	135	448	0.6	446	449	21.1	57.0
2025-07-25T14:56	10	135	0.1	135	136	444	0.8	443	446	20.7	56.5
2025-07-25T14:57	10	135	0.1	135	135	446	0.5	445	447	20.8	56.8
2025-07-25T14:58	10	135	0.2	135	136	447	0.5	446	448	20.6	56.5
2025-07-25T14:59	10	136	0.2	135	136	447	0.3	446	448	20.4	57.2
2025-07-25T15:00	10	135	0.2	134	135	448	0.8	447	449	20.5	57.7
2025-07-25T15:01	10	109	13.8	85	133	447	1.8	444	450	20.7	58.0
2025-07-25T15:02	10	134	1.1	129	135	451	1.2	448	452	20.8	57.9
2025-07-25T15:03	10	133	0.1	133	134	452	0.3	451	452	21.2	57.9
2025-07-25T15:04	10	133	0.2	133	134	453	0.4	452	454	21.5	57.6
2025-07-25T15:05	10	133	0.2	132	133	450	1.5	448	453	21.4	56.8
2025-07-25T15:06	10	133	0.1	133	133	448	0.6	447	450	21.2	56.5
2025-07-25T15:07	10	133	0.2	133	134	452	1.1	450	454	21.2	56.8
2025-07-25T15:08	10	134	0.2	133	134	449	2.0	446	453	21.0	55.3
2025-07-25T15:09	10	134	0.1	134	134	447	1.5	445	449	21.1	55.3
2025-07-25T15:10	10	133	0.2	133	134	447	1.2	445	450	21.0	54.7
2025-07-25T15:11	10	133	0.3	132	133	451	0.8	449	452	21.3	54.9
2025-07-25T15:12	10	132	0.1	132	132	449	1.0	447	450	21.0	54.3
2025-07-25T15:13	10	132	0.1	132	132	449	0.8	448	451	21.1	55.1
2025-07-25T15:14	10	132	0.1	131	132	450	0.5	448	451	21.4	55.5
2025-07-25T15:15	10	132	0.2	131	132	447	0.7	446	448	21.4	54.0
2025-07-25T15:16	10	131	0.2	131	132	447	0.5	446	448	21.2	54.1
2025-07-25T15:17	10	131	0.2	130	131	446	0.3	445	447	21.1	53.6
2025-07-25T15:18	10	130	0.2	130	131	446	0.5	445	447	21.4	53.0
2025-07-25T15:19	10	130	0.1	130	130	448	0.9	446	449	21.7	52.5
2025-07-25T15:20	10	130	0.1	130	130	447	1.5	445	449	21.6	51.2
2025-07-25T15:21	10	130	0.2	129	130	446	0.6	445	447	21.4	51.6
2025-07-25T15:22	10	130	0.2	129	130	447	1.0	445	449	21.6	53.2
2025-07-25T15:23	10	129	0.2	129	130	447	1.4	445	449	21.4	53.7
2025-07-25T15:24	10	129	0.2	128	129	446	0.6	445	447	21.2	53.8
2025-07-25T15:25	10	128	0.1	128	128	447	0.8	446	449	21.5	53.1
2025-07-25T15:26	10	128	0.1	128	128	449	1.0	448	451	21.7	53.5
2025-07-25T15:27	10	128	0.1	127	128	448	1.4	446	451	21.6	51.5
2025-07-25T15:28	10	128	0.1	127	128	446	0.5	445	447	21.7	52.2
2025-07-25T15:29	10	127	0.1	127	128	446	0.7	444	447	21.6	52.2
2025-07-25T15:30	10	127	0.1	127	127	446	0.9	445	448	21.5	52.4
2025-07-25T15:31	10	127	0.1	127	127	449	0.4	448	450	21.6	53.2
2025-07-25T15:32	10	127	0.1	127	127	447	0.6	446	449	21.5	52.4
2025-07-25T15:33	10	126	0.2	126	127	446	0.6	445	447	21.4	52.8
2025-07-25T15:34	10	126	0.2	126	126	446	0.9	444	448	21.4	53.1
2025-07-25T15:35	10	125	0.1	125	126	445	0.4	444	446	21.4	53.7
2025-07-25T15:36	10	125	0.2	125	125	446	0.3	445	447	21.3	53.4
2025-07-25T15:37	10	124	0.2	124	125	445	1.2	443	447	21.4	53.0
2025-07-25T15:38	10	123	0.3	123	124	445	0.5	443	445	21.4	52.1
2025-07-25T15:39	10	123	0.3	122	123	445	0.4	445	446	21.3	52.0
2025-07-25T15:40	10	122	0.2	121	122	444	0.8	443	445	21.5	52.0
2025-07-25T15:41	10	121	0.1	121	122	444	0.6	443	445	21.6	52.1
2025-07-25T15:42	10	121	0.1	121	121	443	0.5	442	444	21.3	51.7
2025-07-25T15:43	10	120	0.1	120	121	444	0.4	443	445	21.5	51.5
2025-07-25T15:44	10	120	0.1	120	120	443	0.7	442	444	21.4	51.4
2025-07-25T15:45	10	120	0.1	120	120	443	0.7	442	444	21.4	51.5
2025-07-25T15:46	10	119	0.1	119	120	443	0.3	442	443	21.5	51.9
2025-07-25T15:47	10	119	0.1	119	119	442	0.8	441	444	21.5	51.8
2025-07-25T15:48	10	119	0.2	119	119	442	0.2	441	443	21.4	51.8
2025-07-25T15:49	10	119	0.1	119	119	444	1.6	442	447	21.5	52.8
2025-07-25T15:50	10	119	0.1	119	119	447	0.3	446	448	21.9	53.3
2025-07-25T15:51	10	119	0.2	118	119	446	0.6	445	447	21.9	52.8
2025-07-25T15:52	10	118	0.1	118	119	446	0.5	445	447	21.8	53.4
2025-07-25T15:53	10	118	0.1	118	118	447	0.5	446	448	22.0	53.7
2025-07-25T15:54	10	118	0.2	118	119	445	1.0	443	447	21.8	52.9
2025-07-25T15:55	10	119	0.3	118	119	445	1.2	443	447	21.4	52.9
2025-07-25T15:56	10	119	0.2	118	119	445	1.8	442	447	21.7	53.2
2025-07-25T15:57	10	119	0.3	118	119	442	1.0	441	444	21.4	52.7
2025-07-25T15:58	10	118	0.2	118	119	441	0.5	440	443	21.4	52.6
2025-07-25T15:59	10	118	0.2	118	118	443	0.7	442	444	21.7	52.5
2025-07-25T16:00	10	118	0.2	118	119	443	0.4	442	444	21.6	52.8
2025-07-25T16:01	10	119	0.3	118	119	443	0.5	442	444	21.6	52.3
2025-07-25T16:02	10	119	0.2	118	119	442	0.7	440	443	21.4	52.9
2025-07-25T16:03	10	119	0.2	119	120	443	1.3	441	445	21.4	53.2
2025-07-25T16:04	10	120	0.3	119	120	443	0.7	442	445	21.6	52.7
2025-07-25T16:05	10	121	0.3	120	121	444	1.1	442	446	21.7	53.2
2025-07-25T16:06	10	122	0.5	121	123	446	0.6	445	447	21.9	52.8
2025-07-25T16:07	10	124	0.6	123	125	448	1.2	446	450	21.9	53.4
2025-07-25T16:08	10	126	0.5	125	127	451	0.4	450	451	22.1	53.6
2025-07-25T16:09	10	86	42.6	35	128	447	4.9	438	452	22.2	54.1
2025-07-25T16:10	10	36	0.1	35	36	436	2.7	432	441	22.0	53.5
2025-07-25T16:11	10	36	0.1	36	36	431	1.5	429	434	21.8	54.2
2025-07-25T16:12	10	36	0.2	35	36	428	1.2	426	430	21.5	53.3
2025-07-25T16:13	10	35	0.1	35	35	425	0.6	425	427	21.3	52.9
2025-07-25T16:14	10	35	0.2	35	36	425	0.2	425	425	21.2	53.5
2025-07-25T16:15	10	78	37.1	36	125	428	4.6	424	437	21.3	53.6
2025-07-25T16:16	10	73	39.7	35	125	435	3.1	429	439	21.5	53.8
2025-07-25T16:17	10	37	1.6	35	39	428	0.9	427	430	21.4	53.7
2025-07-25T16:18	10	30	1.5	28	34	426	0.9	424	427	21.5	54.2
2025-07-25T16:19	10	28	0.2	27	28	423	0.5	422	424	21.4	54.0
2025-07-25T16:20	10	28	0.1	27	28	422	0.2	422	423	21.3	53.6
2025-07-25T16:21	10	28	0.3	28	29	422	0.3	422	423	21.3	53.8
2025-07-25T16:22	10	29	0.1	29	29	422	0.3	421	423	21.3	54.5
2025-07-25T16:23	10	29	0.1	29	29	423	0.2	422	423	21.3	54.0
2025-07-25T16:24	10	29	0.1	29	29	423	0.3	422	423	21.3	54.4
2025-07-25T16:25	10	29	0.2	29	30	423	0.2	422	423	21.3	54.9
2025-07-25T16:26	10	30	0.3	30	31	423	0.2	422	423	21.2	55.1
2025-07-25T16:27	10	31	0.3	31	32	422	0.2	421	422	21.2	54.1
2025-07-25T16:28	10	32	0.3	32	33	422	0.5	421	423	21.2	53.8
2025-07-25T16:29	10	33	0.2	33	33	423	0.4	422	423	21.2	53.8
2025-07-25T16:30	10	34	0.1	33	34	423	0.4	423	424	21.1	54.1
2025-07-25T16:31	10	34	0.2	34	34	424	0.2	423	425	21.2	54.2
2025-07-25T16:32	10	34	0.1	34	35	424	0.3	423	425	21.2	54.1
2025-07-25T16:33	10	34	0.2	33	34	425	0.3	424	426	21.2	53.9
2025-07-25T16:34	10	33	0.1	33	34	425	0.2	424	425	21.2	54.1
2025-07-25T16:35	10	32	0.5	31	33	424	0.2	424	425	21.3	54.1
2025-07-25T16:36	10	29	1.0	28	31	424	0.3	423	424	21.3	54.3
2025-07-25T16:37	10	26	0.9	25	28	423	0.3	422	423	21.3	54.3
2025-07-25T16:38	10	23	0.8	22	25	421	0.9	419	422	21.0	58.5
2025-07-25T16:39	10	21	0.7	20	22	419	0.5	418	420	20.8	60.0
2025-07-25T16:40	10	19	0.5	18	20	418	0.5	417	419	20.7	60.8
2025-07-25T16:41	10	18	0.2	18	19	418	0.3	417	418	20.6	61.6
2025-07-25T16:42	10	19	0.4	18	20	418	0.4	417	419	20.6	61.7
2025-07-25T16:43	10	20	0.3	19	21	418	0.5	417	419	20.6	61.7
2025-07-25T16:44	10	20	0.3	20	21	418	0.2	418	419	20.5	61.5
2025-07-25T16:45	10	19	0.5	18	20	418	0.3	417	419	20.5	62.0
2025-07-25T16:46	10	17	0.4	17	18	419	0.3	418	419	20.6	61.7
2025-07-25T16:47	10	17	0.3	16	17	418	0.2	418	419	20.6	61.9
2025-07-25T16:48	10	16	0.1	16	16	418	0.3	417	419	20.6	62.0
2025-07-25T16:49	10	16	0.2	15	17	417	0.3	416	418	20.4	62.5
2025-07-25T16:50	10	16	0.2	16	16	417	0.3	416	417	20.4	62.7
2025-07-25T16:51	10	16	0.1	16	16	417	0.3	416	418	20.4	61.4
2025-07-25T16:52	10	16	0.1	16	17	417	0.2	416	417	20.4	61.4
2025-07-25T16:53	10	16	0.1	16	17	416	0.2	416	416	20.4	61.0
2025-07-25T16:54	10	17	0.2	17	17	416	0.2	415	416	20.3	60.6
2025-07-25T16:55	10	17	0.1	17	17	416	0.3	415	416	20.3	60.8
2025-07-25T16:56	10	17	0.1	17	17	416	0.2	415	416	20.4	60.4
2025-07-25T16:57	10	18	0.3	17	18	416	0.2	415	416	20.3	60.1
2025-07-25T16:58	10	18	0.2	18	19	415	0.2	414	416	20.3	60.1
2025-07-25T16:59	10	19	0.1	18	19	415	0.2	414	415	20.3	60.4
2025-07-25T17:00	10	19	0.2	18	19	415	0.2	414	415	20.3	60.7
2025-07-25T17:01	10	19	0.1	19	19	414	0.2	414	415	20.2	59.7
2025-07-25T17:02	10	19	0.1	19	19	414	0.2	413	414	20.2	59.7
2025-07-25T17:03	10	20	0.3	19	20	414	0.3	413	415	20.3	59.8
2025-07-25T17:04	10	21	0.3	20	22	414	0.2	414	415	20.3	59.7
2025-07-25T17:05	10	22	0.3	21	22	414	0.2	414	414	20.2	59.8
2025-07-25T17:06	10	23	0.3	22	23	414	0.2	414	415	20.2	59.8
2025-07-25T17:07	10	24	0.4	23	24	414	0.3	414	415	20.2	59.7
2025-07-25T17:08	10	25	0.3	24	26	414	0.2	414	415	20.1	59.5
2025-07-25T17:09	10	26	0.3	25	27	414	0.2	414	415	20.1	59.7
2025-07-25T17:10	10	27	0.3	27	28	415	0.3	414	416	20.1	59.6
2025-07-25T17:11	10	28	0.4	27	29	415	0.3	414	416	20.1	59.5
2025-07-25T17:12	10	30	0.7	29	31	416	0.3	415	416	20.2	59.7
2025-07-25T17:13	10	29	0.2	28	29	416	0.2	415	416	20.1	60.1
2025-07-25T17:14	10	29	0.2	29	30	416	0.3	416	417	20.1	59.8
2025-07-25T17:15	10	30	0.3	30	31	416	0.2	416	417	20.2	60.0
2025-07-25T17:16	10	32	1.0	31	34	417	0.4	416	418	20.2	60.3
2025-07-25T17:17	10	34	1.0	33	36	418	0.2	417	418	20.3	60.0
2025-07-25T17:18	10	33	0.6	32	34	417	0.2	417	418	20.3	59.9
2025-07-25T17:19	10	33	0.2	33	34	417	0.3	417	418	20.3	59.6
2025-07-25T17:20	10	34	0.7	33	35	417	0.2	416	417	20.3	59.4
2025-07-25T17:21	10	33	0.1	33	33	418	0.2	417	418	20.3	59.6
2025-07-25T17:22	10	33	0.2	33	34	418	0.5	417	419	20.3	59.7
2025-07-25T17:23	10	33	0.1	33	34	419	0.4	418	420	20.4	60.0
2025-07-25T17:24	10	33	0.3	33	34	420	0.3	419	420	20.4	60.3
2025-07-25T17:25	10	32	0.3	32	33	419	0.3	418	420	20.3	60.0
2025-07-25T17:26	10	32	0.2	31	33	419	0.3	419	420	20.4	60.0
2025-07-25T17:27	10	31	0.2	31	32	420	0.3	419	420	20.4	60.8
2025-07-25T17:28	10	31	0.1	31	31	420	0.5	419	421	20.4	60.3
2025-07-25T17:29	10	31	0.3	31	32	419	0.3	418	420	20.3	60.7
2025-07-25T17:30	10	32	0.2	31	33	419	0.2	418	419	20.3	61.8
2025-07-25T17:31	10	32	0.2	32	33	419	0.2	419	420	20.3	63.2
2025-07-25T17:32	10	36	4.9	32	49	419	0.3	418	419	20.2	63.1
2025-07-25T17:33	10	64	5.8	50	69	421	1.5	418	423	20.1	62.4
2025-07-25T17:34	10	73	1.5	69	75	424	0.8	422	425	20.2	62.8
2025-07-25T17:35	10	77	0.7	75	78	425	0.5	424	426	20.2	62.8
2025-07-25T17:36	10	73	2.9	69	78	426	0.5	425	427	20.2	63.2
2025-07-25T17:37	10	77	0.8	75	78	426	0.5	425	427	20.2	63.3
2025-07-25T17:38	10	76	0.3	75	77	426	0.3	425	426	20.2	63.3
2025-07-25T17:39	10	76	0.1	76	76	426	0.4	425	427	20.3	63.0
2025-07-25T17:40	10	75	0.8	74	76	427	0.3	426	428	20.2	61.9
2025-07-25T17:41	10	64	10.2	41	74	427	0.6	426	428	20.3	62.9
2025-07-25T17:42	10	33	2.7	29	40	424	1.4	422	427	20.4	63.4
2025-07-25T17:43	10	30	2.1	29	37	420	1.0	419	422	20.3	62.4
2025-07-25T17:44	10	45	2.7	38	49	420	0.3	420	421	20.2	62.1
2025-07-25T17:45	10	54	2.5	49	57	421	0.4	420	422	20.2	61.7
2025-07-25T17:46	10	57	1.5	54	60	422	0.4	421	423	20.2	62.1
2025-07-25T17:47	10	62	3.4	57	68	422	0.4	422	423	20.3	61.8
2025-07-25T17:48	10	68	0.2	67	69	423	0.3	422	424	20.2	61.7
2025-07-25T17:49	10	66	0.9	64	68	424	0.3	423	424	20.3	62.5
2025-07-25T17:50	10	61	1.4	60	64	423	0.4	422	424	20.3	61.9
2025-07-25T17:51	10	63	0.7	61	64	422	0.5	422	423	20.1	63.4
2025-07-25T17:52	10	63	0.2	62	63	422	0.3	421	423	20.1	64.0
2025-07-25T17:53	10	62	0.2	62	63	422	0.2	421	423	20.2	62.6
2025-07-25T17:54	10	61	0.3	61	62	422	0.3	421	423	20.3	62.0
2025-07-25T17:55	10	60	0.4	60	61	421	0.4	420	422	20.3	61.7
2025-07-25T17:56	10	59	0.4	58	60	421	0.3	420	421	20.3	60.7
2025-07-25T17:57	10	58	0.3	57	58	421	0.3	419	421	20.3	61.0
2025-07-25T17:58	10	57	0.1	57	58	420	0.3	420	421	20.4	61.0
2025-07-25T17:59	10	57	0.1	57	58	420	0.3	420	421	20.4	60.5
2025-07-25T18:00	10	58	0.3	58	59	422	0.4	421	423	20.4	60.4
2025-07-25T18:01	10	59	0.2	58	59	422	0.3	422	423	20.5	60.0
2025-07-25T18:02	10	60	0.2	59	60	423	0.4	422	424	20.7	59.0
2025-07-25T18:03	10	60	0.1	60	60	425	0.3	424	425	20.8	59.6
2025-07-25T18:04	10	60	0.1	60	60	424	0.2	423	425	20.6	61.1
2025-07-25T18:05	10	60	0.1	60	60	424	0.2	423	424	20.5	62.1
2025-07-25T18:06	10	60	0.1	60	60	423	0.4	422	424	20.4	61.1
2025-07-25T18:07	10	60	0.3	59	60	423	0.2	423	423	20.4	61.0
2025-07-25T18:08	10	59	0.1	58	59	423	0.3	423	424	20.4	61.3
2025-07-25T18:09	10	58	0.7	56	59	425	0.4	424	425	20.4	61.8
2025-07-25T18:10	10	57	0.4	56	58	425	0.3	424	425	20.5	61.9
2025-07-25T18:11	10	58	0.1	58	58	424	0.3	424	425	20.4	62.4
2025-07-25T18:12	10	46	9.3	32	58	424	1.0	422	425	20.4	63.3
2025-07-25T18:13	10	30	1.0	29	32	422	0.7	421	423	20.5	63.8
2025-07-25T18:14	10	28	0.4	27	29	421	0.4	420	421	20.5	63.8
2025-07-25T18:15	10	33	3.7	28	37	419	0.8	417	420	20.3	61.0
2025-07-25T18:16	10	40	1.1	37	42	417	0.3	416	418	20.0	61.3
2025-07-25T18:17	10	41	1.1	39	43	415	1.3	412	417	19.9	60.8
2025-07-25T18:18	10	41	0.4	40	42	413	0.3	412	414	19.8	63.3
2025-07-25T18:19	10	41	0.3	40	41	413	0.3	412	413	19.7	63.9
2025-07-25T18:20	10	41	0.6	39	41	411	0.5	410	412	19.5	66.6
2025-07-25T18:21	10	37	0.6	36	39	409	0.6	408	411	19.2	70.2
2025-07-25T18:22	10	34	1.2	31	36	407	0.5	406	408	18.9	72.9
2025-07-25T18:23	10	27	2.0	24	31	406	0.4	405	407	18.7	73.5
2025-07-25T18:24	10	22	1.1	20	24	405	0.4	404	406	18.6	74.0
2025-07-25T18:25	10	20	0.3	19	20	405	0.3	405	406	18.5	73.9
2025-07-25T18:26	10	19	0.4	19	21	405	0.4	404	406	18.4	75.0
2025-07-25T18:27	10	26	2.6	21	29	405	0.7	404	407	18.4	75.4
2025-07-25T18:28	10	30	0.4	29	30	405	0.5	405	407	18.3	77.9
2025-07-25T18:29	10	31	0.6	30	32	406	0.4	405	406	18.3	78.0
2025-07-25T18:30	10	32	0.1	31	32	406	0.5	405	407	18.4	77.0
2025-07-25T18:31	10	32	0.3	31	32	406	0.7	405	407	18.4	78.1
2025-07-25T18:32	10	32	0.1	32	33	406	0.4	406	407	18.3	80.1
2025-07-25T18:33	10	33	0.3	32	33	407	0.4	406	408	18.2	80.6
2025-07-25T18:34	10	33	0.1	33	33	407	0.2	406	407	18.2	81.5
2025-07-25T18:35	10	33	0.2	32	33	406	0.3	406	407	18.2	80.2
2025-07-25T18:36	10	32	0.3	31	32	407	0.3	406	407	18.2	80.0
2025-07-25T18:37	10	30	0.6	29	31	406	0.2	406	407	18.1	78.3
2025-07-25T18:38	10	27	0.9	26	29	406	0.3	405	406	18.1	77.8
2025-07-25T18:39	10	25	0.5	24	26	405	0.2	404	405	18.1	78.1
2025-07-25T18:40	10	26	0.5	25	27	405	0.4	404	406	18.0	79.2
2025-07-25T18:41	10	25	0.8	23	26	405	0.2	404	405	18.0	79.9
2025-07-25T18:42	10	23	0.3	23	24	405	0.3	404	405	17.9	80.0
2025-07-25T18:43	10	22	0.7	21	23	404	0.3	403	405	17.9	80.9
2025-07-25T18:44	10	20	0.6	19	21	404	0.2	403	404	17.8	79.8
2025-07-25T18:45	10	18	0.6	17	19	404	0.2	403	404	18.0	76.1
2025-07-25T18:46	10	16	0.6	15	17	403	0.2	403	404	18.0	78.2
2025-07-25T18:47	10	13	0.8	12	15	404	0.2	403	404	17.9	79.2
2025-07-25T18:48	10	11	0.5	10	12	403	0.4	402	404	17.9	77.2
2025-07-25T18:49	10	9	0.6	8	10	402	0.2	402	403	17.9	77.4
2025-07-25T18:50	10	8	0.2	7	8	402	0.2	401	402	17.9	77.3
2025-07-25T18:51	10	8	0.1	7	8	402	0.3	401	403	17.9	75.2
2025-07-25T18:52	10	7	0.2	6	7	402	0.3	401	402	18.0	74.0
2025-07-25T18:53	10	5	0.6	5	6	402	0.3	401	402	18.0	75.4
2025-07-25T18:54	10	4	0.3	3	5	402	0.2	401	402	18.0	76.2
2025-07-25T18:55	10	3	0.1	3	3	402	0.3	401	402	18.0	75.9
2025-07-25T18:56	10	3	0.1	3	3	402	0.2	401	402	18.0	75.3
2025-07-25T18:57	10	3	0.1	3	3	402	0.2	401	402	18.0	76.4
2025-07-25T18:58	10	3	0.1	3	3	401	0.2	401	402	18.0	74.6
2025-07-25T18:59	10	3	0.1	3	3	401	0.3	400	401	18.0	75.9
2025-07-25T19:00	10	3	0.1	3	3	401	0.2	400	401	18.0	75.2
2025-07-25T19:01	10	3	0.1	3	4	401	0.2	400	401	18.0	73.9
2025-07-25T19:02	10	3	0.1	3	4	400	0.3	400	401	18.1	73.1
2025-07-25T19:03	10	4	0.1	3	4	400	0.3	399	400	17.9	76.7
2025-07-25T19:04	10	3	0.1	3	4	400	0.3	399	400	17.7	78.1
2025-07-25T19:05	10	3	0.1	3	3	400	0.3	399	400	17.8	75.7
2025-07-25T19:06	10	3	0.1	3	3	400	0.2	399	400	17.8	78.1
2025-07-25T19:07	10	3	0.2	3	3	400	0.2	399	401	17.8	75.8
2025-07-25T19:08	10	3	0.1	2	3	400	0.3	399	400	17.9	75.2
2025-07-25T19:09	10	3	0.2	2	3	399	0.3	399	400	17.8	76.9
2025-07-25T19:10	10	2	0.2	2	3	399	0.2	399	400	17.8	76.0
2025-07-25T19:11	10	2	0.2	2	3	399	0.3	398	400	17.8	75.7
2025-07-25T19:12	10	2	0.3	1	2	399	0.2	398	399	17.9	73.3
2025-07-25T19:13	10	1	0.2	1	1	399	0.3	398	399	17.9	73.2
2025-07-25T19:14	10	1	0.2	0	1	399	0.2	398	399	17.9	72.8
2025-07-25T19:15	10	1	0.1	0	1	399	0.3	398	399	17.9	72.4
2025-07-25T19:16	10	1	0.1	1	1	399	0.3	398	399	18.0	71.7
2025-07-25T19:17	10	1	0.1	0	1	398	0.2	398	399	17.9	74.2
2025-07-25T19:18	10	1	0.1	1	1	398	0.2	398	399	17.9	74.6
2025-07-25T19:19	10	1	0.1	1	1	398	0.2	398	399	17.9	73.8
2025-07-25T19:20	10	1	0.1	0	1	398	0.2	398	399	17.8	75.0
2025-07-25T19:21	10	1	0.1	0	1	398	0.3	397	399	17.8	75.9
2025-07-25T19:22	10	0	0.1	0	1	398	0.3	397	398	17.7	76.8
2025-07-25T19:23	10	0	0.1	0	1	398	0.2	397	398	17.6	77.8
2025-07-25T19:24	10	0	0.1	0	1	397	0.2	397	398	17.5	77.4
2025-07-25T19:25	10	0	0.1	0	1	397	0.3	397	398	17.6	76.8
2025-07-25T19:26	10	0	0.1	0	0	397	0.2	396	398	17.5	77.5
2025-07-25T19:27	10	0	0.1	0	0	397	0.2	396	397	17.5	77.0
2025-07-25T19:28	10	0	0.1	0	0	397	0.2	396	397	17.6	77.3
2025-07-25T19:29	10	0	0.1	0	0	396	0.2	396	397	17.6	76.6
2025-07-25T19:30	10	0	0.1	0	0	397	0.2	396	397	17.7	74.6
2025-07-25T19:31	10	0	0.1	0	0	396	0.3	395	397	17.8	78.3
2025-07-25T19:32	10	0	0.1	0	0	396	0.3	395	396	17.8	79.6
2025-07-25T19:33	10	0	0.1	0	0	396	0.3	395	396	17.7	79.8
2025-07-25T19:34	10	0	0.1	0	1	395	0.3	394	396	17.6	80.7
2025-07-25T19:35	10	0	0.1	0	0	395	0.2	394	395	17.5	81.7
2025-07-25T19:36	10	0	0.1	0	0	394	0.3	394	395	17.5	82.7
2025-07-25T19:37	10	0	0.1	0	0	394	0.3	393	394	17.4	83.7
2025-07-25T19:38	10	0	0.1	0	0	393	0.2	393	394	17.3	84.7
2025-07-25T19:39	10	0	0.1	0	0	393	0.2	393	394	17.3	85.3
2025-07-25T19:40	10	0	0.1	0	0	393	0.2	393	393	17.2	85.9
2025-07-25T19:41	10	0	0.1	0	0	393	0.2	392	393	17.2	86.4
2025-07-25T19:42	10	0	0.1	0	0	393	0.2	392	393	17.2	86.2
2025-07-25T19:43	10	0	0.1	0	0	392	0.2	392	393	17.1	86.3
2025-07-25T19:44	10	0	0.1	0	0	392	0.2	392	393	17.1	85.3
2025-07-25T19:45	10	0	0.1	0	0	392	0.3	392	393	17.3	83.4
2025-07-25T19:46	10	0	0.1	0	0	392	0.3	391	393	17.3	82.7
2025-07-25T19:47	10	0	0.1	0	0	392	0.2	392	393	17.4	81.8
2025-07-25T19:48	10	0	0.1	0	0	392	0.3	392	393	17.4	81.0
2025-07-25T19:49	10	0	0.1	0	0	393	0.3	392	393	17.5	78.4
2025-07-25T19:50	10	0	0.1	0	0	393	0.2	392	393	17.6	77.7
2025-07-25T19:51	10	0	0.1	0	0	393	0.3	392	393	17.5	78.6
2025-07-25T19:52	10	0	0.1	0	0	392	0.3	392	393	17.5	78.6
2025-07-25T19:53	10	0	0.1	0	0	392	0.2	392	393	17.5	79.1
2025-07-25T19:54	10	0	0.1	0	0	392	0.3	391	393	17.4	79.3
2025-07-25T19:55	10	0	0.1	0	0	392	0.3	391	392	17.5	79.0
2025-07-25T19:56	10	0	0.1	0	0	391	0.3	391	392	17.4	79.1
2025-07-25T19:57	10	0	0.1	0	0	391	0.2	391	392	17.5	77.8
2025-07-25T19:58	10	0	0.1	0	0	391	0.3	391	392	17.6	77.2
2025-07-25T19:59	10	0	0.1	0	0	390	0.6	389	392	17.7	77.1
2025-07-25T20:00	10	0	0.1	0	0	390	0.2	389	390	17.3	80.7
2025-07-25T20:01	10	0	0.1	0	1	390	0.3	390	391	17.2	81.1
2025-07-25T20:02	10	0	0.1	0	1	391	0.2	390	391	17.2	81.3
2025-07-25T20:03	10	0	0.1	0	0	391	0.3	390	392	17.0	83.5
2025-07-25T20:04	10	0	0.2	0	1	391	0.2	391	392	16.9	85.1
2025-07-25T20:05	10	0	0.2	0	1	391	0.2	391	392	16.7	86.9
2025-07-25T20:06	10	0	0.1	0	0	391	0.2	390	391	16.6	88.5
2025-07-25T20:07	10	0	0.1	0	0	390	0.4	390	392	16.5	89.1
2025-07-25T20:08	10	0	0.2	0	1	390	0.3	389	391	16.4	90.1
2025-07-25T20:09	10	0	0.1	0	0	389	0.3	389	390	16.3	90.7
2025-07-25T20:10	10	0	0.2	0	1	389	0.2	389	390	16.2	91.3
2025-07-25T20:11	10	0	0.1	0	1	389	0.3	388	390	16.2	91.6
2025-07-25T20:12	10	0	0.1	0	0	389	0.2	389	390	16.2	91.1
2025-07-25T20:13	10	0	0.1	0	1	390	0.4	389	391	16.2	91.3
2025-07-25T20:14	10	0	0.1	0	0	391	0.4	390	391	16.1	91.3
2025-07-25T20:15	10	0	0.1	0	0	392	0.4	390	392	16.2	90.2
2025-07-25T20:16	10	0	0.1	0	0	392	0.5	392	393	16.3	88.8
2025-07-25T20:17	10	0	0.0	0	0	393	0.4	392	394	16.3	88.9
2025-07-25T20:18	10	0	0.1	0	0	393	0.3	393	394	16.3	89.4
2025-07-25T20:19	10	0	0.0	0	0	394	0.3	393	394	16.3	89.2
2025-07-25T20:20	10	0	0.1	0	0	394	0.3	393	394	16.3	90.0
2025-07-25T20:21	10	0	0.1	0	0	394	0.3	394	395	16.3	88.5
2025-07-25T20:22	10	0	0.1	0	0	394	0.3	394	395	16.6	84.4
2025-07-25T20:23	10	0	0.1	0	0	394	0.2	394	395	16.7	85.1
2025-07-25T20:24	10	0	0.1	0	0	395	0.2	394	395	16.7	86.2
2025-07-25T20:25	10	0	0.1	0	0	395	0.3	394	396	16.8	84.1
2025-07-25T20:26	10	0	0.1	0	0	395	0.2	394	395	16.8	84.2
2025-07-25T20:27	10	0	0.1	0	0	395	0.2	394	395	16.8	84.4
2025-07-25T20:28	10	0	0.1	0	0	395	0.2	395	396	16.9	82.5
2025-07-25T20:29	10	0	0.1	0	0	395	0.3	395	396	16.9	82.8
2025-07-25T20:30	10	0	0.1	0	0	395	0.2	395	395	17.0	82.2
2025-07-25T20:31	10	0	0.1	0	0	395	0.3	394	395	17.1	81.4
2025-07-25T20:32	10	0	0.1	0	0	395	0.2	394	395	17.1	81.4
2025-07-25T20:33	10	0	0.1	0	0	394	0.3	393	395	17.1	81.5
2025-07-25T20:34	10	0	0.1	0	0	394	0.3	393	394	17.0	82.0
2025-07-25T20:35	10	0	0.1	0	0	393	0.2	393	394	17.0	81.7
2025-07-25T20:36	10	0	0.1	0	0	393	0.2	392	393	17.1	81.1
2025-07-25T20:37	10	0	0.1	0	0	392	0.3	392	393	17.1	81.0
2025-07-25T20:38	10	0	0.1	0	0	392	0.3	391	393	17.1	81.2
2025-07-25T20:39	10	0	0.1	0	0	392	0.4	391	392	17.1	81.2
2025-07-25T20:40	10	0	0.1	0	0	391	0.4	390	392	17.1	80.9
2025-07-25T20:41	10	0	0.1	0	0	390	0.2	390	391	17.1	81.3
2025-07-25T20:42	10	0	0.1	0	0	390	0.2	390	391	17.1	81.3
2025-07-25T20:43	10	0	0.1	0	0	390	0.2	390	391	17.0	81.8
2025-07-25T20:44	10	0	0.1	0	0	390	0.3	389	391	17.0	82.2
2025-07-25T20:45	10	0	0.1	0	0	390	0.2	390	390	17.0	81.9
2025-07-25T20:46	10	0	0.1	0	0	390	0.2	390	391	17.0	82.3
2025-07-25T20:47	10	0	0.1	0	0	390	0.3	389	391	17.0	82.5
2025-07-25T20:48	10	0	0.1	0	0	390	0.2	390	390	17.1	81.4
2025-07-25T20:49	10	0	0.1	0	0	390	0.2	389	390	17.0	81.6
2025-07-25T20:50	10	0	0.1	0	0	390	0.3	389	391	17.0	81.0
2025-07-25T20:51	10	0	0.1	0	0	391	0.3	390	391	17.1	81.0
2025-07-25T20:52	10	0	0.1	0	0	391	0.3	391	392	17.0	81.4
2025-07-25T20:53	10	0	0.1	0	0	392	0.2	391	392	17.0	80.9
2025-07-25T20:54	10	0	0.1	0	0	392	0.3	391	392	17.0	80.9
2025-07-25T20:55	10	0	0.1	0	0	392	0.3	391	393	17.0	81.5
2025-07-25T20:56	10	0	0.1	0	0	392	0.2	392	393	16.9	82.3
2025-07-25T20:57	10	0	0.1	0	0	392	0.2	392	393	16.9	82.2
2025-07-25T20:58	10	0	0.1	0	0	392	0.3	391	392	16.8	83.3
2025-07-25T20:59	10	0	0.1	0	0	391	0.3	390	392	16.6	85.3
2025-07-25T21:00	10	0	0.1	0	0	390	0.3	390	391	16.5	86.3
2025-07-25T21:01	10	0	0.0	0	0	390	0.3	389	390	16.4	87.5
2025-07-25T21:02	10	0	0.1	0	0	389	0.3	389	390	16.3	88.1
2025-07-25T21:03	10	0	0.0	0	0	389	0.2	389	390	16.3	88.6
2025-07-25T21:04	10	0	0.1	0	0	389	0.2	388	389	16.2	88.9
2025-07-25T21:05	10	0	0.0	0	0	388	0.2	388	389	16.2	88.9
2025-07-25T21:06	10	0	0.0	0	0	388	0.2	387	388	16.2	89.4
2025-07-25T21:07	10	0	0.1	0	0	388	0.2	387	388	16.1	89.5
2025-07-25T21:08	10	0	0.1	0	0	387	0.2	387	388	16.1	88.9
2025-07-25T21:09	10	0	0.1	0	0	387	0.3	387	388	16.1	88.6
2025-07-25T21:10	10	0	0.0	0	0	387	0.2	386	387	16.1	88.8
2025-07-25T21:11	10	0	0.0	0	0	386	0.3	386	387	16.1	89.2
2025-07-25T21:12	10	0	0.0	0	0	386	0.2	385	387	16.1	89.7
2025-07-25T21:13	10	0	0.1	0	0	386	0.2	386	387	16.0	90.3
2025-07-25T21:14	10	0	0.0	0	0	386	0.2	386	387	16.0	90.5
2025-07-25T21:15	10	0	0.0	0	0	386	0.2	386	387	16.0	90.3
2025-07-25T21:16	10	0	0.0	0	0	386	0.2	385	386	16.0	90.2
2025-07-25T21:17	10	0	0.0	0	0	386	0.2	385	386	16.0	90.1
2025-07-25T21:18	10	0	0.0	0	0	385	0.2	385	386	16.0	90.5
2025-07-25T21:19	10	0	0.1	0	0	385	0.3	384	385	16.0	90.8
2025-07-25T21:20	10	0	0.0	0	0	384	0.3	383	384	15.9	91.1
2025-07-25T21:21	10	0	0.1	0	0	383	0.2	383	384	15.9	91.6
2025-07-25T21:22	10	0	0.0	0	0	383	0.2	383	384	15.9	91.1
2025-07-25T21:23	10	0	0.1	0	0	383	0.2	382	383	15.9	90.3
2025-07-25T21:24	10	0	0.1	0	0	383	0.3	382	384	16.0	89.3
2025-07-25T21:25	10	0	0.1	0	0	383	0.3	383	384	16.0	88.4
2025-07-25T21:26	10	0	0.1	0	0	384	0.3	383	384	16.0	88.7
2025-07-25T21:27	10	0	0.1	0	0	383	0.2	383	384	16.0	88.5
2025-07-25T21:28	10	0	0.1	0	1	383	0.2	383	384	16.0	89.2
2025-07-25T21:29	10	0	0.1	0	0	383	0.3	382	383	16.0	88.9
2025-07-25T21:30	10	0	0.1	0	0	382	0.2	382	383	16.0	88.6
2025-07-25T21:31	10	0	0.1	0	0	382	0.2	382	383	16.0	88.5
2025-07-25T21:32	10	0	0.1	0	0	382	0.2	381	383	16.0	88.2
2025-07-25T21:33	10	0	0.1	0	1	382	0.2	382	383	15.9	89.2
2025-07-25T21:34	10	0	0.1	0	1	383	0.3	382	383	15.9	89.3
2025-07-25T21:35	10	0	0.1	0	0	383	0.2	382	384	16.1	86.6
2025-07-25T21:36	10	0	0.1	0	0	383	0.2	383	384	16.2	86.4
2025-07-25T21:37	10	0	0.2	0	1	383	0.3	382	384	16.3	85.5
2025-07-25T21:38	10	0	0.2	0	1	383	0.2	383	384	16.4	84.4
2025-07-25T21:39	10	0	0.1	0	0	383	0.3	383	384	16.4	84.3
2025-07-25T21:40	10	0	0.1	0	0	384	0.2	383	384	16.5	83.6
2025-07-25T21:41	10	0	0.1	0	0	384	0.2	383	384	16.5	83.4
2025-07-25T21:42	10	0	0.1	0	0	384	0.3	383	385	16.5	83.6
2025-07-25T21:43	10	0	0.1	0	0	384	0.3	383	384	16.4	83.7
2025-07-25T21:44	10	0	0.2	0	1	383	0.2	382	384	16.4	84.6
2025-07-25T21:45	10	0	0.1	0	0	383	0.2	382	383	16.2	86.1
2025-07-25T21:46	10	0	0.2	0	1	382	0.3	381	383	16.1	87.0
2025-07-25T21:47	10	0	0.1	0	1	381	0.3	381	382	16.0	87.3
2025-07-25T21:48	10	0	0.1	0	0	381	0.3	380	382	16.0	87.3
2025-07-25T21:49	10	0	0.2	0	1	380	0.3	379	381	15.9	87.3
2025-07-25T21:50	10	0	0.1	0	0	380	0.2	379	380	15.9	87.3
2025-07-25T21:51	10	0	0.1	0	0	380	0.3	379	380	15.9	87.3
2025-07-25T21:52	10	0	0.1	0	0	379	0.2	378	380	15.9	81.3
2025-07-25T21:53	10	0	0.1	0	0	379	0.3	379	380	15.9	87.3
2025-07-25T21:54	10	0	0.1	0	0	379	0.2	379	380	15.9	87.3
2025-07-25T21:55	10	0	0.1	0	0	380	0.2	379	380	15.9	87.3
2025-07-25T21:56	10	0	0.1	0	0	380	0.2	379	380	15.9	87.3
2025-07-25T21:57	10	0	0.1	0	0	380	0.2	379	380	15.9	87.3
2025-07-25T21:58	10	0	0.1	0	0	379	0.2	379	380	15.9	86.8
2025-07-25T21:59	10	0	0.1	0	0	379	0.2	379	380	16.0	86.3
2025-07-25T22:00	10	0	0.0	0	0	379	0.2	379	379	16.1	85.9
2025-07-25T22:01	10	0	0.1	0	0	379	0.2	379	379	16.2	85.2
2025-07-25T22:02	10	0	0.0	0	0	379	0.2	378	379	16.3	84.8
2025-07-25T22:03	10	0	0.0	0	0	378	0.2	378	379	16.3	85.1
2025-07-25T22:04	10	0	0.0	0	0	378	0.2	378	379	16.3	85.3
2025-07-25T22:05	10	0	0.0	0	0	378	0.3	378	379	16.1	86.3
2025-07-25T22:06	10	0	0.1	0	0	379	0.2	378	379	16.0	87.9
2025-07-25T22:07	10	0	0.1	0	0	379	0.2	379	380	15.9	88.0
2025-07-25T22:08	10	0	0.1	0	0	379	0.3	379	380	15.8	88.8
2025-07-25T22:09	10	0	0.1	0	0	379	0.3	379	380	15.7	89.3
2025-07-25T22:10	10	0	0.0	0	0	379	0.3	378	379	15.6	89.8
2025-07-25T22:11	10	0	0.0	0	0	379	0.2	379	380	15.6	89.8
2025-07-25T22:12	10	0	0.0	0	0	379	0.3	379	380	15.6	90.3
2025-07-25T22:13	10	0	0.1	0	0	379	0.2	379	380	15.4	91.7
2025-07-25T22:14	10	0	0.1	0	0	379	0.2	379	380	15.3	93.1
2025-07-25T22:15	10	0	0.1	0	0	379	0.2	379	379	15.2	94.2
2025-07-25T22:16	10	0	0.1	0	0	379	0.3	378	379	15.1	94.5
2025-07-25T22:17	10	0	0.1	0	0	378	0.2	377	379	15.1	94.7
2025-07-25T22:18	10	0	0.1	0	0	378	0.2	378	378	15.1	94.8
2025-07-25T22:19	10	0	0.1	0	0	378	0.2	377	378	15.0	94.8
2025-07-25T22:20	10	0	0.1	0	0	378	0.3	377	379	15.0	94.9
2025-07-25T22:21	10	0	0.1	0	0	378	0.3	377	379	15.0	94.8
2025-07-25T22:22	10	0	0.1	0	0	378	0.2	378	378	15.0	94.6
2025-07-25T22:23	10	0	0.1	0	0	378	0.3	378	379	15.1	94.3
2025-07-25T22:24	10	0	0.1	0	0	379	0.3	378	379	15.2	93.0
2025-07-25T22:25	10	0	0.1	0	0	379	0.2	378	379	15.4	92.1
2025-07-25T22:26	10	0	0.0	0	0	379	0.2	378	379	15.4	91.8
2025-07-25T22:27	10	0	0.0	0	0	379	0.2	378	379	15.4	91.7
2025-07-25T22:28	10	0	0.0	0	0	379	0.2	378	379	15.4	91.6
2025-07-25T22:29	10	0	0.1	0	0	379	0.2	378	379	15.4	91.5
2025-07-25T22:30	10	0	0.1	0	0	378	0.3	377	378	15.3	92.3
2025-07-25T22:31	10	0	0.0	0	0	377	0.3	377	378	15.1	92.9
2025-07-25T22:32	10	0	0.0	0	0	377	0.2	376	378	15.2	92.6
2025-07-25T22:33	10	0	0.0	0	0	377	0.3	376	378	15.3	91.9
2025-07-25T22:34	10	0	0.0	0	0	377	0.2	377	378	15.4	91.5
2025-07-25T22:35	10	0	0.1	0	0	377	0.3	376	378	15.4	91.5
2025-07-25T22:36	10	0	0.0	0	0	377	0.2	376	377	15.4	91.0
2025-07-25T22:37	10	0	0.0	0	0	376	0.3	376	377	15.5	90.7
2025-07-25T22:38	10	0	0.1	0	0	376	0.2	376	377	15.5	90.6
2025-07-25T22:39	10	0	0.0	0	0	376	0.2	375	376	15.4	90.9
2025-07-25T22:40	10	0	0.0	0	0	376	0.2	375	376	15.3	91.3
2025-07-25T22:41	10	0	0.0	0	0	375	0.2	375	376	15.3	91.7
2025-07-25T22:42	10	0	0.0	0	0	375	0.2	375	376	15.3	91.9
2025-07-25T22:43	10	0	0.1	0	0	375	0.2	375	376	15.3	91.8
2025-07-25T22:44	10	0	0.1	0	0	375	0.2	375	375	15.3	91.6
2025-07-25T22:45	10	0	0.1	0	0	375	0.2	374	375	15.3	91.4
2025-07-25T22:46	10	0	0.1	0	0	375	0.2	374	375	15.2	91.4
2025-07-25T22:47	10	0	0.0	0	0	374	0.2	374	375	15.1	91.9
2025-07-25T22:48	10	0	0.1	0	0	375	0.4	374	376	15.0	92.6
2025-07-25T22:49	10	0	0.0	0	0	376	0.3	375	376	15.0	93.2
2025-07-25T22:50	10	0	0.1	0	0	376	0.2	375	376	15.0	93.1
2025-07-25T22:51	10	0	0.0	0	0	376	0.3	375	377	15.0	93.1
2025-07-25T22:52	10	0	0.1	0	0	376	0.2	376	376	14.9	93.7
2025-07-25T22:53	10	0	0.0	0	0	376	0.2	375	376	14.8	94.7
2025-07-25T22:54	10	0	0.1	0	0	376	0.3	375	376	14.7	95.4
2025-07-25T22:55	10	0	0.1	0	0	376	0.3	375	377	14.6	95.7
2025-07-25T22:56	10	0	0.1	0	0	376	0.2	375	377	14.5	95.8
2025-07-25T22:57	10	0	0.1	0	0	376	0.3	375	377	14.5	95.9
2025-07-25T22:58	10	0	0.1	0	0	376	0.2	375	376	14.5	96.2
2025-07-25T22:59	10	0	0.1	0	0	376	0.3	375	376	14.5	96.3
2025-07-25T23:00	10	0	0.1	0	0	376	0.2	375	376	14.4	96.4
2025-07-25T23:01	10	0	0.1	0	0	376	0.2	375	376	14.4	96.5
2025-07-25T23:02	10	0	0.1	0	0	376	0.3	375	376	14.4	96.6
2025-07-25T23:03	10	0	0.1	0	0	376	0.2	375	376	14.3	96.6
2025-07-25T23:04	10	0	0.1	0	0	376	0.2	376	376	14.3	96.7
2025-07-25T23:05	10	0	0.1	0	0	376	0.3	375	376	14.4	96.7
2025-07-25T23:06	10	0	0.1	0	0	375	0.3	375	376	14.3	96.8
2025-07-25T23:07	10	0	0.1	0	0	375	0.3	375	376	14.4	96.8
2025-07-25T23:08	10	0	0.1	0	0	376	0.2	375	376	14.4	96.7
2025-07-25T23:09	10	0	0.1	0	0	375	0.2	375	376	14.4	96.6
2025-07-25T23:10	10	0	0.1	0	0	375	0.2	375	376	14.4	96.6
2025-07-25T23:11	10	0	0.1	0	0	375	0.2	375	376	14.5	96.5
2025-07-25T23:12	10	0	0.1	0	0	375	0.3	374	376	14.6	96.2
2025-07-25T23:13	10	0	0.1	0	0	375	0.2	374	376	14.6	96.4
2025-07-25T23:14	10	0	0.1	0	0	375	0.2	374	375	14.6	96.4
2025-07-25T23:15	10	0	0.1	0	0	375	0.3	374	376	14.6	96.3
2025-07-25T23:16	10	0	0.1	0	0	375	0.3	374	376	14.6	95.5
2025-07-25T23:17	10	0	0.1	0	0	375	0.2	375	376	14.6	94.9
2025-07-25T23:18	10	0	0.1	0	0	375	0.2	374	375	14.7	94.1
2025-07-25T23:19	10	0	0.1	0	0	375	0.3	374	375	14.8	93.6
2025-07-25T23:20	10	0	0.1	0	0	375	0.2	374	375	14.9	92.8
2025-07-25T23:21	10	0	0.1	0	0	375	0.2	374	375	15.1	90.6
2025-07-25T23:22	10	0	0.1	0	0	375	0.2	374	375	15.3	89.2
2025-07-25T23:23	10	0	0.1	0	0	374	0.3	374	375	15.4	89.1
2025-07-25T23:24	10	0	0.1	0	0	374	0.4	373	374	15.2	90.6
2025-07-25T23:25	10	0	0.1	0	0	373	0.3	373	374	15.1	91.6
2025-07-25T23:26	10	0	0.1	0	0	373	0.2	373	374	14.9	92.5
2025-07-25T23:27	10	0	0.1	0	0	373	0.2	373	374	14.9	92.8
2025-07-25T23:28	10	0	0.1	0	0	373	0.4	372	373	14.9	92.6
2025-07-25T23:29	10	0	0.0	0	0	372	0.2	372	373	14.8	92.9
2025-07-25T23:30	10	0	0.0	0	0	372	0.2	372	373	14.9	92.8
2025-07-25T23:31	10	0	0.0	0	0	373	0.2	372	373	14.9	92.8
2025-07-25T23:32	10	0	0.1	0	0	373	0.3	372	373	14.9	92.6
2025-07-25T23:33	10	0	0.0	0	0	373	0.3	372	373	15.0	92.6
2025-07-25T23:34	10	0	0.0	0	0	373	0.3	372	373	14.9	92.8
2025-07-25T23:35	10	0	0.0	0	0	372	0.2	372	373	14.8	93.2
2025-07-25T23:36	10	0	0.1	0	0	372	0.2	372	373	14.7	93.7
2025-07-25T23:37	10	0	0.0	0	0	372	0.2	372	373	14.7	94.0
2025-07-25T23:38	10	0	0.1	0	0	372	0.2	371	373	14.6	94.3
2025-07-25T23:39	10	0	0.0	0	0	372	0.3	372	373	14.6	94.6
2025-07-25T23:40	10	0	0.0	0	0	372	0.3	372	373	14.5	94.7
2025-07-25T23:41	10	0	0.0	0	0	372	0.3	372	373	14.4	95.1
2025-07-25T23:42	10	0	0.1	0	0	373	0.3	372	373	14.4	95.3
2025-07-25T23:43	10	0	0.0	0	0	373	0.2	372	373	14.4	95.3
2025-07-25T23:44	10	0	0.1	0	0	373	0.3	372	373	14.3	95.4
2025-07-25T23:45	10	0	0.0	0	0	373	0.3	372	373	14.3	95.6
2025-07-25T23:46	10	0	0.0	0	0	373	0.2	372	373	14.2	96.2
2025-07-25T23:47	10	0	0.1	0	0	372	0.3	372	373	14.1	96.6
2025-07-25T23:48	10	0	0.1	0	0	373	0.2	372	373	14.1	97.0
2025-07-25T23:49	10	0	0.0	0	0	373	0.2	372	373	14.0	97.3
2025-07-25T23:50	10	0	0.1	0	0	372	0.2	372	373	14.0	97.6
2025-07-25T23:51	10	0	0.1	0	0	372	0.2	372	372	13.9	97.9
2025-07-25T23:52	10	0	0.0	0	0	372	0.2	372	372	13.8	98.0
2025-07-25T23:53	10	0	0.1	0	0	372	0.2	372	373	13.8	98.0
2025-07-25T23:54	10	0	0.1	0	0	373	0.3	372	373	13.8	97.8
2025-07-25T23:55	10	0	0.1	0	0	373	0.3	372	374	13.9	97.5
2025-07-25T23:56	10	0	0.0	0	0	373	0.2	373	374	14.0	96.9
2025-07-25T23:57	10	0	0.1	0	0	373	0.2	373	374	14.1	96.5
2025-07-25T23:58	10	0	0.0	0	0	373	0.3	373	374	14.0	96.3
2025-07-25T23:59	10	0	0.0	0	0	373	0.2	373	374	14.0	96.3
2025-07-26T00:00	10	0	0.0	0	0	373	0.4	372	374	14.2	95.9
2025-07-26T00:01	10	0	0.1	0	0	373	0.3	373	374	14.4	95.6
2025-07-26T00:02	10	0	0.1	0	0	374	0.3	373	374	14.5	94.8
2025-07-26T00:03	10	0	0.0	0	0	374	0.2	374	375	14.6	94.1
2025-07-26T00:04	10	0	0.1	0	0	374	0.2	374	375	14.7	93.6
2025-07-26T00:05	10	0	0.1	0	0	374	0.2	373	374	14.7	93.3
2025-07-26T00:06	10	0	0.1	0	0	374	0.3	373	374	14.8	93.0
2025-07-26T00:07	10	0	0.1	0	0	374	0.3	373	374	14.8	92.8
2025-07-26T00:08	10	0	0.1	0	0	373	0.2	373	374	14.8	92.6
2025-07-26T00:09	10	0	0.1	0	0	373	0.3	373	374	14.7	92.6
2025-07-26T00:10	10	0	0.1	0	0	373	0.2	372	373	14.7	92.3
2025-07-26T00:11	10	0	0.1	0	0	373	0.3	372	374	14.8	92.3
2025-07-26T00:12	10	0	0.1	0	0	372	0.4	372	373	14.7	92.3
2025-07-26T00:13	10	0	0.1	0	0	372	0.2	372	373	14.7	92.4
2025-07-26T00:14	10	0	0.0	0	0	372	0.1	372	373	14.8	92.5
2025-07-26T00:15	10	0	0.1	0	0	372	0.2	372	373	14.8	92.2
2025-07-26T00:16	10	0	0.1	0	0	372	0.2	372	373	14.9	91.7
2025-07-26T00:17	10	0	0.1	0	0	372	0.3	372	373	14.9	92.2
2025-07-26T00:18	10	0	0.1	0	0	372	0.5	371	373	14.7	91.9
2025-07-26T00:19	10	0	0.1	0	0	371	0.2	371	372	14.4	93.0
2025-07-26T00:20	10	0	0.1	0	0	371	0.3	371	372	14.2	94.1
2025-07-26T00:21	10	0	0.1	0	1	371	0.3	371	372	14.1	94.8
2025-07-26T00:22	10	0	0.1	0	1	372	0.2	371	372	14.1	95.3
2025-07-26T00:23	10	0	0.1	0	0	372	0.2	372	373	14.1	95.8
2025-07-26T00:24	10	0	0.1	0	0	372	0.3	372	373	14.1	95.9
2025-07-26T00:25	10	0	0.1	0	0	372	0.2	372	373	14.1	96.2
2025-07-26T00:26	10	0	0.1	0	0	372	0.2	372	373	14.2	96.1
2025-07-26T00:27	10	0	0.1	0	0	373	0.4	372	374	14.2	96.0
2025-07-26T00:28	10	0	0.1	0	1	374	0.3	373	374	14.2	96.1
2025-07-26T00:29	10	0	0.1	0	1	373	0.2	373	374	14.1	96.3
2025-07-26T00:30	10	0	0.2	0	1	373	0.3	372	374	14.0	96.5
2025-07-26T00:31	10	0	0.1	0	0	372	0.3	372	373	13.9	96.5
2025-07-26T00:32	10	0	0.2	0	1	372	0.3	371	372	13.9	96.5
2025-07-26T00:33	10	0	0.2	0	1	371	0.2	371	372	13.9	96.8
2025-07-26T00:34	10	0	0.1	0	0	371	0.2	370	372	13.9	97.1
2025-07-26T00:35	10	0	0.1	0	0	371	0.3	370	371	13.9	97.4
2025-07-26T00:36	10	0	0.1	0	0	370	0.3	370	371	13.8	97.3
2025-07-26T00:37	10	0	0.1	0	0	371	0.2	370	371	13.8	97.1
2025-07-26T00:38	10	0	0.1	0	0	371	0.3	370	371	13.8	96.8
2025-07-26T00:39	10	0	0.2	0	0	370	0.3	370	371	13.9	96.8
2025-07-26T00:40	10	0	0.1	0	0	370	0.2	370	371	13.8	96.6
2025-07-26T00:41	10	0	0.1	0	0	370	0.2	370	371	13.9	96.4
2025-07-26T00:42	10	0	0.1	0	0	370	0.3	370	371	14.0	96.8
2025-07-26T00:43	10	0	0.1	0	0	370	0.3	369	371	14.0	96.9
2025-07-26T00:44	10	0	0.1	0	0	370	0.3	369	371	14.0	97.0
2025-07-26T00:45	10	0	0.1	0	0	371	0.3	370	371	14.0	97.1
2025-07-26T00:46	10	0	0.1	0	0	371	0.2	370	371	14.0	97.2
2025-07-26T00:47	10	0	0.2	0	0	371	0.3	370	372	13.9	97.3
2025-07-26T00:48	10	0	0.1	0	0	372	0.2	371	372	13.9	97.2
2025-07-26T00:49	10	0	0.1	0	0	372	0.3	372	373	13.9	96.7
2025-07-26T00:50	10	0	0.2	0	1	373	0.3	372	373	13.9	96.3
2025-07-26T00:51	10	0	0.1	0	0	373	0.3	372	373	13.9	96.2
2025-07-26T00:52	10	0	0.2	0	0	373	0.2	372	373	13.9	96.1
2025-07-26T00:53	10	0	0.1	0	0	373	0.3	373	374	13.9	96.1
2025-07-26T00:54	10	0	0.1	0	0	374	0.3	374	375	13.9	96.5
2025-07-26T00:55	10	0	0.1	0	0	375	0.3	374	375	13.9	96.6
2025-07-26T00:56	10	0	0.1	0	0	376	0.2	375	376	13.8	96.7
2025-07-26T00:57	10	0	0.1	0	0	376	0.3	375	377	13.8	97.0
2025-07-26T00:58	10	0	0.1	0	0	377	0.3	376	377	13.7	97.3
2025-07-26T00:59	10	0	0.1	0	0	377	0.2	376	377	13.7	97.4
2025-07-26T01:00	10	0	0.1	0	0	377	0.2	377	378	13.6	97.3
2025-07-26T01:01	10	0	0.1	0	0	377	0.2	377	378	13.6	97.1
2025-07-26T01:02	10	0	0.2	0	1	377	0.3	377	378	13.5	97.1
2025-07-26T01:03	10	0	0.1	0	0	378	0.3	377	379	13.5	97.4
2025-07-26T01:04	10	0	0.1	0	0	379	0.3	378	379	13.6	97.6
2025-07-26T01:05	10	0	0.2	0	0	379	0.3	378	380	13.6	97.4
2025-07-26T01:06	10	0	0.2	-1	0	380	0.3	379	380	13.7	97.4
2025-07-26T01:07	10	0	0.2	-1	0	380	0.2	379	381	13.7	97.4
2025-07-26T01:08	10	0	0.1	0	0	380	0.2	380	381	13.6	97.5
2025-07-26T01:09	10	0	0.1	0	0	381	0.2	380	381	13.7	98.1
2025-07-26T01:10	10	0	0.1	0	0	380	0.2	380	381	13.7	98.0
2025-07-26T01:11	10	0	0.1	0	0	381	0.2	380	381	13.8	97.3
2025-07-26T01:12	10	0	0.1	0	0	381	0.3	380	381	13.9	97.2
2025-07-26T01:13	10	0	0.1	0	0	380	0.3	380	381	14.0	97.1
2025-07-26T01:14	10	0	0.1	0	0	380	0.3	379	381	14.0	96.8
2025-07-26T01:15	10	0	0.1	0	0	380	0.2	379	380	14.0	96.7
2025-07-26T01:16	10	0	0.1	0	0	379	0.4	378	380	14.1	96.4
2025-07-26T01:17	10	0	0.1	0	0	379	0.3	378	379	14.1	96.3
2025-07-26T01:18	10	0	0.1	0	0	378	0.3	377	378	14.1	96.2
2025-07-26T01:19	10	0	0.1	0	0	378	0.4	377	378	14.0	96.1
2025-07-26T01:20	10	0	0.1	0	0	377	0.3	376	378	14.0	96.3
2025-07-26T01:21	10	0	0.1	0	0	377	0.2	376	377	13.9	96.4
2025-07-26T01:22	10	0	0.1	0	0	377	0.2	376	377	13.9	96.5
2025-07-26T01:23	10	0	0.1	0	0	376	0.3	376	377	13.9	96.4
2025-07-26T01:24	10	0	0.1	0	0	376	0.2	376	377	13.9	96.4
2025-07-26T01:25	10	0	0.1	0	0	377	0.2	376	377	13.9	96.5
2025-07-26T01:26	10	0	0.1	0	0	376	0.2	376	377	13.9	96.8
2025-07-26T01:27	10	0	0.1	0	0	376	0.3	376	377	13.9	96.9
2025-07-26T01:28	10	0	0.1	0	0	376	0.2	376	377	13.8	97.0
2025-07-26T01:29	10	0	0.1	0	0	377	0.2	376	377	13.9	97.1
2025-07-26T01:30	10	0	0.1	0	0	377	0.2	376	377	13.9	97.1
2025-07-26T01:31	10	0	0.1	0	1	377	0.2	376	377	13.9	97.3
2025-07-26T01:32	10	0	0.1	0	0	377	0.2	376	377	13.9	97.3
2025-07-26T01:33	10	0	0.1	0	0	376	0.2	376	377	13.9	97.1
2025-07-26T01:34	10	0	0.1	0	0	376	0.2	376	377	13.9	96.8
2025-07-26T01:35	10	0	0.2	0	0	377	0.2	376	377	14.0	96.5
2025-07-26T01:36	10	0	0.2	0	0	377	0.2	376	377	14.0	96.3
2025-07-26T01:37	10	0	0.1	0	0	377	0.2	376	377	14.0	96.3
2025-07-26T01:38	10	0	0.1	0	0	377	0.2	377	377	14.0	96.5
2025-07-26T01:39	10	0	0.1	0	0	377	0.3	376	377	14.0	96.6
2025-07-26T01:40	10	0	0.1	0	0	377	0.3	377	378	14.0	96.6
2025-07-26T01:41	10	0	0.2	0	1	377	0.3	377	378	14.0	96.4
2025-07-26T01:42	10	0	0.1	0	0	377	0.3	377	378	14.0	96.2
2025-07-26T01:43	10	0	0.1	0	0	378	0.2	377	378	14.0	96.2
2025-07-26T01:44	10	0	0.1	0	0	378	0.3	377	378	14.0	96.4
2025-07-26T01:45	10	0	0.1	0	0	378	0.3	377	378	13.9	96.6
2025-07-26T01:46	10	0	0.1	0	0	378	0.3	377	378	14.0	96.5
2025-07-26T01:47	10	0	0.1	0	0	379	0.3	378	379	14.0	96.1
2025-07-26T01:48	10	0	0.1	0	0	379	0.2	378	379	14.0	96.2
2025-07-26T01:49	10	0	0.1	0	0	379	0.2	379	379	14.0	96.3
2025-07-26T01:50	10	0	0.1	0	0	379	0.2	379	380	14.0	96.4
2025-07-26T01:51	10	0	0.1	0	0	379	0.2	379	380	14.0	96.5
2025-07-26T01:52	10	0	0.1	0	0	380	0.2	379	380	14.0	96.3
2025-07-26T01:53	10	0	0.1	0	0	380	0.3	379	381	14.0	96.2
2025-07-26T01:54	10	0	0.1	0	0	380	0.2	379	380	14.0	96.3
2025-07-26T01:55	10	0	0.1	0	0	380	0.2	379	380	14.0	96.4
2025-07-26T01:56	10	0	0.1	0	0	380	0.3	379	381	14.0	96.0
2025-07-26T01:57	10	0	0.1	0	0	380	0.2	380	381	14.1	95.4
2025-07-26T01:58	10	0	0.1	0	0	381	0.3	380	381	14.1	95.2
2025-07-26T01:59	10	0	0.2	0	0	381	0.3	380	382	14.2	94.8
2025-07-26T02:00	10	0	0.1	0	0	381	0.2	379	381	14.2	94.6
2025-07-26T02:01	10	0	0.1	0	1	381	0.2	381	381	14.2	94.5
2025-07-26T02:02	10	0	0.1	0	0	381	0.2	381	382	14.2	94.4
2025-07-26T02:03	10	0	0.1	0	0	381	0.3	380	382	14.2	94.5
2025-07-26T02:04	10	0	0.1	0	0	381	0.3	381	382	14.2	94.3
2025-07-26T02:05	10	0	0.1	0	0	381	0.2	381	382	14.2	94.2
2025-07-26T02:06	10	0	0.1	0	0	381	0.2	380	382	14.2	94.4
2025-07-26T02:07	10	0	0.1	0	0	381	0.2	381	382	14.2	94.2
2025-07-26T02:08	10	0	0.2	0	0	381	0.2	381	382	14.1	94.2
2025-07-26T02:09	10	0	0.1	0	0	381	0.3	381	382	14.1	94.4
2025-07-26T02:10	10	0	0.1	0	0	381	0.3	380	382	14.1	94.5
2025-07-26T02:11	10	0	0.1	0	0	381	0.2	381	382	14.1	94.8
2025-07-26T02:12	10	0	0.1	0	0	381	0.2	381	382	14.1	95.3
2025-07-26T02:13	10	0	0.2	0	1	381	0.3	381	382	14.0	95.5
2025-07-26T02:14	10	0	0.1	0	0	381	0.2	380	382	14.0	95.7
2025-07-26T02:15	10	0	0.2	0	1	381	0.3	381	382	14.0	96.0
2025-07-26T02:16	10	0	0.1	0	0	381	0.2	381	382	13.9	96.2
2025-07-26T02:17	10	0	0.1	0	0	381	0.2	380	381	13.9	96.6
2025-07-26T02:18	10	0	0.1	0	0	381	0.2	381	382	13.9	96.6
2025-07-26T02:19	10	0	0.2	0	0	381	0.2	380	381	13.8	96.7
2025-07-26T02:20	10	0	0.2	0	0	381	0.3	380	381	13.8	96.8
2025-07-26T02:21	10	0	0.1	0	0	381	0.2	380	381	13.8	97.0
2025-07-26T02:22	10	0	0.1	0	0	381	0.2	380	382	13.8	97.2
2025-07-26T02:23	10	0	0.1	0	1	381	0.2	380	381	13.7	97.2
2025-07-26T02:24	10	0	0.1	0	0	381	0.2	380	381	13.7	97.0
2025-07-26T02:25	10	0	0.2	0	0	381	0.3	380	382	13.8	96.9
2025-07-26T02:26	10	0	0.1	0	0	381	0.2	381	381	13.8	96.9
2025-07-26T02:27	10	0	0.1	0	0	381	0.2	381	381	13.8	97.0
2025-07-26T02:28	10	0	0.1	0	0	381	0.3	381	382	13.8	96.9
2025-07-26T02:29	10	0	0.1	0	0	381	0.3	380	382	13.8	96.8
2025-07-26T02:30	10	0	0.1	0	0	381	0.3	380	382	13.8	96.9
2025-07-26T02:31	10	0	0.1	0	0	381	0.2	381	382	13.9	96.7
2025-07-26T02:32	10	0	0.1	0	0	381	0.2	381	382	14.0	96.3
2025-07-26T02:33	10	0	0.1	0	0	382	0.2	381	382	14.0	96.3
2025-07-26T02:34	10	0	0.1	0	0	382	0.2	381	382	14.0	96.2
2025-07-26T02:35	10	0	0.1	0	0	382	0.2	381	382	14.0	96.2
2025-07-26T02:36	10	0	0.1	0	0	382	0.2	381	382	14.0	96.3
2025-07-26T02:37	10	0	0.2	0	1	382	0.2	382	383	14.0	96.2
2025-07-26T02:38	10	0	0.1	0	0	382	0.2	381	382	14.0	96.0
2025-07-26T02:39	10	0	0.1	0	0	382	0.2	381	382	14.1	95.9
2025-07-26T02:40	10	0	0.2	0	1	382	0.3	381	383	14.1	96.0
2025-07-26T02:41	10	0	0.1	0	0	382	0.2	381	382	14.1	96.2
2025-07-26T02:42	10	0	0.1	0	0	382	0.2	381	382	14.1	96.0
2025-07-26T02:43	10	0	0.1	0	0	382	0.2	382	383	14.1	95.9
2025-07-26T02:44	10	0	0.1	0	0	382	0.2	381	382	14.1	95.9
2025-07-26T02:45	10	0	0.2	0	0	382	0.3	381	383	14.1	95.6
2025-07-26T02:46	10	0	0.1	0	0	382	0.2	382	383	14.1	95.5
2025-07-26T02:47	10	0	0.1	0	1	382	0.2	382	383	14.1	95.4
2025-07-26T02:48	10	0	0.1	0	0	382	0.2	382	383	14.1	95.3
2025-07-26T02:49	10	0	0.1	0	0	382	0.2	382	383	14.1	95.1
2025-07-26T02:50	10	0	0.1	0	0	383	0.2	382	383	14.1	95.3
2025-07-26T02:51	10	0	0.1	0	0	383	0.2	382	383	14.1	95.3
2025-07-26T02:52	10	0	0.2	0	0	383	0.2	382	383	14.1	95.3
2025-07-26T02:53	10	0	0.1	0	0	383	0.2	382	383	14.1	95.3
2025-07-26T02:54	10	0	0.1	0	0	383	0.3	382	383	14.1	95.9
2025-07-26T02:55	10	0	0.1	0	0	382	0.2	382	383	14.1	96.3
2025-07-26T02:56	10	0	0.1	0	0	382	0.2	382	383	14.1	96.5
2025-07-26T02:57	10	0	0.1	0	0	382	0.3	382	383	14.1	96.6
2025-07-26T02:58	10	0	0.2	0	1	383	0.3	382	383	14.1	96.6
2025-07-26T02:59	10	0	0.1	0	0	382	0.2	382	383	14.1	96.8
2025-07-26T03:00	10	0	0.2	0	0	382	0.3	382	383	14.1	97.1
2025-07-26T03:01	10	0	0.2	0	0	382	0.2	382	383	14.1	96.8
2025-07-26T03:02	10	0	0.1	0	0	382	0.3	382	383	14.1	96.7
2025-07-26T03:03	10	0	0.2	0	1	382	0.2	381	383	14.1	96.8
2025-07-26T03:04	10	0	0.1	0	0	382	0.2	381	382	14.1	96.7
2025-07-26T03:05	10	0	0.1	0	0	382	0.3	381	383	14.1	96.7
2025-07-26T03:06	10	0	0.1	0	0	382	0.3	381	382	14.1	96.4
2025-07-26T03:07	10	0	0.1	-1	0	382	0.2	382	383	14.1	96.1
2025-07-26T03:08	10	0	0.1	0	0	382	0.2	381	382	14.1	96.0
2025-07-26T03:09	10	0	0.2	0	0	382	0.3	381	382	14.1	96.0
2025-07-26T03:10	10	0	0.2	0	0	381	0.2	381	382	14.1	96.0
2025-07-26T03:11	10	0	0.2	0	0	381	0.2	380	382	14.1	96.1
2025-07-26T03:12	10	0	0.1	0	0	381	0.2	381	382	14.2	96.0
2025-07-26T03:13	10	0	0.2	0	0	381	0.3	380	382	14.2	96.1
2025-07-26T03:14	10	0	0.2	0	0	381	0.3	380	382	14.2	96.0
2025-07-26T03:15	10	0	0.1	0	0	381	0.3	381	382	14.2	95.9
2025-07-26T03:16	10	0	0.1	0	0	381	0.2	380	382	14.2	96.1
2025-07-26T03:17	10	0	0.2	0	1	381	0.2	381	382	14.2	96.5
2025-07-26T03:18	10	0	0.1	0	0	381	0.3	381	382	14.2	96.6
2025-07-26T03:19	10	0	0.2	-1	0	381	0.3	380	382	14.2	96.8
2025-07-26T03:20	10	0	0.1	0	0	382	0.2	381	382	14.1	97.1
2025-07-26T03:21	10	0	0.2	0	1	382	0.2	381	382	14.1	97.3
2025-07-26T03:22	10	0	0.2	0	1	382	0.3	381	382	14.1	97.5
2025-07-26T03:23	10	0	0.1	0	0	382	0.2	381	382	14.1	97.5
2025-07-26T03:24	10	0	0.1	0	0	382	0.3	381	382	14.1	97.4
2025-07-26T03:25	10	0	0.2	0	0	382	0.3	381	383	14.1	97.4
2025-07-26T03:26	10	0	0.1	-1	0	382	0.2	382	382	14.1	97.4
2025-07-26T03:27	10	0	0.2	0	0	382	0.3	382	383	14.1	97.1
2025-07-26T03:28	10	0	0.2	0	0	382	0.2	382	383	14.1	97.0
2025-07-26T03:29	10	0	0.2	-1	0	382	0.3	382	383	14.1	97.0
2025-07-26T03:30	10	0	0.1	0	0	382	0.2	382	383	14.1	96.8
2025-07-26T03:31	10	0	0.2	0	0	382	0.3	382	383	14.2	96.6
2025-07-26T03:32	10	0	0.2	0	0	383	0.3	382	383	14.2	96.5
2025-07-26T03:33	10	0	0.2	0	0	383	0.3	383	384	14.2	96.3
2025-07-26T03:34	10	0	0.1	0	0	384	0.2	383	384	14.3	96.2
2025-07-26T03:35	10	0	0.1	0	0	383	0.2	383	384	14.3	96.1
2025-07-26T03:36	10	0	0.1	0	0	384	0.3	383	384	14.3	96.0
2025-07-26T03:37	10	0	0.2	0	0	384	0.3	383	385	14.4	95.4
2025-07-26T03:38	10	0	0.2	0	1	384	0.2	384	385	14.4	94.4
2025-07-26T03:39	10	0	0.2	0	0	384	0.2	384	385	14.6	93.8
2025-07-26T03:40	10	0	0.2	0	1	384	0.2	384	385	14.6	93.4
2025-07-26T03:41	10	0	0.2	0	0	384	0.3	383	385	14.6	94.3
2025-07-26T03:42	10	0	0.2	0	1	384	0.3	383	384	14.4	95.2
2025-07-26T03:43	10	0	0.1	0	0	384	0.2	383	384	14.4	96.1
2025-07-26T03:44	10	0	0.2	0	1	384	0.3	384	385	14.3	96.3
2025-07-26T03:45	10	0	0.1	0	0	384	0.2	384	385	14.4	95.8
2025-07-26T03:46	10	0	0.2	0	1	384	0.3	383	385	14.4	95.2
2025-07-26T03:47	10	0	0.2	0	1	384	0.2	384	385	14.5	94.8
2025-07-26T03:48	10	0	0.2	0	0	384	0.2	384	385	14.5	94.9
2025-07-26T03:49	10	0	0.2	0	1	384	0.3	384	385	14.5	95.0
2025-07-26T03:50	10	0	0.1	0	0	385	0.2	384	385	14.5	94.8
2025-07-26T03:51	10	0	0.2	0	0	385	0.3	384	385	14.6	94.0
2025-07-26T03:52	10	0	0.1	0	0	385	0.3	384	386	14.7	93.0
2025-07-26T03:53	10	0	0.2	0	0	385	0.3	384	386	14.8	92.0
2025-07-26T03:54	10	0	0.2	0	0	386	0.3	385	386	14.9	90.6
2025-07-26T03:55	10	0	0.2	0	0	386	0.2	385	386	15.0	89.8
2025-07-26T03:56	10	0	0.2	0	1	385	0.3	385	386	15.1	88.9
2025-07-26T03:57	10	0	0.2	0	1	385	0.3	384	386	15.1	89.8
2025-07-26T03:58	10	0	0.1	0	0	385	0.3	384	386	14.9	92.3
2025-07-26T03:59	10	0	0.2	0	1	385	0.2	384	386	14.9	91.6
2025-07-26T04:00	10	0	0.2	0	1	385	0.2	385	386	14.9	91.9
2025-07-26T04:01	10	0	0.2	0	1	385	0.3	384	386	14.9	91.2
2025-07-26T04:02	10	0	0.2	0	1	385	0.2	385	386	15.1	88.9
2025-07-26T04:03	10	0	0.2	0	1	384	0.4	383	385	15.1	89.8
2025-07-26T04:04	10	0	0.2	0	1	384	0.3	383	385	14.9	93.0
2025-07-26T04:05	10	0	0.1	0	1	384	0.3	383	384	14.8	94.5
2025-07-26T04:06	10	1	0.2	0	1	383	0.3	383	384	14.6	94.7
2025-07-26T04:07	10	1	0.1	0	1	383	0.3	382	384	14.6	95.0
2025-07-26T04:08	10	1	0.1	0	1	383	0.2	382	383	14.6	95.6
2025-07-26T04:09	10	1	0.1	0	1	383	0.2	382	383	14.6	95.4
2025-07-26T04:10	10	1	0.2	0	1	382	0.3	382	383	14.6	95.4
2025-07-26T04:11	10	1	0.2	0	1	382	0.2	382	383	14.5	95.8
2025-07-26T04:12	10	1	0.1	0	1	382	0.2	381	382	14.4	96.1
2025-07-26T04:13	10	1	0.2	0	1	381	0.2	381	382	14.4	96.2
2025-07-26T04:14	10	1	0.2	0	1	381	0.3	380	382	14.4	96.0
2025-07-26T04:15	10	1	0.1	0	1	381	0.3	380	381	14.4	95.9
2025-07-26T04:16	10	1	0.1	1	1	380	0.3	380	381	14.4	95.9
2025-07-26T04:17	10	1	0.1	1	1	380	0.2	379	380	14.3	95.7
2025-07-26T04:18	10	1	0.1	1	1	379	0.2	378	379	14.3	95.8
2025-07-26T04:19	10	1	0.2	1	2	379	0.2	378	379	14.3	95.9
2025-07-26T04:20	10	1	0.1	1	1	378	0.3	378	379	14.2	95.8
2025-07-26T04:21	10	1	0.1	1	1	378	0.2	378	379	14.2	95.8
2025-07-26T04:22	10	1	0.1	1	2	378	0.3	378	379	14.2	96.0
2025-07-26T04:23	10	1	0.1	1	2	378	0.3	377	379	14.1	96.2
2025-07-26T04:24	10	2	0.2	1	2	378	0.3	377	378	14.1	96.5
2025-07-26T04:25	10	2	0.1	1	2	378	0.3	377	378	14.1	96.7
2025-07-26T04:26	10	2	0.2	1	2	378	0.3	377	379	14.0	96.8
2025-07-26T04:27	10	2	0.1	2	2	378	0.3	377	379	14.0	97.1
2025-07-26T04:28	10	2	0.2	2	3	378	0.4	378	379	14.0	97.0
2025-07-26T04:29	10	3	0.2	3	3	379	0.3	378	380	14.0	97.2
2025-07-26T04:30	10	3	0.3	3	4	379	0.5	378	380	14.0	97.4
2025-07-26T04:31	10	4	0.2	3	4	380	0.3	379	380	14.0	97.3
2025-07-26T04:32	10	4	0.2	3	4	380	0.3	380	381	14.0	97.1
2025-07-26T04:33	10	4	0.2	4	5	381	0.3	380	381	14.0	97.1
2025-07-26T04:34	10	5	0.2	4	5	381	0.2	380	382	14.1	97.1
2025-07-26T04:35	10	5	0.2	5	6	381	0.3	380	382	14.1	97.0
2025-07-26T04:36	10	5	0.2	5	6	382	0.2	381	382	14.1	96.9
2025-07-26T04:37	10	6	0.1	5	6	382	0.2	381	382	14.1	96.9
2025-07-26T04:38	10	6	0.1	6	6	382	0.2	381	382	14.1	97.1
2025-07-26T04:39	10	6	0.1	6	7	382	0.2	381	382	14.0	97.3
2025-07-26T04:40	10	6	0.1	6	7	382	0.2	381	382	14.1	97.2
2025-07-26T04:41	10	7	0.1	6	7	382	0.2	381	382	14.0	97.4
2025-07-26T04:42	10	7	0.1	6	7	382	0.3	381	382	14.1	97.4
2025-07-26T04:43	10	7	0.1	7	7	382	0.2	381	382	14.1	97.4
2025-07-26T04:44	10	7	0.1	7	8	381	0.2	381	382	14.1	97.3
2025-07-26T04:45	10	7	0.1	7	7	381	0.2	381	382	14.1	97.5
2025-07-26T04:46	10	7	0.2	6	7	381	0.2	380	381	14.1	97.2
2025-07-26T04:47	10	6	0.1	6	6	381	0.2	380	381	14.1	97.1
2025-07-26T04:48	10	6	0.2	5	6	381	0.2	380	381	14.1	97.0
2025-07-26T04:49	10	6	0.1	5	6	380	0.2	380	381	14.2	96.7
2025-07-26T04:50	10	6	0.2	5	6	380	0.3	379	381	14.3	96.2
2025-07-26T04:51	10	6	0.2	6	6	380	0.2	379	380	14.3	96.2
2025-07-26T04:52	10	6	0.2	6	7	380	0.2	379	380	14.3	96.4
2025-07-26T04:53	10	7	0.2	7	7	380	0.3	380	381	14.3	96.7
2025-07-26T04:54	10	7	0.1	7	7	380	0.2	380	381	14.3	96.1
2025-07-26T04:55	10	7	0.1	7	7	380	0.2	380	381	14.3	95.8
2025-07-26T04:56	10	7	0.1	7	7	381	0.2	380	381	14.3	95.6
2025-07-26T04:57	10	7	0.1	7	7	381	0.3	380	381	14.3	95.5
2025-07-26T04:58	10	12	3.1	7	16	381	0.4	380	382	14.4	94.3
2025-07-26T04:59	10	16	0.6	14	16	381	0.3	380	382	14.5	94.1
2025-07-26T05:00	10	12	1.4	10	14	382	0.2	381	382	14.5	94.5
2025-07-26T05:01	10	9	0.3	8	10	381	0.3	381	382	14.5	94.7
2025-07-26T05:02	10	9	0.1	8	9	382	0.2	381	382	14.5	94.8
2025-07-26T05:03	10	9	0.1	8	9	382	0.2	382	382	14.5	94.3
2025-07-26T05:04	10	9	0.2	9	9	382	0.2	381	383	14.5	93.6
2025-07-26T05:05	10	10	0.2	9	10	382	0.2	382	383	14.6	93.0
2025-07-26T05:06	10	11	0.3	10	11	382	0.2	382	383	14.6	93.0
2025-07-26T05:07	10	12	0.2	11	12	383	0.2	382	383	14.6	93.0
2025-07-26T05:08	10	13	1.1	12	16	383	0.2	383	384	14.6	92.8
2025-07-26T05:09	10	14	1.8	12	17	384	0.2	383	384	14.7	92.4
2025-07-26T05:10	10	12	0.2	11	12	384	0.2	383	385	14.7	92.3
2025-07-26T05:11	10	11	0.2	11	12	384	0.3	384	385	14.7	92.3
2025-07-26T05:12	10	10	0.2	10	11	384	0.3	384	385	14.6	93.4
2025-07-26T05:13	10	10	0.1	10	10	384	0.3	383	385	14.6	93.6
2025-07-26T05:14	10	10	0.1	9	10	384	0.2	383	384	14.6	94.2
2025-07-26T05:15	10	9	0.1	9	10	384	0.2	383	384	14.5	94.3
2025-07-26T05:16	10	10	0.2	9	10	383	0.3	383	384	14.5	94.6
2025-07-26T05:17	10	10	0.2	10	10	383	0.2	383	384	14.5	95.3
2025-07-26T05:18	10	10	0.1	10	11	384	0.2	383	384	14.4	95.4
2025-07-26T05:19	10	11	0.1	11	11	384	0.2	383	385	14.4	95.2
2025-07-26T05:20	10	11	0.2	11	12	384	0.2	384	385	14.4	95.2
2025-07-26T05:21	10	12	0.2	12	12	384	0.2	384	385	14.5	95.1
2025-07-26T05:22	10	12	0.2	12	13	385	0.3	384	386	14.5	94.8
2025-07-26T05:23	10	13	0.2	13	13	385	0.2	385	386	14.6	94.7
2025-07-26T05:24	10	14	0.1	13	14	385	0.2	385	386	14.5	95.0
2025-07-26T05:25	10	14	0.1	14	14	385	0.3	385	386	14.5	95.5
2025-07-26T05:26	10	14	0.2	14	15	386	0.3	385	386	14.4	95.5
2025-07-26T05:27	10	15	0.2	14	15	387	0.3	386	387	14.5	95.6
2025-07-26T05:28	10	15	0.1	15	15	387	0.3	387	388	14.5	95.3
2025-07-26T05:29	10	15	0.1	15	15	388	0.3	387	388	14.5	95.3
2025-07-26T05:30	10	15	0.1	14	15	388	0.2	388	389	14.5	95.0
2025-07-26T05:31	10	14	0.1	14	14	389	0.2	388	389	14.6	94.8
2025-07-26T05:32	10	14	0.1	14	14	388	0.3	388	389	14.5	94.8
2025-07-26T05:33	10	14	0.1	14	14	388	0.2	388	388	14.5	95.1
2025-07-26T05:34	10	14	0.1	13	14	388	0.2	387	388	14.5	95.5
2025-07-26T05:35	10	14	0.1	13	14	388	0.2	388	389	14.5	95.9
2025-07-26T05:36	10	13	0.1	13	14	388	0.2	388	389	14.5	95.5
2025-07-26T05:37	10	13	0.1	13	14	388	0.2	388	389	14.4	95.4
2025-07-26T05:38	10	13	0.1	13	14	388	0.2	388	389	14.5	95.7
2025-07-26T05:39	10	13	0.1	13	13	388	0.2	388	389	14.5	95.6
2025-07-26T05:40	10	13	0.1	13	14	389	0.2	388	389	14.5	95.2
2025-07-26T05:41	10	14	0.1	13	14	389	0.2	389	390	14.6	95.1
2025-07-26T05:42	10	14	0.1	13	14	389	0.2	389	390	14.6	94.8
2025-07-26T05:43	10	14	0.2	14	14	389	0.2	389	390	14.6	95.1
2025-07-26T05:44	10	15	0.1	14	15	390	0.2	389	390	14.6	94.7
2025-07-26T05:45	10	15	0.2	15	15	390	0.3	389	390	14.6	94.8
2025-07-26T05:46	10	16	0.2	15	16	390	0.2	390	391	14.7	95.1
2025-07-26T05:47	10	16	0.1	16	16	391	0.2	390	391	14.7	94.6
2025-07-26T05:48	10	17	0.2	16	17	391	0.2	391	391	14.7	95.0
2025-07-26T05:49	10	17	0.2	17	17	391	0.3	390	392	14.7	94.4
2025-07-26T05:50	10	17	0.2	17	18	392	0.2	391	392	14.8	94.9
2025-07-26T05:51	10	18	0.2	18	18	392	0.2	391	392	14.8	94.9
2025-07-26T05:52	10	19	0.2	18	19	392	0.3	392	393	14.8	94.9
2025-07-26T05:53	10	19	0.2	19	20	393	0.2	392	393	14.9	94.8
2025-07-26T05:54	10	20	0.2	20	20	393	0.2	393	394	14.9	94.5
2025-07-26T05:55	10	21	0.2	20	21	393	0.3	393	394	15.0	94.1
2025-07-26T05:56	10	22	0.4	21	22	394	0.3	393	394	15.0	93.9
2025-07-26T05:57	10	22	0.2	22	22	393	0.2	393	394	15.0	93.5
2025-07-26T05:58	10	23	0.1	22	23	394	0.3	393	394	15.0	93.6
2025-07-26T05:59	10	23	0.1	23	23	394	0.3	393	394	15.0	93.9
2025-07-26T06:00	10	23	0.2	23	24	394	0.3	394	395	15.0	93.5
2025-07-26T06:01	10	25	0.6	24	26	394	0.2	394	395	15.0	93.2
2025-07-26T06:02	10	25	0.4	25	26	394	0.3	394	395	15.1	93.7
2025-07-26T06:03	10	26	0.2	26	27	394	0.2	394	395	15.0	93.0
2025-07-26T06:04	10	27	0.1	27	27	395	0.3	394	395	15.1	93.1
2025-07-26T06:05	10	27	0.2	27	27	395	0.3	395	396	15.1	93.3
2025-07-26T06:06	10	27	0.1	26	27	395	0.3	395	396	15.2	93.1
2025-07-26T06:07	10	28	0.5	27	29	396	0.2	396	397	15.3	94.3
2025-07-26T06:08	10	29	0.5	29	30	397	0.3	396	397	15.3	93.0
2025-07-26T06:09	10	31	0.3	30	31	397	0.2	397	398	15.3	92.4
2025-07-26T06:10	10	32	0.5	31	33	397	0.3	397	398	15.3	91.2
2025-07-26T06:11	10	32	0.3	32	32	398	0.2	397	398	15.4	91.1
2025-07-26T06:12	10	31	0.3	31	32	398	0.2	397	398	15.5	90.8
2025-07-26T06:13	10	30	0.5	29	31	398	0.2	397	398	15.5	90.6
2025-07-26T06:14	10	28	0.6	27	29	398	0.4	397	398	15.5	90.9
2025-07-26T06:15	10	26	0.5	25	27	397	0.4	396	398	15.6	90.6
2025-07-26T06:16	10	25	0.1	25	25	397	0.3	396	397	15.6	90.7
2025-07-26T06:17	10	26	0.3	25	26	396	0.3	396	397	15.6	90.6
2025-07-26T06:18	10	26	0.3	26	27	396	0.3	396	397	15.7	90.9
2025-07-26T06:19	10	25	0.2	25	26	396	0.2	395	396	15.6	90.2
2025-07-26T06:20	10	25	0.1	25	25	396	0.2	395	396	15.7	90.9
2025-07-26T06:21	10	25	0.3	24	25	396	0.2	395	396	15.7	90.8
2025-07-26T06:22	10	24	0.1	24	24	396	0.3	395	396	15.7	90.9
2025-07-26T06:23	10	24	0.2	24	25	396	0.2	395	396	15.6	90.3
2025-07-26T06:24	10	25	0.4	25	26	396	0.2	396	397	15.7	90.8
2025-07-26T06:25	10	27	0.4	26	27	397	0.3	396	398	15.7	90.5
2025-07-26T06:26	10	28	0.2	27	28	398	0.3	397	398	15.7	90.1
2025-07-26T06:27	10	28	0.2	27	28	398	0.2	398	399	15.7	89.5
2025-07-26T06:28	10	27	0.2	27	28	399	0.2	398	399	15.7	90.3
2025-07-26T06:29	10	27	0.3	26	27	399	0.2	399	400	15.8	90.1
2025-07-26T06:30	10	26	0.3	25	26	399	0.3	399	400	15.8	89.9
2025-07-26T06:31	10	25	0.2	24	25	399	0.3	398	399	15.8	89.7
2025-07-26T06:32	10	24	0.1	24	24	399	0.2	398	399	15.9	90.5
2025-07-26T06:33	10	24	0.1	24	24	399	0.2	399	400	15.9	90.3
2025-07-26T06:34	10	24	0.2	24	25	399	0.2	399	400	15.9	90.2
2025-07-26T06:35	10	25	0.2	24	25	400	0.3	399	400	15.9	90.3
2025-07-26T06:36	10	25	0.2	25	26	399	0.3	399	400	15.9	89.5
2025-07-26T06:37	10	26	0.2	26	26	399	0.3	399	400	15.9	88.8
2025-07-26T06:38	10	26	0.1	26	27	399	0.2	399	400	15.9	88.8
2025-07-26T06:39	10	27	0.1	26	27	400	0.2	399	400	15.9	88.7
2025-07-26T06:40	10	27	0.2	27	27	400	0.3	399	401	16.0	88.7
2025-07-26T06:41	10	27	0.3	26	27	400	0.2	400	401	16.0	89.8
2025-07-26T06:42	10	26	0.1	26	26	400	0.2	400	401	16.0	88.0
2025-07-26T06:43	10	26	0.1	26	26	400	0.3	400	401	16.0	87.8
2025-07-26T06:44	10	26	0.1	26	26	400	0.2	400	401	16.1	87.9
2025-07-26T06:45	10	26	0.1	26	26	400	0.3	400	401	16.1	88.8
2025-07-26T06:46	10	26	0.1	26	26	401	0.3	400	401	16.1	88.9
2025-07-26T06:47	10	26	0.1	26	26	401	0.2	401	402	16.2	89.0
2025-07-26T06:48	10	26	0.1	26	26	401	0.3	401	402	16.2	88.6
2025-07-26T06:49	10	26	0.2	26	27	401	0.3	400	402	16.3	87.7
2025-07-26T06:50	10	27	0.2	27	27	400	0.3	400	401	16.3	87.9
2025-07-26T06:51	10	27	0.2	27	28	401	0.2	401	402	16.3	90.3
2025-07-26T06:52	10	28	0.3	28	29	401	0.4	400	402	16.2	89.9
2025-07-26T06:53	10	29	0.3	29	30	401	0.2	400	401	16.2	89.9
2025-07-26T06:54	10	30	0.2	30	30	401	0.2	400	401	16.1	88.9
2025-07-26T06:55	10	31	0.2	30	31	402	0.3	401	402	16.2	88.8
2025-07-26T06:56	10	31	0.2	31	32	402	0.2	401	402	16.2	87.4
2025-07-26T06:57	10	32	0.2	32	32	402	0.2	402	403	16.3	87.6
2025-07-26T06:58	10	33	0.2	32	33	403	0.3	402	403	16.3	87.8
2025-07-26T06:59	10	33	0.3	33	34	403	0.2	402	403	16.3	88.0
2025-07-26T07:00	10	34	0.2	34	35	403	0.2	402	403	16.2	88.2
2025-07-26T07:01	10	35	0.2	34	35	403	0.2	402	403	16.2	88.4
2025-07-26T07:02	10	36	0.7	35	38	403	0.2	402	404	16.2	88.6
2025-07-26T07:03	10	36	0.2	36	37	404	0.2	403	404	16.2	88.7
2025-07-26T07:04	10	37	0.5	37	38	404	0.3	403	404	16.2	89.0
2025-07-26T07:05	10	39	0.6	38	40	404	0.3	403	405	16.2	88.8
2025-07-26T07:06	10	42	0.7	40	43	405	0.2	404	405	16.3	88.9
2025-07-26T07:07	10	44	0.8	43	45	405	0.3	405	406	16.3	87.7
2025-07-26T07:08	10	46	0.3	45	46	406	0.3	406	407	16.4	87.1
2025-07-26T07:09	10	47	0.2	46	47	407	0.2	406	407	16.4	87.3
2025-07-26T07:10	10	47	0.2	47	48	407	0.3	406	408	16.4	86.3
2025-07-26T07:11	10	48	0.4	47	49	408	0.2	407	408	16.5	86.1
2025-07-26T07:12	10	50	0.8	49	51	408	0.2	408	409	16.5	86.3
2025-07-26T07:13	10	54	1.5	51	56	408	0.3	408	409	16.5	86.5
2025-07-26T07:14	10	60	2.3	56	64	410	0.4	409	410	16.5	87.2
2025-07-26T07:15	10	73	5.3	64	84	411	0.5	410	412	16.5	87.3
2025-07-26T07:16	10	84	9.6	69	104	412	1.1	410	414	16.6	85.8
2025-07-26T07:17	10	105	19.1	76	134	416	2.2	412	419	16.7	85.1
2025-07-26T07:18	10	123	17.2	94	145	420	1.2	417	421	16.9	84.4
2025-07-26T07:19	10	122	18.9	88	144	422	1.4	420	425	17.1	85.4
2025-07-26T07:20	10	98	17.0	81	138	420	0.7	420	422	17.3	84.8
2025-07-26T07:21	10	125	7.8	109	139	423	1.0	422	425	17.3	84.7
2025-07-26T07:22	10	118	28.4	64	140	425	1.9	420	428	17.4	84.3
2025-07-26T07:23	10	55	5.7	51	71	418	2.2	415	423	17.4	83.0
2025-07-26T07:24	10	60	8.1	51	75	416	0.5	415	417	17.5	83.6
2025-07-26T07:25	10	104	12.8	72	122	419	2.0	415	421	17.5	81.7
2025-07-26T07:26	10	58	16.2	49	116	418	2.1	415	423	17.5	80.0
2025-07-26T07:27	10	49	1.1	48	52	415	0.5	414	417	17.6	81.1
2025-07-26T07:28	10	55	7.4	49	74	415	0.4	415	416	17.6	83.5
2025-07-26T07:29	10	62	10.1	49	79	416	0.7	415	417	17.7	82.6
2025-07-26T07:30	10	65	9.7	52	80	418	0.4	417	419	17.8	82.8
2025-07-26T07:31	10	57	4.3	52	66	417	0.4	416	417	17.7	80.3
2025-07-26T07:32	10	61	6.1	55	74	416	0.4	415	417	17.6	79.1
2025-07-26T07:33	10	73	11.5	62	98	417	0.8	416	418	17.6	79.2
2025-07-26T07:34	10	105	33.5	66	151	420	3.1	417	425	17.6	78.8
2025-07-26T07:35	10	66	1.5	65	71	421	1.1	419	423	17.8	79.8
2025-07-26T07:36	10	85	17.6	66	117	421	1.6	419	424	17.9	79.2
2025-07-26T07:37	10	69	8.5	64	94	422	1.2	420	424	18.2	80.6
2025-07-26T07:38	10	64	2.9	57	71	420	0.4	419	421	18.3	79.5
2025-07-26T07:39	10	55	1.2	53	57	419	0.5	418	421	18.3	79.3
2025-07-26T07:40	10	51	0.8	50	53	418	0.6	417	420	18.4	77.2
2025-07-26T07:41	10	51	0.1	50	51	416	0.7	415	418	18.5	75.6
2025-07-26T07:42	10	51	0.5	51	52	416	0.3	415	416	18.6	74.7
2025-07-26T07:43	10	60	4.5	53	69	416	0.6	415	417	18.7	74.1
2025-07-26T07:44	10	80	13.7	64	113	420	1.0	417	421	18.5	74.4
2025-07-26T07:45	10	72	9.9	60	93	421	0.6	420	422	18.5	75.3
2025-07-26T07:46	10	62	1.8	60	64	421	0.5	419	422	18.6	74.3
2025-07-26T07:47	10	69	2.5	64	74	421	0.4	420	422	18.6	71.6
2025-07-26T07:48	10	61	2.4	59	70	420	0.9	419	422	18.5	71.1
2025-07-26T07:49	10	59	0.4	58	59	419	0.2	419	420	18.4	71.4
2025-07-26T07:50	10	57	0.7	56	58	419	0.5	418	420	18.5	72.4
2025-07-26T07:51	10	54	0.8	53	56	418	0.5	417	419	18.4	69.3
2025-07-26T07:52	10	52	0.8	50	53	417	0.4	416	418	18.4	67.4
2025-07-26T07:53	10	49	0.8	47	50	416	0.5	415	417	18.4	69.6
2025-07-26T07:54	10	46	0.8	45	48	415	0.3	415	416	18.4	70.1
2025-07-26T07:55	10	43	0.7	42	45	415	0.2	415	416	18.3	70.8
2025-07-26T07:56	10	41	0.5	40	42	415	0.5	414	416	18.4	71.6
2025-07-26T07:57	10	40	0.4	39	41	414	0.3	413	415	18.3	70.8
2025-07-26T07:58	10	39	0.2	39	39	414	0.2	413	414	18.3	70.1
2025-07-26T07:59	10	39	0.1	39	39	414	0.3	413	415	18.3	70.9
2025-07-26T08:00	10	39	0.1	39	39	415	0.2	414	415	18.4	71.1
2025-07-26T08:01	10	39	0.1	39	39	414	0.2	414	415	18.4	70.8
2025-07-26T08:02	10	40	0.3	39	40	415	0.3	414	415	18.4	70.6
2025-07-26T08:03	10	40	0.2	40	41	415	0.4	415	416	18.5	71.2
2025-07-26T08:04	10	41	0.2	41	41	415	0.2	415	416	18.5	71.0
2025-07-26T08:05	10	42	0.1	41	42	415	0.2	414	415	18.4	70.9
2025-07-26T08:06	10	42	0.1	42	42	415	0.2	414	415	18.4	71.0
2025-07-26T08:07	10	42	0.1	41	42	415	0.3	415	416	18.5	70.6
2025-07-26T08:08	10	42	0.1	41	42	416	0.3	415	416	18.5	70.9
2025-07-26T08:09	10	42	0.2	42	42	416	0.3	415	417	18.6	71.1
2025-07-26T08:10	10	42	0.2	42	43	416	0.4	415	416	18.6	69.9
2025-07-26T08:11	10	43	0.3	43	44	415	0.3	415	416	18.6	68.2
2025-07-26T08:12	10	44	0.6	44	45	416	0.4	415	417	18.6	69.4
2025-07-26T08:13	10	47	0.9	45	48	417	0.3	416	418	18.7	70.9
2025-07-26T08:14	10	50	1.1	48	52	417	0.3	416	418	18.6	69.3
2025-07-26T08:15	10	55	1.6	52	58	416	0.5	416	418	18.6	69.3
2025-07-26T08:16	10	61	1.6	58	63	418	0.4	418	419	18.6	69.7
2025-07-26T08:17	10	64	0.8	63	66	419	0.4	418	420	18.5	69.0
2025-07-26T08:18	10	68	1.4	66	71	420	0.7	419	422	18.5	69.4
2025-07-26T08:19	10	74	1.7	71	77	422	0.4	421	423	18.7	69.6
2025-07-26T08:20	10	73	0.7	72	74	422	0.2	422	423	18.7	69.3
2025-07-26T08:21	10	72	0.1	71	72	423	0.3	422	424	18.7	69.2
2025-07-26T08:22	10	72	0.4	71	72	424	0.3	423	425	18.8	69.5
2025-07-26T08:23	10	73	0.7	72	75	424	0.3	423	424	18.9	68.1
2025-07-26T08:24	10	77	1.6	75	80	424	0.4	423	424	18.8	66.9
2025-07-26T08:25	10	84	3.0	80	92	426	0.9	424	427	18.8	67.5
2025-07-26T08:26	10	77	2.1	75	84	426	0.9	425	428	18.9	67.6
2025-07-26T08:27	10	74	0.2	74	75	425	0.5	424	426	18.8	67.2
2025-07-26T08:28	10	74	0.2	74	75	424	0.3	423	425	18.6	69.0
2025-07-26T08:29	10	74	0.2	74	75	425	0.6	424	426	18.7	68.6
2025-07-26T08:30	10	80	8.1	75	106	426	0.6	425	427	18.8	69.7
2025-07-26T08:31	10	77	0.7	76	78	425	0.3	425	426	19.0	67.0
2025-07-26T08:32	10	85	10.4	78	109	426	1.0	425	429	19.2	65.7
2025-07-26T08:33	10	77	5.7	73	98	428	0.6	426	429	19.1	66.7
2025-07-26T08:34	10	71	1.5	69	73	426	0.3	426	427	19.0	68.0
2025-07-26T08:35	10	76	6.2	70	94	427	0.5	426	428	19.1	68.4
2025-07-26T08:36	10	80	6.0	73	96	428	0.6	427	429	19.3	68.6
2025-07-26T08:37	10	107	20.4	81	154	430	1.3	428	432	19.3	68.7
2025-07-26T08:38	10	91	7.0	84	110	430	0.8	428	431	19.2	69.0
2025-07-26T08:39	10	79	1.8	77	86	426	1.3	425	429	19.2	69.5
2025-07-26T08:40	10	79	0.6	78	80	426	0.6	425	427	19.0	68.8
2025-07-26T08:41	10	81	1.1	80	83	427	0.4	426	427	19.1	69.2
2025-07-26T08:42	10	84	0.4	83	84	428	0.4	427	429	19.0	68.2
2025-07-26T08:43	10	84	0.3	83	85	429	0.3	428	429	19.1	68.9
2025-07-26T08:44	10	85	1.5	83	88	428	0.3	427	429	19.2	69.9
2025-07-26T08:45	10	118	24.9	88	167	432	3.3	428	438	19.2	68.1
2025-07-26T08:46	10	96	3.1	93	108	434	0.9	433	436	19.3	68.0
2025-07-26T08:47	10	87	2.7	84	92	433	0.4	432	434	19.4	67.6
2025-07-26T08:48	10	84	1.1	82	86	432	0.4	431	433	19.6	68.9
2025-07-26T08:49	10	82	0.8	81	84	431	0.5	430	432	19.6	70.2
2025-07-26T08:50	10	80	1.3	78	82	429	1.0	427	431	19.3	68.5
2025-07-26T08:51	10	76	1.0	74	78	428	0.3	427	428	19.1	69.2
2025-07-26T08:52	10	74	0.2	74	75	427	0.5	426	428	19.1	68.7
2025-07-26T08:53	10	81	9.0	74	101	427	0.9	426	429	19.1	68.8
2025-07-26T08:54	10	92	20.7	76	147	430	1.0	428	432	19.4	68.4
2025-07-26T08:55	10	86	19.7	72	131	430	1.3	428	433	19.5	68.2
2025-07-26T08:56	10	97	12.6	75	113	432	0.7	431	434	19.6	67.4
2025-07-26T08:57	10	136	17.8	101	159	436	2.9	432	441	19.7	68.1
2025-07-26T08:58	10	120	38.1	53	163	437	2.6	433	441	19.8	67.4
2025-07-26T08:59	10	162	1.1	161	165	443	1.7	439	446	19.9	67.4
2025-07-26T09:00	10	161	0.2	160	161	446	0.5	445	447	20.0	66.7
2025-07-26T09:01	10	160	0.3	160	161	448	0.5	446	448	20.1	68.2
2025-07-26T09:02	10	160	0.1	159	160	447	0.3	447	448	19.9	66.1
2025-07-26T09:03	10	160	0.4	160	161	448	0.5	447	449	19.9	67.4
2025-07-26T09:04	10	164	1.3	161	166	449	0.3	449	450	20.1	67.5
2025-07-26T09:05	10	166	2.6	162	171	450	0.5	449	451	20.0	65.7
2025-07-26T09:06	10	168	8.3	151	179	450	0.5	450	451	20.2	66.3
2025-07-26T09:07	10	162	14.8	140	184	451	1.8	448	453	20.3	67.3
2025-07-26T09:08	10	146	13.5	122	166	447	0.8	446	450	20.1	66.7
2025-07-26T09:09	10	154	23.7	125	194	446	1.5	443	449	19.8	66.3
2025-07-26T09:10	10	132	23.4	109	183	446	1.4	443	448	19.8	68.0
2025-07-26T09:11	10	115	5.9	107	128	442	2.3	440	446	19.8	66.8
2025-07-26T09:12	10	134	22.8	112	197	442	1.1	441	446	19.7	66.6
2025-07-26T09:13	10	156	16.7	111	193	447	1.5	445	450	19.7	66.4
2025-07-26T09:14	10	108	9.3	93	127	444	1.5	442	447	19.9	66.0
2025-07-26T09:15	10	134	41.5	94	202	443	3.3	440	451	19.9	66.1
2025-07-26T09:16	10	113	27.3	96	189	444	3.9	439	451	20.0	64.9
2025-07-26T09:17	10	129	32.7	98	209	442	3.1	439	451	19.8	64.7
2025-07-26T09:18	10	176	26.9	139	225	452	3.3	448	459	20.0	65.9
2025-07-26T09:19	10	181	25.5	136	224	456	2.7	452	459	20.3	66.3
2025-07-26T09:20	10	163	19.2	135	208	453	1.8	451	457	20.1	65.7
2025-07-26T09:21	10	150	16.4	130	181	452	1.5	451	456	20.4	65.8
2025-07-26T09:22	10	181	16.9	160	221	457	2.3	454	462	20.5	65.5
2025-07-26T09:23	10	160	43.7	118	230	458	4.5	452	464	20.7	65.6
2025-07-26T09:24	10	164	42.1	118	222	453	3.2	449	460	20.5	63.7
2025-07-26T09:25	10	161	30.4	124	222	455	2.7	451	460	20.3	62.8
2025-07-26T09:26	10	141	14.9	125	178	453	1.7	451	456	20.6	62.3
2025-07-26T09:27	10	145	27.8	117	202	449	2.4	445	453	20.3	61.4
2025-07-26T09:28	10	111	6.2	100	119	445	0.9	444	447	20.3	62.4
2025-07-26T09:29	10	90	9.5	80	116	443	1.6	441	446	20.5	63.8
2025-07-26T09:30	10	80	0.2	79	80	439	1.9	436	442	20.3	62.3
2025-07-26T09:31	10	81	0.9	80	83	437	0.4	436	438	20.1	62.2
2025-07-26T09:32	10	85	1.4	83	88	438	0.5	437	439	20.3	62.7
2025-07-26T09:33	10	89	1.4	88	93	437	0.4	437	439	20.4	64.6
2025-07-26T09:34	10	86	1.6	83	88	439	0.5	438	440	20.4	63.9
2025-07-26T09:35	10	81	1.0	79	83	438	0.3	437	439	20.2	65.3
2025-07-26T09:36	10	80	0.3	79	80	438	0.4	437	439	20.1	66.0
2025-07-26T09:37	10	81	0.4	80	82	437	0.6	436	438	20.1	66.8
2025-07-26T09:38	10	83	0.7	82	84	436	0.4	435	437	20.1	67.1
2025-07-26T09:39	10	86	1.4	84	89	436	0.9	435	438	20.1	66.3
2025-07-26T09:40	10	87	1.1	86	90	438	0.5	437	439	20.2	66.4
2025-07-26T09:41	10	86	0.2	86	86	437	0.6	436	438	20.3	66.3
2025-07-26T09:42	10	86	0.2	86	87	436	1.4	434	439	20.1	63.9
2025-07-26T09:43	10	86	0.1	86	86	434	0.2	434	435	20.0	63.8
2025-07-26T09:44	10	86	0.4	85	86	434	0.6	433	435	20.0	64.6
2025-07-26T09:45	10	84	0.6	83	85	435	0.3	434	435	19.9	64.3
2025-07-26T09:46	10	82	0.3	81	83	435	1.1	433	437	20.0	65.6
2025-07-26T09:47	10	81	0.1	81	82	436	0.4	436	437	20.1	65.7
2025-07-26T09:48	10	83	0.6	82	84	436	0.4	436	437	20.0	66.1
2025-07-26T09:49	10	83	0.7	81	84	436	0.5	435	437	20.1	67.1
2025-07-26T09:50	10	80	0.7	79	81	436	0.3	436	437	19.9	64.8
2025-07-26T09:51	10	78	0.4	77	79	435	0.8	434	437	20.1	67.1
2025-07-26T09:52	10	77	0.1	77	78	435	0.3	435	436	20.1	67.1
2025-07-26T09:53	10	78	0.4	77	79	436	0.8	434	437	20.1	67.1
2025-07-26T09:54	10	80	0.8	79	81	434	0.4	434	435	20.1	67.1
2025-07-26T09:55	10	83	0.9	81	84	435	0.2	434	435	20.1	67.1
2025-07-26T09:56	10	85	0.5	84	86	436	0.5	435	436	20.1	67.1
2025-07-26T09:57	10	84	0.2	83	84	437	0.4	436	438	20.2	62.8
2025-07-26T09:58	10	84	0.1	83	84	437	0.4	437	438	20.4	62.7
2025-07-26T09:59	10	84	0.2	84	84	437	0.5	436	439	20.4	63.5
2025-07-26T10:00	10	85	0.2	84	85	437	0.4	436	437	20.4	64.2
2025-07-26T10:01	10	85	0.2	85	86	436	0.6	435	437	20.3	62.0
2025-07-26T10:02	10	86	0.1	85	86	437	0.4	436	437	20.3	63.0
2025-07-26T10:03	10	86	0.3	86	87	436	0.5	435	437	20.4	63.9
2025-07-26T10:04	10	88	0.4	87	88	437	0.8	435	438	20.3	62.3
2025-07-26T10:05	10	89	0.4	88	90	438	0.5	437	439	20.3	63.7
2025-07-26T10:06	10	90	0.4	90	91	439	0.3	439	440	20.3	62.2
2025-07-26T10:07	10	91	0.1	91	92	439	0.3	438	440	20.3	63.9
2025-07-26T10:08	10	91	0.2	91	91	438	0.7	437	439	20.1	63.2
2025-07-26T10:09	10	90	0.2	90	91	438	0.8	437	439	20.1	63.9
2025-07-26T10:10	10	90	0.1	90	90	438	0.6	437	439	20.2	64.2
2025-07-26T10:11	10	91	0.2	90	91	438	0.3	438	439	20.3	64.2
2025-07-26T10:12	10	91	0.2	91	92	438	0.3	437	439	20.3	64.3
2025-07-26T10:13	10	92	0.1	92	92	439	0.4	438	440	20.4	63.5
2025-07-26T10:14	10	92	0.1	91	92	440	0.4	439	441	20.4	63.2
2025-07-26T10:15	10	91	0.2	91	91	440	0.2	440	441	20.4	63.4
2025-07-26T10:16	10	91	0.1	91	91	440	0.3	439	441	20.6	62.0
2025-07-26T10:17	10	91	0.1	91	91	441	0.2	440	441	20.5	63.4
2025-07-26T10:18	10	91	0.1	91	91	440	0.3	440	441	20.5	63.2
2025-07-26T10:19	10	91	0.1	90	91	441	0.5	439	442	20.5	64.2
2025-07-26T10:20	10	90	0.1	90	91	439	0.8	437	440	20.6	64.2
2025-07-26T10:21	10	91	0.3	90	92	437	1.1	435	438	20.5	63.0
2025-07-26T10:22	10	92	0.5	92	93	435	0.3	435	436	20.3	63.1
2025-07-26T10:23	10	94	0.7	93	96	435	0.3	434	435	20.2	62.9
2025-07-26T10:24	10	96	0.6	96	97	436	0.4	435	436	20.2	63.5
2025-07-26T10:25	10	98	0.6	97	99	437	0.8	436	438	20.3	63.1
2025-07-26T10:26	10	101	0.8	100	102	438	0.4	437	439	20.3	62.8
2025-07-26T10:27	10	104	1.1	102	106	437	0.6	436	439	20.4	62.6
2025-07-26T10:28	10	108	1.2	106	110	439	1.1	437	441	20.5	62.3
2025-07-26T10:29	10	111	0.3	110	112	439	0.8	437	440	20.5	61.2
2025-07-26T10:30	10	112	0.6	111	113	439	0.8	438	440	20.4	61.6
2025-07-26T10:31	10	115	1.5	113	118	442	1.3	439	444	20.4	61.6
2025-07-26T10:32	10	120	1.6	118	123	445	0.8	444	446	20.5	61.3
2025-07-26T10:33	10	128	3.2	123	132	448	1.1	446	450	20.5	61.8
2025-07-26T10:34	10	131	0.8	130	132	448	0.7	447	449	20.5	61.9
2025-07-26T10:35	10	129	1.3	126	132	450	0.4	449	450	20.7	61.7
2025-07-26T10:36	10	121	1.9	119	126	450	0.2	450	451	20.7	61.6
2025-07-26T10:37	10	121	0.9	120	124	450	1.4	447	452	20.9	62.0
2025-07-26T10:38	10	133	9.8	122	158	449	1.3	447	452	20.6	61.0
2025-07-26T10:39	10	144	15.5	132	182	453	1.6	451	456	20.6	62.0
2025-07-26T10:40	10	139	15.2	124	166	453	1.2	451	455	20.5	62.1
2025-07-26T10:41	10	121	0.8	120	124	450	1.4	448	452	20.5	61.9
2025-07-26T10:42	10	117	3.1	112	121	447	1.2	445	449	20.4	62.7
2025-07-26T10:43	10	110	1.3	108	112	447	0.7	445	448	20.8	64.2
2025-07-26T10:44	10	106	0.9	105	108	444	0.6	443	446	20.6	62.3
2025-07-26T10:45	10	106	0.4	105	107	443	0.6	442	444	20.4	62.1
2025-07-26T10:46	10	107	0.2	107	107	445	0.8	443	447	20.5	62.9
2025-07-26T10:47	10	106	0.6	105	107	444	1.3	442	446	20.7	62.5
2025-07-26T10:48	10	105	0.2	104	105	442	0.9	441	444	20.6	62.1
2025-07-26T10:49	10	105	0.2	105	105	445	0.6	444	446	20.7	63.5
2025-07-26T10:50	10	105	0.2	105	106	444	0.4	443	445	20.8	63.2
2025-07-26T10:51	10	106	0.3	105	106	444	0.6	443	445	20.9	63.0
2025-07-26T10:52	10	107	0.1	106	107	443	0.4	442	444	20.7	62.7
2025-07-26T10:53	10	107	0.2	107	108	443	0.4	442	444	20.8	63.5
2025-07-26T10:54	10	108	0.3	107	108	443	0.3	443	444	20.7	61.6
2025-07-26T10:55	10	109	0.2	108	109	444	0.7	443	445	20.6	62.2
2025-07-26T10:56	10	109	0.4	108	109	445	0.7	444	447	20.6	61.4
2025-07-26T10:57	10	108	0.2	108	108	447	0.9	445	448	20.9	62.2
2025-07-26T10:58	10	107	0.3	107	108	445	0.7	444	447	21.0	61.7
2025-07-26T10:59	10	106	0.5	105	107	446	0.5	445	447	21.2	62.0
2025-07-26T11:00	10	105	0.4	104	105	445	1.2	443	447	21.0	60.0
2025-07-26T11:01	10	103	0.5	102	105	443	0.3	442	444	20.8	60.0
2025-07-26T11:02	10	103	0.3	103	104	444	0.5	443	445	20.9	60.7
2025-07-26T11:03	10	105	0.6	104	106	445	0.6	443	446	21.0	61.7
2025-07-26T11:04	10	109	1.6	106	112	443	0.5	442	444	20.8	61.6
2025-07-26T11:05	10	113	0.7	111	114	444	0.4	443	445	20.9	62.2
2025-07-26T11:06	10	114	0.3	113	114	444	0.5	443	445	20.8	61.4
2025-07-26T11:07	10	114	0.2	114	115	445	0.4	444	446	20.8	60.7
2025-07-26T11:08	10	112	1.4	110	114	445	0.4	444	446	20.9	61.0
2025-07-26T11:09	10	110	0.4	110	111	445	0.7	444	447	20.7	60.3
2025-07-26T11:10	10	115	3.7	111	123	448	1.1	446	450	20.8	61.3
2025-07-26T11:11	10	114	0.4	113	115	448	0.4	447	448	20.9	60.9
2025-07-26T11:12	10	115	0.7	114	117	446	1.0	445	449	21.0	60.0
2025-07-26T11:13	10	118	0.7	117	120	445	0.5	444	446	20.8	58.9
2025-07-26T11:14	10	119	1.5	118	123	445	0.6	444	446	20.9	60.3
2025-07-26T11:15	10	121	0.9	120	123	448	1.4	446	450	20.9	60.9
2025-07-26T11:16	10	121	0.7	120	122	449	0.7	448	450	21.1	61.2
2025-07-26T11:17	10	125	1.8	122	128	449	0.5	448	449	20.9	61.3
2025-07-26T11:18	10	130	1.8	127	132	449	0.6	448	450	21.0	61.2
2025-07-26T11:19	10	137	2.6	132	140	453	1.6	450	456	20.9	61.7
2025-07-26T11:20	10	141	2.5	139	146	456	1.0	454	458	21.1	61.5
2025-07-26T11:21	10	152	5.2	147	164	460	1.5	457	463	21.2	61.4
2025-07-26T11:22	10	166	6.2	156	181	463	1.0	462	465	21.4	59.6
2025-07-26T11:23	10	148	3.1	145	157	463	1.2	461	465	21.6	60.9
2025-07-26T11:24	10	152	7.2	143	170	458	1.1	456	461	21.2	60.1
2025-07-26T11:25	10	147	3.5	143	154	457	0.3	457	458	21.1	60.5
2025-07-26T11:26	10	152	10.2	141	183	461	1.7	458	464	21.3	61.0
2025-07-26T11:27	10	133	4.9	127	141	459	2.0	456	462	21.0	59.7
2025-07-26T11:28	10	127	1.5	125	129	457	0.3	456	458	21.0	61.0
2025-07-26T11:29	10	120	2.7	117	127	456	0.6	455	458	21.2	59.3
2025-07-26T11:30	10	112	1.9	109	116	455	0.8	453	456	21.4	59.3
2025-07-26T11:31	10	108	0.6	107	110	452	0.9	451	454	21.3	59.4
2025-07-26T11:32	10	108	0.2	107	108	448	2.3	446	452	21.2	59.1
2025-07-26T11:33	10	109	0.8	108	111	447	0.2	447	448	21.1	59.5
2025-07-26T11:34	10	110	0.7	109	112	447	0.3	446	448	21.0	59.2
2025-07-26T11:35	10	109	0.2	109	110	446	0.6	445	447	21.0	59.7
2025-07-26T11:36	10	108	1.3	106	110	446	0.3	445	447	21.1	60.1
2025-07-26T11:37	10	105	0.5	104	106	446	0.4	446	447	21.3	59.3
2025-07-26T11:38	10	104	0.2	103	104	447	1.0	445	448	21.1	58.9
2025-07-26T11:39	10	102	0.6	101	103	445	0.5	444	446	21.1	59.9
2025-07-26T11:40	10	100	0.7	98	101	446	1.0	444	448	21.0	59.8
2025-07-26T11:41	10	97	0.6	96	98	447	0.3	447	448	21.0	60.2
2025-07-26T11:42	10	95	0.7	94	96	448	0.3	447	448	21.1	60.5
2025-07-26T11:43	10	92	0.9	91	94	448	0.2	448	449	21.2	60.9
2025-07-26T11:44	10	89	0.9	88	91	446	0.7	445	447	21.4	60.7
2025-07-26T11:45	10	86	1.0	84	88	445	0.4	444	445	21.4	60.9
2025-07-26T11:46	10	83	0.8	82	84	441	1.4	439	444	21.3	59.3
2025-07-26T11:47	10	81	0.5	80	82	440	0.6	439	441	21.0	59.2
2025-07-26T11:48	10	79	0.3	79	80	441	0.2	441	442	21.1	60.3
2025-07-26T11:49	10	79	0.1	78	79	441	0.3	441	442	21.1	60.0
2025-07-26T11:50	10	78	0.3	77	78	441	0.4	440	442	21.1	60.1
2025-07-26T11:51	10	77	0.5	76	77	441	0.4	441	442	21.1	59.6
2025-07-26T11:52	10	75	0.5	74	76	442	0.3	441	443	21.1	60.3
2025-07-26T11:53	10	74	0.4	73	74	441	0.8	439	442	21.2	59.8
2025-07-26T11:54	10	73	0.4	72	73	438	0.8	436	439	21.2	60.1
2025-07-26T11:55	10	72	0.3	71	72	436	0.4	435	437	21.0	59.9
2025-07-26T11:56	10	71	0.1	71	71	437	0.3	436	438	21.1	59.8
2025-07-26T11:57	10	71	0.1	71	71	436	0.6	435	438	21.2	60.8
2025-07-26T11:58	10	71	0.1	71	71	435	0.3	435	436	21.0	61.2
2025-07-26T11:59	10	72	0.4	71	73	435	0.7	434	436	20.9	61.8
2025-07-26T12:00	10	74	0.6	73	75	437	0.5	436	437	21.0	62.4
2025-07-26T12:01	10	76	0.5	75	76	436	0.4	435	437	20.9	61.6
2025-07-26T12:02	10	77	0.3	76	78	439	1.1	437	440	21.1	63.3
2025-07-26T12:03	10	78	0.3	77	78	440	0.4	439	441	21.3	62.7
2025-07-26T12:04	10	79	0.3	78	79	440	0.3	439	441	21.2	61.3
2025-07-26T12:05	10	80	0.3	79	80	441	0.5	439	441	21.3	60.8
2025-07-26T12:06	10	81	0.3	80	81	440	0.5	439	441	21.2	59.8
2025-07-26T12:07	10	82	0.3	81	82	440	0.3	439	440	21.3	60.5
2025-07-26T12:08	10	83	0.2	82	83	440	0.7	438	441	21.2	59.7
2025-07-26T12:09	10	83	0.2	83	84	439	0.3	438	440	21.0	58.6
2025-07-26T12:10	10	84	0.2	83	84	440	0.8	439	441	21.0	58.9
2025-07-26T12:11	10	85	0.4	84	86	442	0.5	441	443	21.1	58.7
2025-07-26T12:12	10	87	0.7	86	88	442	0.4	441	443	21.3	58.1
2025-07-26T12:13	10	90	1.2	88	92	443	0.6	442	444	21.3	57.5
2025-07-26T12:14	10	92	0.2	92	93	443	0.3	442	444	21.2	58.0
2025-07-26T12:15	10	92	0.6	91	93	444	0.4	443	445	21.1	57.6
2025-07-26T12:16	10	89	0.8	88	91	444	1.2	442	445	21.3	58.8
2025-07-26T12:17	10	87	0.3	87	88	443	0.2	442	443	21.2	59.4
2025-07-26T12:18	10	87	0.2	86	87	443	0.7	442	445	21.4	59.9
2025-07-26T12:19	10	86	0.2	85	86	444	0.6	443	445	21.5	60.4
2025-07-26T12:20	10	85	0.1	85	85	442	1.6	439	445	21.6	60.3
2025-07-26T12:21	10	85	0.2	84	85	440	0.5	439	440	21.1	60.2
2025-07-26T12:22	10	84	0.3	84	85	441	0.5	440	441	21.1	60.5
2025-07-26T12:23	10	84	0.3	84	85	441	0.7	440	442	21.0	60.3
2025-07-26T12:24	10	84	0.1	84	84	442	0.8	440	444	21.1	60.3
2025-07-26T12:25	10	85	0.4	84	86	439	1.0	438	441	21.3	59.6
2025-07-26T12:26	10	87	0.7	86	88	440	0.5	439	441	21.3	59.2
2025-07-26T12:27	10	90	0.9	88	91	441	0.6	439	442	21.2	58.8
2025-07-26T12:28	10	91	0.2	91	92	444	0.9	442	445	21.2	59.4
2025-07-26T12:29	10	92	0.1	91	92	443	0.6	442	445	21.5	59.0
2025-07-26T12:30	10	90	0.9	88	91	444	0.3	443	445	21.6	57.5
2025-07-26T12:31	10	86	1.3	84	88	444	0.3	443	445	21.6	58.3
2025-07-26T12:32	10	81	1.6	78	83	444	0.3	443	444	21.6	57.1
2025-07-26T12:33	10	75	1.5	73	78	440	0.9	439	443	21.4	56.1
2025-07-26T12:34	10	71	0.9	70	73	440	0.2	439	441	21.3	56.9
2025-07-26T12:35	10	69	0.3	69	70	441	0.3	440	441	21.4	57.9
2025-07-26T12:36	10	68	0.1	68	69	439	0.5	438	440	21.3	56.7
2025-07-26T12:37	10	68	0.1	68	69	438	0.6	437	439	21.4	56.8
2025-07-26T12:38	10	69	0.2	69	70	437	0.5	436	438	21.2	56.9
2025-07-26T12:39	10	70	0.5	70	71	436	0.5	436	438	21.1	57.2
2025-07-26T12:40	10	73	0.7	71	74	439	1.2	437	441	21.3	57.4
2025-07-26T12:41	10	75	0.7	74	76	441	0.8	439	442	21.5	57.1
2025-07-26T12:42	10	78	0.7	76	79	439	0.3	439	440	21.4	57.1
2025-07-26T12:43	10	80	0.6	79	81	440	0.3	439	441	21.4	57.4
2025-07-26T12:44	10	81	0.4	80	82	439	0.3	439	440	21.3	57.5
2025-07-26T12:45	10	82	0.2	82	83	441	0.3	440	441	21.3	57.3
2025-07-26T12:46	10	83	0.2	83	83	442	0.6	441	443	21.3	57.4
2025-07-26T12:47	10	85	1.1	83	87	444	0.6	442	445	21.5	58.2
2025-07-26T12:48	10	87	1.8	85	90	443	0.9	442	445	21.7	56.9
2025-07-26T12:49	10	87	0.5	87	89	443	0.3	442	444	21.5	56.7
2025-07-26T12:50	10	87	0.2	87	88	444	0.3	443	445	21.5	57.2
2025-07-26T12:51	10	88	0.4	87	88	445	0.5	444	446	21.6	57.3
2025-07-26T12:52	10	89	0.8	88	91	446	0.6	445	447	21.9	57.6
2025-07-26T12:53	10	93	0.8	91	94	444	0.3	444	445	21.7	56.8
2025-07-26T12:54	10	93	0.3	92	93	444	0.3	443	444	21.4	57.0
2025-07-26T12:55	10	93	0.8	91	94	444	0.6	443	445	21.5	57.3
2025-07-26T12:56	10	90	1.5	88	92	445	0.2	444	445	21.5	57.0
2025-07-26T12:57	10	86	3.3	82	92	446	0.5	445	447	21.6	57.7
2025-07-26T12:58	10	80	0.7	79	82	443	1.2	440	445	21.8	57.4
2025-07-26T12:59	10	79	0.3	79	80	440	0.3	440	441	21.6	57.3
2025-07-26T13:00	10	79	0.1	78	79	441	0.4	441	442	21.5	57.5
2025-07-26T13:01	10	78	0.2	78	78	444	0.6	442	445	21.7	58.5
2025-07-26T13:02	10	77	0.5	76	78	442	0.6	441	444	21.6	57.5
2025-07-26T13:03	10	75	0.9	73	76	439	1.5	437	442	21.4	57.7
2025-07-26T13:04	10	72	0.9	70	73	438	0.6	437	439	21.3	58.2
2025-07-26T13:05	10	69	0.8	68	71	439	0.4	439	440	21.4	58.0
2025-07-26T13:06	10	67	0.3	67	68	440	0.3	439	440	21.5	58.5
2025-07-26T13:07	10	67	0.1	67	67	438	0.9	437	440	21.6	57.7
2025-07-26T13:08	10	67	0.1	66	67	438	0.9	437	440	21.4	58.1
2025-07-26T13:09	10	66	0.3	66	67	438	0.5	437	440	21.6	57.6
2025-07-26T13:10	10	65	0.4	64	66	437	0.4	436	438	21.6	57.0
2025-07-26T13:11	10	65	0.4	64	66	437	0.5	436	438	21.4	57.2
2025-07-26T13:12	10	64	1.1	62	66	437	1.3	434	439	21.5	57.3
2025-07-26T13:13	10	61	0.6	60	62	434	0.4	433	435	21.4	57.9
2025-07-26T13:14	10	60	0.4	59	60	435	0.3	435	436	21.5	57.7
2025-07-26T13:15	10	58	0.4	57	59	434	0.6	433	436	21.3	58.3
2025-07-26T13:16	10	57	0.6	56	58	435	0.5	434	436	21.3	58.5
2025-07-26T13:17	10	54	0.6	54	56	434	0.6	433	435	21.5	58.2
2025-07-26T13:18	10	53	0.4	52	54	433	0.5	432	435	21.7	57.8
2025-07-26T13:19	10	52	0.2	51	52	432	0.5	431	433	21.4	57.2
2025-07-26T13:20	10	51	0.3	51	52	431	0.2	431	432	21.2	57.4
2025-07-26T13:21	10	50	0.4	50	51	432	0.3	431	432	21.3	57.5
2025-07-26T13:22	10	49	0.2	49	50	431	0.5	430	432	21.4	59.8
2025-07-26T13:23	10	49	0.2	49	49	430	0.3	430	431	21.4	62.9
2025-07-26T13:24	10	48	0.3	48	49	431	0.3	430	431	21.2	64.8
2025-07-26T13:25	10	48	0.1	47	48	430	0.4	429	431	21.3	65.0
2025-07-26T13:26	10	48	0.3	48	49	429	0.4	428	430	21.2	65.9
2025-07-26T13:27	10	49	0.3	49	50	428	0.6	427	429	20.9	67.8
2025-07-26T13:28	10	51	0.2	50	51	426	0.9	424	427	20.7	68.7
2025-07-26T13:29	10	52	0.4	51	52	425	0.6	423	426	20.5	70.6
2025-07-26T13:30	10	53	0.4	52	54	426	0.2	425	426	20.5	71.4
2025-07-26T13:31	10	54	0.7	53	56	424	0.4	423	425	20.3	70.8
2025-07-26T13:32	10	59	1.8	56	61	424	0.6	423	426	20.1	70.0
2025-07-26T13:33	10	62	0.9	61	64	427	1.1	424	428	20.1	70.8
2025-07-26T13:34	10	66	1.5	64	69	429	1.3	427	432	20.3	71.1
2025-07-26T13:35	10	72	2.2	69	77	431	1.1	429	433	20.4	69.3
2025-07-26T13:36	10	101	31.6	77	166	435	3.4	431	444	20.5	69.5
2025-07-26T13:37	10	96	19.6	85	161	441	1.9	438	444	20.6	69.6
2025-07-26T13:38	10	89	1.7	86	92	438	0.5	437	439	20.7	69.3
2025-07-26T13:39	10	126	31.9	92	172	440	3.3	437	446	20.4	70.1
2025-07-26T13:40	10	103	5.4	99	125	442	1.4	440	445	20.4	69.7
2025-07-26T13:41	10	174	44.2	100	222	449	7.3	439	461	20.4	69.6
2025-07-26T13:42	10	188	24.6	147	222	461	1.5	458	464	20.8	69.7
2025-07-26T13:43	10	140	46.8	90	219	459	5.2	450	465	21.1	67.3
2025-07-26T13:44	10	116	22.8	90	153	452	1.3	450	454	21.0	68.9
2025-07-26T13:45	10	95	17.0	82	139	450	2.6	445	453	21.2	69.0
2025-07-26T13:46	10	82	0.5	81	83	444	0.8	443	447	21.2	67.4
2025-07-26T13:47	10	85	0.7	83	86	443	1.0	441	445	21.0	66.7
2025-07-26T13:48	10	84	0.5	84	86	443	0.5	442	444	21.0	67.0
2025-07-26T13:49	10	88	1.4	86	91	443	0.4	442	443	20.8	66.2
2025-07-26T13:50	10	86	1.5	85	90	444	0.4	443	445	20.8	66.9
2025-07-26T13:51	10	85	2.2	81	88	443	1.0	441	444	21.0	67.4
2025-07-26T13:52	10	80	1.6	77	83	441	0.7	439	442	20.8	67.3
2025-07-26T13:53	10	75	0.9	74	77	440	0.3	439	440	20.7	66.2
2025-07-26T13:54	10	79	2.5	75	84	441	0.7	439	442	20.7	66.6
2025-07-26T13:55	10	70	2.1	67	74	440	0.4	440	441	21.0	66.2
2025-07-26T13:56	10	64	1.5	61	67	439	0.4	439	440	21.0	65.4
2025-07-26T13:57	10	60	0.8	59	62	439	0.3	438	439	21.1	65.7
2025-07-26T13:58	10	58	0.6	57	59	438	0.7	436	439	21.2	67.2
2025-07-26T13:59	10	56	0.9	54	57	434	1.5	432	437	20.8	68.9
2025-07-26T14:00	10	53	0.9	51	54	431	0.9	430	433	20.5	70.0
2025-07-26T14:01	10	50	0.7	49	51	431	0.3	430	431	20.5	70.0
2025-07-26T14:02	10	48	0.4	47	49	431	0.2	430	431	20.5	69.9
2025-07-26T14:03	10	47	0.3	46	48	431	0.4	430	432	20.7	69.6
2025-07-26T14:04	10	46	0.2	46	47	431	0.5	430	431	20.8	69.1
2025-07-26T14:05	10	45	0.3	45	46	430	0.3	429	430	20.7	69.0
2025-07-26T14:06	10	44	0.3	44	45	429	1.0	427	430	20.7	68.6
2025-07-26T14:07	10	43	0.3	43	44	427	0.2	427	428	20.5	67.5
2025-07-26T14:08	10	42	0.2	42	43	428	0.4	427	428	20.4	68.4
2025-07-26T14:09	10	42	0.2	41	42	427	0.5	426	428	20.5	69.0
2025-07-26T14:10	10	42	0.2	41	43	426	0.2	426	427	20.4	68.4
2025-07-26T14:11	10	42	0.1	42	42	427	0.3	426	427	20.4	69.1
2025-07-26T14:12	10	43	0.3	42	43	426	0.3	426	427	20.4	69.0
2025-07-26T14:13	10	44	0.3	43	44	427	0.2	426	427	20.4	68.7
2025-07-26T14:14	10	44	0.3	44	45	427	0.3	426	427	20.4	68.5
2025-07-26T14:15	10	45	0.3	45	46	428	0.5	426	429	20.4	68.5
2025-07-26T14:16	10	46	0.2	46	46	428	0.4	427	429	20.4	67.3
2025-07-26T14:17	10	46	0.2	46	46	429	0.2	428	429	20.4	68.1
2025-07-26T14:18	10	45	0.4	44	46	429	0.2	428	430	20.5	67.3
2025-07-26T14:19	10	43	0.5	42	44	429	0.3	429	430	20.5	67.8
2025-07-26T14:20	10	41	0.5	41	42	428	0.5	427	429	20.6	67.7
2025-07-26T14:21	10	40	0.4	39	41	428	0.2	427	428	20.5	67.2
2025-07-26T14:22	10	39	0.2	39	40	427	0.5	426	428	20.6	67.8
2025-07-26T14:23	10	39	0.1	39	39	427	0.2	427	428	20.6	68.0
2025-07-26T14:24	10	40	0.3	39	40	427	0.2	426	427	20.5	68.6
2025-07-26T14:25	10	41	0.4	40	41	426	0.4	425	427	20.5	67.9
2025-07-26T14:26	10	42	0.3	41	43	426	0.3	425	426	20.4	67.4
2025-07-26T14:27	10	43	0.4	42	44	426	0.5	425	427	20.4	67.6
2025-07-26T14:28	10	44	0.4	44	45	428	0.5	427	429	20.4	67.3
2025-07-26T14:29	10	46	0.3	45	46	428	0.3	428	429	20.5	67.3
2025-07-26T14:30	10	46	0.2	46	47	429	0.4	429	430	20.6	67.8
2025-07-26T14:31	10	47	0.2	46	47	430	0.3	429	430	20.6	67.3
2025-07-26T14:32	10	47	0.4	47	48	430	0.2	430	431	20.6	67.0
2025-07-26T14:33	10	54	5.0	48	63	431	0.9	430	433	20.6	66.8
2025-07-26T14:34	10	51	2.1	50	59	432	0.5	431	433	20.7	67.1
2025-07-26T14:35	10	52	1.8	50	56	431	0.3	430	432	20.6	66.5
2025-07-26T14:36	10	58	3.2	54	65	432	0.6	431	433	20.7	66.7
2025-07-26T14:37	10	82	14.5	65	112	436	2.0	432	438	20.7	66.2
2025-07-26T14:38	10	64	0.5	64	66	435	0.6	435	437	20.7	66.8
2025-07-26T14:39	10	67	1.0	65	69	436	0.4	435	437	20.8	67.0
2025-07-26T14:40	10	66	0.6	65	67	436	0.3	436	437	20.8	67.6
2025-07-26T14:41	10	82	13.0	67	104	438	1.6	436	442	21.0	67.7
2025-07-26T14:42	10	79	5.4	73	95	440	0.8	439	441	21.0	65.9
2025-07-26T14:43	10	72	0.2	72	73	439	0.3	439	440	20.9	66.0
2025-07-26T14:44	10	75	4.6	71	86	440	0.5	439	441	21.0	66.9
2025-07-26T14:45	10	71	0.3	71	72	439	0.5	438	440	21.1	66.0
2025-07-26T14:46	10	71	0.3	70	71	439	0.2	438	439	21.2	64.0
2025-07-26T14:47	10	70	0.2	69	70	439	0.4	439	440	21.2	64.8
2025-07-26T14:48	10	73	5.9	69	91	439	0.3	438	440	21.2	64.0
2025-07-26T14:49	10	100	25.7	72	144	443	2.8	439	447	21.2	65.1
2025-07-26T14:50	10	67	2.3	64	72	441	1.2	439	443	21.3	64.8
2025-07-26T14:51	10	61	1.4	59	64	439	0.6	438	440	21.3	64.1
2025-07-26T14:52	10	57	1.3	55	59	438	0.5	437	439	21.3	64.8
2025-07-26T14:53	10	52	1.1	51	55	437	0.3	437	438	21.3	65.6
2025-07-26T14:54	10	49	0.8	48	51	437	0.6	436	438	21.4	65.3
2025-07-26T14:55	10	47	0.6	46	48	435	0.6	434	436	21.4	64.7
2025-07-26T14:56	10	45	0.5	44	46	435	0.3	434	435	21.4	65.0
2025-07-26T14:57	10	43	0.7	42	44	434	0.3	433	435	21.4	64.7
2025-07-26T14:58	10	40	0.8	39	42	434	0.3	433	434	21.4	65.3
2025-07-26T14:59	10	38	0.9	36	39	432	0.9	431	434	21.3	63.5
2025-07-26T15:00	10	35	0.8	34	36	431	0.3	430	431	21.2	63.0
2025-07-26T15:01	10	32	0.9	31	34	430	0.8	428	431	21.2	62.2
2025-07-26T15:02	10	29	0.8	28	31	429	0.3	428	429	21.2	62.4
2025-07-26T15:03	10	27	0.7	25	28	428	0.3	428	429	21.2	60.4
2025-07-26T15:04	10	24	0.7	23	25	428	0.2	427	428	21.3	61.0
2025-07-26T15:05	10	22	0.7	21	23	427	0.3	427	428	21.3	59.5
2025-07-26T15:06	10	20	0.7	19	21	426	0.4	425	427	21.3	60.5
2025-07-26T15:07	10	17	0.8	16	19	425	0.3	425	426	21.3	60.8
2025-07-26T15:08	10	15	0.6	14	16	425	0.3	425	426	21.3	62.6
2025-07-26T15:09	10	13	0.6	12	14	424	0.7	423	425	21.2	62.0
2025-07-26T15:10	10	11	0.6	10	13	423	0.5	422	424	21.2	61.4
2025-07-26T15:11	10	10	0.5	9	11	422	0.6	421	423	21.2	59.9
2025-07-26T15:12	10	8	0.4	8	9	420	0.8	418	421	21.2	58.7
2025-07-26T15:13	10	8	0.2	7	8	417	0.7	416	419	21.3	60.9
2025-07-26T15:14	10	7	0.2	7	8	415	0.7	414	417	21.2	64.3
2025-07-26T15:15	10	7	0.2	7	8	415	0.3	414	415	21.1	67.0
2025-07-26T15:16	10	7	0.2	7	8	413	0.7	411	415	20.8	70.4
2025-07-26T15:17	10	7	0.1	7	8	412	0.4	411	412	20.2	74.9
2025-07-26T15:18	10	8	0.1	7	8	410	0.7	408	411	19.6	79.0
2025-07-26T15:19	10	8	0.2	7	8	407	0.8	406	409	18.8	81.5
2025-07-26T15:20	10	7	0.2	7	8	406	0.4	405	407	18.8	76.5
2025-07-26T15:21	10	7	0.1	7	8	404	0.2	404	405	18.8	71.5
2025-07-26T15:22	10	7	0.1	7	8	403	0.4	402	404	18.8	69.4
2025-07-26T15:23	10	8	0.1	7	8	403	0.5	402	404	18.5	71.7
2025-07-26T15:24	10	8	0.1	7	8	403	0.4	402	403	18.2	73.8
2025-07-26T15:25	10	8	0.1	8	8	402	0.6	401	404	18.0	74.5
2025-07-26T15:26	10	8	0.1	8	8	403	0.7	402	405	18.0	74.2
2025-07-26T15:27	10	8	0.1	8	8	403	0.5	402	404	18.6	70.5
2025-07-26T15:28	10	9	0.1	8	9	403	0.7	402	404	18.4	72.8
2025-07-26T15:29	10	9	0.2	9	9	404	0.5	403	405	18.3	74.7
2025-07-26T15:30	10	9	0.2	9	10	405	0.6	404	406	18.2	75.2
2025-07-26T15:31	10	10	0.2	10	10	406	0.3	405	407	18.2	74.9
2025-07-26T15:32	10	10	0.2	10	11	405	0.4	405	406	18.3	74.7
2025-07-26T15:33	10	11	0.2	11	11	406	0.6	405	408	18.5	72.0
2025-07-26T15:34	10	11	0.1	11	11	406	0.2	406	407	18.6	73.0
2025-07-26T15:35	10	12	0.2	11	12	406	0.3	406	407	18.5	75.0
2025-07-26T15:36	10	12	0.1	12	12	406	0.5	405	407	18.5	76.5
2025-07-26T15:37	10	12	0.2	12	13	407	0.3	406	408	18.6	77.9
2025-07-26T15:38	10	13	0.1	12	13	408	0.5	407	409	18.7	81.6
2025-07-26T15:39	10	13	0.3	13	14	408	0.3	407	409	18.8	82.9
2025-07-26T15:40	10	14	0.1	14	14	408	0.3	407	409	18.7	83.3
2025-07-26T15:41	10	14	0.2	14	15	407	0.2	406	407	18.6	83.1
2025-07-26T15:42	10	15	0.2	15	15	407	0.3	407	408	18.6	84.8
2025-07-26T15:43	10	16	0.3	15	16	408	0.2	408	409	18.5	85.2
2025-07-26T15:44	10	16	0.3	16	17	409	0.3	408	409	18.5	85.3
2025-07-26T15:45	10	18	0.5	17	19	409	0.3	408	409	18.4	84.1
2025-07-26T15:46	10	20	1.5	19	24	409	0.2	409	409	18.4	83.7
2025-07-26T15:47	10	47	13.9	25	70	412	1.9	409	414	18.5	84.4
2025-07-26T15:48	10	55	16.2	35	85	414	1.6	413	417	18.5	85.5
2025-07-26T15:49	10	31	7.3	27	56	415	1.1	413	417	18.5	85.6
2025-07-26T15:50	10	27	0.4	27	28	414	0.4	413	414	18.4	84.9
2025-07-26T15:51	10	29	0.3	28	29	413	0.2	413	414	18.4	84.7
2025-07-26T15:52	10	29	0.2	29	30	413	0.3	412	414	18.4	85.8
2025-07-26T15:53	10	30	0.1	29	30	412	0.4	412	413	18.5	84.4
2025-07-26T15:54	10	29	0.2	29	29	412	0.2	412	413	18.4	84.6
2025-07-26T15:55	10	28	0.3	28	29	412	0.4	411	413	18.4	85.1
2025-07-26T15:56	10	28	0.3	27	28	412	0.3	411	412	18.3	86.2
2025-07-26T15:57	10	27	0.1	27	27	412	0.3	411	412	18.3	87.1
2025-07-26T15:58	10	27	0.1	26	27	412	0.2	411	412	18.3	87.8
2025-07-26T15:59	10	27	0.1	26	27	412	0.4	411	413	18.3	86.5
2025-07-26T16:00	10	27	0.1	27	27	411	0.2	410	411	18.3	85.2
2025-07-26T16:01	10	27	0.1	27	27	410	0.3	410	411	18.2	85.0
2025-07-26T16:02	10	28	0.2	27	28	410	0.2	409	410	18.2	84.6
2025-07-26T16:03	10	28	0.1	28	29	410	0.4	409	410	18.2	84.5
2025-07-26T16:04	10	29	0.2	29	29	410	0.4	409	411	18.2	84.5
2025-07-26T16:05	10	30	0.3	29	31	410	0.2	409	410	18.2	85.3
2025-07-26T16:06	10	31	0.4	31	32	410	0.3	409	411	18.1	85.0
2025-07-26T16:07	10	33	0.4	32	33	410	0.3	410	411	18.1	85.2
2025-07-26T16:08	10	34	0.4	33	35	410	0.3	410	411	18.1	85.4
2025-07-26T16:09	10	35	0.6	35	37	411	0.4	410	412	18.1	85.1
2025-07-26T16:10	10	40	2.8	37	47	412	0.3	411	412	18.2	85.3
2025-07-26T16:11	10	53	5.0	46	60	413	0.9	412	414	18.2	84.5
2025-07-26T16:12	10	56	7.7	46	69	414	0.8	413	416	18.2	85.3
2025-07-26T16:13	10	70	11.9	45	84	417	0.9	415	419	18.2	83.9
2025-07-26T16:14	10	43	1.1	41	45	415	0.8	414	417	18.2	82.2
2025-07-26T16:15	10	40	0.6	39	41	415	0.3	414	415	18.3	83.2
2025-07-26T16:16	10	38	0.8	37	39	414	0.2	414	415	18.3	82.6
2025-07-26T16:17	10	36	0.4	35	37	414	0.3	414	415	18.4	84.1
2025-07-26T16:18	10	35	0.2	35	36	414	0.2	414	415	18.4	83.5
2025-07-26T16:19	10	35	0.1	35	35	415	0.2	414	415	18.4	83.3
2025-07-26T16:20	10	35	0.4	35	36	415	0.3	414	415	18.5	81.0
2025-07-26T16:21	10	55	16.6	36	84	416	1.5	414	419	18.5	81.9
2025-07-26T16:22	10	44	9.7	35	74	418	0.8	416	419	18.6	81.5
2025-07-26T16:23	10	34	0.2	34	35	416	0.4	416	418	18.6	82.6
2025-07-26T16:24	10	35	0.4	34	36	416	0.3	416	417	18.6	82.8
2025-07-26T16:25	10	39	2.9	36	45	417	0.4	416	418	18.7	83.8
2025-07-26T16:26	10	36	1.8	35	41	418	0.3	417	418	18.7	82.9
2025-07-26T16:27	10	34	1.8	33	39	418	0.3	417	418	18.7	83.2
2025-07-26T16:28	10	32	0.3	31	33	417	0.3	417	418	18.7	83.6
2025-07-26T16:29	10	31	0.6	30	31	418	0.3	417	418	18.7	84.0
2025-07-26T16:30	10	28	0.7	27	29	417	0.4	416	418	18.8	85.7
2025-07-26T16:31	10	26	0.7	25	27	416	0.6	415	417	18.8	84.9
2025-07-26T16:32	10	23	0.8	22	25	416	0.3	415	417	18.8	84.7
2025-07-26T16:33	10	21	0.7	20	22	415	0.5	414	416	18.8	84.3
2025-07-26T16:34	10	18	0.7	17	20	414	0.4	413	415	18.8	83.2
2025-07-26T16:35	10	16	0.6	15	17	413	0.4	412	414	18.8	84.5
2025-07-26T16:36	10	15	0.4	14	15	413	0.3	412	414	18.8	84.8
2025-07-26T16:37	10	14	0.3	13	14	412	0.3	412	413	18.7	85.3
2025-07-26T16:38	10	13	0.2	12	13	412	0.3	411	413	18.7	84.9
2025-07-26T16:39	10	12	0.2	12	13	411	0.2	411	412	18.7	85.1
2025-07-26T16:40	10	12	0.2	11	12	411	0.2	411	411	18.7	86.0
2025-07-26T16:41	10	11	0.2	11	12	411	0.3	410	412	18.7	83.8
2025-07-26T16:42	10	11	0.1	11	11	411	0.2	410	411	18.7	85.3
2025-07-26T16:43	10	11	0.1	11	11	410	0.5	409	411	18.7	83.9
2025-07-26T16:44	10	11	0.1	10	11	410	0.2	409	410	18.7	84.7
2025-07-26T16:45	10	11	0.1	11	11	410	0.4	409	410	18.6	84.9
2025-07-26T16:46	10	10	0.1	10	11	409	0.3	408	409	18.6	85.6
2025-07-26T16:47	10	10	0.2	10	10	409	0.3	408	409	18.6	84.9
2025-07-26T16:48	10	10	0.2	9	10	408	0.3	408	409	18.6	84.5
2025-07-26T16:49	10	9	0.1	9	9	408	0.2	408	409	18.5	84.8
2025-07-26T16:50	10	9	0.1	9	9	408	0.2	407	408	18.5	85.0
2025-07-26T16:51	10	9	0.1	9	9	407	0.3	407	408	18.5	84.8
2025-07-26T16:52	10	10	0.1	9	10	407	0.3	407	408	18.5	84.2
2025-07-26T16:53	10	10	0.2	10	10	407	0.2	407	408	18.6	83.5
2025-07-26T16:54	10	11	0.2	10	11	407	0.2	407	408	18.5	83.8
2025-07-26T16:55	10	11	0.1	11	11	407	0.2	407	408	18.5	84.2
2025-07-26T16:56	10	11	0.1	11	11	407	0.3	406	408	18.5	84.4
2025-07-26T16:57	10	11	0.1	10	11	407	0.2	406	407	18.5	83.7
2025-07-26T16:58	10	10	0.1	10	10	407	0.2	406	407	18.4	84.3
2025-07-26T16:59	10	10	0.2	9	10	406	0.2	406	407	18.5	83.7
2025-07-26T17:00	10	9	0.2	9	9	407	0.3	406	407	18.5	83.7
2025-07-26T17:01	10	8	0.2	8	9	406	0.2	406	407	18.5	84.3
2025-07-26T17:02	10	8	0.2	7	8	406	0.2	405	407	18.4	84.9
2025-07-26T17:03	10	7	0.2	7	7	406	0.2	406	407	18.4	86.0
2025-07-26T17:04	10	6	0.2	6	7	406	0.2	406	407	18.5	85.5
2025-07-26T17:05	10	6	0.1	6	6	406	0.2	406	407	18.5	85.8
2025-07-26T17:06	10	6	0.1	6	6	406	0.2	406	406	18.5	85.2
2025-07-26T17:07	10	6	0.1	5	6	406	0.3	406	407	18.5	85.8
2025-07-26T17:08	10	5	0.1	5	6	406	0.2	406	406	18.5	86.0
2025-07-26T17:09	10	5	0.1	5	5	406	0.2	405	407	18.5	85.9
2025-07-26T17:10	10	5	0.1	5	5	406	0.2	406	407	18.5	87.2
2025-07-26T17:11	10	5	0.1	5	5	406	0.2	406	407	18.4	87.1
2025-07-26T17:12	10	5	0.1	4	5	406	0.2	406	407	18.5	87.4
2025-07-26T17:13	10	4	0.1	4	5	406	0.2	406	407	18.4	87.6
2025-07-26T17:14	10	4	0.1	4	4	406	0.2	405	406	18.4	88.0
2025-07-26T17:15	10	4	0.1	3	4	406	0.2	406	407	18.4	88.4
2025-07-26T17:16	10	3	0.1	3	4	406	0.3	405	406	18.4	88.2
2025-07-26T17:17	10	3	0.1	3	3	406	0.2	405	406	18.5	87.5
2025-07-26T17:18	10	3	0.1	3	3	406	0.2	405	406	18.4	87.7
2025-07-26T17:19	10	3	0.1	3	3	405	0.3	405	406	18.4	87.7
2025-07-26T17:20	10	3	0.1	3	3	406	0.2	405	406	18.5	87.7
2025-07-26T17:21	10	3	0.1	3	3	405	0.3	405	406	18.4	87.4
2025-07-26T17:22	10	3	0.1	3	3	405	0.2	405	406	18.4	86.9
2025-07-26T17:23	10	3	0.1	3	3	405	0.2	405	406	18.5	84.8
2025-07-26T17:24	10	3	0.1	3	3	405	0.2	405	405	18.5	85.5
2025-07-26T17:25	10	3	0.1	3	4	405	0.2	405	406	18.5	86.0
2025-07-26T17:26	10	4	0.1	3	4	405	0.2	405	406	18.5	85.1
2025-07-26T17:27	10	4	0.1	4	4	405	0.3	405	406	18.5	85.3
2025-07-26T17:28	10	4	0.1	4	4	405	0.2	405	406	18.5	85.5
2025-07-26T17:29	10	4	0.1	4	4	405	0.3	404	406	18.5	85.7
2025-07-26T17:30	10	4	0.1	4	4	405	0.3	405	406	18.5	85.9
2025-07-26T17:31	10	4	0.1	4	4	405	0.2	405	406	18.5	85.8
2025-07-26T17:32	10	4	0.1	4	4	405	0.3	405	406	18.5	86.0
2025-07-26T17:33	10	4	0.1	3	4	405	0.2	405	406	18.5	86.4
2025-07-26T17:34	10	3	0.1	3	4	405	0.3	404	405	18.4	87.3
2025-07-26T17:35	10	3	0.1	3	3	404	0.3	404	405	18.3	88.9
2025-07-26T17:36	10	3	0.1	3	3	404	0.2	404	404	18.2	91.2
2025-07-26T17:37	10	3	0.1	2	3	404	0.2	404	405	18.1	91.1
2025-07-26T17:38	10	3	0.1	2	3	404	0.2	404	404	18.1	89.8
2025-07-26T17:39	10	2	0.1	2	3	404	0.2	404	404	18.2	88.4
2025-07-26T17:40	10	2	0.1	2	3	404	0.2	403	404	18.3	87.6
2025-07-26T17:41	10	2	0.1	2	2	403	0.2	403	404	18.2	88.0
2025-07-26T17:42	10	2	0.1	2	2	403	0.3	403	404	18.1	89.0
2025-07-26T17:43	10	2	0.2	2	3	403	0.3	402	404	18.1	88.2
2025-07-26T17:44	10	2	0.2	2	3	403	0.4	402	404	18.0	86.7
2025-07-26T17:45	10	2	0.1	2	3	402	0.3	401	403	18.0	84.8
2025-07-26T17:46	10	2	0.1	2	3	402	0.2	401	402	18.0	85.2
2025-07-26T17:47	10	3	0.1	2	3	402	0.2	401	402	18.0	85.6
2025-07-26T17:48	10	3	0.2	2	3	402	0.2	401	402	17.9	86.1
2025-07-26T17:49	10	3	0.1	2	3	401	0.2	401	402	17.9	86.5
2025-07-26T17:50	10	3	0.1	2	3	401	0.3	401	402	17.8	87.6
2025-07-26T17:51	10	3	0.1	3	3	401	0.3	401	402	17.8	88.6
2025-07-26T17:52	10	3	0.2	3	4	402	0.2	401	402	17.8	89.4
2025-07-26T17:53	10	3	0.2	3	4	401	0.2	401	402	17.7	89.8
2025-07-26T17:54	10	3	0.2	3	4	402	0.2	401	402	17.7	89.1
2025-07-26T17:55	10	4	0.1	3	4	401	0.2	401	402	17.7	87.9
2025-07-26T17:56	10	4	0.1	3	4	401	0.3	400	402	17.7	88.2
2025-07-26T17:57	10	4	0.1	3	4	401	0.2	401	402	17.7	87.6
2025-07-26T17:58	10	4	0.2	3	4	401	0.2	401	402	17.7	87.9
2025-07-26T17:59	10	4	0.2	3	4	401	0.3	401	402	17.7	86.8
2025-07-26T18:00	10	4	0.2	4	4	401	0.3	401	402	17.7	86.4
2025-07-26T18:01	10	4	0.2	3	4	401	0.3	400	401	17.6	87.2
2025-07-26T18:02	10	4	0.2	3	4	401	0.3	400	401	17.6	86.9
2025-07-26T18:03	10	4	0.2	3	5	400	0.2	400	401	17.6	87.3
2025-07-26T18:04	10	4	0.1	3	4	400	0.3	400	401	17.5	87.7
2025-07-26T18:05	10	4	0.2	3	4	400	0.2	400	401	17.5	88.8
2025-07-26T18:06	10	4	0.2	3	4	400	0.3	400	401	17.5	89.2
2025-07-26T18:07	10	4	0.1	3	4	400	0.3	400	401	17.4	89.8
2025-07-26T18:08	10	3	0.2	3	4	400	0.2	400	401	17.4	89.9
2025-07-26T18:09	10	3	0.1	3	4	400	0.2	400	401	17.4	89.7
2025-07-26T18:10	10	3	0.1	3	4	400	0.2	400	400	17.4	89.7
2025-07-26T18:11	10	3	0.1	3	3	400	0.3	399	400	17.3	89.6
2025-07-26T18:12	10	3	0.1	3	3	400	0.2	399	400	17.3	88.9
2025-07-26T18:13	10	3	0.1	3	3	399	0.2	399	400	17.3	88.2
2025-07-26T18:14	10	3	0.1	2	3	399	0.3	398	400	17.3	88.6
2025-07-26T18:15	10	3	0.1	2	3	399	0.2	398	399	17.3	88.5
2025-07-26T18:16	10	2	0.1	2	2	398	0.2	398	399	17.3	88.1
2025-07-26T18:17	10	2	0.1	2	2	398	0.3	398	399	17.3	87.3
2025-07-26T18:18	10	2	0.1	2	2	398	0.2	397	398	17.3	87.2
2025-07-26T18:19	10	2	0.1	2	2	397	0.2	397	398	17.2	87.6
2025-07-26T18:20	10	2	0.1	2	2	397	0.2	397	398	17.1	88.2
2025-07-26T18:21	10	2	0.1	2	2	397	0.2	396	397	17.1	88.5
2025-07-26T18:22	10	2	0.1	2	2	397	0.2	396	397	17.0	87.9
2025-07-26T18:23	10	2	0.1	1	2	396	0.2	396	397	17.0	87.8
2025-07-26T18:24	10	1	0.1	1	2	396	0.2	396	397	17.0	88.7
2025-07-26T18:25	10	1	0.0	1	1	396	0.3	396	397	16.9	88.8
2025-07-26T18:26	10	1	0.1	1	1	396	0.2	396	397	16.9	89.3
2025-07-26T18:27	10	1	0.1	1	1	396	0.2	396	397	16.9	89.7
2025-07-26T18:28	10	1	0.1	1	1	396	0.3	396	397	16.9	89.2
2025-07-26T18:29	10	1	0.1	1	1	396	0.2	396	397	16.8	90.1
2025-07-26T18:30	10	1	0.1	1	1	396	0.2	396	397	16.8	90.3
2025-07-26T18:31	10	1	0.1	1	1	396	0.2	396	397	16.8	89.9
2025-07-26T18:32	10	1	0.1	1	1	396	0.3	395	396	16.8	88.7
2025-07-26T18:33	10	1	0.1	1	1	396	0.3	395	397	16.8	88.8
2025-07-26T18:34	10	1	0.1	1	1	396	0.2	395	396	16.8	88.5
2025-07-26T18:35	10	1	0.1	1	1	395	0.3	395	396	16.8	88.6
2025-07-26T18:36	10	1	0.1	1	1	396	0.2	395	396	16.8	87.8
2025-07-26T18:37	10	1	0.1	1	1	395	0.2	395	396	16.8	88.4
2025-07-26T18:38	10	1	0.1	1	1	395	0.2	395	396	16.7	88.8
2025-07-26T18:39	10	1	0.1	1	1	395	0.2	395	396	16.7	88.4
2025-07-26T18:40	10	1	0.1	1	1	395	0.2	395	396	16.8	88.3
2025-07-26T18:41	10	1	0.1	1	1	395	0.2	395	396	16.8	88.5
2025-07-26T18:42	10	1	0.1	1	1	395	0.3	394	396	16.8	87.9
2025-07-26T18:43	10	1	0.1	1	1	395	0.2	395	396	16.8	88.5
2025-07-26T18:44	10	1	0.1	1	1	395	0.3	394	396	16.7	88.7
2025-07-26T18:45	10	1	0.1	1	1	395	0.3	394	395	16.8	88.2
2025-07-26T18:46	10	1	0.1	1	1	395	0.2	394	395	16.8	88.6
2025-07-26T18:47	10	1	0.1	0	1	395	0.2	394	395	16.7	89.1
2025-07-26T18:48	10	1	0.1	1	1	395	0.2	394	395	16.7	89.2
2025-07-26T18:49	10	1	0.1	0	1	395	0.3	394	396	16.6	89.7
2025-07-26T18:50	10	1	0.1	0	1	395	0.3	394	395	16.6	90.1
2025-07-26T18:51	10	0	0.1	0	1	395	0.2	395	395	16.6	90.3
2025-07-26T18:52	10	0	0.1	0	1	395	0.2	395	396	16.6	89.9
2025-07-26T18:53	10	0	0.1	0	1	395	0.2	394	395	16.6	90.1
2025-07-26T18:54	10	0	0.1	0	0	395	0.3	394	396	16.6	90.5
2025-07-26T18:55	10	0	0.1	0	0	395	0.3	395	396	16.6	90.3
2025-07-26T18:56	10	0	0.1	0	0	395	0.3	394	395	16.6	89.8
2025-07-26T18:57	10	0	0.1	0	1	395	0.3	394	395	16.6	89.5
2025-07-26T18:58	10	0	0.1	0	1	395	0.3	394	395	16.7	89.4
2025-07-26T18:59	10	0	0.1	0	1	395	0.3	394	395	16.7	88.6
2025-07-26T19:00	10	0	0.1	0	0	395	0.2	394	395	16.7	88.4
2025-07-26T19:01	10	0	0.1	0	0	395	0.2	394	395	16.7	88.2
2025-07-26T19:02	10	0	0.1	0	0	395	0.2	394	395	16.7	87.3
2025-07-26T19:03	10	0	0.1	0	0	395	0.3	394	395	16.8	87.3
2025-07-26T19:04	10	0	0.1	0	0	395	0.2	394	395	16.7	87.3
2025-07-26T19:05	10	0	0.1	0	1	394	0.3	394	395	16.8	86.7
2025-07-26T19:06	10	0	0.0	0	0	395	0.3	394	395	16.8	86.4
2025-07-26T19:07	10	0	0.1	0	0	394	0.2	394	395	16.8	86.8
2025-07-26T19:08	10	0	0.1	0	1	394	0.2	394	395	16.8	86.9
2025-07-26T19:09	10	0	0.1	0	1	394	0.2	394	395	16.8	86.1
2025-07-26T19:10	10	0	0.1	0	1	394	0.3	393	394	16.8	86.4
2025-07-26T19:11	10	0	0.1	0	0	394	0.3	393	395	16.8	86.0
2025-07-26T19:12	10	0	0.1	0	1	394	0.2	393	394	16.8	86.1
2025-07-26T19:13	10	0	0.1	0	0	394	0.3	393	395	16.7	86.5
2025-07-26T19:14	10	0	0.1	0	1	394	0.2	393	394	16.7	87.2
2025-07-26T19:15	10	0	0.1	0	0	394	0.2	393	394	16.6	87.4
2025-07-26T19:16	10	0	0.1	0	0	394	0.2	393	394	16.6	87.6
2025-07-26T19:17	10	0	0.1	0	0	393	0.2	393	394	16.6	88.2
2025-07-26T19:18	10	0	0.1	0	0	394	0.2	393	394	16.5	88.5
2025-07-26T19:19	10	0	0.0	0	0	394	0.3	393	394	16.5	88.5
2025-07-26T19:20	10	0	0.1	0	0	394	0.3	393	394	16.5	88.3
2025-07-26T19:21	10	0	0.1	0	1	393	0.3	393	395	16.5	88.6
2025-07-26T19:22	10	0	0.1	0	0	393	0.2	393	394	16.5	88.4
2025-07-26T19:23	10	0	0.1	0	0	393	0.2	393	394	16.5	88.4
2025-07-26T19:24	10	0	0.1	0	0	393	0.3	393	394	16.5	88.6
2025-07-26T19:25	10	0	0.1	0	0	393	0.2	393	394	16.5	89.0
2025-07-26T19:26	10	0	0.1	0	0	393	0.2	393	394	16.4	89.1
2025-07-26T19:27	10	0	0.1	0	0	393	0.3	393	394	16.5	88.7
2025-07-26T19:28	10	0	0.1	0	0	393	0.2	393	394	16.4	89.3
2025-07-26T19:29	10	0	0.1	0	0	393	0.3	392	394	16.4	88.8
2025-07-26T19:30	10	0	0.1	0	0	393	0.3	393	394	16.5	88.4
2025-07-26T19:31	10	0	0.1	0	0	393	0.3	392	394	16.4	89.1
2025-07-26T19:32	10	0	0.1	0	0	393	0.2	393	393	16.5	88.9
2025-07-26T19:33	10	0	0.1	0	0	393	0.2	392	394	16.4	89.4
2025-07-26T19:34	10	0	0.1	0	0	393	0.3	392	394	16.5	88.9
2025-07-26T19:35	10	0	0.1	0	0	393	0.3	392	394	16.5	88.7
2025-07-26T19:36	10	0	0.1	0	1	393	0.2	393	394	16.5	88.7
2025-07-26T19:37	10	0	0.1	0	0	393	0.3	392	394	16.4	89.2
2025-07-26T19:38	10	0	0.1	0	0	393	0.2	392	394	16.4	89.2
2025-07-26T19:39	10	0	0.1	0	0	393	0.2	393	394	16.5	88.9
2025-07-26T19:40	10	0	0.1	0	0	393	0.2	393	393	16.5	88.5
2025-07-26T19:41	10	0	0.1	0	0	393	0.2	393	394	16.5	88.6
2025-07-26T19:42	10	0	0.1	0	0	393	0.2	393	394	16.5	88.5
2025-07-26T19:43	10	0	0.1	0	0	393	0.2	392	393	16.5	88.5
2025-07-26T19:44	10	0	0.1	0	0	393	0.3	392	393	16.5	88.3
2025-07-26T19:45	10	0	0.1	0	0	393	0.2	392	394	16.5	88.4
2025-07-26T19:46	10	0	0.1	0	0	393	0.3	392	393	16.5	89.0
2025-07-26T19:47	10	0	0.1	0	1	393	0.2	392	393	16.5	88.8
2025-07-26T19:48	10	0	0.1	0	1	393	0.3	392	394	16.5	88.7
2025-07-26T19:49	10	0	0.1	0	0	393	0.3	392	393	16.4	89.3
2025-07-26T19:50	10	0	0.1	0	0	393	0.2	393	393	16.4	89.0
2025-07-26T19:51	10	0	0.1	0	0	393	0.3	392	393	16.5	88.4
2025-07-26T19:52	10	0	0.1	0	0	393	0.3	392	394	16.5	88.9
2025-07-26T19:53	10	0	0.2	0	1	393	0.3	392	394	16.5	88.1
2025-07-26T19:54	10	0	0.2	0	1	393	0.2	392	393	16.5	88.6
2025-07-26T19:55	10	0	0.1	0	1	393	0.3	392	393	16.5	88.7
2025-07-26T19:56	10	0	0.2	0	1	393	0.3	393	394	16.5	88.0
2025-07-26T19:57	10	0	0.2	0	0	393	0.3	393	394	16.6	87.7
2025-07-26T19:58	10	0	0.1	0	0	393	0.3	392	394	16.5	88.0
2025-07-26T19:59	10	0	0.2	0	0	393	0.3	392	393	16.5	88.0
2025-07-26T20:00	10	0	0.2	0	1	393	0.2	392	394	16.6	87.8
2025-07-26T20:01	10	0	0.1	0	0	393	0.3	392	394	16.5	88.2
2025-07-26T20:02	10	0	0.1	0	0	393	0.2	392	393	16.5	88.3
2025-07-26T20:03	10	0	0.2	0	0	393	0.2	393	394	16.6	87.7
2025-07-26T20:04	10	0	0.2	0	1	393	0.3	392	394	16.6	87.8
2025-07-26T20:05	10	0	0.1	0	0	393	0.3	392	393	16.6	88.3
2025-07-26T20:06	10	0	0.2	0	1	393	0.2	393	393	16.6	88.2
2025-07-26T20:07	10	0	0.1	0	0	393	0.2	392	393	16.6	88.3
2025-07-26T20:08	10	0	0.2	0	1	393	0.3	392	393	16.5	88.4
2025-07-26T20:09	10	0	0.2	0	1	393	0.2	392	393	16.5	88.9
2025-07-26T20:10	10	0	0.2	0	1	393	0.3	392	393	16.5	88.7
2025-07-26T20:11	10	0	0.1	0	1	393	0.3	392	393	16.5	88.5
2025-07-26T20:12	10	0	0.2	0	1	393	0.3	392	393	16.5	88.6
2025-07-26T20:13	10	0	0.2	0	1	393	0.2	392	393	16.5	88.9
2025-07-26T20:14	10	0	0.2	0	1	393	0.2	392	393	16.5	89.2
2025-07-26T20:15	10	0	0.1	0	0	393	0.3	392	393	16.5	89.1
2025-07-26T20:16	10	0	0.1	0	0	393	0.2	392	393	16.5	88.8
2025-07-26T20:17	10	0	0.1	0	0	393	0.2	393	394	16.5	88.7
2025-07-26T20:18	10	0	0.2	0	1	393	0.2	393	394	16.5	88.3
2025-07-26T20:19	10	0	0.1	0	0	393	0.2	393	394	16.5	88.6
2025-07-26T20:20	10	0	0.2	0	1	394	0.3	393	394	16.6	88.2
2025-07-26T20:21	10	0	0.2	0	0	393	0.3	393	394	16.6	88.3
2025-07-26T20:22	10	0	0.1	0	1	394	0.2	393	394	16.6	88.3
2025-07-26T20:23	10	0	0.2	0	1	393	0.3	393	394	16.6	88.1
2025-07-26T20:24	10	0	0.2	0	1	394	0.3	393	394	16.6	88.0
2025-07-26T20:25	10	0	0.2	0	1	393	0.2	393	394	16.6	88.3
2025-07-26T20:26	10	0	0.1	0	0	394	0.2	393	394	16.6	88.4
2025-07-26T20:27	10	0	0.1	0	0	394	0.2	393	394	16.5	88.7
2025-07-26T20:28	10	0	0.1	0	0	394	0.2	393	394	16.5	89.1
2025-07-26T20:29	10	0	0.1	0	1	394	0.3	393	394	16.5	88.7
2025-07-26T20:30	10	0	0.1	0	0	394	0.3	393	394	16.5	89.2
2025-07-26T20:31	10	0	0.2	0	1	394	0.3	393	395	16.5	88.5
2025-07-26T20:32	10	0	0.1	0	1	394	0.2	393	394	16.5	89.0
2025-07-26T20:33	10	0	0.1	0	1	394	0.2	393	394	16.5	88.3
2025-07-26T20:34	10	0	0.2	0	0	394	0.2	394	395	16.5	88.8
2025-07-26T20:35	10	0	0.1	0	0	394	0.3	393	395	16.5	88.3
2025-07-26T20:36	10	0	0.2	0	1	394	0.2	394	395	16.6	88.2
2025-07-26T20:37	10	0	0.2	0	1	394	0.3	394	395	16.6	88.5
2025-07-26T20:38	10	0	0.2	0	0	394	0.3	394	395	16.6	88.5
2025-07-26T20:39	10	0	0.1	0	1	395	0.2	394	395	16.6	87.6
2025-07-26T20:40	10	0	0.2	0	1	394	0.2	394	395	16.6	87.4
2025-07-26T20:41	10	0	0.2	0	1	395	0.3	394	395	16.6	87.8
2025-07-26T20:42	10	0	0.1	0	0	395	0.2	394	395	16.6	88.1
2025-07-26T20:43	10	0	0.1	0	0	395	0.2	395	396	16.6	87.4
2025-07-26T20:44	10	0	0.1	0	0	395	0.2	395	396	16.7	86.6
2025-07-26T20:45	10	0	0.1	0	1	395	0.4	394	395	16.7	86.9
2025-07-26T20:46	10	0	0.1	0	0	394	0.3	393	395	16.7	87.5
2025-07-26T20:47	10	0	0.1	0	1	394	0.3	393	394	16.6	88.1
2025-07-26T20:48	10	0	0.1	0	0	393	0.2	393	394	16.6	88.1
2025-07-26T20:49	10	0	0.1	0	1	393	0.3	393	394	16.6	88.3
2025-07-26T20:50	10	0	0.1	0	0	393	0.3	392	394	16.5	88.9
2025-07-26T20:51	10	0	0.1	0	0	393	0.2	393	394	16.5	88.6
2025-07-26T20:52	10	0	0.1	0	1	393	0.3	392	393	16.5	88.2
2025-07-26T20:53	10	0	0.2	0	1	392	0.2	392	393	16.5	89.2
2025-07-26T20:54	10	0	0.1	0	1	392	0.2	392	393	16.4	89.6
2025-07-26T20:55	10	0	0.1	0	0	392	0.3	392	393	16.4	90.4
2025-07-26T20:56	10	0	0.1	0	0	392	0.2	391	393	16.3	90.5
2025-07-26T20:57	10	0	0.1	0	0	392	0.2	392	393	16.3	90.2
2025-07-26T20:58	10	0	0.1	0	0	392	0.2	392	393	16.4	89.8
2025-07-26T20:59	10	0	0.1	0	0	392	0.2	392	393	16.3	90.1
2025-07-26T21:00	10	0	0.1	0	0	392	0.2	391	392	16.4	89.9
2025-07-26T21:01	10	0	0.1	0	0	392	0.2	391	392	16.3	90.6
2025-07-26T21:02	10	0	0.1	0	0	391	0.2	391	392	16.2	91.6
2025-07-26T21:03	10	0	0.1	0	0	391	0.2	391	392	16.2	91.0
2025-07-26T21:04	10	0	0.1	0	0	391	0.3	391	392	16.3	90.4
2025-07-26T21:05	10	0	0.1	0	0	391	0.2	391	392	16.3	89.9
2025-07-26T21:06	10	0	0.1	0	0	391	0.2	390	391	16.3	89.9
2025-07-26T21:07	10	0	0.1	0	1	390	0.2	390	391	16.3	90.5
2025-07-26T21:08	10	0	0.1	0	0	390	0.2	390	391	16.3	90.3
2025-07-26T21:09	10	0	0.1	0	0	390	0.2	390	390	16.3	89.9
2025-07-26T21:10	10	0	0.1	0	0	390	0.2	389	390	16.3	90.4
2025-07-26T21:11	10	0	0.1	0	0	390	0.2	389	390	16.2	90.8
2025-07-26T21:12	10	0	0.1	0	0	389	0.2	389	390	16.2	90.7
2025-07-26T21:13	10	0	0.1	0	0	389	0.3	389	390	16.2	90.2
2025-07-26T21:14	10	0	0.1	0	0	389	0.2	389	390	16.2	90.2
2025-07-26T21:15	10	0	0.1	0	0	389	0.2	388	389	16.2	89.7
2025-07-26T21:16	10	0	0.1	0	1	389	0.2	388	389	16.3	89.3
2025-07-26T21:17	10	0	0.1	0	0	389	0.2	388	389	16.3	88.9
2025-07-26T21:18	10	0	0.1	0	0	389	0.2	388	389	16.4	88.2
2025-07-26T21:19	10	0	0.1	0	0	388	0.3	388	389	16.4	88.3
2025-07-26T21:20	10	0	0.1	0	0	388	0.2	388	389	16.3	89.3
2025-07-26T21:21	10	0	0.1	0	0	388	0.2	387	388	16.2	89.7
2025-07-26T21:22	10	0	0.1	0	0	388	0.2	387	388	16.2	89.6
2025-07-26T21:23	10	0	0.0	0	0	388	0.3	387	388	16.2	89.8
2025-07-26T21:24	10	0	0.1	0	0	387	0.3	386	388	16.1	90.1
2025-07-26T21:25	10	0	0.1	0	0	387	0.3	386	387	16.1	90.2
2025-07-26T21:26	10	0	0.1	0	0	387	0.2	387	387	16.1	89.7
2025-07-26T21:27	10	0	0.1	0	0	387	0.2	387	388	16.2	89.6
2025-07-26T21:28	10	0	0.1	0	0	387	0.2	386	387	16.2	89.5
2025-07-26T21:29	10	0	0.1	0	0	387	0.2	386	387	16.1	89.8
2025-07-26T21:30	10	0	0.1	0	0	387	0.2	386	387	16.2	89.6
2025-07-26T21:31	10	0	0.1	0	0	386	0.2	386	387	16.1	89.9
2025-07-26T21:32	10	0	0.1	0	0	386	0.2	386	387	16.1	89.9
2025-07-26T21:33	10	0	0.1	0	0	387	0.3	386	387	16.1	90.0
2025-07-26T21:34	10	0	0.1	0	0	386	0.2	386	387	16.1	89.8
2025-07-26T21:35	10	0	0.1	0	0	387	0.2	386	387	16.1	90.1
2025-07-26T21:36	10	0	0.1	0	0	386	0.3	386	387	16.0	90.5
2025-07-26T21:37	10	0	0.1	0	0	387	0.2	386	387	16.0	91.0
2025-07-26T21:38	10	0	0.1	0	0	387	0.3	386	387	15.9	91.5
2025-07-26T21:39	10	0	0.1	0	0	387	0.2	386	387	15.9	91.3
2025-07-26T21:40	10	0	0.1	0	0	387	0.3	387	388	15.9	91.1
2025-07-26T21:41	10	0	0.1	0	0	387	0.3	386	388	16.0	90.9
2025-07-26T21:42	10	0	0.1	0	0	387	0.3	387	388	15.9	91.3
2025-07-26T21:43	10	0	0.1	0	0	387	0.2	387	388	15.9	91.3
2025-07-26T21:44	10	0	0.1	0	0	387	0.2	387	388	15.9	91.8
2025-07-26T21:45	10	0	0.1	0	0	387	0.3	387	388	15.8	92.7
2025-07-26T21:46	10	0	0.1	0	0	387	0.2	387	388	15.8	93.3
2025-07-26T21:47	10	0	0.1	0	0	387	0.2	387	388	15.8	93.8
2025-07-26T21:48	10	0	0.1	0	0	387	0.2	387	388	15.7	92.2
2025-07-26T21:49	10	0	0.1	0	0	387	0.3	387	388	15.7	93.8
2025-07-26T21:50	10	0	0.1	0	0	388	0.2	387	388	15.7	90.7
2025-07-26T21:51	10	0	0.1	0	0	387	0.3	387	388	15.7	90.7
2025-07-26T21:52	10	0	0.1	0	0	387	0.2	387	387	15.7	93.8
2025-07-26T21:53	10	0	0.1	0	0	387	0.2	387	388	15.7	93.8
2025-07-26T21:54	10	0	0.1	0	0	387	0.2	387	388	15.7	93.8
2025-07-26T21:55	10	0	0.1	0	0	388	0.2	387	388	15.7	93.8
2025-07-26T21:56	10	0	0.1	0	0	388	0.3	387	388	15.8	92.7
2025-07-26T21:57	10	0	0.1	0	0	388	0.2	387	388	15.8	92.8
2025-07-26T21:58	10	0	0.1	0	0	388	0.2	387	388	15.8	93.1
2025-07-26T21:59	10	0	0.1	0	0	388	0.2	388	389	15.8	93.2
2025-07-26T22:00	10	0	0.1	0	0	388	0.3	388	389	15.7	93.3
2025-07-26T22:01	10	0	0.1	0	0	388	0.2	388	389	15.8	93.2
2025-07-26T22:02	10	0	0.1	0	0	388	0.2	388	389	15.8	92.9
2025-07-26T22:03	10	0	0.1	0	0	388	0.2	388	389	15.8	92.4
2025-07-26T22:04	10	0	0.1	0	0	388	0.2	388	389	15.9	91.6
2025-07-26T22:05	10	0	0.1	0	0	388	0.2	388	389	15.9	91.6
2025-07-26T22:06	10	0	0.1	0	0	388	0.3	387	388	15.9	92.4
2025-07-26T22:07	10	0	0.1	0	0	387	0.2	387	388	15.7	93.3
2025-07-26T22:08	10	0	0.1	0	0	387	0.2	387	388	15.7	93.4
2025-07-26T22:09	10	0	0.1	0	0	387	0.3	386	387	15.7	93.6
2025-07-26T22:10	10	0	0.1	0	0	387	0.2	386	387	15.7	93.3
2025-07-26T22:11	10	0	0.1	0	0	387	0.2	386	387	15.7	93.5
2025-07-26T22:12	10	0	0.1	0	0	387	0.2	387	387	15.7	93.2
2025-07-26T22:13	10	0	0.1	0	0	388	0.3	387	388	15.8	92.6
2025-07-26T22:14	10	0	0.1	0	0	388	0.3	387	389	15.8	91.9
2025-07-26T22:15	10	0	0.1	0	0	388	0.2	388	389	15.9	91.2
2025-07-26T22:16	10	0	0.1	0	0	388	0.2	388	389	15.9	91.4
2025-07-26T22:17	10	0	0.1	0	0	389	0.2	388	389	15.9	91.8
2025-07-26T22:18	10	0	0.1	0	0	389	0.2	388	389	15.9	91.4
2025-07-26T22:19	10	0	0.1	0	0	389	0.2	388	389	15.9	91.2
2025-07-26T22:20	10	0	0.1	0	0	389	0.3	388	389	15.9	91.3
2025-07-26T22:21	10	0	0.1	0	0	389	0.2	389	390	15.9	91.0
2025-07-26T22:22	10	0	0.1	0	0	389	0.2	388	389	15.9	91.3
2025-07-26T22:23	10	0	0.1	0	0	389	0.2	388	389	15.9	91.7
2025-07-26T22:24	10	0	0.1	0	0	388	0.3	388	389	15.8	92.1
2025-07-26T22:25	10	0	0.1	0	0	389	0.3	388	389	15.8	92.1
2025-07-26T22:26	10	0	0.1	0	0	389	0.3	388	389	15.8	92.2
2025-07-26T22:27	10	0	0.1	0	0	389	0.2	389	390	15.8	92.6
2025-07-26T22:28	10	0	0.1	0	0	389	0.3	389	390	15.7	92.8
2025-07-26T22:29	10	0	0.1	0	0	389	0.2	389	390	15.8	92.5
2025-07-26T22:30	10	0	0.1	0	0	390	0.2	389	390	15.8	92.6
2025-07-26T22:31	10	0	0.1	0	0	389	0.2	389	390	15.7	93.6
2025-07-26T22:32	10	0	0.1	0	0	390	0.2	390	390	15.7	93.5
2025-07-26T22:33	10	0	0.1	0	0	390	0.2	389	390	15.7	94.0
2025-07-26T22:34	10	0	0.1	0	0	390	0.2	389	390	15.6	94.5
2025-07-26T22:35	10	0	0.1	0	0	390	0.2	389	390	15.6	93.7
2025-07-26T22:36	10	0	0.1	0	0	390	0.3	389	391	15.8	92.3
2025-07-26T22:37	10	0	0.1	0	0	390	0.2	389	390	15.8	93.2
2025-07-26T22:38	10	0	0.1	0	0	389	0.2	389	390	15.8	93.1
2025-07-26T22:39	10	0	0.1	0	0	389	0.2	389	390	15.7	93.3
2025-07-26T22:40	10	0	0.1	0	0	390	0.3	389	390	15.6	94.6
2025-07-26T22:41	10	0	0.1	0	0	390	0.2	389	390	15.6	94.6
2025-07-26T22:42	10	0	0.1	0	0	390	0.2	390	391	15.6	95.0
2025-07-26T22:43	10	0	0.1	0	0	390	0.3	390	391	15.6	94.7
2025-07-26T22:44	10	0	0.1	0	0	390	0.3	390	391	15.7	94.1
2025-07-26T22:45	10	0	0.1	0	0	391	0.2	390	391	15.8	92.3
2025-07-26T22:46	10	0	0.1	0	0	391	0.2	390	391	15.9	91.7
2025-07-26T22:47	10	0	0.1	0	0	390	0.2	390	391	15.9	90.8
2025-07-26T22:48	10	0	0.1	0	0	390	0.3	390	391	16.0	90.1
2025-07-26T22:49	10	0	0.1	0	0	390	0.2	389	390	16.1	89.1
2025-07-26T22:50	10	0	0.1	0	0	389	0.2	389	390	16.1	88.8
2025-07-26T22:51	10	0	0.1	0	0	389	0.2	389	390	16.1	88.6
2025-07-26T22:52	10	0	0.1	0	0	389	0.3	389	390	16.2	87.6
2025-07-26T22:53	10	0	0.1	0	0	389	0.2	389	390	16.2	87.5
2025-07-26T22:54	10	0	0.1	0	0	390	0.2	389	390	16.1	89.2
2025-07-26T22:55	10	0	0.1	0	0	390	0.2	389	391	16.2	87.9
2025-07-26T22:56	10	0	0.1	0	0	390	0.3	390	391	16.1	89.6
2025-07-26T22:57	10	0	0.1	0	0	391	0.2	390	391	16.2	87.7
2025-07-26T22:58	10	0	0.1	0	0	391	0.2	390	391	16.2	88.0
2025-07-26T22:59	10	0	0.1	0	0	391	0.2	390	391	16.2	87.9
2025-07-26T23:00	10	0	0.1	0	0	390	0.2	390	391	16.1	89.7
2025-07-26T23:01	10	0	0.1	0	0	391	0.2	390	391	16.1	89.5
2025-07-26T23:02	10	0	0.1	0	0	391	0.2	390	391	16.0	90.1
2025-07-26T23:03	10	0	0.1	0	0	391	0.3	390	391	16.0	89.8
2025-07-26T23:04	10	0	0.1	0	0	391	0.3	390	391	16.0	89.9
2025-07-26T23:05	10	0	0.1	0	0	391	0.3	390	392	16.1	89.0
2025-07-26T23:06	10	0	0.1	0	0	391	0.2	390	391	16.1	89.0
2025-07-26T23:07	10	0	0.1	0	0	391	0.3	390	391	16.0	89.7
2025-07-26T23:08	10	0	0.1	0	0	390	0.4	389	391	16.0	90.4
2025-07-26T23:09	10	0	0.1	0	0	390	0.2	389	390	15.8	93.4
2025-07-26T23:10	10	0	0.1	0	0	390	0.2	389	390	15.6	94.1
2025-07-26T23:11	10	0	0.1	0	0	390	0.2	389	390	15.6	94.3
2025-07-26T23:12	10	0	0.1	0	0	390	0.2	390	390	15.6	93.7
2025-07-26T23:13	10	0	0.1	0	0	390	0.2	389	391	15.6	93.5
2025-07-26T23:14	10	0	0.1	0	0	390	0.3	389	390	15.7	93.1
2025-07-26T23:15	10	0	0.1	0	0	390	0.3	389	390	15.7	92.7
2025-07-26T23:16	10	0	0.1	0	0	390	0.2	389	390	15.8	92.1
2025-07-26T23:17	10	0	0.1	0	0	390	0.3	389	390	15.8	91.6
2025-07-26T23:18	10	0	0.1	0	0	390	0.2	389	391	15.9	90.4
2025-07-26T23:19	10	0	0.1	0	0	390	0.2	389	390	15.9	90.5
2025-07-26T23:20	10	0	0.1	0	0	390	0.2	389	390	15.9	91.2
2025-07-26T23:21	10	0	0.1	0	0	390	0.2	389	390	15.9	91.5
2025-07-26T23:22	10	0	0.1	0	0	390	0.2	389	390	15.9	90.5
2025-07-26T23:23	10	0	0.1	0	0	390	0.3	389	390	15.9	90.8
2025-07-26T23:24	10	0	0.1	0	0	390	0.2	389	390	15.9	91.1
2025-07-26T23:25	10	0	0.1	0	0	390	0.2	389	390	15.9	90.8
2025-07-26T23:26	10	0	0.1	0	0	390	0.2	389	390	15.9	90.6
2025-07-26T23:27	10	0	0.1	0	0	390	0.2	390	391	15.9	90.5
2025-07-26T23:28	10	0	0.1	0	0	390	0.2	389	390	15.9	90.6
2025-07-26T23:29	10	0	0.1	0	0	390	0.2	390	390	15.9	91.0
2025-07-26T23:30	10	0	0.1	0	0	390	0.2	389	390	15.9	90.8
2025-07-26T23:31	10	0	0.1	0	0	390	0.2	390	391	15.9	91.5
2025-07-26T23:32	10	0	0.1	0	0	390	0.2	390	391	15.8	91.7
2025-07-26T23:33	10	0	0.1	0	0	390	0.2	390	390	15.9	91.3
2025-07-26T23:34	10	0	0.1	0	0	390	0.2	390	391	15.9	91.5
2025-07-26T23:35	10	0	0.1	0	0	390	0.2	390	391	15.9	91.4
2025-07-26T23:36	10	0	0.1	0	0	390	0.2	390	391	15.9	90.9
2025-07-26T23:37	10	0	0.1	0	0	390	0.2	390	391	15.9	91.1
2025-07-26T23:38	10	0	0.1	0	0	390	0.2	390	391	15.9	91.3
2025-07-26T23:39	10	0	0.1	0	0	390	0.2	390	391	15.9	91.6
2025-07-26T23:40	10	0	0.1	0	0	390	0.2	390	391	15.9	91.4
2025-07-26T23:41	10	0	0.1	0	0	390	0.3	390	391	15.9	91.2
2025-07-26T23:42	10	0	0.1	0	0	390	0.2	390	391	15.9	91.1
2025-07-26T23:43	10	0	0.1	0	0	390	0.2	389	390	15.9	91.5
2025-07-26T23:44	10	0	0.1	0	0	390	0.2	390	391	15.9	91.3
2025-07-26T23:45	10	0	0.1	0	0	390	0.2	390	391	15.9	91.2
2025-07-26T23:46	10	0	0.1	0	0	390	0.2	390	391	15.9	91.3
2025-07-26T23:47	10	0	0.1	0	0	390	0.3	390	391	15.9	91.4
2025-07-26T23:48	10	0	0.1	0	0	390	0.2	390	391	15.9	91.5
2025-07-26T23:49	10	0	0.1	0	0	391	0.2	390	391	15.9	91.3
2025-07-26T23:50	10	0	0.1	0	0	390	0.2	390	391	15.9	91.4
2025-07-26T23:51	10	0	0.1	0	0	390	0.2	390	391	15.9	91.6
2025-07-26T23:52	10	0	0.1	0	0	390	0.2	390	391	15.8	91.9
2025-07-26T23:53	10	0	0.1	0	0	390	0.2	390	391	15.8	91.8
2025-07-26T23:54	10	0	0.1	0	0	390	0.2	390	391	15.8	91.7
2025-07-26T23:55	10	0	0.1	0	0	390	0.2	390	391	15.8	92.2
2025-07-26T23:56	10	0	0.1	0	0	390	0.2	390	391	15.8	92.0
2025-07-26T23:57	10	0	0.1	0	0	390	0.2	390	391	15.8	92.0
2025-07-26T23:58	10	0	0.1	0	0	390	0.2	390	391	15.8	92.1
2025-07-26T23:59	10	0	0.1	0	0	390	0.2	390	391	15.8	92.1
2025-07-27T00:00	10	0	0.1	0	0	391	0.2	390	391	15.8	92.3
2025-07-27T00:01	10	0	0.1	0	0	391	0.3	390	391	15.8	92.9
2025-07-27T00:02	10	0	0.1	0	0	391	0.2	391	391	15.8	92.8
2025-07-27T00:03	10	0	0.1	0	0	391	0.2	390	391	15.8	92.1
2025-07-27T00:04	10	0	0.1	0	0	391	0.2	390	391	15.8	91.9
2025-07-27T00:05	10	0	0.1	0	0	391	0.2	390	391	15.9	91.7
2025-07-27T00:06	10	0	0.1	0	0	391	0.2	390	391	15.9	91.8
2025-07-27T00:07	10	0	0.1	0	0	391	0.2	390	391	15.8	92.4
2025-07-27T00:08	10	0	0.1	0	0	391	0.2	390	391	15.8	93.4
2025-07-27T00:09	10	0	0.1	0	0	391	0.2	390	391	15.8	93.6
2025-07-27T00:10	10	0	0.1	0	0	391	0.2	390	391	15.8	92.8
2025-07-27T00:11	10	0	0.1	0	0	391	0.3	390	391	15.8	92.9
2025-07-27T00:12	10	0	0.1	0	0	390	0.2	390	391	15.8	93.3
2025-07-27T00:13	10	0	0.1	0	0	390	0.3	390	391	15.8	93.2
2025-07-27T00:14	10	0	0.1	0	0	391	0.2	390	391	15.8	93.0
2025-07-27T00:15	10	0	0.1	0	0	390	0.3	390	391	15.8	92.3
2025-07-27T00:16	10	0	0.1	0	0	390	0.3	390	391	15.8	92.9
2025-07-27T00:17	10	0	0.1	0	0	390	0.3	390	391	15.8	91.8
2025-07-27T00:18	10	0	0.1	0	0	390	0.2	390	391	16.0	90.8
2025-07-27T00:19	10	0	0.1	0	0	390	0.2	390	391	15.9	91.6
2025-07-27T00:20	10	0	0.1	0	0	390	0.2	390	390	15.9	91.7
2025-07-27T00:21	10	0	0.1	0	0	390	0.2	389	390	15.9	91.9
2025-07-27T00:22	10	0	0.1	0	0	390	0.2	389	390	15.9	92.3
2025-07-27T00:23	10	0	0.1	0	0	390	0.2	389	390	15.8	92.5
2025-07-27T00:24	10	0	0.1	0	0	390	0.2	389	390	15.8	92.1
2025-07-27T00:25	10	0	0.1	0	0	390	0.2	389	390	15.9	91.6
2025-07-27T00:26	10	0	0.1	0	0	390	0.3	389	390	15.9	90.5
2025-07-27T00:27	10	0	0.1	0	0	390	0.2	389	390	16.0	89.9
2025-07-27T00:28	10	0	0.1	0	0	389	0.2	389	390	16.0	89.7
2025-07-27T00:29	10	0	0.1	0	0	389	0.2	389	390	16.0	89.9
2025-07-27T00:30	10	0	0.1	0	0	389	0.2	389	390	16.0	89.6
2025-07-27T00:31	10	0	0.1	0	0	389	0.3	389	390	16.0	89.7
2025-07-27T00:32	10	0	0.1	0	0	389	0.2	388	389	16.0	90.7
2025-07-27T00:33	10	0	0.1	0	0	389	0.2	388	389	15.9	90.9
2025-07-27T00:34	10	0	0.1	0	0	389	0.2	388	389	15.9	91.3
2025-07-27T00:35	10	0	0.1	0	0	389	0.2	388	389	15.9	90.7
2025-07-27T00:36	10	0	0.1	0	0	389	0.2	388	389	15.9	90.5
2025-07-27T00:37	10	0	0.1	0	0	388	0.2	388	389	15.9	90.7
2025-07-27T00:38	10	0	0.1	0	0	388	0.2	388	389	15.9	91.1
2025-07-27T00:39	10	0	0.1	0	0	388	0.2	388	388	15.9	90.8
2025-07-27T00:40	10	0	0.1	0	0	388	0.2	388	388	15.9	90.8
2025-07-27T00:41	10	0	0.1	0	0	388	0.3	387	388	15.9	90.6
2025-07-27T00:42	10	0	0.1	0	0	387	0.3	387	388	15.9	91.0
2025-07-27T00:43	10	0	0.1	0	0	387	0.2	386	388	15.9	90.8
2025-07-27T00:44	10	0	0.1	0	0	387	0.2	386	387	15.9	90.4
2025-07-27T00:45	10	0	0.1	0	0	387	0.3	386	387	15.9	90.3
2025-07-27T00:46	10	0	0.1	0	0	386	0.2	386	387	15.9	90.4
2025-07-27T00:47	10	0	0.1	0	0	386	0.2	385	386	15.9	90.5
2025-07-27T00:48	10	0	0.1	0	0	385	0.4	384	386	15.9	90.5
2025-07-27T00:49	10	0	0.1	0	0	385	0.2	384	385	15.9	90.7
2025-07-27T00:50	10	0	0.1	0	0	385	0.3	384	385	15.8	90.9
2025-07-27T00:51	10	0	0.1	0	0	384	0.3	383	385	15.7	91.8
2025-07-27T00:52	10	0	0.1	0	0	384	0.2	384	385	15.7	91.9
2025-07-27T00:53	10	0	0.1	0	0	384	0.2	384	385	15.7	92.0
2025-07-27T00:54	10	0	0.1	0	0	384	0.3	383	384	15.7	92.1
2025-07-27T00:55	10	0	0.1	0	0	384	0.3	383	384	15.6	92.6
2025-07-27T00:56	10	0	0.1	0	0	384	0.3	383	385	15.6	92.4
2025-07-27T00:57	10	0	0.1	0	0	384	0.3	383	385	15.6	92.3
2025-07-27T00:58	10	0	0.1	0	0	384	0.3	383	385	15.6	92.4
2025-07-27T00:59	10	0	0.1	0	0	383	0.2	383	384	15.6	92.2
2025-07-27T01:00	10	0	0.1	0	0	384	0.2	383	384	15.6	92.0
2025-07-27T01:01	10	0	0.1	0	0	383	0.2	383	384	15.6	92.1
2025-07-27T01:02	10	0	0.1	0	0	383	0.2	383	384	15.7	91.2
2025-07-27T01:03	10	0	0.1	0	0	384	0.3	383	384	15.7	91.4
2025-07-27T01:04	10	0	0.1	0	0	383	0.2	383	384	15.7	91.6
2025-07-27T01:05	10	0	0.1	0	0	383	0.2	382	384	15.6	92.3
2025-07-27T01:06	10	0	0.1	0	0	384	0.3	383	384	15.5	93.0
2025-07-27T01:07	10	0	0.1	0	0	384	0.2	383	384	15.5	93.0
2025-07-27T01:08	10	0	0.1	0	0	384	0.2	383	384	15.5	93.2
2025-07-27T01:09	10	0	0.1	0	0	383	0.2	383	384	15.5	93.0
2025-07-27T01:10	10	0	0.1	0	0	384	0.2	383	384	15.5	93.1
2025-07-27T01:11	10	0	0.1	0	0	384	0.2	383	384	15.5	93.4
2025-07-27T01:12	10	0	0.1	0	1	384	0.3	384	385	15.5	93.5
2025-07-27T01:13	10	0	0.1	0	0	385	0.4	384	386	15.5	93.6
2025-07-27T01:14	10	0	0.1	0	0	386	0.3	385	386	15.5	93.5
2025-07-27T01:15	10	0	0.1	0	0	386	0.3	385	386	15.5	93.7
2025-07-27T01:16	10	0	0.1	0	0	386	0.3	385	386	15.5	93.8
2025-07-27T01:17	10	0	0.1	0	0	386	0.3	385	386	15.5	93.8
2025-07-27T01:18	10	0	0.1	0	0	385	0.2	385	386	15.5	94.1
2025-07-27T01:19	10	0	0.1	0	0	385	0.2	385	386	15.4	94.2
2025-07-27T01:20	10	0	0.1	0	0	385	0.3	384	386	15.4	94.4
2025-07-27T01:21	10	0	0.1	0	0	385	0.2	384	385	15.4	94.5
2025-07-27T01:22	10	0	0.1	0	0	385	0.2	385	386	15.4	94.2
2025-07-27T01:23	10	0	0.1	0	0	385	0.3	385	386	15.4	94.4
2025-07-27T01:24	10	0	0.1	0	0	386	0.3	385	386	15.4	94.4
2025-07-27T01:25	10	0	0.1	0	0	386	0.3	385	386	15.4	94.6
2025-07-27T01:26	10	0	0.1	0	0	386	0.2	386	386	15.4	94.6
2025-07-27T01:27	10	0	0.1	0	0	386	0.2	385	386	15.4	94.7
2025-07-27T01:28	10	0	0.1	0	0	386	0.2	386	387	15.4	94.8
2025-07-27T01:29	10	0	0.1	0	0	387	0.2	386	387	15.4	95.0
2025-07-27T01:30	10	0	0.1	0	0	387	0.2	386	387	15.4	94.8
2025-07-27T01:31	10	0	0.1	0	0	387	0.2	386	387	15.4	94.9
2025-07-27T01:32	10	0	0.1	0	0	387	0.2	386	387	15.4	94.8
2025-07-27T01:33	10	0	0.1	0	0	387	0.2	386	387	15.4	95.0
2025-07-27T01:34	10	0	0.1	0	0	386	0.2	386	387	15.4	94.8
2025-07-27T01:35	10	0	0.1	0	0	386	0.2	385	387	15.4	95.0
2025-07-27T01:36	10	0	0.1	0	0	386	0.2	385	386	15.4	94.8
2025-07-27T01:37	10	0	0.1	0	0	386	0.2	385	386	15.4	94.5
2025-07-27T01:38	10	0	0.1	0	0	385	0.2	385	386	15.4	94.6
2025-07-27T01:39	10	0	0.1	0	0	385	0.2	385	386	15.4	94.3
2025-07-27T01:40	10	0	0.1	0	0	385	0.2	385	386	15.4	94.2
2025-07-27T01:41	10	0	0.1	0	0	385	0.3	384	385	15.4	93.9
2025-07-27T01:42	10	0	0.1	0	0	385	0.3	384	385	15.4	93.8
2025-07-27T01:43	10	0	0.1	0	0	385	0.2	384	385	15.5	93.5
2025-07-27T01:44	10	0	0.1	0	0	385	0.3	384	385	15.5	93.3
2025-07-27T01:45	10	0	0.1	0	0	384	0.2	384	385	15.5	92.8
2025-07-27T01:46	10	0	0.1	0	0	384	0.3	383	385	15.5	92.9
2025-07-27T01:47	10	0	0.1	0	0	384	0.2	383	384	15.5	93.0
2025-07-27T01:48	10	0	0.1	0	0	384	0.2	383	384	15.5	92.9
2025-07-27T01:49	10	0	0.1	0	0	384	0.2	383	384	15.4	93.4
2025-07-27T01:50	10	0	0.1	0	0	384	0.2	383	384	15.4	93.3
2025-07-27T01:51	10	0	0.1	0	0	384	0.2	383	384	15.4	93.1
2025-07-27T01:52	10	0	0.1	0	0	384	0.2	383	384	15.4	92.9
2025-07-27T01:53	10	0	0.1	0	0	383	0.2	383	384	15.4	93.1
2025-07-27T01:54	10	0	0.1	0	0	383	0.3	383	384	15.4	92.7
2025-07-27T01:55	10	0	0.1	0	0	383	0.2	383	384	15.4	92.3
2025-07-27T01:56	10	0	0.1	0	0	383	0.2	383	383	15.5	91.9
2025-07-27T01:57	10	0	0.1	0	0	383	0.2	382	384	15.5	91.8
2025-07-27T01:58	10	0	0.1	0	0	383	0.2	382	383	15.5	91.8
2025-07-27T01:59	10	0	0.1	0	0	383	0.2	382	383	15.5	91.6
2025-07-27T02:00	10	0	0.1	0	0	383	0.2	382	383	15.5	91.4
2025-07-27T02:01	10	0	0.1	0	0	383	0.2	383	384	15.5	91.6
2025-07-27T02:02	10	0	0.1	0	0	383	0.2	382	383	15.4	91.8
2025-07-27T02:03	10	0	0.1	0	0	383	0.2	383	384	15.4	91.9
2025-07-27T02:04	10	0	0.1	0	0	383	0.3	382	384	15.4	91.9
2025-07-27T02:05	10	0	0.1	0	0	383	0.3	382	384	15.4	91.9
2025-07-27T02:06	10	0	0.1	0	0	383	0.2	382	383	15.4	92.2
2025-07-27T02:07	10	0	0.1	0	0	383	0.3	382	384	15.4	92.3
2025-07-27T02:08	10	0	0.1	0	0	384	0.3	383	384	15.4	92.3
2025-07-27T02:09	10	0	0.1	0	0	384	0.2	384	384	15.4	92.4
2025-07-27T02:10	10	0	0.1	0	0	384	0.4	383	385	15.3	92.7
2025-07-27T02:11	10	0	0.1	0	0	385	0.2	384	385	15.4	92.6
2025-07-27T02:12	10	0	0.1	0	0	385	0.2	385	386	15.4	92.6
2025-07-27T02:13	10	0	0.1	0	0	386	0.3	385	386	15.4	92.6
2025-07-27T02:14	10	0	0.1	0	0	386	0.2	385	386	15.4	92.8
2025-07-27T02:15	10	0	0.1	0	0	386	0.2	385	387	15.3	92.9
2025-07-27T02:16	10	0	0.1	0	0	386	0.2	386	387	15.3	93.2
2025-07-27T02:17	10	0	0.1	0	0	387	0.3	386	387	15.3	92.9
2025-07-27T02:18	10	0	0.1	0	0	387	0.2	386	387	15.4	92.8
2025-07-27T02:19	10	0	0.1	0	0	387	0.2	387	388	15.4	92.5
2025-07-27T02:20	10	0	0.1	0	0	387	0.2	387	388	15.5	92.2
2025-07-27T02:21	10	0	0.1	0	0	387	0.3	387	388	15.5	92.1
2025-07-27T02:22	10	0	0.1	0	0	387	0.3	387	388	15.5	92.1
2025-07-27T02:23	10	0	0.1	0	0	388	0.2	387	388	15.5	92.1
2025-07-27T02:24	10	0	0.1	0	0	388	0.2	387	388	15.5	91.7
2025-07-27T02:25	10	0	0.1	0	0	388	0.2	387	388	15.5	92.0
2025-07-27T02:26	10	0	0.1	0	0	388	0.2	387	388	15.5	92.2
2025-07-27T02:27	10	0	0.1	0	0	388	0.2	387	388	15.5	92.2
2025-07-27T02:28	10	0	0.1	0	0	388	0.2	387	388	15.5	92.0
2025-07-27T02:29	10	0	0.1	0	0	388	0.2	387	388	15.5	92.3
2025-07-27T02:30	10	0	0.1	0	0	388	0.3	387	388	15.5	92.8
2025-07-27T02:31	10	0	0.1	0	0	388	0.2	388	388	15.5	92.5
2025-07-27T02:32	10	0	0.1	0	0	388	0.3	387	389	15.5	92.7
2025-07-27T02:33	10	0	0.1	0	0	388	0.3	388	389	15.5	92.2
2025-07-27T02:34	10	0	0.1	0	0	388	0.3	388	389	15.6	91.9
2025-07-27T02:35	10	0	0.1	0	0	388	0.2	387	389	15.6	92.1
2025-07-27T02:36	10	0	0.1	0	0	388	0.2	388	388	15.5	92.3
2025-07-27T02:37	10	0	0.1	0	0	388	0.2	388	388	15.5	92.9
2025-07-27T02:38	10	0	0.1	0	0	388	0.3	387	388	15.5	92.3
2025-07-27T02:39	10	0	0.1	0	0	388	0.3	387	388	15.6	92.2
2025-07-27T02:40	10	0	0.1	0	0	388	0.2	388	388	15.6	92.2
2025-07-27T02:41	10	0	0.1	0	0	388	0.2	388	388	15.6	91.8
2025-07-27T02:42	10	0	0.1	0	0	388	0.2	387	389	15.6	91.8
2025-07-27T02:43	10	0	0.1	0	0	388	0.3	387	388	15.6	91.8
2025-07-27T02:44	10	0	0.1	0	0	388	0.2	387	388	15.6	91.9
2025-07-27T02:45	10	0	0.1	0	0	388	0.2	387	388	15.6	91.8
2025-07-27T02:46	10	0	0.1	0	0	388	0.3	387	389	15.6	91.5
2025-07-27T02:47	10	0	0.1	0	0	388	0.2	388	389	15.7	91.3
2025-07-27T02:48	10	0	0.1	0	0	388	0.3	387	388	15.6	91.7
2025-07-27T02:49	10	0	0.1	0	0	388	0.2	387	388	15.6	92.2
2025-07-27T02:50	10	0	0.1	0	0	388	0.2	387	388	15.6	92.1
2025-07-27T02:51	10	0	0.1	0	0	388	0.2	387	388	15.6	91.7
2025-07-27T02:52	10	0	0.1	0	0	388	0.2	387	388	15.7	91.4
2025-07-27T02:53	10	0	0.1	0	0	388	0.2	388	389	15.7	91.3
2025-07-27T02:54	10	0	0.1	0	0	388	0.2	387	389	15.7	91.4
2025-07-27T02:55	10	0	0.1	0	0	388	0.2	387	388	15.7	91.4
2025-07-27T02:56	10	0	0.1	0	0	388	0.2	387	388	15.7	91.5
2025-07-27T02:57	10	0	0.1	0	0	388	0.3	387	388	15.7	91.9
2025-07-27T02:58	10	0	0.1	0	0	388	0.2	387	388	15.6	92.2
2025-07-27T02:59	10	0	0.1	0	0	388	0.2	387	388	15.6	92.5
2025-07-27T03:00	10	0	0.1	0	0	388	0.2	387	388	15.6	92.3
2025-07-27T03:01	10	0	0.1	0	0	388	0.3	387	388	15.6	92.2
2025-07-27T03:02	10	0	0.1	0	0	388	0.2	387	388	15.7	92.0
2025-07-27T03:03	10	0	0.1	0	0	387	0.3	387	388	15.6	92.2
2025-07-27T03:04	10	0	0.1	0	0	387	0.2	387	388	15.6	92.4
2025-07-27T03:05	10	0	0.1	0	0	387	0.2	387	387	15.6	92.9
2025-07-27T03:06	10	0	0.1	0	0	387	0.2	386	387	15.5	93.0
2025-07-27T03:07	10	0	0.1	0	0	387	0.3	386	388	15.6	92.7
2025-07-27T03:08	10	0	0.1	0	0	387	0.4	386	388	15.6	92.9
2025-07-27T03:09	10	0	0.1	0	0	387	0.2	387	387	15.6	92.6
2025-07-27T03:10	10	0	0.1	0	0	387	0.2	387	388	15.6	92.6
2025-07-27T03:11	10	0	0.1	0	0	387	0.2	387	388	15.6	92.6
2025-07-27T03:12	10	0	0.1	0	0	387	0.2	387	388	15.6	92.4
2025-07-27T03:13	10	0	0.1	0	0	387	0.2	387	388	15.6	92.3
2025-07-27T03:14	10	0	0.1	0	0	387	0.3	387	388	15.6	92.2
2025-07-27T03:15	10	0	0.1	0	0	387	0.2	387	388	15.7	92.1
2025-07-27T03:16	10	0	0.1	0	0	388	0.3	387	388	15.7	92.1
2025-07-27T03:17	10	0	0.1	0	0	388	0.2	387	388	15.6	92.4
2025-07-27T03:18	10	0	0.1	0	0	388	0.1	388	388	15.6	92.4
2025-07-27T03:19	10	0	0.1	0	0	388	0.2	388	388	15.7	92.4
2025-07-27T03:20	10	0	0.1	0	0	388	0.2	388	388	15.7	92.4
2025-07-27T03:21	10	0	0.1	0	0	388	0.3	387	389	15.6	92.7
2025-07-27T03:22	10	0	0.1	0	0	388	0.2	388	389	15.7	92.4
2025-07-27T03:23	10	0	0.1	0	0	388	0.3	387	389	15.6	92.7
2025-07-27T03:24	10	0	0.1	0	0	388	0.2	388	388	15.7	92.5
2025-07-27T03:25	10	0	0.1	0	0	388	0.3	387	389	15.7	92.6
2025-07-27T03:26	10	0	0.1	0	0	388	0.3	387	389	15.7	92.7
2025-07-27T03:27	10	0	0.1	0	0	388	0.2	388	389	15.7	92.6
2025-07-27T03:28	10	0	0.1	0	0	388	0.2	388	389	15.7	92.6
2025-07-27T03:29	10	0	0.1	0	0	388	0.2	388	389	15.7	92.6
2025-07-27T03:30	10	0	0.1	0	0	389	0.2	388	389	15.7	92.4
2025-07-27T03:31	10	0	0.1	0	0	388	0.2	388	389	15.7	92.7
2025-07-27T03:32	10	0	0.1	0	0	388	0.2	388	389	15.7	92.7
2025-07-27T03:33	10	0	0.1	0	0	389	0.2	388	389	15.7	92.7
2025-07-27T03:34	10	0	0.1	0	0	389	0.2	388	389	15.7	92.6
2025-07-27T03:35	10	0	0.1	0	0	389	0.2	388	389	15.7	92.6
2025-07-27T03:36	10	0	0.1	0	0	389	0.2	388	389	15.7	92.8
2025-07-27T03:37	10	0	0.1	0	0	389	0.2	388	389	15.7	92.8
2025-07-27T03:38	10	0	0.1	0	0	389	0.3	388	390	15.7	93.1
2025-07-27T03:39	10	0	0.1	0	0	389	0.2	389	390	15.6	93.2
2025-07-27T03:40	10	0	0.1	0	0	389	0.3	388	390	15.6	93.1
2025-07-27T03:41	10	0	0.1	0	0	389	0.2	389	390	15.6	93.2
2025-07-27T03:42	10	0	0.1	0	0	389	0.2	389	390	15.7	93.2
2025-07-27T03:43	10	0	0.1	0	0	389	0.3	389	390	15.7	92.8
2025-07-27T03:44	10	0	0.1	0	0	389	0.2	388	389	15.7	92.9
2025-07-27T03:45	10	0	0.1	0	0	389	0.3	389	390	15.8	92.7
2025-07-27T03:46	10	0	0.1	0	0	389	0.2	389	390	15.8	92.8
2025-07-27T03:47	10	0	0.1	0	0	389	0.3	388	390	15.8	92.8
2025-07-27T03:48	10	0	0.1	0	0	389	0.2	389	390	15.8	92.9
2025-07-27T03:49	10	0	0.1	0	0	389	0.2	389	390	15.8	92.9
2025-07-27T03:50	10	0	0.1	0	0	389	0.2	389	390	15.8	92.6
2025-07-27T03:51	10	0	0.1	0	0	389	0.2	389	390	15.9	92.7
2025-07-27T03:52	10	0	0.1	0	0	389	0.3	389	390	15.8	92.8
2025-07-27T03:53	10	0	0.1	0	0	389	0.2	389	390	15.8	93.1
2025-07-27T03:54	10	0	0.1	0	0	389	0.2	389	390	15.8	92.8
2025-07-27T03:55	10	0	0.1	0	0	390	0.2	389	390	15.8	92.9
2025-07-27T03:56	10	0	0.1	0	0	390	0.2	390	391	15.9	92.6
2025-07-27T03:57	10	0	0.1	0	0	390	0.2	389	390	15.9	92.5
2025-07-27T03:58	10	0	0.1	0	0	390	0.2	390	391	15.9	92.3
2025-07-27T03:59	10	0	0.1	0	0	390	0.2	390	391	16.0	92.4
2025-07-27T04:00	10	0	0.1	0	0	390	0.2	390	391	16.0	92.3
2025-07-27T04:01	10	0	0.1	0	0	390	0.2	390	391	16.0	92.4
2025-07-27T04:02	10	0	0.1	0	0	390	0.2	390	391	16.0	92.6
2025-07-27T04:03	10	0	0.1	0	0	390	0.2	390	391	16.0	92.2
2025-07-27T04:04	10	0	0.1	0	1	390	0.3	390	391	16.0	92.1
2025-07-27T04:05	10	0	0.1	0	0	390	0.2	390	391	16.0	92.3
2025-07-27T04:06	10	0	0.1	0	0	390	0.2	390	391	16.0	92.5
2025-07-27T04:07	10	0	0.1	0	1	390	0.3	390	391	16.0	92.1
2025-07-27T04:08	10	0	0.1	0	1	390	0.2	390	390	16.0	92.5
2025-07-27T04:09	10	0	0.1	0	0	390	0.2	389	390	15.9	93.0
2025-07-27T04:10	10	0	0.1	0	1	390	0.2	389	390	15.9	92.9
2025-07-27T04:11	10	0	0.1	0	1	390	0.3	389	390	15.9	93.1
2025-07-27T04:12	10	0	0.1	0	1	390	0.3	389	390	15.9	93.0
2025-07-27T04:13	10	0	0.1	0	1	390	0.2	389	390	15.9	93.1
2025-07-27T04:14	10	1	0.1	0	1	389	0.2	389	390	15.9	93.1
2025-07-27T04:15	10	1	0.1	0	1	389	0.2	389	390	15.9	93.1
2025-07-27T04:16	10	1	0.1	0	1	389	0.2	388	389	15.9	93.1
2025-07-27T04:17	10	1	0.1	0	1	389	0.3	388	389	15.9	93.2
2025-07-27T04:18	10	1	0.1	1	1	388	0.3	388	389	15.8	93.5
2025-07-27T04:19	10	1	0.1	1	1	388	0.2	387	388	15.8	93.6
2025-07-27T04:20	10	1	0.1	1	1	388	0.2	387	388	15.8	93.4
2025-07-27T04:21	10	1	0.1	1	1	387	0.3	386	388	15.8	93.4
2025-07-27T04:22	10	1	0.1	1	1	387	0.2	386	387	15.8	93.5
2025-07-27T04:23	10	1	0.1	1	1	386	0.2	385	387	15.8	93.7
2025-07-27T04:24	10	1	0.1	1	1	386	0.2	386	387	15.8	93.6
2025-07-27T04:25	10	1	0.1	1	1	386	0.3	386	387	15.8	93.3
2025-07-27T04:26	10	1	0.1	1	1	387	0.3	386	387	15.8	93.4
2025-07-27T04:27	10	1	0.1	1	1	387	0.3	387	388	15.8	93.4
2025-07-27T04:28	10	1	0.1	1	1	388	0.3	387	388	15.8	93.6
2025-07-27T04:29	10	1	0.1	1	1	388	0.2	388	389	15.8	93.8
2025-07-27T04:30	10	1	0.1	1	1	388	0.2	388	389	15.8	93.9
2025-07-27T04:31	10	1	0.1	1	1	389	0.3	388	389	15.8	93.9
2025-07-27T04:32	10	1	0.1	1	1	389	0.3	388	389	15.8	94.1
2025-07-27T04:33	10	1	0.1	1	2	389	0.3	389	390	15.8	93.6
2025-07-27T04:34	10	1	0.1	1	2	389	0.2	389	390	15.8	93.5
2025-07-27T04:35	10	1	0.1	1	2	389	0.2	389	390	15.8	93.5
2025-07-27T04:36	10	2	0.1	1	2	389	0.2	389	390	15.9	93.1
2025-07-27T04:37	10	2	0.1	1	2	389	0.2	389	390	15.8	93.3
2025-07-27T04:38	10	2	0.1	2	2	389	0.2	389	390	15.8	93.1
2025-07-27T04:39	10	2	0.1	2	2	389	0.2	389	390	15.8	93.1
2025-07-27T04:40	10	2	0.1	2	2	390	0.2	389	390	15.9	92.8
2025-07-27T04:41	10	2	0.1	2	2	389	0.2	389	390	15.9	92.8
2025-07-27T04:42	10	2	0.1	2	2	389	0.2	389	389	15.9	93.2
2025-07-27T04:43	10	2	0.1	2	3	389	0.3	389	390	15.9	93.2
2025-07-27T04:44	10	3	0.1	2	3	389	0.2	389	390	15.9	93.0
2025-07-27T04:45	10	3	0.1	2	3	389	0.2	389	390	15.9	93.3
2025-07-27T04:46	10	3	0.2	3	4	389	0.2	389	390	15.9	93.4
2025-07-27T04:47	10	3	0.1	3	4	389	0.2	389	390	15.9	93.4
2025-07-27T04:48	10	4	0.2	3	4	389	0.2	389	389	15.9	93.5
2025-07-27T04:49	10	4	0.1	4	4	389	0.2	389	390	15.9	93.6
2025-07-27T04:50	10	5	0.1	4	5	389	0.2	389	390	15.8	93.8
2025-07-27T04:51	10	5	0.1	5	5	389	0.3	389	390	15.9	93.6
2025-07-27T04:52	10	5	0.1	5	6	389	0.2	389	390	15.9	93.6
2025-07-27T04:53	10	5	0.1	5	6	390	0.2	389	390	15.9	93.5
2025-07-27T04:54	10	6	0.2	5	6	390	0.2	389	390	15.9	93.7
2025-07-27T04:55	10	6	0.1	6	6	390	0.3	390	391	15.9	93.5
2025-07-27T04:56	10	6	0.2	5	6	390	0.3	390	391	15.9	93.6
2025-07-27T04:57	10	6	0.1	5	6	391	0.3	390	391	15.9	93.4
2025-07-27T04:58	10	6	0.3	6	7	391	0.2	390	391	15.9	93.4
2025-07-27T04:59	10	7	0.4	7	8	391	0.2	391	391	15.9	93.4
2025-07-27T05:00	10	8	0.4	8	9	391	0.2	391	392	15.9	93.7
2025-07-27T05:01	10	9	0.3	9	10	391	0.3	391	392	15.9	93.7
2025-07-27T05:02	10	10	0.2	10	11	392	0.2	391	392	15.9	93.7
2025-07-27T05:03	10	10	0.1	10	11	392	0.2	391	393	16.0	93.8
2025-07-27T05:04	10	11	0.2	11	11	392	0.3	391	392	16.0	93.6
2025-07-27T05:05	10	11	0.1	11	11	392	0.2	392	393	16.0	93.6
2025-07-27T05:06	10	11	0.2	10	11	392	0.2	392	393	16.0	93.4
2025-07-27T05:07	10	10	0.3	9	10	392	0.2	392	393	16.0	93.3
2025-07-27T05:08	10	9	0.5	8	10	392	0.3	392	393	16.0	93.5
2025-07-27T05:09	10	8	0.2	7	8	392	0.3	391	393	16.0	93.2
2025-07-27T05:10	10	8	0.3	7	8	392	0.2	391	392	16.1	93.4
2025-07-27T05:11	10	9	0.4	8	10	392	0.3	391	392	16.1	93.1
2025-07-27T05:12	10	10	0.4	10	11	392	0.2	391	392	16.1	92.8
2025-07-27T05:13	10	11	0.4	11	12	392	0.2	391	393	16.1	92.8
2025-07-27T05:14	10	13	0.3	12	13	392	0.2	391	393	16.2	92.8
2025-07-27T05:15	10	14	0.2	13	14	392	0.2	392	393	16.2	92.7
2025-07-27T05:16	10	14	0.2	14	15	392	0.2	392	393	16.2	92.8
2025-07-27T05:17	10	15	0.2	15	15	393	0.2	392	393	16.2	92.5
2025-07-27T05:18	10	16	0.2	15	16	393	0.3	392	393	16.2	92.7
2025-07-27T05:19	10	17	0.2	16	17	393	0.2	393	394	16.2	92.4
2025-07-27T05:20	10	17	0.3	17	18	393	0.2	393	394	16.3	92.5
2025-07-27T05:21	10	18	0.3	18	19	394	0.2	393	394	16.2	92.6
2025-07-27T05:22	10	19	0.2	19	20	394	0.3	394	395	16.3	92.9
2025-07-27T05:23	10	21	1.9	19	26	395	0.3	394	395	16.3	92.8
2025-07-27T05:24	10	35	4.4	26	40	396	0.6	394	397	16.3	92.2
2025-07-27T05:25	10	41	0.5	40	42	397	0.4	396	398	16.3	92.4
2025-07-27T05:26	10	42	0.4	42	43	398	0.3	397	398	16.4	91.9
2025-07-27T05:27	10	44	0.3	43	44	398	0.3	398	399	16.5	91.5
2025-07-27T05:28	10	44	0.5	43	45	399	0.2	398	399	16.5	91.2
2025-07-27T05:29	10	41	0.8	40	43	399	0.2	399	400	16.5	91.6
2025-07-27T05:30	10	40	0.2	39	40	400	0.3	399	400	16.5	91.7
2025-07-27T05:31	10	43	1.3	40	45	401	0.3	400	401	16.5	91.8
2025-07-27T05:32	10	47	1.2	45	49	401	0.3	401	402	16.6	91.7
2025-07-27T05:33	10	50	0.7	49	51	402	0.2	401	402	16.6	91.6
2025-07-27T05:34	10	52	0.2	51	52	402	0.3	402	403	16.6	91.2
2025-07-27T05:35	10	52	0.2	52	53	403	0.4	403	404	16.7	91.6
2025-07-27T05:36	10	50	1.2	48	52	404	0.2	404	405	16.7	91.3
2025-07-27T05:37	10	53	0.3	52	54	405	0.2	404	405	16.8	90.7
2025-07-27T05:38	10	54	0.1	54	54	405	0.2	404	405	17.0	91.2
2025-07-27T05:39	10	52	2.6	47	54	405	0.3	404	406	17.0	91.1
2025-07-27T05:40	10	39	7.3	28	49	405	0.8	403	406	17.1	91.6
2025-07-27T05:41	10	28	1.0	26	30	403	1.1	401	405	17.0	90.6
2025-07-27T05:42	10	29	1.5	27	32	401	0.4	400	402	17.0	89.9
2025-07-27T05:43	10	37	6.6	29	48	400	0.3	400	401	16.9	89.7
2025-07-27T05:44	10	25	2.1	23	30	400	0.5	399	401	16.9	90.2
2025-07-27T05:45	10	38	8.5	26	48	400	0.6	399	401	16.9	90.6
2025-07-27T05:46	10	32	9.5	21	45	400	0.7	398	401	16.9	90.0
2025-07-27T05:47	10	20	0.5	19	21	399	0.5	398	400	16.9	90.0
2025-07-27T05:48	10	20	2.1	19	24	398	0.3	397	398	16.9	90.4
2025-07-27T05:49	10	19	1.4	17	23	398	0.2	398	399	16.9	90.8
2025-07-27T05:50	10	17	0.2	17	18	398	0.3	397	398	16.9	90.7
2025-07-27T05:51	10	17	0.1	17	17	397	0.2	397	397	16.9	90.9
2025-07-27T05:52	10	17	0.1	17	17	397	0.3	396	398	16.9	90.7
2025-07-27T05:53	10	17	0.1	17	17	397	0.3	396	397	16.9	90.9
2025-07-27T05:54	10	17	0.2	17	18	397	0.2	396	397	16.8	90.4
2025-07-27T05:55	10	19	1.1	18	21	397	0.2	396	397	16.8	90.5
2025-07-27T05:56	10	18	0.4	18	19	397	0.2	396	397	16.8	90.5
2025-07-27T05:57	10	18	0.1	18	19	397	0.2	396	397	16.8	90.0
2025-07-27T05:58	10	19	0.6	18	20	397	0.2	396	397	16.9	90.0
2025-07-27T05:59	10	29	8.4	19	40	397	0.7	396	398	16.9	90.1
2025-07-27T06:00	10	39	0.6	38	40	399	0.6	398	400	16.9	90.1
2025-07-27T06:01	10	39	5.1	30	46	400	0.4	399	401	16.9	90.0
2025-07-27T06:02	10	37	2.2	31	42	400	0.4	400	401	17.0	89.9
2025-07-27T06:03	10	56	4.8	42	60	402	0.9	400	403	17.0	90.1
2025-07-27T06:04	10	59	0.4	59	60	403	0.5	402	404	17.0	89.2
2025-07-27T06:05	10	53	5.1	45	60	404	0.3	403	404	17.1	89.2
2025-07-27T06:06	10	59	4.0	50	63	404	0.8	403	406	17.2	89.1
2025-07-27T06:07	10	63	0.2	63	64	406	0.4	405	407	17.2	89.0
2025-07-27T06:08	10	64	0.1	63	64	407	0.3	406	407	17.3	88.8
2025-07-27T06:09	10	64	0.2	63	64	407	0.4	406	408	17.3	88.3
2025-07-27T06:10	10	64	0.1	63	64	408	0.4	407	408	17.4	88.9
2025-07-27T06:11	10	64	0.2	63	64	407	0.3	407	408	17.5	87.6
2025-07-27T06:12	10	64	0.2	63	65	407	0.3	407	408	17.5	87.8
2025-07-27T06:13	10	65	0.4	64	65	408	0.2	407	408	17.5	87.4
2025-07-27T06:14	10	65	1.3	63	67	408	0.4	407	409	17.6	87.4
2025-07-27T06:15	10	61	5.2	52	67	408	0.4	408	409	17.6	88.1
2025-07-27T06:16	10	68	4.6	59	72	409	0.7	408	410	17.7	87.9
2025-07-27T06:17	10	72	0.6	71	73	411	0.2	410	412	17.8	88.7
2025-07-27T06:18	10	74	1.2	72	76	411	0.4	410	412	17.8	87.2
2025-07-27T06:19	10	78	1.8	75	81	411	0.5	410	412	17.7	85.7
2025-07-27T06:20	10	83	0.9	81	84	413	0.4	412	414	17.8	86.3
2025-07-27T06:21	10	84	0.4	84	85	413	0.4	412	414	17.9	86.0
2025-07-27T06:22	10	87	1.2	85	90	413	0.5	412	414	17.9	85.9
2025-07-27T06:23	10	84	5.4	75	90	414	0.3	413	415	17.9	85.8
2025-07-27T06:24	10	93	1.5	87	94	415	0.4	414	416	18.0	85.9
2025-07-27T06:25	10	85	8.2	71	94	415	0.9	414	416	18.0	85.1
2025-07-27T06:26	10	66	11.5	54	89	413	1.2	411	415	18.0	85.2
2025-07-27T06:27	10	73	8.0	59	86	412	0.6	412	413	18.0	84.9
2025-07-27T06:28	10	64	6.9	55	75	412	0.5	411	413	18.0	85.2
2025-07-27T06:29	10	51	2.4	49	58	410	0.7	409	412	17.9	84.9
2025-07-27T06:30	10	55	3.0	51	60	410	0.5	409	411	17.9	85.2
2025-07-27T06:31	10	58	10.2	51	88	410	0.5	409	411	18.0	85.4
2025-07-27T06:32	10	87	3.5	79	94	412	1.4	410	415	18.0	85.3
2025-07-27T06:33	10	64	6.8	55	77	414	0.5	413	415	18.0	85.6
2025-07-27T06:34	10	59	2.5	57	69	413	0.3	412	413	18.1	85.0
2025-07-27T06:35	10	74	5.9	64	81	413	0.6	413	415	18.1	84.6
2025-07-27T06:36	10	60	3.1	57	67	413	0.7	411	414	18.2	84.4
2025-07-27T06:37	10	66	3.8	60	73	412	0.3	411	413	18.1	83.5
2025-07-27T06:38	10	61	3.3	58	68	412	0.4	411	413	18.1	83.6
2025-07-27T06:39	10	58	0.6	58	60	413	0.4	412	414	18.2	83.8
2025-07-27T06:40	10	57	0.3	57	58	414	0.2	413	414	18.3	84.2
2025-07-27T06:41	10	57	0.2	57	58	414	0.6	412	415	18.3	83.4
2025-07-27T06:42	10	58	0.4	57	59	412	0.3	412	413	18.2	82.1
2025-07-27T06:43	10	61	2.4	59	67	413	0.3	412	413	18.3	83.1
2025-07-27T06:44	10	64	2.9	60	69	414	0.7	412	415	18.3	81.2
2025-07-27T06:45	10	62	2.0	60	70	413	0.5	412	413	18.3	81.0
2025-07-27T06:46	10	79	11.8	59	96	414	1.2	411	416	18.4	80.5
2025-07-27T06:47	10	58	0.6	57	59	414	0.5	413	415	18.5	82.1
2025-07-27T06:48	10	57	0.4	57	58	413	0.3	413	414	18.5	81.3
2025-07-27T06:49	10	72	11.4	58	100	414	1.2	413	417	18.6	81.2
2025-07-27T06:50	10	103	1.4	101	106	418	1.0	416	420	18.6	80.7
2025-07-27T06:51	10	96	5.7	84	102	419	0.6	418	420	18.7	79.4
2025-07-27T06:52	10	62	10.5	52	83	417	1.8	414	419	18.7	80.2
2025-07-27T06:53	10	67	12.3	53	96	414	0.6	413	416	18.7	79.5
2025-07-27T06:54	10	91	9.5	76	101	417	0.5	415	417	18.6	78.9
2025-07-27T06:55	10	87	1.8	82	90	418	0.8	416	419	18.7	79.4
2025-07-27T06:56	10	64	9.1	52	82	417	1.2	415	419	18.9	79.4
2025-07-27T06:57	10	53	1.1	51	55	414	1.4	412	416	18.9	78.1
2025-07-27T06:58	10	60	2.5	55	65	414	0.4	413	414	18.9	78.7
2025-07-27T06:59	10	62	2.7	57	66	413	0.2	413	414	18.8	77.7
2025-07-27T07:00	10	49	4.9	40	57	413	0.3	413	414	18.9	78.8
2025-07-27T07:01	10	36	1.4	35	40	412	0.8	411	413	18.9	77.6
2025-07-27T07:02	10	35	0.2	34	35	411	0.4	410	412	18.8	78.0
2025-07-27T07:03	10	35	0.2	34	35	410	0.4	410	411	18.8	78.8
2025-07-27T07:04	10	38	2.6	35	46	410	0.3	409	411	18.8	78.1
2025-07-27T07:05	10	71	11.0	46	81	412	1.5	409	414	18.7	77.5
2025-07-27T07:06	10	68	7.7	60	85	414	0.8	413	416	18.8	77.5
2025-07-27T07:07	10	92	3.6	85	96	418	1.7	415	420	18.8	77.5
2025-07-27T07:08	10	95	1.3	93	97	420	0.5	419	421	18.9	77.7
2025-07-27T07:09	10	93	2.1	90	97	420	0.4	419	421	18.9	77.6
2025-07-27T07:10	10	88	4.1	82	93	421	0.5	420	422	19.0	78.6
2025-07-27T07:11	10	83	2.6	80	88	420	0.6	419	421	19.0	78.9
2025-07-27T07:12	10	86	1.3	84	88	419	0.4	418	420	18.9	79.0
2025-07-27T07:13	10	89	3.6	85	97	421	0.6	419	422	18.8	78.5
2025-07-27T07:14	10	105	3.9	98	110	423	1.0	421	425	18.9	79.5
2025-07-27T07:15	10	112	1.5	110	115	425	0.7	424	427	19.0	79.6
2025-07-27T07:16	10	115	0.3	115	116	425	0.7	424	427	18.9	78.8
2025-07-27T07:17	10	113	2.0	109	115	427	0.9	426	429	19.0	80.2
2025-07-27T07:18	10	107	4.2	101	113	427	1.4	425	429	19.1	80.2
2025-07-27T07:19	10	106	1.4	104	109	426	1.2	424	427	19.1	78.4
2025-07-27T07:20	10	114	2.3	109	118	424	0.5	423	425	19.0	78.1
2025-07-27T07:21	10	120	2.1	117	123	427	1.0	425	429	19.1	79.0
2025-07-27T07:22	10	99	15.9	74	121	427	1.2	425	429	19.3	78.8
2025-07-27T07:23	10	84	3.8	74	89	425	0.5	424	426	19.3	78.6
2025-07-27T07:24	10	88	2.8	85	93	425	0.4	425	426	19.5	79.3
2025-07-27T07:25	10	80	3.8	74	85	424	0.9	423	426	19.5	76.8
2025-07-27T07:26	10	76	1.9	73	79	422	1.1	419	424	19.4	75.1
2025-07-27T07:27	10	71	2.4	69	75	419	0.7	418	421	19.2	75.7
2025-07-27T07:28	10	67	2.0	63	70	419	0.4	418	419	19.2	76.0
2025-07-27T07:29	10	56	4.2	51	63	417	1.2	415	419	19.2	75.8
2025-07-27T07:30	10	50	0.9	48	51	415	0.7	414	417	19.2	74.6
2025-07-27T07:31	10	46	1.8	41	48	415	0.2	414	415	19.2	75.4
2025-07-27T07:32	10	38	1.4	36	41	414	0.6	413	415	19.2	75.9
2025-07-27T07:33	10	35	0.6	34	36	412	0.5	411	413	19.1	76.4
2025-07-27T07:34	10	34	0.1	34	34	412	0.3	411	413	19.1	76.8
2025-07-27T07:35	10	36	1.4	34	39	411	0.2	411	412	19.1	76.5
2025-07-27T07:36	10	45	4.7	39	56	412	0.9	411	415	19.1	77.1
2025-07-27T07:37	10	76	15.6	56	97	416	2.0	413	420	19.1	77.2
2025-07-27T07:38	10	86	6.8	76	97	421	1.3	418	423	19.2	77.8
2025-07-27T07:39	10	67	3.2	63	76	422	0.3	421	422	19.2	77.2
2025-07-27T07:40	10	61	0.9	60	63	421	0.5	419	422	19.3	76.5
2025-07-27T07:41	10	60	0.3	60	61	419	0.5	418	420	19.2	75.4
2025-07-27T07:42	10	64	2.9	60	70	419	0.5	418	420	19.2	75.7
2025-07-27T07:43	10	59	0.4	59	60	418	0.4	418	419	19.2	76.7
2025-07-27T07:44	10	61	1.6	59	64	418	0.4	417	419	19.2	75.7
2025-07-27T07:45	10	78	12.7	64	114	421	1.6	418	424	19.2	76.5
2025-07-27T07:46	10	134	8.7	116	143	428	2.7	422	432	19.3	76.4
2025-07-27T07:47	10	123	8.3	110	138	432	0.6	431	433	19.5	76.8
2025-07-27T07:48	10	108	10.0	96	131	431	1.5	429	434	19.6	75.1
2025-07-27T07:49	10	132	13.4	101	145	433	1.6	431	435	19.6	74.6
2025-07-27T07:50	10	99	15.9	82	133	432	2.3	429	436	19.8	75.2
2025-07-27T07:51	10	92	12.5	76	117	428	1.3	426	431	19.7	73.2
2025-07-27T07:52	10	78	2.1	76	83	428	0.6	426	429	19.7	74.1
2025-07-27T07:53	10	99	12.1	80	115	429	1.5	427	431	19.9	74.2
2025-07-27T07:54	10	113	7.5	95	122	431	0.4	430	432	19.9	72.9
2025-07-27T07:55	10	104	10.7	91	126	432	0.4	432	433	20.1	74.5
2025-07-27T07:56	10	116	5.5	105	126	431	0.8	430	433	20.0	71.1
2025-07-27T07:57	10	108	7.6	92	119	431	0.4	430	432	20.0	71.8
2025-07-27T07:58	10	94	3.9	89	102	429	0.5	429	431	19.8	71.4
2025-07-27T07:59	10	96	6.4	86	106	429	0.5	428	430	19.8	71.4
2025-07-27T08:00	10	94	9.6	86	115	428	0.9	426	429	19.9	70.8
2025-07-27T08:01	10	92	6.7	85	108	427	1.2	425	430	19.8	69.4
2025-07-27T08:02	10	85	1.7	84	90	426	0.6	425	428	19.7	69.9
2025-07-27T08:03	10	82	1.3	81	84	427	0.6	425	427	19.8	70.6
2025-07-27T08:04	10	81	0.2	80	81	426	0.5	425	427	19.9	71.3
2025-07-27T08:05	10	83	1.0	81	84	428	0.9	426	430	20.0	73.0
2025-07-27T08:06	10	83	0.2	83	84	429	0.6	428	430	20.0	70.3
2025-07-27T08:07	10	85	2.2	82	89	430	0.8	428	432	20.0	70.2
2025-07-27T08:08	10	80	1.8	78	86	431	0.3	430	432	20.1	71.6
2025-07-27T08:09	10	78	0.4	77	79	430	0.8	429	432	20.2	72.1
2025-07-27T08:10	10	77	0.3	76	77	429	0.4	428	430	20.2	72.5
2025-07-27T08:11	10	81	5.0	76	92	429	0.4	428	430	20.2	70.9
2025-07-27T08:12	10	85	4.0	79	90	428	0.5	427	429	20.1	71.1
2025-07-27T08:13	10	74	7.3	67	89	428	0.7	427	429	20.0	71.3
2025-07-27T08:14	10	66	0.8	64	67	426	0.8	425	427	20.0	70.9
2025-07-27T08:15	10	64	0.3	64	65	425	0.5	424	426	19.9	71.0
2025-07-27T08:16	10	68	2.4	64	73	425	0.3	424	426	20.0	71.3
2025-07-27T08:17	10	65	2.2	62	69	425	0.5	423	426	20.0	71.4
2025-07-27T08:18	10	61	1.6	58	64	424	0.2	423	424	19.9	71.3
2025-07-27T08:19	10	58	0.3	57	58	424	0.6	422	425	19.9	72.0
2025-07-27T08:20	10	58	0.9	56	59	423	0.3	422	424	19.8	71.8
2025-07-27T08:21	10	55	0.4	55	56	422	0.7	421	424	19.8	71.4
2025-07-27T08:22	10	56	1.2	55	58	422	0.5	421	423	19.8	71.7
2025-07-27T08:23	10	56	1.2	53	57	422	0.3	422	423	19.8	71.6
2025-07-27T08:24	10	50	1.4	48	53	422	0.6	421	423	19.8	71.6
2025-07-27T08:25	10	46	0.9	44	48	421	0.3	420	421	19.8	71.2
2025-07-27T08:26	10	42	0.8	41	44	420	0.2	419	420	19.8	71.2
2025-07-27T08:27	10	40	0.5	39	41	419	0.4	418	420	19.8	71.8
2025-07-27T08:28	10	39	0.3	38	39	419	0.2	419	420	19.8	72.7
2025-07-27T08:29	10	38	0.1	38	38	418	0.3	418	419	19.8	71.8
2025-07-27T08:30	10	38	0.2	38	39	418	0.3	418	419	19.8	71.8
2025-07-27T08:31	10	40	0.5	39	41	418	0.3	418	419	19.8	73.2
2025-07-27T08:32	10	42	0.7	41	43	419	0.3	418	420	19.8	72.9
2025-07-27T08:33	10	45	1.1	43	46	420	0.5	419	420	19.8	73.6
2025-07-27T08:34	10	49	1.3	46	51	421	0.6	420	422	19.9	72.4
2025-07-27T08:35	10	54	1.8	51	57	422	0.4	421	423	19.9	73.3
2025-07-27T08:36	10	60	2.2	57	64	423	0.5	422	424	19.9	72.1
2025-07-27T08:37	10	71	4.6	64	82	425	0.6	423	426	19.9	72.9
2025-07-27T08:38	10	100	6.1	83	108	428	2.3	424	431	19.9	72.7
2025-07-27T08:39	10	96	11.9	83	115	431	1.0	429	433	20.0	73.0
2025-07-27T08:40	10	85	0.7	84	86	429	0.9	428	431	20.0	72.5
2025-07-27T08:41	10	90	1.9	86	95	429	0.8	427	430	19.9	72.8
2025-07-27T08:42	10	92	5.9	83	104	432	0.5	430	432	20.0	73.3
2025-07-27T08:43	10	82	0.7	82	85	431	0.6	430	433	20.1	73.7
2025-07-27T08:44	10	93	5.8	85	103	432	0.7	431	434	20.2	73.6
2025-07-27T08:45	10	93	1.5	90	95	433	0.4	432	434	20.3	71.6
2025-07-27T08:46	10	87	1.1	85	90	432	1.3	430	434	20.4	71.3
2025-07-27T08:47	10	88	2.5	86	95	431	0.5	430	432	20.3	70.6
2025-07-27T08:48	10	100	1.5	95	103	434	0.7	432	435	20.4	71.1
2025-07-27T08:49	10	107	4.0	102	113	433	0.6	432	434	20.4	69.4
2025-07-27T08:50	10	104	7.6	92	112	434	0.8	432	435	20.4	69.6
2025-07-27T08:51	10	97	2.7	88	100	433	0.5	432	434	20.4	69.4
2025-07-27T08:52	10	83	4.2	78	90	431	1.2	429	434	20.3	69.0
2025-07-27T08:53	10	94	6.1	84	103	432	0.6	431	433	20.4	68.7
2025-07-27T08:54	10	112	3.8	101	117	434	0.6	432	435	20.3	67.8
2025-07-27T08:55	10	128	18.4	99	147	437	2.8	433	442	20.3	66.7
2025-07-27T08:56	10	137	10.5	114	147	442	1.0	440	443	20.5	67.9
2025-07-27T08:57	10	112	13.6	100	154	438	1.2	437	441	20.8	66.3
2025-07-27T08:58	10	173	11.8	153	190	444	3.1	438	449	20.7	66.3
2025-07-27T08:59	10	139	19.6	114	185	443	2.6	440	448	20.8	66.3
2025-07-27T09:00	10	180	14.3	152	199	447	1.7	445	451	20.7	65.9
2025-07-27T09:01	10	181	23.9	136	203	452	2.0	448	455	21.0	66.3
2025-07-27T09:02	10	119	8.6	111	137	446	2.9	441	450	20.9	65.7
2025-07-27T09:03	10	114	9.0	105	129	441	0.7	440	443	21.0	66.6
2025-07-27T09:04	10	131	12.1	110	149	442	0.9	440	444	21.0	66.5
2025-07-27T09:05	10	161	11.8	144	181	444	1.6	442	449	20.9	66.4
2025-07-27T09:06	10	186	4.0	179	191	450	0.9	448	452	20.9	65.5
2025-07-27T09:07	10	183	4.6	174	190	453	0.8	451	454	20.9	65.3
2025-07-27T09:08	10	172	6.0	165	195	453	0.6	453	456	21.1	65.1
2025-07-27T09:09	10	187	10.5	169	202	459	1.2	455	460	21.3	66.0
2025-07-27T09:10	10	125	26.6	87	166	451	4.8	442	459	21.1	64.8
2025-07-27T09:11	10	131	44.6	88	197	443	2.9	440	449	20.9	64.4
2025-07-27T09:12	10	190	17.9	143	204	453	2.5	447	456	21.0	64.8
2025-07-27T09:13	10	198	6.8	168	203	454	2.4	451	458	20.9	64.0
2025-07-27T09:14	10	174	25.6	123	200	454	2.8	450	459	21.1	64.1
2025-07-27T09:15	10	126	46.1	76	195	451	4.1	444	456	21.2	65.0
2025-07-27T09:16	10	75	0.8	74	77	442	2.5	438	447	21.4	64.7
2025-07-27T09:17	10	120	41.8	77	195	442	3.4	438	449	21.3	64.8
2025-07-27T09:18	10	99	20.2	84	159	442	3.8	437	449	21.0	63.3
2025-07-27T09:19	10	174	29.2	94	200	447	5.9	436	456	21.0	64.0
2025-07-27T09:20	10	200	5.5	184	205	458	2.4	453	462	21.4	65.0
2025-07-27T09:21	10	186	13.1	157	203	456	0.9	454	458	21.3	65.0
2025-07-27T09:22	10	137	16.8	125	173	449	4.1	444	457	21.1	64.3
2025-07-27T09:23	10	106	7.1	101	125	444	1.9	441	447	21.0	65.6
2025-07-27T09:24	10	110	14.3	100	142	441	0.9	439	442	21.1	65.8
2025-07-27T09:25	10	125	16.9	103	152	443	1.0	441	445	20.9	66.6
2025-07-27T09:26	10	175	17.8	124	193	447	3.7	440	451	20.9	66.5
2025-07-27T09:27	10	199	10.7	172	206	452	3.1	447	456	20.8	66.4
2025-07-27T09:28	10	151	39.7	98	196	451	2.8	447	457	21.1	66.9
2025-07-27T09:29	10	157	25.8	122	191	452	2.8	445	456	21.6	66.3
2025-07-27T09:30	10	97	18.1	66	121	444	2.0	440	448	21.3	65.5
2025-07-27T09:31	10	73	8.6	64	87	438	1.0	437	441	21.1	65.8
2025-07-27T09:32	10	84	3.0	76	89	439	1.0	437	441	21.2	66.3
2025-07-27T09:33	10	84	6.5	76	95	437	0.5	436	438	21.3	67.2
2025-07-27T09:34	10	123	19.0	90	144	440	3.8	435	446	21.1	65.8
2025-07-27T09:35	10	154	11.8	128	167	448	2.0	444	450	21.2	66.3
2025-07-27T09:36	10	165	5.3	155	172	451	1.7	448	453	21.5	64.3
2025-07-27T09:37	10	170	1.1	167	172	454	0.8	451	455	21.8	63.5
2025-07-27T09:38	10	173	1.3	171	175	453	0.9	451	454	21.4	62.3
2025-07-27T09:39	10	172	2.1	165	174	454	0.8	453	455	21.2	63.0
2025-07-27T09:40	10	152	7.8	137	164	457	0.5	455	457	21.6	64.3
2025-07-27T09:41	10	166	7.5	143	176	452	1.7	450	455	21.5	61.0
2025-07-27T09:42	10	163	18.0	126	182	451	1.2	448	453	21.3	61.9
2025-07-27T09:43	10	169	4.2	157	174	453	0.7	451	454	21.4	62.1
2025-07-27T09:44	10	162	15.9	110	174	454	0.7	452	455	21.2	62.8
2025-07-27T09:45	10	69	7.5	65	103	445	4.0	440	454	21.3	63.2
2025-07-27T09:46	10	74	10.1	63	97	439	2.1	435	442	21.4	63.2
2025-07-27T09:47	10	125	51.7	65	183	438	5.2	433	449	21.4	63.7
2025-07-27T09:48	10	170	8.5	147	182	451	2.2	446	454	21.4	61.5
2025-07-27T09:49	10	153	7.5	143	169	454	1.3	452	456	21.4	63.7
2025-07-27T09:50	10	160	10.7	143	175	459	1.8	455	461	21.4	63.7
2025-07-27T09:51	10	149	6.4	139	158	459	0.7	458	460	21.4	63.7
2025-07-27T09:52	10	142	2.9	139	149	457	0.6	457	459	21.4	63.7
2025-07-27T09:53	10	136	6.5	123	148	457	1.0	455	458	21.4	63.7
2025-07-27T09:54	10	118	9.5	98	127	453	2.5	447	457	21.4	63.7
2025-07-27T09:55	10	110	6.3	100	123	447	0.9	445	448	21.7	63.2
2025-07-27T09:56	10	133	16.9	107	167	448	1.6	446	451	21.6	63.7
2025-07-27T09:57	10	115	27.6	79	170	451	1.8	448	453	21.6	64.2
2025-07-27T09:58	10	109	14.4	90	129	450	1.4	448	452	21.8	63.4
2025-07-27T09:59	10	164	28.5	93	186	454	3.8	447	457	21.7	62.4
2025-07-27T10:00	10	185	0.4	184	186	459	1.7	456	462	21.5	62.2
2025-07-27T10:01	10	185	0.4	185	186	462	1.2	460	464	21.8	62.5
2025-07-27T10:02	10	187	0.4	186	188	466	1.3	464	469	22.3	62.4
2025-07-27T10:03	10	189	0.9	187	191	466	1.7	462	469	22.3	59.9
2025-07-27T10:04	10	194	2.1	191	197	465	0.8	463	467	22.2	58.8
2025-07-27T10:05	10	193	2.6	189	197	465	0.7	464	466	22.0	58.1
2025-07-27T10:06	10	184	11.1	160	193	463	1.7	461	466	22.0	59.0
2025-07-27T10:07	10	127	30.4	84	181	456	4.8	452	465	22.0	58.7
2025-07-27T10:08	10	159	31.7	100	197	457	3.8	450	462	22.1	60.7
2025-07-27T10:09	10	187	8.1	165	193	462	1.9	459	466	22.2	60.4
2025-07-27T10:10	10	190	0.7	189	191	463	1.0	462	465	22.0	59.9
2025-07-27T10:11	10	104	50.7	59	190	456	6.0	446	463	21.9	60.9
2025-07-27T10:12	10	59	0.5	59	61	445	2.5	440	450	22.2	61.4
2025-07-27T10:13	10	84	28.6	61	154	440	2.1	439	446	21.9	58.1
2025-07-27T10:14	10	116	29.8	81	179	446	1.7	443	449	21.7	58.9
2025-07-27T10:15	10	185	4.2	175	191	452	4.0	446	458	21.5	59.5
2025-07-27T10:16	10	187	1.0	185	189	457	1.5	455	460	21.6	59.0
2025-07-27T10:17	10	191	2.2	188	195	459	1.7	457	462	21.5	58.3
2025-07-27T10:18	10	151	46.1	82	197	459	4.8	449	464	21.7	58.2
2025-07-27T10:19	10	85	19.4	65	123	446	3.4	439	451	21.9	58.2
2025-07-27T10:20	10	75	3.0	69	80	438	1.5	436	441	21.6	56.4
2025-07-27T10:21	10	116	38.2	76	203	440	4.1	436	450	21.5	54.8
2025-07-27T10:22	10	183	18.3	146	204	454	3.0	447	460	21.6	55.6
2025-07-27T10:23	10	202	10.6	175	210	460	1.0	457	462	21.8	55.6
2025-07-27T10:24	10	161	19.0	123	192	457	1.4	454	460	21.7	55.0
2025-07-27T10:25	10	132	6.4	124	150	454	0.7	452	455	21.9	55.6
2025-07-27T10:26	10	158	3.7	150	166	454	1.1	453	456	21.9	56.2
2025-07-27T10:27	10	167	4.3	155	174	455	1.7	453	458	21.7	56.4
2025-07-27T10:28	10	118	19.3	91	155	453	3.5	449	459	21.7	56.8
2025-07-27T10:29	10	111	15.9	93	146	451	1.4	449	454	21.9	56.8
2025-07-27T10:30	10	94	16.0	82	150	450	1.1	448	452	22.1	56.8
2025-07-27T10:31	10	152	20.5	96	178	458	2.2	451	460	22.3	56.3
2025-07-27T10:32	10	80	4.6	75	93	448	3.7	444	456	22.0	55.6
2025-07-27T10:33	10	69	2.4	66	76	442	1.3	440	445	21.9	56.5
2025-07-27T10:34	10	66	0.5	64	66	439	0.9	438	441	22.0	56.7
2025-07-27T10:35	10	63	1.1	61	65	438	1.1	436	439	22.0	55.8
2025-07-27T10:36	10	60	0.2	60	61	438	0.9	436	439	21.9	56.5
2025-07-27T10:37	10	63	1.5	61	66	437	1.1	436	439	21.9	56.2
2025-07-27T10:38	10	79	11.3	66	102	436	0.8	435	438	21.7	57.0
2025-07-27T10:39	10	141	37.0	85	193	444	6.3	435	454	21.7	57.4
2025-07-27T10:40	10	133	36.7	79	173	454	2.8	447	457	21.8	57.1
2025-07-27T10:41	10	71	5.5	65	84	445	2.7	441	449	21.9	57.5
2025-07-27T10:42	10	63	1.5	60	65	439	1.4	437	442	22.0	57.5
2025-07-27T10:43	10	59	0.7	58	61	438	0.6	436	439	22.0	57.8
2025-07-27T10:44	10	60	1.3	58	62	437	0.3	437	438	22.0	57.8
2025-07-27T10:45	10	82	22.3	62	124	440	2.0	437	443	22.0	57.6
2025-07-27T10:46	10	67	0.5	67	68	437	1.0	436	439	21.9	57.2
2025-07-27T10:47	10	79	9.5	68	115	438	0.7	436	440	21.9	57.8
2025-07-27T10:48	10	196	21.7	121	210	452	7.7	437	462	22.0	57.3
2025-07-27T10:49	10	88	23.7	71	182	452	5.4	443	462	22.0	57.7
2025-07-27T10:50	10	78	11.2	71	106	441	1.6	439	445	22.0	56.5
2025-07-27T10:51	10	102	5.1	94	113	441	0.6	441	442	21.9	56.2
2025-07-27T10:52	10	80	8.3	67	95	439	1.7	436	442	21.8	55.4
2025-07-27T10:53	10	63	2.3	59	67	435	1.1	433	438	21.7	56.1
2025-07-27T10:54	10	58	0.6	57	59	434	1.0	431	435	22.0	57.3
2025-07-27T10:55	10	57	0.3	57	58	429	1.2	428	432	21.7	58.9
2025-07-27T10:56	10	57	0.1	57	57	428	0.8	426	429	21.5	62.2
2025-07-27T10:57	10	58	0.4	57	59	423	1.2	422	426	21.0	66.2
2025-07-27T10:58	10	61	1.1	59	63	421	0.3	421	422	20.5	69.0
2025-07-27T10:59	10	67	2.8	63	74	423	0.7	421	425	20.4	70.2
2025-07-27T11:00	10	94	11.6	74	107	428	2.7	422	431	20.4	70.6
2025-07-27T11:01	10	117	6.2	106	127	433	2.8	429	437	20.3	70.7
2025-07-27T11:02	10	129	2.7	125	133	439	1.9	435	441	20.5	71.0
2025-07-27T11:03	10	126	1.3	123	128	440	1.2	438	442	20.6	69.7
2025-07-27T11:04	10	124	2.2	119	127	442	1.0	440	444	20.7	69.9
2025-07-27T11:05	10	111	4.9	105	119	440	0.7	439	442	20.8	68.8
2025-07-27T11:06	10	80	13.1	66	105	436	1.8	433	439	20.7	66.9
2025-07-27T11:07	10	64	1.2	62	66	431	1.1	430	434	20.8	65.8
2025-07-27T11:08	10	61	0.3	61	62	430	0.7	428	431	20.9	64.6
2025-07-27T11:09	10	60	0.2	60	61	430	1.0	428	432	21.0	65.5
2025-07-27T11:10	10	61	0.4	60	61	431	0.3	431	432	21.1	65.4
2025-07-27T11:11	10	62	0.5	61	63	430	1.0	428	431	21.1	63.2
2025-07-27T11:12	10	66	2.0	63	70	429	0.4	429	430	21.1	63.5
2025-07-27T11:13	10	76	5.0	69	85	432	1.5	429	434	21.2	64.0
2025-07-27T11:14	10	82	1.8	79	85	435	0.6	433	436	21.3	60.0
2025-07-27T11:15	10	86	7.2	77	96	437	1.3	435	439	21.5	60.4
2025-07-27T11:16	10	91	3.8	83	95	440	0.7	438	441	21.5	61.3
2025-07-27T11:17	10	72	5.0	65	82	440	0.8	438	441	21.7	60.8
2025-07-27T11:18	10	62	1.7	59	65	436	1.9	433	439	21.8	59.1
2025-07-27T11:19	10	57	1.5	54	60	432	0.8	431	434	21.7	58.5
2025-07-27T11:20	10	53	1.0	51	55	431	1.0	429	433	21.8	59.1
2025-07-27T11:21	10	50	0.9	48	51	429	0.9	428	431	21.6	58.4
2025-07-27T11:22	10	47	0.7	46	48	429	0.2	428	429	21.6	59.7
2025-07-27T11:23	10	45	0.6	44	46	427	1.1	425	429	21.6	59.5
2025-07-27T11:24	10	43	0.6	42	44	426	0.3	426	427	21.6	59.8
2025-07-27T11:25	10	41	0.6	39	42	426	0.2	426	427	21.6	60.5
2025-07-27T11:26	10	38	0.6	38	39	426	0.2	426	427	21.6	61.6
2025-07-27T11:27	10	37	0.5	36	38	426	0.3	425	426	21.6	61.9
2025-07-27T11:28	10	35	0.4	34	36	426	0.3	425	427	21.6	62.4
2025-07-27T11:29	10	34	0.4	33	34	425	0.2	425	426	21.6	60.5
2025-07-27T11:30	10	33	0.3	32	33	425	0.3	424	426	21.5	60.9
2025-07-27T11:31	10	32	0.2	32	33	424	0.4	424	425	21.5	61.8
2025-07-27T11:32	10	32	0.1	32	32	423	1.0	422	425	21.5	62.0
2025-07-27T11:33	10	32	0.1	32	32	421	0.7	420	423	21.3	63.4
2025-07-27T11:34	10	32	0.1	32	33	420	0.3	420	421	21.0	65.5
2025-07-27T11:35	10	33	0.2	33	33	419	0.5	418	420	20.8	66.9
2025-07-27T11:36	10	34	0.1	33	34	417	1.6	414	419	20.4	68.2
2025-07-27T11:37	10	35	0.3	34	35	414	0.5	414	416	19.9	71.8
2025-07-27T11:38	10	36	0.5	35	37	414	0.4	413	414	19.6	73.9
2025-07-27T11:39	10	38	0.7	37	39	413	0.5	412	414	19.4	73.4
2025-07-27T11:40	10	41	0.9	39	42	414	0.5	413	415	19.3	71.7
2025-07-27T11:41	10	44	1.0	42	45	415	1.0	413	417	19.3	72.7
2025-07-27T11:42	10	47	0.9	45	48	417	1.0	415	418	19.3	70.8
2025-07-27T11:43	10	49	0.7	48	50	418	1.0	416	420	19.3	70.7
2025-07-27T11:44	10	51	0.4	50	51	420	0.9	418	421	19.4	71.5
2025-07-27T11:45	10	51	0.1	51	51	420	0.7	419	421	19.6	71.5
2025-07-27T11:46	10	51	0.2	50	51	419	0.4	418	420	19.6	71.8
2025-07-27T11:47	10	50	0.5	49	50	419	0.4	419	420	19.5	72.6
2025-07-27T11:48	10	48	0.6	47	49	420	0.3	419	420	19.5	73.7
2025-07-27T11:49	10	45	0.7	44	46	419	0.3	418	420	19.6	74.9
2025-07-27T11:50	10	42	0.8	41	44	420	0.4	419	420	19.6	74.9
2025-07-27T11:51	10	40	0.8	38	41	418	0.5	418	419	19.6	75.5
2025-07-27T11:52	10	37	0.7	36	38	418	0.2	417	418	19.6	76.9
2025-07-27T11:53	10	35	0.5	34	36	418	0.3	418	419	19.6	77.5
2025-07-27T11:54	10	33	0.4	33	34	418	0.3	418	419	19.7	78.5
2025-07-27T11:55	10	32	0.4	31	33	418	0.2	417	418	19.7	77.2
2025-07-27T11:56	10	31	0.3	30	32	418	0.2	417	418	19.7	77.1
2025-07-27T11:57	10	30	0.3	29	31	418	0.3	417	419	19.7	78.2
2025-07-27T11:58	10	29	0.2	29	29	418	0.4	417	419	19.8	76.3
2025-07-27T11:59	10	29	0.1	28	29	416	0.4	416	418	20.0	75.1
2025-07-27T12:00	10	28	0.1	28	29	417	0.4	416	418	19.9	76.3
2025-07-27T12:01	10	28	0.2	28	29	417	0.2	417	418	19.9	74.9
2025-07-27T12:02	10	29	0.2	28	29	416	0.7	415	418	20.0	72.4
2025-07-27T12:03	10	29	0.2	29	30	414	0.7	413	415	20.1	69.2
2025-07-27T12:04	10	30	0.2	29	30	413	0.5	412	414	20.1	68.0
2025-07-27T12:05	10	31	0.3	30	31	412	0.5	410	413	20.0	65.0
2025-07-27T12:06	10	31	0.2	30	32	412	0.2	411	413	20.0	66.6
2025-07-27T12:07	10	31	0.2	31	32	412	0.3	411	413	19.9	68.0
2025-07-27T12:08	10	32	0.2	31	32	412	0.4	411	413	19.8	68.3
2025-07-27T12:09	10	32	0.1	32	32	412	0.3	411	412	19.6	67.8
2025-07-27T12:10	10	32	0.1	32	33	413	0.7	412	414	19.6	68.6
2025-07-27T12:11	10	32	0.2	32	32	414	0.3	413	414	19.6	68.6
2025-07-27T12:12	10	31	0.3	30	32	414	0.4	413	415	19.5	70.7
2025-07-27T12:13	10	30	0.4	29	31	413	0.4	413	414	19.5	70.3
2025-07-27T12:14	10	28	0.4	28	29	413	0.3	412	413	19.4	72.5
2025-07-27T12:15	10	27	0.3	27	28	412	0.3	411	413	19.3	72.6
2025-07-27T12:16	10	26	0.2	26	27	411	0.3	411	412	19.1	73.4
2025-07-27T12:17	10	26	0.2	26	26	411	0.3	410	411	19.0	73.9
2025-07-27T12:18	10	25	0.2	25	26	411	0.4	410	412	19.0	75.7
2025-07-27T12:19	10	25	0.2	24	25	411	0.2	410	411	19.0	75.8
2025-07-27T12:20	10	24	0.2	24	24	410	0.3	410	411	19.0	75.6
2025-07-27T12:21	10	23	0.1	23	24	411	0.3	410	411	19.0	76.5
2025-07-27T12:22	10	23	0.1	23	23	410	0.2	410	411	18.9	76.9
2025-07-27T12:23	10	23	0.1	23	23	409	0.3	409	410	18.8	77.5
2025-07-27T12:24	10	22	0.1	22	23	409	0.3	409	410	18.7	79.4
2025-07-27T12:25	10	22	0.1	22	22	409	0.2	408	410	18.6	80.4
2025-07-27T12:26	10	22	0.1	22	22	408	0.8	406	409	18.4	80.0
2025-07-27T12:27	10	22	0.1	22	23	406	0.2	406	407	18.3	80.8
2025-07-27T12:28	10	23	0.1	22	23	406	0.3	406	407	18.2	82.1
2025-07-27T12:29	10	23	0.1	22	23	406	0.3	406	407	18.1	83.0
2025-07-27T12:30	10	23	0.1	23	23	406	0.5	406	408	18.0	83.2
2025-07-27T12:31	10	23	0.1	23	23	407	0.8	406	409	18.1	83.5
2025-07-27T12:32	10	23	0.2	23	24	409	0.6	408	410	18.1	83.5
2025-07-27T12:33	10	23	0.2	23	24	410	0.4	409	411	18.3	82.1
2025-07-27T12:34	10	24	0.3	23	25	410	0.3	409	411	18.5	78.6
2025-07-27T12:35	10	25	0.4	25	26	410	0.5	409	411	18.5	80.2
2025-07-27T12:36	10	27	0.5	26	28	410	0.3	410	411	18.6	79.5
2025-07-27T12:37	10	28	0.6	27	29	410	0.3	409	411	18.6	80.9
2025-07-27T12:38	10	30	0.5	29	31	410	0.2	410	411	18.4	81.7
2025-07-27T12:39	10	32	0.5	31	33	411	0.4	410	412	18.4	81.8
2025-07-27T12:40	10	34	0.5	33	35	412	0.5	411	413	18.4	79.8
2025-07-27T12:41	10	35	0.3	34	36	413	0.4	412	414	18.5	79.2
2025-07-27T12:42	10	36	0.1	35	36	414	0.4	413	415	18.6	79.6
2025-07-27T12:43	10	36	0.2	35	36	415	0.3	414	415	18.6	78.6
2025-07-27T12:44	10	35	0.3	34	35	415	0.3	414	416	18.7	81.3
2025-07-27T12:45	10	33	0.4	33	34	415	0.3	415	416	18.6	82.4
2025-07-27T12:46	10	32	0.4	31	33	415	0.2	414	415	18.6	82.5
2025-07-27T12:47	10	31	0.3	30	32	415	0.3	414	415	18.6	82.7
2025-07-27T12:48	10	30	0.3	29	30	415	0.2	414	415	18.6	82.0
2025-07-27T12:49	10	29	0.2	29	30	415	0.3	414	415	18.6	81.7
2025-07-27T12:50	10	29	0.1	29	29	414	0.3	414	415	18.6	81.7
2025-07-27T12:51	10	29	0.1	29	29	414	0.4	413	414	18.6	81.9
2025-07-27T12:52	10	29	0.3	29	30	413	0.2	412	413	18.6	80.3
2025-07-27T12:53	10	31	0.6	30	32	413	0.3	413	414	18.7	82.3
2025-07-27T12:54	10	33	0.8	32	35	414	0.2	413	414	18.7	80.5
2025-07-27T12:55	10	36	1.0	35	38	414	0.3	413	414	18.7	79.7
2025-07-27T12:56	10	40	1.1	38	41	414	0.3	414	415	18.8	79.0
2025-07-27T12:57	10	42	0.4	41	43	415	0.2	415	416	18.8	78.6
2025-07-27T12:58	10	42	0.7	41	43	415	0.2	414	415	18.8	80.2
2025-07-27T12:59	10	40	0.3	40	41	415	0.2	415	416	18.8	82.6
2025-07-27T13:00	10	40	0.1	39	40	416	0.3	415	416	18.8	83.0
2025-07-27T13:01	10	40	0.3	39	41	416	0.4	415	417	18.7	83.3
2025-07-27T13:02	10	42	0.5	41	42	414	0.6	413	415	18.5	81.6
2025-07-27T13:03	10	44	0.8	42	45	414	0.4	413	415	18.5	82.6
2025-07-27T13:04	10	47	1.6	45	51	415	0.2	414	415	18.6	82.6
2025-07-27T13:05	10	56	3.4	51	62	415	0.2	415	416	18.5	83.8
2025-07-27T13:06	10	74	7.6	62	87	416	1.2	414	419	18.2	83.0
2025-07-27T13:07	10	138	31.8	90	198	424	4.4	417	433	18.3	83.4
2025-07-27T13:08	10	156	23.3	119	196	434	1.1	431	436	18.4	82.9
2025-07-27T13:09	10	130	31.0	95	182	435	2.1	432	438	18.4	81.2
2025-07-27T13:10	10	104	22.9	79	142	434	2.2	430	437	18.6	81.9
2025-07-27T13:11	10	85	4.8	79	101	431	0.5	430	432	18.8	80.6
2025-07-27T13:12	10	90	17.9	69	121	431	1.6	428	433	18.9	80.7
2025-07-27T13:13	10	66	1.3	64	69	428	0.8	426	429	18.9	79.3
2025-07-27T13:14	10	63	0.7	61	64	426	0.7	425	427	19.0	80.0
2025-07-27T13:15	10	61	0.4	60	62	425	0.4	424	426	19.0	80.4
2025-07-27T13:16	10	60	0.2	60	61	426	0.3	425	426	19.0	79.8
2025-07-27T13:17	10	61	0.2	60	61	425	0.5	424	426	19.0	79.2
2025-07-27T13:18	10	61	0.2	61	62	424	0.5	423	425	19.0	78.0
2025-07-27T13:19	10	62	0.2	61	62	424	0.2	424	425	19.0	77.9
2025-07-27T13:20	10	60	0.6	59	61	425	0.2	424	425	19.1	79.1
2025-07-27T13:21	10	58	0.8	57	60	424	0.3	424	425	19.2	79.6
2025-07-27T13:22	10	56	0.5	55	57	424	0.4	423	425	19.1	78.5
2025-07-27T13:23	10	55	1.1	53	57	424	0.3	424	425	19.1	79.4
2025-07-27T13:24	10	51	0.9	50	53	424	0.5	423	425	19.0	80.1
2025-07-27T13:25	10	50	0.3	49	50	423	0.4	422	424	19.1	80.8
2025-07-27T13:26	10	49	0.2	48	49	422	0.8	421	423	18.9	79.7
2025-07-27T13:27	10	48	0.6	47	49	421	0.2	421	422	18.8	78.9
2025-07-27T13:28	10	45	1.0	43	47	421	0.3	421	422	18.9	79.3
2025-07-27T13:29	10	42	1.0	40	43	421	0.3	420	421	18.9	77.9
2025-07-27T13:30	10	38	0.9	37	40	421	0.2	420	421	19.0	77.8
2025-07-27T13:31	10	35	0.9	34	37	420	0.4	419	421	19.0	78.8
2025-07-27T13:32	10	33	0.4	32	33	419	0.3	419	420	19.0	78.2
2025-07-27T13:33	10	32	0.1	32	33	418	0.7	416	419	19.0	78.7
2025-07-27T13:34	10	33	0.4	33	34	417	0.4	416	418	18.9	79.0
2025-07-27T13:35	10	35	0.6	34	36	416	0.2	416	417	18.8	78.2
2025-07-27T13:36	10	38	1.0	36	40	417	0.4	416	418	18.8	78.1
2025-07-27T13:37	10	42	1.7	40	46	418	0.5	417	419	18.8	79.4
2025-07-27T13:38	10	47	0.5	46	48	419	0.4	418	420	18.8	78.1
2025-07-27T13:39	10	49	0.3	49	50	419	0.4	418	420	18.8	79.3
2025-07-27T13:40	10	51	0.7	50	52	421	0.6	419	422	18.9	81.2
2025-07-27T13:41	10	51	0.2	50	51	421	0.3	421	422	18.8	81.7
2025-07-27T13:42	10	50	0.2	50	51	422	0.2	421	422	18.8	81.6
2025-07-27T13:43	10	49	0.5	49	50	422	0.4	421	423	18.9	81.5
2025-07-27T13:44	10	49	0.6	47	49	422	0.2	422	423	18.9	81.6
2025-07-27T13:45	10	46	0.6	45	47	423	0.4	422	423	18.9	81.4
2025-07-27T13:46	10	44	0.3	44	45	422	0.4	421	423	19.0	80.9
2025-07-27T13:47	10	43	0.4	42	44	422	0.3	421	422	19.1	81.5
2025-07-27T13:48	10	42	0.3	41	42	421	0.6	420	422	19.1	79.7
2025-07-27T13:49	10	41	0.2	41	41	420	0.4	419	421	19.1	79.8
2025-07-27T13:50	10	41	0.2	41	41	419	0.4	418	420	19.0	79.1
2025-07-27T13:51	10	42	0.4	41	43	419	0.3	419	420	19.0	78.4
2025-07-27T13:52	10	44	0.7	43	45	420	0.3	419	420	19.1	78.5
2025-07-27T13:53	10	46	0.9	45	48	420	0.3	420	421	19.1	78.4
2025-07-27T13:54	10	50	0.9	48	51	421	0.4	420	421	19.2	78.3
2025-07-27T13:55	10	53	0.8	51	54	422	0.3	421	423	19.2	77.5
2025-07-27T13:56	10	55	0.8	54	57	423	0.5	422	424	19.2	77.8
2025-07-27T13:57	10	58	0.8	57	59	424	0.3	423	424	19.2	75.9
2025-07-27T13:58	10	60	0.4	59	61	424	0.3	424	425	19.2	75.6
2025-07-27T13:59	10	61	0.3	61	62	425	0.3	424	426	19.2	76.1
2025-07-27T14:00	10	62	0.4	62	63	425	0.3	425	426	19.4	76.8
2025-07-27T14:01	10	63	0.4	63	64	426	0.3	426	427	19.5	76.3
2025-07-27T14:02	10	65	0.9	64	67	427	0.3	427	428	19.6	76.1
2025-07-27T14:03	10	67	0.5	67	68	428	0.4	427	429	19.7	75.2
2025-07-27T14:04	10	69	1.1	67	71	429	0.3	428	430	19.8	76.3
2025-07-27T14:05	10	72	0.5	71	73	429	0.2	429	429	19.7	76.1
2025-07-27T14:06	10	74	0.8	73	76	430	0.3	429	430	19.6	77.2
2025-07-27T14:07	10	79	1.4	76	80	431	0.7	430	432	19.9	76.4
2025-07-27T14:08	10	79	1.1	77	80	432	0.3	431	432	19.9	74.4
2025-07-27T14:09	10	75	0.5	74	76	431	0.3	430	432	19.9	74.6
2025-07-27T14:10	10	75	1.0	73	77	431	0.2	431	432	19.9	74.3
2025-07-27T14:11	10	80	1.1	77	82	431	0.6	430	432	19.8	73.3
2025-07-27T14:12	10	78	2.0	75	82	430	0.4	429	431	19.7	72.7
2025-07-27T14:13	10	74	0.5	74	75	430	0.2	430	431	19.7	72.6
2025-07-27T14:14	10	76	0.2	75	76	431	0.3	430	432	19.9	73.5
2025-07-27T14:15	10	76	0.3	75	76	431	0.2	431	432	19.9	71.8
2025-07-27T14:16	10	77	0.5	76	78	432	0.3	432	433	20.0	72.3
2025-07-27T14:17	10	83	2.8	78	87	432	0.4	432	433	20.0	72.1
2025-07-27T14:18	10	90	1.5	87	93	434	0.5	433	435	20.1	73.3
2025-07-27T14:19	10	93	1.1	91	95	436	0.6	435	437	20.3	73.7
2025-07-27T14:20	10	91	0.5	89	92	436	0.4	435	436	20.3	71.6
2025-07-27T14:21	10	79	2.7	77	89	434	0.7	433	436	20.1	72.0
2025-07-27T14:22	10	79	1.5	77	82	433	0.3	433	434	20.2	72.7
2025-07-27T14:23	10	76	1.9	74	79	434	0.2	433	434	20.2	71.8
2025-07-27T14:24	10	74	0.2	73	74	433	0.3	433	434	20.3	72.1
2025-07-27T14:25	10	77	3.2	74	83	434	0.4	433	435	20.4	73.2
2025-07-27T14:26	10	81	3.1	78	86	434	0.3	433	435	20.4	71.6
2025-07-27T14:27	10	80	2.5	77	86	434	0.3	434	435	20.4	71.5
2025-07-27T14:28	10	78	0.7	77	79	434	0.5	433	435	20.4	71.6
2025-07-27T14:29	10	89	5.2	79	97	435	1.1	434	438	20.4	71.7
2025-07-27T14:30	10	99	4.7	94	110	439	0.8	437	440	20.5	71.4
2025-07-27T14:31	10	118	3.1	110	121	441	1.2	439	443	20.6	72.3
2025-07-27T14:32	10	128	4.3	121	133	444	1.3	442	446	20.7	71.8
2025-07-27T14:33	10	125	2.4	122	131	445	0.3	445	446	20.8	69.2
2025-07-27T14:34	10	121	2.0	118	124	445	0.3	445	446	20.8	70.2
2025-07-27T14:35	10	126	4.2	120	131	445	0.6	444	446	20.8	69.4
2025-07-27T14:36	10	124	3.0	119	130	445	0.4	445	446	20.9	70.9
2025-07-27T14:37	10	93	16.6	78	120	443	2.9	439	447	21.0	70.1
2025-07-27T14:38	10	76	1.3	74	78	438	1.0	437	440	21.0	70.8
2025-07-27T14:39	10	74	0.8	74	77	438	0.3	437	438	21.0	68.3
2025-07-27T14:40	10	85	5.6	75	92	438	0.5	436	439	21.1	68.1
2025-07-27T14:41	10	76	2.3	75	84	435	1.4	433	438	21.0	67.3
2025-07-27T14:42	10	93	2.8	85	96	435	0.4	434	436	20.9	68.8
2025-07-27T14:43	10	90	0.9	89	93	435	1.0	433	436	21.0	69.4
2025-07-27T14:44	10	89	3.7	83	95	434	0.2	433	435	20.8	69.4
2025-07-27T14:45	10	80	1.3	78	83	434	0.3	433	434	20.9	69.6
2025-07-27T14:46	10	76	2.5	73	81	434	0.4	433	434	21.0	69.7
2025-07-27T14:47	10	77	1.3	74	78	435	0.9	433	436	21.1	70.6
2025-07-27T14:48	10	78	1.3	76	80	435	0.4	434	436	21.1	70.8
2025-07-27T14:49	10	84	2.4	80	88	435	0.3	434	436	20.9	70.1
2025-07-27T14:50	10	90	3.6	85	94	436	0.5	434	436	21.0	70.5
2025-07-27T14:51	10	98	2.2	94	102	436	1.0	435	438	21.0	67.4
2025-07-27T14:52	10	99	1.6	97	104	439	0.8	437	440	21.1	69.0
2025-07-27T14:53	10	106	1.5	103	108	439	0.7	438	441	21.1	68.1
2025-07-27T14:54	10	111	2.9	107	115	441	0.3	440	441	21.2	69.0
2025-07-27T14:55	10	110	0.9	108	112	442	0.5	441	443	21.2	66.6
2025-07-27T14:56	10	113	6.5	106	124	443	0.6	442	444	21.3	66.8
2025-07-27T14:57	10	123	4.3	105	127	447	1.2	444	448	21.6	67.3
2025-07-27T14:58	10	82	8.5	71	103	444	3.0	439	449	21.7	65.5
2025-07-27T14:59	10	68	1.6	65	71	437	2.4	433	441	21.6	60.5
2025-07-27T15:00	10	64	0.5	64	66	433	0.9	431	434	21.5	58.5
2025-07-27T15:01	10	75	16.2	64	125	432	0.6	432	434	21.5	59.8
2025-07-27T15:02	10	113	19.3	83	143	438	1.6	434	441	21.5	60.2
2025-07-27T15:03	10	164	15.8	110	179	444	2.9	437	447	21.7	60.6
2025-07-27T15:04	10	151	34.1	76	178	448	1.6	444	450	21.7	59.0
2025-07-27T15:05	10	67	4.3	62	76	439	3.4	435	446	21.8	59.9
2025-07-27T15:06	10	63	0.6	62	64	433	2.4	430	438	21.8	57.5
2025-07-27T15:07	10	70	3.8	65	76	431	0.3	430	432	21.7	58.6
2025-07-27T15:08	10	80	11.1	71	117	432	1.0	430	434	21.5	57.8
2025-07-27T15:09	10	129	9.6	97	141	436	1.5	432	438	21.5	57.5
2025-07-27T15:10	10	68	7.4	62	94	433	2.2	429	436	21.5	56.6
2025-07-27T15:11	10	60	1.1	58	62	429	0.4	429	430	21.4	57.7
2025-07-27T15:12	10	57	0.6	56	58	429	0.2	429	430	21.5	58.3
2025-07-27T15:13	10	55	1.0	53	56	428	0.8	427	430	21.5	57.5
2025-07-27T15:14	10	51	1.4	49	53	427	0.3	426	427	21.4	57.2
2025-07-27T15:15	10	46	1.2	45	48	426	0.3	426	427	21.5	57.9
2025-07-27T15:16	10	43	0.8	42	45	427	0.3	426	428	21.5	58.0
2025-07-27T15:17	10	41	0.2	41	42	428	0.3	427	428	21.6	58.6
2025-07-27T15:18	10	42	0.4	41	43	426	0.5	426	427	21.5	57.8
2025-07-27T15:19	10	44	0.7	43	45	425	0.9	423	427	21.5	55.8
2025-07-27T15:20	10	46	0.2	45	46	423	0.3	422	424	21.4	53.7
2025-07-27T15:21	10	47	0.3	46	47	422	0.2	422	423	21.4	54.3
2025-07-27T15:22	10	44	1.2	42	46	422	0.3	422	423	21.4	55.2
2025-07-27T15:23	10	40	0.8	39	42	422	0.3	421	422	21.4	55.1
2025-07-27T15:24	10	38	0.6	37	39	421	0.2	421	422	21.4	55.8
2025-07-27T15:25	10	36	0.5	35	37	421	0.4	420	422	21.4	56.3
2025-07-27T15:26	10	35	0.5	34	35	421	0.2	421	422	21.4	56.5
2025-07-27T15:27	10	33	0.5	32	34	421	0.3	420	421	21.4	56.8
2025-07-27T15:28	10	32	0.3	31	32	420	0.2	420	421	21.4	56.4
2025-07-27T15:29	10	31	0.1	31	31	420	0.3	419	421	21.4	56.6
2025-07-27T15:30	10	31	0.2	31	32	421	0.4	420	421	21.4	57.3
2025-07-27T15:31	10	31	0.5	30	31	421	0.2	420	421	21.4	57.9
2025-07-27T15:32	10	28	0.6	28	30	421	0.3	420	421	21.4	58.0
2025-07-27T15:33	10	27	0.1	27	28	421	0.2	420	421	21.4	58.1
2025-07-27T15:34	10	28	0.1	27	28	420	0.3	420	421	21.4	58.2
2025-07-27T15:35	10	28	0.1	27	28	420	0.4	420	421	21.3	59.1
2025-07-27T15:36	10	27	0.1	27	28	420	0.3	420	421	21.3	59.7
2025-07-27T15:37	10	27	0.1	27	27	420	0.3	419	421	21.3	59.1
2025-07-27T15:38	10	27	0.2	27	28	420	0.2	420	421	21.2	58.5
2025-07-27T15:39	10	28	0.2	28	29	420	0.2	420	421	21.2	58.5
2025-07-27T15:40	10	28	0.3	28	29	419	0.3	419	420	21.2	58.3
2025-07-27T15:41	10	27	0.2	27	28	420	0.3	419	421	21.2	59.8
2025-07-27T15:42	10	27	0.1	27	27	420	0.3	420	421	21.2	60.5
2025-07-27T15:43	10	27	0.1	27	27	419	0.4	418	420	21.2	60.1
2025-07-27T15:44	10	27	0.2	26	27	418	0.3	417	419	21.1	59.0
2025-07-27T15:45	10	26	0.4	25	26	418	0.3	417	418	21.1	59.5
2025-07-27T15:46	10	25	0.3	24	25	418	0.3	417	419	21.1	58.7
2025-07-27T15:47	10	23	0.3	23	24	417	0.3	417	418	21.0	59.3
2025-07-27T15:48	10	22	0.3	22	23	417	0.2	416	417	21.0	59.1
2025-07-27T15:49	10	22	0.2	21	22	416	0.2	416	416	21.0	58.0
2025-07-27T15:50	10	21	0.2	21	22	416	0.2	416	416	21.0	58.5
2025-07-27T15:51	10	20	0.3	19	21	416	0.2	415	416	21.0	58.5
2025-07-27T15:52	10	19	0.4	18	20	416	0.3	415	416	20.9	58.7
2025-07-27T15:53	10	18	0.3	17	18	415	0.4	415	416	20.9	58.6
2025-07-27T15:54	10	17	0.3	16	17	415	0.3	415	416	20.9	59.3
2025-07-27T15:55	10	16	0.2	16	16	415	0.3	415	416	20.9	59.8
2025-07-27T15:56	10	15	0.2	15	16	415	0.2	415	415	20.8	59.6
2025-07-27T15:57	10	15	0.1	15	15	415	0.2	414	415	20.8	59.8
2025-07-27T15:58	10	14	0.1	14	15	415	0.3	414	415	20.8	60.9
2025-07-27T15:59	10	14	0.2	14	14	414	0.3	414	415	20.8	60.5
2025-07-27T16:00	10	13	0.1	13	14	414	0.3	413	415	20.7	60.4
2025-07-27T16:01	10	13	0.2	13	13	414	0.3	413	414	20.6	60.8
2025-07-27T16:02	10	12	0.2	12	13	413	0.3	412	414	20.5	61.0
2025-07-27T16:03	10	11	0.4	11	12	413	0.2	412	414	20.5	61.2
2025-07-27T16:04	10	10	0.3	10	11	412	0.3	412	413	20.5	61.1
2025-07-27T16:05	10	10	0.2	9	10	412	0.2	411	412	20.4	61.2
2025-07-27T16:06	10	9	0.2	9	9	411	0.2	411	412	20.4	61.4
2025-07-27T16:07	10	8	0.1	8	9	411	0.3	410	411	20.3	61.9
2025-07-27T16:08	10	8	0.1	8	8	411	0.2	410	411	20.3	62.6
2025-07-27T16:09	10	8	0.1	8	8	410	0.2	410	411	20.2	63.2
2025-07-27T16:10	10	9	0.1	8	9	410	0.2	409	411	20.1	63.6
2025-07-27T16:11	10	9	0.1	8	9	410	0.2	409	410	20.1	64.2
2025-07-27T16:12	10	9	0.1	8	9	409	0.3	408	410	20.0	65.2
2025-07-27T16:13	10	9	0.1	9	9	409	0.3	408	409	19.9	65.3
2025-07-27T16:14	10	9	0.1	9	9	408	0.2	408	408	19.8	65.9
2025-07-27T16:15	10	9	0.1	9	9	407	0.6	405	408	19.5	64.8
2025-07-27T16:16	10	9	0.1	9	9	404	0.5	404	406	19.2	62.7
2025-07-27T16:17	10	9	0.2	9	10	403	0.3	402	404	19.1	63.5
2025-07-27T16:18	10	9	0.2	9	9	402	0.3	401	403	19.0	63.9
2025-07-27T16:19	10	9	0.2	8	9	402	0.3	401	402	19.0	63.0
2025-07-27T16:20	10	9	0.1	8	9	402	0.4	401	403	18.9	63.6
2025-07-27T16:21	10	9	0.2	9	10	402	0.2	401	402	18.9	62.6
2025-07-27T16:22	10	9	0.2	8	9	401	0.4	400	402	18.9	63.3
2025-07-27T16:23	10	9	0.2	8	9	402	0.5	401	402	18.8	64.1
2025-07-27T16:24	10	9	0.2	8	9	402	0.3	401	402	18.8	63.9
2025-07-27T16:25	10	9	0.1	9	9	402	0.4	401	402	18.8	63.1
2025-07-27T16:26	10	9	0.1	8	9	402	0.3	402	403	18.8	64.1
2025-07-27T16:27	10	9	0.1	8	9	402	0.3	402	403	18.8	63.9
2025-07-27T16:28	10	8	0.1	8	9	403	0.3	402	403	18.8	64.0
2025-07-27T16:29	10	8	0.1	8	8	403	0.3	402	403	18.8	63.1
2025-07-27T16:30	10	8	0.1	8	8	403	0.2	402	403	18.8	62.7
2025-07-27T16:31	10	8	0.1	8	8	402	0.2	402	403	18.8	62.8
2025-07-27T16:32	10	8	0.1	8	8	402	0.2	402	403	18.7	64.9
2025-07-27T16:33	10	8	0.1	8	8	402	0.3	402	403	18.7	63.6
2025-07-27T16:34	10	8	0.1	8	8	402	0.3	401	403	18.7	61.5
2025-07-27T16:35	10	8	0.1	8	8	401	0.3	401	402	18.7	62.2
2025-07-27T16:36	10	8	0.1	8	8	401	0.3	400	401	18.6	62.8
2025-07-27T16:37	10	8	0.1	8	8	400	0.2	400	401	18.5	63.6
2025-07-27T16:38	10	9	0.1	8	9	399	0.3	399	400	18.5	63.3
2025-07-27T16:39	10	9	0.1	9	9	399	0.2	398	399	18.3	63.2
2025-07-27T16:40	10	9	0.1	9	9	399	0.3	398	399	18.3	63.7
2025-07-27T16:41	10	9	0.2	9	9	399	0.4	398	400	18.2	64.7
2025-07-27T16:42	10	9	0.2	9	10	400	0.5	398	401	18.2	65.3
2025-07-27T16:43	10	10	0.2	9	10	400	0.5	400	402	18.1	66.0
2025-07-27T16:44	10	10	0.3	10	11	401	0.6	400	402	18.1	66.7
2025-07-27T16:45	10	11	0.3	11	12	402	0.3	401	402	18.1	66.3
2025-07-27T16:46	10	12	0.4	12	13	402	0.3	401	403	18.1	66.8
2025-07-27T16:47	10	13	0.4	13	14	402	0.3	402	403	18.1	66.8
2025-07-27T16:48	10	15	0.4	14	16	403	0.4	402	404	18.1	66.2
2025-07-27T16:49	10	16	0.3	15	17	403	0.2	403	404	18.1	66.4
2025-07-27T16:50	10	17	0.4	17	18	404	0.4	403	405	18.0	66.0
2025-07-27T16:51	10	19	0.4	18	19	404	0.4	404	405	18.0	66.8
2025-07-27T16:52	10	20	0.5	19	21	405	0.3	405	406	18.0	66.0
2025-07-27T16:53	10	21	0.4	21	22	406	0.4	405	407	18.1	65.5
2025-07-27T16:54	10	23	0.3	22	23	406	0.4	406	407	18.1	64.7
2025-07-27T16:55	10	23	0.2	23	24	407	0.4	406	408	18.1	66.4
2025-07-27T16:56	10	24	0.1	24	24	408	0.4	407	409	18.1	66.8
2025-07-27T16:57	10	24	0.2	23	24	408	0.3	407	408	18.1	65.1
2025-07-27T16:58	10	23	0.3	22	23	408	0.2	407	408	18.2	65.9
2025-07-27T16:59	10	22	0.4	21	22	407	0.2	407	408	18.2	65.9
2025-07-27T17:00	10	20	0.4	20	21	407	0.3	407	408	18.2	66.5
2025-07-27T17:01	10	19	0.4	18	20	407	0.4	406	408	18.1	66.3
2025-07-27T17:02	10	18	0.4	17	18	406	0.4	406	407	18.1	68.5
2025-07-27T17:03	10	16	0.5	15	17	406	0.3	405	406	18.1	65.2
2025-07-27T17:04	10	14	0.4	14	15	405	0.2	405	406	18.1	64.8
2025-07-27T17:05	10	13	0.4	12	14	405	0.3	404	405	18.2	65.0
2025-07-27T17:06	10	12	0.3	11	12	404	0.3	403	404	18.1	68.9
2025-07-27T17:07	10	11	0.2	11	12	403	0.2	403	404	18.1	68.0
2025-07-27T17:08	10	10	0.2	10	11	403	0.3	402	404	18.1	68.0
2025-07-27T17:09	10	10	0.1	10	10	403	0.2	403	403	18.1	69.9
2025-07-27T17:10	10	10	0.1	9	10	403	0.2	402	404	18.0	70.7
2025-07-27T17:11	10	9	0.1	9	10	403	0.2	403	404	18.1	71.0
2025-07-27T17:12	10	9	0.1	9	9	403	0.3	402	404	18.0	72.2
2025-07-27T17:13	10	9	0.2	9	10	403	0.3	403	404	18.0	72.3
2025-07-27T17:14	10	9	0.2	9	10	403	0.3	403	404	18.0	72.6
2025-07-27T17:15	10	9	0.1	9	10	404	0.3	403	404	18.0	72.0
2025-07-27T17:16	10	9	0.1	9	9	404	0.2	403	404	17.9	74.7
2025-07-27T17:17	10	9	0.1	9	9	403	0.2	403	404	18.0	71.8
2025-07-27T17:18	10	9	0.1	9	9	403	0.2	403	404	18.0	70.8
2025-07-27T17:19	10	9	0.1	9	9	403	0.2	403	404	18.0	71.3
2025-07-27T17:20	10	9	0.2	8	9	404	0.3	403	405	18.1	71.4
2025-07-27T17:21	10	8	0.1	8	9	404	0.2	403	404	18.1	68.6
2025-07-27T17:22	10	8	0.2	8	8	404	0.2	403	404	18.1	70.6
2025-07-27T17:23	10	8	0.2	7	8	404	0.2	404	405	18.2	69.2
2025-07-27T17:24	10	7	0.2	7	8	404	0.3	403	404	18.2	70.3
2025-07-27T17:25	10	7	0.2	7	8	404	0.3	403	404	18.1	72.1
2025-07-27T17:26	10	7	0.2	6	8	403	0.3	403	404	18.1	69.4
2025-07-27T17:27	10	7	0.3	6	7	403	0.3	402	404	18.2	68.2
2025-07-27T17:28	10	6	0.2	6	7	403	0.3	402	403	18.2	69.2
2025-07-27T17:29	10	6	0.2	6	6	402	0.2	402	403	18.2	68.4
2025-07-27T17:30	10	6	0.2	5	6	402	0.3	401	404	18.2	68.4
2025-07-27T17:31	10	5	0.2	5	6	402	0.3	402	403	18.2	68.3
2025-07-27T17:32	10	5	0.2	5	6	402	0.3	401	403	18.1	70.5
2025-07-27T17:33	10	5	0.1	5	6	402	0.3	402	403	18.1	70.8
2025-07-27T17:34	10	5	0.1	5	6	402	0.3	401	403	18.0	72.0
2025-07-27T17:35	10	5	0.2	5	6	402	0.3	401	402	18.0	71.4
2025-07-27T17:36	10	5	0.1	5	6	402	0.2	401	402	18.0	69.8
2025-07-27T17:37	10	6	0.2	5	6	402	0.3	401	403	18.1	67.5
2025-07-27T17:38	10	6	0.2	5	6	402	0.3	401	403	18.2	68.2
2025-07-27T17:39	10	6	0.2	5	6	402	0.3	401	402	18.1	69.6
2025-07-27T17:40	10	6	0.2	6	7	402	0.2	401	402	18.1	70.8
2025-07-27T17:41	10	6	0.2	6	7	401	0.2	401	402	18.1	70.8
2025-07-27T17:42	10	6	0.1	6	6	402	0.3	401	402	18.1	70.0
2025-07-27T17:43	10	6	0.1	6	6	401	0.2	401	402	18.1	68.1
2025-07-27T17:44	10	6	0.1	6	6	401	0.2	401	402	18.2	66.2
2025-07-27T17:45	10	6	0.1	6	6	401	0.2	401	402	18.3	64.8
2025-07-27T17:46	10	6	0.1	5	6	401	0.2	401	402	18.3	64.2
2025-07-27T17:47	10	6	0.1	5	6	402	0.3	401	402	18.3	65.1
2025-07-27T17:48	10	6	0.1	5	6	402	0.2	401	402	18.2	67.1
2025-07-27T17:49	10	5	0.2	5	6	402	0.2	401	402	18.2	68.0
2025-07-27T17:50	10	5	0.2	5	5	401	0.2	401	402	18.1	67.7
2025-07-27T17:51	10	5	0.1	5	5	402	0.2	401	402	18.2	65.0
2025-07-27T17:52	10	5	0.1	4	5	401	0.2	401	402	18.2	65.7
2025-07-27T17:53	10	5	0.1	4	5	401	0.5	400	402	18.1	67.2
2025-07-27T17:54	10	5	0.1	4	5	400	0.3	400	401	18.1	66.9
2025-07-27T17:55	10	5	0.1	5	5	399	0.5	399	400	18.0	70.0
2025-07-27T17:56	10	5	0.1	4	5	399	0.2	398	399	17.8	73.4
2025-07-27T17:57	10	4	0.1	4	5	398	0.3	398	399	17.7	74.2
2025-07-27T17:58	10	4	0.1	4	5	398	0.4	397	399	17.6	74.6
2025-07-27T17:59	10	4	0.1	4	4	398	0.2	397	398	17.5	76.1
2025-07-27T18:00	10	4	0.1	4	4	398	0.3	397	398	17.4	76.3
2025-07-27T18:01	10	4	0.1	4	4	397	0.2	397	397	17.4	75.6
2025-07-27T18:02	10	4	0.1	4	4	397	0.2	397	398	17.3	77.6
2025-07-27T18:03	10	4	0.1	4	4	397	0.2	397	398	17.2	77.8
2025-07-27T18:04	10	4	0.1	3	4	397	0.3	396	397	17.2	76.4
2025-07-27T18:05	10	3	0.1	3	4	397	0.2	396	397	17.1	78.5
2025-07-27T18:06	10	3	0.1	3	4	397	0.2	396	397	17.0	77.9
2025-07-27T18:07	10	3	0.1	3	3	396	0.2	396	397	17.0	78.5
2025-07-27T18:08	10	3	0.1	3	3	396	0.2	396	396	17.0	78.2
2025-07-27T18:09	10	2	0.1	2	3	395	0.3	395	396	16.9	78.1
2025-07-27T18:10	10	2	0.1	2	2	395	0.2	394	395	16.9	77.6
2025-07-27T18:11	10	2	0.1	2	2	395	0.2	395	395	16.9	77.4
2025-07-27T18:12	10	2	0.1	1	2	395	0.4	394	396	16.9	77.7
2025-07-27T18:13	10	1	0.1	1	2	395	0.3	394	395	16.9	76.7
2025-07-27T18:14	10	1	0.1	1	2	394	0.3	394	395	16.9	76.6
2025-07-27T18:15	10	1	0.1	1	1	394	0.3	394	395	16.9	76.2
2025-07-27T18:16	10	1	0.1	1	1	394	0.2	394	395	16.9	75.8
2025-07-27T18:17	10	1	0.1	1	1	394	0.3	394	395	16.9	75.2
2025-07-27T18:18	10	1	0.1	1	1	394	0.2	394	395	16.9	75.3
2025-07-27T18:19	10	1	0.1	1	1	394	0.2	394	395	16.8	76.3
2025-07-27T18:20	10	1	0.1	1	1	394	0.3	393	395	16.8	77.1
2025-07-27T18:21	10	1	0.1	1	1	394	0.3	394	395	16.7	77.3
2025-07-27T18:22	10	1	0.1	1	1	395	0.2	394	395	16.8	77.2
2025-07-27T18:23	10	1	0.1	1	1	395	0.2	394	395	16.8	76.7
2025-07-27T18:24	10	1	0.1	1	1	395	0.3	394	395	16.8	77.1
2025-07-27T18:25	10	1	0.1	1	1	395	0.2	394	395	16.8	75.9
2025-07-27T18:26	10	1	0.1	1	1	395	0.3	394	396	16.8	76.4
2025-07-27T18:27	10	1	0.1	1	2	395	0.2	394	395	16.9	74.3
2025-07-27T18:28	10	1	0.1	1	2	395	0.3	394	396	16.9	74.3
2025-07-27T18:29	10	1	0.1	1	2	395	0.2	395	395	16.9	74.4
2025-07-27T18:30	10	1	0.1	1	2	395	0.2	395	395	16.9	75.5
2025-07-27T18:31	10	1	0.1	1	2	395	0.2	395	396	16.9	76.0
2025-07-27T18:32	10	1	0.1	1	1	395	0.2	395	396	16.9	76.1
2025-07-27T18:33	10	1	0.1	1	2	395	0.3	395	396	16.8	75.6
2025-07-27T18:34	10	1	0.1	1	1	395	0.2	395	396	16.8	76.4
2025-07-27T18:35	10	1	0.1	1	1	395	0.2	395	396	16.8	75.3
2025-07-27T18:36	10	1	0.1	1	1	395	0.2	394	395	16.8	76.8
2025-07-27T18:37	10	1	0.1	1	1	395	0.3	394	395	16.7	76.3
2025-07-27T18:38	10	1	0.1	1	1	394	0.3	394	395	16.6	78.7
2025-07-27T18:39	10	1	0.1	1	1	394	0.2	394	395	16.5	80.8
2025-07-27T18:40	10	1	0.1	1	1	394	0.3	393	394	16.4	82.3
2025-07-27T18:41	10	1	0.1	1	1	394	0.3	393	394	16.3	84.0
2025-07-27T18:42	10	1	0.1	1	1	394	0.2	393	394	16.3	83.3
2025-07-27T18:43	10	1	0.1	1	1	394	0.2	393	394	16.3	84.3
2025-07-27T18:44	10	1	0.1	1	1	394	0.2	393	394	16.3	83.9
2025-07-27T18:45	10	1	0.1	1	1	394	0.3	393	395	16.3	84.0
2025-07-27T18:46	10	1	0.1	1	1	394	0.2	394	394	16.3	84.4
2025-07-27T18:47	10	1	0.1	1	1	394	0.2	394	395	16.4	82.4
2025-07-27T18:48	10	1	0.1	1	1	394	0.2	393	394	16.5	81.1
2025-07-27T18:49	10	1	0.1	1	1	393	0.3	392	394	16.4	81.7
2025-07-27T18:50	10	1	0.1	1	1	393	0.3	393	394	16.3	84.2
2025-07-27T18:51	10	1	0.1	1	1	393	0.2	393	394	16.2	84.6
2025-07-27T18:52	10	1	0.1	1	1	393	0.2	393	394	16.3	83.6
2025-07-27T18:53	10	1	0.1	0	1	394	0.3	393	394	16.4	81.8
2025-07-27T18:54	10	0	0.1	0	1	394	0.2	393	394	16.5	80.0
2025-07-27T18:55	10	1	0.1	0	1	393	0.2	393	394	16.5	80.9
2025-07-27T18:56	10	0	0.1	0	1	393	0.2	393	394	16.4	82.2
2025-07-27T18:57	10	0	0.1	0	1	394	0.3	393	394	16.5	81.0
2025-07-27T18:58	10	0	0.1	0	1	393	0.3	393	394	16.5	80.7
2025-07-27T18:59	10	0	0.1	0	1	393	0.2	393	394	16.5	81.7
2025-07-27T19:00	10	0	0.1	0	1	394	0.2	393	394	16.5	82.1
2025-07-27T19:01	10	0	0.1	0	1	394	0.3	393	394	16.5	81.6
2025-07-27T19:02	10	0	0.0	0	0	394	0.2	393	395	16.7	79.4
2025-07-27T19:03	10	0	0.1	0	1	394	0.3	393	394	16.9	78.0
2025-07-27T19:04	10	0	0.1	0	0	394	0.2	393	394	16.8	77.8
2025-07-27T19:05	10	0	0.1	0	0	394	0.3	393	394	16.9	77.4
2025-07-27T19:06	10	0	0.1	0	0	394	0.2	393	394	16.7	79.9
2025-07-27T19:07	10	0	0.1	0	0	394	0.3	393	394	16.6	80.3
2025-07-27T19:08	10	0	0.1	0	0	394	0.2	393	394	16.6	81.7
2025-07-27T19:09	10	0	0.0	0	0	394	0.2	394	394	16.6	80.9
2025-07-27T19:10	10	0	0.1	0	0	394	0.2	393	394	16.6	80.5
2025-07-27T19:11	10	0	0.1	0	0	394	0.2	393	394	16.6	81.3
2025-07-27T19:12	10	0	0.1	0	0	394	0.2	393	395	16.6	81.1
2025-07-27T19:13	10	0	0.1	0	0	394	0.3	394	395	16.6	81.2
2025-07-27T19:14	10	0	0.1	0	0	394	0.2	394	395	16.6	80.7
2025-07-27T19:15	10	0	0.1	0	0	394	0.3	394	395	16.7	80.5
2025-07-27T19:16	10	0	0.1	0	0	394	0.2	394	395	16.7	80.7
2025-07-27T19:17	10	0	0.1	0	0	395	0.2	394	395	16.8	78.7
2025-07-27T19:18	10	0	0.1	0	0	395	0.3	394	395	16.9	78.0
2025-07-27T19:19	10	0	0.1	0	0	395	0.2	394	395	16.9	78.1
2025-07-27T19:20	10	0	0.1	0	0	395	0.2	394	395	16.9	77.8
2025-07-27T19:21	10	0	0.1	0	0	395	0.2	394	395	17.0	77.1
2025-07-27T19:22	10	0	0.1	0	0	395	0.2	394	395	17.0	77.2
2025-07-27T19:23	10	0	0.1	0	0	394	0.2	394	395	16.9	78.4
2025-07-27T19:24	10	0	0.1	0	0	394	0.3	394	395	16.9	78.5
2025-07-27T19:25	10	0	0.1	0	0	394	0.2	394	395	17.0	77.2
2025-07-27T19:26	10	0	0.0	0	0	394	0.2	394	395	17.0	76.7
2025-07-27T19:27	10	0	0.1	0	0	395	0.2	395	395	17.1	76.7
2025-07-27T19:28	10	0	0.1	0	0	394	0.3	394	395	17.0	78.0
2025-07-27T19:29	10	0	0.0	0	0	394	0.3	394	395	16.9	78.7
2025-07-27T19:30	10	0	0.1	0	0	394	0.2	393	395	16.9	79.2
2025-07-27T19:31	10	0	0.1	0	0	394	0.2	394	394	16.8	80.7
2025-07-27T19:32	10	0	0.1	0	0	394	0.2	393	394	16.7	82.2
2025-07-27T19:33	10	0	0.1	0	0	394	0.2	394	395	16.8	80.3
2025-07-27T19:34	10	0	0.0	0	0	394	0.3	393	394	16.8	80.3
2025-07-27T19:35	10	0	0.1	0	0	394	0.2	393	394	16.8	79.8
2025-07-27T19:36	10	0	0.1	0	0	394	0.3	393	394	16.9	79.4
2025-07-27T19:37	10	0	0.1	0	0	394	0.2	394	394	16.9	80.1
2025-07-27T19:38	10	0	0.1	0	0	394	0.2	394	394	16.9	79.9
2025-07-27T19:39	10	0	0.1	0	0	394	0.2	393	394	16.8	80.1
2025-07-27T19:40	10	0	0.1	0	0	394	0.2	393	394	16.9	78.8
2025-07-27T19:41	10	0	0.1	0	0	394	0.2	393	394	16.9	78.9
2025-07-27T19:42	10	0	0.1	0	0	394	0.3	393	394	17.0	78.7
2025-07-27T19:43	10	0	0.1	0	0	394	0.2	393	394	17.0	78.1
2025-07-27T19:44	10	0	0.1	0	0	394	0.2	393	394	17.0	78.3
2025-07-27T19:45	10	0	0.1	0	0	394	0.2	393	394	17.0	79.0
2025-07-27T19:46	10	0	0.1	0	0	393	0.2	393	394	16.9	79.7
2025-07-27T19:47	10	0	0.1	0	0	393	0.2	393	394	16.9	80.1
2025-07-27T19:48	10	0	0.1	0	0	393	0.2	393	394	16.8	80.5
2025-07-27T19:49	10	0	0.1	0	0	393	0.2	393	394	16.8	80.7
2025-07-27T19:50	10	0	0.1	0	0	393	0.2	393	394	16.9	78.9
2025-07-27T19:51	10	0	0.1	0	0	393	0.2	393	394	16.9	79.3
2025-07-27T19:52	10	0	0.1	0	0	392	0.3	392	393	16.8	80.3
2025-07-27T19:53	10	0	0.1	0	0	393	0.3	392	393	16.7	80.6
2025-07-27T19:54	10	0	0.1	0	0	392	0.2	391	393	16.7	81.0
2025-07-27T19:55	10	0	0.1	0	0	392	0.3	392	393	16.6	81.5
2025-07-27T19:56	10	0	0.1	0	0	392	0.2	391	392	16.6	80.1
2025-07-27T19:57	10	0	0.1	0	0	391	0.2	391	392	16.6	80.5
2025-07-27T19:58	10	0	0.1	0	0	391	0.2	391	391	16.5	81.4
2025-07-27T19:59	10	0	0.1	0	1	391	0.2	390	391	16.5	81.5
2025-07-27T20:00	10	0	0.2	0	0	391	0.3	390	391	16.4	81.9
2025-07-27T20:01	10	0	0.2	0	0	391	0.2	390	391	16.4	81.8
2025-07-27T20:02	10	0	0.2	0	1	390	0.2	389	391	16.3	82.1
2025-07-27T20:03	10	0	0.1	0	0	390	0.3	389	390	16.2	83.2
2025-07-27T20:04	10	0	0.1	0	0	390	0.2	389	390	16.1	83.7
2025-07-27T20:05	10	0	0.2	0	1	390	0.3	389	390	16.1	84.3
2025-07-27T20:06	10	0	0.1	0	1	389	0.3	389	390	16.0	84.9
2025-07-27T20:07	10	0	0.2	0	1	389	0.3	389	390	16.0	85.5
2025-07-27T20:08	10	0	0.1	0	0	389	0.3	388	390	15.9	85.9
2025-07-27T20:09	10	0	0.1	0	1	389	0.3	389	390	15.9	86.1
2025-07-27T20:10	10	0	0.1	0	1	389	0.2	389	390	15.9	86.0
2025-07-27T20:11	10	0	0.1	0	1	389	0.3	388	390	15.8	86.9
2025-07-27T20:12	10	0	0.2	0	1	389	0.2	388	390	15.8	86.5
2025-07-27T20:13	10	0	0.2	0	1	389	0.2	388	389	15.8	86.6
2025-07-27T20:14	10	0	0.1	0	1	389	0.3	388	389	15.8	87.2
2025-07-27T20:15	10	0	0.1	0	1	389	0.3	388	389	15.8	87.1
2025-07-27T20:16	10	0	0.1	0	1	389	0.2	388	390	15.7	87.6
2025-07-27T20:17	10	0	0.1	0	1	389	0.3	388	389	15.7	87.5
2025-07-27T20:18	10	0	0.1	0	1	389	0.2	388	389	15.7	87.6
2025-07-27T20:19	10	0	0.1	0	0	389	0.2	388	389	15.7	88.2
2025-07-27T20:20	10	0	0.1	0	1	389	0.2	388	389	15.6	88.1
2025-07-27T20:21	10	0	0.1	0	0	389	0.2	388	389	15.6	88.1
2025-07-27T20:22	10	0	0.1	0	1	389	0.2	388	389	15.6	88.1
2025-07-27T20:23	10	0	0.1	0	1	388	0.2	388	389	15.6	88.4
2025-07-27T20:24	10	0	0.1	0	0	388	0.2	388	389	15.6	88.3
2025-07-27T20:25	10	0	0.1	0	0	388	0.2	388	389	15.6	88.6
2025-07-27T20:26	10	0	0.1	0	1	388	0.2	388	389	15.5	89.2
2025-07-27T20:27	10	0	0.1	0	0	388	0.2	388	389	15.5	89.1
2025-07-27T20:28	10	0	0.1	0	0	388	0.2	388	389	15.5	88.9
2025-07-27T20:29	10	0	0.1	0	0	388	0.2	388	388	15.5	89.3
2025-07-27T20:30	10	0	0.1	0	0	388	0.2	387	389	15.5	89.9
2025-07-27T20:31	10	0	0.1	0	0	388	0.2	387	388	15.4	90.3
2025-07-27T20:32	10	0	0.0	0	0	388	0.2	387	389	15.4	90.9
2025-07-27T20:33	10	0	0.0	0	0	388	0.2	387	388	15.4	91.4
2025-07-27T20:34	10	0	0.1	0	0	388	0.2	387	388	15.3	91.9
2025-07-27T20:35	10	0	0.0	0	0	388	0.2	387	388	15.3	92.2
2025-07-27T20:36	10	0	0.1	0	0	388	0.2	387	388	15.3	92.2
2025-07-27T20:37	10	0	0.0	0	0	388	0.2	387	388	15.3	92.5
2025-07-27T20:38	10	0	0.1	0	0	387	0.2	387	388	15.3	93.1
2025-07-27T20:39	10	0	0.1	0	0	387	0.2	387	388	15.3	93.3
2025-07-27T20:40	10	0	0.1	0	0	387	0.2	387	388	15.2	93.6
2025-07-27T20:41	10	0	0.1	0	0	388	0.3	387	388	15.2	93.5
2025-07-27T20:42	10	0	0.1	0	0	387	0.3	387	388	15.2	93.8
2025-07-27T20:43	10	0	0.1	0	0	387	0.3	387	388	15.2	93.4
2025-07-27T20:44	10	0	0.1	0	0	387	0.2	387	388	15.2	93.2
2025-07-27T20:45	10	0	0.1	0	0	387	0.2	387	388	15.2	92.7
2025-07-27T20:46	10	0	0.1	0	0	387	0.3	387	388	15.3	92.3
2025-07-27T20:47	10	0	0.1	0	0	387	0.2	387	388	15.2	92.8
2025-07-27T20:48	10	0	0.1	0	0	387	0.2	387	388	15.2	92.6
2025-07-27T20:49	10	0	0.1	0	0	387	0.2	387	388	15.2	92.7
2025-07-27T20:50	10	0	0.1	0	0	387	0.2	387	388	15.2	92.9
2025-07-27T20:51	10	0	0.1	0	0	387	0.3	387	388	15.2	92.7
2025-07-27T20:52	10	0	0.1	0	0	387	0.2	387	388	15.2	93.1
2025-07-27T20:53	10	0	0.1	0	0	387	0.3	387	388	15.2	93.1
2025-07-27T20:54	10	0	0.1	0	0	387	0.3	386	388	15.1	93.5
2025-07-27T20:55	10	0	0.1	0	0	387	0.3	386	388	15.2	93.3
2025-07-27T20:56	10	0	0.1	0	0	387	0.3	387	388	15.1	93.6
2025-07-27T20:57	10	0	0.1	0	0	387	0.3	387	388	15.1	94.0
2025-07-27T20:58	10	0	0.1	0	0	387	0.3	386	388	15.1	94.2
2025-07-27T20:59	10	0	0.1	0	0	387	0.2	387	388	15.1	94.2
2025-07-27T21:00	10	0	0.1	0	0	387	0.3	387	388	15.1	94.7
2025-07-27T21:01	10	0	0.1	0	0	387	0.2	387	387	15.0	94.8
2025-07-27T21:02	10	0	0.1	0	0	387	0.2	386	387	15.0	95.1
2025-07-27T21:03	10	0	0.1	0	0	387	0.3	386	387	15.0	94.7
2025-07-27T21:04	10	0	0.1	0	1	387	0.2	386	387	15.1	93.3
2025-07-27T21:05	10	0	0.1	0	0	387	0.2	386	387	15.1	93.0
2025-07-27T21:06	10	0	0.1	0	0	386	0.3	386	387	15.1	92.8
2025-07-27T21:07	10	0	0.1	0	0	386	0.3	386	387	15.1	91.4
2025-07-27T21:08	10	0	0.1	0	1	386	0.2	386	387	15.1	91.3
2025-07-27T21:09	10	0	0.1	0	0	386	0.2	386	387	15.1	92.5
2025-07-27T21:10	10	0	0.1	0	0	386	0.2	386	387	15.0	92.7
2025-07-27T21:11	10	0	0.1	0	0	386	0.2	385	386	15.0	92.6
2025-07-27T21:12	10	0	0.1	0	0	386	0.2	386	387	15.0	92.9
2025-07-27T21:13	10	0	0.1	0	0	386	0.3	385	387	15.0	93.2
2025-07-27T21:14	10	0	0.1	0	0	386	0.2	385	386	15.0	93.5
2025-07-27T21:15	10	0	0.1	0	0	386	0.2	385	387	15.0	93.5
2025-07-27T21:16	10	0	0.1	0	0	386	0.2	386	387	14.9	93.6
2025-07-27T21:17	10	0	0.1	0	0	386	0.3	386	387	14.9	93.0
2025-07-27T21:18	10	0	0.1	0	0	386	0.3	386	386	15.0	91.6
2025-07-27T21:19	10	0	0.1	0	0	386	0.2	385	386	15.1	90.6
2025-07-27T21:20	10	0	0.1	0	0	386	0.3	385	386	15.1	90.1
2025-07-27T21:21	10	0	0.1	0	1	386	0.2	385	386	15.1	89.2
2025-07-27T21:22	10	0	0.1	0	0	386	0.3	385	386	15.1	89.1
2025-07-27T21:23	10	0	0.1	0	1	386	0.2	385	386	15.2	88.8
2025-07-27T21:24	10	0	0.1	0	1	386	0.2	385	386	15.1	89.3
2025-07-27T21:25	10	0	0.1	0	0	385	0.2	385	386	15.1	89.1
2025-07-27T21:26	10	0	0.1	0	0	386	0.2	385	386	15.0	90.1
2025-07-27T21:27	10	0	0.1	0	1	385	0.2	385	386	15.0	90.0
2025-07-27T21:28	10	0	0.1	0	0	385	0.2	385	386	15.0	90.3
2025-07-27T21:29	10	0	0.1	0	0	385	0.2	385	386	15.0	90.3
2025-07-27T21:30	10	0	0.1	0	0	386	0.2	385	386	15.1	89.3
2025-07-27T21:31	10	0	0.1	0	1	386	0.2	385	386	15.1	89.1
2025-07-27T21:32	10	0	0.1	0	0	385	0.2	385	386	15.1	89.2
2025-07-27T21:33	10	0	0.1	0	0	385	0.3	385	386	15.1	89.4
2025-07-27T21:34	10	0	0.1	0	0	385	0.2	385	386	15.0	90.6
2025-07-27T21:35	10	0	0.1	0	0	385	0.3	385	386	14.9	90.6
2025-07-27T21:36	10	0	0.1	0	0	385	0.3	385	386	14.9	90.7
2025-07-27T21:37	10	0	0.1	0	0	385	0.3	384	386	14.9	91.0
2025-07-27T21:38	10	0	0.1	0	0	385	0.2	385	386	14.9	91.2
2025-07-27T21:39	10	0	0.1	0	0	385	0.2	385	386	14.9	90.9
2025-07-27T21:40	10	0	0.1	0	0	385	0.3	384	386	14.9	91.2
2025-07-27T21:41	10	0	0.1	0	0	385	0.2	385	386	14.9	91.4
2025-07-27T21:42	10	0	0.1	0	0	385	0.3	384	386	14.9	91.2
2025-07-27T21:43	10	0	0.1	0	0	385	0.2	385	386	14.9	91.8
2025-07-27T21:44	10	0	0.1	0	0	385	0.2	385	386	14.9	91.9
2025-07-27T21:45	10	0	0.1	0	0	386	0.3	385	386	14.9	91.9
2025-07-27T21:46	10	0	0.1	0	0	386	0.2	385	386	14.9	90.7
2025-07-27T21:47	10	0	0.1	0	0	386	0.3	385	387	14.9	92.2
2025-07-27T21:48	10	0	0.1	0	0	386	0.2	385	386	14.8	89.2
2025-07-27T21:49	10	0	0.1	0	0	386	0.2	386	386	14.9	92.2
2025-07-27T21:50	10	0	0.1	0	0	386	0.3	385	387	14.9	92.2
2025-07-27T21:51	10	0	0.1	0	0	386	0.2	385	387	14.9	92.2
2025-07-27T21:52	10	0	0.1	0	0	386	0.2	385	387	14.9	92.2
2025-07-27T21:53	10	0	0.1	0	0	386	0.2	385	386	14.9	92.3
2025-07-27T21:54	10	0	0.1	0	0	386	0.2	385	386	14.8	94.6
2025-07-27T21:55	10	0	0.1	0	0	386	0.2	385	386	14.8	95.3
2025-07-27T21:56	10	0	0.1	0	0	386	0.2	385	386	14.8	95.3
2025-07-27T21:57	10	0	0.1	0	0	385	0.2	385	386	14.8	95.2
2025-07-27T21:58	10	0	0.1	0	0	385	0.2	385	386	14.7	95.4
2025-07-27T21:59	10	0	0.1	0	0	386	0.3	385	386	14.7	95.1
2025-07-27T22:00	10	0	0.1	0	0	385	0.2	385	386	14.8	94.7
2025-07-27T22:01	10	0	0.1	0	0	385	0.2	385	386	14.8	94.7
2025-07-27T22:02	10	0	0.1	0	0	385	0.2	385	386	14.8	94.7
2025-07-27T22:03	10	0	0.1	0	0	385	0.2	385	386	14.8	94.7
2025-07-27T22:04	10	0	0.1	0	0	385	0.2	385	386	14.8	95.0
2025-07-27T22:05	10	0	0.1	0	0	385	0.2	385	386	14.8	94.7
2025-07-27T22:06	10	0	0.1	0	0	385	0.3	384	386	14.8	94.1
2025-07-27T22:07	10	0	0.1	0	0	385	0.3	384	386	14.8	94.2
2025-07-27T22:08	10	0	0.0	0	0	385	0.2	385	385	14.8	94.7
2025-07-27T22:09	10	0	0.1	0	0	385	0.2	384	385	14.8	94.8
2025-07-27T22:10	10	0	0.1	0	0	385	0.2	385	386	14.8	95.0
2025-07-27T22:11	10	0	0.0	0	0	385	0.2	385	386	14.8	95.0
2025-07-27T22:12	10	0	0.1	0	0	385	0.2	385	386	14.7	94.9
2025-07-27T22:13	10	0	0.1	0	0	385	0.2	384	385	14.8	95.0
2025-07-27T22:14	10	0	0.1	0	0	385	0.2	385	385	14.7	95.3
2025-07-27T22:15	10	0	0.1	0	0	385	0.2	384	385	14.7	95.4
2025-07-27T22:16	10	0	0.1	0	0	385	0.2	385	385	14.7	95.1
2025-07-27T22:17	10	0	0.1	0	0	385	0.2	385	385	14.7	95.1
2025-07-27T22:18	10	0	0.1	0	0	385	0.2	385	386	14.7	95.1
2025-07-27T22:19	10	0	0.1	0	0	385	0.3	385	386	14.7	94.9
2025-07-27T22:20	10	0	0.1	0	0	385	0.2	385	386	14.8	94.0
2025-07-27T22:21	10	0	0.0	0	0	385	0.2	385	385	14.8	94.2
2025-07-27T22:22	10	0	0.1	0	0	385	0.2	385	386	14.8	93.7
2025-07-27T22:23	10	0	0.1	0	0	385	0.2	385	386	14.8	93.6
2025-07-27T22:24	10	0	0.1	0	0	385	0.2	385	385	14.8	93.4
2025-07-27T22:25	10	0	0.1	0	0	385	0.2	384	385	14.8	93.6
2025-07-27T22:26	10	0	0.1	0	0	385	0.2	384	385	14.8	93.2
2025-07-27T22:27	10	0	0.1	0	0	385	0.2	384	385	14.8	93.6
2025-07-27T22:28	10	0	0.1	0	0	385	0.2	384	385	14.8	93.4
2025-07-27T22:29	10	0	0.1	0	0	385	0.2	384	385	14.8	93.3
2025-07-27T22:30	10	0	0.1	0	0	385	0.2	385	385	14.8	93.6
2025-07-27T22:31	10	0	0.1	0	0	385	0.2	385	386	14.8	93.5
2025-07-27T22:32	10	0	0.1	0	0	385	0.2	385	385	14.8	93.6
2025-07-27T22:33	10	0	0.1	0	0	385	0.3	385	386	14.8	93.0
2025-07-27T22:34	10	0	0.1	0	0	385	0.2	385	386	14.8	93.4
2025-07-27T22:35	10	0	0.1	0	0	386	0.2	385	386	14.8	93.0
2025-07-27T22:36	10	0	0.1	0	0	386	0.2	385	386	14.8	92.6
2025-07-27T22:37	10	0	0.1	0	0	385	0.2	385	386	14.8	93.1
2025-07-27T22:38	10	0	0.1	0	0	386	0.2	386	386	14.8	93.4
2025-07-27T22:39	10	0	0.1	0	0	386	0.2	385	386	14.8	93.5
2025-07-27T22:40	10	0	0.1	0	0	386	0.2	385	386	14.8	93.0
2025-07-27T22:41	10	0	0.1	0	0	386	0.3	385	386	14.8	93.2
2025-07-27T22:42	10	0	0.1	0	0	386	0.2	385	386	14.8	93.8
2025-07-27T22:43	10	0	0.1	0	0	386	0.2	385	386	14.8	94.0
2025-07-27T22:44	10	0	0.1	0	0	386	0.2	385	386	14.8	94.0
2025-07-27T22:45	10	0	0.1	0	0	386	0.2	385	386	14.8	94.0
2025-07-27T22:46	10	0	0.1	0	0	385	0.3	385	386	14.7	94.4
2025-07-27T22:47	10	0	0.1	0	0	385	0.2	384	385	14.7	94.8
2025-07-27T22:48	10	0	0.1	0	0	385	0.3	384	385	14.6	95.1
2025-07-27T22:49	10	0	0.1	0	0	385	0.2	384	385	14.6	95.5
2025-07-27T22:50	10	0	0.1	0	0	385	0.3	384	385	14.6	95.5
2025-07-27T22:51	10	0	0.1	0	0	384	0.2	384	385	14.6	95.5
2025-07-27T22:52	10	0	0.1	0	0	384	0.2	384	385	14.6	95.6
2025-07-27T22:53	10	0	0.1	0	0	384	0.2	384	385	14.6	95.6
2025-07-27T22:54	10	0	0.1	0	0	384	0.2	384	385	14.6	95.6
2025-07-27T22:55	10	0	0.1	0	0	384	0.2	384	385	14.6	95.2
2025-07-27T22:56	10	0	0.1	0	0	384	0.2	384	385	14.6	95.1
2025-07-27T22:57	10	0	0.1	0	0	384	0.2	384	385	14.6	95.0
2025-07-27T22:58	10	0	0.1	0	0	384	0.2	384	385	14.6	95.0
2025-07-27T22:59	10	0	0.1	0	0	384	0.3	383	385	14.6	95.1
2025-07-27T23:00	10	0	0.1	0	0	384	0.2	384	385	14.6	95.4
2025-07-27T23:01	10	0	0.1	0	0	384	0.2	384	385	14.6	95.5
2025-07-27T23:02	10	0	0.1	0	0	384	0.2	384	384	14.5	95.7
2025-07-27T23:03	10	0	0.1	0	0	384	0.2	384	385	14.5	95.8
2025-07-27T23:04	10	0	0.1	0	0	384	0.2	383	385	14.5	96.0
2025-07-27T23:05	10	0	0.1	0	0	384	0.2	383	384	14.4	95.9
2025-07-27T23:06	10	0	0.1	0	0	384	0.2	384	384	14.4	96.1
2025-07-27T23:07	10	0	0.1	0	0	384	0.2	383	384	14.4	96.1
2025-07-27T23:08	10	0	0.1	0	0	384	0.2	383	384	14.4	96.3
2025-07-27T23:09	10	0	0.1	0	0	384	0.1	384	384	14.4	96.4
2025-07-27T23:10	10	0	0.1	0	0	384	0.2	383	384	14.4	96.3
2025-07-27T23:11	10	0	0.1	0	0	384	0.2	383	384	14.4	96.2
2025-07-27T23:12	10	0	0.1	0	0	384	0.2	384	384	14.4	95.9
2025-07-27T23:13	10	0	0.1	0	0	384	0.3	383	385	14.4	96.0
2025-07-27T23:14	10	0	0.1	0	0	384	0.2	384	385	14.4	96.3
2025-07-27T23:15	10	0	0.1	0	0	384	0.2	384	385	14.4	96.3
2025-07-27T23:16	10	0	0.1	0	0	384	0.2	384	385	14.4	96.4
2025-07-27T23:17	10	0	0.1	0	0	384	0.2	384	385	14.4	96.4
2025-07-27T23:18	10	0	0.1	0	0	385	0.2	384	385	14.4	96.5
2025-07-27T23:19	10	0	0.1	0	0	385	0.2	384	385	14.4	96.7
2025-07-27T23:20	10	0	0.1	0	0	385	0.2	384	385	14.4	96.7
2025-07-27T23:21	10	0	0.1	0	0	385	0.2	384	385	14.4	96.7
2025-07-27T23:22	10	0	0.1	0	0	384	0.2	384	385	14.4	96.7
2025-07-27T23:23	10	0	0.1	0	0	384	0.2	384	385	14.4	97.0
2025-07-27T23:24	10	0	0.1	0	0	385	0.2	384	385	14.4	97.1
2025-07-27T23:25	10	0	0.1	0	0	385	0.2	384	385	14.4	97.2
2025-07-27T23:26	10	0	0.1	0	0	384	0.3	383	385	14.4	96.9
2025-07-27T23:27	10	0	0.1	0	0	384	0.2	384	385	14.4	97.0
2025-07-27T23:28	10	0	0.1	0	0	384	0.2	384	385	14.4	96.8
2025-07-27T23:29	10	0	0.1	0	0	384	0.2	384	385	14.4	97.1
2025-07-27T23:30	10	0	0.1	0	0	384	0.2	383	385	14.4	97.2
2025-07-27T23:31	10	0	0.1	0	0	384	0.2	384	384	14.4	96.9
2025-07-27T23:32	10	0	0.1	0	0	384	0.2	383	384	14.4	97.2
2025-07-27T23:33	10	0	0.1	0	0	384	0.2	384	384	14.3	97.1
2025-07-27T23:34	10	0	0.1	0	0	384	0.2	383	384	14.3	97.1
2025-07-27T23:35	10	0	0.1	0	0	384	0.2	384	384	14.3	97.4
2025-07-27T23:36	10	0	0.1	0	0	384	0.2	383	384	14.3	97.7
2025-07-27T23:37	10	0	0.1	0	0	384	0.2	383	384	14.3	97.1
2025-07-27T23:38	10	0	0.1	0	0	384	0.2	383	384	14.3	95.7
2025-07-27T23:39	10	0	0.1	0	0	383	0.2	383	384	14.4	95.7
2025-07-27T23:40	10	0	0.1	0	0	384	0.2	383	384	14.4	95.7
2025-07-27T23:41	10	0	0.1	0	0	383	0.2	383	384	14.4	96.0
2025-07-27T23:42	10	0	0.1	0	0	384	0.2	383	384	14.3	96.3
2025-07-27T23:43	10	0	0.1	0	0	383	0.2	383	384	14.3	95.8
2025-07-27T23:44	10	0	0.1	0	0	383	0.2	383	384	14.3	95.8
2025-07-27T23:45	10	0	0.1	0	0	383	0.2	383	384	14.3	95.2
2025-07-27T23:46	10	0	0.1	0	0	383	0.3	382	384	14.3	95.3
2025-07-27T23:47	10	0	0.1	0	1	383	0.3	383	384	14.3	94.9
2025-07-27T23:48	10	0	0.1	0	0	383	0.3	383	384	14.4	94.5
2025-07-27T23:49	10	0	0.1	0	0	383	0.2	383	384	14.4	94.7
2025-07-27T23:50	10	0	0.1	0	0	383	0.2	382	384	14.4	95.1
2025-07-27T23:51	10	0	0.1	0	0	383	0.3	383	384	14.3	95.1
2025-07-27T23:52	10	0	0.1	0	0	383	0.3	382	384	14.3	95.7
2025-07-27T23:53	10	0	0.1	0	1	383	0.3	383	384	14.3	94.7
2025-07-27T23:54	10	0	0.1	0	0	383	0.3	382	384	14.4	94.2
2025-07-27T23:55	10	0	0.1	0	0	383	0.2	382	383	14.4	94.4
2025-07-27T23:56	10	0	0.1	0	0	383	0.2	383	384	14.4	94.1
2025-07-27T23:57	10	0	0.2	0	1	383	0.3	382	383	14.3	94.5
2025-07-27T23:58	10	0	0.2	0	1	383	0.3	382	384	14.3	94.3
2025-07-27T23:59	10	0	0.1	0	0	383	0.3	382	383	14.4	94.0
2025-07-28T00:00	10	0	0.2	0	0	383	0.3	382	383	14.3	94.1
2025-07-28T00:01	10	0	0.2	0	1	383	0.3	382	383	14.3	94.1
2025-07-28T00:02	10	0	0.2	0	1	383	0.2	382	383	14.3	94.3
2025-07-28T00:03	10	0	0.1	0	1	383	0.2	382	383	14.3	94.1
2025-07-28T00:04	10	0	0.2	0	1	382	0.2	382	383	14.3	94.6
2025-07-28T00:05	10	0	0.2	0	1	383	0.3	382	383	14.3	94.9
2025-07-28T00:06	10	0	0.1	0	0	383	0.2	382	383	14.3	95.2
2025-07-28T00:07	10	0	0.2	0	1	383	0.2	382	383	14.3	94.7
2025-07-28T00:08	10	0	0.2	0	1	383	0.2	382	383	14.3	94.6
2025-07-28T00:09	10	0	0.2	0	1	383	0.2	382	384	14.3	94.2
2025-07-28T00:10	10	0	0.2	0	1	383	0.2	382	383	14.4	93.7
2025-07-28T00:11	10	0	0.2	0	1	383	0.2	383	384	14.4	93.5
2025-07-28T00:12	10	0	0.2	0	1	383	0.3	382	383	14.4	93.2
2025-07-28T00:13	10	0	0.2	0	1	383	0.3	382	384	14.4	92.4
2025-07-28T00:14	10	0	0.1	0	1	383	0.3	382	384	14.5	92.3
2025-07-28T00:15	10	0	0.2	0	0	383	0.2	382	383	14.5	92.8
2025-07-28T00:16	10	0	0.2	0	1	383	0.2	382	383	14.4	93.6
2025-07-28T00:17	10	0	0.1	0	0	383	0.3	382	383	14.4	93.2
2025-07-28T00:18	10	0	0.2	0	1	383	0.3	382	384	14.4	93.8
2025-07-28T00:19	10	0	0.2	0	1	383	0.2	382	383	14.3	94.1
2025-07-28T00:20	10	0	0.2	0	1	383	0.3	382	383	14.3	93.7
2025-07-28T00:21	10	0	0.2	0	1	383	0.3	382	383	14.4	93.5
2025-07-28T00:22	10	0	0.2	0	1	382	0.3	381	383	14.4	93.9
2025-07-28T00:23	10	0	0.1	0	0	382	0.2	382	383	14.3	94.3
2025-07-28T00:24	10	0	0.2	0	1	382	0.3	382	383	14.3	94.7
2025-07-28T00:25	10	0	0.2	0	1	383	0.3	382	383	14.3	94.7
2025-07-28T00:26	10	0	0.2	0	1	382	0.2	382	383	14.3	94.5
2025-07-28T00:27	10	0	0.2	0	1	382	0.3	382	383	14.3	94.5
2025-07-28T00:28	10	0	0.1	0	0	382	0.2	382	383	14.3	94.4
2025-07-28T00:29	10	0	0.1	0	0	383	0.3	382	383	14.3	94.0
2025-07-28T00:30	10	0	0.2	0	0	382	0.3	381	383	14.3	94.3
2025-07-28T00:31	10	0	0.2	0	1	382	0.2	382	383	14.3	94.3
2025-07-28T00:32	10	0	0.2	0	1	382	0.3	382	383	14.3	94.0
2025-07-28T00:33	10	0	0.2	0	1	382	0.3	382	383	14.3	94.1
2025-07-28T00:34	10	0	0.1	0	0	382	0.3	381	383	14.3	94.0
2025-07-28T00:35	10	0	0.1	0	0	382	0.2	382	383	14.3	93.7
2025-07-28T00:36	10	0	0.2	0	1	382	0.2	382	383	14.3	93.5
2025-07-28T00:37	10	0	0.1	0	0	382	0.2	382	383	14.4	92.8
2025-07-28T00:38	10	0	0.1	0	0	382	0.2	382	383	14.4	92.7
2025-07-28T00:39	10	0	0.1	0	0	382	0.2	381	383	14.4	91.8
2025-07-28T00:40	10	0	0.2	0	1	382	0.2	382	382	14.4	91.8
2025-07-28T00:41	10	0	0.1	0	1	382	0.2	382	383	14.4	92.0
2025-07-28T00:42	10	0	0.1	0	0	382	0.2	382	383	14.4	92.4
2025-07-28T00:43	10	0	0.1	0	0	382	0.2	382	383	14.4	91.7
2025-07-28T00:44	10	0	0.1	0	0	382	0.2	381	382	14.4	92.3
2025-07-28T00:45	10	0	0.1	0	0	382	0.2	381	382	14.3	93.1
2025-07-28T00:46	10	0	0.1	0	0	382	0.2	381	382	14.3	93.1
2025-07-28T00:47	10	0	0.1	0	1	382	0.3	381	382	14.3	93.3
2025-07-28T00:48	10	0	0.1	0	1	382	0.2	381	382	14.3	92.5
2025-07-28T00:49	10	0	0.2	0	1	382	0.2	381	382	14.3	92.4
2025-07-28T00:50	10	0	0.1	0	0	382	0.2	381	382	14.3	92.9
2025-07-28T00:51	10	0	0.1	0	0	382	0.2	381	382	14.3	93.2
2025-07-28T00:52	10	0	0.1	0	0	382	0.2	381	382	14.2	93.6
2025-07-28T00:53	10	0	0.1	0	0	381	0.2	381	382	14.2	93.4
2025-07-28T00:54	10	0	0.1	0	0	381	0.2	381	382	14.2	93.1
2025-07-28T00:55	10	0	0.1	0	0	381	0.2	381	382	14.2	93.2
2025-07-28T00:56	10	0	0.1	0	1	382	0.2	381	382	14.2	93.3
2025-07-28T00:57	10	0	0.1	0	0	381	0.2	381	382	14.2	94.0
2025-07-28T00:58	10	0	0.1	0	0	381	0.2	381	382	14.1	94.2
2025-07-28T00:59	10	0	0.1	0	0	381	0.2	381	382	14.1	93.9
2025-07-28T01:00	10	0	0.1	0	0	382	0.2	381	382	14.1	93.6
2025-07-28T01:01	10	0	0.1	0	0	382	0.2	381	382	14.1	93.9
2025-07-28T01:02	10	0	0.1	0	0	381	0.2	381	382	14.1	94.1
2025-07-28T01:03	10	0	0.1	0	0	382	0.2	381	382	14.1	93.9
2025-07-28T01:04	10	0	0.2	0	1	381	0.3	381	382	14.1	93.9
2025-07-28T01:05	10	0	0.1	0	0	381	0.2	381	382	14.1	93.9
2025-07-28T01:06	10	0	0.1	0	0	381	0.2	381	382	14.1	94.1
2025-07-28T01:07	10	0	0.1	0	0	381	0.2	381	382	14.0	94.7
2025-07-28T01:08	10	0	0.1	0	0	381	0.2	380	381	14.0	94.6
2025-07-28T01:09	10	0	0.1	0	0	381	0.2	381	382	14.0	94.8
2025-07-28T01:10	10	0	0.1	0	0	381	0.3	380	382	14.0	94.9
2025-07-28T01:11	10	0	0.1	0	0	381	0.2	380	381	14.0	94.6
2025-07-28T01:12	10	0	0.1	0	0	381	0.2	380	381	14.0	94.7
2025-07-28T01:13	10	0	0.1	0	0	381	0.2	380	381	14.0	94.9
2025-07-28T01:14	10	0	0.1	0	0	381	0.2	380	381	14.0	94.8
2025-07-28T01:15	10	0	0.1	0	0	381	0.2	380	381	13.9	94.9
2025-07-28T01:16	10	0	0.1	0	0	381	0.2	380	381	13.9	94.4
2025-07-28T01:17	10	0	0.1	0	0	381	0.2	380	381	14.0	94.2
2025-07-28T01:18	10	0	0.1	0	0	381	0.2	380	381	14.0	94.4
2025-07-28T01:19	10	0	0.1	0	0	381	0.3	380	381	13.9	94.7
2025-07-28T01:20	10	0	0.1	0	0	381	0.2	380	381	13.9	94.9
2025-07-28T01:21	10	0	0.1	0	0	381	0.3	380	381	13.9	94.8
2025-07-28T01:22	10	0	0.1	0	0	381	0.2	380	381	13.9	94.7
2025-07-28T01:23	10	0	0.1	0	0	381	0.2	380	381	13.9	94.4
2025-07-28T01:24	10	0	0.1	0	0	381	0.2	380	381	13.9	94.7
2025-07-28T01:25	10	0	0.1	0	0	380	0.3	380	381	13.9	94.8
2025-07-28T01:26	10	0	0.1	0	0	381	0.2	380	381	13.9	95.0
2025-07-28T01:27	10	0	0.1	0	0	381	0.2	380	381	13.9	95.3
2025-07-28T01:28	10	0	0.1	0	0	381	0.2	380	381	13.9	95.6
2025-07-28T01:29	10	0	0.1	0	0	380	0.3	380	381	13.9	95.9
2025-07-28T01:30	10	0	0.1	0	0	381	0.3	380	381	13.9	95.9
2025-07-28T01:31	10	0	0.1	0	0	380	0.3	380	381	13.9	96.1
2025-07-28T01:32	10	0	0.1	0	0	380	0.2	380	381	13.9	95.8
2025-07-28T01:33	10	0	0.1	0	0	380	0.2	380	381	13.9	95.3
2025-07-28T01:34	10	0	0.0	0	0	381	0.2	380	381	13.9	95.5
2025-07-28T01:35	10	0	0.1	0	0	380	0.2	380	381	13.9	95.8
2025-07-28T01:36	10	0	0.1	0	0	380	0.3	380	381	13.8	95.9
2025-07-28T01:37	10	0	0.1	0	0	380	0.2	380	380	13.8	95.7
2025-07-28T01:38	10	0	0.1	0	0	380	0.3	379	381	13.8	95.7
2025-07-28T01:39	10	0	0.1	0	0	380	0.2	380	381	13.8	95.9
2025-07-28T01:40	10	0	0.1	0	0	380	0.2	380	381	13.8	95.8
2025-07-28T01:41	10	0	0.0	0	0	380	0.2	380	380	13.8	96.0
2025-07-28T01:42	10	0	0.1	0	0	380	0.3	379	381	13.8	96.1
2025-07-28T01:43	10	0	0.1	0	0	380	0.2	379	380	13.8	96.0
2025-07-28T01:44	10	0	0.1	0	0	380	0.2	379	380	13.8	95.7
2025-07-28T01:45	10	0	0.1	0	0	380	0.3	379	381	13.8	95.7
2025-07-28T01:46	10	0	0.1	0	0	380	0.3	379	380	13.7	95.9
2025-07-28T01:47	10	0	0.1	0	0	380	0.3	379	380	13.7	95.8
2025-07-28T01:48	10	0	0.1	0	0	380	0.3	379	380	13.7	95.9
2025-07-28T01:49	10	0	0.1	0	0	380	0.2	379	380	13.7	95.7
2025-07-28T01:50	10	0	0.1	0	0	380	0.2	379	380	13.7	95.6
2025-07-28T01:51	10	0	0.1	0	0	380	0.2	379	380	13.7	95.4
2025-07-28T01:52	10	0	0.1	0	0	380	0.3	379	381	13.7	95.2
2025-07-28T01:53	10	0	0.1	0	0	380	0.2	379	380	13.7	94.8
2025-07-28T01:54	10	0	0.1	0	0	380	0.2	379	380	13.7	95.2
2025-07-28T01:55	10	0	0.1	0	0	380	0.3	379	380	13.7	95.1
2025-07-28T01:56	10	0	0.0	0	0	380	0.2	380	380	13.7	94.9
2025-07-28T01:57	10	0	0.1	0	0	380	0.2	379	380	13.7	94.7
2025-07-28T01:58	10	0	0.1	0	0	380	0.2	379	380	13.7	94.3
2025-07-28T01:59	10	0	0.3	0	2	380	0.2	379	380	13.7	93.6
2025-07-28T02:00	10	0	0.1	0	0	380	0.2	379	380	13.7	93.9
2025-07-28T02:01	10	0	0.1	0	0	380	0.2	379	380	13.7	94.2
2025-07-28T02:02	10	0	0.1	0	0	380	0.2	379	380	13.7	93.7
2025-07-28T02:03	10	0	0.1	0	0	380	0.3	379	380	13.7	94.2
2025-07-28T02:04	10	0	0.0	0	0	379	0.2	379	380	13.6	94.1
2025-07-28T02:05	10	0	0.1	0	0	379	0.2	379	380	13.6	94.2
2025-07-28T02:06	10	0	0.1	0	0	379	0.2	379	380	13.6	94.5
2025-07-28T02:07	10	0	0.1	0	0	379	0.3	378	380	13.6	94.5
2025-07-28T02:08	10	0	0.1	0	0	379	0.3	379	380	13.6	94.8
2025-07-28T02:09	10	0	0.0	0	0	379	0.3	379	380	13.6	94.6
2025-07-28T02:10	10	0	0.1	0	0	379	0.2	379	380	13.6	94.8
2025-07-28T02:11	10	0	0.0	0	0	379	0.2	379	380	13.5	95.2
2025-07-28T02:12	10	0	0.0	0	0	379	0.2	378	380	13.5	95.7
2025-07-28T02:13	10	0	0.0	0	0	379	0.2	379	380	13.4	95.7
2025-07-28T02:14	10	0	0.1	0	0	379	0.2	378	379	13.4	95.8
2025-07-28T02:15	10	0	0.1	0	0	379	0.2	378	379	13.4	95.6
2025-07-28T02:16	10	0	0.1	0	0	379	0.2	378	379	13.4	95.6
2025-07-28T02:17	10	0	0.1	-1	0	378	0.2	378	379	13.4	96.0
2025-07-28T02:18	10	0	0.1	-1	0	378	0.3	378	379	13.3	95.7
2025-07-28T02:19	10	0	0.1	-1	0	378	0.2	378	379	13.3	95.6
2025-07-28T02:20	10	-1	0.0	-1	0	378	0.2	378	378	13.3	95.7
2025-07-28T02:21	10	-1	0.1	-1	0	378	0.2	378	379	13.3	95.6
2025-07-28T02:22	10	-1	0.1	-1	0	378	0.2	377	379	13.3	95.1
2025-07-28T02:23	10	-1	0.1	-1	0	378	0.2	378	378	13.4	94.8
2025-07-28T02:24	10	-1	0.1	-1	0	378	0.2	377	378	13.3	94.9
2025-07-28T02:25	10	-1	0.1	-1	0	378	0.2	377	378	13.3	94.9
2025-07-28T02:26	10	-1	0.1	-1	0	378	0.2	377	378	13.3	95.0
2025-07-28T02:27	10	-1	0.1	-1	0	378	0.3	377	378	13.3	95.0
2025-07-28T02:28	10	0	0.1	-1	0	377	0.2	377	378	13.3	95.1
2025-07-28T02:29	10	0	0.1	-1	0	378	0.3	377	378	13.3	94.8
2025-07-28T02:30	10	0	0.1	-1	0	377	0.3	377	378	13.2	94.8
2025-07-28T02:31	10	0	0.1	-1	0	377	0.2	377	378	13.2	94.6
2025-07-28T02:32	10	0	0.1	0	0	377	0.2	377	378	13.2	94.9
2025-07-28T02:33	10	0	0.1	0	0	377	0.2	377	378	13.2	94.5
2025-07-28T02:34	10	0	0.1	0	0	377	0.2	377	378	13.2	94.3
2025-07-28T02:35	10	0	0.1	0	0	377	0.2	377	378	13.2	94.7
2025-07-28T02:36	10	0	0.1	0	0	377	0.3	377	378	13.2	94.2
2025-07-28T02:37	10	0	0.1	0	0	377	0.2	376	377	13.2	94.5
2025-07-28T02:38	10	0	0.0	0	0	377	0.3	376	377	13.1	94.7
2025-07-28T02:39	10	0	0.0	0	0	377	0.3	376	377	13.2	93.7
2025-07-28T02:40	10	0	0.1	0	0	377	0.2	376	377	13.2	94.1
2025-07-28T02:41	10	0	0.1	0	0	377	0.2	376	377	13.1	94.4
2025-07-28T02:42	10	0	0.1	0	0	377	0.2	376	377	13.1	94.5
2025-07-28T02:43	10	0	0.1	0	0	377	0.2	377	377	13.1	94.4
2025-07-28T02:44	10	0	0.1	0	0	377	0.2	376	377	13.1	94.3
2025-07-28T02:45	10	0	0.1	0	0	377	0.2	376	377	13.1	94.1
2025-07-28T02:46	10	0	0.1	0	0	377	0.2	376	377	13.1	93.8
2025-07-28T02:47	10	0	0.1	0	0	377	0.2	376	377	13.2	93.5
2025-07-28T02:48	10	0	0.1	0	0	377	0.2	376	377	13.2	93.5
2025-07-28T02:49	10	0	0.0	0	0	377	0.2	376	377	13.1	94.0
2025-07-28T02:50	10	0	0.1	0	0	376	0.2	376	377	13.1	94.2
2025-07-28T02:51	10	0	0.1	0	0	377	0.3	376	377	13.1	94.3
2025-07-28T02:52	10	0	0.1	0	0	377	0.2	376	377	13.1	94.5
2025-07-28T02:53	10	0	0.1	0	0	377	0.2	376	377	13.1	94.0
2025-07-28T02:54	10	0	0.1	0	0	377	0.2	376	377	13.1	94.4
2025-07-28T02:55	10	0	0.1	0	0	377	0.2	376	377	13.1	94.4
2025-07-28T02:56	10	0	0.0	0	0	377	0.2	376	377	13.1	94.1
2025-07-28T02:57	10	0	0.1	0	0	377	0.2	376	377	13.1	94.4
2025-07-28T02:58	10	0	0.0	0	0	377	0.2	376	377	13.1	94.3
2025-07-28T02:59	10	0	0.1	0	0	377	0.2	376	377	13.1	94.6
2025-07-28T03:00	10	0	0.1	0	0	377	0.3	376	377	13.1	94.9
2025-07-28T03:01	10	0	0.1	0	0	377	0.2	376	377	13.1	94.3
2025-07-28T03:02	10	0	0.1	0	0	376	0.2	376	377	13.1	94.6
2025-07-28T03:03	10	0	0.1	0	0	377	0.2	376	377	13.1	94.5
2025-07-28T03:04	10	0	0.1	0	0	377	0.2	376	377	13.1	94.3
2025-07-28T03:05	10	0	0.1	0	0	376	0.3	376	377	13.1	94.4
2025-07-28T03:06	10	0	0.0	0	0	377	0.3	376	377	13.1	94.6
2025-07-28T03:07	10	0	0.1	0	0	376	0.3	376	377	13.1	94.4
2025-07-28T03:08	10	0	0.1	0	0	376	0.2	376	377	13.1	94.0
2025-07-28T03:09	10	0	0.1	0	0	376	0.3	375	377	13.1	94.0
2025-07-28T03:10	10	0	0.1	0	0	376	0.2	376	377	13.1	93.9
2025-07-28T03:11	10	0	0.1	0	0	376	0.2	376	377	13.1	93.9
2025-07-28T03:12	10	0	0.1	0	0	376	0.3	376	377	13.1	94.0
2025-07-28T03:13	10	0	0.1	0	0	376	0.2	376	377	13.1	93.7
2025-07-28T03:14	10	0	0.1	0	0	376	0.2	376	377	13.1	93.9
2025-07-28T03:15	10	0	0.1	0	0	376	0.2	376	377	13.1	93.3
2025-07-28T03:16	10	0	0.1	0	0	376	0.2	376	377	13.1	93.6
2025-07-28T03:17	10	0	0.1	0	0	376	0.2	376	377	13.1	93.4
2025-07-28T03:18	10	0	0.1	0	0	376	0.2	376	377	13.1	93.4
2025-07-28T03:19	10	0	0.1	0	0	376	0.2	376	377	13.1	93.6
2025-07-28T03:20	10	0	0.1	0	0	376	0.2	376	377	13.1	94.0
2025-07-28T03:21	10	0	0.1	0	0	376	0.3	375	377	13.1	93.7
2025-07-28T03:22	10	0	0.1	0	0	376	0.2	375	377	13.1	93.9
2025-07-28T03:23	10	0	0.1	0	0	376	0.2	376	377	13.1	94.3
2025-07-28T03:24	10	0	0.1	0	0	376	0.3	375	377	13.1	94.1
2025-07-28T03:25	10	0	0.1	0	0	376	0.2	375	376	13.1	94.2
2025-07-28T03:26	10	0	0.1	0	0	376	0.2	376	377	13.1	94.2
2025-07-28T03:27	10	0	0.1	0	0	376	0.3	375	377	13.1	93.8
2025-07-28T03:28	10	0	0.1	0	0	376	0.3	376	377	13.1	93.4
2025-07-28T03:29	10	0	0.1	0	0	376	0.2	375	376	13.1	93.7
2025-07-28T03:30	10	0	0.1	0	0	376	0.3	375	376	13.1	93.8
2025-07-28T03:31	10	0	0.1	0	0	376	0.2	376	376	13.1	93.9
2025-07-28T03:32	10	0	0.1	0	0	376	0.2	375	376	13.1	93.9
2025-07-28T03:33	10	0	0.1	0	0	376	0.2	376	376	13.1	93.4
2025-07-28T03:34	10	0	0.1	0	0	376	0.3	376	377	13.1	93.1
2025-07-28T03:35	10	0	0.1	0	0	376	0.2	376	377	13.1	93.1
2025-07-28T03:36	10	0	0.1	0	0	376	0.2	376	377	13.1	93.2
2025-07-28T03:37	10	0	0.1	0	0	376	0.3	375	377	13.1	93.3
2025-07-28T03:38	10	0	0.1	0	0	376	0.3	375	377	13.1	93.6
2025-07-28T03:39	10	0	0.1	0	0	376	0.2	376	376	13.1	94.1
2025-07-28T03:40	10	0	0.1	0	0	376	0.2	375	377	13.1	93.7
2025-07-28T03:41	10	0	0.1	0	0	376	0.2	375	376	13.1	93.8
2025-07-28T03:42	10	0	0.1	0	0	376	0.3	376	377	13.1	93.6
2025-07-28T03:43	10	0	0.1	0	0	376	0.2	376	377	13.1	92.9
2025-07-28T03:44	10	0	0.1	0	0	376	0.2	376	377	13.1	93.0
2025-07-28T03:45	10	0	0.1	0	0	376	0.2	376	377	13.1	93.0
2025-07-28T03:46	10	0	0.1	0	0	376	0.3	376	377	13.1	93.0
2025-07-28T03:47	10	0	0.1	0	0	376	0.2	376	377	13.1	93.3
2025-07-28T03:48	10	0	0.1	0	0	376	0.2	376	377	13.0	93.8
2025-07-28T03:49	10	0	0.1	0	0	376	0.3	376	377	13.0	93.9
2025-07-28T03:50	10	0	0.1	0	0	376	0.3	376	377	13.1	93.8
2025-07-28T03:51	10	0	0.1	0	0	376	0.2	376	377	13.1	93.4
2025-07-28T03:52	10	0	0.1	0	0	376	0.3	375	377	13.1	93.6
2025-07-28T03:53	10	0	0.1	0	0	376	0.2	376	377	13.1	93.6
2025-07-28T03:54	10	0	0.1	0	0	376	0.2	376	376	13.1	93.3
2025-07-28T03:55	10	0	0.1	0	0	376	0.3	375	377	13.1	93.8
2025-07-28T03:56	10	0	0.1	0	0	376	0.2	376	376	13.0	93.7
2025-07-28T03:57	10	0	0.1	0	0	376	0.2	375	376	13.1	93.7
2025-07-28T03:58	10	0	0.1	0	0	376	0.3	375	377	13.0	94.2
2025-07-28T03:59	10	0	0.1	0	0	376	0.2	375	376	13.0	94.4
2025-07-28T04:00	10	0	0.1	0	0	376	0.3	375	376	13.0	93.5
2025-07-28T04:01	10	0	0.1	0	0	376	0.4	375	377	13.1	93.5
2025-07-28T04:02	10	0	0.1	0	0	376	0.3	375	377	13.1	93.2
2025-07-28T04:03	10	0	0.1	0	0	376	0.2	376	377	13.1	93.1
2025-07-28T04:04	10	0	0.1	0	0	376	0.2	376	377	13.1	92.4
2025-07-28T04:05	10	0	0.1	0	0	376	0.3	375	377	13.1	92.4
2025-07-28T04:06	10	0	0.1	0	0	376	0.3	375	377	13.1	92.8
2025-07-28T04:07	10	0	0.1	0	0	376	0.2	376	377	13.1	93.0
2025-07-28T04:08	10	0	0.1	0	0	376	0.2	376	377	13.1	92.6
2025-07-28T04:09	10	0	0.1	0	0	376	0.2	376	376	13.1	92.5
2025-07-28T04:10	10	0	0.1	0	0	376	0.2	376	377	13.1	92.5
2025-07-28T04:11	10	0	0.1	0	0	376	0.3	376	377	13.1	92.7
2025-07-28T04:12	10	0	0.1	0	0	376	0.2	375	377	13.1	92.9
2025-07-28T04:13	10	0	0.1	0	0	376	0.2	376	377	13.1	92.8
2025-07-28T04:14	10	0	0.1	0	0	376	0.2	376	377	13.2	91.6
2025-07-28T04:15	10	0	0.1	0	0	376	0.3	376	377	13.2	91.9
2025-07-28T04:16	10	0	0.1	0	0	376	0.2	376	377	13.1	92.3
2025-07-28T04:17	10	0	0.1	0	0	376	0.3	375	377	13.1	92.7
2025-07-28T04:18	10	0	0.1	0	0	376	0.2	376	377	13.1	92.3
2025-07-28T04:19	10	0	0.1	0	0	376	0.2	376	376	13.1	92.3
2025-07-28T04:20	10	0	0.1	0	0	376	0.2	375	376	13.1	92.0
2025-07-28T04:21	10	0	0.1	0	0	376	0.2	376	377	13.1	92.4
2025-07-28T04:22	10	0	0.1	0	0	376	0.3	375	377	13.1	92.8
2025-07-28T04:23	10	0	0.1	0	0	376	0.4	375	377	13.1	92.8
2025-07-28T04:24	10	0	0.1	0	0	376	0.2	376	376	13.1	93.4
2025-07-28T04:25	10	0	0.1	0	0	376	0.2	376	377	13.1	93.0
2025-07-28T04:26	10	0	0.1	0	0	376	0.2	376	377	13.1	92.5
2025-07-28T04:27	10	0	0.1	0	0	376	0.2	376	377	13.1	92.8
2025-07-28T04:28	10	0	0.1	0	0	376	0.2	376	376	13.1	92.5
2025-07-28T04:29	10	0	0.1	0	0	376	0.3	376	377	13.1	92.7
2025-07-28T04:30	10	0	0.1	0	0	376	0.3	376	377	13.1	92.9
2025-07-28T04:31	10	0	0.1	0	0	376	0.4	376	377	13.1	92.7
2025-07-28T04:32	10	0	0.1	0	0	376	0.2	376	377	13.1	92.6
2025-07-28T04:33	10	0	0.1	0	1	376	0.3	375	377	13.1	92.7
2025-07-28T04:34	10	0	0.1	0	0	376	0.2	376	377	13.1	92.3
2025-07-28T04:35	10	0	0.1	0	0	376	0.2	376	377	13.1	92.1
2025-07-28T04:36	10	0	0.1	0	0	376	0.3	375	377	13.1	92.3
2025-07-28T04:37	10	0	0.1	0	0	376	0.2	376	377	13.1	92.2
2025-07-28T04:38	10	0	0.1	0	0	376	0.3	376	377	13.1	91.5
2025-07-28T04:39	10	0	0.1	0	1	376	0.3	376	377	13.1	91.6
2025-07-28T04:40	10	0	0.1	0	1	376	0.2	376	377	13.1	91.8
2025-07-28T04:41	10	1	0.1	0	1	376	0.2	376	377	13.1	91.8
2025-07-28T04:42	10	1	0.1	0	1	376	0.2	376	377	13.1	92.2
2025-07-28T04:43	10	1	0.1	0	1	376	0.2	376	377	13.1	91.5
2025-07-28T04:44	10	1	0.1	1	1	376	0.2	376	377	13.2	91.6
2025-07-28T04:45	10	1	0.1	1	1	377	0.2	376	377	13.2	91.0
2025-07-28T04:46	10	1	0.1	1	1	376	0.2	376	377	13.2	90.4
2025-07-28T04:47	10	1	0.1	1	1	376	0.3	376	377	13.2	90.8
2025-07-28T04:48	10	1	0.1	1	1	376	0.2	376	377	13.2	91.4
2025-07-28T04:49	10	1	0.1	1	1	376	0.2	376	377	13.1	91.8
2025-07-28T04:50	10	1	0.1	1	2	376	0.2	376	377	13.1	92.4
2025-07-28T04:51	10	1	0.1	1	2	376	0.3	376	377	13.1	92.8
2025-07-28T04:52	10	2	0.1	1	2	377	0.3	376	377	13.1	93.2
2025-07-28T04:53	10	2	0.1	2	2	377	0.2	376	377	13.1	93.2
2025-07-28T04:54	10	2	0.1	2	2	377	0.2	376	377	13.1	93.1
2025-07-28T04:55	10	2	0.1	2	2	377	0.2	377	377	13.1	92.0
2025-07-28T04:56	10	2	0.1	2	2	377	0.3	376	377	13.1	92.2
2025-07-28T04:57	10	2	0.1	2	2	377	0.3	376	378	13.1	92.3
2025-07-28T04:58	10	2	0.1	2	2	377	0.3	377	378	13.1	92.9
2025-07-28T04:59	10	2	0.1	2	2	377	0.2	377	378	13.1	93.2
2025-07-28T05:00	10	2	0.2	2	3	377	0.2	377	378	13.1	93.1
2025-07-28T05:01	10	3	0.2	3	3	378	0.3	377	378	13.1	92.9
2025-07-28T05:02	10	3	0.1	3	3	378	0.2	377	378	13.2	92.6
2025-07-28T05:03	10	3	0.1	3	4	378	0.3	377	378	13.2	92.6
2025-07-28T05:04	10	4	0.1	3	4	378	0.3	377	378	13.2	92.4
2025-07-28T05:05	10	4	0.1	3	4	378	0.2	377	378	13.2	92.3
2025-07-28T05:06	10	4	0.1	3	4	378	0.2	378	378	13.2	93.1
2025-07-28T05:07	10	4	0.1	3	4	378	0.2	378	379	13.2	92.8
2025-07-28T05:08	10	4	0.1	3	4	378	0.2	378	379	13.2	91.8
2025-07-28T05:09	10	4	0.1	3	4	378	0.2	378	379	13.3	91.3
2025-07-28T05:10	10	4	0.1	3	4	378	0.2	378	379	13.3	91.0
2025-07-28T05:11	10	4	0.1	4	4	378	0.2	378	379	13.3	91.0
2025-07-28T05:12	10	4	0.1	4	4	378	0.2	378	379	13.4	90.2
2025-07-28T05:13	10	4	0.1	4	4	378	0.2	378	379	13.4	90.5
2025-07-28T05:14	10	4	0.1	4	4	378	0.3	378	379	13.3	90.8
2025-07-28T05:15	10	4	0.1	4	4	378	0.3	377	379	13.3	90.9
2025-07-28T05:16	10	4	0.1	4	4	378	0.3	378	379	13.4	90.4
2025-07-28T05:17	10	4	0.1	4	4	378	0.2	378	379	13.4	90.2
2025-07-28T05:18	10	4	0.1	4	4	378	0.3	378	379	13.3	90.8
2025-07-28T05:19	10	4	0.1	4	4	378	0.2	378	379	13.3	90.9
2025-07-28T05:20	10	4	0.1	4	4	378	0.2	378	379	13.3	91.1
2025-07-28T05:21	10	4	0.1	4	4	378	0.2	378	379	13.3	91.1
2025-07-28T05:22	10	4	0.1	4	5	379	0.2	378	379	13.3	91.5
2025-07-28T05:23	10	5	0.2	5	6	379	0.3	378	380	13.3	91.0
2025-07-28T05:24	10	6	0.3	6	7	379	0.3	378	379	13.3	91.2
2025-07-28T05:25	10	7	0.3	7	8	379	0.2	378	380	13.3	91.3
2025-07-28T05:26	10	8	0.3	8	8	379	0.3	378	380	13.3	91.4
2025-07-28T05:27	10	9	0.2	8	9	379	0.2	379	380	13.3	91.7
2025-07-28T05:28	10	9	0.2	9	10	379	0.2	379	380	13.3	91.9
2025-07-28T05:29	10	10	0.2	9	10	380	0.2	379	380	13.3	91.6
2025-07-28T05:30	10	10	0.2	10	11	380	0.2	379	380	13.3	92.0
2025-07-28T05:31	10	11	0.2	11	12	380	0.3	379	381	13.3	91.8
2025-07-28T05:32	10	12	0.2	12	12	380	0.2	380	380	13.4	90.7
2025-07-28T05:33	10	12	0.2	12	13	380	0.3	379	380	13.4	90.8
2025-07-28T05:34	10	13	0.1	13	13	380	0.2	380	380	13.5	90.1
2025-07-28T05:35	10	13	0.1	13	13	381	0.4	380	381	13.5	90.0
2025-07-28T05:36	10	13	0.1	12	13	381	0.3	380	381	13.5	90.3
2025-07-28T05:37	10	12	0.1	12	13	381	0.2	380	381	13.5	89.9
2025-07-28T05:38	10	12	0.1	12	13	381	0.3	380	381	13.6	89.4
2025-07-28T05:39	10	12	0.1	12	13	381	0.2	380	381	13.6	89.5
2025-07-28T05:40	10	13	0.1	12	13	381	0.3	380	381	13.6	90.0
2025-07-28T05:41	10	13	0.1	13	13	381	0.2	381	381	13.6	89.4
2025-07-28T05:42	10	13	0.2	13	13	381	0.3	380	381	13.6	90.0
2025-07-28T05:43	10	14	0.3	13	14	381	0.2	381	382	13.6	90.2
2025-07-28T05:44	10	15	0.4	14	15	382	0.2	381	382	13.6	89.5
2025-07-28T05:45	10	16	0.4	15	17	382	0.2	381	382	13.6	89.5
2025-07-28T05:46	10	17	0.3	16	18	382	0.3	382	383	13.6	89.8
2025-07-28T05:47	10	19	0.5	18	19	382	0.3	382	383	13.6	89.8
2025-07-28T05:48	10	20	0.3	19	20	383	0.4	382	384	13.6	90.5
2025-07-28T05:49	10	21	0.7	20	23	383	0.3	383	384	13.6	91.2
2025-07-28T05:50	10	21	1.7	19	24	384	0.3	383	385	13.6	91.4
2025-07-28T05:51	10	20	0.1	20	20	384	0.3	383	385	13.6	90.6
2025-07-28T05:52	10	20	0.1	19	20	384	0.3	383	384	13.7	90.8
2025-07-28T05:53	10	19	0.1	19	20	384	0.2	384	385	13.7	90.7
2025-07-28T05:54	10	19	0.1	19	20	384	0.2	384	384	13.7	90.1
2025-07-28T05:55	10	19	0.2	18	19	384	0.2	383	385	13.7	90.7
2025-07-28T05:56	10	18	0.3	18	19	384	0.3	384	385	13.7	90.8
2025-07-28T05:57	10	17	0.4	17	18	384	0.3	384	385	13.7	90.8
2025-07-28T05:58	10	16	0.4	15	17	384	0.2	384	385	13.7	90.5
2025-07-28T05:59	10	14	0.4	14	15	384	0.4	383	385	13.8	90.4
2025-07-28T06:00	10	13	0.4	12	14	384	0.3	383	385	13.8	90.0
2025-07-28T06:01	10	12	0.2	12	12	384	0.3	383	384	13.8	90.1
2025-07-28T06:02	10	11	0.2	11	12	384	0.3	383	384	13.8	90.3
2025-07-28T06:03	10	11	0.2	11	11	383	0.2	383	384	13.9	89.9
2025-07-28T06:04	10	10	0.2	10	11	383	0.3	383	384	13.9	90.0
2025-07-28T06:05	10	10	0.1	10	10	383	0.2	383	384	13.9	90.0
2025-07-28T06:06	10	10	0.1	10	10	383	0.2	383	384	13.9	89.9
2025-07-28T06:07	10	11	0.2	10	11	383	0.3	382	384	13.9	89.9
2025-07-28T06:08	10	11	0.3	11	12	383	0.3	383	384	13.9	89.9
2025-07-28T06:09	10	12	0.2	12	13	383	0.3	383	384	13.9	89.0
2025-07-28T06:10	10	13	0.1	13	13	384	0.3	383	384	14.0	89.5
2025-07-28T06:11	10	13	0.1	13	13	384	0.2	384	384	13.9	89.5
2025-07-28T06:12	10	13	0.2	12	13	384	0.2	383	384	14.0	87.8
2025-07-28T06:13	10	12	0.1	12	12	384	0.2	384	384	14.0	88.3
2025-07-28T06:14	10	12	0.1	12	12	384	0.3	383	385	14.0	89.3
2025-07-28T06:15	10	13	0.1	12	13	384	0.2	384	385	14.0	89.2
2025-07-28T06:16	10	13	0.1	13	13	384	0.2	384	385	14.0	89.0
2025-07-28T06:17	10	13	0.1	13	13	385	0.3	384	385	14.0	89.1
2025-07-28T06:18	10	13	0.1	12	13	385	0.3	384	385	14.0	89.3
2025-07-28T06:19	10	12	0.1	12	13	385	0.2	384	385	14.0	89.2
2025-07-28T06:20	10	13	0.2	12	13	385	0.1	385	385	14.0	89.3
2025-07-28T06:21	10	14	0.4	13	15	385	0.2	384	386	14.0	88.1
2025-07-28T06:22	10	16	0.7	15	17	385	0.3	384	385	14.1	88.2
2025-07-28T06:23	10	18	0.6	17	20	385	0.2	385	386	14.0	88.5
2025-07-28T06:24	10	20	0.4	19	21	386	0.3	385	386	14.0	88.6
2025-07-28T06:25	10	21	0.1	21	21	387	0.2	386	387	14.0	89.2
2025-07-28T06:26	10	21	0.2	20	21	387	0.2	386	387	14.1	89.0
2025-07-28T06:27	10	20	0.3	19	20	387	0.4	386	387	14.1	89.0
2025-07-28T06:28	10	19	0.4	18	19	386	0.2	386	387	14.1	88.4
2025-07-28T06:29	10	17	0.6	16	18	386	0.2	386	387	14.1	88.9
2025-07-28T06:30	10	15	0.6	14	16	386	0.4	385	387	14.1	89.6
2025-07-28T06:31	10	13	0.6	12	14	386	0.2	385	386	14.1	88.8
2025-07-28T06:32	10	11	0.4	10	12	386	0.3	385	386	14.1	89.4
2025-07-28T06:33	10	10	0.2	10	10	385	0.2	385	386	14.1	89.3
2025-07-28T06:34	10	10	0.1	10	10	385	0.3	385	386	14.2	88.7
2025-07-28T06:35	10	10	0.1	9	10	385	0.2	385	386	14.2	88.9
2025-07-28T06:36	10	10	0.1	9	10	385	0.3	384	386	14.2	89.7
2025-07-28T06:37	10	10	0.1	9	10	385	0.2	385	386	14.1	89.5
2025-07-28T06:38	10	10	0.1	10	10	385	0.2	385	386	14.1	89.6
2025-07-28T06:39	10	10	0.1	10	11	385	0.4	384	386	14.1	88.8
2025-07-28T06:40	10	11	0.1	10	11	385	0.3	384	385	14.1	88.7
2025-07-28T06:41	10	11	0.1	11	11	385	0.2	385	385	14.1	89.3
2025-07-28T06:42	10	10	0.2	10	11	385	0.2	384	385	14.1	89.3
2025-07-28T06:43	10	10	0.1	10	10	384	0.3	384	385	14.1	89.2
2025-07-28T06:44	10	10	0.1	10	10	384	0.3	384	385	14.1	89.7
2025-07-28T06:45	10	10	0.1	9	10	384	0.2	384	385	14.1	90.6
2025-07-28T06:46	10	10	0.2	10	11	384	0.4	383	385	14.0	90.6
2025-07-28T06:47	10	11	0.3	11	12	383	0.2	383	384	14.0	90.4
2025-07-28T06:48	10	12	0.3	12	13	384	0.4	383	385	13.9	91.2
2025-07-28T06:49	10	13	0.3	12	13	385	0.3	384	385	13.9	92.0
2025-07-28T06:50	10	14	0.3	13	14	385	0.2	384	385	13.9	92.2
2025-07-28T06:51	10	15	0.3	14	15	385	0.2	384	385	13.9	92.4
2025-07-28T06:52	10	16	0.3	15	16	385	0.2	384	385	13.9	90.1
2025-07-28T06:53	10	17	0.4	16	18	385	0.2	384	385	13.9	89.6
2025-07-28T06:54	10	19	0.5	18	20	385	0.3	385	386	13.8	91.3
2025-07-28T06:55	10	21	0.5	20	21	386	0.3	385	386	13.8	91.9
2025-07-28T06:56	10	22	0.2	21	22	386	0.3	386	387	13.8	91.6
2025-07-28T06:57	10	21	0.4	21	22	387	0.4	386	388	13.9	91.3
2025-07-28T06:58	10	20	0.3	20	21	387	0.4	386	388	13.9	89.6
2025-07-28T06:59	10	20	0.2	20	21	386	0.2	386	387	13.9	87.7
2025-07-28T07:00	10	21	0.4	21	22	386	0.2	386	387	13.9	87.9
2025-07-28T07:01	10	23	0.4	22	23	386	0.2	386	387	13.9	88.3
2025-07-28T07:02	10	25	0.7	23	26	387	0.4	386	388	13.9	89.3
2025-07-28T07:03	10	27	0.4	26	27	387	0.3	387	388	13.9	89.7
2025-07-28T07:04	10	28	0.3	27	28	388	0.3	387	388	14.0	89.9
2025-07-28T07:05	10	30	1.2	28	33	388	0.3	387	388	14.0	90.1
2025-07-28T07:06	10	35	1.6	33	38	388	0.2	387	388	13.9	89.2
2025-07-28T07:07	10	39	0.4	38	40	389	0.4	388	390	13.9	89.5
2025-07-28T07:08	10	37	1.0	36	39	389	0.3	389	390	14.0	89.3
2025-07-28T07:09	10	36	0.2	35	36	390	0.2	389	390	14.0	89.4
2025-07-28T07:10	10	37	0.8	36	38	390	0.2	389	390	14.0	88.9
2025-07-28T07:11	10	40	0.6	38	40	391	0.6	390	391	14.0	89.8
2025-07-28T07:12	10	40	0.9	38	41	392	0.4	391	393	14.1	89.7
2025-07-28T07:13	10	35	1.6	32	37	392	0.4	391	393	14.1	90.1
2025-07-28T07:14	10	30	0.9	29	32	392	0.2	391	392	14.1	88.4
2025-07-28T07:15	10	29	0.2	29	30	392	0.3	391	392	14.2	88.6
2025-07-28T07:16	10	31	0.7	30	32	392	0.3	391	393	14.3	88.6
2025-07-28T07:17	10	33	0.7	32	34	392	0.2	392	393	14.3	88.2
2025-07-28T07:18	10	35	0.5	34	36	393	0.3	392	394	14.3	86.6
2025-07-28T07:19	10	36	0.3	36	37	394	0.2	393	394	14.3	88.3
2025-07-28T07:20	10	37	0.3	37	38	394	0.5	393	395	14.3	88.0
2025-07-28T07:21	10	38	0.2	37	38	395	0.3	395	396	14.4	89.1
2025-07-28T07:22	10	37	0.4	36	38	395	0.3	395	396	14.3	88.0
2025-07-28T07:23	10	36	0.2	36	37	395	0.3	395	396	14.4	87.4
2025-07-28T07:24	10	38	0.7	37	39	395	0.2	395	396	14.4	88.8
2025-07-28T07:25	10	40	0.6	39	41	396	0.3	395	396	14.4	88.4
2025-07-28T07:26	10	42	0.4	41	43	396	0.3	395	397	14.5	87.8
2025-07-28T07:27	10	44	0.7	42	45	397	0.4	396	398	14.5	86.5
2025-07-28T07:28	10	46	1.0	45	48	397	0.3	396	398	14.6	87.0
2025-07-28T07:29	10	50	1.2	48	52	398	0.3	397	398	14.6	87.0
2025-07-28T07:30	10	54	1.3	52	57	398	0.4	398	399	14.6	85.8
2025-07-28T07:31	10	59	1.5	56	62	399	0.3	399	400	14.6	86.3
2025-07-28T07:32	10	65	1.9	62	69	400	0.6	399	401	14.6	86.4
2025-07-28T07:33	10	79	4.7	69	87	403	1.0	401	404	14.7	86.9
2025-07-28T07:34	10	88	11.6	72	112	405	0.9	403	406	14.8	87.3
2025-07-28T07:35	10	67	4.5	62	77	405	0.5	404	406	15.0	88.6
2025-07-28T07:36	10	63	0.6	62	64	404	0.4	403	404	15.0	86.1
2025-07-28T07:37	10	63	0.5	62	64	403	0.3	403	404	14.9	86.2
2025-07-28T07:38	10	60	1.6	57	62	403	0.3	402	404	15.0	87.2
2025-07-28T07:39	10	56	0.5	55	57	402	0.2	402	403	15.0	87.1
2025-07-28T07:40	10	53	1.2	52	57	403	0.2	402	403	15.0	86.1
2025-07-28T07:41	10	51	0.6	50	52	402	1.0	400	403	15.1	86.7
2025-07-28T07:42	10	48	1.1	46	50	401	0.5	399	401	15.1	85.4
2025-07-28T07:43	10	46	0.3	46	47	399	0.9	397	400	15.0	83.4
2025-07-28T07:44	10	47	0.5	46	47	397	0.5	396	398	15.0	83.3
2025-07-28T07:45	10	49	1.0	47	51	397	0.5	396	398	15.0	85.4
2025-07-28T07:46	10	52	0.9	51	54	399	0.4	397	399	15.0	86.0
2025-07-28T07:47	10	55	0.4	54	55	399	0.2	399	400	15.0	86.0
2025-07-28T07:48	10	54	0.8	52	55	400	0.4	400	401	15.0	85.5
2025-07-28T07:49	10	50	1.8	46	52	400	0.3	400	401	15.1	85.2
2025-07-28T07:50	10	43	2.2	39	46	399	0.6	398	400	15.1	85.6
2025-07-28T07:51	10	36	1.6	33	39	398	0.4	397	399	15.1	84.6
2025-07-28T07:52	10	32	0.9	30	34	397	0.2	397	398	15.1	84.5
2025-07-28T07:53	10	30	0.1	30	30	397	0.4	396	397	15.2	86.6
2025-07-28T07:54	10	31	0.8	30	33	396	0.3	396	397	15.2	83.7
2025-07-28T07:55	10	35	1.2	33	37	396	0.3	396	397	15.2	85.3
2025-07-28T07:56	10	39	1.0	37	40	397	0.6	396	398	15.1	84.6
2025-07-28T07:57	10	41	0.2	40	41	399	0.6	398	400	15.2	86.4
2025-07-28T07:58	10	40	0.4	39	41	399	0.3	398	399	15.1	85.7
2025-07-28T07:59	10	38	0.5	38	39	399	0.4	398	400	15.1	84.6
2025-07-28T08:00	10	36	0.9	35	38	399	0.4	399	400	15.1	84.9
2025-07-28T08:01	10	32	1.6	29	34	398	0.5	397	399	15.0	83.9
2025-07-28T08:02	10	26	1.6	24	29	397	0.5	395	397	15.0	84.3
2025-07-28T08:03	10	22	0.9	20	24	395	0.3	395	396	15.0	84.4
2025-07-28T08:04	10	20	0.4	19	21	394	0.4	394	395	15.0	84.8
2025-07-28T08:05	10	19	0.2	19	20	394	0.3	393	394	15.0	84.9
2025-07-28T08:06	10	18	0.2	18	19	393	0.3	393	394	14.9	84.1
2025-07-28T08:07	10	18	0.3	17	18	393	0.3	392	394	15.0	84.5
2025-07-28T08:08	10	17	0.2	17	17	393	0.4	392	394	15.0	85.0
2025-07-28T08:09	10	16	0.3	15	17	393	0.3	392	394	15.0	85.1
2025-07-28T08:10	10	15	0.2	15	15	392	0.3	392	393	15.0	86.5
2025-07-28T08:11	10	15	0.2	14	15	392	0.2	392	392	14.9	84.8
2025-07-28T08:12	10	14	0.4	13	14	392	0.3	391	392	14.9	85.0
2025-07-28T08:13	10	12	0.3	12	13	391	0.2	391	392	15.0	82.5
2025-07-28T08:14	10	12	0.1	11	12	391	0.2	390	391	15.0	85.8
2025-07-28T08:15	10	12	0.1	11	12	391	0.4	390	391	14.9	86.0
2025-07-28T08:16	10	12	0.3	12	13	390	0.2	389	391	14.9	85.2
2025-07-28T08:17	10	14	0.5	13	15	390	0.3	389	391	14.9	83.8
2025-07-28T08:18	10	15	0.3	14	15	391	0.2	390	391	14.9	86.4
2025-07-28T08:19	10	15	0.1	15	16	391	0.2	390	391	14.9	85.6
2025-07-28T08:20	10	16	0.2	15	16	391	0.2	390	391	14.9	85.2
2025-07-28T08:21	10	16	0.3	16	17	391	0.4	390	392	14.9	85.7
2025-07-28T08:22	10	18	0.4	17	19	391	0.3	391	392	14.9	85.8
2025-07-28T08:23	10	19	0.3	18	20	392	0.3	391	393	14.9	86.8
2025-07-28T08:24	10	20	0.4	19	21	392	0.2	392	393	14.9	86.8
2025-07-28T08:25	10	22	0.7	21	23	392	0.2	392	393	14.8	86.3
2025-07-28T08:26	10	25	0.9	23	26	392	0.3	392	393	14.8	86.5
2025-07-28T08:27	10	28	0.8	26	29	393	0.4	392	394	14.8	86.8
2025-07-28T08:28	10	30	0.4	29	30	394	0.4	393	394	14.8	85.5
2025-07-28T08:29	10	30	0.1	30	31	394	0.6	394	395	14.9	83.7
2025-07-28T08:30	10	30	0.1	30	31	395	0.4	395	396	14.9	85.0
2025-07-28T08:31	10	30	0.1	30	30	395	0.3	395	396	15.1	80.2
2025-07-28T08:32	10	30	0.1	30	30	395	0.2	395	396	15.2	77.1
2025-07-28T08:33	10	30	0.2	30	30	396	0.4	395	397	15.3	79.2
2025-07-28T08:34	10	30	0.1	30	31	396	0.3	396	397	15.2	84.5
2025-07-28T08:35	10	31	0.2	31	31	396	0.3	395	397	15.1	83.4
2025-07-28T08:36	10	32	0.2	31	32	396	0.3	395	397	15.1	83.9
2025-07-28T08:37	10	32	0.2	32	33	396	0.2	395	396	15.0	84.1
2025-07-28T08:38	10	33	0.2	32	33	396	0.3	396	397	15.0	84.0
2025-07-28T08:39	10	34	0.1	33	34	396	0.2	396	397	15.0	83.8
2025-07-28T08:40	10	34	0.1	34	34	397	0.4	396	398	15.0	84.0
2025-07-28T08:41	10	34	0.1	34	34	398	0.4	398	399	15.1	85.3
2025-07-28T08:42	10	34	0.2	33	34	398	0.5	397	399	15.1	85.3
2025-07-28T08:43	10	33	0.6	32	34	397	0.3	397	398	15.1	82.4
2025-07-28T08:44	10	30	0.8	29	32	397	0.2	396	397	15.1	82.2
2025-07-28T08:45	10	28	0.7	26	29	396	0.3	396	397	15.1	83.2
2025-07-28T08:46	10	26	0.2	26	26	396	0.3	395	397	15.1	84.5
2025-07-28T08:47	10	26	0.1	26	26	396	0.2	395	396	15.1	85.3
2025-07-28T08:48	10	27	0.5	26	28	397	0.3	396	397	15.1	86.5
2025-07-28T08:49	10	29	0.9	28	31	397	0.3	396	398	15.1	86.8
2025-07-28T08:50	10	33	1.3	31	35	397	0.2	397	398	15.1	83.0
2025-07-28T08:51	10	37	0.7	35	38	397	0.3	397	398	15.1	82.5
2025-07-28T08:52	10	38	0.5	38	39	398	0.4	397	399	15.1	81.7
2025-07-28T08:53	10	41	0.9	40	43	399	0.5	398	400	15.1	82.0
2025-07-28T08:54	10	43	0.3	43	44	400	0.3	399	401	15.2	80.8
2025-07-28T08:55	10	44	0.1	44	44	400	0.2	400	401	15.2	81.3
2025-07-28T08:56	10	44	0.3	43	44	401	0.4	400	402	15.2	82.9
2025-07-28T08:57	10	42	0.4	41	43	401	0.3	400	402	15.3	83.4
2025-07-28T08:58	10	40	0.7	39	41	401	0.4	400	401	15.3	83.5
2025-07-28T08:59	10	38	0.8	37	39	400	0.3	400	401	15.2	83.7
2025-07-28T09:00	10	36	0.4	35	37	400	0.2	399	401	15.2	84.3
2025-07-28T09:01	10	35	0.1	35	35	399	0.8	398	401	15.2	83.9
2025-07-28T09:02	10	35	0.1	35	35	398	0.4	397	399	15.1	82.5
2025-07-28T09:03	10	35	0.3	35	36	398	0.3	397	399	15.1	84.3
2025-07-28T09:04	10	36	0.2	36	37	399	0.3	398	400	15.2	85.4
2025-07-28T09:05	10	37	0.6	37	39	398	0.3	397	399	15.2	83.4
2025-07-28T09:06	10	41	1.1	39	43	398	0.2	397	398	15.2	82.1
2025-07-28T09:07	10	45	1.3	43	47	399	0.6	398	400	15.2	81.8
2025-07-28T09:08	10	49	0.9	47	50	401	0.7	399	402	15.2	81.5
2025-07-28T09:09	10	50	0.3	50	51	403	0.8	401	404	15.3	83.2
2025-07-28T09:10	10	49	1.2	47	51	404	0.3	404	405	15.5	85.0
2025-07-28T09:11	10	43	2.0	40	47	403	0.8	402	405	15.6	84.2
2025-07-28T09:12	10	37	1.5	35	40	401	0.5	401	403	15.4	82.6
2025-07-28T09:13	10	34	0.4	33	35	400	0.5	400	401	15.4	82.7
2025-07-28T09:14	10	33	0.2	33	33	399	0.5	398	400	15.3	80.7
2025-07-28T09:15	10	32	0.6	31	33	399	0.2	398	399	15.3	81.1
2025-07-28T09:16	10	29	0.8	28	31	397	0.4	397	399	15.3	80.9
2025-07-28T09:17	10	27	0.7	25	28	397	0.4	396	397	15.3	81.0
2025-07-28T09:18	10	25	0.5	24	26	396	0.5	396	397	15.3	81.4
2025-07-28T09:19	10	23	0.4	22	24	395	0.3	395	396	15.3	81.3
2025-07-28T09:20	10	22	0.3	22	22	395	0.2	395	396	15.3	82.1
2025-07-28T09:21	10	21	0.1	21	22	395	0.3	395	396	15.3	80.2
2025-07-28T09:22	10	21	0.1	21	22	395	0.4	395	396	15.3	81.7
2025-07-28T09:23	10	22	0.2	21	22	396	0.3	395	396	15.4	82.0
2025-07-28T09:24	10	22	0.2	22	23	395	0.3	395	396	15.4	81.3
2025-07-28T09:25	10	23	0.3	23	24	395	0.4	394	396	15.3	80.0
2025-07-28T09:26	10	24	0.4	24	25	394	0.3	394	395	15.2	80.9
2025-07-28T09:27	10	26	0.4	25	26	394	0.4	394	395	15.2	81.6
2025-07-28T09:28	10	27	0.2	26	27	395	0.3	394	396	15.2	82.5
2025-07-28T09:29	10	27	0.1	27	27	395	0.3	394	396	15.3	83.2
2025-07-28T09:30	10	27	0.2	27	27	395	0.3	394	396	15.2	84.0
2025-07-28T09:31	10	28	0.5	27	29	395	0.2	395	396	15.2	84.8
2025-07-28T09:32	10	31	0.9	29	32	395	0.2	395	396	15.2	84.3
2025-07-28T09:33	10	34	1.0	32	35	395	0.3	395	396	15.2	82.6
2025-07-28T09:34	10	37	0.8	35	39	397	0.7	395	398	15.2	81.6
2025-07-28T09:35	10	40	0.7	39	41	398	0.4	397	399	15.3	79.1
2025-07-28T09:36	10	42	0.5	41	42	398	0.6	397	399	15.3	78.1
2025-07-28T09:37	10	42	0.6	41	43	399	0.4	398	400	15.3	78.1
2025-07-28T09:38	10	40	0.2	40	41	400	0.3	399	400	15.4	78.7
2025-07-28T09:39	10	41	0.3	40	41	399	0.2	399	400	15.4	78.5
2025-07-28T09:40	10	41	0.2	41	41	399	0.2	399	400	15.4	78.6
2025-07-28T09:41	10	40	0.6	39	41	400	0.2	399	400	15.3	78.1
2025-07-28T09:42	10	38	0.6	37	39	399	0.3	399	400	15.3	77.6
2025-07-28T09:43	10	37	0.1	36	37	399	0.3	398	400	15.3	77.2
2025-07-28T09:44	10	38	0.7	37	39	399	0.3	399	400	15.3	77.7
2025-07-28T09:45	10	42	1.3	39	44	400	0.6	399	401	15.2	77.0
2025-07-28T09:46	10	46	1.4	44	49	401	0.5	400	402	15.3	78.3
2025-07-28T09:47	10	51	1.5	48	54	403	0.6	401	404	15.3	78.3
2025-07-28T09:48	10	56	1.6	54	59	404	0.5	403	405	15.3	78.3
2025-07-28T09:49	10	61	1.2	59	63	406	0.5	405	407	15.3	78.3
2025-07-28T09:50	10	63	0.1	63	63	407	0.3	406	408	15.3	78.3
2025-07-28T09:51	10	63	0.2	62	63	407	0.3	407	408	15.3	78.3
2025-07-28T09:52	10	60	1.2	58	62	408	0.3	407	409	15.3	78.3
2025-07-28T09:53	10	55	2.0	51	58	406	0.8	405	408	15.5	78.4
2025-07-28T09:54	10	48	1.6	46	51	405	0.6	404	406	15.5	79.8
2025-07-28T09:55	10	45	0.7	44	46	404	0.4	404	405	15.4	80.4
2025-07-28T09:56	10	43	0.5	42	44	404	0.4	403	405	15.5	81.5
2025-07-28T09:57	10	41	0.7	40	42	403	0.5	402	404	15.5	81.1
2025-07-28T09:58	10	38	1.2	36	40	402	0.4	402	403	15.4	81.9
2025-07-28T09:59	10	34	1.0	32	36	401	0.5	400	402	15.4	82.6
2025-07-28T10:00	10	31	0.7	30	32	401	0.3	400	401	15.3	82.3
2025-07-28T10:01	10	29	0.5	28	30	400	0.3	400	401	15.3	82.3
2025-07-28T10:02	10	27	0.7	26	28	400	0.2	399	400	15.3	81.6
2025-07-28T10:03	10	25	0.7	24	26	400	0.3	399	400	15.4	82.4
2025-07-28T10:04	10	23	0.6	22	24	398	0.4	398	399	15.4	80.7
2025-07-28T10:05	10	21	0.6	20	22	398	0.4	397	398	15.6	72.1
2025-07-28T10:06	10	19	0.6	18	20	396	0.3	396	397	15.8	72.5
2025-07-28T10:07	10	18	0.3	17	18	395	0.4	394	396	15.7	69.1
2025-07-28T10:08	10	17	0.2	16	17	395	0.4	394	396	15.7	69.8
2025-07-28T10:09	10	16	0.1	16	17	395	0.4	394	396	15.8	72.6
2025-07-28T10:10	10	16	0.1	16	17	394	0.3	393	394	15.7	71.7
2025-07-28T10:11	10	17	0.2	16	17	394	0.2	393	394	15.7	73.3
2025-07-28T10:12	10	17	0.2	17	17	393	0.4	393	394	15.7	73.9
2025-07-28T10:13	10	18	0.2	17	18	393	0.3	392	393	15.6	75.6
2025-07-28T10:14	10	18	0.3	18	19	393	0.2	392	393	15.6	76.3
2025-07-28T10:15	10	20	0.4	19	20	393	0.3	393	394	15.6	76.2
2025-07-28T10:16	10	21	0.4	20	22	393	0.2	393	394	15.7	74.6
2025-07-28T10:17	10	23	0.6	22	24	393	0.4	392	394	15.6	75.4
2025-07-28T10:18	10	25	0.9	24	27	393	0.3	392	393	15.5	77.1
2025-07-28T10:19	10	29	1.0	27	30	393	0.4	392	394	15.5	76.7
2025-07-28T10:20	10	32	0.8	30	33	394	0.4	393	395	15.4	76.5
2025-07-28T10:21	10	34	0.5	33	35	394	0.4	393	394	15.3	75.1
2025-07-28T10:22	10	35	0.2	35	36	394	0.5	393	395	15.3	76.8
2025-07-28T10:23	10	36	0.2	35	36	395	0.3	395	396	15.3	79.0
2025-07-28T10:24	10	37	0.3	36	37	395	0.3	394	395	15.1	79.6
2025-07-28T10:25	10	38	0.4	37	39	394	0.3	394	395	15.0	80.1
2025-07-28T10:26	10	40	0.5	39	41	394	0.2	394	395	14.9	81.4
2025-07-28T10:27	10	41	0.4	40	42	395	0.6	394	396	14.9	82.9
2025-07-28T10:28	10	43	0.4	42	43	396	0.4	396	397	14.8	83.5
2025-07-28T10:29	10	44	0.3	43	44	396	0.3	396	397	14.8	83.5
2025-07-28T10:30	10	45	0.4	44	46	396	0.2	395	396	14.7	82.4
2025-07-28T10:31	10	47	0.5	46	47	396	0.3	395	396	14.7	81.6
2025-07-28T10:32	10	48	0.6	47	49	396	0.4	395	397	14.7	81.6
2025-07-28T10:33	10	51	0.7	49	52	397	0.4	396	398	14.7	82.6
2025-07-28T10:34	10	53	0.8	52	55	398	0.3	397	398	14.7	81.9
2025-07-28T10:35	10	56	0.9	55	58	399	0.7	398	400	14.7	83.3
2025-07-28T10:36	10	59	0.9	58	61	400	0.5	399	401	14.8	81.8
2025-07-28T10:37	10	62	0.6	61	63	401	0.6	400	402	14.8	79.7
2025-07-28T10:38	10	63	0.4	63	64	402	0.5	401	403	14.8	79.3
2025-07-28T10:39	10	65	0.7	64	66	403	0.4	402	404	14.9	80.1
2025-07-28T10:40	10	68	1.1	66	70	404	0.5	403	405	15.0	80.9
2025-07-28T10:41	10	73	2.2	70	77	406	0.9	405	407	15.0	81.1
2025-07-28T10:42	10	84	4.5	77	89	407	0.6	406	408	15.0	76.9
2025-07-28T10:43	10	83	3.9	78	89	409	0.4	408	410	15.1	80.3
2025-07-28T10:44	10	76	1.3	74	78	409	0.3	409	410	15.2	80.9
2025-07-28T10:45	10	71	1.6	69	74	409	0.4	408	410	15.3	80.5
2025-07-28T10:46	10	66	1.4	64	69	408	0.8	407	409	15.2	76.8
2025-07-28T10:47	10	63	0.9	63	66	407	0.3	407	408	15.1	75.9
2025-07-28T10:48	10	60	3.0	56	66	407	0.6	406	408	15.2	75.6
2025-07-28T10:49	10	54	1.0	53	56	406	0.4	405	407	15.1	75.0
2025-07-28T10:50	10	52	0.2	52	53	405	0.3	405	406	15.2	75.8
2025-07-28T10:51	10	53	0.6	52	55	405	0.3	405	406	15.3	77.6
2025-07-28T10:52	10	56	1.1	54	58	405	0.4	404	406	15.4	76.6
2025-07-28T10:53	10	60	1.0	58	62	406	0.3	405	407	15.4	75.7
2025-07-28T10:54	10	63	0.7	62	64	407	0.7	406	408	15.4	76.8
2025-07-28T10:55	10	65	0.5	64	66	408	0.3	408	409	15.5	75.8
2025-07-28T10:56	10	66	0.1	66	66	409	0.3	409	410	15.5	75.8
2025-07-28T10:57	10	65	0.2	65	66	409	0.5	408	410	15.5	74.3
2025-07-28T10:58	10	65	0.1	64	65	409	0.2	408	409	15.6	73.2
2025-07-28T10:59	10	66	0.5	65	67	409	0.3	409	410	15.5	73.3
2025-07-28T11:00	10	68	0.8	67	69	410	0.3	409	410	15.6	74.3
2025-07-28T11:01	10	70	0.5	69	71	410	0.3	410	411	15.7	75.2
2025-07-28T11:02	10	71	0.1	71	72	411	0.3	410	412	15.8	75.9
2025-07-28T11:03	10	72	0.1	71	72	411	0.2	411	412	15.8	73.0
2025-07-28T11:04	10	72	0.3	72	73	412	0.2	411	412	15.8	72.5
2025-07-28T11:05	10	73	0.3	73	74	412	0.2	412	413	15.8	73.2
2025-07-28T11:06	10	74	0.1	74	74	412	0.4	411	413	15.7	73.1
2025-07-28T11:07	10	73	0.3	73	74	412	0.2	411	412	15.7	73.7
2025-07-28T11:08	10	72	0.1	72	73	412	0.2	412	412	15.8	73.5
2025-07-28T11:09	10	73	0.5	72	74	413	0.3	412	413	15.8	75.0
2025-07-28T11:10	10	75	0.6	74	76	413	0.2	413	414	15.9	75.5
2025-07-28T11:11	10	77	0.6	76	78	414	0.7	413	416	16.0	74.0
2025-07-28T11:12	10	80	0.9	78	81	415	0.4	415	416	16.2	73.7
2025-07-28T11:13	10	84	1.4	81	86	415	0.5	414	416	16.1	72.7
2025-07-28T11:14	10	89	1.6	86	92	416	0.3	416	417	16.0	72.4
2025-07-28T11:15	10	93	0.7	92	94	417	0.6	416	418	16.0	71.0
2025-07-28T11:16	10	95	0.5	94	96	418	0.6	416	419	16.0	70.2
2025-07-28T11:17	10	96	0.9	96	99	418	0.5	417	419	16.1	70.1
2025-07-28T11:18	10	103	2.3	99	107	418	0.5	417	419	16.1	68.7
2025-07-28T11:19	10	115	4.7	107	123	421	1.1	419	423	16.1	69.0
2025-07-28T11:20	10	108	3.1	103	116	423	0.3	422	423	16.3	69.2
2025-07-28T11:21	10	101	1.1	99	103	422	1.1	420	423	16.4	69.4
2025-07-28T11:22	10	98	1.0	96	101	420	0.8	418	421	16.2	69.0
2025-07-28T11:23	10	96	0.6	95	97	418	0.3	417	419	16.1	68.2
2025-07-28T11:24	10	97	1.2	95	99	419	0.4	418	420	16.2	68.8
2025-07-28T11:25	10	100	0.3	99	101	418	0.6	416	419	16.1	68.3
2025-07-28T11:26	10	98	0.6	97	99	417	0.3	416	418	16.0	68.6
2025-07-28T11:27	10	97	0.3	97	98	417	0.2	416	417	16.1	69.0
2025-07-28T11:28	10	100	1.4	98	102	418	0.8	416	419	16.2	69.9
2025-07-28T11:29	10	106	2.5	102	111	421	1.3	419	424	16.4	71.2
2025-07-28T11:30	10	121	5.2	111	128	426	1.8	423	428	16.8	72.2
2025-07-28T11:31	10	140	9.6	128	163	427	0.8	426	429	16.8	68.1
2025-07-28T11:32	10	118	4.8	112	128	425	0.9	424	427	16.5	66.2
2025-07-28T11:33	10	132	18.1	113	159	423	0.9	422	425	16.6	66.7
2025-07-28T11:34	10	136	5.4	127	150	426	0.5	425	427	17.0	67.8
2025-07-28T11:35	10	109	5.0	105	125	425	0.5	424	426	16.8	66.1
2025-07-28T11:36	10	100	3.7	95	107	425	0.5	423	426	16.8	66.7
2025-07-28T11:37	10	91	2.1	87	94	424	0.3	423	425	17.0	67.3
2025-07-28T11:38	10	81	2.9	77	87	421	2.4	417	424	17.1	66.7
2025-07-28T11:39	10	76	0.8	75	77	416	1.7	412	418	16.8	64.8
2025-07-28T11:40	10	75	0.2	75	76	413	0.3	412	414	16.6	64.3
2025-07-28T11:41	10	77	0.8	76	78	413	0.4	413	415	16.7	64.4
2025-07-28T11:42	10	81	2.0	79	85	415	0.8	414	417	16.6	63.8
2025-07-28T11:43	10	90	1.7	85	92	417	0.4	416	418	16.7	62.4
2025-07-28T11:44	10	90	2.1	87	93	418	0.3	417	418	16.8	63.3
2025-07-28T11:45	10	86	1.3	83	87	418	0.2	417	418	16.9	63.9
2025-07-28T11:46	10	80	1.7	77	83	417	0.6	415	418	17.0	63.4
2025-07-28T11:47	10	75	1.3	73	77	414	1.7	410	416	16.9	63.3
2025-07-28T11:48	10	72	0.5	71	73	410	0.6	409	411	16.7	63.2
2025-07-28T11:49	10	70	0.8	69	71	409	0.6	408	410	16.7	63.7
2025-07-28T11:50	10	68	0.1	68	69	409	0.4	408	410	16.8	63.7
2025-07-28T11:51	10	69	0.1	69	69	410	0.2	410	411	16.8	64.1
2025-07-28T11:52	10	68	0.3	68	69	409	0.8	408	411	16.7	63.0
2025-07-28T11:53	10	67	0.4	67	68	408	0.3	408	409	16.6	62.7
2025-07-28T11:54	10	66	0.2	66	67	408	0.4	407	409	16.6	62.9
2025-07-28T11:55	10	66	0.1	66	66	409	0.5	408	410	16.7	64.5
2025-07-28T11:56	10	66	0.1	66	66	410	0.3	409	411	16.7	63.4
2025-07-28T11:57	10	66	0.1	66	67	410	0.3	410	411	16.7	63.6
2025-07-28T11:58	10	65	0.5	64	66	411	0.5	410	412	16.7	63.7
2025-07-28T11:59	10	63	0.7	62	64	410	0.5	408	410	16.7	63.8
2025-07-28T12:00	10	61	0.7	60	62	408	0.7	406	409	16.6	62.3
2025-07-28T12:01	10	59	0.6	58	60	406	0.2	406	407	16.4	62.0
2025-07-28T12:02	10	57	0.2	57	58	406	0.5	405	407	16.5	62.9
2025-07-28T12:03	10	57	0.1	57	57	405	0.6	404	407	16.6	62.8
2025-07-28T12:04	10	58	0.2	57	58	406	0.3	405	406	16.5	63.2
2025-07-28T12:05	10	58	0.2	58	59	406	0.3	405	406	16.5	62.8
2025-07-28T12:06	10	59	0.3	59	60	404	0.2	404	405	16.5	62.4
2025-07-28T12:07	10	60	0.3	60	61	405	0.4	404	405	16.5	62.3
2025-07-28T12:08	10	61	0.1	61	61	405	0.5	404	406	16.6	63.4
2025-07-28T12:09	10	61	0.1	61	61	407	0.4	406	408	16.7	63.2
2025-07-28T12:10	10	61	0.1	61	61	408	0.4	407	409	16.6	62.9
2025-07-28T12:11	10	60	0.2	60	61	408	0.5	407	409	16.6	62.8
2025-07-28T12:12	10	60	0.2	59	60	410	0.5	409	411	16.7	63.8
2025-07-28T12:13	10	59	0.3	58	59	410	0.4	409	411	16.7	63.8
2025-07-28T12:14	10	57	0.2	57	58	410	0.3	409	411	16.8	63.4
2025-07-28T12:15	10	57	0.2	56	57	409	0.8	407	410	16.7	63.2
2025-07-28T12:16	10	56	0.1	56	56	406	0.3	406	407	16.6	63.6
2025-07-28T12:17	10	56	0.2	56	57	407	0.3	406	408	16.7	64.0
2025-07-28T12:18	10	57	0.4	57	58	407	0.2	406	408	16.6	62.9
2025-07-28T12:19	10	58	0.3	58	59	407	0.4	406	408	16.6	63.1
2025-07-28T12:20	10	59	0.1	58	59	408	0.4	408	409	16.6	62.4
2025-07-28T12:21	10	57	1.1	55	58	407	0.6	406	408	16.6	62.7
2025-07-28T12:22	10	52	1.5	50	55	407	0.5	406	408	16.6	62.8
2025-07-28T12:23	10	48	1.0	46	50	408	0.4	407	409	16.8	65.4
2025-07-28T12:24	10	45	0.4	45	46	407	0.4	407	408	16.8	64.6
2025-07-28T12:25	10	45	0.1	45	45	408	0.2	407	408	16.8	65.6
2025-07-28T12:26	10	45	0.1	45	45	407	0.9	405	408	16.7	63.7
2025-07-28T12:27	10	45	0.2	45	46	404	0.5	403	405	16.6	63.1
2025-07-28T12:28	10	47	0.4	46	47	404	0.4	403	405	16.6	63.4
2025-07-28T12:29	10	48	0.7	47	50	406	0.7	404	407	16.7	64.4
2025-07-28T12:30	10	51	0.8	50	52	407	0.4	406	408	16.8	64.9
2025-07-28T12:31	10	54	0.9	52	55	407	0.5	407	408	16.8	63.1
2025-07-28T12:32	10	57	0.8	55	58	408	0.7	406	409	16.8	62.8
2025-07-28T12:33	10	59	0.6	58	60	406	0.5	405	407	16.6	61.4
2025-07-28T12:34	10	61	0.6	60	62	406	0.4	406	407	16.6	62.0
2025-07-28T12:35	10	66	3.1	62	74	408	1.0	406	410	16.7	62.2
2025-07-28T12:36	10	74	2.0	71	78	411	0.6	409	412	16.8	62.5
2025-07-28T12:37	10	68	1.3	66	71	410	0.3	410	411	16.7	62.2
2025-07-28T12:38	10	66	0.1	66	66	411	0.3	410	411	16.8	63.2
2025-07-28T12:39	10	67	0.6	66	68	412	0.5	411	413	16.9	63.8
2025-07-28T12:40	10	69	0.7	68	70	411	0.3	411	412	16.8	62.1
2025-07-28T12:41	10	71	0.3	70	71	412	0.5	412	413	16.7	62.9
2025-07-28T12:42	10	68	1.0	66	70	412	0.6	411	413	16.8	62.7
2025-07-28T12:43	10	65	0.8	63	66	412	0.4	411	413	16.8	62.8
2025-07-28T12:44	10	62	0.6	61	64	412	0.9	411	414	16.9	62.7
2025-07-28T12:45	10	61	0.6	60	61	411	0.2	410	411	16.7	62.2
2025-07-28T12:46	10	59	0.6	58	60	412	0.4	410	412	16.8	62.9
2025-07-28T12:47	10	57	0.4	56	58	411	0.7	410	413	16.9	63.2
2025-07-28T12:48	10	56	0.4	55	56	410	0.4	409	411	16.9	61.9
2025-07-28T12:49	10	55	0.2	54	55	410	0.2	410	411	16.9	62.1
2025-07-28T12:50	10	54	0.2	53	54	410	0.4	409	410	16.9	61.3
2025-07-28T12:51	10	54	0.1	53	54	409	0.3	408	410	16.8	60.5
2025-07-28T12:52	10	54	0.1	53	54	408	0.3	408	409	16.7	60.5
2025-07-28T12:53	10	54	0.1	53	54	409	0.3	408	410	16.8	61.8
2025-07-28T12:54	10	54	0.2	54	55	410	0.3	409	411	16.9	61.8
2025-07-28T12:55	10	55	0.4	54	56	410	0.3	410	411	16.8	61.0
2025-07-28T12:56	10	57	0.4	56	57	411	0.3	410	411	17.0	62.6
2025-07-28T12:57	10	58	0.4	57	59	411	0.4	410	412	17.1	63.4
2025-07-28T12:58	10	59	0.3	59	60	411	0.7	410	412	16.9	62.1
2025-07-28T12:59	10	60	0.1	59	60	412	0.2	411	413	17.0	62.7
2025-07-28T13:00	10	59	0.5	58	60	411	0.5	410	412	16.9	61.7
2025-07-28T13:01	10	57	0.6	56	58	409	0.6	408	410	16.9	61.9
2025-07-28T13:02	10	55	0.3	55	56	410	0.6	409	411	16.9	62.5
2025-07-28T13:03	10	54	0.2	54	55	409	0.4	409	410	16.9	61.8
2025-07-28T13:04	10	54	0.2	54	54	411	0.4	410	412	17.0	63.6
2025-07-28T13:05	10	54	0.1	53	54	412	0.5	411	413	17.0	64.6
2025-07-28T13:06	10	53	0.1	53	54	412	0.3	411	413	17.2	64.6
2025-07-28T13:07	10	54	0.2	54	54	412	0.5	411	413	17.0	62.1
2025-07-28T13:08	10	54	0.2	54	55	411	0.3	410	412	16.9	61.9
2025-07-28T13:09	10	55	0.1	55	55	412	0.4	411	413	17.0	63.5
2025-07-28T13:10	10	55	0.1	55	56	412	0.3	412	413	17.1	63.9
2025-07-28T13:11	10	56	0.2	55	56	411	0.7	410	412	17.0	61.8
2025-07-28T13:12	10	56	0.2	56	57	411	0.3	410	411	17.0	61.1
2025-07-28T13:13	10	57	0.2	57	57	410	0.5	410	411	16.9	60.6
2025-07-28T13:14	10	58	0.3	57	59	410	0.4	410	411	16.9	60.2
2025-07-28T13:15	10	59	0.3	58	60	412	0.6	410	413	16.9	60.3
2025-07-28T13:16	10	60	0.3	59	60	413	0.5	412	414	17.0	60.8
2025-07-28T13:17	10	61	0.3	60	61	415	0.3	414	415	17.1	61.0
2025-07-28T13:18	10	62	0.5	61	63	414	1.1	412	415	17.1	60.8
2025-07-28T13:19	10	64	0.6	63	65	411	0.3	411	412	16.9	60.2
2025-07-28T13:20	10	66	0.5	65	67	413	0.4	412	413	16.9	60.7
2025-07-28T13:21	10	67	0.3	67	68	413	0.7	412	415	17.0	61.6
2025-07-28T13:22	10	68	0.1	67	68	415	0.5	414	416	17.2	63.2
2025-07-28T13:23	10	67	0.2	67	67	415	0.4	414	416	17.1	61.2
2025-07-28T13:24	10	67	0.3	67	68	414	0.3	413	415	16.9	59.8
2025-07-28T13:25	10	70	1.5	68	73	414	0.3	413	415	16.9	60.5
2025-07-28T13:26	10	79	4.0	73	88	415	0.9	414	417	16.9	60.7
2025-07-28T13:27	10	88	5.1	80	97	418	1.1	416	419	17.0	60.3
2025-07-28T13:28	10	76	1.5	74	80	418	0.3	418	419	17.0	60.3
2025-07-28T13:29	10	73	0.7	72	74	418	0.4	417	418	17.0	60.6
2025-07-28T13:30	10	71	0.5	70	72	417	0.2	416	417	17.1	61.3
2025-07-28T13:31	10	70	0.3	69	70	417	0.2	417	418	17.1	61.0
2025-07-28T13:32	10	69	0.2	69	69	416	0.9	414	417	17.1	61.3
2025-07-28T13:33	10	68	0.4	67	69	414	0.3	413	415	17.1	59.4
2025-07-28T13:34	10	66	0.9	64	67	414	0.4	413	415	17.1	60.2
2025-07-28T13:35	10	63	0.9	61	64	414	0.3	413	415	17.1	59.6
2025-07-28T13:36	10	60	0.6	59	61	414	0.3	413	415	17.0	59.9
2025-07-28T13:37	10	58	0.8	56	59	414	0.2	414	415	17.1	60.8
2025-07-28T13:38	10	56	0.3	55	57	414	0.3	413	415	17.2	61.3
2025-07-28T13:39	10	55	0.0	55	56	413	0.3	413	414	17.2	61.7
2025-07-28T13:40	10	56	0.1	55	56	414	0.6	413	415	17.1	62.6
2025-07-28T13:41	10	57	0.5	56	57	413	1.0	411	415	17.2	62.6
2025-07-28T13:42	10	58	0.4	57	59	412	0.3	411	413	17.1	62.3
2025-07-28T13:43	10	59	0.1	59	59	411	0.6	410	412	17.0	61.2
2025-07-28T13:44	10	59	0.2	58	59	410	0.3	409	411	16.9	60.1
2025-07-28T13:45	10	58	0.1	58	58	409	0.3	409	410	16.9	59.6
2025-07-28T13:46	10	59	0.4	58	60	409	0.3	409	410	17.0	59.7
2025-07-28T13:47	10	60	0.2	60	61	411	0.9	410	413	17.1	59.7
2025-07-28T13:48	10	61	0.3	60	61	414	0.8	412	415	17.2	61.2
2025-07-28T13:49	10	62	0.3	61	62	415	0.4	414	415	17.2	59.2
2025-07-28T13:50	10	62	0.3	62	63	415	0.4	414	416	17.2	60.1
2025-07-28T13:51	10	64	0.9	63	66	416	0.3	415	417	17.2	60.4
2025-07-28T13:52	10	67	0.6	66	68	417	0.5	415	417	17.2	61.4
2025-07-28T13:53	10	67	0.3	67	68	417	0.8	414	418	17.3	61.1
2025-07-28T13:54	10	66	0.7	64	67	415	0.3	415	416	17.2	60.1
2025-07-28T13:55	10	61	1.8	58	64	415	0.7	414	416	17.2	61.4
2025-07-28T13:56	10	56	0.8	55	58	413	0.6	412	414	17.2	62.3
2025-07-28T13:57	10	55	0.3	54	56	412	0.4	412	413	17.2	61.8
2025-07-28T13:58	10	56	0.4	55	57	411	0.3	411	412	17.1	61.0
2025-07-28T13:59	10	58	0.8	57	60	412	0.4	411	412	17.0	60.5
2025-07-28T14:00	10	61	0.9	60	63	412	0.6	412	414	16.9	60.7
2025-07-28T14:01	10	64	0.8	63	66	414	0.3	413	414	17.0	61.3
2025-07-28T14:02	10	66	0.4	65	67	414	0.3	413	415	17.0	61.8
2025-07-28T14:03	10	67	0.4	67	68	414	0.3	414	415	17.0	61.2
2025-07-28T14:04	10	69	0.8	68	70	415	0.9	413	417	17.0	62.0
2025-07-28T14:05	10	73	1.3	71	75	417	0.5	416	418	17.1	62.2
2025-07-28T14:06	10	77	1.2	75	79	418	0.2	418	419	17.3	63.4
2025-07-28T14:07	10	92	10.2	79	107	419	1.2	417	422	17.3	61.3
2025-07-28T14:08	10	89	13.4	74	112	421	0.9	420	423	17.2	61.3
2025-07-28T14:09	10	72	1.2	70	74	420	0.6	418	421	17.3	61.8
2025-07-28T14:10	10	65	1.9	63	70	417	1.0	416	419	17.2	61.0
2025-07-28T14:11	10	71	10.3	62	97	418	0.9	416	419	17.3	61.8
2025-07-28T14:12	10	79	10.2	59	97	420	1.0	419	422	17.4	61.5
2025-07-28T14:13	10	53	2.8	49	59	417	1.5	415	420	17.4	60.7
2025-07-28T14:14	10	47	0.9	46	49	415	0.7	413	416	17.5	60.0
2025-07-28T14:15	10	45	0.5	44	46	412	1.1	411	414	17.4	59.2
2025-07-28T14:16	10	45	0.5	44	46	410	0.8	409	411	17.4	60.7
2025-07-28T14:17	10	48	1.3	46	50	409	0.4	407	409	17.3	61.9
2025-07-28T14:18	10	52	0.8	50	53	408	0.3	407	409	17.2	61.3
2025-07-28T14:19	10	53	0.1	53	53	409	0.4	408	410	17.2	61.7
2025-07-28T14:20	10	53	0.2	52	53	409	0.3	409	410	17.3	62.1
2025-07-28T14:21	10	52	0.3	51	53	410	0.4	409	411	17.3	60.7
2025-07-28T14:22	10	51	0.4	50	51	411	0.3	410	412	17.3	59.8
2025-07-28T14:23	10	50	0.2	49	50	410	0.4	409	411	17.2	59.5
2025-07-28T14:24	10	49	0.1	49	50	410	0.3	409	411	17.3	60.5
2025-07-28T14:25	10	49	0.1	49	49	409	0.5	408	410	17.4	60.3
2025-07-28T14:26	10	49	0.4	48	49	409	0.3	408	409	17.4	61.3
2025-07-28T14:27	10	47	0.2	47	48	409	0.4	408	409	17.5	60.3
2025-07-28T14:28	10	48	0.4	47	48	408	0.3	408	409	17.5	60.7
2025-07-28T14:29	10	50	0.7	48	51	408	0.5	407	409	17.4	59.3
2025-07-28T14:30	10	52	0.7	51	54	407	0.4	407	408	17.2	59.2
2025-07-28T14:31	10	54	0.5	53	55	408	0.4	407	409	17.2	58.9
2025-07-28T14:32	10	55	0.3	55	56	410	0.7	409	411	17.4	60.2
2025-07-28T14:33	10	56	0.1	55	56	409	0.6	408	410	17.4	58.8
2025-07-28T14:34	10	55	0.1	55	56	409	0.3	408	409	17.3	58.8
2025-07-28T14:35	10	56	0.2	55	56	409	0.4	408	410	17.2	58.7
2025-07-28T14:36	10	56	0.1	55	56	411	0.5	409	411	17.4	59.2
2025-07-28T14:37	10	56	0.4	55	57	411	0.6	410	413	17.3	59.1
2025-07-28T14:38	10	58	0.8	56	59	411	0.3	410	412	17.4	60.3
2025-07-28T14:39	10	61	1.1	59	63	411	0.8	410	413	17.5	60.4
2025-07-28T14:40	10	64	0.6	63	65	413	0.3	412	414	17.6	60.5
2025-07-28T14:41	10	64	0.4	63	65	414	0.4	413	415	17.5	59.6
2025-07-28T14:42	10	62	1.2	60	63	415	0.7	414	417	17.6	60.5
2025-07-28T14:43	10	58	1.2	55	60	415	1.3	413	417	17.6	59.4
2025-07-28T14:44	10	53	1.5	50	55	413	0.3	413	414	17.6	59.2
2025-07-28T14:45	10	47	1.8	44	50	412	0.7	410	413	17.6	59.1
2025-07-28T14:46	10	41	1.9	38	44	410	0.9	408	412	17.5	59.4
2025-07-28T14:47	10	35	1.6	32	38	406	1.1	404	408	17.4	58.5
2025-07-28T14:48	10	30	1.2	28	32	405	0.6	404	406	17.3	58.3
2025-07-28T14:49	10	27	0.8	26	28	403	0.4	402	404	17.3	58.5
2025-07-28T14:50	10	25	0.5	24	26	404	0.2	403	404	17.3	58.8
2025-07-28T14:51	10	24	0.3	23	24	403	0.2	403	404	17.3	60.2
2025-07-28T14:52	10	23	0.2	22	23	403	0.2	403	404	17.3	59.3
2025-07-28T14:53	10	22	0.2	22	23	403	0.5	402	404	17.3	59.3
2025-07-28T14:54	10	22	0.2	21	22	402	0.3	402	404	17.3	58.7
2025-07-28T14:55	10	21	0.2	21	22	401	0.3	401	402	17.2	58.7
2025-07-28T14:56	10	21	0.2	21	22	401	0.3	401	402	17.2	59.2
2025-07-28T14:57	10	21	0.2	21	21	401	0.4	401	402	17.2	59.4
2025-07-28T14:58	10	21	0.2	20	21	401	0.3	400	401	17.3	59.3
2025-07-28T14:59	10	21	0.2	20	21	400	0.4	399	401	17.2	59.1
2025-07-28T15:00	10	20	0.2	20	21	400	0.2	399	400	17.2	59.9
2025-07-28T15:01	10	19	0.3	19	20	400	0.2	400	401	17.2	60.1
2025-07-28T15:02	10	18	0.4	18	19	400	0.3	400	401	17.2	59.8
2025-07-28T15:03	10	17	0.4	16	18	399	0.3	399	400	17.2	59.1
2025-07-28T15:04	10	16	0.3	15	17	399	0.2	399	400	17.3	60.1
2025-07-28T15:05	10	15	0.2	15	16	399	0.3	399	400	17.2	58.8
2025-07-28T15:06	10	14	0.1	14	15	399	0.3	398	400	17.2	59.5
2025-07-28T15:07	10	14	0.2	14	15	400	0.4	399	400	17.2	60.7
2025-07-28T15:08	10	14	0.2	14	15	400	0.4	399	401	17.3	61.1
2025-07-28T15:09	10	14	0.1	14	14	400	0.2	400	401	17.2	60.9
2025-07-28T15:10	10	14	0.3	13	14	400	0.4	399	401	17.2	60.7
2025-07-28T15:11	10	13	0.3	12	13	399	0.4	399	400	17.1	62.7
2025-07-28T15:12	10	12	0.3	11	12	399	0.2	399	399	17.0	63.3
2025-07-28T15:13	10	11	0.2	11	11	398	0.4	397	399	16.9	62.1
2025-07-28T15:14	10	10	0.2	10	11	398	0.2	398	399	16.9	62.1
2025-07-28T15:15	10	10	0.1	10	10	398	0.2	398	399	16.9	63.4
2025-07-28T15:16	10	10	0.1	10	10	398	0.3	398	399	16.9	63.9
2025-07-28T15:17	10	10	0.1	10	10	399	0.3	398	399	16.9	65.3
2025-07-28T15:18	10	11	0.2	10	11	399	0.3	398	400	16.9	64.4
2025-07-28T15:19	10	11	0.1	11	11	399	0.3	399	400	16.9	63.6
2025-07-28T15:20	10	11	0.1	11	11	399	0.2	399	400	16.9	63.4
2025-07-28T15:21	10	11	0.2	11	11	399	0.2	398	399	16.9	63.3
2025-07-28T15:22	10	10	0.3	10	11	398	0.3	397	398	16.9	63.7
2025-07-28T15:23	10	9	0.3	8	9	397	0.3	396	397	16.9	63.8
2025-07-28T15:24	10	8	0.2	8	8	396	0.3	395	396	16.9	64.1
2025-07-28T15:25	10	8	0.1	7	8	396	0.3	395	396	16.9	64.4
2025-07-28T15:26	10	7	0.1	7	7	396	0.2	395	396	16.9	64.4
2025-07-28T15:27	10	7	0.1	7	7	395	0.2	395	396	17.0	64.5
2025-07-28T15:28	10	7	0.1	7	7	395	0.5	393	396	16.9	64.3
2025-07-28T15:29	10	7	0.1	6	7	393	0.7	392	394	16.6	64.8
2025-07-28T15:30	10	6	0.2	6	7	391	0.5	390	392	16.4	65.0
2025-07-28T15:31	10	6	0.1	6	6	390	0.2	390	391	16.4	66.4
2025-07-28T15:32	10	6	0.1	6	6	390	0.3	389	391	16.3	66.7
2025-07-28T15:33	10	7	0.2	6	7	390	0.2	390	391	16.2	67.4
2025-07-28T15:34	10	7	0.2	7	7	390	0.4	389	391	16.2	67.6
2025-07-28T15:35	10	8	0.1	7	8	390	0.4	390	391	16.2	68.6
2025-07-28T15:36	10	8	0.1	8	8	390	0.2	390	391	16.2	67.1
2025-07-28T15:37	10	8	0.2	8	9	390	0.4	389	391	16.3	66.7
2025-07-28T15:38	10	9	0.1	8	9	390	0.3	390	391	16.3	65.2
2025-07-28T15:39	10	9	0.1	9	9	390	0.3	390	391	16.3	66.8
2025-07-28T15:40	10	9	0.1	9	9	390	0.3	389	391	16.3	67.5
2025-07-28T15:41	10	9	0.1	9	9	390	0.3	390	391	16.3	67.1
2025-07-28T15:42	10	9	0.1	9	10	390	0.2	390	391	16.3	66.5
2025-07-28T15:43	10	10	0.2	9	10	390	0.3	389	391	16.3	65.3
2025-07-28T15:44	10	10	0.1	10	10	390	0.3	389	391	16.3	65.0
2025-07-28T15:45	10	11	0.2	10	11	390	0.2	390	391	16.3	65.6
2025-07-28T15:46	10	11	0.2	11	12	391	0.4	390	392	16.3	66.7
2025-07-28T15:47	10	12	0.3	12	13	392	0.3	391	392	16.3	67.3
2025-07-28T15:48	10	13	0.4	12	14	392	0.2	391	392	16.3	66.8
2025-07-28T15:49	10	14	0.4	14	15	392	0.3	392	393	16.3	67.2
2025-07-28T15:50	10	16	0.4	15	17	392	0.2	392	393	16.3	66.9
2025-07-28T15:51	10	17	0.5	17	18	393	0.3	392	393	16.3	66.3
2025-07-28T15:52	10	19	0.5	18	20	394	0.5	393	395	16.3	66.8
2025-07-28T15:53	10	21	0.6	20	22	395	0.3	394	395	16.4	67.6
2025-07-28T15:54	10	23	0.6	22	24	396	0.4	395	396	16.4	66.9
2025-07-28T15:55	10	25	0.7	24	26	396	0.5	396	397	16.4	67.1
2025-07-28T15:56	10	28	0.8	27	29	397	0.2	396	397	16.4	67.1
2025-07-28T15:57	10	30	0.7	29	31	397	0.3	397	398	16.4	67.0
2025-07-28T15:58	10	33	0.6	31	34	398	0.5	398	399	16.4	67.1
2025-07-28T15:59	10	34	0.5	34	35	400	0.3	399	400	16.5	67.2
2025-07-28T16:00	10	36	0.5	35	37	401	0.4	400	401	16.5	67.6
2025-07-28T16:01	10	37	0.4	37	38	402	0.5	401	403	16.5	66.8
2025-07-28T16:02	10	38	0.1	38	38	403	0.3	403	404	16.5	66.9
2025-07-28T16:03	10	37	0.5	36	38	403	0.2	403	404	16.5	66.7
2025-07-28T16:04	10	35	0.7	34	36	403	0.4	402	404	16.6	67.3
2025-07-28T16:05	10	33	0.6	32	34	402	0.4	402	403	16.6	66.7
2025-07-28T16:06	10	31	0.4	31	32	402	0.4	401	402	16.7	66.3
2025-07-28T16:07	10	30	0.3	30	31	401	0.2	401	402	16.7	66.5
2025-07-28T16:08	10	29	0.2	29	30	402	0.2	401	402	16.7	66.7
2025-07-28T16:09	10	29	0.2	28	29	402	0.2	402	403	16.7	66.7
2025-07-28T16:10	10	28	0.3	27	28	402	0.4	401	402	16.7	66.5
2025-07-28T16:11	10	27	0.3	26	27	402	0.2	401	402	16.8	67.8
2025-07-28T16:12	10	25	0.4	25	26	402	0.2	401	402	16.8	67.4
2025-07-28T16:13	10	24	0.3	23	25	401	0.4	400	402	16.9	66.1
2025-07-28T16:14	10	23	0.3	23	24	400	0.2	400	401	16.9	67.0
2025-07-28T16:15	10	23	0.2	22	23	401	0.3	400	401	16.9	66.6
2025-07-28T16:16	10	22	0.1	22	23	401	0.2	401	402	16.9	67.1
2025-07-28T16:17	10	22	0.1	22	22	401	0.2	401	401	16.9	67.5
2025-07-28T16:18	10	22	0.1	22	22	401	0.4	400	402	16.9	68.4
2025-07-28T16:19	10	22	0.2	21	22	401	0.3	400	401	16.8	67.8
2025-07-28T16:20	10	21	0.2	21	21	400	0.2	400	401	16.8	67.0
2025-07-28T16:21	10	21	0.2	20	21	400	0.2	400	401	16.8	67.7
2025-07-28T16:22	10	21	0.1	20	21	400	0.3	400	401	16.8	65.1
2025-07-28T16:23	10	20	0.1	20	21	400	0.3	400	401	16.8	66.1
2025-07-28T16:24	10	20	0.1	20	20	401	0.2	400	401	16.8	67.3
2025-07-28T16:25	10	20	0.1	20	20	400	0.2	400	401	16.8	66.8
2025-07-28T16:26	10	20	0.1	20	20	400	0.2	400	401	16.8	67.8
2025-07-28T16:27	10	20	0.1	20	20	401	0.2	400	401	16.8	68.6
2025-07-28T16:28	10	20	0.1	20	21	401	0.2	401	401	16.8	67.8
2025-07-28T16:29	10	21	0.1	21	21	401	0.2	400	401	16.7	68.3
2025-07-28T16:30	10	21	0.1	21	21	401	0.3	400	401	16.7	67.7
2025-07-28T16:31	10	21	0.1	21	21	400	0.2	400	401	16.7	68.1
2025-07-28T16:32	10	21	0.2	20	21	400	0.2	400	401	16.6	68.1
2025-07-28T16:33	10	20	0.3	19	20	400	0.3	399	401	16.7	68.5
2025-07-28T16:34	10	19	0.2	19	19	400	0.2	400	400	16.6	68.3
2025-07-28T16:35	10	19	0.1	19	19	399	0.3	399	400	16.6	68.6
2025-07-28T16:36	10	19	0.1	18	19	399	0.4	398	400	16.6	68.8
2025-07-28T16:37	10	18	0.1	18	19	399	0.2	399	400	16.6	68.8
2025-07-28T16:38	10	18	0.1	18	18	399	0.4	398	400	16.5	69.0
2025-07-28T16:39	10	18	0.2	17	18	398	0.2	398	399	16.5	69.7
2025-07-28T16:40	10	17	0.1	17	17	399	0.3	398	399	16.5	70.6
2025-07-28T16:41	10	17	0.1	17	17	398	0.3	398	399	16.5	70.2
2025-07-28T16:42	10	17	0.1	17	17	398	0.2	397	398	16.5	70.3
2025-07-28T16:43	10	17	0.1	17	17	397	0.3	397	398	16.4	70.5
2025-07-28T16:44	10	17	0.1	17	17	398	0.2	397	398	16.4	70.6
2025-07-28T16:45	10	17	0.1	17	17	398	0.2	398	399	16.4	71.4
2025-07-28T16:46	10	17	0.1	17	17	398	0.3	398	399	16.4	72.1
2025-07-28T16:47	10	17	0.1	17	17	398	0.3	397	398	16.4	72.1
2025-07-28T16:48	10	17	0.0	17	17	398	0.2	397	398	16.4	71.5
2025-07-28T16:49	10	17	0.1	17	17	398	0.2	397	398	16.4	72.0
2025-07-28T16:50	10	17	0.1	17	17	398	0.3	397	398	16.4	71.2
2025-07-28T16:51	10	17	0.1	17	17	397	0.2	397	398	16.4	71.4
2025-07-28T16:52	10	17	0.1	17	17	397	0.3	396	397	16.4	70.7
2025-07-28T16:53	10	17	0.1	17	17	396	0.2	396	397	16.3	71.2
2025-07-28T16:54	10	17	0.1	17	18	396	0.3	395	397	16.3	71.4
2025-07-28T16:55	10	17	0.1	17	18	396	0.2	395	396	16.3	71.6
2025-07-28T16:56	10	17	0.1	17	17	395	0.3	395	396	16.3	72.0
2025-07-28T16:57	10	17	0.1	17	17	395	0.2	395	396	16.2	72.0
2025-07-28T16:58	10	17	0.1	17	17	395	0.2	394	395	16.1	71.5
2025-07-28T16:59	10	17	0.0	17	17	394	0.2	394	395	16.1	71.3
2025-07-28T17:00	10	17	0.1	17	18	395	0.3	394	395	16.1	72.3
2025-07-28T17:01	10	17	0.1	17	17	395	0.2	394	395	16.0	72.8
2025-07-28T17:02	10	17	0.1	17	18	394	0.3	394	395	16.0	72.2
2025-07-28T17:03	10	18	0.1	17	18	393	0.2	393	394	15.9	72.0
2025-07-28T17:04	10	18	0.1	18	18	393	0.3	393	394	15.9	72.3
2025-07-28T17:05	10	18	0.3	18	19	394	0.2	393	394	15.9	73.2
2025-07-28T17:06	10	18	0.1	18	18	393	0.2	393	394	15.8	73.5
2025-07-28T17:07	10	18	0.1	18	18	393	0.2	393	394	15.8	73.5
2025-07-28T17:08	10	18	0.1	18	18	393	0.3	393	394	15.8	72.9
2025-07-28T17:09	10	18	0.1	17	18	393	0.2	393	394	15.8	73.4
2025-07-28T17:10	10	17	0.1	17	18	393	0.2	392	393	15.7	73.1
2025-07-28T17:11	10	17	0.1	17	17	393	0.2	392	393	15.7	73.4
2025-07-28T17:12	10	17	0.1	16	17	393	0.3	392	393	15.7	73.5
2025-07-28T17:13	10	16	0.1	16	16	392	0.2	392	393	15.7	73.7
2025-07-28T17:14	10	16	0.1	16	16	392	0.2	392	393	15.7	73.8
2025-07-28T17:15	10	16	0.1	16	16	392	0.3	392	393	15.7	74.1
2025-07-28T17:16	10	16	0.1	15	16	392	0.2	392	393	15.7	74.1
2025-07-28T17:17	10	16	0.1	16	16	392	0.2	392	393	15.7	73.8
2025-07-28T17:18	10	16	0.1	16	16	392	0.3	392	393	15.7	73.9
2025-07-28T17:19	10	16	0.1	15	16	393	0.3	392	394	15.7	74.3
2025-07-28T17:20	10	15	0.1	15	16	393	0.2	392	393	15.7	74.7
2025-07-28T17:21	10	16	0.1	15	16	393	0.3	392	393	15.7	73.6
2025-07-28T17:22	10	15	0.1	15	16	393	0.3	392	393	15.7	73.8
2025-07-28T17:23	10	15	0.1	15	15	393	0.3	392	394	15.7	73.8
2025-07-28T17:24	10	15	0.1	15	15	393	0.3	393	394	15.7	73.2
2025-07-28T17:25	10	15	0.1	15	15	393	0.2	392	393	15.7	72.7
2025-07-28T17:26	10	15	0.1	15	15	393	0.2	392	393	15.7	73.3
2025-07-28T17:27	10	15	0.1	14	15	393	0.2	392	393	15.7	73.7
2025-07-28T17:28	10	14	0.1	14	15	392	0.4	392	393	15.7	72.6
2025-07-28T17:29	10	14	0.1	14	14	392	0.3	392	393	15.7	72.5
2025-07-28T17:30	10	14	0.1	14	14	392	0.3	392	393	15.7	73.2
2025-07-28T17:31	10	14	0.1	14	14	392	0.2	392	393	15.7	73.4
2025-07-28T17:32	10	14	0.2	14	14	392	0.3	391	392	15.7	72.8
2025-07-28T17:33	10	13	0.2	13	14	391	0.3	391	392	15.7	72.3
2025-07-28T17:34	10	13	0.2	13	13	391	0.3	391	392	15.7	70.8
2025-07-28T17:35	10	13	0.1	12	13	391	0.2	391	392	15.7	71.7
2025-07-28T17:36	10	12	0.1	12	13	391	0.2	391	392	15.7	72.9
2025-07-28T17:37	10	12	0.1	12	12	391	0.3	391	392	15.7	72.5
2025-07-28T17:38	10	12	0.1	11	12	391	0.2	391	391	15.7	72.3
2025-07-28T17:39	10	12	0.1	11	12	391	0.2	390	392	15.7	71.5
2025-07-28T17:40	10	11	0.1	11	12	390	0.3	390	391	15.7	70.9
2025-07-28T17:41	10	11	0.1	11	11	391	0.2	390	391	15.7	71.5
2025-07-28T17:42	10	11	0.1	11	11	391	0.2	390	391	15.7	72.1
2025-07-28T17:43	10	11	0.1	10	11	391	0.2	390	391	15.7	73.0
2025-07-28T17:44	10	10	0.1	10	11	391	0.2	391	391	15.7	73.0
2025-07-28T17:45	10	10	0.1	10	10	391	0.3	390	391	15.7	71.9
2025-07-28T17:46	10	10	0.1	9	10	391	0.2	390	391	15.7	72.2
2025-07-28T17:47	10	10	0.1	9	10	391	0.2	390	392	15.7	72.2
2025-07-28T17:48	10	9	0.1	9	10	391	0.2	390	391	15.7	72.6
2025-07-28T17:49	10	9	0.1	9	9	391	0.2	390	391	15.7	71.6
2025-07-28T17:50	10	9	0.1	9	9	390	0.2	390	391	15.7	71.2
2025-07-28T17:51	10	9	0.2	8	9	390	0.2	389	390	15.7	72.4
2025-07-28T17:52	10	8	0.1	8	9	390	0.2	389	391	15.7	72.5
2025-07-28T17:53	10	8	0.1	8	9	390	0.2	389	390	15.7	72.7
2025-07-28T17:54	10	8	0.1	8	8	390	0.2	389	391	15.6	73.4
2025-07-28T17:55	10	8	0.2	7	8	390	0.3	389	390	15.6	73.3
2025-07-28T17:56	10	7	0.2	7	8	390	0.2	389	390	15.6	73.0
2025-07-28T17:57	10	7	0.2	7	7	389	0.3	389	390	15.6	73.7
2025-07-28T17:58	10	7	0.2	7	7	389	0.2	389	390	15.6	74.1
2025-07-28T17:59	10	7	0.2	6	7	389	0.3	389	390	15.6	74.0
2025-07-28T18:00	10	7	0.2	6	7	389	0.3	389	390	15.5	75.0
2025-07-28T18:01	10	7	0.2	6	7	389	0.2	388	390	15.5	74.2
2025-07-28T18:02	10	7	0.2	6	7	389	0.2	388	389	15.6	74.0
2025-07-28T18:03	10	6	0.1	6	7	389	0.3	388	390	15.5	74.4
2025-07-28T18:04	10	6	0.1	6	7	389	0.3	388	390	15.5	74.2
2025-07-28T18:05	10	6	0.2	6	7	389	0.2	389	389	15.6	73.9
2025-07-28T18:06	10	6	0.2	6	7	389	0.3	388	390	15.6	72.6
2025-07-28T18:07	10	6	0.2	6	7	389	0.3	388	389	15.6	72.8
2025-07-28T18:08	10	6	0.2	6	7	389	0.2	388	389	15.6	72.1
2025-07-28T18:09	10	6	0.2	6	7	388	0.2	388	389	15.7	71.9
2025-07-28T18:10	10	6	0.1	6	7	389	0.3	388	389	15.6	72.6
2025-07-28T18:11	10	6	0.2	6	7	389	0.2	388	389	15.6	72.1
2025-07-28T18:12	10	6	0.1	6	7	389	0.2	388	389	15.7	72.2
2025-07-28T18:13	10	6	0.1	6	7	389	0.2	389	389	15.6	72.3
2025-07-28T18:14	10	6	0.2	6	7	389	0.3	388	389	15.6	73.3
2025-07-28T18:15	10	6	0.2	6	6	389	0.2	388	389	15.7	71.8
2025-07-28T18:16	10	6	0.2	6	6	389	0.2	388	389	15.6	72.8
2025-07-28T18:17	10	6	0.2	5	6	388	0.3	388	389	15.6	73.2
2025-07-28T18:18	10	5	0.2	5	6	389	0.3	388	389	15.6	73.8
2025-07-28T18:19	10	5	0.2	5	6	389	0.2	388	389	15.6	72.9
2025-07-28T18:20	10	5	0.2	5	5	389	0.3	388	389	15.6	74.2
2025-07-28T18:21	10	5	0.1	5	5	388	0.2	388	389	15.6	73.1
2025-07-28T18:22	10	5	0.4	5	6	388	0.2	388	388	15.6	73.0
2025-07-28T18:23	10	5	0.2	4	5	388	0.2	388	389	15.5	73.5
2025-07-28T18:24	10	5	0.3	4	5	388	0.2	388	388	15.6	72.8
2025-07-28T18:25	10	5	0.1	4	5	388	0.2	387	388	15.6	73.2
2025-07-28T18:26	10	5	0.1	4	5	388	0.2	387	388	15.5	73.3
2025-07-28T18:27	10	4	0.1	4	5	388	0.3	387	388	15.5	73.4
2025-07-28T18:28	10	4	0.2	4	5	388	0.2	387	388	15.5	73.6
2025-07-28T18:29	10	4	0.1	4	4	388	0.3	387	388	15.5	73.7
2025-07-28T18:30	10	4	0.1	3	4	388	0.2	387	388	15.5	73.8
2025-07-28T18:31	10	4	0.1	3	4	388	0.2	387	388	15.5	73.1
2025-07-28T18:32	10	4	0.7	4	9	388	0.3	387	388	15.5	73.9
2025-07-28T18:33	10	4	0.1	3	4	387	0.2	387	388	15.4	75.2
2025-07-28T18:34	10	4	0.1	3	4	387	0.2	387	388	15.4	75.9
2025-07-28T18:35	10	5	1.4	3	8	388	0.2	387	388	15.4	76.8
2025-07-28T18:36	10	6	0.8	4	7	387	0.2	387	388	15.3	76.4
2025-07-28T18:37	10	4	0.4	3	4	388	0.3	387	388	15.3	76.2
2025-07-28T18:38	10	3	0.1	3	3	388	0.2	387	388	15.3	76.4
2025-07-28T18:39	10	3	0.1	3	3	388	0.2	387	388	15.3	77.1
2025-07-28T18:40	10	3	0.1	3	3	388	0.1	387	388	15.3	75.8
2025-07-28T18:41	10	3	0.1	2	3	387	0.2	387	388	15.2	76.3
2025-07-28T18:42	10	2	0.1	2	3	387	0.2	387	388	15.2	76.4
2025-07-28T18:43	10	2	0.1	2	3	387	0.3	387	388	15.2	77.2
2025-07-28T18:44	10	2	0.1	2	3	387	0.2	387	388	15.2	76.9
2025-07-28T18:45	10	2	0.1	2	2	387	0.2	387	387	15.2	76.9
2025-07-28T18:46	10	2	0.1	2	2	387	0.2	386	387	15.2	76.8
2025-07-28T18:47	10	2	0.1	2	2	387	0.2	386	387	15.2	76.5
2025-07-28T18:48	10	2	0.1	2	2	387	0.3	386	387	15.2	75.8
2025-07-28T18:49	10	2	0.1	2	2	386	0.2	386	387	15.2	76.3
2025-07-28T18:50	10	2	0.1	2	2	386	0.2	386	387	15.2	75.7
2025-07-28T18:51	10	2	0.1	2	2	386	0.2	386	387	15.2	75.3
2025-07-28T18:52	10	2	0.1	2	2	386	0.3	385	387	15.2	75.3
2025-07-28T18:53	10	2	0.1	2	2	386	0.2	385	386	15.2	76.3
2025-07-28T18:54	10	2	0.1	2	2	385	0.2	385	386	15.2	76.4
2025-07-28T18:55	10	2	0.1	2	2	385	0.2	385	386	15.2	76.3
2025-07-28T18:56	10	2	0.1	2	2	385	0.2	385	386	15.2	76.4
2025-07-28T18:57	10	1	0.1	1	2	385	0.1	385	386	15.1	76.6
2025-07-28T18:58	10	1	0.1	1	2	385	0.2	385	385	15.1	76.6
2025-07-28T18:59	10	1	0.1	1	1	384	0.3	384	385	15.1	76.4
2025-07-28T19:00	10	1	0.1	1	1	384	0.2	384	385	15.1	76.1
2025-07-28T19:01	10	1	0.1	1	1	384	0.2	384	385	15.1	75.9
2025-07-28T19:02	10	1	0.1	1	1	384	0.2	383	384	15.1	76.5
2025-07-28T19:03	10	1	0.0	1	1	384	0.2	383	384	15.1	76.3
2025-07-28T19:04	10	1	0.1	1	1	383	0.3	383	384	15.2	76.1
2025-07-28T19:05	10	1	0.1	1	1	383	0.2	382	383	15.1	77.4
2025-07-28T19:06	10	1	0.1	1	1	383	0.2	382	383	15.1	76.8
2025-07-28T19:07	10	1	0.1	0	1	382	0.3	381	382	15.2	76.6
2025-07-28T19:08	10	1	0.1	0	1	381	0.3	381	382	15.2	76.3
2025-07-28T19:09	10	1	0.1	0	1	381	0.3	380	381	15.2	76.2
2025-07-28T19:10	10	0	0.1	0	1	381	0.2	380	381	15.2	75.1
2025-07-28T19:11	10	0	0.0	0	1	380	0.4	379	381	15.2	74.4
2025-07-28T19:12	10	0	0.1	0	1	379	0.3	379	380	15.2	74.2
2025-07-28T19:13	10	0	0.1	0	0	378	0.4	378	379	15.2	74.1
2025-07-28T19:14	10	0	0.1	0	0	378	0.3	377	378	15.2	74.9
2025-07-28T19:15	10	0	0.1	0	0	377	0.2	377	378	15.2	75.2
2025-07-28T19:16	10	0	0.1	0	0	377	0.2	377	378	15.2	75.3
2025-07-28T19:17	10	0	0.1	0	0	377	0.3	376	377	15.1	75.4
2025-07-28T19:18	10	0	0.1	0	0	376	0.3	376	377	15.1	74.6
2025-07-28T19:19	10	0	0.1	0	0	376	0.3	375	377	15.1	74.6
2025-07-28T19:20	10	0	0.1	0	0	376	0.2	375	376	15.0	76.3
2025-07-28T19:21	10	0	0.1	0	0	375	0.3	375	376	15.0	77.2
2025-07-28T19:22	10	0	0.1	0	0	375	0.3	375	376	14.9	78.3
2025-07-28T19:23	10	0	0.1	0	0	375	0.2	374	375	14.8	78.9
2025-07-28T19:24	10	0	0.1	0	0	374	0.3	374	375	14.7	79.3
2025-07-28T19:25	10	0	0.1	0	0	374	0.3	373	375	14.7	79.3
2025-07-28T19:26	10	0	0.1	0	0	374	0.2	374	375	14.7	79.4
2025-07-28T19:27	10	0	0.0	0	0	374	0.2	374	375	14.7	79.6
2025-07-28T19:28	10	0	0.1	0	0	375	0.3	374	375	14.7	79.1
2025-07-28T19:29	10	0	0.1	0	0	375	0.3	374	376	14.8	77.3
2025-07-28T19:30	10	0	0.0	0	0	375	0.3	374	376	14.8	76.3
2025-07-28T19:31	10	0	0.1	0	0	375	0.3	375	376	14.8	76.2
2025-07-28T19:32	10	0	0.1	0	0	375	0.3	374	375	14.8	75.9
2025-07-28T19:33	10	0	0.0	0	0	375	0.2	374	375	14.8	75.5
2025-07-28T19:34	10	0	0.1	0	0	374	0.2	374	375	14.9	75.3
2025-07-28T19:35	10	0	0.1	0	0	374	0.3	374	375	14.8	75.8
2025-07-28T19:36	10	0	0.0	0	0	374	0.2	374	375	14.9	75.2
2025-07-28T19:37	10	0	0.1	0	0	374	0.2	374	375	14.9	75.5
2025-07-28T19:38	10	0	0.1	0	0	374	0.2	374	375	14.9	74.9
2025-07-28T19:39	10	0	0.1	0	0	374	0.2	373	374	14.9	75.1
2025-07-28T19:40	10	0	0.1	0	0	374	0.2	373	374	14.9	75.0
2025-07-28T19:41	10	0	0.1	0	0	374	0.3	373	374	14.9	75.4
2025-07-28T19:42	10	0	0.1	0	0	374	0.3	373	375	14.8	76.4
2025-07-28T19:43	10	0	0.1	0	0	374	0.3	373	375	14.8	76.2
2025-07-28T19:44	10	0	0.1	0	0	374	0.3	373	374	14.7	76.6
2025-07-28T19:45	10	0	0.0	0	0	374	0.3	373	374	14.8	76.2
2025-07-28T19:46	10	0	0.1	0	0	374	0.2	373	374	14.8	76.1
2025-07-28T19:47	10	0	0.1	0	0	373	0.2	373	374	14.7	76.3
2025-07-28T19:48	10	0	0.1	0	0	373	0.2	372	374	14.7	76.4
2025-07-28T19:49	10	0	0.1	0	0	372	0.3	372	373	14.7	76.6
2025-07-28T19:50	10	0	0.1	0	0	372	0.2	371	372	14.6	77.2
2025-07-28T19:51	10	0	0.1	0	0	372	0.2	371	372	14.6	77.4
2025-07-28T19:52	10	0	0.1	0	0	371	0.2	371	372	14.5	77.3
2025-07-28T19:53	10	0	0.1	0	0	371	0.2	371	372	14.5	77.6
2025-07-28T19:54	10	0	0.1	0	0	371	0.3	371	372	14.5	77.8
2025-07-28T19:55	10	0	0.1	0	0	371	0.2	370	372	14.4	78.2
2025-07-28T19:56	10	0	0.1	0	0	372	0.2	371	372	14.3	79.3
2025-07-28T19:57	10	0	0.1	0	0	372	0.3	371	373	14.3	79.4
2025-07-28T19:58	10	0	0.1	0	0	372	0.4	372	373	14.3	79.0
2025-07-28T19:59	10	0	0.1	0	0	373	0.2	372	373	14.4	78.7
2025-07-28T20:00	10	0	0.1	0	0	373	0.2	372	373	14.4	78.7
2025-07-28T20:01	10	0	0.1	0	0	373	0.2	372	374	14.3	79.1
2025-07-28T20:02	10	0	0.1	0	0	373	0.3	373	374	14.3	79.5
2025-07-28T20:03	10	0	0.0	0	0	374	0.3	373	375	14.3	78.8
2025-07-28T20:04	10	0	0.0	0	0	374	0.3	373	375	14.4	78.0
2025-07-28T20:05	10	0	0.1	0	0	374	0.3	374	375	14.5	77.3
2025-07-28T20:06	10	0	0.0	0	0	375	0.2	374	375	14.6	76.6
2025-07-28T20:07	10	0	0.0	0	0	375	0.3	374	375	14.6	76.4
2025-07-28T20:08	10	0	0.1	0	0	374	0.3	374	375	14.7	76.3
2025-07-28T20:09	10	0	0.1	0	0	374	0.2	373	375	14.5	78.2
2025-07-28T20:10	10	0	0.1	0	0	373	0.3	373	374	14.2	79.9
2025-07-28T20:11	10	0	0.0	0	0	373	0.2	373	374	14.1	80.9
2025-07-28T20:12	10	0	0.0	0	0	373	0.2	372	373	14.1	80.6
2025-07-28T20:13	10	0	0.0	0	0	372	0.2	372	373	14.1	81.2
2025-07-28T20:14	10	0	0.1	0	0	372	0.3	372	373	13.9	82.0
2025-07-28T20:15	10	0	0.1	0	0	372	0.3	372	373	14.1	80.3
2025-07-28T20:16	10	0	0.1	0	0	372	0.2	372	372	14.2	78.9
2025-07-28T20:17	10	0	0.1	0	0	372	0.2	371	372	14.3	78.4
2025-07-28T20:18	10	0	0.1	0	0	372	0.2	371	372	14.2	79.7
2025-07-28T20:19	10	0	0.1	0	0	372	0.2	371	372	14.2	78.4
2025-07-28T20:20	10	0	0.0	0	0	372	0.3	371	372	14.4	76.7
2025-07-28T20:21	10	0	0.0	0	0	372	0.2	372	372	14.6	74.8
2025-07-28T20:22	10	0	0.0	0	0	372	0.3	371	373	14.7	73.8
2025-07-28T20:23	10	0	0.1	0	0	372	0.2	371	373	14.6	75.2
2025-07-28T20:24	10	0	0.1	0	0	372	0.3	372	373	14.5	75.3
2025-07-28T20:25	10	0	0.1	0	0	372	0.3	371	373	14.3	77.4
2025-07-28T20:26	10	0	0.1	0	0	372	0.2	372	373	14.3	76.9
2025-07-28T20:27	10	0	0.0	0	0	372	0.2	372	373	14.2	78.1
2025-07-28T20:28	10	0	0.0	0	0	373	0.2	372	373	14.1	78.5
2025-07-28T20:29	10	0	0.0	0	0	373	0.3	372	373	14.0	79.1
2025-07-28T20:30	10	0	0.0	0	0	373	0.2	373	374	14.0	79.2
2025-07-28T20:31	10	0	0.1	0	0	373	0.2	373	374	14.0	80.3
2025-07-28T20:32	10	0	0.1	0	0	373	0.3	372	373	13.9	81.6
2025-07-28T20:33	10	0	0.1	0	0	372	0.2	372	373	13.6	83.3
2025-07-28T20:34	10	0	0.1	0	0	373	0.3	372	374	13.6	82.9
2025-07-28T20:35	10	0	0.1	0	0	373	0.3	373	374	13.7	82.3
2025-07-28T20:36	10	0	0.1	0	0	374	0.3	373	374	13.8	80.7
2025-07-28T20:37	10	0	0.1	0	0	374	0.2	373	374	13.9	80.1
2025-07-28T20:38	10	0	0.0	0	0	374	0.2	373	374	14.0	78.6
2025-07-28T20:39	10	0	0.1	0	0	374	0.3	373	374	14.0	78.4
2025-07-28T20:40	10	0	0.1	0	0	374	0.2	373	374	14.1	78.4
2025-07-28T20:41	10	0	0.1	0	0	374	0.2	373	374	14.0	79.5
2025-07-28T20:42	10	0	0.1	0	0	374	0.2	374	375	13.9	80.5
2025-07-28T20:43	10	0	0.0	0	0	374	0.1	374	374	13.8	81.6
2025-07-28T20:44	10	0	0.0	0	0	374	0.2	374	375	13.8	82.4
2025-07-28T20:45	10	0	0.1	0	0	374	0.2	374	375	13.7	82.5
2025-07-28T20:46	10	0	0.1	0	0	374	0.2	374	375	13.7	83.2
2025-07-28T20:47	10	0	0.1	0	0	374	0.2	374	375	13.6	83.8
2025-07-28T20:48	10	0	0.1	0	0	374	0.2	374	375	13.6	84.2
2025-07-28T20:49	10	0	0.1	0	0	374	0.2	374	375	13.5	84.3
2025-07-28T20:50	10	0	0.0	0	0	374	0.2	374	374	13.5	84.9
2025-07-28T20:51	10	0	0.1	0	0	374	0.2	374	374	13.4	85.4
2025-07-28T20:52	10	0	0.1	0	0	374	0.2	374	375	13.4	84.9
2025-07-28T20:53	10	0	0.1	0	0	375	0.3	374	375	13.4	84.0
2025-07-28T20:54	10	0	0.1	0	0	375	0.2	374	375	13.4	83.3
2025-07-28T20:55	10	0	0.1	0	0	375	0.3	374	375	13.5	83.0
2025-07-28T20:56	10	0	0.1	0	0	375	0.2	375	376	13.5	83.0
2025-07-28T20:57	10	0	0.1	0	0	375	0.3	375	376	13.5	82.4
2025-07-28T20:58	10	0	0.1	0	0	376	0.2	375	376	13.7	80.7
2025-07-28T20:59	10	0	0.1	0	0	376	0.3	375	376	13.8	79.9
2025-07-28T21:00	10	0	0.2	0	0	376	0.3	375	376	13.8	79.6
2025-07-28T21:01	10	0	0.1	0	0	376	0.3	375	377	13.9	79.3
2025-07-28T21:02	10	0	0.1	0	0	376	0.2	375	376	13.9	79.1
2025-07-28T21:03	10	0	0.1	0	0	375	0.3	375	376	13.8	79.6
2025-07-28T21:04	10	0	0.1	0	1	375	0.3	375	376	13.7	80.8
2025-07-28T21:05	10	0	0.2	0	1	375	0.2	374	375	13.6	81.7
2025-07-28T21:06	10	0	0.1	0	1	374	0.3	374	375	13.5	83.5
2025-07-28T21:07	10	0	0.1	0	1	374	0.3	374	375	13.4	84.2
2025-07-28T21:08	10	0	0.1	0	0	374	0.3	373	375	13.4	83.4
2025-07-28T21:09	10	0	0.2	0	0	374	0.3	373	375	13.5	82.7
2025-07-28T21:10	10	0	0.1	0	0	373	0.2	373	374	13.6	81.3
2025-07-28T21:11	10	0	0.1	0	1	373	0.2	373	374	13.6	80.4
2025-07-28T21:12	10	0	0.1	0	0	373	0.2	373	374	13.8	79.4
2025-07-28T21:13	10	0	0.2	0	1	373	0.3	372	374	13.8	79.6
2025-07-28T21:14	10	0	0.1	0	0	372	0.3	372	373	13.9	79.6
2025-07-28T21:15	10	0	0.1	0	0	372	0.2	372	373	13.9	79.7
2025-07-28T21:16	10	0	0.1	0	0	372	0.3	371	373	14.0	79.7
2025-07-28T21:17	10	0	0.1	0	0	372	0.2	371	372	13.9	80.0
2025-07-28T21:18	10	0	0.1	0	0	372	0.3	371	373	13.9	80.5
2025-07-28T21:19	10	0	0.1	0	0	373	0.3	372	374	13.9	79.4
2025-07-28T21:20	10	0	0.2	0	0	373	0.3	373	374	14.0	78.3
2025-07-28T21:21	10	0	0.1	0	0	374	0.2	373	374	14.1	77.8
2025-07-28T21:22	10	0	0.2	-1	0	375	0.4	374	375	14.1	77.9
2025-07-28T21:23	10	0	0.2	-1	1	375	0.3	374	376	14.1	77.7
2025-07-28T21:24	10	0	0.1	0	0	375	0.3	375	376	14.0	78.5
2025-07-28T21:25	10	0	0.2	0	1	376	0.3	375	377	13.9	80.9
2025-07-28T21:26	10	0	0.2	0	0	376	0.3	376	377	13.8	82.2
2025-07-28T21:27	10	0	0.2	0	1	377	0.3	376	377	13.7	81.8
2025-07-28T21:28	10	0	0.2	0	0	377	0.3	376	377	13.7	81.9
2025-07-28T21:29	10	0	0.1	0	0	376	0.3	376	377	13.7	82.1
2025-07-28T21:30	10	0	0.1	0	0	376	0.3	375	377	13.6	83.4
2025-07-28T21:31	10	0	0.2	0	1	376	0.3	375	376	13.4	84.7
2025-07-28T21:32	10	0	0.1	0	1	375	0.2	375	376	13.3	86.3
2025-07-28T21:33	10	0	0.1	0	1	375	0.2	375	376	13.2	87.1
2025-07-28T21:34	10	0	0.1	0	0	376	0.3	375	376	13.3	85.7
2025-07-28T21:35	10	0	0.1	0	0	376	0.3	375	376	13.4	84.0
2025-07-28T21:36	10	0	0.1	0	0	376	0.3	375	377	13.5	84.4
2025-07-28T21:37	10	0	0.1	0	0	376	0.2	376	377	13.7	83.2
2025-07-28T21:38	10	0	0.0	0	0	376	0.3	376	377	13.7	82.7
2025-07-28T21:39	10	0	0.1	0	0	376	0.3	376	377	13.8	81.8
2025-07-28T21:40	10	0	0.1	0	0	376	0.3	375	377	13.8	82.7
2025-07-28T21:41	10	0	0.1	0	0	377	0.2	376	377	13.8	82.3
2025-07-28T21:42	10	0	0.1	0	0	377	0.3	376	377	13.9	81.7
2025-07-28T21:43	10	0	0.1	0	0	377	0.2	376	377	13.9	81.9
2025-07-28T21:44	10	0	0.1	0	0	377	0.2	376	377	13.8	79.3
2025-07-28T21:45	10	0	0.1	0	0	377	0.2	377	377	13.8	78.0
2025-07-28T21:46	10	0	0.1	0	0	377	0.2	377	378	13.9	82.1
2025-07-28T21:47	10	0	0.1	0	0	377	0.2	377	378	13.9	82.1
2025-07-28T21:48	10	0	0.1	0	0	377	0.2	377	378	13.9	80.7
2025-07-28T21:49	10	0	0.1	0	0	377	0.2	377	378	13.9	82.1
2025-07-28T21:50	10	0	0.1	0	0	378	0.3	377	378	13.9	82.1
2025-07-28T21:51	10	0	0.1	0	0	378	0.2	377	378	13.9	82.1
2025-07-28T21:52	10	0	0.1	0	0	378	0.2	377	378	13.8	82.7
2025-07-28T21:53	10	0	0.1	0	0	378	0.2	377	378	13.8	83.4
2025-07-28T21:54	10	0	0.1	0	0	378	0.2	377	378	13.8	83.6
2025-07-28T21:55	10	0	0.1	0	0	378	0.2	377	378	13.8	83.7
2025-07-28T21:56	10	0	0.1	0	0	378	0.2	377	378	13.8	84.3
2025-07-28T21:57	10	0	0.2	0	0	377	0.3	377	378	13.8	84.8
2025-07-28T21:58	10	0	0.1	0	0	377	0.2	377	378	13.7	85.2
2025-07-28T21:59	10	0	0.1	0	0	377	0.3	377	378	13.7	85.2
2025-07-28T22:00	10	0	0.1	0	0	377	0.3	376	378	13.6	85.5
2025-07-28T22:01	10	0	0.1	0	0	377	0.2	376	377	13.6	85.3
2025-07-28T22:02	10	0	0.1	0	1	377	0.3	376	377	13.6	84.9
2025-07-28T22:03	10	0	0.1	0	0	376	0.2	376	377	13.6	85.4
2025-07-28T22:04	10	0	0.1	0	0	376	0.3	376	377	13.6	85.4
2025-07-28T22:05	10	0	0.1	0	0	376	0.3	375	377	13.6	85.1
2025-07-28T22:06	10	0	0.1	0	0	376	0.2	376	376	13.6	85.3
2025-07-28T22:07	10	0	0.1	0	0	376	0.2	375	376	13.6	85.3
2025-07-28T22:08	10	0	0.1	0	0	376	0.2	375	376	13.5	86.7
2025-07-28T22:09	10	0	0.1	0	0	376	0.2	375	376	13.5	86.3
2025-07-28T22:10	10	0	0.1	0	0	375	0.2	375	376	13.5	86.2
2025-07-28T22:11	10	0	0.1	0	0	375	0.2	375	376	13.4	86.9
2025-07-28T22:12	10	0	0.1	0	0	376	0.2	375	376	13.6	84.6
2025-07-28T22:13	10	0	0.0	0	0	376	0.2	375	376	13.8	83.3
2025-07-28T22:14	10	0	0.1	0	0	376	0.2	375	376	13.8	82.9
2025-07-28T22:15	10	0	0.1	0	0	376	0.2	375	376	13.9	82.5
2025-07-28T22:16	10	0	0.1	0	0	376	0.2	375	376	13.9	83.3
2025-07-28T22:17	10	0	0.1	0	0	376	0.2	375	376	13.8	83.9
2025-07-28T22:18	10	0	0.1	0	0	375	0.2	375	376	13.7	84.5
2025-07-28T22:19	10	0	0.1	0	0	375	0.2	375	375	13.6	85.6
2025-07-28T22:20	10	0	0.1	0	0	375	0.2	374	375	13.5	86.6
2025-07-28T22:21	10	0	0.1	0	0	375	0.2	374	375	13.5	86.0
2025-07-28T22:22	10	0	0.1	0	0	375	0.1	374	375	13.5	86.2
2025-07-28T22:23	10	0	0.1	0	0	375	0.2	374	375	13.5	86.2
2025-07-28T22:24	10	0	0.1	0	0	374	0.3	374	375	13.5	85.2
2025-07-28T22:25	10	0	0.0	0	0	374	0.3	374	375	13.6	84.1
2025-07-28T22:26	10	0	0.1	0	0	374	0.2	374	375	13.6	83.8
2025-07-28T22:27	10	0	0.1	0	0	375	0.3	374	375	13.6	83.7
2025-07-28T22:28	10	0	0.1	0	0	374	0.2	374	375	13.5	85.1
2025-07-28T22:29	10	0	0.1	0	0	374	0.2	373	374	13.3	88.6
2025-07-28T22:30	10	0	0.0	0	0	374	0.2	374	374	13.2	88.2
2025-07-28T22:31	10	0	0.0	0	0	374	0.2	373	374	13.1	88.9
2025-07-28T22:32	10	0	0.0	0	0	374	0.2	373	374	13.1	88.6
2025-07-28T22:33	10	0	0.0	0	0	374	0.2	374	374	13.1	89.1
2025-07-28T22:34	10	0	0.0	0	0	374	0.2	373	374	13.1	89.6
2025-07-28T22:35	10	0	0.0	0	0	374	0.2	373	375	13.1	89.5
2025-07-28T22:36	10	0	0.1	0	0	374	0.2	373	374	13.1	89.0
2025-07-28T22:37	10	0	0.0	0	0	374	0.2	374	375	13.2	87.3
2025-07-28T22:38	10	0	0.0	0	0	374	0.2	373	374	13.3	87.3
2025-07-28T22:39	10	0	0.1	0	0	374	0.3	373	375	13.4	86.4
2025-07-28T22:40	10	0	0.0	0	0	374	0.2	374	374	13.5	85.0
2025-07-28T22:41	10	0	0.1	0	0	374	0.3	374	375	13.6	84.4
2025-07-28T22:42	10	0	0.1	0	0	374	0.2	374	375	13.7	83.4
2025-07-28T22:43	10	0	0.1	0	0	375	0.2	374	375	13.7	83.1
2025-07-28T22:44	10	0	0.1	0	0	374	0.2	374	375	13.7	83.3
2025-07-28T22:45	10	0	0.1	0	0	374	0.2	374	375	13.8	82.2
2025-07-28T22:46	10	0	0.1	0	0	374	0.2	374	375	13.8	81.9
2025-07-28T22:47	10	0	0.1	0	0	374	0.3	373	375	13.7	83.5
2025-07-28T22:48	10	0	0.1	0	0	373	0.3	373	374	13.5	85.8
2025-07-28T22:49	10	0	0.1	0	0	373	0.3	372	374	13.4	87.3
2025-07-28T22:50	10	0	0.1	0	0	373	0.3	372	373	13.3	88.0
2025-07-28T22:51	10	0	0.0	0	0	372	0.3	371	373	13.2	88.5
2025-07-28T22:52	10	0	0.0	0	0	372	0.2	371	372	13.1	88.9
2025-07-28T22:53	10	0	0.1	0	0	371	0.3	370	371	13.1	88.6
2025-07-28T22:54	10	0	0.0	0	0	370	0.3	370	371	13.2	88.1
2025-07-28T22:55	10	0	0.0	0	0	370	0.2	369	370	13.1	88.9
2025-07-28T22:56	10	0	0.0	0	0	369	0.2	368	369	13.0	89.8
2025-07-28T22:57	10	0	0.0	0	0	369	0.2	369	369	13.0	90.2
2025-07-28T22:58	10	0	0.1	0	0	369	0.2	368	370	13.0	90.1
2025-07-28T22:59	10	0	0.1	0	0	369	0.3	369	370	12.9	90.1
2025-07-28T23:00	10	0	0.1	0	0	369	0.2	368	370	13.0	90.1
2025-07-28T23:01	10	0	0.1	0	0	369	0.2	368	369	12.9	90.5
2025-07-28T23:02	10	0	0.1	0	0	369	0.2	368	369	12.9	90.4
2025-07-28T23:03	10	0	0.1	0	0	369	0.3	368	369	12.9	90.4
2025-07-28T23:04	10	0	0.1	0	0	369	0.4	368	370	12.9	90.4
2025-07-28T23:05	10	0	0.1	0	0	369	0.3	369	370	12.9	90.3
2025-07-28T23:06	10	0	0.0	0	0	370	0.3	370	371	13.0	89.7
2025-07-28T23:07	10	0	0.0	0	0	371	0.5	370	372	13.2	87.5
2025-07-28T23:08	10	0	0.0	0	0	371	0.3	371	372	13.6	84.0
2025-07-28T23:09	10	0	0.0	0	0	372	0.2	371	372	13.6	84.0
2025-07-28T23:10	10	0	0.1	0	0	372	0.3	372	373	13.6	84.5
2025-07-28T23:11	10	0	0.1	0	0	372	0.2	372	373	13.6	84.5
2025-07-28T23:12	10	0	0.1	0	0	373	0.3	372	373	13.4	86.9
2025-07-28T23:13	10	0	0.1	0	0	373	0.3	372	373	13.4	87.5
2025-07-28T23:14	10	0	0.1	0	0	373	0.3	373	374	13.4	86.4
2025-07-28T23:15	10	0	0.1	0	0	374	0.2	373	374	13.6	84.3
2025-07-28T23:16	10	0	0.1	0	0	374	0.3	373	374	13.6	83.1
2025-07-28T23:17	10	0	0.1	0	0	374	0.2	374	375	13.7	82.9
2025-07-28T23:18	10	0	0.1	0	0	374	0.3	374	375	13.7	82.2
2025-07-28T23:19	10	0	0.1	0	0	374	0.2	374	375	13.7	82.5
2025-07-28T23:20	10	0	0.1	0	0	374	0.2	374	375	13.6	83.5
2025-07-28T23:21	10	0	0.1	0	0	375	0.2	374	375	13.6	83.6
2025-07-28T23:22	10	0	0.1	0	0	375	0.3	374	375	13.6	83.7
2025-07-28T23:23	10	0	0.1	0	0	375	0.3	375	376	13.7	83.0
2025-07-28T23:24	10	0	0.1	0	0	376	0.2	375	376	13.9	81.2
2025-07-28T23:25	10	0	0.1	0	0	376	0.2	376	377	13.9	80.4
2025-07-28T23:26	10	0	0.1	0	0	376	0.3	375	377	13.9	80.7
2025-07-28T23:27	10	0	0.1	0	0	376	0.2	375	377	13.8	81.4
2025-07-28T23:28	10	0	0.1	0	0	376	0.2	375	376	13.7	82.0
2025-07-28T23:29	10	0	0.1	0	0	376	0.3	376	377	13.7	81.9
2025-07-28T23:30	10	0	0.1	0	0	376	0.2	376	377	13.8	82.3
2025-07-28T23:31	10	0	0.1	0	0	377	0.3	376	377	13.7	83.5
2025-07-28T23:32	10	0	0.1	0	0	376	0.2	376	377	13.6	85.0
2025-07-28T23:33	10	0	0.1	0	0	376	0.2	376	377	13.5	85.5
2025-07-28T23:34	10	0	0.1	0	0	377	0.2	376	377	13.4	85.5
2025-07-28T23:35	10	0	0.1	0	0	376	0.2	376	377	13.4	85.2
2025-07-28T23:36	10	0	0.1	0	0	376	0.3	376	377	13.4	85.4
2025-07-28T23:37	10	0	0.0	0	0	376	0.2	376	377	13.4	86.0
2025-07-28T23:38	10	0	0.1	0	0	376	0.2	376	377	13.4	85.6
2025-07-28T23:39	10	0	0.1	0	0	376	0.2	376	377	13.4	85.3
2025-07-28T23:40	10	0	0.1	0	0	376	0.2	376	377	13.4	85.1
2025-07-28T23:41	10	0	0.1	0	0	376	0.3	376	377	13.4	85.1
2025-07-28T23:42	10	0	0.0	0	0	376	0.2	375	376	13.3	85.7
2025-07-28T23:43	10	0	0.1	0	0	376	0.3	375	376	13.3	86.2
2025-07-28T23:44	10	0	0.1	0	0	376	0.3	375	376	13.2	87.4
2025-07-28T23:45	10	0	0.0	0	0	376	0.3	375	376	13.1	87.6
2025-07-28T23:46	10	0	0.0	0	0	376	0.3	375	376	13.1	87.5
2025-07-28T23:47	10	0	0.0	0	0	376	0.2	375	376	13.1	88.7
2025-07-28T23:48	10	0	0.0	0	0	376	0.3	375	377	13.0	88.5
2025-07-28T23:49	10	0	0.1	0	0	376	0.3	375	377	13.1	88.2
2025-07-28T23:50	10	0	0.1	0	0	376	0.2	376	377	13.1	88.7
2025-07-28T23:51	10	0	0.0	0	0	376	0.2	376	377	13.1	89.1
2025-07-28T23:52	10	0	0.0	0	0	376	0.3	376	377	13.1	89.3
2025-07-28T23:53	10	0	0.1	0	0	377	0.3	376	377	13.1	88.7
2025-07-28T23:54	10	0	0.1	0	0	377	0.3	376	377	13.2	88.1
2025-07-28T23:55	10	0	0.0	0	0	377	0.2	376	377	13.2	88.3
2025-07-28T23:56	10	0	0.1	0	0	377	0.2	376	377	13.2	88.1
2025-07-28T23:57	10	0	0.0	0	0	377	0.2	377	378	13.3	88.2
2025-07-28T23:58	10	0	0.1	0	0	377	0.2	377	377	13.3	86.9
2025-07-28T23:59	10	0	0.1	0	0	377	0.2	377	378	13.3	87.4
2025-07-29T00:00	10	0	0.1	0	0	377	0.2	377	378	13.4	87.1
2025-07-29T00:01	10	0	0.1	0	0	377	0.2	377	378	13.4	87.1
2025-07-29T00:02	10	0	0.1	0	0	377	0.2	377	378	13.4	88.1
2025-07-29T00:03	10	0	0.1	0	0	377	0.2	377	378	13.3	87.5
2025-07-29T00:04	10	0	0.1	0	0	378	0.2	377	378	13.4	86.6
2025-07-29T00:05	10	0	0.1	0	0	378	0.2	377	378	13.4	86.3
2025-07-29T00:06	10	0	0.1	0	0	378	0.2	377	378	13.4	86.5
2025-07-29T00:07	10	0	0.1	0	0	378	0.2	377	378	13.4	85.9
2025-07-29T00:08	10	0	0.1	0	0	378	0.2	378	378	13.4	86.3
2025-07-29T00:09	10	0	0.1	0	0	378	0.2	378	378	13.4	86.4
2025-07-29T00:10	10	0	0.1	0	0	378	0.2	378	379	13.4	86.6
2025-07-29T00:11	10	0	0.1	0	0	378	0.3	378	379	13.4	86.2
2025-07-29T00:12	10	0	0.1	0	0	378	0.2	378	379	13.5	85.5
2025-07-29T00:13	10	0	0.1	0	0	378	0.2	378	379	13.5	85.5
2025-07-29T00:14	10	0	0.1	0	0	378	0.2	378	379	13.5	85.8
2025-07-29T00:15	10	0	0.1	0	0	378	0.2	377	379	13.5	86.0
2025-07-29T00:16	10	0	0.1	0	0	378	0.2	378	379	13.5	86.1
2025-07-29T00:17	10	0	0.1	0	0	378	0.2	378	379	13.5	85.3
2025-07-29T00:18	10	0	0.1	0	0	378	0.2	378	379	13.5	86.0
2025-07-29T00:19	10	0	0.1	0	0	378	0.2	377	378	13.5	86.9
2025-07-29T00:20	10	0	0.1	0	0	378	0.2	377	378	13.5	85.8
2025-07-29T00:21	10	0	0.1	0	0	377	0.2	377	378	13.5	85.8
2025-07-29T00:22	10	0	0.1	0	0	377	0.2	377	378	13.4	86.7
2025-07-29T00:23	10	0	0.1	0	0	377	0.3	377	378	13.4	85.9
2025-07-29T00:24	10	0	0.1	0	0	377	0.2	377	378	13.4	85.7
2025-07-29T00:25	10	0	0.1	0	0	377	0.2	376	378	13.4	86.8
2025-07-29T00:26	10	0	0.1	0	0	377	0.2	376	377	13.4	86.8
2025-07-29T00:27	10	0	0.1	0	0	377	0.2	376	377	13.3	87.1
2025-07-29T00:28	10	0	0.1	0	0	377	0.2	376	377	13.3	86.9
2025-07-29T00:29	10	0	0.1	0	0	377	0.3	376	377	13.3	87.3
2025-07-29T00:30	10	0	0.1	0	0	377	0.2	376	377	13.3	86.5
2025-07-29T00:31	10	0	0.1	0	0	377	0.2	376	377	13.3	87.0
2025-07-29T00:32	10	0	0.1	0	0	377	0.2	376	377	13.3	87.5
2025-07-29T00:33	10	0	0.1	0	0	377	0.2	376	377	13.3	87.6
2025-07-29T00:34	10	0	0.1	0	0	377	0.3	376	377	13.3	87.4
2025-07-29T00:35	10	0	0.1	0	0	377	0.2	376	377	13.3	87.0
2025-07-29T00:36	10	0	0.1	0	0	377	0.2	376	377	13.4	86.2
2025-07-29T00:37	10	0	0.1	0	0	377	0.2	376	377	13.4	86.7
2025-07-29T00:38	10	0	0.1	0	0	377	0.2	376	377	13.4	86.3
2025-07-29T00:39	10	0	0.1	0	0	376	0.3	376	377	13.4	86.5
2025-07-29T00:40	10	0	0.1	0	0	376	0.2	376	377	13.4	86.0
2025-07-29T00:41	10	0	0.1	0	0	376	0.2	376	377	13.4	86.8
2025-07-29T00:42	10	0	0.1	0	0	376	0.2	376	377	13.3	87.1
2025-07-29T00:43	10	0	0.1	0	0	376	0.3	376	377	13.4	86.0
2025-07-29T00:44	10	0	0.1	0	0	376	0.3	376	377	13.4	85.7
2025-07-29T00:45	10	0	0.1	0	0	376	0.2	375	376	13.4	86.1
2025-07-29T00:46	10	0	0.1	0	0	376	0.3	375	376	13.4	85.7
2025-07-29T00:47	10	0	0.1	0	0	376	0.2	375	376	13.4	85.7
2025-07-29T00:48	10	0	0.1	0	0	376	0.2	375	376	13.4	86.2
2025-07-29T00:49	10	0	0.1	0	0	376	0.2	375	376	13.4	85.9
2025-07-29T00:50	10	0	0.1	0	0	376	0.2	375	376	13.4	86.2
2025-07-29T00:51	10	0	0.1	0	0	376	0.3	375	376	13.4	86.4
2025-07-29T00:52	10	0	0.1	0	0	376	0.2	375	376	13.4	86.1
2025-07-29T00:53	10	0	0.1	0	0	376	0.2	375	376	13.4	87.0
2025-07-29T00:54	10	0	0.1	0	0	376	0.2	375	376	13.3	87.4
2025-07-29T00:55	10	0	0.1	0	0	375	0.2	375	376	13.3	87.6
2025-07-29T00:56	10	0	0.1	0	0	375	0.2	375	376	13.2	89.1
2025-07-29T00:57	10	0	0.1	0	0	375	0.2	375	376	13.1	89.7
2025-07-29T00:58	10	0	0.0	0	0	375	0.2	375	376	13.1	90.7
2025-07-29T00:59	10	0	0.1	0	0	375	0.2	374	375	13.0	90.8
2025-07-29T01:00	10	0	0.1	0	0	375	0.2	375	375	13.1	90.2
2025-07-29T01:01	10	0	0.1	0	0	375	0.3	374	376	13.1	90.7
2025-07-29T01:02	10	0	0.1	0	0	375	0.2	374	375	13.0	91.4
2025-07-29T01:03	10	0	0.1	0	0	375	0.2	374	375	13.0	91.3
2025-07-29T01:04	10	0	0.1	0	0	375	0.2	375	375	13.0	91.4
2025-07-29T01:05	10	0	0.0	0	0	375	0.2	374	375	13.0	91.8
2025-07-29T01:06	10	0	0.1	0	0	375	0.2	375	376	13.0	91.8
2025-07-29T01:07	10	0	0.1	0	0	375	0.3	374	375	13.0	90.9
2025-07-29T01:08	10	0	0.1	0	0	375	0.2	375	376	13.0	90.1
2025-07-29T01:09	10	0	0.1	0	0	375	0.2	374	375	13.0	89.9
2025-07-29T01:10	10	0	0.1	0	0	375	0.2	374	376	13.0	89.8
2025-07-29T01:11	10	0	0.1	0	0	375	0.3	374	375	13.0	89.8
2025-07-29T01:12	10	0	0.1	0	0	375	0.2	374	375	13.0	89.8
2025-07-29T01:13	10	0	0.1	0	0	375	0.2	375	376	13.0	89.6
2025-07-29T01:14	10	0	0.1	0	0	375	0.2	374	375	13.0	89.8
2025-07-29T01:15	10	0	0.1	0	0	375	0.2	374	375	13.0	90.3
2025-07-29T01:16	10	0	0.1	0	0	375	0.2	374	375	12.9	90.9
2025-07-29T01:17	10	0	0.1	0	0	375	0.3	374	375	12.9	91.5
2025-07-29T01:18	10	0	0.1	0	0	374	0.2	374	375	12.9	91.7
2025-07-29T01:19	10	0	0.1	0	0	374	0.2	374	375	12.9	91.9
2025-07-29T01:20	10	0	0.1	0	0	374	0.2	374	375	12.9	91.8
2025-07-29T01:21	10	0	0.0	0	0	374	0.2	374	375	12.9	92.0
2025-07-29T01:22	10	0	0.1	0	0	374	0.3	373	375	12.9	91.3
2025-07-29T01:23	10	0	0.1	0	0	374	0.2	373	374	13.0	90.4
2025-07-29T01:24	10	0	0.1	0	0	374	0.3	373	374	13.0	90.8
2025-07-29T01:25	10	0	0.1	0	0	373	0.2	372	374	13.0	91.2
2025-07-29T01:26	10	0	0.1	0	0	373	0.2	372	373	12.9	91.5
2025-07-29T01:27	10	0	0.0	0	0	373	0.3	372	373	12.9	91.7
2025-07-29T01:28	10	0	0.1	0	0	372	0.2	372	373	12.9	92.1
2025-07-29T01:29	10	0	0.1	0	0	372	0.2	371	372	12.9	92.2
2025-07-29T01:30	10	0	0.1	0	0	371	0.2	371	371	12.9	92.5
2025-07-29T01:31	10	0	0.1	0	0	371	0.3	370	371	12.9	92.2
2025-07-29T01:32	10	0	0.0	0	0	370	0.2	370	371	12.9	91.8
2025-07-29T01:33	10	0	0.1	0	0	370	0.3	369	370	12.9	92.0
2025-07-29T01:34	10	0	0.1	0	0	369	0.3	368	370	12.9	92.7
2025-07-29T01:35	10	0	0.1	0	0	368	0.3	368	369	12.8	93.5
2025-07-29T01:36	10	0	0.1	0	0	368	0.2	367	369	12.7	94.3
2025-07-29T01:37	10	0	0.1	0	0	368	0.2	367	368	12.6	95.1
2025-07-29T01:38	10	0	0.1	0	0	367	0.3	366	368	12.6	95.3
2025-07-29T01:39	10	0	0.1	0	0	367	0.2	366	367	12.6	95.6
2025-07-29T01:40	10	0	0.1	0	0	366	0.2	366	367	12.5	95.8
2025-07-29T01:41	10	0	0.1	0	0	366	0.3	365	367	12.5	96.2
2025-07-29T01:42	10	0	0.1	0	0	366	0.3	365	366	12.5	96.3
2025-07-29T01:43	10	0	0.1	0	0	366	0.2	365	366	12.5	96.3
2025-07-29T01:44	10	0	0.1	0	0	366	0.2	365	366	12.5	96.4
2025-07-29T01:45	10	0	0.1	0	0	366	0.2	365	366	12.5	96.6
2025-07-29T01:46	10	0	0.1	0	0	365	0.3	365	366	12.5	96.4
2025-07-29T01:47	10	0	0.1	0	0	365	0.2	365	365	12.5	96.4
2025-07-29T01:48	10	0	0.1	0	0	365	0.3	364	365	12.5	96.1
2025-07-29T01:49	10	0	0.1	0	0	364	0.3	363	365	12.5	95.5
2025-07-29T01:50	10	0	0.1	0	0	363	0.3	363	364	12.5	95.1
2025-07-29T01:51	10	0	0.1	0	0	363	0.2	363	363	12.5	94.9
2025-07-29T01:52	10	0	0.1	0	0	362	0.2	362	363	12.6	94.4
2025-07-29T01:53	10	0	0.1	0	0	362	0.2	361	362	12.6	94.2
2025-07-29T01:54	10	0	0.1	0	0	361	0.2	361	362	12.6	94.1
2025-07-29T01:55	10	0	0.1	0	0	361	0.2	361	362	12.6	94.1
2025-07-29T01:56	10	0	0.1	0	0	361	0.2	360	361	12.6	94.1
2025-07-29T01:57	10	0	0.1	0	0	361	0.2	360	361	12.7	93.8
2025-07-29T01:58	10	0	0.1	0	0	360	0.3	360	361	12.6	93.9
2025-07-29T01:59	10	0	0.1	0	0	360	0.2	360	361	12.6	94.1
2025-07-29T02:00	10	0	0.1	0	0	360	0.3	359	361	12.6	93.9
2025-07-29T02:01	10	0	0.1	0	0	360	0.3	359	360	12.6	94.0
2025-07-29T02:02	10	0	0.1	0	0	360	0.3	359	360	12.6	93.6
2025-07-29T02:03	10	0	0.1	0	0	359	0.2	359	360	12.6	93.8
2025-07-29T02:04	10	0	0.1	0	0	360	0.2	359	360	12.6	93.9
2025-07-29T02:05	10	0	0.1	0	0	359	0.3	359	360	12.5	93.9
2025-07-29T02:06	10	0	0.1	0	0	359	0.2	358	360	12.5	94.1
2025-07-29T02:07	10	0	0.1	0	0	359	0.3	358	359	12.5	94.1
2025-07-29T02:08	10	0	0.1	0	0	359	0.2	359	359	12.4	94.1
2025-07-29T02:09	10	0	0.1	0	0	359	0.2	358	359	12.4	94.5
2025-07-29T02:10	10	0	0.1	0	0	359	0.2	358	359	12.4	94.7
2025-07-29T02:11	10	0	0.1	0	0	359	0.3	358	360	12.4	94.8
2025-07-29T02:12	10	0	0.1	0	0	359	0.2	358	359	12.4	94.4
2025-07-29T02:13	10	0	0.1	0	0	359	0.3	358	359	12.4	94.1
2025-07-29T02:14	10	0	0.1	0	0	359	0.2	359	360	12.5	93.6
2025-07-29T02:15	10	0	0.1	0	0	360	0.2	359	360	12.6	93.3
2025-07-29T02:16	10	0	0.1	0	0	359	0.3	359	360	12.6	93.0
2025-07-29T02:17	10	0	0.1	0	0	359	0.2	359	360	12.7	91.9
2025-07-29T02:18	10	0	0.1	0	0	359	0.3	359	360	12.8	91.2
2025-07-29T02:19	10	0	0.0	0	0	360	0.2	360	360	12.9	90.9
2025-07-29T02:20	10	0	0.1	0	0	359	0.8	358	360	12.9	90.4
2025-07-29T02:21	10	0	0.1	0	0	360	0.4	358	360	12.6	91.4
2025-07-29T02:22	10	0	0.1	0	0	360	0.2	360	361	12.6	92.1
2025-07-29T02:23	10	0	0.1	0	0	360	0.3	359	360	12.8	90.1
2025-07-29T02:24	10	0	0.1	0	0	359	0.4	359	360	12.9	88.9
2025-07-29T02:25	10	0	0.1	0	0	360	0.5	359	361	12.9	88.7
2025-07-29T02:26	10	0	0.1	0	0	361	0.2	360	361	12.9	89.0
2025-07-29T02:27	10	0	0.1	0	0	361	0.2	360	362	12.8	89.2
2025-07-29T02:28	10	0	0.1	0	0	362	0.3	361	362	12.8	89.3
2025-07-29T02:29	10	0	0.1	0	0	362	0.3	362	363	12.9	88.6
2025-07-29T02:30	10	0	0.1	0	0	362	0.3	362	363	12.9	88.6
2025-07-29T02:31	10	0	0.1	0	0	362	0.2	362	363	12.9	88.1
2025-07-29T02:32	10	0	0.1	0	0	362	0.4	361	363	13.0	87.7
2025-07-29T02:33	10	0	0.1	0	0	361	0.4	360	362	12.9	88.3
2025-07-29T02:34	10	0	0.1	0	0	360	0.3	360	361	12.7	88.8
2025-07-29T02:35	10	0	0.1	0	0	361	0.4	360	362	12.8	88.0
2025-07-29T02:36	10	0	0.1	0	0	361	0.2	360	361	13.0	88.2
2025-07-29T02:37	10	0	0.1	0	0	360	0.6	358	361	12.9	88.2
2025-07-29T02:38	10	0	0.1	0	0	359	0.2	359	360	12.5	89.7
2025-07-29T02:39	10	0	0.1	0	0	359	0.2	359	360	12.5	90.0
2025-07-29T02:40	10	0	0.0	0	0	359	0.2	359	360	12.5	90.0
2025-07-29T02:41	10	0	0.1	0	0	360	0.3	359	360	12.6	89.8
2025-07-29T02:42	10	0	0.1	0	0	359	0.3	358	360	12.4	91.0
2025-07-29T02:43	10	0	0.1	0	0	359	0.2	359	360	12.1	92.6
2025-07-29T02:44	10	0	0.1	0	0	359	0.3	359	360	12.0	93.4
2025-07-29T02:45	10	0	0.1	0	0	359	0.3	359	360	12.0	94.0
2025-07-29T02:46	10	0	0.1	0	0	359	0.2	358	359	12.0	94.5
2025-07-29T02:47	10	0	0.1	0	0	358	0.2	358	359	11.9	95.0
2025-07-29T02:48	10	0	0.1	0	0	358	0.2	358	359	11.8	95.4
2025-07-29T02:49	10	0	0.1	0	0	358	0.3	357	358	11.8	95.8
2025-07-29T02:50	10	0	0.1	0	0	357	0.2	357	358	11.6	96.3
2025-07-29T02:51	10	0	0.1	0	0	357	0.2	356	358	11.5	96.8
2025-07-29T02:52	10	0	0.1	0	0	357	0.2	357	358	11.5	97.1
2025-07-29T02:53	10	0	0.1	0	0	357	0.3	356	357	11.5	97.2
2025-07-29T02:54	10	0	0.1	0	0	357	0.4	356	358	11.6	96.6
2025-07-29T02:55	10	0	0.1	0	0	357	0.3	357	358	11.8	95.6
2025-07-29T02:56	10	0	0.1	0	0	358	0.4	358	359	11.9	94.7
2025-07-29T02:57	10	0	0.1	0	0	360	0.5	358	360	12.2	92.6
2025-07-29T02:58	10	0	0.1	0	0	361	0.4	360	362	12.3	92.0
2025-07-29T02:59	10	0	0.1	0	0	361	0.3	361	362	12.4	91.2
2025-07-29T03:00	10	0	0.1	0	0	361	0.3	360	362	12.4	91.1
2025-07-29T03:01	10	0	0.1	0	0	361	0.3	360	361	12.2	91.7
2025-07-29T03:02	10	0	0.1	0	0	361	0.3	360	361	12.2	92.1
2025-07-29T03:03	10	0	0.1	0	0	361	0.2	360	361	12.1	92.4
2025-07-29T03:04	10	0	0.1	0	0	360	0.3	359	361	12.0	93.3
2025-07-29T03:05	10	0	0.1	0	0	360	0.2	359	360	11.8	94.3
2025-07-29T03:06	10	0	0.1	0	0	359	0.3	359	360	11.7	94.9
2025-07-29T03:07	10	0	0.1	0	0	358	0.3	358	359	11.6	95.7
2025-07-29T03:08	10	0	0.1	0	0	358	0.2	357	358	11.4	96.2
2025-07-29T03:09	10	0	0.1	0	0	358	0.2	357	358	11.3	96.7
2025-07-29T03:10	10	0	0.1	0	0	357	0.2	357	358	11.3	97.0
2025-07-29T03:11	10	0	0.1	0	0	358	0.4	357	358	11.2	97.1
2025-07-29T03:12	10	0	0.1	0	1	358	0.3	358	359	11.2	97.2
2025-07-29T03:13	10	0	0.1	0	0	359	0.3	358	359	11.2	97.3
2025-07-29T03:14	10	0	0.1	-1	0	359	0.3	359	360	11.1	97.4
2025-07-29T03:15	10	0	0.1	0	0	360	0.4	359	361	11.3	97.0
2025-07-29T03:16	10	0	0.1	0	0	361	0.4	360	361	11.4	96.7
2025-07-29T03:17	10	0	0.1	0	0	362	0.5	361	363	11.5	96.2
2025-07-29T03:18	10	0	0.1	-1	0	362	0.3	362	363	11.7	95.5
2025-07-29T03:19	10	0	0.1	-1	0	363	0.5	362	364	11.7	95.2
2025-07-29T03:20	10	0	0.1	-1	0	363	0.3	363	364	11.9	94.8
2025-07-29T03:21	10	0	0.1	-1	0	364	0.3	363	365	11.9	94.5
2025-07-29T03:22	10	0	0.1	-1	0	364	0.3	364	365	11.9	94.3
2025-07-29T03:23	10	0	0.1	0	0	365	0.2	364	365	12.0	94.1
2025-07-29T03:24	10	0	0.1	0	0	364	0.3	364	365	11.9	94.1
2025-07-29T03:25	10	0	0.1	0	0	364	0.2	364	364	11.7	94.3
2025-07-29T03:26	10	0	0.1	-1	0	364	0.3	363	365	11.7	94.7
2025-07-29T03:27	10	0	0.1	-1	0	364	0.3	364	365	11.7	95.1
2025-07-29T03:28	10	0	0.1	0	0	364	0.3	364	365	11.5	95.4
2025-07-29T03:29	10	0	0.1	-1	0	365	0.4	364	366	11.6	95.6
2025-07-29T03:30	10	0	0.1	0	0	365	0.2	364	365	11.7	95.7
2025-07-29T03:31	10	0	0.1	-1	0	364	0.2	364	365	11.7	95.4
2025-07-29T03:32	10	0	0.1	0	0	364	0.2	364	365	11.7	95.4
2025-07-29T03:33	10	0	0.1	-1	0	364	0.3	364	365	11.7	95.6
2025-07-29T03:34	10	0	0.2	-1	0	364	0.3	363	365	11.7	95.8
2025-07-29T03:35	10	0	0.1	-1	0	364	0.2	363	365	11.7	95.5
2025-07-29T03:36	10	0	0.1	0	0	364	0.2	364	365	11.7	95.5
2025-07-29T03:37	10	0	0.1	-1	0	364	0.3	363	365	11.7	95.4
2025-07-29T03:38	10	0	0.1	0	0	364	0.4	363	364	11.6	95.5
2025-07-29T03:39	10	0	0.1	0	0	363	0.2	362	363	11.6	95.5
2025-07-29T03:40	10	0	0.2	0	0	362	0.4	361	363	11.6	95.7
2025-07-29T03:41	10	0	0.2	0	0	361	0.4	360	362	11.5	95.8
2025-07-29T03:42	10	0	0.1	0	0	361	0.3	360	361	11.5	95.9
2025-07-29T03:43	10	0	0.1	0	0	360	0.2	360	361	11.5	95.8
2025-07-29T03:44	10	0	0.1	0	0	360	0.4	359	360	11.5	95.7
2025-07-29T03:45	10	0	0.1	0	0	359	0.3	358	360	11.6	95.6
2025-07-29T03:46	10	0	0.1	0	0	359	0.3	358	360	11.6	95.5
2025-07-29T03:47	10	0	0.1	-1	0	359	0.3	358	360	11.8	95.1
2025-07-29T03:48	10	0	0.4	-1	2	359	0.2	359	360	12.0	94.6
2025-07-29T03:49	10	0	0.1	0	0	359	0.3	358	360	12.0	94.3
2025-07-29T03:50	10	0	0.1	0	0	358	0.4	358	359	11.9	94.2
2025-07-29T03:51	10	0	0.1	0	0	358	0.3	358	359	11.8	94.2
2025-07-29T03:52	10	0	0.1	0	0	358	0.3	357	358	11.7	94.3
2025-07-29T03:53	10	0	0.1	0	0	357	0.3	357	358	11.6	94.7
2025-07-29T03:54	10	0	0.1	0	0	357	0.3	356	357	11.5	95.1
2025-07-29T03:55	10	0	0.1	0	0	357	0.2	356	357	11.5	95.2
2025-07-29T03:56	10	0	0.1	0	0	356	0.2	356	357	11.4	95.4
2025-07-29T03:57	10	0	0.1	0	0	355	0.2	355	356	11.4	95.7
2025-07-29T03:58	10	0	0.1	0	1	355	0.2	355	356	11.3	95.9
2025-07-29T03:59	10	0	0.1	0	0	355	0.2	354	355	11.2	96.1
2025-07-29T04:00	10	0	0.1	0	0	355	0.3	354	355	11.1	96.2
2025-07-29T04:01	10	0	0.1	0	0	355	0.3	354	356	11.2	96.1
2025-07-29T04:02	10	0	0.1	0	0	355	0.3	354	356	11.3	96.1
2025-07-29T04:03	10	0	0.1	0	0	356	0.3	355	356	11.4	96.1
2025-07-29T04:04	10	0	0.1	0	0	356	0.3	355	357	11.4	95.8
2025-07-29T04:05	10	0	0.1	0	0	356	0.2	356	357	11.4	95.8
2025-07-29T04:06	10	0	0.1	0	1	356	0.2	355	356	11.4	95.8
2025-07-29T04:07	10	0	0.1	0	1	356	0.2	355	356	11.3	96.0
2025-07-29T04:08	10	0	0.1	0	1	356	0.3	355	356	11.2	96.1
2025-07-29T04:09	10	1	0.3	0	3	355	0.3	354	356	11.1	96.3
2025-07-29T04:10	10	1	0.1	0	1	354	0.3	354	355	11.0	96.5
2025-07-29T04:11	10	1	0.1	0	1	354	0.3	353	355	11.0	96.5
2025-07-29T04:12	10	1	0.1	0	1	354	0.2	354	355	11.2	96.6
2025-07-29T04:13	10	1	0.1	0	1	355	0.5	354	356	11.3	97.1
2025-07-29T04:14	10	1	0.1	1	1	357	0.4	356	357	11.2	97.3
2025-07-29T04:15	10	1	0.1	1	1	357	0.3	357	358	11.1	97.1
2025-07-29T04:16	10	1	0.1	1	1	358	0.3	357	359	11.1	96.7
2025-07-29T04:17	10	1	0.1	1	1	358	0.2	357	358	11.1	96.5
2025-07-29T04:18	10	1	0.1	1	1	358	0.3	357	358	11.0	96.5
2025-07-29T04:19	10	1	0.1	1	1	357	0.3	356	358	11.0	97.0
2025-07-29T04:20	10	1	0.1	1	1	357	0.3	356	357	10.8	97.1
2025-07-29T04:21	10	1	0.1	1	1	357	0.3	356	358	10.9	96.9
2025-07-29T04:22	10	1	0.1	1	2	357	0.3	356	358	11.0	97.2
2025-07-29T04:23	10	2	0.1	1	2	357	0.3	356	358	11.0	97.3
2025-07-29T04:24	10	2	0.1	1	2	358	0.2	357	358	11.0	96.8
2025-07-29T04:25	10	2	0.1	2	2	358	0.2	357	358	11.2	96.3
2025-07-29T04:26	10	2	0.1	2	2	358	0.3	357	358	11.2	96.3
2025-07-29T04:27	10	2	0.1	2	3	358	0.3	357	359	11.2	96.1
2025-07-29T04:28	10	3	0.1	2	3	358	0.2	358	359	11.2	96.1
2025-07-29T04:29	10	3	0.1	3	3	359	0.2	358	359	11.3	95.9
2025-07-29T04:30	10	3	0.1	3	4	359	0.3	358	360	11.3	95.8
2025-07-29T04:31	10	4	0.2	3	4	359	0.2	359	359	11.4	95.6
2025-07-29T04:32	10	4	0.1	4	5	359	0.3	358	359	11.3	95.8
2025-07-29T04:33	10	5	0.1	5	5	359	0.2	358	359	11.1	96.0
2025-07-29T04:34	10	5	0.1	5	5	359	0.2	358	359	11.1	96.2
2025-07-29T04:35	10	5	0.1	5	6	358	0.2	358	359	11.2	96.4
2025-07-29T04:36	10	6	0.1	5	6	358	0.2	358	359	11.1	96.5
2025-07-29T04:37	10	6	0.1	6	6	358	0.3	358	359	11.2	96.4
2025-07-29T04:38	10	6	0.1	6	6	358	0.3	358	359	11.2	96.1
2025-07-29T04:39	10	6	0.1	6	6	359	0.3	358	360	11.1	96.2
2025-07-29T04:40	10	7	0.2	6	7	359	0.3	359	360	11.3	95.6
2025-07-29T04:41	10	7	0.3	7	8	360	0.2	359	360	11.4	95.3
2025-07-29T04:42	10	8	0.2	8	9	359	0.2	359	360	11.4	95.2
2025-07-29T04:43	10	9	0.2	8	9	359	0.2	358	359	11.4	95.1
2025-07-29T04:44	10	9	0.1	9	9	359	0.3	358	360	11.5	94.5
2025-07-29T04:45	10	10	0.2	9	10	359	0.3	359	360	11.5	94.0
2025-07-29T04:46	10	10	0.2	10	11	360	0.3	359	361	11.6	93.7
2025-07-29T04:47	10	11	0.2	10	11	361	0.3	360	361	11.6	93.2
2025-07-29T04:48	10	11	0.1	11	11	361	0.2	361	361	11.7	93.3
2025-07-29T04:49	10	12	0.2	11	12	361	0.3	361	362	11.6	93.4
2025-07-29T04:50	10	12	0.2	12	12	361	0.3	360	361	11.6	93.6
2025-07-29T04:51	10	13	0.2	12	13	361	0.2	360	361	11.5	93.6
2025-07-29T04:52	10	13	0.2	13	13	361	0.3	360	361	11.6	93.3
2025-07-29T04:53	10	14	0.2	13	14	361	0.3	361	362	11.5	93.4
2025-07-29T04:54	10	14	0.2	14	14	362	0.2	361	362	11.6	93.4
2025-07-29T04:55	10	15	0.2	14	15	362	0.2	361	362	11.6	93.7
2025-07-29T04:56	10	15	0.2	15	15	362	0.3	361	363	11.5	94.1
2025-07-29T04:57	10	16	0.2	16	16	363	0.2	362	363	11.5	94.2
2025-07-29T04:58	10	16	0.2	16	17	363	0.2	363	364	11.5	94.4
2025-07-29T04:59	10	17	0.2	16	17	364	0.3	363	364	11.5	94.3
2025-07-29T05:00	10	17	0.2	17	18	364	0.3	364	365	11.5	94.4
2025-07-29T05:01	10	18	0.1	17	18	365	0.2	364	365	11.5	94.7
2025-07-29T05:02	10	18	0.2	18	19	365	0.2	364	365	11.5	94.9
2025-07-29T05:03	10	19	0.1	19	19	364	0.2	364	365	11.4	95.1
2025-07-29T05:04	10	19	0.2	19	20	365	0.3	364	365	11.4	95.2
2025-07-29T05:05	10	20	0.2	19	20	365	0.2	365	366	11.4	95.2
2025-07-29T05:06	10	20	0.2	20	20	365	0.3	365	366	11.5	94.9
2025-07-29T05:07	10	21	0.2	20	21	366	0.2	365	366	11.5	95.1
2025-07-29T05:08	10	21	0.2	21	22	366	0.3	365	367	11.5	95.2
2025-07-29T05:09	10	22	0.2	22	23	366	0.3	365	367	11.4	95.2
2025-07-29T05:10	10	23	0.2	22	23	366	0.2	366	367	11.3	95.7
2025-07-29T05:11	10	23	0.2	23	24	366	0.2	366	367	11.4	95.5
2025-07-29T05:12	10	24	0.3	24	25	366	0.2	366	367	11.3	95.6
2025-07-29T05:13	10	25	0.2	24	25	367	0.2	366	367	11.3	95.5
2025-07-29T05:14	10	25	0.2	25	26	367	0.3	366	368	11.4	95.3
2025-07-29T05:15	10	26	0.2	26	26	367	0.3	366	368	11.3	95.6
2025-07-29T05:16	10	27	0.2	26	27	368	0.2	367	368	11.4	95.8
2025-07-29T05:17	10	27	0.2	27	28	368	0.2	368	369	11.4	95.8
2025-07-29T05:18	10	28	0.2	27	29	368	0.2	368	369	11.4	95.3
2025-07-29T05:19	10	28	0.3	28	29	368	0.2	368	369	11.4	94.8
2025-07-29T05:20	10	29	0.3	29	30	369	0.2	368	369	11.4	94.4
2025-07-29T05:21	10	30	0.2	29	30	369	0.3	368	369	11.4	94.8
2025-07-29T05:22	10	30	0.2	30	31	369	0.3	368	369	11.4	94.8
2025-07-29T05:23	10	31	0.2	31	32	369	0.3	369	370	11.4	94.9
2025-07-29T05:24	10	32	0.2	31	32	370	0.3	369	370	11.4	95.1
2025-07-29T05:25	10	32	0.2	32	33	370	0.2	369	370	11.5	94.7
2025-07-29T05:26	10	33	0.2	32	33	370	0.3	370	371	11.5	94.7
2025-07-29T05:27	10	33	0.2	33	34	371	0.2	370	371	11.6	94.6
2025-07-29T05:28	10	34	0.3	33	35	371	0.4	370	372	11.7	93.6
2025-07-29T05:29	10	34	0.2	34	35	371	0.3	371	372	11.8	93.2
2025-07-29T05:30	10	35	0.2	34	35	371	0.3	371	372	11.8	93.2
2025-07-29T05:31	10	35	0.2	35	35	372	0.3	371	373	11.8	93.6
2025-07-29T05:32	10	36	0.2	35	36	372	0.2	372	373	11.9	93.5
2025-07-29T05:33	10	36	0.1	36	36	373	0.2	372	373	11.9	92.6
2025-07-29T05:34	10	36	0.1	36	37	373	0.2	372	373	11.9	92.4
2025-07-29T05:35	10	37	0.1	36	37	373	0.3	372	373	12.0	93.0
2025-07-29T05:36	10	37	0.2	37	38	373	0.3	373	374	12.0	92.7
2025-07-29T05:37	10	38	0.3	37	39	374	0.2	373	374	12.0	93.1
2025-07-29T05:38	10	39	0.2	38	39	374	0.2	373	375	12.1	93.4
2025-07-29T05:39	10	39	0.2	39	40	374	0.2	374	374	12.0	93.0
2025-07-29T05:40	10	40	0.2	40	40	375	0.2	374	375	12.0	91.9
2025-07-29T05:41	10	41	0.2	40	41	375	0.3	374	375	12.0	91.7
2025-07-29T05:42	10	41	0.2	41	42	375	0.2	374	375	12.1	92.0
2025-07-29T05:43	10	42	0.2	41	42	375	0.2	374	375	12.1	91.6
2025-07-29T05:44	10	42	0.2	42	43	375	0.2	375	376	12.1	91.7
2025-07-29T05:45	10	43	0.2	43	43	376	0.3	375	376	12.2	91.6
2025-07-29T05:46	10	44	0.2	43	44	376	0.2	375	376	12.2	91.8
2025-07-29T05:47	10	44	0.2	44	45	376	0.2	376	377	12.2	91.4
2025-07-29T05:48	10	45	0.2	44	45	377	0.3	376	378	12.3	91.6
2025-07-29T05:49	10	45	0.2	45	46	378	0.2	377	378	12.4	92.5
2025-07-29T05:50	10	46	0.2	46	46	378	0.3	377	379	12.3	92.4
2025-07-29T05:51	10	46	0.2	46	47	379	0.3	378	379	12.4	92.8
2025-07-29T05:52	10	47	0.2	47	47	379	0.3	379	380	12.5	93.3
2025-07-29T05:53	10	48	0.1	47	48	379	0.3	379	380	12.5	92.3
2025-07-29T05:54	10	48	0.2	48	49	380	0.2	379	380	12.5	91.7
2025-07-29T05:55	10	49	0.1	48	49	379	0.2	379	380	12.4	91.4
2025-07-29T05:56	10	49	0.2	49	49	380	0.2	379	381	12.5	91.1
2025-07-29T05:57	10	50	0.2	49	50	380	0.2	380	381	12.6	91.5
2025-07-29T05:58	10	50	0.2	50	51	381	0.2	380	382	12.6	91.7
2025-07-29T05:59	10	51	0.3	51	52	381	0.3	381	382	12.6	91.7
2025-07-29T06:00	10	52	0.2	52	53	382	0.2	381	382	12.6	92.0
2025-07-29T06:01	10	53	0.3	53	53	382	0.3	381	383	12.7	91.7
2025-07-29T06:02	10	54	0.2	53	54	383	0.2	382	383	12.8	91.4
2025-07-29T06:03	10	54	0.3	54	55	383	0.3	382	383	12.9	91.6
2025-07-29T06:04	10	55	0.2	55	55	383	0.3	382	384	12.8	90.2
2025-07-29T06:05	10	56	0.4	55	57	383	0.3	382	384	12.8	89.1
2025-07-29T06:06	10	57	0.3	57	57	383	0.2	382	383	12.8	88.9
2025-07-29T06:07	10	58	0.1	57	58	384	0.2	383	384	12.9	89.1
2025-07-29T06:08	10	58	0.3	58	59	383	0.3	383	384	12.9	88.6
2025-07-29T06:09	10	60	0.4	59	60	384	0.3	383	384	13.0	88.5
2025-07-29T06:10	10	60	0.2	60	61	384	0.2	384	385	13.0	88.0
2025-07-29T06:11	10	61	0.1	60	61	384	0.4	384	385	13.0	88.5
2025-07-29T06:12	10	61	0.2	61	62	385	0.2	385	386	13.1	89.3
2025-07-29T06:13	10	61	0.5	60	62	386	0.3	385	386	13.2	88.8
2025-07-29T06:14	10	62	0.5	61	63	387	0.5	386	388	13.3	89.7
2025-07-29T06:15	10	63	0.4	62	64	387	0.4	387	388	13.5	90.1
2025-07-29T06:16	10	63	0.7	61	64	388	0.3	387	388	13.4	88.1
2025-07-29T06:17	10	61	0.7	59	62	388	0.3	387	388	13.6	87.7
2025-07-29T06:18	10	63	1.0	61	64	388	0.2	387	388	13.6	86.6
2025-07-29T06:19	10	65	0.2	64	65	388	0.2	388	389	13.7	85.8
2025-07-29T06:20	10	65	0.2	65	66	389	0.4	388	390	13.6	86.0
2025-07-29T06:21	10	66	0.1	66	66	389	0.3	388	390	13.7	86.5
2025-07-29T06:22	10	66	0.1	66	66	390	0.3	389	390	13.8	84.7
2025-07-29T06:23	10	66	0.1	66	66	389	0.2	389	390	13.8	84.6
2025-07-29T06:24	10	66	0.2	66	67	390	0.2	389	390	13.8	84.2
2025-07-29T06:25	10	67	0.4	67	68	390	0.3	389	390	13.9	84.6
2025-07-29T06:26	10	68	0.2	68	69	390	0.4	390	391	13.8	84.5
2025-07-29T06:27	10	69	0.3	68	69	391	0.3	390	391	13.8	84.0
2025-07-29T06:28	10	70	0.2	69	70	391	0.2	390	391	13.9	84.2
2025-07-29T06:29	10	70	0.3	70	71	392	0.3	391	392	13.9	84.2
2025-07-29T06:30	10	71	0.3	70	72	392	0.3	391	393	13.9	84.9
2025-07-29T06:31	10	72	0.3	71	72	392	0.4	391	393	13.9	83.4
2025-07-29T06:32	10	73	0.3	72	73	392	0.3	392	393	14.0	82.4
2025-07-29T06:33	10	73	0.2	73	74	393	0.3	392	393	14.1	82.3
2025-07-29T06:34	10	74	0.3	74	75	393	0.3	392	394	14.3	82.2
2025-07-29T06:35	10	75	0.3	74	75	393	0.3	393	394	14.2	82.3
2025-07-29T06:36	10	75	0.2	75	76	394	0.3	393	395	14.2	81.2
2025-07-29T06:37	10	76	0.2	75	76	394	0.3	393	394	14.2	81.9
2025-07-29T06:38	10	76	0.2	76	76	394	0.3	394	395	14.2	79.0
2025-07-29T06:39	10	77	0.2	76	77	395	0.3	394	395	14.3	79.4
2025-07-29T06:40	10	77	0.2	77	78	395	0.2	394	396	14.4	80.3
2025-07-29T06:41	10	78	0.2	77	78	395	0.3	395	396	14.4	80.8
2025-07-29T06:42	10	78	0.2	78	79	396	0.2	396	397	14.7	79.6
2025-07-29T06:43	10	79	0.2	79	79	396	0.3	396	397	14.6	81.0
2025-07-29T06:44	10	80	0.2	79	80	397	0.3	396	397	14.6	80.8
2025-07-29T06:45	10	80	0.2	80	81	397	0.4	396	398	14.7	80.6
2025-07-29T06:46	10	81	0.2	80	81	397	0.2	396	397	14.6	79.7
2025-07-29T06:47	10	81	0.1	81	81	397	0.3	397	398	14.7	79.3
2025-07-29T06:48	10	82	0.2	81	82	397	0.2	397	398	14.6	79.8
2025-07-29T06:49	10	82	0.2	82	82	398	0.2	397	398	14.6	79.9
2025-07-29T06:50	10	83	0.2	82	83	398	0.3	398	399	14.7	79.4
2025-07-29T06:51	10	83	0.2	83	83	399	0.3	398	399	14.8	79.1
2025-07-29T06:52	10	84	0.2	83	84	399	0.4	399	400	15.1	78.8
2025-07-29T06:53	10	84	0.2	84	84	400	0.2	400	400	14.8	79.8
2025-07-29T06:54	10	85	0.1	84	85	400	0.2	399	401	14.7	80.1
2025-07-29T06:55	10	85	0.1	85	85	401	0.2	400	401	14.8	80.4
2025-07-29T06:56	10	86	0.2	85	86	400	0.4	399	401	14.8	78.5
2025-07-29T06:57	10	86	0.1	86	86	400	0.2	400	401	14.9	78.5
2025-07-29T06:58	10	86	0.1	86	87	401	0.3	400	401	15.1	79.6
2025-07-29T06:59	10	87	0.1	87	87	402	0.2	401	402	15.1	79.8
2025-07-29T07:00	10	87	0.2	87	88	402	0.3	402	403	15.1	79.9
2025-07-29T07:01	10	88	0.1	88	88	401	0.7	400	403	14.7	80.6
2025-07-29T07:02	10	88	0.1	88	89	401	0.3	400	402	14.6	81.8
2025-07-29T07:03	10	89	0.1	89	89	401	0.4	400	402	14.5	80.9
2025-07-29T07:04	10	89	0.1	89	89	401	0.5	400	402	14.4	81.1
2025-07-29T07:05	10	90	0.1	89	90	401	0.3	401	402	14.6	81.4
2025-07-29T07:06	10	90	0.1	90	91	401	0.4	401	402	14.5	80.8
2025-07-29T07:07	10	91	0.2	90	91	403	0.5	402	404	14.6	81.3
2025-07-29T07:08	10	91	0.2	91	92	403	0.4	402	403	14.6	80.5
2025-07-29T07:09	10	92	0.2	91	92	403	0.3	402	403	14.7	80.7
2025-07-29T07:10	10	92	0.2	92	92	403	0.2	402	403	14.6	80.2
2025-07-29T07:11	10	92	0.3	92	93	404	0.4	403	405	14.8	80.8
2025-07-29T07:12	10	93	0.3	93	94	405	0.4	404	406	15.0	80.9
2025-07-29T07:13	10	94	0.2	93	94	405	0.2	404	406	14.9	79.1
2025-07-29T07:14	10	94	0.3	94	95	405	0.4	404	406	15.1	78.4
2025-07-29T07:15	10	95	0.1	95	95	404	0.4	403	405	14.9	76.8
2025-07-29T07:16	10	95	0.2	95	96	403	0.4	402	404	14.7	75.1
2025-07-29T07:17	10	96	0.2	96	96	404	0.5	404	405	14.8	75.8
2025-07-29T07:18	10	96	0.2	96	97	406	0.4	405	407	15.0	77.3
2025-07-29T07:19	10	97	0.2	97	97	405	0.8	404	407	14.8	76.9
2025-07-29T07:20	10	97	0.1	97	98	404	0.3	404	405	14.7	76.0
2025-07-29T07:21	10	98	0.2	98	98	405	0.7	404	406	14.8	75.4
2025-07-29T07:22	10	98	0.1	98	99	406	0.4	405	406	14.9	75.8
2025-07-29T07:23	10	99	0.2	98	99	405	0.8	404	406	15.0	74.1
2025-07-29T07:24	10	100	0.2	99	100	405	0.4	404	405	14.8	73.7
2025-07-29T07:25	10	100	0.2	100	101	405	0.4	404	405	14.8	73.6
2025-07-29T07:26	10	101	0.2	100	101	406	0.7	405	408	14.8	72.4
2025-07-29T07:27	10	101	0.2	101	102	407	0.4	406	407	15.0	71.2
2025-07-29T07:28	10	102	0.1	101	102	407	0.5	406	408	15.1	73.1
2025-07-29T07:29	10	102	0.2	102	103	406	0.8	405	408	15.3	71.5
2025-07-29T07:30	10	103	0.1	103	103	405	0.2	405	406	15.0	73.9
2025-07-29T07:31	10	103	0.1	103	103	406	0.3	406	407	14.9	75.5
2025-07-29T07:32	10	104	0.2	103	104	407	0.5	406	408	14.8	76.2
2025-07-29T07:33	10	104	0.2	104	105	408	0.2	407	408	15.0	74.9
2025-07-29T07:34	10	105	0.2	104	105	409	0.4	408	409	15.0	73.1
2025-07-29T07:35	10	105	0.1	105	106	409	0.5	408	410	15.1	72.5
2025-07-29T07:36	10	106	0.1	105	106	407	0.4	406	408	15.0	70.6
2025-07-29T07:37	10	106	0.2	106	107	407	0.6	406	409	15.0	71.4
2025-07-29T07:38	10	107	0.2	106	107	409	0.4	408	410	15.3	71.7
2025-07-29T07:39	10	107	0.2	107	108	409	0.6	408	410	15.2	70.9
2025-07-29T07:40	10	108	0.2	107	108	411	0.6	410	412	15.4	72.0
2025-07-29T07:41	10	108	0.2	108	108	411	0.9	409	413	15.4	72.6
2025-07-29T07:42	10	108	0.1	108	109	410	0.3	409	411	15.2	72.1
2025-07-29T07:43	10	109	0.2	108	109	411	0.4	410	412	15.2	73.4
2025-07-29T07:44	10	110	0.2	109	110	411	0.5	410	412	15.2	72.2
2025-07-29T07:45	10	110	0.2	110	110	411	0.3	411	412	15.2	72.8
2025-07-29T07:46	10	111	0.2	110	111	412	0.4	411	413	15.2	72.2
2025-07-29T07:47	10	111	0.2	110	111	413	0.4	412	414	15.3	72.2
2025-07-29T07:48	10	111	0.3	111	112	414	0.5	413	415	15.5	73.0
2025-07-29T07:49	10	111	0.3	110	112	415	0.4	414	415	15.7	72.4
2025-07-29T07:50	10	111	0.2	111	112	415	0.3	414	415	15.6	72.6
2025-07-29T07:51	10	112	0.3	111	112	415	0.2	414	415	15.6	72.1
2025-07-29T07:52	10	112	0.3	111	112	416	0.6	414	417	15.8	72.8
2025-07-29T07:53	10	112	0.4	111	112	416	0.6	414	417	15.8	72.4
2025-07-29T07:54	10	112	0.5	110	112	417	0.3	416	417	16.0	72.8
2025-07-29T07:55	10	112	0.5	112	114	415	1.1	413	417	15.6	71.0
2025-07-29T07:56	10	114	0.4	113	115	415	0.5	414	416	15.7	73.0
2025-07-29T07:57	10	115	0.2	114	115	416	0.2	416	416	15.8	71.7
2025-07-29T07:58	10	116	0.2	115	116	417	0.4	416	418	15.7	71.2
2025-07-29T07:59	10	116	0.1	116	116	418	0.4	417	419	16.0	71.6
2025-07-29T08:00	10	116	0.3	116	117	418	0.5	417	419	16.1	71.0
2025-07-29T08:01	10	117	0.2	116	117	418	0.3	417	419	15.9	70.4
2025-07-29T08:02	10	117	0.1	117	117	418	0.6	417	420	15.9	71.0
2025-07-29T08:03	10	117	0.3	117	118	418	0.9	417	420	15.8	70.7
2025-07-29T08:04	10	117	0.2	117	118	418	0.5	417	418	15.7	71.7
2025-07-29T08:05	10	118	0.2	118	119	418	0.3	417	419	15.8	71.4
2025-07-29T08:06	10	119	0.1	118	119	419	0.7	418	421	15.8	71.1
2025-07-29T08:07	10	119	0.1	119	119	418	0.7	417	420	15.8	68.8
2025-07-29T08:08	10	119	0.2	119	120	418	0.5	417	419	15.7	67.8
2025-07-29T08:09	10	120	0.2	120	120	419	0.4	418	419	15.8	67.5
2025-07-29T08:10	10	120	0.1	120	121	418	0.3	418	419	15.9	67.5
2025-07-29T08:11	10	121	0.1	120	121	419	0.3	418	419	15.9	68.0
2025-07-29T08:12	10	121	0.2	121	121	419	0.3	418	420	16.0	66.8
2025-07-29T08:13	10	122	0.1	121	122	420	1.0	418	421	16.1	64.3
2025-07-29T08:14	10	122	0.1	122	122	418	0.3	417	418	15.9	64.5
2025-07-29T08:15	10	122	0.1	122	123	418	0.6	417	419	16.1	66.7
2025-07-29T08:16	10	123	0.2	122	123	420	0.6	418	421	16.1	65.3
2025-07-29T08:17	10	123	0.1	123	123	419	0.3	419	420	16.0	65.2
2025-07-29T08:18	10	123	0.2	123	123	420	0.5	419	421	15.9	66.9
2025-07-29T08:19	10	123	0.1	123	123	422	0.6	421	423	16.0	68.2
2025-07-29T08:20	10	124	0.2	123	124	423	0.2	422	423	16.2	67.9
2025-07-29T08:21	10	124	0.2	124	125	422	0.4	422	423	16.2	67.2
2025-07-29T08:22	10	125	0.4	125	126	423	0.5	422	424	16.3	68.0
2025-07-29T08:23	10	126	0.2	125	126	423	0.3	422	423	16.1	68.1
2025-07-29T08:24	10	126	0.2	126	127	423	0.7	421	424	16.2	66.9
2025-07-29T08:25	10	127	0.2	126	127	423	0.4	422	423	16.1	65.8
2025-07-29T08:26	10	127	0.2	127	128	424	0.5	423	425	16.1	66.2
2025-07-29T08:27	10	128	0.3	127	128	425	0.5	423	426	16.4	67.1
2025-07-29T08:28	10	128	0.2	128	129	424	0.5	423	425	16.5	65.1
2025-07-29T08:29	10	128	0.1	128	129	424	0.4	423	425	16.3	62.6
2025-07-29T08:30	10	129	0.3	128	129	425	0.9	424	427	16.4	64.8
2025-07-29T08:31	10	129	0.2	129	130	425	0.8	424	427	16.3	66.9
2025-07-29T08:32	10	130	0.3	129	130	426	0.4	425	427	16.3	67.3
2025-07-29T08:33	10	130	0.2	130	131	427	0.4	426	428	16.5	68.3
2025-07-29T08:34	10	129	0.4	129	130	425	1.2	423	427	16.5	67.4
2025-07-29T08:35	10	130	0.3	129	131	423	0.4	423	424	16.2	67.3
2025-07-29T08:36	10	129	0.4	128	130	424	0.3	423	425	16.1	67.9
2025-07-29T08:37	10	129	1.1	126	130	425	0.2	424	425	16.2	69.2
2025-07-29T08:38	10	128	0.8	127	130	426	0.6	425	427	16.4	69.4
2025-07-29T08:39	10	131	0.7	129	132	427	0.4	427	428	16.5	69.2
2025-07-29T08:40	10	133	0.6	131	134	427	0.5	426	428	16.7	68.4
2025-07-29T08:41	10	135	0.5	133	135	427	0.4	427	428	16.7	67.0
2025-07-29T08:42	10	134	0.4	134	135	428	0.4	428	429	16.8	66.0
2025-07-29T08:43	10	134	0.3	134	135	430	0.5	428	430	16.8	67.3
2025-07-29T08:44	10	134	0.4	133	135	428	0.3	428	429	16.5	68.6
2025-07-29T08:45	10	135	0.7	133	136	428	0.6	427	429	16.5	68.3
2025-07-29T08:46	10	136	0.2	135	136	428	0.8	427	430	16.5	68.4
2025-07-29T08:47	10	135	0.1	135	136	428	0.7	427	429	16.5	69.6
2025-07-29T08:48	10	134	4.5	118	136	427	0.9	425	428	16.5	69.1
2025-07-29T08:49	10	136	0.2	136	136	428	0.8	427	429	16.4	69.3
2025-07-29T08:50	10	137	0.3	136	138	429	0.4	429	431	16.5	68.6
2025-07-29T08:51	10	129	16.4	92	140	429	1.3	426	430	16.6	67.2
2025-07-29T08:52	10	138	0.3	138	139	430	0.8	428	431	16.6	65.9
2025-07-29T08:53	10	140	0.7	139	141	432	0.9	430	433	16.9	67.2
2025-07-29T08:54	10	141	0.4	141	142	434	0.8	432	435	17.1	66.6
2025-07-29T08:55	10	142	0.4	141	142	435	0.4	434	436	17.5	66.6
2025-07-29T08:56	10	140	0.2	140	141	434	1.2	432	436	17.1	64.8
2025-07-29T08:57	10	142	0.6	141	143	433	0.4	432	434	16.8	65.5
2025-07-29T08:58	10	144	0.5	143	145	435	0.5	434	436	17.1	67.1
2025-07-29T08:59	10	145	0.1	145	145	434	0.5	433	435	17.5	67.3
2025-07-29T09:00	10	145	0.1	145	146	433	0.8	432	435	17.4	66.1
2025-07-29T09:01	10	145	0.5	144	146	434	0.9	432	435	17.2	64.7
2025-07-29T09:02	10	144	0.3	143	144	434	0.5	433	435	17.2	64.4
2025-07-29T09:03	10	143	0.3	142	144	434	0.4	433	435	17.1	63.3
2025-07-29T09:04	10	142	0.4	141	142	436	0.5	435	437	17.3	63.7
2025-07-29T09:05	10	141	0.1	141	142	435	1.3	432	437	17.4	62.0
2025-07-29T09:06	10	141	0.2	141	141	434	0.9	432	435	17.2	61.3
2025-07-29T09:07	10	141	0.1	141	141	434	0.4	434	435	17.1	63.0
2025-07-29T09:08	10	141	0.3	140	141	436	0.4	435	437	17.5	65.0
2025-07-29T09:09	10	142	0.2	141	142	436	1.1	434	437	17.4	63.4
2025-07-29T09:10	10	142	0.1	142	142	434	0.7	433	435	17.2	64.6
2025-07-29T09:11	10	142	0.2	142	142	436	0.6	435	437	17.5	65.2
2025-07-29T09:12	10	142	0.7	141	143	438	0.3	437	438	17.6	65.1
2025-07-29T09:13	10	142	0.9	140	143	438	0.3	438	439	17.6	63.9
2025-07-29T09:14	10	140	1.5	138	142	439	1.1	437	440	17.8	65.8
2025-07-29T09:15	10	139	1.9	136	143	437	0.3	437	439	17.6	63.6
2025-07-29T09:16	10	146	1.3	144	149	439	0.5	438	440	17.6	62.6
2025-07-29T09:17	10	130	29.0	68	152	440	2.3	435	442	17.8	63.4
2025-07-29T09:18	10	115	37.5	46	153	434	2.5	430	438	17.9	62.1
2025-07-29T09:19	10	153	0.5	152	154	439	0.6	437	440	17.7	61.5
2025-07-29T09:20	10	153	2.9	146	155	441	0.7	439	442	17.5	62.7
2025-07-29T09:21	10	154	0.5	153	155	440	0.4	439	441	17.3	61.1
2025-07-29T09:22	10	152	0.6	151	153	441	0.4	441	442	17.5	60.5
2025-07-29T09:23	10	151	0.1	150	151	442	0.8	441	443	17.9	61.6
2025-07-29T09:24	10	151	0.1	150	151	439	1.5	437	443	17.9	57.4
2025-07-29T09:25	10	150	0.1	150	151	438	0.7	436	439	17.6	57.0
2025-07-29T09:26	10	150	0.1	150	150	437	0.4	436	438	17.4	57.3
2025-07-29T09:27	10	150	0.2	150	150	438	0.2	437	438	17.3	57.4
2025-07-29T09:28	10	150	0.1	149	150	438	0.4	437	439	17.3	57.7
2025-07-29T09:29	10	150	0.2	150	150	438	0.4	438	439	17.5	56.3
2025-07-29T09:30	10	150	0.1	150	151	440	0.4	439	441	17.5	56.5
2025-07-29T09:31	10	151	0.2	151	152	440	0.5	440	441	17.5	57.7
2025-07-29T09:32	10	151	1.0	148	152	441	0.4	440	442	17.6	57.1
2025-07-29T09:33	10	148	2.4	143	151	441	0.4	440	442	17.6	56.9
2025-07-29T09:34	10	147	1.5	145	150	442	0.3	441	442	17.7	57.6
2025-07-29T09:35	10	145	1.4	143	147	441	0.3	441	442	17.9	58.0
2025-07-29T09:36	10	144	1.0	142	146	442	0.5	441	443	17.9	58.2
2025-07-29T09:37	10	140	1.7	136	142	443	0.3	442	444	18.4	59.4
2025-07-29T09:38	10	149	4.3	138	153	441	1.1	439	443	18.0	58.5
2025-07-29T09:39	10	152	0.2	152	152	439	0.6	437	439	17.7	59.0
2025-07-29T09:40	10	152	0.1	152	152	438	0.5	437	439	17.7	57.6
2025-07-29T09:41	10	152	0.2	151	152	440	0.4	439	441	17.6	57.5
2025-07-29T09:42	10	150	4.8	132	153	442	0.5	441	443	17.6	57.3
2025-07-29T09:43	10	152	0.2	152	152	442	0.4	441	442	17.5	55.0
2025-07-29T09:44	10	152	0.1	151	152	441	0.4	440	442	17.5	55.0
2025-07-29T09:45	10	152	0.1	152	152	441	0.7	439	442	17.5	53.1
2025-07-29T09:46	10	152	0.2	151	152	437	0.9	436	439	17.5	56.9
2025-07-29T09:47	10	152	0.1	152	152	438	0.8	437	440	17.5	56.9
2025-07-29T09:48	10	153	0.3	152	153	439	1.2	437	441	17.5	56.9
2025-07-29T09:49	10	151	1.6	149	153	441	0.5	440	442	17.5	56.9
2025-07-29T09:50	10	151	0.6	149	152	442	0.8	441	443	17.6	57.1
2025-07-29T09:51	10	150	0.9	149	152	444	0.5	443	445	18.2	57.6
2025-07-29T09:52	10	152	0.6	151	153	444	1.0	442	445	18.0	56.9
2025-07-29T09:53	10	153	0.2	152	153	440	0.4	439	441	17.7	55.0
2025-07-29T09:54	10	153	0.1	153	153	441	0.5	440	442	17.7	54.5
2025-07-29T09:55	10	153	0.1	153	153	440	1.0	438	442	17.7	55.2
2025-07-29T09:56	10	152	1.0	151	154	442	1.0	440	444	17.9	55.3
2025-07-29T09:57	10	149	3.5	140	152	439	0.4	438	440	17.8	55.0
2025-07-29T09:58	10	152	0.5	151	153	439	0.5	438	440	17.9	55.3
2025-07-29T09:59	10	153	0.4	152	154	438	0.5	437	439	17.8	55.7
2025-07-29T10:00	10	153	0.3	152	153	438	0.6	437	439	17.9	57.0
2025-07-29T10:01	10	151	1.0	149	152	439	0.9	437	441	17.8	56.7
2025-07-29T10:02	10	152	0.3	151	153	439	0.5	438	440	17.9	56.9
2025-07-29T10:03	10	151	2.9	145	154	442	1.8	440	445	18.0	57.3
2025-07-29T10:04	10	154	0.1	154	154	445	0.9	444	447	18.2	57.6
2025-07-29T10:05	10	153	0.7	151	154	444	1.9	441	446	18.2	56.5
2025-07-29T10:06	10	153	0.4	152	154	442	0.7	441	443	17.9	56.9
2025-07-29T10:07	10	154	0.2	153	154	441	0.5	440	442	17.9	56.5
2025-07-29T10:08	10	154	0.3	153	154	442	1.2	440	444	17.8	56.1
2025-07-29T10:09	10	155	0.3	154	155	444	1.0	443	447	18.0	55.0
2025-07-29T10:10	10	155	0.1	155	155	447	1.0	445	449	18.3	54.9
2025-07-29T10:11	10	155	0.2	155	156	446	2.3	443	449	18.5	54.4
2025-07-29T10:12	10	155	0.1	155	156	443	0.7	442	445	18.2	55.5
2025-07-29T10:13	10	155	0.1	155	156	444	0.7	442	445	18.5	56.6
2025-07-29T10:14	10	156	0.1	156	156	445	0.3	445	446	18.7	56.6
2025-07-29T10:15	10	156	0.1	156	156	447	0.8	446	449	18.7	55.8
2025-07-29T10:16	10	156	0.4	155	157	448	0.8	447	449	18.4	54.8
2025-07-29T10:17	10	157	0.2	156	157	445	1.1	444	447	18.3	54.3
2025-07-29T10:18	10	157	0.1	157	157	445	0.5	444	446	18.1	53.9
2025-07-29T10:19	10	157	0.1	157	157	446	0.8	445	448	18.2	54.1
2025-07-29T10:20	10	157	0.2	157	157	445	0.9	444	447	18.3	54.2
2025-07-29T10:21	10	157	0.1	157	157	450	1.3	447	451	18.7	54.6
2025-07-29T10:22	10	156	0.3	156	157	445	1.9	443	450	18.5	52.4
2025-07-29T10:23	10	155	1.8	152	157	445	1.1	444	447	18.4	52.6
2025-07-29T10:24	10	148	3.7	141	154	445	1.1	443	446	18.6	53.0
2025-07-29T10:25	10	156	2.7	149	158	447	0.8	446	449	18.8	52.1
2025-07-29T10:26	10	158	0.1	158	158	450	0.8	449	452	19.1	53.3
2025-07-29T10:27	10	158	0.1	157	158	450	1.3	447	451	19.0	52.4
2025-07-29T10:28	10	158	0.3	157	158	447	0.6	447	449	18.4	51.9
2025-07-29T10:29	10	158	0.1	158	158	451	1.0	449	453	18.7	53.6
2025-07-29T10:30	10	158	0.2	158	158	452	0.5	451	453	18.9	53.8
2025-07-29T10:31	10	158	0.3	158	159	450	1.1	448	452	18.9	52.4
2025-07-29T10:32	10	159	0.1	158	159	450	0.9	448	451	18.5	51.7
2025-07-29T10:33	10	159	0.1	159	159	448	0.8	446	449	18.4	52.0
2025-07-29T10:34	10	159	0.1	158	159	451	0.9	449	452	18.8	54.2
2025-07-29T10:35	10	159	0.2	159	159	451	0.4	451	452	18.7	51.8
2025-07-29T10:36	10	159	0.1	159	160	451	1.6	448	454	18.7	52.5
2025-07-29T10:37	10	160	0.2	160	160	447	0.4	446	448	18.6	50.0
2025-07-29T10:38	10	160	0.2	160	161	450	1.1	448	453	18.6	50.5
2025-07-29T10:39	10	160	0.1	160	161	453	0.5	452	453	19.0	51.6
2025-07-29T10:40	10	160	0.1	160	161	452	0.4	452	453	19.1	51.2
2025-07-29T10:41	10	161	0.1	160	161	451	0.6	450	452	19.0	50.8
2025-07-29T10:42	10	161	0.2	160	161	451	0.8	449	452	19.0	49.8
2025-07-29T10:43	10	162	0.2	161	162	452	0.9	450	453	19.1	49.8
2025-07-29T10:44	10	162	0.1	162	162	453	0.8	452	455	19.1	50.3
2025-07-29T10:45	10	162	0.2	162	163	454	1.0	452	456	18.9	50.6
2025-07-29T10:46	10	162	0.1	162	163	454	0.8	452	455	19.1	51.8
2025-07-29T10:47	10	162	0.1	162	163	454	0.4	453	455	18.9	50.1
2025-07-29T10:48	10	162	0.1	162	163	455	0.8	454	457	19.0	50.2
2025-07-29T10:49	10	162	0.1	162	163	456	0.5	455	457	19.2	52.3
2025-07-29T10:50	10	163	0.1	162	163	456	0.3	455	457	19.3	52.3
2025-07-29T10:51	10	162	0.3	161	163	457	0.3	456	457	19.4	50.7
2025-07-29T10:52	10	162	0.3	161	162	455	1.4	453	457	19.6	50.5
2025-07-29T10:53	10	163	0.2	162	163	451	1.1	450	454	19.3	48.6
2025-07-29T10:54	10	164	0.3	163	164	454	0.9	452	455	19.1	49.9
2025-07-29T10:55	10	165	0.3	164	165	456	0.7	455	457	19.1	50.0
2025-07-29T10:56	10	164	1.2	161	165	455	1.0	454	457	19.3	51.5
2025-07-29T10:57	10	164	1.1	162	165	453	1.0	452	456	18.9	49.6
2025-07-29T10:58	10	164	0.3	163	164	455	0.6	454	456	18.8	49.3
2025-07-29T10:59	10	164	0.1	163	164	457	0.6	456	458	19.1	50.8
2025-07-29T11:00	10	163	0.1	163	164	458	0.6	457	459	19.3	51.0
2025-07-29T11:01	10	163	0.1	163	164	455	2.1	453	458	19.2	50.6
2025-07-29T11:02	10	163	0.3	162	163	456	0.7	454	457	19.1	50.2
2025-07-29T11:03	10	162	0.2	162	163	457	0.4	456	458	19.2	50.5
2025-07-29T11:04	10	161	0.5	160	162	458	0.6	456	458	19.3	51.1
2025-07-29T11:05	10	162	0.2	161	162	457	0.7	456	458	19.3	50.1
2025-07-29T11:06	10	162	0.3	162	163	455	0.7	453	457	19.2	49.9
2025-07-29T11:07	10	163	0.1	163	163	454	0.8	453	456	19.2	49.3
2025-07-29T11:08	10	163	0.4	163	164	455	0.5	455	456	19.2	49.0
2025-07-29T11:09	10	165	0.3	164	165	456	0.7	455	458	19.0	49.3
2025-07-29T11:10	10	166	0.4	165	167	459	1.0	457	461	19.1	49.4
2025-07-29T11:11	10	167	0.5	166	168	458	1.6	456	460	19.5	49.7
2025-07-29T11:12	10	169	0.4	168	169	456	0.6	455	457	19.5	49.6
2025-07-29T11:13	10	169	0.2	169	170	457	0.9	456	459	19.4	49.3
2025-07-29T11:14	10	170	0.2	169	170	459	0.8	457	460	19.6	49.6
2025-07-29T11:15	10	170	0.1	170	170	460	0.4	459	461	19.6	48.8
2025-07-29T11:16	10	170	0.1	170	170	461	0.5	460	463	19.6	48.7
2025-07-29T11:17	10	170	0.2	170	171	461	0.5	461	462	19.4	47.5
2025-07-29T11:18	10	171	0.1	170	171	463	0.6	462	465	19.5	50.3
2025-07-29T11:19	10	170	0.1	170	171	462	1.7	460	465	19.8	48.9
2025-07-29T11:20	10	170	0.2	170	171	461	0.6	460	463	19.7	49.0
2025-07-29T11:21	10	170	0.5	170	171	459	0.9	457	461	20.1	49.9
2025-07-29T11:22	10	172	0.4	172	173	455	0.7	454	457	19.4	49.7
2025-07-29T11:23	10	173	0.2	173	174	457	1.2	455	459	19.5	50.6
2025-07-29T11:24	10	174	0.3	174	175	458	1.0	456	460	19.6	50.3
2025-07-29T11:25	10	176	0.6	175	177	460	0.7	458	461	19.4	50.2
2025-07-29T11:26	10	177	0.4	177	178	460	0.8	459	462	19.6	50.1
2025-07-29T11:27	10	178	0.3	177	178	459	0.4	459	460	19.5	50.3
2025-07-29T11:28	10	178	0.5	176	179	460	1.1	458	463	19.1	49.8
2025-07-29T11:29	10	156	30.9	74	176	463	2.0	456	464	19.4	50.7
2025-07-29T11:30	10	45	6.8	41	72	446	6.3	437	459	19.7	51.6
2025-07-29T11:31	10	44	3.2	42	54	434	2.1	431	439	19.6	48.1
2025-07-29T11:32	10	131	49.7	55	182	440	8.2	430	454	19.5	48.1
2025-07-29T11:33	10	180	0.4	180	181	457	3.3	451	462	19.6	48.0
2025-07-29T11:34	10	179	0.3	179	180	463	1.4	460	465	19.8	49.5
2025-07-29T11:35	10	177	6.1	158	180	464	0.7	462	465	19.8	48.4
2025-07-29T11:36	10	145	4.7	137	157	457	3.2	452	463	19.6	46.2
2025-07-29T11:37	10	174	9.8	146	182	457	2.7	452	461	19.4	46.5
2025-07-29T11:38	10	182	0.2	181	182	463	1.4	460	466	19.7	47.4
2025-07-29T11:39	10	181	0.2	181	181	464	0.6	462	465	19.8	46.1
2025-07-29T11:40	10	181	0.2	181	181	464	0.8	463	466	19.6	45.5
2025-07-29T11:41	10	180	0.4	179	181	467	0.5	465	468	19.9	47.0
2025-07-29T11:42	10	180	0.2	179	180	464	0.8	462	466	19.9	46.3
2025-07-29T11:43	10	180	0.2	180	181	463	0.4	462	464	19.6	46.0
2025-07-29T11:44	10	181	0.3	181	182	465	1.1	464	468	19.5	46.5
2025-07-29T11:45	10	182	0.3	182	183	467	0.4	466	468	20.0	49.5
2025-07-29T11:46	10	184	0.7	183	185	466	1.4	463	468	20.2	49.5
2025-07-29T11:47	10	186	0.9	185	188	465	2.0	463	468	20.3	50.2
2025-07-29T11:48	10	190	1.1	188	191	470	0.4	468	470	20.3	50.0
2025-07-29T11:49	10	86	37.7	57	188	453	10.0	442	473	19.6	50.8
2025-07-29T11:50	10	59	8.6	52	79	440	3.2	435	446	19.4	50.9
2025-07-29T11:51	10	61	11.8	52	88	436	1.1	434	438	19.5	52.0
2025-07-29T11:52	10	49	1.3	47	52	433	0.8	432	435	19.6	50.9
2025-07-29T11:53	10	47	0.1	47	48	432	0.3	431	433	19.5	52.2
2025-07-29T11:54	10	48	0.1	47	48	431	0.6	430	432	19.6	51.3
2025-07-29T11:55	10	49	0.6	48	50	430	0.3	429	431	19.6	50.8
2025-07-29T11:56	10	78	39.2	50	173	431	4.0	428	443	19.8	50.8
2025-07-29T11:57	10	191	5.1	174	195	452	6.0	439	460	19.9	51.2
2025-07-29T11:58	10	193	0.4	193	194	460	2.2	456	464	20.3	50.5
2025-07-29T11:59	10	178	13.3	140	193	462	2.5	457	466	20.6	49.6
2025-07-29T12:00	10	64	22.6	49	137	443	8.0	432	460	20.0	48.9
2025-07-29T12:01	10	49	0.8	48	50	430	2.8	426	435	19.5	49.3
2025-07-29T12:02	10	49	0.6	48	50	427	0.5	426	428	19.4	49.9
2025-07-29T12:03	10	63	15.9	50	113	429	2.1	426	435	19.6	49.9
2025-07-29T12:04	10	184	21.0	117	197	447	8.2	431	458	19.6	49.5
2025-07-29T12:05	10	185	7.5	170	192	459	1.8	455	461	19.6	48.7
2025-07-29T12:06	10	188	1.1	184	189	462	1.4	459	464	19.6	48.3
2025-07-29T12:07	10	186	0.4	185	186	464	0.3	463	464	19.9	48.3
2025-07-29T12:08	10	186	0.2	186	187	465	0.6	464	466	20.0	50.0
2025-07-29T12:09	10	186	0.1	186	186	466	0.3	466	467	20.2	51.0
2025-07-29T12:10	10	187	0.7	186	188	467	0.5	466	468	20.4	52.1
2025-07-29T12:11	10	189	0.9	185	190	466	2.1	463	469	20.4	50.3
2025-07-29T12:12	10	166	16.3	142	189	461	2.3	458	466	19.8	50.4
2025-07-29T12:13	10	190	1.5	185	191	465	1.7	462	468	19.9	51.0
2025-07-29T12:14	10	192	1.1	189	193	469	1.1	467	471	20.3	51.2
2025-07-29T12:15	10	151	12.3	136	188	464	2.1	461	468	20.3	51.4
2025-07-29T12:16	10	170	23.1	123	191	462	1.8	458	464	20.8	51.6
2025-07-29T12:17	10	188	3.7	179	191	465	0.7	464	466	21.0	49.9
2025-07-29T12:18	10	193	1.2	191	195	465	0.5	464	466	20.5	47.6
2025-07-29T12:19	10	197	1.0	195	198	466	0.8	465	468	20.4	47.4
2025-07-29T12:20	10	199	0.3	198	199	469	0.7	467	470	20.6	47.8
2025-07-29T12:21	10	198	0.5	197	199	466	0.7	465	468	20.5	47.2
2025-07-29T12:22	10	197	0.6	197	199	468	0.9	467	470	20.2	45.9
2025-07-29T12:23	10	200	0.6	198	201	468	0.9	467	470	20.2	47.8
2025-07-29T12:24	10	197	1.3	195	199	469	0.5	468	470	20.4	47.9
2025-07-29T12:25	10	193	0.8	192	195	468	2.2	464	470	20.4	47.5
2025-07-29T12:26	10	193	0.5	192	194	466	0.9	464	467	20.5	46.8
2025-07-29T12:27	10	195	0.4	194	195	466	0.9	465	468	20.2	46.4
2025-07-29T12:28	10	196	0.5	195	197	466	2.6	462	470	20.4	46.3
2025-07-29T12:29	10	197	0.2	197	198	464	1.0	463	467	20.1	46.6
2025-07-29T12:30	10	198	0.5	197	199	466	1.2	464	468	20.2	46.3
2025-07-29T12:31	10	199	0.7	198	200	461	1.3	459	464	20.0	46.5
2025-07-29T12:32	10	200	0.4	200	201	463	0.9	461	464	20.1	46.7
2025-07-29T12:33	10	202	0.6	201	203	465	2.1	462	469	19.8	47.5
2025-07-29T12:34	10	205	1.1	203	206	470	1.8	468	474	20.0	47.3
2025-07-29T12:35	10	152	30.4	106	205	467	6.6	456	475	20.2	47.0
2025-07-29T12:36	10	187	36.5	99	209	462	5.8	453	470	19.8	46.8
2025-07-29T12:37	10	204	0.6	203	205	470	0.4	468	470	20.1	46.9
2025-07-29T12:38	10	203	0.3	202	203	471	1.5	468	473	20.8	47.3
2025-07-29T12:39	10	203	0.3	202	203	465	2.8	462	471	20.5	47.8
2025-07-29T12:40	10	201	0.7	200	203	465	2.0	462	469	20.4	48.5
2025-07-29T12:41	10	200	0.2	200	201	467	1.0	465	469	20.4	48.4
2025-07-29T12:42	10	203	1.8	201	207	469	2.0	467	473	20.3	48.7
2025-07-29T12:43	10	186	17.5	159	207	472	1.6	469	475	20.8	48.8
2025-07-29T12:44	10	188	17.1	160	208	466	1.2	465	469	20.7	47.7
2025-07-29T12:45	10	200	6.4	186	206	469	2.0	467	474	20.0	47.9
2025-07-29T12:46	10	205	0.5	204	205	475	0.9	473	476	20.4	48.6
2025-07-29T12:47	10	203	0.2	203	204	475	1.3	472	477	20.5	47.4
2025-07-29T12:48	10	203	0.4	203	204	471	0.6	469	472	20.7	47.8
2025-07-29T12:49	10	205	0.6	204	206	471	0.5	470	472	20.9	47.0
2025-07-29T12:50	10	207	0.9	206	209	470	1.4	467	472	20.7	48.4
2025-07-29T12:51	10	198	13.5	175	211	470	2.3	466	473	20.7	49.1
2025-07-29T12:52	10	170	5.6	161	185	467	0.5	466	468	20.1	50.0
2025-07-29T12:53	10	212	9.0	186	222	472	3.3	467	477	20.5	50.1
2025-07-29T12:54	10	200	9.8	184	216	474	1.0	472	476	21.1	50.5
2025-07-29T12:55	10	137	22.0	119	204	465	6.3	457	477	21.0	49.4
2025-07-29T12:56	10	124	2.9	120	132	456	2.3	453	460	20.6	50.6
2025-07-29T12:57	10	131	5.5	121	139	455	0.4	454	455	20.7	51.2
2025-07-29T12:58	10	139	5.8	133	154	454	0.7	453	456	20.6	49.8
2025-07-29T12:59	10	129	40.9	88	202	455	3.6	449	461	20.5	50.0
2025-07-29T13:00	10	91	4.5	85	101	447	0.9	446	450	20.6	48.8
2025-07-29T13:01	10	90	6.3	85	109	444	1.3	442	447	20.7	49.8
2025-07-29T13:02	10	170	32.8	110	206	450	6.4	442	461	20.1	49.3
2025-07-29T13:03	10	208	5.0	199	215	464	4.1	458	471	20.3	49.7
2025-07-29T13:04	10	206	6.0	194	215	468	0.9	466	470	20.5	48.9
2025-07-29T13:05	10	151	15.1	130	191	460	3.2	455	467	20.5	49.1
2025-07-29T13:06	10	103	18.3	78	130	450	4.2	443	457	20.3	48.2
2025-07-29T13:07	10	74	2.9	69	79	443	1.8	439	446	20.4	49.8
2025-07-29T13:08	10	65	2.2	62	69	435	2.4	432	440	20.3	47.8
2025-07-29T13:09	10	61	0.3	60	62	432	0.7	431	433	20.0	48.0
2025-07-29T13:10	10	63	1.6	61	68	431	0.3	430	431	20.0	48.5
2025-07-29T13:11	10	165	48.5	68	200	443	10.5	429	459	20.3	49.4
2025-07-29T13:12	10	197	0.6	195	197	459	2.2	454	462	20.3	47.9
2025-07-29T13:13	10	198	0.8	197	199	463	1.7	459	466	20.5	49.0
2025-07-29T13:14	10	197	1.0	195	198	466	1.0	464	467	20.5	47.5
2025-07-29T13:15	10	195	0.5	194	196	467	0.5	466	469	20.7	47.6
2025-07-29T13:16	10	198	2.1	190	200	470	0.8	468	471	21.0	47.6
2025-07-29T13:17	10	183	6.8	176	200	468	1.2	466	470	21.0	46.3
2025-07-29T13:18	10	168	13.1	144	200	465	2.9	462	470	20.9	45.6
2025-07-29T13:19	10	153	13.8	131	172	461	2.2	457	464	20.9	45.0
2025-07-29T13:20	10	151	42.6	84	193	459	4.7	448	464	20.6	44.1
2025-07-29T13:21	10	74	5.6	68	87	446	3.1	441	452	20.7	45.3
2025-07-29T13:22	10	62	3.6	59	72	438	2.5	434	443	20.6	46.2
2025-07-29T13:23	10	91	24.1	60	144	437	3.2	433	444	20.1	44.9
2025-07-29T13:24	10					449	2.8	442	454	20.1	44.5
2025-07-29T13:25	10	195	0.8	193	196	457	2.6	451	461	20.3	43.0
2025-07-29T13:26	10	192	0.8	191	194	461	1.1	459	463	20.4	42.6
2025-07-29T13:27	10	190	0.5	189	191	464	1.7	460	467	21.0	43.4
2025-07-29T13:28	10	189	0.2	189	189	464	1.2	462	466	20.8	42.3
2025-07-29T13:29	10	188	0.6	187	189	465	0.5	464	466	20.7	41.2
2025-07-29T13:30	10	186	0.5	185	187	466	0.8	465	468	20.5	40.6
2025-07-29T13:31	10	185	0.2	184	185	466	1.5	464	469	20.7	41.3
2025-07-29T13:32	10	183	0.4	183	184	467	0.9	465	469	20.9	42.4
2025-07-29T13:33	10	182	0.2	182	183	470	0.4	469	471	21.4	42.8
2025-07-29T13:34	10	182	0.1	182	182	470	0.6	469	471	21.0	43.6
2025-07-29T13:35	10	182	0.1	182	183	468	0.8	467	470	21.0	43.0
2025-07-29T13:36	10	182	0.1	182	183	468	0.6	467	469	20.7	42.8
2025-07-29T13:37	10	180	1.8	177	182	466	0.7	465	468	20.6	42.1
2025-07-29T13:38	10	180	0.3	179	180	464	0.5	463	466	20.6	42.9
2025-07-29T13:39	10	180	0.2	180	181	466	1.0	465	468	20.7	42.8
2025-07-29T13:40	10	179	0.5	178	180	468	0.8	466	470	20.8	42.9
2025-07-29T13:41	10	178	0.5	177	178	468	0.5	466	468	20.8	43.9
2025-07-29T13:42	10	176	0.3	176	177	466	1.3	464	469	20.9	44.6
2025-07-29T13:43	10	176	0.3	176	177	465	0.8	463	467	20.7	43.9
2025-07-29T13:44	10	177	0.3	176	177	469	1.3	466	471	21.0	45.7
2025-07-29T13:45	10	178	0.4	177	178	470	0.3	469	471	21.3	45.2
2025-07-29T13:46	10	179	0.7	178	180	469	0.4	468	470	21.1	43.7
2025-07-29T13:47	10	171	9.1	140	180	470	1.0	468	471	21.4	43.4
2025-07-29T13:48	10	166	21.0	119	180	466	1.1	463	468	21.3	42.4
2025-07-29T13:49	10	130	24.0	93	171	461	4.1	455	467	20.9	42.5
2025-07-29T13:50	10	160	16.1	135	176	463	2.0	458	465	21.0	44.3
2025-07-29T13:51	10	146	5.0	137	155	463	0.8	461	464	21.1	42.9
2025-07-29T13:52	10	169	7.8	146	174	463	1.2	461	465	21.1	42.3
2025-07-29T13:53	10	169	1.5	165	171	462	0.6	461	463	20.7	42.3
2025-07-29T13:54	10	168	0.6	167	170	461	0.5	460	463	20.9	41.5
2025-07-29T13:55	10	168	0.3	167	168	460	0.5	459	461	20.7	41.3
2025-07-29T13:56	10	169	0.6	168	170	462	1.7	459	465	20.7	41.5
2025-07-29T13:57	10	171	0.8	170	172	461	0.9	459	463	21.4	42.7
2025-07-29T13:58	10	173	0.2	172	173	460	1.0	459	462	21.3	43.4
2025-07-29T13:59	10	172	0.3	172	173	460	1.3	459	463	21.0	43.8
2025-07-29T14:00	10	171	0.3	171	172	461	0.4	460	462	21.0	44.5
2025-07-29T14:01	10	171	0.1	171	171	463	0.9	461	465	20.5	45.5
2025-07-29T14:02	10	170	0.6	168	171	466	1.1	464	468	20.9	45.1
2025-07-29T14:03	10	168	0.5	167	168	468	1.2	465	469	21.4	44.6
2025-07-29T14:04	10	167	0.2	166	167	462	2.4	458	465	21.3	44.3
2025-07-29T14:05	10	166	0.2	166	166	460	1.7	456	463	20.6	45.2
2025-07-29T14:06	10	167	0.3	166	167	459	1.1	457	461	20.5	45.5
2025-07-29T14:07	10	168	0.4	167	169	460	2.7	457	465	20.7	45.2
2025-07-29T14:08	10	169	0.4	168	170	464	0.6	463	466	21.3	44.2
2025-07-29T14:09	10	169	0.4	168	170	467	0.9	465	468	21.2	44.8
2025-07-29T14:10	10	168	0.3	167	168	467	0.4	466	468	21.6	46.4
2025-07-29T14:11	10	167	0.5	166	167	463	2.7	459	467	21.5	43.5
2025-07-29T14:12	10	165	0.2	165	166	460	0.6	459	461	20.9	43.1
2025-07-29T14:13	10	165	0.4	165	166	461	0.6	460	462	21.1	43.6
2025-07-29T14:14	10	168	0.9	166	169	462	0.9	461	464	21.2	43.7
2025-07-29T14:15	10	171	1.0	169	173	460	0.4	460	461	21.1	42.8
2025-07-29T14:16	10	174	0.6	173	175	461	0.5	460	462	21.3	42.9
2025-07-29T14:17	10	174	2.5	166	176	461	0.6	460	462	21.1	42.3
2025-07-29T14:18	10	175	3.3	166	178	460	0.5	459	461	21.2	43.3
2025-07-29T14:19	10	178	0.3	178	179	461	0.4	460	462	20.9	42.2
2025-07-29T14:20	10	174	4.7	160	178	461	1.0	459	463	20.9	42.1
2025-07-29T14:21	10	173	4.3	159	176	459	0.8	457	461	20.8	42.2
2025-07-29T14:22	10	175	1.1	171	176	461	2.5	457	465	20.9	43.0
2025-07-29T14:23	10	174	2.5	170	177	463	0.4	462	464	21.2	43.3
2025-07-29T14:24	10	177	1.0	173	178	465	1.1	462	466	21.0	42.3
2025-07-29T14:25	10	150	21.9	112	172	462	2.5	457	466	20.8	41.9
2025-07-29T14:26	10	106	3.9	100	112	453	3.4	449	459	21.0	43.4
2025-07-29T14:27	10	86	9.5	73	100	447	2.5	443	451	20.8	42.6
2025-07-29T14:28	10	94	22.0	76	134	443	1.6	440	446	20.8	43.1
2025-07-29T14:29	10	102	13.1	90	127	443	1.5	442	446	20.6	42.6
2025-07-29T14:30	10	128	21.4	96	157	449	3.5	445	455	21.1	45.1
2025-07-29T14:31	10	133	21.1	105	177	449	1.5	447	453	20.8	43.1
2025-07-29T14:32	10	174	5.3	157	179	456	2.0	451	459	20.7	43.1
2025-07-29T14:33	10	168	10.5	149	177	460	2.1	457	463	20.9	44.0
2025-07-29T14:34	10	172	2.0	166	174	462	0.5	461	464	21.2	42.1
2025-07-29T14:35	10	166	1.1	164	168	458	2.5	452	462	21.2	41.5
2025-07-29T14:36	10	164	1.0	163	166	452	0.5	451	454	20.3	42.2
2025-07-29T14:37	10	163	0.1	162	163	453	1.0	451	455	20.7	42.3
2025-07-29T14:38	10	163	0.6	163	165	454	0.7	453	455	20.8	42.0
2025-07-29T14:39	10	166	0.5	165	167	453	0.7	452	455	20.8	42.3
2025-07-29T14:40	10	166	1.5	162	167	454	0.6	453	455	20.7	42.1
2025-07-29T14:41	10	157	8.5	134	166	454	0.7	452	455	20.6	42.5
2025-07-29T14:42	10	139	14.7	117	165	453	1.1	451	455	20.9	42.3
2025-07-29T14:43	10	162	3.7	154	167	455	0.9	453	457	20.7	42.3
2025-07-29T14:44	10	162	3.3	156	166	454	1.1	452	457	20.7	42.5
2025-07-29T14:45	10	161	2.3	157	164	454	0.6	453	456	20.6	43.0
2025-07-29T14:46	10	156	4.0	149	162	455	0.7	454	456	20.8	42.5
2025-07-29T14:47	10	152	5.7	144	163	455	1.1	453	457	20.9	42.6
2025-07-29T14:48	10	152	16.9	120	173	455	1.7	449	457	20.9	42.1
2025-07-29T14:49	10	103	8.2	91	119	445	2.4	442	451	20.6	42.2
2025-07-29T14:50	10	75	5.8	68	93	439	1.9	437	443	20.8	42.9
2025-07-29T14:51	10	70	1.9	67	73	435	1.5	433	438	20.6	42.4
2025-07-29T14:52	10	125	37.9	73	175	438	5.2	433	449	20.5	42.8
2025-07-29T14:53	10	123	13.0	97	154	444	1.2	443	447	20.6	42.9
2025-07-29T14:54	10	90	17.1	70	130	441	1.5	438	444	20.7	43.4
2025-07-29T14:55	10	93	25.2	63	136	442	1.7	439	445	20.7	43.4
2025-07-29T14:56	10	59	3.3	54	64	437	1.9	434	440	20.8	43.8
2025-07-29T14:57	10	54	0.3	53	54	433	0.9	431	434	20.5	43.5
2025-07-29T14:58	10	56	1.8	54	59	432	0.7	431	433	20.5	44.0
2025-07-29T14:59	10	72	12.1	58	94	435	2.1	432	438	20.8	44.5
2025-07-29T15:00	10	67	2.5	64	70	436	0.3	435	437	20.8	44.2
2025-07-29T15:01	10	73	3.0	69	78	437	0.4	436	438	21.0	44.1
2025-07-29T15:02	10	95	19.0	71	130	439	1.9	436	443	20.8	43.9
2025-07-29T15:03	10	64	2.6	61	70	435	1.9	432	439	20.7	43.5
2025-07-29T15:04	10	77	14.4	62	104	434	1.2	432	436	20.6	43.4
2025-07-29T15:05	10	64	1.3	62	66	431	0.9	430	433	20.4	43.0
2025-07-29T15:06	10	61	0.4	60	62	430	0.4	429	431	20.5	43.7
2025-07-29T15:07	10	62	2.7	60	69	430	0.5	429	431	20.5	43.9
2025-07-29T15:08	10	58	3.5	55	68	429	0.4	429	430	20.5	43.3
2025-07-29T15:09	10	54	0.5	53	55	429	0.4	428	430	20.6	43.1
2025-07-29T15:10	10	54	0.4	53	54	429	0.5	428	430	20.5	43.3
2025-07-29T15:11	10	54	0.2	54	54	429	0.2	429	430	20.6	44.1
2025-07-29T15:12	10	54	0.1	54	54	430	0.5	429	431	20.6	43.8
2025-07-29T15:13	10	54	0.3	53	55	431	0.3	430	431	20.7	43.4
2025-07-29T15:14	10	54	0.3	54	55	430	0.3	430	431	20.7	42.4
2025-07-29T15:15	10	54	0.1	54	54	431	0.3	430	432	20.8	41.7
2025-07-29T15:16	10	54	0.1	54	54	431	0.3	430	432	20.7	41.8
2025-07-29T15:17	10	53	0.4	53	54	429	0.8	428	431	20.7	41.1
2025-07-29T15:18	10	52	0.5	51	53	427	0.9	425	428	20.6	40.4
2025-07-29T15:19	10	50	0.5	50	51	425	0.3	425	426	20.5	39.7
2025-07-29T15:20	10	49	0.2	49	50	426	0.4	425	427	20.6	39.7
2025-07-29T15:21	10	48	0.5	48	49	425	0.3	424	426	20.6	39.2
2025-07-29T15:22	10	48	0.1	47	48	425	0.2	425	426	20.6	39.4
2025-07-29T15:23	10	48	0.4	48	49	424	0.6	423	425	20.6	38.6
2025-07-29T15:24	10	50	1.1	49	53	423	0.3	422	423	20.4	37.6
2025-07-29T15:25	10	55	1.2	53	58	425	1.0	423	426	20.4	38.2
2025-07-29T15:26	10	66	6.5	58	78	428	1.2	426	430	20.4	38.7
2025-07-29T15:27	10	76	8.4	67	93	429	0.5	428	430	20.4	39.3
2025-07-29T15:28	10	93	13.9	69	109	431	2.6	427	435	20.4	39.5
2025-07-29T15:29	10	106	9.4	87	120	437	1.5	434	439	20.6	40.3
2025-07-29T15:30	10	67	6.8	59	85	434	2.1	431	438	20.6	39.7
2025-07-29T15:31	10	57	1.1	55	59	431	0.5	430	432	20.6	40.0
2025-07-29T15:32	10	60	3.1	55	64	431	0.2	430	431	20.6	39.5
2025-07-29T15:33	10	52	3.3	49	60	430	0.8	429	431	20.7	40.6
2025-07-29T15:34	10	49	0.1	49	49	429	0.3	428	429	20.7	41.0
2025-07-29T15:35	10	49	0.2	49	49	428	0.2	428	429	20.7	40.5
2025-07-29T15:36	10	50	0.2	49	50	428	0.3	428	429	20.8	41.2
2025-07-29T15:37	10	51	0.6	50	52	427	0.5	426	428	20.9	41.8
2025-07-29T15:38	10	58	6.4	52	75	427	0.6	426	429	20.8	40.4
2025-07-29T15:39	10	102	15.4	76	124	433	3.7	428	439	20.8	40.9
2025-07-29T15:40	10	112	16.8	74	126	440	1.3	437	442	20.9	41.8
2025-07-29T15:41	10	55	6.6	47	72	436	2.3	432	440	21.2	42.4
2025-07-29T15:42	10	44	1.7	41	47	429	2.6	425	434	20.8	41.8
2025-07-29T15:43	10	40	0.6	40	42	425	0.8	423	426	20.8	42.4
2025-07-29T15:44	10	40	0.2	40	41	424	0.2	424	425	20.8	42.5
2025-07-29T15:45	10	41	0.7	40	43	422	1.0	421	425	20.7	41.4
2025-07-29T15:46	10	44	1.2	43	47	421	0.3	421	422	20.6	41.2
2025-07-29T15:47	10	47	0.8	46	49	422	0.4	422	423	20.5	41.1
2025-07-29T15:48	10	55	3.6	49	61	424	0.9	422	425	20.5	41.3
2025-07-29T15:49	10	62	8.5	51	75	425	1.3	423	427	20.6	41.4
2025-07-29T15:50	10	54	2.1	51	60	426	0.3	426	427	20.6	41.9
2025-07-29T15:51	10	65	4.3	55	71	427	1.2	426	429	20.5	43.0
2025-07-29T15:52	10	62	1.6	60	66	428	0.5	427	429	20.7	44.3
2025-07-29T15:53	10	80	15.0	60	112	428	1.7	426	432	20.8	44.7
2025-07-29T15:54	10	128	4.2	114	131	436	3.0	430	441	20.9	43.5
2025-07-29T15:55	10	130	0.4	129	131	441	0.6	440	442	21.0	43.4
2025-07-29T15:56	10	128	0.4	127	129	442	0.5	441	443	21.2	42.3
2025-07-29T15:57	10	127	0.4	126	128	442	0.4	442	443	21.1	42.2
2025-07-29T15:58	10	126	0.3	125	126	443	0.3	442	443	21.1	42.9
2025-07-29T15:59	10	125	0.2	124	125	444	0.6	442	445	21.4	42.6
2025-07-29T16:00	10	124	0.3	123	125	446	0.4	445	446	21.5	41.7
2025-07-29T16:01	10	123	0.1	123	123	446	0.7	444	447	21.5	42.6
2025-07-29T16:02	10	124	0.5	123	126	445	0.4	444	446	21.3	42.2
2025-07-29T16:03	10	117	15.4	72	127	446	0.8	443	447	21.4	42.5
2025-07-29T16:04	10	48	6.1	44	70	437	3.8	432	445	21.5	43.1
2025-07-29T16:05	10	43	1.6	41	45	431	1.9	428	434	21.3	43.7
2025-07-29T16:06	10	42	1.2	41	46	428	0.4	427	429	21.2	43.6
2025-07-29T16:07	10	53	5.6	46	69	429	0.5	428	430	21.1	43.1
2025-07-29T16:08	10	66	6.9	58	78	430	1.0	428	432	21.1	43.2
2025-07-29T16:09	10	64	3.1	59	69	428	0.5	428	429	20.8	43.1
2025-07-29T16:10	10	54	2.6	51	59	429	0.5	428	430	20.8	43.4
2025-07-29T16:11	10	57	7.8	42	67	429	0.7	428	431	21.0	43.8
2025-07-29T16:12	10	40	0.6	40	42	426	1.5	424	429	21.1	42.6
2025-07-29T16:13	10	40	0.1	40	40	423	0.8	422	425	20.9	42.5
2025-07-29T16:14	10	41	0.4	40	41	421	0.3	420	422	20.7	43.2
2025-07-29T16:15	10	43	1.2	42	46	421	0.5	420	422	20.6	43.6
2025-07-29T16:16	10	47	0.5	46	48	423	0.6	422	424	20.7	43.7
2025-07-29T16:17	10	47	0.5	46	48	423	0.2	423	424	20.9	44.2
2025-07-29T16:18	10	45	1.1	43	46	423	0.6	422	424	20.8	44.0
2025-07-29T16:19	10	41	1.0	39	43	421	0.3	421	422	20.8	44.1
2025-07-29T16:20	10	39	0.2	39	40	421	0.5	420	422	20.8	43.8
2025-07-29T16:21	10	40	0.4	39	41	420	0.5	420	421	20.6	44.0
2025-07-29T16:22	10	40	0.1	40	40	421	0.4	420	422	20.7	44.0
2025-07-29T16:23	10	40	0.2	39	40	422	0.4	421	423	20.9	44.2
2025-07-29T16:24	10	39	0.1	39	39	421	0.8	419	422	20.9	43.5
2025-07-29T16:25	10	39	0.1	39	39	420	0.3	419	420	20.7	43.3
2025-07-29T16:26	10	40	0.4	39	40	419	0.6	418	421	20.8	43.8
2025-07-29T16:27	10	40	0.2	40	41	419	0.3	418	419	20.8	43.9
2025-07-29T16:28	10	41	0.2	41	41	419	0.4	418	420	20.8	44.1
2025-07-29T16:29	10	42	0.4	41	42	419	0.3	419	420	20.9	43.9
2025-07-29T16:30	10	47	5.6	42	58	419	0.5	418	421	20.8	43.8
2025-07-29T16:31	10	46	6.1	41	58	421	0.4	420	421	20.8	44.0
2025-07-29T16:32	10	42	0.1	41	42	420	0.3	419	420	20.7	44.4
2025-07-29T16:33	10	43	0.7	42	44	420	0.4	419	421	20.7	44.9
2025-07-29T16:34	10	42	0.6	40	42	421	0.5	419	422	20.8	45.3
2025-07-29T16:35	10	40	0.4	39	41	422	0.4	421	423	20.8	45.0
2025-07-29T16:36	10	39	0.2	38	39	422	0.2	422	423	20.9	45.0
2025-07-29T16:37	10	42	1.8	39	48	422	0.4	421	423	21.0	44.7
2025-07-29T16:38	10	57	7.1	49	74	422	0.8	421	424	20.8	43.9
2025-07-29T16:39	10	68	9.5	56	91	425	0.6	423	426	21.0	44.7
2025-07-29T16:40	10	67	17.8	48	95	427	1.1	425	428	21.1	43.8
2025-07-29T16:41	10	78	17.2	57	102	427	2.3	425	432	20.9	43.8
2025-07-29T16:42	10	90	3.8	86	100	433	0.6	431	434	21.1	44.4
2025-07-29T16:43	10	100	7.8	87	108	434	0.5	433	435	21.4	43.6
2025-07-29T16:44	10	107	0.4	106	108	436	0.7	434	437	21.6	44.0
2025-07-29T16:45	10	106	0.3	105	106	434	0.5	433	435	21.0	43.4
2025-07-29T16:46	10	106	0.2	105	106	433	0.3	433	434	20.9	43.5
2025-07-29T16:47	10	106	0.2	106	106	436	1.0	434	438	21.0	44.0
2025-07-29T16:48	10	106	0.2	105	106	438	0.3	438	439	21.4	44.9
2025-07-29T16:49	10	105	0.2	105	106	438	0.2	438	438	21.7	43.7
2025-07-29T16:50	10	104	0.4	103	105	438	0.7	437	440	21.5	44.2
2025-07-29T16:51	10	103	0.5	102	104	437	0.8	435	439	21.5	45.8
2025-07-29T16:52	10	101	0.5	100	102	437	0.6	436	438	21.3	45.0
2025-07-29T16:53	10	99	0.4	99	100	437	0.9	436	438	21.4	46.8
2025-07-29T16:54	10	98	0.4	97	99	436	0.5	435	437	21.6	45.0
2025-07-29T16:55	10	97	0.3	97	98	435	0.3	434	436	21.5	44.9
2025-07-29T16:56	10	96	0.5	96	97	436	0.4	435	437	21.4	45.2
2025-07-29T16:57	10	95	0.6	94	96	436	0.5	435	437	21.5	45.9
2025-07-29T16:58	10	92	0.9	91	94	433	1.1	432	435	21.2	45.7
2025-07-29T16:59	10	90	0.7	88	91	432	0.6	431	433	21.2	46.4
2025-07-29T17:00	10	87	0.7	86	89	430	0.9	429	431	21.1	46.2
2025-07-29T17:01	10	85	0.6	84	86	430	0.3	429	431	21.0	46.8
2025-07-29T17:02	10	83	0.4	83	84	430	0.6	428	431	21.1	47.9
2025-07-29T17:03	10	82	0.4	82	83	428	0.5	427	429	21.0	47.8
2025-07-29T17:04	10	81	0.2	81	82	428	0.3	427	429	20.9	47.5
2025-07-29T17:05	10	80	0.3	80	81	425	0.5	425	427	20.8	46.6
2025-07-29T17:06	10	79	0.6	78	80	425	0.3	425	426	20.8	46.6
2025-07-29T17:07	10	77	0.6	76	78	426	0.3	425	426	20.9	46.7
2025-07-29T17:08	10	75	0.4	74	76	426	0.4	425	427	21.0	47.2
2025-07-29T17:09	10	74	0.3	73	74	426	0.3	425	427	21.1	48.0
2025-07-29T17:10	10	73	0.3	72	74	425	0.8	423	426	20.9	47.8
2025-07-29T17:11	10	72	0.4	71	72	423	0.7	421	424	20.7	47.6
2025-07-29T17:12	10	70	0.4	70	71	421	0.3	420	421	20.6	47.5
2025-07-29T17:13	10	69	0.3	69	70	421	0.2	421	422	20.6	48.0
2025-07-29T17:14	10	68	0.3	68	69	421	0.4	420	422	20.7	48.3
2025-07-29T17:15	10	67	0.2	67	68	420	0.3	420	421	20.6	48.0
2025-07-29T17:16	10	67	0.2	66	67	420	0.2	420	421	20.5	47.9
2025-07-29T17:17	10	66	0.2	65	66	420	0.3	419	420	20.5	47.8
2025-07-29T17:18	10	65	0.1	65	65	420	0.3	420	421	20.5	48.7
2025-07-29T17:19	10	64	0.5	63	65	420	0.2	420	421	20.5	47.8
2025-07-29T17:20	10	63	0.1	63	64	420	0.2	420	421	20.5	48.0
2025-07-29T17:21	10	63	0.2	63	63	420	0.3	419	420	20.5	47.8
2025-07-29T17:22	10	62	0.5	62	63	419	0.3	419	420	20.5	47.7
2025-07-29T17:23	10	62	0.3	61	63	419	0.3	419	420	20.5	47.3
2025-07-29T17:24	10	62	0.3	61	62	418	0.2	418	419	20.5	46.9
2025-07-29T17:25	10	61	0.4	60	61	417	0.2	417	418	20.5	47.3
2025-07-29T17:26	10	60	0.1	59	60	418	0.4	417	419	20.6	48.2
2025-07-29T17:27	10	59	0.2	59	60	419	0.3	418	419	20.6	47.9
2025-07-29T17:28	10	59	0.1	58	59	418	0.4	417	419	20.6	47.4
2025-07-29T17:29	10	58	0.2	58	59	418	0.2	417	418	20.6	47.5
2025-07-29T17:30	10	58	0.2	57	58	418	0.2	417	418	20.6	48.1
2025-07-29T17:31	10	57	0.1	57	57	417	0.4	416	418	20.5	48.2
2025-07-29T17:32	10	56	0.2	56	57	416	0.2	415	417	20.5	47.2
2025-07-29T17:33	10	56	0.2	55	56	415	0.3	415	416	20.5	46.8
2025-07-29T17:34	10	55	0.2	55	55	416	0.3	415	416	20.6	47.1
2025-07-29T17:35	10	54	0.3	54	55	416	0.3	415	416	20.6	48.5
2025-07-29T17:36	10	53	0.3	53	54	415	0.4	414	416	20.5	47.3
2025-07-29T17:37	10	52	0.4	51	53	414	0.2	414	415	20.4	47.3
2025-07-29T17:38	10	40	8.2	25	51	413	0.8	412	414	20.4	47.7
2025-07-29T17:39	10	22	1.6	18	25	411	0.6	410	412	20.3	48.2
2025-07-29T17:40	10	15	2.0	12	18	409	0.7	407	410	20.3	48.0
2025-07-29T17:41	10	22	4.2	14	27	408	0.5	407	409	20.2	47.8
2025-07-29T17:42	10	22	0.8	21	23	408	0.3	407	408	20.2	47.4
2025-07-29T17:43	10	19	2.4	17	27	408	0.3	407	408	20.2	48.0
2025-07-29T17:44	10	33	2.1	27	36	408	0.6	407	409	20.1	48.2
2025-07-29T17:45	10	33	2.5	27	35	409	0.2	408	409	20.1	47.9
2025-07-29T17:46	10	17	4.5	13	26	408	0.7	406	409	20.1	47.4
2025-07-29T17:47	10	12	1.8	9	14	406	0.5	405	407	20.1	47.6
2025-07-29T17:48	10	9	0.2	9	9	405	0.3	404	405	20.0	48.0
2025-07-29T17:49	10	8	0.1	8	9	404	0.2	403	404	20.0	48.1
2025-07-29T17:50	10	8	0.1	8	9	403	0.3	403	404	20.0	48.0
2025-07-29T17:51	10	8	0.1	8	8	403	0.2	403	404	20.0	48.0
2025-07-29T17:52	10	8	0.1	7	8	403	0.3	402	403	20.0	48.3
2025-07-29T17:53	10	7	0.1	7	8	402	0.2	402	403	19.9	48.3
2025-07-29T17:54	10	7	0.1	7	8	402	0.2	401	402	19.9	48.3
2025-07-29T17:55	10	8	0.1	7	8	401	0.2	401	402	19.9	48.7
2025-07-29T17:56	10	8	0.1	7	8	401	0.2	400	401	19.8	49.7
2025-07-29T17:57	10	7	0.1	7	8	401	0.2	400	401	19.7	50.2
2025-07-29T17:58	10	7	0.1	7	7	400	0.2	400	401	19.7	49.7
2025-07-29T17:59	10	7	0.1	7	7	400	0.2	400	401	19.7	49.8
2025-07-29T18:00	10	7	0.1	7	7	400	0.3	399	401	19.6	50.0
2025-07-29T18:01	10	7	0.1	6	7	400	0.2	399	400	19.7	49.8
2025-07-29T18:02	10	7	0.1	6	7	400	0.3	399	400	19.6	49.9
2025-07-29T18:03	10	6	0.1	6	7	399	0.3	398	400	19.6	50.1
2025-07-29T18:04	10	6	0.1	6	6	399	0.2	399	400	19.6	50.0
2025-07-29T18:05	10	6	0.1	6	7	399	0.2	399	399	19.6	50.4
2025-07-29T18:06	10	6	0.1	6	7	399	0.2	398	399	19.6	50.3
2025-07-29T18:07	10	6	0.2	6	6	399	0.3	398	400	19.5	51.2
2025-07-29T18:08	10	6	0.2	5	6	399	0.3	398	399	19.5	51.1
2025-07-29T18:09	10	6	0.2	5	6	398	0.3	397	399	19.5	50.7
2025-07-29T18:10	10	6	0.3	5	7	398	0.3	397	399	19.5	50.7
2025-07-29T18:11	10	6	0.3	6	7	397	0.3	397	398	19.5	51.2
2025-07-29T18:12	10	8	1.3	6	11	397	0.3	397	398	19.4	51.2
2025-07-29T18:13	10	16	3.2	11	21	398	0.6	397	399	19.4	51.4
2025-07-29T18:14	10	23	0.7	21	24	399	0.5	398	400	19.4	51.5
2025-07-29T18:15	10	24	0.2	24	24	399	0.4	398	400	19.5	51.4
2025-07-29T18:16	10	24	0.2	23	24	400	0.2	399	400	19.5	51.6
2025-07-29T18:17	10	23	0.2	23	24	400	0.2	399	400	19.4	51.9
2025-07-29T18:18	10	23	0.1	23	23	400	0.2	399	400	19.4	52.0
2025-07-29T18:19	10	23	0.1	22	23	400	0.2	399	400	19.4	52.0
2025-07-29T18:20	10	22	0.1	22	22	399	0.2	399	400	19.4	52.0
2025-07-29T18:21	10	22	0.2	21	22	399	0.3	399	400	19.4	52.4
2025-07-29T18:22	10	21	0.2	21	21	399	0.2	399	400	19.4	52.3
2025-07-29T18:23	10	20	0.2	20	21	399	0.3	398	399	19.4	52.4
2025-07-29T18:24	10	20	0.2	19	20	399	0.3	398	399	19.4	53.5
2025-07-29T18:25	10	19	0.2	18	19	398	0.2	398	399	19.3	53.2
2025-07-29T18:26	10	16	2.2	11	19	398	0.3	397	398	19.3	53.4
2025-07-29T18:27	10	7	1.4	5	11	397	0.6	396	398	19.2	53.5
2025-07-29T18:28	10	6	1.1	5	8	396	0.4	395	397	19.2	53.9
2025-07-29T18:29	10	5	0.1	5	5	395	0.3	395	396	19.1	54.4
2025-07-29T18:30	10	5	0.1	5	5	395	0.2	394	395	19.1	54.5
2025-07-29T18:31	10	5	0.1	4	5	394	0.2	394	395	19.0	55.0
2025-07-29T18:32	10	5	0.1	4	5	394	0.3	393	394	19.0	55.2
2025-07-29T18:33	10	5	0.1	4	5	394	0.3	393	394	19.0	55.5
2025-07-29T18:34	10	5	0.1	4	5	393	0.2	393	394	19.0	55.6
2025-07-29T18:35	10	5	0.4	4	6	393	0.3	392	394	19.0	55.7
2025-07-29T18:36	10	8	1.3	6	10	393	0.4	392	394	19.0	55.9
2025-07-29T18:37	10	11	0.5	10	12	393	0.3	393	394	19.0	56.2
2025-07-29T18:38	10	10	1.2	8	11	394	0.3	393	394	19.0	56.5
2025-07-29T18:39	10	6	0.8	5	7	393	0.4	393	394	18.9	56.9
2025-07-29T18:40	10	5	0.2	4	5	393	0.3	392	394	18.9	57.1
2025-07-29T18:41	10	5	0.2	5	6	392	0.2	392	393	18.9	57.3
2025-07-29T18:42	10	6	0.1	5	6	392	0.2	392	393	18.9	57.2
2025-07-29T18:43	10	6	0.1	6	6	392	0.2	392	393	18.9	57.3
2025-07-29T18:44	10	6	0.2	5	6	392	0.2	391	392	18.9	57.0
2025-07-29T18:45	10	5	0.2	5	6	392	0.3	391	392	18.9	57.2
2025-07-29T18:46	10	4	0.1	4	5	391	0.2	391	392	18.9	57.3
2025-07-29T18:47	10	4	0.1	4	4	391	0.2	391	392	18.9	56.7
2025-07-29T18:48	10	4	0.2	3	4	391	0.2	391	391	18.9	56.6
2025-07-29T18:49	10	3	0.2	3	3	391	0.2	390	391	18.9	57.3
2025-07-29T18:50	10	2	0.2	2	3	391	0.2	390	391	18.8	57.7
2025-07-29T18:51	10	2	0.1	2	2	390	0.2	390	391	18.8	57.7
2025-07-29T18:52	10	2	0.1	2	2	390	0.2	390	391	18.8	57.8
2025-07-29T18:53	10	2	0.1	1	2	390	0.3	389	390	18.8	58.2
2025-07-29T18:54	10	1	0.1	1	2	389	0.2	389	390	18.7	58.9
2025-07-29T18:55	10	1	0.1	1	1	389	0.3	388	390	18.6	59.8
2025-07-29T18:56	10	1	0.1	1	1	389	0.2	388	389	18.5	60.2
2025-07-29T18:57	10	1	0.1	1	1	389	0.2	388	390	18.6	59.2
2025-07-29T18:58	10	1	0.1	1	1	389	0.2	388	389	18.6	59.2
2025-07-29T18:59	10	1	0.1	1	1	388	0.2	388	389	18.5	60.2
2025-07-29T19:00	10	1	0.1	1	1	388	0.2	388	389	18.5	61.3
2025-07-29T19:01	10	1	0.1	1	1	388	0.2	388	389	18.4	62.4
2025-07-29T19:02	10	1	0.1	1	1	388	0.2	388	389	18.2	62.9
2025-07-29T19:03	10	1	0.1	1	1	389	0.3	388	390	18.2	60.8
2025-07-29T19:04	10	1	0.1	0	1	389	0.3	388	390	18.3	59.6
2025-07-29T19:05	10	1	0.1	0	1	389	0.3	388	390	18.2	59.7
2025-07-29T19:06	10	1	0.1	0	1	389	0.2	389	389	18.2	60.1
2025-07-29T19:07	10	0	0.1	0	1	389	0.3	388	389	18.1	59.8
2025-07-29T19:08	10	1	0.2	0	1	389	0.3	388	389	18.1	59.5
2025-07-29T19:09	10	0	0.2	0	1	388	0.3	388	389	18.1	61.1
2025-07-29T19:10	10	0	0.1	0	1	388	0.3	388	389	18.0	60.7
2025-07-29T19:11	10	0	0.2	0	1	388	0.3	388	389	18.0	60.9
2025-07-29T19:12	10	0	0.2	0	1	388	0.4	387	389	17.9	61.7
2025-07-29T19:13	10	0	0.1	0	1	388	0.2	388	389	17.9	60.5
2025-07-29T19:14	10	0	0.1	0	1	388	0.3	388	389	18.0	59.9
2025-07-29T19:15	10	0	0.1	0	1	388	0.3	388	389	18.0	59.5
2025-07-29T19:16	10	0	0.1	0	1	388	0.2	388	389	18.0	59.6
2025-07-29T19:17	10	0	0.1	0	1	388	0.3	388	389	18.0	59.6
2025-07-29T19:18	10	0	0.1	0	0	389	0.2	388	389	18.0	59.7
2025-07-29T19:19	10	0	0.1	0	0	389	0.2	388	389	18.0	59.4
2025-07-29T19:20	10	0	0.0	0	0	389	0.2	388	389	18.0	59.6
2025-07-29T19:21	10	0	0.1	0	0	389	0.2	388	390	18.0	59.9
2025-07-29T19:22	10	0	0.0	0	0	389	0.3	388	390	17.9	61.4
2025-07-29T19:23	10	0	0.1	0	0	390	0.4	389	391	17.9	63.9
2025-07-29T19:24	10	0	0.1	0	0	390	0.4	390	391	17.9	64.0
2025-07-29T19:25	10	0	0.1	0	0	392	0.3	391	392	17.9	64.2
2025-07-29T19:26	10	0	0.1	0	0	392	0.4	392	393	18.0	61.6
2025-07-29T19:27	10	0	0.1	0	0	393	0.4	392	394	18.0	62.3
2025-07-29T19:28	10	0	0.1	0	0	394	0.3	394	395	18.0	61.0
2025-07-29T19:29	10	0	0.1	0	0	394	0.3	394	395	18.0	61.8
2025-07-29T19:30	10	0	0.1	0	0	394	0.7	393	395	18.1	62.1
2025-07-29T19:31	10	0	0.1	0	0	393	0.3	393	394	17.8	66.2
2025-07-29T19:32	10	0	0.1	0	0	393	0.3	393	394	17.7	66.1
2025-07-29T19:33	10	0	0.1	0	0	394	0.3	393	394	17.6	66.1
2025-07-29T19:34	10	0	0.1	0	0	394	0.3	393	395	17.6	65.2
2025-07-29T19:35	10	0	0.1	0	0	394	0.3	394	395	17.7	64.7
2025-07-29T19:36	10	0	0.1	0	0	394	0.3	394	395	17.7	64.4
2025-07-29T19:37	10	0	0.1	0	0	394	0.2	394	395	17.7	64.6
2025-07-29T19:38	10	0	0.1	0	0	394	0.2	394	395	17.6	65.1
2025-07-29T19:39	10	0	0.1	0	0	395	0.4	395	396	17.6	64.8
2025-07-29T19:40	10	0	0.1	0	0	395	0.3	395	396	17.7	64.1
2025-07-29T19:41	10	0	0.1	0	0	396	0.2	395	396	17.8	63.8
2025-07-29T19:42	10	0	0.1	0	0	395	0.3	395	396	17.8	63.6
2025-07-29T19:43	10	0	0.1	0	0	395	0.4	394	396	17.7	63.2
2025-07-29T19:44	10	0	0.1	0	0	393	0.4	393	394	17.5	68.6
2025-07-29T19:45	10	0	0.1	0	0	394	0.3	393	394	17.2	69.4
2025-07-29T19:46	10	0	0.1	0	0	394	0.3	393	395	17.5	64.3
2025-07-29T19:47	10	0	0.1	0	0	394	0.2	393	394	17.6	63.8
2025-07-29T19:48	10	0	0.1	0	0	394	0.2	393	394	17.7	63.2
2025-07-29T19:49	10	0	0.1	0	0	393	0.2	393	394	17.7	63.2
2025-07-29T19:50	10	0	0.1	0	0	393	0.3	392	394	17.7	64.1
2025-07-29T19:51	10	0	0.1	0	0	392	0.2	392	393	17.5	65.3
2025-07-29T19:52	10	0	0.1	0	0	392	0.3	392	393	17.5	64.5
2025-07-29T19:53	10	0	0.0	0	0	392	0.2	392	393	17.5	64.7
2025-07-29T19:54	10	0	0.1	0	0	392	0.2	392	393	17.5	63.7
2025-07-29T19:55	10	0	0.0	0	0	392	0.2	392	393	17.7	63.1
2025-07-29T19:56	10	0	0.1	0	0	392	0.3	392	393	17.8	62.4
2025-07-29T19:57	10	0	0.1	0	0	392	0.2	392	393	17.8	62.2
2025-07-29T19:58	10	0	0.1	0	0	392	0.2	392	393	17.9	63.6
2025-07-29T19:59	10	0	0.1	0	0	392	0.3	391	392	18.0	64.0
2025-07-29T20:00	10	0	0.1	0	0	392	0.3	391	392	17.9	65.1
2025-07-29T20:01	10	0	0.1	0	0	391	0.2	391	392	17.9	66.1
2025-07-29T20:02	10	0	0.1	0	0	391	0.2	391	392	17.9	66.2
2025-07-29T20:03	10	0	0.1	0	0	391	0.3	390	391	17.7	67.0
2025-07-29T20:04	10	0	0.1	0	0	390	0.3	390	391	17.4	69.1
2025-07-29T20:05	10	0	0.0	0	0	390	0.3	389	390	17.2	68.2
2025-07-29T20:06	10	0	0.1	0	0	389	0.3	388	389	17.2	68.3
2025-07-29T20:07	10	0	0.1	0	0	388	0.3	388	389	17.1	69.0
2025-07-29T20:08	10	0	0.1	0	0	388	0.2	387	389	17.0	68.7
2025-07-29T20:09	10	0	0.0	0	0	387	0.2	386	387	17.1	68.2
2025-07-29T20:10	10	0	0.1	0	0	387	0.3	386	387	17.1	67.5
2025-07-29T20:11	10	0	0.1	0	0	386	0.3	385	387	17.1	68.7
2025-07-29T20:12	10	0	0.1	0	0	385	0.2	385	386	17.0	69.1
2025-07-29T20:13	10	0	0.1	0	0	385	0.2	385	385	17.1	68.1
2025-07-29T20:14	10	0	0.1	0	0	385	0.2	384	385	17.3	67.5
2025-07-29T20:15	10	0	0.1	0	0	384	0.2	383	385	17.3	67.7
2025-07-29T20:16	10	0	0.1	0	0	384	0.3	383	385	17.3	68.1
2025-07-29T20:17	10	0	0.1	0	0	383	0.2	383	384	17.3	68.2
2025-07-29T20:18	10	0	0.2	0	0	383	0.3	383	384	17.4	68.3
2025-07-29T20:19	10	0	0.2	-1	1	383	0.2	382	383	17.3	69.0
2025-07-29T20:20	10	0	0.2	0	0	382	0.3	382	383	17.2	69.6
2025-07-29T20:21	10	0	0.2	0	1	382	0.2	382	383	17.1	70.3
2025-07-29T20:22	10	0	0.1	0	1	382	0.5	381	383	16.9	72.9
2025-07-29T20:23	10	0	0.2	-1	0	382	0.3	381	382	16.6	75.4
2025-07-29T20:24	10	0	0.2	-1	0	382	0.2	381	383	16.5	75.6
2025-07-29T20:25	10	0	0.2	0	0	382	0.3	382	383	16.2	76.8
2025-07-29T20:26	10	0	0.1	0	0	382	0.2	382	383	16.1	77.0
2025-07-29T20:27	10	0	0.1	0	0	383	0.3	382	383	16.1	76.7
2025-07-29T20:28	10	0	0.1	0	0	382	0.3	382	383	16.2	75.2
2025-07-29T20:29	10	0	0.1	0	0	382	0.3	382	383	16.3	74.4
2025-07-29T20:30	10	0	0.1	0	0	382	0.3	382	383	16.4	73.2
2025-07-29T20:31	10	0	0.1	0	0	382	0.2	381	382	16.4	73.5
2025-07-29T20:32	10	0	0.1	0	0	382	0.2	381	382	16.4	73.4
2025-07-29T20:33	10	0	0.1	0	0	382	0.2	381	382	16.5	72.3
2025-07-29T20:34	10	0	0.1	0	0	382	0.3	381	382	16.4	73.1
2025-07-29T20:35	10	0	0.1	0	0	381	0.3	381	382	16.2	74.0
2025-07-29T20:36	10	0	0.0	0	0	382	0.2	381	382	16.4	71.5
2025-07-29T20:37	10	0	0.1	0	0	382	0.3	381	382	16.6	70.6
2025-07-29T20:38	10	0	0.0	0	0	382	0.2	381	382	16.8	69.1
2025-07-29T20:39	10	0	0.1	0	0	382	0.2	381	382	16.9	68.3
2025-07-29T20:40	10	0	0.0	0	0	381	0.2	381	382	16.9	68.2
2025-07-29T20:41	10	0	0.1	0	0	381	0.2	381	382	16.9	67.9
2025-07-29T20:42	10	0	0.1	0	0	381	0.2	381	381	17.0	67.8
2025-07-29T20:43	10	0	0.1	0	0	381	0.3	380	381	17.0	67.5
2025-07-29T20:44	10	0	0.1	0	0	380	0.3	380	381	17.0	67.4
2025-07-29T20:45	10	0	0.1	0	0	379	0.4	378	380	17.0	66.9
2025-07-29T20:46	10	0	0.1	0	0	378	0.8	376	379	16.8	69.9
2025-07-29T20:47	10	0	0.1	0	0	377	0.3	376	378	16.3	74.7
2025-07-29T20:48	10	0	0.1	0	0	377	0.3	376	377	15.9	77.4
2025-07-29T20:49	10	0	0.1	0	1	377	0.3	376	377	15.8	77.8
2025-07-29T20:50	10	0	0.1	0	0	376	0.3	375	377	15.6	78.6
2025-07-29T20:51	10	0	0.1	0	0	376	0.3	375	377	15.6	77.0
2025-07-29T20:52	10	0	0.1	0	0	376	0.2	375	376	15.8	74.9
2025-07-29T20:53	10	0	0.1	0	0	375	0.3	375	376	15.8	75.0
2025-07-29T20:54	10	0	0.1	0	0	375	0.2	374	375	15.7	75.6
2025-07-29T20:55	10	0	0.1	0	0	375	0.2	375	375	15.7	74.9
2025-07-29T20:56	10	0	0.1	0	0	375	0.2	374	375	15.9	73.7
2025-07-29T20:57	10	0	0.1	0	0	374	0.3	374	375	15.8	73.9
2025-07-29T20:58	10	0	0.1	0	0	374	0.2	374	375	15.8	74.1
2025-07-29T20:59	10	0	0.1	0	0	374	0.2	373	375	15.8	74.4
2025-07-29T21:00	10	0	0.1	0	0	374	0.2	374	375	15.6	75.3
2025-07-29T21:01	10	0	0.1	0	0	374	0.3	374	375	15.4	76.0
2025-07-29T21:02	10	0	0.1	0	0	375	0.2	374	375	15.5	75.2
2025-07-29T21:03	10	0	0.1	0	0	375	0.2	374	375	15.3	76.8
2025-07-29T21:04	10	0	0.1	0	0	375	0.2	374	375	15.2	77.6
2025-07-29T21:05	10	0	0.1	0	0	374	0.2	374	375	15.1	77.7
2025-07-29T21:06	10	0	0.1	0	0	374	0.2	374	374	15.1	78.0
2025-07-29T21:07	10	0	0.1	0	0	374	0.3	374	375	15.1	77.9
2025-07-29T21:08	10	0	0.1	0	0	374	0.4	374	375	15.1	76.9
2025-07-29T21:09	10	0	0.1	0	0	374	0.2	374	375	15.1	76.9
2025-07-29T21:10	10	0	0.1	0	0	374	0.3	374	375	15.2	76.4
2025-07-29T21:11	10	0	0.1	0	0	374	0.2	374	375	15.3	76.4
2025-07-29T21:12	10	0	0.1	0	0	374	0.2	374	375	15.2	76.4
2025-07-29T21:13	10	0	0.1	0	0	374	0.2	373	375	15.3	76.3
2025-07-29T21:14	10	0	0.1	0	0	373	0.2	373	374	15.2	77.1
2025-07-29T21:15	10	0	0.1	0	0	373	0.3	373	374	15.1	77.6
2025-07-29T21:16	10	0	0.1	0	0	373	0.2	373	374	15.1	78.0
2025-07-29T21:17	10	0	0.1	0	0	373	0.2	373	374	15.0	78.5
2025-07-29T21:18	10	0	0.0	0	0	373	0.2	373	374	15.0	77.9
2025-07-29T21:19	10	0	0.0	0	0	373	0.2	373	374	15.1	76.8
2025-07-29T21:20	10	0	0.0	0	0	373	0.3	373	374	15.1	75.8
2025-07-29T21:21	10	0	0.0	0	0	374	0.3	373	374	15.1	75.5
2025-07-29T21:22	10	0	0.0	0	0	373	0.2	373	374	15.1	76.6
2025-07-29T21:23	10	0	0.0	0	0	373	0.2	372	374	14.9	77.9
2025-07-29T21:24	10	0	0.0	0	0	373	0.2	372	373	14.9	78.2
2025-07-29T21:25	10	0	0.1	0	0	373	0.2	372	373	14.9	77.7
2025-07-29T21:26	10	0	0.1	0	1	373	0.2	372	373	15.0	76.9
2025-07-29T21:27	10	0	0.1	0	0	372	0.2	372	373	15.0	76.8
2025-07-29T21:28	10	0	0.1	0	0	372	0.2	372	372	15.1	76.4
2025-07-29T21:29	10	0	0.1	0	1	372	0.2	371	373	15.1	76.3
2025-07-29T21:30	10	0	0.1	0	0	372	0.2	371	373	15.1	75.9
2025-07-29T21:31	10	0	0.2	0	1	372	0.3	371	373	15.1	76.1
2025-07-29T21:32	10	0	0.1	0	0	371	0.2	371	372	15.1	76.3
2025-07-29T21:33	10	0	0.1	0	0	372	0.2	371	372	15.0	76.5
2025-07-29T21:34	10	0	0.1	0	1	372	0.2	371	372	15.0	77.0
2025-07-29T21:35	10	0	0.2	0	1	372	0.2	371	372	14.9	77.2
2025-07-29T21:36	10	0	0.1	0	0	372	0.2	371	372	15.0	76.7
2025-07-29T21:37	10	0	0.1	0	0	372	0.2	371	372	15.0	76.5
2025-07-29T21:38	10	0	0.1	0	0	372	0.3	371	372	15.0	76.8
2025-07-29T21:39	10	0	0.1	0	1	371	0.3	370	372	14.9	77.6
2025-07-29T21:40	10	0	0.0	0	0	371	0.2	370	371	14.8	78.3
2025-07-29T21:41	10	0	0.1	0	0	371	0.2	370	371	14.8	78.3
2025-07-29T21:42	10	0	0.1	0	0	370	0.2	370	371	14.3	77.9
2025-07-29T21:43	10	0	0.0	0	0	370	0.2	369	371	14.8	75.3
2025-07-29T21:44	10	0	0.0	0	0	370	0.2	370	371	14.8	77.9
2025-07-29T21:45	10	0	0.1	0	0	370	0.3	369	370	14.8	77.9
2025-07-29T21:46	10	0	0.0	0	0	370	0.2	369	370	14.8	77.9
2025-07-29T21:47	10	0	0.0	0	0	369	0.2	369	370	14.8	77.9
2025-07-29T21:48	10	0	0.1	0	0	369	0.2	369	370	14.8	77.9
2025-07-29T21:49	10	0	0.1	0	0	369	0.2	368	369	14.8	77.9
2025-07-29T21:50	10	0	0.1	0	0	369	0.2	368	369	14.7	77.9
2025-07-29T21:51	10	0	0.1	0	0	369	0.2	368	369	14.6	77.7
2025-07-29T21:52	10	0	0.1	0	0	369	0.3	368	369	14.6	77.9
2025-07-29T21:53	10	0	0.1	0	0	368	0.2	368	369	14.6	78.0
2025-07-29T21:54	10	0	0.0	0	0	368	0.2	368	369	14.7	77.8
2025-07-29T21:55	10	0	0.0	0	0	368	0.2	368	369	14.7	78.1
2025-07-29T21:56	10	0	0.1	0	0	368	0.2	367	369	14.6	78.7
2025-07-29T21:57	10	0	0.1	0	0	368	0.3	368	369	14.5	79.0
2025-07-29T21:58	10	0	0.1	0	0	368	0.3	368	369	14.5	79.2
2025-07-29T21:59	10	0	0.1	0	0	368	0.2	368	369	14.3	80.8
2025-07-29T22:00	10	0	0.1	0	0	368	0.2	368	369	14.1	82.8
2025-07-29T22:01	10	0	0.1	0	0	368	0.3	368	369	13.9	83.7
2025-07-29T22:02	10	0	0.1	0	0	368	0.3	368	369	13.9	84.0
2025-07-29T22:03	10	0	0.1	0	0	368	0.3	368	369	13.8	84.3
2025-07-29T22:04	10	0	0.1	0	0	368	0.2	368	369	13.9	83.5
2025-07-29T22:05	10	0	0.1	0	0	369	0.2	368	369	14.0	82.7
2025-07-29T22:06	10	0	0.1	0	0	368	0.2	368	369	14.1	82.1
2025-07-29T22:07	10	0	0.1	0	0	368	0.2	368	368	14.1	82.0
2025-07-29T22:08	10	0	0.1	0	0	368	0.3	367	368	14.2	81.9
2025-07-29T22:09	10	0	0.1	0	0	368	0.3	367	368	14.3	80.4
2025-07-29T22:10	10	0	0.1	0	0	368	0.2	367	368	14.3	80.2
2025-07-29T22:11	10	0	0.1	0	0	368	0.3	367	369	14.4	79.8
2025-07-29T22:12	10	0	0.1	0	0	368	0.4	367	369	14.5	78.7
2025-07-29T22:13	10	0	0.1	0	0	368	0.4	367	368	14.4	80.5
2025-07-29T22:14	10	0	0.1	0	0	367	0.2	367	368	14.2	82.8
2025-07-29T22:15	10	0	0.1	0	0	367	0.3	367	368	14.1	82.0
2025-07-29T22:16	10	0	0.1	0	0	367	0.2	367	367	14.2	81.0
2025-07-29T22:17	10	0	0.1	0	0	367	0.2	367	368	14.3	80.5
2025-07-29T22:18	10	0	0.1	0	0	367	0.2	367	367	14.1	82.4
2025-07-29T22:19	10	0	0.1	0	0	367	0.2	366	367	14.0	83.4
2025-07-29T22:20	10	0	0.1	0	0	367	0.3	366	367	14.0	83.4
2025-07-29T22:21	10	0	0.1	0	0	367	0.2	366	367	13.9	84.0
2025-07-29T22:22	10	0	0.1	0	0	366	0.4	365	367	13.9	84.8
2025-07-29T22:23	10	0	0.1	0	0	365	0.4	364	366	13.8	85.4
2025-07-29T22:24	10	0	0.1	0	0	365	0.2	364	365	13.7	86.1
2025-07-29T22:25	10	0	0.1	0	0	365	0.3	364	365	13.6	86.7
2025-07-29T22:26	10	0	0.1	0	0	365	0.2	364	365	13.6	86.5
2025-07-29T22:27	10	0	0.1	0	0	365	0.2	364	365	13.5	86.3
2025-07-29T22:28	10	0	0.1	0	0	365	0.2	364	365	13.5	86.6
2025-07-29T22:29	10	0	0.1	0	0	365	0.2	364	365	13.5	86.6
2025-07-29T22:30	10	0	0.1	0	0	365	0.5	364	366	13.6	85.6
2025-07-29T22:31	10	0	0.1	0	0	366	0.5	365	367	14.0	81.0
2025-07-29T22:32	10	0	0.1	0	0	367	0.4	366	367	14.2	79.5
2025-07-29T22:33	10	0	0.1	0	0	365	0.6	364	367	14.3	80.0
2025-07-29T22:34	10	0	0.0	0	0	366	0.2	366	367	13.9	83.9
2025-07-29T22:35	10	0	0.1	0	0	366	0.3	366	367	13.8	84.0
2025-07-29T22:36	10	0	0.1	0	0	366	0.3	366	367	13.7	84.4
2025-07-29T22:37	10	0	0.1	0	0	366	0.7	365	367	13.8	83.6
2025-07-29T22:38	10	0	0.1	0	0	365	0.5	364	366	13.6	86.5
2025-07-29T22:39	10	0	0.1	0	0	364	0.3	364	365	13.4	87.6
2025-07-29T22:40	10	0	0.1	0	0	364	0.2	364	365	13.3	86.4
2025-07-29T22:41	10	0	0.1	0	0	364	0.2	364	365	13.4	85.4
2025-07-29T22:42	10	0	0.1	0	0	364	0.2	363	364	13.4	83.9
2025-07-29T22:43	10	0	0.1	0	0	364	0.2	363	364	13.5	83.6
2025-07-29T22:44	10	0	0.1	0	0	364	0.3	363	364	13.4	84.0
2025-07-29T22:45	10	0	0.1	0	0	363	0.2	363	364	13.4	84.3
2025-07-29T22:46	10	0	0.1	0	0	364	0.2	363	364	13.3	84.5
2025-07-29T22:47	10	0	0.1	0	0	363	0.2	363	364	13.4	84.1
2025-07-29T22:48	10	0	0.1	0	0	363	0.3	363	364	13.4	84.5
2025-07-29T22:49	10	0	0.1	0	0	363	0.2	362	363	13.3	84.9
2025-07-29T22:50	10	0	0.1	0	0	363	0.2	362	363	13.3	85.2
2025-07-29T22:51	10	0	0.1	0	1	362	0.2	362	363	13.2	86.1
2025-07-29T22:52	10	0	0.1	0	0	362	0.2	362	363	13.1	86.0
2025-07-29T22:53	10	0	0.1	0	0	362	0.2	362	363	13.3	85.1
2025-07-29T22:54	10	0	0.1	0	0	363	0.7	362	365	13.3	84.3
2025-07-29T22:55	10	0	0.1	0	0	364	0.3	364	365	13.3	84.3
2025-07-29T22:56	10	0	0.1	0	0	365	0.3	364	365	13.2	84.7
2025-07-29T22:57	10	0	0.1	0	0	365	0.3	364	366	13.3	84.2
2025-07-29T22:58	10	0	0.1	0	0	366	0.3	365	366	13.2	84.7
2025-07-29T22:59	10	0	0.1	0	1	366	0.3	365	366	13.2	84.5
2025-07-29T23:00	10	0	0.2	0	1	365	0.3	364	366	13.2	84.2
2025-07-29T23:01	10	0	0.2	0	1	364	0.4	363	365	13.2	84.4
2025-07-29T23:02	10	0	0.2	0	1	364	0.3	364	365	13.1	85.1
2025-07-29T23:03	10	0	0.2	0	0	364	0.2	364	365	13.1	85.2
2025-07-29T23:04	10	0	0.2	0	0	364	0.3	364	365	13.1	85.3
2025-07-29T23:05	10	0	0.2	0	1	364	0.2	364	365	13.0	85.6
2025-07-29T23:06	10	0	0.1	0	0	364	0.3	363	365	12.9	86.1
2025-07-29T23:07	10	0	0.1	0	0	364	0.3	364	365	12.8	86.7
2025-07-29T23:08	10	0	0.1	0	0	364	0.3	363	365	12.8	86.7
2025-07-29T23:09	10	0	0.1	0	1	364	0.3	363	364	12.9	86.6
2025-07-29T23:10	10	0	0.1	0	1	363	0.3	362	364	12.9	86.1
2025-07-29T23:11	10	0	0.2	0	1	363	0.3	362	363	12.9	86.2
2025-07-29T23:12	10	0	0.1	0	0	362	0.3	361	363	12.7	87.0
2025-07-29T23:13	10	0	0.1	0	0	362	0.3	361	363	12.7	87.2
2025-07-29T23:14	10	0	0.2	0	0	362	0.3	361	363	12.7	87.1
2025-07-29T23:15	10	0	0.1	0	0	362	0.2	361	362	12.7	86.7
2025-07-29T23:16	10	0	0.1	0	0	362	0.3	361	362	12.7	86.7
2025-07-29T23:17	10	0	0.1	0	0	362	0.2	361	362	12.8	86.0
2025-07-29T23:18	10	0	0.1	0	0	362	0.3	361	363	12.9	85.5
2025-07-29T23:19	10	0	0.1	0	0	362	0.2	361	362	13.0	84.6
2025-07-29T23:20	10	0	0.1	0	0	362	0.2	361	362	13.1	84.5
2025-07-29T23:21	10	0	0.1	0	0	362	0.3	361	363	13.0	84.8
2025-07-29T23:22	10	0	0.1	0	0	362	0.2	361	362	12.9	85.6
2025-07-29T23:23	10	0	0.1	0	1	362	0.2	361	362	12.8	86.0
2025-07-29T23:24	10	0	0.1	0	0	362	0.3	361	363	12.8	86.1
2025-07-29T23:25	10	0	0.1	0	0	362	0.3	362	363	12.9	85.9
2025-07-29T23:26	10	0	0.1	0	0	363	0.4	362	364	12.9	85.8
2025-07-29T23:27	10	0	0.1	0	0	364	0.2	363	364	12.9	85.6
2025-07-29T23:28	10	0	0.1	0	0	364	0.2	364	364	12.8	86.0
2025-07-29T23:29	10	0	0.1	0	0	364	0.2	364	364	12.8	86.3
2025-07-29T23:30	10	0	0.1	0	0	364	0.2	363	364	12.7	86.3
2025-07-29T23:31	10	0	0.1	0	0	364	0.2	363	364	12.7	86.4
2025-07-29T23:32	10	0	0.1	0	0	364	0.2	363	364	12.6	86.8
2025-07-29T23:33	10	0	0.1	0	0	364	0.3	363	364	12.7	87.0
2025-07-29T23:34	10	0	0.1	0	0	364	0.2	363	364	12.7	87.2
2025-07-29T23:35	10	0	0.1	0	0	363	0.2	363	363	12.6	87.7
2025-07-29T23:36	10	0	0.1	0	0	363	0.2	363	364	12.5	87.9
2025-07-29T23:37	10	0	0.1	0	0	363	0.3	363	364	12.6	87.7
2025-07-29T23:38	10	0	0.1	0	0	363	0.2	363	364	12.8	86.5
2025-07-29T23:39	10	0	0.1	0	0	364	0.2	363	364	12.9	85.3
2025-07-29T23:40	10	0	0.1	0	0	363	0.3	363	364	12.9	85.8
2025-07-29T23:41	10	0	0.1	0	0	364	0.2	363	364	13.1	85.0
2025-07-29T23:42	10	0	0.1	0	0	364	0.2	363	364	13.0	85.8
2025-07-29T23:43	10	0	0.1	0	0	363	0.3	363	364	12.8	86.5
2025-07-29T23:44	10	0	0.1	0	0	363	0.3	362	363	12.8	87.0
2025-07-29T23:45	10	0	0.1	0	0	362	0.4	362	363	12.6	87.8
2025-07-29T23:46	10	0	0.1	0	0	362	0.2	361	362	12.6	88.1
2025-07-29T23:47	10	0	0.1	0	0	361	0.3	361	362	12.5	88.7
2025-07-29T23:48	10	0	0.1	0	0	361	0.2	360	362	12.4	89.1
2025-07-29T23:49	10	0	0.1	0	0	360	0.3	360	361	12.3	89.4
2025-07-29T23:50	10	0	0.1	0	0	360	0.2	360	361	12.3	89.9
2025-07-29T23:51	10	0	0.1	0	0	360	0.2	360	361	12.2	90.1
2025-07-29T23:52	10	0	0.1	0	0	360	0.2	360	361	12.3	89.9
2025-07-29T23:53	10	0	0.1	0	0	360	0.2	359	360	12.3	89.9
2025-07-29T23:54	10	0	0.1	0	0	360	0.3	359	361	12.3	90.0
2025-07-29T23:55	10	0	0.1	0	0	359	0.2	359	360	12.4	89.2
2025-07-29T23:56	10	0	0.0	0	0	359	0.2	359	360	12.4	88.1
2025-07-29T23:57	10	0	0.1	0	0	359	0.2	358	359	12.4	88.5
2025-07-29T23:58	10	0	0.1	0	0	359	0.2	359	360	12.4	88.1
2025-07-29T23:59	10	0	0.1	0	0	359	0.2	359	360	12.5	87.4
2025-07-30T00:00	10	0	0.1	0	0	359	0.2	358	360	12.5	87.3
2025-07-30T00:01	10	0	0.1	0	0	359	0.2	358	359	12.5	87.4
2025-07-30T00:02	10	0	0.1	0	0	359	0.2	358	359	12.5	87.6
2025-07-30T00:03	10	0	0.1	0	0	359	0.3	358	359	12.5	87.7
2025-07-30T00:04	10	0	0.1	0	0	359	0.3	358	359	12.5	87.8
2025-07-30T00:05	10	0	0.1	0	0	359	0.2	358	359	12.4	88.0
2025-07-30T00:06	10	0	0.1	0	0	359	0.2	359	360	12.3	88.4
2025-07-30T00:07	10	0	0.1	0	0	359	0.3	359	360	12.2	88.9
2025-07-30T00:08	10	0	0.1	0	0	360	0.2	359	361	12.2	89.3
2025-07-30T00:09	10	0	0.1	0	0	360	0.2	360	361	12.1	89.6
2025-07-30T00:10	10	0	0.1	0	0	360	0.2	360	361	12.0	90.1
2025-07-30T00:11	10	0	0.1	0	0	360	0.2	360	361	12.0	90.4
2025-07-30T00:12	10	0	0.1	0	0	360	0.2	360	361	11.9	90.3
2025-07-30T00:13	10	0	0.1	0	0	360	0.2	360	361	11.9	90.0
2025-07-30T00:14	10	0	0.1	0	0	361	0.3	360	361	11.9	89.8
2025-07-30T00:15	10	0	0.1	0	0	361	0.2	360	361	12.0	89.2
2025-07-30T00:16	10	0	0.1	0	0	361	0.3	360	361	12.0	89.1
2025-07-30T00:17	10	0	0.1	0	0	361	0.3	360	361	12.0	89.1
2025-07-30T00:18	10	0	0.1	0	0	361	0.2	360	362	12.0	89.2
2025-07-30T00:19	10	0	0.1	0	0	361	0.3	360	361	12.0	89.8
2025-07-30T00:20	10	0	0.1	0	0	360	0.2	360	361	11.8	90.8
2025-07-30T00:21	10	0	0.1	0	0	361	0.3	360	361	11.8	90.7
2025-07-30T00:22	10	0	0.1	0	0	361	0.2	360	361	11.8	90.6
2025-07-30T00:23	10	0	0.1	0	0	360	0.2	360	360	11.8	90.6
2025-07-30T00:24	10	0	0.1	0	0	360	0.2	359	360	11.9	90.4
2025-07-30T00:25	10	0	0.1	0	0	360	0.2	359	360	12.0	89.9
2025-07-30T00:26	10	0	0.1	0	0	360	0.3	359	360	12.1	89.4
2025-07-30T00:27	10	0	0.1	0	0	360	0.3	359	360	12.2	88.7
2025-07-30T00:28	10	0	0.1	0	0	360	0.3	359	360	12.3	88.4
2025-07-30T00:29	10	0	0.1	0	0	360	0.2	359	360	12.3	88.6
2025-07-30T00:30	10	0	0.1	0	0	360	0.3	359	360	12.2	88.9
2025-07-30T00:31	10	0	0.1	0	0	360	0.3	359	361	12.2	88.6
2025-07-30T00:32	10	0	0.1	0	0	360	0.2	359	360	12.2	88.7
2025-07-30T00:33	10	0	0.1	0	0	360	0.2	360	360	12.1	89.2
2025-07-30T00:34	10	0	0.1	0	0	360	0.4	359	361	12.0	90.3
2025-07-30T00:35	10	0	0.1	0	0	359	0.2	359	359	12.0	90.8
2025-07-30T00:36	10	0	0.1	0	0	359	0.3	358	359	12.0	90.6
2025-07-30T00:37	10	0	0.1	0	0	359	0.2	358	359	11.9	90.2
2025-07-30T00:38	10	0	0.1	0	0	358	0.2	358	359	11.9	90.2
2025-07-30T00:39	10	0	0.1	0	0	359	0.3	358	359	11.9	90.4
2025-07-30T00:40	10	0	0.1	0	0	358	0.2	358	359	11.9	90.2
2025-07-30T00:41	10	0	0.1	0	0	358	0.2	358	359	12.0	90.1
2025-07-30T00:42	10	0	0.1	0	0	358	0.2	358	359	12.0	90.3
2025-07-30T00:43	10	0	0.1	0	0	358	0.3	357	358	11.9	90.3
2025-07-30T00:44	10	0	0.1	0	0	358	0.2	358	359	12.0	89.6
2025-07-30T00:45	10	0	0.1	0	0	358	0.2	358	359	12.0	89.5
2025-07-30T00:46	10	0	0.1	0	0	358	0.2	358	358	12.0	89.8
2025-07-30T00:47	10	0	0.1	0	0	358	0.3	358	359	12.0	89.8
2025-07-30T00:48	10	0	0.1	0	0	358	0.2	358	359	12.0	89.5
2025-07-30T00:49	10	0	0.0	0	0	358	0.2	358	359	12.1	89.4
2025-07-30T00:50	10	0	0.1	0	0	358	0.2	358	359	12.1	89.2
2025-07-30T00:51	10	0	0.1	0	0	358	0.2	358	359	12.1	88.9
2025-07-30T00:52	10	0	0.1	0	0	358	0.2	358	359	12.1	89.2
2025-07-30T00:53	10	0	0.1	0	0	359	0.2	358	359	12.0	89.3
2025-07-30T00:54	10	0	0.1	0	0	359	0.2	358	359	12.1	89.0
2025-07-30T00:55	10	0	0.1	0	0	359	0.2	358	359	12.1	88.8
2025-07-30T00:56	10	0	0.1	0	0	359	0.3	358	359	12.1	88.6
2025-07-30T00:57	10	0	0.1	0	0	358	0.2	358	359	11.9	89.1
2025-07-30T00:58	10	0	0.1	0	0	359	0.2	358	359	11.9	89.4
2025-07-30T00:59	10	0	0.1	0	0	358	0.2	358	359	11.9	89.8
2025-07-30T01:00	10	0	0.1	0	0	359	0.3	358	359	12.0	88.9
2025-07-30T01:01	10	0	0.1	0	0	358	0.2	358	359	11.9	89.2
2025-07-30T01:02	10	0	0.1	0	0	358	0.2	358	359	11.7	90.1
2025-07-30T01:03	10	0	0.1	0	0	359	0.3	358	359	11.6	90.5
2025-07-30T01:04	10	0	0.1	0	0	359	0.3	358	360	11.7	90.4
2025-07-30T01:05	10	0	0.1	0	0	359	0.2	358	360	11.7	90.2
2025-07-30T01:06	10	0	0.1	0	0	359	0.2	359	360	11.6	90.5
2025-07-30T01:07	10	0	0.1	0	0	359	0.2	359	360	11.6	90.9
2025-07-30T01:08	10	0	0.1	0	0	359	0.2	359	360	11.5	91.2
2025-07-30T01:09	10	0	0.1	0	0	360	0.2	359	360	11.5	91.7
2025-07-30T01:10	10	0	0.1	0	0	360	0.3	359	361	11.5	92.0
2025-07-30T01:11	10	0	0.0	0	0	360	0.2	360	361	11.5	91.9
2025-07-30T01:12	10	0	0.1	0	0	360	0.2	360	361	11.5	91.9
2025-07-30T01:13	10	0	0.1	0	0	360	0.2	360	361	11.5	91.9
2025-07-30T01:14	10	0	0.0	0	0	360	0.2	360	361	11.6	91.6
2025-07-30T01:15	10	0	0.1	0	0	360	0.3	360	361	11.6	91.5
2025-07-30T01:16	10	0	0.1	0	0	360	0.2	360	361	11.7	91.3
2025-07-30T01:17	10	0	0.1	0	0	360	0.2	360	361	11.7	91.2
2025-07-30T01:18	10	0	0.1	0	0	360	0.2	360	360	11.6	91.4
2025-07-30T01:19	10	0	0.1	0	0	360	0.2	359	360	11.6	91.2
2025-07-30T01:20	10	0	0.0	0	0	359	0.2	359	360	11.6	91.1
2025-07-30T01:21	10	0	0.1	0	0	359	0.2	359	360	11.6	91.0
2025-07-30T01:22	10	0	0.1	0	0	359	0.2	359	360	11.6	91.0
2025-07-30T01:23	10	0	0.1	0	0	360	0.2	359	360	11.7	91.0
2025-07-30T01:24	10	0	0.1	0	0	360	0.6	359	362	11.7	90.3
2025-07-30T01:25	10	0	0.1	0	0	361	0.2	361	362	11.8	90.6
2025-07-30T01:26	10	0	0.1	0	0	361	0.3	361	362	11.7	91.5
2025-07-30T01:27	10	0	0.1	0	0	362	0.3	361	363	11.6	92.0
2025-07-30T01:28	10	0	0.1	0	0	362	0.4	361	363	11.7	91.4
2025-07-30T01:29	10	0	0.1	-1	0	362	0.3	361	363	11.8	90.5
2025-07-30T01:30	10	0	0.1	0	0	362	0.3	361	362	11.8	90.1
2025-07-30T01:31	10	0	0.1	-1	0	362	0.5	361	363	12.0	88.9
2025-07-30T01:32	10	0	0.1	-1	0	362	0.2	362	363	12.4	86.0
2025-07-30T01:33	10	0	0.1	-1	0	363	0.4	362	363	12.5	85.3
2025-07-30T01:34	10	0	0.2	-1	0	362	0.5	361	363	12.7	84.3
2025-07-30T01:35	10	0	0.1	-1	0	362	0.3	361	362	12.4	85.7
2025-07-30T01:36	10	0	0.1	0	0	362	0.4	362	363	12.9	82.5
2025-07-30T01:37	10	0	0.1	0	0	362	0.3	361	363	13.2	80.8
2025-07-30T01:38	10	0	0.1	-1	0	362	0.3	361	363	13.1	81.0
2025-07-30T01:39	10	0	0.1	0	0	362	0.3	361	363	13.1	81.4
2025-07-30T01:40	10	0	0.1	0	0	361	0.4	360	362	13.0	81.7
2025-07-30T01:41	10	0	0.1	0	0	360	0.4	360	362	12.8	83.4
2025-07-30T01:42	10	0	0.1	0	0	360	0.2	360	361	12.5	85.0
2025-07-30T01:43	10	0	0.1	0	0	361	0.2	360	361	12.4	85.3
2025-07-30T01:44	10	0	0.1	0	0	360	0.3	359	361	12.4	85.8
2025-07-30T01:45	10	0	0.1	-1	0	359	0.3	359	360	12.3	86.2
2025-07-30T01:46	10	0	0.1	0	0	359	0.3	358	360	12.2	86.6
2025-07-30T01:47	10	0	0.2	-1	0	358	0.3	357	359	12.2	86.6
2025-07-30T01:48	10	0	0.1	0	0	358	0.3	357	359	12.2	86.8
2025-07-30T01:49	10	0	0.1	0	0	358	0.3	357	358	12.3	86.2
2025-07-30T01:50	10	0	0.1	0	0	358	0.3	357	359	12.3	86.0
2025-07-30T01:51	10	0	0.1	0	0	359	0.4	358	360	12.0	87.7
2025-07-30T01:52	10	0	0.1	0	0	359	0.2	359	360	11.9	88.9
2025-07-30T01:53	10	0	0.1	0	0	359	0.2	359	360	11.6	90.3
2025-07-30T01:54	10	0	0.1	-1	0	360	0.3	359	360	11.4	91.2
2025-07-30T01:55	10	0	0.1	0	0	359	0.2	359	360	11.4	91.4
2025-07-30T01:56	10	0	0.2	0	1	360	0.3	359	360	11.4	91.8
2025-07-30T01:57	10	0	0.1	-1	0	360	0.2	359	360	11.4	92.1
2025-07-30T01:58	10	0	0.2	-1	0	359	0.2	359	360	11.4	92.5
2025-07-30T01:59	10	0	0.1	-1	0	358	0.4	357	359	11.4	92.9
2025-07-30T02:00	10	0	0.1	0	0	357	0.2	357	358	11.3	93.2
2025-07-30T02:01	10	0	0.1	0	0	357	0.3	357	358	11.3	93.0
2025-07-30T02:02	10	0	0.1	0	0	357	0.2	357	358	11.3	93.0
2025-07-30T02:03	10	0	0.1	0	0	357	0.2	356	357	11.3	93.3
2025-07-30T02:04	10	0	0.1	0	0	357	0.2	356	357	11.2	93.4
2025-07-30T02:05	10	0	0.2	0	0	357	0.3	356	358	11.2	93.6
2025-07-30T02:06	10	0	0.1	0	0	357	0.2	357	358	11.2	93.8
2025-07-30T02:07	10	0	0.1	0	0	357	0.3	357	358	11.2	94.0
2025-07-30T02:08	10	0	0.1	0	0	357	0.2	356	358	11.1	94.1
2025-07-30T02:09	10	0	0.1	0	0	357	0.3	356	358	11.2	93.7
2025-07-30T02:10	10	0	0.1	0	0	358	0.4	356	358	11.3	93.2
2025-07-30T02:11	10	0	0.1	0	0	358	0.2	357	358	11.4	92.6
2025-07-30T02:12	10	0	0.1	0	0	357	0.3	357	358	11.4	92.4
2025-07-30T02:13	10	0	0.2	0	0	357	0.2	356	358	11.4	92.3
2025-07-30T02:14	10	0	0.1	0	0	356	0.3	356	357	11.4	92.4
2025-07-30T02:15	10	0	0.1	0	0	356	0.3	355	356	11.4	92.2
2025-07-30T02:16	10	0	0.1	0	0	355	0.3	355	356	11.4	92.0
2025-07-30T02:17	10	0	0.2	-1	0	355	0.3	354	355	11.3	92.2
2025-07-30T02:18	10	0	0.1	0	0	355	0.2	354	355	11.4	92.2
2025-07-30T02:19	10	0	0.1	0	0	355	0.2	354	355	11.4	92.1
2025-07-30T02:20	10	0	0.1	-1	0	355	0.3	354	356	11.5	91.6
2025-07-30T02:21	10	0	0.1	-1	0	356	0.3	355	356	11.5	91.2
2025-07-30T02:22	10	0	0.1	0	0	355	0.3	355	356	11.5	91.1
2025-07-30T02:23	10	0	0.1	0	0	355	0.2	355	356	11.5	90.9
2025-07-30T02:24	10	0	0.1	0	0	355	0.2	355	356	11.5	90.9
2025-07-30T02:25	10	0	0.1	0	0	355	0.3	354	355	11.4	91.1
2025-07-30T02:26	10	0	0.1	0	0	354	0.3	354	355	11.2	91.7
2025-07-30T02:27	10	0	0.1	0	0	355	0.3	354	355	11.0	92.3
2025-07-30T02:28	10	0	0.1	0	0	355	0.3	355	356	10.9	92.6
2025-07-30T02:29	10	0	0.1	0	0	356	0.2	355	356	10.9	92.6
2025-07-30T02:30	10	0	0.1	0	0	355	0.3	355	356	10.9	93.1
2025-07-30T02:31	10	0	0.1	0	0	355	0.2	354	355	10.8	93.4
2025-07-30T02:32	10	0	0.1	0	0	355	0.3	354	355	10.7	93.4
2025-07-30T02:33	10	0	0.1	0	0	355	0.3	354	356	10.8	93.3
2025-07-30T02:34	10	0	0.1	0	0	355	0.1	355	355	10.7	93.6
2025-07-30T02:35	10	0	0.1	0	0	355	0.3	354	355	10.6	94.0
2025-07-30T02:36	10	0	0.1	0	0	355	0.4	354	356	10.7	94.2
2025-07-30T02:37	10	0	0.1	0	0	356	0.2	355	356	10.8	94.2
2025-07-30T02:38	10	0	0.1	0	0	356	0.3	355	357	10.8	93.8
2025-07-30T02:39	10	0	0.1	0	0	356	0.2	355	356	10.9	93.6
2025-07-30T02:40	10	0	0.1	0	0	357	0.4	356	358	11.0	93.3
2025-07-30T02:41	10	0	0.1	0	0	357	0.2	357	358	11.1	93.3
2025-07-30T02:42	10	0	0.1	0	0	357	0.2	357	358	11.1	93.0
2025-07-30T02:43	10	0	0.1	-1	0	357	0.2	357	358	11.1	92.9
2025-07-30T02:44	10	0	0.1	0	0	357	0.3	356	357	11.1	92.9
2025-07-30T02:45	10	0	0.1	0	0	357	0.3	356	357	11.0	92.9
2025-07-30T02:46	10	0	0.1	0	0	356	0.3	355	356	11.0	93.0
2025-07-30T02:47	10	0	0.1	0	0	355	0.4	354	356	10.9	93.2
2025-07-30T02:48	10	0	0.1	0	0	354	0.3	354	355	10.8	93.3
2025-07-30T02:49	10	0	0.1	0	0	354	0.2	353	354	10.8	93.3
2025-07-30T02:50	10	0	0.1	0	0	354	0.2	354	354	10.8	93.1
2025-07-30T02:51	10	0	0.1	0	0	354	0.3	353	355	10.8	92.8
2025-07-30T02:52	10	0	0.1	0	0	354	0.3	354	355	10.8	92.7
2025-07-30T02:53	10	0	0.1	0	0	355	0.2	354	355	10.7	92.9
2025-07-30T02:54	10	0	0.1	0	0	355	0.3	354	356	10.6	93.1
2025-07-30T02:55	10	0	0.1	0	0	356	0.2	355	356	10.7	93.0
2025-07-30T02:56	10	0	0.3	0	2	355	0.3	354	356	10.7	92.9
2025-07-30T02:57	10	0	0.1	0	0	355	0.2	355	355	10.7	92.9
2025-07-30T02:58	10	0	0.1	0	0	355	0.2	355	355	10.7	93.0
2025-07-30T02:59	10	0	0.1	0	0	354	0.2	354	355	10.7	93.1
2025-07-30T03:00	10	0	0.1	0	0	354	0.3	353	354	10.7	93.1
2025-07-30T03:01	10	0	0.1	0	0	354	0.2	353	354	10.8	93.1
2025-07-30T03:02	10	0	0.1	0	0	353	0.3	353	354	10.8	93.2
2025-07-30T03:03	10	0	0.1	0	0	353	0.2	353	353	10.8	93.2
2025-07-30T03:04	10	0	0.1	0	0	353	0.2	353	353	10.8	93.2
2025-07-30T03:05	10	0	0.1	0	0	353	0.2	352	353	10.8	93.4
2025-07-30T03:06	10	0	0.1	0	0	353	0.2	352	353	10.8	93.5
2025-07-30T03:07	10	0	0.1	0	0	352	0.2	352	353	10.8	93.6
2025-07-30T03:08	10	0	0.0	0	0	352	0.2	352	353	10.7	93.8
2025-07-30T03:09	10	0	0.1	0	0	352	0.2	352	353	10.6	93.9
2025-07-30T03:10	10	0	0.1	0	0	353	0.2	352	354	10.6	94.0
2025-07-30T03:11	10	0	0.1	0	0	353	0.2	352	353	10.5	94.2
2025-07-30T03:12	10	0	0.1	0	0	353	0.2	353	354	10.4	94.5
2025-07-30T03:13	10	0	0.1	0	0	353	0.2	353	354	10.4	95.1
2025-07-30T03:14	10	0	0.1	0	0	353	0.2	353	354	10.4	95.3
2025-07-30T03:15	10	0	0.1	0	0	353	0.2	352	353	10.4	95.4
2025-07-30T03:16	10	0	0.1	0	0	353	0.2	352	353	10.4	95.6
2025-07-30T03:17	10	0	0.1	0	0	352	0.2	352	353	10.3	95.4
2025-07-30T03:18	10	0	0.1	0	0	353	0.2	352	353	10.4	95.2
2025-07-30T03:19	10	0	0.1	0	0	353	0.2	352	353	10.4	94.7
2025-07-30T03:20	10	0	0.1	0	0	352	0.2	352	353	10.4	94.2
2025-07-30T03:21	10	0	0.1	0	0	352	0.2	352	353	10.4	94.0
2025-07-30T03:22	10	0	0.1	0	0	352	0.2	352	353	10.4	94.1
2025-07-30T03:23	10	0	0.1	0	0	352	0.2	351	352	10.4	94.2
2025-07-30T03:24	10	0	0.1	0	0	352	0.2	351	353	10.4	93.9
2025-07-30T03:25	10	0	0.1	0	0	352	0.2	351	352	10.4	93.9
2025-07-30T03:26	10	0	0.1	0	0	352	0.2	351	352	10.3	94.2
2025-07-30T03:27	10	0	0.1	0	0	352	0.3	351	352	10.3	94.5
2025-07-30T03:28	10	0	0.1	0	0	352	0.2	351	352	10.3	94.6
2025-07-30T03:29	10	0	0.1	0	0	351	0.2	351	352	10.3	94.9
2025-07-30T03:30	10	0	0.1	0	0	351	0.2	351	352	10.3	95.1
2025-07-30T03:31	10	0	0.1	0	0	352	0.3	351	352	10.3	95.1
2025-07-30T03:32	10	0	0.1	0	0	352	0.3	351	353	10.4	95.2
2025-07-30T03:33	10	0	0.1	0	0	352	0.2	351	352	10.4	95.1
2025-07-30T03:34	10	0	0.1	0	0	352	0.2	352	353	10.4	95.0
2025-07-30T03:35	10	0	0.1	0	0	352	0.2	352	353	10.4	94.8
2025-07-30T03:36	10	0	0.1	0	0	352	0.2	351	352	10.4	95.1
2025-07-30T03:37	10	0	0.1	0	0	352	0.2	351	352	10.4	95.2
2025-07-30T03:38	10	0	0.1	0	0	351	0.3	351	352	10.4	95.0
2025-07-30T03:39	10	0	0.1	0	0	351	0.2	351	352	10.4	94.7
2025-07-30T03:40	10	0	0.1	0	0	351	0.2	351	352	10.4	94.6
2025-07-30T03:41	10	0	0.1	0	0	351	0.2	351	352	10.5	94.9
2025-07-30T03:42	10	0	0.1	0	0	351	0.3	350	352	10.5	95.2
2025-07-30T03:43	10	0	0.1	0	0	351	0.2	350	351	10.4	95.3
2025-07-30T03:44	10	0	0.1	0	0	351	0.2	350	351	10.5	95.2
2025-07-30T03:45	10	0	0.1	0	0	351	0.3	350	351	10.4	95.2
2025-07-30T03:46	10	0	0.1	0	0	350	0.3	350	351	10.4	95.1
2025-07-30T03:47	10	0	0.1	0	0	350	0.2	350	351	10.4	95.2
2025-07-30T03:48	10	0	0.1	0	0	350	0.2	350	351	10.4	95.2
2025-07-30T03:49	10	0	0.1	0	0	350	0.2	349	350	10.4	95.2
2025-07-30T03:50	10	0	0.0	0	0	350	0.2	349	350	10.4	95.3
2025-07-30T03:51	10	0	0.1	0	0	350	0.2	349	350	10.4	95.3
2025-07-30T03:52	10	0	0.1	0	0	350	0.2	349	350	10.3	95.3
2025-07-30T03:53	10	0	0.1	0	0	350	0.2	349	350	10.3	95.3
2025-07-30T03:54	10	0	0.1	0	0	350	0.4	350	351	10.4	95.2
2025-07-30T03:55	10	0	0.1	0	0	351	0.3	351	352	10.4	95.1
2025-07-30T03:56	10	0	0.1	0	0	352	0.3	352	353	10.4	95.0
2025-07-30T03:57	10	0	0.1	0	0	353	0.2	352	353	10.5	94.7
2025-07-30T03:58	10	0	0.1	0	0	353	0.2	352	353	10.6	94.4
2025-07-30T03:59	10	0	0.1	0	0	353	0.3	353	354	10.7	93.7
2025-07-30T04:00	10	0	0.1	0	0	354	0.2	353	354	10.9	92.5
2025-07-30T04:01	10	0	0.1	0	0	354	0.3	353	355	11.1	91.4
2025-07-30T04:02	10	0	0.1	0	0	354	0.3	354	355	11.2	90.6
2025-07-30T04:03	10	0	0.1	0	0	354	0.2	354	355	11.3	89.8
2025-07-30T04:04	10	0	0.1	0	0	354	0.3	354	355	11.4	89.4
2025-07-30T04:05	10	0	0.1	0	0	355	0.3	354	355	11.4	88.8
2025-07-30T04:06	10	0	0.1	0	0	355	0.3	354	355	11.4	88.7
2025-07-30T04:07	10	0	0.1	0	0	355	0.3	354	355	11.4	88.4
2025-07-30T04:08	10	0	0.1	0	0	355	0.3	355	356	11.4	88.4
2025-07-30T04:09	10	0	0.1	0	1	355	0.3	354	356	11.3	88.9
2025-07-30T04:10	10	0	0.1	0	1	354	0.2	354	355	11.3	88.8
2025-07-30T04:11	10	0	0.1	0	1	355	0.3	354	355	11.4	87.8
2025-07-30T04:12	10	0	0.1	0	1	355	0.2	355	356	11.3	88.6
2025-07-30T04:13	10	0	0.1	0	1	356	0.2	355	356	11.1	89.9
2025-07-30T04:14	10	0	0.1	0	1	357	0.2	356	357	10.8	91.5
2025-07-30T04:15	10	0	0.1	0	1	357	0.3	357	358	10.8	91.8
2025-07-30T04:16	10	1	0.1	0	1	358	0.2	357	358	10.9	91.6
2025-07-30T04:17	10	1	0.1	0	1	357	0.3	357	358	10.8	91.9
2025-07-30T04:18	10	1	0.1	0	1	357	0.4	356	358	10.7	92.2
2025-07-30T04:19	10	1	0.1	1	1	358	0.2	357	358	10.8	92.3
2025-07-30T04:20	10	1	0.1	1	1	358	0.2	357	358	10.7	92.4
2025-07-30T04:21	10	1	0.1	1	1	358	0.3	357	358	10.7	92.6
2025-07-30T04:22	10	2	0.2	1	2	357	0.2	357	358	10.8	92.4
2025-07-30T04:23	10	2	0.1	2	2	357	0.3	356	358	10.7	92.7
2025-07-30T04:24	10	2	0.1	2	3	357	0.2	356	358	10.6	93.1
2025-07-30T04:25	10	3	0.1	2	3	357	0.2	356	357	10.5	93.6
2025-07-30T04:26	10	3	0.1	3	3	357	0.2	356	357	10.4	94.2
2025-07-30T04:27	10	3	0.1	3	3	356	0.2	356	357	10.3	94.6
2025-07-30T04:28	10	3	0.1	3	3	356	0.3	355	356	10.3	94.8
2025-07-30T04:29	10	4	0.2	3	4	355	0.3	355	356	10.3	94.8
2025-07-30T04:30	10	4	0.2	4	4	355	0.2	355	355	10.2	95.0
2025-07-30T04:31	10	4	0.1	4	4	355	0.3	354	356	10.2	95.1
2025-07-30T04:32	10	4	0.1	4	5	355	0.2	354	355	10.4	94.6
2025-07-30T04:33	10	5	0.2	5	5	355	0.3	354	356	10.4	94.4
2025-07-30T04:34	10	5	0.2	5	6	355	0.3	354	355	10.5	93.9
2025-07-30T04:35	10	6	0.2	5	6	355	0.3	355	356	10.6	93.5
2025-07-30T04:36	10	6	0.2	6	6	355	0.2	355	356	10.6	93.4
2025-07-30T04:37	10	7	0.2	6	7	356	0.2	355	356	10.6	93.2
2025-07-30T04:38	10	7	0.1	7	7	357	0.4	356	358	10.6	93.2
2025-07-30T04:39	10	7	0.1	7	7	358	0.4	357	359	10.8	92.7
2025-07-30T04:40	10	7	0.2	7	8	359	0.3	358	359	10.8	92.4
2025-07-30T04:41	10	8	0.2	8	8	359	0.2	358	359	10.9	92.0
2025-07-30T04:42	10	9	0.2	8	9	359	0.3	358	360	10.8	92.1
2025-07-30T04:43	10	9	0.2	9	10	359	0.3	359	360	10.8	92.1
2025-07-30T04:44	10	10	0.1	9	10	360	0.2	359	360	10.9	91.6
2025-07-30T04:45	10	10	0.2	10	11	360	0.3	359	361	11.0	91.2
2025-07-30T04:46	10	11	0.2	10	11	360	0.3	359	361	11.0	91.3
2025-07-30T04:47	10	11	0.2	11	12	360	0.2	359	361	10.8	92.2
2025-07-30T04:48	10	12	0.1	12	12	360	0.2	360	361	10.8	92.5
2025-07-30T04:49	10	12	0.2	12	13	360	0.2	359	360	10.7	92.7
2025-07-30T04:50	10	13	0.2	13	13	360	0.2	360	361	10.6	92.8
2025-07-30T04:51	10	13	0.2	13	14	360	0.4	360	361	10.7	92.6
2025-07-30T04:52	10	14	0.2	14	14	361	0.3	360	362	10.9	91.6
2025-07-30T04:53	10	14	0.2	14	15	361	0.3	360	362	11.0	90.8
2025-07-30T04:54	10	15	0.2	15	15	361	0.3	361	362	11.1	90.2
2025-07-30T04:55	10	15	0.2	15	16	362	0.2	361	362	11.2	89.4
2025-07-30T04:56	10	16	0.2	16	17	362	0.2	362	363	11.3	88.9
2025-07-30T04:57	10	16	0.2	16	17	362	0.3	361	363	11.3	88.9
2025-07-30T04:58	10	17	0.2	17	17	363	0.2	362	363	11.4	87.9
2025-07-30T04:59	10	18	0.2	17	18	363	0.3	363	364	11.5	87.7
2025-07-30T05:00	10	18	0.2	18	19	364	0.2	363	364	11.5	87.8
2025-07-30T05:01	10	19	0.2	19	19	364	0.2	363	364	11.4	87.8
2025-07-30T05:02	10	20	0.2	19	20	364	0.2	363	365	11.5	87.2
2025-07-30T05:03	10	20	0.2	20	20	364	0.2	364	365	11.6	86.9
2025-07-30T05:04	10	21	0.2	20	21	365	0.2	364	366	11.6	87.2
2025-07-30T05:05	10	21	0.2	21	21	365	0.2	364	366	11.6	87.1
2025-07-30T05:06	10	22	0.2	21	22	366	0.2	365	366	11.6	87.5
2025-07-30T05:07	10	22	0.2	22	22	366	0.2	365	366	11.7	86.8
2025-07-30T05:08	10	23	0.2	22	23	367	0.2	366	367	11.8	86.1
2025-07-30T05:09	10	23	0.2	23	24	367	0.2	366	367	11.9	85.4
2025-07-30T05:10	10	24	0.2	24	25	367	0.2	366	367	11.9	85.6
2025-07-30T05:11	10	25	0.2	25	25	367	0.3	367	368	11.9	85.5
2025-07-30T05:12	10	25	0.2	25	26	368	0.2	367	368	12.0	85.7
2025-07-30T05:13	10	26	0.1	26	26	368	0.2	368	368	12.0	85.3
2025-07-30T05:14	10	27	0.2	26	27	369	0.2	368	369	12.1	84.3
2025-07-30T05:15	10	27	0.2	27	27	369	0.3	368	369	12.2	83.9
2025-07-30T05:16	10	28	0.2	27	28	369	0.2	368	369	12.2	84.4
2025-07-30T05:17	10	28	0.2	28	28	369	0.2	369	370	12.3	83.4
2025-07-30T05:18	10	29	0.2	28	29	369	0.2	369	370	12.3	83.4
2025-07-30T05:19	10	29	0.2	29	30	370	0.2	369	370	12.3	83.6
2025-07-30T05:20	10	30	0.2	30	30	370	0.2	370	371	12.3	83.8
2025-07-30T05:21	10	31	0.2	30	31	371	0.2	370	371	12.4	82.7
2025-07-30T05:22	10	31	0.2	31	32	371	0.2	370	371	12.5	82.1
2025-07-30T05:23	10	32	0.2	32	33	371	0.2	371	371	12.6	81.4
2025-07-30T05:24	10	33	0.2	32	33	371	0.2	371	372	12.6	82.3
2025-07-30T05:25	10	33	0.2	33	34	372	0.2	371	373	12.6	81.7
2025-07-30T05:26	10	34	0.1	34	34	372	0.2	371	372	12.6	82.4
2025-07-30T05:27	10	34	0.2	34	34	372	0.2	371	373	12.5	83.4
2025-07-30T05:28	10	35	0.4	35	37	372	0.2	371	373	12.4	85.5
2025-07-30T05:29	10	35	0.2	35	36	372	0.2	371	372	12.2	86.9
2025-07-30T05:30	10	36	0.1	36	36	372	0.2	372	373	12.1	87.2
2025-07-30T05:31	10	36	0.1	36	36	373	0.2	372	373	12.2	86.1
2025-07-30T05:32	10	37	0.1	36	37	372	0.2	372	373	12.2	85.3
2025-07-30T05:33	10	37	0.2	37	37	372	0.3	372	373	12.1	86.7
2025-07-30T05:34	10	37	0.1	37	38	372	0.2	372	373	11.9	87.8
2025-07-30T05:35	10	38	0.2	38	38	372	0.2	372	373	11.9	87.7
2025-07-30T05:36	10	38	0.2	38	39	373	0.2	372	373	11.8	88.3
2025-07-30T05:37	10	39	0.2	38	39	373	0.2	372	373	11.8	88.7
2025-07-30T05:38	10	39	0.2	39	40	373	0.2	372	373	11.8	87.8
2025-07-30T05:39	10	40	0.2	40	40	374	0.3	373	375	11.9	87.7
2025-07-30T05:40	10	41	0.2	40	41	374	0.2	373	374	11.9	87.5
2025-07-30T05:41	10	41	0.3	41	42	373	0.3	373	374	11.9	87.5
2025-07-30T05:42	10	42	0.2	42	42	374	0.2	373	374	11.9	87.0
2025-07-30T05:43	10	42	0.2	42	43	374	0.3	373	374	11.8	87.4
2025-07-30T05:44	10	43	0.2	43	44	374	0.3	373	375	11.9	87.4
2025-07-30T05:45	10	44	0.2	43	45	374	0.2	374	375	11.9	88.2
2025-07-30T05:46	10	45	0.2	44	45	375	0.3	374	375	11.8	88.0
2025-07-30T05:47	10	45	0.3	45	46	374	0.2	374	375	11.8	87.4
2025-07-30T05:48	10	46	0.2	46	46	374	0.3	374	375	11.8	87.1
2025-07-30T05:49	10	47	0.3	46	47	375	0.3	374	375	11.9	86.9
2025-07-30T05:50	10	47	0.2	47	48	375	0.4	375	376	12.0	87.1
2025-07-30T05:51	10	48	0.2	48	48	376	0.4	376	377	12.1	87.4
2025-07-30T05:52	10	48	0.2	48	49	377	0.3	376	378	12.2	86.8
2025-07-30T05:53	10	49	0.2	49	50	377	0.3	377	378	12.3	85.7
2025-07-30T05:54	10	50	0.2	49	50	378	0.4	377	379	12.4	87.4
2025-07-30T05:55	10	50	0.2	50	51	378	0.2	378	379	12.5	85.3
2025-07-30T05:56	10	51	0.2	51	52	378	0.2	378	379	12.5	85.2
2025-07-30T05:57	10	52	0.2	52	52	378	0.2	377	379	12.5	84.2
2025-07-30T05:58	10	53	0.2	52	53	378	0.3	377	379	12.5	84.1
2025-07-30T05:59	10	53	0.2	53	54	378	0.3	378	379	12.6	84.7
2025-07-30T06:00	10	54	0.2	53	54	379	0.3	378	380	12.7	84.6
2025-07-30T06:01	10	55	0.2	54	55	380	0.4	379	381	12.8	85.6
2025-07-30T06:02	10	55	0.2	55	56	381	0.3	380	381	12.9	86.3
2025-07-30T06:03	10	56	0.2	56	56	382	0.2	381	382	13.0	85.5
2025-07-30T06:04	10	57	0.2	56	57	382	0.4	381	382	13.0	82.6
2025-07-30T06:05	10	58	0.2	57	58	382	0.2	381	382	13.0	82.0
2025-07-30T06:06	10	58	0.2	58	59	381	0.3	381	382	13.1	81.6
2025-07-30T06:07	10	59	0.2	58	59	382	0.3	381	383	13.1	82.5
2025-07-30T06:08	10	59	0.2	59	60	383	0.4	382	384	13.2	83.1
2025-07-30T06:09	10	60	0.2	59	60	383	0.4	382	383	13.2	80.6
2025-07-30T06:10	10	60	0.2	60	61	382	0.3	382	383	13.2	80.4
2025-07-30T06:11	10	61	0.2	60	61	383	0.2	382	384	13.2	81.3
2025-07-30T06:12	10	61	0.1	61	61	383	0.3	382	383	13.1	81.0
2025-07-30T06:13	10	62	0.2	61	62	383	0.3	382	384	13.2	81.7
2025-07-30T06:14	10	62	0.2	62	63	383	0.3	383	384	13.2	80.8
2025-07-30T06:15	10	63	0.2	62	63	384	0.2	383	384	13.2	79.6
2025-07-30T06:16	10	63	0.2	63	64	384	0.3	384	385	13.4	80.6
2025-07-30T06:17	10	64	0.2	64	64	385	0.3	384	385	13.4	79.1
2025-07-30T06:18	10	65	0.2	64	65	385	0.3	384	386	13.4	79.0
2025-07-30T06:19	10	65	0.2	65	66	385	0.2	384	385	13.4	78.9
2025-07-30T06:20	10	66	0.2	65	66	386	0.3	385	386	13.5	80.5
2025-07-30T06:21	10	66	0.2	66	67	386	0.2	386	387	13.5	78.8
2025-07-30T06:22	10	67	0.2	67	67	387	0.3	386	387	13.6	78.7
2025-07-30T06:23	10	68	0.2	67	68	388	0.3	387	388	13.6	79.7
2025-07-30T06:24	10	68	0.2	68	68	389	0.3	388	389	13.7	80.3
2025-07-30T06:25	10	69	0.2	68	69	388	0.3	388	389	13.7	78.8
2025-07-30T06:26	10	70	0.2	69	70	389	0.2	388	389	13.7	78.3
2025-07-30T06:27	10	70	0.2	70	71	389	0.3	389	390	13.8	78.6
2025-07-30T06:28	10	71	0.2	71	71	390	0.4	389	391	13.8	79.3
2025-07-30T06:29	10	72	0.3	71	72	391	0.3	390	391	14.0	79.8
2025-07-30T06:30	10	72	0.2	72	73	391	0.3	390	392	14.0	79.1
2025-07-30T06:31	10	73	0.2	73	74	391	0.2	390	391	14.1	78.3
2025-07-30T06:32	10	74	0.2	74	74	391	0.3	391	392	14.1	77.7
2025-07-30T06:33	10	75	0.2	74	75	392	0.3	391	392	14.1	77.5
2025-07-30T06:34	10	75	0.2	75	76	392	0.4	391	393	14.2	77.8
2025-07-30T06:35	10	76	0.2	76	77	393	0.3	393	394	14.2	77.5
2025-07-30T06:36	10	77	0.3	76	77	394	0.3	393	394	14.3	77.4
2025-07-30T06:37	10	77	0.2	77	78	394	0.2	393	395	14.4	77.0
2025-07-30T06:38	10	78	0.2	77	78	394	0.3	394	395	14.4	77.0
2025-07-30T06:39	10	78	0.2	78	79	396	0.3	395	396	14.5	77.9
2025-07-30T06:40	10	79	0.3	78	79	395	0.4	395	396	14.6	76.5
2025-07-30T06:41	10	79	0.2	79	80	397	0.3	396	398	14.6	78.3
2025-07-30T06:42	10	80	0.3	79	80	397	0.3	397	398	14.8	78.1
2025-07-30T06:43	10	80	0.2	80	81	397	0.3	396	397	14.8	75.9
2025-07-30T06:44	10	81	0.1	81	81	397	0.3	396	398	14.8	74.8
2025-07-30T06:45	10	81	0.1	81	82	398	0.5	396	398	14.9	75.5
2025-07-30T06:46	10	82	0.2	81	82	399	0.4	398	399	15.0	75.4
2025-07-30T06:47	10	83	0.2	82	83	399	0.5	398	400	14.9	74.7
2025-07-30T06:48	10	83	0.2	83	83	399	0.3	398	400	15.0	74.4
2025-07-30T06:49	10	84	0.2	83	84	400	0.3	399	401	15.2	73.6
2025-07-30T06:50	10	83	1.4	80	84	400	0.4	399	400	15.2	72.8
2025-07-30T06:51	10	83	2.4	79	85	399	0.3	398	399	15.2	71.6
2025-07-30T06:52	10	85	0.2	85	86	399	0.4	398	400	15.2	71.3
2025-07-30T06:53	10	86	0.1	85	86	400	0.3	400	401	15.2	71.8
2025-07-30T06:54	10	86	0.1	86	86	401	0.3	400	401	15.3	71.8
2025-07-30T06:55	10	86	0.1	86	87	401	0.3	400	401	15.2	71.5
2025-07-30T06:56	10	87	0.2	86	87	401	0.3	401	402	15.3	71.4
2025-07-30T06:57	10	87	0.2	87	87	402	0.3	401	402	15.3	72.4
2025-07-30T06:58	10	88	0.1	87	88	402	0.2	402	402	15.2	72.9
2025-07-30T06:59	10	88	0.2	88	88	403	0.3	402	403	15.3	72.6
2025-07-30T07:00	10	88	0.2	88	89	403	0.4	403	404	15.4	72.5
2025-07-30T07:01	10	89	0.2	89	89	403	0.2	403	404	15.5	71.8
2025-07-30T07:02	10	89	0.2	89	90	403	0.3	403	404	15.6	71.0
2025-07-30T07:03	10	90	0.2	89	90	404	0.5	402	404	15.6	71.4
2025-07-30T07:04	10	90	0.2	90	91	404	0.3	403	405	15.5	72.4
2025-07-30T07:05	10	91	0.2	91	91	405	0.4	404	406	15.6	71.6
2025-07-30T07:06	10	91	0.2	91	92	406	0.2	405	406	15.7	71.4
2025-07-30T07:07	10	92	0.2	92	92	406	0.3	406	407	15.7	71.8
2025-07-30T07:08	10	92	0.2	92	93	407	0.4	406	408	15.8	72.7
2025-07-30T07:09	10	93	0.2	93	93	408	0.3	407	408	16.0	73.0
2025-07-30T07:10	10	94	0.2	93	94	408	0.6	407	409	15.9	73.1
2025-07-30T07:11	10	94	0.2	94	94	408	0.3	407	409	15.8	70.9
2025-07-30T07:12	10	95	0.2	94	95	408	0.4	407	409	15.9	71.4
2025-07-30T07:13	10	95	0.3	95	96	408	0.2	408	409	15.9	71.6
2025-07-30T07:14	10	93	3.4	87	96	409	0.7	408	411	15.8	72.4
2025-07-30T07:15	10	92	6.3	78	98	408	0.7	406	409	15.6	72.1
2025-07-30T07:16	10	75	8.1	61	83	405	1.0	403	407	15.6	72.1
2025-07-30T07:17	10	86	9.0	67	99	406	1.1	404	407	15.6	71.8
2025-07-30T07:18	10	97	2.0	92	99	408	0.7	406	409	15.7	71.8
2025-07-30T07:19	10	99	0.1	98	99	409	0.3	408	410	15.7	71.5
2025-07-30T07:20	10	99	0.2	98	99	409	0.2	409	410	15.8	71.6
2025-07-30T07:21	10	99	0.2	98	99	410	0.4	410	411	15.9	73.0
2025-07-30T07:22	10	99	0.2	99	100	410	0.2	409	410	15.8	73.5
2025-07-30T07:23	10	100	0.3	99	101	410	0.3	409	411	15.9	72.3
2025-07-30T07:24	10	101	0.2	100	101	411	0.3	410	411	15.8	72.1
2025-07-30T07:25	10	101	0.2	101	102	412	0.3	411	413	16.0	72.0
2025-07-30T07:26	10	102	0.2	101	102	413	0.3	412	413	16.2	71.1
2025-07-30T07:27	10	102	0.2	102	102	413	0.5	412	414	16.5	70.3
2025-07-30T07:28	10	103	0.2	102	103	414	0.2	414	414	16.6	69.6
2025-07-30T07:29	10	103	0.2	103	103	415	0.4	414	415	16.4	70.9
2025-07-30T07:30	10	104	0.2	103	104	416	0.5	414	417	16.6	71.1
2025-07-30T07:31	10	104	0.2	104	105	415	0.3	414	415	16.6	70.3
2025-07-30T07:32	10	105	0.1	105	105	415	0.3	414	416	16.9	70.9
2025-07-30T07:33	10	105	0.2	105	106	416	0.3	416	417	17.0	70.3
2025-07-30T07:34	10	106	0.2	106	107	415	0.6	414	416	16.9	65.2
2025-07-30T07:35	10	107	0.2	107	108	415	0.4	414	416	16.6	65.9
2025-07-30T07:36	10	108	0.3	108	109	415	0.4	415	416	16.6	66.0
2025-07-30T07:37	10	109	0.4	109	110	416	0.4	416	417	16.6	66.9
2025-07-30T07:38	10	110	0.8	107	111	416	0.4	415	417	16.6	66.7
2025-07-30T07:39	10	100	5.5	90	107	416	0.5	414	417	16.7	66.0
2025-07-30T07:40	10	104	1.5	101	106	417	0.4	416	417	16.9	67.1
2025-07-30T07:41	10	113	3.9	102	116	418	0.7	416	419	16.7	66.2
2025-07-30T07:42	10	115	0.1	115	115	419	0.4	418	420	16.9	64.6
2025-07-30T07:43	10	116	0.3	115	116	420	0.6	419	422	16.9	65.7
2025-07-30T07:44	10	117	0.3	116	117	421	0.5	420	422	17.1	65.4
2025-07-30T07:45	10	118	0.3	117	118	421	0.5	420	422	17.0	65.2
2025-07-30T07:46	10	117	1.3	114	118	422	0.2	421	422	17.1	65.1
2025-07-30T07:47	10	119	0.6	117	119	422	0.4	421	423	17.2	65.2
2025-07-30T07:48	10	112	3.0	108	117	423	0.3	422	423	17.2	65.6
2025-07-30T07:49	10	98	8.9	86	109	421	1.3	419	423	17.3	65.3
2025-07-30T07:50	10	101	5.0	89	109	420	0.4	419	421	17.3	64.8
2025-07-30T07:51	10	104	3.9	99	111	420	0.8	419	422	17.4	64.6
2025-07-30T07:52	10	95	3.3	89	100	418	0.7	417	420	17.5	63.0
2025-07-30T07:53	10	99	4.0	93	106	419	0.4	419	420	17.5	64.3
2025-07-30T07:54	10	99	5.3	93	115	419	0.8	418	421	17.5	62.6
2025-07-30T07:55	10	116	15.8	90	134	423	1.4	421	425	17.7	64.2
2025-07-30T07:56	10	86	7.0	77	96	420	1.5	418	422	17.7	63.0
2025-07-30T07:57	10	77	0.5	76	78	417	0.6	416	419	17.6	63.0
2025-07-30T07:58	10	89	4.7	78	93	418	0.9	417	420	17.5	62.6
2025-07-30T07:59	10	92	1.1	90	95	420	0.5	419	421	17.5	64.0
2025-07-30T08:00	10	94	2.7	89	97	421	0.2	420	421	17.7	65.4
2025-07-30T08:01	10	88	1.6	85	91	421	0.3	420	421	17.7	63.6
2025-07-30T08:02	10	84	5.7	78	96	420	0.3	419	421	17.8	63.8
2025-07-30T08:03	10	88	3.3	83	95	420	0.4	419	420	17.6	63.2
2025-07-30T08:04	10	86	4.8	79	92	419	0.4	418	420	17.6	63.6
2025-07-30T08:05	10	90	0.9	88	92	418	0.4	417	419	17.6	62.4
2025-07-30T08:06	10	87	2.0	84	90	419	0.3	418	420	17.5	62.1
2025-07-30T08:07	10	98	8.0	89	113	420	1.2	419	423	17.5	62.4
2025-07-30T08:08	10	101	4.3	97	112	423	0.3	422	423	17.8	62.0
2025-07-30T08:09	10	93	12.8	76	113	423	1.0	421	425	17.9	63.1
2025-07-30T08:10	10	86	17.8	62	109	423	2.1	418	425	18.0	61.7
2025-07-30T08:11	10	100	23.4	62	126	421	2.3	418	425	17.9	60.2
2025-07-30T08:12	10	107	10.8	90	123	426	0.5	424	427	18.0	60.6
2025-07-30T08:13	10	118	13.2	96	135	426	1.0	425	428	18.1	61.8
2025-07-30T08:14	10	126	5.5	116	134	428	0.5	427	429	18.1	59.5
2025-07-30T08:15	10	134	8.0	121	141	429	1.6	427	431	18.0	60.1
2025-07-30T08:16	10	139	1.9	137	143	431	0.5	431	432	18.2	61.1
2025-07-30T08:17	10	144	1.7	141	148	433	1.1	431	435	18.2	61.3
2025-07-30T08:18	10	122	14.5	98	141	432	2.7	427	435	18.2	61.5
2025-07-30T08:19	10	112	12.1	97	134	427	0.8	426	429	18.0	60.5
2025-07-30T08:20	10	127	5.2	120	136	430	0.5	429	431	18.0	60.8
2025-07-30T08:21	10	124	5.2	118	131	430	0.9	429	432	18.0	62.2
2025-07-30T08:22	10	127	5.8	116	133	432	0.4	431	433	18.4	62.6
2025-07-30T08:23	10	126	3.6	117	131	432	0.6	431	434	18.5	61.2
2025-07-30T08:24	10	121	3.6	115	125	432	0.3	431	433	18.2	60.9
2025-07-30T08:25	10	108	2.9	104	116	431	0.9	429	432	18.3	61.7
2025-07-30T08:26	10	91	6.5	82	103	428	1.6	425	430	18.2	60.4
2025-07-30T08:27	10	88	6.2	82	99	426	0.4	425	427	18.1	61.1
2025-07-30T08:28	10	107	5.1	99	114	429	1.2	427	431	18.2	62.9
2025-07-30T08:29	10	104	2.6	101	112	430	0.4	429	430	18.5	61.6
2025-07-30T08:30	10	92	2.7	90	100	429	0.6	428	430	18.6	62.0
2025-07-30T08:31	10	85	4.0	78	90	428	0.8	426	429	18.8	61.3
2025-07-30T08:32	10	74	1.6	72	78	425	0.9	423	427	18.7	60.6
2025-07-30T08:33	10	73	0.9	72	75	423	0.4	423	425	18.5	60.5
2025-07-30T08:34	10	74	0.4	73	75	423	0.3	422	424	18.4	59.1
2025-07-30T08:35	10	74	1.6	71	77	424	0.3	423	424	18.4	59.8
2025-07-30T08:36	10	73	0.5	71	73	423	0.4	422	424	18.6	62.4
2025-07-30T08:37	10	79	3.2	73	84	423	0.4	422	424	18.6	60.4
2025-07-30T08:38	10	94	5.6	84	102	425	1.3	423	427	18.6	60.1
2025-07-30T08:39	10	108	5.6	100	116	429	1.2	427	431	18.6	60.7
2025-07-30T08:40	10	113	4.2	107	123	432	1.1	430	434	18.8	60.1
2025-07-30T08:41	10	130	6.1	122	139	435	1.0	433	436	18.9	61.5
2025-07-30T08:42	10	128	5.3	121	139	436	0.4	436	437	19.0	58.8
2025-07-30T08:43	10	118	5.8	107	127	436	0.7	435	437	19.1	59.2
2025-07-30T08:44	10	107	2.6	105	115	434	0.5	433	435	19.1	59.8
2025-07-30T08:45	10	123	7.2	111	135	435	1.1	433	437	19.1	58.4
2025-07-30T08:46	10	131	5.1	121	140	438	0.9	436	440	19.2	59.0
2025-07-30T08:47	10	148	8.8	131	163	441	1.1	438	442	19.2	58.9
2025-07-30T08:48	10	127	17.2	106	157	440	2.2	436	443	18.8	58.5
2025-07-30T08:49	10	104	1.6	102	107	435	1.1	434	437	18.8	59.2
2025-07-30T08:50	10	116	9.9	107	137	434	0.7	433	435	18.6	59.3
2025-07-30T08:51	10	117	8.7	104	134	435	0.9	433	436	18.6	59.5
2025-07-30T08:52	10	110	7.9	100	125	435	1.1	433	437	18.6	59.3
2025-07-30T08:53	10	89	3.1	85	99	434	1.2	432	436	18.9	60.7
2025-07-30T08:54	10	85	0.7	85	87	431	0.8	430	433	19.3	60.0
2025-07-30T08:55	10	92	3.3	88	102	431	0.3	430	431	19.3	56.2
2025-07-30T08:56	10	93	5.6	88	104	431	0.6	430	432	19.3	55.5
2025-07-30T08:57	10	91	3.1	87	95	431	0.3	430	431	19.3	56.7
2025-07-30T08:58	10	98	6.5	92	112	432	0.6	431	433	19.3	56.3
2025-07-30T08:59	10	90	2.3	87	94	432	0.4	431	433	19.1	56.3
2025-07-30T09:00	10	86	0.4	86	87	431	0.3	431	432	19.0	56.4
2025-07-30T09:01	10	111	22.9	87	155	432	2.5	429	437	19.0	56.9
2025-07-30T09:02	10	93	9.9	85	122	433	2.2	430	437	19.2	57.1
2025-07-30T09:03	10	85	0.3	84	86	431	0.3	430	432	19.3	57.4
2025-07-30T09:04	10	87	2.1	85	93	431	0.2	431	432	19.5	57.2
2025-07-30T09:05	10	97	4.8	92	106	432	0.7	431	434	19.4	56.5
2025-07-30T09:06	10	104	3.2	96	109	432	0.7	431	434	19.1	56.6
2025-07-30T09:07	10	91	1.5	89	95	431	0.6	430	433	19.0	57.0
2025-07-30T09:08	10	88	1.0	86	90	431	0.2	430	431	19.1	56.7
2025-07-30T09:09	10	83	1.1	81	86	430	0.5	429	431	19.1	56.5
2025-07-30T09:10	10	80	0.7	79	82	430	0.3	429	430	19.1	56.5
2025-07-30T09:11	10	80	0.3	79	80	429	0.6	428	430	19.4	56.6
2025-07-30T09:12	10	80	0.6	79	81	428	0.5	428	429	19.3	55.5
2025-07-30T09:13	10	79	0.1	79	79	428	0.2	427	428	19.3	55.4
2025-07-30T09:14	10	79	0.4	78	79	428	0.3	427	429	19.3	55.0
2025-07-30T09:15	10	81	2.6	78	89	429	0.5	428	430	19.4	55.7
2025-07-30T09:16	10	87	5.9	82	99	431	0.5	430	432	19.6	57.2
2025-07-30T09:17	10	94	5.6	84	104	433	1.1	431	434	19.7	55.2
2025-07-30T09:18	10	84	0.5	83	85	432	0.4	431	433	19.8	55.0
2025-07-30T09:19	10	96	8.4	85	111	433	1.3	432	436	19.9	55.3
2025-07-30T09:20	10	125	20.0	108	180	438	1.6	435	443	20.0	54.5
2025-07-30T09:21	10	170	28.0	135	218	447	3.0	442	455	19.9	54.8
2025-07-30T09:22	10	215	4.0	206	220	457	2.0	453	461	20.2	55.4
2025-07-30T09:23	10	220	2.0	217	224	460	0.6	459	462	20.2	53.2
2025-07-30T09:24	10	178	26.0	138	220	459	3.2	452	463	20.2	53.5
2025-07-30T09:25	10	146	4.7	140	156	451	1.0	450	455	20.1	52.5
2025-07-30T09:26	10	161	10.6	145	176	451	0.8	450	453	20.0	52.8
2025-07-30T09:27	10	132	11.5	114	150	449	1.9	445	452	19.9	52.7
2025-07-30T09:28	10	109	4.3	103	115	444	1.7	441	447	20.0	52.1
2025-07-30T09:29	10	105	4.5	102	117	442	0.4	441	443	20.2	51.6
2025-07-30T09:30	10	105	4.1	101	114	441	0.6	440	443	20.1	53.8
2025-07-30T09:31	10	150	22.4	114	185	448	4.4	442	454	20.1	53.1
2025-07-30T09:32	10	118	4.4	114	133	449	1.8	446	452	20.2	54.1
2025-07-30T09:33	10	124	5.8	117	139	448	0.7	447	450	20.3	54.4
2025-07-30T09:34	10	143	10.2	130	162	451	1.5	449	454	20.5	54.0
2025-07-30T09:35	10	139	11.1	125	162	449	1.8	447	453	20.6	53.3
2025-07-30T09:36	10	134	10.7	123	157	448	0.7	446	449	20.2	52.2
2025-07-30T09:37	10	123	2.8	116	125	447	0.8	445	448	20.2	52.7
2025-07-30T09:38	10	113	1.7	110	116	445	0.5	443	446	20.3	52.5
2025-07-30T09:39	10	110	2.4	108	117	442	0.9	440	444	20.2	52.2
2025-07-30T09:40	10	127	3.4	118	134	445	1.6	442	447	20.1	52.6
2025-07-30T09:41	10	145	16.1	133	183	449	1.6	446	452	20.2	53.2
2025-07-30T09:42	10	141	9.0	133	161	448	1.3	446	450	20.2	53.2
2025-07-30T09:43	10	125	2.7	122	133	444	1.4	442	447	20.2	53.2
2025-07-30T09:44	10	136	3.7	129	144	444	1.3	442	446	19.3	53.2
2025-07-30T09:45	10	134	1.9	127	136	447	0.6	445	448	20.2	53.2
2025-07-30T09:46	10	143	14.2	125	180	446	1.0	445	449	20.2	53.2
2025-07-30T09:47	10	178	8.7	166	197	453	3.0	447	457	20.2	53.2
2025-07-30T09:48	10	197	6.2	186	208	460	1.6	455	462	20.2	53.2
2025-07-30T09:49	10	196	7.3	187	210	461	0.7	460	463	20.6	52.9
2025-07-30T09:50	10	207	2.0	203	209	465	1.0	463	466	20.5	53.0
2025-07-30T09:51	10	190	16.1	160	210	465	1.7	462	467	20.5	53.9
2025-07-30T09:52	10	159	33.0	119	210	460	5.4	452	467	20.6	52.3
2025-07-30T09:53	10	133	7.9	122	148	453	1.1	451	455	20.6	51.5
2025-07-30T09:54	10	110	12.5	96	144	448	3.0	444	454	20.5	50.5
2025-07-30T09:55	10	149	39.0	102	208	450	4.1	444	456	20.2	50.1
2025-07-30T09:56	10	136	20.3	108	171	450	1.3	448	453	20.1	52.1
2025-07-30T09:57	10	157	28.3	100	189	455	2.4	451	459	20.1	51.6
2025-07-30T09:58	10	152	30.1	87	187	454	3.5	449	461	20.2	51.3
2025-07-30T09:59	10	168	19.3	122	186	461	1.1	458	462	20.6	53.3
2025-07-30T10:00	10	160	28.3	100	185	458	2.2	454	461	20.7	53.0
2025-07-30T10:01	10	181	1.5	177	184	459	0.8	457	460	20.5	56.3
2025-07-30T10:02	10	127	61.9	46	181	453	7.1	439	459	20.1	56.9
2025-07-30T10:03	10	51	3.2	48	59	436	3.5	431	444	19.9	55.6
2025-07-30T10:04	10	51	1.4	50	55	430	0.9	429	432	19.9	55.1
2025-07-30T10:05	10	89	33.1	55	159	433	4.4	429	444	19.9	55.3
2025-07-30T10:06	10	159	23.7	115	186	451	4.2	441	455	20.2	54.9
2025-07-30T10:07	10	120	24.3	84	154	453	2.2	447	455	20.6	53.8
2025-07-30T10:08	10	101	13.9	83	127	445	1.4	442	448	20.3	56.4
2025-07-30T10:09	10	92	12.6	78	117	442	0.9	440	443	20.0	60.8
2025-07-30T10:10	10	104	12.9	90	131	441	1.1	439	442	20.2	62.4
2025-07-30T10:11	10	107	21.0	84	145	438	1.8	436	442	19.8	63.5
2025-07-30T10:12	10	84	8.9	77	110	437	1.2	436	440	19.5	64.8
2025-07-30T10:13	10	105	21.8	80	145	440	1.9	436	443	19.7	64.3
2025-07-30T10:14	10	100	10.1	80	115	438	1.2	436	440	19.6	62.8
2025-07-30T10:15	10	109	7.9	99	128	440	1.7	437	444	19.7	62.4
2025-07-30T10:16	10	158	16.4	130	183	450	3.8	441	454	20.3	62.0
2025-07-30T10:17	10	139	27.9	109	185	450	2.1	446	453	20.0	60.5
2025-07-30T10:18	10	154	28.7	104	196	454	2.3	448	457	20.4	61.7
2025-07-30T10:19	10	85	22.1	62	135	446	4.0	440	452	20.4	60.8
2025-07-30T10:20	10	57	2.4	54	62	439	1.4	436	442	20.4	61.8
2025-07-30T10:21	10	52	1.1	50	54	434	1.5	432	437	20.7	61.8
2025-07-30T10:22	10	48	1.0	47	50	429	2.0	427	433	20.1	61.2
2025-07-30T10:23	10	46	1.0	44	47	426	1.0	424	428	19.8	61.0
2025-07-30T10:24	10	42	1.0	40	44	424	0.3	423	425	19.7	61.6
2025-07-30T10:25	10	39	0.9	37	40	422	1.0	420	424	19.8	61.0
2025-07-30T10:26	10	36	0.5	35	37	421	0.4	420	422	19.7	61.0
2025-07-30T10:27	10	35	0.1	35	36	422	0.4	421	423	19.9	61.3
2025-07-30T10:28	10	36	0.4	36	37	420	0.9	419	422	19.9	60.2
2025-07-30T10:29	10	38	0.6	37	39	419	0.6	419	421	19.8	59.9
2025-07-30T10:30	10	40	1.0	39	42	422	1.1	420	424	19.8	59.9
2025-07-30T10:31	10	44	0.9	42	45	423	0.6	422	425	19.9	59.8
2025-07-30T10:32	10	47	0.7	45	48	423	0.4	422	424	19.9	59.4
2025-07-30T10:33	10	48	0.6	47	49	422	0.3	422	423	19.8	59.5
2025-07-30T10:34	10	46	0.6	46	48	421	0.3	421	422	19.7	59.7
2025-07-30T10:35	10	46	1.5	43	48	421	0.3	420	422	19.8	58.9
2025-07-30T10:36	10	47	5.8	41	57	421	1.0	420	424	19.7	59.2
2025-07-30T10:37	10	53	2.1	49	59	423	0.3	423	424	19.8	56.6
2025-07-30T10:38	10	139	44.4	60	180	434	9.2	422	450	19.8	56.4
2025-07-30T10:39	10	176	0.6	175	177	452	2.9	446	456	20.0	56.3
2025-07-30T10:40	10	176	0.7	175	178	453	15.8	347	459	20.3	56.5
2025-07-30T10:41	10	178	0.2	177	178	460	1.0	458	462	20.4	55.7
2025-07-30T10:42	10	180	1.7	178	183	462	0.9	461	464	20.5	56.0
2025-07-30T10:43	10	182	0.4	181	183	463	0.7	462	464	20.5	57.2
2025-07-30T10:44	10	187	1.8	184	192	464	0.8	462	465	20.6	56.2
2025-07-30T10:45	10	178	12.2	151	194	465	1.0	462	466	20.6	53.5
2025-07-30T10:46	10	141	14.3	120	174	457	3.0	453	464	20.4	52.0
2025-07-30T10:47	10	189	8.0	173	202	463	2.5	458	466	20.5	51.7
2025-07-30T10:48	10	174	20.1	150	210	465	1.8	461	467	20.6	51.6
2025-07-30T10:49	10	127	9.1	111	148	461	2.7	457	467	20.9	51.8
2025-07-30T10:50	10	133	12.5	117	155	455	2.4	452	459	20.8	49.8
2025-07-30T10:51	10	162	27.5	128	202	454	2.4	450	458	20.6	49.6
2025-07-30T10:52	10	119	6.6	108	129	453	1.6	449	456	20.6	50.2
2025-07-30T10:53	10	104	8.8	96	124	449	1.3	447	451	20.6	49.9
2025-07-30T10:54	10	98	6.2	92	112	448	0.3	447	449	20.6	50.6
2025-07-30T10:55	10	92	6.3	82	103	448	0.8	446	449	20.9	51.6
2025-07-30T10:56	10	91	8.1	79	103	447	0.4	446	447	21.1	51.7
2025-07-30T10:57	10	65	7.5	56	79	443	2.1	439	447	21.1	51.1
2025-07-30T10:58	10	53	1.8	50	56	438	1.6	434	440	21.0	50.8
2025-07-30T10:59	10	48	1.6	45	50	431	1.6	430	435	20.8	50.9
2025-07-30T11:00	10	43	1.3	41	45	430	0.6	429	431	20.8	51.3
2025-07-30T11:01	10	38	1.3	36	41	427	1.1	425	429	20.6	50.5
2025-07-30T11:02	10	34	1.2	32	36	425	0.4	424	425	20.6	50.1
2025-07-30T11:03	10	30	1.1	28	32	423	1.0	421	425	20.8	49.7
2025-07-30T11:04	10	27	1.0	25	29	419	1.3	418	422	20.4	49.8
2025-07-30T11:05	10	24	0.8	23	25	417	0.6	416	418	20.3	50.7
2025-07-30T11:06	10	21	0.7	20	23	416	0.4	415	417	20.2	51.0
2025-07-30T11:07	10	19	0.5	19	20	415	0.2	414	415	20.2	51.5
2025-07-30T11:08	10	18	0.4	17	19	414	0.3	413	414	20.1	51.7
2025-07-30T11:09	10	17	0.3	16	17	413	0.3	413	414	20.1	53.1
2025-07-30T11:10	10	16	0.2	15	16	413	0.3	412	414	19.9	54.4
2025-07-30T11:11	10	15	0.2	15	15	412	0.3	412	413	19.8	55.7
2025-07-30T11:12	10	14	0.2	14	15	412	0.3	411	413	19.7	55.4
2025-07-30T11:13	10	14	0.2	13	14	411	0.2	411	412	19.7	55.9
2025-07-30T11:14	10	13	0.1	13	14	411	0.3	410	412	19.7	55.7
2025-07-30T11:15	10	13	0.1	13	13	411	0.2	410	411	19.6	56.5
2025-07-30T11:16	10	13	0.1	13	13	411	0.3	410	411	19.7	56.8
2025-07-30T11:17	10	13	0.1	13	13	411	0.5	410	412	19.7	57.3
2025-07-30T11:18	10	13	0.1	13	13	411	0.3	411	412	19.7	57.8
2025-07-30T11:19	10	13	0.1	13	13	411	0.3	411	412	19.7	58.0
2025-07-30T11:20	10	13	0.1	13	14	411	0.2	411	412	19.6	58.2
2025-07-30T11:21	10	14	0.1	13	14	411	0.3	411	412	19.7	57.7
2025-07-30T11:22	10	14	0.1	13	14	411	0.3	410	412	19.6	56.9
2025-07-30T11:23	10	14	0.1	14	14	410	0.3	410	411	19.6	56.3
2025-07-30T11:24	10	14	0.1	14	14	410	0.3	409	411	19.5	56.0
2025-07-30T11:25	10	14	0.1	14	14	410	0.3	409	410	19.5	56.8
2025-07-30T11:26	10	14	0.2	14	14	410	0.2	409	410	19.5	57.0
2025-07-30T11:27	10	14	0.2	14	15	410	0.4	409	411	19.6	57.2
2025-07-30T11:28	10	14	0.2	14	15	410	0.3	409	411	19.6	57.2
2025-07-30T11:29	10	15	0.2	14	15	410	0.4	410	411	19.6	57.9
2025-07-30T11:30	10	15	0.2	15	15	411	0.3	410	411	19.6	57.9
2025-07-30T11:31	10	15	0.2	15	16	411	0.3	410	411	19.6	57.9
2025-07-30T11:32	10	16	0.2	15	16	411	0.3	410	411	19.6	58.4
2025-07-30T11:33	10	16	0.1	16	16	411	0.4	410	412	19.6	58.0
2025-07-30T11:34	10	16	0.2	16	17	411	0.5	410	412	19.6	58.1
2025-07-30T11:35	10	17	0.2	16	17	411	0.2	411	412	19.6	57.2
2025-07-30T11:36	10	17	0.2	16	17	411	0.3	410	412	19.5	57.3
2025-07-30T11:37	10	17	0.1	16	17	411	0.2	411	412	19.5	58.0
2025-07-30T11:38	10	17	0.1	17	17	412	0.2	411	412	19.5	58.2
2025-07-30T11:39	10	17	0.1	17	17	412	0.2	411	412	19.5	57.8
2025-07-30T11:40	10	17	0.1	17	17	412	0.3	411	412	19.5	57.5
2025-07-30T11:41	10	17	0.1	17	18	412	0.2	411	412	19.6	58.0
2025-07-30T11:42	10	17	0.1	17	18	411	0.2	410	412	19.5	58.2
2025-07-30T11:43	10	18	0.1	18	18	411	0.2	411	412	19.6	57.5
2025-07-30T11:44	10	18	0.2	18	18	411	0.2	411	412	19.5	56.5
2025-07-30T11:45	10	18	0.2	18	19	411	0.1	411	412	19.6	56.1
2025-07-30T11:46	10	19	0.2	19	19	411	0.2	410	411	19.5	56.0
2025-07-30T11:47	10	20	0.2	19	20	411	0.2	410	411	19.5	56.0
2025-07-30T11:48	10	20	0.2	20	21	411	0.4	411	412	19.6	56.8
2025-07-30T11:49	10	21	0.2	21	21	412	0.2	412	412	19.6	57.5
2025-07-30T11:50	10	21	0.1	21	22	412	0.3	412	413	19.6	57.5
2025-07-30T11:51	10	22	0.1	22	22	412	0.3	412	413	19.6	55.7
2025-07-30T11:52	10	22	0.1	22	22	412	0.3	412	413	19.6	55.6
2025-07-30T11:53	10	23	0.2	22	23	412	0.3	412	413	19.7	54.0
2025-07-30T11:54	10	23	0.1	23	23	412	0.3	411	413	19.7	54.2
2025-07-30T11:55	10	23	0.1	23	23	413	0.3	412	413	19.7	55.6
2025-07-30T11:56	10	23	0.1	23	24	414	0.3	413	414	19.7	54.6
2025-07-30T11:57	10	24	0.1	23	24	413	0.4	412	413	19.7	53.7
2025-07-30T11:58	10	24	0.1	23	24	412	0.2	412	413	19.7	52.6
2025-07-30T11:59	10	23	0.1	23	24	412	0.3	411	412	19.7	52.6
2025-07-30T12:00	10	23	0.1	23	23	412	0.2	411	412	19.7	53.0
2025-07-30T12:01	10	23	0.1	23	23	412	0.3	411	412	19.7	53.7
2025-07-30T12:02	10	22	0.1	22	23	412	0.3	412	413	19.8	53.6
2025-07-30T12:03	10	22	0.1	22	22	412	0.4	412	413	19.8	53.3
2025-07-30T12:04	10	22	0.1	22	22	412	0.2	412	413	19.8	53.7
2025-07-30T12:05	10	22	0.1	22	22	412	0.2	411	412	19.8	53.0
2025-07-30T12:06	10	22	0.1	21	22	412	0.2	412	413	19.8	53.6
2025-07-30T12:07	10	21	0.1	21	22	412	0.6	411	413	19.8	52.3
2025-07-30T12:08	10	21	0.1	21	21	411	0.2	410	411	19.7	52.6
2025-07-30T12:09	10	21	0.1	20	21	411	0.3	411	412	19.8	53.3
2025-07-30T12:10	10	20	0.1	20	21	411	0.2	410	411	19.8	52.8
2025-07-30T12:11	10	20	0.1	20	20	411	0.5	410	412	19.8	52.7
2025-07-30T12:12	10	20	0.1	20	20	410	0.3	410	411	19.8	52.2
2025-07-30T12:13	10	20	0.1	19	20	410	0.3	410	411	19.7	52.3
2025-07-30T12:14	10	20	0.1	19	20	410	0.2	410	411	19.7	52.8
2025-07-30T12:15	10	20	0.1	19	20	410	0.3	410	411	19.8	52.9
2025-07-30T12:16	10	20	0.1	19	20	411	0.3	410	412	19.7	52.5
2025-07-30T12:17	10	20	0.1	19	20	411	0.2	411	412	19.7	53.1
2025-07-30T12:18	10	20	0.1	20	20	411	0.3	410	412	19.7	52.6
2025-07-30T12:19	10	20	0.1	20	20	410	0.4	410	411	19.7	52.6
2025-07-30T12:20	10	20	0.1	20	20	410	0.3	409	411	19.7	52.6
2025-07-30T12:21	10	21	0.1	20	21	410	0.2	410	411	19.7	52.9
2025-07-30T12:22	10	21	0.1	21	21	410	0.2	410	411	19.7	53.1
2025-07-30T12:23	10	21	0.1	21	21	410	0.3	410	411	19.8	53.2
2025-07-30T12:24	10	21	0.1	21	22	411	0.2	410	411	19.8	53.0
2025-07-30T12:25	10	22	0.1	22	22	411	0.2	410	411	19.7	52.8
2025-07-30T12:26	10	22	0.1	22	23	411	0.3	411	412	19.8	53.2
2025-07-30T12:27	10	23	0.1	22	23	411	0.2	411	412	19.7	52.9
2025-07-30T12:28	10	23	0.1	23	23	412	0.3	411	412	19.7	53.1
2025-07-30T12:29	10	23	0.1	23	23	412	0.3	411	412	19.8	53.4
2025-07-30T12:30	10	23	0.1	23	23	412	0.3	411	412	19.7	53.2
2025-07-30T12:31	10	23	0.1	23	24	412	0.3	411	412	19.7	53.4
2025-07-30T12:32	10	23	0.1	23	24	413	0.3	412	413	19.7	53.9
2025-07-30T12:33	10	24	0.1	23	24	413	0.3	412	413	19.8	53.9
2025-07-30T12:34	10	24	0.1	24	24	413	0.2	412	414	19.7	53.7
2025-07-30T12:35	10	24	0.1	24	24	413	0.2	412	413	19.8	53.9
2025-07-30T12:36	10	24	0.1	24	25	413	0.3	412	413	19.8	53.9
2025-07-30T12:37	10	25	0.1	24	25	413	0.3	412	414	19.8	54.4
2025-07-30T12:38	10	25	0.1	25	25	413	0.3	412	413	19.8	53.6
2025-07-30T12:39	10	25	0.1	25	25	413	0.2	413	414	19.8	54.1
2025-07-30T12:40	10	25	0.1	25	25	414	0.3	413	415	19.8	54.7
2025-07-30T12:41	10	25	0.1	25	26	414	0.3	413	415	19.8	54.3
2025-07-30T12:42	10	25	0.1	25	26	414	0.3	413	414	19.8	53.8
2025-07-30T12:43	10	26	0.1	25	26	414	0.3	413	414	19.8	53.6
2025-07-30T12:44	10	25	0.1	25	26	414	0.3	413	414	19.8	53.5
2025-07-30T12:45	10	26	0.1	25	26	414	0.3	413	415	19.8	54.0
2025-07-30T12:46	10	26	0.1	26	26	414	0.2	414	415	19.8	53.9
2025-07-30T12:47	10	26	0.1	26	26	414	0.2	413	415	19.8	54.6
2025-07-30T12:48	10	26	0.1	26	27	414	0.2	414	414	19.8	53.6
2025-07-30T12:49	10	27	0.2	26	27	415	0.4	414	415	19.8	53.8
2025-07-30T12:50	10	27	0.2	27	28	416	0.3	415	416	19.9	54.3
2025-07-30T12:51	10	28	0.3	28	29	416	0.3	415	416	19.9	54.4
2025-07-30T12:52	10	29	0.2	28	29	416	0.2	415	416	19.9	53.8
2025-07-30T12:53	10	29	0.2	29	30	416	0.3	415	416	19.9	53.4
2025-07-30T12:54	10	30	0.1	30	30	416	0.2	415	416	19.9	53.2
2025-07-30T12:55	10	30	0.1	30	31	416	0.3	415	416	19.9	52.4
2025-07-30T12:56	10	31	0.1	30	31	416	0.2	416	417	19.8	53.2
2025-07-30T12:57	10	31	0.1	31	31	416	0.2	416	417	19.8	53.8
2025-07-30T12:58	10	31	0.1	31	31	416	0.3	416	417	19.8	53.7
2025-07-30T12:59	10	31	0.1	31	31	417	0.4	416	418	19.8	54.3
2025-07-30T13:00	10	31	0.1	31	32	417	0.5	416	418	19.9	53.4
2025-07-30T13:01	10	32	0.1	31	32	417	0.3	416	417	19.9	53.0
2025-07-30T13:02	10	32	0.1	32	32	417	0.2	417	418	19.9	53.1
2025-07-30T13:03	10	32	0.2	32	33	417	0.3	417	418	19.9	53.2
2025-07-30T13:04	10	33	0.2	33	33	417	0.3	417	418	19.9	52.7
2025-07-30T13:05	10	34	0.2	33	34	417	0.3	417	418	19.9	52.1
2025-07-30T13:06	10	34	0.2	34	35	418	0.2	417	418	19.9	52.6
2025-07-30T13:07	10	35	0.2	34	35	418	0.3	418	419	19.9	52.7
2025-07-30T13:08	10	35	0.2	35	36	418	0.3	417	418	19.9	51.9
2025-07-30T13:09	10	36	0.2	35	36	418	0.3	418	419	20.0	52.4
2025-07-30T13:10	10	36	0.2	36	37	418	0.4	417	419	19.9	51.3
2025-07-30T13:11	10	37	0.2	37	37	419	0.4	418	419	19.9	51.4
2025-07-30T13:12	10	37	0.1	37	38	419	0.3	419	420	20.0	53.1
2025-07-30T13:13	10	38	0.1	38	38	420	0.3	419	421	20.0	54.8
2025-07-30T13:14	10	38	0.1	38	38	420	0.2	419	420	20.0	55.1
2025-07-30T13:15	10	38	0.1	38	38	419	0.4	419	421	20.0	55.5
2025-07-30T13:16	10	38	0.1	38	38	420	0.2	419	420	20.0	54.9
2025-07-30T13:17	10	38	0.1	38	39	419	0.3	418	420	20.0	52.2
2025-07-30T13:18	10	39	0.1	38	39	419	0.2	418	419	20.0	53.5
2025-07-30T13:19	10	39	0.1	39	39	419	0.2	419	420	20.0	53.4
2025-07-30T13:20	10	39	0.1	39	39	420	0.3	419	420	20.0	55.8
2025-07-30T13:21	10	39	0.1	39	40	419	0.4	418	420	20.0	54.4
2025-07-30T13:22	10	40	0.1	39	40	418	0.3	418	419	19.9	52.2
2025-07-30T13:23	10	39	0.1	39	40	418	0.2	418	419	19.9	52.5
2025-07-30T13:24	10	39	0.2	39	39	418	0.3	417	419	19.9	53.2
2025-07-30T13:25	10	39	0.2	38	39	418	0.5	417	419	19.9	53.4
2025-07-30T13:26	10	38	0.2	37	38	417	0.3	417	418	19.9	52.9
2025-07-30T13:27	10	37	0.2	37	38	417	0.2	417	418	19.9	53.9
2025-07-30T13:28	10	36	0.2	36	37	417	0.3	416	418	19.9	53.1
2025-07-30T13:29	10	36	0.2	36	36	418	0.3	417	418	19.9	53.8
2025-07-30T13:30	10	35	0.1	35	36	417	0.3	416	417	19.9	53.4
2025-07-30T13:31	10	35	0.1	35	35	417	0.4	416	418	19.9	53.8
2025-07-30T13:32	10	35	0.1	35	36	417	0.3	417	418	20.0	54.0
2025-07-30T13:33	10	36	0.2	36	36	417	0.3	416	418	19.9	53.6
2025-07-30T13:34	10	37	0.3	36	37	417	0.3	416	418	19.9	53.7
2025-07-30T13:35	10	38	0.3	37	38	418	0.4	417	419	20.0	54.3
2025-07-30T13:36	10	39	0.4	38	39	419	0.3	418	419	19.9	54.0
2025-07-30T13:37	10	40	0.4	39	41	419	0.4	418	419	19.9	54.5
2025-07-30T13:38	10	42	0.5	41	42	420	0.7	419	421	20.0	55.0
2025-07-30T13:39	10	43	0.5	42	44	421	0.3	421	422	20.1	54.5
2025-07-30T13:40	10	44	0.3	44	45	421	0.3	421	422	20.0	54.1
2025-07-30T13:41	10	45	0.2	45	45	422	0.3	421	422	20.1	55.4
2025-07-30T13:42	10	46	0.1	45	46	422	0.3	421	422	20.1	53.8
2025-07-30T13:43	10	46	0.1	45	46	423	0.3	422	423	20.2	55.3
2025-07-30T13:44	10	46	0.1	46	46	422	0.4	421	423	20.1	53.2
2025-07-30T13:45	10	46	0.1	46	47	422	0.5	420	422	20.0	53.4
2025-07-30T13:46	10	47	0.1	47	47	421	0.4	420	422	20.0	52.6
2025-07-30T13:47	10	47	0.1	47	47	422	0.3	421	422	20.0	52.6
2025-07-30T13:48	10	47	0.2	46	47	421	0.5	420	422	20.0	53.2
2025-07-30T13:49	10	46	0.3	45	46	422	0.5	421	422	20.0	53.7
2025-07-30T13:50	10	45	0.3	44	45	422	0.2	421	422	20.0	54.2
2025-07-30T13:51	10	44	0.2	44	44	422	0.3	421	423	20.2	53.9
2025-07-30T13:52	10	43	0.2	43	44	422	0.2	421	422	20.2	52.5
2025-07-30T13:53	10	43	0.1	43	43	422	0.2	422	423	20.1	53.2
2025-07-30T13:54	10	43	0.1	43	43	421	0.5	420	422	20.2	52.8
2025-07-30T13:55	10	43	0.1	43	43	420	0.2	419	421	20.1	52.6
2025-07-30T13:56	10	43	0.1	43	43	420	0.3	419	420	20.0	52.3
2025-07-30T13:57	10	43	0.1	43	44	420	0.3	419	420	20.0	52.8
2025-07-30T13:58	10	43	0.1	43	44	421	0.4	420	422	20.1	53.2
2025-07-30T13:59	10	43	0.1	43	44	421	0.2	420	421	20.1	52.2
2025-07-30T14:00	10	43	0.1	43	43	421	0.3	420	422	20.1	52.7
2025-07-30T14:01	10	43	0.1	43	43	421	0.3	421	422	20.2	52.7
2025-07-30T14:02	10	43	0.1	43	43	422	0.4	421	423	20.3	53.4
2025-07-30T14:03	10	43	0.1	42	43	421	0.4	420	422	20.2	52.7
2025-07-30T14:04	10	43	0.1	42	43	421	0.3	420	421	20.1	52.4
2025-07-30T14:05	10	43	0.1	43	43	421	0.3	420	421	20.1	53.1
2025-07-30T14:06	10	43	0.3	43	44	420	0.4	419	421	20.1	52.5
2025-07-30T14:07	10	45	0.4	44	45	420	0.3	419	421	20.1	53.1
2025-07-30T14:08	10	46	0.4	45	47	420	0.4	419	421	20.1	53.1
2025-07-30T14:09	10	48	0.5	47	49	421	0.6	420	422	20.1	53.4
2025-07-30T14:10	10	50	0.6	48	51	422	0.2	421	422	20.1	53.5
2025-07-30T14:11	10	52	0.7	51	53	422	0.2	422	423	20.1	53.5
2025-07-30T14:12	10	54	0.8	53	56	424	0.8	422	425	20.2	53.2
2025-07-30T14:13	10	57	1.0	56	59	425	0.3	424	426	20.2	53.0
2025-07-30T14:14	10	61	1.0	59	62	425	0.4	425	426	20.3	53.5
2025-07-30T14:15	10	64	1.1	62	66	425	0.6	424	426	20.4	52.4
2025-07-30T14:16	10	68	1.3	66	70	425	0.5	424	426	20.2	51.5
2025-07-30T14:17	10	74	2.6	70	79	427	0.7	426	429	20.3	52.0
2025-07-30T14:18	10	110	25.8	79	168	432	3.3	428	440	20.4	51.8
2025-07-30T14:19	10	127	21.9	106	174	440	0.6	438	441	20.5	52.4
2025-07-30T14:20	10	116	21.0	93	156	441	1.5	438	444	20.6	51.4
2025-07-30T14:21	10	94	2.0	92	98	438	0.4	437	439	20.6	51.5
2025-07-30T14:22	10	95	2.6	93	100	439	1.0	438	441	20.7	51.4
2025-07-30T14:23	10	94	0.5	93	94	440	0.2	440	440	20.6	50.8
2025-07-30T14:24	10	99	5.5	94	118	441	0.9	440	443	20.6	51.5
2025-07-30T14:25	10	128	4.3	120	136	445	1.1	442	447	20.9	52.1
2025-07-30T14:26	10	118	11.2	108	149	444	0.8	443	446	20.9	52.7
2025-07-30T14:27	10	166	9.8	147	188	450	2.6	445	454	20.9	51.8
2025-07-30T14:28	10	204	12.9	167	217	458	2.4	453	461	21.1	51.5
2025-07-30T14:29	10	149	4.2	144	164	455	2.5	451	460	20.8	49.7
2025-07-30T14:30	10	156	21.1	121	194	455	1.9	452	458	20.6	50.2
2025-07-30T14:31	10	141	19.8	117	185	451	1.0	450	454	20.8	50.3
2025-07-30T14:32	10	161	32.5	120	206	456	1.7	453	459	20.7	50.5
2025-07-30T14:33	10	104	10.1	92	120	451	2.2	448	456	20.9	50.9
2025-07-30T14:34	10	129	18.1	106	162	451	1.3	449	454	21.3	51.7
2025-07-30T14:35	10	118	35.2	84	180	451	3.2	446	456	21.3	50.2
2025-07-30T14:36	10	85	1.7	83	89	446	1.0	444	448	21.4	51.1
2025-07-30T14:37	10	94	11.9	85	120	441	1.3	440	445	21.2	49.9
2025-07-30T14:38	10	89	10.5	77	113	443	0.9	441	444	21.0	50.3
2025-07-30T14:39	10	73	1.8	71	77	440	0.7	439	442	21.1	51.3
2025-07-30T14:40	10	70	0.7	69	71	437	1.8	435	441	21.1	51.1
2025-07-30T14:41	10	69	0.1	68	69	435	0.6	433	436	21.0	50.0
2025-07-30T14:42	10	70	0.6	69	71	434	0.3	433	434	20.9	49.8
2025-07-30T14:43	10	72	0.6	71	73	434	0.6	432	435	20.9	50.6
2025-07-30T14:44	10	73	0.4	73	74	432	0.3	431	433	20.9	49.9
2025-07-30T14:45	10	76	1.1	74	77	432	0.5	431	433	20.8	50.1
2025-07-30T14:46	10	78	1.2	77	80	433	0.6	432	434	20.7	50.3
2025-07-30T14:47	10	105	29.1	80	163	437	3.2	433	445	20.8	50.3
2025-07-30T14:48	10	165	8.1	153	179	450	3.2	442	454	21.0	50.1
2025-07-30T14:49	10	102	15.0	90	150	448	2.9	445	454	21.0	49.8
2025-07-30T14:50	10	111	26.6	85	161	444	2.0	441	448	21.1	50.3
2025-07-30T14:51	10	139	24.7	101	176	451	2.1	447	453	21.0	49.8
2025-07-30T14:52	10	144	24.6	107	180	452	2.9	447	457	21.1	49.9
2025-07-30T14:53	10	144	21.7	112	180	454	2.4	450	458	21.2	49.2
2025-07-30T14:54	10	118	33.1	88	183	450	2.4	446	456	21.5	48.8
2025-07-30T14:55	10	170	16.4	138	186	452	1.9	449	455	21.4	48.2
2025-07-30T14:56	10	144	21.6	100	178	450	1.6	447	453	21.3	48.6
2025-07-30T14:57	10	92	6.1	80	102	443	3.4	436	448	21.2	48.1
2025-07-30T14:58	10	79	2.4	77	84	436	0.9	435	439	20.9	48.6
2025-07-30T14:59	10	72	2.1	69	79	434	1.1	432	436	21.1	49.0
2025-07-30T15:00	10	69	0.4	68	70	432	0.8	432	434	21.1	48.7
2025-07-30T15:01	10	68	0.4	67	69	433	0.5	432	433	21.2	48.9
2025-07-30T15:02	10	69	1.2	68	72	432	0.5	431	433	21.0	48.4
2025-07-30T15:03	10	67	1.1	65	68	433	0.3	432	433	20.9	48.8
2025-07-30T15:04	10	77	16.0	64	112	433	1.7	431	436	21.0	49.4
2025-07-30T15:05	10	62	1.5	60	67	433	0.9	431	435	21.1	49.3
2025-07-30T15:06	10	59	0.5	58	60	430	0.7	429	432	21.0	49.4
2025-07-30T15:07	10	57	0.5	56	58	429	0.4	429	430	21.0	49.7
2025-07-30T15:08	10	56	0.2	56	57	429	0.5	429	431	21.1	49.9
2025-07-30T15:09	10	56	0.7	55	57	429	0.8	428	430	21.0	49.6
2025-07-30T15:10	10	55	0.1	55	55	428	0.5	427	429	20.8	49.8
2025-07-30T15:11	10	56	0.4	55	56	426	0.5	426	428	20.8	50.0
2025-07-30T15:12	10	57	0.2	56	57	427	0.5	426	427	20.7	49.8
2025-07-30T15:13	10	58	0.6	57	59	426	0.2	426	427	20.7	50.2
2025-07-30T15:14	10	61	1.3	59	64	426	0.4	425	427	20.8	50.4
2025-07-30T15:15	10	69	2.3	64	73	428	1.3	426	431	20.8	50.3
2025-07-30T15:16	10	148	34.9	73	176	438	7.2	427	449	20.9	50.0
2025-07-30T15:17	10	136	32.3	86	176	448	1.8	443	450	21.0	49.8
2025-07-30T15:18	10	99	19.5	78	137	444	1.5	442	447	21.1	49.9
2025-07-30T15:19	10	75	1.9	71	78	439	1.8	436	443	21.0	49.8
2025-07-30T15:20	10	72	1.2	71	75	435	0.5	434	436	20.9	50.3
2025-07-30T15:21	10	71	0.9	70	73	435	0.7	433	436	21.0	50.6
2025-07-30T15:22	10	70	0.2	69	70	434	0.3	433	434	21.0	50.5
2025-07-30T15:23	10	123	43.8	69	175	438	6.0	432	450	21.0	50.5
2025-07-30T15:24	10	132	38.3	88	175	448	3.1	442	452	21.1	50.3
2025-07-30T15:25	10	92	10.9	75	117	442	1.2	439	443	21.3	50.0
2025-07-30T15:26	10	87	22.6	70	145	437	1.5	434	440	21.1	49.0
2025-07-30T15:27	10	165	7.8	146	171	447	4.2	438	453	21.2	49.3
2025-07-30T15:28	10	170	0.4	169	170	454	1.1	451	455	21.3	49.1
2025-07-30T15:29	10	167	2.6	161	169	455	1.4	453	457	21.5	49.4
2025-07-30T15:30	10	166	1.6	161	168	454	0.9	452	456	21.5	49.0
2025-07-30T15:31	10	165	1.4	160	165	455	0.6	454	457	21.6	48.6
2025-07-30T15:32	10	149	20.9	110	165	454	2.1	449	457	21.6	48.6
2025-07-30T15:33	10	156	7.4	130	160	452	1.2	450	453	21.5	48.7
2025-07-30T15:34	10	156	0.8	155	158	452	0.5	451	453	21.3	49.0
2025-07-30T15:35	10	154	0.6	153	155	455	0.8	453	456	21.4	49.3
2025-07-30T15:36	10	152	0.5	151	153	454	0.6	453	455	21.7	49.1
2025-07-30T15:37	10	150	0.4	150	151	454	0.9	453	456	21.5	49.1
2025-07-30T15:38	10	149	0.4	148	149	456	0.8	454	457	21.6	50.0
2025-07-30T15:39	10	147	0.5	146	148	458	1.3	454	460	22.3	49.3
2025-07-30T15:40	10	145	0.8	144	146	455	0.6	453	456	22.0	47.7
2025-07-30T15:41	10	143	0.7	141	144	449	2.2	447	454	21.4	48.5
2025-07-30T15:42	10	140	0.8	138	142	448	1.4	445	451	21.5	48.8
2025-07-30T15:43	10	137	1.0	135	139	448	0.5	446	449	21.2	49.1
2025-07-30T15:44	10	134	0.8	133	136	447	1.7	445	450	21.4	49.0
2025-07-30T15:45	10	132	0.7	131	133	445	0.6	444	446	21.2	49.5
2025-07-30T15:46	10	130	0.7	129	131	445	0.9	443	447	21.4	49.3
2025-07-30T15:47	10	128	0.7	127	129	443	0.5	441	444	21.3	49.1
2025-07-30T15:48	10	126	0.7	124	127	441	0.5	441	443	21.3	49.3
2025-07-30T15:49	10	123	0.6	122	125	442	0.4	441	443	21.2	49.2
2025-07-30T15:50	10	122	0.4	121	123	442	0.6	441	443	21.1	49.4
2025-07-30T15:51	10	121	0.3	121	122	443	0.4	443	444	21.2	49.7
2025-07-30T15:52	10	120	0.4	119	120	443	0.5	442	444	21.2	49.5
2025-07-30T15:53	10	118	0.5	118	120	441	0.5	440	442	21.3	49.6
2025-07-30T15:54	10	117	0.4	116	118	440	0.4	439	441	21.0	49.8
2025-07-30T15:55	10	115	0.4	115	116	440	0.4	439	441	21.0	50.2
2025-07-30T15:56	10	114	0.2	114	115	442	0.8	440	443	21.2	50.0
2025-07-30T15:57	10	114	0.1	113	114	444	0.7	442	445	21.1	50.3
2025-07-30T15:58	10	114	0.1	113	114	443	0.9	441	444	21.3	50.1
2025-07-30T15:59	10	113	0.1	113	113	443	0.9	441	444	21.3	50.2
2025-07-30T16:00	10	113	0.2	112	113	443	1.3	440	444	21.7	49.3
2025-07-30T16:01	10	112	0.3	112	113	440	0.8	439	442	21.3	49.0
2025-07-30T16:02	10	111	0.2	111	112	440	0.8	439	442	21.2	49.0
2025-07-30T16:03	10	111	0.3	110	111	440	0.7	439	441	21.2	48.6
2025-07-30T16:04	10	110	0.2	109	110	441	0.4	441	442	21.2	49.0
2025-07-30T16:05	10	109	0.2	108	109	441	0.4	440	442	21.4	49.4
2025-07-30T16:06	10	108	0.4	107	109	442	0.4	441	443	21.4	49.4
2025-07-30T16:07	10	107	0.2	106	107	442	0.4	441	443	21.3	49.2
2025-07-30T16:08	10	106	0.2	106	106	442	0.2	441	442	21.4	49.7
2025-07-30T16:09	10	105	0.2	105	106	443	0.3	442	443	21.2	49.9
2025-07-30T16:10	10	105	0.2	104	105	443	0.4	442	444	21.3	50.0
2025-07-30T16:11	10	104	0.2	104	104	442	0.3	442	443	21.5	48.5
2025-07-30T16:12	10	103	0.2	103	104	443	0.5	441	443	21.6	48.5
2025-07-30T16:13	10	103	0.2	103	103	442	0.4	441	443	21.7	47.4
2025-07-30T16:14	10	103	0.1	102	103	441	0.3	440	441	21.8	47.0
2025-07-30T16:15	10	102	0.1	102	103	441	0.9	440	442	21.8	47.6
2025-07-30T16:16	10	102	0.2	102	102	441	0.6	440	442	21.7	48.2
2025-07-30T16:17	10	101	0.2	101	102	440	0.6	439	442	21.5	48.5
2025-07-30T16:18	10	101	0.1	101	101	441	0.3	440	442	21.7	48.9
2025-07-30T16:19	10	100	0.3	100	101	442	0.3	441	442	21.7	48.5
2025-07-30T16:20	10	99	0.3	99	100	441	0.3	441	442	21.7	47.8
2025-07-30T16:21	10	98	0.3	98	99	441	0.4	441	442	21.7	48.0
2025-07-30T16:22	10	98	0.2	97	98	441	0.3	441	442	21.6	48.1
2025-07-30T16:23	10	97	0.3	96	97	441	0.5	440	442	21.9	48.5
2025-07-30T16:24	10	96	0.4	95	97	439	1.6	435	441	22.0	47.3
2025-07-30T16:25	10	95	0.4	94	96	437	0.3	436	437	21.7	46.5
2025-07-30T16:26	10	94	0.3	93	95	437	0.6	435	438	21.8	47.7
2025-07-30T16:27	10	93	0.3	92	93	436	0.4	435	436	21.8	47.5
2025-07-30T16:28	10	92	0.3	92	93	435	0.4	435	436	21.7	46.8
2025-07-30T16:29	10	91	0.3	91	92	435	0.5	434	436	21.6	47.0
2025-07-30T16:30	10	91	0.1	90	91	434	0.5	433	435	21.6	47.0
2025-07-30T16:31	10	90	0.2	90	91	434	0.6	433	435	21.7	46.9
2025-07-30T16:32	10	90	0.1	90	90	434	0.4	434	435	21.8	47.4
2025-07-30T16:33	10	90	0.2	89	90	433	0.7	433	435	21.8	45.8
2025-07-30T16:34	10	89	0.2	88	89	433	0.3	432	433	21.6	46.1
2025-07-30T16:35	10	88	0.3	87	89	435	1.0	433	436	21.7	46.4
2025-07-30T16:36	10	87	0.1	87	87	435	0.6	434	437	21.8	46.0
2025-07-30T16:37	10	87	0.3	87	87	434	0.8	432	436	21.9	46.5
2025-07-30T16:38	10	87	0.2	86	87	432	0.5	431	433	21.7	45.1
2025-07-30T16:39	10	87	0.2	87	87	433	0.6	432	434	21.6	46.1
2025-07-30T16:40	10	87	0.1	87	87	435	0.4	434	435	21.7	46.2
2025-07-30T16:41	10	76	7.1	66	87	434	0.7	432	435	21.8	45.7
2025-07-30T16:42	10	82	6.0	67	87	432	0.4	431	433	21.8	46.9
2025-07-30T16:43	10	87	0.1	87	87	432	0.4	431	432	21.9	46.5
2025-07-30T16:44	10	87	0.1	87	87	432	0.5	431	433	21.8	46.6
2025-07-30T16:45	10	87	0.1	87	87	433	0.3	432	434	22.0	46.8
2025-07-30T16:46	10	87	0.1	87	87	432	0.5	431	433	21.8	46.5
2025-07-30T16:47	10	84	1.7	82	88	431	0.3	431	432	21.6	46.5
2025-07-30T16:48	10	73	10.2	61	88	431	0.9	430	432	21.7	46.9
2025-07-30T16:49	10	82	3.6	74	86	430	0.3	429	430	21.8	46.3
2025-07-30T16:50	10	84	0.5	84	85	430	0.3	429	430	21.7	45.8
2025-07-30T16:51	10	84	0.5	83	85	430	0.3	430	431	21.6	46.5
2025-07-30T16:52	10	84	0.3	83	84	429	0.4	429	430	21.6	46.4
2025-07-30T16:53	10	83	1.0	81	84	430	0.5	429	431	21.5	46.6
2025-07-30T16:54	10	76	6.6	64	82	430	0.4	429	431	21.6	46.6
2025-07-30T16:55	10	82	0.3	81	82	430	0.4	430	431	21.6	46.5
2025-07-30T16:56	10	81	0.2	81	81	431	0.3	431	432	21.7	46.7
2025-07-30T16:57	10	80	0.2	80	81	430	0.5	429	431	21.8	46.9
2025-07-30T16:58	10	79	0.3	79	80	429	0.3	428	430	21.7	46.5
2025-07-30T16:59	10	78	0.4	77	79	429	0.4	429	430	21.7	47.0
2025-07-30T17:00	10	77	0.4	76	77	429	0.3	428	430	21.6	47.1
2025-07-30T17:01	10	76	0.3	75	76	429	0.3	428	429	21.6	47.2
2025-07-30T17:02	10	75	0.2	74	75	429	0.3	428	429	21.6	47.1
2025-07-30T17:03	10	75	0.1	74	75	429	0.2	429	430	21.7	47.3
2025-07-30T17:04	10	75	0.1	75	75	430	0.3	429	430	21.8	47.3
2025-07-30T17:05	10	75	0.2	74	75	429	0.2	428	429	21.8	47.3
2025-07-30T17:06	10	74	0.1	74	74	429	0.2	429	430	21.9	47.3
2025-07-30T17:07	10	74	0.2	74	74	429	0.3	429	430	21.8	47.5
2025-07-30T17:08	10	73	1.0	72	74	429	0.3	428	430	21.8	47.6
2025-07-30T17:09	10	71	0.5	71	72	428	0.2	428	429	21.8	47.4
2025-07-30T17:10	10	71	0.2	71	72	428	0.3	427	429	21.8	47.5
2025-07-30T17:11	10	71	0.2	71	72	428	0.4	428	429	21.7	47.6
2025-07-30T17:12	10	71	0.3	70	71	428	0.3	428	429	21.7	47.5
2025-07-30T17:13	10	69	1.4	65	70	429	0.4	428	430	21.8	48.2
2025-07-30T17:14	10	47	10.7	35	64	428	1.5	424	430	22.0	48.2
2025-07-30T17:15	10	31	2.5	27	36	423	1.4	421	426	22.0	47.3
2025-07-30T17:16	10	15	3.4	13	26	419	1.3	418	422	21.8	47.9
2025-07-30T17:17	10	13	0.2	13	14	417	1.0	415	418	21.8	48.1
2025-07-30T17:18	10	13	0.2	13	14	415	0.4	414	416	21.7	47.9
2025-07-30T17:19	10	13	0.2	12	13	414	0.4	413	415	21.7	48.6
2025-07-30T17:20	10	16	2.5	13	20	414	0.3	413	415	21.6	48.6
2025-07-30T17:21	10	19	0.8	18	20	414	0.3	413	414	21.5	48.3
2025-07-30T17:22	10	21	1.6	20	26	414	0.4	413	415	21.5	49.1
2025-07-30T17:23	10	37	4.8	26	44	416	1.1	414	418	21.5	49.3
2025-07-30T17:24	10	48	3.7	44	58	418	1.1	416	420	21.5	49.1
2025-07-30T17:25	10	68	3.7	58	72	422	1.3	419	424	21.5	48.6
2025-07-30T17:26	10	68	2.1	64	70	424	0.5	423	425	21.5	48.9
2025-07-30T17:27	10	67	1.8	64	69	424	0.5	423	425	21.6	49.1
2025-07-30T17:28	10	68	0.8	66	69	425	0.4	424	426	21.6	48.4
2025-07-30T17:29	10	49	12.7	26	65	424	1.5	421	426	21.6	48.4
2025-07-30T17:30	10	22	1.1	21	26	420	1.3	417	422	21.6	48.0
2025-07-30T17:31	10	21	0.2	20	21	417	0.6	416	419	21.5	47.7
2025-07-30T17:32	10	21	0.8	20	23	416	0.2	416	417	21.5	48.8
2025-07-30T17:33	10	21	0.9	20	23	416	0.3	415	417	21.5	48.6
2025-07-30T17:34	10	20	0.2	20	21	415	0.2	415	416	21.4	48.4
2025-07-30T17:35	10	19	0.2	19	20	415	0.2	415	416	21.3	49.1
2025-07-30T17:36	10	18	0.3	18	19	415	0.3	414	415	21.3	48.6
2025-07-30T17:37	10	17	0.3	17	18	414	0.2	414	415	21.3	48.9
2025-07-30T17:38	10	17	0.1	16	17	414	0.3	414	415	21.3	49.3
2025-07-30T17:39	10	16	0.1	16	17	415	0.2	414	415	21.3	49.5
2025-07-30T17:40	10	16	0.1	16	16	415	0.2	414	415	21.2	50.2
2025-07-30T17:41	10	16	0.1	16	16	414	0.2	414	415	21.2	50.5
2025-07-30T17:42	10	16	0.1	16	16	414	0.2	414	415	21.2	50.4
2025-07-30T17:43	10	16	0.1	16	16	414	0.2	414	415	21.2	50.2
2025-07-30T17:44	10	16	0.1	16	16	414	0.3	414	415	21.2	50.0
2025-07-30T17:45	10	16	0.1	16	16	414	0.2	414	415	21.2	50.1
2025-07-30T17:46	10	16	0.2	16	17	414	0.2	414	415	21.2	50.6
2025-07-30T17:47	10	17	0.1	17	17	414	0.2	414	415	21.2	50.0
2025-07-30T17:48	10	17	0.1	17	17	414	0.2	414	415	21.2	50.3
2025-07-30T17:49	10	16	0.2	16	17	414	0.2	414	415	21.2	49.6
2025-07-30T17:50	10	16	0.3	15	16	414	0.2	413	414	21.2	49.6
2025-07-30T17:51	10	15	0.2	15	15	413	0.2	413	414	21.2	49.1
2025-07-30T17:52	10	15	0.3	14	15	413	0.2	412	413	21.2	50.0
2025-07-30T17:53	10	15	0.7	15	17	412	0.2	412	413	21.2	49.7
2025-07-30T17:54	10	21	2.9	17	27	412	0.3	412	413	21.1	49.6
2025-07-30T17:55	10	28	2.0	23	31	413	0.5	412	414	21.2	50.0
2025-07-30T17:56	10	21	1.0	20	23	413	0.2	413	414	21.2	49.9
2025-07-30T17:57	10	20	3.1	17	27	413	0.2	413	414	21.3	50.5
2025-07-30T17:58	10	36	4.0	28	41	414	0.8	413	416	21.2	49.4
2025-07-30T17:59	10	31	4.6	26	40	415	0.4	414	416	21.2	49.9
2025-07-30T18:00	10	32	1.6	29	34	415	0.4	414	416	21.2	50.5
2025-07-30T18:01	10	23	3.4	17	28	415	0.4	414	416	21.3	51.0
2025-07-30T18:02	10	16	0.8	15	18	414	0.5	413	415	21.3	50.8
2025-07-30T18:03	10	20	1.4	17	22	413	0.2	413	414	21.2	49.8
2025-07-30T18:04	10	17	0.4	16	18	413	0.4	412	414	21.2	50.3
2025-07-30T18:05	10	15	0.5	14	16	412	0.4	411	413	21.2	50.5
2025-07-30T18:06	10	14	0.2	13	14	412	0.4	411	412	21.1	51.0
2025-07-30T18:07	10	13	0.2	13	14	410	0.9	409	412	20.8	53.9
2025-07-30T18:08	10	13	0.2	12	13	409	0.5	408	410	20.1	60.1
2025-07-30T18:09	10	12	0.1	12	13	408	0.2	408	409	20.0	60.4
2025-07-30T18:10	10	12	0.1	12	12	408	0.2	408	409	20.0	61.4
2025-07-30T18:11	10	12	0.1	11	12	408	0.2	407	408	19.9	61.6
2025-07-30T18:12	10	11	0.1	11	12	407	0.2	407	408	19.8	61.8
2025-07-30T18:13	10	11	0.1	11	12	407	0.2	407	408	19.8	62.3
2025-07-30T18:14	10	11	0.1	11	11	407	0.3	406	408	19.7	62.3
2025-07-30T18:15	10	11	0.1	11	11	407	0.2	406	408	19.7	62.4
2025-07-30T18:16	10	11	0.1	10	11	407	0.2	406	407	19.6	63.2
2025-07-30T18:17	10	10	0.1	10	10	407	0.3	406	407	19.6	63.3
2025-07-30T18:18	10	10	0.2	10	10	406	0.3	406	407	19.5	64.2
2025-07-30T18:19	10	9	0.2	9	10	406	0.2	406	407	19.5	64.4
2025-07-30T18:20	10	9	0.2	9	9	406	0.2	406	406	19.5	64.5
2025-07-30T18:21	10	8	0.2	8	9	406	0.2	405	406	19.4	64.7
2025-07-30T18:22	10	8	0.3	7	8	405	0.2	405	406	19.4	64.8
2025-07-30T18:23	10	7	0.2	6	7	405	0.2	404	405	19.4	64.8
2025-07-30T18:24	10	6	0.1	6	7	404	0.3	404	405	19.4	64.4
2025-07-30T18:25	10	6	0.2	6	7	404	0.2	403	404	19.3	64.5
2025-07-30T18:26	10	6	0.1	5	6	404	0.2	403	404	19.3	63.7
2025-07-30T18:27	10	5	0.2	5	6	404	0.2	403	404	19.3	63.8
2025-07-30T18:28	10	5	0.2	5	5	403	0.3	402	404	19.3	64.2
2025-07-30T18:29	10	4	0.2	4	5	403	0.2	403	404	19.3	64.5
2025-07-30T18:30	10	4	0.3	3	5	403	0.2	402	403	19.2	65.2
2025-07-30T18:31	10	4	0.2	3	5	402	0.2	402	403	19.2	65.2
2025-07-30T18:32	10	4	0.2	3	4	402	0.3	402	403	19.2	65.0
2025-07-30T18:33	10	3	0.1	3	4	402	0.2	402	403	19.2	65.3
2025-07-30T18:34	10	4	0.5	3	5	402	0.2	402	403	19.2	65.6
2025-07-30T18:35	10	5	0.4	5	6	402	0.3	401	403	19.2	65.5
2025-07-30T18:36	10	6	0.3	5	6	402	0.2	401	403	19.2	65.7
2025-07-30T18:37	10	4	0.6	3	5	402	0.2	401	403	19.1	66.5
2025-07-30T18:38	10	3	0.1	3	3	402	0.2	402	402	19.0	66.6
2025-07-30T18:39	10	3	0.1	3	3	402	0.3	401	403	19.0	66.9
2025-07-30T18:40	10	3	0.1	3	3	402	0.2	402	403	19.0	66.8
2025-07-30T18:41	10	3	0.1	3	3	402	0.2	402	403	19.0	66.9
2025-07-30T18:42	10	3	0.1	2	3	402	0.2	401	402	19.0	66.4
2025-07-30T18:43	10	2	0.1	2	3	402	0.3	401	402	19.0	66.3
2025-07-30T18:44	10	2	0.1	2	3	402	0.2	401	402	19.0	65.9
2025-07-30T18:45	10	2	0.1	2	3	402	0.3	401	402	19.1	65.7
2025-07-30T18:46	10	2	0.1	2	2	401	0.2	401	402	19.0	66.4
2025-07-30T18:47	10	2	0.1	2	2	401	0.2	401	402	18.9	67.1
2025-07-30T18:48	10	2	0.1	1	2	401	0.3	400	402	18.9	66.8
2025-07-30T18:49	10	2	0.1	1	2	401	0.3	401	402	19.0	66.2
2025-07-30T18:50	10	1	0.1	1	2	401	0.2	401	402	19.0	66.4
2025-07-30T18:51	10	1	0.1	1	2	401	0.3	401	402	18.9	66.6
2025-07-30T18:52	10	1	0.1	1	2	401	0.2	400	401	19.0	66.5
2025-07-30T18:53	10	1	0.1	1	1	401	0.2	400	401	19.0	66.3
2025-07-30T18:54	10	1	0.1	1	1	400	0.2	400	401	19.0	66.6
2025-07-30T18:55	10	1	0.1	1	1	400	0.2	400	401	18.9	67.2
2025-07-30T18:56	10	1	0.1	1	1	400	0.2	400	401	18.9	67.0
2025-07-30T18:57	10	1	0.1	1	1	400	0.2	399	400	18.9	66.6
2025-07-30T18:58	10	1	0.1	1	1	400	0.2	399	400	19.0	66.5
2025-07-30T18:59	10	1	0.1	1	1	399	0.2	399	400	18.9	66.7
2025-07-30T19:00	10	1	0.1	1	1	399	0.2	398	399	19.0	66.3
2025-07-30T19:01	10	1	0.1	1	1	398	0.2	398	399	18.9	66.8
2025-07-30T19:02	10	1	0.1	1	1	398	0.2	398	399	18.9	67.1
2025-07-30T19:03	10	1	0.1	0	1	398	0.3	397	398	18.8	67.5
2025-07-30T19:04	10	1	0.1	0	1	397	0.3	397	398	18.8	67.6
2025-07-30T19:05	10	1	0.1	0	1	397	0.2	397	398	18.8	67.8
2025-07-30T19:06	10	0	0.1	0	1	396	0.3	396	397	18.8	67.6
2025-07-30T19:07	10	0	0.1	0	1	396	0.2	396	397	18.7	68.0
2025-07-30T19:08	10	0	0.1	0	1	396	0.2	395	396	18.7	68.3
2025-07-30T19:09	10	0	0.1	0	0	396	0.2	395	396	18.6	68.5
2025-07-30T19:10	10	0	0.1	0	1	395	0.2	395	396	18.6	68.5
2025-07-30T19:11	10	0	0.1	0	0	395	0.3	394	395	18.6	68.3
2025-07-30T19:12	10	0	0.1	0	1	394	0.2	394	395	18.5	69.2
2025-07-30T19:13	10	0	0.2	0	1	394	0.2	393	394	18.5	69.7
2025-07-30T19:14	10	0	0.1	0	1	393	0.3	393	394	18.5	69.8
2025-07-30T19:15	10	0	0.2	0	1	393	0.3	392	394	18.5	68.9
2025-07-30T19:16	10	0	0.1	0	1	393	0.2	392	393	18.5	69.5
2025-07-30T19:17	10	0	0.1	0	1	393	0.2	392	394	18.4	69.9
2025-07-30T19:18	10	0	0.2	0	1	392	0.2	392	393	18.4	70.0
2025-07-30T19:19	10	0	0.2	0	1	392	0.2	392	393	18.4	70.3
2025-07-30T19:20	10	0	0.1	0	1	392	0.2	392	393	18.3	70.4
2025-07-30T19:21	10	0	0.1	0	0	392	0.2	392	393	18.3	70.7
2025-07-30T19:22	10	0	0.0	0	0	392	0.2	391	392	18.3	70.8
2025-07-30T19:23	10	0	0.1	0	0	392	0.2	391	392	18.2	71.0
2025-07-30T19:24	10	0	0.0	0	0	392	0.2	391	392	18.3	70.6
2025-07-30T19:25	10	0	0.1	0	0	392	0.2	391	392	18.3	70.6
2025-07-30T19:26	10	0	0.1	0	0	391	0.2	391	392	18.3	70.3
2025-07-30T19:27	10	0	0.0	0	0	391	0.2	390	391	18.3	70.4
2025-07-30T19:28	10	0	0.0	0	0	391	0.2	390	391	18.3	70.6
2025-07-30T19:29	10	0	0.0	0	0	391	0.3	390	391	18.3	70.4
2025-07-30T19:30	10	0	0.1	0	0	391	0.3	390	391	18.3	70.2
2025-07-30T19:31	10	0	0.0	0	0	391	0.2	390	391	18.4	69.8
2025-07-30T19:32	10	0	0.1	0	0	391	0.2	390	391	18.3	70.0
2025-07-30T19:33	10	0	0.1	0	0	391	0.3	390	392	18.3	69.8
2025-07-30T19:34	10	0	0.0	0	0	391	0.2	390	391	18.4	69.3
2025-07-30T19:35	10	0	0.1	0	0	391	0.2	390	391	18.4	68.8
2025-07-30T19:36	10	0	0.0	0	0	391	0.4	390	392	18.4	68.9
2025-07-30T19:37	10	0	0.1	0	0	391	0.2	390	391	18.5	67.7
2025-07-30T19:38	10	0	0.1	0	0	391	0.3	390	391	18.5	68.3
2025-07-30T19:39	10	0	0.1	0	0	391	0.2	390	391	18.5	68.1
2025-07-30T19:40	10	0	0.1	0	0	391	0.2	390	391	18.4	68.9
2025-07-30T19:41	10	0	0.1	0	0	391	0.2	390	391	18.3	69.1
2025-07-30T19:42	10	0	0.1	0	0	391	0.3	390	391	18.4	68.5
2025-07-30T19:43	10	0	0.1	0	0	390	0.2	390	391	18.4	68.4
2025-07-30T19:44	10	0	0.1	0	0	390	0.3	390	391	18.3	68.8
2025-07-30T19:45	10	0	0.1	0	0	390	0.2	390	391	18.3	68.9
2025-07-30T19:46	10	0	0.1	0	0	390	0.2	390	391	18.3	69.0
2025-07-30T19:47	10	0	0.1	0	0	390	0.2	389	390	18.3	68.6
2025-07-30T19:48	10	0	0.0	0	0	390	0.2	389	390	18.2	69.1
2025-07-30T19:49	10	0	0.0	0	0	390	0.3	389	391	18.1	69.9
2025-07-30T19:50	10	0	0.1	0	0	390	0.2	389	390	18.1	70.3
2025-07-30T19:51	10	0	0.1	0	0	390	0.3	389	390	18.1	70.4
2025-07-30T19:52	10	0	0.1	0	0	389	0.3	389	390	18.0	71.0
2025-07-30T19:53	10	0	0.0	0	0	389	0.2	389	390	18.0	71.3
2025-07-30T19:54	10	0	0.1	0	0	389	0.2	389	390	18.0	71.3
2025-07-30T19:55	10	0	0.1	0	0	389	0.2	389	390	18.0	71.5
2025-07-30T19:56	10	0	0.0	0	0	389	0.2	388	389	18.0	70.6
2025-07-30T19:57	10	0	0.1	0	0	389	0.2	388	389	18.0	70.5
2025-07-30T19:58	10	0	0.1	0	0	389	0.2	388	389	18.1	69.8
2025-07-30T19:59	10	0	0.1	0	0	389	0.3	388	390	18.2	68.8
2025-07-30T20:00	10	0	0.1	0	0	389	0.2	388	389	18.2	68.5
2025-07-30T20:01	10	0	0.1	0	0	389	0.2	388	389	18.1	69.5
2025-07-30T20:02	10	0	0.0	0	0	389	0.2	389	390	18.1	69.4
2025-07-30T20:03	10	0	0.0	0	0	389	0.2	389	390	18.1	68.8
2025-07-30T20:04	10	0	0.0	0	0	390	0.3	389	390	18.1	68.8
2025-07-30T20:05	10	0	0.1	0	0	390	0.2	389	390	18.1	68.2
2025-07-30T20:06	10	0	0.1	0	0	389	0.2	389	390	18.1	68.6
2025-07-30T20:07	10	0	0.1	0	0	389	0.2	389	390	18.0	70.1
2025-07-30T20:08	10	0	0.1	0	0	390	0.2	389	390	17.9	70.2
2025-07-30T20:09	10	0	0.0	0	0	389	0.2	389	390	18.0	69.4
2025-07-30T20:10	10	0	0.0	0	0	389	0.3	389	390	18.0	69.8
2025-07-30T20:11	10	0	0.1	0	0	389	0.2	388	389	17.9	70.2
2025-07-30T20:12	10	0	0.2	0	1	389	0.2	388	389	17.9	69.8
2025-07-30T20:13	10	0	0.1	0	0	388	0.2	388	389	17.9	69.9
2025-07-30T20:14	10	0	0.1	0	0	388	0.3	387	388	17.9	70.2
2025-07-30T20:15	10	0	0.1	0	0	387	0.2	387	388	17.8	71.4
2025-07-30T20:16	10	0	0.1	0	0	387	0.3	386	388	17.7	73.0
2025-07-30T20:17	10	0	0.1	0	0	386	0.3	386	387	17.6	72.8
2025-07-30T20:18	10	0	0.2	0	0	386	0.3	385	387	17.6	72.5
2025-07-30T20:19	10	0	0.1	0	0	385	0.3	385	386	17.5	73.3
2025-07-30T20:20	10	0	0.2	0	0	385	0.3	384	386	17.5	74.1
2025-07-30T20:21	10	0	0.1	0	0	385	0.3	384	386	17.5	74.0
2025-07-30T20:22	10	0	0.1	0	0	385	0.3	384	385	17.4	73.4
2025-07-30T20:23	10	0	0.1	0	0	385	0.2	384	385	17.5	72.6
2025-07-30T20:24	10	0	0.1	0	0	385	0.2	384	386	17.6	71.4
2025-07-30T20:25	10	0	0.1	0	0	385	0.2	384	386	17.8	69.8
2025-07-30T20:26	10	0	0.1	0	0	385	0.3	384	385	17.9	69.3
2025-07-30T20:27	10	0	0.1	0	0	385	0.2	384	385	17.9	68.9
2025-07-30T20:28	10	0	0.1	0	0	385	0.2	384	385	18.0	68.4
2025-07-30T20:29	10	0	0.1	0	1	385	0.3	384	385	18.0	68.1
2025-07-30T20:30	10	0	0.1	0	0	385	0.2	384	385	18.1	67.9
2025-07-30T20:31	10	0	0.1	0	0	385	0.2	384	385	18.1	68.1
2025-07-30T20:32	10	0	0.1	0	0	385	0.2	384	385	18.0	68.0
2025-07-30T20:33	10	0	0.1	0	0	384	0.4	383	385	18.0	68.9
2025-07-30T20:34	10	0	0.1	0	1	383	0.2	383	384	17.7	73.1
2025-07-30T20:35	10	0	0.1	0	0	383	0.3	383	384	17.5	73.7
2025-07-30T20:36	10	0	0.1	0	0	383	0.2	383	384	17.4	74.2
2025-07-30T20:37	10	0	0.1	0	0	383	0.2	383	384	17.3	73.9
2025-07-30T20:38	10	0	0.1	0	0	384	0.2	383	384	17.2	74.6
2025-07-30T20:39	10	0	0.1	0	0	383	0.2	383	384	17.2	74.9
2025-07-30T20:40	10	0	0.1	0	0	383	0.2	383	384	17.1	75.5
2025-07-30T20:41	10	0	0.1	0	0	384	0.2	383	384	16.9	76.7
2025-07-30T20:42	10	0	0.0	0	0	384	0.2	383	384	16.8	77.3
2025-07-30T20:43	10	0	0.1	0	0	384	0.3	383	384	16.7	77.7
2025-07-30T20:44	10	0	0.1	0	0	384	0.2	383	384	16.7	77.7
2025-07-30T20:45	10	0	0.1	0	0	384	0.2	383	384	16.6	78.0
2025-07-30T20:46	10	0	0.1	0	0	383	0.2	383	384	16.5	78.7
2025-07-30T20:47	10	0	0.1	0	0	383	0.3	383	384	16.4	78.9
2025-07-30T20:48	10	0	0.1	0	0	384	0.4	383	384	16.6	77.0
2025-07-30T20:49	10	0	0.1	0	0	383	0.3	382	384	16.7	76.9
2025-07-30T20:50	10	0	0.1	0	0	383	0.3	382	383	16.6	77.1
2025-07-30T20:51	10	0	0.1	0	0	382	0.3	381	383	16.5	77.8
2025-07-30T20:52	10	0	0.1	0	0	382	0.3	381	383	16.5	78.2
2025-07-30T20:53	10	0	0.1	0	0	382	0.2	381	382	16.5	78.2
2025-07-30T20:54	10	0	0.1	0	0	382	0.2	381	382	16.4	79.0
2025-07-30T20:55	10	0	0.1	0	0	382	0.3	381	382	16.3	79.2
2025-07-30T20:56	10	0	0.1	0	0	382	0.3	381	382	16.4	77.3
2025-07-30T20:57	10	0	0.0	0	0	382	0.4	381	383	16.6	76.5
2025-07-30T20:58	10	0	0.1	0	0	382	0.5	382	383	16.7	75.4
2025-07-30T20:59	10	0	0.0	0	0	384	0.4	383	385	16.9	74.6
2025-07-30T21:00	10	0	0.1	0	0	384	0.3	384	385	17.0	74.2
2025-07-30T21:01	10	0	0.1	0	0	385	0.2	384	385	17.1	74.4
2025-07-30T21:02	10	0	0.1	0	0	385	0.3	384	385	17.1	74.5
2025-07-30T21:03	10	0	0.1	0	0	385	0.2	385	385	17.2	74.2
2025-07-30T21:04	10	0	0.1	0	0	385	0.2	385	386	17.1	74.7
2025-07-30T21:05	10	0	0.1	0	0	385	0.3	384	386	17.1	74.8
2025-07-30T21:06	10	0	0.1	0	0	385	0.3	384	386	17.1	74.8
2025-07-30T21:07	10	0	0.1	0	0	385	0.3	384	386	17.0	75.5
2025-07-30T21:08	10	0	0.1	0	0	385	0.2	385	386	16.9	76.6
2025-07-30T21:09	10	0	0.1	0	0	385	0.2	385	386	16.8	77.3
2025-07-30T21:10	10	0	0.1	0	0	386	0.3	385	387	16.6	78.3
2025-07-30T21:11	10	0	0.1	0	0	386	0.3	386	387	16.8	77.6
2025-07-30T21:12	10	0	0.1	0	0	387	0.4	386	387	16.9	77.1
2025-07-30T21:13	10	0	0.1	0	0	387	0.3	386	388	17.0	76.8
2025-07-30T21:14	10	0	0.1	0	0	387	0.2	387	388	17.0	76.7
2025-07-30T21:15	10	0	0.1	0	0	387	0.2	387	388	17.0	77.0
2025-07-30T21:16	10	0	0.1	0	0	387	0.2	387	388	16.8	77.7
2025-07-30T21:17	10	0	0.1	0	0	387	0.3	387	388	16.7	78.5
2025-07-30T21:18	10	0	0.1	0	0	387	0.2	387	388	16.5	79.3
2025-07-30T21:19	10	0	0.1	0	0	388	0.2	387	388	16.4	79.8
2025-07-30T21:20	10	0	0.1	0	0	388	0.3	388	389	16.5	79.4
2025-07-30T21:21	10	0	0.1	0	0	388	0.4	388	389	16.5	79.2
2025-07-30T21:22	10	0	0.1	0	0	389	0.2	388	389	16.7	78.2
2025-07-30T21:23	10	0	0.1	0	0	388	0.2	388	389	16.6	78.9
2025-07-30T21:24	10	0	0.1	0	0	389	0.2	388	389	16.6	79.1
2025-07-30T21:25	10	0	0.1	0	0	389	0.2	388	390	16.6	78.8
2025-07-30T21:26	10	0	0.1	0	0	389	0.3	389	390	16.7	77.9
2025-07-30T21:27	10	0	0.1	0	0	390	0.3	389	391	16.8	77.2
2025-07-30T21:28	10	0	0.1	0	0	390	0.2	389	390	16.9	76.2
2025-07-30T21:29	10	0	0.1	0	0	390	0.2	389	390	16.8	76.5
2025-07-30T21:30	10	0	0.1	0	0	390	0.3	389	390	16.8	76.9
2025-07-30T21:31	10	0	0.1	0	0	389	0.2	389	390	16.6	77.7
2025-07-30T21:32	10	0	0.1	0	0	390	0.2	389	390	16.7	76.9
2025-07-30T21:33	10	0	0.1	0	0	389	0.3	389	390	16.7	77.3
2025-07-30T21:34	10	0	0.1	0	0	390	0.4	389	390	16.7	76.8
2025-07-30T21:35	10	0	0.1	0	0	390	0.2	389	390	16.8	75.2
2025-07-30T21:36	10	0	0.1	0	0	390	0.2	390	391	16.9	75.0
2025-07-30T21:37	10	0	0.1	0	0	390	0.2	390	391	16.9	74.7
2025-07-30T21:38	10	0	0.1	0	0	390	0.2	390	391	17.0	74.1
2025-07-30T21:39	10	0	0.1	0	0	390	0.3	389	391	17.0	74.8
2025-07-30T21:40	10	0	0.1	0	0	390	0.2	390	391	16.9	76.2
2025-07-30T21:41	10	0	0.1	0	0	390	0.2	390	391	16.9	76.2
2025-07-30T21:42	10	0	0.1	0	0	390	0.2	389	390	16.9	76.2
2025-07-30T21:43	10	0	0.1	0	0	390	0.2	390	390	16.9	76.2
2025-07-30T21:44	10	0	0.1	0	0	390	0.3	390	391	16.9	75.0
2025-07-30T21:45	10	0	0.1	0	0	390	0.3	389	391	16.9	76.2
2025-07-30T21:46	10	0	0.1	0	0	390	0.3	390	391	16.9	76.2
2025-07-30T21:47	10	0	0.1	0	0	390	0.3	390	391	16.8	76.1
2025-07-30T21:48	10	0	0.1	0	0	391	0.2	390	391	16.7	76.4
2025-07-30T21:49	10	0	0.1	0	0	391	0.3	390	391	16.7	76.1
2025-07-30T21:50	10	0	0.1	0	0	391	0.3	390	391	16.8	75.9
2025-07-30T21:51	10	0	0.1	0	0	391	0.2	390	391	16.8	75.6
2025-07-30T21:52	10	0	0.1	0	0	390	0.2	390	391	16.8	75.7
2025-07-30T21:53	10	0	0.1	0	0	390	0.2	390	391	16.7	76.1
2025-07-30T21:54	10	0	0.1	0	0	390	0.5	389	391	16.7	76.5
2025-07-30T21:55	10	0	0.1	0	0	390	0.2	389	390	16.5	79.2
2025-07-30T21:56	10	0	0.1	0	0	389	0.2	389	390	16.4	79.3
2025-07-30T21:57	10	0	0.1	0	0	389	0.3	389	390	16.3	79.8
2025-07-30T21:58	10	0	0.1	0	0	389	0.3	389	390	16.3	79.7
2025-07-30T21:59	10	0	0.1	0	0	389	0.2	389	389	16.3	80.0
2025-07-30T22:00	10	0	0.1	0	0	389	0.3	389	390	16.3	79.4
2025-07-30T22:01	10	0	0.0	0	0	389	0.2	389	390	16.4	79.3
2025-07-30T22:02	10	0	0.1	0	0	389	0.2	389	390	16.3	79.3
2025-07-30T22:03	10	0	0.1	0	0	389	0.3	388	390	16.3	79.7
2025-07-30T22:04	10	0	0.1	0	0	389	0.2	389	390	16.3	79.3
2025-07-30T22:05	10	0	0.1	0	0	389	0.2	389	390	16.4	78.4
2025-07-30T22:06	10	0	0.1	0	0	389	0.2	389	390	16.4	78.3
2025-07-30T22:07	10	0	0.1	0	0	389	0.2	388	389	16.3	78.7
2025-07-30T22:08	10	0	0.1	0	0	389	0.3	388	390	16.3	79.3
2025-07-30T22:09	10	0	0.1	0	0	389	0.3	388	389	16.2	80.0
2025-07-30T22:10	10	0	0.0	0	0	389	0.2	388	389	16.2	80.0
2025-07-30T22:11	10	0	0.1	0	0	389	0.3	388	389	16.2	79.8
2025-07-30T22:12	10	0	0.1	0	0	388	0.2	388	389	16.2	80.3
2025-07-30T22:13	10	0	0.1	0	0	389	0.3	388	389	16.2	80.2
2025-07-30T22:14	10	0	0.0	0	0	388	0.2	388	389	16.2	80.3
2025-07-30T22:15	10	0	0.1	0	0	388	0.2	388	389	16.2	80.0
2025-07-30T22:16	10	0	0.1	0	0	388	0.2	388	389	16.2	79.9
2025-07-30T22:17	10	0	0.0	0	0	388	0.2	388	389	16.2	80.0
2025-07-30T22:18	10	0	0.1	0	0	388	0.2	388	389	16.1	80.3
2025-07-30T22:19	10	0	0.1	0	0	388	0.3	388	389	16.2	80.3
2025-07-30T22:20	10	0	0.0	0	0	388	0.2	388	389	16.1	80.5
2025-07-30T22:21	10	0	0.1	0	0	388	0.2	388	389	16.1	80.6
2025-07-30T22:22	10	0	0.1	0	0	389	0.2	388	389	16.1	80.8
2025-07-30T22:23	10	0	0.1	0	0	388	0.3	388	389	16.1	80.8
2025-07-30T22:24	10	0	0.1	0	0	388	0.3	388	389	16.1	80.8
2025-07-30T22:25	10	0	0.1	0	0	388	0.3	388	389	16.1	80.9
2025-07-30T22:26	10	0	0.0	0	0	388	0.3	388	389	16.1	81.3
2025-07-30T22:27	10	0	0.1	0	0	388	0.2	388	389	16.0	81.6
2025-07-30T22:28	10	0	0.1	0	0	388	0.2	388	389	16.0	81.7
2025-07-30T22:29	10	0	0.1	0	0	388	0.2	388	389	16.0	82.0
2025-07-30T22:30	10	0	0.1	0	0	388	0.2	388	389	16.0	82.0
2025-07-30T22:31	10	0	0.1	0	0	388	0.2	388	389	16.0	82.2
2025-07-30T22:32	10	0	0.1	0	0	388	0.2	388	389	16.0	81.8
2025-07-30T22:33	10	0	0.1	0	0	388	0.2	388	389	16.0	82.1
2025-07-30T22:34	10	0	0.0	0	0	388	0.2	388	389	16.0	81.9
2025-07-30T22:35	10	0	0.1	0	0	388	0.3	388	389	16.0	81.6
2025-07-30T22:36	10	0	0.1	0	0	388	0.2	388	389	16.0	81.6
2025-07-30T22:37	10	0	0.0	0	0	388	0.2	388	389	16.1	81.3
2025-07-30T22:38	10	0	0.1	0	0	388	0.2	388	388	16.0	81.8
2025-07-30T22:39	10	0	0.1	0	0	388	0.2	388	389	16.0	82.4
2025-07-30T22:40	10	0	0.1	0	0	388	0.3	387	389	16.0	82.4
2025-07-30T22:41	10	0	0.1	0	0	388	0.2	387	388	15.9	82.9
2025-07-30T22:42	10	0	0.1	0	0	388	0.2	387	388	16.0	82.5
2025-07-30T22:43	10	0	0.1	0	0	388	0.2	387	388	16.0	82.6
2025-07-30T22:44	10	0	0.1	0	0	388	0.2	387	388	15.9	82.8
2025-07-30T22:45	10	0	0.1	0	0	387	0.2	387	388	15.9	82.7
2025-07-30T22:46	10	0	0.1	0	0	387	0.2	387	388	15.9	83.1
2025-07-30T22:47	10	0	0.1	0	0	388	0.3	387	388	15.9	83.2
2025-07-30T22:48	10	0	0.1	0	1	387	0.3	387	388	16.0	82.5
2025-07-30T22:49	10	0	0.1	0	1	387	0.2	387	388	16.0	81.9
2025-07-30T22:50	10	0	0.1	0	0	388	0.2	387	388	16.0	82.2
2025-07-30T22:51	10	0	0.1	0	0	388	0.2	387	388	16.0	82.1
2025-07-30T22:52	10	0	0.1	0	0	388	0.2	387	388	16.0	81.7
2025-07-30T22:53	10	0	0.1	0	0	388	0.2	387	388	16.1	81.6
2025-07-30T22:54	10	0	0.1	0	0	388	0.2	387	388	16.0	81.7
2025-07-30T22:55	10	0	0.1	0	0	388	0.2	387	388	16.1	81.5
2025-07-30T22:56	10	0	0.1	0	0	388	0.3	387	388	16.1	82.1
2025-07-30T22:57	10	0	0.1	0	0	388	0.2	387	388	16.0	82.7
2025-07-30T22:58	10	0	0.2	0	0	388	0.3	387	388	16.0	82.2
2025-07-30T22:59	10	0	0.1	0	0	388	0.3	387	389	16.0	82.0
2025-07-30T23:00	10	0	0.1	0	0	388	0.3	387	389	16.0	82.3
2025-07-30T23:01	10	0	0.2	0	0	388	0.2	387	388	16.1	81.5
2025-07-30T23:02	10	0	0.2	0	0	388	0.3	388	389	16.1	81.2
2025-07-30T23:03	10	0	0.2	0	0	388	0.2	388	389	16.1	81.2
2025-07-30T23:04	10	0	0.2	0	1	388	0.3	387	388	16.1	81.6
2025-07-30T23:05	10	0	0.2	0	1	388	0.3	387	388	16.1	81.8
2025-07-30T23:06	10	0	0.2	0	1	388	0.2	387	388	16.0	81.8
2025-07-30T23:07	10	0	0.1	0	0	388	0.2	387	388	16.0	81.5
2025-07-30T23:08	10	0	0.1	0	0	388	0.2	387	388	16.1	82.2
2025-07-30T23:09	10	0	0.2	0	1	388	0.2	387	389	16.1	82.9
2025-07-30T23:10	10	0	0.2	0	0	388	0.3	387	388	16.1	83.2
2025-07-30T23:11	10	0	0.1	0	0	388	0.2	387	388	16.0	82.6
2025-07-30T23:12	10	0	0.2	0	0	388	0.3	387	388	16.0	82.1
2025-07-30T23:13	10	0	0.2	0	0	388	0.3	387	388	16.0	83.1
2025-07-30T23:14	10	0	0.2	0	1	387	0.2	387	388	16.0	83.2
2025-07-30T23:15	10	0	0.2	0	1	388	0.2	387	388	16.0	83.0
2025-07-30T23:16	10	0	0.1	0	0	387	0.2	387	388	16.0	82.9
2025-07-30T23:17	10	0	0.1	0	1	387	0.3	387	388	15.9	83.1
2025-07-30T23:18	10	0	0.2	0	1	387	0.2	387	388	15.9	83.2
2025-07-30T23:19	10	0	0.2	0	1	387	0.3	387	388	15.9	83.2
2025-07-30T23:20	10	0	0.1	0	1	388	0.2	387	388	15.9	83.6
2025-07-30T23:21	10	0	0.1	0	1	387	0.3	387	388	16.0	82.9
2025-07-30T23:22	10	0	0.1	0	0	387	0.3	387	388	15.9	83.9
2025-07-30T23:23	10	0	0.2	0	1	388	0.3	387	388	15.9	83.5
2025-07-30T23:24	10	0	0.1	0	0	387	0.2	387	388	15.9	84.1
2025-07-30T23:25	10	0	0.1	0	0	388	0.2	387	388	15.9	84.9
2025-07-30T23:26	10	0	0.2	0	0	387	0.2	387	388	15.8	85.8
2025-07-30T23:27	10	0	0.2	0	0	387	0.2	387	388	15.8	86.0
2025-07-30T23:28	10	0	0.1	0	0	388	0.2	387	388	15.8	85.9
2025-07-30T23:29	10	0	0.1	0	0	387	0.2	387	388	15.9	83.8
2025-07-30T23:30	10	0	0.1	0	0	387	0.3	387	388	16.0	82.2
2025-07-30T23:31	10	0	0.1	0	1	388	0.2	387	388	16.0	82.6
2025-07-30T23:32	10	0	0.2	0	1	388	0.3	387	388	16.0	85.2
2025-07-30T23:33	10	0	0.1	0	0	387	0.3	387	388	15.9	84.8
2025-07-30T23:34	10	0	0.2	0	1	387	0.3	387	388	15.9	84.5
2025-07-30T23:35	10	0	0.1	0	0	387	0.3	387	388	15.8	85.8
2025-07-30T23:36	10	0	0.1	0	1	387	0.2	386	387	15.8	86.7
2025-07-30T23:37	10	0	0.2	0	0	387	0.2	387	387	15.7	88.0
2025-07-30T23:38	10	0	0.1	0	0	387	0.3	386	387	15.7	88.3
2025-07-30T23:39	10	0	0.1	0	1	387	0.2	386	388	15.6	89.1
2025-07-30T23:40	10	0	0.2	0	1	387	0.2	386	387	15.6	88.6
2025-07-30T23:41	10	0	0.1	0	0	387	0.2	386	388	15.6	86.6
2025-07-30T23:42	10	0	0.1	0	0	387	0.2	386	387	15.6	86.5
2025-07-30T23:43	10	0	0.1	0	0	387	0.3	386	387	15.6	87.3
2025-07-30T23:44	10	0	0.1	0	0	387	0.3	386	388	15.6	88.2
2025-07-30T23:45	10	0	0.1	0	0	387	0.3	386	388	15.6	87.3
2025-07-30T23:46	10	0	0.1	0	1	387	0.2	387	388	15.6	86.1
2025-07-30T23:47	10	0	0.1	0	0	387	0.2	387	388	15.6	86.1
2025-07-30T23:48	10	0	0.1	0	0	387	0.3	386	387	15.6	86.8
2025-07-30T23:49	10	0	0.1	0	1	387	0.3	386	387	15.5	87.1
2025-07-30T23:50	10	0	0.1	0	1	387	0.2	386	387	15.6	87.6
2025-07-30T23:51	10	0	0.1	0	0	387	0.2	386	387	15.6	88.3
2025-07-30T23:52	10	0	0.1	0	0	387	0.2	386	387	15.6	88.1
2025-07-30T23:53	10	0	0.1	0	0	387	0.2	386	387	15.5	87.6
2025-07-30T23:54	10	0	0.1	0	0	387	0.2	386	387	15.5	87.0
2025-07-30T23:55	10	0	0.1	0	0	387	0.2	386	387	15.5	87.6
2025-07-30T23:56	10	0	0.1	0	0	387	0.2	386	387	15.5	87.4
2025-07-30T23:57	10	0	0.1	0	0	387	0.2	386	387	15.4	87.9
2025-07-30T23:58	10	0	0.1	0	1	387	0.2	386	387	15.4	88.1
2025-07-30T23:59	10	0	0.1	0	0	387	0.2	386	387	15.4	87.5
2025-07-31T00:00	10	0	0.1	0	1	386	0.2	386	387	15.4	88.3
2025-07-31T00:01	10	0	0.1	0	0	387	0.2	386	387	15.4	88.6
2025-07-31T00:02	10	0	0.1	0	0	387	0.2	386	387	15.3	88.5
2025-07-31T00:03	10	0	0.1	0	0	387	0.2	386	387	15.3	88.8
2025-07-31T00:04	10	0	0.1	0	0	387	0.2	386	387	15.3	89.1
2025-07-31T00:05	10	0	0.1	0	0	387	0.2	386	387	15.3	89.0
2025-07-31T00:06	10	0	0.1	0	0	387	0.2	386	387	15.3	90.6
2025-07-31T00:07	10	0	0.1	0	0	387	0.2	386	387	15.2	90.0
2025-07-31T00:08	10	0	0.1	0	0	387	0.2	386	387	15.2	90.4
2025-07-31T00:09	10	0	0.1	0	0	387	0.2	386	387	15.1	90.6
2025-07-31T00:10	10	0	0.1	0	0	387	0.2	386	387	15.1	91.1
2025-07-31T00:11	10	0	0.1	0	0	387	0.2	387	387	15.1	91.1
2025-07-31T00:12	10	0	0.1	0	0	387	0.2	386	387	15.1	91.0
2025-07-31T00:13	10	0	0.1	0	0	387	0.2	386	387	15.1	90.9
2025-07-31T00:14	10	0	0.1	0	0	387	0.2	387	388	15.1	90.1
2025-07-31T00:15	10	0	0.1	0	0	387	0.3	386	388	15.2	89.4
2025-07-31T00:16	10	0	0.1	0	0	388	0.2	387	388	15.2	88.6
2025-07-31T00:17	10	0	0.1	0	0	388	0.2	387	388	15.3	87.4
2025-07-31T00:18	10	0	0.1	0	0	387	0.2	387	388	15.4	87.2
2025-07-31T00:19	10	0	0.0	0	0	387	0.2	387	388	15.4	86.4
2025-07-31T00:20	10	0	0.1	0	0	387	0.2	387	388	15.4	86.9
2025-07-31T00:21	10	0	0.1	0	0	387	0.2	387	388	15.4	87.3
2025-07-31T00:22	10	0	0.1	0	0	388	0.2	387	388	15.3	87.6
2025-07-31T00:23	10	0	0.1	0	0	387	0.2	387	388	15.3	87.9
2025-07-31T00:24	10	0	0.1	0	0	387	0.2	387	388	15.3	88.7
2025-07-31T00:25	10	0	0.1	0	0	387	0.2	387	388	15.3	88.1
2025-07-31T00:26	10	0	0.1	0	0	387	0.2	387	387	15.3	88.7
2025-07-31T00:27	10	0	0.0	0	0	387	0.2	386	387	15.2	88.9
2025-07-31T00:28	10	0	0.1	0	0	387	0.2	387	387	15.2	88.4
2025-07-31T00:29	10	0	0.1	0	0	387	0.2	387	387	15.3	88.6
2025-07-31T00:30	10	0	0.1	0	0	387	0.2	386	387	15.2	90.0
2025-07-31T00:31	10	0	0.1	0	0	387	0.2	387	387	15.2	89.6
2025-07-31T00:32	10	0	0.1	0	0	387	0.3	387	388	15.3	88.0
2025-07-31T00:33	10	0	0.1	0	0	387	0.2	387	388	15.5	86.4
2025-07-31T00:34	10	0	0.0	0	0	387	0.2	387	388	15.6	85.1
2025-07-31T00:35	10	0	0.1	0	0	387	0.2	387	388	15.6	86.8
2025-07-31T00:36	10	0	0.1	0	0	387	0.3	386	387	15.4	88.4
2025-07-31T00:37	10	0	0.1	0	0	387	0.2	386	387	15.4	88.4
2025-07-31T00:38	10	0	0.0	0	0	387	0.2	386	388	15.4	89.1
2025-07-31T00:39	10	0	0.1	0	0	387	0.2	387	387	15.4	89.4
2025-07-31T00:40	10	0	0.1	0	0	387	0.2	386	387	15.4	89.9
2025-07-31T00:41	10	0	0.1	0	0	387	0.3	386	387	15.4	89.7
2025-07-31T00:42	10	0	0.1	0	0	387	0.3	386	388	15.3	90.0
2025-07-31T00:43	10	0	0.1	0	0	387	0.2	387	388	15.3	89.0
2025-07-31T00:44	10	0	0.1	0	0	387	0.2	387	388	15.4	88.8
2025-07-31T00:45	10	0	0.1	0	0	387	0.2	387	388	15.4	87.4
2025-07-31T00:46	10	0	0.1	0	0	387	0.1	387	387	15.5	86.3
2025-07-31T00:47	10	0	0.1	0	0	387	0.3	386	388	15.5	86.2
2025-07-31T00:48	10	0	0.1	0	0	387	0.2	387	387	15.5	87.1
2025-07-31T00:49	10	0	0.1	0	0	387	0.2	387	387	15.4	87.8
2025-07-31T00:50	10	0	0.1	0	0	387	0.2	386	387	15.4	87.8
2025-07-31T00:51	10	0	0.1	0	0	387	0.2	387	388	15.5	85.6
2025-07-31T00:52	10	0	0.0	0	0	387	0.2	387	388	15.7	84.3
2025-07-31T00:53	10	0	0.1	0	0	387	0.3	387	388	15.7	84.9
2025-07-31T00:54	10	0	0.1	0	0	387	0.2	387	388	15.7	84.3
2025-07-31T00:55	10	0	0.1	0	0	387	0.2	386	388	15.7	85.6
2025-07-31T00:56	10	0	0.1	0	0	387	0.2	387	388	15.7	85.0
2025-07-31T00:57	10	0	0.1	0	0	387	0.2	387	388	15.7	84.2
2025-07-31T00:58	10	0	0.1	0	0	387	0.2	387	388	15.7	83.8
2025-07-31T00:59	10	0	0.1	0	0	388	0.2	387	388	15.8	82.5
2025-07-31T01:00	10	0	0.1	0	0	387	0.2	387	388	15.8	83.3
2025-07-31T01:01	10	0	0.1	0	0	388	0.2	387	388	15.7	84.3
2025-07-31T01:02	10	0	0.1	0	0	387	0.2	387	388	15.7	84.8
2025-07-31T01:03	10	0	0.1	0	0	388	0.2	387	388	15.7	83.6
2025-07-31T01:04	10	0	0.1	0	0	387	0.2	387	388	15.7	84.3
2025-07-31T01:05	10	0	0.1	0	0	387	0.2	387	388	15.7	84.0
2025-07-31T01:06	10	0	0.1	0	0	387	0.2	387	388	15.7	84.4
2025-07-31T01:07	10	0	0.1	0	0	388	0.3	387	388	15.7	84.1
2025-07-31T01:08	10	0	0.1	0	0	387	0.2	387	388	15.7	84.1
2025-07-31T01:09	10	0	0.1	0	0	387	0.2	387	388	15.7	84.4
2025-07-31T01:10	10	0	0.1	0	0	387	0.2	387	388	15.7	83.3
2025-07-31T01:11	10	0	0.1	0	0	388	0.3	387	388	15.8	82.0
2025-07-31T01:12	10	0	0.1	0	0	388	0.2	387	388	15.9	81.8
2025-07-31T01:13	10	0	0.1	0	0	388	0.2	387	388	15.9	82.1
2025-07-31T01:14	10	0	0.1	0	0	388	0.2	387	388	15.9	82.2
2025-07-31T01:15	10	0	0.1	0	0	388	0.2	387	388	15.9	81.9
2025-07-31T01:16	10	0	0.1	0	0	388	0.2	387	388	15.9	81.3
2025-07-31T01:17	10	0	0.1	0	0	388	0.2	387	389	16.0	80.2
2025-07-31T01:18	10	0	0.1	0	0	388	0.3	387	389	16.1	77.8
2025-07-31T01:19	10	0	0.0	0	0	388	0.2	388	389	16.3	76.5
2025-07-31T01:20	10	0	0.1	0	0	388	0.2	387	388	16.2	79.5
2025-07-31T01:21	10	0	0.1	0	0	388	0.2	388	389	16.1	79.6
2025-07-31T01:22	10	0	0.1	0	0	388	0.3	388	389	16.1	78.3
2025-07-31T01:23	10	0	0.1	0	0	388	0.2	388	388	16.0	80.3
2025-07-31T01:24	10	0	0.1	0	0	388	0.3	387	389	16.0	80.3
2025-07-31T01:25	10	0	0.1	0	0	389	0.2	388	389	16.2	77.2
2025-07-31T01:26	10	0	0.1	0	0	388	0.4	387	389	16.1	81.5
2025-07-31T01:27	10	0	0.1	0	0	388	0.3	387	388	15.8	85.6
2025-07-31T01:28	10	0	0.1	0	0	387	0.3	387	388	15.6	87.5
2025-07-31T01:29	10	0	0.1	0	0	387	0.4	386	388	15.4	87.0
2025-07-31T01:30	10	0	0.1	0	0	386	0.2	386	387	15.3	87.3
2025-07-31T01:31	10	0	0.0	0	0	386	0.2	386	386	15.1	88.7
2025-07-31T01:32	10	0	0.1	0	0	386	0.3	385	386	15.1	89.0
2025-07-31T01:33	10	0	1.0	0	7	385	0.2	385	386	15.0	90.2
2025-07-31T01:34	10	0	0.0	0	0	385	0.2	385	386	14.9	91.0
2025-07-31T01:35	10	0	0.0	0	0	385	0.2	385	386	14.9	91.5
2025-07-31T01:36	10	0	0.0	0	0	385	0.2	384	385	14.9	92.3
2025-07-31T01:37	10	0	0.1	0	0	385	0.3	384	385	14.8	92.7
2025-07-31T01:38	10	0	0.1	0	0	385	0.2	385	386	14.9	91.5
2025-07-31T01:39	10	0	0.1	0	0	385	0.3	384	386	14.9	92.1
2025-07-31T01:40	10	0	0.1	0	0	385	0.3	385	386	15.0	91.6
2025-07-31T01:41	10	0	0.0	0	0	386	0.3	385	386	15.0	90.9
2025-07-31T01:42	10	0	0.0	0	0	385	0.2	385	386	15.1	90.4
2025-07-31T01:43	10	0	0.1	0	0	385	0.2	385	386	15.1	90.3
2025-07-31T01:44	10	0	0.1	0	0	386	0.3	385	386	15.1	89.4
2025-07-31T01:45	10	0	0.1	0	0	385	0.2	385	386	15.1	89.8
2025-07-31T01:46	10	0	0.1	0	0	386	0.2	385	386	15.1	90.0
2025-07-31T01:47	10	0	0.1	0	0	386	0.2	385	386	15.1	89.9
2025-07-31T01:48	10	0	0.1	0	0	386	0.2	385	386	15.1	89.6
2025-07-31T01:49	10	0	0.1	0	0	385	0.2	385	386	15.1	90.4
2025-07-31T01:50	10	0	0.1	0	0	386	0.2	385	386	15.1	90.2
2025-07-31T01:51	10	0	0.1	0	0	386	0.2	385	386	15.1	89.4
2025-07-31T01:52	10	0	0.1	0	0	386	0.2	385	386	15.2	88.5
2025-07-31T01:53	10	0	0.1	0	0	386	0.2	385	386	15.2	89.3
2025-07-31T01:54	10	0	0.1	0	0	386	0.2	386	386	15.2	88.4
2025-07-31T01:55	10	0	0.1	0	0	386	0.2	385	386	15.3	87.5
2025-07-31T01:56	10	0	0.1	0	0	386	0.3	385	386	15.3	86.6
2025-07-31T01:57	10	0	0.1	0	0	386	0.3	385	386	15.4	86.1
2025-07-31T01:58	10	0	0.1	0	0	386	0.2	385	386	15.4	86.5
2025-07-31T01:59	10	0	0.1	0	0	386	0.2	385	386	15.3	86.5
2025-07-31T02:00	10	0	0.1	0	0	385	0.2	385	386	15.3	87.5
2025-07-31T02:01	10	0	0.1	0	0	386	0.2	385	386	15.2	88.5
2025-07-31T02:02	10	0	0.1	0	0	385	0.3	385	386	15.1	88.9
2025-07-31T02:03	10	0	0.1	0	0	385	0.2	385	386	15.1	88.4
2025-07-31T02:04	10	0	0.1	0	0	385	0.2	385	386	15.1	88.6
2025-07-31T02:05	10	0	0.1	0	0	385	0.2	385	386	15.1	89.2
2025-07-31T02:06	10	0	0.1	0	0	385	0.2	385	386	15.1	89.1
2025-07-31T02:07	10	0	0.1	0	0	385	0.2	385	386	15.1	87.8
2025-07-31T02:08	10	0	0.1	0	0	385	0.3	385	386	15.2	87.2
2025-07-31T02:09	10	0	0.1	0	0	385	0.3	384	385	15.2	86.7
2025-07-31T02:10	10	0	0.1	0	0	385	0.2	385	386	15.3	86.9
2025-07-31T02:11	10	0	0.1	0	0	385	0.2	385	386	15.3	87.2
2025-07-31T02:12	10	0	0.1	0	0	385	0.2	385	386	15.3	87.1
2025-07-31T02:13	10	0	0.1	0	0	385	0.2	384	385	15.3	87.4
2025-07-31T02:14	10	0	0.1	0	0	385	0.2	384	385	15.2	88.2
2025-07-31T02:15	10	0	0.1	0	0	385	0.2	385	386	15.2	88.0
2025-07-31T02:16	10	0	0.1	0	0	385	0.2	385	386	15.3	85.9
2025-07-31T02:17	10	0	0.1	0	0	385	0.2	385	386	15.4	85.6
2025-07-31T02:18	10	0	0.1	0	0	385	0.2	385	385	15.3	86.8
2025-07-31T02:19	10	0	0.1	0	0	385	0.2	385	386	15.4	84.9
2025-07-31T02:20	10	0	0.1	0	0	385	0.3	384	386	15.4	86.2
2025-07-31T02:21	10	0	0.1	0	0	385	0.3	384	385	15.3	87.7
2025-07-31T02:22	10	0	0.1	0	0	385	0.2	384	385	15.2	88.0
2025-07-31T02:23	10	0	0.1	0	0	385	0.3	384	386	15.3	86.7
2025-07-31T02:24	10	0	0.1	0	0	385	0.2	385	386	15.3	86.9
2025-07-31T02:25	10	0	0.1	0	0	385	0.3	384	385	15.3	87.4
2025-07-31T02:26	10	0	0.1	0	0	385	0.2	384	385	15.2	88.2
2025-07-31T02:27	10	0	0.1	0	0	385	0.2	385	386	15.2	88.1
2025-07-31T02:28	10	0	0.1	0	0	385	0.2	385	386	15.2	88.1
2025-07-31T02:29	10	0	0.1	0	0	385	0.2	385	386	15.2	87.9
2025-07-31T02:30	10	0	0.1	0	0	386	0.2	385	386	15.3	86.2
2025-07-31T02:31	10	0	0.1	0	0	386	0.2	385	386	15.4	85.9
2025-07-31T02:32	10	0	0.1	0	0	386	0.2	385	386	15.3	86.3
2025-07-31T02:33	10	0	0.1	0	0	386	0.2	385	386	15.3	86.7
2025-07-31T02:34	10	0	0.1	0	0	386	0.2	386	387	15.4	86.4
2025-07-31T02:35	10	0	0.1	0	0	386	0.3	385	387	15.4	86.2
2025-07-31T02:36	10	0	0.1	0	0	386	0.2	385	386	15.4	86.2
2025-07-31T02:37	10	0	0.1	0	0	386	0.3	385	386	15.4	86.1
2025-07-31T02:38	10	0	0.1	0	0	386	0.2	386	387	15.4	85.6
2025-07-31T02:39	10	0	0.1	0	0	386	0.3	385	387	15.4	85.3
2025-07-31T02:40	10	0	0.1	0	0	386	0.3	385	387	15.4	86.5
2025-07-31T02:41	10	0	0.1	0	0	386	0.2	385	386	15.4	86.4
2025-07-31T02:42	10	0	0.1	0	0	386	0.2	385	386	15.3	86.4
2025-07-31T02:43	10	0	0.1	0	0	386	0.2	385	386	15.3	86.5
2025-07-31T02:44	10	0	0.1	0	0	386	0.2	385	386	15.3	86.3
2025-07-31T02:45	10	0	0.1	0	0	386	0.2	385	386	15.4	85.4
2025-07-31T02:46	10	0	0.1	0	0	386	0.2	385	386	15.4	85.7
2025-07-31T02:47	10	0	0.1	0	0	386	0.2	385	386	15.4	85.8
2025-07-31T02:48	10	0	0.1	0	0	385	0.2	385	386	15.4	85.7
2025-07-31T02:49	10	0	0.1	0	0	385	0.3	385	386	15.4	86.2
2025-07-31T02:50	10	0	0.1	0	0	385	0.2	385	386	15.3	86.3
2025-07-31T02:51	10	0	0.1	0	0	385	0.3	384	386	15.4	86.1
2025-07-31T02:52	10	0	0.1	0	0	385	0.2	385	386	15.4	85.4
2025-07-31T02:53	10	0	0.1	0	0	385	0.3	384	386	15.4	85.4
2025-07-31T02:54	10	0	0.1	0	0	385	0.2	384	385	15.4	85.9
2025-07-31T02:55	10	0	0.1	0	0	385	0.2	384	385	15.3	85.9
2025-07-31T02:56	10	0	0.1	0	0	384	0.3	384	385	15.3	86.0
2025-07-31T02:57	10	0	0.1	0	0	384	0.2	384	385	15.3	86.1
2025-07-31T02:58	10	0	0.1	0	0	384	0.2	384	385	15.3	86.3
2025-07-31T02:59	10	0	0.1	0	0	385	0.3	384	385	15.3	86.8
2025-07-31T03:00	10	0	0.1	0	0	385	0.2	384	385	15.3	86.7
2025-07-31T03:01	10	0	0.1	0	0	385	0.3	384	385	15.3	86.9
2025-07-31T03:02	10	0	0.1	0	0	385	0.3	385	386	15.3	86.2
2025-07-31T03:03	10	0	0.1	0	0	385	0.2	385	386	15.3	86.3
2025-07-31T03:04	10	0	0.1	0	0	386	0.3	385	386	15.3	86.1
2025-07-31T03:05	10	0	0.1	0	0	386	0.3	385	387	15.4	85.5
2025-07-31T03:06	10	0	0.1	0	0	386	0.3	385	386	15.4	85.9
2025-07-31T03:07	10	0	0.1	0	0	386	0.2	386	387	15.4	85.4
2025-07-31T03:08	10	0	0.1	0	0	386	0.2	386	387	15.4	85.2
2025-07-31T03:09	10	0	0.1	0	0	386	0.3	386	387	15.5	85.0
2025-07-31T03:10	10	0	0.1	0	0	386	0.3	385	387	15.4	85.6
2025-07-31T03:11	10	0	0.1	0	0	386	0.2	385	386	15.4	85.7
2025-07-31T03:12	10	0	0.1	0	0	385	0.2	385	386	15.4	85.7
2025-07-31T03:13	10	0	0.1	0	0	386	0.3	385	387	15.4	86.2
2025-07-31T03:14	10	0	0.1	0	0	386	0.2	385	386	15.4	86.2
2025-07-31T03:15	10	0	0.1	0	0	386	0.2	385	386	15.4	86.1
2025-07-31T03:16	10	0	0.1	0	0	386	0.2	385	386	15.5	85.7
2025-07-31T03:17	10	0	0.1	0	0	386	0.2	385	386	15.5	86.0
2025-07-31T03:18	10	0	0.1	0	0	386	0.2	385	386	15.5	85.0
2025-07-31T03:19	10	0	0.1	0	0	386	0.2	386	387	15.6	84.6
2025-07-31T03:20	10	0	0.1	0	0	386	0.3	386	387	15.6	84.4
2025-07-31T03:21	10	0	0.1	0	0	386	0.2	386	387	15.6	84.7
2025-07-31T03:22	10	0	0.1	0	0	387	0.2	386	387	15.6	84.5
2025-07-31T03:23	10	0	0.1	0	0	387	0.2	386	387	15.6	84.4
2025-07-31T03:24	10	0	0.1	0	0	387	0.2	386	387	15.6	84.0
2025-07-31T03:25	10	0	0.1	0	0	387	0.3	386	388	15.7	83.8
2025-07-31T03:26	10	0	0.1	0	0	387	0.2	387	388	15.7	83.9
2025-07-31T03:27	10	0	0.1	0	0	387	0.2	386	387	15.7	83.6
2025-07-31T03:28	10	0	0.1	0	0	387	0.2	386	387	15.7	83.6
2025-07-31T03:29	10	0	0.1	0	0	387	0.2	387	388	15.7	83.8
2025-07-31T03:30	10	0	0.1	0	0	387	0.2	387	388	15.7	83.8
2025-07-31T03:31	10	0	0.1	0	0	387	0.2	387	388	15.7	83.3
2025-07-31T03:32	10	0	0.1	0	0	387	0.2	387	388	15.8	82.9
2025-07-31T03:33	10	0	0.1	0	0	387	0.3	387	388	15.8	83.0
2025-07-31T03:34	10	0	0.1	0	0	387	0.3	387	388	15.8	82.8
2025-07-31T03:35	10	0	0.1	0	0	387	0.3	387	388	15.8	83.0
2025-07-31T03:36	10	0	0.1	0	0	387	0.2	386	387	15.8	82.9
2025-07-31T03:37	10	0	0.1	0	0	387	0.2	386	387	15.8	82.8
2025-07-31T03:38	10	0	0.1	0	0	386	0.2	386	387	15.8	83.2
2025-07-31T03:39	10	0	0.1	0	0	386	0.2	386	387	15.8	82.9
2025-07-31T03:40	10	0	0.1	0	0	386	0.2	386	387	15.8	82.9
2025-07-31T03:41	10	0	0.1	0	0	386	0.2	385	386	15.8	82.9
2025-07-31T03:42	10	0	0.1	0	0	386	0.2	385	387	15.8	83.2
2025-07-31T03:43	10	0	0.1	0	0	386	0.2	385	387	15.8	82.9
2025-07-31T03:44	10	0	0.1	0	0	386	0.3	385	387	15.8	83.3
2025-07-31T03:45	10	0	0.1	0	0	386	0.2	385	386	15.8	82.5
2025-07-31T03:46	10	0	0.1	0	0	386	0.3	385	387	15.9	82.3
2025-07-31T03:47	10	0	0.1	0	0	386	0.2	385	386	15.9	82.2
2025-07-31T03:48	10	0	0.1	0	0	386	0.2	386	387	15.9	82.2
2025-07-31T03:49	10	0	0.1	0	0	387	0.2	386	387	16.0	81.3
2025-07-31T03:50	10	0	0.1	0	0	386	0.2	386	387	16.0	81.5
2025-07-31T03:51	10	0	0.1	0	0	386	0.3	386	387	15.9	82.3
2025-07-31T03:52	10	0	0.1	0	0	386	0.2	386	387	15.9	82.5
2025-07-31T03:53	10	0	0.1	0	0	386	0.2	386	387	15.8	82.8
2025-07-31T03:54	10	0	0.1	0	0	386	0.3	386	387	15.8	83.1
2025-07-31T03:55	10	0	0.1	0	0	386	0.3	386	387	15.9	82.2
2025-07-31T03:56	10	0	0.1	0	0	386	0.2	386	387	15.8	82.9
2025-07-31T03:57	10	0	0.1	0	0	386	0.3	386	387	15.8	82.9
2025-07-31T03:58	10	0	0.1	0	1	386	0.3	386	387	15.8	82.5
2025-07-31T03:59	10	0	0.1	0	1	386	0.2	386	387	15.8	82.7
2025-07-31T04:00	10	0	0.1	0	1	386	0.2	385	386	15.8	82.6
2025-07-31T04:01	10	1	0.1	0	1	386	0.2	385	386	15.8	82.8
2025-07-31T04:02	10	1	0.1	0	1	385	0.3	385	386	15.8	82.8
2025-07-31T04:03	10	1	0.1	0	1	385	0.2	385	386	15.8	82.3
2025-07-31T04:04	10	1	0.1	1	1	385	0.3	384	386	15.9	81.9
2025-07-31T04:05	10	1	0.1	1	1	384	0.4	383	385	15.9	82.2
2025-07-31T04:06	10	1	0.1	1	1	384	0.3	383	384	15.8	82.4
2025-07-31T04:07	10	1	0.1	1	1	383	0.3	383	384	15.8	81.9
2025-07-31T04:08	10	1	0.1	1	1	383	0.3	382	384	15.8	82.6
2025-07-31T04:09	10	1	0.1	1	1	383	0.3	382	383	15.8	82.6
2025-07-31T04:10	10	1	0.1	1	1	382	0.2	382	383	15.8	82.3
2025-07-31T04:11	10	1	0.1	1	2	381	0.3	381	382	15.8	82.5
2025-07-31T04:12	10	1	0.1	1	2	381	0.3	380	381	15.8	82.9
2025-07-31T04:13	10	1	0.1	1	2	380	0.3	379	381	15.7	82.9
2025-07-31T04:14	10	2	0.1	1	2	380	0.3	379	381	15.8	82.5
2025-07-31T04:15	10	2	0.1	1	2	379	0.2	379	380	15.8	82.1
2025-07-31T04:16	10	2	0.1	2	2	379	0.3	378	380	15.8	82.7
2025-07-31T04:17	10	2	0.1	2	2	379	0.2	378	379	15.8	82.9
2025-07-31T04:18	10	2	0.1	2	2	378	0.2	378	379	15.7	82.9
2025-07-31T04:19	10	2	0.1	2	2	378	0.2	378	379	15.7	83.1
2025-07-31T04:20	10	2	0.1	2	2	378	0.2	378	379	15.7	83.2
2025-07-31T04:21	10	2	0.1	2	3	378	0.2	377	378	15.7	83.0
2025-07-31T04:22	10	2	0.1	2	3	377	0.2	377	378	15.7	83.3
2025-07-31T04:23	10	3	0.1	2	3	377	0.2	377	378	15.6	83.9
2025-07-31T04:24	10	3	0.1	2	3	377	0.2	377	378	15.6	84.3
2025-07-31T04:25	10	3	0.1	3	3	377	0.2	377	378	15.6	84.6
2025-07-31T04:26	10	3	0.1	3	3	377	0.3	376	377	15.5	84.9
2025-07-31T04:27	10	3	0.1	3	4	377	0.2	376	377	15.5	85.0
2025-07-31T04:28	10	4	0.8	3	8	377	0.2	376	377	15.5	84.8
2025-07-31T04:29	10	4	0.1	4	4	377	0.2	376	377	15.5	84.9
2025-07-31T04:30	10	4	0.2	4	4	377	0.2	376	377	15.6	84.4
2025-07-31T04:31	10	5	0.2	4	5	377	0.3	376	377	15.6	84.1
2025-07-31T04:32	10	5	0.2	5	6	376	0.2	376	377	15.6	84.1
2025-07-31T04:33	10	6	0.1	5	6	376	0.2	376	377	15.6	84.2
2025-07-31T04:34	10	6	0.1	5	6	376	0.3	376	377	15.6	84.2
2025-07-31T04:35	10	7	0.5	6	8	376	0.3	376	377	15.5	84.9
2025-07-31T04:36	10	8	0.4	7	9	377	0.3	376	377	15.4	85.2
2025-07-31T04:37	10	9	0.2	8	9	377	0.3	377	378	15.4	85.1
2025-07-31T04:38	10	9	0.2	9	10	378	0.3	377	378	15.4	85.2
2025-07-31T04:39	10	10	0.2	10	10	378	0.3	378	379	15.4	85.8
2025-07-31T04:40	10	11	0.2	10	11	379	0.2	378	379	15.3	86.6
2025-07-31T04:41	10	11	0.2	11	12	380	0.4	379	380	15.3	86.8
2025-07-31T04:42	10	12	0.2	11	12	380	0.3	379	381	15.3	87.1
2025-07-31T04:43	10	12	0.2	12	13	380	0.3	380	381	15.3	87.2
2025-07-31T04:44	10	13	0.2	12	13	381	0.2	380	381	15.3	87.0
2025-07-31T04:45	10	13	0.3	12	13	381	0.2	380	381	15.3	87.6
2025-07-31T04:46	10	11	0.8	9	12	381	0.2	381	382	15.2	87.4
2025-07-31T04:47	10	8	0.6	7	9	381	0.3	380	382	15.2	87.6
2025-07-31T04:48	10	8	0.1	7	8	381	0.2	381	382	15.3	86.8
2025-07-31T04:49	10	9	0.7	8	11	381	0.2	381	382	15.3	86.8
2025-07-31T04:50	10	13	1.3	10	15	381	0.3	381	382	15.3	86.4
2025-07-31T04:51	10	16	0.4	15	16	382	0.2	381	382	15.4	86.3
2025-07-31T04:52	10	17	0.3	16	17	382	0.2	381	382	15.3	86.4
2025-07-31T04:53	10	17	0.1	16	17	382	0.2	381	383	15.3	87.0
2025-07-31T04:54	10	15	1.3	12	16	382	0.3	381	382	15.2	87.3
2025-07-31T04:55	10	12	0.4	11	12	381	0.4	380	382	15.1	88.3
2025-07-31T04:56	10	11	0.6	10	12	381	0.3	380	382	15.0	89.1
2025-07-31T04:57	10	14	1.1	12	16	381	0.3	381	382	15.1	88.7
2025-07-31T04:58	10	15	0.2	15	16	381	0.2	381	382	15.1	88.2
2025-07-31T04:59	10	16	0.8	14	17	382	0.2	381	382	15.1	88.7
2025-07-31T05:00	10	11	1.7	9	14	382	0.3	381	382	15.1	88.9
2025-07-31T05:01	10	9	0.1	8	9	381	0.3	381	382	14.9	89.6
2025-07-31T05:02	10	9	0.1	8	9	381	0.2	381	382	14.8	90.1
2025-07-31T05:03	10	9	0.1	8	9	381	0.2	381	382	14.7	90.4
2025-07-31T05:04	10	9	0.1	8	9	381	0.2	380	381	14.7	90.7
2025-07-31T05:05	10	8	0.1	8	9	381	0.2	380	381	14.7	90.8
2025-07-31T05:06	10	10	0.9	9	11	381	0.3	380	381	14.7	90.9
2025-07-31T05:07	10	9	0.1	9	9	381	0.3	380	382	14.7	91.1
2025-07-31T05:08	10	9	0.1	8	9	381	0.2	380	381	14.7	91.3
2025-07-31T05:09	10	9	0.1	8	9	381	0.3	380	382	14.7	91.1
2025-07-31T05:10	10	8	0.1	8	9	381	0.2	380	381	14.7	91.0
2025-07-31T05:11	10	8	0.1	8	8	380	0.2	380	381	14.7	90.4
2025-07-31T05:12	10	8	0.2	8	9	381	0.2	380	381	14.7	89.7
2025-07-31T05:13	10	8	0.1	8	8	380	0.3	380	381	14.8	89.2
2025-07-31T05:14	10	8	0.1	8	8	381	0.3	380	381	14.8	89.1
2025-07-31T05:15	10	8	0.2	8	9	380	0.2	380	381	14.8	88.7
2025-07-31T05:16	10	14	3.1	9	19	380	0.3	380	381	14.8	88.9
2025-07-31T05:17	10	20	0.9	18	21	381	0.5	380	382	14.8	89.2
2025-07-31T05:18	10	14	3.7	9	20	381	0.3	380	382	14.8	89.8
2025-07-31T05:19	10	10	0.3	9	10	381	0.2	381	381	14.8	89.8
2025-07-31T05:20	10	12	2.5	9	15	381	0.3	380	382	14.8	89.3
2025-07-31T05:21	10	10	2.7	8	15	381	0.3	381	382	14.8	89.1
2025-07-31T05:22	10	8	0.1	8	8	381	0.3	381	382	14.8	89.0
2025-07-31T05:23	10	8	0.2	8	9	381	0.2	381	382	14.8	89.2
2025-07-31T05:24	10	9	0.2	9	9	381	0.2	381	382	14.8	89.5
2025-07-31T05:25	10	10	1.0	9	13	381	0.3	381	382	14.8	89.7
2025-07-31T05:26	10	26	7.0	13	34	382	0.9	381	384	14.8	89.6
2025-07-31T05:27	10	32	1.2	29	34	384	0.6	383	385	14.9	89.4
2025-07-31T05:28	10	23	4.9	15	29	384	0.4	384	385	14.9	89.2
2025-07-31T05:29	10	16	2.2	14	21	384	0.2	384	385	15.0	89.0
2025-07-31T05:30	10	20	1.4	18	21	384	0.2	384	385	15.0	88.6
2025-07-31T05:31	10	23	1.6	19	24	384	0.3	384	385	15.0	88.4
2025-07-31T05:32	10	20	2.7	15	23	385	0.2	384	385	15.1	88.8
2025-07-31T05:33	10	13	0.6	12	15	385	0.3	384	385	15.1	87.9
2025-07-31T05:34	10	14	1.4	12	18	385	0.2	384	385	15.1	88.2
2025-07-31T05:35	10	31	7.6	18	41	386	1.0	384	388	15.1	87.7
2025-07-31T05:36	10	42	0.3	41	43	388	0.7	387	389	15.2	87.0
2025-07-31T05:37	10	43	0.6	42	44	390	0.5	389	391	15.3	87.0
2025-07-31T05:38	10	45	0.4	44	46	391	0.5	390	392	15.3	87.6
2025-07-31T05:39	10	46	0.7	45	47	392	0.4	391	393	15.4	87.8
2025-07-31T05:40	10	48	0.5	47	49	393	0.3	393	394	15.5	88.0
2025-07-31T05:41	10	48	0.4	47	49	394	0.2	394	395	15.6	87.9
2025-07-31T05:42	10	48	1.0	46	49	394	0.2	393	394	15.6	86.4
2025-07-31T05:43	10	48	0.2	48	49	395	0.2	394	395	15.6	84.4
2025-07-31T05:44	10	49	0.2	48	49	395	0.2	394	396	15.8	84.1
2025-07-31T05:45	10	46	1.0	45	48	395	0.2	395	396	15.9	83.7
2025-07-31T05:46	10	46	0.4	45	47	395	0.2	395	396	16.1	82.6
2025-07-31T05:47	10	44	0.5	43	45	396	0.3	395	396	16.1	83.2
2025-07-31T05:48	10	46	1.0	44	47	396	0.2	395	396	16.2	81.8
2025-07-31T05:49	10	48	0.7	47	50	396	0.2	396	396	16.2	80.8
2025-07-31T05:50	10	50	0.1	49	50	396	0.2	396	397	16.3	79.8
2025-07-31T05:51	10	50	0.4	50	51	397	0.3	396	397	16.3	80.4
2025-07-31T05:52	10	52	0.4	51	52	397	0.2	397	398	16.4	80.6
2025-07-31T05:53	10	53	0.3	52	53	398	0.2	397	398	16.4	81.7
2025-07-31T05:54	10	54	0.2	53	54	398	0.2	398	399	16.5	83.3
2025-07-31T05:55	10	54	0.3	54	55	399	0.2	398	399	16.5	82.9
2025-07-31T05:56	10	56	0.6	55	57	399	0.5	398	400	16.5	83.2
2025-07-31T05:57	10	48	4.9	43	57	398	0.8	397	399	16.5	81.0
2025-07-31T05:58	10	52	3.8	45	56	398	0.2	397	398	16.4	81.2
2025-07-31T05:59	10	58	1.1	56	59	398	0.4	397	399	16.4	80.9
2025-07-31T06:00	10	45	13.3	25	60	398	1.0	396	399	16.5	82.1
2025-07-31T06:01	10	36	7.0	26	43	396	0.3	396	397	16.5	80.3
2025-07-31T06:02	10	47	2.5	43	51	397	0.3	396	397	16.6	80.6
2025-07-31T06:03	10	54	0.9	52	56	398	0.3	397	399	16.6	79.5
2025-07-31T06:04	10	59	1.6	56	61	399	0.5	398	400	16.6	79.1
2025-07-31T06:05	10	61	0.4	60	62	399	0.4	399	400	16.7	79.2
2025-07-31T06:06	10	61	0.6	59	62	400	0.2	400	401	16.7	79.6
2025-07-31T06:07	10	44	10.0	33	59	400	1.0	398	401	16.7	78.8
2025-07-31T06:08	10	29	4.3	21	37	398	0.6	397	399	16.7	79.8
2025-07-31T06:09	10	21	1.4	19	24	397	0.7	395	398	16.7	80.9
2025-07-31T06:10	10	24	3.5	20	30	395	0.4	395	396	16.7	80.4
2025-07-31T06:11	10	31	6.0	22	46	396	0.4	395	397	16.8	78.8
2025-07-31T06:12	10	51	8.4	37	63	398	1.1	396	400	16.8	77.7
2025-07-31T06:13	10	61	4.9	49	65	400	0.9	398	402	16.8	78.9
2025-07-31T06:14	10	63	1.6	59	65	402	0.4	402	404	16.9	77.8
2025-07-31T06:15	10	62	0.8	60	63	403	0.3	402	404	17.0	77.4
2025-07-31T06:16	10	57	2.7	54	63	403	0.3	403	404	17.1	77.7
2025-07-31T06:17	10	69	2.2	64	72	404	0.4	403	404	17.2	75.4
2025-07-31T06:18	10	71	0.1	71	72	405	0.3	404	406	17.2	76.5
2025-07-31T06:19	10	72	0.2	72	72	406	0.4	405	406	17.3	76.1
2025-07-31T06:20	10	73	0.2	72	73	406	0.3	405	406	17.3	76.0
2025-07-31T06:21	10	72	0.5	71	73	407	0.3	406	407	17.3	76.3
2025-07-31T06:22	10	70	1.0	69	72	407	0.3	406	407	17.4	75.7
2025-07-31T06:23	10	69	1.6	65	71	406	0.2	406	407	17.4	75.8
2025-07-31T06:24	10	70	1.3	68	72	407	0.3	407	408	17.4	76.0
2025-07-31T06:25	10	73	0.4	72	73	407	0.2	407	408	17.4	74.8
2025-07-31T06:26	10	74	0.5	73	75	407	0.3	407	408	17.5	73.7
2025-07-31T06:27	10	71	3.8	63	75	408	0.3	407	408	17.5	73.0
2025-07-31T06:28	10	72	3.9	63	76	408	0.2	407	408	17.7	74.2
2025-07-31T06:29	10	76	1.0	74	77	408	0.2	407	408	17.6	72.7
2025-07-31T06:30	10	76	1.6	73	78	408	0.4	408	409	17.6	72.8
2025-07-31T06:31	10	77	0.3	77	78	409	0.4	408	409	17.7	72.6
2025-07-31T06:32	10	78	0.1	77	78	409	0.4	408	410	17.8	73.4
2025-07-31T06:33	10	78	0.1	77	78	410	0.4	409	410	17.9	73.6
2025-07-31T06:34	10	79	0.5	78	80	409	0.3	408	410	17.8	72.2
2025-07-31T06:35	10	81	0.6	80	82	410	0.5	409	411	17.8	73.1
2025-07-31T06:36	10	83	0.6	82	84	411	0.4	410	412	17.9	75.0
2025-07-31T06:37	10	82	1.3	80	84	410	0.5	409	411	17.9	72.9
2025-07-31T06:38	10	81	0.2	80	81	410	0.4	410	411	17.8	72.6
2025-07-31T06:39	10	78	1.7	76	81	410	0.4	409	411	17.9	73.0
2025-07-31T06:40	10	66	11.6	47	79	409	1.3	406	411	17.9	73.4
2025-07-31T06:41	10	48	1.0	47	51	406	0.7	405	407	17.8	73.1
2025-07-31T06:42	10	41	4.3	37	51	405	0.7	404	407	17.8	73.6
2025-07-31T06:43	10	43	0.8	41	44	404	0.3	404	405	17.8	73.7
2025-07-31T06:44	10	44	1.6	41	47	404	0.2	403	404	17.8	72.7
2025-07-31T06:45	10	46	2.8	41	49	404	0.3	403	405	17.8	73.4
2025-07-31T06:46	10	43	3.1	39	48	405	0.5	403	405	17.8	74.2
2025-07-31T06:47	10	51	14.1	35	77	404	1.0	403	407	17.8	73.0
2025-07-31T06:48	10	85	7.6	73	96	408	1.7	405	411	17.9	72.5
2025-07-31T06:49	10	71	13.4	49	94	410	0.8	408	411	17.9	72.4
2025-07-31T06:50	10	37	3.0	34	48	406	1.5	404	409	17.9	70.8
2025-07-31T06:51	10	36	0.9	35	38	405	0.3	404	405	17.8	71.8
2025-07-31T06:52	10	38	0.6	38	40	405	0.2	405	406	17.9	72.9
2025-07-31T06:53	10	42	1.4	39	44	405	0.5	404	406	17.9	73.1
2025-07-31T06:54	10	45	0.8	43	46	407	0.6	406	408	18.0	72.7
2025-07-31T06:55	10	46	0.5	45	47	409	0.3	408	409	18.0	73.6
2025-07-31T06:56	10	45	0.2	45	45	409	0.3	408	409	18.0	72.7
2025-07-31T06:57	10	45	0.3	45	46	409	0.3	408	409	18.0	71.6
2025-07-31T06:58	10	46	0.1	46	46	409	0.4	408	410	18.0	72.8
2025-07-31T06:59	10	46	0.4	45	47	410	0.3	409	411	18.0	73.3
2025-07-31T07:00	10	45	0.4	44	45	410	0.3	409	410	18.0	72.4
2025-07-31T07:01	10	43	0.5	42	44	410	0.3	409	410	18.0	72.5
2025-07-31T07:02	10	42	0.3	42	43	410	0.3	409	410	18.1	73.2
2025-07-31T07:03	10	41	0.3	41	42	409	0.4	409	410	18.1	71.4
2025-07-31T07:04	10	41	0.3	40	41	410	0.4	409	411	18.1	72.0
2025-07-31T07:05	10	40	0.2	39	40	410	0.3	410	411	18.2	73.1
2025-07-31T07:06	10	40	0.2	39	40	411	0.3	410	411	18.2	73.3
2025-07-31T07:07	10	40	0.5	40	42	410	0.6	409	411	18.3	72.4
2025-07-31T07:08	10	41	0.4	40	42	409	0.3	409	410	18.3	72.1
2025-07-31T07:09	10	41	0.3	41	42	409	0.3	409	410	18.3	72.1
2025-07-31T07:10	10	42	0.3	41	42	409	0.4	408	410	18.3	71.7
2025-07-31T07:11	10	44	0.8	42	46	410	0.3	409	410	18.3	71.8
2025-07-31T07:12	10	45	1.1	43	48	410	0.3	409	410	18.3	71.8
2025-07-31T07:13	10	45	0.2	45	45	410	0.3	409	410	18.2	71.7
2025-07-31T07:14	10	45	0.1	45	45	410	0.3	410	411	18.3	72.6
2025-07-31T07:15	10	45	0.3	44	46	410	0.9	409	412	18.3	72.1
2025-07-31T07:16	10	45	0.6	43	46	409	0.5	408	410	18.2	71.0
2025-07-31T07:17	10	44	0.2	43	44	408	0.3	407	409	18.3	71.5
2025-07-31T07:18	10	44	0.1	43	44	408	0.3	407	409	18.3	71.7
2025-07-31T07:19	10	44	0.1	43	44	409	0.4	408	410	18.3	72.2
2025-07-31T07:20	10	43	0.2	43	44	410	0.3	409	410	18.3	72.1
2025-07-31T07:21	10	44	0.5	43	45	409	0.2	409	410	18.3	71.3
2025-07-31T07:22	10	47	2.7	45	61	410	0.3	409	410	18.4	71.2
2025-07-31T07:23	10	93	21.7	62	120	415	2.8	409	419	18.4	71.0
2025-07-31T07:24	10	74	9.1	57	86	416	0.4	415	417	18.5	72.1
2025-07-31T07:25	10	97	13.8	79	124	419	2.1	416	421	18.5	70.6
2025-07-31T07:26	10	59	6.5	51	78	418	1.6	416	421	18.6	71.9
2025-07-31T07:27	10	73	17.9	51	100	417	1.1	415	419	18.7	70.8
2025-07-31T07:28	10	79	16.3	56	106	417	1.1	416	420	18.6	69.3
2025-07-31T07:29	10	108	25.7	67	140	421	2.8	417	425	18.5	69.2
2025-07-31T07:30	10	79	8.0	65	92	422	1.0	420	424	18.6	69.8
2025-07-31T07:31	10	63	7.0	54	76	419	1.6	416	422	18.8	69.5
2025-07-31T07:32	10	73	13.9	55	95	418	1.1	417	420	18.8	69.5
2025-07-31T07:33	10	55	3.5	51	61	416	1.2	413	418	18.8	67.7
2025-07-31T07:34	10	77	18.0	52	106	416	1.9	414	419	18.7	68.2
2025-07-31T07:35	10	98	15.7	71	114	420	2.6	417	424	18.6	68.5
2025-07-31T07:36	10	79	30.1	47	130	421	1.9	418	424	18.7	68.8
2025-07-31T07:37	10	75	37.3	42	131	423	2.7	419	427	18.8	68.5
2025-07-31T07:38	10	51	10.0	42	71	419	1.1	417	421	19.1	70.1
2025-07-31T07:39	10	104	21.7	45	123	421	2.9	416	425	19.0	67.6
2025-07-31T07:40	10	124	1.1	121	126	427	1.4	424	429	19.0	67.4
2025-07-31T07:41	10	121	1.5	115	123	429	0.6	428	430	19.0	66.7
2025-07-31T07:42	10	120	5.7	110	126	430	0.9	429	432	19.0	66.6
2025-07-31T07:43	10	128	0.5	127	128	431	0.3	431	432	19.3	66.1
2025-07-31T07:44	10	128	0.2	128	129	431	0.4	431	432	19.3	65.0
2025-07-31T07:45	10	129	0.3	129	130	433	0.6	431	434	19.4	64.2
2025-07-31T07:46	10	131	1.3	129	133	435	0.4	434	435	19.6	66.0
2025-07-31T07:47	10	135	0.9	133	136	436	0.4	435	437	19.5	65.3
2025-07-31T07:48	10	137	0.5	136	137	436	1.4	433	437	19.7	66.9
2025-07-31T07:49	10	135	2.1	131	138	434	0.6	433	435	19.5	65.5
2025-07-31T07:50	10	131	8.6	113	142	437	0.9	435	438	19.5	66.9
2025-07-31T07:51	10	130	20.4	91	149	438	1.5	434	440	19.6	66.6
2025-07-31T07:52	10	113	24.7	75	144	436	1.6	433	438	19.6	65.7
2025-07-31T07:53	10	80	6.0	71	89	430	1.3	429	434	19.5	65.7
2025-07-31T07:54	10	97	7.6	87	110	431	1.1	430	433	19.6	66.2
2025-07-31T07:55	10	80	6.2	71	88	430	1.8	427	433	19.5	66.4
2025-07-31T07:56	10	72	2.1	67	75	426	1.0	424	428	19.2	66.1
2025-07-31T07:57	10	72	3.9	67	79	425	0.6	424	426	19.2	66.4
2025-07-31T07:58	10	76	2.2	73	81	426	0.3	425	427	19.2	66.1
2025-07-31T07:59	10	71	2.6	68	76	426	0.3	426	427	19.2	66.1
2025-07-31T08:00	10	74	3.8	70	84	426	0.3	426	427	19.3	67.2
2025-07-31T08:01	10	82	3.8	76	88	427	0.4	427	428	19.4	65.2
2025-07-31T08:02	10	118	31.2	81	170	432	3.4	426	436	19.5	65.3
2025-07-31T08:03	10	94	10.0	85	116	432	1.0	430	433	19.6	66.2
2025-07-31T08:04	10	78	2.9	75	87	429	0.8	428	431	19.7	66.3
2025-07-31T08:05	10	77	2.3	74	82	427	0.4	427	429	19.7	65.2
2025-07-31T08:06	10	78	3.8	75	87	429	0.5	427	429	19.7	66.3
2025-07-31T08:07	10	87	10.6	76	109	430	1.3	428	431	19.8	66.1
2025-07-31T08:08	10	79	1.8	77	84	430	0.5	428	430	19.7	65.7
2025-07-31T08:09	10	118	21.7	84	149	430	1.8	427	433	19.8	67.3
2025-07-31T08:10	10	91	9.0	82	107	430	0.9	429	433	19.8	65.5
2025-07-31T08:11	10	101	7.5	92	118	432	0.5	431	433	19.8	65.9
2025-07-31T08:12	10	108	11.4	89	128	434	1.1	432	436	19.8	65.4
2025-07-31T08:13	10	97	10.3	86	120	433	0.7	431	434	19.8	65.6
2025-07-31T08:14	10	85	0.4	85	86	430	0.6	430	432	19.7	65.3
2025-07-31T08:15	10	91	2.6	86	96	431	0.7	430	433	19.7	65.1
2025-07-31T08:16	10	104	16.4	79	131	434	1.6	432	437	19.8	66.1
2025-07-31T08:17	10	74	1.8	72	79	431	1.0	430	434	19.9	66.5
2025-07-31T08:18	10	69	1.4	67	72	429	0.6	429	431	20.0	65.5
2025-07-31T08:19	10	65	1.1	63	67	428	0.5	427	429	19.9	64.9
2025-07-31T08:20	10	63	0.6	63	65	427	0.4	426	428	19.8	64.9
2025-07-31T08:21	10	71	6.9	65	85	428	1.0	426	430	19.8	66.5
2025-07-31T08:22	10	68	1.5	66	73	429	0.4	428	430	19.8	66.2
2025-07-31T08:23	10	66	1.0	66	69	429	0.3	428	429	19.9	64.9
2025-07-31T08:24	10	64	0.9	63	66	428	0.3	427	429	19.8	65.0
2025-07-31T08:25	10	65	0.5	63	66	428	0.6	426	429	20.0	66.0
2025-07-31T08:26	10	68	2.8	64	73	426	0.4	426	427	19.9	64.3
2025-07-31T08:27	10	72	2.7	69	77	428	0.5	427	429	19.9	65.1
2025-07-31T08:28	10	68	0.6	67	69	425	1.3	423	427	19.7	66.4
2025-07-31T08:29	10	88	15.4	67	117	426	1.6	423	429	19.4	67.0
2025-07-31T08:30	10	146	21.2	112	177	434	4.5	427	440	19.5	67.2
2025-07-31T08:31	10	130	17.5	98	151	437	1.8	433	439	19.7	66.6
2025-07-31T08:32	10	84	15.2	74	130	434	2.2	431	438	19.5	66.5
2025-07-31T08:33	10	75	15.2	50	102	432	0.9	430	434	19.5	66.6
2025-07-31T08:34	10	48	0.9	47	50	427	1.9	425	431	19.6	66.2
2025-07-31T08:35	10	48	1.3	47	51	424	0.6	423	426	19.5	65.8
2025-07-31T08:36	10	113	38.1	51	152	430	6.0	422	439	19.5	65.9
2025-07-31T08:37	10	128	35.3	75	162	440	2.4	435	443	19.7	65.6
2025-07-31T08:38	10	49	10.1	42	77	431	3.6	426	437	19.7	65.2
2025-07-31T08:39	10	105	42.3	43	156	430	4.9	425	440	19.7	65.3
2025-07-31T08:40	10	156	2.6	148	158	442	2.5	437	445	19.8	65.3
2025-07-31T08:41	10	142	22.5	88	159	444	1.3	440	446	19.9	64.5
2025-07-31T08:42	10	152	20.5	88	163	445	2.7	440	448	20.0	64.7
2025-07-31T08:43	10	93	47.2	48	162	443	6.1	433	450	20.0	64.0
2025-07-31T08:44	10	49	0.8	48	51	431	2.3	428	436	20.0	64.2
2025-07-31T08:45	10	46	0.4	46	48	427	1.2	426	430	19.9	63.6
2025-07-31T08:46	10	44	2.2	41	47	426	0.9	424	427	19.9	63.7
2025-07-31T08:47	10	40	1.2	37	41	423	1.1	421	425	19.8	63.7
2025-07-31T08:48	10	38	1.8	37	43	421	0.4	420	422	19.7	62.8
2025-07-31T08:49	10	56	12.2	38	71	421	1.5	419	423	19.6	62.6
2025-07-31T08:50	10	57	5.2	44	66	424	0.6	422	424	19.7	62.8
2025-07-31T08:51	10	74	25.6	43	131	425	2.3	423	430	19.7	62.8
2025-07-31T08:52	10	108	26.4	52	135	433	2.0	429	436	19.8	62.7
2025-07-31T08:53	10	57	25.4	34	110	430	3.1	426	436	20.0	64.0
2025-07-31T08:54	10	42	13.2	29	78	426	2.4	423	430	20.0	63.2
2025-07-31T08:55	10	30	0.7	29	32	422	1.0	420	424	20.0	62.9
2025-07-31T08:56	10	27	0.8	26	29	419	0.7	418	421	20.0	62.9
2025-07-31T08:57	10	26	0.4	25	27	418	0.3	417	419	20.0	62.7
2025-07-31T08:58	10	26	0.4	25	27	417	0.2	417	418	20.0	61.7
2025-07-31T08:59	10	51	34.4	27	142	419	2.6	417	427	20.0	61.9
2025-07-31T09:00	10	151	1.6	144	153	436	5.4	424	443	20.1	62.6
2025-07-31T09:01	10	147	0.7	146	149	443	1.4	440	445	20.1	61.4
2025-07-31T09:02	10	146	0.8	145	147	447	1.5	444	449	20.4	63.9
2025-07-31T09:03	10	145	0.2	145	146	449	0.5	448	450	20.4	61.8
2025-07-31T09:04	10	146	0.3	145	147	450	0.5	449	451	20.5	62.3
2025-07-31T09:05	10	147	0.6	146	148	451	0.4	450	452	20.7	62.4
2025-07-31T09:06	10	150	0.9	149	152	451	0.5	450	452	20.7	58.1
2025-07-31T09:07	10	153	0.7	152	154	451	0.3	451	452	20.7	56.5
2025-07-31T09:08	10	153	8.8	110	157	452	0.5	451	453	20.7	57.0
2025-07-31T09:09	10	53	22.3	34	101	442	6.2	433	454	20.9	56.7
2025-07-31T09:10	10	44	6.1	35	55	433	1.8	430	437	20.9	56.8
2025-07-31T09:11	10	89	39.8	41	162	433	3.5	429	442	20.8	56.8
2025-07-31T09:12	10	152	9.6	132	161	446	2.5	440	448	20.6	56.5
2025-07-31T09:13	10					449	0.9	447	451	20.6	56.9
2025-07-31T09:14	10	159	0.7	157	160	451	1.8	448	454	20.8	56.6
2025-07-31T09:15	10	161	0.5	160	162	455	0.3	454	455	20.9	57.5
2025-07-31T09:16	10	163	0.7	162	165	456	0.4	455	457	21.0	55.2
2025-07-31T09:17	10	150	16.1	124	168	457	1.2	454	458	21.1	54.6
2025-07-31T09:18	10	130	31.5	81	171	454	3.0	449	458	21.3	56.1
2025-07-31T09:19	10	103	27.3	67	167	446	2.2	444	452	21.4	54.7
2025-07-31T09:20	10	177	2.2	168	180	456	3.1	449	460	21.4	54.1
2025-07-31T09:21	10	153	30.7	87	182	459	2.0	453	461	21.6	53.3
2025-07-31T09:22	10	136	43.5	79	180	454	3.5	449	460	21.8	53.0
2025-07-31T09:23	10	112	38.5	71	177	455	5.1	448	462	21.6	54.6
2025-07-31T09:24	10	158	23.6	117	179	456	3.8	450	462	21.4	54.7
2025-07-31T09:25	10	177	0.6	176	178	460	0.6	459	462	21.3	55.0
2025-07-31T09:26	10	174	4.9	151	176	462	0.6	460	463	21.2	55.3
2025-07-31T09:27	10	86	29.4	57	146	452	6.8	442	463	21.2	54.9
2025-07-31T09:28	10	76	18.5	55	107	441	1.4	439	445	21.2	54.6
2025-07-31T09:29	10	107	40.7	56	170	442	3.8	437	450	21.0	54.9
2025-07-31T09:30	10	172	0.3	170	172	454	2.6	448	458	21.2	54.7
2025-07-31T09:31	10	172	0.2	171	172	459	1.3	457	462	21.2	53.9
2025-07-31T09:32	10	173	0.7	172	174	462	0.6	461	463	21.2	54.4
2025-07-31T09:33	10	175	0.5	174	176	464	1.0	462	467	21.3	55.1
2025-07-31T09:34	10	176	0.6	175	178	467	0.6	465	468	21.4	54.6
2025-07-31T09:35	10	93	56.0	47	178	457	8.7	444	468	21.3	54.7
2025-07-31T09:36	10	63	21.1	48	122	443	2.0	440	447	21.3	54.7
2025-07-31T09:37	10	82	18.4	54	123	444	1.5	440	446	21.2	54.3
2025-07-31T09:38	10	105	52.5	54	182	443	5.2	438	455	21.1	54.0
2025-07-31T09:39	10	180	0.4	180	181	458	3.1	452	462	21.1	53.8
2025-07-31T09:40	10	174	7.9	155	181	463	0.9	461	465	21.1	52.0
2025-07-31T09:41	10	183	1.0	181	184	466	1.2	464	468	21.1	53.8
2025-07-31T09:42	10	156	16.7	133	184	465	2.5	460	469	21.1	53.8
2025-07-31T09:43	10	139	36.9	76	185	462	3.2	454	466	21.1	53.8
2025-07-31T09:44	10	60	3.7	58	75	448	4.0	443	457	21.1	53.8
2025-07-31T09:45	10	111	38.0	59	168	449	4.9	443	456	21.1	53.8
2025-07-31T09:46	10	130	28.1	75	166	454	3.3	450	458	21.1	53.9
2025-07-31T09:47	10	76	21.6	57	126	450	5.2	443	458	21.5	53.8
2025-07-31T09:48	10	52	2.4	49	57	440	2.1	437	445	21.6	54.8
2025-07-31T09:49	10	48	0.3	47	49	435	2.0	432	438	21.4	54.8
2025-07-31T09:50	10	49	0.2	48	49	432	1.0	430	434	21.1	55.1
2025-07-31T09:51	10	48	0.4	47	49	431	0.6	430	432	21.1	55.1
2025-07-31T09:52	10	48	0.1	47	48	430	0.3	430	431	21.0	55.2
2025-07-31T09:53	10	48	0.2	48	49	431	0.6	430	432	21.0	55.5
2025-07-31T09:54	10	49	0.3	49	50	430	0.4	429	431	20.9	55.0
2025-07-31T09:55	10	51	0.7	50	52	431	0.7	429	432	20.9	55.0
2025-07-31T09:56	10	53	0.4	52	54	432	0.8	431	433	20.9	55.3
2025-07-31T09:57	10	54	0.1	53	54	433	0.3	432	434	21.0	55.1
2025-07-31T09:58	10	55	0.7	54	56	433	0.5	432	434	21.1	55.4
2025-07-31T09:59	10	57	0.8	56	59	434	0.3	433	434	21.3	55.2
2025-07-31T10:00	10	59	0.3	58	60	433	0.7	432	434	21.3	54.1
2025-07-31T10:01	10	61	0.7	59	62	433	0.5	432	434	21.2	53.4
2025-07-31T10:02	10	64	1.2	62	66	435	1.0	433	437	21.3	53.6
2025-07-31T10:03	10	69	2.4	66	75	436	0.6	436	437	21.3	52.7
2025-07-31T10:04	10	70	0.3	69	71	437	0.6	436	439	21.2	53.3
2025-07-31T10:05	10	81	12.0	70	103	439	1.5	437	443	21.4	53.5
2025-07-31T10:06	10	134	41.4	84	197	447	4.7	441	458	21.5	52.4
2025-07-31T10:07	10	202	14.8	174	220	463	4.2	454	468	21.7	51.7
2025-07-31T10:08	10	170	26.3	128	216	462	2.4	459	467	21.8	50.8
2025-07-31T10:09	10	158	31.8	107	209	464	2.8	459	468	21.8	50.4
2025-07-31T10:10	10	134	26.3	105	188	458	1.5	455	461	21.8	50.4
2025-07-31T10:11	10	151	16.8	118	188	460	2.5	455	463	21.7	50.2
2025-07-31T10:12	10	116	19.3	91	150	459	3.5	452	463	21.7	50.9
2025-07-31T10:13	10	84	3.1	78	90	450	2.1	446	454	21.4	52.9
2025-07-31T10:14	10	93	20.2	78	139	447	1.6	445	450	21.6	53.6
2025-07-31T10:15	10	79	4.3	77	101	446	1.7	445	450	21.5	52.8
2025-07-31T10:16	10	77	0.2	77	78	445	0.8	443	446	21.6	53.3
2025-07-31T10:17	10	77	0.1	77	77	443	1.0	441	445	21.8	52.9
2025-07-31T10:18	10	77	0.2	77	78	440	0.8	439	442	21.6	54.9
2025-07-31T10:19	10	78	0.4	77	79	439	0.4	438	440	21.2	56.1
2025-07-31T10:20	10	79	0.4	78	80	439	0.3	438	440	21.4	56.8
2025-07-31T10:21	10	80	0.7	79	82	439	0.5	439	440	21.6	57.0
2025-07-31T10:22	10	91	11.8	82	122	439	0.8	438	442	21.4	57.4
2025-07-31T10:23	10	91	1.8	90	98	441	0.4	440	442	21.1	58.3
2025-07-31T10:24	10	92	1.0	90	94	441	0.3	440	441	21.1	58.3
2025-07-31T10:25	10	98	4.0	93	105	443	1.1	440	444	21.1	58.6
2025-07-31T10:26	10	94	3.2	90	102	443	0.8	441	444	21.3	57.5
2025-07-31T10:27	10	89	1.6	87	92	441	0.5	440	442	21.2	57.6
2025-07-31T10:28	10	86	0.6	85	87	441	0.3	441	442	21.4	57.5
2025-07-31T10:29	10	85	0.3	84	85	441	0.6	440	442	21.4	57.2
2025-07-31T10:30	10	83	0.4	83	84	441	0.9	440	443	21.7	55.9
2025-07-31T10:31	10	82	0.4	82	83	441	0.6	440	442	21.6	56.3
2025-07-31T10:32	10	81	0.4	80	82	440	0.5	439	441	21.4	57.3
2025-07-31T10:33	10	81	0.2	80	82	441	0.6	440	442	21.5	56.7
2025-07-31T10:34	10	80	0.2	80	81	442	0.4	441	443	21.5	56.4
2025-07-31T10:35	10	80	0.3	79	80	441	0.5	440	442	21.5	55.4
2025-07-31T10:36	10	79	0.4	78	79	441	0.7	440	443	21.5	55.7
2025-07-31T10:37	10	78	0.2	78	78	440	0.9	439	442	21.6	54.6
2025-07-31T10:38	10	78	0.2	78	78	440	0.7	439	441	21.5	54.7
2025-07-31T10:39	10	79	0.7	78	80	441	0.7	440	443	21.5	54.7
2025-07-31T10:40	10	81	1.2	80	85	443	0.4	442	444	21.5	55.5
2025-07-31T10:41	10	85	1.3	83	88	443	0.8	442	444	21.6	56.0
2025-07-31T10:42	10	83	0.2	83	84	444	0.5	442	444	21.6	56.9
2025-07-31T10:43	10	83	0.1	83	83	443	0.3	442	443	21.5	56.5
2025-07-31T10:44	10	84	0.6	83	85	443	0.7	442	444	21.7	56.0
2025-07-31T10:45	10	89	3.4	85	96	443	0.5	442	444	21.5	56.0
2025-07-31T10:46	10	92	3.6	86	98	444	0.4	443	444	21.6	56.2
2025-07-31T10:47	10	85	0.7	84	86	443	0.7	442	444	21.6	56.4
2025-07-31T10:48	10	83	0.7	81	84	444	0.4	444	445	21.9	56.2
2025-07-31T10:49	10	81	0.5	80	82	443	0.9	441	444	21.9	55.8
2025-07-31T10:50	10	79	0.4	79	80	443	0.6	442	444	21.8	56.0
2025-07-31T10:51	10	78	0.3	78	79	440	1.0	439	442	21.6	55.8
2025-07-31T10:52	10	78	0.2	78	79	440	0.7	439	441	21.3	56.2
2025-07-31T10:53	10	78	0.2	77	78	441	0.5	440	442	21.3	56.4
2025-07-31T10:54	10	78	0.2	77	78	442	0.3	441	442	21.4	56.0
2025-07-31T10:55	10	77	0.2	77	78	443	0.3	442	443	21.5	55.6
2025-07-31T10:56	10	77	0.6	76	79	443	0.3	442	443	21.6	56.1
2025-07-31T10:57	10	76	1.7	74	80	441	1.0	440	443	21.4	56.1
2025-07-31T10:58	10	74	0.5	73	75	440	0.5	440	442	21.4	56.3
2025-07-31T10:59	10	73	0.1	73	74	440	0.7	438	441	21.5	56.3
2025-07-31T11:00	10	73	0.2	73	74	438	0.4	438	439	21.4	56.0
2025-07-31T11:01	10	73	0.1	73	74	440	0.9	438	441	21.4	57.1
2025-07-31T11:02	10	74	0.3	73	74	441	0.3	440	442	21.4	56.0
2025-07-31T11:03	10	75	0.4	74	76	442	0.4	441	443	21.5	56.6
2025-07-31T11:04	10	76	0.6	75	78	442	0.3	442	443	21.6	55.8
2025-07-31T11:05	10	78	0.2	77	78	443	0.3	442	444	21.7	57.3
2025-07-31T11:06	10	77	0.2	77	78	442	0.7	440	443	21.9	55.9
2025-07-31T11:07	10	78	0.2	77	78	439	0.6	438	440	21.7	55.1
2025-07-31T11:08	10	78	0.2	77	79	439	0.8	437	440	21.7	55.1
2025-07-31T11:09	10	78	0.1	77	78	439	0.8	437	440	21.5	55.0
2025-07-31T11:10	10	77	0.2	77	78	438	0.4	437	439	21.5	55.1
2025-07-31T11:11	10	78	0.2	77	78	437	0.5	437	438	21.5	54.9
2025-07-31T11:12	10	78	0.3	78	79	436	0.4	436	437	21.3	55.1
2025-07-31T11:13	10	80	0.4	79	80	438	0.7	437	439	21.4	55.3
2025-07-31T11:14	10	81	0.6	80	82	439	0.8	437	441	21.5	54.8
2025-07-31T11:15	10	83	0.8	82	85	442	1.2	439	444	21.5	54.8
2025-07-31T11:16	10	96	9.8	85	118	444	0.8	443	446	21.5	54.9
2025-07-31T11:17	10	85	1.2	84	88	443	0.8	442	445	21.5	54.8
2025-07-31T11:18	10	83	0.4	83	84	442	0.4	442	443	21.4	54.6
2025-07-31T11:19	10	82	0.4	82	83	444	0.5	443	445	21.5	55.0
2025-07-31T11:20	10	81	0.3	80	82	443	1.0	441	445	21.7	55.0
2025-07-31T11:21	10	80	0.2	80	81	440	0.8	438	442	21.6	54.3
2025-07-31T11:22	10	80	0.2	80	81	438	0.9	436	440	21.5	54.6
2025-07-31T11:23	10	80	0.2	80	81	437	0.3	436	438	21.4	54.4
2025-07-31T11:24	10	81	0.4	81	82	438	0.5	437	439	21.4	54.9
2025-07-31T11:25	10	83	0.6	82	84	439	0.4	439	440	21.4	54.7
2025-07-31T11:26	10	85	0.3	84	85	440	0.5	439	441	21.5	54.6
2025-07-31T11:27	10	86	0.3	85	86	441	0.7	440	442	21.8	53.9
2025-07-31T11:28	10	86	0.1	86	86	440	0.4	439	441	21.6	53.4
2025-07-31T11:29	10	87	0.2	86	87	441	0.4	440	441	21.6	53.4
2025-07-31T11:30	10	87	0.2	87	88	440	0.3	439	440	21.5	53.7
2025-07-31T11:31	10	88	0.1	87	88	441	1.0	439	443	21.4	53.8
2025-07-31T11:32	10	87	0.1	87	88	442	0.5	441	443	21.6	53.8
2025-07-31T11:33	10	89	2.6	87	96	445	0.5	444	446	21.7	53.6
2025-07-31T11:34	10	87	0.2	87	88	445	0.6	444	446	21.8	53.3
2025-07-31T11:35	10	87	0.2	87	88	444	0.3	444	445	21.8	52.7
2025-07-31T11:36	10	87	0.3	87	88	444	0.2	444	445	21.8	52.4
2025-07-31T11:37	10	86	0.5	85	87	443	0.6	442	444	21.7	52.3
2025-07-31T11:38	10	85	0.2	84	85	444	0.4	443	444	21.8	52.7
2025-07-31T11:39	10	85	0.1	84	85	441	0.8	440	443	21.8	52.3
2025-07-31T11:40	10	85	0.7	84	87	442	0.4	441	443	21.9	52.1
2025-07-31T11:41	10	85	0.7	84	87	443	0.7	442	444	22.2	52.1
2025-07-31T11:42	10	85	0.1	84	85	444	1.0	441	445	22.3	52.2
2025-07-31T11:43	10	85	0.3	85	86	440	0.9	438	442	21.8	52.3
2025-07-31T11:44	10	87	0.3	86	87	441	0.8	439	442	21.9	52.6
2025-07-31T11:45	10	87	0.2	87	88	441	0.6	440	442	21.9	52.1
2025-07-31T11:46	10	86	0.5	86	87	443	1.1	441	445	21.8	52.3
2025-07-31T11:47	10	86	0.1	86	86	445	0.4	443	445	22.2	52.4
2025-07-31T11:48	10	86	0.2	85	86	442	0.5	441	444	22.0	52.2
2025-07-31T11:49	10	85	0.2	85	86	442	0.6	440	443	22.0	52.3
2025-07-31T11:50	10	85	0.1	85	85	441	0.5	440	442	21.8	52.9
2025-07-31T11:51	10	85	0.2	85	86	441	0.3	440	441	22.0	53.1
2025-07-31T11:52	10	86	0.3	85	87	442	0.9	440	443	21.8	52.7
2025-07-31T11:53	10	87	0.4	86	88	442	0.5	442	444	21.7	52.9
2025-07-31T11:54	10	90	1.3	88	92	444	0.5	443	445	21.8	53.1
2025-07-31T11:55	10	93	0.7	92	94	444	1.0	442	445	22.0	52.9
2025-07-31T11:56	10	97	2.5	94	103	442	0.4	442	443	21.9	52.7
2025-07-31T11:57	10	107	2.9	103	114	444	1.5	442	446	21.5	53.4
2025-07-31T11:58	10	103	0.4	103	104	447	0.8	445	448	21.9	53.5
2025-07-31T11:59	10	103	0.3	103	104	447	0.9	446	449	22.0	53.4
2025-07-31T12:00	10	102	0.3	102	103	446	1.1	444	448	22.1	53.7
2025-07-31T12:01	10	102	0.3	101	103	445	0.5	444	446	21.8	53.6
2025-07-31T12:02	10	106	3.8	103	120	445	0.6	444	446	21.7	54.1
2025-07-31T12:03	10	128	20.5	112	179	449	1.1	445	450	21.6	54.3
2025-07-31T12:04	10	126	5.0	115	136	450	0.4	449	450	21.7	54.4
2025-07-31T12:05	10	124	5.2	116	138	451	0.7	449	452	22.0	53.6
2025-07-31T12:06	10	106	3.8	101	116	449	0.9	448	451	21.7	53.6
2025-07-31T12:07	10	100	0.4	100	101	449	0.4	448	449	22.1	53.2
2025-07-31T12:08	10	100	1.9	96	103	448	0.5	447	449	22.2	52.7
2025-07-31T12:09	10	92	2.2	88	96	447	1.0	445	449	21.8	53.0
2025-07-31T12:10	10	85	1.6	83	88	446	0.4	445	447	21.8	53.4
2025-07-31T12:11	10	80	1.2	78	83	445	0.8	444	447	22.0	53.2
2025-07-31T12:12	10	77	1.0	75	79	443	1.0	441	445	22.1	52.9
2025-07-31T12:13	10	74	0.8	73	75	442	0.3	442	443	22.2	52.8
2025-07-31T12:14	10	71	0.6	71	73	441	0.8	439	443	22.4	51.3
2025-07-31T12:15	10	70	0.6	68	71	439	0.6	437	440	22.2	50.8
2025-07-31T12:16	10	68	0.5	67	69	437	0.6	436	438	21.9	50.5
2025-07-31T12:17	10	66	0.5	65	67	437	0.3	436	437	21.9	51.8
2025-07-31T12:18	10	65	0.4	64	65	437	0.8	435	438	22.2	51.7
2025-07-31T12:19	10	63	0.3	63	64	435	0.7	434	436	22.0	51.4
2025-07-31T12:20	10	63	0.3	62	63	434	0.4	434	435	21.9	51.3
2025-07-31T12:21	10	62	0.3	61	62	434	0.4	433	435	21.9	51.3
2025-07-31T12:22	10	61	0.2	61	61	435	0.3	434	436	22.0	51.4
2025-07-31T12:23	10	60	0.2	60	61	434	0.3	434	435	22.1	51.1
2025-07-31T12:24	10	60	0.3	59	60	434	0.7	432	435	22.1	50.8
2025-07-31T12:25	10	59	0.2	59	60	432	0.4	431	433	21.9	51.0
2025-07-31T12:26	10	58	0.2	58	59	432	0.6	431	434	21.9	51.8
2025-07-31T12:27	10	58	0.1	58	59	432	0.3	431	433	21.9	51.7
2025-07-31T12:28	10	58	0.2	58	59	432	0.4	431	433	21.9	51.8
2025-07-31T12:29	10	59	0.2	58	59	432	0.4	431	433	21.9	51.7
2025-07-31T12:30	10	59	0.3	58	59	432	0.5	431	433	21.9	50.9
2025-07-31T12:31	10	60	0.3	59	60	431	0.7	430	432	21.7	50.3
2025-07-31T12:32	10	60	0.2	60	61	430	0.4	429	431	21.6	50.9
2025-07-31T12:33	10	61	0.4	60	62	431	0.5	429	431	21.6	50.9
2025-07-31T12:34	10	62	0.4	62	63	431	0.4	430	432	21.8	50.4
2025-07-31T12:35	10	64	0.5	63	65	432	0.9	431	434	21.8	50.7
2025-07-31T12:36	10	66	0.6	65	67	433	0.4	432	434	21.7	51.0
2025-07-31T12:37	10	68	0.7	67	69	433	0.3	432	434	21.7	51.3
2025-07-31T12:38	10	70	1.1	69	72	434	0.8	432	435	21.6	51.1
2025-07-31T12:39	10	71	0.3	70	72	434	0.5	433	435	21.6	51.2
2025-07-31T12:40	10	71	0.2	71	71	434	0.4	433	435	21.6	51.6
2025-07-31T12:41	10	70	0.2	70	71	435	0.6	434	436	21.6	51.7
2025-07-31T12:42	10	71	0.2	70	71	436	0.5	435	437	21.7	51.4
2025-07-31T12:43	10	71	0.3	71	72	435	0.3	434	436	21.5	51.3
2025-07-31T12:44	10	73	0.4	72	73	437	1.1	435	438	21.7	51.7
2025-07-31T12:45	10	74	0.5	73	75	436	0.7	435	438	21.7	51.2
2025-07-31T12:46	10	76	0.7	75	77	435	0.4	434	436	21.6	51.5
2025-07-31T12:47	10	76	0.2	76	77	435	0.4	434	435	21.6	51.4
2025-07-31T12:48	10	78	0.7	77	79	436	0.9	434	438	21.7	51.4
2025-07-31T12:49	10	83	1.8	79	86	439	1.0	437	441	21.8	51.5
2025-07-31T12:50	10	79	1.4	78	82	438	0.4	438	439	21.8	51.1
2025-07-31T12:51	10	79	0.8	78	81	437	0.7	436	439	21.8	50.7
2025-07-31T12:52	10	82	0.7	81	83	437	0.3	436	438	21.8	50.6
2025-07-31T12:53	10	81	0.4	80	82	437	0.3	437	438	21.8	51.1
2025-07-31T12:54	10	82	0.5	81	83	438	0.3	437	439	21.8	51.2
2025-07-31T12:55	10	84	0.6	83	85	438	0.3	438	439	21.8	51.3
2025-07-31T12:56	10	86	0.7	85	87	438	0.6	437	440	21.8	50.6
2025-07-31T12:57	10	88	0.4	87	89	439	0.5	438	440	21.9	51.0
2025-07-31T12:58	10	89	0.2	88	89	441	0.6	440	442	22.0	51.0
2025-07-31T12:59	10	89	0.2	89	90	442	0.4	441	442	22.0	50.8
2025-07-31T13:00	10	90	0.2	89	90	443	0.8	442	444	22.0	51.1
2025-07-31T13:01	10	91	0.4	90	91	442	0.9	441	445	22.0	51.6
2025-07-31T13:02	10	92	0.6	91	93	442	0.6	441	444	22.2	51.8
2025-07-31T13:03	10	95	1.1	93	97	443	0.4	442	444	22.2	51.2
2025-07-31T13:04	10	102	2.9	97	106	443	0.5	442	444	21.9	51.0
2025-07-31T13:05	10	114	6.7	106	132	446	1.8	444	450	22.0	51.1
2025-07-31T13:06	10	117	18.2	106	166	451	1.0	449	453	22.1	51.9
2025-07-31T13:07	10	137	29.0	106	197	454	3.1	449	458	22.3	51.0
2025-07-31T13:08	10	208	20.7	146	231	464	4.3	453	469	22.3	51.2
2025-07-31T13:09	10	115	12.4	103	139	460	4.0	453	467	22.4	51.3
2025-07-31T13:10	10	107	13.2	97	139	455	1.1	453	457	22.3	51.2
2025-07-31T13:11	10	96	0.3	95	97	451	1.6	448	455	22.1	48.8
2025-07-31T13:12	10	97	0.5	96	98	449	0.7	447	450	22.2	49.7
2025-07-31T13:13	10	111	19.1	97	161	447	1.4	446	451	22.0	49.2
2025-07-31T13:14	10	112	7.0	105	126	451	0.5	450	452	22.1	48.6
2025-07-31T13:15	10	107	2.0	105	112	451	0.7	450	453	22.3	49.3
2025-07-31T13:16	10	109	11.9	103	148	451	1.0	449	453	22.4	48.4
2025-07-31T13:17	10	111	9.8	105	146	452	1.0	451	454	22.6	47.9
2025-07-31T13:18	10	106	0.8	105	107	452	0.5	450	453	22.4	47.8
2025-07-31T13:19	10	104	0.3	104	105	450	0.4	450	451	22.4	48.8
2025-07-31T13:20	10	113	9.5	105	136	452	0.9	450	454	22.5	49.1
2025-07-31T13:21	10	129	18.7	104	158	455	1.7	451	457	22.4	49.0
2025-07-31T13:22	10	101	2.1	98	105	451	1.1	449	453	22.4	49.3
2025-07-31T13:23	10	96	1.4	93	98	449	0.6	448	450	22.3	48.0
2025-07-31T13:24	10	91	1.2	89	94	449	0.9	448	451	22.5	48.9
2025-07-31T13:25	10	88	1.0	86	90	448	0.5	447	449	22.5	48.8
2025-07-31T13:26	10	85	0.5	84	86	447	0.6	445	448	22.6	48.3
2025-07-31T13:27	10	84	0.3	84	85	444	1.1	443	447	22.4	48.0
2025-07-31T13:28	10	84	0.2	83	84	445	0.8	444	447	22.4	48.9
2025-07-31T13:29	10	84	0.4	83	85	446	0.5	445	447	22.3	48.9
2025-07-31T13:30	10	83	0.2	83	84	446	1.0	444	447	22.4	49.6
2025-07-31T13:31	10	88	5.2	83	104	444	0.5	443	446	22.3	49.8
2025-07-31T13:32	10	133	37.6	92	203	453	5.6	444	460	22.4	50.2
2025-07-31T13:33	10	88	1.1	87	91	452	1.9	449	455	22.7	49.7
2025-07-31T13:34	10	88	2.9	84	93	448	0.4	447	449	22.4	49.4
2025-07-31T13:35	10	85	0.6	84	86	448	0.6	447	449	22.4	49.0
2025-07-31T13:36	10	100	20.1	87	159	450	2.0	447	455	22.4	49.2
2025-07-31T13:37	10	94	17.9	81	155	450	2.4	446	455	22.3	49.3
2025-07-31T13:38	10	82	1.6	81	87	447	0.3	447	448	22.2	49.7
2025-07-31T13:39	10	123	20.8	88	158	453	3.7	446	459	22.3	50.0
2025-07-31T13:40	10	104	18.6	85	157	456	1.8	454	459	22.4	51.0
2025-07-31T13:41	10	81	2.6	78	86	452	1.1	450	454	22.5	51.7
2025-07-31T13:42	10	113	34.9	81	176	453	2.7	450	460	22.7	51.0
2025-07-31T13:43	10	133	31.4	94	175	459	2.6	454	462	22.6	50.0
2025-07-31T13:44	10	87	8.3	78	103	450	2.9	446	456	22.5	50.2
2025-07-31T13:45	10	79	11.8	70	106	447	1.2	444	449	22.6	50.2
2025-07-31T13:46	10	78	7.0	70	98	443	0.8	442	445	22.4	49.5
2025-07-31T13:47	10	104	25.5	85	177	447	2.2	444	453	22.4	49.9
2025-07-31T13:48	10	152	48.7	77	200	459	4.0	451	466	22.4	50.1
2025-07-31T13:49	10	73	1.1	71	77	450	3.4	446	456	22.5	50.0
2025-07-31T13:50	10	71	0.6	70	73	446	0.6	445	447	22.5	50.1
2025-07-31T13:51	10	131	44.8	73	191	450	6.1	444	462	22.8	49.5
2025-07-31T13:52	10	196	4.1	187	200	466	2.9	459	469	23.1	48.6
2025-07-31T13:53	10	195	3.7	183	199	470	0.9	468	472	22.8	48.1
2025-07-31T13:54	10	127	21.2	99	181	466	3.6	460	473	22.8	48.8
2025-07-31T13:55	10	145	33.5	99	195	463	3.1	460	470	23.2	48.5
2025-07-31T13:56	10	198	4.8	183	203	473	2.0	468	476	23.1	47.9
2025-07-31T13:57	10	112	20.2	97	181	463	5.2	457	474	22.9	48.2
2025-07-31T13:58	10	86	5.5	80	100	455	2.8	451	460	22.9	48.8
2025-07-31T13:59	10	79	2.1	77	84	449	1.2	447	452	23.0	48.5
2025-07-31T14:00	10	76	0.5	75	77	448	0.3	448	449	22.7	49.7
2025-07-31T14:01	10	76	0.9	75	78	449	0.3	448	450	22.7	50.1
2025-07-31T14:02	10	85	11.9	78	126	450	1.2	449	454	22.8	50.0
2025-07-31T14:03	10	90	11.5	85	128	452	0.9	451	454	23.1	50.2
2025-07-31T14:04	10	103	19.7	85	147	454	2.3	451	458	23.2	49.3
2025-07-31T14:05	10	92	5.2	88	103	453	2.3	449	456	22.9	49.2
2025-07-31T14:06	10	88	0.1	88	88	449	1.1	447	450	22.7	49.5
2025-07-31T14:07	10	88	0.6	88	90	448	0.9	446	449	22.9	49.6
2025-07-31T14:08	10	100	8.7	90	115	449	1.5	447	452	23.0	49.3
2025-07-31T14:09	10	110	13.9	96	146	453	0.9	451	455	22.9	49.7
2025-07-31T14:10	10	98	3.7	95	106	452	0.7	451	454	23.0	49.5
2025-07-31T14:11	10	89	2.4	87	96	451	0.4	450	452	23.0	49.6
2025-07-31T14:12	10	100	14.4	87	127	453	1.8	451	457	23.3	49.7
2025-07-31T14:13	10	176	26.6	127	203	462	4.8	454	471	23.1	49.0
2025-07-31T14:14	10	194	7.8	175	200	470	1.1	468	472	23.1	48.7
2025-07-31T14:15	10	201	3.5	194	205	470	1.4	468	472	22.9	48.8
2025-07-31T14:16	10	135	35.8	88	198	468	4.4	460	474	22.8	48.9
2025-07-31T14:17	10	88	5.0	85	110	458	2.4	455	464	22.9	49.0
2025-07-31T14:18	10	125	31.6	83	175	459	2.9	453	464	23.0	48.9
2025-07-31T14:19	10	80	1.9	77	83	451	1.9	448	455	22.7	48.9
2025-07-31T14:20	10	77	0.2	77	77	450	0.5	449	451	22.7	48.9
2025-07-31T14:21	10	76	0.3	76	77	450	0.4	450	451	22.8	49.2
2025-07-31T14:22	10	78	2.1	76	84	448	1.2	446	450	22.9	49.6
2025-07-31T14:23	10	82	2.0	80	87	448	0.3	447	448	22.9	50.1
2025-07-31T14:24	10	97	13.0	82	120	449	1.1	447	451	22.7	50.1
2025-07-31T14:25	10	81	0.7	81	84	449	0.4	448	449	22.6	50.0
2025-07-31T14:26	10	112	27.5	85	162	453	2.9	448	457	22.7	49.8
2025-07-31T14:27	10	94	5.9	86	108	451	0.8	450	453	22.8	49.6
2025-07-31T14:28	10	134	37.4	90	181	454	5.2	449	464	22.9	49.0
2025-07-31T14:29	10	179	22.1	139	204	463	3.1	459	470	23.0	48.8
2025-07-31T14:30	10	177	22.1	135	203	470	1.9	467	473	22.9	48.4
2025-07-31T14:31	10	158	14.3	138	186	470	1.4	468	473	22.9	48.5
2025-07-31T14:32	10	108	34.7	80	184	463	6.4	455	474	22.9	47.5
2025-07-31T14:33	10	78	3.0	74	83	455	1.6	452	458	22.8	48.4
2025-07-31T14:34	10	79	2.7	74	84	452	1.7	448	453	23.1	48.1
2025-07-31T14:35	10	73	4.0	69	81	445	1.7	443	449	22.9	48.1
2025-07-31T14:36	10	69	0.4	69	70	444	0.6	443	445	22.7	48.7
2025-07-31T14:37	10	68	0.3	68	69	444	0.4	443	445	22.8	49.0
2025-07-31T14:38	10	68	0.2	68	69	445	0.5	444	446	23.0	48.9
2025-07-31T14:39	10	70	2.2	68	75	443	0.8	442	445	22.9	48.9
2025-07-31T14:40	10	66	0.8	65	68	442	0.2	441	442	22.7	49.8
2025-07-31T14:41	10	65	0.1	65	65	441	0.3	440	442	22.8	49.7
2025-07-31T14:42	10	65	0.1	65	65	441	0.3	441	442	22.6	49.4
2025-07-31T14:43	10	66	0.8	65	68	440	0.6	439	441	22.6	49.3
2025-07-31T14:44	10	72	5.9	67	85	441	1.2	439	443	22.7	49.5
2025-07-31T14:45	10	70	2.7	68	80	441	0.5	440	442	22.7	48.9
2025-07-31T14:46	10	75	1.5	73	78	443	1.5	441	445	22.6	49.4
2025-07-31T14:47	10	88	11.2	75	109	448	2.6	444	451	22.9	49.6
2025-07-31T14:48	10	101	25.4	66	141	450	1.5	447	452	22.9	49.1
2025-07-31T14:49	10	62	1.8	59	66	444	1.7	441	447	22.9	49.1
2025-07-31T14:50	10	59	0.9	58	61	441	0.3	441	442	22.9	49.0
2025-07-31T14:51	10	64	7.9	58	83	442	0.7	441	444	22.9	49.2
2025-07-31T14:52	10	110	36.7	60	163	445	4.4	439	450	22.7	48.9
2025-07-31T14:53	10	62	2.5	60	68	442	2.5	439	448	22.9	48.7
2025-07-31T14:54	10	77	12.8	67	108	441	1.1	440	444	22.7	48.8
2025-07-31T14:55	10	64	7.4	61	96	442	1.0	441	444	22.7	48.8
2025-07-31T14:56	10	107	32.9	63	149	447	4.7	440	453	22.8	48.8
2025-07-31T14:57	10	60	1.7	59	64	444	2.6	441	449	23.0	48.6
2025-07-31T14:58	10	59	0.1	59	60	440	0.9	439	442	22.8	48.7
2025-07-31T14:59	10	60	0.4	60	61	438	0.4	437	439	22.8	48.7
2025-07-31T15:00	10	61	0.5	61	63	438	0.4	437	439	22.8	49.1
2025-07-31T15:01	10	64	5.8	61	82	439	0.4	438	440	22.7	49.0
2025-07-31T15:02	10	84	23.4	62	126	443	1.7	439	446	22.6	49.2
2025-07-31T15:03	10	62	0.3	62	63	442	0.5	442	443	22.8	49.2
2025-07-31T15:04	10	64	1.8	62	68	443	0.4	442	444	22.8	48.7
2025-07-31T15:05	10	69	2.3	65	73	445	0.6	443	446	22.8	49.1
2025-07-31T15:06	10	61	1.3	61	67	444	0.8	443	446	22.9	49.1
2025-07-31T15:07	10	65	3.6	60	71	444	0.6	443	445	22.9	49.3
2025-07-31T15:08	10	77	7.8	65	87	446	0.7	444	447	23.0	49.1
2025-07-31T15:09	10	72	4.8	59	79	443	0.5	442	445	22.8	48.4
2025-07-31T15:10	10	57	0.8	56	59	442	0.5	441	443	22.9	48.7
2025-07-31T15:11	10	83	27.6	56	130	442	2.4	440	448	23.0	48.5
2025-07-31T15:12	10	89	20.1	69	130	446	1.9	443	448	22.9	48.8
2025-07-31T15:13	10	100	18.1	79	141	444	1.4	442	448	22.8	49.2
2025-07-31T15:14	10	152	2.1	143	155	454	3.4	446	458	22.8	49.1
2025-07-31T15:15	10	136	10.4	121	151	456	1.4	454	458	23.0	48.7
2025-07-31T15:16	10	146	0.8	145	147	458	0.7	456	459	23.1	48.1
2025-07-31T15:17	10	144	0.5	142	145	461	0.7	459	462	22.9	48.0
2025-07-31T15:18	10	141	0.6	140	142	462	1.0	460	464	23.1	48.4
2025-07-31T15:19	10	139	0.9	137	140	461	0.8	459	462	23.0	48.1
2025-07-31T15:20	10	136	2.0	129	137	462	0.3	462	463	23.1	48.4
2025-07-31T15:21	10	125	3.9	120	132	460	0.7	459	462	23.0	48.7
2025-07-31T15:22	10	127	8.7	109	136	461	1.0	459	463	23.3	48.8
2025-07-31T15:23	10	92	19.5	64	118	454	4.0	447	460	23.3	48.0
2025-07-31T15:24	10	114	14.8	79	133	451	1.6	448	453	23.1	48.3
2025-07-31T15:25	10	92	18.5	67	118	450	2.0	447	453	22.9	48.8
2025-07-31T15:26	10	127	4.3	111	130	453	1.3	449	455	23.2	48.5
2025-07-31T15:27	10	125	6.2	103	129	454	0.6	453	455	23.0	48.6
2025-07-31T15:28	10	74	12.3	61	101	448	2.7	445	455	22.8	48.7
2025-07-31T15:29	10	71	14.5	47	94	448	1.6	444	450	23.1	48.8
2025-07-31T15:30	10	55	8.3	46	81	444	0.5	444	446	23.2	48.5
2025-07-31T15:31	10	109	9.8	84	124	449	2.0	444	452	23.0	48.3
2025-07-31T15:32	10	121	4.0	115	126	453	0.8	451	454	23.0	48.5
2025-07-31T15:33	10	124	0.3	122	124	455	0.3	454	456	23.0	48.4
2025-07-31T15:34	10	124	0.2	123	124	455	0.4	454	456	23.0	48.9
2025-07-31T15:35	10	124	0.2	123	124	456	0.8	455	458	23.1	48.9
2025-07-31T15:36	10	124	0.2	124	125	458	0.3	457	459	23.5	49.5
2025-07-31T15:37	10	125	0.2	124	125	457	0.5	456	458	23.5	48.6
2025-07-31T15:38	10	125	0.1	125	125	456	0.8	455	457	23.2	48.7
2025-07-31T15:39	10	125	0.1	125	125	457	0.3	456	457	23.0	49.0
2025-07-31T15:40	10	125	0.1	125	125	456	1.0	454	458	23.1	48.8
2025-07-31T15:41	10	125	0.2	124	125	454	0.4	454	456	23.0	48.7
2025-07-31T15:42	10	125	0.4	124	126	457	0.9	455	459	23.1	48.9
2025-07-31T15:43	10	126	0.4	125	127	460	1.0	458	462	23.3	49.3
2025-07-31T15:44	10	127	0.5	126	128	462	0.3	461	462	23.5	48.7
2025-07-31T15:45	10	129	0.4	128	130	461	0.5	460	462	23.4	48.7
2025-07-31T15:46	10	126	1.8	123	129	461	1.0	458	462	23.8	48.7
2025-07-31T15:47	10	129	0.7	126	130	459	0.4	458	460	23.8	48.4
2025-07-31T15:48	10	130	0.3	129	130	456	1.1	454	458	23.2	49.5
2025-07-31T15:49	10	130	0.2	129	130	454	0.8	453	456	23.0	50.0
2025-07-31T15:50	10	130	0.1	130	130	455	0.6	454	457	23.0	50.4
2025-07-31T15:51	10	129	0.7	128	130	457	0.8	456	459	23.2	49.9
2025-07-31T15:52	10	127	1.0	124	128	458	1.0	457	460	23.4	49.5
2025-07-31T15:53	10	124	2.8	119	127	456	1.2	454	458	23.3	49.0
2025-07-31T15:54	10	81	26.5	47	125	450	4.6	444	456	23.1	49.5
2025-07-31T15:55	10	108	19.4	63	122	448	2.8	444	453	23.1	49.7
2025-07-31T15:56	10	115	4.3	107	121	452	0.6	451	453	23.2	49.4
2025-07-31T15:57	10	117	0.5	116	118	451	0.8	450	453	23.2	49.2
2025-07-31T15:58	10	115	0.4	115	116	451	0.7	450	453	23.1	49.4
2025-07-31T15:59	10	112	3.0	107	115	451	0.6	450	452	23.1	49.2
2025-07-31T16:00	10	84	12.7	62	109	448	2.0	445	452	23.1	49.6
2025-07-31T16:01	10	80	21.2	49	104	445	2.4	440	447	23.0	49.4
2025-07-31T16:02	10	93	18.8	53	110	443	2.2	440	447	22.8	49.8
2025-07-31T16:03	10	109	0.3	108	109	448	0.8	446	449	23.0	49.7
2025-07-31T16:04	10	107	0.5	107	108	449	0.6	448	450	23.2	49.3
2025-07-31T16:05	10	90	26.0	26	107	448	2.4	441	450	23.0	49.9
2025-07-31T16:06	10	22	1.1	20	26	437	2.4	434	443	23.0	50.4
2025-07-31T16:07	10	19	0.6	19	20	432	1.1	431	435	23.3	50.0
2025-07-31T16:08	10	21	4.0	18	36	430	0.6	429	431	23.1	49.8
2025-07-31T16:09	10	82	22.4	37	103	436	4.6	429	443	23.0	49.6
2025-07-31T16:10	10	102	0.6	101	103	444	1.5	441	447	23.1	49.5
2025-07-31T16:11	10	100	0.4	100	101	447	0.6	445	448	23.1	49.5
2025-07-31T16:12	10	99	0.2	99	99	447	0.5	446	448	23.2	49.6
2025-07-31T16:13	10	99	0.1	98	99	446	0.7	446	448	23.1	49.4
2025-07-31T16:14	10	99	0.1	99	99	446	0.4	446	447	23.2	49.2
2025-07-31T16:15	10	99	0.1	99	99	445	0.7	443	446	22.9	49.7
2025-07-31T16:16	10	99	0.1	99	99	445	0.3	444	445	22.9	50.1
2025-07-31T16:17	10	98	0.2	98	99	446	1.2	444	448	23.0	50.3
2025-07-31T16:18	10	98	0.1	98	98	446	0.7	445	448	23.2	49.6
2025-07-31T16:19	10	98	0.3	97	98	444	0.3	444	445	22.8	50.0
2025-07-31T16:20	10	97	0.1	97	97	444	0.4	443	444	22.8	50.0
2025-07-31T16:21	10	97	0.1	97	98	445	0.4	444	446	23.0	49.8
2025-07-31T16:22	10	98	0.2	97	98	444	0.5	443	445	22.9	50.1
2025-07-31T16:23	10	98	0.1	98	98	445	0.6	444	446	22.8	50.2
2025-07-31T16:24	10	98	0.1	98	98	445	0.5	444	446	22.9	50.2
2025-07-31T16:25	10	97	0.4	96	98	445	0.5	444	446	23.0	50.5
2025-07-31T16:26	10	59	17.1	42	96	442	2.5	439	446	23.0	50.3
2025-07-31T16:27	10	93	11.2	63	102	441	1.1	439	442	23.2	48.9
2025-07-31T16:28	10	102	0.2	102	103	444	1.1	442	445	23.2	47.8
2025-07-31T16:29	10	100	3.2	93	104	446	0.9	445	448	23.3	47.4
2025-07-31T16:30	10	105	0.6	104	106	448	0.4	447	449	23.3	46.6
2025-07-31T16:31	10	105	2.2	100	107	448	0.6	447	449	23.2	47.1
2025-07-31T16:32	10	95	19.4	46	107	448	1.4	444	449	23.5	46.5
2025-07-31T16:33	10	68	17.2	43	96	444	0.8	442	445	23.3	46.7
2025-07-31T16:34	10	61	20.7	36	98	442	1.0	440	444	23.4	46.8
2025-07-31T16:35	10	106	1.3	100	107	447	1.4	443	448	23.3	46.8
2025-07-31T16:36	10	80	25.0	44	106	446	2.0	442	448	23.3	46.7
2025-07-31T16:37	10	94	11.7	62	106	447	2.5	442	450	23.5	46.6
2025-07-31T16:38	10	87	11.0	68	99	446	1.3	445	449	23.3	47.0
2025-07-31T16:39	10	65	21.2	35	93	443	2.7	438	447	23.0	47.7
2025-07-31T16:40	10	55	17.3	34	92	439	1.1	438	442	22.9	48.0
2025-07-31T16:41	10	99	2.2	92	101	445	2.0	441	447	23.0	48.0
2025-07-31T16:42	10	93	9.7	67	99	446	0.8	444	447	23.0	48.5
2025-07-31T16:43	10	78	8.3	66	89	444	0.4	443	445	23.0	48.2
2025-07-31T16:44	10	81	10.6	65	92	443	1.3	442	446	23.0	48.3
2025-07-31T16:45	10	88	1.8	87	92	445	0.5	444	446	23.2	48.1
2025-07-31T16:46	10	83	8.1	69	91	444	0.6	443	445	23.1	47.8
2025-07-31T16:47	10	79	5.5	70	89	443	0.5	442	444	23.2	48.4
2025-07-31T16:48	10	90	0.3	89	90	445	0.6	444	446	23.3	48.5
2025-07-31T16:49	10	89	0.3	88	89	446	0.3	445	447	23.4	49.2
2025-07-31T16:50	10	88	0.4	87	88	446	0.4	445	447	23.4	47.8
2025-07-31T16:51	10	87	0.3	86	87	445	1.1	443	446	23.4	47.8
2025-07-31T16:52	10	82	5.3	72	86	441	1.3	439	443	23.0	47.7
2025-07-31T16:53	10	80	4.2	69	84	440	0.4	439	440	23.0	48.1
2025-07-31T16:54	10	49	7.7	40	68	437	1.5	435	440	23.0	48.1
2025-07-31T16:55	10	34	10.1	23	49	434	2.1	430	437	23.2	48.1
2025-07-31T16:56	10	30	10.0	23	60	430	0.7	429	431	23.0	48.1
2025-07-31T16:57	10	76	4.1	61	80	434	2.4	429	438	23.1	48.4
2025-07-31T16:58	10	80	0.6	80	81	436	0.4	436	437	23.2	48.1
2025-07-31T16:59	10	82	0.7	81	83	438	0.8	437	439	23.0	48.1
2025-07-31T17:00	10	83	0.1	83	83	439	0.7	438	440	23.0	48.2
2025-07-31T17:01	10	82	0.4	81	83	440	0.4	439	441	23.1	48.3
2025-07-31T17:02	10	81	0.6	80	82	440	0.2	439	440	23.3	48.0
2025-07-31T17:03	10	78	1.0	76	80	439	0.3	439	440	23.1	47.8
2025-07-31T17:04	10	73	6.7	55	79	438	0.3	437	439	23.2	47.7
2025-07-31T17:05	10	33	7.2	25	54	435	2.3	432	439	23.2	47.7
2025-07-31T17:06	10	24	0.3	24	25	431	1.1	428	433	23.1	47.8
2025-07-31T17:07	10	33	12.2	23	63	428	0.7	427	430	23.0	47.4
2025-07-31T17:08	10	74	3.7	64	77	433	1.8	429	436	23.0	47.3
2025-07-31T17:09	10	77	0.2	76	77	436	0.8	434	437	23.0	47.0
2025-07-31T17:10	10	76	0.5	75	77	437	0.5	436	438	23.0	47.3
2025-07-31T17:11	10	74	0.5	73	75	437	0.3	436	438	23.0	47.5
2025-07-31T17:12	10	73	0.3	73	74	436	0.2	436	437	23.0	47.4
2025-07-31T17:13	10	73	0.3	72	73	436	0.2	436	437	23.1	47.3
2025-07-31T17:14	10	72	0.1	72	72	437	0.5	436	438	23.2	47.5
2025-07-31T17:15	10	72	0.3	71	72	438	0.3	437	438	23.2	47.9
2025-07-31T17:16	10	71	0.3	70	71	437	0.3	436	438	23.3	47.0
2025-07-31T17:17	10	70	0.3	69	70	437	0.5	436	438	23.3	46.9
2025-07-31T17:18	10	69	0.4	68	69	437	0.3	437	438	23.4	46.8
2025-07-31T17:19	10	67	0.4	66	68	436	0.9	435	438	23.3	46.8
2025-07-31T17:20	10	66	0.3	65	67	436	0.2	436	436	23.3	46.3
2025-07-31T17:21	10	65	0.4	64	65	436	0.3	436	437	23.3	46.6
2025-07-31T17:22	10	63	0.6	62	64	435	0.4	435	437	23.3	47.3
2025-07-31T17:23	10	61	0.5	60	62	435	0.3	434	435	23.2	47.2
2025-07-31T17:24	10	59	0.3	58	60	435	0.3	434	435	23.3	47.5
2025-07-31T17:25	10	58	0.3	57	59	434	0.5	433	435	23.3	47.8
2025-07-31T17:26	10	57	0.2	57	58	433	0.2	433	434	23.3	47.0
2025-07-31T17:27	10	56	0.3	56	57	433	0.4	431	433	23.2	47.5
2025-07-31T17:28	10	55	0.3	55	56	431	0.3	430	432	23.1	47.0
2025-07-31T17:29	10	54	0.3	54	55	431	0.4	430	432	23.1	46.8
2025-07-31T17:30	10	54	0.3	53	54	430	0.2	430	431	23.1	47.0
2025-07-31T17:31	10	53	0.3	52	53	430	0.2	429	430	23.1	47.4
2025-07-31T17:32	10	52	0.2	51	52	430	0.3	429	431	23.2	47.0
2025-07-31T17:33	10	51	0.2	51	52	429	0.2	429	430	23.3	47.0
2025-07-31T17:34	10	51	0.1	50	51	430	0.2	430	430	23.3	46.8
2025-07-31T17:35	10	50	0.2	50	51	430	0.3	429	430	23.2	47.3
2025-07-31T17:36	10	50	0.2	49	50	429	0.2	429	430	23.2	47.2
2025-07-31T17:37	10	48	0.3	48	49	429	0.4	429	430	23.2	47.2
2025-07-31T17:38	10	48	0.2	47	48	429	0.3	429	430	23.3	46.6
2025-07-31T17:39	10	47	0.2	47	48	429	0.4	428	430	23.4	47.0
2025-07-31T17:40	10	46	0.2	46	47	428	0.4	427	429	23.2	48.2
2025-07-31T17:41	10	45	0.3	45	46	427	0.2	427	428	23.1	48.3
2025-07-31T17:42	10	44	0.6	43	45	427	0.3	426	427	23.1	47.0
2025-07-31T17:43	10	43	0.4	42	43	426	0.3	425	427	23.1	46.7
2025-07-31T17:44	10	41	0.4	41	42	426	0.2	426	427	23.1	46.7
2025-07-31T17:45	10	40	0.5	40	41	426	0.3	426	427	23.1	47.2
2025-07-31T17:46	10	40	0.3	40	41	426	0.4	425	427	23.1	47.6
2025-07-31T17:47	10	39	0.7	38	40	425	0.3	425	426	23.2	47.3
2025-07-31T17:48	10	38	1.3	36	39	425	0.2	424	425	23.2	46.7
2025-07-31T17:49	10	31	4.7	21	36	424	0.6	423	425	23.2	46.1
2025-07-31T17:50	10	15	2.3	13	21	422	0.8	420	423	23.2	46.3
2025-07-31T17:51	10	17	0.6	16	18	421	0.2	420	421	23.2	46.4
2025-07-31T17:52	10	21	3.4	16	25	420	0.4	420	421	23.1	46.5
2025-07-31T17:53	10	17	4.8	10	24	420	0.4	419	421	23.2	46.7
2025-07-31T17:54	10	9	0.4	8	10	419	0.7	418	420	23.1	46.6
2025-07-31T17:55	10	10	1.1	9	13	418	0.3	417	418	23.1	46.7
2025-07-31T17:56	10	18	2.4	13	21	418	0.4	417	419	23.0	47.0
2025-07-31T17:57	10	19	1.7	17	23	418	0.2	418	419	23.0	47.2
2025-07-31T17:58	10	26	1.3	23	28	419	0.5	418	420	23.0	47.3
2025-07-31T17:59	10	32	2.0	28	34	420	0.6	419	421	23.1	47.4
2025-07-31T18:00	10	33	0.2	33	34	420	0.5	420	422	23.1	47.3
2025-07-31T18:01	10	31	1.8	26	33	421	0.2	420	421	23.2	47.4
2025-07-31T18:02	10	18	4.0	13	26	420	0.8	418	421	23.2	47.2
2025-07-31T18:03	10	20	2.8	14	23	418	0.2	418	419	23.2	46.8
2025-07-31T18:04	10	22	2.2	16	23	419	0.2	418	419	23.2	46.8
2025-07-31T18:05	10	10	2.2	8	16	418	0.6	417	419	23.3	47.0
2025-07-31T18:06	10	13	2.4	9	17	417	0.3	417	418	23.2	47.0
2025-07-31T18:07	10	23	5.4	12	28	417	0.7	416	418	23.1	47.3
2025-07-31T18:08	10	28	0.1	28	29	418	0.3	417	418	23.2	47.7
2025-07-31T18:09	10	28	0.3	27	28	418	0.2	417	418	23.0	48.3
2025-07-31T18:10	10	27	0.6	26	28	418	0.2	418	419	22.9	50.3
2025-07-31T18:11	10	27	0.2	27	27	418	0.2	417	418	22.8	49.9
2025-07-31T18:12	10	27	0.3	26	27	418	0.3	417	419	22.8	49.7
2025-07-31T18:13	10	27	0.1	26	27	417	0.3	417	418	22.8	49.5
2025-07-31T18:14	10	26	0.2	26	26	417	0.2	417	418	22.7	49.7
2025-07-31T18:15	10	25	0.3	25	26	417	0.2	416	417	22.7	50.1
2025-07-31T18:16	10	24	0.3	24	25	417	0.2	416	417	22.7	50.0
2025-07-31T18:17	10	24	0.2	23	24	416	0.2	416	417	22.8	49.1
2025-07-31T18:18	10	23	0.1	23	23	416	0.2	416	417	22.8	48.5
2025-07-31T18:19	10	23	0.1	23	23	416	0.2	416	417	22.8	48.1
2025-07-31T18:20	10	23	0.2	23	24	416	0.3	416	417	22.9	48.0
2025-07-31T18:21	10	24	0.1	23	24	417	0.3	416	417	22.9	48.0
2025-07-31T18:22	10	24	0.1	23	24	417	0.3	416	418	22.8	48.8
2025-07-31T18:23	10	23	0.1	23	23	418	0.2	417	418	22.8	48.9
2025-07-31T18:24	10	23	0.2	22	23	418	0.4	417	419	22.8	48.8
2025-07-31T18:25	10	22	0.3	21	22	418	0.3	417	419	22.8	49.0
2025-07-31T18:26	10	21	0.4	20	21	418	0.4	417	419	22.8	50.0
2025-07-31T18:27	10	18	1.2	16	20	417	0.4	416	418	22.7	50.5
2025-07-31T18:28	10	14	1.1	12	16	416	0.3	415	417	22.7	50.6
2025-07-31T18:29	10	11	0.8	10	12	415	0.5	414	416	22.6	51.1
2025-07-31T18:30	10	11	0.5	10	12	414	0.2	414	415	22.6	51.3
2025-07-31T18:31	10	14	1.0	12	15	414	0.3	413	415	22.5	51.2
2025-07-31T18:32	10	14	0.4	14	15	414	0.3	413	414	22.5	50.8
2025-07-31T18:33	10	14	0.1	13	14	414	0.2	413	414	22.5	51.1
2025-07-31T18:34	10	13	0.2	13	14	414	0.2	413	414	22.5	51.3
2025-07-31T18:35	10	12	0.4	12	13	414	0.2	413	414	22.4	51.5
2025-07-31T18:36	10	12	0.1	12	12	414	0.2	413	414	22.2	53.9
2025-07-31T18:37	10	12	0.3	11	12	413	0.3	413	414	22.1	54.7
2025-07-31T18:38	10	10	0.7	9	11	413	0.2	413	414	22.1	55.3
2025-07-31T18:39	10	8	0.5	7	9	413	0.2	412	413	22.0	55.6
2025-07-31T18:40	10	7	0.3	6	7	412	0.2	412	413	21.9	56.3
2025-07-31T18:41	10	6	0.2	6	7	412	0.3	411	413	21.9	56.7
2025-07-31T18:42	10	6	0.1	5	6	412	0.4	411	413	21.8	57.1
2025-07-31T18:43	10	5	0.3	4	5	412	0.3	411	413	21.8	57.4
2025-07-31T18:44	10	4	0.3	3	5	411	0.5	410	412	21.7	58.1
2025-07-31T18:45	10	3	0.1	3	4	411	0.5	410	411	21.6	58.0
2025-07-31T18:46	10	3	0.1	3	4	411	0.2	410	411	21.7	58.0
2025-07-31T18:47	10	3	0.2	3	3	410	0.2	409	411	21.6	58.5
2025-07-31T18:48	10	2	0.2	2	3	410	0.4	409	411	21.6	58.3
2025-07-31T18:49	10	2	0.1	2	2	410	0.2	409	411	21.6	58.3
2025-07-31T18:50	10	2	0.1	2	2	410	0.2	409	410	21.5	58.7
2025-07-31T18:51	10	2	0.1	2	3	409	0.4	408	410	21.5	58.8
2025-07-31T18:52	10	2	0.1	2	2	409	0.3	408	410	21.5	59.2
2025-07-31T18:53	10	2	0.1	1	2	409	0.2	409	410	21.4	59.6
2025-07-31T18:54	10	1	0.2	1	2	408	0.4	407	409	21.3	59.9
2025-07-31T18:55	10	1	0.2	1	2	408	0.3	407	408	21.3	60.0
2025-07-31T18:56	10	1	0.1	1	2	408	0.3	408	409	21.3	59.8
2025-07-31T18:57	10	1	0.2	1	2	408	0.3	407	409	21.2	59.9
2025-07-31T18:58	10	1	0.2	1	2	408	0.3	407	408	21.1	60.5
2025-07-31T18:59	10	1	0.1	1	1	407	0.3	407	408	21.1	60.8
2025-07-31T19:00	10	1	0.1	1	1	406	0.2	406	407	21.1	60.8
2025-07-31T19:01	10	1	0.1	1	1	406	0.2	405	407	21.0	61.0
2025-07-31T19:02	10	1	0.1	1	1	405	0.2	404	406	21.0	61.3
2025-07-31T19:03	10	1	0.1	0	1	405	0.2	404	405	20.9	61.9
2025-07-31T19:04	10	1	0.1	0	1	404	0.2	404	405	20.9	61.7
2025-07-31T19:05	10	1	0.1	0	1	403	0.2	403	404	20.9	61.9
2025-07-31T19:06	10	0	0.1	0	1	403	0.5	402	404	20.8	62.2
2025-07-31T19:07	10	0	0.1	0	1	402	0.6	401	404	20.8	62.3
2025-07-31T19:08	10	0	0.1	0	1	403	0.2	402	403	20.8	62.3
2025-07-31T19:09	10	0	0.1	0	1	402	0.4	401	403	20.7	63.0
2025-07-31T19:10	10	0	0.1	0	1	400	0.3	400	401	20.6	63.5
2025-07-31T19:11	10	0	0.1	0	1	400	0.3	399	400	20.5	64.1
2025-07-31T19:12	10	0	0.1	0	0	399	0.2	399	400	20.5	64.0
2025-07-31T19:13	10	0	0.1	0	1	399	0.2	398	399	20.4	64.2
2025-07-31T19:14	10	0	0.1	0	0	399	0.2	398	399	20.4	64.3
2025-07-31T19:15	10	0	0.1	0	0	398	0.2	398	399	20.4	64.3
2025-07-31T19:16	10	0	0.1	0	0	398	0.2	398	399	20.4	64.3
2025-07-31T19:17	10	0	0.1	0	0	397	0.2	397	398	20.4	64.6
2025-07-31T19:18	10	0	0.1	0	0	397	0.3	397	398	20.3	64.9
2025-07-31T19:19	10	0	0.1	0	0	397	0.2	396	397	20.3	65.3
2025-07-31T19:20	10	0	0.1	0	0	396	0.2	396	397	20.1	65.9
2025-07-31T19:21	10	0	0.1	0	0	396	0.2	395	396	20.0	66.4
2025-07-31T19:22	10	0	0.1	0	0	395	0.2	395	396	19.9	67.0
2025-07-31T19:23	10	0	0.1	0	0	396	0.2	395	396	19.9	67.4
2025-07-31T19:24	10	0	0.1	0	0	395	0.3	395	396	19.8	67.4
2025-07-31T19:25	10	0	0.1	0	0	396	0.3	395	396	19.9	66.6
2025-07-31T19:26	10	0	0.1	0	0	396	0.3	395	396	20.0	66.4
2025-07-31T19:27	10	0	0.2	0	1	395	0.3	395	396	19.9	66.8
2025-07-31T19:28	10	0	0.1	0	0	395	0.3	394	396	19.9	67.1
2025-07-31T19:29	10	0	0.2	0	0	394	0.3	394	395	19.9	66.9
2025-07-31T19:30	10	0	0.2	0	1	394	0.3	394	395	19.9	66.9
2025-07-31T19:31	10	0	0.2	0	0	394	0.3	393	395	19.8	67.0
2025-07-31T19:32	10	0	0.2	0	1	394	0.3	393	395	19.8	67.3
2025-07-31T19:33	10	0	0.2	0	1	394	0.4	393	395	19.7	67.2
2025-07-31T19:34	10	0	0.2	0	0	394	0.2	393	394	19.8	66.7
2025-07-31T19:35	10	0	0.1	0	0	394	0.2	393	394	19.8	66.6
2025-07-31T19:36	10	0	0.1	0	0	394	0.3	393	394	19.8	66.9
2025-07-31T19:37	10	0	0.1	0	0	393	0.4	393	394	19.6	67.8
2025-07-31T19:38	10	0	0.1	0	0	393	0.3	393	394	19.6	67.8
2025-07-31T19:39	10	0	0.1	0	0	393	0.2	393	394	19.7	67.4
2025-07-31T19:40	10	0	0.1	0	0	393	0.3	392	393	19.6	68.0
2025-07-31T19:41	10	0	0.1	0	0	393	0.2	392	393	19.5	68.4
2025-07-31T19:42	10	0	0.1	0	0	393	0.3	392	394	19.5	68.4
2025-07-31T19:43	10	0	0.1	0	0	393	0.3	393	394	19.4	68.6
2025-07-31T19:44	10	0	0.1	0	0	394	0.4	393	394	19.7	66.3
2025-07-31T19:45	10	0	0.1	0	0	393	0.3	392	394	19.6	67.5
2025-07-31T19:46	10	0	0.1	0	0	393	0.3	392	393	19.6	67.6
2025-07-31T19:47	10	0	0.1	0	0	393	0.2	392	393	19.4	68.5
2025-07-31T19:48	10	0	0.1	0	0	393	0.3	392	393	19.4	68.7
2025-07-31T19:49	10	0	0.1	0	0	393	0.4	392	394	19.5	67.9
2025-07-31T19:50	10	0	0.1	0	0	393	0.3	392	394	19.4	68.0
2025-07-31T19:51	10	0	0.1	0	0	393	0.3	392	393	19.6	67.1
2025-07-31T19:52	10	0	0.1	0	0	393	0.2	392	393	19.6	67.5
2025-07-31T19:53	10	0	0.1	0	0	392	0.3	391	392	19.5	67.6
2025-07-31T19:54	10	0	0.1	0	0	392	0.2	391	392	19.6	66.9
2025-07-31T19:55	10	0	0.1	0	0	391	0.3	390	392	19.6	67.2
2025-07-31T19:56	10	0	0.1	0	0	391	0.2	390	391	19.4	68.2
2025-07-31T19:57	10	0	0.1	0	0	390	0.3	390	391	19.4	68.4
2025-07-31T19:58	10	0	0.1	0	0	390	0.3	389	390	19.3	68.6
2025-07-31T19:59	10	0	0.1	0	0	389	0.2	388	390	19.3	68.4
2025-07-31T20:00	10	0	0.1	0	0	389	0.2	388	389	19.3	68.5
2025-07-31T20:01	10	0	0.1	0	0	389	0.2	388	389	19.3	68.5
2025-07-31T20:02	10	0	0.1	0	0	389	0.3	388	389	19.3	68.1
2025-07-31T20:03	10	0	0.1	0	0	389	0.2	388	389	19.3	67.9
2025-07-31T20:04	10	0	0.1	0	0	389	0.2	388	389	19.4	67.7
2025-07-31T20:05	10	0	0.1	0	0	389	0.2	388	389	19.3	67.7
2025-07-31T20:06	10	0	0.1	0	0	388	0.3	387	388	19.3	68.2
2025-07-31T20:07	10	0	0.1	0	1	388	0.3	388	389	19.3	67.7
2025-07-31T20:08	10	0	0.1	0	0	388	0.3	388	389	19.5	66.6
2025-07-31T20:09	10	0	0.1	0	0	388	0.3	387	388	19.5	66.7
2025-07-31T20:10	10	0	0.2	0	1	387	0.3	387	388	19.3	67.3
2025-07-31T20:11	10	0	0.2	0	1	387	0.3	386	388	19.3	67.3
2025-07-31T20:12	10	0	0.1	0	0	387	0.2	387	388	19.3	67.4
2025-07-31T20:13	10	0	0.1	0	0	387	0.2	387	388	19.2	67.8
2025-07-31T20:14	10	0	0.2	0	1	387	0.3	386	387	19.1	68.7
2025-07-31T20:15	10	0	0.1	0	0	387	0.2	386	387	18.9	70.8
2025-07-31T20:16	10	0	0.1	0	0	387	0.2	387	388	18.6	71.6
2025-07-31T20:17	10	0	0.1	0	0	388	0.3	387	389	18.6	71.2
2025-07-31T20:18	10	0	0.1	0	0	388	0.2	388	388	18.7	70.7
2025-07-31T20:19	10	0	0.1	0	0	388	0.2	387	388	18.7	71.1
2025-07-31T20:20	10	0	0.1	0	0	388	0.2	387	388	18.7	70.9
2025-07-31T20:21	10	0	0.1	0	0	387	0.2	387	388	18.7	71.1
2025-07-31T20:22	10	0	0.1	0	0	387	0.2	387	387	18.6	71.8
2025-07-31T20:23	10	0	0.1	0	0	387	0.3	386	387	18.6	71.6
2025-07-31T20:24	10	0	0.1	0	0	386	0.2	386	387	18.5	72.1
2025-07-31T20:25	10	0	0.1	0	0	386	0.3	386	386	18.4	72.4
2025-07-31T20:26	10	0	0.1	0	0	386	0.3	385	386	18.4	72.3
2025-07-31T20:27	10	0	0.1	0	0	386	0.2	385	386	18.4	72.3
2025-07-31T20:28	10	0	0.1	0	0	385	0.2	385	386	18.4	72.1
2025-07-31T20:29	10	0	0.1	0	0	385	0.2	385	386	18.4	72.5
2025-07-31T20:30	10	0	0.1	0	0	385	0.3	384	386	18.3	72.7
2025-07-31T20:31	10	0	0.1	0	0	386	0.3	385	386	18.3	72.8
2025-07-31T20:32	10	0	0.1	0	0	386	0.2	385	387	18.3	72.6
2025-07-31T20:33	10	0	0.1	0	0	386	0.2	385	386	18.3	72.8
2025-07-31T20:34	10	0	0.1	0	0	386	0.2	385	386	18.2	73.2
2025-07-31T20:35	10	0	0.1	0	0	386	0.3	385	386	18.1	73.7
2025-07-31T20:36	10	0	0.1	0	0	386	0.4	385	387	18.2	73.1
2025-07-31T20:37	10	0	0.1	0	0	387	0.3	386	388	18.2	72.6
2025-07-31T20:38	10	0	0.1	0	0	387	0.3	387	388	18.4	71.8
2025-07-31T20:39	10	0	0.1	0	0	388	0.3	387	388	18.3	72.4
2025-07-31T20:40	10	0	0.1	0	0	387	0.2	387	388	18.2	73.2
2025-07-31T20:41	10	0	0.1	0	0	387	0.2	387	388	18.1	74.2
2025-07-31T20:42	10	0	0.1	0	0	387	0.2	387	388	18.0	75.3
2025-07-31T20:43	10	0	0.1	0	1	387	0.3	386	388	17.9	76.4
2025-07-31T20:44	10	0	0.1	0	0	387	0.2	386	387	17.7	76.7
2025-07-31T20:45	10	0	0.1	0	0	387	0.3	387	388	17.6	77.1
2025-07-31T20:46	10	0	0.1	0	0	388	0.4	387	389	17.6	76.8
2025-07-31T20:47	10	0	0.1	0	0	389	0.4	388	389	17.7	75.6
2025-07-31T20:48	10	0	0.1	0	0	389	0.4	388	390	17.8	74.6
2025-07-31T20:49	10	0	0.1	0	0	389	0.2	389	390	17.8	75.1
2025-07-31T20:50	10	0	0.1	0	0	389	0.4	389	390	17.6	76.3
2025-07-31T20:51	10	0	0.1	0	0	390	0.3	389	390	17.8	74.9
2025-07-31T20:52	10	0	0.1	0	0	390	0.3	390	391	17.8	75.0
2025-07-31T20:53	10	0	0.1	0	0	390	0.3	389	391	17.7	75.7
2025-07-31T20:54	10	0	0.1	0	0	390	0.2	390	391	17.6	76.3
2025-07-31T20:55	10	0	0.0	0	0	390	0.2	390	391	17.5	77.3
2025-07-31T20:56	10	0	0.1	0	0	390	0.3	390	391	17.4	77.5
2025-07-31T20:57	10	0	0.0	0	0	391	0.4	390	391	17.5	76.8
2025-07-31T20:58	10	0	0.0	0	0	391	0.3	390	392	17.8	75.6
2025-07-31T20:59	10	0	0.1	0	0	391	0.2	391	392	17.9	75.2
2025-07-31T21:00	10	0	0.1	0	0	391	0.2	391	392	17.8	75.3
2025-07-31T21:01	10	0	0.1	0	0	391	0.3	391	392	17.8	75.9
2025-07-31T21:02	10	0	0.1	0	0	392	0.2	391	392	17.7	76.2
2025-07-31T21:03	10	0	0.1	0	0	392	0.3	392	393	17.7	75.9
2025-07-31T21:04	10	0	0.1	0	0	392	0.3	392	393	17.8	75.8
2025-07-31T21:05	10	0	0.1	0	0	393	0.3	392	393	17.8	75.8
2025-07-31T21:06	10	0	0.1	0	0	393	0.3	392	394	17.9	75.3
2025-07-31T21:07	10	0	0.1	0	0	393	0.3	393	394	18.0	74.9
2025-07-31T21:08	10	0	0.1	0	0	393	0.2	393	394	17.9	75.3
2025-07-31T21:09	10	0	0.1	0	0	394	0.2	393	394	17.9	75.3
2025-07-31T21:10	10	0	0.1	0	0	393	0.2	393	394	17.9	75.8
2025-07-31T21:11	10	0	0.1	0	0	394	0.3	393	394	17.8	76.0
2025-07-31T21:12	10	0	0.1	0	0	394	0.2	394	394	17.9	75.5
2025-07-31T21:13	10	0	0.1	0	0	394	0.2	393	394	17.9	75.7
2025-07-31T21:14	10	0	0.1	0	0	394	0.2	393	395	17.9	75.8
2025-07-31T21:15	10	0	0.1	0	0	394	0.4	393	395	17.9	75.8
2025-07-31T21:16	10	0	0.1	0	1	393	0.3	393	394	17.9	76.2
2025-07-31T21:17	10	0	0.1	0	0	393	0.3	393	394	17.9	75.9
2025-07-31T21:18	10	0	0.1	0	0	393	0.2	393	394	17.9	75.8
2025-07-31T21:19	10	0	0.1	0	0	393	0.3	393	394	17.9	75.7
2025-07-31T21:20	10	0	0.2	0	1	393	0.3	392	394	17.9	75.5
2025-07-31T21:21	10	0	0.1	0	0	393	0.3	392	394	17.9	75.4
2025-07-31T21:22	10	0	0.2	0	1	393	0.3	392	394	17.9	75.4
2025-07-31T21:23	10	0	0.2	0	1	394	0.3	393	394	18.0	74.2
2025-07-31T21:24	10	0	0.2	0	1	394	0.3	393	394	18.1	73.6
2025-07-31T21:25	10	0	0.2	0	1	394	0.3	393	395	18.2	73.1
2025-07-31T21:26	10	0	0.2	0	1	394	0.2	394	395	18.2	72.8
2025-07-31T21:27	10	0	0.2	0	1	394	0.5	393	395	18.3	72.7
2025-07-31T21:28	10	0	0.2	0	1	393	0.3	392	394	17.9	76.6
2025-07-31T21:29	10	0	0.1	0	0	394	0.2	393	395	17.7	76.6
2025-07-31T21:30	10	0	0.1	0	1	394	0.3	393	394	17.7	76.0
2025-07-31T21:31	10	0	0.2	0	1	394	0.3	393	394	17.6	77.2
2025-07-31T21:32	10	0	0.1	0	1	394	0.2	393	394	17.5	77.4
2025-07-31T21:33	10	0	0.2	0	1	394	0.3	393	394	17.5	77.2
2025-07-31T21:34	10	0	0.1	0	0	394	0.2	393	395	17.5	77.2
2025-07-31T21:35	10	0	0.1	0	1	394	0.2	393	394	17.5	77.3
2025-07-31T21:36	10	0	0.1	0	0	394	0.2	393	394	17.5	77.7
2025-07-31T21:37	10	0	0.1	0	0	394	0.2	393	394	17.4	77.8
2025-07-31T21:38	10	0	0.1	0	0	394	0.2	393	394	17.4	77.9
2025-07-31T21:39	10	0	0.1	0	0	394	0.2	393	394	17.4	77.9
2025-07-31T21:40	10	0	0.1	0	0	394	0.2	393	394	17.4	77.9
2025-07-31T21:41	10	0	0.1	0	0	393	0.2	393	394	17.4	77.9
2025-07-31T21:42	10	0	0.1	0	0	393	0.3	393	394	17.4	77.9
2025-07-31T21:43	10	0	0.1	0	0	394	0.3	393	394	17.4	77.9
2025-07-31T21:44	10	0	0.1	0	0	394	0.3	393	394	17.4	77.9
2025-07-31T21:45	10	0	0.1	0	0	393	0.2	393	394	17.4	77.9
2025-07-31T21:46	10	0	0.1	0	0	393	0.2	393	394	17.4	78.2
2025-07-31T21:47	10	0	0.1	0	0	393	0.2	392	394	17.4	77.8
2025-07-31T21:48	10	0	0.1	0	0	393	0.2	392	393	17.5	77.9
2025-07-31T21:49	10	0	0.1	0	0	393	0.3	392	393	17.5	77.8
2025-07-31T21:50	10	0	0.1	0	0	393	0.3	392	393	17.5	77.1
2025-07-31T21:51	10	0	0.1	0	0	393	0.3	392	393	17.6	76.5
2025-07-31T21:52	10	0	0.1	0	0	393	0.4	392	393	17.5	77.4
2025-07-31T21:53	10	0	0.1	0	0	392	0.2	392	393	17.3	79.2
2025-07-31T21:54	10	0	0.1	0	0	392	0.2	392	393	17.3	79.3
2025-07-31T21:55	10	0	0.1	0	0	392	0.3	392	393	17.3	78.9
2025-07-31T21:56	10	0	0.1	0	0	392	0.2	392	393	17.3	79.0
2025-07-31T21:57	10	0	0.1	0	0	392	0.3	392	393	17.2	79.5
2025-07-31T21:58	10	0	0.0	0	0	392	0.2	391	392	17.2	79.9
2025-07-31T21:59	10	0	0.1	0	0	392	0.3	391	393	17.2	79.6
2025-07-31T22:00	10	0	0.1	0	0	392	0.2	391	392	17.2	80.3
2025-07-31T22:01	10	0	0.1	0	0	392	0.4	391	393	17.2	80.6
2025-07-31T22:02	10	0	0.1	0	0	392	0.3	392	393	17.3	79.3
2025-07-31T22:03	10	0	0.1	0	0	393	0.2	392	393	17.4	78.4
2025-07-31T22:04	10	0	0.0	0	0	393	0.2	392	393	17.6	76.9
2025-07-31T22:05	10	0	0.1	0	0	393	0.2	393	394	17.7	75.6
2025-07-31T22:06	10	0	0.1	0	0	393	0.2	393	394	17.8	75.2
2025-07-31T22:07	10	0	0.1	0	0	393	0.2	392	393	17.9	74.2
2025-07-31T22:08	10	0	0.1	0	0	393	0.2	393	394	18.0	73.6
2025-07-31T22:09	10	0	0.1	0	0	393	0.2	392	393	18.0	73.8
2025-07-31T22:10	10	0	0.1	0	0	393	0.2	392	393	17.9	74.8
2025-07-31T22:11	10	0	0.1	0	0	393	0.2	392	393	17.9	74.8
2025-07-31T22:12	10	0	0.1	0	0	393	0.2	392	393	17.9	74.9
2025-07-31T22:13	10	0	0.1	0	0	393	0.2	392	393	17.9	75.0
2025-07-31T22:14	10	0	0.1	0	0	393	0.3	393	394	17.8	75.4
2025-07-31T22:15	10	0	0.1	0	0	393	0.2	393	394	17.8	75.3
2025-07-31T22:16	10	0	0.1	0	0	394	0.3	393	394	17.8	75.3
2025-07-31T22:17	10	0	0.1	0	0	394	0.3	394	395	17.9	74.5
2025-07-31T22:18	10	0	0.1	0	0	395	0.3	394	395	17.9	74.1
2025-07-31T22:19	10	0	0.1	0	0	395	0.3	394	395	18.0	74.1
2025-07-31T22:20	10	0	0.1	0	0	395	0.2	395	396	18.0	73.9
2025-07-31T22:21	10	0	0.1	0	0	395	0.2	394	396	18.0	73.5
2025-07-31T22:22	10	0	0.1	0	0	395	0.2	394	395	18.0	73.8
2025-07-31T22:23	10	0	0.1	0	0	395	0.2	395	396	18.0	74.1
2025-07-31T22:24	10	0	0.1	0	0	395	0.3	394	396	17.9	74.5
2025-07-31T22:25	10	0	0.1	0	0	394	0.2	394	395	17.8	76.0
2025-07-31T22:26	10	0	0.1	0	0	395	0.3	394	395	17.7	76.1
2025-07-31T22:27	10	0	0.1	0	0	395	0.3	394	395	17.7	76.2
2025-07-31T22:28	10	0	0.1	0	0	395	0.2	394	395	17.7	76.1
2025-07-31T22:29	10	0	0.1	0	0	395	0.2	394	395	17.8	75.6
2025-07-31T22:30	10	0	0.1	0	0	394	0.2	394	395	17.8	75.3
2025-07-31T22:31	10	0	0.1	0	0	394	0.3	393	395	17.8	75.7
2025-07-31T22:32	10	0	0.1	0	0	394	0.4	393	395	17.9	74.8
2025-07-31T22:33	10	0	0.1	0	0	394	0.2	394	394	17.9	74.6
2025-07-31T22:34	10	0	0.1	0	0	394	0.2	393	394	17.9	74.7
2025-07-31T22:35	10	0	0.1	0	0	393	0.2	393	394	17.8	75.6
2025-07-31T22:36	10	0	0.1	0	0	393	0.3	393	394	17.8	75.7
2025-07-31T22:37	10	0	0.1	0	0	393	0.3	392	394	17.6	76.9
2025-07-31T22:38	10	0	0.1	0	1	392	0.3	391	393	17.5	78.9
2025-07-31T22:39	10	0	0.1	0	0	392	0.2	392	392	17.3	80.2
2025-07-31T22:40	10	0	0.1	0	0	392	0.2	391	392	17.2	81.1
2025-07-31T22:41	10	0	0.1	0	0	391	0.2	391	392	17.0	82.4
2025-07-31T22:42	10	0	0.1	0	0	392	0.3	391	392	17.0	82.4
2025-07-31T22:43	10	0	0.1	0	0	392	0.2	391	392	17.0	82.0
2025-07-31T22:44	10	0	0.1	0	0	391	0.3	391	392	17.0	82.7
2025-07-31T22:45	10	0	0.1	0	0	392	0.5	391	393	16.9	82.8
2025-07-31T22:46	10	0	0.1	0	0	392	0.4	392	393	17.0	81.7
2025-07-31T22:47	10	0	0.1	0	0	392	0.3	392	393	17.1	81.2
2025-07-31T22:48	10	0	0.1	0	0	393	0.3	392	394	17.2	80.1
2025-07-31T22:49	10	0	0.1	0	0	393	0.2	392	393	17.5	78.2
2025-07-31T22:50	10	0	0.1	0	0	393	0.2	392	393	17.4	79.5
2025-07-31T22:51	10	0	0.1	0	0	394	0.4	392	394	17.4	78.7
2025-07-31T22:52	10	0	0.1	0	0	393	0.3	393	394	17.5	77.8
2025-07-31T22:53	10	0	0.1	0	0	393	0.2	393	394	17.5	78.5
2025-07-31T22:54	10	0	0.1	0	0	393	0.2	393	394	17.5	78.3
2025-07-31T22:55	10	0	0.1	0	0	394	0.2	393	394	17.5	78.1
2025-07-31T22:56	10	0	0.1	0	0	394	0.3	393	394	17.5	78.9
2025-07-31T22:57	10	0	0.1	0	0	393	0.2	393	394	17.3	80.0
2025-07-31T22:58	10	0	0.1	0	0	394	0.2	393	394	17.3	79.8
2025-07-31T22:59	10	0	0.1	0	0	394	0.2	393	394	17.4	78.9
2025-07-31T23:00	10	0	0.1	0	0	394	0.2	393	394	17.4	79.0
2025-07-31T23:01	10	0	0.1	0	0	394	0.3	393	394	17.5	77.8
2025-07-31T23:02	10	0	0.1	0	0	394	0.3	393	395	17.6	78.2
2025-07-31T23:03	10	0	0.1	0	0	394	0.3	393	395	17.7	76.5
2025-07-31T23:04	10	0	0.1	0	0	394	0.3	394	395	17.9	75.1
2025-07-31T23:05	10	0	0.1	0	0	395	0.3	394	395	17.9	75.9
2025-07-31T23:06	10	0	0.1	0	0	395	0.3	394	395	17.8	76.7
2025-07-31T23:07	10	0	0.1	0	0	395	0.3	394	395	17.8	75.8
2025-07-31T23:08	10	0	0.1	0	0	395	0.2	394	395	17.8	76.4
2025-07-31T23:09	10	0	0.1	0	0	395	0.2	395	396	17.9	75.3
2025-07-31T23:10	10	0	0.1	0	0	395	0.3	395	396	18.0	74.3
2025-07-31T23:11	10	0	0.1	0	0	395	0.3	395	396	18.0	74.6
2025-07-31T23:12	10	0	0.1	0	0	395	0.3	394	395	17.8	78.7
2025-07-31T23:13	10	0	0.1	0	1	395	0.3	394	395	17.5	79.8
2025-07-31T23:14	10	0	0.1	0	0	395	0.3	395	396	17.5	78.0
2025-07-31T23:15	10	0	0.1	0	0	395	0.3	395	396	17.6	77.6
2025-07-31T23:16	10	0	0.1	0	0	395	0.3	395	396	17.6	77.0
2025-07-31T23:17	10	0	0.1	0	0	396	0.3	395	396	17.9	74.9
2025-07-31T23:18	10	0	0.1	0	0	396	0.3	395	396	17.8	76.2
2025-07-31T23:19	10	0	0.1	0	0	396	0.2	395	396	17.7	76.8
2025-07-31T23:20	10	0	0.1	0	0	395	0.2	395	396	17.6	77.7
2025-07-31T23:21	10	0	0.1	0	0	395	0.3	395	396	17.5	78.8
2025-07-31T23:22	10	0	0.1	0	0	395	0.3	394	395	17.3	79.8
2025-07-31T23:23	10	0	0.1	0	0	395	0.3	394	396	17.3	79.7
2025-07-31T23:24	10	0	0.1	0	0	395	0.3	394	395	17.4	78.2
2025-07-31T23:25	10	0	0.1	0	0	395	0.2	394	395	17.4	78.5
2025-07-31T23:26	10	0	0.1	0	0	395	0.3	394	396	17.4	78.3
2025-07-31T23:27	10	0	0.1	0	0	395	0.2	394	395	17.4	78.9
2025-07-31T23:28	10	0	0.1	0	0	395	0.3	394	395	17.3	79.9
2025-07-31T23:29	10	0	0.1	0	0	395	0.3	394	395	17.2	80.8
2025-07-31T23:30	10	0	0.1	0	0	395	0.3	394	395	17.3	80.2
2025-07-31T23:31	10	0	0.1	0	0	395	0.2	395	396	17.4	79.5
2025-07-31T23:32	10	0	0.1	0	0	395	0.3	395	396	17.4	79.2
2025-07-31T23:33	10	0	0.1	0	0	395	0.2	395	396	17.4	80.3
2025-07-31T23:34	10	0	0.1	0	0	395	0.2	395	396	17.4	80.1
2025-07-31T23:35	10	0	0.1	0	0	395	0.2	394	395	17.4	80.6
2025-07-31T23:36	10	0	0.1	0	0	395	0.3	394	396	17.4	80.2
2025-07-31T23:37	10	0	0.1	0	0	395	0.2	395	396	17.5	78.9
2025-07-31T23:38	10	0	0.1	0	0	395	0.3	394	395	17.4	80.3
2025-07-31T23:39	10	0	0.1	0	0	394	0.3	394	395	17.3	81.2
2025-07-31T23:40	10	0	0.1	0	0	394	0.2	394	395	17.1	82.0
2025-07-31T23:41	10	0	0.1	0	1	394	0.2	393	394	17.0	82.2
2025-07-31T23:42	10	0	0.1	0	0	394	0.2	393	394	17.0	82.2
2025-07-31T23:43	10	0	0.1	0	0	393	0.2	393	394	17.0	81.8
2025-07-31T23:44	10	0	0.1	0	0	393	0.2	392	393	16.9	82.7
2025-07-31T23:45	10	0	0.1	0	0	393	0.3	392	393	16.8	82.8
2025-07-31T23:46	10	0	0.1	0	0	392	0.2	391	392	16.8	83.4
2025-07-31T23:47	10	0	0.1	0	0	392	0.2	391	392	16.8	83.4
2025-07-31T23:48	10	0	0.1	0	0	392	0.2	391	392	16.8	84.2
2025-07-31T23:49	10	0	0.1	0	0	391	0.3	391	392	16.8	83.4
2025-07-31T23:50	10	0	0.1	0	0	391	0.2	391	392	16.8	82.9
2025-07-31T23:51	10	0	0.1	0	0	391	0.2	391	392	16.9	82.3
2025-07-31T23:52	10	0	0.1	0	0	391	0.2	391	392	17.0	81.6
2025-07-31T23:53	10	0	0.1	0	0	391	0.2	391	392	17.0	81.4
2025-07-31T23:54	10	0	0.1	0	0	391	0.2	391	392	17.0	81.2
2025-07-31T23:55	10	0	0.0	0	0	391	0.2	391	392	17.0	81.0
2025-07-31T23:56	10	0	0.1	0	0	391	0.3	390	391	17.0	81.4
2025-07-31T23:57	10	0	0.1	0	0	391	0.2	390	391	17.0	81.9
2025-07-31T23:58	10	0	0.1	0	0	391	0.2	390	391	17.0	82.0
2025-07-31T23:59	10	0	0.1	0	0					17.0	81.8
